<?xml version="1.0" encoding="UTF-8"?>
<gpx version="1.1" creator="https://www.youtrack.es" xsi:schemaLocation="http://www.topografix.com/GPX/1/1 http://www.topografix.com/GPX/1/1/gpx.xsd http://www.garmin.com/xmlschemas/GpxExtensions/v3 http://www.garmin.com/xmlschemas/GpxExtensionsv3.xsd http://www.garmin.com/xmlschemas/TrackPointExtension/v1 http://www.garmin.com/xmlschemas/TrackPointExtensionv1.xsd" xmlns:gpxtpx="http://www.garmin.com/xmlschemas/TrackPointExtension/v1" xmlns:gpxx="http://www.garmin.com/xmlschemas/GpxExtensions/v3" xmlns:xsi="http://www.w3.org/2001/XMLSchema-instance">
  <metadata>
    <link href="https://www.youtrack.es">
      <text>YouTrack.es</text>
    </link>
    <time>2026-05-08T14:12:14Z</time>
  </metadata>
  <trk>
    <src>https://www.youtrack.es</src>
    <link href="https://www.youtrack.es/ruta/34009-san-sebastian">
      <text>YouTrack.es</text>
    </link>
    <trkseg>
      <trkpt lat="43.311867" lon="-1.97932">
        <time>2022-07-02T07:34:55Z</time>
      </trkpt>
      <trkpt lat="43.311867" lon="-1.97932">
        <time>2022-07-02T07:34:55Z</time>
      </trkpt>
      <trkpt lat="43.311897" lon="-1.979195">
        <time>2022-07-02T07:34:56Z</time>
      </trkpt>
      <trkpt lat="43.31191" lon="-1.9791987">
        <time>2022-07-02T07:34:57Z</time>
      </trkpt>
      <trkpt lat="43.311977" lon="-1.9793023">
        <time>2022-07-02T07:35:00Z</time>
      </trkpt>
      <trkpt lat="43.312042" lon="-1.9793473">
        <time>2022-07-02T07:35:02Z</time>
      </trkpt>
      <trkpt lat="43.31212" lon="-1.979383">
        <time>2022-07-02T07:35:04Z</time>
      </trkpt>
      <trkpt lat="43.3122" lon="-1.9794043">
        <time>2022-07-02T07:35:06Z</time>
      </trkpt>
      <trkpt lat="43.312286" lon="-1.9794133">
        <time>2022-07-02T07:35:08Z</time>
      </trkpt>
      <trkpt lat="43.312374" lon="-1.9794196">
        <time>2022-07-02T07:35:10Z</time>
      </trkpt>
      <trkpt lat="43.31246" lon="-1.9794236">
        <time>2022-07-02T07:35:12Z</time>
      </trkpt>
      <trkpt lat="43.312553" lon="-1.9794173">
        <time>2022-07-02T07:35:14Z</time>
      </trkpt>
      <trkpt lat="43.3126" lon="-1.979407">
        <time>2022-07-02T07:35:15Z</time>
      </trkpt>
      <trkpt lat="43.31269" lon="-1.979388">
        <time>2022-07-02T07:35:17Z</time>
      </trkpt>
      <trkpt lat="43.312775" lon="-1.9793804">
        <time>2022-07-02T07:35:19Z</time>
      </trkpt>
      <trkpt lat="43.31285" lon="-1.9793776">
        <time>2022-07-02T07:35:21Z</time>
      </trkpt>
      <trkpt lat="43.31291" lon="-1.9793813">
        <time>2022-07-02T07:35:23Z</time>
      </trkpt>
      <trkpt lat="43.312954" lon="-1.9793903">
        <time>2022-07-02T07:35:25Z</time>
      </trkpt>
      <trkpt lat="43.31303" lon="-1.9793984">
        <time>2022-07-02T07:35:28Z</time>
      </trkpt>
      <trkpt lat="43.313084" lon="-1.979395">
        <time>2022-07-02T07:35:30Z</time>
      </trkpt>
      <trkpt lat="43.313145" lon="-1.9793837">
        <time>2022-07-02T07:35:32Z</time>
      </trkpt>
      <trkpt lat="43.313236" lon="-1.979366">
        <time>2022-07-02T07:35:35Z</time>
      </trkpt>
      <trkpt lat="43.3133" lon="-1.9793546">
        <time>2022-07-02T07:35:37Z</time>
      </trkpt>
      <trkpt lat="43.313366" lon="-1.9793496">
        <time>2022-07-02T07:35:39Z</time>
      </trkpt>
      <trkpt lat="43.31343" lon="-1.9793447">
        <time>2022-07-02T07:35:41Z</time>
      </trkpt>
      <trkpt lat="43.313496" lon="-1.9793394">
        <time>2022-07-02T07:35:43Z</time>
      </trkpt>
      <trkpt lat="43.313553" lon="-1.979327">
        <time>2022-07-02T07:35:45Z</time>
      </trkpt>
      <trkpt lat="43.31361" lon="-1.979314">
        <time>2022-07-02T07:35:47Z</time>
      </trkpt>
      <trkpt lat="43.313663" lon="-1.9793047">
        <time>2022-07-02T07:35:49Z</time>
      </trkpt>
      <trkpt lat="43.31372" lon="-1.9793007">
        <time>2022-07-02T07:35:51Z</time>
      </trkpt>
      <trkpt lat="43.313766" lon="-1.9793056">
        <time>2022-07-02T07:35:53Z</time>
      </trkpt>
      <trkpt lat="43.313816" lon="-1.979316">
        <time>2022-07-02T07:35:56Z</time>
      </trkpt>
      <trkpt lat="43.313843" lon="-1.9794036">
        <time>2022-07-02T07:36:12Z</time>
      </trkpt>
      <trkpt lat="43.31386" lon="-1.979469">
        <time>2022-07-02T07:36:15Z</time>
      </trkpt>
      <trkpt lat="43.313915" lon="-1.9794936">
        <time>2022-07-02T07:36:18Z</time>
      </trkpt>
      <trkpt lat="43.313995" lon="-1.979497">
        <time>2022-07-02T07:36:21Z</time>
      </trkpt>
      <trkpt lat="43.314064" lon="-1.979492">
        <time>2022-07-02T07:36:23Z</time>
      </trkpt>
      <trkpt lat="43.314137" lon="-1.979488">
        <time>2022-07-02T07:36:25Z</time>
      </trkpt>
      <trkpt lat="43.314213" lon="-1.979481">
        <time>2022-07-02T07:36:27Z</time>
      </trkpt>
      <trkpt lat="43.314293" lon="-1.9794723">
        <time>2022-07-02T07:36:29Z</time>
      </trkpt>
      <trkpt lat="43.31438" lon="-1.979468">
        <time>2022-07-02T07:36:31Z</time>
      </trkpt>
      <trkpt lat="43.314465" lon="-1.9794607">
        <time>2022-07-02T07:36:33Z</time>
      </trkpt>
      <trkpt lat="43.314556" lon="-1.9794496">
        <time>2022-07-02T07:36:35Z</time>
      </trkpt>
      <trkpt lat="43.314648" lon="-1.979434">
        <time>2022-07-02T07:36:37Z</time>
      </trkpt>
      <trkpt lat="43.314735" lon="-1.9794227">
        <time>2022-07-02T07:36:39Z</time>
      </trkpt>
      <trkpt lat="43.31483" lon="-1.9794143">
        <time>2022-07-02T07:36:41Z</time>
      </trkpt>
      <trkpt lat="43.314873" lon="-1.9794097">
        <time>2022-07-02T07:36:42Z</time>
      </trkpt>
      <trkpt lat="43.314964" lon="-1.979401">
        <time>2022-07-02T07:36:44Z</time>
      </trkpt>
      <trkpt lat="43.315056" lon="-1.9793974">
        <time>2022-07-02T07:36:46Z</time>
      </trkpt>
      <trkpt lat="43.31515" lon="-1.9793947">
        <time>2022-07-02T07:36:48Z</time>
      </trkpt>
      <trkpt lat="43.315247" lon="-1.9793904">
        <time>2022-07-02T07:36:50Z</time>
      </trkpt>
      <trkpt lat="43.315342" lon="-1.9793863">
        <time>2022-07-02T07:36:52Z</time>
      </trkpt>
      <trkpt lat="43.31539" lon="-1.979383">
        <time>2022-07-02T07:36:53Z</time>
      </trkpt>
      <trkpt lat="43.31549" lon="-1.9793811">
        <time>2022-07-02T07:36:55Z</time>
      </trkpt>
      <trkpt lat="43.31559" lon="-1.9793777">
        <time>2022-07-02T07:36:57Z</time>
      </trkpt>
      <trkpt lat="43.31569" lon="-1.9793661">
        <time>2022-07-02T07:36:59Z</time>
      </trkpt>
      <trkpt lat="43.31579" lon="-1.9793534">
        <time>2022-07-02T07:37:01Z</time>
      </trkpt>
      <trkpt lat="43.315838" lon="-1.9793471">
        <time>2022-07-02T07:37:02Z</time>
      </trkpt>
      <trkpt lat="43.315937" lon="-1.9793391">
        <time>2022-07-02T07:37:04Z</time>
      </trkpt>
      <trkpt lat="43.316032" lon="-1.9793278">
        <time>2022-07-02T07:37:06Z</time>
      </trkpt>
      <trkpt lat="43.31612" lon="-1.9793214">
        <time>2022-07-02T07:37:08Z</time>
      </trkpt>
      <trkpt lat="43.316208" lon="-1.9793184">
        <time>2022-07-02T07:37:10Z</time>
      </trkpt>
      <trkpt lat="43.3163" lon="-1.9793191">
        <time>2022-07-02T07:37:12Z</time>
      </trkpt>
      <trkpt lat="43.316383" lon="-1.979318">
        <time>2022-07-02T07:37:14Z</time>
      </trkpt>
      <trkpt lat="43.316475" lon="-1.9793161">
        <time>2022-07-02T07:37:16Z</time>
      </trkpt>
      <trkpt lat="43.316566" lon="-1.9793134">
        <time>2022-07-02T07:37:18Z</time>
      </trkpt>
      <trkpt lat="43.316654" lon="-1.9793091">
        <time>2022-07-02T07:37:20Z</time>
      </trkpt>
      <trkpt lat="43.316746" lon="-1.9792974">
        <time>2022-07-02T07:37:22Z</time>
      </trkpt>
      <trkpt lat="43.316837" lon="-1.9792857">
        <time>2022-07-02T07:37:24Z</time>
      </trkpt>
      <trkpt lat="43.316933" lon="-1.979284">
        <time>2022-07-02T07:37:26Z</time>
      </trkpt>
      <trkpt lat="43.317066" lon="-1.9792768">
        <time>2022-07-02T07:37:29Z</time>
      </trkpt>
      <trkpt lat="43.31714" lon="-1.9792662">
        <time>2022-07-02T07:37:31Z</time>
      </trkpt>
      <trkpt lat="43.317204" lon="-1.9792581">
        <time>2022-07-02T07:37:33Z</time>
      </trkpt>
      <trkpt lat="43.317265" lon="-1.9792488">
        <time>2022-07-02T07:37:35Z</time>
      </trkpt>
      <trkpt lat="43.317307" lon="-1.9792417">
        <time>2022-07-02T07:37:37Z</time>
      </trkpt>
      <trkpt lat="43.317425" lon="-1.9791975">
        <time>2022-07-02T07:38:15Z</time>
      </trkpt>
      <trkpt lat="43.317482" lon="-1.9791691">
        <time>2022-07-02T07:38:17Z</time>
      </trkpt>
      <trkpt lat="43.317547" lon="-1.9791495">
        <time>2022-07-02T07:38:19Z</time>
      </trkpt>
      <trkpt lat="43.317616" lon="-1.9791358">
        <time>2022-07-02T07:38:21Z</time>
      </trkpt>
      <trkpt lat="43.31769" lon="-1.9791205">
        <time>2022-07-02T07:38:23Z</time>
      </trkpt>
      <trkpt lat="43.31777" lon="-1.9791081">
        <time>2022-07-02T07:38:25Z</time>
      </trkpt>
      <trkpt lat="43.317844" lon="-1.9790975">
        <time>2022-07-02T07:38:27Z</time>
      </trkpt>
      <trkpt lat="43.317917" lon="-1.9790858">
        <time>2022-07-02T07:38:29Z</time>
      </trkpt>
      <trkpt lat="43.317997" lon="-1.9790715">
        <time>2022-07-02T07:38:31Z</time>
      </trkpt>
      <trkpt lat="43.318077" lon="-1.9790589">
        <time>2022-07-02T07:38:33Z</time>
      </trkpt>
      <trkpt lat="43.31815" lon="-1.9790435">
        <time>2022-07-02T07:38:35Z</time>
      </trkpt>
      <trkpt lat="43.318226" lon="-1.9790355">
        <time>2022-07-02T07:38:37Z</time>
      </trkpt>
      <trkpt lat="43.318302" lon="-1.9790539">
        <time>2022-07-02T07:38:39Z</time>
      </trkpt>
      <trkpt lat="43.318356" lon="-1.9791038">
        <time>2022-07-02T07:38:41Z</time>
      </trkpt>
      <trkpt lat="43.318398" lon="-1.9791589">
        <time>2022-07-02T07:38:43Z</time>
      </trkpt>
      <trkpt lat="43.318436" lon="-1.9792064">
        <time>2022-07-02T07:38:45Z</time>
      </trkpt>
      <trkpt lat="43.318478" lon="-1.9792439">
        <time>2022-07-02T07:38:47Z</time>
      </trkpt>
      <trkpt lat="43.318558" lon="-1.9792708">
        <time>2022-07-02T07:38:50Z</time>
      </trkpt>
      <trkpt lat="43.318615" lon="-1.9792691">
        <time>2022-07-02T07:38:52Z</time>
      </trkpt>
      <trkpt lat="43.31868" lon="-1.9792625">
        <time>2022-07-02T07:38:54Z</time>
      </trkpt>
      <trkpt lat="43.318752" lon="-1.9792585">
        <time>2022-07-02T07:38:56Z</time>
      </trkpt>
      <trkpt lat="43.318825" lon="-1.9792552">
        <time>2022-07-02T07:38:58Z</time>
      </trkpt>
      <trkpt lat="43.318893" lon="-1.9792541">
        <time>2022-07-02T07:39:00Z</time>
      </trkpt>
      <trkpt lat="43.31894" lon="-1.9792519">
        <time>2022-07-02T07:39:02Z</time>
      </trkpt>
      <trkpt lat="43.318993" lon="-1.9792372">
        <time>2022-07-02T07:39:05Z</time>
      </trkpt>
      <trkpt lat="43.319027" lon="-1.9791739">
        <time>2022-07-02T07:39:08Z</time>
      </trkpt>
      <trkpt lat="43.319073" lon="-1.9791309">
        <time>2022-07-02T07:39:11Z</time>
      </trkpt>
      <trkpt lat="43.31915" lon="-1.9791116">
        <time>2022-07-02T07:39:14Z</time>
      </trkpt>
      <trkpt lat="43.31921" lon="-1.9790992">
        <time>2022-07-02T07:39:16Z</time>
      </trkpt>
      <trkpt lat="43.31927" lon="-1.9790899">
        <time>2022-07-02T07:39:18Z</time>
      </trkpt>
      <trkpt lat="43.319332" lon="-1.9790812">
        <time>2022-07-02T07:39:20Z</time>
      </trkpt>
      <trkpt lat="43.3194" lon="-1.9790735">
        <time>2022-07-02T07:39:22Z</time>
      </trkpt>
      <trkpt lat="43.31947" lon="-1.9790648">
        <time>2022-07-02T07:39:24Z</time>
      </trkpt>
      <trkpt lat="43.319542" lon="-1.9790562">
        <time>2022-07-02T07:39:26Z</time>
      </trkpt>
      <trkpt lat="43.31962" lon="-1.9790436">
        <time>2022-07-02T07:39:28Z</time>
      </trkpt>
      <trkpt lat="43.319695" lon="-1.9790329">
        <time>2022-07-02T07:39:30Z</time>
      </trkpt>
      <trkpt lat="43.319813" lon="-1.9790236">
        <time>2022-07-02T07:39:33Z</time>
      </trkpt>
      <trkpt lat="43.319885" lon="-1.9790273">
        <time>2022-07-02T07:39:35Z</time>
      </trkpt>
      <trkpt lat="43.319954" lon="-1.9790375">
        <time>2022-07-02T07:39:37Z</time>
      </trkpt>
      <trkpt lat="43.320026" lon="-1.9790546">
        <time>2022-07-02T07:39:39Z</time>
      </trkpt>
      <trkpt lat="43.320095" lon="-1.9790668">
        <time>2022-07-02T07:39:41Z</time>
      </trkpt>
      <trkpt lat="43.32016" lon="-1.97907">
        <time>2022-07-02T07:39:43Z</time>
      </trkpt>
      <trkpt lat="43.32022" lon="-1.9790763">
        <time>2022-07-02T07:39:45Z</time>
      </trkpt>
      <trkpt lat="43.320293" lon="-1.9790949">
        <time>2022-07-02T07:39:47Z</time>
      </trkpt>
      <trkpt lat="43.320366" lon="-1.9790969">
        <time>2022-07-02T07:39:49Z</time>
      </trkpt>
      <trkpt lat="43.32043" lon="-1.9790882">
        <time>2022-07-02T07:39:51Z</time>
      </trkpt>
      <trkpt lat="43.320488" lon="-1.9790798">
        <time>2022-07-02T07:39:53Z</time>
      </trkpt>
      <trkpt lat="43.320538" lon="-1.9790676">
        <time>2022-07-02T07:39:55Z</time>
      </trkpt>
      <trkpt lat="43.32059" lon="-1.9790529">
        <time>2022-07-02T07:39:58Z</time>
      </trkpt>
      <trkpt lat="43.320663" lon="-1.979039">
        <time>2022-07-02T07:40:03Z</time>
      </trkpt>
      <trkpt lat="43.320717" lon="-1.9790106">
        <time>2022-07-02T07:40:06Z</time>
      </trkpt>
      <trkpt lat="43.32077" lon="-1.9789839">
        <time>2022-07-02T07:40:09Z</time>
      </trkpt>
      <trkpt lat="43.32083" lon="-1.9789805">
        <time>2022-07-02T07:40:12Z</time>
      </trkpt>
      <trkpt lat="43.320904" lon="-1.9789926">
        <time>2022-07-02T07:40:15Z</time>
      </trkpt>
      <trkpt lat="43.320957" lon="-1.9790219">
        <time>2022-07-02T07:40:17Z</time>
      </trkpt>
      <trkpt lat="43.32101" lon="-1.9790689">
        <time>2022-07-02T07:40:19Z</time>
      </trkpt>
      <trkpt lat="43.32106" lon="-1.9791286">
        <time>2022-07-02T07:40:21Z</time>
      </trkpt>
      <trkpt lat="43.321114" lon="-1.9791893">
        <time>2022-07-02T07:40:23Z</time>
      </trkpt>
      <trkpt lat="43.32117" lon="-1.9792426">
        <time>2022-07-02T07:40:25Z</time>
      </trkpt>
      <trkpt lat="43.321236" lon="-1.9792858">
        <time>2022-07-02T07:40:27Z</time>
      </trkpt>
      <trkpt lat="43.32131" lon="-1.9793218">
        <time>2022-07-02T07:40:29Z</time>
      </trkpt>
      <trkpt lat="43.32138" lon="-1.9793599">
        <time>2022-07-02T07:40:31Z</time>
      </trkpt>
      <trkpt lat="43.321453" lon="-1.9794039">
        <time>2022-07-02T07:40:33Z</time>
      </trkpt>
      <trkpt lat="43.321526" lon="-1.9794506">
        <time>2022-07-02T07:40:35Z</time>
      </trkpt>
      <trkpt lat="43.321598" lon="-1.9795012">
        <time>2022-07-02T07:40:37Z</time>
      </trkpt>
      <trkpt lat="43.32167" lon="-1.9795536">
        <time>2022-07-02T07:40:39Z</time>
      </trkpt>
      <trkpt lat="43.321743" lon="-1.9796042">
        <time>2022-07-02T07:40:41Z</time>
      </trkpt>
      <trkpt lat="43.32182" lon="-1.9796559">
        <time>2022-07-02T07:40:43Z</time>
      </trkpt>
      <trkpt lat="43.32189" lon="-1.9797075">
        <time>2022-07-02T07:40:45Z</time>
      </trkpt>
      <trkpt lat="43.321964" lon="-1.9797596">
        <time>2022-07-02T07:40:47Z</time>
      </trkpt>
      <trkpt lat="43.322037" lon="-1.9798129">
        <time>2022-07-02T07:40:49Z</time>
      </trkpt>
      <trkpt lat="43.322113" lon="-1.9798669">
        <time>2022-07-02T07:40:51Z</time>
      </trkpt>
      <trkpt lat="43.322186" lon="-1.9799185">
        <time>2022-07-02T07:40:53Z</time>
      </trkpt>
      <trkpt lat="43.322254" lon="-1.9799712">
        <time>2022-07-02T07:40:55Z</time>
      </trkpt>
      <trkpt lat="43.322323" lon="-1.9800192">
        <time>2022-07-02T07:40:57Z</time>
      </trkpt>
      <trkpt lat="43.322384" lon="-1.9800612">
        <time>2022-07-02T07:40:59Z</time>
      </trkpt>
      <trkpt lat="43.32243" lon="-1.9801002">
        <time>2022-07-02T07:41:01Z</time>
      </trkpt>
      <trkpt lat="43.322475" lon="-1.9801348">
        <time>2022-07-02T07:41:03Z</time>
      </trkpt>
      <trkpt lat="43.322525" lon="-1.9801692">
        <time>2022-07-02T07:41:05Z</time>
      </trkpt>
      <trkpt lat="43.32258" lon="-1.9802105">
        <time>2022-07-02T07:41:07Z</time>
      </trkpt>
      <trkpt lat="43.322628" lon="-1.9802629">
        <time>2022-07-02T07:41:09Z</time>
      </trkpt>
      <trkpt lat="43.322685" lon="-1.9803128">
        <time>2022-07-02T07:41:11Z</time>
      </trkpt>
      <trkpt lat="43.322746" lon="-1.9803615">
        <time>2022-07-02T07:41:13Z</time>
      </trkpt>
      <trkpt lat="43.322807" lon="-1.9804095">
        <time>2022-07-02T07:41:15Z</time>
      </trkpt>
      <trkpt lat="43.32287" lon="-1.9804485">
        <time>2022-07-02T07:41:17Z</time>
      </trkpt>
      <trkpt lat="43.32293" lon="-1.9804718">
        <time>2022-07-02T07:41:19Z</time>
      </trkpt>
      <trkpt lat="43.32299" lon="-1.9804955">
        <time>2022-07-02T07:41:21Z</time>
      </trkpt>
      <trkpt lat="43.323048" lon="-1.9805275">
        <time>2022-07-02T07:41:23Z</time>
      </trkpt>
      <trkpt lat="43.3231" lon="-1.9805604">
        <time>2022-07-02T07:41:25Z</time>
      </trkpt>
      <trkpt lat="43.323154" lon="-1.9805931">
        <time>2022-07-02T07:41:27Z</time>
      </trkpt>
      <trkpt lat="43.323193" lon="-1.9806188">
        <time>2022-07-02T07:41:29Z</time>
      </trkpt>
      <trkpt lat="43.32328" lon="-1.9806771">
        <time>2022-07-02T07:42:12Z</time>
      </trkpt>
      <trkpt lat="43.32335" lon="-1.9807295">
        <time>2022-07-02T07:42:15Z</time>
      </trkpt>
      <trkpt lat="43.323402" lon="-1.9807751">
        <time>2022-07-02T07:42:17Z</time>
      </trkpt>
      <trkpt lat="43.323463" lon="-1.9808195">
        <time>2022-07-02T07:42:19Z</time>
      </trkpt>
      <trkpt lat="43.32353" lon="-1.9808651">
        <time>2022-07-02T07:42:21Z</time>
      </trkpt>
      <trkpt lat="43.323597" lon="-1.9809134">
        <time>2022-07-02T07:42:23Z</time>
      </trkpt>
      <trkpt lat="43.323666" lon="-1.9809641">
        <time>2022-07-02T07:42:25Z</time>
      </trkpt>
      <trkpt lat="43.32374" lon="-1.9810164">
        <time>2022-07-02T07:42:27Z</time>
      </trkpt>
      <trkpt lat="43.323807" lon="-1.9810684">
        <time>2022-07-02T07:42:29Z</time>
      </trkpt>
      <trkpt lat="43.32388" lon="-1.9811184">
        <time>2022-07-02T07:42:31Z</time>
      </trkpt>
      <trkpt lat="43.32395" lon="-1.9811647">
        <time>2022-07-02T07:42:33Z</time>
      </trkpt>
      <trkpt lat="43.324024" lon="-1.9812154">
        <time>2022-07-02T07:42:35Z</time>
      </trkpt>
      <trkpt lat="43.324097" lon="-1.9812667">
        <time>2022-07-02T07:42:37Z</time>
      </trkpt>
      <trkpt lat="43.324173" lon="-1.9813167">
        <time>2022-07-02T07:42:39Z</time>
      </trkpt>
      <trkpt lat="43.32424" lon="-1.9813638">
        <time>2022-07-02T07:42:41Z</time>
      </trkpt>
      <trkpt lat="43.324306" lon="-1.9814167">
        <time>2022-07-02T07:42:43Z</time>
      </trkpt>
      <trkpt lat="43.32437" lon="-1.9814724">
        <time>2022-07-02T07:42:45Z</time>
      </trkpt>
      <trkpt lat="43.32444" lon="-1.9815251">
        <time>2022-07-02T07:42:47Z</time>
      </trkpt>
      <trkpt lat="43.324512" lon="-1.9815811">
        <time>2022-07-02T07:42:49Z</time>
      </trkpt>
      <trkpt lat="43.32458" lon="-1.9816451">
        <time>2022-07-02T07:42:51Z</time>
      </trkpt>
      <trkpt lat="43.32465" lon="-1.9817144">
        <time>2022-07-02T07:42:53Z</time>
      </trkpt>
      <trkpt lat="43.324722" lon="-1.9817843">
        <time>2022-07-02T07:42:55Z</time>
      </trkpt>
      <trkpt lat="43.324795" lon="-1.9818517">
        <time>2022-07-02T07:42:57Z</time>
      </trkpt>
      <trkpt lat="43.324867" lon="-1.9819248">
        <time>2022-07-02T07:42:59Z</time>
      </trkpt>
      <trkpt lat="43.324944" lon="-1.9820004">
        <time>2022-07-02T07:43:01Z</time>
      </trkpt>
      <trkpt lat="43.324978" lon="-1.9820408">
        <time>2022-07-02T07:43:02Z</time>
      </trkpt>
      <trkpt lat="43.32505" lon="-1.9821227">
        <time>2022-07-02T07:43:04Z</time>
      </trkpt>
      <trkpt lat="43.32512" lon="-1.9822043">
        <time>2022-07-02T07:43:06Z</time>
      </trkpt>
      <trkpt lat="43.325184" lon="-1.9822917">
        <time>2022-07-02T07:43:08Z</time>
      </trkpt>
      <trkpt lat="43.325237" lon="-1.982388">
        <time>2022-07-02T07:43:10Z</time>
      </trkpt>
      <trkpt lat="43.325283" lon="-1.982496">
        <time>2022-07-02T07:43:12Z</time>
      </trkpt>
      <trkpt lat="43.325325" lon="-1.9826111">
        <time>2022-07-02T07:43:14Z</time>
      </trkpt>
      <trkpt lat="43.325367" lon="-1.9827276">
        <time>2022-07-02T07:43:16Z</time>
      </trkpt>
      <trkpt lat="43.325405" lon="-1.982848">
        <time>2022-07-02T07:43:18Z</time>
      </trkpt>
      <trkpt lat="43.32544" lon="-1.9829761">
        <time>2022-07-02T07:43:20Z</time>
      </trkpt>
      <trkpt lat="43.325474" lon="-1.9831086">
        <time>2022-07-02T07:43:22Z</time>
      </trkpt>
      <trkpt lat="43.325493" lon="-1.9831723">
        <time>2022-07-02T07:43:23Z</time>
      </trkpt>
      <trkpt lat="43.32553" lon="-1.9833033">
        <time>2022-07-02T07:43:25Z</time>
      </trkpt>
      <trkpt lat="43.325546" lon="-1.98337">
        <time>2022-07-02T07:43:26Z</time>
      </trkpt>
      <trkpt lat="43.325584" lon="-1.9835024">
        <time>2022-07-02T07:43:28Z</time>
      </trkpt>
      <trkpt lat="43.325603" lon="-1.983567">
        <time>2022-07-02T07:43:29Z</time>
      </trkpt>
      <trkpt lat="43.325645" lon="-1.9836956">
        <time>2022-07-02T07:43:31Z</time>
      </trkpt>
      <trkpt lat="43.325665" lon="-1.9837587">
        <time>2022-07-02T07:43:32Z</time>
      </trkpt>
      <trkpt lat="43.325703" lon="-1.9838866">
        <time>2022-07-02T07:43:34Z</time>
      </trkpt>
      <trkpt lat="43.325714" lon="-1.9839523">
        <time>2022-07-02T07:43:35Z</time>
      </trkpt>
      <trkpt lat="43.325745" lon="-1.9840833">
        <time>2022-07-02T07:43:37Z</time>
      </trkpt>
      <trkpt lat="43.325775" lon="-1.9842126">
        <time>2022-07-02T07:43:39Z</time>
      </trkpt>
      <trkpt lat="43.325813" lon="-1.9843413">
        <time>2022-07-02T07:43:41Z</time>
      </trkpt>
      <trkpt lat="43.325832" lon="-1.9844053">
        <time>2022-07-02T07:43:42Z</time>
      </trkpt>
      <trkpt lat="43.325867" lon="-1.9845326">
        <time>2022-07-02T07:43:44Z</time>
      </trkpt>
      <trkpt lat="43.3259" lon="-1.9846586">
        <time>2022-07-02T07:43:46Z</time>
      </trkpt>
      <trkpt lat="43.325935" lon="-1.9847833">
        <time>2022-07-02T07:43:48Z</time>
      </trkpt>
      <trkpt lat="43.32597" lon="-1.9849069">
        <time>2022-07-02T07:43:50Z</time>
      </trkpt>
      <trkpt lat="43.32599" lon="-1.9849687">
        <time>2022-07-02T07:43:51Z</time>
      </trkpt>
      <trkpt lat="43.32603" lon="-1.985089">
        <time>2022-07-02T07:43:53Z</time>
      </trkpt>
      <trkpt lat="43.32605" lon="-1.9851483">
        <time>2022-07-02T07:43:54Z</time>
      </trkpt>
      <trkpt lat="43.32609" lon="-1.9852682">
        <time>2022-07-02T07:43:56Z</time>
      </trkpt>
      <trkpt lat="43.32613" lon="-1.9853909">
        <time>2022-07-02T07:43:58Z</time>
      </trkpt>
      <trkpt lat="43.32615" lon="-1.9854532">
        <time>2022-07-02T07:43:59Z</time>
      </trkpt>
      <trkpt lat="43.326183" lon="-1.9855785">
        <time>2022-07-02T07:44:01Z</time>
      </trkpt>
      <trkpt lat="43.326218" lon="-1.9857036">
        <time>2022-07-02T07:44:03Z</time>
      </trkpt>
      <trkpt lat="43.32625" lon="-1.9858279">
        <time>2022-07-02T07:44:05Z</time>
      </trkpt>
      <trkpt lat="43.326263" lon="-1.985889">
        <time>2022-07-02T07:44:06Z</time>
      </trkpt>
      <trkpt lat="43.326294" lon="-1.9860133">
        <time>2022-07-02T07:44:08Z</time>
      </trkpt>
      <trkpt lat="43.326305" lon="-1.986077">
        <time>2022-07-02T07:44:09Z</time>
      </trkpt>
      <trkpt lat="43.326336" lon="-1.9862022">
        <time>2022-07-02T07:44:11Z</time>
      </trkpt>
      <trkpt lat="43.326347" lon="-1.986265">
        <time>2022-07-02T07:44:12Z</time>
      </trkpt>
      <trkpt lat="43.326374" lon="-1.9863906">
        <time>2022-07-02T07:44:14Z</time>
      </trkpt>
      <trkpt lat="43.326405" lon="-1.9865155">
        <time>2022-07-02T07:44:16Z</time>
      </trkpt>
      <trkpt lat="43.326443" lon="-1.9866376">
        <time>2022-07-02T07:44:18Z</time>
      </trkpt>
      <trkpt lat="43.326477" lon="-1.9867582">
        <time>2022-07-02T07:44:20Z</time>
      </trkpt>
      <trkpt lat="43.32651" lon="-1.9868822">
        <time>2022-07-02T07:44:22Z</time>
      </trkpt>
      <trkpt lat="43.32654" lon="-1.9870042">
        <time>2022-07-02T07:44:24Z</time>
      </trkpt>
      <trkpt lat="43.32656" lon="-1.9870646">
        <time>2022-07-02T07:44:25Z</time>
      </trkpt>
      <trkpt lat="43.326595" lon="-1.9871815">
        <time>2022-07-02T07:44:27Z</time>
      </trkpt>
      <trkpt lat="43.32663" lon="-1.9872966">
        <time>2022-07-02T07:44:29Z</time>
      </trkpt>
      <trkpt lat="43.326668" lon="-1.9874068">
        <time>2022-07-02T07:44:31Z</time>
      </trkpt>
      <trkpt lat="43.326706" lon="-1.9875199">
        <time>2022-07-02T07:44:33Z</time>
      </trkpt>
      <trkpt lat="43.326744" lon="-1.9876366">
        <time>2022-07-02T07:44:35Z</time>
      </trkpt>
      <trkpt lat="43.32678" lon="-1.9877535">
        <time>2022-07-02T07:44:37Z</time>
      </trkpt>
      <trkpt lat="43.326813" lon="-1.9878691">
        <time>2022-07-02T07:44:39Z</time>
      </trkpt>
      <trkpt lat="43.326847" lon="-1.9879836">
        <time>2022-07-02T07:44:41Z</time>
      </trkpt>
      <trkpt lat="43.326878" lon="-1.9880955">
        <time>2022-07-02T07:44:43Z</time>
      </trkpt>
      <trkpt lat="43.326912" lon="-1.9882061">
        <time>2022-07-02T07:44:45Z</time>
      </trkpt>
      <trkpt lat="43.326942" lon="-1.9883155">
        <time>2022-07-02T07:44:47Z</time>
      </trkpt>
      <trkpt lat="43.327003" lon="-1.9884669">
        <time>2022-07-02T07:44:50Z</time>
      </trkpt>
      <trkpt lat="43.32706" lon="-1.9885472">
        <time>2022-07-02T07:44:52Z</time>
      </trkpt>
      <trkpt lat="43.32712" lon="-1.9886222">
        <time>2022-07-02T07:44:54Z</time>
      </trkpt>
      <trkpt lat="43.327168" lon="-1.9887052">
        <time>2022-07-02T07:44:56Z</time>
      </trkpt>
      <trkpt lat="43.327198" lon="-1.9888015">
        <time>2022-07-02T07:44:58Z</time>
      </trkpt>
      <trkpt lat="43.32721" lon="-1.9889045">
        <time>2022-07-02T07:45:00Z</time>
      </trkpt>
      <trkpt lat="43.327206" lon="-1.9890149">
        <time>2022-07-02T07:45:02Z</time>
      </trkpt>
      <trkpt lat="43.327198" lon="-1.9891258">
        <time>2022-07-02T07:45:04Z</time>
      </trkpt>
      <trkpt lat="43.327183" lon="-1.9892375">
        <time>2022-07-02T07:45:06Z</time>
      </trkpt>
      <trkpt lat="43.32716" lon="-1.9893445">
        <time>2022-07-02T07:45:08Z</time>
      </trkpt>
      <trkpt lat="43.32713" lon="-1.9894478">
        <time>2022-07-02T07:45:10Z</time>
      </trkpt>
      <trkpt lat="43.32709" lon="-1.9895465">
        <time>2022-07-02T07:45:12Z</time>
      </trkpt>
      <trkpt lat="43.327045" lon="-1.9896429">
        <time>2022-07-02T07:45:14Z</time>
      </trkpt>
      <trkpt lat="43.327" lon="-1.9897351">
        <time>2022-07-02T07:45:16Z</time>
      </trkpt>
      <trkpt lat="43.32695" lon="-1.9898231">
        <time>2022-07-02T07:45:18Z</time>
      </trkpt>
      <trkpt lat="43.326904" lon="-1.9899138">
        <time>2022-07-02T07:45:20Z</time>
      </trkpt>
      <trkpt lat="43.326866" lon="-1.9900118">
        <time>2022-07-02T07:45:22Z</time>
      </trkpt>
      <trkpt lat="43.326843" lon="-1.9901172">
        <time>2022-07-02T07:45:24Z</time>
      </trkpt>
      <trkpt lat="43.326824" lon="-1.9902275">
        <time>2022-07-02T07:45:26Z</time>
      </trkpt>
      <trkpt lat="43.32681" lon="-1.9903392">
        <time>2022-07-02T07:45:28Z</time>
      </trkpt>
      <trkpt lat="43.3268" lon="-1.9904524">
        <time>2022-07-02T07:45:30Z</time>
      </trkpt>
      <trkpt lat="43.32679" lon="-1.9905654">
        <time>2022-07-02T07:45:32Z</time>
      </trkpt>
      <trkpt lat="43.326775" lon="-1.9906791">
        <time>2022-07-02T07:45:34Z</time>
      </trkpt>
      <trkpt lat="43.32675" lon="-1.9907892">
        <time>2022-07-02T07:45:36Z</time>
      </trkpt>
      <trkpt lat="43.326717" lon="-1.9908928">
        <time>2022-07-02T07:45:38Z</time>
      </trkpt>
      <trkpt lat="43.32667" lon="-1.9909918">
        <time>2022-07-02T07:45:40Z</time>
      </trkpt>
      <trkpt lat="43.326622" lon="-1.9910924">
        <time>2022-07-02T07:45:42Z</time>
      </trkpt>
      <trkpt lat="43.326565" lon="-1.9911947">
        <time>2022-07-02T07:45:44Z</time>
      </trkpt>
      <trkpt lat="43.326508" lon="-1.9912931">
        <time>2022-07-02T07:45:46Z</time>
      </trkpt>
      <trkpt lat="43.326435" lon="-1.9913777">
        <time>2022-07-02T07:45:48Z</time>
      </trkpt>
      <trkpt lat="43.326355" lon="-1.9914421">
        <time>2022-07-02T07:45:50Z</time>
      </trkpt>
      <trkpt lat="43.326267" lon="-1.9914885">
        <time>2022-07-02T07:45:52Z</time>
      </trkpt>
      <trkpt lat="43.326176" lon="-1.9915274">
        <time>2022-07-02T07:45:54Z</time>
      </trkpt>
      <trkpt lat="43.326088" lon="-1.9915787">
        <time>2022-07-02T07:45:56Z</time>
      </trkpt>
      <trkpt lat="43.326004" lon="-1.9916514">
        <time>2022-07-02T07:45:58Z</time>
      </trkpt>
      <trkpt lat="43.32594" lon="-1.9917485">
        <time>2022-07-02T07:46:00Z</time>
      </trkpt>
      <trkpt lat="43.325905" lon="-1.991801">
        <time>2022-07-02T07:46:01Z</time>
      </trkpt>
      <trkpt lat="43.325844" lon="-1.9919127">
        <time>2022-07-02T07:46:03Z</time>
      </trkpt>
      <trkpt lat="43.325813" lon="-1.9919697">
        <time>2022-07-02T07:46:04Z</time>
      </trkpt>
      <trkpt lat="43.32575" lon="-1.9920831">
        <time>2022-07-02T07:46:06Z</time>
      </trkpt>
      <trkpt lat="43.325714" lon="-1.9921367">
        <time>2022-07-02T07:46:07Z</time>
      </trkpt>
      <trkpt lat="43.32568" lon="-1.9921877">
        <time>2022-07-02T07:46:08Z</time>
      </trkpt>
      <trkpt lat="43.32564" lon="-1.9922371">
        <time>2022-07-02T07:46:09Z</time>
      </trkpt>
      <trkpt lat="43.32556" lon="-1.9923321">
        <time>2022-07-02T07:46:11Z</time>
      </trkpt>
      <trkpt lat="43.32552" lon="-1.9923778">
        <time>2022-07-02T07:46:12Z</time>
      </trkpt>
      <trkpt lat="43.32548" lon="-1.9924227">
        <time>2022-07-02T07:46:13Z</time>
      </trkpt>
      <trkpt lat="43.32544" lon="-1.992467">
        <time>2022-07-02T07:46:14Z</time>
      </trkpt>
      <trkpt lat="43.325397" lon="-1.992511">
        <time>2022-07-02T07:46:15Z</time>
      </trkpt>
      <trkpt lat="43.32532" lon="-1.9926003">
        <time>2022-07-02T07:46:17Z</time>
      </trkpt>
      <trkpt lat="43.325283" lon="-1.9926444">
        <time>2022-07-02T07:46:18Z</time>
      </trkpt>
      <trkpt lat="43.325203" lon="-1.9927326">
        <time>2022-07-02T07:46:20Z</time>
      </trkpt>
      <trkpt lat="43.325165" lon="-1.992776">
        <time>2022-07-02T07:46:21Z</time>
      </trkpt>
      <trkpt lat="43.325092" lon="-1.9928703">
        <time>2022-07-02T07:46:23Z</time>
      </trkpt>
      <trkpt lat="43.32506" lon="-1.9929217">
        <time>2022-07-02T07:46:24Z</time>
      </trkpt>
      <trkpt lat="43.32503" lon="-1.9929711">
        <time>2022-07-02T07:46:25Z</time>
      </trkpt>
      <trkpt lat="43.32497" lon="-1.9930854">
        <time>2022-07-02T07:46:27Z</time>
      </trkpt>
      <trkpt lat="43.324913" lon="-1.9932017">
        <time>2022-07-02T07:46:29Z</time>
      </trkpt>
      <trkpt lat="43.324886" lon="-1.9932617">
        <time>2022-07-02T07:46:30Z</time>
      </trkpt>
      <trkpt lat="43.324837" lon="-1.9933836">
        <time>2022-07-02T07:46:32Z</time>
      </trkpt>
      <trkpt lat="43.32481" lon="-1.993445">
        <time>2022-07-02T07:46:33Z</time>
      </trkpt>
      <trkpt lat="43.32475" lon="-1.9935597">
        <time>2022-07-02T07:46:35Z</time>
      </trkpt>
      <trkpt lat="43.32471" lon="-1.9936084">
        <time>2022-07-02T07:46:36Z</time>
      </trkpt>
      <trkpt lat="43.32467" lon="-1.9936479">
        <time>2022-07-02T07:46:37Z</time>
      </trkpt>
      <trkpt lat="43.32458" lon="-1.9937003">
        <time>2022-07-02T07:46:39Z</time>
      </trkpt>
      <trkpt lat="43.324493" lon="-1.9937166">
        <time>2022-07-02T07:46:41Z</time>
      </trkpt>
      <trkpt lat="43.324413" lon="-1.9936963">
        <time>2022-07-02T07:46:43Z</time>
      </trkpt>
      <trkpt lat="43.324337" lon="-1.9936483">
        <time>2022-07-02T07:46:45Z</time>
      </trkpt>
      <trkpt lat="43.32426" lon="-1.9935833">
        <time>2022-07-02T07:46:47Z</time>
      </trkpt>
      <trkpt lat="43.32419" lon="-1.9935113">
        <time>2022-07-02T07:46:49Z</time>
      </trkpt>
      <trkpt lat="43.3241" lon="-1.9933993">
        <time>2022-07-02T07:46:52Z</time>
      </trkpt>
      <trkpt lat="43.32405" lon="-1.9933203">
        <time>2022-07-02T07:46:54Z</time>
      </trkpt>
      <trkpt lat="43.324" lon="-1.9932439">
        <time>2022-07-02T07:46:56Z</time>
      </trkpt>
      <trkpt lat="43.323956" lon="-1.993169">
        <time>2022-07-02T07:46:58Z</time>
      </trkpt>
      <trkpt lat="43.3239" lon="-1.9930873">
        <time>2022-07-02T07:47:01Z</time>
      </trkpt>
      <trkpt lat="43.323837" lon="-1.9930077">
        <time>2022-07-02T07:47:03Z</time>
      </trkpt>
      <trkpt lat="43.32378" lon="-1.9929366">
        <time>2022-07-02T07:47:05Z</time>
      </trkpt>
      <trkpt lat="43.32372" lon="-1.9928817">
        <time>2022-07-02T07:47:07Z</time>
      </trkpt>
      <trkpt lat="43.323658" lon="-1.9928457">
        <time>2022-07-02T07:47:09Z</time>
      </trkpt>
      <trkpt lat="43.3236" lon="-1.992805">
        <time>2022-07-02T07:47:11Z</time>
      </trkpt>
      <trkpt lat="43.323544" lon="-1.992767">
        <time>2022-07-02T07:47:13Z</time>
      </trkpt>
      <trkpt lat="43.323486" lon="-1.9927233">
        <time>2022-07-02T07:47:15Z</time>
      </trkpt>
      <trkpt lat="43.323433" lon="-1.992678">
        <time>2022-07-02T07:47:17Z</time>
      </trkpt>
      <trkpt lat="43.323376" lon="-1.9926274">
        <time>2022-07-02T07:47:19Z</time>
      </trkpt>
      <trkpt lat="43.323322" lon="-1.9925773">
        <time>2022-07-02T07:47:21Z</time>
      </trkpt>
      <trkpt lat="43.32327" lon="-1.9925294">
        <time>2022-07-02T07:47:23Z</time>
      </trkpt>
      <trkpt lat="43.323215" lon="-1.9924884">
        <time>2022-07-02T07:47:25Z</time>
      </trkpt>
      <trkpt lat="43.32316" lon="-1.9924563">
        <time>2022-07-02T07:47:27Z</time>
      </trkpt>
      <trkpt lat="43.323097" lon="-1.9924251">
        <time>2022-07-02T07:47:29Z</time>
      </trkpt>
      <trkpt lat="43.323048" lon="-1.9923887">
        <time>2022-07-02T07:47:31Z</time>
      </trkpt>
      <trkpt lat="43.322998" lon="-1.9923353">
        <time>2022-07-02T07:47:33Z</time>
      </trkpt>
      <trkpt lat="43.322956" lon="-1.9922774">
        <time>2022-07-02T07:47:35Z</time>
      </trkpt>
      <trkpt lat="43.322914" lon="-1.9922158">
        <time>2022-07-02T07:47:37Z</time>
      </trkpt>
      <trkpt lat="43.322876" lon="-1.9921573">
        <time>2022-07-02T07:47:39Z</time>
      </trkpt>
      <trkpt lat="43.322853" lon="-1.9920874">
        <time>2022-07-02T07:47:42Z</time>
      </trkpt>
      <trkpt lat="43.3229" lon="-1.9920443">
        <time>2022-07-02T07:47:46Z</time>
      </trkpt>
      <trkpt lat="43.322937" lon="-1.9920127">
        <time>2022-07-02T07:47:50Z</time>
      </trkpt>
      <trkpt lat="43.32292" lon="-1.9919807">
        <time>2022-07-02T07:48:21Z</time>
      </trkpt>
      <trkpt lat="43.322735" lon="-1.9919131">
        <time>2022-07-02T07:49:02Z</time>
      </trkpt>
      <trkpt lat="43.3229" lon="-1.9915028">
        <time>2022-07-02T07:49:22Z</time>
      </trkpt>
      <trkpt lat="43.322906" lon="-1.9914098">
        <time>2022-07-02T07:49:26Z</time>
      </trkpt>
      <trkpt lat="43.32291" lon="-1.9913087">
        <time>2022-07-02T07:49:29Z</time>
      </trkpt>
      <trkpt lat="43.322914" lon="-1.9912354">
        <time>2022-07-02T07:49:31Z</time>
      </trkpt>
      <trkpt lat="43.322914" lon="-1.9911608">
        <time>2022-07-02T07:49:33Z</time>
      </trkpt>
      <trkpt lat="43.32291" lon="-1.9910797">
        <time>2022-07-02T07:49:35Z</time>
      </trkpt>
      <trkpt lat="43.322906" lon="-1.9909967">
        <time>2022-07-02T07:49:37Z</time>
      </trkpt>
      <trkpt lat="43.32289" lon="-1.9909104">
        <time>2022-07-02T07:49:39Z</time>
      </trkpt>
      <trkpt lat="43.322876" lon="-1.9908217">
        <time>2022-07-02T07:49:41Z</time>
      </trkpt>
      <trkpt lat="43.32287" lon="-1.9907291">
        <time>2022-07-02T07:49:43Z</time>
      </trkpt>
      <trkpt lat="43.32288" lon="-1.9906387">
        <time>2022-07-02T07:49:45Z</time>
      </trkpt>
      <trkpt lat="43.322895" lon="-1.9905515">
        <time>2022-07-02T07:49:47Z</time>
      </trkpt>
      <trkpt lat="43.322914" lon="-1.9904561">
        <time>2022-07-02T07:49:49Z</time>
      </trkpt>
      <trkpt lat="43.32293" lon="-1.9903518">
        <time>2022-07-02T07:49:51Z</time>
      </trkpt>
      <trkpt lat="43.322945" lon="-1.9902427">
        <time>2022-07-02T07:49:53Z</time>
      </trkpt>
      <trkpt lat="43.322964" lon="-1.9901334">
        <time>2022-07-02T07:49:55Z</time>
      </trkpt>
      <trkpt lat="43.322987" lon="-1.9899611">
        <time>2022-07-02T07:49:58Z</time>
      </trkpt>
      <trkpt lat="43.322998" lon="-1.9898461">
        <time>2022-07-02T07:50:00Z</time>
      </trkpt>
      <trkpt lat="43.323013" lon="-1.9897444">
        <time>2022-07-02T07:50:02Z</time>
      </trkpt>
      <trkpt lat="43.323032" lon="-1.9896715">
        <time>2022-07-02T07:50:04Z</time>
      </trkpt>
      <trkpt lat="43.323044" lon="-1.9895984">
        <time>2022-07-02T07:50:07Z</time>
      </trkpt>
      <trkpt lat="43.32308" lon="-1.9895267">
        <time>2022-07-02T07:50:11Z</time>
      </trkpt>
      <trkpt lat="43.323112" lon="-1.9894458">
        <time>2022-07-02T07:50:15Z</time>
      </trkpt>
      <trkpt lat="43.323135" lon="-1.9893764">
        <time>2022-07-02T07:50:18Z</time>
      </trkpt>
      <trkpt lat="43.323162" lon="-1.9893055">
        <time>2022-07-02T07:50:21Z</time>
      </trkpt>
      <trkpt lat="43.323185" lon="-1.9892198">
        <time>2022-07-02T07:50:24Z</time>
      </trkpt>
      <trkpt lat="43.32321" lon="-1.9891135">
        <time>2022-07-02T07:50:27Z</time>
      </trkpt>
      <trkpt lat="43.32324" lon="-1.9890351">
        <time>2022-07-02T07:50:29Z</time>
      </trkpt>
      <trkpt lat="43.32326" lon="-1.9889505">
        <time>2022-07-02T07:50:31Z</time>
      </trkpt>
      <trkpt lat="43.32329" lon="-1.9888635">
        <time>2022-07-02T07:50:33Z</time>
      </trkpt>
      <trkpt lat="43.323326" lon="-1.9887738">
        <time>2022-07-02T07:50:35Z</time>
      </trkpt>
      <trkpt lat="43.32336" lon="-1.9886818">
        <time>2022-07-02T07:50:37Z</time>
      </trkpt>
      <trkpt lat="43.3234" lon="-1.9885895">
        <time>2022-07-02T07:50:39Z</time>
      </trkpt>
      <trkpt lat="43.32344" lon="-1.9884955">
        <time>2022-07-02T07:50:41Z</time>
      </trkpt>
      <trkpt lat="43.323483" lon="-1.9884001">
        <time>2022-07-02T07:50:43Z</time>
      </trkpt>
      <trkpt lat="43.323517" lon="-1.9883032">
        <time>2022-07-02T07:50:45Z</time>
      </trkpt>
      <trkpt lat="43.323544" lon="-1.9882025">
        <time>2022-07-02T07:50:47Z</time>
      </trkpt>
      <trkpt lat="43.323555" lon="-1.9880992">
        <time>2022-07-02T07:50:49Z</time>
      </trkpt>
      <trkpt lat="43.32355" lon="-1.9879998">
        <time>2022-07-02T07:50:51Z</time>
      </trkpt>
      <trkpt lat="43.323536" lon="-1.9879072">
        <time>2022-07-02T07:50:53Z</time>
      </trkpt>
      <trkpt lat="43.323494" lon="-1.9878361">
        <time>2022-07-02T07:50:55Z</time>
      </trkpt>
      <trkpt lat="43.323437" lon="-1.9877852">
        <time>2022-07-02T07:50:57Z</time>
      </trkpt>
      <trkpt lat="43.323368" lon="-1.9877439">
        <time>2022-07-02T07:50:59Z</time>
      </trkpt>
      <trkpt lat="43.323296" lon="-1.9877002">
        <time>2022-07-02T07:51:01Z</time>
      </trkpt>
      <trkpt lat="43.323223" lon="-1.9876525">
        <time>2022-07-02T07:51:03Z</time>
      </trkpt>
      <trkpt lat="43.32315" lon="-1.9876035">
        <time>2022-07-02T07:51:05Z</time>
      </trkpt>
      <trkpt lat="43.32308" lon="-1.9875551">
        <time>2022-07-02T07:51:07Z</time>
      </trkpt>
      <trkpt lat="43.323025" lon="-1.9875009">
        <time>2022-07-02T07:51:09Z</time>
      </trkpt>
      <trkpt lat="43.322952" lon="-1.9874586">
        <time>2022-07-02T07:51:11Z</time>
      </trkpt>
      <trkpt lat="43.322872" lon="-1.9874302">
        <time>2022-07-02T07:51:13Z</time>
      </trkpt>
      <trkpt lat="43.322792" lon="-1.9874026">
        <time>2022-07-02T07:51:15Z</time>
      </trkpt>
      <trkpt lat="43.322712" lon="-1.9873742">
        <time>2022-07-02T07:51:17Z</time>
      </trkpt>
      <trkpt lat="43.322636" lon="-1.9873489">
        <time>2022-07-02T07:51:19Z</time>
      </trkpt>
      <trkpt lat="43.322563" lon="-1.9873189">
        <time>2022-07-02T07:51:21Z</time>
      </trkpt>
      <trkpt lat="43.322495" lon="-1.9872823">
        <time>2022-07-02T07:51:23Z</time>
      </trkpt>
      <trkpt lat="43.322433" lon="-1.9872385">
        <time>2022-07-02T07:51:25Z</time>
      </trkpt>
      <trkpt lat="43.322372" lon="-1.9871979">
        <time>2022-07-02T07:51:27Z</time>
      </trkpt>
      <trkpt lat="43.322308" lon="-1.9871589">
        <time>2022-07-02T07:51:29Z</time>
      </trkpt>
      <trkpt lat="43.322235" lon="-1.987127">
        <time>2022-07-02T07:51:31Z</time>
      </trkpt>
      <trkpt lat="43.32216" lon="-1.9870989">
        <time>2022-07-02T07:51:33Z</time>
      </trkpt>
      <trkpt lat="43.322086" lon="-1.9870639">
        <time>2022-07-02T07:51:35Z</time>
      </trkpt>
      <trkpt lat="43.32202" lon="-1.9870156">
        <time>2022-07-02T07:51:37Z</time>
      </trkpt>
      <trkpt lat="43.321964" lon="-1.9869616">
        <time>2022-07-02T07:51:39Z</time>
      </trkpt>
      <trkpt lat="43.321907" lon="-1.9869046">
        <time>2022-07-02T07:51:41Z</time>
      </trkpt>
      <trkpt lat="43.321854" lon="-1.9868432">
        <time>2022-07-02T07:51:43Z</time>
      </trkpt>
      <trkpt lat="43.3218" lon="-1.9867809">
        <time>2022-07-02T07:51:45Z</time>
      </trkpt>
      <trkpt lat="43.32175" lon="-1.9867233">
        <time>2022-07-02T07:51:47Z</time>
      </trkpt>
      <trkpt lat="43.321712" lon="-1.9866647">
        <time>2022-07-02T07:51:49Z</time>
      </trkpt>
      <trkpt lat="43.321674" lon="-1.9866099">
        <time>2022-07-02T07:51:51Z</time>
      </trkpt>
      <trkpt lat="43.321632" lon="-1.9865652">
        <time>2022-07-02T07:51:53Z</time>
      </trkpt>
      <trkpt lat="43.321556" lon="-1.9865069">
        <time>2022-07-02T07:51:56Z</time>
      </trkpt>
      <trkpt lat="43.32151" lon="-1.9864639">
        <time>2022-07-02T07:51:58Z</time>
      </trkpt>
      <trkpt lat="43.32146" lon="-1.9864243">
        <time>2022-07-02T07:52:00Z</time>
      </trkpt>
      <trkpt lat="43.321404" lon="-1.9863963">
        <time>2022-07-02T07:52:02Z</time>
      </trkpt>
      <trkpt lat="43.321342" lon="-1.9863709">
        <time>2022-07-02T07:52:04Z</time>
      </trkpt>
      <trkpt lat="43.32128" lon="-1.9863436">
        <time>2022-07-02T07:52:06Z</time>
      </trkpt>
      <trkpt lat="43.32121" lon="-1.9863173">
        <time>2022-07-02T07:52:08Z</time>
      </trkpt>
      <trkpt lat="43.32114" lon="-1.9862859">
        <time>2022-07-02T07:52:10Z</time>
      </trkpt>
      <trkpt lat="43.321075" lon="-1.986247">
        <time>2022-07-02T07:52:12Z</time>
      </trkpt>
      <trkpt lat="43.32102" lon="-1.9862007">
        <time>2022-07-02T07:52:14Z</time>
      </trkpt>
      <trkpt lat="43.32096" lon="-1.9861486">
        <time>2022-07-02T07:52:16Z</time>
      </trkpt>
      <trkpt lat="43.320915" lon="-1.9860936">
        <time>2022-07-02T07:52:18Z</time>
      </trkpt>
      <trkpt lat="43.320892" lon="-1.9860443">
        <time>2022-07-02T07:52:20Z</time>
      </trkpt>
      <trkpt lat="43.320873" lon="-1.9859593">
        <time>2022-07-02T07:52:23Z</time>
      </trkpt>
      <trkpt lat="43.320843" lon="-1.9858639">
        <time>2022-07-02T07:52:26Z</time>
      </trkpt>
      <trkpt lat="43.320816" lon="-1.9857976">
        <time>2022-07-02T07:52:28Z</time>
      </trkpt>
      <trkpt lat="43.320786" lon="-1.9857283">
        <time>2022-07-02T07:52:30Z</time>
      </trkpt>
      <trkpt lat="43.32075" lon="-1.9856563">
        <time>2022-07-02T07:52:32Z</time>
      </trkpt>
      <trkpt lat="43.320717" lon="-1.9855846">
        <time>2022-07-02T07:52:34Z</time>
      </trkpt>
      <trkpt lat="43.32068" lon="-1.9855057">
        <time>2022-07-02T07:52:36Z</time>
      </trkpt>
      <trkpt lat="43.320637" lon="-1.985432">
        <time>2022-07-02T07:52:38Z</time>
      </trkpt>
      <trkpt lat="43.32059" lon="-1.9853573">
        <time>2022-07-02T07:52:40Z</time>
      </trkpt>
      <trkpt lat="43.32055" lon="-1.9852906">
        <time>2022-07-02T07:52:42Z</time>
      </trkpt>
      <trkpt lat="43.320503" lon="-1.9852237">
        <time>2022-07-02T07:52:44Z</time>
      </trkpt>
      <trkpt lat="43.320454" lon="-1.9851683">
        <time>2022-07-02T07:52:46Z</time>
      </trkpt>
      <trkpt lat="43.3204" lon="-1.9851214">
        <time>2022-07-02T07:52:48Z</time>
      </trkpt>
      <trkpt lat="43.320347" lon="-1.9850677">
        <time>2022-07-02T07:52:50Z</time>
      </trkpt>
      <trkpt lat="43.32029" lon="-1.9850147">
        <time>2022-07-02T07:52:52Z</time>
      </trkpt>
      <trkpt lat="43.32022" lon="-1.984974">
        <time>2022-07-02T07:52:54Z</time>
      </trkpt>
      <trkpt lat="43.320152" lon="-1.984949">
        <time>2022-07-02T07:52:56Z</time>
      </trkpt>
      <trkpt lat="43.320076" lon="-1.9849334">
        <time>2022-07-02T07:52:58Z</time>
      </trkpt>
      <trkpt lat="43.319965" lon="-1.9849133">
        <time>2022-07-02T07:53:01Z</time>
      </trkpt>
      <trkpt lat="43.31989" lon="-1.9849014">
        <time>2022-07-02T07:53:03Z</time>
      </trkpt>
      <trkpt lat="43.31981" lon="-1.9848883">
        <time>2022-07-02T07:53:05Z</time>
      </trkpt>
      <trkpt lat="43.319736" lon="-1.9848751">
        <time>2022-07-02T07:53:07Z</time>
      </trkpt>
      <trkpt lat="43.319664" lon="-1.984863">
        <time>2022-07-02T07:53:09Z</time>
      </trkpt>
      <trkpt lat="43.31961" lon="-1.984837">
        <time>2022-07-02T07:53:11Z</time>
      </trkpt>
      <trkpt lat="43.31956" lon="-1.9848044">
        <time>2022-07-02T07:53:13Z</time>
      </trkpt>
      <trkpt lat="43.319515" lon="-1.9847817">
        <time>2022-07-02T07:53:15Z</time>
      </trkpt>
      <trkpt lat="43.319466" lon="-1.9847591">
        <time>2022-07-02T07:53:17Z</time>
      </trkpt>
      <trkpt lat="43.319412" lon="-1.98473">
        <time>2022-07-02T07:53:19Z</time>
      </trkpt>
      <trkpt lat="43.319363" lon="-1.9846951">
        <time>2022-07-02T07:53:21Z</time>
      </trkpt>
      <trkpt lat="43.319298" lon="-1.984652">
        <time>2022-07-02T07:53:23Z</time>
      </trkpt>
      <trkpt lat="43.319237" lon="-1.984609">
        <time>2022-07-02T07:53:25Z</time>
      </trkpt>
      <trkpt lat="43.319168" lon="-1.9845587">
        <time>2022-07-02T07:53:27Z</time>
      </trkpt>
      <trkpt lat="43.319103" lon="-1.9845084">
        <time>2022-07-02T07:53:29Z</time>
      </trkpt>
      <trkpt lat="43.319027" lon="-1.9844664">
        <time>2022-07-02T07:53:31Z</time>
      </trkpt>
      <trkpt lat="43.318954" lon="-1.9844561">
        <time>2022-07-02T07:53:33Z</time>
      </trkpt>
      <trkpt lat="43.318882" lon="-1.9844794">
        <time>2022-07-02T07:53:35Z</time>
      </trkpt>
      <trkpt lat="43.318825" lon="-1.9845374">
        <time>2022-07-02T07:53:37Z</time>
      </trkpt>
      <trkpt lat="43.31878" lon="-1.9846123">
        <time>2022-07-02T07:53:39Z</time>
      </trkpt>
      <trkpt lat="43.318737" lon="-1.9846997">
        <time>2022-07-02T07:53:41Z</time>
      </trkpt>
      <trkpt lat="43.318703" lon="-1.9847921">
        <time>2022-07-02T07:53:43Z</time>
      </trkpt>
      <trkpt lat="43.318657" lon="-1.9848721">
        <time>2022-07-02T07:53:45Z</time>
      </trkpt>
      <trkpt lat="43.318604" lon="-1.9849384">
        <time>2022-07-02T07:53:47Z</time>
      </trkpt>
      <trkpt lat="43.318542" lon="-1.9849917">
        <time>2022-07-02T07:53:49Z</time>
      </trkpt>
      <trkpt lat="43.318478" lon="-1.9850377">
        <time>2022-07-02T07:53:51Z</time>
      </trkpt>
      <trkpt lat="43.318413" lon="-1.9850811">
        <time>2022-07-02T07:53:53Z</time>
      </trkpt>
      <trkpt lat="43.318348" lon="-1.98512">
        <time>2022-07-02T07:53:55Z</time>
      </trkpt>
      <trkpt lat="43.318283" lon="-1.9851574">
        <time>2022-07-02T07:53:57Z</time>
      </trkpt>
      <trkpt lat="43.31822" lon="-1.9852021">
        <time>2022-07-02T07:53:59Z</time>
      </trkpt>
      <trkpt lat="43.318157" lon="-1.9852583">
        <time>2022-07-02T07:54:01Z</time>
      </trkpt>
      <trkpt lat="43.318096" lon="-1.985316">
        <time>2022-07-02T07:54:03Z</time>
      </trkpt>
      <trkpt lat="43.31803" lon="-1.9853697">
        <time>2022-07-02T07:54:05Z</time>
      </trkpt>
      <trkpt lat="43.317963" lon="-1.9854183">
        <time>2022-07-02T07:54:07Z</time>
      </trkpt>
      <trkpt lat="43.3179" lon="-1.9854667">
        <time>2022-07-02T07:54:09Z</time>
      </trkpt>
      <trkpt lat="43.31784" lon="-1.985526">
        <time>2022-07-02T07:54:11Z</time>
      </trkpt>
      <trkpt lat="43.317772" lon="-1.9855866">
        <time>2022-07-02T07:54:13Z</time>
      </trkpt>
      <trkpt lat="43.317707" lon="-1.9856434">
        <time>2022-07-02T07:54:15Z</time>
      </trkpt>
      <trkpt lat="43.317646" lon="-1.985697">
        <time>2022-07-02T07:54:17Z</time>
      </trkpt>
      <trkpt lat="43.317577" lon="-1.9857457">
        <time>2022-07-02T07:54:19Z</time>
      </trkpt>
      <trkpt lat="43.31752" lon="-1.9857967">
        <time>2022-07-02T07:54:21Z</time>
      </trkpt>
      <trkpt lat="43.317467" lon="-1.9858557">
        <time>2022-07-02T07:54:23Z</time>
      </trkpt>
      <trkpt lat="43.31741" lon="-1.9859086">
        <time>2022-07-02T07:54:25Z</time>
      </trkpt>
      <trkpt lat="43.317352" lon="-1.9859637">
        <time>2022-07-02T07:54:27Z</time>
      </trkpt>
      <trkpt lat="43.31729" lon="-1.9860237">
        <time>2022-07-02T07:54:29Z</time>
      </trkpt>
      <trkpt lat="43.31723" lon="-1.9860814">
        <time>2022-07-02T07:54:31Z</time>
      </trkpt>
      <trkpt lat="43.31717" lon="-1.986141">
        <time>2022-07-02T07:54:33Z</time>
      </trkpt>
      <trkpt lat="43.317104" lon="-1.986207">
        <time>2022-07-02T07:54:35Z</time>
      </trkpt>
      <trkpt lat="43.317043" lon="-1.9862742">
        <time>2022-07-02T07:54:37Z</time>
      </trkpt>
      <trkpt lat="43.31698" lon="-1.9863473">
        <time>2022-07-02T07:54:39Z</time>
      </trkpt>
      <trkpt lat="43.316914" lon="-1.9864264">
        <time>2022-07-02T07:54:41Z</time>
      </trkpt>
      <trkpt lat="43.31685" lon="-1.9865063">
        <time>2022-07-02T07:54:43Z</time>
      </trkpt>
      <trkpt lat="43.316788" lon="-1.9865819">
        <time>2022-07-02T07:54:45Z</time>
      </trkpt>
      <trkpt lat="43.316727" lon="-1.9866606">
        <time>2022-07-02T07:54:47Z</time>
      </trkpt>
      <trkpt lat="43.316666" lon="-1.9867393">
        <time>2022-07-02T07:54:49Z</time>
      </trkpt>
      <trkpt lat="43.316605" lon="-1.986823">
        <time>2022-07-02T07:54:51Z</time>
      </trkpt>
      <trkpt lat="43.31655" lon="-1.9869089">
        <time>2022-07-02T07:54:53Z</time>
      </trkpt>
      <trkpt lat="43.31649" lon="-1.9869959">
        <time>2022-07-02T07:54:55Z</time>
      </trkpt>
      <trkpt lat="43.31643" lon="-1.9870859">
        <time>2022-07-02T07:54:57Z</time>
      </trkpt>
      <trkpt lat="43.316364" lon="-1.9871776">
        <time>2022-07-02T07:54:59Z</time>
      </trkpt>
      <trkpt lat="43.316303" lon="-1.9872746">
        <time>2022-07-02T07:55:01Z</time>
      </trkpt>
      <trkpt lat="43.31625" lon="-1.9873616">
        <time>2022-07-02T07:55:03Z</time>
      </trkpt>
      <trkpt lat="43.316196" lon="-1.9874506">
        <time>2022-07-02T07:55:05Z</time>
      </trkpt>
      <trkpt lat="43.31614" lon="-1.9875376">
        <time>2022-07-02T07:55:07Z</time>
      </trkpt>
      <trkpt lat="43.316082" lon="-1.9876219">
        <time>2022-07-02T07:55:09Z</time>
      </trkpt>
      <trkpt lat="43.31602" lon="-1.9877093">
        <time>2022-07-02T07:55:11Z</time>
      </trkpt>
      <trkpt lat="43.315964" lon="-1.9877956">
        <time>2022-07-02T07:55:13Z</time>
      </trkpt>
      <trkpt lat="43.315903" lon="-1.9878902">
        <time>2022-07-02T07:55:15Z</time>
      </trkpt>
      <trkpt lat="43.315865" lon="-1.9879409">
        <time>2022-07-02T07:55:16Z</time>
      </trkpt>
      <trkpt lat="43.315792" lon="-1.9880396">
        <time>2022-07-02T07:55:18Z</time>
      </trkpt>
      <trkpt lat="43.315758" lon="-1.9880883">
        <time>2022-07-02T07:55:19Z</time>
      </trkpt>
      <trkpt lat="43.315693" lon="-1.9881825">
        <time>2022-07-02T07:55:21Z</time>
      </trkpt>
      <trkpt lat="43.315636" lon="-1.9882739">
        <time>2022-07-02T07:55:23Z</time>
      </trkpt>
      <trkpt lat="43.31558" lon="-1.988375">
        <time>2022-07-02T07:55:25Z</time>
      </trkpt>
      <trkpt lat="43.31552" lon="-1.9884776">
        <time>2022-07-02T07:55:27Z</time>
      </trkpt>
      <trkpt lat="43.315464" lon="-1.9885745">
        <time>2022-07-02T07:55:29Z</time>
      </trkpt>
      <trkpt lat="43.315434" lon="-1.9886262">
        <time>2022-07-02T07:55:30Z</time>
      </trkpt>
      <trkpt lat="43.31538" lon="-1.9887189">
        <time>2022-07-02T07:55:32Z</time>
      </trkpt>
      <trkpt lat="43.315323" lon="-1.9888182">
        <time>2022-07-02T07:55:34Z</time>
      </trkpt>
      <trkpt lat="43.315273" lon="-1.9889212">
        <time>2022-07-02T07:55:36Z</time>
      </trkpt>
      <trkpt lat="43.315235" lon="-1.9890189">
        <time>2022-07-02T07:55:38Z</time>
      </trkpt>
      <trkpt lat="43.315205" lon="-1.9891258">
        <time>2022-07-02T07:55:40Z</time>
      </trkpt>
      <trkpt lat="43.315178" lon="-1.9892309">
        <time>2022-07-02T07:55:42Z</time>
      </trkpt>
      <trkpt lat="43.31515" lon="-1.9893361">
        <time>2022-07-02T07:55:44Z</time>
      </trkpt>
      <trkpt lat="43.315132" lon="-1.9894339">
        <time>2022-07-02T07:55:46Z</time>
      </trkpt>
      <trkpt lat="43.315113" lon="-1.9895285">
        <time>2022-07-02T07:55:48Z</time>
      </trkpt>
      <trkpt lat="43.315094" lon="-1.9896206">
        <time>2022-07-02T07:55:50Z</time>
      </trkpt>
      <trkpt lat="43.315075" lon="-1.9897056">
        <time>2022-07-02T07:55:52Z</time>
      </trkpt>
      <trkpt lat="43.31506" lon="-1.9897935">
        <time>2022-07-02T07:55:54Z</time>
      </trkpt>
      <trkpt lat="43.31504" lon="-1.9898782">
        <time>2022-07-02T07:55:56Z</time>
      </trkpt>
      <trkpt lat="43.31502" lon="-1.9899606">
        <time>2022-07-02T07:55:58Z</time>
      </trkpt>
      <trkpt lat="43.315002" lon="-1.9900432">
        <time>2022-07-02T07:56:00Z</time>
      </trkpt>
      <trkpt lat="43.314983" lon="-1.9901454">
        <time>2022-07-02T07:56:03Z</time>
      </trkpt>
      <trkpt lat="43.314964" lon="-1.9902338">
        <time>2022-07-02T07:56:06Z</time>
      </trkpt>
      <trkpt lat="43.314953" lon="-1.9903002">
        <time>2022-07-02T07:56:08Z</time>
      </trkpt>
      <trkpt lat="43.314938" lon="-1.9903768">
        <time>2022-07-02T07:56:10Z</time>
      </trkpt>
      <trkpt lat="43.314922" lon="-1.9904578">
        <time>2022-07-02T07:56:12Z</time>
      </trkpt>
      <trkpt lat="43.314907" lon="-1.9905478">
        <time>2022-07-02T07:56:14Z</time>
      </trkpt>
      <trkpt lat="43.314888" lon="-1.9906435">
        <time>2022-07-02T07:56:16Z</time>
      </trkpt>
      <trkpt lat="43.314873" lon="-1.9907404">
        <time>2022-07-02T07:56:18Z</time>
      </trkpt>
      <trkpt lat="43.314854" lon="-1.9908328">
        <time>2022-07-02T07:56:20Z</time>
      </trkpt>
      <trkpt lat="43.31484" lon="-1.9909308">
        <time>2022-07-02T07:56:22Z</time>
      </trkpt>
      <trkpt lat="43.31482" lon="-1.9910334">
        <time>2022-07-02T07:56:24Z</time>
      </trkpt>
      <trkpt lat="43.314804" lon="-1.9911292">
        <time>2022-07-02T07:56:26Z</time>
      </trkpt>
      <trkpt lat="43.314785" lon="-1.9912322">
        <time>2022-07-02T07:56:28Z</time>
      </trkpt>
      <trkpt lat="43.314766" lon="-1.9913337">
        <time>2022-07-02T07:56:30Z</time>
      </trkpt>
      <trkpt lat="43.314747" lon="-1.9914341">
        <time>2022-07-02T07:56:32Z</time>
      </trkpt>
      <trkpt lat="43.314728" lon="-1.9915411">
        <time>2022-07-02T07:56:34Z</time>
      </trkpt>
      <trkpt lat="43.314713" lon="-1.9916404">
        <time>2022-07-02T07:56:36Z</time>
      </trkpt>
      <trkpt lat="43.314693" lon="-1.9917485">
        <time>2022-07-02T07:56:38Z</time>
      </trkpt>
      <trkpt lat="43.314674" lon="-1.9918507">
        <time>2022-07-02T07:56:40Z</time>
      </trkpt>
      <trkpt lat="43.314655" lon="-1.9919487">
        <time>2022-07-02T07:56:42Z</time>
      </trkpt>
      <trkpt lat="43.314636" lon="-1.9920454">
        <time>2022-07-02T07:56:44Z</time>
      </trkpt>
      <trkpt lat="43.314617" lon="-1.9921378">
        <time>2022-07-02T07:56:46Z</time>
      </trkpt>
      <trkpt lat="43.314598" lon="-1.9922271">
        <time>2022-07-02T07:56:48Z</time>
      </trkpt>
      <trkpt lat="43.314583" lon="-1.9923211">
        <time>2022-07-02T07:56:50Z</time>
      </trkpt>
      <trkpt lat="43.31457" lon="-1.9924234">
        <time>2022-07-02T07:56:52Z</time>
      </trkpt>
      <trkpt lat="43.314556" lon="-1.9925214">
        <time>2022-07-02T07:56:54Z</time>
      </trkpt>
      <trkpt lat="43.31455" lon="-1.9926205">
        <time>2022-07-02T07:56:56Z</time>
      </trkpt>
      <trkpt lat="43.31454" lon="-1.9927237">
        <time>2022-07-02T07:56:58Z</time>
      </trkpt>
      <trkpt lat="43.314537" lon="-1.9928267">
        <time>2022-07-02T07:57:00Z</time>
      </trkpt>
      <trkpt lat="43.314533" lon="-1.9929374">
        <time>2022-07-02T07:57:02Z</time>
      </trkpt>
      <trkpt lat="43.314533" lon="-1.9930464">
        <time>2022-07-02T07:57:04Z</time>
      </trkpt>
      <trkpt lat="43.314533" lon="-1.9931568">
        <time>2022-07-02T07:57:06Z</time>
      </trkpt>
      <trkpt lat="43.314533" lon="-1.9932771">
        <time>2022-07-02T07:57:08Z</time>
      </trkpt>
      <trkpt lat="43.314533" lon="-1.9933897">
        <time>2022-07-02T07:57:10Z</time>
      </trkpt>
      <trkpt lat="43.31453" lon="-1.9935057">
        <time>2022-07-02T07:57:12Z</time>
      </trkpt>
      <trkpt lat="43.31453" lon="-1.993623">
        <time>2022-07-02T07:57:14Z</time>
      </trkpt>
      <trkpt lat="43.31453" lon="-1.9937394">
        <time>2022-07-02T07:57:16Z</time>
      </trkpt>
      <trkpt lat="43.314533" lon="-1.9938594">
        <time>2022-07-02T07:57:18Z</time>
      </trkpt>
      <trkpt lat="43.314533" lon="-1.993976">
        <time>2022-07-02T07:57:20Z</time>
      </trkpt>
      <trkpt lat="43.314537" lon="-1.9940797">
        <time>2022-07-02T07:57:22Z</time>
      </trkpt>
      <trkpt lat="43.314545" lon="-1.9941751">
        <time>2022-07-02T07:57:24Z</time>
      </trkpt>
      <trkpt lat="43.31455" lon="-1.9942751">
        <time>2022-07-02T07:57:26Z</time>
      </trkpt>
      <trkpt lat="43.314545" lon="-1.994375">
        <time>2022-07-02T07:57:28Z</time>
      </trkpt>
      <trkpt lat="43.31454" lon="-1.9944761">
        <time>2022-07-02T07:57:30Z</time>
      </trkpt>
      <trkpt lat="43.314537" lon="-1.9945804">
        <time>2022-07-02T07:57:32Z</time>
      </trkpt>
      <trkpt lat="43.31453" lon="-1.9946834">
        <time>2022-07-02T07:57:34Z</time>
      </trkpt>
      <trkpt lat="43.314526" lon="-1.9947877">
        <time>2022-07-02T07:57:36Z</time>
      </trkpt>
      <trkpt lat="43.314518" lon="-1.9948817">
        <time>2022-07-02T07:57:38Z</time>
      </trkpt>
      <trkpt lat="43.31451" lon="-1.9949777">
        <time>2022-07-02T07:57:40Z</time>
      </trkpt>
      <trkpt lat="43.31451" lon="-1.9950761">
        <time>2022-07-02T07:57:42Z</time>
      </trkpt>
      <trkpt lat="43.314507" lon="-1.9951761">
        <time>2022-07-02T07:57:44Z</time>
      </trkpt>
      <trkpt lat="43.314507" lon="-1.995277">
        <time>2022-07-02T07:57:46Z</time>
      </trkpt>
      <trkpt lat="43.31451" lon="-1.9953793">
        <time>2022-07-02T07:57:48Z</time>
      </trkpt>
      <trkpt lat="43.31451" lon="-1.9954937">
        <time>2022-07-02T07:57:50Z</time>
      </trkpt>
      <trkpt lat="43.314518" lon="-1.9956204">
        <time>2022-07-02T07:57:52Z</time>
      </trkpt>
      <trkpt lat="43.314526" lon="-1.9957434">
        <time>2022-07-02T07:57:54Z</time>
      </trkpt>
      <trkpt lat="43.314537" lon="-1.9958616">
        <time>2022-07-02T07:57:56Z</time>
      </trkpt>
      <trkpt lat="43.31455" lon="-1.9959733">
        <time>2022-07-02T07:57:58Z</time>
      </trkpt>
      <trkpt lat="43.314564" lon="-1.996091">
        <time>2022-07-02T07:58:00Z</time>
      </trkpt>
      <trkpt lat="43.314583" lon="-1.9962066">
        <time>2022-07-02T07:58:02Z</time>
      </trkpt>
      <trkpt lat="43.314606" lon="-1.9963237">
        <time>2022-07-02T07:58:04Z</time>
      </trkpt>
      <trkpt lat="43.31463" lon="-1.9964416">
        <time>2022-07-02T07:58:06Z</time>
      </trkpt>
      <trkpt lat="43.31465" lon="-1.9965577">
        <time>2022-07-02T07:58:08Z</time>
      </trkpt>
      <trkpt lat="43.314674" lon="-1.9966817">
        <time>2022-07-02T07:58:10Z</time>
      </trkpt>
      <trkpt lat="43.3147" lon="-1.996803">
        <time>2022-07-02T07:58:12Z</time>
      </trkpt>
      <trkpt lat="43.314728" lon="-1.9969267">
        <time>2022-07-02T07:58:14Z</time>
      </trkpt>
      <trkpt lat="43.314754" lon="-1.9970566">
        <time>2022-07-02T07:58:16Z</time>
      </trkpt>
      <trkpt lat="43.314766" lon="-1.9971243">
        <time>2022-07-02T07:58:17Z</time>
      </trkpt>
      <trkpt lat="43.31478" lon="-1.9971904">
        <time>2022-07-02T07:58:18Z</time>
      </trkpt>
      <trkpt lat="43.314816" lon="-1.9973203">
        <time>2022-07-02T07:58:20Z</time>
      </trkpt>
      <trkpt lat="43.314835" lon="-1.9973863">
        <time>2022-07-02T07:58:21Z</time>
      </trkpt>
      <trkpt lat="43.314865" lon="-1.99751">
        <time>2022-07-02T07:58:23Z</time>
      </trkpt>
      <trkpt lat="43.3149" lon="-1.9976116">
        <time>2022-07-02T07:58:25Z</time>
      </trkpt>
      <trkpt lat="43.314934" lon="-1.9976916">
        <time>2022-07-02T07:58:27Z</time>
      </trkpt>
      <trkpt lat="43.314957" lon="-1.9977586">
        <time>2022-07-02T07:58:29Z</time>
      </trkpt>
      <trkpt lat="43.315636" lon="-1.9991629">
        <time>2022-07-02T07:58:53Z</time>
      </trkpt>
      <trkpt lat="43.315704" lon="-2.0003185">
        <time>2022-07-02T07:59:09Z</time>
      </trkpt>
      <trkpt lat="43.315685" lon="-2.0004623">
        <time>2022-07-02T07:59:12Z</time>
      </trkpt>
      <trkpt lat="43.315666" lon="-2.0005796">
        <time>2022-07-02T07:59:14Z</time>
      </trkpt>
      <trkpt lat="43.315636" lon="-2.0006995">
        <time>2022-07-02T07:59:16Z</time>
      </trkpt>
      <trkpt lat="43.315605" lon="-2.0008206">
        <time>2022-07-02T07:59:18Z</time>
      </trkpt>
      <trkpt lat="43.315586" lon="-2.0008817">
        <time>2022-07-02T07:59:19Z</time>
      </trkpt>
      <trkpt lat="43.31556" lon="-2.001005">
        <time>2022-07-02T07:59:21Z</time>
      </trkpt>
      <trkpt lat="43.315548" lon="-2.0010667">
        <time>2022-07-02T07:59:22Z</time>
      </trkpt>
      <trkpt lat="43.315548" lon="-2.0011983">
        <time>2022-07-02T07:59:24Z</time>
      </trkpt>
      <trkpt lat="43.315567" lon="-2.0013306">
        <time>2022-07-02T07:59:26Z</time>
      </trkpt>
      <trkpt lat="43.3156" lon="-2.0014544">
        <time>2022-07-02T07:59:28Z</time>
      </trkpt>
      <trkpt lat="43.315636" lon="-2.0015624">
        <time>2022-07-02T07:59:30Z</time>
      </trkpt>
      <trkpt lat="43.315666" lon="-2.0016737">
        <time>2022-07-02T07:59:32Z</time>
      </trkpt>
      <trkpt lat="43.315693" lon="-2.0017827">
        <time>2022-07-02T07:59:34Z</time>
      </trkpt>
      <trkpt lat="43.315727" lon="-2.0019011">
        <time>2022-07-02T07:59:36Z</time>
      </trkpt>
      <trkpt lat="43.315765" lon="-2.002023">
        <time>2022-07-02T07:59:38Z</time>
      </trkpt>
      <trkpt lat="43.315784" lon="-2.002084">
        <time>2022-07-02T07:59:39Z</time>
      </trkpt>
      <trkpt lat="43.315826" lon="-2.0022068">
        <time>2022-07-02T07:59:41Z</time>
      </trkpt>
      <trkpt lat="43.31587" lon="-2.002333">
        <time>2022-07-02T07:59:43Z</time>
      </trkpt>
      <trkpt lat="43.315907" lon="-2.002462">
        <time>2022-07-02T07:59:45Z</time>
      </trkpt>
      <trkpt lat="43.315926" lon="-2.0025265">
        <time>2022-07-02T07:59:46Z</time>
      </trkpt>
      <trkpt lat="43.315964" lon="-2.002656">
        <time>2022-07-02T07:59:48Z</time>
      </trkpt>
      <trkpt lat="43.315983" lon="-2.0027192">
        <time>2022-07-02T07:59:49Z</time>
      </trkpt>
      <trkpt lat="43.31602" lon="-2.0028422">
        <time>2022-07-02T07:59:51Z</time>
      </trkpt>
      <trkpt lat="43.31605" lon="-2.0029533">
        <time>2022-07-02T07:59:53Z</time>
      </trkpt>
      <trkpt lat="43.316086" lon="-2.0030649">
        <time>2022-07-02T07:59:55Z</time>
      </trkpt>
      <trkpt lat="43.316116" lon="-2.0031621">
        <time>2022-07-02T07:59:57Z</time>
      </trkpt>
      <trkpt lat="43.316147" lon="-2.0032592">
        <time>2022-07-02T07:59:59Z</time>
      </trkpt>
      <trkpt lat="43.31618" lon="-2.0033648">
        <time>2022-07-02T08:00:01Z</time>
      </trkpt>
      <trkpt lat="43.316216" lon="-2.0034728">
        <time>2022-07-02T08:00:03Z</time>
      </trkpt>
      <trkpt lat="43.316246" lon="-2.0035868">
        <time>2022-07-02T08:00:05Z</time>
      </trkpt>
      <trkpt lat="43.31628" lon="-2.0036976">
        <time>2022-07-02T08:00:07Z</time>
      </trkpt>
      <trkpt lat="43.31632" lon="-2.0038075">
        <time>2022-07-02T08:00:09Z</time>
      </trkpt>
      <trkpt lat="43.316357" lon="-2.003918">
        <time>2022-07-02T08:00:11Z</time>
      </trkpt>
      <trkpt lat="43.31639" lon="-2.0040298">
        <time>2022-07-02T08:00:13Z</time>
      </trkpt>
      <trkpt lat="43.31643" lon="-2.0041442">
        <time>2022-07-02T08:00:15Z</time>
      </trkpt>
      <trkpt lat="43.316463" lon="-2.0042536">
        <time>2022-07-02T08:00:17Z</time>
      </trkpt>
      <trkpt lat="43.316505" lon="-2.004356">
        <time>2022-07-02T08:00:19Z</time>
      </trkpt>
      <trkpt lat="43.316563" lon="-2.0044382">
        <time>2022-07-02T08:00:21Z</time>
      </trkpt>
      <trkpt lat="43.31662" lon="-2.0045066">
        <time>2022-07-02T08:00:23Z</time>
      </trkpt>
      <trkpt lat="43.31669" lon="-2.0045795">
        <time>2022-07-02T08:00:25Z</time>
      </trkpt>
      <trkpt lat="43.316757" lon="-2.0046551">
        <time>2022-07-02T08:00:27Z</time>
      </trkpt>
      <trkpt lat="43.316826" lon="-2.0047314">
        <time>2022-07-02T08:00:29Z</time>
      </trkpt>
      <trkpt lat="43.316906" lon="-2.0048072">
        <time>2022-07-02T08:00:31Z</time>
      </trkpt>
      <trkpt lat="43.316986" lon="-2.004878">
        <time>2022-07-02T08:00:33Z</time>
      </trkpt>
      <trkpt lat="43.31703" lon="-2.004912">
        <time>2022-07-02T08:00:34Z</time>
      </trkpt>
      <trkpt lat="43.31712" lon="-2.0049756">
        <time>2022-07-02T08:00:36Z</time>
      </trkpt>
      <trkpt lat="43.31716" lon="-2.0050027">
        <time>2022-07-02T08:00:37Z</time>
      </trkpt>
      <trkpt lat="43.317253" lon="-2.0050569">
        <time>2022-07-02T08:00:39Z</time>
      </trkpt>
      <trkpt lat="43.3173" lon="-2.0050814">
        <time>2022-07-02T08:00:40Z</time>
      </trkpt>
      <trkpt lat="43.317398" lon="-2.0051262">
        <time>2022-07-02T08:00:42Z</time>
      </trkpt>
      <trkpt lat="43.317448" lon="-2.005145">
        <time>2022-07-02T08:00:43Z</time>
      </trkpt>
      <trkpt lat="43.3175" lon="-2.0051618">
        <time>2022-07-02T08:00:44Z</time>
      </trkpt>
      <trkpt lat="43.31755" lon="-2.0051768">
        <time>2022-07-02T08:00:45Z</time>
      </trkpt>
      <trkpt lat="43.317654" lon="-2.0052004">
        <time>2022-07-02T08:00:47Z</time>
      </trkpt>
      <trkpt lat="43.317703" lon="-2.0052094">
        <time>2022-07-02T08:00:48Z</time>
      </trkpt>
      <trkpt lat="43.317802" lon="-2.0052178">
        <time>2022-07-02T08:00:50Z</time>
      </trkpt>
      <trkpt lat="43.317898" lon="-2.0052178">
        <time>2022-07-02T08:00:52Z</time>
      </trkpt>
      <trkpt lat="43.317997" lon="-2.005211">
        <time>2022-07-02T08:00:54Z</time>
      </trkpt>
      <trkpt lat="43.318092" lon="-2.0051985">
        <time>2022-07-02T08:00:56Z</time>
      </trkpt>
      <trkpt lat="43.31814" lon="-2.0051894">
        <time>2022-07-02T08:00:57Z</time>
      </trkpt>
      <trkpt lat="43.318237" lon="-2.005166">
        <time>2022-07-02T08:00:59Z</time>
      </trkpt>
      <trkpt lat="43.318333" lon="-2.0051408">
        <time>2022-07-02T08:01:01Z</time>
      </trkpt>
      <trkpt lat="43.318424" lon="-2.005118">
        <time>2022-07-02T08:01:03Z</time>
      </trkpt>
      <trkpt lat="43.318474" lon="-2.0051057">
        <time>2022-07-02T08:01:04Z</time>
      </trkpt>
      <trkpt lat="43.31857" lon="-2.005082">
        <time>2022-07-02T08:01:06Z</time>
      </trkpt>
      <trkpt lat="43.318615" lon="-2.0050712">
        <time>2022-07-02T08:01:07Z</time>
      </trkpt>
      <trkpt lat="43.318718" lon="-2.0050461">
        <time>2022-07-02T08:01:09Z</time>
      </trkpt>
      <trkpt lat="43.318768" lon="-2.0050342">
        <time>2022-07-02T08:01:10Z</time>
      </trkpt>
      <trkpt lat="43.31887" lon="-2.0050101">
        <time>2022-07-02T08:01:12Z</time>
      </trkpt>
      <trkpt lat="43.318924" lon="-2.0049975">
        <time>2022-07-02T08:01:13Z</time>
      </trkpt>
      <trkpt lat="43.319027" lon="-2.0049713">
        <time>2022-07-02T08:01:15Z</time>
      </trkpt>
      <trkpt lat="43.31908" lon="-2.0049582">
        <time>2022-07-02T08:01:16Z</time>
      </trkpt>
      <trkpt lat="43.319183" lon="-2.0049329">
        <time>2022-07-02T08:01:18Z</time>
      </trkpt>
      <trkpt lat="43.319233" lon="-2.0049207">
        <time>2022-07-02T08:01:19Z</time>
      </trkpt>
      <trkpt lat="43.319275" lon="-2.0049095">
        <time>2022-07-02T08:01:20Z</time>
      </trkpt>
      <trkpt lat="43.31935" lon="-2.0048888">
        <time>2022-07-02T08:01:22Z</time>
      </trkpt>
      <trkpt lat="43.319405" lon="-2.0048745">
        <time>2022-07-02T08:01:24Z</time>
      </trkpt>
      <trkpt lat="43.31945" lon="-2.0048609">
        <time>2022-07-02T08:01:27Z</time>
      </trkpt>
      <trkpt lat="43.319504" lon="-2.0048525">
        <time>2022-07-02T08:01:32Z</time>
      </trkpt>
      <trkpt lat="43.319565" lon="-2.0048423">
        <time>2022-07-02T08:01:35Z</time>
      </trkpt>
      <trkpt lat="43.319653" lon="-2.0048256">
        <time>2022-07-02T08:01:38Z</time>
      </trkpt>
      <trkpt lat="43.31972" lon="-2.0048156">
        <time>2022-07-02T08:01:40Z</time>
      </trkpt>
      <trkpt lat="43.319794" lon="-2.0048063">
        <time>2022-07-02T08:01:42Z</time>
      </trkpt>
      <trkpt lat="43.31987" lon="-2.0048022">
        <time>2022-07-02T08:01:44Z</time>
      </trkpt>
      <trkpt lat="43.319946" lon="-2.0048075">
        <time>2022-07-02T08:01:46Z</time>
      </trkpt>
      <trkpt lat="43.320023" lon="-2.0048168">
        <time>2022-07-02T08:01:48Z</time>
      </trkpt>
      <trkpt lat="43.3201" lon="-2.0048306">
        <time>2022-07-02T08:01:50Z</time>
      </trkpt>
      <trkpt lat="43.320175" lon="-2.0048501">
        <time>2022-07-02T08:01:52Z</time>
      </trkpt>
      <trkpt lat="43.32025" lon="-2.004867">
        <time>2022-07-02T08:01:54Z</time>
      </trkpt>
      <trkpt lat="43.320328" lon="-2.0048769">
        <time>2022-07-02T08:01:56Z</time>
      </trkpt>
      <trkpt lat="43.3204" lon="-2.0048778">
        <time>2022-07-02T08:01:58Z</time>
      </trkpt>
      <trkpt lat="43.32047" lon="-2.0048804">
        <time>2022-07-02T08:02:00Z</time>
      </trkpt>
      <trkpt lat="43.32053" lon="-2.0048804">
        <time>2022-07-02T08:02:02Z</time>
      </trkpt>
      <trkpt lat="43.320587" lon="-2.004882">
        <time>2022-07-02T08:02:04Z</time>
      </trkpt>
      <trkpt lat="43.320637" lon="-2.0048954">
        <time>2022-07-02T08:02:06Z</time>
      </trkpt>
      <trkpt lat="43.320713" lon="-2.004928">
        <time>2022-07-02T08:02:09Z</time>
      </trkpt>
      <trkpt lat="43.32077" lon="-2.0049465">
        <time>2022-07-02T08:02:11Z</time>
      </trkpt>
      <trkpt lat="43.320827" lon="-2.0049567">
        <time>2022-07-02T08:02:13Z</time>
      </trkpt>
      <trkpt lat="43.32089" lon="-2.0049644">
        <time>2022-07-02T08:02:15Z</time>
      </trkpt>
      <trkpt lat="43.320953" lon="-2.0049741">
        <time>2022-07-02T08:02:17Z</time>
      </trkpt>
      <trkpt lat="43.32102" lon="-2.0049894">
        <time>2022-07-02T08:02:19Z</time>
      </trkpt>
      <trkpt lat="43.321087" lon="-2.005006">
        <time>2022-07-02T08:02:21Z</time>
      </trkpt>
      <trkpt lat="43.321156" lon="-2.0050194">
        <time>2022-07-02T08:02:23Z</time>
      </trkpt>
      <trkpt lat="43.32122" lon="-2.0050325">
        <time>2022-07-02T08:02:25Z</time>
      </trkpt>
      <trkpt lat="43.321285" lon="-2.005043">
        <time>2022-07-02T08:02:27Z</time>
      </trkpt>
      <trkpt lat="43.321342" lon="-2.0050552">
        <time>2022-07-02T08:02:29Z</time>
      </trkpt>
      <trkpt lat="43.321396" lon="-2.005073">
        <time>2022-07-02T08:02:31Z</time>
      </trkpt>
      <trkpt lat="43.321438" lon="-2.0051033">
        <time>2022-07-02T08:02:33Z</time>
      </trkpt>
      <trkpt lat="43.321487" lon="-2.00517">
        <time>2022-07-02T08:02:36Z</time>
      </trkpt>
      <trkpt lat="43.32153" lon="-2.0052438">
        <time>2022-07-02T08:02:39Z</time>
      </trkpt>
      <trkpt lat="43.321575" lon="-2.0053132">
        <time>2022-07-02T08:02:42Z</time>
      </trkpt>
      <trkpt lat="43.321625" lon="-2.005373">
        <time>2022-07-02T08:02:45Z</time>
      </trkpt>
      <trkpt lat="43.321617" lon="-2.005592">
        <time>2022-07-02T08:05:04Z</time>
      </trkpt>
      <trkpt lat="43.321648" lon="-2.0056357">
        <time>2022-07-02T08:05:09Z</time>
      </trkpt>
      <trkpt lat="43.321705" lon="-2.0055008">
        <time>2022-07-02T08:15:07Z</time>
      </trkpt>
      <trkpt lat="43.32167" lon="-2.005439">
        <time>2022-07-02T08:15:12Z</time>
      </trkpt>
      <trkpt lat="43.32161" lon="-2.0053759">
        <time>2022-07-02T08:16:36Z</time>
      </trkpt>
      <trkpt lat="43.32158" lon="-2.0053115">
        <time>2022-07-02T08:16:39Z</time>
      </trkpt>
      <trkpt lat="43.321537" lon="-2.0052402">
        <time>2022-07-02T08:16:42Z</time>
      </trkpt>
      <trkpt lat="43.321495" lon="-2.0051785">
        <time>2022-07-02T08:16:45Z</time>
      </trkpt>
      <trkpt lat="43.32145" lon="-2.0051365">
        <time>2022-07-02T08:16:48Z</time>
      </trkpt>
      <trkpt lat="43.32138" lon="-2.0050817">
        <time>2022-07-02T08:17:36Z</time>
      </trkpt>
      <trkpt lat="43.321327" lon="-2.0050611">
        <time>2022-07-02T08:17:39Z</time>
      </trkpt>
      <trkpt lat="43.32126" lon="-2.0050387">
        <time>2022-07-02T08:17:42Z</time>
      </trkpt>
      <trkpt lat="43.321182" lon="-2.0050197">
        <time>2022-07-02T08:17:45Z</time>
      </trkpt>
      <trkpt lat="43.321133" lon="-2.005011">
        <time>2022-07-02T08:17:47Z</time>
      </trkpt>
      <trkpt lat="43.321053" lon="-2.0049999">
        <time>2022-07-02T08:17:50Z</time>
      </trkpt>
      <trkpt lat="43.320995" lon="-2.004989">
        <time>2022-07-02T08:17:52Z</time>
      </trkpt>
      <trkpt lat="43.320942" lon="-2.0049818">
        <time>2022-07-02T08:17:54Z</time>
      </trkpt>
      <trkpt lat="43.320866" lon="-2.0049706">
        <time>2022-07-02T08:17:57Z</time>
      </trkpt>
      <trkpt lat="43.320812" lon="-2.0049615">
        <time>2022-07-02T08:17:59Z</time>
      </trkpt>
      <trkpt lat="43.32076" lon="-2.0049517">
        <time>2022-07-02T08:18:01Z</time>
      </trkpt>
      <trkpt lat="43.320713" lon="-2.0049396">
        <time>2022-07-02T08:18:03Z</time>
      </trkpt>
      <trkpt lat="43.32065" lon="-2.004909">
        <time>2022-07-02T08:18:06Z</time>
      </trkpt>
      <trkpt lat="43.320583" lon="-2.0048854">
        <time>2022-07-02T08:18:09Z</time>
      </trkpt>
      <trkpt lat="43.320538" lon="-2.0048895">
        <time>2022-07-02T08:18:12Z</time>
      </trkpt>
      <trkpt lat="43.320515" lon="-2.0049422">
        <time>2022-07-02T08:18:19Z</time>
      </trkpt>
      <trkpt lat="43.320534" lon="-2.00501">
        <time>2022-07-02T08:18:24Z</time>
      </trkpt>
      <trkpt lat="43.3205" lon="-2.0050104">
        <time>2022-07-02T08:18:40Z</time>
      </trkpt>
      <trkpt lat="43.32045" lon="-2.0050352">
        <time>2022-07-02T08:18:45Z</time>
      </trkpt>
      <trkpt lat="43.32041" lon="-2.0050461">
        <time>2022-07-02T08:18:58Z</time>
      </trkpt>
      <trkpt lat="43.320404" lon="-2.0050535">
        <time>2022-07-02T08:19:02Z</time>
      </trkpt>
      <trkpt lat="43.320347" lon="-2.0050387">
        <time>2022-07-02T08:19:10Z</time>
      </trkpt>
      <trkpt lat="43.32032" lon="-2.0048277">
        <time>2022-07-02T08:19:18Z</time>
      </trkpt>
      <trkpt lat="43.320797" lon="-2.0049877">
        <time>2022-07-02T08:23:26Z</time>
      </trkpt>
      <trkpt lat="43.320675" lon="-2.0050018">
        <time>2022-07-02T08:23:42Z</time>
      </trkpt>
      <trkpt lat="43.320618" lon="-2.004974">
        <time>2022-07-02T08:23:50Z</time>
      </trkpt>
      <trkpt lat="43.320564" lon="-2.004992">
        <time>2022-07-02T08:23:54Z</time>
      </trkpt>
      <trkpt lat="43.320545" lon="-2.0050478">
        <time>2022-07-02T08:23:59Z</time>
      </trkpt>
      <trkpt lat="43.32059" lon="-2.0050874">
        <time>2022-07-02T08:24:06Z</time>
      </trkpt>
      <trkpt lat="43.320614" lon="-2.005131">
        <time>2022-07-02T08:29:51Z</time>
      </trkpt>
      <trkpt lat="43.320477" lon="-2.0050094">
        <time>2022-07-02T08:40:27Z</time>
      </trkpt>
      <trkpt lat="43.32044" lon="-2.0050101">
        <time>2022-07-02T08:40:33Z</time>
      </trkpt>
      <trkpt lat="43.320507" lon="-2.0050504">
        <time>2022-07-02T08:43:19Z</time>
      </trkpt>
      <trkpt lat="43.320457" lon="-2.004986">
        <time>2022-07-02T08:43:22Z</time>
      </trkpt>
      <trkpt lat="43.320385" lon="-2.004941">
        <time>2022-07-02T08:43:25Z</time>
      </trkpt>
      <trkpt lat="43.320328" lon="-2.0049222">
        <time>2022-07-02T08:43:27Z</time>
      </trkpt>
      <trkpt lat="43.320267" lon="-2.0049055">
        <time>2022-07-02T08:43:29Z</time>
      </trkpt>
      <trkpt lat="43.3202" lon="-2.0048902">
        <time>2022-07-02T08:43:31Z</time>
      </trkpt>
      <trkpt lat="43.320137" lon="-2.004877">
        <time>2022-07-02T08:43:33Z</time>
      </trkpt>
      <trkpt lat="43.32007" lon="-2.004863">
        <time>2022-07-02T08:43:35Z</time>
      </trkpt>
      <trkpt lat="43.32" lon="-2.0048501">
        <time>2022-07-02T08:43:37Z</time>
      </trkpt>
      <trkpt lat="43.319927" lon="-2.0048435">
        <time>2022-07-02T08:43:39Z</time>
      </trkpt>
      <trkpt lat="43.31985" lon="-2.0048409">
        <time>2022-07-02T08:43:41Z</time>
      </trkpt>
      <trkpt lat="43.319775" lon="-2.0048387">
        <time>2022-07-02T08:43:43Z</time>
      </trkpt>
      <trkpt lat="43.319706" lon="-2.0048335">
        <time>2022-07-02T08:43:45Z</time>
      </trkpt>
      <trkpt lat="43.319645" lon="-2.0048308">
        <time>2022-07-02T08:43:47Z</time>
      </trkpt>
      <trkpt lat="43.319595" lon="-2.0048287">
        <time>2022-07-02T08:43:50Z</time>
      </trkpt>
      <trkpt lat="43.31945" lon="-2.0048537">
        <time>2022-07-02T08:45:56Z</time>
      </trkpt>
      <trkpt lat="43.31938" lon="-2.0048914">
        <time>2022-07-02T08:45:59Z</time>
      </trkpt>
      <trkpt lat="43.319324" lon="-2.0049105">
        <time>2022-07-02T08:46:01Z</time>
      </trkpt>
      <trkpt lat="43.31926" lon="-2.0049288">
        <time>2022-07-02T08:46:03Z</time>
      </trkpt>
      <trkpt lat="43.31919" lon="-2.0049431">
        <time>2022-07-02T08:46:05Z</time>
      </trkpt>
      <trkpt lat="43.319122" lon="-2.0049558">
        <time>2022-07-02T08:46:07Z</time>
      </trkpt>
      <trkpt lat="43.319046" lon="-2.0049722">
        <time>2022-07-02T08:46:09Z</time>
      </trkpt>
      <trkpt lat="43.318974" lon="-2.0049903">
        <time>2022-07-02T08:46:11Z</time>
      </trkpt>
      <trkpt lat="43.318893" lon="-2.0050116">
        <time>2022-07-02T08:46:13Z</time>
      </trkpt>
      <trkpt lat="43.318817" lon="-2.0050318">
        <time>2022-07-02T08:46:15Z</time>
      </trkpt>
      <trkpt lat="43.318733" lon="-2.0050545">
        <time>2022-07-02T08:46:17Z</time>
      </trkpt>
      <trkpt lat="43.318657" lon="-2.0050771">
        <time>2022-07-02T08:46:19Z</time>
      </trkpt>
      <trkpt lat="43.31853" lon="-2.0051131">
        <time>2022-07-02T08:46:22Z</time>
      </trkpt>
      <trkpt lat="43.31845" lon="-2.0051324">
        <time>2022-07-02T08:46:24Z</time>
      </trkpt>
      <trkpt lat="43.31837" lon="-2.0051508">
        <time>2022-07-02T08:46:26Z</time>
      </trkpt>
      <trkpt lat="43.318283" lon="-2.0051703">
        <time>2022-07-02T08:46:28Z</time>
      </trkpt>
      <trkpt lat="43.3182" lon="-2.005191">
        <time>2022-07-02T08:46:30Z</time>
      </trkpt>
      <trkpt lat="43.31811" lon="-2.0052102">
        <time>2022-07-02T08:46:32Z</time>
      </trkpt>
      <trkpt lat="43.318027" lon="-2.0052238">
        <time>2022-07-02T08:46:34Z</time>
      </trkpt>
      <trkpt lat="43.317944" lon="-2.0052304">
        <time>2022-07-02T08:46:36Z</time>
      </trkpt>
      <trkpt lat="43.31786" lon="-2.0052333">
        <time>2022-07-02T08:46:38Z</time>
      </trkpt>
      <trkpt lat="43.317776" lon="-2.0052364">
        <time>2022-07-02T08:46:40Z</time>
      </trkpt>
      <trkpt lat="43.31769" lon="-2.0052388">
        <time>2022-07-02T08:46:42Z</time>
      </trkpt>
      <trkpt lat="43.317608" lon="-2.0052366">
        <time>2022-07-02T08:46:44Z</time>
      </trkpt>
      <trkpt lat="43.317524" lon="-2.0052223">
        <time>2022-07-02T08:46:46Z</time>
      </trkpt>
      <trkpt lat="43.317444" lon="-2.0051985">
        <time>2022-07-02T08:46:48Z</time>
      </trkpt>
      <trkpt lat="43.317368" lon="-2.0051677">
        <time>2022-07-02T08:46:50Z</time>
      </trkpt>
      <trkpt lat="43.317287" lon="-2.0051248">
        <time>2022-07-02T08:46:52Z</time>
      </trkpt>
      <trkpt lat="43.31721" lon="-2.005079">
        <time>2022-07-02T08:46:54Z</time>
      </trkpt>
      <trkpt lat="43.317135" lon="-2.0050287">
        <time>2022-07-02T08:46:56Z</time>
      </trkpt>
      <trkpt lat="43.31706" lon="-2.0049837">
        <time>2022-07-02T08:46:58Z</time>
      </trkpt>
      <trkpt lat="43.316982" lon="-2.0049388">
        <time>2022-07-02T08:47:00Z</time>
      </trkpt>
      <trkpt lat="43.31691" lon="-2.0048866">
        <time>2022-07-02T08:47:02Z</time>
      </trkpt>
      <trkpt lat="43.31684" lon="-2.0048246">
        <time>2022-07-02T08:47:04Z</time>
      </trkpt>
      <trkpt lat="43.31678" lon="-2.0047581">
        <time>2022-07-02T08:47:06Z</time>
      </trkpt>
      <trkpt lat="43.316727" lon="-2.0046954">
        <time>2022-07-02T08:47:08Z</time>
      </trkpt>
      <trkpt lat="43.31668" lon="-2.0046432">
        <time>2022-07-02T08:47:10Z</time>
      </trkpt>
      <trkpt lat="43.316647" lon="-2.0045965">
        <time>2022-07-02T08:47:13Z</time>
      </trkpt>
      <trkpt lat="43.31661" lon="-2.0045338">
        <time>2022-07-02T08:47:17Z</time>
      </trkpt>
      <trkpt lat="43.316555" lon="-2.0044749">
        <time>2022-07-02T08:47:20Z</time>
      </trkpt>
      <trkpt lat="43.316517" lon="-2.0044305">
        <time>2022-07-02T08:47:22Z</time>
      </trkpt>
      <trkpt lat="43.316483" lon="-2.0043662">
        <time>2022-07-02T08:47:24Z</time>
      </trkpt>
      <trkpt lat="43.31645" lon="-2.0042825">
        <time>2022-07-02T08:47:26Z</time>
      </trkpt>
      <trkpt lat="43.31642" lon="-2.004197">
        <time>2022-07-02T08:47:28Z</time>
      </trkpt>
      <trkpt lat="43.31639" lon="-2.0040972">
        <time>2022-07-02T08:47:30Z</time>
      </trkpt>
      <trkpt lat="43.31636" lon="-2.003997">
        <time>2022-07-02T08:47:32Z</time>
      </trkpt>
      <trkpt lat="43.316326" lon="-2.0038896">
        <time>2022-07-02T08:47:34Z</time>
      </trkpt>
      <trkpt lat="43.316296" lon="-2.0037844">
        <time>2022-07-02T08:47:36Z</time>
      </trkpt>
      <trkpt lat="43.31626" lon="-2.0036788">
        <time>2022-07-02T08:47:38Z</time>
      </trkpt>
      <trkpt lat="43.316223" lon="-2.0035706">
        <time>2022-07-02T08:47:40Z</time>
      </trkpt>
      <trkpt lat="43.316193" lon="-2.0034633">
        <time>2022-07-02T08:47:42Z</time>
      </trkpt>
      <trkpt lat="43.316166" lon="-2.0033522">
        <time>2022-07-02T08:47:44Z</time>
      </trkpt>
      <trkpt lat="43.316135" lon="-2.0032468">
        <time>2022-07-02T08:47:46Z</time>
      </trkpt>
      <trkpt lat="43.316097" lon="-2.003137">
        <time>2022-07-02T08:47:48Z</time>
      </trkpt>
      <trkpt lat="43.31606" lon="-2.0030322">
        <time>2022-07-02T08:47:50Z</time>
      </trkpt>
      <trkpt lat="43.31603" lon="-2.0029378">
        <time>2022-07-02T08:47:52Z</time>
      </trkpt>
      <trkpt lat="43.316" lon="-2.0028584">
        <time>2022-07-02T08:47:54Z</time>
      </trkpt>
      <trkpt lat="43.315987" lon="-2.002788">
        <time>2022-07-02T08:47:56Z</time>
      </trkpt>
      <trkpt lat="43.315968" lon="-2.0027165">
        <time>2022-07-02T08:47:58Z</time>
      </trkpt>
      <trkpt lat="43.315945" lon="-2.0026462">
        <time>2022-07-02T08:48:00Z</time>
      </trkpt>
      <trkpt lat="43.31592" lon="-2.0025768">
        <time>2022-07-02T08:48:02Z</time>
      </trkpt>
      <trkpt lat="43.3159" lon="-2.0025182">
        <time>2022-07-02T08:48:04Z</time>
      </trkpt>
      <trkpt lat="43.315872" lon="-2.0024362">
        <time>2022-07-02T08:48:07Z</time>
      </trkpt>
      <trkpt lat="43.31585" lon="-2.0023446">
        <time>2022-07-02T08:48:10Z</time>
      </trkpt>
      <trkpt lat="43.31582" lon="-2.0022376">
        <time>2022-07-02T08:48:13Z</time>
      </trkpt>
      <trkpt lat="43.3158" lon="-2.0021646">
        <time>2022-07-02T08:48:15Z</time>
      </trkpt>
      <trkpt lat="43.315773" lon="-2.0021005">
        <time>2022-07-02T08:48:17Z</time>
      </trkpt>
      <trkpt lat="43.315746" lon="-2.0020168">
        <time>2022-07-02T08:48:20Z</time>
      </trkpt>
      <trkpt lat="43.31572" lon="-2.0019221">
        <time>2022-07-02T08:48:23Z</time>
      </trkpt>
      <trkpt lat="43.31569" lon="-2.0018156">
        <time>2022-07-02T08:48:26Z</time>
      </trkpt>
      <trkpt lat="43.315678" lon="-2.0017285">
        <time>2022-07-02T08:48:29Z</time>
      </trkpt>
      <trkpt lat="43.31562" lon="-2.0016055">
        <time>2022-07-02T08:49:46Z</time>
      </trkpt>
      <trkpt lat="43.315582" lon="-2.0015159">
        <time>2022-07-02T08:49:49Z</time>
      </trkpt>
      <trkpt lat="43.31556" lon="-2.0014439">
        <time>2022-07-02T08:49:51Z</time>
      </trkpt>
      <trkpt lat="43.315536" lon="-2.0013657">
        <time>2022-07-02T08:49:53Z</time>
      </trkpt>
      <trkpt lat="43.315517" lon="-2.0012822">
        <time>2022-07-02T08:49:55Z</time>
      </trkpt>
      <trkpt lat="43.315506" lon="-2.0011907">
        <time>2022-07-02T08:49:57Z</time>
      </trkpt>
      <trkpt lat="43.315506" lon="-2.001091">
        <time>2022-07-02T08:49:59Z</time>
      </trkpt>
      <trkpt lat="43.315525" lon="-2.0009916">
        <time>2022-07-02T08:50:01Z</time>
      </trkpt>
      <trkpt lat="43.315556" lon="-2.0008917">
        <time>2022-07-02T08:50:03Z</time>
      </trkpt>
      <trkpt lat="43.315582" lon="-2.0007904">
        <time>2022-07-02T08:50:05Z</time>
      </trkpt>
      <trkpt lat="43.315613" lon="-2.0006886">
        <time>2022-07-02T08:50:07Z</time>
      </trkpt>
      <trkpt lat="43.31564" lon="-2.000589">
        <time>2022-07-02T08:50:09Z</time>
      </trkpt>
      <trkpt lat="43.31566" lon="-2.0004907">
        <time>2022-07-02T08:50:11Z</time>
      </trkpt>
      <trkpt lat="43.31567" lon="-2.0003912">
        <time>2022-07-02T08:50:13Z</time>
      </trkpt>
      <trkpt lat="43.31568" lon="-2.0002935">
        <time>2022-07-02T08:50:15Z</time>
      </trkpt>
      <trkpt lat="43.31568" lon="-2.0002027">
        <time>2022-07-02T08:50:17Z</time>
      </trkpt>
      <trkpt lat="43.315674" lon="-2.0001097">
        <time>2022-07-02T08:50:19Z</time>
      </trkpt>
      <trkpt lat="43.31566" lon="-2.0000167">
        <time>2022-07-02T08:50:21Z</time>
      </trkpt>
      <trkpt lat="43.315647" lon="-1.9999219">
        <time>2022-07-02T08:50:23Z</time>
      </trkpt>
      <trkpt lat="43.315636" lon="-1.9998267">
        <time>2022-07-02T08:50:25Z</time>
      </trkpt>
      <trkpt lat="43.31562" lon="-1.9997343">
        <time>2022-07-02T08:50:27Z</time>
      </trkpt>
      <trkpt lat="43.31561" lon="-1.9996439">
        <time>2022-07-02T08:50:29Z</time>
      </trkpt>
      <trkpt lat="43.315594" lon="-1.9995537">
        <time>2022-07-02T08:50:31Z</time>
      </trkpt>
      <trkpt lat="43.31558" lon="-1.999462">
        <time>2022-07-02T08:50:33Z</time>
      </trkpt>
      <trkpt lat="43.315563" lon="-1.9993693">
        <time>2022-07-02T08:50:35Z</time>
      </trkpt>
      <trkpt lat="43.315544" lon="-1.9992783">
        <time>2022-07-02T08:50:37Z</time>
      </trkpt>
      <trkpt lat="43.315517" lon="-1.9991846">
        <time>2022-07-02T08:50:39Z</time>
      </trkpt>
      <trkpt lat="43.315495" lon="-1.9990929">
        <time>2022-07-02T08:50:41Z</time>
      </trkpt>
      <trkpt lat="43.315464" lon="-1.9989947">
        <time>2022-07-02T08:50:43Z</time>
      </trkpt>
      <trkpt lat="43.315434" lon="-1.9988973">
        <time>2022-07-02T08:50:45Z</time>
      </trkpt>
      <trkpt lat="43.315403" lon="-1.9988">
        <time>2022-07-02T08:50:47Z</time>
      </trkpt>
      <trkpt lat="43.315372" lon="-1.9987026">
        <time>2022-07-02T08:50:49Z</time>
      </trkpt>
      <trkpt lat="43.31534" lon="-1.99861">
        <time>2022-07-02T08:50:51Z</time>
      </trkpt>
      <trkpt lat="43.314934" lon="-1.9975247">
        <time>2022-07-02T08:51:12Z</time>
      </trkpt>
      <trkpt lat="43.314632" lon="-1.9966516">
        <time>2022-07-02T08:51:28Z</time>
      </trkpt>
      <trkpt lat="43.31461" lon="-1.9965347">
        <time>2022-07-02T08:51:31Z</time>
      </trkpt>
      <trkpt lat="43.31459" lon="-1.9964323">
        <time>2022-07-02T08:51:33Z</time>
      </trkpt>
      <trkpt lat="43.31457" lon="-1.9963204">
        <time>2022-07-02T08:51:35Z</time>
      </trkpt>
      <trkpt lat="43.31455" lon="-1.9962066">
        <time>2022-07-02T08:51:37Z</time>
      </trkpt>
      <trkpt lat="43.314526" lon="-1.9960804">
        <time>2022-07-02T08:51:39Z</time>
      </trkpt>
      <trkpt lat="43.314503" lon="-1.995951">
        <time>2022-07-02T08:51:41Z</time>
      </trkpt>
      <trkpt lat="43.314484" lon="-1.995824">
        <time>2022-07-02T08:51:43Z</time>
      </trkpt>
      <trkpt lat="43.31447" lon="-1.9956874">
        <time>2022-07-02T08:51:45Z</time>
      </trkpt>
      <trkpt lat="43.31446" lon="-1.9956197">
        <time>2022-07-02T08:51:46Z</time>
      </trkpt>
      <trkpt lat="43.314457" lon="-1.995553">
        <time>2022-07-02T08:51:47Z</time>
      </trkpt>
      <trkpt lat="43.314457" lon="-1.995427">
        <time>2022-07-02T08:51:49Z</time>
      </trkpt>
      <trkpt lat="43.314465" lon="-1.9952891">
        <time>2022-07-02T08:51:51Z</time>
      </trkpt>
      <trkpt lat="43.314465" lon="-1.9951581">
        <time>2022-07-02T08:51:53Z</time>
      </trkpt>
      <trkpt lat="43.314465" lon="-1.995015">
        <time>2022-07-02T08:51:55Z</time>
      </trkpt>
      <trkpt lat="43.31447" lon="-1.9949427">
        <time>2022-07-02T08:51:56Z</time>
      </trkpt>
      <trkpt lat="43.31447" lon="-1.994806">
        <time>2022-07-02T08:51:58Z</time>
      </trkpt>
      <trkpt lat="43.314472" lon="-1.9947318">
        <time>2022-07-02T08:51:59Z</time>
      </trkpt>
      <trkpt lat="43.31447" lon="-1.9946584">
        <time>2022-07-02T08:52:00Z</time>
      </trkpt>
      <trkpt lat="43.31447" lon="-1.994585">
        <time>2022-07-02T08:52:01Z</time>
      </trkpt>
      <trkpt lat="43.314472" lon="-1.9944444">
        <time>2022-07-02T08:52:03Z</time>
      </trkpt>
      <trkpt lat="43.314476" lon="-1.9943714">
        <time>2022-07-02T08:52:04Z</time>
      </trkpt>
      <trkpt lat="43.31448" lon="-1.9943035">
        <time>2022-07-02T08:52:05Z</time>
      </trkpt>
      <trkpt lat="43.31448" lon="-1.9941647">
        <time>2022-07-02T08:52:07Z</time>
      </trkpt>
      <trkpt lat="43.314484" lon="-1.9940938">
        <time>2022-07-02T08:52:08Z</time>
      </trkpt>
      <trkpt lat="43.314484" lon="-1.9939398">
        <time>2022-07-02T08:52:10Z</time>
      </trkpt>
      <trkpt lat="43.314484" lon="-1.9938687">
        <time>2022-07-02T08:52:11Z</time>
      </trkpt>
      <trkpt lat="43.314487" lon="-1.9937967">
        <time>2022-07-02T08:52:12Z</time>
      </trkpt>
      <trkpt lat="43.314487" lon="-1.993643">
        <time>2022-07-02T08:52:14Z</time>
      </trkpt>
      <trkpt lat="43.314487" lon="-1.9935704">
        <time>2022-07-02T08:52:15Z</time>
      </trkpt>
      <trkpt lat="43.314487" lon="-1.9934968">
        <time>2022-07-02T08:52:16Z</time>
      </trkpt>
      <trkpt lat="43.314487" lon="-1.9934181">
        <time>2022-07-02T08:52:17Z</time>
      </trkpt>
      <trkpt lat="43.314487" lon="-1.9933441">
        <time>2022-07-02T08:52:18Z</time>
      </trkpt>
      <trkpt lat="43.314487" lon="-1.9932644">
        <time>2022-07-02T08:52:19Z</time>
      </trkpt>
      <trkpt lat="43.314487" lon="-1.9931848">
        <time>2022-07-02T08:52:20Z</time>
      </trkpt>
      <trkpt lat="43.31449" lon="-1.9931108">
        <time>2022-07-02T08:52:21Z</time>
      </trkpt>
      <trkpt lat="43.31449" lon="-1.9930358">
        <time>2022-07-02T08:52:22Z</time>
      </trkpt>
      <trkpt lat="43.314495" lon="-1.9929588">
        <time>2022-07-02T08:52:23Z</time>
      </trkpt>
      <trkpt lat="43.3145" lon="-1.9928771">
        <time>2022-07-02T08:52:24Z</time>
      </trkpt>
      <trkpt lat="43.314503" lon="-1.9928018">
        <time>2022-07-02T08:52:25Z</time>
      </trkpt>
      <trkpt lat="43.31451" lon="-1.9927251">
        <time>2022-07-02T08:52:26Z</time>
      </trkpt>
      <trkpt lat="43.314514" lon="-1.9926425">
        <time>2022-07-02T08:52:27Z</time>
      </trkpt>
      <trkpt lat="43.314518" lon="-1.9925594">
        <time>2022-07-02T08:52:28Z</time>
      </trkpt>
      <trkpt lat="43.314526" lon="-1.9924831">
        <time>2022-07-02T08:52:29Z</time>
      </trkpt>
      <trkpt lat="43.314533" lon="-1.9924048">
        <time>2022-07-02T08:52:30Z</time>
      </trkpt>
      <trkpt lat="43.31454" lon="-1.9923255">
        <time>2022-07-02T08:52:31Z</time>
      </trkpt>
      <trkpt lat="43.31455" lon="-1.9922405">
        <time>2022-07-02T08:52:32Z</time>
      </trkpt>
      <trkpt lat="43.31456" lon="-1.9921632">
        <time>2022-07-02T08:52:33Z</time>
      </trkpt>
      <trkpt lat="43.31457" lon="-1.9920862">
        <time>2022-07-02T08:52:34Z</time>
      </trkpt>
      <trkpt lat="43.31458" lon="-1.9920032">
        <time>2022-07-02T08:52:35Z</time>
      </trkpt>
      <trkpt lat="43.31459" lon="-1.9919281">
        <time>2022-07-02T08:52:36Z</time>
      </trkpt>
      <trkpt lat="43.314606" lon="-1.9918472">
        <time>2022-07-02T08:52:37Z</time>
      </trkpt>
      <trkpt lat="43.314617" lon="-1.9917722">
        <time>2022-07-02T08:52:38Z</time>
      </trkpt>
      <trkpt lat="43.314632" lon="-1.9916909">
        <time>2022-07-02T08:52:39Z</time>
      </trkpt>
      <trkpt lat="43.314648" lon="-1.9916111">
        <time>2022-07-02T08:52:40Z</time>
      </trkpt>
      <trkpt lat="43.31466" lon="-1.9915382">
        <time>2022-07-02T08:52:41Z</time>
      </trkpt>
      <trkpt lat="43.31467" lon="-1.9914606">
        <time>2022-07-02T08:52:42Z</time>
      </trkpt>
      <trkpt lat="43.314682" lon="-1.9913852">
        <time>2022-07-02T08:52:43Z</time>
      </trkpt>
      <trkpt lat="43.31471" lon="-1.9912525">
        <time>2022-07-02T08:52:45Z</time>
      </trkpt>
      <trkpt lat="43.314735" lon="-1.9911529">
        <time>2022-07-02T08:52:47Z</time>
      </trkpt>
      <trkpt lat="43.314766" lon="-1.9910918">
        <time>2022-07-02T08:52:49Z</time>
      </trkpt>
      <trkpt lat="43.314808" lon="-1.9910289">
        <time>2022-07-02T08:52:52Z</time>
      </trkpt>
      <trkpt lat="43.314835" lon="-1.9909512">
        <time>2022-07-02T08:52:55Z</time>
      </trkpt>
      <trkpt lat="43.31485" lon="-1.9908788">
        <time>2022-07-02T08:52:57Z</time>
      </trkpt>
      <trkpt lat="43.314865" lon="-1.9907949">
        <time>2022-07-02T08:52:59Z</time>
      </trkpt>
      <trkpt lat="43.314884" lon="-1.9906979">
        <time>2022-07-02T08:53:01Z</time>
      </trkpt>
      <trkpt lat="43.3149" lon="-1.9905919">
        <time>2022-07-02T08:53:03Z</time>
      </trkpt>
      <trkpt lat="43.31492" lon="-1.9904779">
        <time>2022-07-02T08:53:05Z</time>
      </trkpt>
      <trkpt lat="43.314938" lon="-1.9903638">
        <time>2022-07-02T08:53:07Z</time>
      </trkpt>
      <trkpt lat="43.314957" lon="-1.9902445">
        <time>2022-07-02T08:53:09Z</time>
      </trkpt>
      <trkpt lat="43.31498" lon="-1.9901259">
        <time>2022-07-02T08:53:11Z</time>
      </trkpt>
      <trkpt lat="43.31499" lon="-1.9900615">
        <time>2022-07-02T08:53:12Z</time>
      </trkpt>
      <trkpt lat="43.315018" lon="-1.9899399">
        <time>2022-07-02T08:53:14Z</time>
      </trkpt>
      <trkpt lat="43.315044" lon="-1.9898095">
        <time>2022-07-02T08:53:16Z</time>
      </trkpt>
      <trkpt lat="43.315075" lon="-1.9896779">
        <time>2022-07-02T08:53:18Z</time>
      </trkpt>
      <trkpt lat="43.31509" lon="-1.9896172">
        <time>2022-07-02T08:53:19Z</time>
      </trkpt>
      <trkpt lat="43.315125" lon="-1.9894869">
        <time>2022-07-02T08:53:21Z</time>
      </trkpt>
      <trkpt lat="43.315147" lon="-1.989425">
        <time>2022-07-02T08:53:22Z</time>
      </trkpt>
      <trkpt lat="43.315163" lon="-1.9893686">
        <time>2022-07-02T08:53:23Z</time>
      </trkpt>
      <trkpt lat="43.315193" lon="-1.9892555">
        <time>2022-07-02T08:53:25Z</time>
      </trkpt>
      <trkpt lat="43.315216" lon="-1.9891462">
        <time>2022-07-02T08:53:27Z</time>
      </trkpt>
      <trkpt lat="43.315243" lon="-1.9890473">
        <time>2022-07-02T08:53:29Z</time>
      </trkpt>
      <trkpt lat="43.31527" lon="-1.9889579">
        <time>2022-07-02T08:53:31Z</time>
      </trkpt>
      <trkpt lat="43.3153" lon="-1.9888746">
        <time>2022-07-02T08:53:33Z</time>
      </trkpt>
      <trkpt lat="43.315327" lon="-1.988799">
        <time>2022-07-02T08:53:35Z</time>
      </trkpt>
      <trkpt lat="43.315342" lon="-1.9887502">
        <time>2022-07-02T08:53:37Z</time>
      </trkpt>
      <trkpt lat="43.31541" lon="-1.9886079">
        <time>2022-07-02T08:54:21Z</time>
      </trkpt>
      <trkpt lat="43.31545" lon="-1.9885442">
        <time>2022-07-02T08:54:23Z</time>
      </trkpt>
      <trkpt lat="43.315495" lon="-1.988465">
        <time>2022-07-02T08:54:25Z</time>
      </trkpt>
      <trkpt lat="43.315536" lon="-1.9883853">
        <time>2022-07-02T08:54:27Z</time>
      </trkpt>
      <trkpt lat="43.31558" lon="-1.9883096">
        <time>2022-07-02T08:54:29Z</time>
      </trkpt>
      <trkpt lat="43.315624" lon="-1.9882417">
        <time>2022-07-02T08:54:31Z</time>
      </trkpt>
      <trkpt lat="43.315666" lon="-1.9881727">
        <time>2022-07-02T08:54:33Z</time>
      </trkpt>
      <trkpt lat="43.315704" lon="-1.988102">
        <time>2022-07-02T08:54:35Z</time>
      </trkpt>
      <trkpt lat="43.315742" lon="-1.988039">
        <time>2022-07-02T08:54:37Z</time>
      </trkpt>
      <trkpt lat="43.31579" lon="-1.987976">
        <time>2022-07-02T08:54:39Z</time>
      </trkpt>
      <trkpt lat="43.315834" lon="-1.987914">
        <time>2022-07-02T08:54:41Z</time>
      </trkpt>
      <trkpt lat="43.31588" lon="-1.987852">
        <time>2022-07-02T08:54:43Z</time>
      </trkpt>
      <trkpt lat="43.31593" lon="-1.9877893">
        <time>2022-07-02T08:54:45Z</time>
      </trkpt>
      <trkpt lat="43.315983" lon="-1.9877243">
        <time>2022-07-02T08:54:47Z</time>
      </trkpt>
      <trkpt lat="43.316032" lon="-1.9876533">
        <time>2022-07-02T08:54:49Z</time>
      </trkpt>
      <trkpt lat="43.316086" lon="-1.9875833">
        <time>2022-07-02T08:54:51Z</time>
      </trkpt>
      <trkpt lat="43.316135" lon="-1.9875124">
        <time>2022-07-02T08:54:53Z</time>
      </trkpt>
      <trkpt lat="43.31618" lon="-1.987443">
        <time>2022-07-02T08:54:55Z</time>
      </trkpt>
      <trkpt lat="43.316227" lon="-1.9873756">
        <time>2022-07-02T08:54:57Z</time>
      </trkpt>
      <trkpt lat="43.316265" lon="-1.9873066">
        <time>2022-07-02T08:54:59Z</time>
      </trkpt>
      <trkpt lat="43.316307" lon="-1.987236">
        <time>2022-07-02T08:55:01Z</time>
      </trkpt>
      <trkpt lat="43.316353" lon="-1.987166">
        <time>2022-07-02T08:55:03Z</time>
      </trkpt>
      <trkpt lat="43.316402" lon="-1.9871037">
        <time>2022-07-02T08:55:05Z</time>
      </trkpt>
      <trkpt lat="43.31646" lon="-1.9870406">
        <time>2022-07-02T08:55:07Z</time>
      </trkpt>
      <trkpt lat="43.316525" lon="-1.9869783">
        <time>2022-07-02T08:55:09Z</time>
      </trkpt>
      <trkpt lat="43.31659" lon="-1.9869157">
        <time>2022-07-02T08:55:11Z</time>
      </trkpt>
      <trkpt lat="43.316677" lon="-1.986815">
        <time>2022-07-02T08:55:14Z</time>
      </trkpt>
      <trkpt lat="43.316734" lon="-1.9867467">
        <time>2022-07-02T08:55:16Z</time>
      </trkpt>
      <trkpt lat="43.316788" lon="-1.986678">
        <time>2022-07-02T08:55:18Z</time>
      </trkpt>
      <trkpt lat="43.316845" lon="-1.9866073">
        <time>2022-07-02T08:55:20Z</time>
      </trkpt>
      <trkpt lat="43.316906" lon="-1.9865384">
        <time>2022-07-02T08:55:22Z</time>
      </trkpt>
      <trkpt lat="43.316963" lon="-1.9864687">
        <time>2022-07-02T08:55:24Z</time>
      </trkpt>
      <trkpt lat="43.317024" lon="-1.9863983">
        <time>2022-07-02T08:55:26Z</time>
      </trkpt>
      <trkpt lat="43.31708" lon="-1.986328">
        <time>2022-07-02T08:55:28Z</time>
      </trkpt>
      <trkpt lat="43.31714" lon="-1.986263">
        <time>2022-07-02T08:55:30Z</time>
      </trkpt>
      <trkpt lat="43.3172" lon="-1.9861977">
        <time>2022-07-02T08:55:32Z</time>
      </trkpt>
      <trkpt lat="43.317257" lon="-1.9861404">
        <time>2022-07-02T08:55:34Z</time>
      </trkpt>
      <trkpt lat="43.317314" lon="-1.9860771">
        <time>2022-07-02T08:55:36Z</time>
      </trkpt>
      <trkpt lat="43.31737" lon="-1.986016">
        <time>2022-07-02T08:55:38Z</time>
      </trkpt>
      <trkpt lat="43.31743" lon="-1.9859581">
        <time>2022-07-02T08:55:40Z</time>
      </trkpt>
      <trkpt lat="43.317486" lon="-1.985898">
        <time>2022-07-02T08:55:42Z</time>
      </trkpt>
      <trkpt lat="43.317543" lon="-1.9858354">
        <time>2022-07-02T08:55:44Z</time>
      </trkpt>
      <trkpt lat="43.317604" lon="-1.9857727">
        <time>2022-07-02T08:55:46Z</time>
      </trkpt>
      <trkpt lat="43.317665" lon="-1.9857128">
        <time>2022-07-02T08:55:48Z</time>
      </trkpt>
      <trkpt lat="43.317726" lon="-1.9856547">
        <time>2022-07-02T08:55:50Z</time>
      </trkpt>
      <trkpt lat="43.317787" lon="-1.9855953">
        <time>2022-07-02T08:55:52Z</time>
      </trkpt>
      <trkpt lat="43.31785" lon="-1.9855407">
        <time>2022-07-02T08:55:54Z</time>
      </trkpt>
      <trkpt lat="43.317913" lon="-1.9854908">
        <time>2022-07-02T08:55:56Z</time>
      </trkpt>
      <trkpt lat="43.317974" lon="-1.9854417">
        <time>2022-07-02T08:55:58Z</time>
      </trkpt>
      <trkpt lat="43.31804" lon="-1.9853901">
        <time>2022-07-02T08:56:00Z</time>
      </trkpt>
      <trkpt lat="43.318104" lon="-1.9853364">
        <time>2022-07-02T08:56:02Z</time>
      </trkpt>
      <trkpt lat="43.318165" lon="-1.9852844">
        <time>2022-07-02T08:56:04Z</time>
      </trkpt>
      <trkpt lat="43.31823" lon="-1.9852341">
        <time>2022-07-02T08:56:06Z</time>
      </trkpt>
      <trkpt lat="43.31829" lon="-1.9851835">
        <time>2022-07-02T08:56:08Z</time>
      </trkpt>
      <trkpt lat="43.31836" lon="-1.9851388">
        <time>2022-07-02T08:56:10Z</time>
      </trkpt>
      <trkpt lat="43.318424" lon="-1.9850957">
        <time>2022-07-02T08:56:12Z</time>
      </trkpt>
      <trkpt lat="43.318485" lon="-1.9850495">
        <time>2022-07-02T08:56:14Z</time>
      </trkpt>
      <trkpt lat="43.31855" lon="-1.9850078">
        <time>2022-07-02T08:56:16Z</time>
      </trkpt>
      <trkpt lat="43.31861" lon="-1.9849588">
        <time>2022-07-02T08:56:18Z</time>
      </trkpt>
      <trkpt lat="43.318665" lon="-1.9848964">
        <time>2022-07-02T08:56:20Z</time>
      </trkpt>
      <trkpt lat="43.318707" lon="-1.9848244">
        <time>2022-07-02T08:56:22Z</time>
      </trkpt>
      <trkpt lat="43.318745" lon="-1.9847485">
        <time>2022-07-02T08:56:24Z</time>
      </trkpt>
      <trkpt lat="43.318783" lon="-1.9846715">
        <time>2022-07-02T08:56:26Z</time>
      </trkpt>
      <trkpt lat="43.318817" lon="-1.9845945">
        <time>2022-07-02T08:56:28Z</time>
      </trkpt>
      <trkpt lat="43.318855" lon="-1.9845215">
        <time>2022-07-02T08:56:30Z</time>
      </trkpt>
      <trkpt lat="43.318874" lon="-1.9844462">
        <time>2022-07-02T08:56:32Z</time>
      </trkpt>
      <trkpt lat="43.318882" lon="-1.9843658">
        <time>2022-07-02T08:56:34Z</time>
      </trkpt>
      <trkpt lat="43.3189" lon="-1.9842827">
        <time>2022-07-02T08:56:36Z</time>
      </trkpt>
      <trkpt lat="43.318924" lon="-1.9841985">
        <time>2022-07-02T08:56:38Z</time>
      </trkpt>
      <trkpt lat="43.31895" lon="-1.9841151">
        <time>2022-07-02T08:56:40Z</time>
      </trkpt>
      <trkpt lat="43.31897" lon="-1.9840524">
        <time>2022-07-02T08:56:42Z</time>
      </trkpt>
      <trkpt lat="43.318985" lon="-1.9839998">
        <time>2022-07-02T08:56:45Z</time>
      </trkpt>
      <trkpt lat="43.31894" lon="-1.9839178">
        <time>2022-07-02T08:56:52Z</time>
      </trkpt>
      <trkpt lat="43.31889" lon="-1.9838705">
        <time>2022-07-02T08:56:55Z</time>
      </trkpt>
      <trkpt lat="43.318886" lon="-1.9837765">
        <time>2022-07-02T08:56:59Z</time>
      </trkpt>
      <trkpt lat="43.318916" lon="-1.9836801">
        <time>2022-07-02T08:57:02Z</time>
      </trkpt>
      <trkpt lat="43.318943" lon="-1.9836085">
        <time>2022-07-02T08:57:04Z</time>
      </trkpt>
      <trkpt lat="43.31897" lon="-1.9835309">
        <time>2022-07-02T08:57:06Z</time>
      </trkpt>
      <trkpt lat="43.319004" lon="-1.9834535">
        <time>2022-07-02T08:57:08Z</time>
      </trkpt>
      <trkpt lat="43.319035" lon="-1.9833854">
        <time>2022-07-02T08:57:10Z</time>
      </trkpt>
      <trkpt lat="43.31905" lon="-1.9833398">
        <time>2022-07-02T08:57:12Z</time>
      </trkpt>
      <trkpt lat="43.319084" lon="-1.9832605">
        <time>2022-07-02T08:57:16Z</time>
      </trkpt>
      <trkpt lat="43.319122" lon="-1.9831722">
        <time>2022-07-02T08:57:19Z</time>
      </trkpt>
      <trkpt lat="43.319153" lon="-1.9831011">
        <time>2022-07-02T08:57:21Z</time>
      </trkpt>
      <trkpt lat="43.319183" lon="-1.9830178">
        <time>2022-07-02T08:57:23Z</time>
      </trkpt>
      <trkpt lat="43.319218" lon="-1.9829262">
        <time>2022-07-02T08:57:25Z</time>
      </trkpt>
      <trkpt lat="43.319252" lon="-1.9828342">
        <time>2022-07-02T08:57:27Z</time>
      </trkpt>
      <trkpt lat="43.31929" lon="-1.9827455">
        <time>2022-07-02T08:57:29Z</time>
      </trkpt>
      <trkpt lat="43.319317" lon="-1.9826742">
        <time>2022-07-02T08:57:31Z</time>
      </trkpt>
      <trkpt lat="43.319336" lon="-1.9826258">
        <time>2022-07-02T08:57:36Z</time>
      </trkpt>
      <trkpt lat="43.31941" lon="-1.9825115">
        <time>2022-07-02T08:57:50Z</time>
      </trkpt>
      <trkpt lat="43.31945" lon="-1.9824076">
        <time>2022-07-02T08:57:53Z</time>
      </trkpt>
      <trkpt lat="43.319485" lon="-1.9823289">
        <time>2022-07-02T08:57:55Z</time>
      </trkpt>
      <trkpt lat="43.319523" lon="-1.9822398">
        <time>2022-07-02T08:57:57Z</time>
      </trkpt>
      <trkpt lat="43.31956" lon="-1.9821455">
        <time>2022-07-02T08:57:59Z</time>
      </trkpt>
      <trkpt lat="43.319603" lon="-1.9820429">
        <time>2022-07-02T08:58:01Z</time>
      </trkpt>
      <trkpt lat="43.319645" lon="-1.9819483">
        <time>2022-07-02T08:58:03Z</time>
      </trkpt>
      <trkpt lat="43.31969" lon="-1.9818506">
        <time>2022-07-02T08:58:05Z</time>
      </trkpt>
      <trkpt lat="43.31973" lon="-1.9817549">
        <time>2022-07-02T08:58:07Z</time>
      </trkpt>
      <trkpt lat="43.31977" lon="-1.9816502">
        <time>2022-07-02T08:58:09Z</time>
      </trkpt>
      <trkpt lat="43.319805" lon="-1.9815439">
        <time>2022-07-02T08:58:11Z</time>
      </trkpt>
      <trkpt lat="43.319843" lon="-1.981437">
        <time>2022-07-02T08:58:13Z</time>
      </trkpt>
      <trkpt lat="43.31988" lon="-1.9813253">
        <time>2022-07-02T08:58:15Z</time>
      </trkpt>
      <trkpt lat="43.319916" lon="-1.9812169">
        <time>2022-07-02T08:58:17Z</time>
      </trkpt>
      <trkpt lat="43.319954" lon="-1.9811286">
        <time>2022-07-02T08:58:19Z</time>
      </trkpt>
      <trkpt lat="43.31998" lon="-1.981071">
        <time>2022-07-02T08:58:21Z</time>
      </trkpt>
      <trkpt lat="43.320007" lon="-1.9810286">
        <time>2022-07-02T08:58:26Z</time>
      </trkpt>
      <trkpt lat="43.32008" lon="-1.9809417">
        <time>2022-07-02T08:59:06Z</time>
      </trkpt>
      <trkpt lat="43.320114" lon="-1.9808656">
        <time>2022-07-02T08:59:08Z</time>
      </trkpt>
      <trkpt lat="43.32014" lon="-1.980775">
        <time>2022-07-02T08:59:10Z</time>
      </trkpt>
      <trkpt lat="43.320175" lon="-1.98068">
        <time>2022-07-02T08:59:12Z</time>
      </trkpt>
      <trkpt lat="43.320206" lon="-1.9805856">
        <time>2022-07-02T08:59:14Z</time>
      </trkpt>
      <trkpt lat="43.32024" lon="-1.980493">
        <time>2022-07-02T08:59:16Z</time>
      </trkpt>
      <trkpt lat="43.32027" lon="-1.9803993">
        <time>2022-07-02T08:59:18Z</time>
      </trkpt>
      <trkpt lat="43.320305" lon="-1.980297">
        <time>2022-07-02T08:59:20Z</time>
      </trkpt>
      <trkpt lat="43.32033" lon="-1.9802003">
        <time>2022-07-02T08:59:22Z</time>
      </trkpt>
      <trkpt lat="43.320366" lon="-1.9801064">
        <time>2022-07-02T08:59:24Z</time>
      </trkpt>
      <trkpt lat="43.320396" lon="-1.9800119">
        <time>2022-07-02T08:59:26Z</time>
      </trkpt>
      <trkpt lat="43.320435" lon="-1.9799206">
        <time>2022-07-02T08:59:28Z</time>
      </trkpt>
      <trkpt lat="43.32047" lon="-1.9798306">
        <time>2022-07-02T08:59:30Z</time>
      </trkpt>
      <trkpt lat="43.320503" lon="-1.979741">
        <time>2022-07-02T08:59:32Z</time>
      </trkpt>
      <trkpt lat="43.32053" lon="-1.979651">
        <time>2022-07-02T08:59:34Z</time>
      </trkpt>
      <trkpt lat="43.32055" lon="-1.9795734">
        <time>2022-07-02T08:59:36Z</time>
      </trkpt>
      <trkpt lat="43.32056" lon="-1.9795283">
        <time>2022-07-02T08:59:38Z</time>
      </trkpt>
      <trkpt lat="43.32057" lon="-1.9794014">
        <time>2022-07-02T09:00:33Z</time>
      </trkpt>
      <trkpt lat="43.3206" lon="-1.9793026">
        <time>2022-07-02T09:00:36Z</time>
      </trkpt>
      <trkpt lat="43.320618" lon="-1.9792273">
        <time>2022-07-02T09:00:38Z</time>
      </trkpt>
      <trkpt lat="43.32064" lon="-1.9791453">
        <time>2022-07-02T09:00:40Z</time>
      </trkpt>
      <trkpt lat="43.320667" lon="-1.9790564">
        <time>2022-07-02T09:00:42Z</time>
      </trkpt>
      <trkpt lat="43.320694" lon="-1.9789634">
        <time>2022-07-02T09:00:44Z</time>
      </trkpt>
      <trkpt lat="43.320717" lon="-1.9788667">
        <time>2022-07-02T09:00:46Z</time>
      </trkpt>
      <trkpt lat="43.32074" lon="-1.978773">
        <time>2022-07-02T09:00:48Z</time>
      </trkpt>
      <trkpt lat="43.320763" lon="-1.9786843">
        <time>2022-07-02T09:00:50Z</time>
      </trkpt>
      <trkpt lat="43.32079" lon="-1.9786013">
        <time>2022-07-02T09:00:52Z</time>
      </trkpt>
      <trkpt lat="43.320816" lon="-1.9785221">
        <time>2022-07-02T09:00:54Z</time>
      </trkpt>
      <trkpt lat="43.320847" lon="-1.978449">
        <time>2022-07-02T09:00:56Z</time>
      </trkpt>
      <trkpt lat="43.32089" lon="-1.9783787">
        <time>2022-07-02T09:00:58Z</time>
      </trkpt>
      <trkpt lat="43.32094" lon="-1.9783103">
        <time>2022-07-02T09:01:00Z</time>
      </trkpt>
      <trkpt lat="43.32099" lon="-1.9782354">
        <time>2022-07-02T09:01:02Z</time>
      </trkpt>
      <trkpt lat="43.32104" lon="-1.9781547">
        <time>2022-07-02T09:01:04Z</time>
      </trkpt>
      <trkpt lat="43.321083" lon="-1.978073">
        <time>2022-07-02T09:01:06Z</time>
      </trkpt>
      <trkpt lat="43.32112" lon="-1.9779904">
        <time>2022-07-02T09:01:08Z</time>
      </trkpt>
      <trkpt lat="43.32116" lon="-1.9779058">
        <time>2022-07-02T09:01:10Z</time>
      </trkpt>
      <trkpt lat="43.321194" lon="-1.9778247">
        <time>2022-07-02T09:01:12Z</time>
      </trkpt>
      <trkpt lat="43.32122" lon="-1.9777408">
        <time>2022-07-02T09:01:14Z</time>
      </trkpt>
      <trkpt lat="43.32122" lon="-1.9776587">
        <time>2022-07-02T09:01:16Z</time>
      </trkpt>
      <trkpt lat="43.321194" lon="-1.9775951">
        <time>2022-07-02T09:01:18Z</time>
      </trkpt>
      <trkpt lat="43.321148" lon="-1.977522">
        <time>2022-07-02T09:01:21Z</time>
      </trkpt>
      <trkpt lat="43.321133" lon="-1.9774487">
        <time>2022-07-02T09:01:24Z</time>
      </trkpt>
      <trkpt lat="43.321144" lon="-1.9773624">
        <time>2022-07-02T09:01:27Z</time>
      </trkpt>
      <trkpt lat="43.321163" lon="-1.9772774">
        <time>2022-07-02T09:01:30Z</time>
      </trkpt>
      <trkpt lat="43.321198" lon="-1.9771874">
        <time>2022-07-02T09:01:33Z</time>
      </trkpt>
      <trkpt lat="43.32123" lon="-1.9771214">
        <time>2022-07-02T09:01:36Z</time>
      </trkpt>
      <trkpt lat="43.32126" lon="-1.9770501">
        <time>2022-07-02T09:01:40Z</time>
      </trkpt>
      <trkpt lat="43.321278" lon="-1.9769791">
        <time>2022-07-02T09:01:44Z</time>
      </trkpt>
      <trkpt lat="43.321346" lon="-1.9769677">
        <time>2022-07-02T09:01:49Z</time>
      </trkpt>
      <trkpt lat="43.32141" lon="-1.9769144">
        <time>2022-07-02T09:01:52Z</time>
      </trkpt>
      <trkpt lat="43.321445" lon="-1.9768561">
        <time>2022-07-02T09:01:54Z</time>
      </trkpt>
      <trkpt lat="43.321476" lon="-1.9767821">
        <time>2022-07-02T09:01:56Z</time>
      </trkpt>
      <trkpt lat="43.321507" lon="-1.9767061">
        <time>2022-07-02T09:01:58Z</time>
      </trkpt>
      <trkpt lat="43.321545" lon="-1.9766308">
        <time>2022-07-02T09:02:00Z</time>
      </trkpt>
      <trkpt lat="43.32158" lon="-1.9765505">
        <time>2022-07-02T09:02:02Z</time>
      </trkpt>
      <trkpt lat="43.321613" lon="-1.9764608">
        <time>2022-07-02T09:02:04Z</time>
      </trkpt>
      <trkpt lat="43.321644" lon="-1.9763575">
        <time>2022-07-02T09:02:06Z</time>
      </trkpt>
      <trkpt lat="43.32167" lon="-1.9762561">
        <time>2022-07-02T09:02:08Z</time>
      </trkpt>
      <trkpt lat="43.321697" lon="-1.9761451">
        <time>2022-07-02T09:02:10Z</time>
      </trkpt>
      <trkpt lat="43.321728" lon="-1.9760361">
        <time>2022-07-02T09:02:12Z</time>
      </trkpt>
      <trkpt lat="43.321766" lon="-1.9759132">
        <time>2022-07-02T09:02:14Z</time>
      </trkpt>
      <trkpt lat="43.321785" lon="-1.9758531">
        <time>2022-07-02T09:02:15Z</time>
      </trkpt>
      <trkpt lat="43.321823" lon="-1.9757274">
        <time>2022-07-02T09:02:17Z</time>
      </trkpt>
      <trkpt lat="43.321846" lon="-1.9756628">
        <time>2022-07-02T09:02:18Z</time>
      </trkpt>
      <trkpt lat="43.321865" lon="-1.9755968">
        <time>2022-07-02T09:02:19Z</time>
      </trkpt>
      <trkpt lat="43.321884" lon="-1.9755298">
        <time>2022-07-02T09:02:20Z</time>
      </trkpt>
      <trkpt lat="43.32192" lon="-1.9753975">
        <time>2022-07-02T09:02:22Z</time>
      </trkpt>
      <trkpt lat="43.32194" lon="-1.9753312">
        <time>2022-07-02T09:02:23Z</time>
      </trkpt>
      <trkpt lat="43.32196" lon="-1.9752625">
        <time>2022-07-02T09:02:24Z</time>
      </trkpt>
      <trkpt lat="43.321976" lon="-1.9751928">
        <time>2022-07-02T09:02:25Z</time>
      </trkpt>
      <trkpt lat="43.32199" lon="-1.9751238">
        <time>2022-07-02T09:02:26Z</time>
      </trkpt>
      <trkpt lat="43.32204" lon="-1.9749968">
        <time>2022-07-02T09:02:28Z</time>
      </trkpt>
      <trkpt lat="43.32207" lon="-1.9749389">
        <time>2022-07-02T09:02:29Z</time>
      </trkpt>
      <trkpt lat="43.322098" lon="-1.9748788">
        <time>2022-07-02T09:02:30Z</time>
      </trkpt>
      <trkpt lat="43.322117" lon="-1.9748181">
        <time>2022-07-02T09:02:31Z</time>
      </trkpt>
      <trkpt lat="43.322132" lon="-1.9747068">
        <time>2022-07-02T09:02:33Z</time>
      </trkpt>
      <trkpt lat="43.322155" lon="-1.9745514">
        <time>2022-07-02T09:02:36Z</time>
      </trkpt>
      <trkpt lat="43.322174" lon="-1.9744512">
        <time>2022-07-02T09:02:38Z</time>
      </trkpt>
      <trkpt lat="43.322193" lon="-1.9743478">
        <time>2022-07-02T09:02:40Z</time>
      </trkpt>
      <trkpt lat="43.32221" lon="-1.9742422">
        <time>2022-07-02T09:02:42Z</time>
      </trkpt>
      <trkpt lat="43.322224" lon="-1.9741322">
        <time>2022-07-02T09:02:44Z</time>
      </trkpt>
      <trkpt lat="43.322243" lon="-1.9740162">
        <time>2022-07-02T09:02:46Z</time>
      </trkpt>
      <trkpt lat="43.322254" lon="-1.9738978">
        <time>2022-07-02T09:02:48Z</time>
      </trkpt>
      <trkpt lat="43.322273" lon="-1.9737779">
        <time>2022-07-02T09:02:50Z</time>
      </trkpt>
      <trkpt lat="43.322308" lon="-1.9736605">
        <time>2022-07-02T09:02:52Z</time>
      </trkpt>
      <trkpt lat="43.322342" lon="-1.9735495">
        <time>2022-07-02T09:02:54Z</time>
      </trkpt>
      <trkpt lat="43.32237" lon="-1.9734945">
        <time>2022-07-02T09:02:55Z</time>
      </trkpt>
      <trkpt lat="43.32241" lon="-1.9733825">
        <time>2022-07-02T09:02:57Z</time>
      </trkpt>
      <trkpt lat="43.322433" lon="-1.9732596">
        <time>2022-07-02T09:02:59Z</time>
      </trkpt>
      <trkpt lat="43.32244" lon="-1.9731292">
        <time>2022-07-02T09:03:01Z</time>
      </trkpt>
      <trkpt lat="43.322445" lon="-1.9729968">
        <time>2022-07-02T09:03:03Z</time>
      </trkpt>
      <trkpt lat="43.32245" lon="-1.9729302">
        <time>2022-07-02T09:03:04Z</time>
      </trkpt>
      <trkpt lat="43.322456" lon="-1.9727958">
        <time>2022-07-02T09:03:06Z</time>
      </trkpt>
      <trkpt lat="43.322456" lon="-1.9727329">
        <time>2022-07-02T09:03:07Z</time>
      </trkpt>
      <trkpt lat="43.32245" lon="-1.9725928">
        <time>2022-07-02T09:03:09Z</time>
      </trkpt>
      <trkpt lat="43.322437" lon="-1.9724566">
        <time>2022-07-02T09:03:11Z</time>
      </trkpt>
      <trkpt lat="43.322433" lon="-1.9723896">
        <time>2022-07-02T09:03:12Z</time>
      </trkpt>
      <trkpt lat="43.322426" lon="-1.9722586">
        <time>2022-07-02T09:03:14Z</time>
      </trkpt>
      <trkpt lat="43.322422" lon="-1.9721946">
        <time>2022-07-02T09:03:15Z</time>
      </trkpt>
      <trkpt lat="43.32241" lon="-1.9720722">
        <time>2022-07-02T09:03:17Z</time>
      </trkpt>
      <trkpt lat="43.322407" lon="-1.9719585">
        <time>2022-07-02T09:03:19Z</time>
      </trkpt>
      <trkpt lat="43.322414" lon="-1.9718568">
        <time>2022-07-02T09:03:21Z</time>
      </trkpt>
      <trkpt lat="43.32243" lon="-1.9717762">
        <time>2022-07-02T09:03:23Z</time>
      </trkpt>
      <trkpt lat="43.322445" lon="-1.9717039">
        <time>2022-07-02T09:03:25Z</time>
      </trkpt>
      <trkpt lat="43.322453" lon="-1.9716479">
        <time>2022-07-02T09:03:27Z</time>
      </trkpt>
      <trkpt lat="43.322445" lon="-1.9714446">
        <time>2022-07-02T09:04:27Z</time>
      </trkpt>
      <trkpt lat="43.322437" lon="-1.971376">
        <time>2022-07-02T09:04:29Z</time>
      </trkpt>
      <trkpt lat="43.32245" lon="-1.971291">
        <time>2022-07-02T09:04:32Z</time>
      </trkpt>
      <trkpt lat="43.32245" lon="-1.9711792">
        <time>2022-07-02T09:04:37Z</time>
      </trkpt>
      <trkpt lat="43.32244" lon="-1.9710916">
        <time>2022-07-02T09:04:40Z</time>
      </trkpt>
      <trkpt lat="43.32243" lon="-1.9710276">
        <time>2022-07-02T09:04:42Z</time>
      </trkpt>
      <trkpt lat="43.322403" lon="-1.9709356">
        <time>2022-07-02T09:04:45Z</time>
      </trkpt>
      <trkpt lat="43.32237" lon="-1.9708436">
        <time>2022-07-02T09:04:48Z</time>
      </trkpt>
      <trkpt lat="43.322353" lon="-1.9707736">
        <time>2022-07-02T09:04:50Z</time>
      </trkpt>
      <trkpt lat="43.322346" lon="-1.9706943">
        <time>2022-07-02T09:04:52Z</time>
      </trkpt>
      <trkpt lat="43.32234" lon="-1.9706153">
        <time>2022-07-02T09:04:54Z</time>
      </trkpt>
      <trkpt lat="43.322334" lon="-1.9705232">
        <time>2022-07-02T09:04:56Z</time>
      </trkpt>
      <trkpt lat="43.322334" lon="-1.9704316">
        <time>2022-07-02T09:04:58Z</time>
      </trkpt>
      <trkpt lat="43.322327" lon="-1.9703443">
        <time>2022-07-02T09:05:00Z</time>
      </trkpt>
      <trkpt lat="43.322323" lon="-1.970259">
        <time>2022-07-02T09:05:02Z</time>
      </trkpt>
      <trkpt lat="43.322327" lon="-1.9701673">
        <time>2022-07-02T09:05:04Z</time>
      </trkpt>
      <trkpt lat="43.322323" lon="-1.9700669">
        <time>2022-07-02T09:05:06Z</time>
      </trkpt>
      <trkpt lat="43.32232" lon="-1.9699593">
        <time>2022-07-02T09:05:08Z</time>
      </trkpt>
      <trkpt lat="43.322308" lon="-1.9698586">
        <time>2022-07-02T09:05:10Z</time>
      </trkpt>
      <trkpt lat="43.3223" lon="-1.9697566">
        <time>2022-07-02T09:05:12Z</time>
      </trkpt>
      <trkpt lat="43.3223" lon="-1.9696506">
        <time>2022-07-02T09:05:14Z</time>
      </trkpt>
      <trkpt lat="43.3223" lon="-1.9695396">
        <time>2022-07-02T09:05:16Z</time>
      </trkpt>
      <trkpt lat="43.3223" lon="-1.969419">
        <time>2022-07-02T09:05:18Z</time>
      </trkpt>
      <trkpt lat="43.322296" lon="-1.9692936">
        <time>2022-07-02T09:05:20Z</time>
      </trkpt>
      <trkpt lat="43.322292" lon="-1.9691817">
        <time>2022-07-02T09:05:22Z</time>
      </trkpt>
      <trkpt lat="43.32229" lon="-1.9690733">
        <time>2022-07-02T09:05:24Z</time>
      </trkpt>
      <trkpt lat="43.322277" lon="-1.968969">
        <time>2022-07-02T09:05:26Z</time>
      </trkpt>
      <trkpt lat="43.322266" lon="-1.968867">
        <time>2022-07-02T09:05:28Z</time>
      </trkpt>
      <trkpt lat="43.322258" lon="-1.968764">
        <time>2022-07-02T09:05:30Z</time>
      </trkpt>
      <trkpt lat="43.32225" lon="-1.9686606">
        <time>2022-07-02T09:05:32Z</time>
      </trkpt>
      <trkpt lat="43.32225" lon="-1.9685576">
        <time>2022-07-02T09:05:34Z</time>
      </trkpt>
      <trkpt lat="43.32225" lon="-1.968454">
        <time>2022-07-02T09:05:36Z</time>
      </trkpt>
      <trkpt lat="43.322247" lon="-1.9683579">
        <time>2022-07-02T09:05:38Z</time>
      </trkpt>
      <trkpt lat="43.32224" lon="-1.9682666">
        <time>2022-07-02T09:05:40Z</time>
      </trkpt>
      <trkpt lat="43.322235" lon="-1.9681749">
        <time>2022-07-02T09:05:42Z</time>
      </trkpt>
      <trkpt lat="43.322227" lon="-1.968093">
        <time>2022-07-02T09:05:44Z</time>
      </trkpt>
      <trkpt lat="43.322224" lon="-1.968023">
        <time>2022-07-02T09:05:46Z</time>
      </trkpt>
      <trkpt lat="43.32221" lon="-1.9679526">
        <time>2022-07-02T09:05:49Z</time>
      </trkpt>
      <trkpt lat="43.322174" lon="-1.9679533">
        <time>2022-07-02T09:05:55Z</time>
      </trkpt>
      <trkpt lat="43.322147" lon="-1.9679407">
        <time>2022-07-02T09:07:52Z</time>
      </trkpt>
      <trkpt lat="43.322144" lon="-1.9678397">
        <time>2022-07-02T09:07:56Z</time>
      </trkpt>
      <trkpt lat="43.32215" lon="-1.967742">
        <time>2022-07-02T09:07:59Z</time>
      </trkpt>
      <trkpt lat="43.32215" lon="-1.9676434">
        <time>2022-07-02T09:08:02Z</time>
      </trkpt>
      <trkpt lat="43.32214" lon="-1.9675454">
        <time>2022-07-02T09:08:05Z</time>
      </trkpt>
      <trkpt lat="43.32213" lon="-1.967478">
        <time>2022-07-02T09:08:07Z</time>
      </trkpt>
      <trkpt lat="43.32212" lon="-1.967367">
        <time>2022-07-02T09:08:10Z</time>
      </trkpt>
      <trkpt lat="43.322113" lon="-1.9672906">
        <time>2022-07-02T09:08:12Z</time>
      </trkpt>
      <trkpt lat="43.322105" lon="-1.9672084">
        <time>2022-07-02T09:08:14Z</time>
      </trkpt>
      <trkpt lat="43.322098" lon="-1.967126">
        <time>2022-07-02T09:08:16Z</time>
      </trkpt>
      <trkpt lat="43.322086" lon="-1.967043">
        <time>2022-07-02T09:08:18Z</time>
      </trkpt>
      <trkpt lat="43.32208" lon="-1.9669634">
        <time>2022-07-02T09:08:20Z</time>
      </trkpt>
      <trkpt lat="43.322067" lon="-1.966874">
        <time>2022-07-02T09:08:22Z</time>
      </trkpt>
      <trkpt lat="43.32206" lon="-1.9667927">
        <time>2022-07-02T09:08:24Z</time>
      </trkpt>
      <trkpt lat="43.32206" lon="-1.9667107">
        <time>2022-07-02T09:08:26Z</time>
      </trkpt>
      <trkpt lat="43.322052" lon="-1.966649">
        <time>2022-07-02T09:08:28Z</time>
      </trkpt>
      <trkpt lat="43.32205" lon="-1.9665914">
        <time>2022-07-02T09:08:34Z</time>
      </trkpt>
      <trkpt lat="43.32198" lon="-1.9665087">
        <time>2022-07-02T09:08:42Z</time>
      </trkpt>
      <trkpt lat="43.321953" lon="-1.9664307">
        <time>2022-07-02T09:08:45Z</time>
      </trkpt>
      <trkpt lat="43.321945" lon="-1.9663184">
        <time>2022-07-02T09:08:48Z</time>
      </trkpt>
      <trkpt lat="43.32195" lon="-1.9662278">
        <time>2022-07-02T09:08:50Z</time>
      </trkpt>
      <trkpt lat="43.321953" lon="-1.966124">
        <time>2022-07-02T09:08:52Z</time>
      </trkpt>
      <trkpt lat="43.321953" lon="-1.9660268">
        <time>2022-07-02T09:08:54Z</time>
      </trkpt>
      <trkpt lat="43.32195" lon="-1.9659307">
        <time>2022-07-02T09:08:56Z</time>
      </trkpt>
      <trkpt lat="43.321945" lon="-1.9658338">
        <time>2022-07-02T09:08:58Z</time>
      </trkpt>
      <trkpt lat="43.32194" lon="-1.9657371">
        <time>2022-07-02T09:09:00Z</time>
      </trkpt>
      <trkpt lat="43.32194" lon="-1.9656454">
        <time>2022-07-02T09:09:02Z</time>
      </trkpt>
      <trkpt lat="43.321934" lon="-1.9655495">
        <time>2022-07-02T09:09:04Z</time>
      </trkpt>
      <trkpt lat="43.32193" lon="-1.9654508">
        <time>2022-07-02T09:09:06Z</time>
      </trkpt>
      <trkpt lat="43.321922" lon="-1.965347">
        <time>2022-07-02T09:09:08Z</time>
      </trkpt>
      <trkpt lat="43.32192" lon="-1.9652407">
        <time>2022-07-02T09:09:10Z</time>
      </trkpt>
      <trkpt lat="43.321915" lon="-1.965141">
        <time>2022-07-02T09:09:12Z</time>
      </trkpt>
      <trkpt lat="43.321915" lon="-1.9650408">
        <time>2022-07-02T09:09:14Z</time>
      </trkpt>
      <trkpt lat="43.321907" lon="-1.9649374">
        <time>2022-07-02T09:09:16Z</time>
      </trkpt>
      <trkpt lat="43.321903" lon="-1.9648291">
        <time>2022-07-02T09:09:18Z</time>
      </trkpt>
      <trkpt lat="43.321896" lon="-1.9647238">
        <time>2022-07-02T09:09:20Z</time>
      </trkpt>
      <trkpt lat="43.321888" lon="-1.9646155">
        <time>2022-07-02T09:09:22Z</time>
      </trkpt>
      <trkpt lat="43.321888" lon="-1.9645028">
        <time>2022-07-02T09:09:24Z</time>
      </trkpt>
      <trkpt lat="43.321884" lon="-1.9643948">
        <time>2022-07-02T09:09:26Z</time>
      </trkpt>
      <trkpt lat="43.321877" lon="-1.9642828">
        <time>2022-07-02T09:09:28Z</time>
      </trkpt>
      <trkpt lat="43.32187" lon="-1.9641651">
        <time>2022-07-02T09:09:30Z</time>
      </trkpt>
      <trkpt lat="43.32186" lon="-1.9640528">
        <time>2022-07-02T09:09:32Z</time>
      </trkpt>
      <trkpt lat="43.321857" lon="-1.9639388">
        <time>2022-07-02T09:09:34Z</time>
      </trkpt>
      <trkpt lat="43.321854" lon="-1.9638282">
        <time>2022-07-02T09:09:36Z</time>
      </trkpt>
      <trkpt lat="43.321846" lon="-1.9637178">
        <time>2022-07-02T09:09:38Z</time>
      </trkpt>
      <trkpt lat="43.32184" lon="-1.9636089">
        <time>2022-07-02T09:09:40Z</time>
      </trkpt>
      <trkpt lat="43.321835" lon="-1.9635055">
        <time>2022-07-02T09:09:42Z</time>
      </trkpt>
      <trkpt lat="43.321835" lon="-1.9634092">
        <time>2022-07-02T09:09:44Z</time>
      </trkpt>
      <trkpt lat="43.32183" lon="-1.9633175">
        <time>2022-07-02T09:09:46Z</time>
      </trkpt>
      <trkpt lat="43.32183" lon="-1.9632268">
        <time>2022-07-02T09:09:48Z</time>
      </trkpt>
      <trkpt lat="43.321827" lon="-1.9631292">
        <time>2022-07-02T09:09:50Z</time>
      </trkpt>
      <trkpt lat="43.321823" lon="-1.9630325">
        <time>2022-07-02T09:09:52Z</time>
      </trkpt>
      <trkpt lat="43.321823" lon="-1.9629378">
        <time>2022-07-02T09:09:54Z</time>
      </trkpt>
      <trkpt lat="43.321823" lon="-1.9628382">
        <time>2022-07-02T09:09:56Z</time>
      </trkpt>
      <trkpt lat="43.32182" lon="-1.9627528">
        <time>2022-07-02T09:09:58Z</time>
      </trkpt>
      <trkpt lat="43.32182" lon="-1.9626665">
        <time>2022-07-02T09:10:00Z</time>
      </trkpt>
      <trkpt lat="43.321815" lon="-1.9625878">
        <time>2022-07-02T09:10:02Z</time>
      </trkpt>
      <trkpt lat="43.32181" lon="-1.9625136">
        <time>2022-07-02T09:10:04Z</time>
      </trkpt>
      <trkpt lat="43.321808" lon="-1.9624466">
        <time>2022-07-02T09:10:06Z</time>
      </trkpt>
      <trkpt lat="43.321804" lon="-1.9623412">
        <time>2022-07-02T09:10:09Z</time>
      </trkpt>
      <trkpt lat="43.321796" lon="-1.9622658">
        <time>2022-07-02T09:10:11Z</time>
      </trkpt>
      <trkpt lat="43.321785" lon="-1.9621912">
        <time>2022-07-02T09:10:13Z</time>
      </trkpt>
      <trkpt lat="43.321777" lon="-1.9621099">
        <time>2022-07-02T09:10:15Z</time>
      </trkpt>
      <trkpt lat="43.32177" lon="-1.9620292">
        <time>2022-07-02T09:10:17Z</time>
      </trkpt>
      <trkpt lat="43.32176" lon="-1.9619453">
        <time>2022-07-02T09:10:19Z</time>
      </trkpt>
      <trkpt lat="43.321743" lon="-1.9618683">
        <time>2022-07-02T09:10:21Z</time>
      </trkpt>
      <trkpt lat="43.321716" lon="-1.9617932">
        <time>2022-07-02T09:10:23Z</time>
      </trkpt>
      <trkpt lat="43.321693" lon="-1.961721">
        <time>2022-07-02T09:10:25Z</time>
      </trkpt>
      <trkpt lat="43.32167" lon="-1.9616526">
        <time>2022-07-02T09:10:27Z</time>
      </trkpt>
      <trkpt lat="43.32164" lon="-1.9615979">
        <time>2022-07-02T09:10:29Z</time>
      </trkpt>
      <trkpt lat="43.321587" lon="-1.9615486">
        <time>2022-07-02T09:10:32Z</time>
      </trkpt>
      <trkpt lat="43.321518" lon="-1.9615386">
        <time>2022-07-02T09:10:35Z</time>
      </trkpt>
      <trkpt lat="43.321457" lon="-1.9615285">
        <time>2022-07-02T09:10:38Z</time>
      </trkpt>
      <trkpt lat="43.321404" lon="-1.961486">
        <time>2022-07-02T09:10:42Z</time>
      </trkpt>
      <trkpt lat="43.321346" lon="-1.9614326">
        <time>2022-07-02T09:10:45Z</time>
      </trkpt>
      <trkpt lat="43.3213" lon="-1.9614023">
        <time>2022-07-02T09:10:49Z</time>
      </trkpt>
      <trkpt lat="43.32129" lon="-1.9613307">
        <time>2022-07-02T09:11:34Z</time>
      </trkpt>
      <trkpt lat="43.321278" lon="-1.9612356">
        <time>2022-07-02T09:11:37Z</time>
      </trkpt>
      <trkpt lat="43.32127" lon="-1.9611616">
        <time>2022-07-02T09:11:39Z</time>
      </trkpt>
      <trkpt lat="43.321262" lon="-1.9610859">
        <time>2022-07-02T09:11:41Z</time>
      </trkpt>
      <trkpt lat="43.32125" lon="-1.9610133">
        <time>2022-07-02T09:11:43Z</time>
      </trkpt>
      <trkpt lat="43.321236" lon="-1.9609419">
        <time>2022-07-02T09:11:45Z</time>
      </trkpt>
      <trkpt lat="43.321217" lon="-1.9608786">
        <time>2022-07-02T09:11:47Z</time>
      </trkpt>
      <trkpt lat="43.321194" lon="-1.9607849">
        <time>2022-07-02T09:11:50Z</time>
      </trkpt>
      <trkpt lat="43.321198" lon="-1.9607173">
        <time>2022-07-02T09:11:52Z</time>
      </trkpt>
      <trkpt lat="43.32121" lon="-1.9606086">
        <time>2022-07-02T09:11:55Z</time>
      </trkpt>
      <trkpt lat="43.321213" lon="-1.9605306">
        <time>2022-07-02T09:11:57Z</time>
      </trkpt>
      <trkpt lat="43.321213" lon="-1.960457">
        <time>2022-07-02T09:11:59Z</time>
      </trkpt>
      <trkpt lat="43.321217" lon="-1.9603764">
        <time>2022-07-02T09:12:01Z</time>
      </trkpt>
      <trkpt lat="43.32121" lon="-1.9602933">
        <time>2022-07-02T09:12:03Z</time>
      </trkpt>
      <trkpt lat="43.321198" lon="-1.9602083">
        <time>2022-07-02T09:12:05Z</time>
      </trkpt>
      <trkpt lat="43.32119" lon="-1.9601183">
        <time>2022-07-02T09:12:07Z</time>
      </trkpt>
      <trkpt lat="43.321175" lon="-1.9600363">
        <time>2022-07-02T09:12:09Z</time>
      </trkpt>
      <trkpt lat="43.32115" lon="-1.9599643">
        <time>2022-07-02T09:12:11Z</time>
      </trkpt>
      <trkpt lat="43.321106" lon="-1.9599147">
        <time>2022-07-02T09:12:13Z</time>
      </trkpt>
      <trkpt lat="43.321053" lon="-1.9598963">
        <time>2022-07-02T09:12:15Z</time>
      </trkpt>
      <trkpt lat="43.32099" lon="-1.959897">
        <time>2022-07-02T09:12:17Z</time>
      </trkpt>
      <trkpt lat="43.320927" lon="-1.959908">
        <time>2022-07-02T09:12:19Z</time>
      </trkpt>
      <trkpt lat="43.320854" lon="-1.9599243">
        <time>2022-07-02T09:12:21Z</time>
      </trkpt>
      <trkpt lat="43.32078" lon="-1.959947">
        <time>2022-07-02T09:12:23Z</time>
      </trkpt>
      <trkpt lat="43.32071" lon="-1.9599683">
        <time>2022-07-02T09:12:25Z</time>
      </trkpt>
      <trkpt lat="43.320637" lon="-1.9599667">
        <time>2022-07-02T09:12:27Z</time>
      </trkpt>
      <trkpt lat="43.320576" lon="-1.9599266">
        <time>2022-07-02T09:12:29Z</time>
      </trkpt>
      <trkpt lat="43.320526" lon="-1.9598583">
        <time>2022-07-02T09:12:31Z</time>
      </trkpt>
      <trkpt lat="43.320496" lon="-1.959774">
        <time>2022-07-02T09:12:33Z</time>
      </trkpt>
      <trkpt lat="43.320477" lon="-1.959681">
        <time>2022-07-02T09:12:35Z</time>
      </trkpt>
      <trkpt lat="43.32047" lon="-1.9595853">
        <time>2022-07-02T09:12:37Z</time>
      </trkpt>
      <trkpt lat="43.32047" lon="-1.9594877">
        <time>2022-07-02T09:12:39Z</time>
      </trkpt>
      <trkpt lat="43.320465" lon="-1.9593884">
        <time>2022-07-02T09:12:41Z</time>
      </trkpt>
      <trkpt lat="43.320457" lon="-1.9592897">
        <time>2022-07-02T09:12:43Z</time>
      </trkpt>
      <trkpt lat="43.32045" lon="-1.9591924">
        <time>2022-07-02T09:12:45Z</time>
      </trkpt>
      <trkpt lat="43.320446" lon="-1.959093">
        <time>2022-07-02T09:12:47Z</time>
      </trkpt>
      <trkpt lat="43.32044" lon="-1.9589967">
        <time>2022-07-02T09:12:49Z</time>
      </trkpt>
      <trkpt lat="43.32044" lon="-1.9588987">
        <time>2022-07-02T09:12:51Z</time>
      </trkpt>
      <trkpt lat="43.320435" lon="-1.958802">
        <time>2022-07-02T09:12:53Z</time>
      </trkpt>
      <trkpt lat="43.32043" lon="-1.958703">
        <time>2022-07-02T09:12:55Z</time>
      </trkpt>
      <trkpt lat="43.320427" lon="-1.9586043">
        <time>2022-07-02T09:12:57Z</time>
      </trkpt>
      <trkpt lat="43.320423" lon="-1.9585067">
        <time>2022-07-02T09:12:59Z</time>
      </trkpt>
      <trkpt lat="43.32042" lon="-1.9584084">
        <time>2022-07-02T09:13:01Z</time>
      </trkpt>
      <trkpt lat="43.320423" lon="-1.9583148">
        <time>2022-07-02T09:13:03Z</time>
      </trkpt>
      <trkpt lat="43.320423" lon="-1.9582261">
        <time>2022-07-02T09:13:05Z</time>
      </trkpt>
      <trkpt lat="43.320427" lon="-1.9581307">
        <time>2022-07-02T09:13:07Z</time>
      </trkpt>
      <trkpt lat="43.320427" lon="-1.9580398">
        <time>2022-07-02T09:13:09Z</time>
      </trkpt>
      <trkpt lat="43.32043" lon="-1.9579464">
        <time>2022-07-02T09:13:11Z</time>
      </trkpt>
      <trkpt lat="43.32043" lon="-1.9578524">
        <time>2022-07-02T09:13:13Z</time>
      </trkpt>
      <trkpt lat="43.320427" lon="-1.9577594">
        <time>2022-07-02T09:13:15Z</time>
      </trkpt>
      <trkpt lat="43.32042" lon="-1.9576668">
        <time>2022-07-02T09:13:17Z</time>
      </trkpt>
      <trkpt lat="43.320415" lon="-1.9575738">
        <time>2022-07-02T09:13:19Z</time>
      </trkpt>
      <trkpt lat="43.320415" lon="-1.9574817">
        <time>2022-07-02T09:13:21Z</time>
      </trkpt>
      <trkpt lat="43.320415" lon="-1.9573938">
        <time>2022-07-02T09:13:23Z</time>
      </trkpt>
      <trkpt lat="43.32042" lon="-1.9573041">
        <time>2022-07-02T09:13:25Z</time>
      </trkpt>
      <trkpt lat="43.32042" lon="-1.9572151">
        <time>2022-07-02T09:13:27Z</time>
      </trkpt>
      <trkpt lat="43.32042" lon="-1.9571224">
        <time>2022-07-02T09:13:29Z</time>
      </trkpt>
      <trkpt lat="43.32042" lon="-1.9570267">
        <time>2022-07-02T09:13:31Z</time>
      </trkpt>
      <trkpt lat="43.32042" lon="-1.9569328">
        <time>2022-07-02T09:13:33Z</time>
      </trkpt>
      <trkpt lat="43.32042" lon="-1.9568411">
        <time>2022-07-02T09:13:35Z</time>
      </trkpt>
      <trkpt lat="43.32042" lon="-1.9567537">
        <time>2022-07-02T09:13:37Z</time>
      </trkpt>
      <trkpt lat="43.32042" lon="-1.9566615">
        <time>2022-07-02T09:13:39Z</time>
      </trkpt>
      <trkpt lat="43.320415" lon="-1.9565718">
        <time>2022-07-02T09:13:41Z</time>
      </trkpt>
      <trkpt lat="43.320415" lon="-1.9564848">
        <time>2022-07-02T09:13:43Z</time>
      </trkpt>
      <trkpt lat="43.32042" lon="-1.9564002">
        <time>2022-07-02T09:13:45Z</time>
      </trkpt>
      <trkpt lat="43.320427" lon="-1.9562695">
        <time>2022-07-02T09:13:48Z</time>
      </trkpt>
      <trkpt lat="43.32043" lon="-1.9561821">
        <time>2022-07-02T09:13:50Z</time>
      </trkpt>
      <trkpt lat="43.32043" lon="-1.9560988">
        <time>2022-07-02T09:13:52Z</time>
      </trkpt>
      <trkpt lat="43.32043" lon="-1.9560145">
        <time>2022-07-02T09:13:54Z</time>
      </trkpt>
      <trkpt lat="43.320427" lon="-1.9559308">
        <time>2022-07-02T09:13:56Z</time>
      </trkpt>
      <trkpt lat="43.320423" lon="-1.9558498">
        <time>2022-07-02T09:13:58Z</time>
      </trkpt>
      <trkpt lat="43.320423" lon="-1.9557695">
        <time>2022-07-02T09:14:00Z</time>
      </trkpt>
      <trkpt lat="43.320427" lon="-1.9556855">
        <time>2022-07-02T09:14:02Z</time>
      </trkpt>
      <trkpt lat="43.320423" lon="-1.9555938">
        <time>2022-07-02T09:14:04Z</time>
      </trkpt>
      <trkpt lat="43.320423" lon="-1.9555062">
        <time>2022-07-02T09:14:06Z</time>
      </trkpt>
      <trkpt lat="43.32042" lon="-1.9554118">
        <time>2022-07-02T09:14:08Z</time>
      </trkpt>
      <trkpt lat="43.320415" lon="-1.9553171">
        <time>2022-07-02T09:14:10Z</time>
      </trkpt>
      <trkpt lat="43.320408" lon="-1.9552269">
        <time>2022-07-02T09:14:12Z</time>
      </trkpt>
      <trkpt lat="43.3204" lon="-1.9551399">
        <time>2022-07-02T09:14:14Z</time>
      </trkpt>
      <trkpt lat="43.320393" lon="-1.9550542">
        <time>2022-07-02T09:14:16Z</time>
      </trkpt>
      <trkpt lat="43.320393" lon="-1.9549649">
        <time>2022-07-02T09:14:18Z</time>
      </trkpt>
      <trkpt lat="43.320396" lon="-1.9548736">
        <time>2022-07-02T09:14:20Z</time>
      </trkpt>
      <trkpt lat="43.320393" lon="-1.9547799">
        <time>2022-07-02T09:14:22Z</time>
      </trkpt>
      <trkpt lat="43.320385" lon="-1.9546869">
        <time>2022-07-02T09:14:24Z</time>
      </trkpt>
      <trkpt lat="43.32038" lon="-1.9545978">
        <time>2022-07-02T09:14:26Z</time>
      </trkpt>
      <trkpt lat="43.320385" lon="-1.9545089">
        <time>2022-07-02T09:14:28Z</time>
      </trkpt>
      <trkpt lat="43.320393" lon="-1.9544185">
        <time>2022-07-02T09:14:30Z</time>
      </trkpt>
      <trkpt lat="43.320393" lon="-1.9543265">
        <time>2022-07-02T09:14:32Z</time>
      </trkpt>
      <trkpt lat="43.320393" lon="-1.9542332">
        <time>2022-07-02T09:14:34Z</time>
      </trkpt>
      <trkpt lat="43.320393" lon="-1.9541463">
        <time>2022-07-02T09:14:36Z</time>
      </trkpt>
      <trkpt lat="43.320393" lon="-1.9540548">
        <time>2022-07-02T09:14:38Z</time>
      </trkpt>
      <trkpt lat="43.320393" lon="-1.9539592">
        <time>2022-07-02T09:14:40Z</time>
      </trkpt>
      <trkpt lat="43.320385" lon="-1.9538549">
        <time>2022-07-02T09:14:42Z</time>
      </trkpt>
      <trkpt lat="43.320377" lon="-1.9537569">
        <time>2022-07-02T09:14:44Z</time>
      </trkpt>
      <trkpt lat="43.320377" lon="-1.9536606">
        <time>2022-07-02T09:14:46Z</time>
      </trkpt>
      <trkpt lat="43.320377" lon="-1.9535573">
        <time>2022-07-02T09:14:48Z</time>
      </trkpt>
      <trkpt lat="43.32038" lon="-1.9534599">
        <time>2022-07-02T09:14:50Z</time>
      </trkpt>
      <trkpt lat="43.320374" lon="-1.9533763">
        <time>2022-07-02T09:14:52Z</time>
      </trkpt>
      <trkpt lat="43.320362" lon="-1.9532919">
        <time>2022-07-02T09:14:54Z</time>
      </trkpt>
      <trkpt lat="43.320343" lon="-1.9532176">
        <time>2022-07-02T09:14:56Z</time>
      </trkpt>
      <trkpt lat="43.320328" lon="-1.9531276">
        <time>2022-07-02T09:14:58Z</time>
      </trkpt>
      <trkpt lat="43.32032" lon="-1.9530369">
        <time>2022-07-02T09:15:00Z</time>
      </trkpt>
      <trkpt lat="43.320312" lon="-1.952946">
        <time>2022-07-02T09:15:02Z</time>
      </trkpt>
      <trkpt lat="43.32031" lon="-1.9528539">
        <time>2022-07-02T09:15:04Z</time>
      </trkpt>
      <trkpt lat="43.3203" lon="-1.9527613">
        <time>2022-07-02T09:15:06Z</time>
      </trkpt>
      <trkpt lat="43.320293" lon="-1.9526683">
        <time>2022-07-02T09:15:08Z</time>
      </trkpt>
      <trkpt lat="43.320286" lon="-1.952572">
        <time>2022-07-02T09:15:10Z</time>
      </trkpt>
      <trkpt lat="43.32028" lon="-1.9524759">
        <time>2022-07-02T09:15:12Z</time>
      </trkpt>
      <trkpt lat="43.32027" lon="-1.952382">
        <time>2022-07-02T09:15:14Z</time>
      </trkpt>
      <trkpt lat="43.320263" lon="-1.9522876">
        <time>2022-07-02T09:15:16Z</time>
      </trkpt>
      <trkpt lat="43.320255" lon="-1.9521912">
        <time>2022-07-02T09:15:18Z</time>
      </trkpt>
      <trkpt lat="43.320248" lon="-1.9520999">
        <time>2022-07-02T09:15:20Z</time>
      </trkpt>
      <trkpt lat="43.320236" lon="-1.9520099">
        <time>2022-07-02T09:15:22Z</time>
      </trkpt>
      <trkpt lat="43.32023" lon="-1.9519266">
        <time>2022-07-02T09:15:24Z</time>
      </trkpt>
      <trkpt lat="43.320217" lon="-1.9518429">
        <time>2022-07-02T09:15:26Z</time>
      </trkpt>
      <trkpt lat="43.32021" lon="-1.9517612">
        <time>2022-07-02T09:15:28Z</time>
      </trkpt>
      <trkpt lat="43.320198" lon="-1.951679">
        <time>2022-07-02T09:15:30Z</time>
      </trkpt>
      <trkpt lat="43.32019" lon="-1.9515979">
        <time>2022-07-02T09:15:32Z</time>
      </trkpt>
      <trkpt lat="43.320187" lon="-1.9515109">
        <time>2022-07-02T09:15:34Z</time>
      </trkpt>
      <trkpt lat="43.32018" lon="-1.95142">
        <time>2022-07-02T09:15:36Z</time>
      </trkpt>
      <trkpt lat="43.32017" lon="-1.9513323">
        <time>2022-07-02T09:15:38Z</time>
      </trkpt>
      <trkpt lat="43.320156" lon="-1.9512393">
        <time>2022-07-02T09:15:40Z</time>
      </trkpt>
      <trkpt lat="43.320145" lon="-1.9511529">
        <time>2022-07-02T09:15:42Z</time>
      </trkpt>
      <trkpt lat="43.320126" lon="-1.951066">
        <time>2022-07-02T09:15:44Z</time>
      </trkpt>
      <trkpt lat="43.320107" lon="-1.9509803">
        <time>2022-07-02T09:15:46Z</time>
      </trkpt>
      <trkpt lat="43.320087" lon="-1.9508927">
        <time>2022-07-02T09:15:48Z</time>
      </trkpt>
      <trkpt lat="43.32007" lon="-1.9508044">
        <time>2022-07-02T09:15:50Z</time>
      </trkpt>
      <trkpt lat="43.32005" lon="-1.9507166">
        <time>2022-07-02T09:15:52Z</time>
      </trkpt>
      <trkpt lat="43.32002" lon="-1.9505696">
        <time>2022-07-02T09:15:55Z</time>
      </trkpt>
      <trkpt lat="43.32" lon="-1.9504727">
        <time>2022-07-02T09:15:57Z</time>
      </trkpt>
      <trkpt lat="43.319973" lon="-1.9503686">
        <time>2022-07-02T09:15:59Z</time>
      </trkpt>
      <trkpt lat="43.31995" lon="-1.9502634">
        <time>2022-07-02T09:16:01Z</time>
      </trkpt>
      <trkpt lat="43.319923" lon="-1.9501626">
        <time>2022-07-02T09:16:03Z</time>
      </trkpt>
      <trkpt lat="43.319904" lon="-1.9500656">
        <time>2022-07-02T09:16:05Z</time>
      </trkpt>
      <trkpt lat="43.31988" lon="-1.94997">
        <time>2022-07-02T09:16:07Z</time>
      </trkpt>
      <trkpt lat="43.31986" lon="-1.9498854">
        <time>2022-07-02T09:16:09Z</time>
      </trkpt>
      <trkpt lat="43.319828" lon="-1.9498134">
        <time>2022-07-02T09:16:11Z</time>
      </trkpt>
      <trkpt lat="43.3198" lon="-1.9497447">
        <time>2022-07-02T09:16:13Z</time>
      </trkpt>
      <trkpt lat="43.31978" lon="-1.9496593">
        <time>2022-07-02T09:16:15Z</time>
      </trkpt>
      <trkpt lat="43.31976" lon="-1.9495704">
        <time>2022-07-02T09:16:17Z</time>
      </trkpt>
      <trkpt lat="43.31973" lon="-1.9494793">
        <time>2022-07-02T09:16:19Z</time>
      </trkpt>
      <trkpt lat="43.319695" lon="-1.9493843">
        <time>2022-07-02T09:16:21Z</time>
      </trkpt>
      <trkpt lat="43.319653" lon="-1.9492807">
        <time>2022-07-02T09:16:23Z</time>
      </trkpt>
      <trkpt lat="43.319614" lon="-1.949172">
        <time>2022-07-02T09:16:25Z</time>
      </trkpt>
      <trkpt lat="43.31958" lon="-1.949064">
        <time>2022-07-02T09:16:27Z</time>
      </trkpt>
      <trkpt lat="43.319546" lon="-1.9489504">
        <time>2022-07-02T09:16:29Z</time>
      </trkpt>
      <trkpt lat="43.319508" lon="-1.9488411">
        <time>2022-07-02T09:16:31Z</time>
      </trkpt>
      <trkpt lat="43.31947" lon="-1.9487327">
        <time>2022-07-02T09:16:33Z</time>
      </trkpt>
      <trkpt lat="43.319435" lon="-1.9486287">
        <time>2022-07-02T09:16:35Z</time>
      </trkpt>
      <trkpt lat="43.319393" lon="-1.948529">
        <time>2022-07-02T09:16:37Z</time>
      </trkpt>
      <trkpt lat="43.319355" lon="-1.9484304">
        <time>2022-07-02T09:16:39Z</time>
      </trkpt>
      <trkpt lat="43.319313" lon="-1.9483314">
        <time>2022-07-02T09:16:41Z</time>
      </trkpt>
      <trkpt lat="43.31928" lon="-1.9482287">
        <time>2022-07-02T09:16:43Z</time>
      </trkpt>
      <trkpt lat="43.319244" lon="-1.948127">
        <time>2022-07-02T09:16:45Z</time>
      </trkpt>
      <trkpt lat="43.31921" lon="-1.9480301">
        <time>2022-07-02T09:16:47Z</time>
      </trkpt>
      <trkpt lat="43.31917" lon="-1.9479275">
        <time>2022-07-02T09:16:49Z</time>
      </trkpt>
      <trkpt lat="43.31913" lon="-1.9478271">
        <time>2022-07-02T09:16:51Z</time>
      </trkpt>
      <trkpt lat="43.31909" lon="-1.9477241">
        <time>2022-07-02T09:16:53Z</time>
      </trkpt>
      <trkpt lat="43.319054" lon="-1.9476198">
        <time>2022-07-02T09:16:55Z</time>
      </trkpt>
      <trkpt lat="43.319016" lon="-1.9475131">
        <time>2022-07-02T09:16:57Z</time>
      </trkpt>
      <trkpt lat="43.318974" lon="-1.9474075">
        <time>2022-07-02T09:16:59Z</time>
      </trkpt>
      <trkpt lat="43.318935" lon="-1.9473025">
        <time>2022-07-02T09:17:01Z</time>
      </trkpt>
      <trkpt lat="43.318897" lon="-1.9471965">
        <time>2022-07-02T09:17:03Z</time>
      </trkpt>
      <trkpt lat="43.318855" lon="-1.9470918">
        <time>2022-07-02T09:17:05Z</time>
      </trkpt>
      <trkpt lat="43.318813" lon="-1.9469855">
        <time>2022-07-02T09:17:07Z</time>
      </trkpt>
      <trkpt lat="43.318768" lon="-1.9468768">
        <time>2022-07-02T09:17:09Z</time>
      </trkpt>
      <trkpt lat="43.318726" lon="-1.9467665">
        <time>2022-07-02T09:17:11Z</time>
      </trkpt>
      <trkpt lat="43.318687" lon="-1.9466518">
        <time>2022-07-02T09:17:13Z</time>
      </trkpt>
      <trkpt lat="43.31867" lon="-1.9465941">
        <time>2022-07-02T09:17:14Z</time>
      </trkpt>
      <trkpt lat="43.318634" lon="-1.9464831">
        <time>2022-07-02T09:17:16Z</time>
      </trkpt>
      <trkpt lat="43.3186" lon="-1.9463751">
        <time>2022-07-02T09:17:18Z</time>
      </trkpt>
      <trkpt lat="43.318573" lon="-1.9462678">
        <time>2022-07-02T09:17:20Z</time>
      </trkpt>
      <trkpt lat="43.318554" lon="-1.9461575">
        <time>2022-07-02T09:17:22Z</time>
      </trkpt>
      <trkpt lat="43.318134" lon="-1.9442282">
        <time>2022-07-02T09:17:49Z</time>
      </trkpt>
      <trkpt lat="43.317997" lon="-1.9431345">
        <time>2022-07-02T09:18:05Z</time>
      </trkpt>
      <trkpt lat="43.318" lon="-1.9429919">
        <time>2022-07-02T09:18:08Z</time>
      </trkpt>
      <trkpt lat="43.318005" lon="-1.9428612">
        <time>2022-07-02T09:18:10Z</time>
      </trkpt>
      <trkpt lat="43.31801" lon="-1.9427892">
        <time>2022-07-02T09:18:11Z</time>
      </trkpt>
      <trkpt lat="43.318012" lon="-1.9426376">
        <time>2022-07-02T09:18:13Z</time>
      </trkpt>
      <trkpt lat="43.318016" lon="-1.9425608">
        <time>2022-07-02T09:18:14Z</time>
      </trkpt>
      <trkpt lat="43.31802" lon="-1.9424832">
        <time>2022-07-02T09:18:15Z</time>
      </trkpt>
      <trkpt lat="43.318024" lon="-1.9424112">
        <time>2022-07-02T09:18:16Z</time>
      </trkpt>
      <trkpt lat="43.318027" lon="-1.9423375">
        <time>2022-07-02T09:18:17Z</time>
      </trkpt>
      <trkpt lat="43.318027" lon="-1.9422622">
        <time>2022-07-02T09:18:18Z</time>
      </trkpt>
      <trkpt lat="43.318027" lon="-1.9421859">
        <time>2022-07-02T09:18:19Z</time>
      </trkpt>
      <trkpt lat="43.31803" lon="-1.9421089">
        <time>2022-07-02T09:18:20Z</time>
      </trkpt>
      <trkpt lat="43.318035" lon="-1.9420313">
        <time>2022-07-02T09:18:21Z</time>
      </trkpt>
      <trkpt lat="43.318035" lon="-1.9419535">
        <time>2022-07-02T09:18:22Z</time>
      </trkpt>
      <trkpt lat="43.318035" lon="-1.9418762">
        <time>2022-07-02T09:18:23Z</time>
      </trkpt>
      <trkpt lat="43.31804" lon="-1.9418006">
        <time>2022-07-02T09:18:24Z</time>
      </trkpt>
      <trkpt lat="43.318047" lon="-1.9417225">
        <time>2022-07-02T09:18:25Z</time>
      </trkpt>
      <trkpt lat="43.318054" lon="-1.9416546">
        <time>2022-07-02T09:18:26Z</time>
      </trkpt>
      <trkpt lat="43.318073" lon="-1.9415905">
        <time>2022-07-02T09:18:27Z</time>
      </trkpt>
      <trkpt lat="43.318134" lon="-1.9414879">
        <time>2022-07-02T09:18:29Z</time>
      </trkpt>
      <trkpt lat="43.31822" lon="-1.9414113">
        <time>2022-07-02T09:18:31Z</time>
      </trkpt>
      <trkpt lat="43.318314" lon="-1.9413509">
        <time>2022-07-02T09:18:33Z</time>
      </trkpt>
      <trkpt lat="43.318363" lon="-1.9413242">
        <time>2022-07-02T09:18:34Z</time>
      </trkpt>
      <trkpt lat="43.31841" lon="-1.9413006">
        <time>2022-07-02T09:18:35Z</time>
      </trkpt>
      <trkpt lat="43.31846" lon="-1.9412782">
        <time>2022-07-02T09:18:36Z</time>
      </trkpt>
      <trkpt lat="43.318554" lon="-1.9412242">
        <time>2022-07-02T09:18:38Z</time>
      </trkpt>
      <trkpt lat="43.318623" lon="-1.9411376">
        <time>2022-07-02T09:18:40Z</time>
      </trkpt>
      <trkpt lat="43.318665" lon="-1.9410219">
        <time>2022-07-02T09:18:42Z</time>
      </trkpt>
      <trkpt lat="43.318687" lon="-1.9408879">
        <time>2022-07-02T09:18:44Z</time>
      </trkpt>
      <trkpt lat="43.318695" lon="-1.9408163">
        <time>2022-07-02T09:18:45Z</time>
      </trkpt>
      <trkpt lat="43.3187" lon="-1.9407433">
        <time>2022-07-02T09:18:46Z</time>
      </trkpt>
      <trkpt lat="43.31871" lon="-1.940593">
        <time>2022-07-02T09:18:48Z</time>
      </trkpt>
      <trkpt lat="43.318714" lon="-1.940516">
        <time>2022-07-02T09:18:49Z</time>
      </trkpt>
      <trkpt lat="43.318718" lon="-1.9404329">
        <time>2022-07-02T09:18:50Z</time>
      </trkpt>
      <trkpt lat="43.31872" lon="-1.9403516">
        <time>2022-07-02T09:18:51Z</time>
      </trkpt>
      <trkpt lat="43.318726" lon="-1.9402766">
        <time>2022-07-02T09:18:52Z</time>
      </trkpt>
      <trkpt lat="43.318733" lon="-1.9401973">
        <time>2022-07-02T09:18:53Z</time>
      </trkpt>
      <trkpt lat="43.318745" lon="-1.9401222">
        <time>2022-07-02T09:18:54Z</time>
      </trkpt>
      <trkpt lat="43.318756" lon="-1.9400513">
        <time>2022-07-02T09:18:55Z</time>
      </trkpt>
      <trkpt lat="43.318775" lon="-1.9399853">
        <time>2022-07-02T09:18:56Z</time>
      </trkpt>
      <trkpt lat="43.318798" lon="-1.9399233">
        <time>2022-07-02T09:18:57Z</time>
      </trkpt>
      <trkpt lat="43.31885" lon="-1.939819">
        <time>2022-07-02T09:18:59Z</time>
      </trkpt>
      <trkpt lat="43.31895" lon="-1.93967">
        <time>2022-07-02T09:19:02Z</time>
      </trkpt>
      <trkpt lat="43.31899" lon="-1.9396213">
        <time>2022-07-02T09:19:03Z</time>
      </trkpt>
      <trkpt lat="43.319027" lon="-1.9395733">
        <time>2022-07-02T09:19:04Z</time>
      </trkpt>
      <trkpt lat="43.319065" lon="-1.9395273">
        <time>2022-07-02T09:19:05Z</time>
      </trkpt>
      <trkpt lat="43.31914" lon="-1.9394346">
        <time>2022-07-02T09:19:07Z</time>
      </trkpt>
      <trkpt lat="43.31918" lon="-1.939389">
        <time>2022-07-02T09:19:08Z</time>
      </trkpt>
      <trkpt lat="43.319263" lon="-1.9392933">
        <time>2022-07-02T09:19:10Z</time>
      </trkpt>
      <trkpt lat="43.319344" lon="-1.9392099">
        <time>2022-07-02T09:19:12Z</time>
      </trkpt>
      <trkpt lat="43.31942" lon="-1.9391394">
        <time>2022-07-02T09:19:14Z</time>
      </trkpt>
      <trkpt lat="43.319492" lon="-1.9390674">
        <time>2022-07-02T09:19:16Z</time>
      </trkpt>
      <trkpt lat="43.31956" lon="-1.9389853">
        <time>2022-07-02T09:19:18Z</time>
      </trkpt>
      <trkpt lat="43.31961" lon="-1.9388874">
        <time>2022-07-02T09:19:20Z</time>
      </trkpt>
      <trkpt lat="43.319645" lon="-1.9387707">
        <time>2022-07-02T09:19:22Z</time>
      </trkpt>
      <trkpt lat="43.319664" lon="-1.9386387">
        <time>2022-07-02T09:19:24Z</time>
      </trkpt>
      <trkpt lat="43.319668" lon="-1.9385704">
        <time>2022-07-02T09:19:25Z</time>
      </trkpt>
      <trkpt lat="43.31967" lon="-1.9384377">
        <time>2022-07-02T09:19:27Z</time>
      </trkpt>
      <trkpt lat="43.319675" lon="-1.9383084">
        <time>2022-07-02T09:19:29Z</time>
      </trkpt>
      <trkpt lat="43.31968" lon="-1.9382423">
        <time>2022-07-02T09:19:30Z</time>
      </trkpt>
      <trkpt lat="43.319683" lon="-1.938102">
        <time>2022-07-02T09:19:32Z</time>
      </trkpt>
      <trkpt lat="43.319683" lon="-1.9379557">
        <time>2022-07-02T09:19:34Z</time>
      </trkpt>
      <trkpt lat="43.319683" lon="-1.9378827">
        <time>2022-07-02T09:19:35Z</time>
      </trkpt>
      <trkpt lat="43.319683" lon="-1.937819">
        <time>2022-07-02T09:19:36Z</time>
      </trkpt>
      <trkpt lat="43.3197" lon="-1.9377034">
        <time>2022-07-02T09:19:38Z</time>
      </trkpt>
      <trkpt lat="43.319714" lon="-1.9376304">
        <time>2022-07-02T09:19:40Z</time>
      </trkpt>
      <trkpt lat="43.319733" lon="-1.9375684">
        <time>2022-07-02T09:19:43Z</time>
      </trkpt>
      <trkpt lat="43.31976" lon="-1.9374627">
        <time>2022-07-02T09:19:47Z</time>
      </trkpt>
      <trkpt lat="43.31979" lon="-1.9373688">
        <time>2022-07-02T09:19:49Z</time>
      </trkpt>
      <trkpt lat="43.31983" lon="-1.9372634">
        <time>2022-07-02T09:19:51Z</time>
      </trkpt>
      <trkpt lat="43.319874" lon="-1.9371531">
        <time>2022-07-02T09:19:53Z</time>
      </trkpt>
      <trkpt lat="43.31991" lon="-1.9370414">
        <time>2022-07-02T09:19:55Z</time>
      </trkpt>
      <trkpt lat="43.319942" lon="-1.9369264">
        <time>2022-07-02T09:19:57Z</time>
      </trkpt>
      <trkpt lat="43.31998" lon="-1.9368064">
        <time>2022-07-02T09:19:59Z</time>
      </trkpt>
      <trkpt lat="43.320015" lon="-1.9366924">
        <time>2022-07-02T09:20:01Z</time>
      </trkpt>
      <trkpt lat="43.320053" lon="-1.9365754">
        <time>2022-07-02T09:20:03Z</time>
      </trkpt>
      <trkpt lat="43.3201" lon="-1.9364617">
        <time>2022-07-02T09:20:05Z</time>
      </trkpt>
      <trkpt lat="43.320137" lon="-1.9363514">
        <time>2022-07-02T09:20:07Z</time>
      </trkpt>
      <trkpt lat="43.32018" lon="-1.9362423">
        <time>2022-07-02T09:20:09Z</time>
      </trkpt>
      <trkpt lat="43.320213" lon="-1.9361367">
        <time>2022-07-02T09:20:11Z</time>
      </trkpt>
      <trkpt lat="43.32025" lon="-1.9360317">
        <time>2022-07-02T09:20:13Z</time>
      </trkpt>
      <trkpt lat="43.320286" lon="-1.9359274">
        <time>2022-07-02T09:20:15Z</time>
      </trkpt>
      <trkpt lat="43.320316" lon="-1.9358177">
        <time>2022-07-02T09:20:17Z</time>
      </trkpt>
      <trkpt lat="43.32034" lon="-1.9357108">
        <time>2022-07-02T09:20:19Z</time>
      </trkpt>
      <trkpt lat="43.32036" lon="-1.9356071">
        <time>2022-07-02T09:20:21Z</time>
      </trkpt>
      <trkpt lat="43.320385" lon="-1.9355028">
        <time>2022-07-02T09:20:23Z</time>
      </trkpt>
      <trkpt lat="43.320415" lon="-1.935407">
        <time>2022-07-02T09:20:25Z</time>
      </trkpt>
      <trkpt lat="43.320454" lon="-1.9353018">
        <time>2022-07-02T09:20:27Z</time>
      </trkpt>
      <trkpt lat="43.320488" lon="-1.9352027">
        <time>2022-07-02T09:20:29Z</time>
      </trkpt>
      <trkpt lat="43.32053" lon="-1.9351021">
        <time>2022-07-02T09:20:31Z</time>
      </trkpt>
      <trkpt lat="43.320564" lon="-1.9350041">
        <time>2022-07-02T09:20:33Z</time>
      </trkpt>
      <trkpt lat="43.320595" lon="-1.9349035">
        <time>2022-07-02T09:20:35Z</time>
      </trkpt>
      <trkpt lat="43.32062" lon="-1.9347981">
        <time>2022-07-02T09:20:37Z</time>
      </trkpt>
      <trkpt lat="43.320652" lon="-1.9346911">
        <time>2022-07-02T09:20:39Z</time>
      </trkpt>
      <trkpt lat="43.320686" lon="-1.9345828">
        <time>2022-07-02T09:20:41Z</time>
      </trkpt>
      <trkpt lat="43.320717" lon="-1.9344752">
        <time>2022-07-02T09:20:43Z</time>
      </trkpt>
      <trkpt lat="43.320747" lon="-1.9343681">
        <time>2022-07-02T09:20:45Z</time>
      </trkpt>
      <trkpt lat="43.32078" lon="-1.9342611">
        <time>2022-07-02T09:20:47Z</time>
      </trkpt>
      <trkpt lat="43.320816" lon="-1.9341528">
        <time>2022-07-02T09:20:49Z</time>
      </trkpt>
      <trkpt lat="43.320854" lon="-1.9340421">
        <time>2022-07-02T09:20:51Z</time>
      </trkpt>
      <trkpt lat="43.32089" lon="-1.9339294">
        <time>2022-07-02T09:20:53Z</time>
      </trkpt>
      <trkpt lat="43.320927" lon="-1.9338129">
        <time>2022-07-02T09:20:55Z</time>
      </trkpt>
      <trkpt lat="43.320965" lon="-1.9336948">
        <time>2022-07-02T09:20:57Z</time>
      </trkpt>
      <trkpt lat="43.321014" lon="-1.9335744">
        <time>2022-07-02T09:20:59Z</time>
      </trkpt>
      <trkpt lat="43.32104" lon="-1.9335119">
        <time>2022-07-02T09:21:00Z</time>
      </trkpt>
      <trkpt lat="43.32106" lon="-1.9334488">
        <time>2022-07-02T09:21:01Z</time>
      </trkpt>
      <trkpt lat="43.321075" lon="-1.9333842">
        <time>2022-07-02T09:21:02Z</time>
      </trkpt>
      <trkpt lat="43.321102" lon="-1.9332489">
        <time>2022-07-02T09:21:04Z</time>
      </trkpt>
      <trkpt lat="43.321117" lon="-1.9331561">
        <time>2022-07-02T09:21:06Z</time>
      </trkpt>
      <trkpt lat="43.32113" lon="-1.9330702">
        <time>2022-07-02T09:21:07Z</time>
      </trkpt>
      <trkpt lat="43.32114" lon="-1.9329882">
        <time>2022-07-02T09:21:08Z</time>
      </trkpt>
      <trkpt lat="43.321156" lon="-1.9328302">
        <time>2022-07-02T09:21:10Z</time>
      </trkpt>
      <trkpt lat="43.321163" lon="-1.9327525">
        <time>2022-07-02T09:21:11Z</time>
      </trkpt>
      <trkpt lat="43.32117" lon="-1.9326769">
        <time>2022-07-02T09:21:12Z</time>
      </trkpt>
      <trkpt lat="43.321175" lon="-1.9326018">
        <time>2022-07-02T09:21:13Z</time>
      </trkpt>
      <trkpt lat="43.32118" lon="-1.9325259">
        <time>2022-07-02T09:21:14Z</time>
      </trkpt>
      <trkpt lat="43.321186" lon="-1.9324479">
        <time>2022-07-02T09:21:15Z</time>
      </trkpt>
      <trkpt lat="43.321194" lon="-1.9323698">
        <time>2022-07-02T09:21:16Z</time>
      </trkpt>
      <trkpt lat="43.3212" lon="-1.9322928">
        <time>2022-07-02T09:21:17Z</time>
      </trkpt>
      <trkpt lat="43.321205" lon="-1.9322158">
        <time>2022-07-02T09:21:18Z</time>
      </trkpt>
      <trkpt lat="43.321217" lon="-1.9321386">
        <time>2022-07-02T09:21:19Z</time>
      </trkpt>
      <trkpt lat="43.321224" lon="-1.9320599">
        <time>2022-07-02T09:21:20Z</time>
      </trkpt>
      <trkpt lat="43.321228" lon="-1.9319803">
        <time>2022-07-02T09:21:21Z</time>
      </trkpt>
      <trkpt lat="43.321236" lon="-1.9318999">
        <time>2022-07-02T09:21:22Z</time>
      </trkpt>
      <trkpt lat="43.32124" lon="-1.9318196">
        <time>2022-07-02T09:21:23Z</time>
      </trkpt>
      <trkpt lat="43.321243" lon="-1.9317383">
        <time>2022-07-02T09:21:24Z</time>
      </trkpt>
      <trkpt lat="43.321247" lon="-1.9316576">
        <time>2022-07-02T09:21:25Z</time>
      </trkpt>
      <trkpt lat="43.32125" lon="-1.9315752">
        <time>2022-07-02T09:21:26Z</time>
      </trkpt>
      <trkpt lat="43.32125" lon="-1.9314916">
        <time>2022-07-02T09:21:27Z</time>
      </trkpt>
      <trkpt lat="43.32125" lon="-1.9314079">
        <time>2022-07-02T09:21:28Z</time>
      </trkpt>
      <trkpt lat="43.32125" lon="-1.9313239">
        <time>2022-07-02T09:21:29Z</time>
      </trkpt>
      <trkpt lat="43.32125" lon="-1.9312389">
        <time>2022-07-02T09:21:30Z</time>
      </trkpt>
      <trkpt lat="43.32125" lon="-1.9311535">
        <time>2022-07-02T09:21:31Z</time>
      </trkpt>
      <trkpt lat="43.321255" lon="-1.9310656">
        <time>2022-07-02T09:21:32Z</time>
      </trkpt>
      <trkpt lat="43.321255" lon="-1.9309763">
        <time>2022-07-02T09:21:33Z</time>
      </trkpt>
      <trkpt lat="43.321255" lon="-1.9308856">
        <time>2022-07-02T09:21:34Z</time>
      </trkpt>
      <trkpt lat="43.321255" lon="-1.930795">
        <time>2022-07-02T09:21:35Z</time>
      </trkpt>
      <trkpt lat="43.321255" lon="-1.9307036">
        <time>2022-07-02T09:21:36Z</time>
      </trkpt>
      <trkpt lat="43.321255" lon="-1.9306129">
        <time>2022-07-02T09:21:37Z</time>
      </trkpt>
      <trkpt lat="43.32125" lon="-1.9305223">
        <time>2022-07-02T09:21:38Z</time>
      </trkpt>
      <trkpt lat="43.321247" lon="-1.9304329">
        <time>2022-07-02T09:21:39Z</time>
      </trkpt>
      <trkpt lat="43.321243" lon="-1.9303453">
        <time>2022-07-02T09:21:40Z</time>
      </trkpt>
      <trkpt lat="43.32124" lon="-1.9302583">
        <time>2022-07-02T09:21:41Z</time>
      </trkpt>
      <trkpt lat="43.321236" lon="-1.9301729">
        <time>2022-07-02T09:21:42Z</time>
      </trkpt>
      <trkpt lat="43.32123" lon="-1.9300903">
        <time>2022-07-02T09:21:43Z</time>
      </trkpt>
      <trkpt lat="43.321228" lon="-1.9300092">
        <time>2022-07-02T09:21:44Z</time>
      </trkpt>
      <trkpt lat="43.321224" lon="-1.9299296">
        <time>2022-07-02T09:21:45Z</time>
      </trkpt>
      <trkpt lat="43.32122" lon="-1.9298524">
        <time>2022-07-02T09:21:46Z</time>
      </trkpt>
      <trkpt lat="43.32122" lon="-1.9297763">
        <time>2022-07-02T09:21:47Z</time>
      </trkpt>
      <trkpt lat="43.321217" lon="-1.9297017">
        <time>2022-07-02T09:21:48Z</time>
      </trkpt>
      <trkpt lat="43.321213" lon="-1.9296284">
        <time>2022-07-02T09:21:49Z</time>
      </trkpt>
      <trkpt lat="43.32121" lon="-1.9295564">
        <time>2022-07-02T09:21:50Z</time>
      </trkpt>
      <trkpt lat="43.321205" lon="-1.9294844">
        <time>2022-07-02T09:21:51Z</time>
      </trkpt>
      <trkpt lat="43.3212" lon="-1.9294137">
        <time>2022-07-02T09:21:52Z</time>
      </trkpt>
      <trkpt lat="43.3212" lon="-1.929343">
        <time>2022-07-02T09:21:53Z</time>
      </trkpt>
      <trkpt lat="43.321198" lon="-1.9292727">
        <time>2022-07-02T09:21:54Z</time>
      </trkpt>
      <trkpt lat="43.32119" lon="-1.9291353">
        <time>2022-07-02T09:21:56Z</time>
      </trkpt>
      <trkpt lat="43.321186" lon="-1.9290004">
        <time>2022-07-02T09:21:58Z</time>
      </trkpt>
      <trkpt lat="43.321182" lon="-1.928872">
        <time>2022-07-02T09:22:00Z</time>
      </trkpt>
      <trkpt lat="43.32118" lon="-1.928742">
        <time>2022-07-02T09:22:02Z</time>
      </trkpt>
      <trkpt lat="43.321175" lon="-1.9286127">
        <time>2022-07-02T09:22:04Z</time>
      </trkpt>
      <trkpt lat="43.32117" lon="-1.9284806">
        <time>2022-07-02T09:22:06Z</time>
      </trkpt>
      <trkpt lat="43.32117" lon="-1.9284143">
        <time>2022-07-02T09:22:07Z</time>
      </trkpt>
      <trkpt lat="43.321167" lon="-1.9282811">
        <time>2022-07-02T09:22:09Z</time>
      </trkpt>
      <trkpt lat="43.321167" lon="-1.9282141">
        <time>2022-07-02T09:22:10Z</time>
      </trkpt>
      <trkpt lat="43.321167" lon="-1.9280784">
        <time>2022-07-02T09:22:12Z</time>
      </trkpt>
      <trkpt lat="43.321167" lon="-1.9279397">
        <time>2022-07-02T09:22:14Z</time>
      </trkpt>
      <trkpt lat="43.321167" lon="-1.9277997">
        <time>2022-07-02T09:22:16Z</time>
      </trkpt>
      <trkpt lat="43.32117" lon="-1.9277287">
        <time>2022-07-02T09:22:17Z</time>
      </trkpt>
      <trkpt lat="43.32117" lon="-1.9276581">
        <time>2022-07-02T09:22:18Z</time>
      </trkpt>
      <trkpt lat="43.32118" lon="-1.9275174">
        <time>2022-07-02T09:22:20Z</time>
      </trkpt>
      <trkpt lat="43.321182" lon="-1.9274464">
        <time>2022-07-02T09:22:21Z</time>
      </trkpt>
      <trkpt lat="43.321186" lon="-1.9273747">
        <time>2022-07-02T09:22:22Z</time>
      </trkpt>
      <trkpt lat="43.321194" lon="-1.9272333">
        <time>2022-07-02T09:22:24Z</time>
      </trkpt>
      <trkpt lat="43.321198" lon="-1.927163">
        <time>2022-07-02T09:22:25Z</time>
      </trkpt>
      <trkpt lat="43.3212" lon="-1.9270921">
        <time>2022-07-02T09:22:26Z</time>
      </trkpt>
      <trkpt lat="43.321213" lon="-1.926951">
        <time>2022-07-02T09:22:28Z</time>
      </trkpt>
      <trkpt lat="43.321217" lon="-1.92688">
        <time>2022-07-02T09:22:29Z</time>
      </trkpt>
      <trkpt lat="43.321224" lon="-1.9268104">
        <time>2022-07-02T09:22:30Z</time>
      </trkpt>
      <trkpt lat="43.321236" lon="-1.9266714">
        <time>2022-07-02T09:22:32Z</time>
      </trkpt>
      <trkpt lat="43.321243" lon="-1.926601">
        <time>2022-07-02T09:22:33Z</time>
      </trkpt>
      <trkpt lat="43.321262" lon="-1.9264584">
        <time>2022-07-02T09:22:35Z</time>
      </trkpt>
      <trkpt lat="43.321266" lon="-1.9263874">
        <time>2022-07-02T09:22:36Z</time>
      </trkpt>
      <trkpt lat="43.321274" lon="-1.9263167">
        <time>2022-07-02T09:22:37Z</time>
      </trkpt>
      <trkpt lat="43.321278" lon="-1.9262447">
        <time>2022-07-02T09:22:38Z</time>
      </trkpt>
      <trkpt lat="43.321285" lon="-1.9261721">
        <time>2022-07-02T09:22:39Z</time>
      </trkpt>
      <trkpt lat="43.321293" lon="-1.9261001">
        <time>2022-07-02T09:22:40Z</time>
      </trkpt>
      <trkpt lat="43.321304" lon="-1.9259574">
        <time>2022-07-02T09:22:42Z</time>
      </trkpt>
      <trkpt lat="43.321312" lon="-1.9258868">
        <time>2022-07-02T09:22:43Z</time>
      </trkpt>
      <trkpt lat="43.321316" lon="-1.9258158">
        <time>2022-07-02T09:22:44Z</time>
      </trkpt>
      <trkpt lat="43.321323" lon="-1.925744">
        <time>2022-07-02T09:22:45Z</time>
      </trkpt>
      <trkpt lat="43.321327" lon="-1.9256724">
        <time>2022-07-02T09:22:46Z</time>
      </trkpt>
      <trkpt lat="43.321342" lon="-1.9255317">
        <time>2022-07-02T09:22:48Z</time>
      </trkpt>
      <trkpt lat="43.32135" lon="-1.9254558">
        <time>2022-07-02T09:22:49Z</time>
      </trkpt>
      <trkpt lat="43.321358" lon="-1.9253801">
        <time>2022-07-02T09:22:50Z</time>
      </trkpt>
      <trkpt lat="43.32137" lon="-1.9253081">
        <time>2022-07-02T09:22:51Z</time>
      </trkpt>
      <trkpt lat="43.321377" lon="-1.9252355">
        <time>2022-07-02T09:22:52Z</time>
      </trkpt>
      <trkpt lat="43.321384" lon="-1.9251618">
        <time>2022-07-02T09:22:53Z</time>
      </trkpt>
      <trkpt lat="43.321392" lon="-1.9250869">
        <time>2022-07-02T09:22:54Z</time>
      </trkpt>
      <trkpt lat="43.321396" lon="-1.9250071">
        <time>2022-07-02T09:22:55Z</time>
      </trkpt>
      <trkpt lat="43.321404" lon="-1.9249278">
        <time>2022-07-02T09:22:56Z</time>
      </trkpt>
      <trkpt lat="43.321407" lon="-1.9248499">
        <time>2022-07-02T09:22:57Z</time>
      </trkpt>
      <trkpt lat="43.32141" lon="-1.9247725">
        <time>2022-07-02T09:22:58Z</time>
      </trkpt>
      <trkpt lat="43.321415" lon="-1.9246948">
        <time>2022-07-02T09:22:59Z</time>
      </trkpt>
      <trkpt lat="43.32142" lon="-1.9246179">
        <time>2022-07-02T09:23:00Z</time>
      </trkpt>
      <trkpt lat="43.321423" lon="-1.9245415">
        <time>2022-07-02T09:23:01Z</time>
      </trkpt>
      <trkpt lat="43.321423" lon="-1.9244652">
        <time>2022-07-02T09:23:02Z</time>
      </trkpt>
      <trkpt lat="43.321426" lon="-1.9243898">
        <time>2022-07-02T09:23:03Z</time>
      </trkpt>
      <trkpt lat="43.321426" lon="-1.9243141">
        <time>2022-07-02T09:23:04Z</time>
      </trkpt>
      <trkpt lat="43.321426" lon="-1.9242392">
        <time>2022-07-02T09:23:05Z</time>
      </trkpt>
      <trkpt lat="43.321426" lon="-1.9241645">
        <time>2022-07-02T09:23:06Z</time>
      </trkpt>
      <trkpt lat="43.321426" lon="-1.9240905">
        <time>2022-07-02T09:23:07Z</time>
      </trkpt>
      <trkpt lat="43.321423" lon="-1.9240181">
        <time>2022-07-02T09:23:08Z</time>
      </trkpt>
      <trkpt lat="43.321423" lon="-1.9239476">
        <time>2022-07-02T09:23:09Z</time>
      </trkpt>
      <trkpt lat="43.32142" lon="-1.9238769">
        <time>2022-07-02T09:23:10Z</time>
      </trkpt>
      <trkpt lat="43.32142" lon="-1.9238075">
        <time>2022-07-02T09:23:11Z</time>
      </trkpt>
      <trkpt lat="43.32141" lon="-1.9236735">
        <time>2022-07-02T09:23:13Z</time>
      </trkpt>
      <trkpt lat="43.3214" lon="-1.9234939">
        <time>2022-07-02T09:23:16Z</time>
      </trkpt>
      <trkpt lat="43.321392" lon="-1.9233819">
        <time>2022-07-02T09:23:18Z</time>
      </trkpt>
      <trkpt lat="43.321384" lon="-1.9232765">
        <time>2022-07-02T09:23:20Z</time>
      </trkpt>
      <trkpt lat="43.32138" lon="-1.9231732">
        <time>2022-07-02T09:23:22Z</time>
      </trkpt>
      <trkpt lat="43.321373" lon="-1.9230713">
        <time>2022-07-02T09:23:24Z</time>
      </trkpt>
      <trkpt lat="43.321365" lon="-1.9229746">
        <time>2022-07-02T09:23:26Z</time>
      </trkpt>
      <trkpt lat="43.32135" lon="-1.9228792">
        <time>2022-07-02T09:23:28Z</time>
      </trkpt>
      <trkpt lat="43.32133" lon="-1.9227419">
        <time>2022-07-02T09:23:31Z</time>
      </trkpt>
      <trkpt lat="43.321312" lon="-1.9226589">
        <time>2022-07-02T09:23:33Z</time>
      </trkpt>
      <trkpt lat="43.321297" lon="-1.9225916">
        <time>2022-07-02T09:23:35Z</time>
      </trkpt>
      <trkpt lat="43.321285" lon="-1.9225396">
        <time>2022-07-02T09:23:39Z</time>
      </trkpt>
      <trkpt lat="43.321312" lon="-1.9224633">
        <time>2022-07-02T09:23:48Z</time>
      </trkpt>
      <trkpt lat="43.321323" lon="-1.9224015">
        <time>2022-07-02T09:23:51Z</time>
      </trkpt>
      <trkpt lat="43.321297" lon="-1.9223195">
        <time>2022-07-02T09:23:54Z</time>
      </trkpt>
      <trkpt lat="43.321266" lon="-1.9222622">
        <time>2022-07-02T09:23:56Z</time>
      </trkpt>
      <trkpt lat="43.32123" lon="-1.9222026">
        <time>2022-07-02T09:23:58Z</time>
      </trkpt>
      <trkpt lat="43.321194" lon="-1.9221473">
        <time>2022-07-02T09:24:00Z</time>
      </trkpt>
      <trkpt lat="43.321148" lon="-1.9220946">
        <time>2022-07-02T09:24:02Z</time>
      </trkpt>
      <trkpt lat="43.321095" lon="-1.9220369">
        <time>2022-07-02T09:24:04Z</time>
      </trkpt>
      <trkpt lat="43.321045" lon="-1.9219736">
        <time>2022-07-02T09:24:06Z</time>
      </trkpt>
      <trkpt lat="43.320995" lon="-1.9219077">
        <time>2022-07-02T09:24:08Z</time>
      </trkpt>
      <trkpt lat="43.320946" lon="-1.921844">
        <time>2022-07-02T09:24:10Z</time>
      </trkpt>
      <trkpt lat="43.320896" lon="-1.9217769">
        <time>2022-07-02T09:24:12Z</time>
      </trkpt>
      <trkpt lat="43.32085" lon="-1.9217046">
        <time>2022-07-02T09:24:14Z</time>
      </trkpt>
      <trkpt lat="43.32081" lon="-1.921624">
        <time>2022-07-02T09:24:16Z</time>
      </trkpt>
      <trkpt lat="43.320763" lon="-1.921533">
        <time>2022-07-02T09:24:18Z</time>
      </trkpt>
      <trkpt lat="43.320713" lon="-1.9214337">
        <time>2022-07-02T09:24:20Z</time>
      </trkpt>
      <trkpt lat="43.32066" lon="-1.9213259">
        <time>2022-07-02T09:24:22Z</time>
      </trkpt>
      <trkpt lat="43.32063" lon="-1.9212689">
        <time>2022-07-02T09:24:23Z</time>
      </trkpt>
      <trkpt lat="43.320576" lon="-1.9211503">
        <time>2022-07-02T09:24:25Z</time>
      </trkpt>
      <trkpt lat="43.320545" lon="-1.9210893">
        <time>2022-07-02T09:24:26Z</time>
      </trkpt>
      <trkpt lat="43.320515" lon="-1.921028">
        <time>2022-07-02T09:24:27Z</time>
      </trkpt>
      <trkpt lat="43.320457" lon="-1.9209043">
        <time>2022-07-02T09:24:29Z</time>
      </trkpt>
      <trkpt lat="43.320427" lon="-1.9208413">
        <time>2022-07-02T09:24:30Z</time>
      </trkpt>
      <trkpt lat="43.320396" lon="-1.9207777">
        <time>2022-07-02T09:24:31Z</time>
      </trkpt>
      <trkpt lat="43.320366" lon="-1.9207124">
        <time>2022-07-02T09:24:32Z</time>
      </trkpt>
      <trkpt lat="43.320335" lon="-1.9206467">
        <time>2022-07-02T09:24:33Z</time>
      </trkpt>
      <trkpt lat="43.3203" lon="-1.9205804">
        <time>2022-07-02T09:24:34Z</time>
      </trkpt>
      <trkpt lat="43.32027" lon="-1.920512">
        <time>2022-07-02T09:24:35Z</time>
      </trkpt>
      <trkpt lat="43.320236" lon="-1.920441">
        <time>2022-07-02T09:24:36Z</time>
      </trkpt>
      <trkpt lat="43.3202" lon="-1.9203677">
        <time>2022-07-02T09:24:37Z</time>
      </trkpt>
      <trkpt lat="43.320164" lon="-1.920293">
        <time>2022-07-02T09:24:38Z</time>
      </trkpt>
      <trkpt lat="43.32013" lon="-1.9202197">
        <time>2022-07-02T09:24:39Z</time>
      </trkpt>
      <trkpt lat="43.320095" lon="-1.9201477">
        <time>2022-07-02T09:24:40Z</time>
      </trkpt>
      <trkpt lat="43.32006" lon="-1.9200771">
        <time>2022-07-02T09:24:41Z</time>
      </trkpt>
      <trkpt lat="43.320026" lon="-1.9200084">
        <time>2022-07-02T09:24:42Z</time>
      </trkpt>
      <trkpt lat="43.319992" lon="-1.9199398">
        <time>2022-07-02T09:24:43Z</time>
      </trkpt>
      <trkpt lat="43.31996" lon="-1.9198717">
        <time>2022-07-02T09:24:44Z</time>
      </trkpt>
      <trkpt lat="43.319923" lon="-1.9198008">
        <time>2022-07-02T09:24:45Z</time>
      </trkpt>
      <trkpt lat="43.31989" lon="-1.9197317">
        <time>2022-07-02T09:24:46Z</time>
      </trkpt>
      <trkpt lat="43.31986" lon="-1.9196637">
        <time>2022-07-02T09:24:47Z</time>
      </trkpt>
      <trkpt lat="43.319824" lon="-1.9195954">
        <time>2022-07-02T09:24:48Z</time>
      </trkpt>
      <trkpt lat="43.31979" lon="-1.9195287">
        <time>2022-07-02T09:24:49Z</time>
      </trkpt>
      <trkpt lat="43.31976" lon="-1.9194634">
        <time>2022-07-02T09:24:50Z</time>
      </trkpt>
      <trkpt lat="43.319725" lon="-1.9193977">
        <time>2022-07-02T09:24:51Z</time>
      </trkpt>
      <trkpt lat="43.319695" lon="-1.9193344">
        <time>2022-07-02T09:24:52Z</time>
      </trkpt>
      <trkpt lat="43.319664" lon="-1.9192717">
        <time>2022-07-02T09:24:53Z</time>
      </trkpt>
      <trkpt lat="43.319633" lon="-1.9192108">
        <time>2022-07-02T09:24:54Z</time>
      </trkpt>
      <trkpt lat="43.319607" lon="-1.9191518">
        <time>2022-07-02T09:24:55Z</time>
      </trkpt>
      <trkpt lat="43.31958" lon="-1.9190978">
        <time>2022-07-02T09:24:56Z</time>
      </trkpt>
      <trkpt lat="43.319527" lon="-1.918982">
        <time>2022-07-02T09:24:58Z</time>
      </trkpt>
      <trkpt lat="43.31948" lon="-1.9188688">
        <time>2022-07-02T09:25:00Z</time>
      </trkpt>
      <trkpt lat="43.31943" lon="-1.9187498">
        <time>2022-07-02T09:25:02Z</time>
      </trkpt>
      <trkpt lat="43.31941" lon="-1.9186904">
        <time>2022-07-02T09:25:03Z</time>
      </trkpt>
      <trkpt lat="43.319363" lon="-1.9185698">
        <time>2022-07-02T09:25:05Z</time>
      </trkpt>
      <trkpt lat="43.31934" lon="-1.9185101">
        <time>2022-07-02T09:25:06Z</time>
      </trkpt>
      <trkpt lat="43.319294" lon="-1.9183961">
        <time>2022-07-02T09:25:08Z</time>
      </trkpt>
      <trkpt lat="43.319252" lon="-1.9182781">
        <time>2022-07-02T09:25:10Z</time>
      </trkpt>
      <trkpt lat="43.319206" lon="-1.9181584">
        <time>2022-07-02T09:25:12Z</time>
      </trkpt>
      <trkpt lat="43.31916" lon="-1.9180481">
        <time>2022-07-02T09:25:14Z</time>
      </trkpt>
      <trkpt lat="43.31912" lon="-1.9179407">
        <time>2022-07-02T09:25:16Z</time>
      </trkpt>
      <trkpt lat="43.319077" lon="-1.9178331">
        <time>2022-07-02T09:25:18Z</time>
      </trkpt>
      <trkpt lat="43.31904" lon="-1.9177355">
        <time>2022-07-02T09:25:20Z</time>
      </trkpt>
      <trkpt lat="43.319016" lon="-1.9176341">
        <time>2022-07-02T09:25:22Z</time>
      </trkpt>
      <trkpt lat="43.31899" lon="-1.9175417">
        <time>2022-07-02T09:25:24Z</time>
      </trkpt>
      <trkpt lat="43.31893" lon="-1.9174111">
        <time>2022-07-02T09:25:27Z</time>
      </trkpt>
      <trkpt lat="43.318893" lon="-1.9173255">
        <time>2022-07-02T09:25:29Z</time>
      </trkpt>
      <trkpt lat="43.31886" lon="-1.9172375">
        <time>2022-07-02T09:25:31Z</time>
      </trkpt>
      <trkpt lat="43.31882" lon="-1.9171448">
        <time>2022-07-02T09:25:33Z</time>
      </trkpt>
      <trkpt lat="43.318787" lon="-1.9170485">
        <time>2022-07-02T09:25:35Z</time>
      </trkpt>
      <trkpt lat="43.318752" lon="-1.9169518">
        <time>2022-07-02T09:25:37Z</time>
      </trkpt>
      <trkpt lat="43.318718" lon="-1.9168565">
        <time>2022-07-02T09:25:39Z</time>
      </trkpt>
      <trkpt lat="43.318687" lon="-1.9167556">
        <time>2022-07-02T09:25:41Z</time>
      </trkpt>
      <trkpt lat="43.318653" lon="-1.9166602">
        <time>2022-07-02T09:25:43Z</time>
      </trkpt>
      <trkpt lat="43.318623" lon="-1.9165661">
        <time>2022-07-02T09:25:45Z</time>
      </trkpt>
      <trkpt lat="43.318584" lon="-1.9164646">
        <time>2022-07-02T09:25:47Z</time>
      </trkpt>
      <trkpt lat="43.31855" lon="-1.9163702">
        <time>2022-07-02T09:25:49Z</time>
      </trkpt>
      <trkpt lat="43.31852" lon="-1.9162788">
        <time>2022-07-02T09:25:51Z</time>
      </trkpt>
      <trkpt lat="43.31849" lon="-1.9161909">
        <time>2022-07-02T09:25:53Z</time>
      </trkpt>
      <trkpt lat="43.318455" lon="-1.9161048">
        <time>2022-07-02T09:25:55Z</time>
      </trkpt>
      <trkpt lat="43.31842" lon="-1.9160155">
        <time>2022-07-02T09:25:57Z</time>
      </trkpt>
      <trkpt lat="43.318382" lon="-1.9159255">
        <time>2022-07-02T09:25:59Z</time>
      </trkpt>
      <trkpt lat="43.318344" lon="-1.9158345">
        <time>2022-07-02T09:26:01Z</time>
      </trkpt>
      <trkpt lat="43.318306" lon="-1.9157425">
        <time>2022-07-02T09:26:03Z</time>
      </trkpt>
      <trkpt lat="43.318268" lon="-1.9156486">
        <time>2022-07-02T09:26:05Z</time>
      </trkpt>
      <trkpt lat="43.31823" lon="-1.9155529">
        <time>2022-07-02T09:26:07Z</time>
      </trkpt>
      <trkpt lat="43.318195" lon="-1.9154536">
        <time>2022-07-02T09:26:09Z</time>
      </trkpt>
      <trkpt lat="43.318157" lon="-1.9153535">
        <time>2022-07-02T09:26:11Z</time>
      </trkpt>
      <trkpt lat="43.318123" lon="-1.9152526">
        <time>2022-07-02T09:26:13Z</time>
      </trkpt>
      <trkpt lat="43.318085" lon="-1.9151468">
        <time>2022-07-02T09:26:15Z</time>
      </trkpt>
      <trkpt lat="43.31805" lon="-1.9150496">
        <time>2022-07-02T09:26:17Z</time>
      </trkpt>
      <trkpt lat="43.31802" lon="-1.9149525">
        <time>2022-07-02T09:26:19Z</time>
      </trkpt>
      <trkpt lat="43.31799" lon="-1.9148699">
        <time>2022-07-02T09:26:21Z</time>
      </trkpt>
      <trkpt lat="43.317963" lon="-1.9148059">
        <time>2022-07-02T09:26:23Z</time>
      </trkpt>
      <trkpt lat="43.31793" lon="-1.9147753">
        <time>2022-07-02T09:26:25Z</time>
      </trkpt>
      <trkpt lat="43.317875" lon="-1.9147935">
        <time>2022-07-02T09:26:28Z</time>
      </trkpt>
      <trkpt lat="43.317814" lon="-1.9148002">
        <time>2022-07-02T09:26:31Z</time>
      </trkpt>
      <trkpt lat="43.31777" lon="-1.9147342">
        <time>2022-07-02T09:26:34Z</time>
      </trkpt>
      <trkpt lat="43.31772" lon="-1.9146309">
        <time>2022-07-02T09:26:37Z</time>
      </trkpt>
      <trkpt lat="43.317688" lon="-1.9145565">
        <time>2022-07-02T09:26:39Z</time>
      </trkpt>
      <trkpt lat="43.317635" lon="-1.9144446">
        <time>2022-07-02T09:26:42Z</time>
      </trkpt>
      <trkpt lat="43.317596" lon="-1.9143655">
        <time>2022-07-02T09:26:44Z</time>
      </trkpt>
      <trkpt lat="43.317566" lon="-1.9142909">
        <time>2022-07-02T09:26:46Z</time>
      </trkpt>
      <trkpt lat="43.317535" lon="-1.9142085">
        <time>2022-07-02T09:26:48Z</time>
      </trkpt>
      <trkpt lat="43.317513" lon="-1.9141319">
        <time>2022-07-02T09:26:50Z</time>
      </trkpt>
      <trkpt lat="43.317486" lon="-1.9140619">
        <time>2022-07-02T09:26:52Z</time>
      </trkpt>
      <trkpt lat="43.31745" lon="-1.9140213">
        <time>2022-07-02T09:26:54Z</time>
      </trkpt>
      <trkpt lat="43.31739" lon="-1.9140372">
        <time>2022-07-02T09:26:57Z</time>
      </trkpt>
      <trkpt lat="43.317352" lon="-1.9141155">
        <time>2022-07-02T09:27:00Z</time>
      </trkpt>
      <trkpt lat="43.317318" lon="-1.9142213">
        <time>2022-07-02T09:27:03Z</time>
      </trkpt>
      <trkpt lat="43.31729" lon="-1.9142909">
        <time>2022-07-02T09:27:05Z</time>
      </trkpt>
      <trkpt lat="43.31726" lon="-1.9143538">
        <time>2022-07-02T09:27:07Z</time>
      </trkpt>
      <trkpt lat="43.31722" lon="-1.9143909">
        <time>2022-07-02T09:27:09Z</time>
      </trkpt>
      <trkpt lat="43.317165" lon="-1.9143785">
        <time>2022-07-02T09:27:12Z</time>
      </trkpt>
      <trkpt lat="43.317146" lon="-1.9142998">
        <time>2022-07-02T09:27:15Z</time>
      </trkpt>
      <trkpt lat="43.31716" lon="-1.9141983">
        <time>2022-07-02T09:27:18Z</time>
      </trkpt>
      <trkpt lat="43.317192" lon="-1.9140983">
        <time>2022-07-02T09:27:21Z</time>
      </trkpt>
      <trkpt lat="43.31721" lon="-1.9140272">
        <time>2022-07-02T09:27:23Z</time>
      </trkpt>
      <trkpt lat="43.31723" lon="-1.9139502">
        <time>2022-07-02T09:27:25Z</time>
      </trkpt>
      <trkpt lat="43.317253" lon="-1.9138739">
        <time>2022-07-02T09:27:27Z</time>
      </trkpt>
      <trkpt lat="43.31726" lon="-1.913796">
        <time>2022-07-02T09:27:29Z</time>
      </trkpt>
      <trkpt lat="43.31725" lon="-1.9137306">
        <time>2022-07-02T09:27:31Z</time>
      </trkpt>
      <trkpt lat="43.3172" lon="-1.9136866">
        <time>2022-07-02T09:27:34Z</time>
      </trkpt>
      <trkpt lat="43.31716" lon="-1.9137299">
        <time>2022-07-02T09:27:37Z</time>
      </trkpt>
      <trkpt lat="43.31715" lon="-1.9138179">
        <time>2022-07-02T09:27:40Z</time>
      </trkpt>
      <trkpt lat="43.317127" lon="-1.9139029">
        <time>2022-07-02T09:27:43Z</time>
      </trkpt>
      <trkpt lat="43.317074" lon="-1.9139526">
        <time>2022-07-02T09:27:46Z</time>
      </trkpt>
      <trkpt lat="43.317013" lon="-1.9139773">
        <time>2022-07-02T09:27:49Z</time>
      </trkpt>
      <trkpt lat="43.316948" lon="-1.9139879">
        <time>2022-07-02T09:27:52Z</time>
      </trkpt>
      <trkpt lat="43.316883" lon="-1.9139845">
        <time>2022-07-02T09:27:55Z</time>
      </trkpt>
      <trkpt lat="43.316826" lon="-1.9139602">
        <time>2022-07-02T09:27:58Z</time>
      </trkpt>
      <trkpt lat="43.316784" lon="-1.9138899">
        <time>2022-07-02T09:28:01Z</time>
      </trkpt>
      <trkpt lat="43.316765" lon="-1.9138019">
        <time>2022-07-02T09:28:03Z</time>
      </trkpt>
      <trkpt lat="43.316753" lon="-1.9136709">
        <time>2022-07-02T09:28:05Z</time>
      </trkpt>
      <trkpt lat="43.31675" lon="-1.9135109">
        <time>2022-07-02T09:28:07Z</time>
      </trkpt>
      <trkpt lat="43.316753" lon="-1.9134282">
        <time>2022-07-02T09:28:08Z</time>
      </trkpt>
      <trkpt lat="43.316753" lon="-1.9133346">
        <time>2022-07-02T09:28:09Z</time>
      </trkpt>
      <trkpt lat="43.316753" lon="-1.9132469">
        <time>2022-07-02T09:28:10Z</time>
      </trkpt>
      <trkpt lat="43.31675" lon="-1.9131593">
        <time>2022-07-02T09:28:11Z</time>
      </trkpt>
      <trkpt lat="43.316746" lon="-1.9130672">
        <time>2022-07-02T09:28:12Z</time>
      </trkpt>
      <trkpt lat="43.316746" lon="-1.9129783">
        <time>2022-07-02T09:28:13Z</time>
      </trkpt>
      <trkpt lat="43.316746" lon="-1.9128959">
        <time>2022-07-02T09:28:14Z</time>
      </trkpt>
      <trkpt lat="43.31675" lon="-1.9128122">
        <time>2022-07-02T09:28:15Z</time>
      </trkpt>
      <trkpt lat="43.316757" lon="-1.9127276">
        <time>2022-07-02T09:28:16Z</time>
      </trkpt>
      <trkpt lat="43.316765" lon="-1.9126422">
        <time>2022-07-02T09:28:17Z</time>
      </trkpt>
      <trkpt lat="43.316772" lon="-1.9125576">
        <time>2022-07-02T09:28:18Z</time>
      </trkpt>
      <trkpt lat="43.316784" lon="-1.9124722">
        <time>2022-07-02T09:28:19Z</time>
      </trkpt>
      <trkpt lat="43.316795" lon="-1.912386">
        <time>2022-07-02T09:28:20Z</time>
      </trkpt>
      <trkpt lat="43.316807" lon="-1.912293">
        <time>2022-07-02T09:28:21Z</time>
      </trkpt>
      <trkpt lat="43.31682" lon="-1.9122016">
        <time>2022-07-02T09:28:22Z</time>
      </trkpt>
      <trkpt lat="43.316822" lon="-1.9121126">
        <time>2022-07-02T09:28:23Z</time>
      </trkpt>
      <trkpt lat="43.316826" lon="-1.9120296">
        <time>2022-07-02T09:28:24Z</time>
      </trkpt>
      <trkpt lat="43.316826" lon="-1.911953">
        <time>2022-07-02T09:28:25Z</time>
      </trkpt>
      <trkpt lat="43.31682" lon="-1.9118873">
        <time>2022-07-02T09:28:26Z</time>
      </trkpt>
      <trkpt lat="43.316814" lon="-1.9118283">
        <time>2022-07-02T09:28:27Z</time>
      </trkpt>
      <trkpt lat="43.31681" lon="-1.9117314">
        <time>2022-07-02T09:28:29Z</time>
      </trkpt>
      <trkpt lat="43.31682" lon="-1.9116713">
        <time>2022-07-02T09:28:31Z</time>
      </trkpt>
      <trkpt lat="43.316856" lon="-1.9116203">
        <time>2022-07-02T09:28:34Z</time>
      </trkpt>
      <trkpt lat="43.316917" lon="-1.9115577">
        <time>2022-07-02T09:28:37Z</time>
      </trkpt>
      <trkpt lat="43.316982" lon="-1.911507">
        <time>2022-07-02T09:28:39Z</time>
      </trkpt>
      <trkpt lat="43.317066" lon="-1.9114517">
        <time>2022-07-02T09:28:41Z</time>
      </trkpt>
      <trkpt lat="43.317116" lon="-1.911419">
        <time>2022-07-02T09:28:42Z</time>
      </trkpt>
      <trkpt lat="43.317165" lon="-1.911382">
        <time>2022-07-02T09:28:43Z</time>
      </trkpt>
      <trkpt lat="43.317215" lon="-1.9113407">
        <time>2022-07-02T09:28:44Z</time>
      </trkpt>
      <trkpt lat="43.317265" lon="-1.911297">
        <time>2022-07-02T09:28:45Z</time>
      </trkpt>
      <trkpt lat="43.31731" lon="-1.9112517">
        <time>2022-07-02T09:28:46Z</time>
      </trkpt>
      <trkpt lat="43.317356" lon="-1.9112067">
        <time>2022-07-02T09:28:47Z</time>
      </trkpt>
      <trkpt lat="43.317398" lon="-1.9111611">
        <time>2022-07-02T09:28:48Z</time>
      </trkpt>
      <trkpt lat="43.31744" lon="-1.9111123">
        <time>2022-07-02T09:28:49Z</time>
      </trkpt>
      <trkpt lat="43.31748" lon="-1.9110616">
        <time>2022-07-02T09:28:50Z</time>
      </trkpt>
      <trkpt lat="43.31755" lon="-1.9109536">
        <time>2022-07-02T09:28:52Z</time>
      </trkpt>
      <trkpt lat="43.31761" lon="-1.9108547">
        <time>2022-07-02T09:28:54Z</time>
      </trkpt>
      <trkpt lat="43.317657" lon="-1.9107493">
        <time>2022-07-02T09:28:56Z</time>
      </trkpt>
      <trkpt lat="43.3177" lon="-1.9106413">
        <time>2022-07-02T09:28:58Z</time>
      </trkpt>
      <trkpt lat="43.31774" lon="-1.9105394">
        <time>2022-07-02T09:29:00Z</time>
      </trkpt>
      <trkpt lat="43.31778" lon="-1.9104334">
        <time>2022-07-02T09:29:02Z</time>
      </trkpt>
      <trkpt lat="43.317825" lon="-1.9103323">
        <time>2022-07-02T09:29:04Z</time>
      </trkpt>
      <trkpt lat="43.31787" lon="-1.9102397">
        <time>2022-07-02T09:29:06Z</time>
      </trkpt>
      <trkpt lat="43.317913" lon="-1.9101527">
        <time>2022-07-02T09:29:08Z</time>
      </trkpt>
      <trkpt lat="43.31795" lon="-1.9100738">
        <time>2022-07-02T09:29:10Z</time>
      </trkpt>
      <trkpt lat="43.31799" lon="-1.9099917">
        <time>2022-07-02T09:29:12Z</time>
      </trkpt>
      <trkpt lat="43.31802" lon="-1.909908">
        <time>2022-07-02T09:29:14Z</time>
      </trkpt>
      <trkpt lat="43.318054" lon="-1.9098277">
        <time>2022-07-02T09:29:16Z</time>
      </trkpt>
      <trkpt lat="43.31808" lon="-1.9097497">
        <time>2022-07-02T09:29:18Z</time>
      </trkpt>
      <trkpt lat="43.31811" lon="-1.9096727">
        <time>2022-07-02T09:29:20Z</time>
      </trkpt>
      <trkpt lat="43.31814" lon="-1.9095927">
        <time>2022-07-02T09:29:22Z</time>
      </trkpt>
      <trkpt lat="43.318165" lon="-1.9095124">
        <time>2022-07-02T09:29:24Z</time>
      </trkpt>
      <trkpt lat="43.31819" lon="-1.9094317">
        <time>2022-07-02T09:29:26Z</time>
      </trkpt>
      <trkpt lat="43.318222" lon="-1.9093574">
        <time>2022-07-02T09:29:28Z</time>
      </trkpt>
      <trkpt lat="43.31825" lon="-1.9092827">
        <time>2022-07-02T09:29:30Z</time>
      </trkpt>
      <trkpt lat="43.318268" lon="-1.9092041">
        <time>2022-07-02T09:29:32Z</time>
      </trkpt>
      <trkpt lat="43.31829" lon="-1.9091238">
        <time>2022-07-02T09:29:34Z</time>
      </trkpt>
      <trkpt lat="43.318314" lon="-1.9090434">
        <time>2022-07-02T09:29:36Z</time>
      </trkpt>
      <trkpt lat="43.31834" lon="-1.9089631">
        <time>2022-07-02T09:29:38Z</time>
      </trkpt>
      <trkpt lat="43.318363" lon="-1.9088794">
        <time>2022-07-02T09:29:40Z</time>
      </trkpt>
      <trkpt lat="43.318382" lon="-1.9087964">
        <time>2022-07-02T09:29:42Z</time>
      </trkpt>
      <trkpt lat="43.318405" lon="-1.9087144">
        <time>2022-07-02T09:29:44Z</time>
      </trkpt>
      <trkpt lat="43.31843" lon="-1.9086311">
        <time>2022-07-02T09:29:46Z</time>
      </trkpt>
      <trkpt lat="43.318455" lon="-1.9085481">
        <time>2022-07-02T09:29:48Z</time>
      </trkpt>
      <trkpt lat="43.31847" lon="-1.9084637">
        <time>2022-07-02T09:29:50Z</time>
      </trkpt>
      <trkpt lat="43.31849" lon="-1.9083794">
        <time>2022-07-02T09:29:52Z</time>
      </trkpt>
      <trkpt lat="43.3185" lon="-1.9082944">
        <time>2022-07-02T09:29:54Z</time>
      </trkpt>
      <trkpt lat="43.31851" lon="-1.9082091">
        <time>2022-07-02T09:29:56Z</time>
      </trkpt>
      <trkpt lat="43.318516" lon="-1.9081224">
        <time>2022-07-02T09:29:58Z</time>
      </trkpt>
      <trkpt lat="43.31852" lon="-1.9080318">
        <time>2022-07-02T09:30:00Z</time>
      </trkpt>
      <trkpt lat="43.31852" lon="-1.9079407">
        <time>2022-07-02T09:30:02Z</time>
      </trkpt>
      <trkpt lat="43.318516" lon="-1.9078488">
        <time>2022-07-02T09:30:04Z</time>
      </trkpt>
      <trkpt lat="43.31851" lon="-1.9077551">
        <time>2022-07-02T09:30:06Z</time>
      </trkpt>
      <trkpt lat="43.3185" lon="-1.9076598">
        <time>2022-07-02T09:30:08Z</time>
      </trkpt>
      <trkpt lat="43.318493" lon="-1.9075629">
        <time>2022-07-02T09:30:10Z</time>
      </trkpt>
      <trkpt lat="43.318478" lon="-1.9074655">
        <time>2022-07-02T09:30:12Z</time>
      </trkpt>
      <trkpt lat="43.318462" lon="-1.9073682">
        <time>2022-07-02T09:30:14Z</time>
      </trkpt>
      <trkpt lat="43.318443" lon="-1.9072682">
        <time>2022-07-02T09:30:16Z</time>
      </trkpt>
      <trkpt lat="43.318424" lon="-1.9071589">
        <time>2022-07-02T09:30:18Z</time>
      </trkpt>
      <trkpt lat="43.31807" lon="-1.9064578">
        <time>2022-07-02T09:30:32Z</time>
      </trkpt>
      <trkpt lat="43.318054" lon="-1.9064385">
        <time>2022-07-02T09:30:33Z</time>
      </trkpt>
      <trkpt lat="43.31798" lon="-1.9063292">
        <time>2022-07-02T09:30:36Z</time>
      </trkpt>
      <trkpt lat="43.317905" lon="-1.9062358">
        <time>2022-07-02T09:30:38Z</time>
      </trkpt>
      <trkpt lat="43.317867" lon="-1.9061894">
        <time>2022-07-02T09:30:39Z</time>
      </trkpt>
      <trkpt lat="43.31783" lon="-1.9061484">
        <time>2022-07-02T09:30:40Z</time>
      </trkpt>
      <trkpt lat="43.31775" lon="-1.9060705">
        <time>2022-07-02T09:30:42Z</time>
      </trkpt>
      <trkpt lat="43.31766" lon="-1.9060009">
        <time>2022-07-02T09:30:44Z</time>
      </trkpt>
      <trkpt lat="43.317566" lon="-1.9059342">
        <time>2022-07-02T09:30:46Z</time>
      </trkpt>
      <trkpt lat="43.317524" lon="-1.9059042">
        <time>2022-07-02T09:30:47Z</time>
      </trkpt>
      <trkpt lat="43.31748" lon="-1.9058735">
        <time>2022-07-02T09:30:48Z</time>
      </trkpt>
      <trkpt lat="43.317398" lon="-1.9058266">
        <time>2022-07-02T09:30:50Z</time>
      </trkpt>
      <trkpt lat="43.317326" lon="-1.9057919">
        <time>2022-07-02T09:30:52Z</time>
      </trkpt>
      <trkpt lat="43.317272" lon="-1.9057745">
        <time>2022-07-02T09:30:54Z</time>
      </trkpt>
      <trkpt lat="43.31721" lon="-1.9057575">
        <time>2022-07-02T09:30:57Z</time>
      </trkpt>
      <trkpt lat="43.317165" lon="-1.9057472">
        <time>2022-07-02T09:31:00Z</time>
      </trkpt>
      <trkpt lat="43.3171" lon="-1.9056935">
        <time>2022-07-02T09:31:53Z</time>
      </trkpt>
      <trkpt lat="43.31701" lon="-1.9056112">
        <time>2022-07-02T09:32:30Z</time>
      </trkpt>
      <trkpt lat="43.31695" lon="-1.9055799">
        <time>2022-07-02T09:32:32Z</time>
      </trkpt>
      <trkpt lat="43.31689" lon="-1.9055425">
        <time>2022-07-02T09:32:34Z</time>
      </trkpt>
      <trkpt lat="43.316822" lon="-1.9055046">
        <time>2022-07-02T09:32:36Z</time>
      </trkpt>
      <trkpt lat="43.316753" lon="-1.9054655">
        <time>2022-07-02T09:32:38Z</time>
      </trkpt>
      <trkpt lat="43.31668" lon="-1.9054306">
        <time>2022-07-02T09:32:40Z</time>
      </trkpt>
      <trkpt lat="43.316612" lon="-1.9053916">
        <time>2022-07-02T09:32:42Z</time>
      </trkpt>
      <trkpt lat="43.31654" lon="-1.9053509">
        <time>2022-07-02T09:32:44Z</time>
      </trkpt>
      <trkpt lat="43.316467" lon="-1.9053116">
        <time>2022-07-02T09:32:46Z</time>
      </trkpt>
      <trkpt lat="43.31639" lon="-1.9052712">
        <time>2022-07-02T09:32:48Z</time>
      </trkpt>
      <trkpt lat="43.31631" lon="-1.9052286">
        <time>2022-07-02T09:32:50Z</time>
      </trkpt>
      <trkpt lat="43.316227" lon="-1.9051859">
        <time>2022-07-02T09:32:52Z</time>
      </trkpt>
      <trkpt lat="43.316143" lon="-1.905142">
        <time>2022-07-02T09:32:54Z</time>
      </trkpt>
      <trkpt lat="43.31606" lon="-1.9050932">
        <time>2022-07-02T09:32:56Z</time>
      </trkpt>
      <trkpt lat="43.31598" lon="-1.9050486">
        <time>2022-07-02T09:32:58Z</time>
      </trkpt>
      <trkpt lat="43.315895" lon="-1.9050065">
        <time>2022-07-02T09:33:00Z</time>
      </trkpt>
      <trkpt lat="43.315807" lon="-1.9049636">
        <time>2022-07-02T09:33:02Z</time>
      </trkpt>
      <trkpt lat="43.31572" lon="-1.9049196">
        <time>2022-07-02T09:33:04Z</time>
      </trkpt>
      <trkpt lat="43.31563" lon="-1.9048703">
        <time>2022-07-02T09:33:06Z</time>
      </trkpt>
      <trkpt lat="43.315556" lon="-1.90483">
        <time>2022-07-02T09:33:08Z</time>
      </trkpt>
      <trkpt lat="43.315495" lon="-1.9047846">
        <time>2022-07-02T09:33:10Z</time>
      </trkpt>
      <trkpt lat="43.31546" lon="-1.9047306">
        <time>2022-07-02T09:33:12Z</time>
      </trkpt>
      <trkpt lat="43.315445" lon="-1.9046439">
        <time>2022-07-02T09:33:15Z</time>
      </trkpt>
      <trkpt lat="43.315407" lon="-1.9045923">
        <time>2022-07-02T09:33:17Z</time>
      </trkpt>
      <trkpt lat="43.31535" lon="-1.9045442">
        <time>2022-07-02T09:33:19Z</time>
      </trkpt>
      <trkpt lat="43.31528" lon="-1.904493">
        <time>2022-07-02T09:33:21Z</time>
      </trkpt>
      <trkpt lat="43.315216" lon="-1.9044296">
        <time>2022-07-02T09:33:23Z</time>
      </trkpt>
      <trkpt lat="43.315174" lon="-1.9043436">
        <time>2022-07-02T09:33:25Z</time>
      </trkpt>
      <trkpt lat="43.31514" lon="-1.9042506">
        <time>2022-07-02T09:33:27Z</time>
      </trkpt>
      <trkpt lat="43.31511" lon="-1.9041549">
        <time>2022-07-02T09:33:29Z</time>
      </trkpt>
      <trkpt lat="43.315086" lon="-1.904055">
        <time>2022-07-02T09:33:31Z</time>
      </trkpt>
      <trkpt lat="43.315067" lon="-1.9039626">
        <time>2022-07-02T09:33:33Z</time>
      </trkpt>
      <trkpt lat="43.31504" lon="-1.903891">
        <time>2022-07-02T09:33:35Z</time>
      </trkpt>
      <trkpt lat="43.315006" lon="-1.9038463">
        <time>2022-07-02T09:33:37Z</time>
      </trkpt>
      <trkpt lat="43.314953" lon="-1.903785">
        <time>2022-07-02T09:33:40Z</time>
      </trkpt>
      <trkpt lat="43.314934" lon="-1.9037089">
        <time>2022-07-02T09:33:42Z</time>
      </trkpt>
      <trkpt lat="43.314926" lon="-1.9036183">
        <time>2022-07-02T09:33:44Z</time>
      </trkpt>
      <trkpt lat="43.314922" lon="-1.903513">
        <time>2022-07-02T09:33:46Z</time>
      </trkpt>
      <trkpt lat="43.314915" lon="-1.9033943">
        <time>2022-07-02T09:33:48Z</time>
      </trkpt>
      <trkpt lat="43.31491" lon="-1.9032717">
        <time>2022-07-02T09:33:50Z</time>
      </trkpt>
      <trkpt lat="43.3149" lon="-1.903146">
        <time>2022-07-02T09:33:52Z</time>
      </trkpt>
      <trkpt lat="43.314888" lon="-1.9030193">
        <time>2022-07-02T09:33:54Z</time>
      </trkpt>
      <trkpt lat="43.314884" lon="-1.9029553">
        <time>2022-07-02T09:33:55Z</time>
      </trkpt>
      <trkpt lat="43.314873" lon="-1.9028276">
        <time>2022-07-02T09:33:57Z</time>
      </trkpt>
      <trkpt lat="43.314865" lon="-1.902706">
        <time>2022-07-02T09:33:59Z</time>
      </trkpt>
      <trkpt lat="43.314857" lon="-1.9025967">
        <time>2022-07-02T09:34:01Z</time>
      </trkpt>
      <trkpt lat="43.314857" lon="-1.9024957">
        <time>2022-07-02T09:34:03Z</time>
      </trkpt>
      <trkpt lat="43.314854" lon="-1.902402">
        <time>2022-07-02T09:34:05Z</time>
      </trkpt>
      <trkpt lat="43.314846" lon="-1.9023074">
        <time>2022-07-02T09:34:07Z</time>
      </trkpt>
      <trkpt lat="43.314842" lon="-1.9022117">
        <time>2022-07-02T09:34:09Z</time>
      </trkpt>
      <trkpt lat="43.31484" lon="-1.9021081">
        <time>2022-07-02T09:34:11Z</time>
      </trkpt>
      <trkpt lat="43.31484" lon="-1.9020077">
        <time>2022-07-02T09:34:13Z</time>
      </trkpt>
      <trkpt lat="43.314823" lon="-1.901869">
        <time>2022-07-02T09:34:16Z</time>
      </trkpt>
      <trkpt lat="43.31481" lon="-1.9017754">
        <time>2022-07-02T09:34:18Z</time>
      </trkpt>
      <trkpt lat="43.3148" lon="-1.9016747">
        <time>2022-07-02T09:34:20Z</time>
      </trkpt>
      <trkpt lat="43.31479" lon="-1.9015667">
        <time>2022-07-02T09:34:22Z</time>
      </trkpt>
      <trkpt lat="43.31478" lon="-1.9014564">
        <time>2022-07-02T09:34:24Z</time>
      </trkpt>
      <trkpt lat="43.31477" lon="-1.9013484">
        <time>2022-07-02T09:34:26Z</time>
      </trkpt>
      <trkpt lat="43.314762" lon="-1.901231">
        <time>2022-07-02T09:34:28Z</time>
      </trkpt>
      <trkpt lat="43.31476" lon="-1.9011191">
        <time>2022-07-02T09:34:30Z</time>
      </trkpt>
      <trkpt lat="43.31475" lon="-1.9010031">
        <time>2022-07-02T09:34:32Z</time>
      </trkpt>
      <trkpt lat="43.314735" lon="-1.9008951">
        <time>2022-07-02T09:34:34Z</time>
      </trkpt>
      <trkpt lat="43.31472" lon="-1.9007894">
        <time>2022-07-02T09:34:36Z</time>
      </trkpt>
      <trkpt lat="43.3147" lon="-1.9006944">
        <time>2022-07-02T09:34:38Z</time>
      </trkpt>
      <trkpt lat="43.314682" lon="-1.9006201">
        <time>2022-07-02T09:34:40Z</time>
      </trkpt>
      <trkpt lat="43.314682" lon="-1.9005344">
        <time>2022-07-02T09:34:42Z</time>
      </trkpt>
      <trkpt lat="43.31471" lon="-1.9004505">
        <time>2022-07-02T09:34:44Z</time>
      </trkpt>
      <trkpt lat="43.314743" lon="-1.9003788">
        <time>2022-07-02T09:34:46Z</time>
      </trkpt>
      <trkpt lat="43.31478" lon="-1.9003098">
        <time>2022-07-02T09:34:48Z</time>
      </trkpt>
      <trkpt lat="43.314823" lon="-1.9002458">
        <time>2022-07-02T09:34:50Z</time>
      </trkpt>
      <trkpt lat="43.314865" lon="-1.9002074">
        <time>2022-07-02T09:34:52Z</time>
      </trkpt>
      <trkpt lat="43.31491" lon="-1.9002022">
        <time>2022-07-02T09:34:54Z</time>
      </trkpt>
      <trkpt lat="43.314983" lon="-1.9002398">
        <time>2022-07-02T09:34:57Z</time>
      </trkpt>
      <trkpt lat="43.315033" lon="-1.900279">
        <time>2022-07-02T09:34:59Z</time>
      </trkpt>
      <trkpt lat="43.31509" lon="-1.9003215">
        <time>2022-07-02T09:35:01Z</time>
      </trkpt>
      <trkpt lat="43.31514" lon="-1.9003651">
        <time>2022-07-02T09:35:03Z</time>
      </trkpt>
      <trkpt lat="43.315193" lon="-1.9003954">
        <time>2022-07-02T09:35:05Z</time>
      </trkpt>
      <trkpt lat="43.315243" lon="-1.9003934">
        <time>2022-07-02T09:35:07Z</time>
      </trkpt>
      <trkpt lat="43.315296" lon="-1.9003404">
        <time>2022-07-02T09:35:10Z</time>
      </trkpt>
      <trkpt lat="43.315346" lon="-1.9002525">
        <time>2022-07-02T09:35:13Z</time>
      </trkpt>
      <trkpt lat="43.31537" lon="-1.9001857">
        <time>2022-07-02T09:35:15Z</time>
      </trkpt>
      <trkpt lat="43.31535" lon="-1.9001027">
        <time>2022-07-02T09:35:18Z</time>
      </trkpt>
      <trkpt lat="43.3153" lon="-1.9000511">
        <time>2022-07-02T09:35:20Z</time>
      </trkpt>
      <trkpt lat="43.315243" lon="-1.8999667">
        <time>2022-07-02T09:35:22Z</time>
      </trkpt>
      <trkpt lat="43.315166" lon="-1.8998718">
        <time>2022-07-02T09:35:24Z</time>
      </trkpt>
      <trkpt lat="43.31512" lon="-1.8998294">
        <time>2022-07-02T09:35:25Z</time>
      </trkpt>
      <trkpt lat="43.315075" lon="-1.8997978">
        <time>2022-07-02T09:35:26Z</time>
      </trkpt>
      <trkpt lat="43.315025" lon="-1.8997718">
        <time>2022-07-02T09:35:27Z</time>
      </trkpt>
      <trkpt lat="43.314976" lon="-1.8997464">
        <time>2022-07-02T09:35:28Z</time>
      </trkpt>
      <trkpt lat="43.31488" lon="-1.8996938">
        <time>2022-07-02T09:35:30Z</time>
      </trkpt>
      <trkpt lat="43.31484" lon="-1.8996634">
        <time>2022-07-02T09:35:31Z</time>
      </trkpt>
      <trkpt lat="43.314754" lon="-1.8995931">
        <time>2022-07-02T09:35:33Z</time>
      </trkpt>
      <trkpt lat="43.31468" lon="-1.8995081">
        <time>2022-07-02T09:35:35Z</time>
      </trkpt>
      <trkpt lat="43.31464" lon="-1.8994638">
        <time>2022-07-02T09:35:36Z</time>
      </trkpt>
      <trkpt lat="43.314568" lon="-1.8993738">
        <time>2022-07-02T09:35:38Z</time>
      </trkpt>
      <trkpt lat="43.3145" lon="-1.8992865">
        <time>2022-07-02T09:35:40Z</time>
      </trkpt>
      <trkpt lat="43.314426" lon="-1.8992015">
        <time>2022-07-02T09:35:42Z</time>
      </trkpt>
      <trkpt lat="43.314354" lon="-1.8991212">
        <time>2022-07-02T09:35:44Z</time>
      </trkpt>
      <trkpt lat="43.314285" lon="-1.8990464">
        <time>2022-07-02T09:35:46Z</time>
      </trkpt>
      <trkpt lat="43.314213" lon="-1.8989828">
        <time>2022-07-02T09:35:48Z</time>
      </trkpt>
      <trkpt lat="43.31414" lon="-1.8989245">
        <time>2022-07-02T09:35:50Z</time>
      </trkpt>
      <trkpt lat="43.314083" lon="-1.8988554">
        <time>2022-07-02T09:35:52Z</time>
      </trkpt>
      <trkpt lat="43.314026" lon="-1.8987832">
        <time>2022-07-02T09:35:54Z</time>
      </trkpt>
      <trkpt lat="43.31397" lon="-1.8987122">
        <time>2022-07-02T09:35:56Z</time>
      </trkpt>
      <trkpt lat="43.31391" lon="-1.8986398">
        <time>2022-07-02T09:35:58Z</time>
      </trkpt>
      <trkpt lat="43.313854" lon="-1.8985665">
        <time>2022-07-02T09:36:00Z</time>
      </trkpt>
      <trkpt lat="43.313793" lon="-1.8984956">
        <time>2022-07-02T09:36:02Z</time>
      </trkpt>
      <trkpt lat="43.31374" lon="-1.8984188">
        <time>2022-07-02T09:36:04Z</time>
      </trkpt>
      <trkpt lat="43.313698" lon="-1.8983362">
        <time>2022-07-02T09:36:06Z</time>
      </trkpt>
      <trkpt lat="43.313667" lon="-1.8982528">
        <time>2022-07-02T09:36:08Z</time>
      </trkpt>
      <trkpt lat="43.31363" lon="-1.8981708">
        <time>2022-07-02T09:36:10Z</time>
      </trkpt>
      <trkpt lat="43.313587" lon="-1.8980902">
        <time>2022-07-02T09:36:12Z</time>
      </trkpt>
      <trkpt lat="43.313545" lon="-1.8980055">
        <time>2022-07-02T09:36:14Z</time>
      </trkpt>
      <trkpt lat="43.3135" lon="-1.8979166">
        <time>2022-07-02T09:36:16Z</time>
      </trkpt>
      <trkpt lat="43.313454" lon="-1.8978271">
        <time>2022-07-02T09:36:18Z</time>
      </trkpt>
      <trkpt lat="43.313408" lon="-1.8977386">
        <time>2022-07-02T09:36:20Z</time>
      </trkpt>
      <trkpt lat="43.313366" lon="-1.8976482">
        <time>2022-07-02T09:36:22Z</time>
      </trkpt>
      <trkpt lat="43.313324" lon="-1.8975569">
        <time>2022-07-02T09:36:24Z</time>
      </trkpt>
      <trkpt lat="43.313282" lon="-1.8974636">
        <time>2022-07-02T09:36:26Z</time>
      </trkpt>
      <trkpt lat="43.31325" lon="-1.8973825">
        <time>2022-07-02T09:36:28Z</time>
      </trkpt>
      <trkpt lat="43.313225" lon="-1.8973236">
        <time>2022-07-02T09:36:30Z</time>
      </trkpt>
      <trkpt lat="43.3132" lon="-1.8972383">
        <time>2022-07-02T09:36:33Z</time>
      </trkpt>
      <trkpt lat="43.313183" lon="-1.8971705">
        <time>2022-07-02T09:36:35Z</time>
      </trkpt>
      <trkpt lat="43.31315" lon="-1.8970892">
        <time>2022-07-02T09:36:37Z</time>
      </trkpt>
      <trkpt lat="43.313107" lon="-1.89699">
        <time>2022-07-02T09:36:39Z</time>
      </trkpt>
      <trkpt lat="43.313057" lon="-1.8968753">
        <time>2022-07-02T09:36:41Z</time>
      </trkpt>
      <trkpt lat="43.313" lon="-1.8967535">
        <time>2022-07-02T09:36:43Z</time>
      </trkpt>
      <trkpt lat="43.31297" lon="-1.8966916">
        <time>2022-07-02T09:36:44Z</time>
      </trkpt>
      <trkpt lat="43.31294" lon="-1.896629">
        <time>2022-07-02T09:36:45Z</time>
      </trkpt>
      <trkpt lat="43.312878" lon="-1.896501">
        <time>2022-07-02T09:36:47Z</time>
      </trkpt>
      <trkpt lat="43.312847" lon="-1.8964373">
        <time>2022-07-02T09:36:48Z</time>
      </trkpt>
      <trkpt lat="43.312817" lon="-1.8963736">
        <time>2022-07-02T09:36:49Z</time>
      </trkpt>
      <trkpt lat="43.312782" lon="-1.8963106">
        <time>2022-07-02T09:36:50Z</time>
      </trkpt>
      <trkpt lat="43.31275" lon="-1.896248">
        <time>2022-07-02T09:36:51Z</time>
      </trkpt>
      <trkpt lat="43.312717" lon="-1.8961862">
        <time>2022-07-02T09:36:52Z</time>
      </trkpt>
      <trkpt lat="43.312687" lon="-1.8961246">
        <time>2022-07-02T09:36:53Z</time>
      </trkpt>
      <trkpt lat="43.31266" lon="-1.8960639">
        <time>2022-07-02T09:36:54Z</time>
      </trkpt>
      <trkpt lat="43.312634" lon="-1.8960086">
        <time>2022-07-02T09:36:55Z</time>
      </trkpt>
      <trkpt lat="43.312584" lon="-1.8959213">
        <time>2022-07-02T09:36:57Z</time>
      </trkpt>
      <trkpt lat="43.31254" lon="-1.895854">
        <time>2022-07-02T09:36:59Z</time>
      </trkpt>
      <trkpt lat="43.312492" lon="-1.8957993">
        <time>2022-07-02T09:37:01Z</time>
      </trkpt>
      <trkpt lat="43.31245" lon="-1.8957384">
        <time>2022-07-02T09:37:03Z</time>
      </trkpt>
      <trkpt lat="43.312405" lon="-1.8956747">
        <time>2022-07-02T09:37:05Z</time>
      </trkpt>
      <trkpt lat="43.31236" lon="-1.895615">
        <time>2022-07-02T09:37:07Z</time>
      </trkpt>
      <trkpt lat="43.31231" lon="-1.8955576">
        <time>2022-07-02T09:37:09Z</time>
      </trkpt>
      <trkpt lat="43.312267" lon="-1.8954817">
        <time>2022-07-02T09:37:11Z</time>
      </trkpt>
      <trkpt lat="43.312233" lon="-1.8953997">
        <time>2022-07-02T09:37:13Z</time>
      </trkpt>
      <trkpt lat="43.312195" lon="-1.895313">
        <time>2022-07-02T09:37:15Z</time>
      </trkpt>
      <trkpt lat="43.31216" lon="-1.8952243">
        <time>2022-07-02T09:37:17Z</time>
      </trkpt>
      <trkpt lat="43.312122" lon="-1.8951321">
        <time>2022-07-02T09:37:19Z</time>
      </trkpt>
      <trkpt lat="43.312084" lon="-1.8950373">
        <time>2022-07-02T09:37:21Z</time>
      </trkpt>
      <trkpt lat="43.312046" lon="-1.8949434">
        <time>2022-07-02T09:37:23Z</time>
      </trkpt>
      <trkpt lat="43.312" lon="-1.8948513">
        <time>2022-07-02T09:37:25Z</time>
      </trkpt>
      <trkpt lat="43.31195" lon="-1.8947693">
        <time>2022-07-02T09:37:27Z</time>
      </trkpt>
      <trkpt lat="43.311897" lon="-1.8947021">
        <time>2022-07-02T09:37:29Z</time>
      </trkpt>
      <trkpt lat="43.31184" lon="-1.8946457">
        <time>2022-07-02T09:37:31Z</time>
      </trkpt>
      <trkpt lat="43.31178" lon="-1.8946043">
        <time>2022-07-02T09:37:33Z</time>
      </trkpt>
      <trkpt lat="43.31172" lon="-1.8945631">
        <time>2022-07-02T09:37:35Z</time>
      </trkpt>
      <trkpt lat="43.311676" lon="-1.8945117">
        <time>2022-07-02T09:37:37Z</time>
      </trkpt>
      <trkpt lat="43.311646" lon="-1.8944607">
        <time>2022-07-02T09:37:39Z</time>
      </trkpt>
      <trkpt lat="43.311607" lon="-1.8944061">
        <time>2022-07-02T09:37:42Z</time>
      </trkpt>
      <trkpt lat="43.311546" lon="-1.894397">
        <time>2022-07-02T09:37:45Z</time>
      </trkpt>
      <trkpt lat="43.311493" lon="-1.8943857">
        <time>2022-07-02T09:37:47Z</time>
      </trkpt>
      <trkpt lat="43.31144" lon="-1.8943504">
        <time>2022-07-02T09:37:49Z</time>
      </trkpt>
      <trkpt lat="43.31139" lon="-1.8942853">
        <time>2022-07-02T09:37:51Z</time>
      </trkpt>
      <trkpt lat="43.311337" lon="-1.8941981">
        <time>2022-07-02T09:37:53Z</time>
      </trkpt>
      <trkpt lat="43.311283" lon="-1.8941067">
        <time>2022-07-02T09:37:55Z</time>
      </trkpt>
      <trkpt lat="43.311226" lon="-1.8940134">
        <time>2022-07-02T09:37:57Z</time>
      </trkpt>
      <trkpt lat="43.311165" lon="-1.8939244">
        <time>2022-07-02T09:37:59Z</time>
      </trkpt>
      <trkpt lat="43.311108" lon="-1.893838">
        <time>2022-07-02T09:38:01Z</time>
      </trkpt>
      <trkpt lat="43.31105" lon="-1.893758">
        <time>2022-07-02T09:38:03Z</time>
      </trkpt>
      <trkpt lat="43.310993" lon="-1.893674">
        <time>2022-07-02T09:38:05Z</time>
      </trkpt>
      <trkpt lat="43.310944" lon="-1.893573">
        <time>2022-07-02T09:38:07Z</time>
      </trkpt>
      <trkpt lat="43.310898" lon="-1.8934717">
        <time>2022-07-02T09:38:09Z</time>
      </trkpt>
      <trkpt lat="43.31085" lon="-1.8933794">
        <time>2022-07-02T09:38:11Z</time>
      </trkpt>
      <trkpt lat="43.31079" lon="-1.8932904">
        <time>2022-07-02T09:38:13Z</time>
      </trkpt>
      <trkpt lat="43.310726" lon="-1.893203">
        <time>2022-07-02T09:38:15Z</time>
      </trkpt>
      <trkpt lat="43.310665" lon="-1.8931167">
        <time>2022-07-02T09:38:17Z</time>
      </trkpt>
      <trkpt lat="43.310608" lon="-1.8930317">
        <time>2022-07-02T09:38:19Z</time>
      </trkpt>
      <trkpt lat="43.310543" lon="-1.8929534">
        <time>2022-07-02T09:38:21Z</time>
      </trkpt>
      <trkpt lat="43.31048" lon="-1.8928797">
        <time>2022-07-02T09:38:23Z</time>
      </trkpt>
      <trkpt lat="43.310417" lon="-1.8927971">
        <time>2022-07-02T09:38:25Z</time>
      </trkpt>
      <trkpt lat="43.310356" lon="-1.8927114">
        <time>2022-07-02T09:38:27Z</time>
      </trkpt>
      <trkpt lat="43.31029" lon="-1.8926251">
        <time>2022-07-02T09:38:29Z</time>
      </trkpt>
      <trkpt lat="43.310192" lon="-1.8924958">
        <time>2022-07-02T09:38:32Z</time>
      </trkpt>
      <trkpt lat="43.310127" lon="-1.8924152">
        <time>2022-07-02T09:38:34Z</time>
      </trkpt>
      <trkpt lat="43.310062" lon="-1.8923308">
        <time>2022-07-02T09:38:36Z</time>
      </trkpt>
      <trkpt lat="43.31" lon="-1.8922424">
        <time>2022-07-02T09:38:38Z</time>
      </trkpt>
      <trkpt lat="43.309948" lon="-1.8921521">
        <time>2022-07-02T09:38:40Z</time>
      </trkpt>
      <trkpt lat="43.309895" lon="-1.8920724">
        <time>2022-07-02T09:38:42Z</time>
      </trkpt>
      <trkpt lat="43.309834" lon="-1.8920088">
        <time>2022-07-02T09:38:44Z</time>
      </trkpt>
      <trkpt lat="43.309784" lon="-1.8919494">
        <time>2022-07-02T09:38:46Z</time>
      </trkpt>
      <trkpt lat="43.309746" lon="-1.8918971">
        <time>2022-07-02T09:38:48Z</time>
      </trkpt>
      <trkpt lat="43.309715" lon="-1.8918182">
        <time>2022-07-02T09:38:51Z</time>
      </trkpt>
      <trkpt lat="43.309715" lon="-1.8917271">
        <time>2022-07-02T09:38:54Z</time>
      </trkpt>
      <trkpt lat="43.30973" lon="-1.8916341">
        <time>2022-07-02T09:38:57Z</time>
      </trkpt>
      <trkpt lat="43.309742" lon="-1.8915372">
        <time>2022-07-02T09:39:00Z</time>
      </trkpt>
      <trkpt lat="43.30976" lon="-1.8914598">
        <time>2022-07-02T09:39:02Z</time>
      </trkpt>
      <trkpt lat="43.30978" lon="-1.8913745">
        <time>2022-07-02T09:39:04Z</time>
      </trkpt>
      <trkpt lat="43.309795" lon="-1.8912811">
        <time>2022-07-02T09:39:06Z</time>
      </trkpt>
      <trkpt lat="43.309814" lon="-1.8911815">
        <time>2022-07-02T09:39:08Z</time>
      </trkpt>
      <trkpt lat="43.309834" lon="-1.8910785">
        <time>2022-07-02T09:39:10Z</time>
      </trkpt>
      <trkpt lat="43.309853" lon="-1.8909782">
        <time>2022-07-02T09:39:12Z</time>
      </trkpt>
      <trkpt lat="43.30987" lon="-1.8908771">
        <time>2022-07-02T09:39:14Z</time>
      </trkpt>
      <trkpt lat="43.30989" lon="-1.8907598">
        <time>2022-07-02T09:39:16Z</time>
      </trkpt>
      <trkpt lat="43.309906" lon="-1.8906496">
        <time>2022-07-02T09:39:18Z</time>
      </trkpt>
      <trkpt lat="43.30993" lon="-1.8905395">
        <time>2022-07-02T09:39:20Z</time>
      </trkpt>
      <trkpt lat="43.309956" lon="-1.8903685">
        <time>2022-07-02T09:39:23Z</time>
      </trkpt>
      <trkpt lat="43.30998" lon="-1.8902615">
        <time>2022-07-02T09:39:25Z</time>
      </trkpt>
      <trkpt lat="43.309998" lon="-1.8901736">
        <time>2022-07-02T09:39:27Z</time>
      </trkpt>
      <trkpt lat="43.310013" lon="-1.8900882">
        <time>2022-07-02T09:39:29Z</time>
      </trkpt>
      <trkpt lat="43.310024" lon="-1.8900021">
        <time>2022-07-02T09:39:31Z</time>
      </trkpt>
      <trkpt lat="43.31004" lon="-1.8899212">
        <time>2022-07-02T09:39:33Z</time>
      </trkpt>
      <trkpt lat="43.31006" lon="-1.8898375">
        <time>2022-07-02T09:39:35Z</time>
      </trkpt>
      <trkpt lat="43.310062" lon="-1.8897482">
        <time>2022-07-02T09:39:37Z</time>
      </trkpt>
      <trkpt lat="43.310062" lon="-1.8896528">
        <time>2022-07-02T09:39:39Z</time>
      </trkpt>
      <trkpt lat="43.31006" lon="-1.8895541">
        <time>2022-07-02T09:39:41Z</time>
      </trkpt>
      <trkpt lat="43.310047" lon="-1.8894578">
        <time>2022-07-02T09:39:43Z</time>
      </trkpt>
      <trkpt lat="43.310043" lon="-1.8893459">
        <time>2022-07-02T09:39:45Z</time>
      </trkpt>
      <trkpt lat="43.310036" lon="-1.8892388">
        <time>2022-07-02T09:39:47Z</time>
      </trkpt>
      <trkpt lat="43.31003" lon="-1.8891342">
        <time>2022-07-02T09:39:49Z</time>
      </trkpt>
      <trkpt lat="43.31003" lon="-1.8890349">
        <time>2022-07-02T09:39:51Z</time>
      </trkpt>
      <trkpt lat="43.310028" lon="-1.8889226">
        <time>2022-07-02T09:39:53Z</time>
      </trkpt>
      <trkpt lat="43.310028" lon="-1.8888075">
        <time>2022-07-02T09:39:55Z</time>
      </trkpt>
      <trkpt lat="43.310024" lon="-1.8886912">
        <time>2022-07-02T09:39:57Z</time>
      </trkpt>
      <trkpt lat="43.310024" lon="-1.8885772">
        <time>2022-07-02T09:39:59Z</time>
      </trkpt>
      <trkpt lat="43.31003" lon="-1.8884712">
        <time>2022-07-02T09:40:01Z</time>
      </trkpt>
      <trkpt lat="43.31005" lon="-1.8883868">
        <time>2022-07-02T09:40:03Z</time>
      </trkpt>
      <trkpt lat="43.310085" lon="-1.8883215">
        <time>2022-07-02T09:40:05Z</time>
      </trkpt>
      <trkpt lat="43.310123" lon="-1.8882812">
        <time>2022-07-02T09:40:07Z</time>
      </trkpt>
      <trkpt lat="43.310192" lon="-1.8882239">
        <time>2022-07-02T09:40:10Z</time>
      </trkpt>
      <trkpt lat="43.310238" lon="-1.8881639">
        <time>2022-07-02T09:40:12Z</time>
      </trkpt>
      <trkpt lat="43.310272" lon="-1.8880899">
        <time>2022-07-02T09:40:14Z</time>
      </trkpt>
      <trkpt lat="43.310314" lon="-1.8879979">
        <time>2022-07-02T09:40:16Z</time>
      </trkpt>
      <trkpt lat="43.31036" lon="-1.8878982">
        <time>2022-07-02T09:40:18Z</time>
      </trkpt>
      <trkpt lat="43.310402" lon="-1.8878002">
        <time>2022-07-02T09:40:20Z</time>
      </trkpt>
      <trkpt lat="43.310444" lon="-1.8876996">
        <time>2022-07-02T09:40:22Z</time>
      </trkpt>
      <trkpt lat="43.31049" lon="-1.8875976">
        <time>2022-07-02T09:40:24Z</time>
      </trkpt>
      <trkpt lat="43.31053" lon="-1.8874989">
        <time>2022-07-02T09:40:26Z</time>
      </trkpt>
      <trkpt lat="43.310574" lon="-1.8873969">
        <time>2022-07-02T09:40:28Z</time>
      </trkpt>
      <trkpt lat="43.310604" lon="-1.8872843">
        <time>2022-07-02T09:40:30Z</time>
      </trkpt>
      <trkpt lat="43.310623" lon="-1.8871616">
        <time>2022-07-02T09:40:32Z</time>
      </trkpt>
      <trkpt lat="43.310635" lon="-1.8870323">
        <time>2022-07-02T09:40:34Z</time>
      </trkpt>
      <trkpt lat="43.310642" lon="-1.8869627">
        <time>2022-07-02T09:40:35Z</time>
      </trkpt>
      <trkpt lat="43.31065" lon="-1.886892">
        <time>2022-07-02T09:40:36Z</time>
      </trkpt>
      <trkpt lat="43.310658" lon="-1.8867539">
        <time>2022-07-02T09:40:38Z</time>
      </trkpt>
      <trkpt lat="43.31066" lon="-1.8866899">
        <time>2022-07-02T09:40:39Z</time>
      </trkpt>
      <trkpt lat="43.31067" lon="-1.8865672">
        <time>2022-07-02T09:40:41Z</time>
      </trkpt>
      <trkpt lat="43.31067" lon="-1.8864549">
        <time>2022-07-02T09:40:43Z</time>
      </trkpt>
      <trkpt lat="43.31067" lon="-1.886354">
        <time>2022-07-02T09:40:45Z</time>
      </trkpt>
      <trkpt lat="43.31067" lon="-1.8862649">
        <time>2022-07-02T09:40:47Z</time>
      </trkpt>
      <trkpt lat="43.310673" lon="-1.8861827">
        <time>2022-07-02T09:40:49Z</time>
      </trkpt>
      <trkpt lat="43.31068" lon="-1.8861029">
        <time>2022-07-02T09:40:51Z</time>
      </trkpt>
      <trkpt lat="43.310688" lon="-1.8860196">
        <time>2022-07-02T09:40:53Z</time>
      </trkpt>
      <trkpt lat="43.310696" lon="-1.885927">
        <time>2022-07-02T09:40:55Z</time>
      </trkpt>
      <trkpt lat="43.310703" lon="-1.8858263">
        <time>2022-07-02T09:40:57Z</time>
      </trkpt>
      <trkpt lat="43.310707" lon="-1.8857226">
        <time>2022-07-02T09:40:59Z</time>
      </trkpt>
      <trkpt lat="43.310707" lon="-1.885623">
        <time>2022-07-02T09:41:01Z</time>
      </trkpt>
      <trkpt lat="43.310703" lon="-1.88554">
        <time>2022-07-02T09:41:03Z</time>
      </trkpt>
      <trkpt lat="43.3107" lon="-1.885479">
        <time>2022-07-02T09:41:05Z</time>
      </trkpt>
      <trkpt lat="43.31069" lon="-1.8853867">
        <time>2022-07-02T09:41:08Z</time>
      </trkpt>
      <trkpt lat="43.310677" lon="-1.8853143">
        <time>2022-07-02T09:41:10Z</time>
      </trkpt>
      <trkpt lat="43.310665" lon="-1.8852327">
        <time>2022-07-02T09:41:12Z</time>
      </trkpt>
      <trkpt lat="43.310646" lon="-1.8851427">
        <time>2022-07-02T09:41:14Z</time>
      </trkpt>
      <trkpt lat="43.31063" lon="-1.8850493">
        <time>2022-07-02T09:41:16Z</time>
      </trkpt>
      <trkpt lat="43.310608" lon="-1.8849506">
        <time>2022-07-02T09:41:18Z</time>
      </trkpt>
      <trkpt lat="43.310585" lon="-1.884852">
        <time>2022-07-02T09:41:20Z</time>
      </trkpt>
      <trkpt lat="43.310555" lon="-1.8847567">
        <time>2022-07-02T09:41:22Z</time>
      </trkpt>
      <trkpt lat="43.310516" lon="-1.8846713">
        <time>2022-07-02T09:41:24Z</time>
      </trkpt>
      <trkpt lat="43.310467" lon="-1.8846037">
        <time>2022-07-02T09:41:26Z</time>
      </trkpt>
      <trkpt lat="43.31042" lon="-1.8845344">
        <time>2022-07-02T09:41:28Z</time>
      </trkpt>
      <trkpt lat="43.31038" lon="-1.8844607">
        <time>2022-07-02T09:41:30Z</time>
      </trkpt>
      <trkpt lat="43.31034" lon="-1.8843907">
        <time>2022-07-02T09:41:32Z</time>
      </trkpt>
      <trkpt lat="43.310295" lon="-1.8843263">
        <time>2022-07-02T09:41:34Z</time>
      </trkpt>
      <trkpt lat="43.310246" lon="-1.8842621">
        <time>2022-07-02T09:41:36Z</time>
      </trkpt>
      <trkpt lat="43.310196" lon="-1.884197">
        <time>2022-07-02T09:41:38Z</time>
      </trkpt>
      <trkpt lat="43.31015" lon="-1.884148">
        <time>2022-07-02T09:41:40Z</time>
      </trkpt>
      <trkpt lat="43.31011" lon="-1.8841298">
        <time>2022-07-02T09:41:42Z</time>
      </trkpt>
      <trkpt lat="43.31005" lon="-1.8841513">
        <time>2022-07-02T09:41:45Z</time>
      </trkpt>
      <trkpt lat="43.309998" lon="-1.8841671">
        <time>2022-07-02T09:41:48Z</time>
      </trkpt>
      <trkpt lat="43.309967" lon="-1.8841153">
        <time>2022-07-02T09:41:52Z</time>
      </trkpt>
      <trkpt lat="43.309948" lon="-1.8840383">
        <time>2022-07-02T09:41:56Z</time>
      </trkpt>
      <trkpt lat="43.309914" lon="-1.8839988">
        <time>2022-07-02T09:43:47Z</time>
      </trkpt>
      <trkpt lat="43.309883" lon="-1.8840737">
        <time>2022-07-02T09:43:49Z</time>
      </trkpt>
      <trkpt lat="43.30984" lon="-1.8841578">
        <time>2022-07-02T09:43:51Z</time>
      </trkpt>
      <trkpt lat="43.3098" lon="-1.8842344">
        <time>2022-07-02T09:43:53Z</time>
      </trkpt>
      <trkpt lat="43.30976" lon="-1.8842754">
        <time>2022-07-02T09:43:55Z</time>
      </trkpt>
      <trkpt lat="43.3097" lon="-1.884269">
        <time>2022-07-02T09:43:58Z</time>
      </trkpt>
      <trkpt lat="43.309643" lon="-1.8842233">
        <time>2022-07-02T09:44:01Z</time>
      </trkpt>
      <trkpt lat="43.309578" lon="-1.8841624">
        <time>2022-07-02T09:44:04Z</time>
      </trkpt>
      <trkpt lat="43.309532" lon="-1.8841134">
        <time>2022-07-02T09:44:06Z</time>
      </trkpt>
      <trkpt lat="43.309494" lon="-1.8840611">
        <time>2022-07-02T09:44:08Z</time>
      </trkpt>
      <trkpt lat="43.30944" lon="-1.8840147">
        <time>2022-07-02T09:44:10Z</time>
      </trkpt>
      <trkpt lat="43.30939" lon="-1.883988">
        <time>2022-07-02T09:44:12Z</time>
      </trkpt>
      <trkpt lat="43.30931" lon="-1.8839927">
        <time>2022-07-02T09:44:15Z</time>
      </trkpt>
      <trkpt lat="43.309254" lon="-1.8839977">
        <time>2022-07-02T09:44:17Z</time>
      </trkpt>
      <trkpt lat="43.309193" lon="-1.884001">
        <time>2022-07-02T09:44:19Z</time>
      </trkpt>
      <trkpt lat="43.309128" lon="-1.884001">
        <time>2022-07-02T09:44:21Z</time>
      </trkpt>
      <trkpt lat="43.309063" lon="-1.8839971">
        <time>2022-07-02T09:44:23Z</time>
      </trkpt>
      <trkpt lat="43.309" lon="-1.8839993">
        <time>2022-07-02T09:44:25Z</time>
      </trkpt>
      <trkpt lat="43.30893" lon="-1.884008">
        <time>2022-07-02T09:44:27Z</time>
      </trkpt>
      <trkpt lat="43.308846" lon="-1.8840301">
        <time>2022-07-02T09:44:29Z</time>
      </trkpt>
      <trkpt lat="43.308743" lon="-1.8840563">
        <time>2022-07-02T09:44:31Z</time>
      </trkpt>
      <trkpt lat="43.30869" lon="-1.8840684">
        <time>2022-07-02T09:44:32Z</time>
      </trkpt>
      <trkpt lat="43.308636" lon="-1.8840793">
        <time>2022-07-02T09:44:33Z</time>
      </trkpt>
      <trkpt lat="43.308582" lon="-1.8840884">
        <time>2022-07-02T09:44:34Z</time>
      </trkpt>
      <trkpt lat="43.308533" lon="-1.8840951">
        <time>2022-07-02T09:44:35Z</time>
      </trkpt>
      <trkpt lat="43.308483" lon="-1.8841017">
        <time>2022-07-02T09:44:36Z</time>
      </trkpt>
      <trkpt lat="43.30841" lon="-1.8841267">
        <time>2022-07-02T09:44:38Z</time>
      </trkpt>
      <trkpt lat="43.30834" lon="-1.8841491">
        <time>2022-07-02T09:44:40Z</time>
      </trkpt>
      <trkpt lat="43.30826" lon="-1.8841671">
        <time>2022-07-02T09:44:42Z</time>
      </trkpt>
      <trkpt lat="43.30819" lon="-1.8841814">
        <time>2022-07-02T09:44:44Z</time>
      </trkpt>
      <trkpt lat="43.30811" lon="-1.8841933">
        <time>2022-07-02T09:44:46Z</time>
      </trkpt>
      <trkpt lat="43.308025" lon="-1.8842291">
        <time>2022-07-02T09:44:48Z</time>
      </trkpt>
      <trkpt lat="43.30795" lon="-1.8842506">
        <time>2022-07-02T09:44:50Z</time>
      </trkpt>
      <trkpt lat="43.307888" lon="-1.884257">
        <time>2022-07-02T09:44:52Z</time>
      </trkpt>
      <trkpt lat="43.30782" lon="-1.884267">
        <time>2022-07-02T09:44:54Z</time>
      </trkpt>
      <trkpt lat="43.307743" lon="-1.884284">
        <time>2022-07-02T09:44:56Z</time>
      </trkpt>
      <trkpt lat="43.307655" lon="-1.8842983">
        <time>2022-07-02T09:44:58Z</time>
      </trkpt>
      <trkpt lat="43.3076" lon="-1.8843017">
        <time>2022-07-02T09:44:59Z</time>
      </trkpt>
      <trkpt lat="43.307533" lon="-1.8842903">
        <time>2022-07-02T09:45:01Z</time>
      </trkpt>
      <trkpt lat="43.307476" lon="-1.8842753">
        <time>2022-07-02T09:45:02Z</time>
      </trkpt>
      <trkpt lat="43.30743" lon="-1.8842617">
        <time>2022-07-02T09:45:03Z</time>
      </trkpt>
      <trkpt lat="43.30735" lon="-1.8842443">
        <time>2022-07-02T09:45:05Z</time>
      </trkpt>
      <trkpt lat="43.30727" lon="-1.8842293">
        <time>2022-07-02T09:45:07Z</time>
      </trkpt>
      <trkpt lat="43.307186" lon="-1.8842204">
        <time>2022-07-02T09:45:09Z</time>
      </trkpt>
      <trkpt lat="43.307106" lon="-1.8842293">
        <time>2022-07-02T09:45:11Z</time>
      </trkpt>
      <trkpt lat="43.307034" lon="-1.884245">
        <time>2022-07-02T09:45:13Z</time>
      </trkpt>
      <trkpt lat="43.306957" lon="-1.884267">
        <time>2022-07-02T09:45:15Z</time>
      </trkpt>
      <trkpt lat="43.30689" lon="-1.8842913">
        <time>2022-07-02T09:45:17Z</time>
      </trkpt>
      <trkpt lat="43.306816" lon="-1.8843336">
        <time>2022-07-02T09:45:19Z</time>
      </trkpt>
      <trkpt lat="43.30675" lon="-1.8843893">
        <time>2022-07-02T09:45:21Z</time>
      </trkpt>
      <trkpt lat="43.30669" lon="-1.8844464">
        <time>2022-07-02T09:45:23Z</time>
      </trkpt>
      <trkpt lat="43.30663" lon="-1.8845097">
        <time>2022-07-02T09:45:25Z</time>
      </trkpt>
      <trkpt lat="43.30657" lon="-1.8845797">
        <time>2022-07-02T09:45:27Z</time>
      </trkpt>
      <trkpt lat="43.30651" lon="-1.8846496">
        <time>2022-07-02T09:45:29Z</time>
      </trkpt>
      <trkpt lat="43.306454" lon="-1.8847183">
        <time>2022-07-02T09:45:31Z</time>
      </trkpt>
      <trkpt lat="43.306396" lon="-1.8847797">
        <time>2022-07-02T09:45:33Z</time>
      </trkpt>
      <trkpt lat="43.30634" lon="-1.8848373">
        <time>2022-07-02T09:45:35Z</time>
      </trkpt>
      <trkpt lat="43.306293" lon="-1.884902">
        <time>2022-07-02T09:45:37Z</time>
      </trkpt>
      <trkpt lat="43.306267" lon="-1.884975">
        <time>2022-07-02T09:45:39Z</time>
      </trkpt>
      <trkpt lat="43.306244" lon="-1.885056">
        <time>2022-07-02T09:45:41Z</time>
      </trkpt>
      <trkpt lat="43.306225" lon="-1.8851486">
        <time>2022-07-02T09:45:43Z</time>
      </trkpt>
      <trkpt lat="43.30621" lon="-1.8852453">
        <time>2022-07-02T09:45:45Z</time>
      </trkpt>
      <trkpt lat="43.306202" lon="-1.885343">
        <time>2022-07-02T09:45:47Z</time>
      </trkpt>
      <trkpt lat="43.306187" lon="-1.8854402">
        <time>2022-07-02T09:45:49Z</time>
      </trkpt>
      <trkpt lat="43.30616" lon="-1.885536">
        <time>2022-07-02T09:45:51Z</time>
      </trkpt>
      <trkpt lat="43.306126" lon="-1.8856249">
        <time>2022-07-02T09:45:53Z</time>
      </trkpt>
      <trkpt lat="43.306084" lon="-1.8857149">
        <time>2022-07-02T09:45:55Z</time>
      </trkpt>
      <trkpt lat="43.306026" lon="-1.8858026">
        <time>2022-07-02T09:45:57Z</time>
      </trkpt>
      <trkpt lat="43.305958" lon="-1.8858786">
        <time>2022-07-02T09:45:59Z</time>
      </trkpt>
      <trkpt lat="43.30588" lon="-1.885929">
        <time>2022-07-02T09:46:01Z</time>
      </trkpt>
      <trkpt lat="43.305794" lon="-1.8859665">
        <time>2022-07-02T09:46:03Z</time>
      </trkpt>
      <trkpt lat="43.305706" lon="-1.8859992">
        <time>2022-07-02T09:46:05Z</time>
      </trkpt>
      <trkpt lat="43.30562" lon="-1.8860335">
        <time>2022-07-02T09:46:07Z</time>
      </trkpt>
      <trkpt lat="43.305527" lon="-1.886061">
        <time>2022-07-02T09:46:09Z</time>
      </trkpt>
      <trkpt lat="43.305435" lon="-1.8860749">
        <time>2022-07-02T09:46:11Z</time>
      </trkpt>
      <trkpt lat="43.305344" lon="-1.8860879">
        <time>2022-07-02T09:46:13Z</time>
      </trkpt>
      <trkpt lat="43.305256" lon="-1.8860905">
        <time>2022-07-02T09:46:15Z</time>
      </trkpt>
      <trkpt lat="43.30517" lon="-1.8860862">
        <time>2022-07-02T09:46:17Z</time>
      </trkpt>
      <trkpt lat="43.305077" lon="-1.8860782">
        <time>2022-07-02T09:46:19Z</time>
      </trkpt>
      <trkpt lat="43.30498" lon="-1.8860595">
        <time>2022-07-02T09:46:21Z</time>
      </trkpt>
      <trkpt lat="43.304893" lon="-1.886022">
        <time>2022-07-02T09:46:23Z</time>
      </trkpt>
      <trkpt lat="43.3048" lon="-1.8859706">
        <time>2022-07-02T09:46:25Z</time>
      </trkpt>
      <trkpt lat="43.304714" lon="-1.8859086">
        <time>2022-07-02T09:46:27Z</time>
      </trkpt>
      <trkpt lat="43.30463" lon="-1.8858516">
        <time>2022-07-02T09:46:29Z</time>
      </trkpt>
      <trkpt lat="43.30454" lon="-1.8858013">
        <time>2022-07-02T09:46:31Z</time>
      </trkpt>
      <trkpt lat="43.304455" lon="-1.8857507">
        <time>2022-07-02T09:46:33Z</time>
      </trkpt>
      <trkpt lat="43.304386" lon="-1.8857056">
        <time>2022-07-02T09:46:35Z</time>
      </trkpt>
      <trkpt lat="43.304348" lon="-1.8856796">
        <time>2022-07-02T09:46:38Z</time>
      </trkpt>
      <trkpt lat="43.304264" lon="-1.8855556">
        <time>2022-07-02T09:47:50Z</time>
      </trkpt>
      <trkpt lat="43.30421" lon="-1.885515">
        <time>2022-07-02T09:47:52Z</time>
      </trkpt>
      <trkpt lat="43.30415" lon="-1.8854699">
        <time>2022-07-02T09:47:54Z</time>
      </trkpt>
      <trkpt lat="43.30408" lon="-1.8854326">
        <time>2022-07-02T09:47:56Z</time>
      </trkpt>
      <trkpt lat="43.304012" lon="-1.8854003">
        <time>2022-07-02T09:47:58Z</time>
      </trkpt>
      <trkpt lat="43.30394" lon="-1.8853669">
        <time>2022-07-02T09:48:00Z</time>
      </trkpt>
      <trkpt lat="43.30387" lon="-1.8853257">
        <time>2022-07-02T09:48:02Z</time>
      </trkpt>
      <trkpt lat="43.303802" lon="-1.8852843">
        <time>2022-07-02T09:48:04Z</time>
      </trkpt>
      <trkpt lat="43.30373" lon="-1.8852513">
        <time>2022-07-02T09:48:06Z</time>
      </trkpt>
      <trkpt lat="43.303665" lon="-1.885211">
        <time>2022-07-02T09:48:08Z</time>
      </trkpt>
      <trkpt lat="43.303608" lon="-1.8851663">
        <time>2022-07-02T09:48:10Z</time>
      </trkpt>
      <trkpt lat="43.30355" lon="-1.885124">
        <time>2022-07-02T09:48:12Z</time>
      </trkpt>
      <trkpt lat="43.303497" lon="-1.8850853">
        <time>2022-07-02T09:48:14Z</time>
      </trkpt>
      <trkpt lat="43.303448" lon="-1.8850513">
        <time>2022-07-02T09:48:16Z</time>
      </trkpt>
      <trkpt lat="43.30338" lon="-1.885008">
        <time>2022-07-02T09:48:19Z</time>
      </trkpt>
      <trkpt lat="43.303314" lon="-1.8849707">
        <time>2022-07-02T09:48:22Z</time>
      </trkpt>
      <trkpt lat="43.30327" lon="-1.8849363">
        <time>2022-07-02T09:48:24Z</time>
      </trkpt>
      <trkpt lat="43.30321" lon="-1.884905">
        <time>2022-07-02T09:48:26Z</time>
      </trkpt>
      <trkpt lat="43.303154" lon="-1.884882">
        <time>2022-07-02T09:48:28Z</time>
      </trkpt>
      <trkpt lat="43.303093" lon="-1.8848617">
        <time>2022-07-02T09:48:30Z</time>
      </trkpt>
      <trkpt lat="43.303043" lon="-1.884834">
        <time>2022-07-02T09:48:32Z</time>
      </trkpt>
      <trkpt lat="43.303" lon="-1.884799">
        <time>2022-07-02T09:48:34Z</time>
      </trkpt>
      <trkpt lat="43.302967" lon="-1.884751">
        <time>2022-07-02T09:48:37Z</time>
      </trkpt>
      <trkpt lat="43.302982" lon="-1.8846503">
        <time>2022-07-02T09:48:41Z</time>
      </trkpt>
      <trkpt lat="43.303017" lon="-1.8845347">
        <time>2022-07-02T09:48:44Z</time>
      </trkpt>
      <trkpt lat="43.303047" lon="-1.88443">
        <time>2022-07-02T09:48:46Z</time>
      </trkpt>
      <trkpt lat="43.303074" lon="-1.8843204">
        <time>2022-07-02T09:48:48Z</time>
      </trkpt>
      <trkpt lat="43.303112" lon="-1.8842087">
        <time>2022-07-02T09:48:50Z</time>
      </trkpt>
      <trkpt lat="43.303143" lon="-1.8841037">
        <time>2022-07-02T09:48:52Z</time>
      </trkpt>
      <trkpt lat="43.303177" lon="-1.8840017">
        <time>2022-07-02T09:48:54Z</time>
      </trkpt>
      <trkpt lat="43.303207" lon="-1.8838987">
        <time>2022-07-02T09:48:56Z</time>
      </trkpt>
      <trkpt lat="43.303234" lon="-1.8837796">
        <time>2022-07-02T09:48:58Z</time>
      </trkpt>
      <trkpt lat="43.30325" lon="-1.8836584">
        <time>2022-07-02T09:49:00Z</time>
      </trkpt>
      <trkpt lat="43.303253" lon="-1.8835404">
        <time>2022-07-02T09:49:02Z</time>
      </trkpt>
      <trkpt lat="43.30325" lon="-1.8834317">
        <time>2022-07-02T09:49:04Z</time>
      </trkpt>
      <trkpt lat="43.30324" lon="-1.8833383">
        <time>2022-07-02T09:49:06Z</time>
      </trkpt>
      <trkpt lat="43.303238" lon="-1.8832364">
        <time>2022-07-02T09:49:08Z</time>
      </trkpt>
      <trkpt lat="43.303234" lon="-1.8831323">
        <time>2022-07-02T09:49:10Z</time>
      </trkpt>
      <trkpt lat="43.30323" lon="-1.883025">
        <time>2022-07-02T09:49:12Z</time>
      </trkpt>
      <trkpt lat="43.303226" lon="-1.8829124">
        <time>2022-07-02T09:49:14Z</time>
      </trkpt>
      <trkpt lat="43.303223" lon="-1.882802">
        <time>2022-07-02T09:49:16Z</time>
      </trkpt>
      <trkpt lat="43.303215" lon="-1.8826951">
        <time>2022-07-02T09:49:18Z</time>
      </trkpt>
      <trkpt lat="43.303215" lon="-1.8826168">
        <time>2022-07-02T09:49:20Z</time>
      </trkpt>
      <trkpt lat="43.303226" lon="-1.8825088">
        <time>2022-07-02T09:49:23Z</time>
      </trkpt>
      <trkpt lat="43.303246" lon="-1.8823867">
        <time>2022-07-02T09:49:26Z</time>
      </trkpt>
      <trkpt lat="43.303226" lon="-1.8823144">
        <time>2022-07-02T09:49:28Z</time>
      </trkpt>
      <trkpt lat="43.303185" lon="-1.8822681">
        <time>2022-07-02T09:49:30Z</time>
      </trkpt>
      <trkpt lat="43.303127" lon="-1.88223">
        <time>2022-07-02T09:49:32Z</time>
      </trkpt>
      <trkpt lat="43.303074" lon="-1.8821961">
        <time>2022-07-02T09:49:34Z</time>
      </trkpt>
      <trkpt lat="43.303024" lon="-1.8821604">
        <time>2022-07-02T09:49:36Z</time>
      </trkpt>
      <trkpt lat="43.30298" lon="-1.8821174">
        <time>2022-07-02T09:49:38Z</time>
      </trkpt>
      <trkpt lat="43.302917" lon="-1.8820524">
        <time>2022-07-02T09:49:41Z</time>
      </trkpt>
      <trkpt lat="43.30288" lon="-1.882006">
        <time>2022-07-02T09:49:43Z</time>
      </trkpt>
      <trkpt lat="43.302826" lon="-1.8819331">
        <time>2022-07-02T09:49:46Z</time>
      </trkpt>
      <trkpt lat="43.30279" lon="-1.8818808">
        <time>2022-07-02T09:49:48Z</time>
      </trkpt>
      <trkpt lat="43.30276" lon="-1.8818301">
        <time>2022-07-02T09:49:50Z</time>
      </trkpt>
      <trkpt lat="43.30272" lon="-1.8817531">
        <time>2022-07-02T09:49:53Z</time>
      </trkpt>
      <trkpt lat="43.302677" lon="-1.881687">
        <time>2022-07-02T09:49:56Z</time>
      </trkpt>
      <trkpt lat="43.302643" lon="-1.8816295">
        <time>2022-07-02T09:49:59Z</time>
      </trkpt>
      <trkpt lat="43.302612" lon="-1.8815675">
        <time>2022-07-02T09:50:02Z</time>
      </trkpt>
      <trkpt lat="43.302555" lon="-1.8815057">
        <time>2022-07-02T09:50:05Z</time>
      </trkpt>
      <trkpt lat="43.30251" lon="-1.8814481">
        <time>2022-07-02T09:50:07Z</time>
      </trkpt>
      <trkpt lat="43.30248" lon="-1.8813767">
        <time>2022-07-02T09:50:09Z</time>
      </trkpt>
      <trkpt lat="43.302452" lon="-1.8812968">
        <time>2022-07-02T09:50:11Z</time>
      </trkpt>
      <trkpt lat="43.30242" lon="-1.8812191">
        <time>2022-07-02T09:50:13Z</time>
      </trkpt>
      <trkpt lat="43.302395" lon="-1.8811414">
        <time>2022-07-02T09:50:15Z</time>
      </trkpt>
      <trkpt lat="43.302357" lon="-1.8810581">
        <time>2022-07-02T09:50:17Z</time>
      </trkpt>
      <trkpt lat="43.30232" lon="-1.8809744">
        <time>2022-07-02T09:50:19Z</time>
      </trkpt>
      <trkpt lat="43.30228" lon="-1.8808784">
        <time>2022-07-02T09:50:21Z</time>
      </trkpt>
      <trkpt lat="43.30223" lon="-1.8807918">
        <time>2022-07-02T09:50:23Z</time>
      </trkpt>
      <trkpt lat="43.302166" lon="-1.8807145">
        <time>2022-07-02T09:50:25Z</time>
      </trkpt>
      <trkpt lat="43.3021" lon="-1.8806235">
        <time>2022-07-02T09:50:27Z</time>
      </trkpt>
      <trkpt lat="43.302032" lon="-1.8805351">
        <time>2022-07-02T09:50:29Z</time>
      </trkpt>
      <trkpt lat="43.301964" lon="-1.8804505">
        <time>2022-07-02T09:50:31Z</time>
      </trkpt>
      <trkpt lat="43.30193" lon="-1.8804095">
        <time>2022-07-02T09:50:32Z</time>
      </trkpt>
      <trkpt lat="43.301865" lon="-1.8803219">
        <time>2022-07-02T09:50:34Z</time>
      </trkpt>
      <trkpt lat="43.301834" lon="-1.8802755">
        <time>2022-07-02T09:50:35Z</time>
      </trkpt>
      <trkpt lat="43.301773" lon="-1.8801779">
        <time>2022-07-02T09:50:37Z</time>
      </trkpt>
      <trkpt lat="43.301716" lon="-1.8800708">
        <time>2022-07-02T09:50:39Z</time>
      </trkpt>
      <trkpt lat="43.30167" lon="-1.8799626">
        <time>2022-07-02T09:50:41Z</time>
      </trkpt>
      <trkpt lat="43.30164" lon="-1.8798479">
        <time>2022-07-02T09:50:43Z</time>
      </trkpt>
      <trkpt lat="43.301624" lon="-1.8797312">
        <time>2022-07-02T09:50:45Z</time>
      </trkpt>
      <trkpt lat="43.301613" lon="-1.8796239">
        <time>2022-07-02T09:50:47Z</time>
      </trkpt>
      <trkpt lat="43.301613" lon="-1.8795162">
        <time>2022-07-02T09:50:49Z</time>
      </trkpt>
      <trkpt lat="43.301624" lon="-1.8794069">
        <time>2022-07-02T09:50:51Z</time>
      </trkpt>
      <trkpt lat="43.30164" lon="-1.8792809">
        <time>2022-07-02T09:50:53Z</time>
      </trkpt>
      <trkpt lat="43.301662" lon="-1.8791518">
        <time>2022-07-02T09:50:55Z</time>
      </trkpt>
      <trkpt lat="43.301685" lon="-1.8790262">
        <time>2022-07-02T09:50:57Z</time>
      </trkpt>
      <trkpt lat="43.301697" lon="-1.8789592">
        <time>2022-07-02T09:50:58Z</time>
      </trkpt>
      <trkpt lat="43.301723" lon="-1.8788265">
        <time>2022-07-02T09:51:00Z</time>
      </trkpt>
      <trkpt lat="43.301746" lon="-1.8787003">
        <time>2022-07-02T09:51:02Z</time>
      </trkpt>
      <trkpt lat="43.301773" lon="-1.8785589">
        <time>2022-07-02T09:51:04Z</time>
      </trkpt>
      <trkpt lat="43.301785" lon="-1.878488">
        <time>2022-07-02T09:51:05Z</time>
      </trkpt>
      <trkpt lat="43.301792" lon="-1.878421">
        <time>2022-07-02T09:51:06Z</time>
      </trkpt>
      <trkpt lat="43.301804" lon="-1.8782762">
        <time>2022-07-02T09:51:08Z</time>
      </trkpt>
      <trkpt lat="43.301804" lon="-1.8782052">
        <time>2022-07-02T09:51:09Z</time>
      </trkpt>
      <trkpt lat="43.3018" lon="-1.8781343">
        <time>2022-07-02T09:51:10Z</time>
      </trkpt>
      <trkpt lat="43.301796" lon="-1.8780679">
        <time>2022-07-02T09:51:11Z</time>
      </trkpt>
      <trkpt lat="43.301785" lon="-1.8779249">
        <time>2022-07-02T09:51:13Z</time>
      </trkpt>
      <trkpt lat="43.301773" lon="-1.8778539">
        <time>2022-07-02T09:51:14Z</time>
      </trkpt>
      <trkpt lat="43.301758" lon="-1.8777833">
        <time>2022-07-02T09:51:15Z</time>
      </trkpt>
      <trkpt lat="43.30173" lon="-1.8776406">
        <time>2022-07-02T09:51:17Z</time>
      </trkpt>
      <trkpt lat="43.301716" lon="-1.8775696">
        <time>2022-07-02T09:51:18Z</time>
      </trkpt>
      <trkpt lat="43.3017" lon="-1.8774989">
        <time>2022-07-02T09:51:19Z</time>
      </trkpt>
      <trkpt lat="43.30168" lon="-1.8774283">
        <time>2022-07-02T09:51:20Z</time>
      </trkpt>
      <trkpt lat="43.301662" lon="-1.8773586">
        <time>2022-07-02T09:51:21Z</time>
      </trkpt>
      <trkpt lat="43.301643" lon="-1.8772897">
        <time>2022-07-02T09:51:22Z</time>
      </trkpt>
      <trkpt lat="43.30162" lon="-1.8772233">
        <time>2022-07-02T09:51:23Z</time>
      </trkpt>
      <trkpt lat="43.301563" lon="-1.877098">
        <time>2022-07-02T09:51:25Z</time>
      </trkpt>
      <trkpt lat="43.30153" lon="-1.8770403">
        <time>2022-07-02T09:51:26Z</time>
      </trkpt>
      <trkpt lat="43.301495" lon="-1.8769853">
        <time>2022-07-02T09:51:27Z</time>
      </trkpt>
      <trkpt lat="43.301453" lon="-1.8769333">
        <time>2022-07-02T09:51:28Z</time>
      </trkpt>
      <trkpt lat="43.301414" lon="-1.8768842">
        <time>2022-07-02T09:51:29Z</time>
      </trkpt>
      <trkpt lat="43.30137" lon="-1.8768376">
        <time>2022-07-02T09:51:30Z</time>
      </trkpt>
      <trkpt lat="43.301323" lon="-1.8767943">
        <time>2022-07-02T09:51:31Z</time>
      </trkpt>
      <trkpt lat="43.30123" lon="-1.8767213">
        <time>2022-07-02T09:51:33Z</time>
      </trkpt>
      <trkpt lat="43.301186" lon="-1.8766897">
        <time>2022-07-02T09:51:34Z</time>
      </trkpt>
      <trkpt lat="43.30109" lon="-1.876627">
        <time>2022-07-02T09:51:36Z</time>
      </trkpt>
      <trkpt lat="43.30104" lon="-1.8765943">
        <time>2022-07-02T09:51:37Z</time>
      </trkpt>
      <trkpt lat="43.300995" lon="-1.8765609">
        <time>2022-07-02T09:51:38Z</time>
      </trkpt>
      <trkpt lat="43.30095" lon="-1.876527">
        <time>2022-07-02T09:51:39Z</time>
      </trkpt>
      <trkpt lat="43.300903" lon="-1.8764937">
        <time>2022-07-02T09:51:40Z</time>
      </trkpt>
      <trkpt lat="43.300854" lon="-1.876462">
        <time>2022-07-02T09:51:41Z</time>
      </trkpt>
      <trkpt lat="43.30076" lon="-1.8764004">
        <time>2022-07-02T09:51:43Z</time>
      </trkpt>
      <trkpt lat="43.30067" lon="-1.8763397">
        <time>2022-07-02T09:51:45Z</time>
      </trkpt>
      <trkpt lat="43.300587" lon="-1.8762803">
        <time>2022-07-02T09:51:47Z</time>
      </trkpt>
      <trkpt lat="43.300503" lon="-1.876225">
        <time>2022-07-02T09:51:49Z</time>
      </trkpt>
      <trkpt lat="43.300415" lon="-1.8761737">
        <time>2022-07-02T09:51:51Z</time>
      </trkpt>
      <trkpt lat="43.30033" lon="-1.876125">
        <time>2022-07-02T09:51:53Z</time>
      </trkpt>
      <trkpt lat="43.30024" lon="-1.8760707">
        <time>2022-07-02T09:51:55Z</time>
      </trkpt>
      <trkpt lat="43.300194" lon="-1.876044">
        <time>2022-07-02T09:51:56Z</time>
      </trkpt>
      <trkpt lat="43.300106" lon="-1.8759937">
        <time>2022-07-02T09:51:58Z</time>
      </trkpt>
      <trkpt lat="43.300022" lon="-1.8759453">
        <time>2022-07-02T09:52:00Z</time>
      </trkpt>
      <trkpt lat="43.299942" lon="-1.8759034">
        <time>2022-07-02T09:52:02Z</time>
      </trkpt>
      <trkpt lat="43.299862" lon="-1.875869">
        <time>2022-07-02T09:52:04Z</time>
      </trkpt>
      <trkpt lat="43.29978" lon="-1.875831">
        <time>2022-07-02T09:52:06Z</time>
      </trkpt>
      <trkpt lat="43.299694" lon="-1.8757794">
        <time>2022-07-02T09:52:08Z</time>
      </trkpt>
      <trkpt lat="43.299614" lon="-1.8757213">
        <time>2022-07-02T09:52:10Z</time>
      </trkpt>
      <trkpt lat="43.29953" lon="-1.875656">
        <time>2022-07-02T09:52:12Z</time>
      </trkpt>
      <trkpt lat="43.29945" lon="-1.8755884">
        <time>2022-07-02T09:52:14Z</time>
      </trkpt>
      <trkpt lat="43.299374" lon="-1.8755187">
        <time>2022-07-02T09:52:16Z</time>
      </trkpt>
      <trkpt lat="43.2993" lon="-1.8754461">
        <time>2022-07-02T09:52:18Z</time>
      </trkpt>
      <trkpt lat="43.29923" lon="-1.8753635">
        <time>2022-07-02T09:52:20Z</time>
      </trkpt>
      <trkpt lat="43.299152" lon="-1.8752841">
        <time>2022-07-02T09:52:22Z</time>
      </trkpt>
      <trkpt lat="43.29908" lon="-1.8752201">
        <time>2022-07-02T09:52:24Z</time>
      </trkpt>
      <trkpt lat="43.29901" lon="-1.8751627">
        <time>2022-07-02T09:52:26Z</time>
      </trkpt>
      <trkpt lat="43.298943" lon="-1.8751061">
        <time>2022-07-02T09:52:28Z</time>
      </trkpt>
      <trkpt lat="43.298874" lon="-1.8750578">
        <time>2022-07-02T09:52:30Z</time>
      </trkpt>
      <trkpt lat="43.298817" lon="-1.8750191">
        <time>2022-07-02T09:52:32Z</time>
      </trkpt>
      <trkpt lat="43.298756" lon="-1.874981">
        <time>2022-07-02T09:52:34Z</time>
      </trkpt>
      <trkpt lat="43.29868" lon="-1.8749335">
        <time>2022-07-02T09:52:37Z</time>
      </trkpt>
      <trkpt lat="43.298615" lon="-1.8748904">
        <time>2022-07-02T09:52:40Z</time>
      </trkpt>
      <trkpt lat="43.29856" lon="-1.8748498">
        <time>2022-07-02T09:52:43Z</time>
      </trkpt>
      <trkpt lat="43.298515" lon="-1.8748088">
        <time>2022-07-02T09:52:46Z</time>
      </trkpt>
      <trkpt lat="43.29848" lon="-1.8747635">
        <time>2022-07-02T09:52:49Z</time>
      </trkpt>
      <trkpt lat="43.298386" lon="-1.8746668">
        <time>2022-07-02T09:53:38Z</time>
      </trkpt>
      <trkpt lat="43.298336" lon="-1.8746028">
        <time>2022-07-02T09:53:40Z</time>
      </trkpt>
      <trkpt lat="43.29828" lon="-1.8745311">
        <time>2022-07-02T09:53:42Z</time>
      </trkpt>
      <trkpt lat="43.29822" lon="-1.8744595">
        <time>2022-07-02T09:53:44Z</time>
      </trkpt>
      <trkpt lat="43.298164" lon="-1.8743908">
        <time>2022-07-02T09:53:46Z</time>
      </trkpt>
      <trkpt lat="43.298107" lon="-1.8743198">
        <time>2022-07-02T09:53:48Z</time>
      </trkpt>
      <trkpt lat="43.298042" lon="-1.8742465">
        <time>2022-07-02T09:53:50Z</time>
      </trkpt>
      <trkpt lat="43.29798" lon="-1.8741672">
        <time>2022-07-02T09:53:52Z</time>
      </trkpt>
      <trkpt lat="43.297924" lon="-1.8740891">
        <time>2022-07-02T09:53:54Z</time>
      </trkpt>
      <trkpt lat="43.297867" lon="-1.8740091">
        <time>2022-07-02T09:53:56Z</time>
      </trkpt>
      <trkpt lat="43.297806" lon="-1.8739291">
        <time>2022-07-02T09:53:58Z</time>
      </trkpt>
      <trkpt lat="43.297745" lon="-1.8738528">
        <time>2022-07-02T09:54:00Z</time>
      </trkpt>
      <trkpt lat="43.29769" lon="-1.8737701">
        <time>2022-07-02T09:54:02Z</time>
      </trkpt>
      <trkpt lat="43.297634" lon="-1.8736868">
        <time>2022-07-02T09:54:04Z</time>
      </trkpt>
      <trkpt lat="43.297577" lon="-1.8736025">
        <time>2022-07-02T09:54:06Z</time>
      </trkpt>
      <trkpt lat="43.29752" lon="-1.8735192">
        <time>2022-07-02T09:54:08Z</time>
      </trkpt>
      <trkpt lat="43.297462" lon="-1.8734398">
        <time>2022-07-02T09:54:10Z</time>
      </trkpt>
      <trkpt lat="43.297394" lon="-1.8733625">
        <time>2022-07-02T09:54:12Z</time>
      </trkpt>
      <trkpt lat="43.29733" lon="-1.8732972">
        <time>2022-07-02T09:54:14Z</time>
      </trkpt>
      <trkpt lat="43.297264" lon="-1.8732239">
        <time>2022-07-02T09:54:16Z</time>
      </trkpt>
      <trkpt lat="43.297203" lon="-1.8731558">
        <time>2022-07-02T09:54:18Z</time>
      </trkpt>
      <trkpt lat="43.297142" lon="-1.8730849">
        <time>2022-07-02T09:54:20Z</time>
      </trkpt>
      <trkpt lat="43.297085" lon="-1.8730075">
        <time>2022-07-02T09:54:22Z</time>
      </trkpt>
      <trkpt lat="43.29703" lon="-1.8729279">
        <time>2022-07-02T09:54:24Z</time>
      </trkpt>
      <trkpt lat="43.296974" lon="-1.8728459">
        <time>2022-07-02T09:54:26Z</time>
      </trkpt>
      <trkpt lat="43.296925" lon="-1.8727618">
        <time>2022-07-02T09:54:28Z</time>
      </trkpt>
      <trkpt lat="43.29688" lon="-1.8726739">
        <time>2022-07-02T09:54:30Z</time>
      </trkpt>
      <trkpt lat="43.296837" lon="-1.8725896">
        <time>2022-07-02T09:54:32Z</time>
      </trkpt>
      <trkpt lat="43.296803" lon="-1.8725065">
        <time>2022-07-02T09:54:34Z</time>
      </trkpt>
      <trkpt lat="43.296776" lon="-1.8723729">
        <time>2022-07-02T09:54:37Z</time>
      </trkpt>
      <trkpt lat="43.29676" lon="-1.8722736">
        <time>2022-07-02T09:54:39Z</time>
      </trkpt>
      <trkpt lat="43.296745" lon="-1.8721842">
        <time>2022-07-02T09:54:41Z</time>
      </trkpt>
      <trkpt lat="43.296734" lon="-1.8720942">
        <time>2022-07-02T09:54:43Z</time>
      </trkpt>
      <trkpt lat="43.296154" lon="-1.8709142">
        <time>2022-07-02T09:55:09Z</time>
      </trkpt>
      <trkpt lat="43.295837" lon="-1.8702382">
        <time>2022-07-02T09:55:25Z</time>
      </trkpt>
      <trkpt lat="43.29583" lon="-1.8701049">
        <time>2022-07-02T09:55:28Z</time>
      </trkpt>
      <trkpt lat="43.295807" lon="-1.8699932">
        <time>2022-07-02T09:55:30Z</time>
      </trkpt>
      <trkpt lat="43.295784" lon="-1.8698763">
        <time>2022-07-02T09:55:32Z</time>
      </trkpt>
      <trkpt lat="43.295757" lon="-1.8697512">
        <time>2022-07-02T09:55:34Z</time>
      </trkpt>
      <trkpt lat="43.29573" lon="-1.8696295">
        <time>2022-07-02T09:55:36Z</time>
      </trkpt>
      <trkpt lat="43.295715" lon="-1.8695692">
        <time>2022-07-02T09:55:37Z</time>
      </trkpt>
      <trkpt lat="43.295685" lon="-1.8694456">
        <time>2022-07-02T09:55:39Z</time>
      </trkpt>
      <trkpt lat="43.29565" lon="-1.8693159">
        <time>2022-07-02T09:55:41Z</time>
      </trkpt>
      <trkpt lat="43.29563" lon="-1.8692499">
        <time>2022-07-02T09:55:42Z</time>
      </trkpt>
      <trkpt lat="43.29559" lon="-1.8691226">
        <time>2022-07-02T09:55:44Z</time>
      </trkpt>
      <trkpt lat="43.29557" lon="-1.869059">
        <time>2022-07-02T09:55:45Z</time>
      </trkpt>
      <trkpt lat="43.29553" lon="-1.8689343">
        <time>2022-07-02T09:55:47Z</time>
      </trkpt>
      <trkpt lat="43.295494" lon="-1.8688053">
        <time>2022-07-02T09:55:49Z</time>
      </trkpt>
      <trkpt lat="43.295475" lon="-1.8687389">
        <time>2022-07-02T09:55:50Z</time>
      </trkpt>
      <trkpt lat="43.295437" lon="-1.8686095">
        <time>2022-07-02T09:55:52Z</time>
      </trkpt>
      <trkpt lat="43.295418" lon="-1.8685409">
        <time>2022-07-02T09:55:53Z</time>
      </trkpt>
      <trkpt lat="43.2954" lon="-1.8684736">
        <time>2022-07-02T09:55:54Z</time>
      </trkpt>
      <trkpt lat="43.29536" lon="-1.8683413">
        <time>2022-07-02T09:55:56Z</time>
      </trkpt>
      <trkpt lat="43.295345" lon="-1.8682793">
        <time>2022-07-02T09:55:57Z</time>
      </trkpt>
      <trkpt lat="43.29531" lon="-1.8681483">
        <time>2022-07-02T09:55:59Z</time>
      </trkpt>
      <trkpt lat="43.29529" lon="-1.8680813">
        <time>2022-07-02T09:56:00Z</time>
      </trkpt>
      <trkpt lat="43.295254" lon="-1.867955">
        <time>2022-07-02T09:56:02Z</time>
      </trkpt>
      <trkpt lat="43.295223" lon="-1.8678323">
        <time>2022-07-02T09:56:04Z</time>
      </trkpt>
      <trkpt lat="43.29519" lon="-1.8676996">
        <time>2022-07-02T09:56:06Z</time>
      </trkpt>
      <trkpt lat="43.29516" lon="-1.8675697">
        <time>2022-07-02T09:56:08Z</time>
      </trkpt>
      <trkpt lat="43.295135" lon="-1.8674326">
        <time>2022-07-02T09:56:10Z</time>
      </trkpt>
      <trkpt lat="43.295128" lon="-1.8673643">
        <time>2022-07-02T09:56:11Z</time>
      </trkpt>
      <trkpt lat="43.29512" lon="-1.8672963">
        <time>2022-07-02T09:56:12Z</time>
      </trkpt>
      <trkpt lat="43.29511" lon="-1.8671623">
        <time>2022-07-02T09:56:14Z</time>
      </trkpt>
      <trkpt lat="43.295097" lon="-1.867028">
        <time>2022-07-02T09:56:16Z</time>
      </trkpt>
      <trkpt lat="43.29509" lon="-1.866895">
        <time>2022-07-02T09:56:18Z</time>
      </trkpt>
      <trkpt lat="43.295086" lon="-1.8668296">
        <time>2022-07-02T09:56:19Z</time>
      </trkpt>
      <trkpt lat="43.29508" lon="-1.8667036">
        <time>2022-07-02T09:56:21Z</time>
      </trkpt>
      <trkpt lat="43.29507" lon="-1.8665773">
        <time>2022-07-02T09:56:23Z</time>
      </trkpt>
      <trkpt lat="43.295067" lon="-1.8664533">
        <time>2022-07-02T09:56:25Z</time>
      </trkpt>
      <trkpt lat="43.29506" lon="-1.8663206">
        <time>2022-07-02T09:56:27Z</time>
      </trkpt>
      <trkpt lat="43.295055" lon="-1.8662599">
        <time>2022-07-02T09:56:28Z</time>
      </trkpt>
      <trkpt lat="43.295048" lon="-1.86614">
        <time>2022-07-02T09:56:30Z</time>
      </trkpt>
      <trkpt lat="43.29504" lon="-1.8660173">
        <time>2022-07-02T09:56:32Z</time>
      </trkpt>
      <trkpt lat="43.295033" lon="-1.865903">
        <time>2022-07-02T09:56:34Z</time>
      </trkpt>
      <trkpt lat="43.29502" lon="-1.865787">
        <time>2022-07-02T09:56:36Z</time>
      </trkpt>
      <trkpt lat="43.295017" lon="-1.8656133">
        <time>2022-07-02T09:56:39Z</time>
      </trkpt>
      <trkpt lat="43.295017" lon="-1.8654981">
        <time>2022-07-02T09:56:41Z</time>
      </trkpt>
      <trkpt lat="43.295013" lon="-1.8653836">
        <time>2022-07-02T09:56:43Z</time>
      </trkpt>
      <trkpt lat="43.29501" lon="-1.8652693">
        <time>2022-07-02T09:56:45Z</time>
      </trkpt>
      <trkpt lat="43.295006" lon="-1.865157">
        <time>2022-07-02T09:56:47Z</time>
      </trkpt>
      <trkpt lat="43.29501" lon="-1.8650484">
        <time>2022-07-02T09:56:49Z</time>
      </trkpt>
      <trkpt lat="43.295013" lon="-1.8649364">
        <time>2022-07-02T09:56:51Z</time>
      </trkpt>
      <trkpt lat="43.295013" lon="-1.8648213">
        <time>2022-07-02T09:56:53Z</time>
      </trkpt>
      <trkpt lat="43.29501" lon="-1.8647133">
        <time>2022-07-02T09:56:55Z</time>
      </trkpt>
      <trkpt lat="43.29501" lon="-1.8646094">
        <time>2022-07-02T09:56:57Z</time>
      </trkpt>
      <trkpt lat="43.295006" lon="-1.8645054">
        <time>2022-07-02T09:56:59Z</time>
      </trkpt>
      <trkpt lat="43.295002" lon="-1.8644041">
        <time>2022-07-02T09:57:01Z</time>
      </trkpt>
      <trkpt lat="43.295002" lon="-1.864305">
        <time>2022-07-02T09:57:03Z</time>
      </trkpt>
      <trkpt lat="43.295" lon="-1.86421">
        <time>2022-07-02T09:57:05Z</time>
      </trkpt>
      <trkpt lat="43.29499" lon="-1.8641196">
        <time>2022-07-02T09:57:07Z</time>
      </trkpt>
      <trkpt lat="43.294987" lon="-1.864034">
        <time>2022-07-02T09:57:09Z</time>
      </trkpt>
      <trkpt lat="43.294983" lon="-1.8639464">
        <time>2022-07-02T09:57:11Z</time>
      </trkpt>
      <trkpt lat="43.294983" lon="-1.8638607">
        <time>2022-07-02T09:57:13Z</time>
      </trkpt>
      <trkpt lat="43.294983" lon="-1.863767">
        <time>2022-07-02T09:57:15Z</time>
      </trkpt>
      <trkpt lat="43.29498" lon="-1.863669">
        <time>2022-07-02T09:57:17Z</time>
      </trkpt>
      <trkpt lat="43.294975" lon="-1.8635631">
        <time>2022-07-02T09:57:19Z</time>
      </trkpt>
      <trkpt lat="43.294968" lon="-1.8634574">
        <time>2022-07-02T09:57:21Z</time>
      </trkpt>
      <trkpt lat="43.29496" lon="-1.86335">
        <time>2022-07-02T09:57:23Z</time>
      </trkpt>
      <trkpt lat="43.29495" lon="-1.8632437">
        <time>2022-07-02T09:57:25Z</time>
      </trkpt>
      <trkpt lat="43.294937" lon="-1.8631344">
        <time>2022-07-02T09:57:27Z</time>
      </trkpt>
      <trkpt lat="43.29492" lon="-1.8630221">
        <time>2022-07-02T09:57:29Z</time>
      </trkpt>
      <trkpt lat="43.29491" lon="-1.862907">
        <time>2022-07-02T09:57:31Z</time>
      </trkpt>
      <trkpt lat="43.294895" lon="-1.8627894">
        <time>2022-07-02T09:57:33Z</time>
      </trkpt>
      <trkpt lat="43.294876" lon="-1.8626688">
        <time>2022-07-02T09:57:35Z</time>
      </trkpt>
      <trkpt lat="43.294857" lon="-1.8625474">
        <time>2022-07-02T09:57:37Z</time>
      </trkpt>
      <trkpt lat="43.29484" lon="-1.8624218">
        <time>2022-07-02T09:57:39Z</time>
      </trkpt>
      <trkpt lat="43.294834" lon="-1.8623624">
        <time>2022-07-02T09:57:40Z</time>
      </trkpt>
      <trkpt lat="43.294823" lon="-1.8621851">
        <time>2022-07-02T09:57:43Z</time>
      </trkpt>
      <trkpt lat="43.294827" lon="-1.8620661">
        <time>2022-07-02T09:57:45Z</time>
      </trkpt>
      <trkpt lat="43.294834" lon="-1.8619465">
        <time>2022-07-02T09:57:47Z</time>
      </trkpt>
      <trkpt lat="43.29485" lon="-1.8618288">
        <time>2022-07-02T09:57:49Z</time>
      </trkpt>
      <trkpt lat="43.294865" lon="-1.8617141">
        <time>2022-07-02T09:57:51Z</time>
      </trkpt>
      <trkpt lat="43.294876" lon="-1.8616011">
        <time>2022-07-02T09:57:53Z</time>
      </trkpt>
      <trkpt lat="43.294884" lon="-1.8614911">
        <time>2022-07-02T09:57:55Z</time>
      </trkpt>
      <trkpt lat="43.29489" lon="-1.8613838">
        <time>2022-07-02T09:57:57Z</time>
      </trkpt>
      <trkpt lat="43.2949" lon="-1.8612788">
        <time>2022-07-02T09:57:59Z</time>
      </trkpt>
      <trkpt lat="43.2949" lon="-1.8611704">
        <time>2022-07-02T09:58:01Z</time>
      </trkpt>
      <trkpt lat="43.294895" lon="-1.8610605">
        <time>2022-07-02T09:58:03Z</time>
      </trkpt>
      <trkpt lat="43.29489" lon="-1.8609542">
        <time>2022-07-02T09:58:05Z</time>
      </trkpt>
      <trkpt lat="43.294876" lon="-1.8608501">
        <time>2022-07-02T09:58:07Z</time>
      </trkpt>
      <trkpt lat="43.294857" lon="-1.8607469">
        <time>2022-07-02T09:58:09Z</time>
      </trkpt>
      <trkpt lat="43.29483" lon="-1.8606439">
        <time>2022-07-02T09:58:11Z</time>
      </trkpt>
      <trkpt lat="43.294804" lon="-1.8605418">
        <time>2022-07-02T09:58:13Z</time>
      </trkpt>
      <trkpt lat="43.29477" lon="-1.8604414">
        <time>2022-07-02T09:58:15Z</time>
      </trkpt>
      <trkpt lat="43.294735" lon="-1.8603362">
        <time>2022-07-02T09:58:17Z</time>
      </trkpt>
      <trkpt lat="43.294697" lon="-1.8602371">
        <time>2022-07-02T09:58:19Z</time>
      </trkpt>
      <trkpt lat="43.29466" lon="-1.8601302">
        <time>2022-07-02T09:58:21Z</time>
      </trkpt>
      <trkpt lat="43.29463" lon="-1.8600265">
        <time>2022-07-02T09:58:23Z</time>
      </trkpt>
      <trkpt lat="43.29459" lon="-1.8599218">
        <time>2022-07-02T09:58:25Z</time>
      </trkpt>
      <trkpt lat="43.294556" lon="-1.8598125">
        <time>2022-07-02T09:58:27Z</time>
      </trkpt>
      <trkpt lat="43.29452" lon="-1.8597012">
        <time>2022-07-02T09:58:29Z</time>
      </trkpt>
      <trkpt lat="43.294483" lon="-1.8595889">
        <time>2022-07-02T09:58:31Z</time>
      </trkpt>
      <trkpt lat="43.29444" lon="-1.8594768">
        <time>2022-07-02T09:58:33Z</time>
      </trkpt>
      <trkpt lat="43.2944" lon="-1.8593585">
        <time>2022-07-02T09:58:35Z</time>
      </trkpt>
      <trkpt lat="43.294357" lon="-1.8592472">
        <time>2022-07-02T09:58:37Z</time>
      </trkpt>
      <trkpt lat="43.294323" lon="-1.8591232">
        <time>2022-07-02T09:58:39Z</time>
      </trkpt>
      <trkpt lat="43.294285" lon="-1.8589991">
        <time>2022-07-02T09:58:41Z</time>
      </trkpt>
      <trkpt lat="43.294254" lon="-1.8588748">
        <time>2022-07-02T09:58:43Z</time>
      </trkpt>
      <trkpt lat="43.29424" lon="-1.8588128">
        <time>2022-07-02T09:58:44Z</time>
      </trkpt>
      <trkpt lat="43.29421" lon="-1.8586895">
        <time>2022-07-02T09:58:46Z</time>
      </trkpt>
      <trkpt lat="43.294193" lon="-1.8586272">
        <time>2022-07-02T09:58:47Z</time>
      </trkpt>
      <trkpt lat="43.294174" lon="-1.8585032">
        <time>2022-07-02T09:58:49Z</time>
      </trkpt>
      <trkpt lat="43.294163" lon="-1.8583728">
        <time>2022-07-02T09:58:51Z</time>
      </trkpt>
      <trkpt lat="43.29415" lon="-1.8582392">
        <time>2022-07-02T09:58:53Z</time>
      </trkpt>
      <trkpt lat="43.29415" lon="-1.8581722">
        <time>2022-07-02T09:58:54Z</time>
      </trkpt>
      <trkpt lat="43.29415" lon="-1.8580406">
        <time>2022-07-02T09:58:56Z</time>
      </trkpt>
      <trkpt lat="43.294155" lon="-1.8579096">
        <time>2022-07-02T09:58:58Z</time>
      </trkpt>
      <trkpt lat="43.294163" lon="-1.8578448">
        <time>2022-07-02T09:58:59Z</time>
      </trkpt>
      <trkpt lat="43.29418" lon="-1.8577199">
        <time>2022-07-02T09:59:01Z</time>
      </trkpt>
      <trkpt lat="43.2942" lon="-1.8576006">
        <time>2022-07-02T09:59:03Z</time>
      </trkpt>
      <trkpt lat="43.294216" lon="-1.8574876">
        <time>2022-07-02T09:59:05Z</time>
      </trkpt>
      <trkpt lat="43.294235" lon="-1.8573859">
        <time>2022-07-02T09:59:07Z</time>
      </trkpt>
      <trkpt lat="43.294254" lon="-1.8572979">
        <time>2022-07-02T09:59:09Z</time>
      </trkpt>
      <trkpt lat="43.294273" lon="-1.8572235">
        <time>2022-07-02T09:59:11Z</time>
      </trkpt>
      <trkpt lat="43.29429" lon="-1.8571652">
        <time>2022-07-02T09:59:13Z</time>
      </trkpt>
      <trkpt lat="43.2943" lon="-1.8571023">
        <time>2022-07-02T09:59:16Z</time>
      </trkpt>
      <trkpt lat="43.29431" lon="-1.8569646">
        <time>2022-07-02T10:00:09Z</time>
      </trkpt>
      <trkpt lat="43.29431" lon="-1.856875">
        <time>2022-07-02T10:00:12Z</time>
      </trkpt>
      <trkpt lat="43.294323" lon="-1.8567816">
        <time>2022-07-02T10:00:15Z</time>
      </trkpt>
      <trkpt lat="43.29433" lon="-1.856671">
        <time>2022-07-02T10:00:18Z</time>
      </trkpt>
      <trkpt lat="43.294342" lon="-1.8565896">
        <time>2022-07-02T10:00:20Z</time>
      </trkpt>
      <trkpt lat="43.294353" lon="-1.8565023">
        <time>2022-07-02T10:00:22Z</time>
      </trkpt>
      <trkpt lat="43.294365" lon="-1.8564082">
        <time>2022-07-02T10:00:24Z</time>
      </trkpt>
      <trkpt lat="43.294376" lon="-1.8563086">
        <time>2022-07-02T10:00:26Z</time>
      </trkpt>
      <trkpt lat="43.294388" lon="-1.8562063">
        <time>2022-07-02T10:00:28Z</time>
      </trkpt>
      <trkpt lat="43.2944" lon="-1.8561026">
        <time>2022-07-02T10:00:30Z</time>
      </trkpt>
      <trkpt lat="43.29441" lon="-1.8560007">
        <time>2022-07-02T10:00:32Z</time>
      </trkpt>
      <trkpt lat="43.29442" lon="-1.8558949">
        <time>2022-07-02T10:00:34Z</time>
      </trkpt>
      <trkpt lat="43.29442" lon="-1.8557866">
        <time>2022-07-02T10:00:36Z</time>
      </trkpt>
      <trkpt lat="43.29441" lon="-1.8556806">
        <time>2022-07-02T10:00:38Z</time>
      </trkpt>
      <trkpt lat="43.294395" lon="-1.8555816">
        <time>2022-07-02T10:00:40Z</time>
      </trkpt>
      <trkpt lat="43.294373" lon="-1.8554813">
        <time>2022-07-02T10:00:42Z</time>
      </trkpt>
      <trkpt lat="43.294346" lon="-1.8553853">
        <time>2022-07-02T10:00:44Z</time>
      </trkpt>
      <trkpt lat="43.294323" lon="-1.8552833">
        <time>2022-07-02T10:00:46Z</time>
      </trkpt>
      <trkpt lat="43.294296" lon="-1.855184">
        <time>2022-07-02T10:00:48Z</time>
      </trkpt>
      <trkpt lat="43.294266" lon="-1.8550903">
        <time>2022-07-02T10:00:50Z</time>
      </trkpt>
      <trkpt lat="43.294243" lon="-1.8549893">
        <time>2022-07-02T10:00:52Z</time>
      </trkpt>
      <trkpt lat="43.294228" lon="-1.854892">
        <time>2022-07-02T10:00:54Z</time>
      </trkpt>
      <trkpt lat="43.294224" lon="-1.8547987">
        <time>2022-07-02T10:00:56Z</time>
      </trkpt>
      <trkpt lat="43.29423" lon="-1.854705">
        <time>2022-07-02T10:00:58Z</time>
      </trkpt>
      <trkpt lat="43.294247" lon="-1.8546144">
        <time>2022-07-02T10:01:00Z</time>
      </trkpt>
      <trkpt lat="43.294266" lon="-1.854521">
        <time>2022-07-02T10:01:02Z</time>
      </trkpt>
      <trkpt lat="43.294292" lon="-1.8544366">
        <time>2022-07-02T10:01:04Z</time>
      </trkpt>
      <trkpt lat="43.29432" lon="-1.8543516">
        <time>2022-07-02T10:01:06Z</time>
      </trkpt>
      <trkpt lat="43.29435" lon="-1.854265">
        <time>2022-07-02T10:01:08Z</time>
      </trkpt>
      <trkpt lat="43.294376" lon="-1.8541807">
        <time>2022-07-02T10:01:10Z</time>
      </trkpt>
      <trkpt lat="43.294407" lon="-1.854095">
        <time>2022-07-02T10:01:12Z</time>
      </trkpt>
      <trkpt lat="43.294437" lon="-1.8540113">
        <time>2022-07-02T10:01:14Z</time>
      </trkpt>
      <trkpt lat="43.294464" lon="-1.853924">
        <time>2022-07-02T10:01:16Z</time>
      </trkpt>
      <trkpt lat="43.29449" lon="-1.8538374">
        <time>2022-07-02T10:01:18Z</time>
      </trkpt>
      <trkpt lat="43.294525" lon="-1.8537494">
        <time>2022-07-02T10:01:20Z</time>
      </trkpt>
      <trkpt lat="43.29456" lon="-1.8536631">
        <time>2022-07-02T10:01:22Z</time>
      </trkpt>
      <trkpt lat="43.29459" lon="-1.8535748">
        <time>2022-07-02T10:01:24Z</time>
      </trkpt>
      <trkpt lat="43.294617" lon="-1.8534857">
        <time>2022-07-02T10:01:26Z</time>
      </trkpt>
      <trkpt lat="43.294632" lon="-1.8533977">
        <time>2022-07-02T10:01:28Z</time>
      </trkpt>
      <trkpt lat="43.294647" lon="-1.8533124">
        <time>2022-07-02T10:01:30Z</time>
      </trkpt>
      <trkpt lat="43.29467" lon="-1.8532257">
        <time>2022-07-02T10:01:32Z</time>
      </trkpt>
      <trkpt lat="43.294697" lon="-1.8531307">
        <time>2022-07-02T10:01:34Z</time>
      </trkpt>
      <trkpt lat="43.294727" lon="-1.8530353">
        <time>2022-07-02T10:01:36Z</time>
      </trkpt>
      <trkpt lat="43.294754" lon="-1.8529407">
        <time>2022-07-02T10:01:38Z</time>
      </trkpt>
      <trkpt lat="43.294773" lon="-1.8528451">
        <time>2022-07-02T10:01:40Z</time>
      </trkpt>
      <trkpt lat="43.29478" lon="-1.8527437">
        <time>2022-07-02T10:01:42Z</time>
      </trkpt>
      <trkpt lat="43.29478" lon="-1.8526444">
        <time>2022-07-02T10:01:44Z</time>
      </trkpt>
      <trkpt lat="43.294777" lon="-1.8525437">
        <time>2022-07-02T10:01:46Z</time>
      </trkpt>
      <trkpt lat="43.294777" lon="-1.8524427">
        <time>2022-07-02T10:01:48Z</time>
      </trkpt>
      <trkpt lat="43.294777" lon="-1.8523511">
        <time>2022-07-02T10:01:50Z</time>
      </trkpt>
      <trkpt lat="43.294777" lon="-1.8522787">
        <time>2022-07-02T10:01:52Z</time>
      </trkpt>
      <trkpt lat="43.294785" lon="-1.8522211">
        <time>2022-07-02T10:01:54Z</time>
      </trkpt>
      <trkpt lat="43.294804" lon="-1.8521421">
        <time>2022-07-02T10:01:57Z</time>
      </trkpt>
      <trkpt lat="43.294834" lon="-1.8520708">
        <time>2022-07-02T10:02:00Z</time>
      </trkpt>
      <trkpt lat="43.294872" lon="-1.8520148">
        <time>2022-07-02T10:02:03Z</time>
      </trkpt>
      <trkpt lat="43.29493" lon="-1.8519641">
        <time>2022-07-02T10:02:07Z</time>
      </trkpt>
      <trkpt lat="43.294975" lon="-1.8519231">
        <time>2022-07-02T10:02:10Z</time>
      </trkpt>
      <trkpt lat="43.295025" lon="-1.8518895">
        <time>2022-07-02T10:02:13Z</time>
      </trkpt>
      <trkpt lat="43.295074" lon="-1.8518528">
        <time>2022-07-02T10:02:16Z</time>
      </trkpt>
      <trkpt lat="43.295124" lon="-1.8518168">
        <time>2022-07-02T10:02:19Z</time>
      </trkpt>
      <trkpt lat="43.29517" lon="-1.8517834">
        <time>2022-07-02T10:02:22Z</time>
      </trkpt>
      <trkpt lat="43.295235" lon="-1.8517585">
        <time>2022-07-02T10:02:26Z</time>
      </trkpt>
      <trkpt lat="43.295288" lon="-1.8517455">
        <time>2022-07-02T10:02:30Z</time>
      </trkpt>
      <trkpt lat="43.295357" lon="-1.8517394">
        <time>2022-07-02T10:02:34Z</time>
      </trkpt>
      <trkpt lat="43.29541" lon="-1.8517338">
        <time>2022-07-02T10:02:37Z</time>
      </trkpt>
      <trkpt lat="43.295464" lon="-1.8517247">
        <time>2022-07-02T10:02:40Z</time>
      </trkpt>
      <trkpt lat="43.29551" lon="-1.8517132">
        <time>2022-07-02T10:02:43Z</time>
      </trkpt>
      <trkpt lat="43.295567" lon="-1.8516995">
        <time>2022-07-02T10:02:47Z</time>
      </trkpt>
      <trkpt lat="43.29563" lon="-1.8516841">
        <time>2022-07-02T10:02:51Z</time>
      </trkpt>
      <trkpt lat="43.29568" lon="-1.8516421">
        <time>2022-07-02T10:02:55Z</time>
      </trkpt>
      <trkpt lat="43.295708" lon="-1.8515924">
        <time>2022-07-02T10:02:59Z</time>
      </trkpt>
      <trkpt lat="43.29579" lon="-1.8515671">
        <time>2022-07-02T10:03:13Z</time>
      </trkpt>
      <trkpt lat="43.295856" lon="-1.8515615">
        <time>2022-07-02T10:03:16Z</time>
      </trkpt>
      <trkpt lat="43.29591" lon="-1.8515332">
        <time>2022-07-02T10:03:19Z</time>
      </trkpt>
      <trkpt lat="43.295956" lon="-1.8514795">
        <time>2022-07-02T10:03:23Z</time>
      </trkpt>
      <trkpt lat="43.296" lon="-1.8514135">
        <time>2022-07-02T10:03:27Z</time>
      </trkpt>
      <trkpt lat="43.296032" lon="-1.8513585">
        <time>2022-07-02T10:03:36Z</time>
      </trkpt>
      <trkpt lat="43.29603" lon="-1.8512875">
        <time>2022-07-02T10:04:40Z</time>
      </trkpt>
      <trkpt lat="43.296036" lon="-1.8511891">
        <time>2022-07-02T10:04:44Z</time>
      </trkpt>
      <trkpt lat="43.296032" lon="-1.8510982">
        <time>2022-07-02T10:04:47Z</time>
      </trkpt>
      <trkpt lat="43.296024" lon="-1.8510065">
        <time>2022-07-02T10:04:50Z</time>
      </trkpt>
      <trkpt lat="43.29603" lon="-1.8509135">
        <time>2022-07-02T10:04:53Z</time>
      </trkpt>
      <trkpt lat="43.296036" lon="-1.8508282">
        <time>2022-07-02T10:04:56Z</time>
      </trkpt>
      <trkpt lat="43.296047" lon="-1.8507439">
        <time>2022-07-02T10:04:59Z</time>
      </trkpt>
      <trkpt lat="43.29606" lon="-1.8506649">
        <time>2022-07-02T10:05:02Z</time>
      </trkpt>
      <trkpt lat="43.296074" lon="-1.8505938">
        <time>2022-07-02T10:05:05Z</time>
      </trkpt>
      <trkpt lat="43.29609" lon="-1.8505242">
        <time>2022-07-02T10:05:08Z</time>
      </trkpt>
      <trkpt lat="43.296097" lon="-1.8504592">
        <time>2022-07-02T10:05:11Z</time>
      </trkpt>
      <trkpt lat="43.29612" lon="-1.8503679">
        <time>2022-07-02T10:05:16Z</time>
      </trkpt>
      <trkpt lat="43.296135" lon="-1.8503052">
        <time>2022-07-02T10:05:19Z</time>
      </trkpt>
      <trkpt lat="43.29614" lon="-1.8502325">
        <time>2022-07-02T10:05:23Z</time>
      </trkpt>
      <trkpt lat="43.29615" lon="-1.8501679">
        <time>2022-07-02T10:05:27Z</time>
      </trkpt>
      <trkpt lat="43.29618" lon="-1.8500932">
        <time>2022-07-02T10:05:32Z</time>
      </trkpt>
      <trkpt lat="43.296207" lon="-1.8500233">
        <time>2022-07-02T10:05:37Z</time>
      </trkpt>
      <trkpt lat="43.296238" lon="-1.8499529">
        <time>2022-07-02T10:05:42Z</time>
      </trkpt>
      <trkpt lat="43.29625" lon="-1.8498749">
        <time>2022-07-02T10:05:47Z</time>
      </trkpt>
      <trkpt lat="43.296276" lon="-1.8498145">
        <time>2022-07-02T10:05:52Z</time>
      </trkpt>
      <trkpt lat="43.296307" lon="-1.8497576">
        <time>2022-07-02T10:05:57Z</time>
      </trkpt>
      <trkpt lat="43.296333" lon="-1.8496909">
        <time>2022-07-02T10:06:02Z</time>
      </trkpt>
      <trkpt lat="43.29637" lon="-1.849631">
        <time>2022-07-02T10:06:07Z</time>
      </trkpt>
      <trkpt lat="43.29641" lon="-1.8495688">
        <time>2022-07-02T10:06:12Z</time>
      </trkpt>
      <trkpt lat="43.29645" lon="-1.8495092">
        <time>2022-07-02T10:06:17Z</time>
      </trkpt>
      <trkpt lat="43.2965" lon="-1.8494562">
        <time>2022-07-02T10:06:22Z</time>
      </trkpt>
      <trkpt lat="43.296543" lon="-1.8494103">
        <time>2022-07-02T10:06:26Z</time>
      </trkpt>
      <trkpt lat="43.29659" lon="-1.8493532">
        <time>2022-07-02T10:06:30Z</time>
      </trkpt>
      <trkpt lat="43.29663" lon="-1.8493142">
        <time>2022-07-02T10:06:33Z</time>
      </trkpt>
      <trkpt lat="43.296677" lon="-1.8492773">
        <time>2022-07-02T10:06:36Z</time>
      </trkpt>
      <trkpt lat="43.296734" lon="-1.8492455">
        <time>2022-07-02T10:06:39Z</time>
      </trkpt>
      <trkpt lat="43.296787" lon="-1.8492173">
        <time>2022-07-02T10:06:42Z</time>
      </trkpt>
      <trkpt lat="43.29684" lon="-1.8491962">
        <time>2022-07-02T10:06:45Z</time>
      </trkpt>
      <trkpt lat="43.296898" lon="-1.8491743">
        <time>2022-07-02T10:06:48Z</time>
      </trkpt>
      <trkpt lat="43.296955" lon="-1.8491489">
        <time>2022-07-02T10:06:51Z</time>
      </trkpt>
      <trkpt lat="43.297012" lon="-1.8491253">
        <time>2022-07-02T10:06:54Z</time>
      </trkpt>
      <trkpt lat="43.297073" lon="-1.8491082">
        <time>2022-07-02T10:06:57Z</time>
      </trkpt>
      <trkpt lat="43.297127" lon="-1.849101">
        <time>2022-07-02T10:07:00Z</time>
      </trkpt>
      <trkpt lat="43.297184" lon="-1.8490933">
        <time>2022-07-02T10:07:03Z</time>
      </trkpt>
      <trkpt lat="43.297234" lon="-1.8491015">
        <time>2022-07-02T10:07:06Z</time>
      </trkpt>
      <trkpt lat="43.297287" lon="-1.8490967">
        <time>2022-07-02T10:07:09Z</time>
      </trkpt>
      <trkpt lat="43.297348" lon="-1.8490783">
        <time>2022-07-02T10:07:12Z</time>
      </trkpt>
      <trkpt lat="43.297417" lon="-1.8490549">
        <time>2022-07-02T10:07:15Z</time>
      </trkpt>
      <trkpt lat="43.297466" lon="-1.8490356">
        <time>2022-07-02T10:07:17Z</time>
      </trkpt>
      <trkpt lat="43.297535" lon="-1.8490063">
        <time>2022-07-02T10:07:20Z</time>
      </trkpt>
      <trkpt lat="43.297596" lon="-1.8489922">
        <time>2022-07-02T10:07:23Z</time>
      </trkpt>
      <trkpt lat="43.29765" lon="-1.8489742">
        <time>2022-07-02T10:07:26Z</time>
      </trkpt>
      <trkpt lat="43.297703" lon="-1.848935">
        <time>2022-07-02T10:07:29Z</time>
      </trkpt>
      <trkpt lat="43.297752" lon="-1.8488959">
        <time>2022-07-02T10:07:32Z</time>
      </trkpt>
      <trkpt lat="43.29781" lon="-1.848864">
        <time>2022-07-02T10:07:35Z</time>
      </trkpt>
      <trkpt lat="43.29787" lon="-1.8488306">
        <time>2022-07-02T10:07:38Z</time>
      </trkpt>
      <trkpt lat="43.29793" lon="-1.8487849">
        <time>2022-07-02T10:07:41Z</time>
      </trkpt>
      <trkpt lat="43.297993" lon="-1.8487363">
        <time>2022-07-02T10:07:44Z</time>
      </trkpt>
      <trkpt lat="43.298046" lon="-1.848689">
        <time>2022-07-02T10:07:47Z</time>
      </trkpt>
      <trkpt lat="43.298096" lon="-1.8486496">
        <time>2022-07-02T10:07:50Z</time>
      </trkpt>
      <trkpt lat="43.29814" lon="-1.8486143">
        <time>2022-07-02T10:07:53Z</time>
      </trkpt>
      <trkpt lat="43.298195" lon="-1.8485867">
        <time>2022-07-02T10:07:57Z</time>
      </trkpt>
      <trkpt lat="43.29825" lon="-1.8485576">
        <time>2022-07-02T10:08:01Z</time>
      </trkpt>
      <trkpt lat="43.298298" lon="-1.84852">
        <time>2022-07-02T10:08:05Z</time>
      </trkpt>
      <trkpt lat="43.298344" lon="-1.848484">
        <time>2022-07-02T10:08:09Z</time>
      </trkpt>
      <trkpt lat="43.298397" lon="-1.8484586">
        <time>2022-07-02T10:08:13Z</time>
      </trkpt>
      <trkpt lat="43.29844" lon="-1.84843">
        <time>2022-07-02T10:08:16Z</time>
      </trkpt>
      <trkpt lat="43.298492" lon="-1.8483957">
        <time>2022-07-02T10:08:20Z</time>
      </trkpt>
      <trkpt lat="43.29855" lon="-1.8483757">
        <time>2022-07-02T10:08:24Z</time>
      </trkpt>
      <trkpt lat="43.298607" lon="-1.8483733">
        <time>2022-07-02T10:08:28Z</time>
      </trkpt>
      <trkpt lat="43.298664" lon="-1.8483813">
        <time>2022-07-02T10:08:32Z</time>
      </trkpt>
      <trkpt lat="43.298717" lon="-1.8483953">
        <time>2022-07-02T10:08:36Z</time>
      </trkpt>
      <trkpt lat="43.29877" lon="-1.848409">
        <time>2022-07-02T10:08:40Z</time>
      </trkpt>
      <trkpt lat="43.298832" lon="-1.84843">
        <time>2022-07-02T10:08:45Z</time>
      </trkpt>
      <trkpt lat="43.29888" lon="-1.8484336">
        <time>2022-07-02T10:08:49Z</time>
      </trkpt>
      <trkpt lat="43.29895" lon="-1.8484284">
        <time>2022-07-02T10:08:54Z</time>
      </trkpt>
      <trkpt lat="43.299046" lon="-1.8484126">
        <time>2022-07-02T10:08:58Z</time>
      </trkpt>
      <trkpt lat="43.299107" lon="-1.8483874">
        <time>2022-07-02T10:09:00Z</time>
      </trkpt>
      <trkpt lat="43.299168" lon="-1.8483497">
        <time>2022-07-02T10:09:02Z</time>
      </trkpt>
      <trkpt lat="43.299232" lon="-1.8483053">
        <time>2022-07-02T10:09:04Z</time>
      </trkpt>
      <trkpt lat="43.299297" lon="-1.8482584">
        <time>2022-07-02T10:09:06Z</time>
      </trkpt>
      <trkpt lat="43.299366" lon="-1.8482116">
        <time>2022-07-02T10:09:08Z</time>
      </trkpt>
      <trkpt lat="43.29943" lon="-1.8481667">
        <time>2022-07-02T10:09:10Z</time>
      </trkpt>
      <trkpt lat="43.299503" lon="-1.8481197">
        <time>2022-07-02T10:09:12Z</time>
      </trkpt>
      <trkpt lat="43.29957" lon="-1.8480726">
        <time>2022-07-02T10:09:14Z</time>
      </trkpt>
      <trkpt lat="43.29963" lon="-1.8480234">
        <time>2022-07-02T10:09:16Z</time>
      </trkpt>
      <trkpt lat="43.299683" lon="-1.84797">
        <time>2022-07-02T10:09:18Z</time>
      </trkpt>
      <trkpt lat="43.299725" lon="-1.8479177">
        <time>2022-07-02T10:09:20Z</time>
      </trkpt>
      <trkpt lat="43.299763" lon="-1.8478754">
        <time>2022-07-02T10:09:22Z</time>
      </trkpt>
      <trkpt lat="43.299812" lon="-1.847833">
        <time>2022-07-02T10:09:25Z</time>
      </trkpt>
      <trkpt lat="43.299862" lon="-1.8478013">
        <time>2022-07-02T10:09:28Z</time>
      </trkpt>
      <trkpt lat="43.29992" lon="-1.8477727">
        <time>2022-07-02T10:09:32Z</time>
      </trkpt>
      <trkpt lat="43.299976" lon="-1.847748">
        <time>2022-07-02T10:09:36Z</time>
      </trkpt>
      <trkpt lat="43.300037" lon="-1.8477367">
        <time>2022-07-02T10:09:41Z</time>
      </trkpt>
      <trkpt lat="43.30009" lon="-1.8477434">
        <time>2022-07-02T10:09:45Z</time>
      </trkpt>
      <trkpt lat="43.300148" lon="-1.8477638">
        <time>2022-07-02T10:09:49Z</time>
      </trkpt>
      <trkpt lat="43.3002" lon="-1.847787">
        <time>2022-07-02T10:09:53Z</time>
      </trkpt>
      <trkpt lat="43.300255" lon="-1.8478187">
        <time>2022-07-02T10:09:57Z</time>
      </trkpt>
      <trkpt lat="43.3003" lon="-1.8478494">
        <time>2022-07-02T10:10:01Z</time>
      </trkpt>
      <trkpt lat="43.30036" lon="-1.8478891">
        <time>2022-07-02T10:10:06Z</time>
      </trkpt>
      <trkpt lat="43.300407" lon="-1.8479381">
        <time>2022-07-02T10:10:11Z</time>
      </trkpt>
      <trkpt lat="43.30046" lon="-1.8479867">
        <time>2022-07-02T10:10:16Z</time>
      </trkpt>
      <trkpt lat="43.300514" lon="-1.8480347">
        <time>2022-07-02T10:10:21Z</time>
      </trkpt>
      <trkpt lat="43.300545" lon="-1.848094">
        <time>2022-07-02T10:10:25Z</time>
      </trkpt>
      <trkpt lat="43.300587" lon="-1.8481574">
        <time>2022-07-02T10:10:30Z</time>
      </trkpt>
      <trkpt lat="43.300632" lon="-1.848214">
        <time>2022-07-02T10:10:35Z</time>
      </trkpt>
      <trkpt lat="43.300674" lon="-1.848264">
        <time>2022-07-02T10:10:39Z</time>
      </trkpt>
      <trkpt lat="43.30072" lon="-1.8483104">
        <time>2022-07-02T10:10:43Z</time>
      </trkpt>
      <trkpt lat="43.30076" lon="-1.8483597">
        <time>2022-07-02T10:10:47Z</time>
      </trkpt>
      <trkpt lat="43.300808" lon="-1.848407">
        <time>2022-07-02T10:10:52Z</time>
      </trkpt>
      <trkpt lat="43.300858" lon="-1.8484393">
        <time>2022-07-02T10:10:56Z</time>
      </trkpt>
      <trkpt lat="43.30091" lon="-1.848467">
        <time>2022-07-02T10:11:00Z</time>
      </trkpt>
      <trkpt lat="43.30097" lon="-1.8484857">
        <time>2022-07-02T10:11:04Z</time>
      </trkpt>
      <trkpt lat="43.301025" lon="-1.8485026">
        <time>2022-07-02T10:11:08Z</time>
      </trkpt>
      <trkpt lat="43.30108" lon="-1.8485286">
        <time>2022-07-02T10:11:12Z</time>
      </trkpt>
      <trkpt lat="43.301132" lon="-1.8485663">
        <time>2022-07-02T10:11:16Z</time>
      </trkpt>
      <trkpt lat="43.30119" lon="-1.8485947">
        <time>2022-07-02T10:11:20Z</time>
      </trkpt>
      <trkpt lat="43.301247" lon="-1.8486097">
        <time>2022-07-02T10:11:23Z</time>
      </trkpt>
      <trkpt lat="43.30132" lon="-1.8486212">
        <time>2022-07-02T10:11:26Z</time>
      </trkpt>
      <trkpt lat="43.301388" lon="-1.84863">
        <time>2022-07-02T10:11:29Z</time>
      </trkpt>
      <trkpt lat="43.301456" lon="-1.8486483">
        <time>2022-07-02T10:11:32Z</time>
      </trkpt>
      <trkpt lat="43.30151" lon="-1.8486669">
        <time>2022-07-02T10:11:35Z</time>
      </trkpt>
      <trkpt lat="43.30156" lon="-1.8486803">
        <time>2022-07-02T10:11:38Z</time>
      </trkpt>
      <trkpt lat="43.30162" lon="-1.8486923">
        <time>2022-07-02T10:11:42Z</time>
      </trkpt>
      <trkpt lat="43.301678" lon="-1.8487059">
        <time>2022-07-02T10:11:46Z</time>
      </trkpt>
      <trkpt lat="43.301735" lon="-1.8487172">
        <time>2022-07-02T10:11:50Z</time>
      </trkpt>
      <trkpt lat="43.301796" lon="-1.8487272">
        <time>2022-07-02T10:11:54Z</time>
      </trkpt>
      <trkpt lat="43.301846" lon="-1.848753">
        <time>2022-07-02T10:11:58Z</time>
      </trkpt>
      <trkpt lat="43.301884" lon="-1.8488079">
        <time>2022-07-02T10:12:03Z</time>
      </trkpt>
      <trkpt lat="43.301926" lon="-1.8488626">
        <time>2022-07-02T10:12:07Z</time>
      </trkpt>
      <trkpt lat="43.30196" lon="-1.84891">
        <time>2022-07-02T10:12:10Z</time>
      </trkpt>
      <trkpt lat="43.302002" lon="-1.8489699">
        <time>2022-07-02T10:12:14Z</time>
      </trkpt>
      <trkpt lat="43.302044" lon="-1.8490266">
        <time>2022-07-02T10:12:18Z</time>
      </trkpt>
      <trkpt lat="43.30208" lon="-1.8490893">
        <time>2022-07-02T10:12:22Z</time>
      </trkpt>
      <trkpt lat="43.30212" lon="-1.8491422">
        <time>2022-07-02T10:12:26Z</time>
      </trkpt>
      <trkpt lat="43.302162" lon="-1.8491865">
        <time>2022-07-02T10:12:30Z</time>
      </trkpt>
      <trkpt lat="43.30221" lon="-1.8492249">
        <time>2022-07-02T10:12:34Z</time>
      </trkpt>
      <trkpt lat="43.30226" lon="-1.8492582">
        <time>2022-07-02T10:12:38Z</time>
      </trkpt>
      <trkpt lat="43.302315" lon="-1.8492715">
        <time>2022-07-02T10:12:42Z</time>
      </trkpt>
      <trkpt lat="43.302372" lon="-1.8492799">
        <time>2022-07-02T10:12:46Z</time>
      </trkpt>
      <trkpt lat="43.302425" lon="-1.8492799">
        <time>2022-07-02T10:12:50Z</time>
      </trkpt>
      <trkpt lat="43.302483" lon="-1.8492762">
        <time>2022-07-02T10:12:54Z</time>
      </trkpt>
      <trkpt lat="43.30254" lon="-1.8492652">
        <time>2022-07-02T10:12:58Z</time>
      </trkpt>
      <trkpt lat="43.302593" lon="-1.8492548">
        <time>2022-07-02T10:13:02Z</time>
      </trkpt>
      <trkpt lat="43.302654" lon="-1.8492396">
        <time>2022-07-02T10:13:06Z</time>
      </trkpt>
      <trkpt lat="43.30271" lon="-1.8492239">
        <time>2022-07-02T10:13:11Z</time>
      </trkpt>
      <trkpt lat="43.302776" lon="-1.8492043">
        <time>2022-07-02T10:13:16Z</time>
      </trkpt>
      <trkpt lat="43.302834" lon="-1.8491882">
        <time>2022-07-02T10:13:21Z</time>
      </trkpt>
      <trkpt lat="43.302895" lon="-1.8491819">
        <time>2022-07-02T10:13:27Z</time>
      </trkpt>
      <trkpt lat="43.302944" lon="-1.8491822">
        <time>2022-07-02T10:13:31Z</time>
      </trkpt>
      <trkpt lat="43.302998" lon="-1.8491666">
        <time>2022-07-02T10:13:35Z</time>
      </trkpt>
      <trkpt lat="43.303047" lon="-1.849139">
        <time>2022-07-02T10:13:39Z</time>
      </trkpt>
      <trkpt lat="43.303104" lon="-1.8491293">
        <time>2022-07-02T10:13:43Z</time>
      </trkpt>
      <trkpt lat="43.30316" lon="-1.8491173">
        <time>2022-07-02T10:13:47Z</time>
      </trkpt>
      <trkpt lat="43.303215" lon="-1.8490973">
        <time>2022-07-02T10:13:51Z</time>
      </trkpt>
      <trkpt lat="43.303265" lon="-1.849088">
        <time>2022-07-02T10:13:55Z</time>
      </trkpt>
      <trkpt lat="43.30332" lon="-1.8490642">
        <time>2022-07-02T10:14:00Z</time>
      </trkpt>
      <trkpt lat="43.303387" lon="-1.8490479">
        <time>2022-07-02T10:14:04Z</time>
      </trkpt>
      <trkpt lat="43.303448" lon="-1.8490343">
        <time>2022-07-02T10:14:08Z</time>
      </trkpt>
      <trkpt lat="43.303513" lon="-1.8490219">
        <time>2022-07-02T10:14:12Z</time>
      </trkpt>
      <trkpt lat="43.30357" lon="-1.8490206">
        <time>2022-07-02T10:14:16Z</time>
      </trkpt>
      <trkpt lat="43.303627" lon="-1.8490306">
        <time>2022-07-02T10:14:20Z</time>
      </trkpt>
      <trkpt lat="43.30368" lon="-1.8490419">
        <time>2022-07-02T10:14:24Z</time>
      </trkpt>
      <trkpt lat="43.303738" lon="-1.849064">
        <time>2022-07-02T10:14:28Z</time>
      </trkpt>
      <trkpt lat="43.303795" lon="-1.8490856">
        <time>2022-07-02T10:14:32Z</time>
      </trkpt>
      <trkpt lat="43.30387" lon="-1.8491273">
        <time>2022-07-02T10:15:18Z</time>
      </trkpt>
      <trkpt lat="43.303917" lon="-1.849157">
        <time>2022-07-02T10:15:22Z</time>
      </trkpt>
      <trkpt lat="43.303993" lon="-1.8492472">
        <time>2022-07-02T10:18:21Z</time>
      </trkpt>
      <trkpt lat="43.304043" lon="-1.8493019">
        <time>2022-07-02T10:18:24Z</time>
      </trkpt>
      <trkpt lat="43.30409" lon="-1.8493472">
        <time>2022-07-02T10:18:26Z</time>
      </trkpt>
      <trkpt lat="43.304134" lon="-1.8493916">
        <time>2022-07-02T10:18:28Z</time>
      </trkpt>
      <trkpt lat="43.304173" lon="-1.8494292">
        <time>2022-07-02T10:18:30Z</time>
      </trkpt>
      <trkpt lat="43.30422" lon="-1.8494823">
        <time>2022-07-02T10:18:33Z</time>
      </trkpt>
      <trkpt lat="43.304253" lon="-1.8495343">
        <time>2022-07-02T10:18:36Z</time>
      </trkpt>
      <trkpt lat="43.304283" lon="-1.8495879">
        <time>2022-07-02T10:18:39Z</time>
      </trkpt>
      <trkpt lat="43.30431" lon="-1.8496553">
        <time>2022-07-02T10:18:42Z</time>
      </trkpt>
      <trkpt lat="43.304325" lon="-1.8497345">
        <time>2022-07-02T10:18:45Z</time>
      </trkpt>
      <trkpt lat="43.30436" lon="-1.8497846">
        <time>2022-07-02T10:18:48Z</time>
      </trkpt>
      <trkpt lat="43.30441" lon="-1.8497815">
        <time>2022-07-02T10:18:51Z</time>
      </trkpt>
      <trkpt lat="43.30446" lon="-1.8497583">
        <time>2022-07-02T10:18:54Z</time>
      </trkpt>
      <trkpt lat="43.30451" lon="-1.849726">
        <time>2022-07-02T10:18:57Z</time>
      </trkpt>
      <trkpt lat="43.304558" lon="-1.8496885">
        <time>2022-07-02T10:19:00Z</time>
      </trkpt>
      <trkpt lat="43.304604" lon="-1.8496516">
        <time>2022-07-02T10:19:03Z</time>
      </trkpt>
      <trkpt lat="43.30465" lon="-1.8496152">
        <time>2022-07-02T10:19:06Z</time>
      </trkpt>
      <trkpt lat="43.30469" lon="-1.8495783">
        <time>2022-07-02T10:19:09Z</time>
      </trkpt>
      <trkpt lat="43.30475" lon="-1.849518">
        <time>2022-07-02T10:19:14Z</time>
      </trkpt>
      <trkpt lat="43.304794" lon="-1.8494593">
        <time>2022-07-02T10:19:18Z</time>
      </trkpt>
      <trkpt lat="43.304836" lon="-1.8493959">
        <time>2022-07-02T10:19:22Z</time>
      </trkpt>
      <trkpt lat="43.304882" lon="-1.8493292">
        <time>2022-07-02T10:19:26Z</time>
      </trkpt>
      <trkpt lat="43.304913" lon="-1.8492782">
        <time>2022-07-02T10:19:29Z</time>
      </trkpt>
      <trkpt lat="43.304947" lon="-1.849211">
        <time>2022-07-02T10:19:33Z</time>
      </trkpt>
      <trkpt lat="43.30498" lon="-1.8491457">
        <time>2022-07-02T10:19:37Z</time>
      </trkpt>
      <trkpt lat="43.30501" lon="-1.8490796">
        <time>2022-07-02T10:19:41Z</time>
      </trkpt>
      <trkpt lat="43.305042" lon="-1.8490163">
        <time>2022-07-02T10:19:45Z</time>
      </trkpt>
      <trkpt lat="43.305077" lon="-1.8489403">
        <time>2022-07-02T10:19:50Z</time>
      </trkpt>
      <trkpt lat="43.305103" lon="-1.8488743">
        <time>2022-07-02T10:19:54Z</time>
      </trkpt>
      <trkpt lat="43.305138" lon="-1.8488083">
        <time>2022-07-02T10:19:58Z</time>
      </trkpt>
      <trkpt lat="43.305172" lon="-1.8487417">
        <time>2022-07-02T10:20:02Z</time>
      </trkpt>
      <trkpt lat="43.305202" lon="-1.8486726">
        <time>2022-07-02T10:20:06Z</time>
      </trkpt>
      <trkpt lat="43.305237" lon="-1.8486056">
        <time>2022-07-02T10:20:10Z</time>
      </trkpt>
      <trkpt lat="43.30527" lon="-1.8485426">
        <time>2022-07-02T10:20:14Z</time>
      </trkpt>
      <trkpt lat="43.30531" lon="-1.8484776">
        <time>2022-07-02T10:20:18Z</time>
      </trkpt>
      <trkpt lat="43.305344" lon="-1.8484123">
        <time>2022-07-02T10:20:22Z</time>
      </trkpt>
      <trkpt lat="43.305378" lon="-1.8483499">
        <time>2022-07-02T10:20:26Z</time>
      </trkpt>
      <trkpt lat="43.30541" lon="-1.848284">
        <time>2022-07-02T10:20:30Z</time>
      </trkpt>
      <trkpt lat="43.305443" lon="-1.848217">
        <time>2022-07-02T10:20:34Z</time>
      </trkpt>
      <trkpt lat="43.305477" lon="-1.8481543">
        <time>2022-07-02T10:20:38Z</time>
      </trkpt>
      <trkpt lat="43.305515" lon="-1.8480899">
        <time>2022-07-02T10:20:42Z</time>
      </trkpt>
      <trkpt lat="43.30555" lon="-1.8480273">
        <time>2022-07-02T10:20:46Z</time>
      </trkpt>
      <trkpt lat="43.305584" lon="-1.8479626">
        <time>2022-07-02T10:20:50Z</time>
      </trkpt>
      <trkpt lat="43.305622" lon="-1.8478947">
        <time>2022-07-02T10:20:54Z</time>
      </trkpt>
      <trkpt lat="43.30566" lon="-1.8478264">
        <time>2022-07-02T10:20:58Z</time>
      </trkpt>
      <trkpt lat="43.305702" lon="-1.8477616">
        <time>2022-07-02T10:21:02Z</time>
      </trkpt>
      <trkpt lat="43.305744" lon="-1.8476974">
        <time>2022-07-02T10:21:06Z</time>
      </trkpt>
      <trkpt lat="43.305786" lon="-1.8476373">
        <time>2022-07-02T10:21:10Z</time>
      </trkpt>
      <trkpt lat="43.305836" lon="-1.8475707">
        <time>2022-07-02T10:21:14Z</time>
      </trkpt>
      <trkpt lat="43.30587" lon="-1.8475207">
        <time>2022-07-02T10:21:17Z</time>
      </trkpt>
      <trkpt lat="43.305923" lon="-1.8474606">
        <time>2022-07-02T10:21:21Z</time>
      </trkpt>
      <trkpt lat="43.305977" lon="-1.8474044">
        <time>2022-07-02T10:21:25Z</time>
      </trkpt>
      <trkpt lat="43.30602" lon="-1.8473697">
        <time>2022-07-02T10:21:28Z</time>
      </trkpt>
      <trkpt lat="43.306084" lon="-1.8473333">
        <time>2022-07-02T10:21:32Z</time>
      </trkpt>
      <trkpt lat="43.30614" lon="-1.8473077">
        <time>2022-07-02T10:21:35Z</time>
      </trkpt>
      <trkpt lat="43.3062" lon="-1.8472887">
        <time>2022-07-02T10:21:38Z</time>
      </trkpt>
      <trkpt lat="43.306255" lon="-1.8472633">
        <time>2022-07-02T10:21:41Z</time>
      </trkpt>
      <trkpt lat="43.306313" lon="-1.8472347">
        <time>2022-07-02T10:21:44Z</time>
      </trkpt>
      <trkpt lat="43.306366" lon="-1.8472087">
        <time>2022-07-02T10:21:47Z</time>
      </trkpt>
      <trkpt lat="43.30642" lon="-1.8471957">
        <time>2022-07-02T10:21:50Z</time>
      </trkpt>
      <trkpt lat="43.306465" lon="-1.847169">
        <time>2022-07-02T10:21:53Z</time>
      </trkpt>
      <trkpt lat="43.30651" lon="-1.8471384">
        <time>2022-07-02T10:21:56Z</time>
      </trkpt>
      <trkpt lat="43.306572" lon="-1.8471028">
        <time>2022-07-02T10:22:00Z</time>
      </trkpt>
      <trkpt lat="43.306625" lon="-1.847076">
        <time>2022-07-02T10:22:03Z</time>
      </trkpt>
      <trkpt lat="43.306683" lon="-1.8470464">
        <time>2022-07-02T10:22:06Z</time>
      </trkpt>
      <trkpt lat="43.30674" lon="-1.8470187">
        <time>2022-07-02T10:22:09Z</time>
      </trkpt>
      <trkpt lat="43.306797" lon="-1.846994">
        <time>2022-07-02T10:22:12Z</time>
      </trkpt>
      <trkpt lat="43.306858" lon="-1.8469701">
        <time>2022-07-02T10:22:15Z</time>
      </trkpt>
      <trkpt lat="43.306923" lon="-1.8469424">
        <time>2022-07-02T10:22:18Z</time>
      </trkpt>
      <trkpt lat="43.306995" lon="-1.8468944">
        <time>2022-07-02T10:22:21Z</time>
      </trkpt>
      <trkpt lat="43.30708" lon="-1.8468374">
        <time>2022-07-02T10:22:24Z</time>
      </trkpt>
      <trkpt lat="43.307133" lon="-1.8468077">
        <time>2022-07-02T10:22:26Z</time>
      </trkpt>
      <trkpt lat="43.307186" lon="-1.8467834">
        <time>2022-07-02T10:22:28Z</time>
      </trkpt>
      <trkpt lat="43.307236" lon="-1.846765">
        <time>2022-07-02T10:22:30Z</time>
      </trkpt>
      <trkpt lat="43.30729" lon="-1.8467457">
        <time>2022-07-02T10:22:32Z</time>
      </trkpt>
      <trkpt lat="43.30733" lon="-1.8467234">
        <time>2022-07-02T10:22:34Z</time>
      </trkpt>
      <trkpt lat="43.307396" lon="-1.8466941">
        <time>2022-07-02T10:22:37Z</time>
      </trkpt>
      <trkpt lat="43.30746" lon="-1.8466635">
        <time>2022-07-02T10:22:40Z</time>
      </trkpt>
      <trkpt lat="43.30752" lon="-1.8466251">
        <time>2022-07-02T10:22:43Z</time>
      </trkpt>
      <trkpt lat="43.307583" lon="-1.8465807">
        <time>2022-07-02T10:22:46Z</time>
      </trkpt>
      <trkpt lat="43.307648" lon="-1.8465368">
        <time>2022-07-02T10:22:49Z</time>
      </trkpt>
      <trkpt lat="43.307705" lon="-1.8464935">
        <time>2022-07-02T10:22:52Z</time>
      </trkpt>
      <trkpt lat="43.307766" lon="-1.8464551">
        <time>2022-07-02T10:22:55Z</time>
      </trkpt>
      <trkpt lat="43.307827" lon="-1.8464081">
        <time>2022-07-02T10:22:58Z</time>
      </trkpt>
      <trkpt lat="43.30789" lon="-1.8463508">
        <time>2022-07-02T10:23:01Z</time>
      </trkpt>
      <trkpt lat="43.307938" lon="-1.8463111">
        <time>2022-07-02T10:23:03Z</time>
      </trkpt>
      <trkpt lat="43.307983" lon="-1.8462721">
        <time>2022-07-02T10:23:05Z</time>
      </trkpt>
      <trkpt lat="43.30803" lon="-1.8462381">
        <time>2022-07-02T10:23:07Z</time>
      </trkpt>
      <trkpt lat="43.30808" lon="-1.8462015">
        <time>2022-07-02T10:23:09Z</time>
      </trkpt>
      <trkpt lat="43.30812" lon="-1.8461632">
        <time>2022-07-02T10:23:11Z</time>
      </trkpt>
      <trkpt lat="43.30819" lon="-1.8461078">
        <time>2022-07-02T10:23:14Z</time>
      </trkpt>
      <trkpt lat="43.30824" lon="-1.8460692">
        <time>2022-07-02T10:23:16Z</time>
      </trkpt>
      <trkpt lat="43.308285" lon="-1.8460268">
        <time>2022-07-02T10:23:18Z</time>
      </trkpt>
      <trkpt lat="43.30833" lon="-1.8459826">
        <time>2022-07-02T10:23:20Z</time>
      </trkpt>
      <trkpt lat="43.308372" lon="-1.8459325">
        <time>2022-07-02T10:23:22Z</time>
      </trkpt>
      <trkpt lat="43.308414" lon="-1.8458759">
        <time>2022-07-02T10:23:24Z</time>
      </trkpt>
      <trkpt lat="43.30845" lon="-1.8458118">
        <time>2022-07-02T10:23:26Z</time>
      </trkpt>
      <trkpt lat="43.3085" lon="-1.8456998">
        <time>2022-07-02T10:23:29Z</time>
      </trkpt>
      <trkpt lat="43.308533" lon="-1.8456105">
        <time>2022-07-02T10:23:31Z</time>
      </trkpt>
      <trkpt lat="43.30857" lon="-1.8455085">
        <time>2022-07-02T10:23:33Z</time>
      </trkpt>
      <trkpt lat="43.308613" lon="-1.8453932">
        <time>2022-07-02T10:23:35Z</time>
      </trkpt>
      <trkpt lat="43.30866" lon="-1.8452609">
        <time>2022-07-02T10:23:37Z</time>
      </trkpt>
      <trkpt lat="43.308685" lon="-1.8451896">
        <time>2022-07-02T10:23:38Z</time>
      </trkpt>
      <trkpt lat="43.308712" lon="-1.8451155">
        <time>2022-07-02T10:23:39Z</time>
      </trkpt>
      <trkpt lat="43.30874" lon="-1.8450382">
        <time>2022-07-02T10:23:40Z</time>
      </trkpt>
      <trkpt lat="43.308765" lon="-1.8449589">
        <time>2022-07-02T10:23:41Z</time>
      </trkpt>
      <trkpt lat="43.308796" lon="-1.8448762">
        <time>2022-07-02T10:23:42Z</time>
      </trkpt>
      <trkpt lat="43.308826" lon="-1.8447902">
        <time>2022-07-02T10:23:43Z</time>
      </trkpt>
      <trkpt lat="43.308857" lon="-1.8447006">
        <time>2022-07-02T10:23:44Z</time>
      </trkpt>
      <trkpt lat="43.30889" lon="-1.8446085">
        <time>2022-07-02T10:23:45Z</time>
      </trkpt>
      <trkpt lat="43.30893" lon="-1.8445148">
        <time>2022-07-02T10:23:46Z</time>
      </trkpt>
      <trkpt lat="43.308964" lon="-1.8444209">
        <time>2022-07-02T10:23:47Z</time>
      </trkpt>
      <trkpt lat="43.309" lon="-1.8443263">
        <time>2022-07-02T10:23:48Z</time>
      </trkpt>
      <trkpt lat="43.309036" lon="-1.8442322">
        <time>2022-07-02T10:23:49Z</time>
      </trkpt>
      <trkpt lat="43.309074" lon="-1.8441402">
        <time>2022-07-02T10:23:50Z</time>
      </trkpt>
      <trkpt lat="43.309113" lon="-1.8440505">
        <time>2022-07-02T10:23:51Z</time>
      </trkpt>
      <trkpt lat="43.309147" lon="-1.8439629">
        <time>2022-07-02T10:23:52Z</time>
      </trkpt>
      <trkpt lat="43.30918" lon="-1.8438786">
        <time>2022-07-02T10:23:53Z</time>
      </trkpt>
      <trkpt lat="43.309216" lon="-1.8437959">
        <time>2022-07-02T10:23:54Z</time>
      </trkpt>
      <trkpt lat="43.30925" lon="-1.8437159">
        <time>2022-07-02T10:23:55Z</time>
      </trkpt>
      <trkpt lat="43.30928" lon="-1.8436376">
        <time>2022-07-02T10:23:56Z</time>
      </trkpt>
      <trkpt lat="43.309307" lon="-1.8435606">
        <time>2022-07-02T10:23:57Z</time>
      </trkpt>
      <trkpt lat="43.309334" lon="-1.8434856">
        <time>2022-07-02T10:23:58Z</time>
      </trkpt>
      <trkpt lat="43.309353" lon="-1.8434112">
        <time>2022-07-02T10:23:59Z</time>
      </trkpt>
      <trkpt lat="43.30937" lon="-1.8433386">
        <time>2022-07-02T10:24:00Z</time>
      </trkpt>
      <trkpt lat="43.30938" lon="-1.8432692">
        <time>2022-07-02T10:24:01Z</time>
      </trkpt>
      <trkpt lat="43.309387" lon="-1.843136">
        <time>2022-07-02T10:24:03Z</time>
      </trkpt>
      <trkpt lat="43.309406" lon="-1.8430203">
        <time>2022-07-02T10:24:05Z</time>
      </trkpt>
      <trkpt lat="43.30945" lon="-1.8429266">
        <time>2022-07-02T10:24:07Z</time>
      </trkpt>
      <trkpt lat="43.309513" lon="-1.8428426">
        <time>2022-07-02T10:24:09Z</time>
      </trkpt>
      <trkpt lat="43.309586" lon="-1.842747">
        <time>2022-07-02T10:24:11Z</time>
      </trkpt>
      <trkpt lat="43.30962" lon="-1.8426913">
        <time>2022-07-02T10:24:12Z</time>
      </trkpt>
      <trkpt lat="43.309654" lon="-1.8426323">
        <time>2022-07-02T10:24:13Z</time>
      </trkpt>
      <trkpt lat="43.309685" lon="-1.8425703">
        <time>2022-07-02T10:24:14Z</time>
      </trkpt>
      <trkpt lat="43.309715" lon="-1.8425113">
        <time>2022-07-02T10:24:15Z</time>
      </trkpt>
      <trkpt lat="43.309742" lon="-1.8424493">
        <time>2022-07-02T10:24:16Z</time>
      </trkpt>
      <trkpt lat="43.309772" lon="-1.8423812">
        <time>2022-07-02T10:24:17Z</time>
      </trkpt>
      <trkpt lat="43.3098" lon="-1.8423179">
        <time>2022-07-02T10:24:18Z</time>
      </trkpt>
      <trkpt lat="43.309826" lon="-1.8422503">
        <time>2022-07-02T10:24:19Z</time>
      </trkpt>
      <trkpt lat="43.309853" lon="-1.842189">
        <time>2022-07-02T10:24:20Z</time>
      </trkpt>
      <trkpt lat="43.309875" lon="-1.842127">
        <time>2022-07-02T10:24:21Z</time>
      </trkpt>
      <trkpt lat="43.309902" lon="-1.842062">
        <time>2022-07-02T10:24:22Z</time>
      </trkpt>
      <trkpt lat="43.30993" lon="-1.8420033">
        <time>2022-07-02T10:24:23Z</time>
      </trkpt>
      <trkpt lat="43.309956" lon="-1.8419443">
        <time>2022-07-02T10:24:24Z</time>
      </trkpt>
      <trkpt lat="43.310013" lon="-1.841829">
        <time>2022-07-02T10:24:26Z</time>
      </trkpt>
      <trkpt lat="43.310078" lon="-1.8417276">
        <time>2022-07-02T10:24:28Z</time>
      </trkpt>
      <trkpt lat="43.31015" lon="-1.8416437">
        <time>2022-07-02T10:24:30Z</time>
      </trkpt>
      <trkpt lat="43.310223" lon="-1.841576">
        <time>2022-07-02T10:24:32Z</time>
      </trkpt>
      <trkpt lat="43.310303" lon="-1.8415214">
        <time>2022-07-02T10:24:34Z</time>
      </trkpt>
      <trkpt lat="43.31039" lon="-1.8414767">
        <time>2022-07-02T10:24:36Z</time>
      </trkpt>
      <trkpt lat="43.310482" lon="-1.8414323">
        <time>2022-07-02T10:24:38Z</time>
      </trkpt>
      <trkpt lat="43.31053" lon="-1.8414077">
        <time>2022-07-02T10:24:39Z</time>
      </trkpt>
      <trkpt lat="43.310642" lon="-1.841353">
        <time>2022-07-02T10:24:41Z</time>
      </trkpt>
      <trkpt lat="43.310703" lon="-1.8413221">
        <time>2022-07-02T10:24:42Z</time>
      </trkpt>
      <trkpt lat="43.31077" lon="-1.841288">
        <time>2022-07-02T10:24:43Z</time>
      </trkpt>
      <trkpt lat="43.310837" lon="-1.841249">
        <time>2022-07-02T10:24:44Z</time>
      </trkpt>
      <trkpt lat="43.310905" lon="-1.841204">
        <time>2022-07-02T10:24:45Z</time>
      </trkpt>
      <trkpt lat="43.310978" lon="-1.841153">
        <time>2022-07-02T10:24:46Z</time>
      </trkpt>
      <trkpt lat="43.31105" lon="-1.8410983">
        <time>2022-07-02T10:24:47Z</time>
      </trkpt>
      <trkpt lat="43.311127" lon="-1.8410378">
        <time>2022-07-02T10:24:48Z</time>
      </trkpt>
      <trkpt lat="43.3112" lon="-1.840978">
        <time>2022-07-02T10:24:49Z</time>
      </trkpt>
      <trkpt lat="43.31127" lon="-1.8409187">
        <time>2022-07-02T10:24:50Z</time>
      </trkpt>
      <trkpt lat="43.311333" lon="-1.840865">
        <time>2022-07-02T10:24:51Z</time>
      </trkpt>
      <trkpt lat="43.311394" lon="-1.8408104">
        <time>2022-07-02T10:24:52Z</time>
      </trkpt>
      <trkpt lat="43.31145" lon="-1.8407601">
        <time>2022-07-02T10:24:53Z</time>
      </trkpt>
      <trkpt lat="43.31151" lon="-1.840713">
        <time>2022-07-02T10:24:54Z</time>
      </trkpt>
      <trkpt lat="43.31156" lon="-1.8406701">
        <time>2022-07-02T10:24:55Z</time>
      </trkpt>
      <trkpt lat="43.31161" lon="-1.8406324">
        <time>2022-07-02T10:24:56Z</time>
      </trkpt>
      <trkpt lat="43.311665" lon="-1.8405951">
        <time>2022-07-02T10:24:57Z</time>
      </trkpt>
      <trkpt lat="43.31172" lon="-1.8405625">
        <time>2022-07-02T10:24:58Z</time>
      </trkpt>
      <trkpt lat="43.311775" lon="-1.8405348">
        <time>2022-07-02T10:24:59Z</time>
      </trkpt>
      <trkpt lat="43.311836" lon="-1.840512">
        <time>2022-07-02T10:25:00Z</time>
      </trkpt>
      <trkpt lat="43.311893" lon="-1.8404944">
        <time>2022-07-02T10:25:01Z</time>
      </trkpt>
      <trkpt lat="43.31196" lon="-1.8404827">
        <time>2022-07-02T10:25:02Z</time>
      </trkpt>
      <trkpt lat="43.312027" lon="-1.8404754">
        <time>2022-07-02T10:25:03Z</time>
      </trkpt>
      <trkpt lat="43.3121" lon="-1.8404711">
        <time>2022-07-02T10:25:04Z</time>
      </trkpt>
      <trkpt lat="43.312176" lon="-1.8404708">
        <time>2022-07-02T10:25:05Z</time>
      </trkpt>
      <trkpt lat="43.312256" lon="-1.8404738">
        <time>2022-07-02T10:25:06Z</time>
      </trkpt>
      <trkpt lat="43.312336" lon="-1.8404764">
        <time>2022-07-02T10:25:07Z</time>
      </trkpt>
      <trkpt lat="43.312424" lon="-1.8404751">
        <time>2022-07-02T10:25:08Z</time>
      </trkpt>
      <trkpt lat="43.31251" lon="-1.8404665">
        <time>2022-07-02T10:25:09Z</time>
      </trkpt>
      <trkpt lat="43.3126" lon="-1.8404495">
        <time>2022-07-02T10:25:10Z</time>
      </trkpt>
      <trkpt lat="43.312687" lon="-1.8404241">
        <time>2022-07-02T10:25:11Z</time>
      </trkpt>
      <trkpt lat="43.31277" lon="-1.8403908">
        <time>2022-07-02T10:25:12Z</time>
      </trkpt>
      <trkpt lat="43.31285" lon="-1.8403522">
        <time>2022-07-02T10:25:13Z</time>
      </trkpt>
      <trkpt lat="43.312927" lon="-1.8403051">
        <time>2022-07-02T10:25:14Z</time>
      </trkpt>
      <trkpt lat="43.313004" lon="-1.8402501">
        <time>2022-07-02T10:25:15Z</time>
      </trkpt>
      <trkpt lat="43.313084" lon="-1.8401841">
        <time>2022-07-02T10:25:16Z</time>
      </trkpt>
      <trkpt lat="43.313156" lon="-1.8401204">
        <time>2022-07-02T10:25:17Z</time>
      </trkpt>
      <trkpt lat="43.313232" lon="-1.8400499">
        <time>2022-07-02T10:25:18Z</time>
      </trkpt>
      <trkpt lat="43.313305" lon="-1.8399835">
        <time>2022-07-02T10:25:19Z</time>
      </trkpt>
      <trkpt lat="43.313377" lon="-1.8399159">
        <time>2022-07-02T10:25:20Z</time>
      </trkpt>
      <trkpt lat="43.31345" lon="-1.8398468">
        <time>2022-07-02T10:25:21Z</time>
      </trkpt>
      <trkpt lat="43.313522" lon="-1.8397758">
        <time>2022-07-02T10:25:22Z</time>
      </trkpt>
      <trkpt lat="43.313595" lon="-1.8397045">
        <time>2022-07-02T10:25:23Z</time>
      </trkpt>
      <trkpt lat="43.313663" lon="-1.8396322">
        <time>2022-07-02T10:25:24Z</time>
      </trkpt>
      <trkpt lat="43.313736" lon="-1.8395581">
        <time>2022-07-02T10:25:25Z</time>
      </trkpt>
      <trkpt lat="43.31381" lon="-1.8394842">
        <time>2022-07-02T10:25:26Z</time>
      </trkpt>
      <trkpt lat="43.313885" lon="-1.8394048">
        <time>2022-07-02T10:25:27Z</time>
      </trkpt>
      <trkpt lat="43.313953" lon="-1.8393322">
        <time>2022-07-02T10:25:28Z</time>
      </trkpt>
      <trkpt lat="43.314022" lon="-1.8392595">
        <time>2022-07-02T10:25:29Z</time>
      </trkpt>
      <trkpt lat="43.3141" lon="-1.8391829">
        <time>2022-07-02T10:25:30Z</time>
      </trkpt>
      <trkpt lat="43.314167" lon="-1.8391132">
        <time>2022-07-02T10:25:31Z</time>
      </trkpt>
      <trkpt lat="43.314236" lon="-1.8390385">
        <time>2022-07-02T10:25:32Z</time>
      </trkpt>
      <trkpt lat="43.314304" lon="-1.8389679">
        <time>2022-07-02T10:25:33Z</time>
      </trkpt>
      <trkpt lat="43.31437" lon="-1.8388948">
        <time>2022-07-02T10:25:34Z</time>
      </trkpt>
      <trkpt lat="43.314438" lon="-1.8388135">
        <time>2022-07-02T10:25:35Z</time>
      </trkpt>
      <trkpt lat="43.314507" lon="-1.8387285">
        <time>2022-07-02T10:25:36Z</time>
      </trkpt>
      <trkpt lat="43.31457" lon="-1.8386389">
        <time>2022-07-02T10:25:37Z</time>
      </trkpt>
      <trkpt lat="43.314632" lon="-1.8385515">
        <time>2022-07-02T10:25:38Z</time>
      </trkpt>
      <trkpt lat="43.314693" lon="-1.8384593">
        <time>2022-07-02T10:25:39Z</time>
      </trkpt>
      <trkpt lat="43.31476" lon="-1.8383646">
        <time>2022-07-02T10:25:40Z</time>
      </trkpt>
      <trkpt lat="43.314827" lon="-1.8382589">
        <time>2022-07-02T10:25:41Z</time>
      </trkpt>
      <trkpt lat="43.314896" lon="-1.8381523">
        <time>2022-07-02T10:25:42Z</time>
      </trkpt>
      <trkpt lat="43.31497" lon="-1.8380439">
        <time>2022-07-02T10:25:43Z</time>
      </trkpt>
      <trkpt lat="43.315033" lon="-1.8379335">
        <time>2022-07-02T10:25:44Z</time>
      </trkpt>
      <trkpt lat="43.315098" lon="-1.8378286">
        <time>2022-07-02T10:25:45Z</time>
      </trkpt>
      <trkpt lat="43.31516" lon="-1.8377206">
        <time>2022-07-02T10:25:46Z</time>
      </trkpt>
      <trkpt lat="43.315224" lon="-1.8376106">
        <time>2022-07-02T10:25:47Z</time>
      </trkpt>
      <trkpt lat="43.31529" lon="-1.8374985">
        <time>2022-07-02T10:25:48Z</time>
      </trkpt>
      <trkpt lat="43.315353" lon="-1.8373855">
        <time>2022-07-02T10:25:49Z</time>
      </trkpt>
      <trkpt lat="43.315422" lon="-1.8372729">
        <time>2022-07-02T10:25:50Z</time>
      </trkpt>
      <trkpt lat="43.31549" lon="-1.8371556">
        <time>2022-07-02T10:25:51Z</time>
      </trkpt>
      <trkpt lat="43.31556" lon="-1.8370403">
        <time>2022-07-02T10:25:52Z</time>
      </trkpt>
      <trkpt lat="43.315624" lon="-1.836929">
        <time>2022-07-02T10:25:53Z</time>
      </trkpt>
      <trkpt lat="43.315685" lon="-1.836818">
        <time>2022-07-02T10:25:54Z</time>
      </trkpt>
      <trkpt lat="43.315754" lon="-1.8367063">
        <time>2022-07-02T10:25:55Z</time>
      </trkpt>
      <trkpt lat="43.315887" lon="-1.8364836">
        <time>2022-07-02T10:25:57Z</time>
      </trkpt>
      <trkpt lat="43.315956" lon="-1.8363786">
        <time>2022-07-02T10:25:58Z</time>
      </trkpt>
      <trkpt lat="43.31603" lon="-1.8362666">
        <time>2022-07-02T10:25:59Z</time>
      </trkpt>
      <trkpt lat="43.316097" lon="-1.8361562">
        <time>2022-07-02T10:26:00Z</time>
      </trkpt>
      <trkpt lat="43.31616" lon="-1.8360486">
        <time>2022-07-02T10:26:01Z</time>
      </trkpt>
      <trkpt lat="43.31622" lon="-1.8359436">
        <time>2022-07-02T10:26:02Z</time>
      </trkpt>
      <trkpt lat="43.31628" lon="-1.8358426">
        <time>2022-07-02T10:26:03Z</time>
      </trkpt>
      <trkpt lat="43.316338" lon="-1.8357456">
        <time>2022-07-02T10:26:04Z</time>
      </trkpt>
      <trkpt lat="43.31639" lon="-1.8356522">
        <time>2022-07-02T10:26:05Z</time>
      </trkpt>
      <trkpt lat="43.316444" lon="-1.835562">
        <time>2022-07-02T10:26:06Z</time>
      </trkpt>
      <trkpt lat="43.316498" lon="-1.835474">
        <time>2022-07-02T10:26:07Z</time>
      </trkpt>
      <trkpt lat="43.316547" lon="-1.835387">
        <time>2022-07-02T10:26:08Z</time>
      </trkpt>
      <trkpt lat="43.316597" lon="-1.8352973">
        <time>2022-07-02T10:26:09Z</time>
      </trkpt>
      <trkpt lat="43.31664" lon="-1.8352033">
        <time>2022-07-02T10:26:10Z</time>
      </trkpt>
      <trkpt lat="43.316677" lon="-1.835104">
        <time>2022-07-02T10:26:11Z</time>
      </trkpt>
      <trkpt lat="43.316708" lon="-1.8349973">
        <time>2022-07-02T10:26:12Z</time>
      </trkpt>
      <trkpt lat="43.316734" lon="-1.8348846">
        <time>2022-07-02T10:26:13Z</time>
      </trkpt>
      <trkpt lat="43.316757" lon="-1.834773">
        <time>2022-07-02T10:26:14Z</time>
      </trkpt>
      <trkpt lat="43.316776" lon="-1.8346536">
        <time>2022-07-02T10:26:15Z</time>
      </trkpt>
      <trkpt lat="43.316803" lon="-1.8345196">
        <time>2022-07-02T10:26:16Z</time>
      </trkpt>
      <trkpt lat="43.316822" lon="-1.834385">
        <time>2022-07-02T10:26:17Z</time>
      </trkpt>
      <trkpt lat="43.31684" lon="-1.8342594">
        <time>2022-07-02T10:26:18Z</time>
      </trkpt>
      <trkpt lat="43.31686" lon="-1.8341323">
        <time>2022-07-02T10:26:19Z</time>
      </trkpt>
      <trkpt lat="43.31688" lon="-1.8339963">
        <time>2022-07-02T10:26:20Z</time>
      </trkpt>
      <trkpt lat="43.316902" lon="-1.8338714">
        <time>2022-07-02T10:26:21Z</time>
      </trkpt>
      <trkpt lat="43.31692" lon="-1.833745">
        <time>2022-07-02T10:26:22Z</time>
      </trkpt>
      <trkpt lat="43.316944" lon="-1.8336177">
        <time>2022-07-02T10:26:23Z</time>
      </trkpt>
      <trkpt lat="43.31697" lon="-1.8334813">
        <time>2022-07-02T10:26:24Z</time>
      </trkpt>
      <trkpt lat="43.316998" lon="-1.8333473">
        <time>2022-07-02T10:26:25Z</time>
      </trkpt>
      <trkpt lat="43.31702" lon="-1.8332237">
        <time>2022-07-02T10:26:26Z</time>
      </trkpt>
      <trkpt lat="43.31705" lon="-1.8330903">
        <time>2022-07-02T10:26:27Z</time>
      </trkpt>
      <trkpt lat="43.31708" lon="-1.8329687">
        <time>2022-07-02T10:26:28Z</time>
      </trkpt>
      <trkpt lat="43.317112" lon="-1.832844">
        <time>2022-07-02T10:26:29Z</time>
      </trkpt>
      <trkpt lat="43.317142" lon="-1.8327177">
        <time>2022-07-02T10:26:30Z</time>
      </trkpt>
      <trkpt lat="43.31718" lon="-1.8325874">
        <time>2022-07-02T10:26:31Z</time>
      </trkpt>
      <trkpt lat="43.31722" lon="-1.832447">
        <time>2022-07-02T10:26:32Z</time>
      </trkpt>
      <trkpt lat="43.317257" lon="-1.8323164">
        <time>2022-07-02T10:26:33Z</time>
      </trkpt>
      <trkpt lat="43.3173" lon="-1.8321861">
        <time>2022-07-02T10:26:34Z</time>
      </trkpt>
      <trkpt lat="43.31734" lon="-1.8320584">
        <time>2022-07-02T10:26:35Z</time>
      </trkpt>
      <trkpt lat="43.317383" lon="-1.831935">
        <time>2022-07-02T10:26:36Z</time>
      </trkpt>
      <trkpt lat="43.317425" lon="-1.8318157">
        <time>2022-07-02T10:26:37Z</time>
      </trkpt>
      <trkpt lat="43.317467" lon="-1.8316997">
        <time>2022-07-02T10:26:38Z</time>
      </trkpt>
      <trkpt lat="43.317505" lon="-1.831585">
        <time>2022-07-02T10:26:39Z</time>
      </trkpt>
      <trkpt lat="43.317547" lon="-1.8314711">
        <time>2022-07-02T10:26:40Z</time>
      </trkpt>
      <trkpt lat="43.317585" lon="-1.8313557">
        <time>2022-07-02T10:26:41Z</time>
      </trkpt>
      <trkpt lat="43.317627" lon="-1.8312387">
        <time>2022-07-02T10:26:42Z</time>
      </trkpt>
      <trkpt lat="43.317673" lon="-1.8311211">
        <time>2022-07-02T10:26:43Z</time>
      </trkpt>
      <trkpt lat="43.317722" lon="-1.8310058">
        <time>2022-07-02T10:26:44Z</time>
      </trkpt>
      <trkpt lat="43.317776" lon="-1.8308932">
        <time>2022-07-02T10:26:45Z</time>
      </trkpt>
      <trkpt lat="43.317837" lon="-1.8307861">
        <time>2022-07-02T10:26:46Z</time>
      </trkpt>
      <trkpt lat="43.317905" lon="-1.8306881">
        <time>2022-07-02T10:26:47Z</time>
      </trkpt>
      <trkpt lat="43.31798" lon="-1.8305998">
        <time>2022-07-02T10:26:48Z</time>
      </trkpt>
      <trkpt lat="43.318058" lon="-1.8305204">
        <time>2022-07-02T10:26:49Z</time>
      </trkpt>
      <trkpt lat="43.31814" lon="-1.8304498">
        <time>2022-07-02T10:26:50Z</time>
      </trkpt>
      <trkpt lat="43.318226" lon="-1.8303862">
        <time>2022-07-02T10:26:51Z</time>
      </trkpt>
      <trkpt lat="43.31831" lon="-1.8303258">
        <time>2022-07-02T10:26:52Z</time>
      </trkpt>
      <trkpt lat="43.318398" lon="-1.8302641">
        <time>2022-07-02T10:26:53Z</time>
      </trkpt>
      <trkpt lat="43.318478" lon="-1.8301975">
        <time>2022-07-02T10:26:54Z</time>
      </trkpt>
      <trkpt lat="43.318558" lon="-1.8301218">
        <time>2022-07-02T10:26:55Z</time>
      </trkpt>
      <trkpt lat="43.318626" lon="-1.8300351">
        <time>2022-07-02T10:26:56Z</time>
      </trkpt>
      <trkpt lat="43.318695" lon="-1.8299375">
        <time>2022-07-02T10:26:57Z</time>
      </trkpt>
      <trkpt lat="43.318756" lon="-1.8298292">
        <time>2022-07-02T10:26:58Z</time>
      </trkpt>
      <trkpt lat="43.318813" lon="-1.8297131">
        <time>2022-07-02T10:26:59Z</time>
      </trkpt>
      <trkpt lat="43.318867" lon="-1.8295928">
        <time>2022-07-02T10:27:00Z</time>
      </trkpt>
      <trkpt lat="43.31892" lon="-1.8294718">
        <time>2022-07-02T10:27:01Z</time>
      </trkpt>
      <trkpt lat="43.318974" lon="-1.8293551">
        <time>2022-07-02T10:27:02Z</time>
      </trkpt>
      <trkpt lat="43.31903" lon="-1.8292471">
        <time>2022-07-02T10:27:03Z</time>
      </trkpt>
      <trkpt lat="43.31909" lon="-1.8291491">
        <time>2022-07-02T10:27:04Z</time>
      </trkpt>
      <trkpt lat="43.31916" lon="-1.8290635">
        <time>2022-07-02T10:27:05Z</time>
      </trkpt>
      <trkpt lat="43.31924" lon="-1.8289919">
        <time>2022-07-02T10:27:06Z</time>
      </trkpt>
      <trkpt lat="43.31933" lon="-1.8289366">
        <time>2022-07-02T10:27:07Z</time>
      </trkpt>
      <trkpt lat="43.319424" lon="-1.8288925">
        <time>2022-07-02T10:27:08Z</time>
      </trkpt>
      <trkpt lat="43.319527" lon="-1.8288575">
        <time>2022-07-02T10:27:09Z</time>
      </trkpt>
      <trkpt lat="43.31963" lon="-1.8288295">
        <time>2022-07-02T10:27:10Z</time>
      </trkpt>
      <trkpt lat="43.319736" lon="-1.8288069">
        <time>2022-07-02T10:27:11Z</time>
      </trkpt>
      <trkpt lat="43.319843" lon="-1.8287885">
        <time>2022-07-02T10:27:12Z</time>
      </trkpt>
      <trkpt lat="43.31995" lon="-1.8287729">
        <time>2022-07-02T10:27:13Z</time>
      </trkpt>
      <trkpt lat="43.32006" lon="-1.8287588">
        <time>2022-07-02T10:27:14Z</time>
      </trkpt>
      <trkpt lat="43.32016" lon="-1.8287482">
        <time>2022-07-02T10:27:15Z</time>
      </trkpt>
      <trkpt lat="43.32037" lon="-1.8287282">
        <time>2022-07-02T10:27:17Z</time>
      </trkpt>
      <trkpt lat="43.320473" lon="-1.8287148">
        <time>2022-07-02T10:27:18Z</time>
      </trkpt>
      <trkpt lat="43.32057" lon="-1.8287009">
        <time>2022-07-02T10:27:19Z</time>
      </trkpt>
      <trkpt lat="43.320663" lon="-1.8286862">
        <time>2022-07-02T10:27:20Z</time>
      </trkpt>
      <trkpt lat="43.320747" lon="-1.8286722">
        <time>2022-07-02T10:27:21Z</time>
      </trkpt>
      <trkpt lat="43.320824" lon="-1.8286602">
        <time>2022-07-02T10:27:22Z</time>
      </trkpt>
      <trkpt lat="43.320896" lon="-1.8286489">
        <time>2022-07-02T10:27:23Z</time>
      </trkpt>
      <trkpt lat="43.32096" lon="-1.8286376">
        <time>2022-07-02T10:27:24Z</time>
      </trkpt>
      <trkpt lat="43.321022" lon="-1.8286259">
        <time>2022-07-02T10:27:25Z</time>
      </trkpt>
      <trkpt lat="43.321075" lon="-1.8286129">
        <time>2022-07-02T10:27:26Z</time>
      </trkpt>
      <trkpt lat="43.321125" lon="-1.8285979">
        <time>2022-07-02T10:27:27Z</time>
      </trkpt>
      <trkpt lat="43.321205" lon="-1.8285686">
        <time>2022-07-02T10:27:29Z</time>
      </trkpt>
      <trkpt lat="43.32127" lon="-1.8285402">
        <time>2022-07-02T10:27:31Z</time>
      </trkpt>
      <trkpt lat="43.321327" lon="-1.8285105">
        <time>2022-07-02T10:27:33Z</time>
      </trkpt>
      <trkpt lat="43.32138" lon="-1.8284745">
        <time>2022-07-02T10:27:35Z</time>
      </trkpt>
      <trkpt lat="43.321438" lon="-1.8284216">
        <time>2022-07-02T10:27:37Z</time>
      </trkpt>
      <trkpt lat="43.3215" lon="-1.8283513">
        <time>2022-07-02T10:27:39Z</time>
      </trkpt>
      <trkpt lat="43.321564" lon="-1.8282663">
        <time>2022-07-02T10:27:41Z</time>
      </trkpt>
      <trkpt lat="43.321632" lon="-1.828167">
        <time>2022-07-02T10:27:43Z</time>
      </trkpt>
      <trkpt lat="43.321705" lon="-1.8280579">
        <time>2022-07-02T10:27:45Z</time>
      </trkpt>
      <trkpt lat="43.321743" lon="-1.8280016">
        <time>2022-07-02T10:27:46Z</time>
      </trkpt>
      <trkpt lat="43.32178" lon="-1.8279439">
        <time>2022-07-02T10:27:47Z</time>
      </trkpt>
      <trkpt lat="43.32182" lon="-1.8278812">
        <time>2022-07-02T10:27:48Z</time>
      </trkpt>
      <trkpt lat="43.32186" lon="-1.8278153">
        <time>2022-07-02T10:27:49Z</time>
      </trkpt>
      <trkpt lat="43.321903" lon="-1.8277466">
        <time>2022-07-02T10:27:50Z</time>
      </trkpt>
      <trkpt lat="43.32195" lon="-1.827675">
        <time>2022-07-02T10:27:51Z</time>
      </trkpt>
      <trkpt lat="43.322" lon="-1.8275993">
        <time>2022-07-02T10:27:52Z</time>
      </trkpt>
      <trkpt lat="43.322052" lon="-1.8275203">
        <time>2022-07-02T10:27:53Z</time>
      </trkpt>
      <trkpt lat="43.322113" lon="-1.82743">
        <time>2022-07-02T10:27:54Z</time>
      </trkpt>
      <trkpt lat="43.322174" lon="-1.8273356">
        <time>2022-07-02T10:27:55Z</time>
      </trkpt>
      <trkpt lat="43.32223" lon="-1.827245">
        <time>2022-07-02T10:27:56Z</time>
      </trkpt>
      <trkpt lat="43.3223" lon="-1.8271413">
        <time>2022-07-02T10:27:57Z</time>
      </trkpt>
      <trkpt lat="43.322365" lon="-1.827044">
        <time>2022-07-02T10:27:58Z</time>
      </trkpt>
      <trkpt lat="43.322433" lon="-1.826944">
        <time>2022-07-02T10:27:59Z</time>
      </trkpt>
      <trkpt lat="43.3225" lon="-1.8268423">
        <time>2022-07-02T10:28:00Z</time>
      </trkpt>
      <trkpt lat="43.32257" lon="-1.8267387">
        <time>2022-07-02T10:28:01Z</time>
      </trkpt>
      <trkpt lat="43.322643" lon="-1.8266326">
        <time>2022-07-02T10:28:02Z</time>
      </trkpt>
      <trkpt lat="43.322712" lon="-1.826525">
        <time>2022-07-02T10:28:03Z</time>
      </trkpt>
      <trkpt lat="43.322784" lon="-1.826416">
        <time>2022-07-02T10:28:04Z</time>
      </trkpt>
      <trkpt lat="43.322857" lon="-1.8263067">
        <time>2022-07-02T10:28:05Z</time>
      </trkpt>
      <trkpt lat="43.32293" lon="-1.8261967">
        <time>2022-07-02T10:28:06Z</time>
      </trkpt>
      <trkpt lat="43.323006" lon="-1.8260846">
        <time>2022-07-02T10:28:07Z</time>
      </trkpt>
      <trkpt lat="43.323082" lon="-1.8259727">
        <time>2022-07-02T10:28:08Z</time>
      </trkpt>
      <trkpt lat="43.323154" lon="-1.82586">
        <time>2022-07-02T10:28:09Z</time>
      </trkpt>
      <trkpt lat="43.32323" lon="-1.8257477">
        <time>2022-07-02T10:28:10Z</time>
      </trkpt>
      <trkpt lat="43.323307" lon="-1.8256351">
        <time>2022-07-02T10:28:11Z</time>
      </trkpt>
      <trkpt lat="43.32338" lon="-1.8255221">
        <time>2022-07-02T10:28:12Z</time>
      </trkpt>
      <trkpt lat="43.323456" lon="-1.8254097">
        <time>2022-07-02T10:28:13Z</time>
      </trkpt>
      <trkpt lat="43.32353" lon="-1.8252981">
        <time>2022-07-02T10:28:14Z</time>
      </trkpt>
      <trkpt lat="43.323597" lon="-1.8251871">
        <time>2022-07-02T10:28:15Z</time>
      </trkpt>
      <trkpt lat="43.32367" lon="-1.8250767">
        <time>2022-07-02T10:28:16Z</time>
      </trkpt>
      <trkpt lat="43.32374" lon="-1.8249687">
        <time>2022-07-02T10:28:17Z</time>
      </trkpt>
      <trkpt lat="43.323807" lon="-1.8248624">
        <time>2022-07-02T10:28:18Z</time>
      </trkpt>
      <trkpt lat="43.32387" lon="-1.8247573">
        <time>2022-07-02T10:28:19Z</time>
      </trkpt>
      <trkpt lat="43.32394" lon="-1.824653">
        <time>2022-07-02T10:28:20Z</time>
      </trkpt>
      <trkpt lat="43.324005" lon="-1.8245484">
        <time>2022-07-02T10:28:21Z</time>
      </trkpt>
      <trkpt lat="43.324066" lon="-1.8244437">
        <time>2022-07-02T10:28:22Z</time>
      </trkpt>
      <trkpt lat="43.32413" lon="-1.824341">
        <time>2022-07-02T10:28:23Z</time>
      </trkpt>
      <trkpt lat="43.324192" lon="-1.8242401">
        <time>2022-07-02T10:28:24Z</time>
      </trkpt>
      <trkpt lat="43.324257" lon="-1.8241388">
        <time>2022-07-02T10:28:25Z</time>
      </trkpt>
      <trkpt lat="43.324314" lon="-1.8240384">
        <time>2022-07-02T10:28:26Z</time>
      </trkpt>
      <trkpt lat="43.324375" lon="-1.8239387">
        <time>2022-07-02T10:28:27Z</time>
      </trkpt>
      <trkpt lat="43.324432" lon="-1.8238381">
        <time>2022-07-02T10:28:28Z</time>
      </trkpt>
      <trkpt lat="43.324486" lon="-1.8237357">
        <time>2022-07-02T10:28:29Z</time>
      </trkpt>
      <trkpt lat="43.324535" lon="-1.8236325">
        <time>2022-07-02T10:28:30Z</time>
      </trkpt>
      <trkpt lat="43.32463" lon="-1.8234304">
        <time>2022-07-02T10:28:32Z</time>
      </trkpt>
      <trkpt lat="43.324684" lon="-1.8233341">
        <time>2022-07-02T10:28:33Z</time>
      </trkpt>
      <trkpt lat="43.324734" lon="-1.8232554">
        <time>2022-07-02T10:28:34Z</time>
      </trkpt>
      <trkpt lat="43.324802" lon="-1.8231871">
        <time>2022-07-02T10:28:35Z</time>
      </trkpt>
      <trkpt lat="43.32487" lon="-1.8231361">
        <time>2022-07-02T10:28:36Z</time>
      </trkpt>
      <trkpt lat="43.324944" lon="-1.8230997">
        <time>2022-07-02T10:28:37Z</time>
      </trkpt>
      <trkpt lat="43.325024" lon="-1.8230728">
        <time>2022-07-02T10:28:38Z</time>
      </trkpt>
      <trkpt lat="43.325108" lon="-1.8230531">
        <time>2022-07-02T10:28:39Z</time>
      </trkpt>
      <trkpt lat="43.325195" lon="-1.8230381">
        <time>2022-07-02T10:28:40Z</time>
      </trkpt>
      <trkpt lat="43.325283" lon="-1.8230238">
        <time>2022-07-02T10:28:41Z</time>
      </trkpt>
      <trkpt lat="43.32537" lon="-1.8230058">
        <time>2022-07-02T10:28:42Z</time>
      </trkpt>
      <trkpt lat="43.325455" lon="-1.8229771">
        <time>2022-07-02T10:28:43Z</time>
      </trkpt>
      <trkpt lat="43.325542" lon="-1.8229351">
        <time>2022-07-02T10:28:44Z</time>
      </trkpt>
      <trkpt lat="43.325626" lon="-1.8228801">
        <time>2022-07-02T10:28:45Z</time>
      </trkpt>
      <trkpt lat="43.32571" lon="-1.8228137">
        <time>2022-07-02T10:28:46Z</time>
      </trkpt>
      <trkpt lat="43.32579" lon="-1.8227382">
        <time>2022-07-02T10:28:47Z</time>
      </trkpt>
      <trkpt lat="43.325863" lon="-1.8226601">
        <time>2022-07-02T10:28:48Z</time>
      </trkpt>
      <trkpt lat="43.325935" lon="-1.8225732">
        <time>2022-07-02T10:28:49Z</time>
      </trkpt>
      <trkpt lat="43.326" lon="-1.8224812">
        <time>2022-07-02T10:28:50Z</time>
      </trkpt>
      <trkpt lat="43.32607" lon="-1.8223811">
        <time>2022-07-02T10:28:51Z</time>
      </trkpt>
      <trkpt lat="43.326134" lon="-1.8222828">
        <time>2022-07-02T10:28:52Z</time>
      </trkpt>
      <trkpt lat="43.3262" lon="-1.8221858">
        <time>2022-07-02T10:28:53Z</time>
      </trkpt>
      <trkpt lat="43.326256" lon="-1.8220901">
        <time>2022-07-02T10:28:54Z</time>
      </trkpt>
      <trkpt lat="43.326313" lon="-1.8219965">
        <time>2022-07-02T10:28:55Z</time>
      </trkpt>
      <trkpt lat="43.32637" lon="-1.8219038">
        <time>2022-07-02T10:28:56Z</time>
      </trkpt>
      <trkpt lat="43.32642" lon="-1.8218105">
        <time>2022-07-02T10:28:57Z</time>
      </trkpt>
      <trkpt lat="43.326466" lon="-1.8217145">
        <time>2022-07-02T10:28:58Z</time>
      </trkpt>
      <trkpt lat="43.326504" lon="-1.8216152">
        <time>2022-07-02T10:28:59Z</time>
      </trkpt>
      <trkpt lat="43.32653" lon="-1.8215132">
        <time>2022-07-02T10:29:00Z</time>
      </trkpt>
      <trkpt lat="43.326553" lon="-1.8214108">
        <time>2022-07-02T10:29:01Z</time>
      </trkpt>
      <trkpt lat="43.326576" lon="-1.8213125">
        <time>2022-07-02T10:29:02Z</time>
      </trkpt>
      <trkpt lat="43.326607" lon="-1.8212242">
        <time>2022-07-02T10:29:03Z</time>
      </trkpt>
      <trkpt lat="43.32664" lon="-1.8211491">
        <time>2022-07-02T10:29:04Z</time>
      </trkpt>
      <trkpt lat="43.326683" lon="-1.8210919">
        <time>2022-07-02T10:29:05Z</time>
      </trkpt>
      <trkpt lat="43.326733" lon="-1.8210528">
        <time>2022-07-02T10:29:06Z</time>
      </trkpt>
      <trkpt lat="43.32678" lon="-1.8210365">
        <time>2022-07-02T10:29:07Z</time>
      </trkpt>
      <trkpt lat="43.32682" lon="-1.8210422">
        <time>2022-07-02T10:29:08Z</time>
      </trkpt>
      <trkpt lat="43.326893" lon="-1.8211172">
        <time>2022-07-02T10:29:10Z</time>
      </trkpt>
      <trkpt lat="43.326954" lon="-1.8212432">
        <time>2022-07-02T10:29:12Z</time>
      </trkpt>
      <trkpt lat="43.326984" lon="-1.8213135">
        <time>2022-07-02T10:29:13Z</time>
      </trkpt>
      <trkpt lat="43.32702" lon="-1.8213842">
        <time>2022-07-02T10:29:14Z</time>
      </trkpt>
      <trkpt lat="43.327057" lon="-1.8214542">
        <time>2022-07-02T10:29:15Z</time>
      </trkpt>
      <trkpt lat="43.327103" lon="-1.8215225">
        <time>2022-07-02T10:29:16Z</time>
      </trkpt>
      <trkpt lat="43.32715" lon="-1.8215898">
        <time>2022-07-02T10:29:17Z</time>
      </trkpt>
      <trkpt lat="43.327194" lon="-1.8216578">
        <time>2022-07-02T10:29:18Z</time>
      </trkpt>
      <trkpt lat="43.327244" lon="-1.8217242">
        <time>2022-07-02T10:29:19Z</time>
      </trkpt>
      <trkpt lat="43.327297" lon="-1.8217884">
        <time>2022-07-02T10:29:20Z</time>
      </trkpt>
      <trkpt lat="43.32735" lon="-1.8218535">
        <time>2022-07-02T10:29:21Z</time>
      </trkpt>
      <trkpt lat="43.3274" lon="-1.8219181">
        <time>2022-07-02T10:29:22Z</time>
      </trkpt>
      <trkpt lat="43.327454" lon="-1.8219831">
        <time>2022-07-02T10:29:23Z</time>
      </trkpt>
      <trkpt lat="43.32751" lon="-1.8220512">
        <time>2022-07-02T10:29:24Z</time>
      </trkpt>
      <trkpt lat="43.32756" lon="-1.8221141">
        <time>2022-07-02T10:29:25Z</time>
      </trkpt>
      <trkpt lat="43.32761" lon="-1.8221765">
        <time>2022-07-02T10:29:26Z</time>
      </trkpt>
      <trkpt lat="43.32766" lon="-1.8222375">
        <time>2022-07-02T10:29:27Z</time>
      </trkpt>
      <trkpt lat="43.32771" lon="-1.8222988">
        <time>2022-07-02T10:29:28Z</time>
      </trkpt>
      <trkpt lat="43.32775" lon="-1.8223608">
        <time>2022-07-02T10:29:29Z</time>
      </trkpt>
      <trkpt lat="43.327793" lon="-1.8224225">
        <time>2022-07-02T10:29:30Z</time>
      </trkpt>
      <trkpt lat="43.327835" lon="-1.8224864">
        <time>2022-07-02T10:29:31Z</time>
      </trkpt>
      <trkpt lat="43.327873" lon="-1.8225541">
        <time>2022-07-02T10:29:32Z</time>
      </trkpt>
      <trkpt lat="43.32791" lon="-1.8226258">
        <time>2022-07-02T10:29:33Z</time>
      </trkpt>
      <trkpt lat="43.327946" lon="-1.8226994">
        <time>2022-07-02T10:29:34Z</time>
      </trkpt>
      <trkpt lat="43.32798" lon="-1.8227738">
        <time>2022-07-02T10:29:35Z</time>
      </trkpt>
      <trkpt lat="43.328014" lon="-1.8228505">
        <time>2022-07-02T10:29:36Z</time>
      </trkpt>
      <trkpt lat="43.32805" lon="-1.8229294">
        <time>2022-07-02T10:29:37Z</time>
      </trkpt>
      <trkpt lat="43.32808" lon="-1.8230097">
        <time>2022-07-02T10:29:38Z</time>
      </trkpt>
      <trkpt lat="43.328114" lon="-1.8230914">
        <time>2022-07-02T10:29:39Z</time>
      </trkpt>
      <trkpt lat="43.328148" lon="-1.8231745">
        <time>2022-07-02T10:29:40Z</time>
      </trkpt>
      <trkpt lat="43.328182" lon="-1.8232591">
        <time>2022-07-02T10:29:41Z</time>
      </trkpt>
      <trkpt lat="43.328213" lon="-1.8233445">
        <time>2022-07-02T10:29:42Z</time>
      </trkpt>
      <trkpt lat="43.328247" lon="-1.8234301">
        <time>2022-07-02T10:29:43Z</time>
      </trkpt>
      <trkpt lat="43.328278" lon="-1.823516">
        <time>2022-07-02T10:29:44Z</time>
      </trkpt>
      <trkpt lat="43.328312" lon="-1.8236024">
        <time>2022-07-02T10:29:45Z</time>
      </trkpt>
      <trkpt lat="43.328342" lon="-1.8236887">
        <time>2022-07-02T10:29:46Z</time>
      </trkpt>
      <trkpt lat="43.328377" lon="-1.8237737">
        <time>2022-07-02T10:29:47Z</time>
      </trkpt>
      <trkpt lat="43.32841" lon="-1.8238558">
        <time>2022-07-02T10:29:48Z</time>
      </trkpt>
      <trkpt lat="43.32845" lon="-1.823935">
        <time>2022-07-02T10:29:49Z</time>
      </trkpt>
      <trkpt lat="43.328487" lon="-1.8240107">
        <time>2022-07-02T10:29:50Z</time>
      </trkpt>
      <trkpt lat="43.32853" lon="-1.8240824">
        <time>2022-07-02T10:29:51Z</time>
      </trkpt>
      <trkpt lat="43.328575" lon="-1.8241507">
        <time>2022-07-02T10:29:52Z</time>
      </trkpt>
      <trkpt lat="43.328674" lon="-1.824275">
        <time>2022-07-02T10:29:54Z</time>
      </trkpt>
      <trkpt lat="43.328728" lon="-1.824329">
        <time>2022-07-02T10:29:55Z</time>
      </trkpt>
      <trkpt lat="43.328785" lon="-1.824376">
        <time>2022-07-02T10:29:56Z</time>
      </trkpt>
      <trkpt lat="43.328846" lon="-1.8244164">
        <time>2022-07-02T10:29:57Z</time>
      </trkpt>
      <trkpt lat="43.328907" lon="-1.8244507">
        <time>2022-07-02T10:29:58Z</time>
      </trkpt>
      <trkpt lat="43.328968" lon="-1.824479">
        <time>2022-07-02T10:29:59Z</time>
      </trkpt>
      <trkpt lat="43.329033" lon="-1.8245037">
        <time>2022-07-02T10:30:00Z</time>
      </trkpt>
      <trkpt lat="43.32909" lon="-1.8245224">
        <time>2022-07-02T10:30:01Z</time>
      </trkpt>
      <trkpt lat="43.32915" lon="-1.8245357">
        <time>2022-07-02T10:30:02Z</time>
      </trkpt>
      <trkpt lat="43.32921" lon="-1.8245417">
        <time>2022-07-02T10:30:03Z</time>
      </trkpt>
      <trkpt lat="43.329266" lon="-1.824541">
        <time>2022-07-02T10:30:04Z</time>
      </trkpt>
      <trkpt lat="43.32932" lon="-1.8245333">
        <time>2022-07-02T10:30:05Z</time>
      </trkpt>
      <trkpt lat="43.329372" lon="-1.8245183">
        <time>2022-07-02T10:30:06Z</time>
      </trkpt>
      <trkpt lat="43.32942" lon="-1.824496">
        <time>2022-07-02T10:30:07Z</time>
      </trkpt>
      <trkpt lat="43.329464" lon="-1.8244671">
        <time>2022-07-02T10:30:08Z</time>
      </trkpt>
      <trkpt lat="43.329506" lon="-1.8244324">
        <time>2022-07-02T10:30:09Z</time>
      </trkpt>
      <trkpt lat="43.32958" lon="-1.8243494">
        <time>2022-07-02T10:30:11Z</time>
      </trkpt>
      <trkpt lat="43.329647" lon="-1.824265">
        <time>2022-07-02T10:30:13Z</time>
      </trkpt>
      <trkpt lat="43.329712" lon="-1.8241937">
        <time>2022-07-02T10:30:15Z</time>
      </trkpt>
      <trkpt lat="43.329773" lon="-1.824131">
        <time>2022-07-02T10:30:17Z</time>
      </trkpt>
      <trkpt lat="43.329823" lon="-1.824069">
        <time>2022-07-02T10:30:19Z</time>
      </trkpt>
      <trkpt lat="43.329865" lon="-1.8239987">
        <time>2022-07-02T10:30:21Z</time>
      </trkpt>
      <trkpt lat="43.32989" lon="-1.8239181">
        <time>2022-07-02T10:30:23Z</time>
      </trkpt>
      <trkpt lat="43.329914" lon="-1.8238357">
        <time>2022-07-02T10:30:25Z</time>
      </trkpt>
      <trkpt lat="43.329933" lon="-1.8237531">
        <time>2022-07-02T10:30:27Z</time>
      </trkpt>
      <trkpt lat="43.329952" lon="-1.8236691">
        <time>2022-07-02T10:30:29Z</time>
      </trkpt>
      <trkpt lat="43.329967" lon="-1.823582">
        <time>2022-07-02T10:30:31Z</time>
      </trkpt>
      <trkpt lat="43.329987" lon="-1.823492">
        <time>2022-07-02T10:30:33Z</time>
      </trkpt>
      <trkpt lat="43.33001" lon="-1.8234">
        <time>2022-07-02T10:30:35Z</time>
      </trkpt>
      <trkpt lat="43.33003" lon="-1.8233114">
        <time>2022-07-02T10:30:37Z</time>
      </trkpt>
      <trkpt lat="43.33005" lon="-1.8232244">
        <time>2022-07-02T10:30:39Z</time>
      </trkpt>
      <trkpt lat="43.330074" lon="-1.8231448">
        <time>2022-07-02T10:30:41Z</time>
      </trkpt>
      <trkpt lat="43.330093" lon="-1.8230695">
        <time>2022-07-02T10:30:43Z</time>
      </trkpt>
      <trkpt lat="43.330105" lon="-1.8229971">
        <time>2022-07-02T10:30:45Z</time>
      </trkpt>
      <trkpt lat="43.33012" lon="-1.8229251">
        <time>2022-07-02T10:30:47Z</time>
      </trkpt>
      <trkpt lat="43.330135" lon="-1.8228527">
        <time>2022-07-02T10:30:49Z</time>
      </trkpt>
      <trkpt lat="43.33015" lon="-1.8227814">
        <time>2022-07-02T10:30:51Z</time>
      </trkpt>
      <trkpt lat="43.330166" lon="-1.8227111">
        <time>2022-07-02T10:30:53Z</time>
      </trkpt>
      <trkpt lat="43.33018" lon="-1.8226421">
        <time>2022-07-02T10:30:55Z</time>
      </trkpt>
      <trkpt lat="43.330196" lon="-1.8225725">
        <time>2022-07-02T10:30:57Z</time>
      </trkpt>
      <trkpt lat="43.33021" lon="-1.8225034">
        <time>2022-07-02T10:30:59Z</time>
      </trkpt>
      <trkpt lat="43.330227" lon="-1.8224331">
        <time>2022-07-02T10:31:01Z</time>
      </trkpt>
      <trkpt lat="43.330246" lon="-1.8223618">
        <time>2022-07-02T10:31:03Z</time>
      </trkpt>
      <trkpt lat="43.33026" lon="-1.8222924">
        <time>2022-07-02T10:31:05Z</time>
      </trkpt>
      <trkpt lat="43.330276" lon="-1.8222241">
        <time>2022-07-02T10:31:07Z</time>
      </trkpt>
      <trkpt lat="43.3303" lon="-1.8221204">
        <time>2022-07-02T10:31:10Z</time>
      </trkpt>
      <trkpt lat="43.330315" lon="-1.8220508">
        <time>2022-07-02T10:31:12Z</time>
      </trkpt>
      <trkpt lat="43.33033" lon="-1.8219812">
        <time>2022-07-02T10:31:14Z</time>
      </trkpt>
      <trkpt lat="43.330345" lon="-1.8219122">
        <time>2022-07-02T10:31:16Z</time>
      </trkpt>
      <trkpt lat="43.33036" lon="-1.8218435">
        <time>2022-07-02T10:31:18Z</time>
      </trkpt>
      <trkpt lat="43.330376" lon="-1.8217754">
        <time>2022-07-02T10:31:20Z</time>
      </trkpt>
      <trkpt lat="43.3304" lon="-1.8216735">
        <time>2022-07-02T10:31:23Z</time>
      </trkpt>
      <trkpt lat="43.330414" lon="-1.8216065">
        <time>2022-07-02T10:31:25Z</time>
      </trkpt>
      <trkpt lat="43.330425" lon="-1.8215405">
        <time>2022-07-02T10:31:27Z</time>
      </trkpt>
      <trkpt lat="43.33045" lon="-1.8214428">
        <time>2022-07-02T10:31:30Z</time>
      </trkpt>
      <trkpt lat="43.330467" lon="-1.8213412">
        <time>2022-07-02T10:31:33Z</time>
      </trkpt>
      <trkpt lat="43.330482" lon="-1.8212734">
        <time>2022-07-02T10:31:35Z</time>
      </trkpt>
      <trkpt lat="43.33049" lon="-1.8212075">
        <time>2022-07-02T10:31:37Z</time>
      </trkpt>
      <trkpt lat="43.330498" lon="-1.8211118">
        <time>2022-07-02T10:31:40Z</time>
      </trkpt>
      <trkpt lat="43.330494" lon="-1.8210329">
        <time>2022-07-02T10:31:43Z</time>
      </trkpt>
      <trkpt lat="43.330467" lon="-1.8209262">
        <time>2022-07-02T10:34:00Z</time>
      </trkpt>
      <trkpt lat="43.33045" lon="-1.8208148">
        <time>2022-07-02T10:34:03Z</time>
      </trkpt>
      <trkpt lat="43.33044" lon="-1.8207328">
        <time>2022-07-02T10:34:05Z</time>
      </trkpt>
      <trkpt lat="43.33045" lon="-1.8206502">
        <time>2022-07-02T10:34:07Z</time>
      </trkpt>
      <trkpt lat="43.330467" lon="-1.8205689">
        <time>2022-07-02T10:34:09Z</time>
      </trkpt>
      <trkpt lat="43.3305" lon="-1.8205005">
        <time>2022-07-02T10:34:11Z</time>
      </trkpt>
      <trkpt lat="43.330547" lon="-1.8204455">
        <time>2022-07-02T10:34:13Z</time>
      </trkpt>
      <trkpt lat="43.3306" lon="-1.8203965">
        <time>2022-07-02T10:34:15Z</time>
      </trkpt>
      <trkpt lat="43.330654" lon="-1.8203396">
        <time>2022-07-02T10:34:17Z</time>
      </trkpt>
      <trkpt lat="43.3307" lon="-1.8202709">
        <time>2022-07-02T10:34:19Z</time>
      </trkpt>
      <trkpt lat="43.330734" lon="-1.8201948">
        <time>2022-07-02T10:34:21Z</time>
      </trkpt>
      <trkpt lat="43.33076" lon="-1.8201152">
        <time>2022-07-02T10:34:23Z</time>
      </trkpt>
      <trkpt lat="43.330784" lon="-1.8200312">
        <time>2022-07-02T10:34:25Z</time>
      </trkpt>
      <trkpt lat="43.330803" lon="-1.8199456">
        <time>2022-07-02T10:34:27Z</time>
      </trkpt>
      <trkpt lat="43.330826" lon="-1.8198589">
        <time>2022-07-02T10:34:29Z</time>
      </trkpt>
      <trkpt lat="43.33085" lon="-1.8197728">
        <time>2022-07-02T10:34:31Z</time>
      </trkpt>
      <trkpt lat="43.33087" lon="-1.8196882">
        <time>2022-07-02T10:34:33Z</time>
      </trkpt>
      <trkpt lat="43.330902" lon="-1.8196032">
        <time>2022-07-02T10:34:35Z</time>
      </trkpt>
      <trkpt lat="43.33093" lon="-1.8195179">
        <time>2022-07-02T10:34:37Z</time>
      </trkpt>
      <trkpt lat="43.33096" lon="-1.8194326">
        <time>2022-07-02T10:34:39Z</time>
      </trkpt>
      <trkpt lat="43.330994" lon="-1.8193482">
        <time>2022-07-02T10:34:41Z</time>
      </trkpt>
      <trkpt lat="43.331028" lon="-1.819266">
        <time>2022-07-02T10:34:43Z</time>
      </trkpt>
      <trkpt lat="43.331062" lon="-1.8191832">
        <time>2022-07-02T10:34:45Z</time>
      </trkpt>
      <trkpt lat="43.3311" lon="-1.819101">
        <time>2022-07-02T10:34:47Z</time>
      </trkpt>
      <trkpt lat="43.33116" lon="-1.8189776">
        <time>2022-07-02T10:34:50Z</time>
      </trkpt>
      <trkpt lat="43.3312" lon="-1.818898">
        <time>2022-07-02T10:34:52Z</time>
      </trkpt>
      <trkpt lat="43.33124" lon="-1.8188193">
        <time>2022-07-02T10:34:54Z</time>
      </trkpt>
      <trkpt lat="43.331284" lon="-1.818741">
        <time>2022-07-02T10:34:56Z</time>
      </trkpt>
      <trkpt lat="43.33133" lon="-1.8186643">
        <time>2022-07-02T10:34:58Z</time>
      </trkpt>
      <trkpt lat="43.331375" lon="-1.8185896">
        <time>2022-07-02T10:35:00Z</time>
      </trkpt>
      <trkpt lat="43.33142" lon="-1.8185186">
        <time>2022-07-02T10:35:02Z</time>
      </trkpt>
      <trkpt lat="43.331474" lon="-1.8184489">
        <time>2022-07-02T10:35:04Z</time>
      </trkpt>
      <trkpt lat="43.331528" lon="-1.81838">
        <time>2022-07-02T10:35:06Z</time>
      </trkpt>
      <trkpt lat="43.33158" lon="-1.8183126">
        <time>2022-07-02T10:35:08Z</time>
      </trkpt>
      <trkpt lat="43.331635" lon="-1.8182473">
        <time>2022-07-02T10:35:10Z</time>
      </trkpt>
      <trkpt lat="43.331688" lon="-1.818183">
        <time>2022-07-02T10:35:12Z</time>
      </trkpt>
      <trkpt lat="43.331745" lon="-1.818122">
        <time>2022-07-02T10:35:14Z</time>
      </trkpt>
      <trkpt lat="43.331806" lon="-1.8180627">
        <time>2022-07-02T10:35:16Z</time>
      </trkpt>
      <trkpt lat="43.331863" lon="-1.818006">
        <time>2022-07-02T10:35:18Z</time>
      </trkpt>
      <trkpt lat="43.33192" lon="-1.817953">
        <time>2022-07-02T10:35:20Z</time>
      </trkpt>
      <trkpt lat="43.33198" lon="-1.8179023">
        <time>2022-07-02T10:35:22Z</time>
      </trkpt>
      <trkpt lat="43.332043" lon="-1.8178517">
        <time>2022-07-02T10:35:24Z</time>
      </trkpt>
      <trkpt lat="43.332104" lon="-1.8178003">
        <time>2022-07-02T10:35:26Z</time>
      </trkpt>
      <trkpt lat="43.33217" lon="-1.8177477">
        <time>2022-07-02T10:35:28Z</time>
      </trkpt>
      <trkpt lat="43.332233" lon="-1.8176954">
        <time>2022-07-02T10:35:30Z</time>
      </trkpt>
      <trkpt lat="43.3323" lon="-1.817641">
        <time>2022-07-02T10:35:32Z</time>
      </trkpt>
      <trkpt lat="43.332363" lon="-1.8175853">
        <time>2022-07-02T10:35:34Z</time>
      </trkpt>
      <trkpt lat="43.332428" lon="-1.817527">
        <time>2022-07-02T10:35:36Z</time>
      </trkpt>
      <trkpt lat="43.332493" lon="-1.8174697">
        <time>2022-07-02T10:35:38Z</time>
      </trkpt>
      <trkpt lat="43.332558" lon="-1.8174127">
        <time>2022-07-02T10:35:40Z</time>
      </trkpt>
      <trkpt lat="43.332626" lon="-1.8173527">
        <time>2022-07-02T10:35:42Z</time>
      </trkpt>
      <trkpt lat="43.332695" lon="-1.8172923">
        <time>2022-07-02T10:35:44Z</time>
      </trkpt>
      <trkpt lat="43.332764" lon="-1.8172333">
        <time>2022-07-02T10:35:46Z</time>
      </trkpt>
      <trkpt lat="43.33283" lon="-1.817176">
        <time>2022-07-02T10:35:48Z</time>
      </trkpt>
      <trkpt lat="43.33289" lon="-1.817121">
        <time>2022-07-02T10:35:50Z</time>
      </trkpt>
      <trkpt lat="43.332943" lon="-1.8170604">
        <time>2022-07-02T10:35:52Z</time>
      </trkpt>
      <trkpt lat="43.33299" lon="-1.816992">
        <time>2022-07-02T10:35:54Z</time>
      </trkpt>
      <trkpt lat="43.333027" lon="-1.81691">
        <time>2022-07-02T10:35:56Z</time>
      </trkpt>
      <trkpt lat="43.333057" lon="-1.8168211">
        <time>2022-07-02T10:35:58Z</time>
      </trkpt>
      <trkpt lat="43.33309" lon="-1.8167363">
        <time>2022-07-02T10:36:00Z</time>
      </trkpt>
      <trkpt lat="43.33314" lon="-1.8166534">
        <time>2022-07-02T10:36:02Z</time>
      </trkpt>
      <trkpt lat="43.333202" lon="-1.8165904">
        <time>2022-07-02T10:36:04Z</time>
      </trkpt>
      <trkpt lat="43.33327" lon="-1.8165511">
        <time>2022-07-02T10:36:06Z</time>
      </trkpt>
      <trkpt lat="43.333344" lon="-1.8165354">
        <time>2022-07-02T10:36:08Z</time>
      </trkpt>
      <trkpt lat="43.33342" lon="-1.8165251">
        <time>2022-07-02T10:36:10Z</time>
      </trkpt>
      <trkpt lat="43.3335" lon="-1.816508">
        <time>2022-07-02T10:36:12Z</time>
      </trkpt>
      <trkpt lat="43.33358" lon="-1.8164757">
        <time>2022-07-02T10:36:14Z</time>
      </trkpt>
      <trkpt lat="43.333656" lon="-1.816426">
        <time>2022-07-02T10:36:16Z</time>
      </trkpt>
      <trkpt lat="43.33374" lon="-1.8163581">
        <time>2022-07-02T10:36:18Z</time>
      </trkpt>
      <trkpt lat="43.333786" lon="-1.816321">
        <time>2022-07-02T10:36:19Z</time>
      </trkpt>
      <trkpt lat="43.333828" lon="-1.8162811">
        <time>2022-07-02T10:36:20Z</time>
      </trkpt>
      <trkpt lat="43.333874" lon="-1.816238">
        <time>2022-07-02T10:36:21Z</time>
      </trkpt>
      <trkpt lat="43.333923" lon="-1.8161931">
        <time>2022-07-02T10:36:22Z</time>
      </trkpt>
      <trkpt lat="43.33397" lon="-1.816146">
        <time>2022-07-02T10:36:23Z</time>
      </trkpt>
      <trkpt lat="43.334023" lon="-1.8160987">
        <time>2022-07-02T10:36:24Z</time>
      </trkpt>
      <trkpt lat="43.334076" lon="-1.8160497">
        <time>2022-07-02T10:36:25Z</time>
      </trkpt>
      <trkpt lat="43.334133" lon="-1.8160001">
        <time>2022-07-02T10:36:26Z</time>
      </trkpt>
      <trkpt lat="43.33419" lon="-1.8159484">
        <time>2022-07-02T10:36:27Z</time>
      </trkpt>
      <trkpt lat="43.33425" lon="-1.8158954">
        <time>2022-07-02T10:36:28Z</time>
      </trkpt>
      <trkpt lat="43.334316" lon="-1.8158404">
        <time>2022-07-02T10:36:29Z</time>
      </trkpt>
      <trkpt lat="43.33438" lon="-1.8157828">
        <time>2022-07-02T10:36:30Z</time>
      </trkpt>
      <trkpt lat="43.334446" lon="-1.8157271">
        <time>2022-07-02T10:36:31Z</time>
      </trkpt>
      <trkpt lat="43.334515" lon="-1.8156627">
        <time>2022-07-02T10:36:32Z</time>
      </trkpt>
      <trkpt lat="43.334587" lon="-1.8155961">
        <time>2022-07-02T10:36:33Z</time>
      </trkpt>
      <trkpt lat="43.33466" lon="-1.8155278">
        <time>2022-07-02T10:36:34Z</time>
      </trkpt>
      <trkpt lat="43.334736" lon="-1.8154567">
        <time>2022-07-02T10:36:35Z</time>
      </trkpt>
      <trkpt lat="43.334816" lon="-1.8153845">
        <time>2022-07-02T10:36:36Z</time>
      </trkpt>
      <trkpt lat="43.334896" lon="-1.8153118">
        <time>2022-07-02T10:36:37Z</time>
      </trkpt>
      <trkpt lat="43.334976" lon="-1.8152401">
        <time>2022-07-02T10:36:38Z</time>
      </trkpt>
      <trkpt lat="43.335056" lon="-1.8151678">
        <time>2022-07-02T10:36:39Z</time>
      </trkpt>
      <trkpt lat="43.335136" lon="-1.8150945">
        <time>2022-07-02T10:36:40Z</time>
      </trkpt>
      <trkpt lat="43.335217" lon="-1.8150201">
        <time>2022-07-02T10:36:41Z</time>
      </trkpt>
      <trkpt lat="43.335297" lon="-1.8149462">
        <time>2022-07-02T10:36:42Z</time>
      </trkpt>
      <trkpt lat="43.335377" lon="-1.8148731">
        <time>2022-07-02T10:36:43Z</time>
      </trkpt>
      <trkpt lat="43.335457" lon="-1.8148009">
        <time>2022-07-02T10:36:44Z</time>
      </trkpt>
      <trkpt lat="43.335533" lon="-1.8147295">
        <time>2022-07-02T10:36:45Z</time>
      </trkpt>
      <trkpt lat="43.33561" lon="-1.8146595">
        <time>2022-07-02T10:36:46Z</time>
      </trkpt>
      <trkpt lat="43.335686" lon="-1.8145908">
        <time>2022-07-02T10:36:47Z</time>
      </trkpt>
      <trkpt lat="43.335762" lon="-1.8145225">
        <time>2022-07-02T10:36:48Z</time>
      </trkpt>
      <trkpt lat="43.335835" lon="-1.8144548">
        <time>2022-07-02T10:36:49Z</time>
      </trkpt>
      <trkpt lat="43.335903" lon="-1.8143882">
        <time>2022-07-02T10:36:50Z</time>
      </trkpt>
      <trkpt lat="43.33597" lon="-1.8143235">
        <time>2022-07-02T10:36:51Z</time>
      </trkpt>
      <trkpt lat="43.33604" lon="-1.8142618">
        <time>2022-07-02T10:36:52Z</time>
      </trkpt>
      <trkpt lat="43.33611" lon="-1.8142018">
        <time>2022-07-02T10:36:53Z</time>
      </trkpt>
      <trkpt lat="43.336174" lon="-1.8141432">
        <time>2022-07-02T10:36:54Z</time>
      </trkpt>
      <trkpt lat="43.336235" lon="-1.8140849">
        <time>2022-07-02T10:36:55Z</time>
      </trkpt>
      <trkpt lat="43.336292" lon="-1.8140259">
        <time>2022-07-02T10:36:56Z</time>
      </trkpt>
      <trkpt lat="43.33635" lon="-1.8139685">
        <time>2022-07-02T10:36:57Z</time>
      </trkpt>
      <trkpt lat="43.336407" lon="-1.8139138">
        <time>2022-07-02T10:36:58Z</time>
      </trkpt>
      <trkpt lat="43.33646" lon="-1.8138609">
        <time>2022-07-02T10:36:59Z</time>
      </trkpt>
      <trkpt lat="43.336514" lon="-1.8138108">
        <time>2022-07-02T10:37:00Z</time>
      </trkpt>
      <trkpt lat="43.336563" lon="-1.8137629">
        <time>2022-07-02T10:37:01Z</time>
      </trkpt>
      <trkpt lat="43.336613" lon="-1.8137175">
        <time>2022-07-02T10:37:02Z</time>
      </trkpt>
      <trkpt lat="43.336662" lon="-1.8136739">
        <time>2022-07-02T10:37:03Z</time>
      </trkpt>
      <trkpt lat="43.33671" lon="-1.8136315">
        <time>2022-07-02T10:37:04Z</time>
      </trkpt>
      <trkpt lat="43.336758" lon="-1.8135916">
        <time>2022-07-02T10:37:05Z</time>
      </trkpt>
      <trkpt lat="43.336803" lon="-1.8135532">
        <time>2022-07-02T10:37:06Z</time>
      </trkpt>
      <trkpt lat="43.336884" lon="-1.8134819">
        <time>2022-07-02T10:37:08Z</time>
      </trkpt>
      <trkpt lat="43.336964" lon="-1.8134133">
        <time>2022-07-02T10:37:10Z</time>
      </trkpt>
      <trkpt lat="43.337" lon="-1.8133793">
        <time>2022-07-02T10:37:11Z</time>
      </trkpt>
      <trkpt lat="43.33707" lon="-1.8133125">
        <time>2022-07-02T10:37:13Z</time>
      </trkpt>
      <trkpt lat="43.33714" lon="-1.8132516">
        <time>2022-07-02T10:37:15Z</time>
      </trkpt>
      <trkpt lat="43.3372" lon="-1.8132006">
        <time>2022-07-02T10:37:17Z</time>
      </trkpt>
      <trkpt lat="43.33726" lon="-1.8131536">
        <time>2022-07-02T10:37:19Z</time>
      </trkpt>
      <trkpt lat="43.337315" lon="-1.813106">
        <time>2022-07-02T10:37:21Z</time>
      </trkpt>
      <trkpt lat="43.337368" lon="-1.8130559">
        <time>2022-07-02T10:37:23Z</time>
      </trkpt>
      <trkpt lat="43.337414" lon="-1.8130102">
        <time>2022-07-02T10:37:25Z</time>
      </trkpt>
      <trkpt lat="43.337463" lon="-1.8129683">
        <time>2022-07-02T10:37:27Z</time>
      </trkpt>
      <trkpt lat="43.337536" lon="-1.8129042">
        <time>2022-07-02T10:37:30Z</time>
      </trkpt>
      <trkpt lat="43.33758" lon="-1.8128595">
        <time>2022-07-02T10:37:32Z</time>
      </trkpt>
      <trkpt lat="43.33763" lon="-1.8128136">
        <time>2022-07-02T10:37:34Z</time>
      </trkpt>
      <trkpt lat="43.33768" lon="-1.8127673">
        <time>2022-07-02T10:37:36Z</time>
      </trkpt>
      <trkpt lat="43.337727" lon="-1.8127222">
        <time>2022-07-02T10:37:38Z</time>
      </trkpt>
      <trkpt lat="43.337772" lon="-1.812678">
        <time>2022-07-02T10:37:40Z</time>
      </trkpt>
      <trkpt lat="43.33782" lon="-1.8126386">
        <time>2022-07-02T10:37:42Z</time>
      </trkpt>
      <trkpt lat="43.337864" lon="-1.8126016">
        <time>2022-07-02T10:37:44Z</time>
      </trkpt>
      <trkpt lat="43.337925" lon="-1.8125429">
        <time>2022-07-02T10:37:47Z</time>
      </trkpt>
      <trkpt lat="43.33797" lon="-1.8125026">
        <time>2022-07-02T10:37:49Z</time>
      </trkpt>
      <trkpt lat="43.338013" lon="-1.8124616">
        <time>2022-07-02T10:37:51Z</time>
      </trkpt>
      <trkpt lat="43.338078" lon="-1.812405">
        <time>2022-07-02T10:37:54Z</time>
      </trkpt>
      <trkpt lat="43.33812" lon="-1.8123649">
        <time>2022-07-02T10:37:56Z</time>
      </trkpt>
      <trkpt lat="43.33816" lon="-1.8123243">
        <time>2022-07-02T10:37:58Z</time>
      </trkpt>
      <trkpt lat="43.338207" lon="-1.8122842">
        <time>2022-07-02T10:38:00Z</time>
      </trkpt>
      <trkpt lat="43.338253" lon="-1.8122389">
        <time>2022-07-02T10:38:02Z</time>
      </trkpt>
      <trkpt lat="43.3383" lon="-1.8121979">
        <time>2022-07-02T10:38:04Z</time>
      </trkpt>
      <trkpt lat="43.338345" lon="-1.8121583">
        <time>2022-07-02T10:38:06Z</time>
      </trkpt>
      <trkpt lat="43.338387" lon="-1.8121186">
        <time>2022-07-02T10:38:08Z</time>
      </trkpt>
      <trkpt lat="43.338432" lon="-1.8120797">
        <time>2022-07-02T10:38:10Z</time>
      </trkpt>
      <trkpt lat="43.338474" lon="-1.8120426">
        <time>2022-07-02T10:38:12Z</time>
      </trkpt>
      <trkpt lat="43.33854" lon="-1.8119867">
        <time>2022-07-02T10:38:15Z</time>
      </trkpt>
      <trkpt lat="43.338585" lon="-1.811947">
        <time>2022-07-02T10:38:17Z</time>
      </trkpt>
      <trkpt lat="43.33863" lon="-1.8119063">
        <time>2022-07-02T10:38:19Z</time>
      </trkpt>
      <trkpt lat="43.338676" lon="-1.8118683">
        <time>2022-07-02T10:38:21Z</time>
      </trkpt>
      <trkpt lat="43.338722" lon="-1.8118314">
        <time>2022-07-02T10:38:23Z</time>
      </trkpt>
      <trkpt lat="43.338768" lon="-1.8117903">
        <time>2022-07-02T10:38:25Z</time>
      </trkpt>
      <trkpt lat="43.33881" lon="-1.8117453">
        <time>2022-07-02T10:38:27Z</time>
      </trkpt>
      <trkpt lat="43.338856" lon="-1.811698">
        <time>2022-07-02T10:38:29Z</time>
      </trkpt>
      <trkpt lat="43.3389" lon="-1.8116536">
        <time>2022-07-02T10:38:31Z</time>
      </trkpt>
      <trkpt lat="43.338947" lon="-1.811613">
        <time>2022-07-02T10:38:33Z</time>
      </trkpt>
      <trkpt lat="43.338997" lon="-1.8115667">
        <time>2022-07-02T10:38:35Z</time>
      </trkpt>
      <trkpt lat="43.339046" lon="-1.8115207">
        <time>2022-07-02T10:38:37Z</time>
      </trkpt>
      <trkpt lat="43.339096" lon="-1.8114754">
        <time>2022-07-02T10:38:39Z</time>
      </trkpt>
      <trkpt lat="43.339146" lon="-1.8114297">
        <time>2022-07-02T10:38:41Z</time>
      </trkpt>
      <trkpt lat="43.33919" lon="-1.811385">
        <time>2022-07-02T10:38:43Z</time>
      </trkpt>
      <trkpt lat="43.33924" lon="-1.8113407">
        <time>2022-07-02T10:38:45Z</time>
      </trkpt>
      <trkpt lat="43.33929" lon="-1.8112957">
        <time>2022-07-02T10:38:47Z</time>
      </trkpt>
      <trkpt lat="43.339336" lon="-1.8112527">
        <time>2022-07-02T10:38:49Z</time>
      </trkpt>
      <trkpt lat="43.339386" lon="-1.8111883">
        <time>2022-07-02T10:38:52Z</time>
      </trkpt>
      <trkpt lat="43.33941" lon="-1.8111217">
        <time>2022-07-02T10:38:56Z</time>
      </trkpt>
      <trkpt lat="43.33943" lon="-1.8110157">
        <time>2022-07-02T10:39:00Z</time>
      </trkpt>
      <trkpt lat="43.339462" lon="-1.810919">
        <time>2022-07-02T10:39:03Z</time>
      </trkpt>
      <trkpt lat="43.339497" lon="-1.810857">
        <time>2022-07-02T10:39:05Z</time>
      </trkpt>
      <trkpt lat="43.33954" lon="-1.810807">
        <time>2022-07-02T10:39:07Z</time>
      </trkpt>
      <trkpt lat="43.339592" lon="-1.8107637">
        <time>2022-07-02T10:39:09Z</time>
      </trkpt>
      <trkpt lat="43.33964" lon="-1.8107187">
        <time>2022-07-02T10:39:11Z</time>
      </trkpt>
      <trkpt lat="43.33968" lon="-1.8106644">
        <time>2022-07-02T10:39:14Z</time>
      </trkpt>
      <trkpt lat="43.339745" lon="-1.8106223">
        <time>2022-07-02T10:39:56Z</time>
      </trkpt>
      <trkpt lat="43.339806" lon="-1.8106114">
        <time>2022-07-02T10:39:58Z</time>
      </trkpt>
      <trkpt lat="43.33987" lon="-1.8105941">
        <time>2022-07-02T10:40:00Z</time>
      </trkpt>
      <trkpt lat="43.339962" lon="-1.8105553">
        <time>2022-07-02T10:40:03Z</time>
      </trkpt>
      <trkpt lat="43.34003" lon="-1.8105161">
        <time>2022-07-02T10:40:05Z</time>
      </trkpt>
      <trkpt lat="43.3401" lon="-1.8104684">
        <time>2022-07-02T10:40:07Z</time>
      </trkpt>
      <trkpt lat="43.34017" lon="-1.8104174">
        <time>2022-07-02T10:40:09Z</time>
      </trkpt>
      <trkpt lat="43.34024" lon="-1.810363">
        <time>2022-07-02T10:40:11Z</time>
      </trkpt>
      <trkpt lat="43.340294" lon="-1.8103124">
        <time>2022-07-02T10:40:13Z</time>
      </trkpt>
      <trkpt lat="43.340347" lon="-1.8102638">
        <time>2022-07-02T10:40:15Z</time>
      </trkpt>
      <trkpt lat="43.3404" lon="-1.8102131">
        <time>2022-07-02T10:40:17Z</time>
      </trkpt>
      <trkpt lat="43.340458" lon="-1.8101548">
        <time>2022-07-02T10:40:19Z</time>
      </trkpt>
      <trkpt lat="43.340523" lon="-1.8100878">
        <time>2022-07-02T10:40:21Z</time>
      </trkpt>
      <trkpt lat="43.340588" lon="-1.810021">
        <time>2022-07-02T10:40:23Z</time>
      </trkpt>
      <trkpt lat="43.340652" lon="-1.8099557">
        <time>2022-07-02T10:40:25Z</time>
      </trkpt>
      <trkpt lat="43.340725" lon="-1.8098881">
        <time>2022-07-02T10:40:27Z</time>
      </trkpt>
      <trkpt lat="43.340794" lon="-1.8098191">
        <time>2022-07-02T10:40:29Z</time>
      </trkpt>
      <trkpt lat="43.340855" lon="-1.8097404">
        <time>2022-07-02T10:40:31Z</time>
      </trkpt>
      <trkpt lat="43.340908" lon="-1.8096491">
        <time>2022-07-02T10:40:33Z</time>
      </trkpt>
      <trkpt lat="43.34093" lon="-1.8095448">
        <time>2022-07-02T10:40:35Z</time>
      </trkpt>
      <trkpt lat="43.340923" lon="-1.8094298">
        <time>2022-07-02T10:40:37Z</time>
      </trkpt>
      <trkpt lat="43.340908" lon="-1.8092988">
        <time>2022-07-02T10:40:39Z</time>
      </trkpt>
      <trkpt lat="43.3409" lon="-1.8092215">
        <time>2022-07-02T10:40:40Z</time>
      </trkpt>
      <trkpt lat="43.340893" lon="-1.8091425">
        <time>2022-07-02T10:40:41Z</time>
      </trkpt>
      <trkpt lat="43.34089" lon="-1.8090668">
        <time>2022-07-02T10:40:42Z</time>
      </trkpt>
      <trkpt lat="43.34088" lon="-1.8089848">
        <time>2022-07-02T10:40:43Z</time>
      </trkpt>
      <trkpt lat="43.340874" lon="-1.8089001">
        <time>2022-07-02T10:40:44Z</time>
      </trkpt>
      <trkpt lat="43.340866" lon="-1.8088142">
        <time>2022-07-02T10:40:45Z</time>
      </trkpt>
      <trkpt lat="43.340862" lon="-1.8087214">
        <time>2022-07-02T10:40:46Z</time>
      </trkpt>
      <trkpt lat="43.340855" lon="-1.8086379">
        <time>2022-07-02T10:40:47Z</time>
      </trkpt>
      <trkpt lat="43.34085" lon="-1.8085568">
        <time>2022-07-02T10:40:48Z</time>
      </trkpt>
      <trkpt lat="43.340843" lon="-1.8084775">
        <time>2022-07-02T10:40:49Z</time>
      </trkpt>
      <trkpt lat="43.34084" lon="-1.8084011">
        <time>2022-07-02T10:40:50Z</time>
      </trkpt>
      <trkpt lat="43.340836" lon="-1.8083289">
        <time>2022-07-02T10:40:51Z</time>
      </trkpt>
      <trkpt lat="43.34083" lon="-1.8082591">
        <time>2022-07-02T10:40:52Z</time>
      </trkpt>
      <trkpt lat="43.34083" lon="-1.8081248">
        <time>2022-07-02T10:40:54Z</time>
      </trkpt>
      <trkpt lat="43.34083" lon="-1.8079911">
        <time>2022-07-02T10:40:56Z</time>
      </trkpt>
      <trkpt lat="43.340836" lon="-1.8078512">
        <time>2022-07-02T10:40:58Z</time>
      </trkpt>
      <trkpt lat="43.34084" lon="-1.8077062">
        <time>2022-07-02T10:41:00Z</time>
      </trkpt>
      <trkpt lat="43.340843" lon="-1.8076319">
        <time>2022-07-02T10:41:01Z</time>
      </trkpt>
      <trkpt lat="43.340843" lon="-1.8075565">
        <time>2022-07-02T10:41:02Z</time>
      </trkpt>
      <trkpt lat="43.340843" lon="-1.8074795">
        <time>2022-07-02T10:41:03Z</time>
      </trkpt>
      <trkpt lat="43.34084" lon="-1.8074025">
        <time>2022-07-02T10:41:04Z</time>
      </trkpt>
      <trkpt lat="43.340836" lon="-1.8073262">
        <time>2022-07-02T10:41:05Z</time>
      </trkpt>
      <trkpt lat="43.340824" lon="-1.8071735">
        <time>2022-07-02T10:41:07Z</time>
      </trkpt>
      <trkpt lat="43.340816" lon="-1.8070968">
        <time>2022-07-02T10:41:08Z</time>
      </trkpt>
      <trkpt lat="43.34081" lon="-1.8070209">
        <time>2022-07-02T10:41:09Z</time>
      </trkpt>
      <trkpt lat="43.3408" lon="-1.8069445">
        <time>2022-07-02T10:41:10Z</time>
      </trkpt>
      <trkpt lat="43.34079" lon="-1.8068678">
        <time>2022-07-02T10:41:11Z</time>
      </trkpt>
      <trkpt lat="43.340782" lon="-1.8067915">
        <time>2022-07-02T10:41:12Z</time>
      </trkpt>
      <trkpt lat="43.340775" lon="-1.8067166">
        <time>2022-07-02T10:41:13Z</time>
      </trkpt>
      <trkpt lat="43.340763" lon="-1.8066438">
        <time>2022-07-02T10:41:14Z</time>
      </trkpt>
      <trkpt lat="43.340755" lon="-1.8065722">
        <time>2022-07-02T10:41:15Z</time>
      </trkpt>
      <trkpt lat="43.340748" lon="-1.8065016">
        <time>2022-07-02T10:41:16Z</time>
      </trkpt>
      <trkpt lat="43.34074" lon="-1.8064315">
        <time>2022-07-02T10:41:17Z</time>
      </trkpt>
      <trkpt lat="43.340725" lon="-1.8062953">
        <time>2022-07-02T10:41:19Z</time>
      </trkpt>
      <trkpt lat="43.34072" lon="-1.806227">
        <time>2022-07-02T10:41:20Z</time>
      </trkpt>
      <trkpt lat="43.340717" lon="-1.8060906">
        <time>2022-07-02T10:41:22Z</time>
      </trkpt>
      <trkpt lat="43.34071" lon="-1.8059542">
        <time>2022-07-02T10:41:24Z</time>
      </trkpt>
      <trkpt lat="43.340706" lon="-1.8058189">
        <time>2022-07-02T10:41:26Z</time>
      </trkpt>
      <trkpt lat="43.34071" lon="-1.805682">
        <time>2022-07-02T10:41:28Z</time>
      </trkpt>
      <trkpt lat="43.34071" lon="-1.80553">
        <time>2022-07-02T10:41:30Z</time>
      </trkpt>
      <trkpt lat="43.34071" lon="-1.8054502">
        <time>2022-07-02T10:41:31Z</time>
      </trkpt>
      <trkpt lat="43.34071" lon="-1.8053672">
        <time>2022-07-02T10:41:32Z</time>
      </trkpt>
      <trkpt lat="43.34071" lon="-1.8052746">
        <time>2022-07-02T10:41:33Z</time>
      </trkpt>
      <trkpt lat="43.340706" lon="-1.8051813">
        <time>2022-07-02T10:41:34Z</time>
      </trkpt>
      <trkpt lat="43.340702" lon="-1.8050859">
        <time>2022-07-02T10:41:35Z</time>
      </trkpt>
      <trkpt lat="43.3407" lon="-1.8049877">
        <time>2022-07-02T10:41:36Z</time>
      </trkpt>
      <trkpt lat="43.3407" lon="-1.8048873">
        <time>2022-07-02T10:41:37Z</time>
      </trkpt>
      <trkpt lat="43.3407" lon="-1.8047849">
        <time>2022-07-02T10:41:38Z</time>
      </trkpt>
      <trkpt lat="43.340694" lon="-1.8046876">
        <time>2022-07-02T10:41:39Z</time>
      </trkpt>
      <trkpt lat="43.340694" lon="-1.8045853">
        <time>2022-07-02T10:41:40Z</time>
      </trkpt>
      <trkpt lat="43.34069" lon="-1.804471">
        <time>2022-07-02T10:41:41Z</time>
      </trkpt>
      <trkpt lat="43.340687" lon="-1.8043627">
        <time>2022-07-02T10:41:42Z</time>
      </trkpt>
      <trkpt lat="43.340687" lon="-1.804242">
        <time>2022-07-02T10:41:43Z</time>
      </trkpt>
      <trkpt lat="43.340683" lon="-1.8041213">
        <time>2022-07-02T10:41:44Z</time>
      </trkpt>
      <trkpt lat="43.340675" lon="-1.803999">
        <time>2022-07-02T10:41:45Z</time>
      </trkpt>
      <trkpt lat="43.34067" lon="-1.8038763">
        <time>2022-07-02T10:41:46Z</time>
      </trkpt>
      <trkpt lat="43.340664" lon="-1.8037564">
        <time>2022-07-02T10:41:47Z</time>
      </trkpt>
      <trkpt lat="43.34066" lon="-1.8036417">
        <time>2022-07-02T10:41:48Z</time>
      </trkpt>
      <trkpt lat="43.340656" lon="-1.8035307">
        <time>2022-07-02T10:41:49Z</time>
      </trkpt>
      <trkpt lat="43.340656" lon="-1.803424">
        <time>2022-07-02T10:41:50Z</time>
      </trkpt>
      <trkpt lat="43.340656" lon="-1.8033217">
        <time>2022-07-02T10:41:51Z</time>
      </trkpt>
      <trkpt lat="43.34066" lon="-1.80323">
        <time>2022-07-02T10:41:52Z</time>
      </trkpt>
      <trkpt lat="43.34067" lon="-1.803143">
        <time>2022-07-02T10:41:53Z</time>
      </trkpt>
      <trkpt lat="43.34069" lon="-1.8030597">
        <time>2022-07-02T10:41:54Z</time>
      </trkpt>
      <trkpt lat="43.340717" lon="-1.8029836">
        <time>2022-07-02T10:41:55Z</time>
      </trkpt>
      <trkpt lat="43.340748" lon="-1.8029164">
        <time>2022-07-02T10:41:56Z</time>
      </trkpt>
      <trkpt lat="43.340782" lon="-1.8028554">
        <time>2022-07-02T10:41:57Z</time>
      </trkpt>
      <trkpt lat="43.34082" lon="-1.8027984">
        <time>2022-07-02T10:41:58Z</time>
      </trkpt>
      <trkpt lat="43.340855" lon="-1.8027424">
        <time>2022-07-02T10:41:59Z</time>
      </trkpt>
      <trkpt lat="43.34089" lon="-1.8026813">
        <time>2022-07-02T10:42:00Z</time>
      </trkpt>
      <trkpt lat="43.340916" lon="-1.8026197">
        <time>2022-07-02T10:42:01Z</time>
      </trkpt>
      <trkpt lat="43.34094" lon="-1.8025614">
        <time>2022-07-02T10:42:02Z</time>
      </trkpt>
      <trkpt lat="43.340958" lon="-1.8025013">
        <time>2022-07-02T10:42:03Z</time>
      </trkpt>
      <trkpt lat="43.340973" lon="-1.802376">
        <time>2022-07-02T10:42:05Z</time>
      </trkpt>
      <trkpt lat="43.34097" lon="-1.8022383">
        <time>2022-07-02T10:42:07Z</time>
      </trkpt>
      <trkpt lat="43.34096" lon="-1.8021023">
        <time>2022-07-02T10:42:09Z</time>
      </trkpt>
      <trkpt lat="43.340954" lon="-1.801962">
        <time>2022-07-02T10:42:11Z</time>
      </trkpt>
      <trkpt lat="43.340946" lon="-1.8018913">
        <time>2022-07-02T10:42:12Z</time>
      </trkpt>
      <trkpt lat="43.340942" lon="-1.8018221">
        <time>2022-07-02T10:42:13Z</time>
      </trkpt>
      <trkpt lat="43.340935" lon="-1.801689">
        <time>2022-07-02T10:42:15Z</time>
      </trkpt>
      <trkpt lat="43.340927" lon="-1.8015554">
        <time>2022-07-02T10:42:17Z</time>
      </trkpt>
      <trkpt lat="43.34092" lon="-1.8014327">
        <time>2022-07-02T10:42:19Z</time>
      </trkpt>
      <trkpt lat="43.340908" lon="-1.8013154">
        <time>2022-07-02T10:42:21Z</time>
      </trkpt>
      <trkpt lat="43.340904" lon="-1.801215">
        <time>2022-07-02T10:42:23Z</time>
      </trkpt>
      <trkpt lat="43.34091" lon="-1.8011165">
        <time>2022-07-02T10:42:25Z</time>
      </trkpt>
      <trkpt lat="43.34092" lon="-1.8010191">
        <time>2022-07-02T10:42:27Z</time>
      </trkpt>
      <trkpt lat="43.340927" lon="-1.8009211">
        <time>2022-07-02T10:42:29Z</time>
      </trkpt>
      <trkpt lat="43.340935" lon="-1.8008221">
        <time>2022-07-02T10:42:31Z</time>
      </trkpt>
      <trkpt lat="43.340946" lon="-1.8007238">
        <time>2022-07-02T10:42:33Z</time>
      </trkpt>
      <trkpt lat="43.34095" lon="-1.8006294">
        <time>2022-07-02T10:42:35Z</time>
      </trkpt>
      <trkpt lat="43.340954" lon="-1.8005431">
        <time>2022-07-02T10:42:37Z</time>
      </trkpt>
      <trkpt lat="43.340954" lon="-1.8004721">
        <time>2022-07-02T10:42:39Z</time>
      </trkpt>
      <trkpt lat="43.340958" lon="-1.8004104">
        <time>2022-07-02T10:42:41Z</time>
      </trkpt>
      <trkpt lat="43.34095" lon="-1.8003358">
        <time>2022-07-02T10:42:44Z</time>
      </trkpt>
      <trkpt lat="43.341034" lon="-1.8001194">
        <time>2022-07-02T10:44:20Z</time>
      </trkpt>
      <trkpt lat="43.34104" lon="-1.8000355">
        <time>2022-07-02T10:44:24Z</time>
      </trkpt>
      <trkpt lat="43.341022" lon="-1.7999334">
        <time>2022-07-02T10:44:28Z</time>
      </trkpt>
      <trkpt lat="43.340992" lon="-1.7998464">
        <time>2022-07-02T10:44:31Z</time>
      </trkpt>
      <trkpt lat="43.34096" lon="-1.7997638">
        <time>2022-07-02T10:44:34Z</time>
      </trkpt>
      <trkpt lat="43.340942" lon="-1.7996721">
        <time>2022-07-02T10:44:37Z</time>
      </trkpt>
      <trkpt lat="43.340923" lon="-1.7996105">
        <time>2022-07-02T10:44:39Z</time>
      </trkpt>
      <trkpt lat="43.340904" lon="-1.7995125">
        <time>2022-07-02T10:44:42Z</time>
      </trkpt>
      <trkpt lat="43.34091" lon="-1.7994108">
        <time>2022-07-02T10:44:45Z</time>
      </trkpt>
      <trkpt lat="43.340904" lon="-1.7993475">
        <time>2022-07-02T10:44:47Z</time>
      </trkpt>
      <trkpt lat="43.34088" lon="-1.7992698">
        <time>2022-07-02T10:44:50Z</time>
      </trkpt>
      <trkpt lat="43.340874" lon="-1.7991974">
        <time>2022-07-02T10:44:53Z</time>
      </trkpt>
      <trkpt lat="43.340878" lon="-1.7991202">
        <time>2022-07-02T10:44:56Z</time>
      </trkpt>
      <trkpt lat="43.340893" lon="-1.7990482">
        <time>2022-07-02T10:44:59Z</time>
      </trkpt>
      <trkpt lat="43.340916" lon="-1.7989765">
        <time>2022-07-02T10:45:02Z</time>
      </trkpt>
      <trkpt lat="43.340958" lon="-1.7989035">
        <time>2022-07-02T10:45:05Z</time>
      </trkpt>
      <trkpt lat="43.34101" lon="-1.7988378">
        <time>2022-07-02T10:45:08Z</time>
      </trkpt>
      <trkpt lat="43.341053" lon="-1.7987661">
        <time>2022-07-02T10:45:11Z</time>
      </trkpt>
      <trkpt lat="43.341087" lon="-1.7986902">
        <time>2022-07-02T10:45:14Z</time>
      </trkpt>
      <trkpt lat="43.34112" lon="-1.7986095">
        <time>2022-07-02T10:45:17Z</time>
      </trkpt>
      <trkpt lat="43.34115" lon="-1.7985288">
        <time>2022-07-02T10:45:20Z</time>
      </trkpt>
      <trkpt lat="43.34118" lon="-1.7984471">
        <time>2022-07-02T10:45:23Z</time>
      </trkpt>
      <trkpt lat="43.34121" lon="-1.7983636">
        <time>2022-07-02T10:45:26Z</time>
      </trkpt>
      <trkpt lat="43.341244" lon="-1.7982849">
        <time>2022-07-02T10:45:29Z</time>
      </trkpt>
      <trkpt lat="43.341278" lon="-1.7982168">
        <time>2022-07-02T10:45:32Z</time>
      </trkpt>
      <trkpt lat="43.34131" lon="-1.7981642">
        <time>2022-07-02T10:45:35Z</time>
      </trkpt>
      <trkpt lat="43.341343" lon="-1.7980765">
        <time>2022-07-02T10:45:39Z</time>
      </trkpt>
      <trkpt lat="43.341343" lon="-1.7979965">
        <time>2022-07-02T10:45:42Z</time>
      </trkpt>
      <trkpt lat="43.34131" lon="-1.7979099">
        <time>2022-07-02T10:45:45Z</time>
      </trkpt>
      <trkpt lat="43.341278" lon="-1.7978579">
        <time>2022-07-02T10:45:47Z</time>
      </trkpt>
      <trkpt lat="43.341225" lon="-1.7977759">
        <time>2022-07-02T10:45:50Z</time>
      </trkpt>
      <trkpt lat="43.341183" lon="-1.7977166">
        <time>2022-07-02T10:45:52Z</time>
      </trkpt>
      <trkpt lat="43.34114" lon="-1.7976469">
        <time>2022-07-02T10:45:54Z</time>
      </trkpt>
      <trkpt lat="43.341103" lon="-1.7975729">
        <time>2022-07-02T10:45:56Z</time>
      </trkpt>
      <trkpt lat="43.341064" lon="-1.7974929">
        <time>2022-07-02T10:45:58Z</time>
      </trkpt>
      <trkpt lat="43.341034" lon="-1.7974032">
        <time>2022-07-02T10:46:00Z</time>
      </trkpt>
      <trkpt lat="43.34101" lon="-1.7973052">
        <time>2022-07-02T10:46:02Z</time>
      </trkpt>
      <trkpt lat="43.34099" lon="-1.7972046">
        <time>2022-07-02T10:46:04Z</time>
      </trkpt>
      <trkpt lat="43.340958" lon="-1.7971029">
        <time>2022-07-02T10:46:06Z</time>
      </trkpt>
      <trkpt lat="43.34093" lon="-1.7969933">
        <time>2022-07-02T10:46:08Z</time>
      </trkpt>
      <trkpt lat="43.34091" lon="-1.796871">
        <time>2022-07-02T10:46:10Z</time>
      </trkpt>
      <trkpt lat="43.3409" lon="-1.7967433">
        <time>2022-07-02T10:46:12Z</time>
      </trkpt>
      <trkpt lat="43.340885" lon="-1.7966236">
        <time>2022-07-02T10:46:14Z</time>
      </trkpt>
      <trkpt lat="43.340866" lon="-1.796502">
        <time>2022-07-02T10:46:16Z</time>
      </trkpt>
      <trkpt lat="43.340847" lon="-1.7963736">
        <time>2022-07-02T10:46:18Z</time>
      </trkpt>
      <trkpt lat="43.34083" lon="-1.7963103">
        <time>2022-07-02T10:46:19Z</time>
      </trkpt>
      <trkpt lat="43.3408" lon="-1.7961973">
        <time>2022-07-02T10:46:21Z</time>
      </trkpt>
      <trkpt lat="43.340767" lon="-1.7960923">
        <time>2022-07-02T10:46:23Z</time>
      </trkpt>
      <trkpt lat="43.340733" lon="-1.7959839">
        <time>2022-07-02T10:46:25Z</time>
      </trkpt>
      <trkpt lat="43.3407" lon="-1.7958716">
        <time>2022-07-02T10:46:27Z</time>
      </trkpt>
      <trkpt lat="43.340675" lon="-1.795758">
        <time>2022-07-02T10:46:29Z</time>
      </trkpt>
      <trkpt lat="43.340652" lon="-1.7956353">
        <time>2022-07-02T10:46:31Z</time>
      </trkpt>
      <trkpt lat="43.340633" lon="-1.7955257">
        <time>2022-07-02T10:46:33Z</time>
      </trkpt>
      <trkpt lat="43.34061" lon="-1.7954147">
        <time>2022-07-02T10:46:35Z</time>
      </trkpt>
      <trkpt lat="43.340584" lon="-1.7953047">
        <time>2022-07-02T10:46:37Z</time>
      </trkpt>
      <trkpt lat="43.34056" lon="-1.7951963">
        <time>2022-07-02T10:46:39Z</time>
      </trkpt>
      <trkpt lat="43.340534" lon="-1.7950879">
        <time>2022-07-02T10:46:41Z</time>
      </trkpt>
      <trkpt lat="43.340515" lon="-1.794969">
        <time>2022-07-02T10:46:43Z</time>
      </trkpt>
      <trkpt lat="43.340523" lon="-1.79485">
        <time>2022-07-02T10:46:45Z</time>
      </trkpt>
      <trkpt lat="43.340523" lon="-1.794736">
        <time>2022-07-02T10:46:47Z</time>
      </trkpt>
      <trkpt lat="43.340515" lon="-1.794621">
        <time>2022-07-02T10:46:49Z</time>
      </trkpt>
      <trkpt lat="43.340492" lon="-1.7945217">
        <time>2022-07-02T10:46:51Z</time>
      </trkpt>
      <trkpt lat="43.340443" lon="-1.794463">
        <time>2022-07-02T10:46:53Z</time>
      </trkpt>
      <trkpt lat="43.34039" lon="-1.794449">
        <time>2022-07-02T10:46:55Z</time>
      </trkpt>
      <trkpt lat="43.340336" lon="-1.794455">
        <time>2022-07-02T10:46:57Z</time>
      </trkpt>
      <trkpt lat="43.340298" lon="-1.794465">
        <time>2022-07-02T10:47:01Z</time>
      </trkpt>
      <trkpt lat="43.3403" lon="-1.7943766">
        <time>2022-07-02T10:47:31Z</time>
      </trkpt>
      <trkpt lat="43.34028" lon="-1.7942947">
        <time>2022-07-02T10:47:35Z</time>
      </trkpt>
      <trkpt lat="43.34026" lon="-1.7942086">
        <time>2022-07-02T10:47:39Z</time>
      </trkpt>
      <trkpt lat="43.340244" lon="-1.794147">
        <time>2022-07-02T10:47:42Z</time>
      </trkpt>
      <trkpt lat="43.340218" lon="-1.7940767">
        <time>2022-07-02T10:47:46Z</time>
      </trkpt>
      <trkpt lat="43.34017" lon="-1.794032">
        <time>2022-07-02T10:47:50Z</time>
      </trkpt>
      <trkpt lat="43.340122" lon="-1.7940724">
        <time>2022-07-02T10:47:54Z</time>
      </trkpt>
      <trkpt lat="43.340122" lon="-1.7941453">
        <time>2022-07-02T10:47:57Z</time>
      </trkpt>
      <trkpt lat="43.34015" lon="-1.7941973">
        <time>2022-07-02T10:48:00Z</time>
      </trkpt>
      <trkpt lat="43.340187" lon="-1.7941856">
        <time>2022-07-02T10:48:04Z</time>
      </trkpt>
      <trkpt lat="43.340157" lon="-1.7941107">
        <time>2022-07-02T10:48:49Z</time>
      </trkpt>
      <trkpt lat="43.34013" lon="-1.794059">
        <time>2022-07-02T10:48:53Z</time>
      </trkpt>
      <trkpt lat="43.340103" lon="-1.794002">
        <time>2022-07-02T10:49:03Z</time>
      </trkpt>
      <trkpt lat="43.340122" lon="-1.7939534">
        <time>2022-07-02T10:49:13Z</time>
      </trkpt>
      <trkpt lat="43.34007" lon="-1.7940284">
        <time>2022-07-02T10:49:18Z</time>
      </trkpt>
      <trkpt lat="43.340076" lon="-1.794074">
        <time>2022-07-02T10:49:22Z</time>
      </trkpt>
      <trkpt lat="43.340137" lon="-1.7941147">
        <time>2022-07-02T10:49:26Z</time>
      </trkpt>
      <trkpt lat="43.34011" lon="-1.7940733">
        <time>2022-07-02T10:49:32Z</time>
      </trkpt>
      <trkpt lat="43.340034" lon="-1.7940323">
        <time>2022-07-02T10:49:35Z</time>
      </trkpt>
      <trkpt lat="43.340004" lon="-1.7940077">
        <time>2022-07-02T10:49:37Z</time>
      </trkpt>
      <trkpt lat="43.339985" lon="-1.7940481">
        <time>2022-07-02T10:49:42Z</time>
      </trkpt>
      <trkpt lat="43.34006" lon="-1.7940247">
        <time>2022-07-02T10:49:47Z</time>
      </trkpt>
      <trkpt lat="43.340107" lon="-1.7940214">
        <time>2022-07-02T10:49:50Z</time>
      </trkpt>
      <trkpt lat="43.340137" lon="-1.7940444">
        <time>2022-07-02T10:49:55Z</time>
      </trkpt>
      <trkpt lat="43.34021" lon="-1.7939724">
        <time>2022-07-02T10:50:32Z</time>
      </trkpt>
      <trkpt lat="43.340057" lon="-1.793962">
        <time>2022-07-02T10:50:47Z</time>
      </trkpt>
      <trkpt lat="43.340076" lon="-1.794003">
        <time>2022-07-02T10:50:55Z</time>
      </trkpt>
      <trkpt lat="43.340084" lon="-1.7940744">
        <time>2022-07-02T10:50:59Z</time>
      </trkpt>
      <trkpt lat="43.340176" lon="-1.7940451">
        <time>2022-07-02T10:51:17Z</time>
      </trkpt>
      <trkpt lat="43.3402" lon="-1.7939647">
        <time>2022-07-02T10:51:20Z</time>
      </trkpt>
      <trkpt lat="43.340195" lon="-1.793876">
        <time>2022-07-02T10:51:23Z</time>
      </trkpt>
      <trkpt lat="43.34018" lon="-1.7937847">
        <time>2022-07-02T10:51:26Z</time>
      </trkpt>
      <trkpt lat="43.34017" lon="-1.7936981">
        <time>2022-07-02T10:51:29Z</time>
      </trkpt>
      <trkpt lat="43.340164" lon="-1.7935967">
        <time>2022-07-02T10:51:32Z</time>
      </trkpt>
      <trkpt lat="43.340153" lon="-1.7935234">
        <time>2022-07-02T10:51:34Z</time>
      </trkpt>
      <trkpt lat="43.340137" lon="-1.7934453">
        <time>2022-07-02T10:51:36Z</time>
      </trkpt>
      <trkpt lat="43.34012" lon="-1.7933635">
        <time>2022-07-02T10:51:38Z</time>
      </trkpt>
      <trkpt lat="43.340103" lon="-1.7932785">
        <time>2022-07-02T10:51:40Z</time>
      </trkpt>
      <trkpt lat="43.34008" lon="-1.7931901">
        <time>2022-07-02T10:51:42Z</time>
      </trkpt>
      <trkpt lat="43.34006" lon="-1.7930918">
        <time>2022-07-02T10:51:44Z</time>
      </trkpt>
      <trkpt lat="43.340046" lon="-1.7929974">
        <time>2022-07-02T10:51:46Z</time>
      </trkpt>
      <trkpt lat="43.34003" lon="-1.792891">
        <time>2022-07-02T10:51:48Z</time>
      </trkpt>
      <trkpt lat="43.34002" lon="-1.7927921">
        <time>2022-07-02T10:51:50Z</time>
      </trkpt>
      <trkpt lat="43.340008" lon="-1.792698">
        <time>2022-07-02T10:51:52Z</time>
      </trkpt>
      <trkpt lat="43.34" lon="-1.7926208">
        <time>2022-07-02T10:51:54Z</time>
      </trkpt>
      <trkpt lat="43.339996" lon="-1.7925421">
        <time>2022-07-02T10:51:57Z</time>
      </trkpt>
      <trkpt lat="43.33999" lon="-1.7924547">
        <time>2022-07-02T10:52:00Z</time>
      </trkpt>
      <trkpt lat="43.33997" lon="-1.7923825">
        <time>2022-07-02T10:52:02Z</time>
      </trkpt>
      <trkpt lat="43.339954" lon="-1.7922964">
        <time>2022-07-02T10:52:04Z</time>
      </trkpt>
      <trkpt lat="43.339935" lon="-1.7922008">
        <time>2022-07-02T10:52:06Z</time>
      </trkpt>
      <trkpt lat="43.339912" lon="-1.7921004">
        <time>2022-07-02T10:52:08Z</time>
      </trkpt>
      <trkpt lat="43.339893" lon="-1.7919958">
        <time>2022-07-02T10:52:10Z</time>
      </trkpt>
      <trkpt lat="43.339874" lon="-1.7918891">
        <time>2022-07-02T10:52:12Z</time>
      </trkpt>
      <trkpt lat="43.339855" lon="-1.7917838">
        <time>2022-07-02T10:52:14Z</time>
      </trkpt>
      <trkpt lat="43.33984" lon="-1.7916747">
        <time>2022-07-02T10:52:16Z</time>
      </trkpt>
      <trkpt lat="43.33982" lon="-1.7915608">
        <time>2022-07-02T10:52:18Z</time>
      </trkpt>
      <trkpt lat="43.339798" lon="-1.7914422">
        <time>2022-07-02T10:52:20Z</time>
      </trkpt>
      <trkpt lat="43.33978" lon="-1.7913188">
        <time>2022-07-02T10:52:22Z</time>
      </trkpt>
      <trkpt lat="43.339756" lon="-1.7912061">
        <time>2022-07-02T10:52:24Z</time>
      </trkpt>
      <trkpt lat="43.339737" lon="-1.7910928">
        <time>2022-07-02T10:52:26Z</time>
      </trkpt>
      <trkpt lat="43.33972" lon="-1.7909718">
        <time>2022-07-02T10:52:28Z</time>
      </trkpt>
      <trkpt lat="43.339714" lon="-1.7909151">
        <time>2022-07-02T10:52:29Z</time>
      </trkpt>
      <trkpt lat="43.33969" lon="-1.7907945">
        <time>2022-07-02T10:52:31Z</time>
      </trkpt>
      <trkpt lat="43.33967" lon="-1.7906841">
        <time>2022-07-02T10:52:33Z</time>
      </trkpt>
      <trkpt lat="43.339638" lon="-1.7905742">
        <time>2022-07-02T10:52:35Z</time>
      </trkpt>
      <trkpt lat="43.339607" lon="-1.7904642">
        <time>2022-07-02T10:52:37Z</time>
      </trkpt>
      <trkpt lat="43.339584" lon="-1.7903439">
        <time>2022-07-02T10:52:39Z</time>
      </trkpt>
      <trkpt lat="43.33956" lon="-1.7902205">
        <time>2022-07-02T10:52:41Z</time>
      </trkpt>
      <trkpt lat="43.33954" lon="-1.7900945">
        <time>2022-07-02T10:52:43Z</time>
      </trkpt>
      <trkpt lat="43.33953" lon="-1.7900316">
        <time>2022-07-02T10:52:44Z</time>
      </trkpt>
      <trkpt lat="43.33951" lon="-1.7899069">
        <time>2022-07-02T10:52:46Z</time>
      </trkpt>
      <trkpt lat="43.339485" lon="-1.7897955">
        <time>2022-07-02T10:52:48Z</time>
      </trkpt>
      <trkpt lat="43.339447" lon="-1.7897065">
        <time>2022-07-02T10:52:50Z</time>
      </trkpt>
      <trkpt lat="43.339405" lon="-1.7896491">
        <time>2022-07-02T10:52:52Z</time>
      </trkpt>
      <trkpt lat="43.339367" lon="-1.7896085">
        <time>2022-07-02T10:52:54Z</time>
      </trkpt>
      <trkpt lat="43.339325" lon="-1.7895699">
        <time>2022-07-02T10:52:56Z</time>
      </trkpt>
      <trkpt lat="43.339268" lon="-1.7895199">
        <time>2022-07-02T10:52:59Z</time>
      </trkpt>
      <trkpt lat="43.339214" lon="-1.7894992">
        <time>2022-07-02T10:53:02Z</time>
      </trkpt>
      <trkpt lat="43.339172" lon="-1.7894989">
        <time>2022-07-02T10:53:06Z</time>
      </trkpt>
      <trkpt lat="43.339115" lon="-1.7894692">
        <time>2022-07-02T10:53:12Z</time>
      </trkpt>
      <trkpt lat="43.339054" lon="-1.7894499">
        <time>2022-07-02T10:53:15Z</time>
      </trkpt>
      <trkpt lat="43.338974" lon="-1.7893806">
        <time>2022-07-02T10:53:19Z</time>
      </trkpt>
      <trkpt lat="43.338924" lon="-1.7893013">
        <time>2022-07-02T10:53:22Z</time>
      </trkpt>
      <trkpt lat="43.338882" lon="-1.7892562">
        <time>2022-07-02T10:53:24Z</time>
      </trkpt>
      <trkpt lat="43.338837" lon="-1.7892076">
        <time>2022-07-02T10:53:26Z</time>
      </trkpt>
      <trkpt lat="43.338795" lon="-1.7891542">
        <time>2022-07-02T10:53:28Z</time>
      </trkpt>
      <trkpt lat="43.33875" lon="-1.7891046">
        <time>2022-07-02T10:53:30Z</time>
      </trkpt>
      <trkpt lat="43.338696" lon="-1.7890645">
        <time>2022-07-02T10:53:32Z</time>
      </trkpt>
      <trkpt lat="43.338634" lon="-1.7890263">
        <time>2022-07-02T10:53:34Z</time>
      </trkpt>
      <trkpt lat="43.338554" lon="-1.7889615">
        <time>2022-07-02T10:53:37Z</time>
      </trkpt>
      <trkpt lat="43.3385" lon="-1.7889179">
        <time>2022-07-02T10:53:39Z</time>
      </trkpt>
      <trkpt lat="43.338448" lon="-1.7888789">
        <time>2022-07-02T10:53:41Z</time>
      </trkpt>
      <trkpt lat="43.338394" lon="-1.7888466">
        <time>2022-07-02T10:53:43Z</time>
      </trkpt>
      <trkpt lat="43.338345" lon="-1.7888312">
        <time>2022-07-02T10:53:45Z</time>
      </trkpt>
      <trkpt lat="43.33827" lon="-1.7888256">
        <time>2022-07-02T10:53:48Z</time>
      </trkpt>
      <trkpt lat="43.338215" lon="-1.7888186">
        <time>2022-07-02T10:53:50Z</time>
      </trkpt>
      <trkpt lat="43.338158" lon="-1.7888132">
        <time>2022-07-02T10:53:52Z</time>
      </trkpt>
      <trkpt lat="43.338097" lon="-1.7888116">
        <time>2022-07-02T10:53:54Z</time>
      </trkpt>
      <trkpt lat="43.33803" lon="-1.7888156">
        <time>2022-07-02T10:53:56Z</time>
      </trkpt>
      <trkpt lat="43.33797" lon="-1.7888193">
        <time>2022-07-02T10:53:58Z</time>
      </trkpt>
      <trkpt lat="43.33791" lon="-1.788821">
        <time>2022-07-02T11:18:49Z</time>
      </trkpt>
      <trkpt lat="43.3383" lon="-1.7892172">
        <time>2022-07-02T11:19:05Z</time>
      </trkpt>
      <trkpt lat="43.338318" lon="-1.7892992">
        <time>2022-07-02T11:19:11Z</time>
      </trkpt>
      <trkpt lat="43.338318" lon="-1.7893606">
        <time>2022-07-02T11:19:18Z</time>
      </trkpt>
      <trkpt lat="43.338345" lon="-1.789429">
        <time>2022-07-02T11:19:28Z</time>
      </trkpt>
      <trkpt lat="43.338364" lon="-1.7895123">
        <time>2022-07-02T11:19:59Z</time>
      </trkpt>
      <trkpt lat="43.33832" lon="-1.7894839">
        <time>2022-07-02T11:20:23Z</time>
      </trkpt>
      <trkpt lat="43.3383" lon="-1.7894679">
        <time>2022-07-02T11:20:30Z</time>
      </trkpt>
      <trkpt lat="43.338333" lon="-1.789431">
        <time>2022-07-02T11:20:45Z</time>
      </trkpt>
      <trkpt lat="43.338364" lon="-1.7894475">
        <time>2022-07-02T11:20:48Z</time>
      </trkpt>
      <trkpt lat="43.33822" lon="-1.789071">
        <time>2022-07-02T11:21:28Z</time>
      </trkpt>
      <trkpt lat="43.33824" lon="-1.7889959">
        <time>2022-07-02T11:21:37Z</time>
      </trkpt>
      <trkpt lat="43.33845" lon="-1.789431">
        <time>2022-07-02T11:22:39Z</time>
      </trkpt>
      <trkpt lat="43.338253" lon="-1.7893813">
        <time>2022-07-02T11:23:56Z</time>
      </trkpt>
      <trkpt lat="43.338367" lon="-1.7894709">
        <time>2022-07-02T11:25:01Z</time>
      </trkpt>
      <trkpt lat="43.338463" lon="-1.7894932">
        <time>2022-07-02T11:25:27Z</time>
      </trkpt>
      <trkpt lat="43.338455" lon="-1.789483">
        <time>2022-07-02T11:25:34Z</time>
      </trkpt>
      <trkpt lat="43.338436" lon="-1.7895149">
        <time>2022-07-02T11:25:47Z</time>
      </trkpt>
      <trkpt lat="43.33839" lon="-1.7894973">
        <time>2022-07-02T11:25:53Z</time>
      </trkpt>
      <trkpt lat="43.338062" lon="-1.7893026">
        <time>2022-07-02T11:32:51Z</time>
      </trkpt>
      <trkpt lat="43.338066" lon="-1.7894033">
        <time>2022-07-02T11:33:09Z</time>
      </trkpt>
      <trkpt lat="43.338108" lon="-1.7894686">
        <time>2022-07-02T11:33:16Z</time>
      </trkpt>
      <trkpt lat="43.33817" lon="-1.7895459">
        <time>2022-07-02T11:33:33Z</time>
      </trkpt>
      <trkpt lat="43.338215" lon="-1.7895585">
        <time>2022-07-02T11:33:42Z</time>
      </trkpt>
      <trkpt lat="43.33827" lon="-1.7895206">
        <time>2022-07-02T11:33:47Z</time>
      </trkpt>
      <trkpt lat="43.33833" lon="-1.7895329">
        <time>2022-07-02T11:33:50Z</time>
      </trkpt>
      <trkpt lat="43.33838" lon="-1.7895899">
        <time>2022-07-02T11:33:53Z</time>
      </trkpt>
      <trkpt lat="43.338425" lon="-1.7896513">
        <time>2022-07-02T11:33:57Z</time>
      </trkpt>
      <trkpt lat="43.3385" lon="-1.7896899">
        <time>2022-07-02T11:33:59Z</time>
      </trkpt>
      <trkpt lat="43.33856" lon="-1.7897452">
        <time>2022-07-02T11:34:01Z</time>
      </trkpt>
      <trkpt lat="43.33858" lon="-1.7898072">
        <time>2022-07-02T11:34:03Z</time>
      </trkpt>
      <trkpt lat="43.33857" lon="-1.7899286">
        <time>2022-07-02T11:34:06Z</time>
      </trkpt>
      <trkpt lat="43.33858" lon="-1.7900239">
        <time>2022-07-02T11:34:08Z</time>
      </trkpt>
      <trkpt lat="43.3386" lon="-1.7901635">
        <time>2022-07-02T11:34:12Z</time>
      </trkpt>
      <trkpt lat="43.3386" lon="-1.7901999">
        <time>2022-07-02T11:34:13Z</time>
      </trkpt>
      <trkpt lat="43.338562" lon="-1.7901778">
        <time>2022-07-02T11:34:17Z</time>
      </trkpt>
      <trkpt lat="43.33853" lon="-1.7901078">
        <time>2022-07-02T11:34:20Z</time>
      </trkpt>
      <trkpt lat="43.338493" lon="-1.7900403">
        <time>2022-07-02T11:34:22Z</time>
      </trkpt>
      <trkpt lat="43.33845" lon="-1.7899755">
        <time>2022-07-02T11:34:24Z</time>
      </trkpt>
      <trkpt lat="43.338417" lon="-1.7899143">
        <time>2022-07-02T11:34:26Z</time>
      </trkpt>
      <trkpt lat="43.3384" lon="-1.7898339">
        <time>2022-07-02T11:34:29Z</time>
      </trkpt>
      <trkpt lat="43.338406" lon="-1.7897676">
        <time>2022-07-02T11:34:32Z</time>
      </trkpt>
      <trkpt lat="43.338413" lon="-1.7896599">
        <time>2022-07-02T11:34:36Z</time>
      </trkpt>
      <trkpt lat="43.338413" lon="-1.7895879">
        <time>2022-07-02T11:34:38Z</time>
      </trkpt>
      <trkpt lat="43.33841" lon="-1.7895079">
        <time>2022-07-02T11:34:41Z</time>
      </trkpt>
      <trkpt lat="43.3384" lon="-1.7894466">
        <time>2022-07-02T11:34:44Z</time>
      </trkpt>
      <trkpt lat="43.338367" lon="-1.7893742">
        <time>2022-07-02T11:34:47Z</time>
      </trkpt>
      <trkpt lat="43.338314" lon="-1.7893243">
        <time>2022-07-02T11:34:50Z</time>
      </trkpt>
      <trkpt lat="43.338272" lon="-1.7893236">
        <time>2022-07-02T11:34:52Z</time>
      </trkpt>
      <trkpt lat="43.338207" lon="-1.7893625">
        <time>2022-07-02T11:34:55Z</time>
      </trkpt>
      <trkpt lat="43.338165" lon="-1.7893759">
        <time>2022-07-02T11:34:57Z</time>
      </trkpt>
      <trkpt lat="43.338123" lon="-1.7893872">
        <time>2022-07-02T11:35:03Z</time>
      </trkpt>
      <trkpt lat="43.338238" lon="-1.7894459">
        <time>2022-07-02T11:35:23Z</time>
      </trkpt>
      <trkpt lat="43.33821" lon="-1.7894325">
        <time>2022-07-02T11:35:31Z</time>
      </trkpt>
      <trkpt lat="43.338173" lon="-1.7894329">
        <time>2022-07-02T11:35:35Z</time>
      </trkpt>
      <trkpt lat="43.338306" lon="-1.7894509">
        <time>2022-07-02T11:36:47Z</time>
      </trkpt>
      <trkpt lat="43.33826" lon="-1.7894765">
        <time>2022-07-02T11:36:58Z</time>
      </trkpt>
      <trkpt lat="43.338123" lon="-1.7894696">
        <time>2022-07-02T11:37:33Z</time>
      </trkpt>
      <trkpt lat="43.33809" lon="-1.7892876">
        <time>2022-07-02T11:42:08Z</time>
      </trkpt>
      <trkpt lat="43.338264" lon="-1.7893859">
        <time>2022-07-02T11:42:33Z</time>
      </trkpt>
      <trkpt lat="43.338306" lon="-1.7894275">
        <time>2022-07-02T11:42:40Z</time>
      </trkpt>
      <trkpt lat="43.338837" lon="-1.7893662">
        <time>2022-07-02T11:43:01Z</time>
      </trkpt>
      <trkpt lat="43.338905" lon="-1.7893579">
        <time>2022-07-02T11:43:02Z</time>
      </trkpt>
      <trkpt lat="43.338974" lon="-1.7893486">
        <time>2022-07-02T11:43:03Z</time>
      </trkpt>
      <trkpt lat="43.339046" lon="-1.7893382">
        <time>2022-07-02T11:43:04Z</time>
      </trkpt>
      <trkpt lat="43.339123" lon="-1.7893282">
        <time>2022-07-02T11:43:05Z</time>
      </trkpt>
      <trkpt lat="43.339195" lon="-1.7893186">
        <time>2022-07-02T11:43:06Z</time>
      </trkpt>
      <trkpt lat="43.33927" lon="-1.7893089">
        <time>2022-07-02T11:43:07Z</time>
      </trkpt>
      <trkpt lat="43.339344" lon="-1.7892996">
        <time>2022-07-02T11:43:08Z</time>
      </trkpt>
      <trkpt lat="43.339466" lon="-1.7892786">
        <time>2022-07-02T11:43:10Z</time>
      </trkpt>
      <trkpt lat="43.339516" lon="-1.7892679">
        <time>2022-07-02T11:43:11Z</time>
      </trkpt>
      <trkpt lat="43.339634" lon="-1.7892436">
        <time>2022-07-02T11:43:13Z</time>
      </trkpt>
      <trkpt lat="43.33969" lon="-1.7892313">
        <time>2022-07-02T11:43:14Z</time>
      </trkpt>
      <trkpt lat="43.339745" lon="-1.7892187">
        <time>2022-07-02T11:43:15Z</time>
      </trkpt>
      <trkpt lat="43.33979" lon="-1.7892063">
        <time>2022-07-02T11:43:16Z</time>
      </trkpt>
      <trkpt lat="43.33985" lon="-1.7891862">
        <time>2022-07-02T11:43:18Z</time>
      </trkpt>
      <trkpt lat="43.3399" lon="-1.7891676">
        <time>2022-07-02T11:43:21Z</time>
      </trkpt>
      <trkpt lat="43.33997" lon="-1.7891519">
        <time>2022-07-02T11:43:25Z</time>
      </trkpt>
      <trkpt lat="43.34003" lon="-1.7891533">
        <time>2022-07-02T11:43:27Z</time>
      </trkpt>
      <trkpt lat="43.340076" lon="-1.7891487">
        <time>2022-07-02T11:43:29Z</time>
      </trkpt>
      <trkpt lat="43.340088" lon="-1.7891393">
        <time>2022-07-02T11:43:37Z</time>
      </trkpt>
      <trkpt lat="43.340027" lon="-1.7891376">
        <time>2022-07-02T11:43:41Z</time>
      </trkpt>
      <trkpt lat="43.339954" lon="-1.7891476">
        <time>2022-07-02T11:43:45Z</time>
      </trkpt>
      <trkpt lat="43.33989" lon="-1.7891669">
        <time>2022-07-02T11:43:48Z</time>
      </trkpt>
      <trkpt lat="43.339817" lon="-1.789191">
        <time>2022-07-02T11:43:51Z</time>
      </trkpt>
      <trkpt lat="43.339767" lon="-1.7892003">
        <time>2022-07-02T11:43:53Z</time>
      </trkpt>
      <trkpt lat="43.339153" lon="-1.7892773">
        <time>2022-07-02T11:44:17Z</time>
      </trkpt>
      <trkpt lat="43.339108" lon="-1.789335">
        <time>2022-07-02T11:44:28Z</time>
      </trkpt>
      <trkpt lat="43.33904" lon="-1.789353">
        <time>2022-07-02T11:44:33Z</time>
      </trkpt>
      <trkpt lat="43.338844" lon="-1.7893616">
        <time>2022-07-02T11:44:39Z</time>
      </trkpt>
      <trkpt lat="43.338795" lon="-1.7893636">
        <time>2022-07-02T11:44:41Z</time>
      </trkpt>
      <trkpt lat="43.33878" lon="-1.789359">
        <time>2022-07-02T11:44:47Z</time>
      </trkpt>
      <trkpt lat="43.338833" lon="-1.7893646">
        <time>2022-07-02T11:44:55Z</time>
      </trkpt>
      <trkpt lat="43.338806" lon="-1.789372">
        <time>2022-07-02T11:45:03Z</time>
      </trkpt>
      <trkpt lat="43.338745" lon="-1.789367">
        <time>2022-07-02T11:45:07Z</time>
      </trkpt>
      <trkpt lat="43.338696" lon="-1.7893903">
        <time>2022-07-02T11:45:11Z</time>
      </trkpt>
      <trkpt lat="43.338642" lon="-1.7894036">
        <time>2022-07-02T11:45:15Z</time>
      </trkpt>
      <trkpt lat="43.338566" lon="-1.7894163">
        <time>2022-07-02T11:45:18Z</time>
      </trkpt>
      <trkpt lat="43.338524" lon="-1.7894293">
        <time>2022-07-02T11:45:20Z</time>
      </trkpt>
      <trkpt lat="43.33846" lon="-1.7894446">
        <time>2022-07-02T11:45:24Z</time>
      </trkpt>
      <trkpt lat="43.33841" lon="-1.7894659">
        <time>2022-07-02T11:45:27Z</time>
      </trkpt>
      <trkpt lat="43.338383" lon="-1.7894763">
        <time>2022-07-02T11:45:33Z</time>
      </trkpt>
      <trkpt lat="43.338337" lon="-1.7895082">
        <time>2022-07-02T11:45:42Z</time>
      </trkpt>
      <trkpt lat="43.338097" lon="-1.7895329">
        <time>2022-07-02T11:47:04Z</time>
      </trkpt>
      <trkpt lat="43.338093" lon="-1.7894969">
        <time>2022-07-02T11:49:41Z</time>
      </trkpt>
      <trkpt lat="43.338226" lon="-1.7895179">
        <time>2022-07-02T11:51:45Z</time>
      </trkpt>
      <trkpt lat="43.33824" lon="-1.7895063">
        <time>2022-07-02T11:52:23Z</time>
      </trkpt>
      <trkpt lat="43.33826" lon="-1.7894809">
        <time>2022-07-02T11:53:00Z</time>
      </trkpt>
      <trkpt lat="43.338215" lon="-1.789498">
        <time>2022-07-02T11:56:24Z</time>
      </trkpt>
      <trkpt lat="43.33822" lon="-1.7894639">
        <time>2022-07-02T11:59:36Z</time>
      </trkpt>
      <trkpt lat="43.338245" lon="-1.7893883">
        <time>2022-07-02T11:59:40Z</time>
      </trkpt>
      <trkpt lat="43.33826" lon="-1.7893246">
        <time>2022-07-02T11:59:46Z</time>
      </trkpt>
      <trkpt lat="43.338264" lon="-1.789231">
        <time>2022-07-02T11:59:50Z</time>
      </trkpt>
      <trkpt lat="43.338272" lon="-1.7891586">
        <time>2022-07-02T11:59:52Z</time>
      </trkpt>
      <trkpt lat="43.338272" lon="-1.7890756">
        <time>2022-07-02T11:59:54Z</time>
      </trkpt>
      <trkpt lat="43.338276" lon="-1.788985">
        <time>2022-07-02T11:59:56Z</time>
      </trkpt>
      <trkpt lat="43.338295" lon="-1.7888919">
        <time>2022-07-02T11:59:58Z</time>
      </trkpt>
      <trkpt lat="43.33831" lon="-1.7888076">
        <time>2022-07-02T12:00:00Z</time>
      </trkpt>
      <trkpt lat="43.338318" lon="-1.788731">
        <time>2022-07-02T12:00:02Z</time>
      </trkpt>
      <trkpt lat="43.338318" lon="-1.7886577">
        <time>2022-07-02T12:00:04Z</time>
      </trkpt>
      <trkpt lat="43.33831" lon="-1.788584">
        <time>2022-07-02T12:00:06Z</time>
      </trkpt>
      <trkpt lat="43.338303" lon="-1.7884979">
        <time>2022-07-02T12:00:08Z</time>
      </trkpt>
      <trkpt lat="43.338284" lon="-1.788394">
        <time>2022-07-02T12:00:10Z</time>
      </trkpt>
      <trkpt lat="43.33825" lon="-1.788275">
        <time>2022-07-02T12:00:12Z</time>
      </trkpt>
      <trkpt lat="43.33822" lon="-1.7881496">
        <time>2022-07-02T12:00:14Z</time>
      </trkpt>
      <trkpt lat="43.338203" lon="-1.7880874">
        <time>2022-07-02T12:00:15Z</time>
      </trkpt>
      <trkpt lat="43.338173" lon="-1.7879649">
        <time>2022-07-02T12:00:17Z</time>
      </trkpt>
      <trkpt lat="43.338154" lon="-1.787907">
        <time>2022-07-02T12:00:18Z</time>
      </trkpt>
      <trkpt lat="43.338127" lon="-1.7877927">
        <time>2022-07-02T12:00:20Z</time>
      </trkpt>
      <trkpt lat="43.3381" lon="-1.7876747">
        <time>2022-07-02T12:00:22Z</time>
      </trkpt>
      <trkpt lat="43.338078" lon="-1.787548">
        <time>2022-07-02T12:00:24Z</time>
      </trkpt>
      <trkpt lat="43.338047" lon="-1.7873363">
        <time>2022-07-02T12:00:27Z</time>
      </trkpt>
      <trkpt lat="43.33804" lon="-1.7872137">
        <time>2022-07-02T12:00:29Z</time>
      </trkpt>
      <trkpt lat="43.338043" lon="-1.7871037">
        <time>2022-07-02T12:00:31Z</time>
      </trkpt>
      <trkpt lat="43.338036" lon="-1.7869776">
        <time>2022-07-02T12:00:33Z</time>
      </trkpt>
      <trkpt lat="43.338028" lon="-1.786917">
        <time>2022-07-02T12:00:34Z</time>
      </trkpt>
      <trkpt lat="43.338013" lon="-1.7867924">
        <time>2022-07-02T12:00:36Z</time>
      </trkpt>
      <trkpt lat="43.337986" lon="-1.7866614">
        <time>2022-07-02T12:00:38Z</time>
      </trkpt>
      <trkpt lat="43.337975" lon="-1.7865874">
        <time>2022-07-02T12:00:39Z</time>
      </trkpt>
      <trkpt lat="43.337955" lon="-1.7865148">
        <time>2022-07-02T12:00:40Z</time>
      </trkpt>
      <trkpt lat="43.33794" lon="-1.7864457">
        <time>2022-07-02T12:00:41Z</time>
      </trkpt>
      <trkpt lat="43.337917" lon="-1.7863791">
        <time>2022-07-02T12:00:42Z</time>
      </trkpt>
      <trkpt lat="43.337894" lon="-1.7863137">
        <time>2022-07-02T12:00:43Z</time>
      </trkpt>
      <trkpt lat="43.337875" lon="-1.7862531">
        <time>2022-07-02T12:00:44Z</time>
      </trkpt>
      <trkpt lat="43.337837" lon="-1.7861243">
        <time>2022-07-02T12:00:46Z</time>
      </trkpt>
      <trkpt lat="43.337822" lon="-1.7860627">
        <time>2022-07-02T12:00:47Z</time>
      </trkpt>
      <trkpt lat="43.337807" lon="-1.7859421">
        <time>2022-07-02T12:00:49Z</time>
      </trkpt>
      <trkpt lat="43.33781" lon="-1.7858361">
        <time>2022-07-02T12:00:51Z</time>
      </trkpt>
      <trkpt lat="43.337837" lon="-1.7857507">
        <time>2022-07-02T12:00:53Z</time>
      </trkpt>
      <trkpt lat="43.33787" lon="-1.7856767">
        <time>2022-07-02T12:00:55Z</time>
      </trkpt>
      <trkpt lat="43.337906" lon="-1.7856097">
        <time>2022-07-02T12:00:57Z</time>
      </trkpt>
      <trkpt lat="43.337933" lon="-1.7855457">
        <time>2022-07-02T12:00:59Z</time>
      </trkpt>
      <trkpt lat="43.33795" lon="-1.7854787">
        <time>2022-07-02T12:01:01Z</time>
      </trkpt>
      <trkpt lat="43.33798" lon="-1.7854147">
        <time>2022-07-02T12:01:03Z</time>
      </trkpt>
      <trkpt lat="43.337997" lon="-1.7853217">
        <time>2022-07-02T12:01:06Z</time>
      </trkpt>
      <trkpt lat="43.338028" lon="-1.7852044">
        <time>2022-07-02T12:01:09Z</time>
      </trkpt>
      <trkpt lat="43.338055" lon="-1.7851194">
        <time>2022-07-02T12:01:11Z</time>
      </trkpt>
      <trkpt lat="43.338085" lon="-1.785032">
        <time>2022-07-02T12:01:13Z</time>
      </trkpt>
      <trkpt lat="43.338123" lon="-1.7849448">
        <time>2022-07-02T12:01:15Z</time>
      </trkpt>
      <trkpt lat="43.338158" lon="-1.7848461">
        <time>2022-07-02T12:01:17Z</time>
      </trkpt>
      <trkpt lat="43.338196" lon="-1.7847418">
        <time>2022-07-02T12:01:19Z</time>
      </trkpt>
      <trkpt lat="43.338234" lon="-1.7846401">
        <time>2022-07-02T12:01:21Z</time>
      </trkpt>
      <trkpt lat="43.338272" lon="-1.7845404">
        <time>2022-07-02T12:01:23Z</time>
      </trkpt>
      <trkpt lat="43.338303" lon="-1.7844404">
        <time>2022-07-02T12:01:25Z</time>
      </trkpt>
      <trkpt lat="43.33833" lon="-1.7843468">
        <time>2022-07-02T12:01:27Z</time>
      </trkpt>
      <trkpt lat="43.338356" lon="-1.7842737">
        <time>2022-07-02T12:01:29Z</time>
      </trkpt>
      <trkpt lat="43.338375" lon="-1.7842197">
        <time>2022-07-02T12:01:31Z</time>
      </trkpt>
      <trkpt lat="43.3384" lon="-1.7841514">
        <time>2022-07-02T12:01:34Z</time>
      </trkpt>
      <trkpt lat="43.338413" lon="-1.7840757">
        <time>2022-07-02T12:01:37Z</time>
      </trkpt>
      <trkpt lat="43.33842" lon="-1.7839828">
        <time>2022-07-02T12:01:40Z</time>
      </trkpt>
      <trkpt lat="43.338455" lon="-1.7839111">
        <time>2022-07-02T12:01:42Z</time>
      </trkpt>
      <trkpt lat="43.3385" lon="-1.7838368">
        <time>2022-07-02T12:01:44Z</time>
      </trkpt>
      <trkpt lat="43.338547" lon="-1.7837582">
        <time>2022-07-02T12:01:46Z</time>
      </trkpt>
      <trkpt lat="43.33859" lon="-1.7836674">
        <time>2022-07-02T12:01:48Z</time>
      </trkpt>
      <trkpt lat="43.33863" lon="-1.7835752">
        <time>2022-07-02T12:01:50Z</time>
      </trkpt>
      <trkpt lat="43.338665" lon="-1.7834811">
        <time>2022-07-02T12:01:52Z</time>
      </trkpt>
      <trkpt lat="43.33869" lon="-1.7833818">
        <time>2022-07-02T12:01:54Z</time>
      </trkpt>
      <trkpt lat="43.33872" lon="-1.7832788">
        <time>2022-07-02T12:01:56Z</time>
      </trkpt>
      <trkpt lat="43.338745" lon="-1.7831762">
        <time>2022-07-02T12:01:58Z</time>
      </trkpt>
      <trkpt lat="43.33878" lon="-1.7830828">
        <time>2022-07-02T12:02:00Z</time>
      </trkpt>
      <trkpt lat="43.338802" lon="-1.7830155">
        <time>2022-07-02T12:02:02Z</time>
      </trkpt>
      <trkpt lat="43.338818" lon="-1.7829745">
        <time>2022-07-02T12:02:04Z</time>
      </trkpt>
      <trkpt lat="43.338844" lon="-1.7829069">
        <time>2022-07-02T12:02:08Z</time>
      </trkpt>
      <trkpt lat="43.338882" lon="-1.7828242">
        <time>2022-07-02T12:02:12Z</time>
      </trkpt>
      <trkpt lat="43.338898" lon="-1.7827349">
        <time>2022-07-02T12:02:15Z</time>
      </trkpt>
      <trkpt lat="43.338932" lon="-1.7826455">
        <time>2022-07-02T12:02:18Z</time>
      </trkpt>
      <trkpt lat="43.33896" lon="-1.7825829">
        <time>2022-07-02T12:02:20Z</time>
      </trkpt>
      <trkpt lat="43.338985" lon="-1.7825152">
        <time>2022-07-02T12:02:22Z</time>
      </trkpt>
      <trkpt lat="43.33901" lon="-1.7824446">
        <time>2022-07-02T12:02:24Z</time>
      </trkpt>
      <trkpt lat="43.33903" lon="-1.7823693">
        <time>2022-07-02T12:02:26Z</time>
      </trkpt>
      <trkpt lat="43.339054" lon="-1.7822922">
        <time>2022-07-02T12:02:28Z</time>
      </trkpt>
      <trkpt lat="43.33908" lon="-1.7822112">
        <time>2022-07-02T12:02:30Z</time>
      </trkpt>
      <trkpt lat="43.339115" lon="-1.7821225">
        <time>2022-07-02T12:02:32Z</time>
      </trkpt>
      <trkpt lat="43.33915" lon="-1.7820302">
        <time>2022-07-02T12:02:34Z</time>
      </trkpt>
      <trkpt lat="43.339184" lon="-1.7819352">
        <time>2022-07-02T12:02:36Z</time>
      </trkpt>
      <trkpt lat="43.33922" lon="-1.7818296">
        <time>2022-07-02T12:02:38Z</time>
      </trkpt>
      <trkpt lat="43.339252" lon="-1.7817259">
        <time>2022-07-02T12:02:40Z</time>
      </trkpt>
      <trkpt lat="43.33928" lon="-1.781632">
        <time>2022-07-02T12:02:42Z</time>
      </trkpt>
      <trkpt lat="43.339314" lon="-1.7815253">
        <time>2022-07-02T12:02:44Z</time>
      </trkpt>
      <trkpt lat="43.339348" lon="-1.7814193">
        <time>2022-07-02T12:02:46Z</time>
      </trkpt>
      <trkpt lat="43.339382" lon="-1.7813166">
        <time>2022-07-02T12:02:48Z</time>
      </trkpt>
      <trkpt lat="43.33941" lon="-1.7812159">
        <time>2022-07-02T12:02:50Z</time>
      </trkpt>
      <trkpt lat="43.33944" lon="-1.7811213">
        <time>2022-07-02T12:02:52Z</time>
      </trkpt>
      <trkpt lat="43.339466" lon="-1.7810242">
        <time>2022-07-02T12:02:54Z</time>
      </trkpt>
      <trkpt lat="43.33949" lon="-1.7809256">
        <time>2022-07-02T12:02:56Z</time>
      </trkpt>
      <trkpt lat="43.339497" lon="-1.7808316">
        <time>2022-07-02T12:02:58Z</time>
      </trkpt>
      <trkpt lat="43.33949" lon="-1.7807479">
        <time>2022-07-02T12:03:00Z</time>
      </trkpt>
      <trkpt lat="43.339474" lon="-1.7806712">
        <time>2022-07-02T12:03:02Z</time>
      </trkpt>
      <trkpt lat="43.339466" lon="-1.780597">
        <time>2022-07-02T12:03:04Z</time>
      </trkpt>
      <trkpt lat="43.339466" lon="-1.7805223">
        <time>2022-07-02T12:03:06Z</time>
      </trkpt>
      <trkpt lat="43.339466" lon="-1.7804396">
        <time>2022-07-02T12:03:08Z</time>
      </trkpt>
      <trkpt lat="43.33948" lon="-1.7803643">
        <time>2022-07-02T12:03:10Z</time>
      </trkpt>
      <trkpt lat="43.339516" lon="-1.7803053">
        <time>2022-07-02T12:03:12Z</time>
      </trkpt>
      <trkpt lat="43.339573" lon="-1.7802513">
        <time>2022-07-02T12:03:14Z</time>
      </trkpt>
      <trkpt lat="43.33962" lon="-1.7801833">
        <time>2022-07-02T12:03:16Z</time>
      </trkpt>
      <trkpt lat="43.33964" lon="-1.780097">
        <time>2022-07-02T12:03:18Z</time>
      </trkpt>
      <trkpt lat="43.339653" lon="-1.7800057">
        <time>2022-07-02T12:03:20Z</time>
      </trkpt>
      <trkpt lat="43.33967" lon="-1.779909">
        <time>2022-07-02T12:03:22Z</time>
      </trkpt>
      <trkpt lat="43.339676" lon="-1.77981">
        <time>2022-07-02T12:03:24Z</time>
      </trkpt>
      <trkpt lat="43.339684" lon="-1.7797083">
        <time>2022-07-02T12:03:26Z</time>
      </trkpt>
      <trkpt lat="43.339695" lon="-1.7796067">
        <time>2022-07-02T12:03:28Z</time>
      </trkpt>
      <trkpt lat="43.339703" lon="-1.779507">
        <time>2022-07-02T12:03:30Z</time>
      </trkpt>
      <trkpt lat="43.339706" lon="-1.7794087">
        <time>2022-07-02T12:03:32Z</time>
      </trkpt>
      <trkpt lat="43.33971" lon="-1.779309">
        <time>2022-07-02T12:03:34Z</time>
      </trkpt>
      <trkpt lat="43.33972" lon="-1.779223">
        <time>2022-07-02T12:03:36Z</time>
      </trkpt>
      <trkpt lat="43.339733" lon="-1.7791294">
        <time>2022-07-02T12:03:38Z</time>
      </trkpt>
      <trkpt lat="43.339737" lon="-1.7790433">
        <time>2022-07-02T12:03:40Z</time>
      </trkpt>
      <trkpt lat="43.339737" lon="-1.7789603">
        <time>2022-07-02T12:03:42Z</time>
      </trkpt>
      <trkpt lat="43.339737" lon="-1.7788787">
        <time>2022-07-02T12:03:44Z</time>
      </trkpt>
      <trkpt lat="43.33973" lon="-1.7788157">
        <time>2022-07-02T12:03:46Z</time>
      </trkpt>
      <trkpt lat="43.339718" lon="-1.7787683">
        <time>2022-07-02T12:03:50Z</time>
      </trkpt>
      <trkpt lat="43.339626" lon="-1.7787427">
        <time>2022-07-02T12:04:27Z</time>
      </trkpt>
      <trkpt lat="43.33957" lon="-1.7787313">
        <time>2022-07-02T12:04:29Z</time>
      </trkpt>
      <trkpt lat="43.339497" lon="-1.77872">
        <time>2022-07-02T12:04:31Z</time>
      </trkpt>
      <trkpt lat="43.339428" lon="-1.77871">
        <time>2022-07-02T12:04:33Z</time>
      </trkpt>
      <trkpt lat="43.339348" lon="-1.7786998">
        <time>2022-07-02T12:04:35Z</time>
      </trkpt>
      <trkpt lat="43.33927" lon="-1.7786874">
        <time>2022-07-02T12:04:37Z</time>
      </trkpt>
      <trkpt lat="43.33919" lon="-1.778674">
        <time>2022-07-02T12:04:39Z</time>
      </trkpt>
      <trkpt lat="43.339115" lon="-1.7786617">
        <time>2022-07-02T12:04:41Z</time>
      </trkpt>
      <trkpt lat="43.339035" lon="-1.7786491">
        <time>2022-07-02T12:04:43Z</time>
      </trkpt>
      <trkpt lat="43.33895" lon="-1.778637">
        <time>2022-07-02T12:04:45Z</time>
      </trkpt>
      <trkpt lat="43.338867" lon="-1.7786254">
        <time>2022-07-02T12:04:47Z</time>
      </trkpt>
      <trkpt lat="43.338783" lon="-1.7786127">
        <time>2022-07-02T12:04:49Z</time>
      </trkpt>
      <trkpt lat="43.33869" lon="-1.778596">
        <time>2022-07-02T12:04:51Z</time>
      </trkpt>
      <trkpt lat="43.3386" lon="-1.778578">
        <time>2022-07-02T12:04:53Z</time>
      </trkpt>
      <trkpt lat="43.33855" lon="-1.7785704">
        <time>2022-07-02T12:04:54Z</time>
      </trkpt>
      <trkpt lat="43.33846" lon="-1.7785548">
        <time>2022-07-02T12:04:56Z</time>
      </trkpt>
      <trkpt lat="43.33841" lon="-1.7785465">
        <time>2022-07-02T12:04:57Z</time>
      </trkpt>
      <trkpt lat="43.338318" lon="-1.7785285">
        <time>2022-07-02T12:04:59Z</time>
      </trkpt>
      <trkpt lat="43.338223" lon="-1.7785118">
        <time>2022-07-02T12:05:01Z</time>
      </trkpt>
      <trkpt lat="43.33813" lon="-1.7784975">
        <time>2022-07-02T12:05:03Z</time>
      </trkpt>
      <trkpt lat="43.33804" lon="-1.7784841">
        <time>2022-07-02T12:05:05Z</time>
      </trkpt>
      <trkpt lat="43.337955" lon="-1.7784728">
        <time>2022-07-02T12:05:07Z</time>
      </trkpt>
      <trkpt lat="43.337875" lon="-1.7784674">
        <time>2022-07-02T12:05:09Z</time>
      </trkpt>
      <trkpt lat="43.33782" lon="-1.7784601">
        <time>2022-07-02T12:05:11Z</time>
      </trkpt>
      <trkpt lat="43.33777" lon="-1.7784505">
        <time>2022-07-02T12:05:13Z</time>
      </trkpt>
      <trkpt lat="43.337685" lon="-1.7784425">
        <time>2022-07-02T12:05:16Z</time>
      </trkpt>
      <trkpt lat="43.337616" lon="-1.7784381">
        <time>2022-07-02T12:05:18Z</time>
      </trkpt>
      <trkpt lat="43.337547" lon="-1.7784312">
        <time>2022-07-02T12:05:20Z</time>
      </trkpt>
      <trkpt lat="43.337475" lon="-1.7784199">
        <time>2022-07-02T12:05:22Z</time>
      </trkpt>
      <trkpt lat="43.3374" lon="-1.7784054">
        <time>2022-07-02T12:05:24Z</time>
      </trkpt>
      <trkpt lat="43.337322" lon="-1.7783918">
        <time>2022-07-02T12:05:26Z</time>
      </trkpt>
      <trkpt lat="43.337246" lon="-1.7783798">
        <time>2022-07-02T12:05:28Z</time>
      </trkpt>
      <trkpt lat="43.337166" lon="-1.7783685">
        <time>2022-07-02T12:05:30Z</time>
      </trkpt>
      <trkpt lat="43.33709" lon="-1.7783568">
        <time>2022-07-02T12:05:32Z</time>
      </trkpt>
      <trkpt lat="43.33701" lon="-1.7783434">
        <time>2022-07-02T12:05:34Z</time>
      </trkpt>
      <trkpt lat="43.33689" lon="-1.7783215">
        <time>2022-07-02T12:05:37Z</time>
      </trkpt>
      <trkpt lat="43.33681" lon="-1.7783098">
        <time>2022-07-02T12:05:39Z</time>
      </trkpt>
      <trkpt lat="43.336735" lon="-1.7782981">
        <time>2022-07-02T12:05:41Z</time>
      </trkpt>
      <trkpt lat="43.336655" lon="-1.7782842">
        <time>2022-07-02T12:05:43Z</time>
      </trkpt>
      <trkpt lat="43.33658" lon="-1.7782705">
        <time>2022-07-02T12:05:45Z</time>
      </trkpt>
      <trkpt lat="43.33651" lon="-1.7782578">
        <time>2022-07-02T12:05:47Z</time>
      </trkpt>
      <trkpt lat="43.336445" lon="-1.7782489">
        <time>2022-07-02T12:05:49Z</time>
      </trkpt>
      <trkpt lat="43.336388" lon="-1.7782505">
        <time>2022-07-02T12:05:51Z</time>
      </trkpt>
      <trkpt lat="43.336327" lon="-1.7782499">
        <time>2022-07-02T12:05:53Z</time>
      </trkpt>
      <trkpt lat="43.33626" lon="-1.7782315">
        <time>2022-07-02T12:05:55Z</time>
      </trkpt>
      <trkpt lat="43.336193" lon="-1.7782035">
        <time>2022-07-02T12:05:57Z</time>
      </trkpt>
      <trkpt lat="43.33612" lon="-1.7781825">
        <time>2022-07-02T12:05:59Z</time>
      </trkpt>
      <trkpt lat="43.336052" lon="-1.7781885">
        <time>2022-07-02T12:06:01Z</time>
      </trkpt>
      <trkpt lat="43.335995" lon="-1.7782309">
        <time>2022-07-02T12:06:03Z</time>
      </trkpt>
      <trkpt lat="43.335953" lon="-1.7783015">
        <time>2022-07-02T12:06:05Z</time>
      </trkpt>
      <trkpt lat="43.33592" lon="-1.7783881">
        <time>2022-07-02T12:06:07Z</time>
      </trkpt>
      <trkpt lat="43.335884" lon="-1.7784908">
        <time>2022-07-02T12:06:09Z</time>
      </trkpt>
      <trkpt lat="43.33585" lon="-1.7785991">
        <time>2022-07-02T12:06:11Z</time>
      </trkpt>
      <trkpt lat="43.335815" lon="-1.7787079">
        <time>2022-07-02T12:06:13Z</time>
      </trkpt>
      <trkpt lat="43.335773" lon="-1.7788168">
        <time>2022-07-02T12:06:15Z</time>
      </trkpt>
      <trkpt lat="43.33573" lon="-1.7789252">
        <time>2022-07-02T12:06:17Z</time>
      </trkpt>
      <trkpt lat="43.33569" lon="-1.7790315">
        <time>2022-07-02T12:06:19Z</time>
      </trkpt>
      <trkpt lat="43.335648" lon="-1.7791365">
        <time>2022-07-02T12:06:21Z</time>
      </trkpt>
      <trkpt lat="43.33561" lon="-1.7792379">
        <time>2022-07-02T12:06:23Z</time>
      </trkpt>
      <trkpt lat="43.335567" lon="-1.7793385">
        <time>2022-07-02T12:06:25Z</time>
      </trkpt>
      <trkpt lat="43.335526" lon="-1.7794418">
        <time>2022-07-02T12:06:27Z</time>
      </trkpt>
      <trkpt lat="43.335487" lon="-1.7795419">
        <time>2022-07-02T12:06:29Z</time>
      </trkpt>
      <trkpt lat="43.335453" lon="-1.7796341">
        <time>2022-07-02T12:06:31Z</time>
      </trkpt>
      <trkpt lat="43.33542" lon="-1.7797095">
        <time>2022-07-02T12:06:33Z</time>
      </trkpt>
      <trkpt lat="43.335392" lon="-1.7797627">
        <time>2022-07-02T12:06:35Z</time>
      </trkpt>
      <trkpt lat="43.335365" lon="-1.7798141">
        <time>2022-07-02T12:06:38Z</time>
      </trkpt>
      <trkpt lat="43.335316" lon="-1.7798538">
        <time>2022-07-02T12:06:42Z</time>
      </trkpt>
      <trkpt lat="43.335236" lon="-1.7798288">
        <time>2022-07-02T12:06:45Z</time>
      </trkpt>
      <trkpt lat="43.335175" lon="-1.7797965">
        <time>2022-07-02T12:06:47Z</time>
      </trkpt>
      <trkpt lat="43.335102" lon="-1.7797551">
        <time>2022-07-02T12:06:49Z</time>
      </trkpt>
      <trkpt lat="43.33503" lon="-1.7797098">
        <time>2022-07-02T12:06:51Z</time>
      </trkpt>
      <trkpt lat="43.334953" lon="-1.7796618">
        <time>2022-07-02T12:06:53Z</time>
      </trkpt>
      <trkpt lat="43.334877" lon="-1.7796144">
        <time>2022-07-02T12:06:55Z</time>
      </trkpt>
      <trkpt lat="43.334805" lon="-1.7795678">
        <time>2022-07-02T12:06:57Z</time>
      </trkpt>
      <trkpt lat="43.334736" lon="-1.7795208">
        <time>2022-07-02T12:06:59Z</time>
      </trkpt>
      <trkpt lat="43.33466" lon="-1.7794698">
        <time>2022-07-02T12:07:01Z</time>
      </trkpt>
      <trkpt lat="43.334587" lon="-1.7794181">
        <time>2022-07-02T12:07:03Z</time>
      </trkpt>
      <trkpt lat="43.334515" lon="-1.7793674">
        <time>2022-07-02T12:07:05Z</time>
      </trkpt>
      <trkpt lat="43.33444" lon="-1.7793225">
        <time>2022-07-02T12:07:07Z</time>
      </trkpt>
      <trkpt lat="43.334362" lon="-1.7792791">
        <time>2022-07-02T12:07:09Z</time>
      </trkpt>
      <trkpt lat="43.33429" lon="-1.7792379">
        <time>2022-07-02T12:07:11Z</time>
      </trkpt>
      <trkpt lat="43.334213" lon="-1.7792045">
        <time>2022-07-02T12:07:13Z</time>
      </trkpt>
      <trkpt lat="43.33414" lon="-1.7791815">
        <time>2022-07-02T12:07:15Z</time>
      </trkpt>
      <trkpt lat="43.334076" lon="-1.7791661">
        <time>2022-07-02T12:07:17Z</time>
      </trkpt>
      <trkpt lat="43.33402" lon="-1.7791542">
        <time>2022-07-02T12:07:19Z</time>
      </trkpt>
      <trkpt lat="43.33395" lon="-1.7791418">
        <time>2022-07-02T12:07:22Z</time>
      </trkpt>
      <trkpt lat="43.333977" lon="-1.7791548">
        <time>2022-07-02T12:08:17Z</time>
      </trkpt>
      <trkpt lat="43.334034" lon="-1.7791675">
        <time>2022-07-02T12:08:19Z</time>
      </trkpt>
      <trkpt lat="43.33411" lon="-1.7791861">
        <time>2022-07-02T12:08:21Z</time>
      </trkpt>
      <trkpt lat="43.334187" lon="-1.7792082">
        <time>2022-07-02T12:08:23Z</time>
      </trkpt>
      <trkpt lat="43.334274" lon="-1.7792388">
        <time>2022-07-02T12:08:25Z</time>
      </trkpt>
      <trkpt lat="43.33436" lon="-1.7792795">
        <time>2022-07-02T12:08:27Z</time>
      </trkpt>
      <trkpt lat="43.33444" lon="-1.7793268">
        <time>2022-07-02T12:08:29Z</time>
      </trkpt>
      <trkpt lat="43.33452" lon="-1.7793821">
        <time>2022-07-02T12:08:31Z</time>
      </trkpt>
      <trkpt lat="43.3346" lon="-1.7794374">
        <time>2022-07-02T12:08:33Z</time>
      </trkpt>
      <trkpt lat="43.334644" lon="-1.7794648">
        <time>2022-07-02T12:08:34Z</time>
      </trkpt>
      <trkpt lat="43.334732" lon="-1.7795235">
        <time>2022-07-02T12:08:36Z</time>
      </trkpt>
      <trkpt lat="43.334778" lon="-1.7795554">
        <time>2022-07-02T12:08:37Z</time>
      </trkpt>
      <trkpt lat="43.334824" lon="-1.7795881">
        <time>2022-07-02T12:08:38Z</time>
      </trkpt>
      <trkpt lat="43.33492" lon="-1.7796534">
        <time>2022-07-02T12:08:40Z</time>
      </trkpt>
      <trkpt lat="43.334965" lon="-1.7796851">
        <time>2022-07-02T12:08:41Z</time>
      </trkpt>
      <trkpt lat="43.33501" lon="-1.7797154">
        <time>2022-07-02T12:08:42Z</time>
      </trkpt>
      <trkpt lat="43.335102" lon="-1.7797718">
        <time>2022-07-02T12:08:44Z</time>
      </trkpt>
      <trkpt lat="43.335148" lon="-1.7797984">
        <time>2022-07-02T12:08:45Z</time>
      </trkpt>
      <trkpt lat="43.335236" lon="-1.7798418">
        <time>2022-07-02T12:08:47Z</time>
      </trkpt>
      <trkpt lat="43.335274" lon="-1.779849">
        <time>2022-07-02T12:08:48Z</time>
      </trkpt>
      <trkpt lat="43.33534" lon="-1.7798307">
        <time>2022-07-02T12:08:50Z</time>
      </trkpt>
      <trkpt lat="43.335384" lon="-1.7797964">
        <time>2022-07-02T12:08:52Z</time>
      </trkpt>
      <trkpt lat="43.33542" lon="-1.7797507">
        <time>2022-07-02T12:08:55Z</time>
      </trkpt>
      <trkpt lat="43.33546" lon="-1.779669">
        <time>2022-07-02T12:08:59Z</time>
      </trkpt>
      <trkpt lat="43.335495" lon="-1.7795675">
        <time>2022-07-02T12:09:02Z</time>
      </trkpt>
      <trkpt lat="43.335526" lon="-1.7794847">
        <time>2022-07-02T12:09:04Z</time>
      </trkpt>
      <trkpt lat="43.33556" lon="-1.7793968">
        <time>2022-07-02T12:09:06Z</time>
      </trkpt>
      <trkpt lat="43.335598" lon="-1.7793068">
        <time>2022-07-02T12:09:08Z</time>
      </trkpt>
      <trkpt lat="43.33564" lon="-1.7792114">
        <time>2022-07-02T12:09:10Z</time>
      </trkpt>
      <trkpt lat="43.33568" lon="-1.7791101">
        <time>2022-07-02T12:09:12Z</time>
      </trkpt>
      <trkpt lat="43.33572" lon="-1.7790041">
        <time>2022-07-02T12:09:14Z</time>
      </trkpt>
      <trkpt lat="43.335766" lon="-1.7788957">
        <time>2022-07-02T12:09:16Z</time>
      </trkpt>
      <trkpt lat="43.335808" lon="-1.7787888">
        <time>2022-07-02T12:09:18Z</time>
      </trkpt>
      <trkpt lat="43.335846" lon="-1.7786818">
        <time>2022-07-02T12:09:20Z</time>
      </trkpt>
      <trkpt lat="43.335876" lon="-1.7785767">
        <time>2022-07-02T12:09:22Z</time>
      </trkpt>
      <trkpt lat="43.335903" lon="-1.7784688">
        <time>2022-07-02T12:09:24Z</time>
      </trkpt>
      <trkpt lat="43.335934" lon="-1.7783698">
        <time>2022-07-02T12:09:26Z</time>
      </trkpt>
      <trkpt lat="43.33597" lon="-1.7782848">
        <time>2022-07-02T12:09:28Z</time>
      </trkpt>
      <trkpt lat="43.336018" lon="-1.7782258">
        <time>2022-07-02T12:09:30Z</time>
      </trkpt>
      <trkpt lat="43.336075" lon="-1.7782052">
        <time>2022-07-02T12:09:32Z</time>
      </trkpt>
      <trkpt lat="43.336136" lon="-1.7782121">
        <time>2022-07-02T12:09:34Z</time>
      </trkpt>
      <trkpt lat="43.33621" lon="-1.7782291">
        <time>2022-07-02T12:09:36Z</time>
      </trkpt>
      <trkpt lat="43.336273" lon="-1.7782362">
        <time>2022-07-02T12:09:38Z</time>
      </trkpt>
      <trkpt lat="43.336323" lon="-1.7782224">
        <time>2022-07-02T12:09:40Z</time>
      </trkpt>
      <trkpt lat="43.33635" lon="-1.7781538">
        <time>2022-07-02T12:09:43Z</time>
      </trkpt>
      <trkpt lat="43.336338" lon="-1.7780461">
        <time>2022-07-02T12:09:46Z</time>
      </trkpt>
      <trkpt lat="43.336338" lon="-1.7779444">
        <time>2022-07-02T12:09:49Z</time>
      </trkpt>
      <trkpt lat="43.33635" lon="-1.7778728">
        <time>2022-07-02T12:09:51Z</time>
      </trkpt>
      <trkpt lat="43.336353" lon="-1.7778121">
        <time>2022-07-02T12:09:53Z</time>
      </trkpt>
      <trkpt lat="43.336388" lon="-1.7777742">
        <time>2022-07-02T12:11:09Z</time>
      </trkpt>
      <trkpt lat="43.33644" lon="-1.7777612">
        <time>2022-07-02T12:11:11Z</time>
      </trkpt>
      <trkpt lat="43.336502" lon="-1.7777562">
        <time>2022-07-02T12:11:13Z</time>
      </trkpt>
      <trkpt lat="43.33658" lon="-1.7777615">
        <time>2022-07-02T12:11:15Z</time>
      </trkpt>
      <trkpt lat="43.33666" lon="-1.7777761">
        <time>2022-07-02T12:11:17Z</time>
      </trkpt>
      <trkpt lat="43.336742" lon="-1.7777928">
        <time>2022-07-02T12:11:19Z</time>
      </trkpt>
      <trkpt lat="43.336838" lon="-1.7778168">
        <time>2022-07-02T12:11:21Z</time>
      </trkpt>
      <trkpt lat="43.33689" lon="-1.7778264">
        <time>2022-07-02T12:11:22Z</time>
      </trkpt>
      <trkpt lat="43.336945" lon="-1.7778335">
        <time>2022-07-02T12:11:23Z</time>
      </trkpt>
      <trkpt lat="43.336998" lon="-1.7778394">
        <time>2022-07-02T12:11:24Z</time>
      </trkpt>
      <trkpt lat="43.337097" lon="-1.7778505">
        <time>2022-07-02T12:11:26Z</time>
      </trkpt>
      <trkpt lat="43.33715" lon="-1.7778578">
        <time>2022-07-02T12:11:27Z</time>
      </trkpt>
      <trkpt lat="43.33725" lon="-1.7778741">
        <time>2022-07-02T12:11:29Z</time>
      </trkpt>
      <trkpt lat="43.337296" lon="-1.7778817">
        <time>2022-07-02T12:11:30Z</time>
      </trkpt>
      <trkpt lat="43.337387" lon="-1.7778997">
        <time>2022-07-02T12:11:32Z</time>
      </trkpt>
      <trkpt lat="43.33749" lon="-1.7779192">
        <time>2022-07-02T12:11:34Z</time>
      </trkpt>
      <trkpt lat="43.33754" lon="-1.7779272">
        <time>2022-07-02T12:11:35Z</time>
      </trkpt>
      <trkpt lat="43.337643" lon="-1.7779402">
        <time>2022-07-02T12:11:37Z</time>
      </trkpt>
      <trkpt lat="43.33774" lon="-1.7779511">
        <time>2022-07-02T12:11:39Z</time>
      </trkpt>
      <trkpt lat="43.337795" lon="-1.7779548">
        <time>2022-07-02T12:11:40Z</time>
      </trkpt>
      <trkpt lat="43.3379" lon="-1.7779634">
        <time>2022-07-02T12:11:42Z</time>
      </trkpt>
      <trkpt lat="43.33795" lon="-1.7779715">
        <time>2022-07-02T12:11:43Z</time>
      </trkpt>
      <trkpt lat="43.338" lon="-1.7779828">
        <time>2022-07-02T12:11:44Z</time>
      </trkpt>
      <trkpt lat="43.33806" lon="-1.7779927">
        <time>2022-07-02T12:11:45Z</time>
      </trkpt>
      <trkpt lat="43.33811" lon="-1.7780014">
        <time>2022-07-02T12:11:46Z</time>
      </trkpt>
      <trkpt lat="43.33816" lon="-1.7780135">
        <time>2022-07-02T12:11:47Z</time>
      </trkpt>
      <trkpt lat="43.33821" lon="-1.7780287">
        <time>2022-07-02T12:11:48Z</time>
      </trkpt>
      <trkpt lat="43.338364" lon="-1.7780681">
        <time>2022-07-02T12:11:51Z</time>
      </trkpt>
      <trkpt lat="43.33846" lon="-1.7780991">
        <time>2022-07-02T12:11:53Z</time>
      </trkpt>
      <trkpt lat="43.338554" lon="-1.7781224">
        <time>2022-07-02T12:11:55Z</time>
      </trkpt>
      <trkpt lat="43.33865" lon="-1.7781484">
        <time>2022-07-02T12:11:57Z</time>
      </trkpt>
      <trkpt lat="43.338745" lon="-1.7781714">
        <time>2022-07-02T12:11:59Z</time>
      </trkpt>
      <trkpt lat="43.338795" lon="-1.7781811">
        <time>2022-07-02T12:12:00Z</time>
      </trkpt>
      <trkpt lat="43.338844" lon="-1.7781894">
        <time>2022-07-02T12:12:01Z</time>
      </trkpt>
      <trkpt lat="43.338943" lon="-1.7782044">
        <time>2022-07-02T12:12:03Z</time>
      </trkpt>
      <trkpt lat="43.33905" lon="-1.7782081">
        <time>2022-07-02T12:12:05Z</time>
      </trkpt>
      <trkpt lat="43.339108" lon="-1.7782074">
        <time>2022-07-02T12:12:06Z</time>
      </trkpt>
      <trkpt lat="43.33916" lon="-1.7782048">
        <time>2022-07-02T12:12:07Z</time>
      </trkpt>
      <trkpt lat="43.339214" lon="-1.7782037">
        <time>2022-07-02T12:12:08Z</time>
      </trkpt>
      <trkpt lat="43.339268" lon="-1.7782041">
        <time>2022-07-02T12:12:09Z</time>
      </trkpt>
      <trkpt lat="43.33932" lon="-1.7782048">
        <time>2022-07-02T12:12:10Z</time>
      </trkpt>
      <trkpt lat="43.339375" lon="-1.7782081">
        <time>2022-07-02T12:12:11Z</time>
      </trkpt>
      <trkpt lat="43.339428" lon="-1.7782134">
        <time>2022-07-02T12:12:12Z</time>
      </trkpt>
      <trkpt lat="43.339478" lon="-1.7782214">
        <time>2022-07-02T12:12:13Z</time>
      </trkpt>
      <trkpt lat="43.339527" lon="-1.7782325">
        <time>2022-07-02T12:12:14Z</time>
      </trkpt>
      <trkpt lat="43.339626" lon="-1.7782564">
        <time>2022-07-02T12:12:16Z</time>
      </trkpt>
      <trkpt lat="43.33972" lon="-1.778267">
        <time>2022-07-02T12:12:18Z</time>
      </trkpt>
      <trkpt lat="43.339817" lon="-1.7782714">
        <time>2022-07-02T12:12:20Z</time>
      </trkpt>
      <trkpt lat="43.339905" lon="-1.7782798">
        <time>2022-07-02T12:12:22Z</time>
      </trkpt>
      <trkpt lat="43.33995" lon="-1.7782857">
        <time>2022-07-02T12:12:23Z</time>
      </trkpt>
      <trkpt lat="43.34005" lon="-1.7782987">
        <time>2022-07-02T12:12:25Z</time>
      </trkpt>
      <trkpt lat="43.34014" lon="-1.7783134">
        <time>2022-07-02T12:12:27Z</time>
      </trkpt>
      <trkpt lat="43.340237" lon="-1.7783214">
        <time>2022-07-02T12:12:29Z</time>
      </trkpt>
      <trkpt lat="43.340286" lon="-1.7783234">
        <time>2022-07-02T12:12:30Z</time>
      </trkpt>
      <trkpt lat="43.340378" lon="-1.7783251">
        <time>2022-07-02T12:12:32Z</time>
      </trkpt>
      <trkpt lat="43.340466" lon="-1.778326">
        <time>2022-07-02T12:12:34Z</time>
      </trkpt>
      <trkpt lat="43.34055" lon="-1.7783117">
        <time>2022-07-02T12:12:36Z</time>
      </trkpt>
      <trkpt lat="43.340622" lon="-1.7782757">
        <time>2022-07-02T12:12:38Z</time>
      </trkpt>
      <trkpt lat="43.34068" lon="-1.7782258">
        <time>2022-07-02T12:12:40Z</time>
      </trkpt>
      <trkpt lat="43.340717" lon="-1.7781607">
        <time>2022-07-02T12:12:42Z</time>
      </trkpt>
      <trkpt lat="43.340744" lon="-1.7780827">
        <time>2022-07-02T12:12:44Z</time>
      </trkpt>
      <trkpt lat="43.340755" lon="-1.7779961">
        <time>2022-07-02T12:12:46Z</time>
      </trkpt>
      <trkpt lat="43.340755" lon="-1.7779064">
        <time>2022-07-02T12:12:48Z</time>
      </trkpt>
      <trkpt lat="43.340755" lon="-1.7778194">
        <time>2022-07-02T12:12:50Z</time>
      </trkpt>
      <trkpt lat="43.340755" lon="-1.7777284">
        <time>2022-07-02T12:12:52Z</time>
      </trkpt>
      <trkpt lat="43.340767" lon="-1.7776334">
        <time>2022-07-02T12:12:54Z</time>
      </trkpt>
      <trkpt lat="43.34078" lon="-1.777539">
        <time>2022-07-02T12:12:56Z</time>
      </trkpt>
      <trkpt lat="43.340794" lon="-1.777441">
        <time>2022-07-02T12:12:58Z</time>
      </trkpt>
      <trkpt lat="43.34081" lon="-1.7773447">
        <time>2022-07-02T12:13:00Z</time>
      </trkpt>
      <trkpt lat="43.340836" lon="-1.7772511">
        <time>2022-07-02T12:13:02Z</time>
      </trkpt>
      <trkpt lat="43.34087" lon="-1.7771615">
        <time>2022-07-02T12:13:04Z</time>
      </trkpt>
      <trkpt lat="43.340904" lon="-1.7770681">
        <time>2022-07-02T12:13:06Z</time>
      </trkpt>
      <trkpt lat="43.34094" lon="-1.7769778">
        <time>2022-07-02T12:13:08Z</time>
      </trkpt>
      <trkpt lat="43.340973" lon="-1.7768891">
        <time>2022-07-02T12:13:10Z</time>
      </trkpt>
      <trkpt lat="43.34101" lon="-1.7768002">
        <time>2022-07-02T12:13:12Z</time>
      </trkpt>
      <trkpt lat="43.34105" lon="-1.7767102">
        <time>2022-07-02T12:13:14Z</time>
      </trkpt>
      <trkpt lat="43.341084" lon="-1.7766174">
        <time>2022-07-02T12:13:16Z</time>
      </trkpt>
      <trkpt lat="43.341118" lon="-1.7765251">
        <time>2022-07-02T12:13:18Z</time>
      </trkpt>
      <trkpt lat="43.341156" lon="-1.7764348">
        <time>2022-07-02T12:13:20Z</time>
      </trkpt>
      <trkpt lat="43.341183" lon="-1.7763418">
        <time>2022-07-02T12:13:22Z</time>
      </trkpt>
      <trkpt lat="43.341187" lon="-1.7762707">
        <time>2022-07-02T12:13:24Z</time>
      </trkpt>
      <trkpt lat="43.341194" lon="-1.7762201">
        <time>2022-07-02T12:13:27Z</time>
      </trkpt>
      <trkpt lat="43.341236" lon="-1.7762038">
        <time>2022-07-02T12:14:23Z</time>
      </trkpt>
      <trkpt lat="43.34129" lon="-1.7761375">
        <time>2022-07-02T12:14:26Z</time>
      </trkpt>
      <trkpt lat="43.341324" lon="-1.7760731">
        <time>2022-07-02T12:14:28Z</time>
      </trkpt>
      <trkpt lat="43.341362" lon="-1.7759959">
        <time>2022-07-02T12:14:30Z</time>
      </trkpt>
      <trkpt lat="43.3414" lon="-1.7759061">
        <time>2022-07-02T12:14:32Z</time>
      </trkpt>
      <trkpt lat="43.34144" lon="-1.7758079">
        <time>2022-07-02T12:14:34Z</time>
      </trkpt>
      <trkpt lat="43.34147" lon="-1.7756991">
        <time>2022-07-02T12:14:36Z</time>
      </trkpt>
      <trkpt lat="43.341503" lon="-1.7755852">
        <time>2022-07-02T12:14:38Z</time>
      </trkpt>
      <trkpt lat="43.341537" lon="-1.7754672">
        <time>2022-07-02T12:14:40Z</time>
      </trkpt>
      <trkpt lat="43.341568" lon="-1.7753452">
        <time>2022-07-02T12:14:42Z</time>
      </trkpt>
      <trkpt lat="43.341595" lon="-1.7752188">
        <time>2022-07-02T12:14:44Z</time>
      </trkpt>
      <trkpt lat="43.34161" lon="-1.7751535">
        <time>2022-07-02T12:14:45Z</time>
      </trkpt>
      <trkpt lat="43.341637" lon="-1.7750199">
        <time>2022-07-02T12:14:47Z</time>
      </trkpt>
      <trkpt lat="43.34166" lon="-1.7748835">
        <time>2022-07-02T12:14:49Z</time>
      </trkpt>
      <trkpt lat="43.34167" lon="-1.7748156">
        <time>2022-07-02T12:14:50Z</time>
      </trkpt>
      <trkpt lat="43.34169" lon="-1.7746795">
        <time>2022-07-02T12:14:52Z</time>
      </trkpt>
      <trkpt lat="43.341698" lon="-1.7746105">
        <time>2022-07-02T12:14:53Z</time>
      </trkpt>
      <trkpt lat="43.34171" lon="-1.7744745">
        <time>2022-07-02T12:14:55Z</time>
      </trkpt>
      <trkpt lat="43.341717" lon="-1.7742722">
        <time>2022-07-02T12:14:58Z</time>
      </trkpt>
      <trkpt lat="43.341717" lon="-1.7742052">
        <time>2022-07-02T12:14:59Z</time>
      </trkpt>
      <trkpt lat="43.34172" lon="-1.7740685">
        <time>2022-07-02T12:15:01Z</time>
      </trkpt>
      <trkpt lat="43.341724" lon="-1.7739319">
        <time>2022-07-02T12:15:03Z</time>
      </trkpt>
      <trkpt lat="43.34173" lon="-1.7737988">
        <time>2022-07-02T12:15:05Z</time>
      </trkpt>
      <trkpt lat="43.34173" lon="-1.7736676">
        <time>2022-07-02T12:15:07Z</time>
      </trkpt>
      <trkpt lat="43.34172" lon="-1.7735351">
        <time>2022-07-02T12:15:09Z</time>
      </trkpt>
      <trkpt lat="43.341713" lon="-1.7734685">
        <time>2022-07-02T12:15:10Z</time>
      </trkpt>
      <trkpt lat="43.3417" lon="-1.7733335">
        <time>2022-07-02T12:15:12Z</time>
      </trkpt>
      <trkpt lat="43.341694" lon="-1.7731985">
        <time>2022-07-02T12:15:14Z</time>
      </trkpt>
      <trkpt lat="43.34169" lon="-1.7730665">
        <time>2022-07-02T12:15:16Z</time>
      </trkpt>
      <trkpt lat="43.341694" lon="-1.7730012">
        <time>2022-07-02T12:15:17Z</time>
      </trkpt>
      <trkpt lat="43.34169" lon="-1.7728692">
        <time>2022-07-02T12:15:19Z</time>
      </trkpt>
      <trkpt lat="43.341686" lon="-1.7728039">
        <time>2022-07-02T12:15:20Z</time>
      </trkpt>
      <trkpt lat="43.341682" lon="-1.7726752">
        <time>2022-07-02T12:15:22Z</time>
      </trkpt>
      <trkpt lat="43.341682" lon="-1.7726113">
        <time>2022-07-02T12:15:23Z</time>
      </trkpt>
      <trkpt lat="43.341686" lon="-1.7724825">
        <time>2022-07-02T12:15:25Z</time>
      </trkpt>
      <trkpt lat="43.341686" lon="-1.7723532">
        <time>2022-07-02T12:15:27Z</time>
      </trkpt>
      <trkpt lat="43.341686" lon="-1.7722878">
        <time>2022-07-02T12:15:28Z</time>
      </trkpt>
      <trkpt lat="43.341686" lon="-1.7721559">
        <time>2022-07-02T12:15:30Z</time>
      </trkpt>
      <trkpt lat="43.341686" lon="-1.7720898">
        <time>2022-07-02T12:15:31Z</time>
      </trkpt>
      <trkpt lat="43.341686" lon="-1.7719599">
        <time>2022-07-02T12:15:33Z</time>
      </trkpt>
      <trkpt lat="43.341686" lon="-1.7718946">
        <time>2022-07-02T12:15:34Z</time>
      </trkpt>
      <trkpt lat="43.34169" lon="-1.7717652">
        <time>2022-07-02T12:15:36Z</time>
      </trkpt>
      <trkpt lat="43.341698" lon="-1.7716362">
        <time>2022-07-02T12:15:38Z</time>
      </trkpt>
      <trkpt lat="43.3417" lon="-1.7715106">
        <time>2022-07-02T12:15:40Z</time>
      </trkpt>
      <trkpt lat="43.34171" lon="-1.7713859">
        <time>2022-07-02T12:15:42Z</time>
      </trkpt>
      <trkpt lat="43.34172" lon="-1.7712595">
        <time>2022-07-02T12:15:44Z</time>
      </trkpt>
      <trkpt lat="43.341724" lon="-1.7711959">
        <time>2022-07-02T12:15:45Z</time>
      </trkpt>
      <trkpt lat="43.341732" lon="-1.7710656">
        <time>2022-07-02T12:15:47Z</time>
      </trkpt>
      <trkpt lat="43.341743" lon="-1.7709349">
        <time>2022-07-02T12:15:49Z</time>
      </trkpt>
      <trkpt lat="43.34175" lon="-1.7708039">
        <time>2022-07-02T12:15:51Z</time>
      </trkpt>
      <trkpt lat="43.34176" lon="-1.7707379">
        <time>2022-07-02T12:15:52Z</time>
      </trkpt>
      <trkpt lat="43.341766" lon="-1.7706083">
        <time>2022-07-02T12:15:54Z</time>
      </trkpt>
      <trkpt lat="43.34177" lon="-1.7705432">
        <time>2022-07-02T12:15:55Z</time>
      </trkpt>
      <trkpt lat="43.341778" lon="-1.7704136">
        <time>2022-07-02T12:15:57Z</time>
      </trkpt>
      <trkpt lat="43.34179" lon="-1.7702863">
        <time>2022-07-02T12:15:59Z</time>
      </trkpt>
      <trkpt lat="43.341797" lon="-1.7701596">
        <time>2022-07-02T12:16:01Z</time>
      </trkpt>
      <trkpt lat="43.341805" lon="-1.770033">
        <time>2022-07-02T12:16:03Z</time>
      </trkpt>
      <trkpt lat="43.341812" lon="-1.7699074">
        <time>2022-07-02T12:16:05Z</time>
      </trkpt>
      <trkpt lat="43.34182" lon="-1.7697816">
        <time>2022-07-02T12:16:07Z</time>
      </trkpt>
      <trkpt lat="43.34183" lon="-1.7696567">
        <time>2022-07-02T12:16:09Z</time>
      </trkpt>
      <trkpt lat="43.341843" lon="-1.7695307">
        <time>2022-07-02T12:16:11Z</time>
      </trkpt>
      <trkpt lat="43.34185" lon="-1.7694046">
        <time>2022-07-02T12:16:13Z</time>
      </trkpt>
      <trkpt lat="43.341854" lon="-1.7693406">
        <time>2022-07-02T12:16:14Z</time>
      </trkpt>
      <trkpt lat="43.34186" lon="-1.7692137">
        <time>2022-07-02T12:16:16Z</time>
      </trkpt>
      <trkpt lat="43.341873" lon="-1.769087">
        <time>2022-07-02T12:16:18Z</time>
      </trkpt>
      <trkpt lat="43.341877" lon="-1.769024">
        <time>2022-07-02T12:16:19Z</time>
      </trkpt>
      <trkpt lat="43.341885" lon="-1.7689006">
        <time>2022-07-02T12:16:21Z</time>
      </trkpt>
      <trkpt lat="43.341892" lon="-1.7687807">
        <time>2022-07-02T12:16:23Z</time>
      </trkpt>
      <trkpt lat="43.341904" lon="-1.7686623">
        <time>2022-07-02T12:16:25Z</time>
      </trkpt>
      <trkpt lat="43.341915" lon="-1.768546">
        <time>2022-07-02T12:16:27Z</time>
      </trkpt>
      <trkpt lat="43.341927" lon="-1.7684287">
        <time>2022-07-02T12:16:29Z</time>
      </trkpt>
      <trkpt lat="43.341934" lon="-1.7683107">
        <time>2022-07-02T12:16:31Z</time>
      </trkpt>
      <trkpt lat="43.34195" lon="-1.7681926">
        <time>2022-07-02T12:16:33Z</time>
      </trkpt>
      <trkpt lat="43.341965" lon="-1.768074">
        <time>2022-07-02T12:16:35Z</time>
      </trkpt>
      <trkpt lat="43.34198" lon="-1.7679553">
        <time>2022-07-02T12:16:37Z</time>
      </trkpt>
      <trkpt lat="43.34199" lon="-1.767835">
        <time>2022-07-02T12:16:39Z</time>
      </trkpt>
      <trkpt lat="43.34201" lon="-1.7677166">
        <time>2022-07-02T12:16:41Z</time>
      </trkpt>
      <trkpt lat="43.342022" lon="-1.7675973">
        <time>2022-07-02T12:16:43Z</time>
      </trkpt>
      <trkpt lat="43.342037" lon="-1.767478">
        <time>2022-07-02T12:16:45Z</time>
      </trkpt>
      <trkpt lat="43.34205" lon="-1.767357">
        <time>2022-07-02T12:16:47Z</time>
      </trkpt>
      <trkpt lat="43.342068" lon="-1.767234">
        <time>2022-07-02T12:16:49Z</time>
      </trkpt>
      <trkpt lat="43.342083" lon="-1.7671107">
        <time>2022-07-02T12:16:51Z</time>
      </trkpt>
      <trkpt lat="43.34209" lon="-1.767048">
        <time>2022-07-02T12:16:52Z</time>
      </trkpt>
      <trkpt lat="43.342102" lon="-1.7669203">
        <time>2022-07-02T12:16:54Z</time>
      </trkpt>
      <trkpt lat="43.34212" lon="-1.7667893">
        <time>2022-07-02T12:16:56Z</time>
      </trkpt>
      <trkpt lat="43.342136" lon="-1.766659">
        <time>2022-07-02T12:16:58Z</time>
      </trkpt>
      <trkpt lat="43.342148" lon="-1.7665931">
        <time>2022-07-02T12:16:59Z</time>
      </trkpt>
      <trkpt lat="43.342167" lon="-1.7664604">
        <time>2022-07-02T12:17:01Z</time>
      </trkpt>
      <trkpt lat="43.342186" lon="-1.7663254">
        <time>2022-07-02T12:17:03Z</time>
      </trkpt>
      <trkpt lat="43.34221" lon="-1.7661877">
        <time>2022-07-02T12:17:05Z</time>
      </trkpt>
      <trkpt lat="43.342216" lon="-1.7661188">
        <time>2022-07-02T12:17:06Z</time>
      </trkpt>
      <trkpt lat="43.34224" lon="-1.7659781">
        <time>2022-07-02T12:17:08Z</time>
      </trkpt>
      <trkpt lat="43.34225" lon="-1.765907">
        <time>2022-07-02T12:17:09Z</time>
      </trkpt>
      <trkpt lat="43.342262" lon="-1.7658358">
        <time>2022-07-02T12:17:10Z</time>
      </trkpt>
      <trkpt lat="43.342274" lon="-1.7657651">
        <time>2022-07-02T12:17:11Z</time>
      </trkpt>
      <trkpt lat="43.342285" lon="-1.7656934">
        <time>2022-07-02T12:17:12Z</time>
      </trkpt>
      <trkpt lat="43.342297" lon="-1.7656218">
        <time>2022-07-02T12:17:13Z</time>
      </trkpt>
      <trkpt lat="43.342304" lon="-1.7655507">
        <time>2022-07-02T12:17:14Z</time>
      </trkpt>
      <trkpt lat="43.342316" lon="-1.7654804">
        <time>2022-07-02T12:17:15Z</time>
      </trkpt>
      <trkpt lat="43.34234" lon="-1.7653397">
        <time>2022-07-02T12:17:17Z</time>
      </trkpt>
      <trkpt lat="43.34235" lon="-1.7652701">
        <time>2022-07-02T12:17:18Z</time>
      </trkpt>
      <trkpt lat="43.34236" lon="-1.7652011">
        <time>2022-07-02T12:17:19Z</time>
      </trkpt>
      <trkpt lat="43.342384" lon="-1.7650647">
        <time>2022-07-02T12:17:21Z</time>
      </trkpt>
      <trkpt lat="43.342392" lon="-1.7649958">
        <time>2022-07-02T12:17:22Z</time>
      </trkpt>
      <trkpt lat="43.342403" lon="-1.7649285">
        <time>2022-07-02T12:17:23Z</time>
      </trkpt>
      <trkpt lat="43.34243" lon="-1.7647945">
        <time>2022-07-02T12:17:25Z</time>
      </trkpt>
      <trkpt lat="43.342472" lon="-1.7646644">
        <time>2022-07-02T12:17:27Z</time>
      </trkpt>
      <trkpt lat="43.342495" lon="-1.7645991">
        <time>2022-07-02T12:17:28Z</time>
      </trkpt>
      <trkpt lat="43.342514" lon="-1.7645328">
        <time>2022-07-02T12:17:29Z</time>
      </trkpt>
      <trkpt lat="43.342537" lon="-1.7644641">
        <time>2022-07-02T12:17:30Z</time>
      </trkpt>
      <trkpt lat="43.342552" lon="-1.7643938">
        <time>2022-07-02T12:17:31Z</time>
      </trkpt>
      <trkpt lat="43.342567" lon="-1.7643281">
        <time>2022-07-02T12:17:32Z</time>
      </trkpt>
      <trkpt lat="43.342598" lon="-1.7641917">
        <time>2022-07-02T12:17:34Z</time>
      </trkpt>
      <trkpt lat="43.34261" lon="-1.7641231">
        <time>2022-07-02T12:17:35Z</time>
      </trkpt>
      <trkpt lat="43.34264" lon="-1.7639922">
        <time>2022-07-02T12:17:37Z</time>
      </trkpt>
      <trkpt lat="43.342655" lon="-1.7639291">
        <time>2022-07-02T12:17:38Z</time>
      </trkpt>
      <trkpt lat="43.3427" lon="-1.7638011">
        <time>2022-07-02T12:17:40Z</time>
      </trkpt>
      <trkpt lat="43.34273" lon="-1.7637435">
        <time>2022-07-02T12:17:41Z</time>
      </trkpt>
      <trkpt lat="43.3428" lon="-1.7636435">
        <time>2022-07-02T12:17:43Z</time>
      </trkpt>
      <trkpt lat="43.342876" lon="-1.7635409">
        <time>2022-07-02T12:17:45Z</time>
      </trkpt>
      <trkpt lat="43.34291" lon="-1.7634902">
        <time>2022-07-02T12:17:46Z</time>
      </trkpt>
      <trkpt lat="43.342945" lon="-1.7634431">
        <time>2022-07-02T12:17:47Z</time>
      </trkpt>
      <trkpt lat="43.343014" lon="-1.7633471">
        <time>2022-07-02T12:17:49Z</time>
      </trkpt>
      <trkpt lat="43.343086" lon="-1.7632595">
        <time>2022-07-02T12:17:51Z</time>
      </trkpt>
      <trkpt lat="43.34315" lon="-1.7631685">
        <time>2022-07-02T12:17:53Z</time>
      </trkpt>
      <trkpt lat="43.343212" lon="-1.7630732">
        <time>2022-07-02T12:17:55Z</time>
      </trkpt>
      <trkpt lat="43.343277" lon="-1.7629899">
        <time>2022-07-02T12:17:57Z</time>
      </trkpt>
      <trkpt lat="43.34334" lon="-1.7629005">
        <time>2022-07-02T12:17:59Z</time>
      </trkpt>
      <trkpt lat="43.343403" lon="-1.7628038">
        <time>2022-07-02T12:18:01Z</time>
      </trkpt>
      <trkpt lat="43.343456" lon="-1.7627056">
        <time>2022-07-02T12:18:03Z</time>
      </trkpt>
      <trkpt lat="43.343506" lon="-1.7626065">
        <time>2022-07-02T12:18:05Z</time>
      </trkpt>
      <trkpt lat="43.343555" lon="-1.7625072">
        <time>2022-07-02T12:18:07Z</time>
      </trkpt>
      <trkpt lat="43.343605" lon="-1.7624068">
        <time>2022-07-02T12:18:09Z</time>
      </trkpt>
      <trkpt lat="43.343655" lon="-1.7623042">
        <time>2022-07-02T12:18:11Z</time>
      </trkpt>
      <trkpt lat="43.343697" lon="-1.7621928">
        <time>2022-07-02T12:18:13Z</time>
      </trkpt>
      <trkpt lat="43.343716" lon="-1.7621286">
        <time>2022-07-02T12:18:14Z</time>
      </trkpt>
      <trkpt lat="43.343746" lon="-1.7620032">
        <time>2022-07-02T12:18:16Z</time>
      </trkpt>
      <trkpt lat="43.343777" lon="-1.7618852">
        <time>2022-07-02T12:18:18Z</time>
      </trkpt>
      <trkpt lat="43.343803" lon="-1.7617699">
        <time>2022-07-02T12:18:20Z</time>
      </trkpt>
      <trkpt lat="43.343826" lon="-1.7616572">
        <time>2022-07-02T12:18:22Z</time>
      </trkpt>
      <trkpt lat="43.343845" lon="-1.7615479">
        <time>2022-07-02T12:18:24Z</time>
      </trkpt>
      <trkpt lat="43.343857" lon="-1.7614412">
        <time>2022-07-02T12:18:26Z</time>
      </trkpt>
      <trkpt lat="43.343853" lon="-1.7613416">
        <time>2022-07-02T12:18:28Z</time>
      </trkpt>
      <trkpt lat="43.34384" lon="-1.7612529">
        <time>2022-07-02T12:18:30Z</time>
      </trkpt>
      <trkpt lat="43.343822" lon="-1.7611799">
        <time>2022-07-02T12:18:32Z</time>
      </trkpt>
      <trkpt lat="43.34381" lon="-1.7611036">
        <time>2022-07-02T12:18:35Z</time>
      </trkpt>
      <trkpt lat="43.3438" lon="-1.7610385">
        <time>2022-07-02T12:18:38Z</time>
      </trkpt>
      <trkpt lat="43.343792" lon="-1.7609569">
        <time>2022-07-02T12:18:42Z</time>
      </trkpt>
      <trkpt lat="43.34378" lon="-1.7608865">
        <time>2022-07-02T12:18:46Z</time>
      </trkpt>
      <trkpt lat="43.34382" lon="-1.7608622">
        <time>2022-07-02T12:19:17Z</time>
      </trkpt>
      <trkpt lat="43.34386" lon="-1.7609109">
        <time>2022-07-02T12:19:20Z</time>
      </trkpt>
      <trkpt lat="43.343906" lon="-1.7609669">
        <time>2022-07-02T12:19:23Z</time>
      </trkpt>
      <trkpt lat="43.343956" lon="-1.7610226">
        <time>2022-07-02T12:19:26Z</time>
      </trkpt>
      <trkpt lat="43.344" lon="-1.761079">
        <time>2022-07-02T12:19:29Z</time>
      </trkpt>
      <trkpt lat="43.344048" lon="-1.7611359">
        <time>2022-07-02T12:19:32Z</time>
      </trkpt>
      <trkpt lat="43.344105" lon="-1.7612022">
        <time>2022-07-02T12:19:35Z</time>
      </trkpt>
      <trkpt lat="43.344143" lon="-1.7612449">
        <time>2022-07-02T12:19:37Z</time>
      </trkpt>
      <trkpt lat="43.3442" lon="-1.7613039">
        <time>2022-07-02T12:19:40Z</time>
      </trkpt>
      <trkpt lat="43.344257" lon="-1.7613559">
        <time>2022-07-02T12:19:43Z</time>
      </trkpt>
      <trkpt lat="43.34431" lon="-1.7614032">
        <time>2022-07-02T12:19:46Z</time>
      </trkpt>
      <trkpt lat="43.344357" lon="-1.7614639">
        <time>2022-07-02T12:19:49Z</time>
      </trkpt>
      <trkpt lat="43.344402" lon="-1.7615316">
        <time>2022-07-02T12:19:52Z</time>
      </trkpt>
      <trkpt lat="43.34445" lon="-1.7615892">
        <time>2022-07-02T12:19:55Z</time>
      </trkpt>
      <trkpt lat="43.344517" lon="-1.7616122">
        <time>2022-07-02T12:19:58Z</time>
      </trkpt>
      <trkpt lat="43.344578" lon="-1.7616162">
        <time>2022-07-02T12:20:01Z</time>
      </trkpt>
      <trkpt lat="43.344624" lon="-1.7616506">
        <time>2022-07-02T12:20:04Z</time>
      </trkpt>
      <trkpt lat="43.344666" lon="-1.7617066">
        <time>2022-07-02T12:20:07Z</time>
      </trkpt>
      <trkpt lat="43.34472" lon="-1.7617235">
        <time>2022-07-02T12:20:11Z</time>
      </trkpt>
      <trkpt lat="43.34477" lon="-1.7616656">
        <time>2022-07-02T12:20:16Z</time>
      </trkpt>
      <trkpt lat="43.344784" lon="-1.7615856">
        <time>2022-07-02T12:20:20Z</time>
      </trkpt>
      <trkpt lat="43.34475" lon="-1.7615095">
        <time>2022-07-02T12:20:23Z</time>
      </trkpt>
      <trkpt lat="43.344704" lon="-1.7614255">
        <time>2022-07-02T12:20:26Z</time>
      </trkpt>
      <trkpt lat="43.344677" lon="-1.7613732">
        <time>2022-07-02T12:20:28Z</time>
      </trkpt>
      <trkpt lat="43.34466" lon="-1.7613136">
        <time>2022-07-02T12:20:31Z</time>
      </trkpt>
      <trkpt lat="43.344658" lon="-1.7611998">
        <time>2022-07-02T12:20:52Z</time>
      </trkpt>
      <trkpt lat="43.344677" lon="-1.7612323">
        <time>2022-07-02T12:21:02Z</time>
      </trkpt>
      <trkpt lat="43.344738" lon="-1.7611939">
        <time>2022-07-02T12:23:01Z</time>
      </trkpt>
      <trkpt lat="43.344685" lon="-1.7611519">
        <time>2022-07-02T12:23:04Z</time>
      </trkpt>
      <trkpt lat="43.344616" lon="-1.7611359">
        <time>2022-07-02T12:23:07Z</time>
      </trkpt>
      <trkpt lat="43.344543" lon="-1.7611349">
        <time>2022-07-02T12:23:10Z</time>
      </trkpt>
      <trkpt lat="43.34446" lon="-1.7611699">
        <time>2022-07-02T12:23:14Z</time>
      </trkpt>
      <trkpt lat="43.344406" lon="-1.7611742">
        <time>2022-07-02T12:23:17Z</time>
      </trkpt>
      <trkpt lat="43.344353" lon="-1.7611399">
        <time>2022-07-02T12:23:20Z</time>
      </trkpt>
      <trkpt lat="43.344303" lon="-1.7610896">
        <time>2022-07-02T12:23:23Z</time>
      </trkpt>
      <trkpt lat="43.34425" lon="-1.7610339">
        <time>2022-07-02T12:23:26Z</time>
      </trkpt>
      <trkpt lat="43.344196" lon="-1.7609756">
        <time>2022-07-02T12:23:29Z</time>
      </trkpt>
      <trkpt lat="43.34414" lon="-1.760914">
        <time>2022-07-02T12:23:32Z</time>
      </trkpt>
      <trkpt lat="43.344078" lon="-1.7608509">
        <time>2022-07-02T12:23:35Z</time>
      </trkpt>
      <trkpt lat="43.34403" lon="-1.7608039">
        <time>2022-07-02T12:23:37Z</time>
      </trkpt>
      <trkpt lat="43.343983" lon="-1.7607563">
        <time>2022-07-02T12:23:39Z</time>
      </trkpt>
      <trkpt lat="43.343937" lon="-1.7607006">
        <time>2022-07-02T12:23:41Z</time>
      </trkpt>
      <trkpt lat="43.343906" lon="-1.7606252">
        <time>2022-07-02T12:23:43Z</time>
      </trkpt>
      <trkpt lat="43.34389" lon="-1.7605236">
        <time>2022-07-02T12:23:45Z</time>
      </trkpt>
      <trkpt lat="43.34389" lon="-1.7604092">
        <time>2022-07-02T12:23:47Z</time>
      </trkpt>
      <trkpt lat="43.343887" lon="-1.7602903">
        <time>2022-07-02T12:23:49Z</time>
      </trkpt>
      <trkpt lat="43.34388" lon="-1.7601689">
        <time>2022-07-02T12:23:51Z</time>
      </trkpt>
      <trkpt lat="43.34388" lon="-1.7600436">
        <time>2022-07-02T12:23:53Z</time>
      </trkpt>
      <trkpt lat="43.34388" lon="-1.7599183">
        <time>2022-07-02T12:23:55Z</time>
      </trkpt>
      <trkpt lat="43.343876" lon="-1.7597946">
        <time>2022-07-02T12:23:57Z</time>
      </trkpt>
      <trkpt lat="43.34387" lon="-1.7596747">
        <time>2022-07-02T12:23:59Z</time>
      </trkpt>
      <trkpt lat="43.34386" lon="-1.7595543">
        <time>2022-07-02T12:24:01Z</time>
      </trkpt>
      <trkpt lat="43.34386" lon="-1.7594293">
        <time>2022-07-02T12:24:03Z</time>
      </trkpt>
      <trkpt lat="43.343857" lon="-1.7593002">
        <time>2022-07-02T12:24:05Z</time>
      </trkpt>
      <trkpt lat="43.343853" lon="-1.7592313">
        <time>2022-07-02T12:24:06Z</time>
      </trkpt>
      <trkpt lat="43.343845" lon="-1.7590957">
        <time>2022-07-02T12:24:08Z</time>
      </trkpt>
      <trkpt lat="43.34383" lon="-1.7589669">
        <time>2022-07-02T12:24:10Z</time>
      </trkpt>
      <trkpt lat="43.34381" lon="-1.7588344">
        <time>2022-07-02T12:24:12Z</time>
      </trkpt>
      <trkpt lat="43.3438" lon="-1.758769">
        <time>2022-07-02T12:24:13Z</time>
      </trkpt>
      <trkpt lat="43.343773" lon="-1.7586399">
        <time>2022-07-02T12:24:15Z</time>
      </trkpt>
      <trkpt lat="43.343746" lon="-1.758511">
        <time>2022-07-02T12:24:17Z</time>
      </trkpt>
      <trkpt lat="43.343716" lon="-1.7583853">
        <time>2022-07-02T12:24:19Z</time>
      </trkpt>
      <trkpt lat="43.343685" lon="-1.7582606">
        <time>2022-07-02T12:24:21Z</time>
      </trkpt>
      <trkpt lat="43.34366" lon="-1.7581383">
        <time>2022-07-02T12:24:23Z</time>
      </trkpt>
      <trkpt lat="43.343605" lon="-1.7579566">
        <time>2022-07-02T12:24:26Z</time>
      </trkpt>
      <trkpt lat="43.343582" lon="-1.757895">
        <time>2022-07-02T12:24:27Z</time>
      </trkpt>
      <trkpt lat="43.343536" lon="-1.7577636">
        <time>2022-07-02T12:24:29Z</time>
      </trkpt>
      <trkpt lat="43.343513" lon="-1.7577037">
        <time>2022-07-02T12:24:30Z</time>
      </trkpt>
      <trkpt lat="43.343487" lon="-1.757644">
        <time>2022-07-02T12:24:31Z</time>
      </trkpt>
      <trkpt lat="43.343437" lon="-1.7575231">
        <time>2022-07-02T12:24:33Z</time>
      </trkpt>
      <trkpt lat="43.343395" lon="-1.757415">
        <time>2022-07-02T12:24:35Z</time>
      </trkpt>
      <trkpt lat="43.34335" lon="-1.7573097">
        <time>2022-07-02T12:24:37Z</time>
      </trkpt>
      <trkpt lat="43.343307" lon="-1.7571937">
        <time>2022-07-02T12:24:39Z</time>
      </trkpt>
      <trkpt lat="43.34328" lon="-1.7571313">
        <time>2022-07-02T12:24:40Z</time>
      </trkpt>
      <trkpt lat="43.343258" lon="-1.7570723">
        <time>2022-07-02T12:24:41Z</time>
      </trkpt>
      <trkpt lat="43.343204" lon="-1.7569407">
        <time>2022-07-02T12:24:43Z</time>
      </trkpt>
      <trkpt lat="43.343174" lon="-1.756875">
        <time>2022-07-02T12:24:44Z</time>
      </trkpt>
      <trkpt lat="43.34314" lon="-1.7568094">
        <time>2022-07-02T12:24:45Z</time>
      </trkpt>
      <trkpt lat="43.34311" lon="-1.7567501">
        <time>2022-07-02T12:24:46Z</time>
      </trkpt>
      <trkpt lat="43.34308" lon="-1.75669">
        <time>2022-07-02T12:24:47Z</time>
      </trkpt>
      <trkpt lat="43.343044" lon="-1.7566301">
        <time>2022-07-02T12:24:48Z</time>
      </trkpt>
      <trkpt lat="43.34301" lon="-1.7565657">
        <time>2022-07-02T12:24:49Z</time>
      </trkpt>
      <trkpt lat="43.34297" lon="-1.7565031">
        <time>2022-07-02T12:24:50Z</time>
      </trkpt>
      <trkpt lat="43.342934" lon="-1.7564411">
        <time>2022-07-02T12:24:51Z</time>
      </trkpt>
      <trkpt lat="43.3429" lon="-1.756379">
        <time>2022-07-02T12:24:52Z</time>
      </trkpt>
      <trkpt lat="43.34287" lon="-1.7563194">
        <time>2022-07-02T12:24:53Z</time>
      </trkpt>
      <trkpt lat="43.342834" lon="-1.7562541">
        <time>2022-07-02T12:24:54Z</time>
      </trkpt>
      <trkpt lat="43.342796" lon="-1.7561904">
        <time>2022-07-02T12:24:55Z</time>
      </trkpt>
      <trkpt lat="43.342762" lon="-1.7561288">
        <time>2022-07-02T12:24:56Z</time>
      </trkpt>
      <trkpt lat="43.342728" lon="-1.7560718">
        <time>2022-07-02T12:24:57Z</time>
      </trkpt>
      <trkpt lat="43.34269" lon="-1.7560124">
        <time>2022-07-02T12:24:58Z</time>
      </trkpt>
      <trkpt lat="43.342655" lon="-1.7559525">
        <time>2022-07-02T12:24:59Z</time>
      </trkpt>
      <trkpt lat="43.34262" lon="-1.7558944">
        <time>2022-07-02T12:25:00Z</time>
      </trkpt>
      <trkpt lat="43.342587" lon="-1.7558374">
        <time>2022-07-02T12:25:01Z</time>
      </trkpt>
      <trkpt lat="43.342556" lon="-1.755784">
        <time>2022-07-02T12:25:02Z</time>
      </trkpt>
      <trkpt lat="43.342487" lon="-1.7556791">
        <time>2022-07-02T12:25:04Z</time>
      </trkpt>
      <trkpt lat="43.342453" lon="-1.7556227">
        <time>2022-07-02T12:25:05Z</time>
      </trkpt>
      <trkpt lat="43.342415" lon="-1.7555658">
        <time>2022-07-02T12:25:06Z</time>
      </trkpt>
      <trkpt lat="43.342377" lon="-1.7555081">
        <time>2022-07-02T12:25:07Z</time>
      </trkpt>
      <trkpt lat="43.34234" lon="-1.7554548">
        <time>2022-07-02T12:25:08Z</time>
      </trkpt>
      <trkpt lat="43.3423" lon="-1.7554008">
        <time>2022-07-02T12:25:09Z</time>
      </trkpt>
      <trkpt lat="43.342266" lon="-1.7553477">
        <time>2022-07-02T12:25:10Z</time>
      </trkpt>
      <trkpt lat="43.34223" lon="-1.7552937">
        <time>2022-07-02T12:25:11Z</time>
      </trkpt>
      <trkpt lat="43.342197" lon="-1.7552408">
        <time>2022-07-02T12:25:12Z</time>
      </trkpt>
      <trkpt lat="43.342163" lon="-1.7551891">
        <time>2022-07-02T12:25:13Z</time>
      </trkpt>
      <trkpt lat="43.34213" lon="-1.7551388">
        <time>2022-07-02T12:25:14Z</time>
      </trkpt>
      <trkpt lat="43.342068" lon="-1.7550378">
        <time>2022-07-02T12:25:16Z</time>
      </trkpt>
      <trkpt lat="43.342037" lon="-1.7549855">
        <time>2022-07-02T12:25:17Z</time>
      </trkpt>
      <trkpt lat="43.341976" lon="-1.7548858">
        <time>2022-07-02T12:25:19Z</time>
      </trkpt>
      <trkpt lat="43.34194" lon="-1.7548368">
        <time>2022-07-02T12:25:20Z</time>
      </trkpt>
      <trkpt lat="43.341877" lon="-1.7547358">
        <time>2022-07-02T12:25:22Z</time>
      </trkpt>
      <trkpt lat="43.341816" lon="-1.7546258">
        <time>2022-07-02T12:25:24Z</time>
      </trkpt>
      <trkpt lat="43.34175" lon="-1.7545102">
        <time>2022-07-02T12:25:26Z</time>
      </trkpt>
      <trkpt lat="43.341698" lon="-1.7544451">
        <time>2022-07-02T12:25:28Z</time>
      </trkpt>
      <trkpt lat="43.341656" lon="-1.7543879">
        <time>2022-07-02T12:25:29Z</time>
      </trkpt>
      <trkpt lat="43.341614" lon="-1.7543368">
        <time>2022-07-02T12:25:30Z</time>
      </trkpt>
      <trkpt lat="43.341576" lon="-1.7542845">
        <time>2022-07-02T12:25:31Z</time>
      </trkpt>
      <trkpt lat="43.341537" lon="-1.7542372">
        <time>2022-07-02T12:25:32Z</time>
      </trkpt>
      <trkpt lat="43.34147" lon="-1.7541448">
        <time>2022-07-02T12:25:34Z</time>
      </trkpt>
      <trkpt lat="43.341396" lon="-1.7540578">
        <time>2022-07-02T12:25:36Z</time>
      </trkpt>
      <trkpt lat="43.341362" lon="-1.7540154">
        <time>2022-07-02T12:25:37Z</time>
      </trkpt>
      <trkpt lat="43.341293" lon="-1.7539318">
        <time>2022-07-02T12:25:39Z</time>
      </trkpt>
      <trkpt lat="43.341217" lon="-1.7538542">
        <time>2022-07-02T12:25:41Z</time>
      </trkpt>
      <trkpt lat="43.341175" lon="-1.7538159">
        <time>2022-07-02T12:25:42Z</time>
      </trkpt>
      <trkpt lat="43.341087" lon="-1.7537408">
        <time>2022-07-02T12:25:44Z</time>
      </trkpt>
      <trkpt lat="43.34104" lon="-1.7537045">
        <time>2022-07-02T12:25:45Z</time>
      </trkpt>
      <trkpt lat="43.341" lon="-1.7536675">
        <time>2022-07-02T12:25:46Z</time>
      </trkpt>
      <trkpt lat="43.340908" lon="-1.7536021">
        <time>2022-07-02T12:25:48Z</time>
      </trkpt>
      <trkpt lat="43.340862" lon="-1.7535698">
        <time>2022-07-02T12:25:49Z</time>
      </trkpt>
      <trkpt lat="43.34078" lon="-1.7535082">
        <time>2022-07-02T12:25:51Z</time>
      </trkpt>
      <trkpt lat="43.340702" lon="-1.7534466">
        <time>2022-07-02T12:25:53Z</time>
      </trkpt>
      <trkpt lat="43.340622" lon="-1.7533998">
        <time>2022-07-02T12:25:55Z</time>
      </trkpt>
      <trkpt lat="43.34053" lon="-1.7533585">
        <time>2022-07-02T12:25:57Z</time>
      </trkpt>
      <trkpt lat="43.340435" lon="-1.7533128">
        <time>2022-07-02T12:25:59Z</time>
      </trkpt>
      <trkpt lat="43.340343" lon="-1.7532752">
        <time>2022-07-02T12:26:01Z</time>
      </trkpt>
      <trkpt lat="43.340252" lon="-1.7532395">
        <time>2022-07-02T12:26:03Z</time>
      </trkpt>
      <trkpt lat="43.340206" lon="-1.7532235">
        <time>2022-07-02T12:26:04Z</time>
      </trkpt>
      <trkpt lat="43.340126" lon="-1.7531952">
        <time>2022-07-02T12:26:06Z</time>
      </trkpt>
      <trkpt lat="43.340046" lon="-1.7531606">
        <time>2022-07-02T12:26:08Z</time>
      </trkpt>
      <trkpt lat="43.33996" lon="-1.7531226">
        <time>2022-07-02T12:26:10Z</time>
      </trkpt>
      <trkpt lat="43.33985" lon="-1.7531005">
        <time>2022-07-02T12:26:14Z</time>
      </trkpt>
      <trkpt lat="43.339794" lon="-1.7530873">
        <time>2022-07-02T12:26:15Z</time>
      </trkpt>
      <trkpt lat="43.33974" lon="-1.7530743">
        <time>2022-07-02T12:26:16Z</time>
      </trkpt>
      <trkpt lat="43.339684" lon="-1.7530619">
        <time>2022-07-02T12:26:17Z</time>
      </trkpt>
      <trkpt lat="43.339622" lon="-1.7530532">
        <time>2022-07-02T12:26:18Z</time>
      </trkpt>
      <trkpt lat="43.339565" lon="-1.7530472">
        <time>2022-07-02T12:26:19Z</time>
      </trkpt>
      <trkpt lat="43.339462" lon="-1.7530366">
        <time>2022-07-02T12:26:21Z</time>
      </trkpt>
      <trkpt lat="43.339417" lon="-1.7530262">
        <time>2022-07-02T12:26:22Z</time>
      </trkpt>
      <trkpt lat="43.339314" lon="-1.7529973">
        <time>2022-07-02T12:26:24Z</time>
      </trkpt>
      <trkpt lat="43.33926" lon="-1.7529796">
        <time>2022-07-02T12:26:25Z</time>
      </trkpt>
      <trkpt lat="43.339214" lon="-1.7529626">
        <time>2022-07-02T12:26:26Z</time>
      </trkpt>
      <trkpt lat="43.33911" lon="-1.752921">
        <time>2022-07-02T12:26:28Z</time>
      </trkpt>
      <trkpt lat="43.33905" lon="-1.7528946">
        <time>2022-07-02T12:26:29Z</time>
      </trkpt>
      <trkpt lat="43.338993" lon="-1.7528722">
        <time>2022-07-02T12:26:30Z</time>
      </trkpt>
      <trkpt lat="43.338932" lon="-1.7528563">
        <time>2022-07-02T12:26:31Z</time>
      </trkpt>
      <trkpt lat="43.338875" lon="-1.7528453">
        <time>2022-07-02T12:26:32Z</time>
      </trkpt>
      <trkpt lat="43.338818" lon="-1.7528386">
        <time>2022-07-02T12:26:33Z</time>
      </trkpt>
      <trkpt lat="43.338757" lon="-1.7528366">
        <time>2022-07-02T12:26:34Z</time>
      </trkpt>
      <trkpt lat="43.338696" lon="-1.7528346">
        <time>2022-07-02T12:26:35Z</time>
      </trkpt>
      <trkpt lat="43.338642" lon="-1.752831">
        <time>2022-07-02T12:26:36Z</time>
      </trkpt>
      <trkpt lat="43.338585" lon="-1.7528236">
        <time>2022-07-02T12:26:37Z</time>
      </trkpt>
      <trkpt lat="43.338524" lon="-1.7528123">
        <time>2022-07-02T12:26:38Z</time>
      </trkpt>
      <trkpt lat="43.338467" lon="-1.7527959">
        <time>2022-07-02T12:26:39Z</time>
      </trkpt>
      <trkpt lat="43.33841" lon="-1.7527792">
        <time>2022-07-02T12:26:40Z</time>
      </trkpt>
      <trkpt lat="43.338356" lon="-1.7527657">
        <time>2022-07-02T12:26:41Z</time>
      </trkpt>
      <trkpt lat="43.338303" lon="-1.7527533">
        <time>2022-07-02T12:26:42Z</time>
      </trkpt>
      <trkpt lat="43.338245" lon="-1.7527426">
        <time>2022-07-02T12:26:43Z</time>
      </trkpt>
      <trkpt lat="43.338192" lon="-1.7527333">
        <time>2022-07-02T12:26:44Z</time>
      </trkpt>
      <trkpt lat="43.33814" lon="-1.7527239">
        <time>2022-07-02T12:26:45Z</time>
      </trkpt>
      <trkpt lat="43.338036" lon="-1.7527066">
        <time>2022-07-02T12:26:47Z</time>
      </trkpt>
      <trkpt lat="43.33798" lon="-1.7526927">
        <time>2022-07-02T12:26:48Z</time>
      </trkpt>
      <trkpt lat="43.337925" lon="-1.752677">
        <time>2022-07-02T12:26:49Z</time>
      </trkpt>
      <trkpt lat="43.33787" lon="-1.7526613">
        <time>2022-07-02T12:26:50Z</time>
      </trkpt>
      <trkpt lat="43.337822" lon="-1.7526467">
        <time>2022-07-02T12:26:51Z</time>
      </trkpt>
      <trkpt lat="43.337723" lon="-1.7526153">
        <time>2022-07-02T12:26:53Z</time>
      </trkpt>
      <trkpt lat="43.337673" lon="-1.7525984">
        <time>2022-07-02T12:26:54Z</time>
      </trkpt>
      <trkpt lat="43.337578" lon="-1.752562">
        <time>2022-07-02T12:26:56Z</time>
      </trkpt>
      <trkpt lat="43.337475" lon="-1.75252">
        <time>2022-07-02T12:26:58Z</time>
      </trkpt>
      <trkpt lat="43.337425" lon="-1.752493">
        <time>2022-07-02T12:26:59Z</time>
      </trkpt>
      <trkpt lat="43.33737" lon="-1.7524647">
        <time>2022-07-02T12:27:00Z</time>
      </trkpt>
      <trkpt lat="43.337326" lon="-1.752441">
        <time>2022-07-02T12:27:01Z</time>
      </trkpt>
      <trkpt lat="43.33728" lon="-1.7524207">
        <time>2022-07-02T12:27:02Z</time>
      </trkpt>
      <trkpt lat="43.33718" lon="-1.752382">
        <time>2022-07-02T12:27:04Z</time>
      </trkpt>
      <trkpt lat="43.337128" lon="-1.752364">
        <time>2022-07-02T12:27:05Z</time>
      </trkpt>
      <trkpt lat="43.337074" lon="-1.7523444">
        <time>2022-07-02T12:27:06Z</time>
      </trkpt>
      <trkpt lat="43.337025" lon="-1.7523267">
        <time>2022-07-02T12:27:07Z</time>
      </trkpt>
      <trkpt lat="43.33697" lon="-1.7523067">
        <time>2022-07-02T12:27:08Z</time>
      </trkpt>
      <trkpt lat="43.33692" lon="-1.7522827">
        <time>2022-07-02T12:27:09Z</time>
      </trkpt>
      <trkpt lat="43.33688" lon="-1.7522597">
        <time>2022-07-02T12:27:10Z</time>
      </trkpt>
      <trkpt lat="43.3368" lon="-1.7522224">
        <time>2022-07-02T12:27:12Z</time>
      </trkpt>
      <trkpt lat="43.336723" lon="-1.752189">
        <time>2022-07-02T12:27:14Z</time>
      </trkpt>
      <trkpt lat="43.336643" lon="-1.7521601">
        <time>2022-07-02T12:27:16Z</time>
      </trkpt>
      <trkpt lat="43.33656" lon="-1.7521354">
        <time>2022-07-02T12:27:18Z</time>
      </trkpt>
      <trkpt lat="43.336475" lon="-1.7521224">
        <time>2022-07-02T12:27:20Z</time>
      </trkpt>
      <trkpt lat="43.336388" lon="-1.7521191">
        <time>2022-07-02T12:27:22Z</time>
      </trkpt>
      <trkpt lat="43.336292" lon="-1.7521254">
        <time>2022-07-02T12:27:24Z</time>
      </trkpt>
      <trkpt lat="43.336212" lon="-1.7521363">
        <time>2022-07-02T12:27:26Z</time>
      </trkpt>
      <trkpt lat="43.336147" lon="-1.7521514">
        <time>2022-07-02T12:27:28Z</time>
      </trkpt>
      <trkpt lat="43.336094" lon="-1.7521764">
        <time>2022-07-02T12:27:30Z</time>
      </trkpt>
      <trkpt lat="43.33605" lon="-1.752199">
        <time>2022-07-02T12:27:32Z</time>
      </trkpt>
      <trkpt lat="43.335983" lon="-1.7522284">
        <time>2022-07-02T12:27:35Z</time>
      </trkpt>
      <trkpt lat="43.335926" lon="-1.7522507">
        <time>2022-07-02T12:27:38Z</time>
      </trkpt>
      <trkpt lat="43.33588" lon="-1.7522854">
        <time>2022-07-02T12:27:41Z</time>
      </trkpt>
      <trkpt lat="43.335823" lon="-1.7523354">
        <time>2022-07-02T12:27:44Z</time>
      </trkpt>
      <trkpt lat="43.335773" lon="-1.7523928">
        <time>2022-07-02T12:27:47Z</time>
      </trkpt>
      <trkpt lat="43.33574" lon="-1.7524494">
        <time>2022-07-02T12:27:50Z</time>
      </trkpt>
      <trkpt lat="43.33571" lon="-1.7525117">
        <time>2022-07-02T12:27:53Z</time>
      </trkpt>
      <trkpt lat="43.335674" lon="-1.752578">
        <time>2022-07-02T12:27:56Z</time>
      </trkpt>
      <trkpt lat="43.33564" lon="-1.7526457">
        <time>2022-07-02T12:27:59Z</time>
      </trkpt>
      <trkpt lat="43.335606" lon="-1.7527124">
        <time>2022-07-02T12:28:02Z</time>
      </trkpt>
      <trkpt lat="43.335567" lon="-1.7527766">
        <time>2022-07-02T12:28:05Z</time>
      </trkpt>
      <trkpt lat="43.33552" lon="-1.7528456">
        <time>2022-07-02T12:28:08Z</time>
      </trkpt>
      <trkpt lat="43.33547" lon="-1.7529284">
        <time>2022-07-02T12:28:11Z</time>
      </trkpt>
      <trkpt lat="43.335426" lon="-1.752996">
        <time>2022-07-02T12:28:13Z</time>
      </trkpt>
      <trkpt lat="43.335373" lon="-1.7530657">
        <time>2022-07-02T12:28:15Z</time>
      </trkpt>
      <trkpt lat="43.335316" lon="-1.7531286">
        <time>2022-07-02T12:28:17Z</time>
      </trkpt>
      <trkpt lat="43.335255" lon="-1.753185">
        <time>2022-07-02T12:28:19Z</time>
      </trkpt>
      <trkpt lat="43.335194" lon="-1.7532337">
        <time>2022-07-02T12:28:21Z</time>
      </trkpt>
      <trkpt lat="43.33513" lon="-1.7532763">
        <time>2022-07-02T12:28:23Z</time>
      </trkpt>
      <trkpt lat="43.33506" lon="-1.7533073">
        <time>2022-07-02T12:28:25Z</time>
      </trkpt>
      <trkpt lat="43.33499" lon="-1.7533289">
        <time>2022-07-02T12:28:27Z</time>
      </trkpt>
      <trkpt lat="43.33492" lon="-1.7533476">
        <time>2022-07-02T12:28:29Z</time>
      </trkpt>
      <trkpt lat="43.334846" lon="-1.7533636">
        <time>2022-07-02T12:28:31Z</time>
      </trkpt>
      <trkpt lat="43.334774" lon="-1.7533753">
        <time>2022-07-02T12:28:33Z</time>
      </trkpt>
      <trkpt lat="43.3347" lon="-1.7533826">
        <time>2022-07-02T12:28:35Z</time>
      </trkpt>
      <trkpt lat="43.33463" lon="-1.753387">
        <time>2022-07-02T12:28:37Z</time>
      </trkpt>
      <trkpt lat="43.334553" lon="-1.7533879">
        <time>2022-07-02T12:28:39Z</time>
      </trkpt>
      <trkpt lat="43.334476" lon="-1.753385">
        <time>2022-07-02T12:28:41Z</time>
      </trkpt>
      <trkpt lat="43.33439" lon="-1.7533773">
        <time>2022-07-02T12:28:43Z</time>
      </trkpt>
      <trkpt lat="43.334305" lon="-1.7533662">
        <time>2022-07-02T12:28:45Z</time>
      </trkpt>
      <trkpt lat="43.334213" lon="-1.7533519">
        <time>2022-07-02T12:28:47Z</time>
      </trkpt>
      <trkpt lat="43.334118" lon="-1.7533376">
        <time>2022-07-02T12:28:49Z</time>
      </trkpt>
      <trkpt lat="43.33407" lon="-1.7533303">
        <time>2022-07-02T12:28:50Z</time>
      </trkpt>
      <trkpt lat="43.33397" lon="-1.7533146">
        <time>2022-07-02T12:28:52Z</time>
      </trkpt>
      <trkpt lat="43.333866" lon="-1.7532893">
        <time>2022-07-02T12:28:54Z</time>
      </trkpt>
      <trkpt lat="43.333813" lon="-1.7532756">
        <time>2022-07-02T12:28:55Z</time>
      </trkpt>
      <trkpt lat="43.333755" lon="-1.753259">
        <time>2022-07-02T12:28:56Z</time>
      </trkpt>
      <trkpt lat="43.3337" lon="-1.753241">
        <time>2022-07-02T12:28:57Z</time>
      </trkpt>
      <trkpt lat="43.33364" lon="-1.75322">
        <time>2022-07-02T12:28:58Z</time>
      </trkpt>
      <trkpt lat="43.333576" lon="-1.753194">
        <time>2022-07-02T12:28:59Z</time>
      </trkpt>
      <trkpt lat="43.333515" lon="-1.7531633">
        <time>2022-07-02T12:29:00Z</time>
      </trkpt>
      <trkpt lat="43.333454" lon="-1.753127">
        <time>2022-07-02T12:29:01Z</time>
      </trkpt>
      <trkpt lat="43.333393" lon="-1.7530893">
        <time>2022-07-02T12:29:02Z</time>
      </trkpt>
      <trkpt lat="43.333332" lon="-1.7530513">
        <time>2022-07-02T12:29:03Z</time>
      </trkpt>
      <trkpt lat="43.33327" lon="-1.7530134">
        <time>2022-07-02T12:29:04Z</time>
      </trkpt>
      <trkpt lat="43.333214" lon="-1.7529746">
        <time>2022-07-02T12:29:05Z</time>
      </trkpt>
      <trkpt lat="43.333153" lon="-1.7529364">
        <time>2022-07-02T12:29:06Z</time>
      </trkpt>
      <trkpt lat="43.333096" lon="-1.7528977">
        <time>2022-07-02T12:29:07Z</time>
      </trkpt>
      <trkpt lat="43.33304" lon="-1.7528603">
        <time>2022-07-02T12:29:08Z</time>
      </trkpt>
      <trkpt lat="43.33298" lon="-1.7528243">
        <time>2022-07-02T12:29:09Z</time>
      </trkpt>
      <trkpt lat="43.332928" lon="-1.752787">
        <time>2022-07-02T12:29:10Z</time>
      </trkpt>
      <trkpt lat="43.33288" lon="-1.7527477">
        <time>2022-07-02T12:29:11Z</time>
      </trkpt>
      <trkpt lat="43.33283" lon="-1.7527044">
        <time>2022-07-02T12:29:12Z</time>
      </trkpt>
      <trkpt lat="43.332783" lon="-1.7526557">
        <time>2022-07-02T12:29:13Z</time>
      </trkpt>
      <trkpt lat="43.332737" lon="-1.752601">
        <time>2022-07-02T12:29:14Z</time>
      </trkpt>
      <trkpt lat="43.332687" lon="-1.7525427">
        <time>2022-07-02T12:29:15Z</time>
      </trkpt>
      <trkpt lat="43.33264" lon="-1.7524824">
        <time>2022-07-02T12:29:16Z</time>
      </trkpt>
      <trkpt lat="43.332596" lon="-1.7524214">
        <time>2022-07-02T12:29:17Z</time>
      </trkpt>
      <trkpt lat="43.332546" lon="-1.7523587">
        <time>2022-07-02T12:29:18Z</time>
      </trkpt>
      <trkpt lat="43.3325" lon="-1.7522964">
        <time>2022-07-02T12:29:19Z</time>
      </trkpt>
      <trkpt lat="43.332455" lon="-1.7522345">
        <time>2022-07-02T12:29:20Z</time>
      </trkpt>
      <trkpt lat="43.33241" lon="-1.7521721">
        <time>2022-07-02T12:29:21Z</time>
      </trkpt>
      <trkpt lat="43.33236" lon="-1.7521087">
        <time>2022-07-02T12:29:22Z</time>
      </trkpt>
      <trkpt lat="43.332314" lon="-1.7520448">
        <time>2022-07-02T12:29:23Z</time>
      </trkpt>
      <trkpt lat="43.332268" lon="-1.7519801">
        <time>2022-07-02T12:29:24Z</time>
      </trkpt>
      <trkpt lat="43.332222" lon="-1.751914">
        <time>2022-07-02T12:29:25Z</time>
      </trkpt>
      <trkpt lat="43.332172" lon="-1.751849">
        <time>2022-07-02T12:29:26Z</time>
      </trkpt>
      <trkpt lat="43.332123" lon="-1.7517834">
        <time>2022-07-02T12:29:27Z</time>
      </trkpt>
      <trkpt lat="43.332073" lon="-1.7517184">
        <time>2022-07-02T12:29:28Z</time>
      </trkpt>
      <trkpt lat="43.33198" lon="-1.751587">
        <time>2022-07-02T12:29:30Z</time>
      </trkpt>
      <trkpt lat="43.331936" lon="-1.7515194">
        <time>2022-07-02T12:29:31Z</time>
      </trkpt>
      <trkpt lat="43.331894" lon="-1.7514524">
        <time>2022-07-02T12:29:32Z</time>
      </trkpt>
      <trkpt lat="43.33185" lon="-1.7513864">
        <time>2022-07-02T12:29:33Z</time>
      </trkpt>
      <trkpt lat="43.33181" lon="-1.7513255">
        <time>2022-07-02T12:29:34Z</time>
      </trkpt>
      <trkpt lat="43.33177" lon="-1.7512637">
        <time>2022-07-02T12:29:35Z</time>
      </trkpt>
      <trkpt lat="43.331734" lon="-1.7512012">
        <time>2022-07-02T12:29:36Z</time>
      </trkpt>
      <trkpt lat="43.3317" lon="-1.7511381">
        <time>2022-07-02T12:29:37Z</time>
      </trkpt>
      <trkpt lat="43.33166" lon="-1.7510761">
        <time>2022-07-02T12:29:38Z</time>
      </trkpt>
      <trkpt lat="43.331627" lon="-1.7510141">
        <time>2022-07-02T12:29:39Z</time>
      </trkpt>
      <trkpt lat="43.331593" lon="-1.7509534">
        <time>2022-07-02T12:29:40Z</time>
      </trkpt>
      <trkpt lat="43.331562" lon="-1.7508928">
        <time>2022-07-02T12:29:41Z</time>
      </trkpt>
      <trkpt lat="43.331528" lon="-1.7508324">
        <time>2022-07-02T12:29:42Z</time>
      </trkpt>
      <trkpt lat="43.331497" lon="-1.7507718">
        <time>2022-07-02T12:29:43Z</time>
      </trkpt>
      <trkpt lat="43.331463" lon="-1.7507085">
        <time>2022-07-02T12:29:44Z</time>
      </trkpt>
      <trkpt lat="43.331432" lon="-1.7506465">
        <time>2022-07-02T12:29:45Z</time>
      </trkpt>
      <trkpt lat="43.3314" lon="-1.7505854">
        <time>2022-07-02T12:29:46Z</time>
      </trkpt>
      <trkpt lat="43.331375" lon="-1.7505245">
        <time>2022-07-02T12:29:47Z</time>
      </trkpt>
      <trkpt lat="43.33132" lon="-1.7504008">
        <time>2022-07-02T12:29:49Z</time>
      </trkpt>
      <trkpt lat="43.331295" lon="-1.7503378">
        <time>2022-07-02T12:29:50Z</time>
      </trkpt>
      <trkpt lat="43.331272" lon="-1.7502748">
        <time>2022-07-02T12:29:51Z</time>
      </trkpt>
      <trkpt lat="43.33125" lon="-1.7502118">
        <time>2022-07-02T12:29:52Z</time>
      </trkpt>
      <trkpt lat="43.3312" lon="-1.7500858">
        <time>2022-07-02T12:29:54Z</time>
      </trkpt>
      <trkpt lat="43.331177" lon="-1.7500228">
        <time>2022-07-02T12:29:55Z</time>
      </trkpt>
      <trkpt lat="43.33115" lon="-1.7499608">
        <time>2022-07-02T12:29:56Z</time>
      </trkpt>
      <trkpt lat="43.331104" lon="-1.7498401">
        <time>2022-07-02T12:29:58Z</time>
      </trkpt>
      <trkpt lat="43.33108" lon="-1.7497828">
        <time>2022-07-02T12:29:59Z</time>
      </trkpt>
      <trkpt lat="43.33104" lon="-1.7496778">
        <time>2022-07-02T12:30:01Z</time>
      </trkpt>
      <trkpt lat="43.330997" lon="-1.7495788">
        <time>2022-07-02T12:30:03Z</time>
      </trkpt>
      <trkpt lat="43.330956" lon="-1.7494872">
        <time>2022-07-02T12:30:05Z</time>
      </trkpt>
      <trkpt lat="43.33091" lon="-1.7493929">
        <time>2022-07-02T12:30:07Z</time>
      </trkpt>
      <trkpt lat="43.33086" lon="-1.7492858">
        <time>2022-07-02T12:30:09Z</time>
      </trkpt>
      <trkpt lat="43.330822" lon="-1.7491761">
        <time>2022-07-02T12:30:11Z</time>
      </trkpt>
      <trkpt lat="43.330788" lon="-1.7490555">
        <time>2022-07-02T12:30:13Z</time>
      </trkpt>
      <trkpt lat="43.330753" lon="-1.7489208">
        <time>2022-07-02T12:30:15Z</time>
      </trkpt>
      <trkpt lat="43.330738" lon="-1.7488552">
        <time>2022-07-02T12:30:16Z</time>
      </trkpt>
      <trkpt lat="43.33072" lon="-1.7487882">
        <time>2022-07-02T12:30:17Z</time>
      </trkpt>
      <trkpt lat="43.33069" lon="-1.7486428">
        <time>2022-07-02T12:30:19Z</time>
      </trkpt>
      <trkpt lat="43.330673" lon="-1.7485698">
        <time>2022-07-02T12:30:20Z</time>
      </trkpt>
      <trkpt lat="43.330658" lon="-1.7484992">
        <time>2022-07-02T12:30:21Z</time>
      </trkpt>
      <trkpt lat="43.330643" lon="-1.7484342">
        <time>2022-07-02T12:30:22Z</time>
      </trkpt>
      <trkpt lat="43.33062" lon="-1.7483011">
        <time>2022-07-02T12:30:24Z</time>
      </trkpt>
      <trkpt lat="43.330597" lon="-1.7481812">
        <time>2022-07-02T12:30:26Z</time>
      </trkpt>
      <trkpt lat="43.33058" lon="-1.7480649">
        <time>2022-07-02T12:30:28Z</time>
      </trkpt>
      <trkpt lat="43.330574" lon="-1.7479413">
        <time>2022-07-02T12:30:30Z</time>
      </trkpt>
      <trkpt lat="43.330566" lon="-1.7477732">
        <time>2022-07-02T12:30:33Z</time>
      </trkpt>
      <trkpt lat="43.33056" lon="-1.7476629">
        <time>2022-07-02T12:30:35Z</time>
      </trkpt>
      <trkpt lat="43.33055" lon="-1.7475519">
        <time>2022-07-02T12:30:37Z</time>
      </trkpt>
      <trkpt lat="43.330555" lon="-1.7474376">
        <time>2022-07-02T12:30:39Z</time>
      </trkpt>
      <trkpt lat="43.330574" lon="-1.7473296">
        <time>2022-07-02T12:30:41Z</time>
      </trkpt>
      <trkpt lat="43.33062" lon="-1.7472372">
        <time>2022-07-02T12:30:43Z</time>
      </trkpt>
      <trkpt lat="43.33067" lon="-1.7471489">
        <time>2022-07-02T12:30:45Z</time>
      </trkpt>
      <trkpt lat="43.330708" lon="-1.7470546">
        <time>2022-07-02T12:30:47Z</time>
      </trkpt>
      <trkpt lat="43.33073" lon="-1.746949">
        <time>2022-07-02T12:30:49Z</time>
      </trkpt>
      <trkpt lat="43.330734" lon="-1.7468336">
        <time>2022-07-02T12:30:51Z</time>
      </trkpt>
      <trkpt lat="43.330715" lon="-1.746715">
        <time>2022-07-02T12:30:53Z</time>
      </trkpt>
      <trkpt lat="43.330673" lon="-1.7465925">
        <time>2022-07-02T12:30:55Z</time>
      </trkpt>
      <trkpt lat="43.330654" lon="-1.7465322">
        <time>2022-07-02T12:30:56Z</time>
      </trkpt>
      <trkpt lat="43.33063" lon="-1.7464789">
        <time>2022-07-02T12:30:57Z</time>
      </trkpt>
      <trkpt lat="43.330585" lon="-1.746375">
        <time>2022-07-02T12:30:59Z</time>
      </trkpt>
      <trkpt lat="43.33054" lon="-1.7462766">
        <time>2022-07-02T12:31:01Z</time>
      </trkpt>
      <trkpt lat="43.330505" lon="-1.7461803">
        <time>2022-07-02T12:31:03Z</time>
      </trkpt>
      <trkpt lat="43.33048" lon="-1.7460792">
        <time>2022-07-02T12:31:05Z</time>
      </trkpt>
      <trkpt lat="43.330456" lon="-1.745971">
        <time>2022-07-02T12:31:07Z</time>
      </trkpt>
      <trkpt lat="43.330437" lon="-1.7458543">
        <time>2022-07-02T12:31:09Z</time>
      </trkpt>
      <trkpt lat="43.330414" lon="-1.7457312">
        <time>2022-07-02T12:31:11Z</time>
      </trkpt>
      <trkpt lat="43.33039" lon="-1.7456002">
        <time>2022-07-02T12:31:13Z</time>
      </trkpt>
      <trkpt lat="43.330364" lon="-1.745466">
        <time>2022-07-02T12:31:15Z</time>
      </trkpt>
      <trkpt lat="43.330334" lon="-1.7453253">
        <time>2022-07-02T12:31:17Z</time>
      </trkpt>
      <trkpt lat="43.330322" lon="-1.7452617">
        <time>2022-07-02T12:31:18Z</time>
      </trkpt>
      <trkpt lat="43.33031" lon="-1.7451973">
        <time>2022-07-02T12:31:19Z</time>
      </trkpt>
      <trkpt lat="43.330284" lon="-1.7450683">
        <time>2022-07-02T12:31:21Z</time>
      </trkpt>
      <trkpt lat="43.33027" lon="-1.745003">
        <time>2022-07-02T12:31:22Z</time>
      </trkpt>
      <trkpt lat="43.33024" lon="-1.7448709">
        <time>2022-07-02T12:31:24Z</time>
      </trkpt>
      <trkpt lat="43.330223" lon="-1.7448046">
        <time>2022-07-02T12:31:25Z</time>
      </trkpt>
      <trkpt lat="43.330196" lon="-1.7446743">
        <time>2022-07-02T12:31:27Z</time>
      </trkpt>
      <trkpt lat="43.330173" lon="-1.7445437">
        <time>2022-07-02T12:31:29Z</time>
      </trkpt>
      <trkpt lat="43.33015" lon="-1.744411">
        <time>2022-07-02T12:31:31Z</time>
      </trkpt>
      <trkpt lat="43.330128" lon="-1.7442733">
        <time>2022-07-02T12:31:33Z</time>
      </trkpt>
      <trkpt lat="43.330105" lon="-1.7441443">
        <time>2022-07-02T12:31:35Z</time>
      </trkpt>
      <trkpt lat="43.330082" lon="-1.7440133">
        <time>2022-07-02T12:31:37Z</time>
      </trkpt>
      <trkpt lat="43.330055" lon="-1.7438806">
        <time>2022-07-02T12:31:39Z</time>
      </trkpt>
      <trkpt lat="43.330032" lon="-1.7437527">
        <time>2022-07-02T12:31:41Z</time>
      </trkpt>
      <trkpt lat="43.33" lon="-1.7436267">
        <time>2022-07-02T12:31:43Z</time>
      </trkpt>
      <trkpt lat="43.329975" lon="-1.7435">
        <time>2022-07-02T12:31:45Z</time>
      </trkpt>
      <trkpt lat="43.329964" lon="-1.743437">
        <time>2022-07-02T12:31:46Z</time>
      </trkpt>
      <trkpt lat="43.329937" lon="-1.7433116">
        <time>2022-07-02T12:31:48Z</time>
      </trkpt>
      <trkpt lat="43.329914" lon="-1.7431906">
        <time>2022-07-02T12:31:50Z</time>
      </trkpt>
      <trkpt lat="43.329887" lon="-1.743072">
        <time>2022-07-02T12:31:52Z</time>
      </trkpt>
      <trkpt lat="43.329865" lon="-1.7429553">
        <time>2022-07-02T12:31:54Z</time>
      </trkpt>
      <trkpt lat="43.32984" lon="-1.7428406">
        <time>2022-07-02T12:31:56Z</time>
      </trkpt>
      <trkpt lat="43.32982" lon="-1.7427237">
        <time>2022-07-02T12:31:58Z</time>
      </trkpt>
      <trkpt lat="43.329792" lon="-1.742604">
        <time>2022-07-02T12:32:00Z</time>
      </trkpt>
      <trkpt lat="43.329765" lon="-1.7424817">
        <time>2022-07-02T12:32:02Z</time>
      </trkpt>
      <trkpt lat="43.32974" lon="-1.7423581">
        <time>2022-07-02T12:32:04Z</time>
      </trkpt>
      <trkpt lat="43.329716" lon="-1.742233">
        <time>2022-07-02T12:32:06Z</time>
      </trkpt>
      <trkpt lat="43.329693" lon="-1.742107">
        <time>2022-07-02T12:32:08Z</time>
      </trkpt>
      <trkpt lat="43.32967" lon="-1.741982">
        <time>2022-07-02T12:32:10Z</time>
      </trkpt>
      <trkpt lat="43.32965" lon="-1.741855">
        <time>2022-07-02T12:32:12Z</time>
      </trkpt>
      <trkpt lat="43.32963" lon="-1.7417277">
        <time>2022-07-02T12:32:14Z</time>
      </trkpt>
      <trkpt lat="43.329613" lon="-1.7416">
        <time>2022-07-02T12:32:16Z</time>
      </trkpt>
      <trkpt lat="43.329594" lon="-1.7414744">
        <time>2022-07-02T12:32:18Z</time>
      </trkpt>
      <trkpt lat="43.329575" lon="-1.7413497">
        <time>2022-07-02T12:32:20Z</time>
      </trkpt>
      <trkpt lat="43.329567" lon="-1.7412884">
        <time>2022-07-02T12:32:21Z</time>
      </trkpt>
      <trkpt lat="43.329544" lon="-1.7411671">
        <time>2022-07-02T12:32:23Z</time>
      </trkpt>
      <trkpt lat="43.329525" lon="-1.7410494">
        <time>2022-07-02T12:32:25Z</time>
      </trkpt>
      <trkpt lat="43.329506" lon="-1.7409334">
        <time>2022-07-02T12:32:27Z</time>
      </trkpt>
      <trkpt lat="43.329483" lon="-1.7408245">
        <time>2022-07-02T12:32:29Z</time>
      </trkpt>
      <trkpt lat="43.329456" lon="-1.7407211">
        <time>2022-07-02T12:32:31Z</time>
      </trkpt>
      <trkpt lat="43.329437" lon="-1.740622">
        <time>2022-07-02T12:32:33Z</time>
      </trkpt>
      <trkpt lat="43.329414" lon="-1.7405277">
        <time>2022-07-02T12:32:35Z</time>
      </trkpt>
      <trkpt lat="43.329395" lon="-1.7404394">
        <time>2022-07-02T12:32:37Z</time>
      </trkpt>
      <trkpt lat="43.329376" lon="-1.7403587">
        <time>2022-07-02T12:32:39Z</time>
      </trkpt>
      <trkpt lat="43.329357" lon="-1.7402798">
        <time>2022-07-02T12:32:41Z</time>
      </trkpt>
      <trkpt lat="43.32934" lon="-1.7402048">
        <time>2022-07-02T12:32:43Z</time>
      </trkpt>
      <trkpt lat="43.329327" lon="-1.7401321">
        <time>2022-07-02T12:32:45Z</time>
      </trkpt>
      <trkpt lat="43.329308" lon="-1.7400581">
        <time>2022-07-02T12:32:47Z</time>
      </trkpt>
      <trkpt lat="43.329292" lon="-1.7399838">
        <time>2022-07-02T12:32:49Z</time>
      </trkpt>
      <trkpt lat="43.329273" lon="-1.739909">
        <time>2022-07-02T12:32:51Z</time>
      </trkpt>
      <trkpt lat="43.329247" lon="-1.7398331">
        <time>2022-07-02T12:32:53Z</time>
      </trkpt>
      <trkpt lat="43.329216" lon="-1.7397565">
        <time>2022-07-02T12:32:55Z</time>
      </trkpt>
      <trkpt lat="43.329185" lon="-1.7396781">
        <time>2022-07-02T12:32:57Z</time>
      </trkpt>
      <trkpt lat="43.329155" lon="-1.7395974">
        <time>2022-07-02T12:32:59Z</time>
      </trkpt>
      <trkpt lat="43.32912" lon="-1.7395138">
        <time>2022-07-02T12:33:01Z</time>
      </trkpt>
      <trkpt lat="43.329086" lon="-1.7394282">
        <time>2022-07-02T12:33:03Z</time>
      </trkpt>
      <trkpt lat="43.329052" lon="-1.7393435">
        <time>2022-07-02T12:33:05Z</time>
      </trkpt>
      <trkpt lat="43.329014" lon="-1.7392628">
        <time>2022-07-02T12:33:07Z</time>
      </trkpt>
      <trkpt lat="43.328976" lon="-1.7391849">
        <time>2022-07-02T12:33:09Z</time>
      </trkpt>
      <trkpt lat="43.32894" lon="-1.7391092">
        <time>2022-07-02T12:33:11Z</time>
      </trkpt>
      <trkpt lat="43.3289" lon="-1.7390362">
        <time>2022-07-02T12:33:13Z</time>
      </trkpt>
      <trkpt lat="43.328854" lon="-1.7389709">
        <time>2022-07-02T12:33:15Z</time>
      </trkpt>
      <trkpt lat="43.3288" lon="-1.7389075">
        <time>2022-07-02T12:33:17Z</time>
      </trkpt>
      <trkpt lat="43.328743" lon="-1.7388521">
        <time>2022-07-02T12:33:19Z</time>
      </trkpt>
      <trkpt lat="43.32868" lon="-1.7388018">
        <time>2022-07-02T12:33:21Z</time>
      </trkpt>
      <trkpt lat="43.32861" lon="-1.7387555">
        <time>2022-07-02T12:33:23Z</time>
      </trkpt>
      <trkpt lat="43.328533" lon="-1.7387195">
        <time>2022-07-02T12:33:25Z</time>
      </trkpt>
      <trkpt lat="43.32846" lon="-1.7386905">
        <time>2022-07-02T12:33:27Z</time>
      </trkpt>
      <trkpt lat="43.328384" lon="-1.7386729">
        <time>2022-07-02T12:33:29Z</time>
      </trkpt>
      <trkpt lat="43.3283" lon="-1.7386636">
        <time>2022-07-02T12:33:31Z</time>
      </trkpt>
      <trkpt lat="43.328217" lon="-1.7386625">
        <time>2022-07-02T12:33:33Z</time>
      </trkpt>
      <trkpt lat="43.32813" lon="-1.7386712">
        <time>2022-07-02T12:33:35Z</time>
      </trkpt>
      <trkpt lat="43.328037" lon="-1.7386816">
        <time>2022-07-02T12:33:37Z</time>
      </trkpt>
      <trkpt lat="43.32795" lon="-1.7386929">
        <time>2022-07-02T12:33:39Z</time>
      </trkpt>
      <trkpt lat="43.32786" lon="-1.7387085">
        <time>2022-07-02T12:33:41Z</time>
      </trkpt>
      <trkpt lat="43.32777" lon="-1.7387289">
        <time>2022-07-02T12:33:43Z</time>
      </trkpt>
      <trkpt lat="43.32768" lon="-1.7387532">
        <time>2022-07-02T12:33:45Z</time>
      </trkpt>
      <trkpt lat="43.327637" lon="-1.7387629">
        <time>2022-07-02T12:33:46Z</time>
      </trkpt>
      <trkpt lat="43.327545" lon="-1.7387801">
        <time>2022-07-02T12:33:48Z</time>
      </trkpt>
      <trkpt lat="43.32745" lon="-1.7387974">
        <time>2022-07-02T12:33:50Z</time>
      </trkpt>
      <trkpt lat="43.32736" lon="-1.7388148">
        <time>2022-07-02T12:33:52Z</time>
      </trkpt>
      <trkpt lat="43.327263" lon="-1.7388345">
        <time>2022-07-02T12:33:54Z</time>
      </trkpt>
      <trkpt lat="43.32717" lon="-1.7388555">
        <time>2022-07-02T12:33:56Z</time>
      </trkpt>
      <trkpt lat="43.327034" lon="-1.7388861">
        <time>2022-07-02T12:33:59Z</time>
      </trkpt>
      <trkpt lat="43.326942" lon="-1.7389011">
        <time>2022-07-02T12:34:01Z</time>
      </trkpt>
      <trkpt lat="43.326897" lon="-1.7389075">
        <time>2022-07-02T12:34:02Z</time>
      </trkpt>
      <trkpt lat="43.32681" lon="-1.7389231">
        <time>2022-07-02T12:34:04Z</time>
      </trkpt>
      <trkpt lat="43.32672" lon="-1.7389401">
        <time>2022-07-02T12:34:06Z</time>
      </trkpt>
      <trkpt lat="43.32663" lon="-1.7389605">
        <time>2022-07-02T12:34:08Z</time>
      </trkpt>
      <trkpt lat="43.326534" lon="-1.7389811">
        <time>2022-07-02T12:34:10Z</time>
      </trkpt>
      <trkpt lat="43.326443" lon="-1.7390012">
        <time>2022-07-02T12:34:12Z</time>
      </trkpt>
      <trkpt lat="43.32636" lon="-1.7390168">
        <time>2022-07-02T12:34:14Z</time>
      </trkpt>
      <trkpt lat="43.326267" lon="-1.7390361">
        <time>2022-07-02T12:34:16Z</time>
      </trkpt>
      <trkpt lat="43.32618" lon="-1.7390558">
        <time>2022-07-02T12:34:18Z</time>
      </trkpt>
      <trkpt lat="43.32609" lon="-1.7390771">
        <time>2022-07-02T12:34:20Z</time>
      </trkpt>
      <trkpt lat="43.326004" lon="-1.7391007">
        <time>2022-07-02T12:34:22Z</time>
      </trkpt>
      <trkpt lat="43.325916" lon="-1.739122">
        <time>2022-07-02T12:34:24Z</time>
      </trkpt>
      <trkpt lat="43.325825" lon="-1.7391398">
        <time>2022-07-02T12:34:26Z</time>
      </trkpt>
      <trkpt lat="43.325733" lon="-1.7391597">
        <time>2022-07-02T12:34:28Z</time>
      </trkpt>
      <trkpt lat="43.325638" lon="-1.7391804">
        <time>2022-07-02T12:34:30Z</time>
      </trkpt>
      <trkpt lat="43.32555" lon="-1.7392035">
        <time>2022-07-02T12:34:32Z</time>
      </trkpt>
      <trkpt lat="43.32546" lon="-1.7392321">
        <time>2022-07-02T12:34:34Z</time>
      </trkpt>
      <trkpt lat="43.32537" lon="-1.7392623">
        <time>2022-07-02T12:34:36Z</time>
      </trkpt>
      <trkpt lat="43.325325" lon="-1.7392794">
        <time>2022-07-02T12:34:37Z</time>
      </trkpt>
      <trkpt lat="43.32524" lon="-1.7393178">
        <time>2022-07-02T12:34:39Z</time>
      </trkpt>
      <trkpt lat="43.32516" lon="-1.7393597">
        <time>2022-07-02T12:34:41Z</time>
      </trkpt>
      <trkpt lat="43.32508" lon="-1.739405">
        <time>2022-07-02T12:34:43Z</time>
      </trkpt>
      <trkpt lat="43.325" lon="-1.7394547">
        <time>2022-07-02T12:34:45Z</time>
      </trkpt>
      <trkpt lat="43.32492" lon="-1.739508">
        <time>2022-07-02T12:34:47Z</time>
      </trkpt>
      <trkpt lat="43.324844" lon="-1.7395637">
        <time>2022-07-02T12:34:49Z</time>
      </trkpt>
      <trkpt lat="43.324768" lon="-1.7396177">
        <time>2022-07-02T12:34:51Z</time>
      </trkpt>
      <trkpt lat="43.3247" lon="-1.7396727">
        <time>2022-07-02T12:34:53Z</time>
      </trkpt>
      <trkpt lat="43.324635" lon="-1.7397337">
        <time>2022-07-02T12:34:55Z</time>
      </trkpt>
      <trkpt lat="43.324562" lon="-1.7397987">
        <time>2022-07-02T12:34:57Z</time>
      </trkpt>
      <trkpt lat="43.324493" lon="-1.7398617">
        <time>2022-07-02T12:34:59Z</time>
      </trkpt>
      <trkpt lat="43.32443" lon="-1.7399237">
        <time>2022-07-02T12:35:01Z</time>
      </trkpt>
      <trkpt lat="43.32436" lon="-1.7399848">
        <time>2022-07-02T12:35:03Z</time>
      </trkpt>
      <trkpt lat="43.3243" lon="-1.7400423">
        <time>2022-07-02T12:35:05Z</time>
      </trkpt>
      <trkpt lat="43.324238" lon="-1.740101">
        <time>2022-07-02T12:35:07Z</time>
      </trkpt>
      <trkpt lat="43.324173" lon="-1.7401563">
        <time>2022-07-02T12:35:09Z</time>
      </trkpt>
      <trkpt lat="43.324112" lon="-1.740212">
        <time>2022-07-02T12:35:11Z</time>
      </trkpt>
      <trkpt lat="43.32405" lon="-1.7402676">
        <time>2022-07-02T12:35:13Z</time>
      </trkpt>
      <trkpt lat="43.323986" lon="-1.7403197">
        <time>2022-07-02T12:35:15Z</time>
      </trkpt>
      <trkpt lat="43.323925" lon="-1.74037">
        <time>2022-07-02T12:35:17Z</time>
      </trkpt>
      <trkpt lat="43.32386" lon="-1.7404196">
        <time>2022-07-02T12:35:19Z</time>
      </trkpt>
      <trkpt lat="43.3238" lon="-1.7404683">
        <time>2022-07-02T12:35:21Z</time>
      </trkpt>
      <trkpt lat="43.32373" lon="-1.7405126">
        <time>2022-07-02T12:35:23Z</time>
      </trkpt>
      <trkpt lat="43.32366" lon="-1.7405564">
        <time>2022-07-02T12:35:25Z</time>
      </trkpt>
      <trkpt lat="43.323593" lon="-1.7405974">
        <time>2022-07-02T12:35:27Z</time>
      </trkpt>
      <trkpt lat="43.32352" lon="-1.7406397">
        <time>2022-07-02T12:35:29Z</time>
      </trkpt>
      <trkpt lat="43.323452" lon="-1.7406833">
        <time>2022-07-02T12:35:31Z</time>
      </trkpt>
      <trkpt lat="43.32338" lon="-1.7407283">
        <time>2022-07-02T12:35:33Z</time>
      </trkpt>
      <trkpt lat="43.32331" lon="-1.740773">
        <time>2022-07-02T12:35:35Z</time>
      </trkpt>
      <trkpt lat="43.323242" lon="-1.740816">
        <time>2022-07-02T12:35:37Z</time>
      </trkpt>
      <trkpt lat="43.32317" lon="-1.7408609">
        <time>2022-07-02T12:35:39Z</time>
      </trkpt>
      <trkpt lat="43.3231" lon="-1.740906">
        <time>2022-07-02T12:35:41Z</time>
      </trkpt>
      <trkpt lat="43.322994" lon="-1.7409743">
        <time>2022-07-02T12:35:44Z</time>
      </trkpt>
      <trkpt lat="43.32292" lon="-1.7410223">
        <time>2022-07-02T12:35:46Z</time>
      </trkpt>
      <trkpt lat="43.32285" lon="-1.7410733">
        <time>2022-07-02T12:35:48Z</time>
      </trkpt>
      <trkpt lat="43.322773" lon="-1.7411233">
        <time>2022-07-02T12:35:50Z</time>
      </trkpt>
      <trkpt lat="43.322697" lon="-1.7411746">
        <time>2022-07-02T12:35:52Z</time>
      </trkpt>
      <trkpt lat="43.322617" lon="-1.741226">
        <time>2022-07-02T12:35:54Z</time>
      </trkpt>
      <trkpt lat="43.322536" lon="-1.7412757">
        <time>2022-07-02T12:35:56Z</time>
      </trkpt>
      <trkpt lat="43.322456" lon="-1.7413253">
        <time>2022-07-02T12:35:58Z</time>
      </trkpt>
      <trkpt lat="43.322376" lon="-1.7413763">
        <time>2022-07-02T12:36:00Z</time>
      </trkpt>
      <trkpt lat="43.322292" lon="-1.7414286">
        <time>2022-07-02T12:36:02Z</time>
      </trkpt>
      <trkpt lat="43.32221" lon="-1.7414806">
        <time>2022-07-02T12:36:04Z</time>
      </trkpt>
      <trkpt lat="43.322124" lon="-1.7415333">
        <time>2022-07-02T12:36:06Z</time>
      </trkpt>
      <trkpt lat="43.322033" lon="-1.7415899">
        <time>2022-07-02T12:36:08Z</time>
      </trkpt>
      <trkpt lat="43.321938" lon="-1.7416472">
        <time>2022-07-02T12:36:10Z</time>
      </trkpt>
      <trkpt lat="43.321888" lon="-1.7416779">
        <time>2022-07-02T12:36:11Z</time>
      </trkpt>
      <trkpt lat="43.32184" lon="-1.7417083">
        <time>2022-07-02T12:36:12Z</time>
      </trkpt>
      <trkpt lat="43.32179" lon="-1.7417376">
        <time>2022-07-02T12:36:13Z</time>
      </trkpt>
      <trkpt lat="43.32174" lon="-1.7417642">
        <time>2022-07-02T12:36:14Z</time>
      </trkpt>
      <trkpt lat="43.321686" lon="-1.7417916">
        <time>2022-07-02T12:36:15Z</time>
      </trkpt>
      <trkpt lat="43.321636" lon="-1.7418185">
        <time>2022-07-02T12:36:16Z</time>
      </trkpt>
      <trkpt lat="43.321583" lon="-1.7418462">
        <time>2022-07-02T12:36:17Z</time>
      </trkpt>
      <trkpt lat="43.32153" lon="-1.7418729">
        <time>2022-07-02T12:36:18Z</time>
      </trkpt>
      <trkpt lat="43.321476" lon="-1.7418989">
        <time>2022-07-02T12:36:19Z</time>
      </trkpt>
      <trkpt lat="43.32142" lon="-1.7419229">
        <time>2022-07-02T12:36:20Z</time>
      </trkpt>
      <trkpt lat="43.321365" lon="-1.7419446">
        <time>2022-07-02T12:36:21Z</time>
      </trkpt>
      <trkpt lat="43.32131" lon="-1.7419635">
        <time>2022-07-02T12:36:22Z</time>
      </trkpt>
      <trkpt lat="43.321255" lon="-1.7419802">
        <time>2022-07-02T12:36:23Z</time>
      </trkpt>
      <trkpt lat="43.321198" lon="-1.7419939">
        <time>2022-07-02T12:36:24Z</time>
      </trkpt>
      <trkpt lat="43.321144" lon="-1.7420055">
        <time>2022-07-02T12:36:25Z</time>
      </trkpt>
      <trkpt lat="43.321095" lon="-1.7420158">
        <time>2022-07-02T12:36:26Z</time>
      </trkpt>
      <trkpt lat="43.321045" lon="-1.7420262">
        <time>2022-07-02T12:36:27Z</time>
      </trkpt>
      <trkpt lat="43.320946" lon="-1.7420472">
        <time>2022-07-02T12:36:29Z</time>
      </trkpt>
      <trkpt lat="43.320847" lon="-1.7420652">
        <time>2022-07-02T12:36:31Z</time>
      </trkpt>
      <trkpt lat="43.32075" lon="-1.7420791">
        <time>2022-07-02T12:36:33Z</time>
      </trkpt>
      <trkpt lat="43.320698" lon="-1.7420852">
        <time>2022-07-02T12:36:34Z</time>
      </trkpt>
      <trkpt lat="43.32065" lon="-1.7420912">
        <time>2022-07-02T12:36:35Z</time>
      </trkpt>
      <trkpt lat="43.32055" lon="-1.7421025">
        <time>2022-07-02T12:36:37Z</time>
      </trkpt>
      <trkpt lat="43.3205" lon="-1.7421068">
        <time>2022-07-02T12:36:38Z</time>
      </trkpt>
      <trkpt lat="43.3204" lon="-1.7421179">
        <time>2022-07-02T12:36:40Z</time>
      </trkpt>
      <trkpt lat="43.32031" lon="-1.7421311">
        <time>2022-07-02T12:36:42Z</time>
      </trkpt>
      <trkpt lat="43.3202" lon="-1.7421432">
        <time>2022-07-02T12:36:44Z</time>
      </trkpt>
      <trkpt lat="43.320152" lon="-1.7421472">
        <time>2022-07-02T12:36:45Z</time>
      </trkpt>
      <trkpt lat="43.320057" lon="-1.7421561">
        <time>2022-07-02T12:36:47Z</time>
      </trkpt>
      <trkpt lat="43.319965" lon="-1.7421652">
        <time>2022-07-02T12:36:49Z</time>
      </trkpt>
      <trkpt lat="43.319885" lon="-1.7421768">
        <time>2022-07-02T12:36:51Z</time>
      </trkpt>
      <trkpt lat="43.31981" lon="-1.7421885">
        <time>2022-07-02T12:36:53Z</time>
      </trkpt>
      <trkpt lat="43.31974" lon="-1.7421938">
        <time>2022-07-02T12:36:55Z</time>
      </trkpt>
      <trkpt lat="43.319668" lon="-1.7421979">
        <time>2022-07-02T12:36:57Z</time>
      </trkpt>
      <trkpt lat="43.319588" lon="-1.7421992">
        <time>2022-07-02T12:36:59Z</time>
      </trkpt>
      <trkpt lat="43.319508" lon="-1.7421988">
        <time>2022-07-02T12:37:01Z</time>
      </trkpt>
      <trkpt lat="43.319416" lon="-1.7422035">
        <time>2022-07-02T12:37:03Z</time>
      </trkpt>
      <trkpt lat="43.319363" lon="-1.7422059">
        <time>2022-07-02T12:37:04Z</time>
      </trkpt>
      <trkpt lat="43.31925" lon="-1.7422128">
        <time>2022-07-02T12:37:06Z</time>
      </trkpt>
      <trkpt lat="43.319187" lon="-1.7422191">
        <time>2022-07-02T12:37:07Z</time>
      </trkpt>
      <trkpt lat="43.31912" lon="-1.7422268">
        <time>2022-07-02T12:37:08Z</time>
      </trkpt>
      <trkpt lat="43.31905" lon="-1.7422358">
        <time>2022-07-02T12:37:09Z</time>
      </trkpt>
      <trkpt lat="43.31898" lon="-1.7422451">
        <time>2022-07-02T12:37:10Z</time>
      </trkpt>
      <trkpt lat="43.318913" lon="-1.7422534">
        <time>2022-07-02T12:37:11Z</time>
      </trkpt>
      <trkpt lat="43.318848" lon="-1.7422608">
        <time>2022-07-02T12:37:12Z</time>
      </trkpt>
      <trkpt lat="43.31878" lon="-1.7422671">
        <time>2022-07-02T12:37:13Z</time>
      </trkpt>
      <trkpt lat="43.318714" lon="-1.7422761">
        <time>2022-07-02T12:37:14Z</time>
      </trkpt>
      <trkpt lat="43.31865" lon="-1.7422842">
        <time>2022-07-02T12:37:15Z</time>
      </trkpt>
      <trkpt lat="43.318584" lon="-1.7422905">
        <time>2022-07-02T12:37:16Z</time>
      </trkpt>
      <trkpt lat="43.31852" lon="-1.7422961">
        <time>2022-07-02T12:37:17Z</time>
      </trkpt>
      <trkpt lat="43.318455" lon="-1.7423004">
        <time>2022-07-02T12:37:18Z</time>
      </trkpt>
      <trkpt lat="43.318386" lon="-1.7423037">
        <time>2022-07-02T12:37:19Z</time>
      </trkpt>
      <trkpt lat="43.31832" lon="-1.7423054">
        <time>2022-07-02T12:37:20Z</time>
      </trkpt>
      <trkpt lat="43.318256" lon="-1.7423054">
        <time>2022-07-02T12:37:21Z</time>
      </trkpt>
      <trkpt lat="43.31819" lon="-1.7423044">
        <time>2022-07-02T12:37:22Z</time>
      </trkpt>
      <trkpt lat="43.318127" lon="-1.7423015">
        <time>2022-07-02T12:37:23Z</time>
      </trkpt>
      <trkpt lat="43.318066" lon="-1.7422981">
        <time>2022-07-02T12:37:24Z</time>
      </trkpt>
      <trkpt lat="43.318005" lon="-1.7422928">
        <time>2022-07-02T12:37:25Z</time>
      </trkpt>
      <trkpt lat="43.31794" lon="-1.7422855">
        <time>2022-07-02T12:37:26Z</time>
      </trkpt>
      <trkpt lat="43.31788" lon="-1.7422768">
        <time>2022-07-02T12:37:27Z</time>
      </trkpt>
      <trkpt lat="43.31782" lon="-1.7422645">
        <time>2022-07-02T12:37:28Z</time>
      </trkpt>
      <trkpt lat="43.317764" lon="-1.7422484">
        <time>2022-07-02T12:37:29Z</time>
      </trkpt>
      <trkpt lat="43.31771" lon="-1.7422285">
        <time>2022-07-02T12:37:30Z</time>
      </trkpt>
      <trkpt lat="43.317657" lon="-1.7422068">
        <time>2022-07-02T12:37:31Z</time>
      </trkpt>
      <trkpt lat="43.317608" lon="-1.7421851">
        <time>2022-07-02T12:37:32Z</time>
      </trkpt>
      <trkpt lat="43.317554" lon="-1.7421651">
        <time>2022-07-02T12:37:33Z</time>
      </trkpt>
      <trkpt lat="43.317505" lon="-1.7421482">
        <time>2022-07-02T12:37:34Z</time>
      </trkpt>
      <trkpt lat="43.31745" lon="-1.7421331">
        <time>2022-07-02T12:37:35Z</time>
      </trkpt>
      <trkpt lat="43.31734" lon="-1.7421114">
        <time>2022-07-02T12:37:37Z</time>
      </trkpt>
      <trkpt lat="43.317287" lon="-1.7421048">
        <time>2022-07-02T12:37:38Z</time>
      </trkpt>
      <trkpt lat="43.317234" lon="-1.7420985">
        <time>2022-07-02T12:37:39Z</time>
      </trkpt>
      <trkpt lat="43.31718" lon="-1.7420932">
        <time>2022-07-02T12:37:40Z</time>
      </trkpt>
      <trkpt lat="43.317127" lon="-1.7420892">
        <time>2022-07-02T12:37:41Z</time>
      </trkpt>
      <trkpt lat="43.31708" lon="-1.7420858">
        <time>2022-07-02T12:37:42Z</time>
      </trkpt>
      <trkpt lat="43.316986" lon="-1.7420838">
        <time>2022-07-02T12:37:44Z</time>
      </trkpt>
      <trkpt lat="43.316895" lon="-1.7420835">
        <time>2022-07-02T12:37:46Z</time>
      </trkpt>
      <trkpt lat="43.316795" lon="-1.7420819">
        <time>2022-07-02T12:37:48Z</time>
      </trkpt>
      <trkpt lat="43.3167" lon="-1.7420758">
        <time>2022-07-02T12:37:50Z</time>
      </trkpt>
      <trkpt lat="43.3166" lon="-1.7420641">
        <time>2022-07-02T12:37:52Z</time>
      </trkpt>
      <trkpt lat="43.316498" lon="-1.7420409">
        <time>2022-07-02T12:37:54Z</time>
      </trkpt>
      <trkpt lat="43.31645" lon="-1.7420229">
        <time>2022-07-02T12:37:55Z</time>
      </trkpt>
      <trkpt lat="43.31635" lon="-1.7419752">
        <time>2022-07-02T12:37:57Z</time>
      </trkpt>
      <trkpt lat="43.316303" lon="-1.7419459">
        <time>2022-07-02T12:37:58Z</time>
      </trkpt>
      <trkpt lat="43.316257" lon="-1.7419119">
        <time>2022-07-02T12:37:59Z</time>
      </trkpt>
      <trkpt lat="43.316174" lon="-1.7418382">
        <time>2022-07-02T12:38:01Z</time>
      </trkpt>
      <trkpt lat="43.31613" lon="-1.7417995">
        <time>2022-07-02T12:38:02Z</time>
      </trkpt>
      <trkpt lat="43.316055" lon="-1.7417252">
        <time>2022-07-02T12:38:04Z</time>
      </trkpt>
      <trkpt lat="43.31602" lon="-1.7416892">
        <time>2022-07-02T12:38:05Z</time>
      </trkpt>
      <trkpt lat="43.31596" lon="-1.7416219">
        <time>2022-07-02T12:38:07Z</time>
      </trkpt>
      <trkpt lat="43.315907" lon="-1.7415652">
        <time>2022-07-02T12:38:09Z</time>
      </trkpt>
      <trkpt lat="43.315857" lon="-1.7415146">
        <time>2022-07-02T12:38:11Z</time>
      </trkpt>
      <trkpt lat="43.315815" lon="-1.7414619">
        <time>2022-07-02T12:38:13Z</time>
      </trkpt>
      <trkpt lat="43.315773" lon="-1.7414103">
        <time>2022-07-02T12:38:15Z</time>
      </trkpt>
      <trkpt lat="43.315735" lon="-1.7413613">
        <time>2022-07-02T12:38:17Z</time>
      </trkpt>
      <trkpt lat="43.315697" lon="-1.741311">
        <time>2022-07-02T12:38:19Z</time>
      </trkpt>
      <trkpt lat="43.31566" lon="-1.7412559">
        <time>2022-07-02T12:38:21Z</time>
      </trkpt>
      <trkpt lat="43.315617" lon="-1.7412035">
        <time>2022-07-02T12:38:23Z</time>
      </trkpt>
      <trkpt lat="43.315575" lon="-1.7411566">
        <time>2022-07-02T12:38:25Z</time>
      </trkpt>
      <trkpt lat="43.31553" lon="-1.7411039">
        <time>2022-07-02T12:38:27Z</time>
      </trkpt>
      <trkpt lat="43.31549" lon="-1.7410463">
        <time>2022-07-02T12:38:29Z</time>
      </trkpt>
      <trkpt lat="43.315445" lon="-1.7409846">
        <time>2022-07-02T12:38:31Z</time>
      </trkpt>
      <trkpt lat="43.3154" lon="-1.74092">
        <time>2022-07-02T12:38:33Z</time>
      </trkpt>
      <trkpt lat="43.315353" lon="-1.7408503">
        <time>2022-07-02T12:38:35Z</time>
      </trkpt>
      <trkpt lat="43.315308" lon="-1.7407769">
        <time>2022-07-02T12:38:37Z</time>
      </trkpt>
      <trkpt lat="43.31526" lon="-1.7407036">
        <time>2022-07-02T12:38:39Z</time>
      </trkpt>
      <trkpt lat="43.315212" lon="-1.7406329">
        <time>2022-07-02T12:38:41Z</time>
      </trkpt>
      <trkpt lat="43.315163" lon="-1.7405616">
        <time>2022-07-02T12:38:43Z</time>
      </trkpt>
      <trkpt lat="43.315113" lon="-1.7404866">
        <time>2022-07-02T12:38:45Z</time>
      </trkpt>
      <trkpt lat="43.31504" lon="-1.7403753">
        <time>2022-07-02T12:38:48Z</time>
      </trkpt>
      <trkpt lat="43.314995" lon="-1.7403029">
        <time>2022-07-02T12:38:50Z</time>
      </trkpt>
      <trkpt lat="43.31495" lon="-1.7402266">
        <time>2022-07-02T12:38:52Z</time>
      </trkpt>
      <trkpt lat="43.314903" lon="-1.7401474">
        <time>2022-07-02T12:38:54Z</time>
      </trkpt>
      <trkpt lat="43.31486" lon="-1.7400653">
        <time>2022-07-02T12:38:56Z</time>
      </trkpt>
      <trkpt lat="43.314823" lon="-1.7399822">
        <time>2022-07-02T12:38:58Z</time>
      </trkpt>
      <trkpt lat="43.31478" lon="-1.7398987">
        <time>2022-07-02T12:39:00Z</time>
      </trkpt>
      <trkpt lat="43.314743" lon="-1.7398137">
        <time>2022-07-02T12:39:02Z</time>
      </trkpt>
      <trkpt lat="43.314705" lon="-1.7397289">
        <time>2022-07-02T12:39:04Z</time>
      </trkpt>
      <trkpt lat="43.314663" lon="-1.7396439">
        <time>2022-07-02T12:39:06Z</time>
      </trkpt>
      <trkpt lat="43.314625" lon="-1.7395567">
        <time>2022-07-02T12:39:08Z</time>
      </trkpt>
      <trkpt lat="43.314587" lon="-1.739468">
        <time>2022-07-02T12:39:10Z</time>
      </trkpt>
      <trkpt lat="43.314545" lon="-1.7393804">
        <time>2022-07-02T12:39:12Z</time>
      </trkpt>
      <trkpt lat="43.314503" lon="-1.739292">
        <time>2022-07-02T12:39:14Z</time>
      </trkpt>
      <trkpt lat="43.314457" lon="-1.7392026">
        <time>2022-07-02T12:39:16Z</time>
      </trkpt>
      <trkpt lat="43.314407" lon="-1.739115">
        <time>2022-07-02T12:39:18Z</time>
      </trkpt>
      <trkpt lat="43.314354" lon="-1.739037">
        <time>2022-07-02T12:39:20Z</time>
      </trkpt>
      <trkpt lat="43.314297" lon="-1.7389627">
        <time>2022-07-02T12:39:22Z</time>
      </trkpt>
      <trkpt lat="43.31423" lon="-1.7388936">
        <time>2022-07-02T12:39:24Z</time>
      </trkpt>
      <trkpt lat="43.314167" lon="-1.7388273">
        <time>2022-07-02T12:39:26Z</time>
      </trkpt>
      <trkpt lat="43.314095" lon="-1.7387667">
        <time>2022-07-02T12:39:28Z</time>
      </trkpt>
      <trkpt lat="43.31402" lon="-1.7387117">
        <time>2022-07-02T12:39:30Z</time>
      </trkpt>
      <trkpt lat="43.31394" lon="-1.73867">
        <time>2022-07-02T12:39:32Z</time>
      </trkpt>
      <trkpt lat="43.313854" lon="-1.7386417">
        <time>2022-07-02T12:39:34Z</time>
      </trkpt>
      <trkpt lat="43.313774" lon="-1.7386243">
        <time>2022-07-02T12:39:36Z</time>
      </trkpt>
      <trkpt lat="43.313686" lon="-1.738623">
        <time>2022-07-02T12:39:38Z</time>
      </trkpt>
      <trkpt lat="43.313606" lon="-1.738643">
        <time>2022-07-02T12:39:40Z</time>
      </trkpt>
      <trkpt lat="43.313526" lon="-1.7386781">
        <time>2022-07-02T12:39:42Z</time>
      </trkpt>
      <trkpt lat="43.31345" lon="-1.738724">
        <time>2022-07-02T12:39:44Z</time>
      </trkpt>
      <trkpt lat="43.313374" lon="-1.7387804">
        <time>2022-07-02T12:39:46Z</time>
      </trkpt>
      <trkpt lat="43.313297" lon="-1.7388467">
        <time>2022-07-02T12:39:48Z</time>
      </trkpt>
      <trkpt lat="43.31322" lon="-1.7389214">
        <time>2022-07-02T12:39:50Z</time>
      </trkpt>
      <trkpt lat="43.313156" lon="-1.739004">
        <time>2022-07-02T12:39:52Z</time>
      </trkpt>
      <trkpt lat="43.313095" lon="-1.7390933">
        <time>2022-07-02T12:39:54Z</time>
      </trkpt>
      <trkpt lat="43.313034" lon="-1.7391827">
        <time>2022-07-02T12:39:56Z</time>
      </trkpt>
      <trkpt lat="43.312984" lon="-1.739271">
        <time>2022-07-02T12:39:58Z</time>
      </trkpt>
      <trkpt lat="43.31294" lon="-1.739368">
        <time>2022-07-02T12:40:00Z</time>
      </trkpt>
      <trkpt lat="43.312897" lon="-1.7394713">
        <time>2022-07-02T12:40:02Z</time>
      </trkpt>
      <trkpt lat="43.312855" lon="-1.739573">
        <time>2022-07-02T12:40:04Z</time>
      </trkpt>
      <trkpt lat="43.312813" lon="-1.7396727">
        <time>2022-07-02T12:40:06Z</time>
      </trkpt>
      <trkpt lat="43.312767" lon="-1.7397667">
        <time>2022-07-02T12:40:08Z</time>
      </trkpt>
      <trkpt lat="43.31273" lon="-1.739861">
        <time>2022-07-02T12:40:10Z</time>
      </trkpt>
      <trkpt lat="43.312683" lon="-1.7399477">
        <time>2022-07-02T12:40:12Z</time>
      </trkpt>
      <trkpt lat="43.312637" lon="-1.740018">
        <time>2022-07-02T12:40:14Z</time>
      </trkpt>
      <trkpt lat="43.31259" lon="-1.740098">
        <time>2022-07-02T12:40:16Z</time>
      </trkpt>
      <trkpt lat="43.312542" lon="-1.740178">
        <time>2022-07-02T12:40:18Z</time>
      </trkpt>
      <trkpt lat="43.312496" lon="-1.7402456">
        <time>2022-07-02T12:40:20Z</time>
      </trkpt>
      <trkpt lat="43.31245" lon="-1.7403036">
        <time>2022-07-02T12:40:22Z</time>
      </trkpt>
      <trkpt lat="43.31241" lon="-1.7403533">
        <time>2022-07-02T12:40:24Z</time>
      </trkpt>
      <trkpt lat="43.312374" lon="-1.7403879">
        <time>2022-07-02T12:40:26Z</time>
      </trkpt>
      <trkpt lat="43.312336" lon="-1.740415">
        <time>2022-07-02T12:40:30Z</time>
      </trkpt>
      <trkpt lat="43.31225" lon="-1.7404323">
        <time>2022-07-02T12:41:41Z</time>
      </trkpt>
      <trkpt lat="43.31218" lon="-1.7404857">
        <time>2022-07-02T12:41:44Z</time>
      </trkpt>
      <trkpt lat="43.31213" lon="-1.7405226">
        <time>2022-07-02T12:41:46Z</time>
      </trkpt>
      <trkpt lat="43.312088" lon="-1.7405423">
        <time>2022-07-02T12:41:48Z</time>
      </trkpt>
      <trkpt lat="43.312046" lon="-1.740567">
        <time>2022-07-02T12:41:52Z</time>
      </trkpt>
      <trkpt lat="43.312" lon="-1.7405946">
        <time>2022-07-02T12:41:56Z</time>
      </trkpt>
      <trkpt lat="43.311943" lon="-1.7406162">
        <time>2022-07-02T12:42:02Z</time>
      </trkpt>
      <trkpt lat="43.31189" lon="-1.740626">
        <time>2022-07-02T12:42:08Z</time>
      </trkpt>
      <trkpt lat="43.311832" lon="-1.7406216">
        <time>2022-07-02T12:42:13Z</time>
      </trkpt>
      <trkpt lat="43.311775" lon="-1.7406476">
        <time>2022-07-02T12:42:19Z</time>
      </trkpt>
      <trkpt lat="43.311703" lon="-1.7406865">
        <time>2022-07-02T12:42:23Z</time>
      </trkpt>
      <trkpt lat="43.311626" lon="-1.7407192">
        <time>2022-07-02T12:42:26Z</time>
      </trkpt>
      <trkpt lat="43.311577" lon="-1.7407336">
        <time>2022-07-02T12:42:28Z</time>
      </trkpt>
      <trkpt lat="43.311512" lon="-1.7407489">
        <time>2022-07-02T12:42:30Z</time>
      </trkpt>
      <trkpt lat="43.311447" lon="-1.7407635">
        <time>2022-07-02T12:42:32Z</time>
      </trkpt>
      <trkpt lat="43.311382" lon="-1.7407646">
        <time>2022-07-02T12:42:34Z</time>
      </trkpt>
      <trkpt lat="43.31132" lon="-1.7407513">
        <time>2022-07-02T12:42:36Z</time>
      </trkpt>
      <trkpt lat="43.31127" lon="-1.7407322">
        <time>2022-07-02T12:42:38Z</time>
      </trkpt>
      <trkpt lat="43.31123" lon="-1.7407049">
        <time>2022-07-02T12:42:40Z</time>
      </trkpt>
      <trkpt lat="43.311172" lon="-1.7406403">
        <time>2022-07-02T12:42:43Z</time>
      </trkpt>
      <trkpt lat="43.31114" lon="-1.7405752">
        <time>2022-07-02T12:42:45Z</time>
      </trkpt>
      <trkpt lat="43.311096" lon="-1.7405143">
        <time>2022-07-02T12:42:47Z</time>
      </trkpt>
      <trkpt lat="43.311043" lon="-1.7404529">
        <time>2022-07-02T12:42:49Z</time>
      </trkpt>
      <trkpt lat="43.31098" lon="-1.7403866">
        <time>2022-07-02T12:42:51Z</time>
      </trkpt>
      <trkpt lat="43.31093" lon="-1.740325">
        <time>2022-07-02T12:42:53Z</time>
      </trkpt>
      <trkpt lat="43.310886" lon="-1.7402703">
        <time>2022-07-02T12:42:55Z</time>
      </trkpt>
      <trkpt lat="43.310856" lon="-1.7402236">
        <time>2022-07-02T12:42:57Z</time>
      </trkpt>
      <trkpt lat="43.31084" lon="-1.740178">
        <time>2022-07-02T12:43:04Z</time>
      </trkpt>
      <trkpt lat="43.310795" lon="-1.7400953">
        <time>2022-07-02T12:43:26Z</time>
      </trkpt>
      <trkpt lat="43.310764" lon="-1.7400362">
        <time>2022-07-02T12:43:28Z</time>
      </trkpt>
      <trkpt lat="43.31073" lon="-1.7399759">
        <time>2022-07-02T12:43:30Z</time>
      </trkpt>
      <trkpt lat="43.310696" lon="-1.739914">
        <time>2022-07-02T12:43:32Z</time>
      </trkpt>
      <trkpt lat="43.31066" lon="-1.739844">
        <time>2022-07-02T12:43:34Z</time>
      </trkpt>
      <trkpt lat="43.310627" lon="-1.7397716">
        <time>2022-07-02T12:43:36Z</time>
      </trkpt>
      <trkpt lat="43.310596" lon="-1.7396973">
        <time>2022-07-02T12:43:38Z</time>
      </trkpt>
      <trkpt lat="43.310562" lon="-1.7396272">
        <time>2022-07-02T12:43:40Z</time>
      </trkpt>
      <trkpt lat="43.310535" lon="-1.7395626">
        <time>2022-07-02T12:43:42Z</time>
      </trkpt>
      <trkpt lat="43.31051" lon="-1.7394997">
        <time>2022-07-02T12:43:44Z</time>
      </trkpt>
      <trkpt lat="43.310486" lon="-1.7394177">
        <time>2022-07-02T12:43:47Z</time>
      </trkpt>
      <trkpt lat="43.310467" lon="-1.7393413">
        <time>2022-07-02T12:43:50Z</time>
      </trkpt>
      <trkpt lat="43.31045" lon="-1.7392629">
        <time>2022-07-02T12:43:53Z</time>
      </trkpt>
      <trkpt lat="43.31045" lon="-1.7391924">
        <time>2022-07-02T12:43:56Z</time>
      </trkpt>
      <trkpt lat="43.310436" lon="-1.739067">
        <time>2022-07-02T12:44:11Z</time>
      </trkpt>
      <trkpt lat="43.31042" lon="-1.7389886">
        <time>2022-07-02T12:44:16Z</time>
      </trkpt>
      <trkpt lat="43.31042" lon="-1.7389177">
        <time>2022-07-02T12:44:19Z</time>
      </trkpt>
      <trkpt lat="43.310425" lon="-1.7388407">
        <time>2022-07-02T12:44:22Z</time>
      </trkpt>
      <trkpt lat="43.31042" lon="-1.7387596">
        <time>2022-07-02T12:44:25Z</time>
      </trkpt>
      <trkpt lat="43.310413" lon="-1.7386793">
        <time>2022-07-02T12:44:28Z</time>
      </trkpt>
      <trkpt lat="43.310413" lon="-1.7385907">
        <time>2022-07-02T12:44:31Z</time>
      </trkpt>
      <trkpt lat="43.310413" lon="-1.738507">
        <time>2022-07-02T12:44:34Z</time>
      </trkpt>
      <trkpt lat="43.310406" lon="-1.7384384">
        <time>2022-07-02T12:44:37Z</time>
      </trkpt>
      <trkpt lat="43.310375" lon="-1.738345">
        <time>2022-07-02T12:44:41Z</time>
      </trkpt>
      <trkpt lat="43.310352" lon="-1.738264">
        <time>2022-07-02T12:44:44Z</time>
      </trkpt>
      <trkpt lat="43.31034" lon="-1.7381867">
        <time>2022-07-02T12:44:47Z</time>
      </trkpt>
      <trkpt lat="43.31034" lon="-1.738105">
        <time>2022-07-02T12:44:50Z</time>
      </trkpt>
      <trkpt lat="43.310345" lon="-1.7380184">
        <time>2022-07-02T12:44:53Z</time>
      </trkpt>
      <trkpt lat="43.310345" lon="-1.737923">
        <time>2022-07-02T12:44:56Z</time>
      </trkpt>
      <trkpt lat="43.31033" lon="-1.7378271">
        <time>2022-07-02T12:44:59Z</time>
      </trkpt>
      <trkpt lat="43.310318" lon="-1.7377597">
        <time>2022-07-02T12:45:01Z</time>
      </trkpt>
      <trkpt lat="43.310307" lon="-1.737645">
        <time>2022-07-02T12:45:04Z</time>
      </trkpt>
      <trkpt lat="43.310295" lon="-1.737563">
        <time>2022-07-02T12:45:06Z</time>
      </trkpt>
      <trkpt lat="43.31029" lon="-1.7374707">
        <time>2022-07-02T12:45:08Z</time>
      </trkpt>
      <trkpt lat="43.31029" lon="-1.7373714">
        <time>2022-07-02T12:45:10Z</time>
      </trkpt>
      <trkpt lat="43.310276" lon="-1.7372664">
        <time>2022-07-02T12:45:12Z</time>
      </trkpt>
      <trkpt lat="43.310246" lon="-1.737166">
        <time>2022-07-02T12:45:14Z</time>
      </trkpt>
      <trkpt lat="43.31021" lon="-1.7370654">
        <time>2022-07-02T12:45:16Z</time>
      </trkpt>
      <trkpt lat="43.310173" lon="-1.7369597">
        <time>2022-07-02T12:45:18Z</time>
      </trkpt>
      <trkpt lat="43.310127" lon="-1.7368507">
        <time>2022-07-02T12:45:20Z</time>
      </trkpt>
      <trkpt lat="43.310078" lon="-1.7367548">
        <time>2022-07-02T12:45:22Z</time>
      </trkpt>
      <trkpt lat="43.310028" lon="-1.7366778">
        <time>2022-07-02T12:45:24Z</time>
      </trkpt>
      <trkpt lat="43.30998" lon="-1.7366271">
        <time>2022-07-02T12:45:26Z</time>
      </trkpt>
      <trkpt lat="43.309933" lon="-1.7365891">
        <time>2022-07-02T12:45:28Z</time>
      </trkpt>
      <trkpt lat="43.309883" lon="-1.7365497">
        <time>2022-07-02T12:45:30Z</time>
      </trkpt>
      <trkpt lat="43.309837" lon="-1.73651">
        <time>2022-07-02T12:45:32Z</time>
      </trkpt>
      <trkpt lat="43.309784" lon="-1.7364738">
        <time>2022-07-02T12:45:34Z</time>
      </trkpt>
      <trkpt lat="43.309727" lon="-1.7364401">
        <time>2022-07-02T12:45:36Z</time>
      </trkpt>
      <trkpt lat="43.309658" lon="-1.7364057">
        <time>2022-07-02T12:45:38Z</time>
      </trkpt>
      <trkpt lat="43.309593" lon="-1.7363768">
        <time>2022-07-02T12:45:40Z</time>
      </trkpt>
      <trkpt lat="43.30953" lon="-1.7363565">
        <time>2022-07-02T12:45:42Z</time>
      </trkpt>
      <trkpt lat="43.309464" lon="-1.7363378">
        <time>2022-07-02T12:45:44Z</time>
      </trkpt>
      <trkpt lat="43.309395" lon="-1.7363178">
        <time>2022-07-02T12:45:46Z</time>
      </trkpt>
      <trkpt lat="43.309322" lon="-1.7362951">
        <time>2022-07-02T12:45:48Z</time>
      </trkpt>
      <trkpt lat="43.309246" lon="-1.7362708">
        <time>2022-07-02T12:45:50Z</time>
      </trkpt>
      <trkpt lat="43.30917" lon="-1.7362478">
        <time>2022-07-02T12:45:52Z</time>
      </trkpt>
      <trkpt lat="43.30909" lon="-1.7362218">
        <time>2022-07-02T12:45:54Z</time>
      </trkpt>
      <trkpt lat="43.309006" lon="-1.7361971">
        <time>2022-07-02T12:45:56Z</time>
      </trkpt>
      <trkpt lat="43.30892" lon="-1.7361741">
        <time>2022-07-02T12:45:58Z</time>
      </trkpt>
      <trkpt lat="43.308792" lon="-1.7361411">
        <time>2022-07-02T12:46:01Z</time>
      </trkpt>
      <trkpt lat="43.308704" lon="-1.7361128">
        <time>2022-07-02T12:46:03Z</time>
      </trkpt>
      <trkpt lat="43.308617" lon="-1.7360852">
        <time>2022-07-02T12:46:05Z</time>
      </trkpt>
      <trkpt lat="43.30853" lon="-1.7360592">
        <time>2022-07-02T12:46:07Z</time>
      </trkpt>
      <trkpt lat="43.308445" lon="-1.7360338">
        <time>2022-07-02T12:46:09Z</time>
      </trkpt>
      <trkpt lat="43.308357" lon="-1.7360018">
        <time>2022-07-02T12:46:11Z</time>
      </trkpt>
      <trkpt lat="43.308277" lon="-1.7359529">
        <time>2022-07-02T12:46:13Z</time>
      </trkpt>
      <trkpt lat="43.3082" lon="-1.7358885">
        <time>2022-07-02T12:46:15Z</time>
      </trkpt>
      <trkpt lat="43.308125" lon="-1.7358141">
        <time>2022-07-02T12:46:17Z</time>
      </trkpt>
      <trkpt lat="43.308052" lon="-1.7357382">
        <time>2022-07-02T12:46:19Z</time>
      </trkpt>
      <trkpt lat="43.307972" lon="-1.7356645">
        <time>2022-07-02T12:46:21Z</time>
      </trkpt>
      <trkpt lat="43.30789" lon="-1.7356029">
        <time>2022-07-02T12:46:23Z</time>
      </trkpt>
      <trkpt lat="43.30781" lon="-1.7355578">
        <time>2022-07-02T12:46:25Z</time>
      </trkpt>
      <trkpt lat="43.30773" lon="-1.7355345">
        <time>2022-07-02T12:46:27Z</time>
      </trkpt>
      <trkpt lat="43.30765" lon="-1.7355232">
        <time>2022-07-02T12:46:29Z</time>
      </trkpt>
      <trkpt lat="43.30757" lon="-1.7355175">
        <time>2022-07-02T12:46:31Z</time>
      </trkpt>
      <trkpt lat="43.30749" lon="-1.7355129">
        <time>2022-07-02T12:46:33Z</time>
      </trkpt>
      <trkpt lat="43.30741" lon="-1.7355102">
        <time>2022-07-02T12:46:35Z</time>
      </trkpt>
      <trkpt lat="43.307327" lon="-1.7355099">
        <time>2022-07-02T12:46:37Z</time>
      </trkpt>
      <trkpt lat="43.307243" lon="-1.7355115">
        <time>2022-07-02T12:46:39Z</time>
      </trkpt>
      <trkpt lat="43.30716" lon="-1.7355145">
        <time>2022-07-02T12:46:41Z</time>
      </trkpt>
      <trkpt lat="43.30708" lon="-1.7355145">
        <time>2022-07-02T12:46:43Z</time>
      </trkpt>
      <trkpt lat="43.307" lon="-1.7355149">
        <time>2022-07-02T12:46:45Z</time>
      </trkpt>
      <trkpt lat="43.30692" lon="-1.7355149">
        <time>2022-07-02T12:46:47Z</time>
      </trkpt>
      <trkpt lat="43.306843" lon="-1.7355052">
        <time>2022-07-02T12:46:49Z</time>
      </trkpt>
      <trkpt lat="43.30677" lon="-1.7354822">
        <time>2022-07-02T12:46:51Z</time>
      </trkpt>
      <trkpt lat="43.3067" lon="-1.7354485">
        <time>2022-07-02T12:46:53Z</time>
      </trkpt>
      <trkpt lat="43.30664" lon="-1.7353998">
        <time>2022-07-02T12:46:55Z</time>
      </trkpt>
      <trkpt lat="43.306576" lon="-1.7353382">
        <time>2022-07-02T12:46:57Z</time>
      </trkpt>
      <trkpt lat="43.306496" lon="-1.7352692">
        <time>2022-07-02T12:46:59Z</time>
      </trkpt>
      <trkpt lat="43.30641" lon="-1.7351999">
        <time>2022-07-02T12:47:01Z</time>
      </trkpt>
      <trkpt lat="43.30632" lon="-1.7351279">
        <time>2022-07-02T12:47:03Z</time>
      </trkpt>
      <trkpt lat="43.30627" lon="-1.7350903">
        <time>2022-07-02T12:47:04Z</time>
      </trkpt>
      <trkpt lat="43.30622" lon="-1.7350522">
        <time>2022-07-02T12:47:05Z</time>
      </trkpt>
      <trkpt lat="43.30617" lon="-1.7350142">
        <time>2022-07-02T12:47:06Z</time>
      </trkpt>
      <trkpt lat="43.306126" lon="-1.7349765">
        <time>2022-07-02T12:47:07Z</time>
      </trkpt>
      <trkpt lat="43.30608" lon="-1.7349375">
        <time>2022-07-02T12:47:08Z</time>
      </trkpt>
      <trkpt lat="43.306034" lon="-1.7348989">
        <time>2022-07-02T12:47:09Z</time>
      </trkpt>
      <trkpt lat="43.30599" lon="-1.7348596">
        <time>2022-07-02T12:47:10Z</time>
      </trkpt>
      <trkpt lat="43.305904" lon="-1.7347943">
        <time>2022-07-02T12:47:12Z</time>
      </trkpt>
      <trkpt lat="43.30582" lon="-1.7347369">
        <time>2022-07-02T12:47:14Z</time>
      </trkpt>
      <trkpt lat="43.305737" lon="-1.7346836">
        <time>2022-07-02T12:47:16Z</time>
      </trkpt>
      <trkpt lat="43.30565" lon="-1.7346382">
        <time>2022-07-02T12:47:18Z</time>
      </trkpt>
      <trkpt lat="43.305603" lon="-1.734618">
        <time>2022-07-02T12:47:19Z</time>
      </trkpt>
      <trkpt lat="43.30552" lon="-1.7345806">
        <time>2022-07-02T12:47:21Z</time>
      </trkpt>
      <trkpt lat="43.305428" lon="-1.734543">
        <time>2022-07-02T12:47:23Z</time>
      </trkpt>
      <trkpt lat="43.30534" lon="-1.7345026">
        <time>2022-07-02T12:47:25Z</time>
      </trkpt>
      <trkpt lat="43.30529" lon="-1.7344823">
        <time>2022-07-02T12:47:26Z</time>
      </trkpt>
      <trkpt lat="43.30519" lon="-1.7344383">
        <time>2022-07-02T12:47:28Z</time>
      </trkpt>
      <trkpt lat="43.305138" lon="-1.7344157">
        <time>2022-07-02T12:47:29Z</time>
      </trkpt>
      <trkpt lat="43.305088" lon="-1.7343963">
        <time>2022-07-02T12:47:30Z</time>
      </trkpt>
      <trkpt lat="43.305035" lon="-1.7343796">
        <time>2022-07-02T12:47:31Z</time>
      </trkpt>
      <trkpt lat="43.304985" lon="-1.7343639">
        <time>2022-07-02T12:47:32Z</time>
      </trkpt>
      <trkpt lat="43.30493" lon="-1.73435">
        <time>2022-07-02T12:47:33Z</time>
      </trkpt>
      <trkpt lat="43.304832" lon="-1.7343243">
        <time>2022-07-02T12:47:35Z</time>
      </trkpt>
      <trkpt lat="43.304783" lon="-1.734313">
        <time>2022-07-02T12:47:36Z</time>
      </trkpt>
      <trkpt lat="43.30469" lon="-1.7342933">
        <time>2022-07-02T12:47:38Z</time>
      </trkpt>
      <trkpt lat="43.3046" lon="-1.7342767">
        <time>2022-07-02T12:47:40Z</time>
      </trkpt>
      <trkpt lat="43.304516" lon="-1.7342607">
        <time>2022-07-02T12:47:42Z</time>
      </trkpt>
      <trkpt lat="43.304443" lon="-1.7342496">
        <time>2022-07-02T12:47:44Z</time>
      </trkpt>
      <trkpt lat="43.30437" lon="-1.7342507">
        <time>2022-07-02T12:47:46Z</time>
      </trkpt>
      <trkpt lat="43.304306" lon="-1.7342513">
        <time>2022-07-02T12:47:48Z</time>
      </trkpt>
      <trkpt lat="43.304237" lon="-1.734249">
        <time>2022-07-02T12:47:50Z</time>
      </trkpt>
      <trkpt lat="43.304173" lon="-1.734242">
        <time>2022-07-02T12:47:52Z</time>
      </trkpt>
      <trkpt lat="43.304104" lon="-1.734231">
        <time>2022-07-02T12:47:54Z</time>
      </trkpt>
      <trkpt lat="43.304035" lon="-1.7342197">
        <time>2022-07-02T12:47:56Z</time>
      </trkpt>
      <trkpt lat="43.303967" lon="-1.7342076">
        <time>2022-07-02T12:47:58Z</time>
      </trkpt>
      <trkpt lat="43.303894" lon="-1.7341926">
        <time>2022-07-02T12:48:00Z</time>
      </trkpt>
      <trkpt lat="43.30382" lon="-1.7341803">
        <time>2022-07-02T12:48:02Z</time>
      </trkpt>
      <trkpt lat="43.303757" lon="-1.7341683">
        <time>2022-07-02T12:48:04Z</time>
      </trkpt>
      <trkpt lat="43.303654" lon="-1.734151">
        <time>2022-07-02T12:48:07Z</time>
      </trkpt>
      <trkpt lat="43.30359" lon="-1.7341413">
        <time>2022-07-02T12:48:09Z</time>
      </trkpt>
      <trkpt lat="43.30352" lon="-1.734136">
        <time>2022-07-02T12:48:11Z</time>
      </trkpt>
      <trkpt lat="43.303455" lon="-1.7341354">
        <time>2022-07-02T12:48:13Z</time>
      </trkpt>
      <trkpt lat="43.3034" lon="-1.7341306">
        <time>2022-07-02T12:48:15Z</time>
      </trkpt>
      <trkpt lat="43.30334" lon="-1.734119">
        <time>2022-07-02T12:48:17Z</time>
      </trkpt>
      <trkpt lat="43.30328" lon="-1.7341027">
        <time>2022-07-02T12:48:19Z</time>
      </trkpt>
      <trkpt lat="43.303215" lon="-1.7340837">
        <time>2022-07-02T12:48:21Z</time>
      </trkpt>
      <trkpt lat="43.30314" lon="-1.7340623">
        <time>2022-07-02T12:48:23Z</time>
      </trkpt>
      <trkpt lat="43.303066" lon="-1.734037">
        <time>2022-07-02T12:48:25Z</time>
      </trkpt>
      <trkpt lat="43.302986" lon="-1.734009">
        <time>2022-07-02T12:48:27Z</time>
      </trkpt>
      <trkpt lat="43.30291" lon="-1.7339797">
        <time>2022-07-02T12:48:29Z</time>
      </trkpt>
      <trkpt lat="43.302837" lon="-1.7339517">
        <time>2022-07-02T12:48:31Z</time>
      </trkpt>
      <trkpt lat="43.302765" lon="-1.7339303">
        <time>2022-07-02T12:48:33Z</time>
      </trkpt>
      <trkpt lat="43.3027" lon="-1.733911">
        <time>2022-07-02T12:48:35Z</time>
      </trkpt>
      <trkpt lat="43.302635" lon="-1.7338897">
        <time>2022-07-02T12:48:37Z</time>
      </trkpt>
      <trkpt lat="43.302567" lon="-1.7338654">
        <time>2022-07-02T12:48:39Z</time>
      </trkpt>
      <trkpt lat="43.30251" lon="-1.7338424">
        <time>2022-07-02T12:48:41Z</time>
      </trkpt>
      <trkpt lat="43.30245" lon="-1.7338221">
        <time>2022-07-02T12:48:43Z</time>
      </trkpt>
      <trkpt lat="43.302387" lon="-1.7337977">
        <time>2022-07-02T12:48:45Z</time>
      </trkpt>
      <trkpt lat="43.302315" lon="-1.7337683">
        <time>2022-07-02T12:48:47Z</time>
      </trkpt>
      <trkpt lat="43.30224" lon="-1.7337397">
        <time>2022-07-02T12:48:49Z</time>
      </trkpt>
      <trkpt lat="43.30215" lon="-1.7337147">
        <time>2022-07-02T12:48:51Z</time>
      </trkpt>
      <trkpt lat="43.302063" lon="-1.7336857">
        <time>2022-07-02T12:48:53Z</time>
      </trkpt>
      <trkpt lat="43.30198" lon="-1.7336584">
        <time>2022-07-02T12:48:55Z</time>
      </trkpt>
      <trkpt lat="43.30189" lon="-1.7336245">
        <time>2022-07-02T12:48:57Z</time>
      </trkpt>
      <trkpt lat="43.3018" lon="-1.7335854">
        <time>2022-07-02T12:48:59Z</time>
      </trkpt>
      <trkpt lat="43.301716" lon="-1.7335484">
        <time>2022-07-02T12:49:01Z</time>
      </trkpt>
      <trkpt lat="43.301624" lon="-1.7335068">
        <time>2022-07-02T12:49:03Z</time>
      </trkpt>
      <trkpt lat="43.301537" lon="-1.733468">
        <time>2022-07-02T12:49:05Z</time>
      </trkpt>
      <trkpt lat="43.30145" lon="-1.7334294">
        <time>2022-07-02T12:49:07Z</time>
      </trkpt>
      <trkpt lat="43.301357" lon="-1.7333877">
        <time>2022-07-02T12:49:09Z</time>
      </trkpt>
      <trkpt lat="43.301308" lon="-1.7333654">
        <time>2022-07-02T12:49:10Z</time>
      </trkpt>
      <trkpt lat="43.301216" lon="-1.7333205">
        <time>2022-07-02T12:49:12Z</time>
      </trkpt>
      <trkpt lat="43.30117" lon="-1.7332941">
        <time>2022-07-02T12:49:13Z</time>
      </trkpt>
      <trkpt lat="43.30108" lon="-1.7332451">
        <time>2022-07-02T12:49:15Z</time>
      </trkpt>
      <trkpt lat="43.30099" lon="-1.7331978">
        <time>2022-07-02T12:49:17Z</time>
      </trkpt>
      <trkpt lat="43.300896" lon="-1.7331444">
        <time>2022-07-02T12:49:19Z</time>
      </trkpt>
      <trkpt lat="43.300804" lon="-1.7330958">
        <time>2022-07-02T12:49:21Z</time>
      </trkpt>
      <trkpt lat="43.300716" lon="-1.7330455">
        <time>2022-07-02T12:49:23Z</time>
      </trkpt>
      <trkpt lat="43.30063" lon="-1.7329911">
        <time>2022-07-02T12:49:25Z</time>
      </trkpt>
      <trkpt lat="43.30054" lon="-1.7329408">
        <time>2022-07-02T12:49:27Z</time>
      </trkpt>
      <trkpt lat="43.300453" lon="-1.7328871">
        <time>2022-07-02T12:49:29Z</time>
      </trkpt>
      <trkpt lat="43.300407" lon="-1.7328608">
        <time>2022-07-02T12:49:30Z</time>
      </trkpt>
      <trkpt lat="43.300323" lon="-1.7328014">
        <time>2022-07-02T12:49:32Z</time>
      </trkpt>
      <trkpt lat="43.300278" lon="-1.7327701">
        <time>2022-07-02T12:49:33Z</time>
      </trkpt>
      <trkpt lat="43.30019" lon="-1.7327025">
        <time>2022-07-02T12:49:35Z</time>
      </trkpt>
      <trkpt lat="43.300102" lon="-1.7326318">
        <time>2022-07-02T12:49:37Z</time>
      </trkpt>
      <trkpt lat="43.300053" lon="-1.7325971">
        <time>2022-07-02T12:49:38Z</time>
      </trkpt>
      <trkpt lat="43.300003" lon="-1.7325609">
        <time>2022-07-02T12:49:39Z</time>
      </trkpt>
      <trkpt lat="43.299957" lon="-1.7325255">
        <time>2022-07-02T12:49:40Z</time>
      </trkpt>
      <trkpt lat="43.299915" lon="-1.7324915">
        <time>2022-07-02T12:49:41Z</time>
      </trkpt>
      <trkpt lat="43.299828" lon="-1.7324269">
        <time>2022-07-02T12:49:43Z</time>
      </trkpt>
      <trkpt lat="43.299732" lon="-1.7323536">
        <time>2022-07-02T12:49:45Z</time>
      </trkpt>
      <trkpt lat="43.299686" lon="-1.7323189">
        <time>2022-07-02T12:49:46Z</time>
      </trkpt>
      <trkpt lat="43.299587" lon="-1.7322502">
        <time>2022-07-02T12:49:48Z</time>
      </trkpt>
      <trkpt lat="43.299538" lon="-1.7322129">
        <time>2022-07-02T12:49:49Z</time>
      </trkpt>
      <trkpt lat="43.299488" lon="-1.7321725">
        <time>2022-07-02T12:49:50Z</time>
      </trkpt>
      <trkpt lat="43.299442" lon="-1.7321322">
        <time>2022-07-02T12:49:51Z</time>
      </trkpt>
      <trkpt lat="43.299393" lon="-1.7320932">
        <time>2022-07-02T12:49:52Z</time>
      </trkpt>
      <trkpt lat="43.299343" lon="-1.7320548">
        <time>2022-07-02T12:49:53Z</time>
      </trkpt>
      <trkpt lat="43.299294" lon="-1.7320188">
        <time>2022-07-02T12:49:54Z</time>
      </trkpt>
      <trkpt lat="43.29924" lon="-1.7319862">
        <time>2022-07-02T12:49:55Z</time>
      </trkpt>
      <trkpt lat="43.299187" lon="-1.7319562">
        <time>2022-07-02T12:49:56Z</time>
      </trkpt>
      <trkpt lat="43.299133" lon="-1.7319252">
        <time>2022-07-02T12:49:57Z</time>
      </trkpt>
      <trkpt lat="43.299076" lon="-1.7318972">
        <time>2022-07-02T12:49:58Z</time>
      </trkpt>
      <trkpt lat="43.299023" lon="-1.7318718">
        <time>2022-07-02T12:49:59Z</time>
      </trkpt>
      <trkpt lat="43.29897" lon="-1.7318469">
        <time>2022-07-02T12:50:00Z</time>
      </trkpt>
      <trkpt lat="43.29892" lon="-1.7318245">
        <time>2022-07-02T12:50:01Z</time>
      </trkpt>
      <trkpt lat="43.298866" lon="-1.7318026">
        <time>2022-07-02T12:50:02Z</time>
      </trkpt>
      <trkpt lat="43.298813" lon="-1.7317835">
        <time>2022-07-02T12:50:03Z</time>
      </trkpt>
      <trkpt lat="43.29876" lon="-1.7317672">
        <time>2022-07-02T12:50:04Z</time>
      </trkpt>
      <trkpt lat="43.298706" lon="-1.7317523">
        <time>2022-07-02T12:50:05Z</time>
      </trkpt>
      <trkpt lat="43.298653" lon="-1.7317402">
        <time>2022-07-02T12:50:06Z</time>
      </trkpt>
      <trkpt lat="43.298603" lon="-1.7317302">
        <time>2022-07-02T12:50:07Z</time>
      </trkpt>
      <trkpt lat="43.298496" lon="-1.7317189">
        <time>2022-07-02T12:50:09Z</time>
      </trkpt>
      <trkpt lat="43.29844" lon="-1.7317159">
        <time>2022-07-02T12:50:10Z</time>
      </trkpt>
      <trkpt lat="43.29838" lon="-1.7317119">
        <time>2022-07-02T12:50:11Z</time>
      </trkpt>
      <trkpt lat="43.29833" lon="-1.7317052">
        <time>2022-07-02T12:50:12Z</time>
      </trkpt>
      <trkpt lat="43.29828" lon="-1.7316962">
        <time>2022-07-02T12:50:13Z</time>
      </trkpt>
      <trkpt lat="43.29823" lon="-1.7316859">
        <time>2022-07-02T12:50:14Z</time>
      </trkpt>
      <trkpt lat="43.298138" lon="-1.7316645">
        <time>2022-07-02T12:50:16Z</time>
      </trkpt>
      <trkpt lat="43.29809" lon="-1.7316566">
        <time>2022-07-02T12:50:17Z</time>
      </trkpt>
      <trkpt lat="43.298008" lon="-1.7316445">
        <time>2022-07-02T12:50:19Z</time>
      </trkpt>
      <trkpt lat="43.297928" lon="-1.7316256">
        <time>2022-07-02T12:50:21Z</time>
      </trkpt>
      <trkpt lat="43.297844" lon="-1.7316005">
        <time>2022-07-02T12:50:23Z</time>
      </trkpt>
      <trkpt lat="43.297756" lon="-1.731571">
        <time>2022-07-02T12:50:25Z</time>
      </trkpt>
      <trkpt lat="43.29767" lon="-1.7315326">
        <time>2022-07-02T12:50:27Z</time>
      </trkpt>
      <trkpt lat="43.297573" lon="-1.7314852">
        <time>2022-07-02T12:50:29Z</time>
      </trkpt>
      <trkpt lat="43.297485" lon="-1.7314372">
        <time>2022-07-02T12:50:31Z</time>
      </trkpt>
      <trkpt lat="43.29744" lon="-1.7314153">
        <time>2022-07-02T12:50:32Z</time>
      </trkpt>
      <trkpt lat="43.297356" lon="-1.7313732">
        <time>2022-07-02T12:50:34Z</time>
      </trkpt>
      <trkpt lat="43.297276" lon="-1.7313299">
        <time>2022-07-02T12:50:36Z</time>
      </trkpt>
      <trkpt lat="43.297195" lon="-1.7312826">
        <time>2022-07-02T12:50:38Z</time>
      </trkpt>
      <trkpt lat="43.29711" lon="-1.731234">
        <time>2022-07-02T12:50:40Z</time>
      </trkpt>
      <trkpt lat="43.297066" lon="-1.7312102">
        <time>2022-07-02T12:50:41Z</time>
      </trkpt>
      <trkpt lat="43.296974" lon="-1.7311646">
        <time>2022-07-02T12:50:43Z</time>
      </trkpt>
      <trkpt lat="43.296886" lon="-1.7311189">
        <time>2022-07-02T12:50:45Z</time>
      </trkpt>
      <trkpt lat="43.296803" lon="-1.7310696">
        <time>2022-07-02T12:50:47Z</time>
      </trkpt>
      <trkpt lat="43.29672" lon="-1.7310153">
        <time>2022-07-02T12:50:49Z</time>
      </trkpt>
      <trkpt lat="43.296673" lon="-1.7309883">
        <time>2022-07-02T12:50:50Z</time>
      </trkpt>
      <trkpt lat="43.296585" lon="-1.7309359">
        <time>2022-07-02T12:50:52Z</time>
      </trkpt>
      <trkpt lat="43.29654" lon="-1.730911">
        <time>2022-07-02T12:50:53Z</time>
      </trkpt>
      <trkpt lat="43.296448" lon="-1.7308663">
        <time>2022-07-02T12:50:55Z</time>
      </trkpt>
      <trkpt lat="43.296352" lon="-1.7308296">
        <time>2022-07-02T12:50:57Z</time>
      </trkpt>
      <trkpt lat="43.296307" lon="-1.7308133">
        <time>2022-07-02T12:50:58Z</time>
      </trkpt>
      <trkpt lat="43.296215" lon="-1.730782">
        <time>2022-07-02T12:51:00Z</time>
      </trkpt>
      <trkpt lat="43.296165" lon="-1.7307683">
        <time>2022-07-02T12:51:01Z</time>
      </trkpt>
      <trkpt lat="43.296074" lon="-1.7307433">
        <time>2022-07-02T12:51:03Z</time>
      </trkpt>
      <trkpt lat="43.296024" lon="-1.7307307">
        <time>2022-07-02T12:51:04Z</time>
      </trkpt>
      <trkpt lat="43.29592" lon="-1.7306967">
        <time>2022-07-02T12:51:06Z</time>
      </trkpt>
      <trkpt lat="43.29587" lon="-1.7306733">
        <time>2022-07-02T12:51:07Z</time>
      </trkpt>
      <trkpt lat="43.295826" lon="-1.730648">
        <time>2022-07-02T12:51:08Z</time>
      </trkpt>
      <trkpt lat="43.29573" lon="-1.7305946">
        <time>2022-07-02T12:51:10Z</time>
      </trkpt>
      <trkpt lat="43.295685" lon="-1.7305627">
        <time>2022-07-02T12:51:11Z</time>
      </trkpt>
      <trkpt lat="43.295605" lon="-1.7304933">
        <time>2022-07-02T12:51:13Z</time>
      </trkpt>
      <trkpt lat="43.295532" lon="-1.730419">
        <time>2022-07-02T12:51:15Z</time>
      </trkpt>
      <trkpt lat="43.29547" lon="-1.7303377">
        <time>2022-07-02T12:51:17Z</time>
      </trkpt>
      <trkpt lat="43.295406" lon="-1.730252">
        <time>2022-07-02T12:51:19Z</time>
      </trkpt>
      <trkpt lat="43.295345" lon="-1.730172">
        <time>2022-07-02T12:51:21Z</time>
      </trkpt>
      <trkpt lat="43.295284" lon="-1.7300993">
        <time>2022-07-02T12:51:23Z</time>
      </trkpt>
      <trkpt lat="43.295227" lon="-1.7300254">
        <time>2022-07-02T12:51:25Z</time>
      </trkpt>
      <trkpt lat="43.295162" lon="-1.7299557">
        <time>2022-07-02T12:51:27Z</time>
      </trkpt>
      <trkpt lat="43.2951" lon="-1.7298853">
        <time>2022-07-02T12:51:29Z</time>
      </trkpt>
      <trkpt lat="43.295036" lon="-1.7298167">
        <time>2022-07-02T12:51:31Z</time>
      </trkpt>
      <trkpt lat="43.294968" lon="-1.7297541">
        <time>2022-07-02T12:51:33Z</time>
      </trkpt>
      <trkpt lat="43.294895" lon="-1.729701">
        <time>2022-07-02T12:51:35Z</time>
      </trkpt>
      <trkpt lat="43.294823" lon="-1.729652">
        <time>2022-07-02T12:51:37Z</time>
      </trkpt>
      <trkpt lat="43.294754" lon="-1.7296057">
        <time>2022-07-02T12:51:39Z</time>
      </trkpt>
      <trkpt lat="43.29468" lon="-1.729568">
        <time>2022-07-02T12:51:41Z</time>
      </trkpt>
      <trkpt lat="43.29461" lon="-1.7295418">
        <time>2022-07-02T12:51:43Z</time>
      </trkpt>
      <trkpt lat="43.294548" lon="-1.729526">
        <time>2022-07-02T12:51:45Z</time>
      </trkpt>
      <trkpt lat="43.294495" lon="-1.7295201">
        <time>2022-07-02T12:51:47Z</time>
      </trkpt>
      <trkpt lat="43.29443" lon="-1.7295234">
        <time>2022-07-02T12:51:50Z</time>
      </trkpt>
      <trkpt lat="43.29437" lon="-1.7295353">
        <time>2022-07-02T12:51:53Z</time>
      </trkpt>
      <trkpt lat="43.294296" lon="-1.729534">
        <time>2022-07-02T12:51:56Z</time>
      </trkpt>
      <trkpt lat="43.29424" lon="-1.7295418">
        <time>2022-07-02T12:51:58Z</time>
      </trkpt>
      <trkpt lat="43.294178" lon="-1.7295524">
        <time>2022-07-02T12:52:00Z</time>
      </trkpt>
      <trkpt lat="43.294117" lon="-1.7295674">
        <time>2022-07-02T12:52:02Z</time>
      </trkpt>
      <trkpt lat="43.294033" lon="-1.7296014">
        <time>2022-07-02T12:52:07Z</time>
      </trkpt>
      <trkpt lat="43.29398" lon="-1.7296227">
        <time>2022-07-02T12:52:08Z</time>
      </trkpt>
      <trkpt lat="43.29393" lon="-1.7296394">
        <time>2022-07-02T12:52:09Z</time>
      </trkpt>
      <trkpt lat="43.29388" lon="-1.7296504">
        <time>2022-07-02T12:52:10Z</time>
      </trkpt>
      <trkpt lat="43.293785" lon="-1.729663">
        <time>2022-07-02T12:52:12Z</time>
      </trkpt>
      <trkpt lat="43.293697" lon="-1.7296727">
        <time>2022-07-02T12:52:14Z</time>
      </trkpt>
      <trkpt lat="43.293617" lon="-1.7296821">
        <time>2022-07-02T12:52:16Z</time>
      </trkpt>
      <trkpt lat="43.293545" lon="-1.7296953">
        <time>2022-07-02T12:52:18Z</time>
      </trkpt>
      <trkpt lat="43.293472" lon="-1.7297057">
        <time>2022-07-02T12:52:20Z</time>
      </trkpt>
      <trkpt lat="43.29341" lon="-1.729709">
        <time>2022-07-02T12:52:22Z</time>
      </trkpt>
      <trkpt lat="43.29336" lon="-1.7297083">
        <time>2022-07-02T12:52:24Z</time>
      </trkpt>
      <trkpt lat="43.293312" lon="-1.7297124">
        <time>2022-07-02T12:52:26Z</time>
      </trkpt>
      <trkpt lat="43.293262" lon="-1.7297297">
        <time>2022-07-02T12:52:28Z</time>
      </trkpt>
      <trkpt lat="43.293205" lon="-1.7297723">
        <time>2022-07-02T12:52:31Z</time>
      </trkpt>
      <trkpt lat="43.293156" lon="-1.7298094">
        <time>2022-07-02T12:52:34Z</time>
      </trkpt>
      <trkpt lat="43.293102" lon="-1.729844">
        <time>2022-07-02T12:52:37Z</time>
      </trkpt>
      <trkpt lat="43.293034" lon="-1.7298803">
        <time>2022-07-02T12:52:40Z</time>
      </trkpt>
      <trkpt lat="43.292984" lon="-1.7299057">
        <time>2022-07-02T12:52:42Z</time>
      </trkpt>
      <trkpt lat="43.292927" lon="-1.7299213">
        <time>2022-07-02T12:52:44Z</time>
      </trkpt>
      <trkpt lat="43.29287" lon="-1.7299247">
        <time>2022-07-02T12:52:46Z</time>
      </trkpt>
      <trkpt lat="43.292805" lon="-1.7299163">
        <time>2022-07-02T12:52:48Z</time>
      </trkpt>
      <trkpt lat="43.292744" lon="-1.7299087">
        <time>2022-07-02T12:52:50Z</time>
      </trkpt>
      <trkpt lat="43.292675" lon="-1.729909">
        <time>2022-07-02T12:52:52Z</time>
      </trkpt>
      <trkpt lat="43.292606" lon="-1.7299033">
        <time>2022-07-02T12:52:54Z</time>
      </trkpt>
      <trkpt lat="43.292538" lon="-1.7298894">
        <time>2022-07-02T12:52:56Z</time>
      </trkpt>
      <trkpt lat="43.292473" lon="-1.7298673">
        <time>2022-07-02T12:52:58Z</time>
      </trkpt>
      <trkpt lat="43.292408" lon="-1.7298326">
        <time>2022-07-02T12:53:00Z</time>
      </trkpt>
      <trkpt lat="43.292347" lon="-1.7297894">
        <time>2022-07-02T12:53:02Z</time>
      </trkpt>
      <trkpt lat="43.292294" lon="-1.729745">
        <time>2022-07-02T12:53:04Z</time>
      </trkpt>
      <trkpt lat="43.292244" lon="-1.729705">
        <time>2022-07-02T12:53:06Z</time>
      </trkpt>
      <trkpt lat="43.2922" lon="-1.7296786">
        <time>2022-07-02T12:53:08Z</time>
      </trkpt>
      <trkpt lat="43.292145" lon="-1.729658">
        <time>2022-07-02T12:53:10Z</time>
      </trkpt>
      <trkpt lat="43.29209" lon="-1.729627">
        <time>2022-07-02T12:53:12Z</time>
      </trkpt>
      <trkpt lat="43.292034" lon="-1.7295873">
        <time>2022-07-02T12:53:14Z</time>
      </trkpt>
      <trkpt lat="43.291977" lon="-1.7295487">
        <time>2022-07-02T12:53:16Z</time>
      </trkpt>
      <trkpt lat="43.29192" lon="-1.7295024">
        <time>2022-07-02T12:53:18Z</time>
      </trkpt>
      <trkpt lat="43.291866" lon="-1.7294503">
        <time>2022-07-02T12:53:20Z</time>
      </trkpt>
      <trkpt lat="43.291813" lon="-1.7293928">
        <time>2022-07-02T12:53:22Z</time>
      </trkpt>
      <trkpt lat="43.29176" lon="-1.7293267">
        <time>2022-07-02T12:53:24Z</time>
      </trkpt>
      <trkpt lat="43.29171" lon="-1.7292517">
        <time>2022-07-02T12:53:26Z</time>
      </trkpt>
      <trkpt lat="43.291664" lon="-1.7291614">
        <time>2022-07-02T12:53:28Z</time>
      </trkpt>
      <trkpt lat="43.291626" lon="-1.729048">
        <time>2022-07-02T12:53:30Z</time>
      </trkpt>
      <trkpt lat="43.29159" lon="-1.7289354">
        <time>2022-07-02T12:53:32Z</time>
      </trkpt>
      <trkpt lat="43.291553" lon="-1.7288218">
        <time>2022-07-02T12:53:34Z</time>
      </trkpt>
      <trkpt lat="43.291508" lon="-1.7287164">
        <time>2022-07-02T12:53:36Z</time>
      </trkpt>
      <trkpt lat="43.291462" lon="-1.7286237">
        <time>2022-07-02T12:53:38Z</time>
      </trkpt>
      <trkpt lat="43.291428" lon="-1.7285384">
        <time>2022-07-02T12:53:40Z</time>
      </trkpt>
      <trkpt lat="43.29139" lon="-1.7284644">
        <time>2022-07-02T12:53:42Z</time>
      </trkpt>
      <trkpt lat="43.29135" lon="-1.7283901">
        <time>2022-07-02T12:53:44Z</time>
      </trkpt>
      <trkpt lat="43.291313" lon="-1.7283174">
        <time>2022-07-02T12:53:46Z</time>
      </trkpt>
      <trkpt lat="43.29127" lon="-1.7282414">
        <time>2022-07-02T12:53:48Z</time>
      </trkpt>
      <trkpt lat="43.29123" lon="-1.728162">
        <time>2022-07-02T12:53:50Z</time>
      </trkpt>
      <trkpt lat="43.29119" lon="-1.7280787">
        <time>2022-07-02T12:53:52Z</time>
      </trkpt>
      <trkpt lat="43.291153" lon="-1.7279911">
        <time>2022-07-02T12:53:54Z</time>
      </trkpt>
      <trkpt lat="43.291122" lon="-1.7278998">
        <time>2022-07-02T12:53:56Z</time>
      </trkpt>
      <trkpt lat="43.291092" lon="-1.7278011">
        <time>2022-07-02T12:53:58Z</time>
      </trkpt>
      <trkpt lat="43.291073" lon="-1.7277001">
        <time>2022-07-02T12:54:00Z</time>
      </trkpt>
      <trkpt lat="43.291065" lon="-1.7276021">
        <time>2022-07-02T12:54:02Z</time>
      </trkpt>
      <trkpt lat="43.291058" lon="-1.7275225">
        <time>2022-07-02T12:54:04Z</time>
      </trkpt>
      <trkpt lat="43.291058" lon="-1.7274498">
        <time>2022-07-02T12:54:06Z</time>
      </trkpt>
      <trkpt lat="43.291058" lon="-1.7273768">
        <time>2022-07-02T12:54:08Z</time>
      </trkpt>
      <trkpt lat="43.291065" lon="-1.7273015">
        <time>2022-07-02T12:54:10Z</time>
      </trkpt>
      <trkpt lat="43.291077" lon="-1.7272072">
        <time>2022-07-02T12:54:13Z</time>
      </trkpt>
      <trkpt lat="43.291077" lon="-1.7271261">
        <time>2022-07-02T12:54:16Z</time>
      </trkpt>
      <trkpt lat="43.29108" lon="-1.7270322">
        <time>2022-07-02T12:54:19Z</time>
      </trkpt>
      <trkpt lat="43.29108" lon="-1.7269218">
        <time>2022-07-02T12:54:22Z</time>
      </trkpt>
      <trkpt lat="43.29109" lon="-1.7268378">
        <time>2022-07-02T12:54:24Z</time>
      </trkpt>
      <trkpt lat="43.2911" lon="-1.7267525">
        <time>2022-07-02T12:54:26Z</time>
      </trkpt>
      <trkpt lat="43.29111" lon="-1.7266681">
        <time>2022-07-02T12:54:28Z</time>
      </trkpt>
      <trkpt lat="43.291126" lon="-1.7265902">
        <time>2022-07-02T12:54:30Z</time>
      </trkpt>
      <trkpt lat="43.29114" lon="-1.7265118">
        <time>2022-07-02T12:54:32Z</time>
      </trkpt>
      <trkpt lat="43.291153" lon="-1.7264352">
        <time>2022-07-02T12:54:34Z</time>
      </trkpt>
      <trkpt lat="43.291157" lon="-1.7263708">
        <time>2022-07-02T12:54:36Z</time>
      </trkpt>
      <trkpt lat="43.291145" lon="-1.7262812">
        <time>2022-07-02T12:54:39Z</time>
      </trkpt>
      <trkpt lat="43.291138" lon="-1.7261828">
        <time>2022-07-02T12:54:42Z</time>
      </trkpt>
      <trkpt lat="43.291145" lon="-1.7261049">
        <time>2022-07-02T12:54:44Z</time>
      </trkpt>
      <trkpt lat="43.29115" lon="-1.7260208">
        <time>2022-07-02T12:54:46Z</time>
      </trkpt>
      <trkpt lat="43.291145" lon="-1.7259295">
        <time>2022-07-02T12:54:48Z</time>
      </trkpt>
      <trkpt lat="43.291138" lon="-1.7258348">
        <time>2022-07-02T12:54:50Z</time>
      </trkpt>
      <trkpt lat="43.291126" lon="-1.7257435">
        <time>2022-07-02T12:54:52Z</time>
      </trkpt>
      <trkpt lat="43.291122" lon="-1.7256545">
        <time>2022-07-02T12:54:54Z</time>
      </trkpt>
      <trkpt lat="43.291122" lon="-1.7255652">
        <time>2022-07-02T12:54:56Z</time>
      </trkpt>
      <trkpt lat="43.29113" lon="-1.7254782">
        <time>2022-07-02T12:54:58Z</time>
      </trkpt>
      <trkpt lat="43.291138" lon="-1.7253885">
        <time>2022-07-02T12:55:00Z</time>
      </trkpt>
      <trkpt lat="43.291138" lon="-1.7252952">
        <time>2022-07-02T12:55:02Z</time>
      </trkpt>
      <trkpt lat="43.291138" lon="-1.7251972">
        <time>2022-07-02T12:55:04Z</time>
      </trkpt>
      <trkpt lat="43.29113" lon="-1.7251042">
        <time>2022-07-02T12:55:06Z</time>
      </trkpt>
      <trkpt lat="43.29113" lon="-1.7250118">
        <time>2022-07-02T12:55:08Z</time>
      </trkpt>
      <trkpt lat="43.291134" lon="-1.7249205">
        <time>2022-07-02T12:55:10Z</time>
      </trkpt>
      <trkpt lat="43.291138" lon="-1.7248282">
        <time>2022-07-02T12:55:12Z</time>
      </trkpt>
      <trkpt lat="43.29115" lon="-1.7247369">
        <time>2022-07-02T12:55:14Z</time>
      </trkpt>
      <trkpt lat="43.291157" lon="-1.7246453">
        <time>2022-07-02T12:55:16Z</time>
      </trkpt>
      <trkpt lat="43.291157" lon="-1.7245525">
        <time>2022-07-02T12:55:18Z</time>
      </trkpt>
      <trkpt lat="43.291157" lon="-1.7244592">
        <time>2022-07-02T12:55:20Z</time>
      </trkpt>
      <trkpt lat="43.29116" lon="-1.7243673">
        <time>2022-07-02T12:55:22Z</time>
      </trkpt>
      <trkpt lat="43.291164" lon="-1.7242782">
        <time>2022-07-02T12:55:24Z</time>
      </trkpt>
      <trkpt lat="43.291164" lon="-1.7241873">
        <time>2022-07-02T12:55:26Z</time>
      </trkpt>
      <trkpt lat="43.29116" lon="-1.7240949">
        <time>2022-07-02T12:55:28Z</time>
      </trkpt>
      <trkpt lat="43.291157" lon="-1.7240052">
        <time>2022-07-02T12:55:30Z</time>
      </trkpt>
      <trkpt lat="43.291153" lon="-1.7239139">
        <time>2022-07-02T12:55:32Z</time>
      </trkpt>
      <trkpt lat="43.291145" lon="-1.7238263">
        <time>2022-07-02T12:55:34Z</time>
      </trkpt>
      <trkpt lat="43.29114" lon="-1.7237302">
        <time>2022-07-02T12:55:36Z</time>
      </trkpt>
      <trkpt lat="43.291145" lon="-1.723632">
        <time>2022-07-02T12:55:38Z</time>
      </trkpt>
      <trkpt lat="43.29116" lon="-1.723527">
        <time>2022-07-02T12:55:40Z</time>
      </trkpt>
      <trkpt lat="43.291187" lon="-1.7234229">
        <time>2022-07-02T12:55:42Z</time>
      </trkpt>
      <trkpt lat="43.29121" lon="-1.7233166">
        <time>2022-07-02T12:55:44Z</time>
      </trkpt>
      <trkpt lat="43.291225" lon="-1.7232046">
        <time>2022-07-02T12:55:46Z</time>
      </trkpt>
      <trkpt lat="43.29124" lon="-1.7230909">
        <time>2022-07-02T12:55:48Z</time>
      </trkpt>
      <trkpt lat="43.29125" lon="-1.7229743">
        <time>2022-07-02T12:55:50Z</time>
      </trkpt>
      <trkpt lat="43.29125" lon="-1.7228553">
        <time>2022-07-02T12:55:52Z</time>
      </trkpt>
      <trkpt lat="43.29125" lon="-1.722749">
        <time>2022-07-02T12:55:54Z</time>
      </trkpt>
      <trkpt lat="43.291256" lon="-1.7226366">
        <time>2022-07-02T12:55:56Z</time>
      </trkpt>
      <trkpt lat="43.291267" lon="-1.7225217">
        <time>2022-07-02T12:55:58Z</time>
      </trkpt>
      <trkpt lat="43.291275" lon="-1.7224096">
        <time>2022-07-02T12:56:00Z</time>
      </trkpt>
      <trkpt lat="43.291283" lon="-1.7222869">
        <time>2022-07-02T12:56:02Z</time>
      </trkpt>
      <trkpt lat="43.291283" lon="-1.722162">
        <time>2022-07-02T12:56:04Z</time>
      </trkpt>
      <trkpt lat="43.29128" lon="-1.7220386">
        <time>2022-07-02T12:56:06Z</time>
      </trkpt>
      <trkpt lat="43.291275" lon="-1.7219193">
        <time>2022-07-02T12:56:08Z</time>
      </trkpt>
      <trkpt lat="43.29127" lon="-1.7218043">
        <time>2022-07-02T12:56:10Z</time>
      </trkpt>
      <trkpt lat="43.291267" lon="-1.7216923">
        <time>2022-07-02T12:56:12Z</time>
      </trkpt>
      <trkpt lat="43.291267" lon="-1.7215856">
        <time>2022-07-02T12:56:14Z</time>
      </trkpt>
      <trkpt lat="43.29127" lon="-1.7214806">
        <time>2022-07-02T12:56:16Z</time>
      </trkpt>
      <trkpt lat="43.291275" lon="-1.7213746">
        <time>2022-07-02T12:56:18Z</time>
      </trkpt>
      <trkpt lat="43.29128" lon="-1.7212746">
        <time>2022-07-02T12:56:20Z</time>
      </trkpt>
      <trkpt lat="43.291283" lon="-1.7211744">
        <time>2022-07-02T12:56:22Z</time>
      </trkpt>
      <trkpt lat="43.291283" lon="-1.7210743">
        <time>2022-07-02T12:56:24Z</time>
      </trkpt>
      <trkpt lat="43.29128" lon="-1.7209773">
        <time>2022-07-02T12:56:26Z</time>
      </trkpt>
      <trkpt lat="43.291283" lon="-1.7208786">
        <time>2022-07-02T12:56:28Z</time>
      </trkpt>
      <trkpt lat="43.291283" lon="-1.7207847">
        <time>2022-07-02T12:56:30Z</time>
      </trkpt>
      <trkpt lat="43.29128" lon="-1.7206933">
        <time>2022-07-02T12:56:32Z</time>
      </trkpt>
      <trkpt lat="43.291275" lon="-1.7206047">
        <time>2022-07-02T12:56:34Z</time>
      </trkpt>
      <trkpt lat="43.29128" lon="-1.7205154">
        <time>2022-07-02T12:56:36Z</time>
      </trkpt>
      <trkpt lat="43.291286" lon="-1.720423">
        <time>2022-07-02T12:56:38Z</time>
      </trkpt>
      <trkpt lat="43.291294" lon="-1.7203293">
        <time>2022-07-02T12:56:40Z</time>
      </trkpt>
      <trkpt lat="43.291294" lon="-1.7202324">
        <time>2022-07-02T12:56:42Z</time>
      </trkpt>
      <trkpt lat="43.291294" lon="-1.7201374">
        <time>2022-07-02T12:56:44Z</time>
      </trkpt>
      <trkpt lat="43.29129" lon="-1.7200453">
        <time>2022-07-02T12:56:46Z</time>
      </trkpt>
      <trkpt lat="43.291286" lon="-1.7199596">
        <time>2022-07-02T12:56:48Z</time>
      </trkpt>
      <trkpt lat="43.291283" lon="-1.719869">
        <time>2022-07-02T12:56:50Z</time>
      </trkpt>
      <trkpt lat="43.29128" lon="-1.71978">
        <time>2022-07-02T12:56:52Z</time>
      </trkpt>
      <trkpt lat="43.291275" lon="-1.7196914">
        <time>2022-07-02T12:56:54Z</time>
      </trkpt>
      <trkpt lat="43.291264" lon="-1.719605">
        <time>2022-07-02T12:56:56Z</time>
      </trkpt>
      <trkpt lat="43.29125" lon="-1.7195277">
        <time>2022-07-02T12:56:58Z</time>
      </trkpt>
      <trkpt lat="43.29123" lon="-1.7194487">
        <time>2022-07-02T12:57:00Z</time>
      </trkpt>
      <trkpt lat="43.29121" lon="-1.7193683">
        <time>2022-07-02T12:57:02Z</time>
      </trkpt>
      <trkpt lat="43.2912" lon="-1.719287">
        <time>2022-07-02T12:57:04Z</time>
      </trkpt>
      <trkpt lat="43.291187" lon="-1.719205">
        <time>2022-07-02T12:57:06Z</time>
      </trkpt>
      <trkpt lat="43.290947" lon="-1.7178453">
        <time>2022-07-02T12:57:39Z</time>
      </trkpt>
      <trkpt lat="43.2908" lon="-1.7173043">
        <time>2022-07-02T12:57:55Z</time>
      </trkpt>
      <trkpt lat="43.2908" lon="-1.7171934">
        <time>2022-07-02T12:57:59Z</time>
      </trkpt>
      <trkpt lat="43.29079" lon="-1.7171108">
        <time>2022-07-02T12:58:02Z</time>
      </trkpt>
      <trkpt lat="43.290787" lon="-1.717036">
        <time>2022-07-02T12:58:06Z</time>
      </trkpt>
      <trkpt lat="43.290775" lon="-1.7169048">
        <time>2022-07-02T12:59:16Z</time>
      </trkpt>
      <trkpt lat="43.29076" lon="-1.7168174">
        <time>2022-07-02T12:59:19Z</time>
      </trkpt>
      <trkpt lat="43.29075" lon="-1.7167114">
        <time>2022-07-02T12:59:22Z</time>
      </trkpt>
      <trkpt lat="43.290745" lon="-1.7165897">
        <time>2022-07-02T12:59:26Z</time>
      </trkpt>
      <trkpt lat="43.290737" lon="-1.7164881">
        <time>2022-07-02T12:59:28Z</time>
      </trkpt>
      <trkpt lat="43.29072" lon="-1.7164034">
        <time>2022-07-02T12:59:30Z</time>
      </trkpt>
      <trkpt lat="43.29071" lon="-1.7163234">
        <time>2022-07-02T12:59:32Z</time>
      </trkpt>
      <trkpt lat="43.29069" lon="-1.7162414">
        <time>2022-07-02T12:59:34Z</time>
      </trkpt>
      <trkpt lat="43.290676" lon="-1.7161574">
        <time>2022-07-02T12:59:36Z</time>
      </trkpt>
      <trkpt lat="43.290665" lon="-1.7160767">
        <time>2022-07-02T12:59:38Z</time>
      </trkpt>
      <trkpt lat="43.29065" lon="-1.7159914">
        <time>2022-07-02T12:59:40Z</time>
      </trkpt>
      <trkpt lat="43.290634" lon="-1.7159088">
        <time>2022-07-02T12:59:42Z</time>
      </trkpt>
      <trkpt lat="43.290623" lon="-1.7158267">
        <time>2022-07-02T12:59:44Z</time>
      </trkpt>
      <trkpt lat="43.290607" lon="-1.7157488">
        <time>2022-07-02T12:59:46Z</time>
      </trkpt>
      <trkpt lat="43.290592" lon="-1.7156671">
        <time>2022-07-02T12:59:48Z</time>
      </trkpt>
      <trkpt lat="43.29057" lon="-1.7155901">
        <time>2022-07-02T12:59:50Z</time>
      </trkpt>
      <trkpt lat="43.29055" lon="-1.7155105">
        <time>2022-07-02T12:59:52Z</time>
      </trkpt>
      <trkpt lat="43.29054" lon="-1.7154274">
        <time>2022-07-02T12:59:54Z</time>
      </trkpt>
      <trkpt lat="43.29053" lon="-1.7153461">
        <time>2022-07-02T12:59:56Z</time>
      </trkpt>
      <trkpt lat="43.290524" lon="-1.7152611">
        <time>2022-07-02T12:59:58Z</time>
      </trkpt>
      <trkpt lat="43.290504" lon="-1.7151768">
        <time>2022-07-02T13:00:00Z</time>
      </trkpt>
      <trkpt lat="43.290485" lon="-1.7150921">
        <time>2022-07-02T13:00:02Z</time>
      </trkpt>
      <trkpt lat="43.29047" lon="-1.7150052">
        <time>2022-07-02T13:00:04Z</time>
      </trkpt>
      <trkpt lat="43.290455" lon="-1.7149152">
        <time>2022-07-02T13:00:06Z</time>
      </trkpt>
      <trkpt lat="43.29044" lon="-1.7148228">
        <time>2022-07-02T13:00:08Z</time>
      </trkpt>
      <trkpt lat="43.29043" lon="-1.7147315">
        <time>2022-07-02T13:00:10Z</time>
      </trkpt>
      <trkpt lat="43.290413" lon="-1.7146451">
        <time>2022-07-02T13:00:12Z</time>
      </trkpt>
      <trkpt lat="43.290398" lon="-1.7145559">
        <time>2022-07-02T13:00:14Z</time>
      </trkpt>
      <trkpt lat="43.29038" lon="-1.7144701">
        <time>2022-07-02T13:00:16Z</time>
      </trkpt>
      <trkpt lat="43.29036" lon="-1.7143842">
        <time>2022-07-02T13:00:18Z</time>
      </trkpt>
      <trkpt lat="43.290337" lon="-1.7142955">
        <time>2022-07-02T13:00:20Z</time>
      </trkpt>
      <trkpt lat="43.29032" lon="-1.7142072">
        <time>2022-07-02T13:00:22Z</time>
      </trkpt>
      <trkpt lat="43.290306" lon="-1.7141198">
        <time>2022-07-02T13:00:24Z</time>
      </trkpt>
      <trkpt lat="43.29029" lon="-1.7140305">
        <time>2022-07-02T13:00:26Z</time>
      </trkpt>
      <trkpt lat="43.290276" lon="-1.7139422">
        <time>2022-07-02T13:00:28Z</time>
      </trkpt>
      <trkpt lat="43.29026" lon="-1.7138525">
        <time>2022-07-02T13:00:30Z</time>
      </trkpt>
      <trkpt lat="43.29024" lon="-1.7137672">
        <time>2022-07-02T13:00:32Z</time>
      </trkpt>
      <trkpt lat="43.290222" lon="-1.7136818">
        <time>2022-07-02T13:00:34Z</time>
      </trkpt>
      <trkpt lat="43.290203" lon="-1.7135985">
        <time>2022-07-02T13:00:36Z</time>
      </trkpt>
      <trkpt lat="43.28839" lon="-1.7124956">
        <time>2022-07-02T13:01:31Z</time>
      </trkpt>
      <trkpt lat="43.287994" lon="-1.7127159">
        <time>2022-07-02T13:01:47Z</time>
      </trkpt>
      <trkpt lat="43.28792" lon="-1.7127422">
        <time>2022-07-02T13:01:50Z</time>
      </trkpt>
      <trkpt lat="43.287857" lon="-1.7127725">
        <time>2022-07-02T13:01:52Z</time>
      </trkpt>
      <trkpt lat="43.287785" lon="-1.7128042">
        <time>2022-07-02T13:01:54Z</time>
      </trkpt>
      <trkpt lat="43.287716" lon="-1.7128332">
        <time>2022-07-02T13:01:56Z</time>
      </trkpt>
      <trkpt lat="43.287647" lon="-1.7128578">
        <time>2022-07-02T13:01:58Z</time>
      </trkpt>
      <trkpt lat="43.287575" lon="-1.7128844">
        <time>2022-07-02T13:02:00Z</time>
      </trkpt>
      <trkpt lat="43.287502" lon="-1.7129074">
        <time>2022-07-02T13:02:02Z</time>
      </trkpt>
      <trkpt lat="43.287434" lon="-1.7129238">
        <time>2022-07-02T13:02:04Z</time>
      </trkpt>
      <trkpt lat="43.287373" lon="-1.7129428">
        <time>2022-07-02T13:02:06Z</time>
      </trkpt>
      <trkpt lat="43.28731" lon="-1.7129608">
        <time>2022-07-02T13:02:08Z</time>
      </trkpt>
      <trkpt lat="43.287254" lon="-1.7129731">
        <time>2022-07-02T13:02:10Z</time>
      </trkpt>
      <trkpt lat="43.287193" lon="-1.7129788">
        <time>2022-07-02T13:02:12Z</time>
      </trkpt>
      <trkpt lat="43.28713" lon="-1.7129815">
        <time>2022-07-02T13:02:14Z</time>
      </trkpt>
      <trkpt lat="43.28706" lon="-1.7129791">
        <time>2022-07-02T13:02:16Z</time>
      </trkpt>
      <trkpt lat="43.286995" lon="-1.7129735">
        <time>2022-07-02T13:02:18Z</time>
      </trkpt>
      <trkpt lat="43.28693" lon="-1.7129685">
        <time>2022-07-02T13:02:20Z</time>
      </trkpt>
      <trkpt lat="43.28686" lon="-1.7129629">
        <time>2022-07-02T13:02:22Z</time>
      </trkpt>
      <trkpt lat="43.286793" lon="-1.7129548">
        <time>2022-07-02T13:02:24Z</time>
      </trkpt>
      <trkpt lat="43.286728" lon="-1.7129451">
        <time>2022-07-02T13:02:26Z</time>
      </trkpt>
      <trkpt lat="43.286663" lon="-1.7129399">
        <time>2022-07-02T13:02:28Z</time>
      </trkpt>
      <trkpt lat="43.28659" lon="-1.7129308">
        <time>2022-07-02T13:02:30Z</time>
      </trkpt>
      <trkpt lat="43.286522" lon="-1.7129132">
        <time>2022-07-02T13:02:32Z</time>
      </trkpt>
      <trkpt lat="43.28645" lon="-1.7128992">
        <time>2022-07-02T13:02:34Z</time>
      </trkpt>
      <trkpt lat="43.286373" lon="-1.7128915">
        <time>2022-07-02T13:02:36Z</time>
      </trkpt>
      <trkpt lat="43.2863" lon="-1.7128822">
        <time>2022-07-02T13:02:38Z</time>
      </trkpt>
      <trkpt lat="43.28623" lon="-1.7128712">
        <time>2022-07-02T13:02:40Z</time>
      </trkpt>
      <trkpt lat="43.286148" lon="-1.7128575">
        <time>2022-07-02T13:02:42Z</time>
      </trkpt>
      <trkpt lat="43.286076" lon="-1.7128452">
        <time>2022-07-02T13:02:44Z</time>
      </trkpt>
      <trkpt lat="43.286" lon="-1.7128289">
        <time>2022-07-02T13:02:46Z</time>
      </trkpt>
      <trkpt lat="43.28592" lon="-1.7128112">
        <time>2022-07-02T13:02:48Z</time>
      </trkpt>
      <trkpt lat="43.285835" lon="-1.7127972">
        <time>2022-07-02T13:02:50Z</time>
      </trkpt>
      <trkpt lat="43.285755" lon="-1.7127899">
        <time>2022-07-02T13:02:52Z</time>
      </trkpt>
      <trkpt lat="43.285683" lon="-1.7127916">
        <time>2022-07-02T13:02:54Z</time>
      </trkpt>
      <trkpt lat="43.285606" lon="-1.7128001">
        <time>2022-07-02T13:02:56Z</time>
      </trkpt>
      <trkpt lat="43.285538" lon="-1.7128131">
        <time>2022-07-02T13:02:58Z</time>
      </trkpt>
      <trkpt lat="43.28547" lon="-1.7128278">
        <time>2022-07-02T13:03:00Z</time>
      </trkpt>
      <trkpt lat="43.285393" lon="-1.7128369">
        <time>2022-07-02T13:03:02Z</time>
      </trkpt>
      <trkpt lat="43.285324" lon="-1.7128412">
        <time>2022-07-02T13:03:04Z</time>
      </trkpt>
      <trkpt lat="43.28526" lon="-1.7128505">
        <time>2022-07-02T13:03:06Z</time>
      </trkpt>
      <trkpt lat="43.285194" lon="-1.7128712">
        <time>2022-07-02T13:03:08Z</time>
      </trkpt>
      <trkpt lat="43.285133" lon="-1.7128922">
        <time>2022-07-02T13:03:10Z</time>
      </trkpt>
      <trkpt lat="43.285065" lon="-1.7129205">
        <time>2022-07-02T13:03:12Z</time>
      </trkpt>
      <trkpt lat="43.284992" lon="-1.7129518">
        <time>2022-07-02T13:03:14Z</time>
      </trkpt>
      <trkpt lat="43.28492" lon="-1.7129878">
        <time>2022-07-02T13:03:16Z</time>
      </trkpt>
      <trkpt lat="43.284836" lon="-1.7130332">
        <time>2022-07-02T13:03:18Z</time>
      </trkpt>
      <trkpt lat="43.28475" lon="-1.7130818">
        <time>2022-07-02T13:03:20Z</time>
      </trkpt>
      <trkpt lat="43.284668" lon="-1.7131288">
        <time>2022-07-02T13:03:22Z</time>
      </trkpt>
      <trkpt lat="43.28459" lon="-1.7131778">
        <time>2022-07-02T13:03:24Z</time>
      </trkpt>
      <trkpt lat="43.28452" lon="-1.7132188">
        <time>2022-07-02T13:03:26Z</time>
      </trkpt>
      <trkpt lat="43.284443" lon="-1.7132545">
        <time>2022-07-02T13:03:28Z</time>
      </trkpt>
      <trkpt lat="43.284374" lon="-1.7132821">
        <time>2022-07-02T13:03:30Z</time>
      </trkpt>
      <trkpt lat="43.28431" lon="-1.7133021">
        <time>2022-07-02T13:03:32Z</time>
      </trkpt>
      <trkpt lat="43.283905" lon="-1.7136121">
        <time>2022-07-02T13:03:42Z</time>
      </trkpt>
      <trkpt lat="43.2839" lon="-1.7136002">
        <time>2022-07-02T13:03:43Z</time>
      </trkpt>
      <trkpt lat="43.283802" lon="-1.7136115">
        <time>2022-07-02T13:03:47Z</time>
      </trkpt>
      <trkpt lat="43.283722" lon="-1.7136282">
        <time>2022-07-02T13:03:49Z</time>
      </trkpt>
      <trkpt lat="43.28365" lon="-1.7136351">
        <time>2022-07-02T13:03:51Z</time>
      </trkpt>
      <trkpt lat="43.283577" lon="-1.7136494">
        <time>2022-07-02T13:03:53Z</time>
      </trkpt>
      <trkpt lat="43.283497" lon="-1.7136761">
        <time>2022-07-02T13:03:55Z</time>
      </trkpt>
      <trkpt lat="43.28341" lon="-1.7137111">
        <time>2022-07-02T13:03:57Z</time>
      </trkpt>
      <trkpt lat="43.283314" lon="-1.7137641">
        <time>2022-07-02T13:03:59Z</time>
      </trkpt>
      <trkpt lat="43.283222" lon="-1.7138188">
        <time>2022-07-02T13:04:01Z</time>
      </trkpt>
      <trkpt lat="43.283176" lon="-1.7138422">
        <time>2022-07-02T13:04:02Z</time>
      </trkpt>
      <trkpt lat="43.283092" lon="-1.7138801">
        <time>2022-07-02T13:04:04Z</time>
      </trkpt>
      <trkpt lat="43.283016" lon="-1.7139161">
        <time>2022-07-02T13:04:06Z</time>
      </trkpt>
      <trkpt lat="43.282936" lon="-1.713955">
        <time>2022-07-02T13:04:08Z</time>
      </trkpt>
      <trkpt lat="43.28286" lon="-1.7139884">
        <time>2022-07-02T13:04:10Z</time>
      </trkpt>
      <trkpt lat="43.28278" lon="-1.7140131">
        <time>2022-07-02T13:04:12Z</time>
      </trkpt>
      <trkpt lat="43.282703" lon="-1.7140291">
        <time>2022-07-02T13:04:14Z</time>
      </trkpt>
      <trkpt lat="43.282627" lon="-1.7140354">
        <time>2022-07-02T13:04:16Z</time>
      </trkpt>
      <trkpt lat="43.28255" lon="-1.7140365">
        <time>2022-07-02T13:04:18Z</time>
      </trkpt>
      <trkpt lat="43.28247" lon="-1.71404">
        <time>2022-07-02T13:04:20Z</time>
      </trkpt>
      <trkpt lat="43.28239" lon="-1.7140437">
        <time>2022-07-02T13:04:22Z</time>
      </trkpt>
      <trkpt lat="43.282303" lon="-1.7140447">
        <time>2022-07-02T13:04:24Z</time>
      </trkpt>
      <trkpt lat="43.282215" lon="-1.7140461">
        <time>2022-07-02T13:04:26Z</time>
      </trkpt>
      <trkpt lat="43.282135" lon="-1.7140538">
        <time>2022-07-02T13:04:28Z</time>
      </trkpt>
      <trkpt lat="43.282055" lon="-1.7140644">
        <time>2022-07-02T13:04:30Z</time>
      </trkpt>
      <trkpt lat="43.281975" lon="-1.7140784">
        <time>2022-07-02T13:04:32Z</time>
      </trkpt>
      <trkpt lat="43.28189" lon="-1.7140934">
        <time>2022-07-02T13:04:34Z</time>
      </trkpt>
      <trkpt lat="43.281807" lon="-1.7141031">
        <time>2022-07-02T13:04:36Z</time>
      </trkpt>
      <trkpt lat="43.28172" lon="-1.714107">
        <time>2022-07-02T13:04:38Z</time>
      </trkpt>
      <trkpt lat="43.28163" lon="-1.714113">
        <time>2022-07-02T13:04:40Z</time>
      </trkpt>
      <trkpt lat="43.281548" lon="-1.7141207">
        <time>2022-07-02T13:04:42Z</time>
      </trkpt>
      <trkpt lat="43.281406" lon="-1.7141393">
        <time>2022-07-02T13:04:45Z</time>
      </trkpt>
      <trkpt lat="43.28135" lon="-1.7141484">
        <time>2022-07-02T13:04:46Z</time>
      </trkpt>
      <trkpt lat="43.28125" lon="-1.714164">
        <time>2022-07-02T13:04:48Z</time>
      </trkpt>
      <trkpt lat="43.28116" lon="-1.7141694">
        <time>2022-07-02T13:04:50Z</time>
      </trkpt>
      <trkpt lat="43.281067" lon="-1.714169">
        <time>2022-07-02T13:04:52Z</time>
      </trkpt>
      <trkpt lat="43.28098" lon="-1.714176">
        <time>2022-07-02T13:04:54Z</time>
      </trkpt>
      <trkpt lat="43.280888" lon="-1.7141911">
        <time>2022-07-02T13:04:56Z</time>
      </trkpt>
      <trkpt lat="43.2808" lon="-1.714201">
        <time>2022-07-02T13:04:58Z</time>
      </trkpt>
      <trkpt lat="43.28072" lon="-1.7142013">
        <time>2022-07-02T13:05:00Z</time>
      </trkpt>
      <trkpt lat="43.280636" lon="-1.7141978">
        <time>2022-07-02T13:05:02Z</time>
      </trkpt>
      <trkpt lat="43.280556" lon="-1.7141947">
        <time>2022-07-02T13:05:04Z</time>
      </trkpt>
      <trkpt lat="43.280476" lon="-1.7141997">
        <time>2022-07-02T13:05:06Z</time>
      </trkpt>
      <trkpt lat="43.28039" lon="-1.714198">
        <time>2022-07-02T13:05:08Z</time>
      </trkpt>
      <trkpt lat="43.280308" lon="-1.7141881">
        <time>2022-07-02T13:05:10Z</time>
      </trkpt>
      <trkpt lat="43.280228" lon="-1.7141731">
        <time>2022-07-02T13:05:12Z</time>
      </trkpt>
      <trkpt lat="43.28014" lon="-1.714159">
        <time>2022-07-02T13:05:14Z</time>
      </trkpt>
      <trkpt lat="43.280056" lon="-1.7141443">
        <time>2022-07-02T13:05:16Z</time>
      </trkpt>
      <trkpt lat="43.27997" lon="-1.714128">
        <time>2022-07-02T13:05:18Z</time>
      </trkpt>
      <trkpt lat="43.27988" lon="-1.7141087">
        <time>2022-07-02T13:05:20Z</time>
      </trkpt>
      <trkpt lat="43.279797" lon="-1.7140927">
        <time>2022-07-02T13:05:22Z</time>
      </trkpt>
      <trkpt lat="43.279716" lon="-1.714076">
        <time>2022-07-02T13:05:24Z</time>
      </trkpt>
      <trkpt lat="43.27964" lon="-1.7140564">
        <time>2022-07-02T13:05:26Z</time>
      </trkpt>
      <trkpt lat="43.27957" lon="-1.7140337">
        <time>2022-07-02T13:05:28Z</time>
      </trkpt>
      <trkpt lat="43.279503" lon="-1.714009">
        <time>2022-07-02T13:05:30Z</time>
      </trkpt>
      <trkpt lat="43.279434" lon="-1.7139888">
        <time>2022-07-02T13:05:32Z</time>
      </trkpt>
      <trkpt lat="43.279366" lon="-1.7139654">
        <time>2022-07-02T13:05:34Z</time>
      </trkpt>
      <trkpt lat="43.27929" lon="-1.7139407">
        <time>2022-07-02T13:05:36Z</time>
      </trkpt>
      <trkpt lat="43.279213" lon="-1.7139148">
        <time>2022-07-02T13:05:38Z</time>
      </trkpt>
      <trkpt lat="43.279133" lon="-1.7138904">
        <time>2022-07-02T13:05:40Z</time>
      </trkpt>
      <trkpt lat="43.279053" lon="-1.7138665">
        <time>2022-07-02T13:05:42Z</time>
      </trkpt>
      <trkpt lat="43.278942" lon="-1.7138188">
        <time>2022-07-02T13:05:45Z</time>
      </trkpt>
      <trkpt lat="43.278866" lon="-1.7137941">
        <time>2022-07-02T13:05:47Z</time>
      </trkpt>
      <trkpt lat="43.278793" lon="-1.7137711">
        <time>2022-07-02T13:05:49Z</time>
      </trkpt>
      <trkpt lat="43.278713" lon="-1.7137481">
        <time>2022-07-02T13:05:51Z</time>
      </trkpt>
      <trkpt lat="43.278637" lon="-1.7137258">
        <time>2022-07-02T13:05:53Z</time>
      </trkpt>
      <trkpt lat="43.278553" lon="-1.7136987">
        <time>2022-07-02T13:05:55Z</time>
      </trkpt>
      <trkpt lat="43.27847" lon="-1.7136722">
        <time>2022-07-02T13:05:57Z</time>
      </trkpt>
      <trkpt lat="43.27839" lon="-1.7136548">
        <time>2022-07-02T13:05:59Z</time>
      </trkpt>
      <trkpt lat="43.278313" lon="-1.7136332">
        <time>2022-07-02T13:06:01Z</time>
      </trkpt>
      <trkpt lat="43.278233" lon="-1.7136035">
        <time>2022-07-02T13:06:03Z</time>
      </trkpt>
      <trkpt lat="43.27815" lon="-1.7135729">
        <time>2022-07-02T13:06:05Z</time>
      </trkpt>
      <trkpt lat="43.27807" lon="-1.7135382">
        <time>2022-07-02T13:06:07Z</time>
      </trkpt>
      <trkpt lat="43.277985" lon="-1.7135098">
        <time>2022-07-02T13:06:09Z</time>
      </trkpt>
      <trkpt lat="43.277897" lon="-1.7134938">
        <time>2022-07-02T13:06:11Z</time>
      </trkpt>
      <trkpt lat="43.277817" lon="-1.7134799">
        <time>2022-07-02T13:06:13Z</time>
      </trkpt>
      <trkpt lat="43.277737" lon="-1.7134571">
        <time>2022-07-02T13:06:15Z</time>
      </trkpt>
      <trkpt lat="43.277657" lon="-1.7134348">
        <time>2022-07-02T13:06:17Z</time>
      </trkpt>
      <trkpt lat="43.27757" lon="-1.7134135">
        <time>2022-07-02T13:06:19Z</time>
      </trkpt>
      <trkpt lat="43.27749" lon="-1.7133884">
        <time>2022-07-02T13:06:21Z</time>
      </trkpt>
      <trkpt lat="43.277405" lon="-1.7133591">
        <time>2022-07-02T13:06:23Z</time>
      </trkpt>
      <trkpt lat="43.27732" lon="-1.7133312">
        <time>2022-07-02T13:06:25Z</time>
      </trkpt>
      <trkpt lat="43.277237" lon="-1.7133108">
        <time>2022-07-02T13:06:27Z</time>
      </trkpt>
      <trkpt lat="43.277157" lon="-1.7132921">
        <time>2022-07-02T13:06:29Z</time>
      </trkpt>
      <trkpt lat="43.277077" lon="-1.7132698">
        <time>2022-07-02T13:06:31Z</time>
      </trkpt>
      <trkpt lat="43.277" lon="-1.7132509">
        <time>2022-07-02T13:06:33Z</time>
      </trkpt>
      <trkpt lat="43.27692" lon="-1.7132316">
        <time>2022-07-02T13:06:35Z</time>
      </trkpt>
      <trkpt lat="43.276844" lon="-1.7132035">
        <time>2022-07-02T13:06:37Z</time>
      </trkpt>
      <trkpt lat="43.276764" lon="-1.7131705">
        <time>2022-07-02T13:06:39Z</time>
      </trkpt>
      <trkpt lat="43.276684" lon="-1.7131422">
        <time>2022-07-02T13:06:41Z</time>
      </trkpt>
      <trkpt lat="43.276608" lon="-1.7131149">
        <time>2022-07-02T13:06:43Z</time>
      </trkpt>
      <trkpt lat="43.276527" lon="-1.7130898">
        <time>2022-07-02T13:06:45Z</time>
      </trkpt>
      <trkpt lat="43.276447" lon="-1.7130718">
        <time>2022-07-02T13:06:47Z</time>
      </trkpt>
      <trkpt lat="43.276325" lon="-1.7130458">
        <time>2022-07-02T13:06:50Z</time>
      </trkpt>
      <trkpt lat="43.27624" lon="-1.7130272">
        <time>2022-07-02T13:06:52Z</time>
      </trkpt>
      <trkpt lat="43.276157" lon="-1.7130046">
        <time>2022-07-02T13:06:54Z</time>
      </trkpt>
      <trkpt lat="43.27608" lon="-1.7129805">
        <time>2022-07-02T13:06:56Z</time>
      </trkpt>
      <trkpt lat="43.276" lon="-1.7129589">
        <time>2022-07-02T13:06:58Z</time>
      </trkpt>
      <trkpt lat="43.275925" lon="-1.7129393">
        <time>2022-07-02T13:07:00Z</time>
      </trkpt>
      <trkpt lat="43.27585" lon="-1.7129169">
        <time>2022-07-02T13:07:02Z</time>
      </trkpt>
      <trkpt lat="43.27577" lon="-1.7128919">
        <time>2022-07-02T13:07:04Z</time>
      </trkpt>
      <trkpt lat="43.2757" lon="-1.7128679">
        <time>2022-07-02T13:07:06Z</time>
      </trkpt>
      <trkpt lat="43.27563" lon="-1.7128396">
        <time>2022-07-02T13:07:08Z</time>
      </trkpt>
      <trkpt lat="43.27556" lon="-1.712799">
        <time>2022-07-02T13:07:10Z</time>
      </trkpt>
      <trkpt lat="43.27549" lon="-1.7127492">
        <time>2022-07-02T13:07:12Z</time>
      </trkpt>
      <trkpt lat="43.275425" lon="-1.7126936">
        <time>2022-07-02T13:07:14Z</time>
      </trkpt>
      <trkpt lat="43.27536" lon="-1.7126282">
        <time>2022-07-02T13:07:16Z</time>
      </trkpt>
      <trkpt lat="43.275295" lon="-1.7125603">
        <time>2022-07-02T13:07:18Z</time>
      </trkpt>
      <trkpt lat="43.275238" lon="-1.712485">
        <time>2022-07-02T13:07:20Z</time>
      </trkpt>
      <trkpt lat="43.275185" lon="-1.712408">
        <time>2022-07-02T13:07:22Z</time>
      </trkpt>
      <trkpt lat="43.275135" lon="-1.7123266">
        <time>2022-07-02T13:07:24Z</time>
      </trkpt>
      <trkpt lat="43.275085" lon="-1.7122446">
        <time>2022-07-02T13:07:26Z</time>
      </trkpt>
      <trkpt lat="43.275043" lon="-1.7121569">
        <time>2022-07-02T13:07:28Z</time>
      </trkpt>
      <trkpt lat="43.275005" lon="-1.7120622">
        <time>2022-07-02T13:07:30Z</time>
      </trkpt>
      <trkpt lat="43.274963" lon="-1.7119616">
        <time>2022-07-02T13:07:32Z</time>
      </trkpt>
      <trkpt lat="43.274933" lon="-1.711859">
        <time>2022-07-02T13:07:34Z</time>
      </trkpt>
      <trkpt lat="43.274906" lon="-1.711756">
        <time>2022-07-02T13:07:36Z</time>
      </trkpt>
      <trkpt lat="43.274876" lon="-1.7116536">
        <time>2022-07-02T13:07:38Z</time>
      </trkpt>
      <trkpt lat="43.274845" lon="-1.7115439">
        <time>2022-07-02T13:07:40Z</time>
      </trkpt>
      <trkpt lat="43.27481" lon="-1.7114229">
        <time>2022-07-02T13:07:42Z</time>
      </trkpt>
      <trkpt lat="43.274776" lon="-1.7113013">
        <time>2022-07-02T13:07:44Z</time>
      </trkpt>
      <trkpt lat="43.274754" lon="-1.711244">
        <time>2022-07-02T13:07:45Z</time>
      </trkpt>
      <trkpt lat="43.27471" lon="-1.711136">
        <time>2022-07-02T13:07:47Z</time>
      </trkpt>
      <trkpt lat="43.274666" lon="-1.7110319">
        <time>2022-07-02T13:07:49Z</time>
      </trkpt>
      <trkpt lat="43.274624" lon="-1.7109323">
        <time>2022-07-02T13:07:51Z</time>
      </trkpt>
      <trkpt lat="43.274582" lon="-1.7108223">
        <time>2022-07-02T13:07:53Z</time>
      </trkpt>
      <trkpt lat="43.27454" lon="-1.710702">
        <time>2022-07-02T13:07:55Z</time>
      </trkpt>
      <trkpt lat="43.2745" lon="-1.7105726">
        <time>2022-07-02T13:07:57Z</time>
      </trkpt>
      <trkpt lat="43.27447" lon="-1.7104447">
        <time>2022-07-02T13:07:59Z</time>
      </trkpt>
      <trkpt lat="43.27444" lon="-1.7103237">
        <time>2022-07-02T13:08:01Z</time>
      </trkpt>
      <trkpt lat="43.2744" lon="-1.71021">
        <time>2022-07-02T13:08:03Z</time>
      </trkpt>
      <trkpt lat="43.274364" lon="-1.7100927">
        <time>2022-07-02T13:08:05Z</time>
      </trkpt>
      <trkpt lat="43.27433" lon="-1.709969">
        <time>2022-07-02T13:08:07Z</time>
      </trkpt>
      <trkpt lat="43.274315" lon="-1.709904">
        <time>2022-07-02T13:08:08Z</time>
      </trkpt>
      <trkpt lat="43.274284" lon="-1.7097677">
        <time>2022-07-02T13:08:10Z</time>
      </trkpt>
      <trkpt lat="43.27427" lon="-1.7096977">
        <time>2022-07-02T13:08:11Z</time>
      </trkpt>
      <trkpt lat="43.274254" lon="-1.7096276">
        <time>2022-07-02T13:08:12Z</time>
      </trkpt>
      <trkpt lat="43.27424" lon="-1.709557">
        <time>2022-07-02T13:08:13Z</time>
      </trkpt>
      <trkpt lat="43.274223" lon="-1.709486">
        <time>2022-07-02T13:08:14Z</time>
      </trkpt>
      <trkpt lat="43.274208" lon="-1.7094164">
        <time>2022-07-02T13:08:15Z</time>
      </trkpt>
      <trkpt lat="43.274193" lon="-1.7093474">
        <time>2022-07-02T13:08:16Z</time>
      </trkpt>
      <trkpt lat="43.274178" lon="-1.7092777">
        <time>2022-07-02T13:08:17Z</time>
      </trkpt>
      <trkpt lat="43.274166" lon="-1.7092087">
        <time>2022-07-02T13:08:18Z</time>
      </trkpt>
      <trkpt lat="43.27415" lon="-1.7090727">
        <time>2022-07-02T13:08:20Z</time>
      </trkpt>
      <trkpt lat="43.274155" lon="-1.7089354">
        <time>2022-07-02T13:08:22Z</time>
      </trkpt>
      <trkpt lat="43.27416" lon="-1.7088664">
        <time>2022-07-02T13:08:23Z</time>
      </trkpt>
      <trkpt lat="43.27418" lon="-1.7087244">
        <time>2022-07-02T13:08:25Z</time>
      </trkpt>
      <trkpt lat="43.274193" lon="-1.708652">
        <time>2022-07-02T13:08:26Z</time>
      </trkpt>
      <trkpt lat="43.274204" lon="-1.7085817">
        <time>2022-07-02T13:08:27Z</time>
      </trkpt>
      <trkpt lat="43.274208" lon="-1.708513">
        <time>2022-07-02T13:08:28Z</time>
      </trkpt>
      <trkpt lat="43.274204" lon="-1.7083794">
        <time>2022-07-02T13:08:30Z</time>
      </trkpt>
      <trkpt lat="43.274197" lon="-1.70825">
        <time>2022-07-02T13:08:32Z</time>
      </trkpt>
      <trkpt lat="43.274193" lon="-1.7081131">
        <time>2022-07-02T13:08:34Z</time>
      </trkpt>
      <trkpt lat="43.274193" lon="-1.7080407">
        <time>2022-07-02T13:08:35Z</time>
      </trkpt>
      <trkpt lat="43.27419" lon="-1.7079674">
        <time>2022-07-02T13:08:36Z</time>
      </trkpt>
      <trkpt lat="43.274185" lon="-1.707895">
        <time>2022-07-02T13:08:37Z</time>
      </trkpt>
      <trkpt lat="43.27419" lon="-1.7078243">
        <time>2022-07-02T13:08:38Z</time>
      </trkpt>
      <trkpt lat="43.2742" lon="-1.7076803">
        <time>2022-07-02T13:08:40Z</time>
      </trkpt>
      <trkpt lat="43.274204" lon="-1.7076083">
        <time>2022-07-02T13:08:41Z</time>
      </trkpt>
      <trkpt lat="43.274208" lon="-1.7075417">
        <time>2022-07-02T13:08:42Z</time>
      </trkpt>
      <trkpt lat="43.274216" lon="-1.7074071">
        <time>2022-07-02T13:08:44Z</time>
      </trkpt>
      <trkpt lat="43.274223" lon="-1.7072685">
        <time>2022-07-02T13:08:46Z</time>
      </trkpt>
      <trkpt lat="43.274227" lon="-1.7071954">
        <time>2022-07-02T13:08:47Z</time>
      </trkpt>
      <trkpt lat="43.27423" lon="-1.7071221">
        <time>2022-07-02T13:08:48Z</time>
      </trkpt>
      <trkpt lat="43.27424" lon="-1.7070475">
        <time>2022-07-02T13:08:49Z</time>
      </trkpt>
      <trkpt lat="43.274254" lon="-1.7069705">
        <time>2022-07-02T13:08:50Z</time>
      </trkpt>
      <trkpt lat="43.27427" lon="-1.7068921">
        <time>2022-07-02T13:08:51Z</time>
      </trkpt>
      <trkpt lat="43.274284" lon="-1.7068124">
        <time>2022-07-02T13:08:52Z</time>
      </trkpt>
      <trkpt lat="43.274292" lon="-1.7067324">
        <time>2022-07-02T13:08:53Z</time>
      </trkpt>
      <trkpt lat="43.2743" lon="-1.7066548">
        <time>2022-07-02T13:08:54Z</time>
      </trkpt>
      <trkpt lat="43.2743" lon="-1.7065781">
        <time>2022-07-02T13:08:55Z</time>
      </trkpt>
      <trkpt lat="43.274296" lon="-1.7065024">
        <time>2022-07-02T13:08:56Z</time>
      </trkpt>
      <trkpt lat="43.274292" lon="-1.7063538">
        <time>2022-07-02T13:08:58Z</time>
      </trkpt>
      <trkpt lat="43.27429" lon="-1.7062801">
        <time>2022-07-02T13:08:59Z</time>
      </trkpt>
      <trkpt lat="43.274284" lon="-1.7062081">
        <time>2022-07-02T13:09:00Z</time>
      </trkpt>
      <trkpt lat="43.274277" lon="-1.7061368">
        <time>2022-07-02T13:09:01Z</time>
      </trkpt>
      <trkpt lat="43.27427" lon="-1.7059948">
        <time>2022-07-02T13:09:03Z</time>
      </trkpt>
      <trkpt lat="43.27427" lon="-1.7059208">
        <time>2022-07-02T13:09:04Z</time>
      </trkpt>
      <trkpt lat="43.274277" lon="-1.7058455">
        <time>2022-07-02T13:09:05Z</time>
      </trkpt>
      <trkpt lat="43.274292" lon="-1.7057701">
        <time>2022-07-02T13:09:06Z</time>
      </trkpt>
      <trkpt lat="43.274307" lon="-1.7056948">
        <time>2022-07-02T13:09:07Z</time>
      </trkpt>
      <trkpt lat="43.274323" lon="-1.7056218">
        <time>2022-07-02T13:09:08Z</time>
      </trkpt>
      <trkpt lat="43.274345" lon="-1.7055521">
        <time>2022-07-02T13:09:09Z</time>
      </trkpt>
      <trkpt lat="43.274364" lon="-1.7054832">
        <time>2022-07-02T13:09:10Z</time>
      </trkpt>
      <trkpt lat="43.274387" lon="-1.7054151">
        <time>2022-07-02T13:09:11Z</time>
      </trkpt>
      <trkpt lat="43.27441" lon="-1.7053459">
        <time>2022-07-02T13:09:12Z</time>
      </trkpt>
      <trkpt lat="43.27443" lon="-1.7052748">
        <time>2022-07-02T13:09:13Z</time>
      </trkpt>
      <trkpt lat="43.274445" lon="-1.7052035">
        <time>2022-07-02T13:09:14Z</time>
      </trkpt>
      <trkpt lat="43.274464" lon="-1.7051332">
        <time>2022-07-02T13:09:15Z</time>
      </trkpt>
      <trkpt lat="43.27448" lon="-1.7050618">
        <time>2022-07-02T13:09:16Z</time>
      </trkpt>
      <trkpt lat="43.27449" lon="-1.7049879">
        <time>2022-07-02T13:09:17Z</time>
      </trkpt>
      <trkpt lat="43.2745" lon="-1.7049105">
        <time>2022-07-02T13:09:18Z</time>
      </trkpt>
      <trkpt lat="43.274513" lon="-1.7048345">
        <time>2022-07-02T13:09:19Z</time>
      </trkpt>
      <trkpt lat="43.27452" lon="-1.7047585">
        <time>2022-07-02T13:09:20Z</time>
      </trkpt>
      <trkpt lat="43.274532" lon="-1.7046822">
        <time>2022-07-02T13:09:21Z</time>
      </trkpt>
      <trkpt lat="43.27454" lon="-1.7046052">
        <time>2022-07-02T13:09:22Z</time>
      </trkpt>
      <trkpt lat="43.274548" lon="-1.7045282">
        <time>2022-07-02T13:09:23Z</time>
      </trkpt>
      <trkpt lat="43.27456" lon="-1.7044525">
        <time>2022-07-02T13:09:24Z</time>
      </trkpt>
      <trkpt lat="43.27457" lon="-1.7043775">
        <time>2022-07-02T13:09:25Z</time>
      </trkpt>
      <trkpt lat="43.274582" lon="-1.7043022">
        <time>2022-07-02T13:09:26Z</time>
      </trkpt>
      <trkpt lat="43.274593" lon="-1.7042261">
        <time>2022-07-02T13:09:27Z</time>
      </trkpt>
      <trkpt lat="43.2746" lon="-1.7041495">
        <time>2022-07-02T13:09:28Z</time>
      </trkpt>
      <trkpt lat="43.274612" lon="-1.7040739">
        <time>2022-07-02T13:09:29Z</time>
      </trkpt>
      <trkpt lat="43.27462" lon="-1.7039975">
        <time>2022-07-02T13:09:30Z</time>
      </trkpt>
      <trkpt lat="43.274628" lon="-1.7039219">
        <time>2022-07-02T13:09:31Z</time>
      </trkpt>
      <trkpt lat="43.27464" lon="-1.7038462">
        <time>2022-07-02T13:09:32Z</time>
      </trkpt>
      <trkpt lat="43.27465" lon="-1.7037722">
        <time>2022-07-02T13:09:33Z</time>
      </trkpt>
      <trkpt lat="43.27466" lon="-1.7037019">
        <time>2022-07-02T13:09:34Z</time>
      </trkpt>
      <trkpt lat="43.274662" lon="-1.7036309">
        <time>2022-07-02T13:09:35Z</time>
      </trkpt>
      <trkpt lat="43.274666" lon="-1.7035589">
        <time>2022-07-02T13:09:36Z</time>
      </trkpt>
      <trkpt lat="43.274673" lon="-1.7034849">
        <time>2022-07-02T13:09:37Z</time>
      </trkpt>
      <trkpt lat="43.274685" lon="-1.7034032">
        <time>2022-07-02T13:09:38Z</time>
      </trkpt>
      <trkpt lat="43.274696" lon="-1.7033266">
        <time>2022-07-02T13:09:39Z</time>
      </trkpt>
      <trkpt lat="43.27471" lon="-1.7032503">
        <time>2022-07-02T13:09:40Z</time>
      </trkpt>
      <trkpt lat="43.274727" lon="-1.7031755">
        <time>2022-07-02T13:09:41Z</time>
      </trkpt>
      <trkpt lat="43.27474" lon="-1.7031052">
        <time>2022-07-02T13:09:42Z</time>
      </trkpt>
      <trkpt lat="43.274754" lon="-1.702961">
        <time>2022-07-02T13:09:44Z</time>
      </trkpt>
      <trkpt lat="43.274757" lon="-1.7028883">
        <time>2022-07-02T13:09:45Z</time>
      </trkpt>
      <trkpt lat="43.27476" lon="-1.7028142">
        <time>2022-07-02T13:09:46Z</time>
      </trkpt>
      <trkpt lat="43.27477" lon="-1.7027403">
        <time>2022-07-02T13:09:47Z</time>
      </trkpt>
      <trkpt lat="43.274773" lon="-1.7026672">
        <time>2022-07-02T13:09:48Z</time>
      </trkpt>
      <trkpt lat="43.274776" lon="-1.7025936">
        <time>2022-07-02T13:09:49Z</time>
      </trkpt>
      <trkpt lat="43.274788" lon="-1.7025199">
        <time>2022-07-02T13:09:50Z</time>
      </trkpt>
      <trkpt lat="43.274803" lon="-1.702446">
        <time>2022-07-02T13:09:51Z</time>
      </trkpt>
      <trkpt lat="43.27482" lon="-1.7023736">
        <time>2022-07-02T13:09:52Z</time>
      </trkpt>
      <trkpt lat="43.274834" lon="-1.702304">
        <time>2022-07-02T13:09:53Z</time>
      </trkpt>
      <trkpt lat="43.27487" lon="-1.7021673">
        <time>2022-07-02T13:09:55Z</time>
      </trkpt>
      <trkpt lat="43.274906" lon="-1.7020373">
        <time>2022-07-02T13:09:57Z</time>
      </trkpt>
      <trkpt lat="43.274918" lon="-1.7019713">
        <time>2022-07-02T13:09:58Z</time>
      </trkpt>
      <trkpt lat="43.27494" lon="-1.701836">
        <time>2022-07-02T13:10:00Z</time>
      </trkpt>
      <trkpt lat="43.274952" lon="-1.701699">
        <time>2022-07-02T13:10:02Z</time>
      </trkpt>
      <trkpt lat="43.274967" lon="-1.7014956">
        <time>2022-07-02T13:10:05Z</time>
      </trkpt>
      <trkpt lat="43.274975" lon="-1.701357">
        <time>2022-07-02T13:10:07Z</time>
      </trkpt>
      <trkpt lat="43.274982" lon="-1.7012063">
        <time>2022-07-02T13:10:09Z</time>
      </trkpt>
      <trkpt lat="43.274994" lon="-1.7011243">
        <time>2022-07-02T13:10:10Z</time>
      </trkpt>
      <trkpt lat="43.275005" lon="-1.7010467">
        <time>2022-07-02T13:10:11Z</time>
      </trkpt>
      <trkpt lat="43.27502" lon="-1.7009683">
        <time>2022-07-02T13:10:12Z</time>
      </trkpt>
      <trkpt lat="43.275036" lon="-1.700893">
        <time>2022-07-02T13:10:13Z</time>
      </trkpt>
      <trkpt lat="43.275047" lon="-1.700819">
        <time>2022-07-02T13:10:14Z</time>
      </trkpt>
      <trkpt lat="43.275063" lon="-1.7007426">
        <time>2022-07-02T13:10:15Z</time>
      </trkpt>
      <trkpt lat="43.275074" lon="-1.70067">
        <time>2022-07-02T13:10:16Z</time>
      </trkpt>
      <trkpt lat="43.27508" lon="-1.700605">
        <time>2022-07-02T13:10:17Z</time>
      </trkpt>
      <trkpt lat="43.275093" lon="-1.7005394">
        <time>2022-07-02T13:10:18Z</time>
      </trkpt>
      <trkpt lat="43.275112" lon="-1.7004043">
        <time>2022-07-02T13:10:20Z</time>
      </trkpt>
      <trkpt lat="43.275124" lon="-1.700263">
        <time>2022-07-02T13:10:22Z</time>
      </trkpt>
      <trkpt lat="43.275127" lon="-1.7001936">
        <time>2022-07-02T13:10:23Z</time>
      </trkpt>
      <trkpt lat="43.275127" lon="-1.7001227">
        <time>2022-07-02T13:10:24Z</time>
      </trkpt>
      <trkpt lat="43.275127" lon="-1.6999687">
        <time>2022-07-02T13:10:26Z</time>
      </trkpt>
      <trkpt lat="43.275127" lon="-1.6998934">
        <time>2022-07-02T13:10:27Z</time>
      </trkpt>
      <trkpt lat="43.275127" lon="-1.6998237">
        <time>2022-07-02T13:10:28Z</time>
      </trkpt>
      <trkpt lat="43.275127" lon="-1.6997534">
        <time>2022-07-02T13:10:29Z</time>
      </trkpt>
      <trkpt lat="43.275124" lon="-1.6996094">
        <time>2022-07-02T13:10:31Z</time>
      </trkpt>
      <trkpt lat="43.275127" lon="-1.6995378">
        <time>2022-07-02T13:10:32Z</time>
      </trkpt>
      <trkpt lat="43.275127" lon="-1.6994667">
        <time>2022-07-02T13:10:33Z</time>
      </trkpt>
      <trkpt lat="43.275135" lon="-1.6993937">
        <time>2022-07-02T13:10:34Z</time>
      </trkpt>
      <trkpt lat="43.275143" lon="-1.6993223">
        <time>2022-07-02T13:10:35Z</time>
      </trkpt>
      <trkpt lat="43.27515" lon="-1.6991798">
        <time>2022-07-02T13:10:37Z</time>
      </trkpt>
      <trkpt lat="43.275146" lon="-1.6991107">
        <time>2022-07-02T13:10:38Z</time>
      </trkpt>
      <trkpt lat="43.27514" lon="-1.699043">
        <time>2022-07-02T13:10:39Z</time>
      </trkpt>
      <trkpt lat="43.27513" lon="-1.698907">
        <time>2022-07-02T13:10:41Z</time>
      </trkpt>
      <trkpt lat="43.27513" lon="-1.698778">
        <time>2022-07-02T13:10:43Z</time>
      </trkpt>
      <trkpt lat="43.27513" lon="-1.6987131">
        <time>2022-07-02T13:10:44Z</time>
      </trkpt>
      <trkpt lat="43.27513" lon="-1.6985807">
        <time>2022-07-02T13:10:46Z</time>
      </trkpt>
      <trkpt lat="43.275135" lon="-1.6985134">
        <time>2022-07-02T13:10:47Z</time>
      </trkpt>
      <trkpt lat="43.275143" lon="-1.6983747">
        <time>2022-07-02T13:10:49Z</time>
      </trkpt>
      <trkpt lat="43.275146" lon="-1.6983067">
        <time>2022-07-02T13:10:50Z</time>
      </trkpt>
      <trkpt lat="43.275154" lon="-1.6981775">
        <time>2022-07-02T13:10:52Z</time>
      </trkpt>
      <trkpt lat="43.275158" lon="-1.6981157">
        <time>2022-07-02T13:10:53Z</time>
      </trkpt>
      <trkpt lat="43.275177" lon="-1.6979938">
        <time>2022-07-02T13:10:55Z</time>
      </trkpt>
      <trkpt lat="43.275204" lon="-1.697875">
        <time>2022-07-02T13:10:57Z</time>
      </trkpt>
      <trkpt lat="43.275227" lon="-1.6977577">
        <time>2022-07-02T13:10:59Z</time>
      </trkpt>
      <trkpt lat="43.275253" lon="-1.6976424">
        <time>2022-07-02T13:11:01Z</time>
      </trkpt>
      <trkpt lat="43.275276" lon="-1.6975304">
        <time>2022-07-02T13:11:03Z</time>
      </trkpt>
      <trkpt lat="43.2753" lon="-1.697419">
        <time>2022-07-02T13:11:05Z</time>
      </trkpt>
      <trkpt lat="43.275326" lon="-1.6973077">
        <time>2022-07-02T13:11:07Z</time>
      </trkpt>
      <trkpt lat="43.275352" lon="-1.6971954">
        <time>2022-07-02T13:11:09Z</time>
      </trkpt>
      <trkpt lat="43.275383" lon="-1.6970801">
        <time>2022-07-02T13:11:11Z</time>
      </trkpt>
      <trkpt lat="43.2754" lon="-1.6969727">
        <time>2022-07-02T13:11:13Z</time>
      </trkpt>
      <trkpt lat="43.275414" lon="-1.696863">
        <time>2022-07-02T13:11:15Z</time>
      </trkpt>
      <trkpt lat="43.275444" lon="-1.6967465">
        <time>2022-07-02T13:11:17Z</time>
      </trkpt>
      <trkpt lat="43.27548" lon="-1.6966147">
        <time>2022-07-02T13:11:19Z</time>
      </trkpt>
      <trkpt lat="43.275497" lon="-1.6965435">
        <time>2022-07-02T13:11:20Z</time>
      </trkpt>
      <trkpt lat="43.27552" lon="-1.6964701">
        <time>2022-07-02T13:11:21Z</time>
      </trkpt>
      <trkpt lat="43.275543" lon="-1.6963928">
        <time>2022-07-02T13:11:22Z</time>
      </trkpt>
      <trkpt lat="43.275574" lon="-1.6963128">
        <time>2022-07-02T13:11:23Z</time>
      </trkpt>
      <trkpt lat="43.275608" lon="-1.6962335">
        <time>2022-07-02T13:11:24Z</time>
      </trkpt>
      <trkpt lat="43.275646" lon="-1.6961541">
        <time>2022-07-02T13:11:25Z</time>
      </trkpt>
      <trkpt lat="43.27568" lon="-1.6960799">
        <time>2022-07-02T13:11:26Z</time>
      </trkpt>
      <trkpt lat="43.275738" lon="-1.6959945">
        <time>2022-07-02T13:11:28Z</time>
      </trkpt>
      <trkpt lat="43.27579" lon="-1.6959262">
        <time>2022-07-02T13:11:29Z</time>
      </trkpt>
      <trkpt lat="43.275837" lon="-1.6958672">
        <time>2022-07-02T13:11:30Z</time>
      </trkpt>
      <trkpt lat="43.27588" lon="-1.6958135">
        <time>2022-07-02T13:11:31Z</time>
      </trkpt>
      <trkpt lat="43.27591" lon="-1.6957659">
        <time>2022-07-02T13:11:32Z</time>
      </trkpt>
      <trkpt lat="43.275967" lon="-1.6956812">
        <time>2022-07-02T13:11:34Z</time>
      </trkpt>
      <trkpt lat="43.276016" lon="-1.6956115">
        <time>2022-07-02T13:11:36Z</time>
      </trkpt>
      <trkpt lat="43.276062" lon="-1.6955485">
        <time>2022-07-02T13:11:38Z</time>
      </trkpt>
      <trkpt lat="43.276104" lon="-1.6954918">
        <time>2022-07-02T13:11:40Z</time>
      </trkpt>
      <trkpt lat="43.27615" lon="-1.6954445">
        <time>2022-07-02T13:11:42Z</time>
      </trkpt>
      <trkpt lat="43.2762" lon="-1.6953995">
        <time>2022-07-02T13:11:44Z</time>
      </trkpt>
      <trkpt lat="43.276245" lon="-1.6953605">
        <time>2022-07-02T13:11:46Z</time>
      </trkpt>
      <trkpt lat="43.27629" lon="-1.6953305">
        <time>2022-07-02T13:11:48Z</time>
      </trkpt>
      <trkpt lat="43.27636" lon="-1.6952919">
        <time>2022-07-02T13:11:51Z</time>
      </trkpt>
      <trkpt lat="43.276413" lon="-1.6952552">
        <time>2022-07-02T13:11:53Z</time>
      </trkpt>
      <trkpt lat="43.276474" lon="-1.6952102">
        <time>2022-07-02T13:11:55Z</time>
      </trkpt>
      <trkpt lat="43.276535" lon="-1.6951612">
        <time>2022-07-02T13:11:57Z</time>
      </trkpt>
      <trkpt lat="43.2766" lon="-1.6951089">
        <time>2022-07-02T13:11:59Z</time>
      </trkpt>
      <trkpt lat="43.27666" lon="-1.6950575">
        <time>2022-07-02T13:12:01Z</time>
      </trkpt>
      <trkpt lat="43.276726" lon="-1.6950089">
        <time>2022-07-02T13:12:03Z</time>
      </trkpt>
      <trkpt lat="43.276787" lon="-1.6949608">
        <time>2022-07-02T13:12:05Z</time>
      </trkpt>
      <trkpt lat="43.27685" lon="-1.6949083">
        <time>2022-07-02T13:12:07Z</time>
      </trkpt>
      <trkpt lat="43.27692" lon="-1.6948515">
        <time>2022-07-02T13:12:09Z</time>
      </trkpt>
      <trkpt lat="43.27699" lon="-1.6947929">
        <time>2022-07-02T13:12:11Z</time>
      </trkpt>
      <trkpt lat="43.277058" lon="-1.6947322">
        <time>2022-07-02T13:12:13Z</time>
      </trkpt>
      <trkpt lat="43.277126" lon="-1.69467">
        <time>2022-07-02T13:12:15Z</time>
      </trkpt>
      <trkpt lat="43.2772" lon="-1.6946089">
        <time>2022-07-02T13:12:17Z</time>
      </trkpt>
      <trkpt lat="43.277306" lon="-1.6945169">
        <time>2022-07-02T13:12:20Z</time>
      </trkpt>
      <trkpt lat="43.27737" lon="-1.6944559">
        <time>2022-07-02T13:12:22Z</time>
      </trkpt>
      <trkpt lat="43.27744" lon="-1.694395">
        <time>2022-07-02T13:12:24Z</time>
      </trkpt>
      <trkpt lat="43.277508" lon="-1.6943346">
        <time>2022-07-02T13:12:26Z</time>
      </trkpt>
      <trkpt lat="43.27758" lon="-1.6942773">
        <time>2022-07-02T13:12:28Z</time>
      </trkpt>
      <trkpt lat="43.27765" lon="-1.694217">
        <time>2022-07-02T13:12:30Z</time>
      </trkpt>
      <trkpt lat="43.27772" lon="-1.6941606">
        <time>2022-07-02T13:12:32Z</time>
      </trkpt>
      <trkpt lat="43.27779" lon="-1.6941053">
        <time>2022-07-02T13:12:34Z</time>
      </trkpt>
      <trkpt lat="43.277855" lon="-1.6940483">
        <time>2022-07-02T13:12:36Z</time>
      </trkpt>
      <trkpt lat="43.27792" lon="-1.6939867">
        <time>2022-07-02T13:12:38Z</time>
      </trkpt>
      <trkpt lat="43.27799" lon="-1.6939206">
        <time>2022-07-02T13:12:40Z</time>
      </trkpt>
      <trkpt lat="43.27805" lon="-1.693854">
        <time>2022-07-02T13:12:42Z</time>
      </trkpt>
      <trkpt lat="43.27811" lon="-1.6937896">
        <time>2022-07-02T13:12:44Z</time>
      </trkpt>
      <trkpt lat="43.278168" lon="-1.6937219">
        <time>2022-07-02T13:12:46Z</time>
      </trkpt>
      <trkpt lat="43.278217" lon="-1.6936473">
        <time>2022-07-02T13:12:48Z</time>
      </trkpt>
      <trkpt lat="43.27826" lon="-1.6935676">
        <time>2022-07-02T13:12:50Z</time>
      </trkpt>
      <trkpt lat="43.2783" lon="-1.6934897">
        <time>2022-07-02T13:12:52Z</time>
      </trkpt>
      <trkpt lat="43.278343" lon="-1.6934116">
        <time>2022-07-02T13:12:54Z</time>
      </trkpt>
      <trkpt lat="43.278378" lon="-1.6933349">
        <time>2022-07-02T13:12:56Z</time>
      </trkpt>
      <trkpt lat="43.278404" lon="-1.6932557">
        <time>2022-07-02T13:12:58Z</time>
      </trkpt>
      <trkpt lat="43.278435" lon="-1.693174">
        <time>2022-07-02T13:13:00Z</time>
      </trkpt>
      <trkpt lat="43.27846" lon="-1.693095">
        <time>2022-07-02T13:13:02Z</time>
      </trkpt>
      <trkpt lat="43.27848" lon="-1.693013">
        <time>2022-07-02T13:13:04Z</time>
      </trkpt>
      <trkpt lat="43.278496" lon="-1.692928">
        <time>2022-07-02T13:13:06Z</time>
      </trkpt>
      <trkpt lat="43.278507" lon="-1.6928396">
        <time>2022-07-02T13:13:08Z</time>
      </trkpt>
      <trkpt lat="43.278515" lon="-1.692745">
        <time>2022-07-02T13:13:10Z</time>
      </trkpt>
      <trkpt lat="43.278522" lon="-1.6926427">
        <time>2022-07-02T13:13:12Z</time>
      </trkpt>
      <trkpt lat="43.278526" lon="-1.692536">
        <time>2022-07-02T13:13:14Z</time>
      </trkpt>
      <trkpt lat="43.278522" lon="-1.692428">
        <time>2022-07-02T13:13:16Z</time>
      </trkpt>
      <trkpt lat="43.27852" lon="-1.692317">
        <time>2022-07-02T13:13:18Z</time>
      </trkpt>
      <trkpt lat="43.278503" lon="-1.692201">
        <time>2022-07-02T13:13:20Z</time>
      </trkpt>
      <trkpt lat="43.278484" lon="-1.6920823">
        <time>2022-07-02T13:13:22Z</time>
      </trkpt>
      <trkpt lat="43.278473" lon="-1.692021">
        <time>2022-07-02T13:13:23Z</time>
      </trkpt>
      <trkpt lat="43.278454" lon="-1.6919017">
        <time>2022-07-02T13:13:25Z</time>
      </trkpt>
      <trkpt lat="43.27843" lon="-1.691785">
        <time>2022-07-02T13:13:27Z</time>
      </trkpt>
      <trkpt lat="43.2784" lon="-1.691671">
        <time>2022-07-02T13:13:29Z</time>
      </trkpt>
      <trkpt lat="43.27836" lon="-1.6915587">
        <time>2022-07-02T13:13:31Z</time>
      </trkpt>
      <trkpt lat="43.278313" lon="-1.6914524">
        <time>2022-07-02T13:13:33Z</time>
      </trkpt>
      <trkpt lat="43.278267" lon="-1.6913503">
        <time>2022-07-02T13:13:35Z</time>
      </trkpt>
      <trkpt lat="43.278183" lon="-1.6912134">
        <time>2022-07-02T13:13:38Z</time>
      </trkpt>
      <trkpt lat="43.278122" lon="-1.6911263">
        <time>2022-07-02T13:13:40Z</time>
      </trkpt>
      <trkpt lat="43.278053" lon="-1.691044">
        <time>2022-07-02T13:13:42Z</time>
      </trkpt>
      <trkpt lat="43.277977" lon="-1.690968">
        <time>2022-07-02T13:13:44Z</time>
      </trkpt>
      <trkpt lat="43.277897" lon="-1.6908977">
        <time>2022-07-02T13:13:46Z</time>
      </trkpt>
      <trkpt lat="43.277855" lon="-1.6908643">
        <time>2022-07-02T13:13:47Z</time>
      </trkpt>
      <trkpt lat="43.27777" lon="-1.6908017">
        <time>2022-07-02T13:13:49Z</time>
      </trkpt>
      <trkpt lat="43.277725" lon="-1.6907754">
        <time>2022-07-02T13:13:50Z</time>
      </trkpt>
      <trkpt lat="43.277634" lon="-1.6907334">
        <time>2022-07-02T13:13:52Z</time>
      </trkpt>
      <trkpt lat="43.277542" lon="-1.6906974">
        <time>2022-07-02T13:13:54Z</time>
      </trkpt>
      <trkpt lat="43.277493" lon="-1.6906817">
        <time>2022-07-02T13:13:55Z</time>
      </trkpt>
      <trkpt lat="43.277397" lon="-1.6906554">
        <time>2022-07-02T13:13:57Z</time>
      </trkpt>
      <trkpt lat="43.277306" lon="-1.6906354">
        <time>2022-07-02T13:13:59Z</time>
      </trkpt>
      <trkpt lat="43.27724" lon="-1.6906167">
        <time>2022-07-02T13:14:01Z</time>
      </trkpt>
      <trkpt lat="43.277195" lon="-1.6905974">
        <time>2022-07-02T13:14:03Z</time>
      </trkpt>
      <trkpt lat="43.27707" lon="-1.6905344">
        <time>2022-07-02T13:17:12Z</time>
      </trkpt>
      <trkpt lat="43.277" lon="-1.6905308">
        <time>2022-07-02T13:17:14Z</time>
      </trkpt>
      <trkpt lat="43.276924" lon="-1.690528">
        <time>2022-07-02T13:17:16Z</time>
      </trkpt>
      <trkpt lat="43.276848" lon="-1.6905354">
        <time>2022-07-02T13:17:18Z</time>
      </trkpt>
      <trkpt lat="43.276768" lon="-1.6905408">
        <time>2022-07-02T13:17:20Z</time>
      </trkpt>
      <trkpt lat="43.276684" lon="-1.6905454">
        <time>2022-07-02T13:17:22Z</time>
      </trkpt>
      <trkpt lat="43.276604" lon="-1.6905507">
        <time>2022-07-02T13:17:24Z</time>
      </trkpt>
      <trkpt lat="43.276516" lon="-1.6905568">
        <time>2022-07-02T13:17:26Z</time>
      </trkpt>
      <trkpt lat="43.276424" lon="-1.6905574">
        <time>2022-07-02T13:17:28Z</time>
      </trkpt>
      <trkpt lat="43.276337" lon="-1.6905534">
        <time>2022-07-02T13:17:30Z</time>
      </trkpt>
      <trkpt lat="43.276245" lon="-1.6905468">
        <time>2022-07-02T13:17:32Z</time>
      </trkpt>
      <trkpt lat="43.276154" lon="-1.6905421">
        <time>2022-07-02T13:17:34Z</time>
      </trkpt>
      <trkpt lat="43.276066" lon="-1.6905414">
        <time>2022-07-02T13:17:36Z</time>
      </trkpt>
      <trkpt lat="43.275978" lon="-1.6905394">
        <time>2022-07-02T13:17:38Z</time>
      </trkpt>
      <trkpt lat="43.27589" lon="-1.6905341">
        <time>2022-07-02T13:17:40Z</time>
      </trkpt>
      <trkpt lat="43.275806" lon="-1.6905241">
        <time>2022-07-02T13:17:42Z</time>
      </trkpt>
      <trkpt lat="43.275723" lon="-1.6905137">
        <time>2022-07-02T13:17:44Z</time>
      </trkpt>
      <trkpt lat="43.27564" lon="-1.6905078">
        <time>2022-07-02T13:17:46Z</time>
      </trkpt>
      <trkpt lat="43.27555" lon="-1.6905074">
        <time>2022-07-02T13:17:48Z</time>
      </trkpt>
      <trkpt lat="43.275467" lon="-1.6905094">
        <time>2022-07-02T13:17:50Z</time>
      </trkpt>
      <trkpt lat="43.275387" lon="-1.6905091">
        <time>2022-07-02T13:17:52Z</time>
      </trkpt>
      <trkpt lat="43.275307" lon="-1.6905115">
        <time>2022-07-02T13:17:54Z</time>
      </trkpt>
      <trkpt lat="43.275227" lon="-1.6905288">
        <time>2022-07-02T13:17:56Z</time>
      </trkpt>
      <trkpt lat="43.27515" lon="-1.6905694">
        <time>2022-07-02T13:17:58Z</time>
      </trkpt>
      <trkpt lat="43.275085" lon="-1.6906224">
        <time>2022-07-02T13:18:00Z</time>
      </trkpt>
      <trkpt lat="43.27502" lon="-1.6906707">
        <time>2022-07-02T13:18:02Z</time>
      </trkpt>
      <trkpt lat="43.274956" lon="-1.690706">
        <time>2022-07-02T13:18:04Z</time>
      </trkpt>
      <trkpt lat="43.274887" lon="-1.6907227">
        <time>2022-07-02T13:18:06Z</time>
      </trkpt>
      <trkpt lat="43.274822" lon="-1.6907284">
        <time>2022-07-02T13:18:08Z</time>
      </trkpt>
      <trkpt lat="43.274757" lon="-1.6907307">
        <time>2022-07-02T13:18:10Z</time>
      </trkpt>
      <trkpt lat="43.274696" lon="-1.6907281">
        <time>2022-07-02T13:18:12Z</time>
      </trkpt>
      <trkpt lat="43.27464" lon="-1.6907238">
        <time>2022-07-02T13:18:14Z</time>
      </trkpt>
      <trkpt lat="43.274582" lon="-1.6907234">
        <time>2022-07-02T13:18:16Z</time>
      </trkpt>
      <trkpt lat="43.274532" lon="-1.690724">
        <time>2022-07-02T13:18:18Z</time>
      </trkpt>
      <trkpt lat="43.274464" lon="-1.6907271">
        <time>2022-07-02T13:18:21Z</time>
      </trkpt>
      <trkpt lat="43.274406" lon="-1.6907221">
        <time>2022-07-02T13:18:24Z</time>
      </trkpt>
      <trkpt lat="43.274357" lon="-1.6907043">
        <time>2022-07-02T13:18:27Z</time>
      </trkpt>
      <trkpt lat="43.274395" lon="-1.6906767">
        <time>2022-07-02T13:18:33Z</time>
      </trkpt>
      <trkpt lat="43.274475" lon="-1.6906844">
        <time>2022-07-02T13:18:36Z</time>
      </trkpt>
      <trkpt lat="43.27454" lon="-1.6906894">
        <time>2022-07-02T13:18:38Z</time>
      </trkpt>
      <trkpt lat="43.2746" lon="-1.690695">
        <time>2022-07-02T13:18:40Z</time>
      </trkpt>
      <trkpt lat="43.274666" lon="-1.6907037">
        <time>2022-07-02T13:18:42Z</time>
      </trkpt>
      <trkpt lat="43.27473" lon="-1.6907134">
        <time>2022-07-02T13:18:44Z</time>
      </trkpt>
      <trkpt lat="43.27479" lon="-1.6907154">
        <time>2022-07-02T13:18:46Z</time>
      </trkpt>
      <trkpt lat="43.27486" lon="-1.6907104">
        <time>2022-07-02T13:18:48Z</time>
      </trkpt>
      <trkpt lat="43.274925" lon="-1.6906904">
        <time>2022-07-02T13:18:50Z</time>
      </trkpt>
      <trkpt lat="43.27499" lon="-1.6906434">
        <time>2022-07-02T13:18:52Z</time>
      </trkpt>
      <trkpt lat="43.275047" lon="-1.6905724">
        <time>2022-07-02T13:18:54Z</time>
      </trkpt>
      <trkpt lat="43.275097" lon="-1.690484">
        <time>2022-07-02T13:18:56Z</time>
      </trkpt>
      <trkpt lat="43.275143" lon="-1.6903718">
        <time>2022-07-02T13:18:58Z</time>
      </trkpt>
      <trkpt lat="43.275173" lon="-1.690255">
        <time>2022-07-02T13:19:00Z</time>
      </trkpt>
      <trkpt lat="43.275192" lon="-1.6901257">
        <time>2022-07-02T13:19:02Z</time>
      </trkpt>
      <trkpt lat="43.27521" lon="-1.69">
        <time>2022-07-02T13:19:04Z</time>
      </trkpt>
      <trkpt lat="43.275223" lon="-1.6898754">
        <time>2022-07-02T13:19:06Z</time>
      </trkpt>
      <trkpt lat="43.275238" lon="-1.6897475">
        <time>2022-07-02T13:19:08Z</time>
      </trkpt>
      <trkpt lat="43.275246" lon="-1.6896821">
        <time>2022-07-02T13:19:09Z</time>
      </trkpt>
      <trkpt lat="43.275253" lon="-1.6895565">
        <time>2022-07-02T13:19:11Z</time>
      </trkpt>
      <trkpt lat="43.27526" lon="-1.6894301">
        <time>2022-07-02T13:19:13Z</time>
      </trkpt>
      <trkpt lat="43.275265" lon="-1.6893704">
        <time>2022-07-02T13:19:14Z</time>
      </trkpt>
      <trkpt lat="43.275276" lon="-1.6892508">
        <time>2022-07-02T13:19:16Z</time>
      </trkpt>
      <trkpt lat="43.275284" lon="-1.6891367">
        <time>2022-07-02T13:19:18Z</time>
      </trkpt>
      <trkpt lat="43.275288" lon="-1.6890341">
        <time>2022-07-02T13:19:20Z</time>
      </trkpt>
      <trkpt lat="43.27529" lon="-1.6889465">
        <time>2022-07-02T13:19:22Z</time>
      </trkpt>
      <trkpt lat="43.275295" lon="-1.6888691">
        <time>2022-07-02T13:19:24Z</time>
      </trkpt>
      <trkpt lat="43.2753" lon="-1.6888018">
        <time>2022-07-02T13:19:26Z</time>
      </trkpt>
      <trkpt lat="43.27532" lon="-1.6887294">
        <time>2022-07-02T13:19:29Z</time>
      </trkpt>
      <trkpt lat="43.27532" lon="-1.6887904">
        <time>2022-07-02T13:19:35Z</time>
      </trkpt>
      <trkpt lat="43.275303" lon="-1.6888815">
        <time>2022-07-02T13:19:38Z</time>
      </trkpt>
      <trkpt lat="43.275295" lon="-1.6889861">
        <time>2022-07-02T13:19:41Z</time>
      </trkpt>
      <trkpt lat="43.27529" lon="-1.6890631">
        <time>2022-07-02T13:19:43Z</time>
      </trkpt>
      <trkpt lat="43.275284" lon="-1.6891438">
        <time>2022-07-02T13:19:45Z</time>
      </trkpt>
      <trkpt lat="43.275272" lon="-1.6892198">
        <time>2022-07-02T13:19:47Z</time>
      </trkpt>
      <trkpt lat="43.275265" lon="-1.6892902">
        <time>2022-07-02T13:19:49Z</time>
      </trkpt>
      <trkpt lat="43.27526" lon="-1.6893637">
        <time>2022-07-02T13:19:51Z</time>
      </trkpt>
      <trkpt lat="43.275257" lon="-1.6894388">
        <time>2022-07-02T13:19:53Z</time>
      </trkpt>
      <trkpt lat="43.275253" lon="-1.6895181">
        <time>2022-07-02T13:19:55Z</time>
      </trkpt>
      <trkpt lat="43.27525" lon="-1.6896027">
        <time>2022-07-02T13:19:57Z</time>
      </trkpt>
      <trkpt lat="43.275246" lon="-1.689689">
        <time>2022-07-02T13:19:59Z</time>
      </trkpt>
      <trkpt lat="43.275238" lon="-1.6897748">
        <time>2022-07-02T13:20:01Z</time>
      </trkpt>
      <trkpt lat="43.27523" lon="-1.6898618">
        <time>2022-07-02T13:20:03Z</time>
      </trkpt>
      <trkpt lat="43.275223" lon="-1.6899488">
        <time>2022-07-02T13:20:05Z</time>
      </trkpt>
      <trkpt lat="43.27522" lon="-1.6900374">
        <time>2022-07-02T13:20:07Z</time>
      </trkpt>
      <trkpt lat="43.27521" lon="-1.6901227">
        <time>2022-07-02T13:20:09Z</time>
      </trkpt>
      <trkpt lat="43.2752" lon="-1.6902068">
        <time>2022-07-02T13:20:11Z</time>
      </trkpt>
      <trkpt lat="43.27518" lon="-1.6902868">
        <time>2022-07-02T13:20:13Z</time>
      </trkpt>
      <trkpt lat="43.275158" lon="-1.6903608">
        <time>2022-07-02T13:20:15Z</time>
      </trkpt>
      <trkpt lat="43.27514" lon="-1.6904247">
        <time>2022-07-02T13:20:17Z</time>
      </trkpt>
      <trkpt lat="43.27514" lon="-1.6904844">
        <time>2022-07-02T13:20:20Z</time>
      </trkpt>
      <trkpt lat="43.27515" lon="-1.6904001">
        <time>2022-07-02T13:20:26Z</time>
      </trkpt>
      <trkpt lat="43.275093" lon="-1.6903228">
        <time>2022-07-02T13:20:40Z</time>
      </trkpt>
      <trkpt lat="43.275036" lon="-1.690294">
        <time>2022-07-02T13:20:42Z</time>
      </trkpt>
      <trkpt lat="43.274975" lon="-1.690268">
        <time>2022-07-02T13:20:44Z</time>
      </trkpt>
      <trkpt lat="43.274906" lon="-1.69024">
        <time>2022-07-02T13:20:46Z</time>
      </trkpt>
      <trkpt lat="43.274837" lon="-1.6902124">
        <time>2022-07-02T13:20:48Z</time>
      </trkpt>
      <trkpt lat="43.274757" lon="-1.6901814">
        <time>2022-07-02T13:20:50Z</time>
      </trkpt>
      <trkpt lat="43.274673" lon="-1.6901474">
        <time>2022-07-02T13:20:52Z</time>
      </trkpt>
      <trkpt lat="43.274597" lon="-1.6901151">
        <time>2022-07-02T13:20:54Z</time>
      </trkpt>
      <trkpt lat="43.274517" lon="-1.6900871">
        <time>2022-07-02T13:20:56Z</time>
      </trkpt>
      <trkpt lat="43.27444" lon="-1.6900661">
        <time>2022-07-02T13:20:58Z</time>
      </trkpt>
      <trkpt lat="43.274364" lon="-1.6900531">
        <time>2022-07-02T13:21:00Z</time>
      </trkpt>
      <trkpt lat="43.27429" lon="-1.6900427">
        <time>2022-07-02T13:21:02Z</time>
      </trkpt>
      <trkpt lat="43.274208" lon="-1.6900271">
        <time>2022-07-02T13:21:04Z</time>
      </trkpt>
      <trkpt lat="43.27413" lon="-1.6900045">
        <time>2022-07-02T13:21:06Z</time>
      </trkpt>
      <trkpt lat="43.274055" lon="-1.6899757">
        <time>2022-07-02T13:21:08Z</time>
      </trkpt>
      <trkpt lat="43.273983" lon="-1.6899471">
        <time>2022-07-02T13:21:10Z</time>
      </trkpt>
      <trkpt lat="43.273907" lon="-1.6899232">
        <time>2022-07-02T13:21:12Z</time>
      </trkpt>
      <trkpt lat="43.27383" lon="-1.6899035">
        <time>2022-07-02T13:21:14Z</time>
      </trkpt>
      <trkpt lat="43.273746" lon="-1.6898874">
        <time>2022-07-02T13:21:16Z</time>
      </trkpt>
      <trkpt lat="43.273666" lon="-1.6898721">
        <time>2022-07-02T13:21:18Z</time>
      </trkpt>
      <trkpt lat="43.27359" lon="-1.6898565">
        <time>2022-07-02T13:21:20Z</time>
      </trkpt>
      <trkpt lat="43.273518" lon="-1.6898441">
        <time>2022-07-02T13:21:22Z</time>
      </trkpt>
      <trkpt lat="43.273453" lon="-1.6898338">
        <time>2022-07-02T13:21:24Z</time>
      </trkpt>
      <trkpt lat="43.273384" lon="-1.6898285">
        <time>2022-07-02T13:21:26Z</time>
      </trkpt>
      <trkpt lat="43.273308" lon="-1.6898291">
        <time>2022-07-02T13:21:28Z</time>
      </trkpt>
      <trkpt lat="43.27323" lon="-1.6898258">
        <time>2022-07-02T13:21:30Z</time>
      </trkpt>
      <trkpt lat="43.27314" lon="-1.6898081">
        <time>2022-07-02T13:21:32Z</time>
      </trkpt>
      <trkpt lat="43.273052" lon="-1.6897825">
        <time>2022-07-02T13:21:34Z</time>
      </trkpt>
      <trkpt lat="43.272953" lon="-1.6897485">
        <time>2022-07-02T13:21:36Z</time>
      </trkpt>
      <trkpt lat="43.272903" lon="-1.6897298">
        <time>2022-07-02T13:21:37Z</time>
      </trkpt>
      <trkpt lat="43.272854" lon="-1.6897101">
        <time>2022-07-02T13:21:38Z</time>
      </trkpt>
      <trkpt lat="43.272804" lon="-1.6896925">
        <time>2022-07-02T13:21:39Z</time>
      </trkpt>
      <trkpt lat="43.2727" lon="-1.6896645">
        <time>2022-07-02T13:21:41Z</time>
      </trkpt>
      <trkpt lat="43.272648" lon="-1.6896548">
        <time>2022-07-02T13:21:42Z</time>
      </trkpt>
      <trkpt lat="43.272602" lon="-1.6896472">
        <time>2022-07-02T13:21:43Z</time>
      </trkpt>
      <trkpt lat="43.27201" lon="-1.6896698">
        <time>2022-07-02T13:21:58Z</time>
      </trkpt>
      <trkpt lat="43.272003" lon="-1.6896775">
        <time>2022-07-02T13:21:59Z</time>
      </trkpt>
      <trkpt lat="43.27195" lon="-1.6896372">
        <time>2022-07-02T13:22:03Z</time>
      </trkpt>
      <trkpt lat="43.27192" lon="-1.6895492">
        <time>2022-07-02T13:22:06Z</time>
      </trkpt>
      <trkpt lat="43.27188" lon="-1.6894715">
        <time>2022-07-02T13:22:09Z</time>
      </trkpt>
      <trkpt lat="43.271824" lon="-1.6894075">
        <time>2022-07-02T13:22:12Z</time>
      </trkpt>
      <trkpt lat="43.27177" lon="-1.6893502">
        <time>2022-07-02T13:22:15Z</time>
      </trkpt>
      <trkpt lat="43.271706" lon="-1.6892952">
        <time>2022-07-02T13:22:18Z</time>
      </trkpt>
      <trkpt lat="43.271637" lon="-1.6892391">
        <time>2022-07-02T13:22:21Z</time>
      </trkpt>
      <trkpt lat="43.271587" lon="-1.6892035">
        <time>2022-07-02T13:22:23Z</time>
      </trkpt>
      <trkpt lat="43.27154" lon="-1.6891665">
        <time>2022-07-02T13:22:25Z</time>
      </trkpt>
      <trkpt lat="43.271484" lon="-1.6891075">
        <time>2022-07-02T13:22:28Z</time>
      </trkpt>
      <trkpt lat="43.271435" lon="-1.6890392">
        <time>2022-07-02T13:22:31Z</time>
      </trkpt>
      <trkpt lat="43.27138" lon="-1.6889589">
        <time>2022-07-02T13:22:34Z</time>
      </trkpt>
      <trkpt lat="43.271343" lon="-1.6889042">
        <time>2022-07-02T13:22:36Z</time>
      </trkpt>
      <trkpt lat="43.271305" lon="-1.6888582">
        <time>2022-07-02T13:22:38Z</time>
      </trkpt>
      <trkpt lat="43.271255" lon="-1.6888186">
        <time>2022-07-02T13:22:40Z</time>
      </trkpt>
      <trkpt lat="43.27121" lon="-1.6887792">
        <time>2022-07-02T13:22:42Z</time>
      </trkpt>
      <trkpt lat="43.27116" lon="-1.6887339">
        <time>2022-07-02T13:22:44Z</time>
      </trkpt>
      <trkpt lat="43.27111" lon="-1.6886883">
        <time>2022-07-02T13:22:46Z</time>
      </trkpt>
      <trkpt lat="43.27106" lon="-1.688646">
        <time>2022-07-02T13:22:48Z</time>
      </trkpt>
      <trkpt lat="43.271008" lon="-1.6886052">
        <time>2022-07-02T13:22:50Z</time>
      </trkpt>
      <trkpt lat="43.27095" lon="-1.6885695">
        <time>2022-07-02T13:22:52Z</time>
      </trkpt>
      <trkpt lat="43.270897" lon="-1.6885376">
        <time>2022-07-02T13:22:54Z</time>
      </trkpt>
      <trkpt lat="43.270844" lon="-1.6885049">
        <time>2022-07-02T13:22:56Z</time>
      </trkpt>
      <trkpt lat="43.27078" lon="-1.6884686">
        <time>2022-07-02T13:22:58Z</time>
      </trkpt>
      <trkpt lat="43.270714" lon="-1.6884286">
        <time>2022-07-02T13:23:00Z</time>
      </trkpt>
      <trkpt lat="43.27065" lon="-1.6883919">
        <time>2022-07-02T13:23:02Z</time>
      </trkpt>
      <trkpt lat="43.270588" lon="-1.6883596">
        <time>2022-07-02T13:23:04Z</time>
      </trkpt>
      <trkpt lat="43.270523" lon="-1.6883279">
        <time>2022-07-02T13:23:06Z</time>
      </trkpt>
      <trkpt lat="43.270462" lon="-1.6882963">
        <time>2022-07-02T13:23:08Z</time>
      </trkpt>
      <trkpt lat="43.2704" lon="-1.6882676">
        <time>2022-07-02T13:23:10Z</time>
      </trkpt>
      <trkpt lat="43.270344" lon="-1.688244">
        <time>2022-07-02T13:23:12Z</time>
      </trkpt>
      <trkpt lat="43.270283" lon="-1.6882203">
        <time>2022-07-02T13:23:14Z</time>
      </trkpt>
      <trkpt lat="43.270226" lon="-1.6881896">
        <time>2022-07-02T13:23:16Z</time>
      </trkpt>
      <trkpt lat="43.27017" lon="-1.6881533">
        <time>2022-07-02T13:23:18Z</time>
      </trkpt>
      <trkpt lat="43.270115" lon="-1.6881133">
        <time>2022-07-02T13:23:20Z</time>
      </trkpt>
      <trkpt lat="43.270065" lon="-1.6880713">
        <time>2022-07-02T13:23:22Z</time>
      </trkpt>
      <trkpt lat="43.270016" lon="-1.6880293">
        <time>2022-07-02T13:23:24Z</time>
      </trkpt>
      <trkpt lat="43.26997" lon="-1.6879853">
        <time>2022-07-02T13:23:26Z</time>
      </trkpt>
      <trkpt lat="43.26993" lon="-1.687937">
        <time>2022-07-02T13:23:28Z</time>
      </trkpt>
      <trkpt lat="43.269894" lon="-1.687889">
        <time>2022-07-02T13:23:30Z</time>
      </trkpt>
      <trkpt lat="43.269855" lon="-1.6878333">
        <time>2022-07-02T13:23:32Z</time>
      </trkpt>
      <trkpt lat="43.26982" lon="-1.6877723">
        <time>2022-07-02T13:23:34Z</time>
      </trkpt>
      <trkpt lat="43.269783" lon="-1.6877036">
        <time>2022-07-02T13:23:36Z</time>
      </trkpt>
      <trkpt lat="43.269753" lon="-1.6876264">
        <time>2022-07-02T13:23:38Z</time>
      </trkpt>
      <trkpt lat="43.269726" lon="-1.6875397">
        <time>2022-07-02T13:23:40Z</time>
      </trkpt>
      <trkpt lat="43.269707" lon="-1.6874601">
        <time>2022-07-02T13:23:42Z</time>
      </trkpt>
      <trkpt lat="43.26968" lon="-1.6873803">
        <time>2022-07-02T13:23:44Z</time>
      </trkpt>
      <trkpt lat="43.269653" lon="-1.6872997">
        <time>2022-07-02T13:23:46Z</time>
      </trkpt>
      <trkpt lat="43.269627" lon="-1.6872187">
        <time>2022-07-02T13:23:48Z</time>
      </trkpt>
      <trkpt lat="43.269608" lon="-1.68714">
        <time>2022-07-02T13:23:50Z</time>
      </trkpt>
      <trkpt lat="43.26959" lon="-1.6870617">
        <time>2022-07-02T13:23:52Z</time>
      </trkpt>
      <trkpt lat="43.26957" lon="-1.6869844">
        <time>2022-07-02T13:23:54Z</time>
      </trkpt>
      <trkpt lat="43.26955" lon="-1.6869043">
        <time>2022-07-02T13:23:56Z</time>
      </trkpt>
      <trkpt lat="43.269527" lon="-1.68682">
        <time>2022-07-02T13:23:58Z</time>
      </trkpt>
      <trkpt lat="43.269505" lon="-1.6867387">
        <time>2022-07-02T13:24:00Z</time>
      </trkpt>
      <trkpt lat="43.26948" lon="-1.6866534">
        <time>2022-07-02T13:24:02Z</time>
      </trkpt>
      <trkpt lat="43.26946" lon="-1.686563">
        <time>2022-07-02T13:24:04Z</time>
      </trkpt>
      <trkpt lat="43.26944" lon="-1.6864704">
        <time>2022-07-02T13:24:06Z</time>
      </trkpt>
      <trkpt lat="43.26943" lon="-1.6863774">
        <time>2022-07-02T13:24:08Z</time>
      </trkpt>
      <trkpt lat="43.26941" lon="-1.6862844">
        <time>2022-07-02T13:24:10Z</time>
      </trkpt>
      <trkpt lat="43.26939" lon="-1.6861874">
        <time>2022-07-02T13:24:12Z</time>
      </trkpt>
      <trkpt lat="43.269363" lon="-1.6860437">
        <time>2022-07-02T13:24:15Z</time>
      </trkpt>
      <trkpt lat="43.26934" lon="-1.6859487">
        <time>2022-07-02T13:24:17Z</time>
      </trkpt>
      <trkpt lat="43.26932" lon="-1.6858531">
        <time>2022-07-02T13:24:19Z</time>
      </trkpt>
      <trkpt lat="43.269306" lon="-1.6857611">
        <time>2022-07-02T13:24:21Z</time>
      </trkpt>
      <trkpt lat="43.269283" lon="-1.685675">
        <time>2022-07-02T13:24:23Z</time>
      </trkpt>
      <trkpt lat="43.269264" lon="-1.6855907">
        <time>2022-07-02T13:24:25Z</time>
      </trkpt>
      <trkpt lat="43.26924" lon="-1.685507">
        <time>2022-07-02T13:24:27Z</time>
      </trkpt>
      <trkpt lat="43.269215" lon="-1.6854217">
        <time>2022-07-02T13:24:29Z</time>
      </trkpt>
      <trkpt lat="43.26918" lon="-1.6853378">
        <time>2022-07-02T13:24:31Z</time>
      </trkpt>
      <trkpt lat="43.269142" lon="-1.6852554">
        <time>2022-07-02T13:24:33Z</time>
      </trkpt>
      <trkpt lat="43.2691" lon="-1.6851774">
        <time>2022-07-02T13:24:35Z</time>
      </trkpt>
      <trkpt lat="43.26906" lon="-1.6851034">
        <time>2022-07-02T13:24:37Z</time>
      </trkpt>
      <trkpt lat="43.269012" lon="-1.6850331">
        <time>2022-07-02T13:24:39Z</time>
      </trkpt>
      <trkpt lat="43.268955" lon="-1.6849654">
        <time>2022-07-02T13:24:41Z</time>
      </trkpt>
      <trkpt lat="43.268894" lon="-1.6849011">
        <time>2022-07-02T13:24:43Z</time>
      </trkpt>
      <trkpt lat="43.26883" lon="-1.6848447">
        <time>2022-07-02T13:24:45Z</time>
      </trkpt>
      <trkpt lat="43.26876" lon="-1.6847987">
        <time>2022-07-02T13:24:47Z</time>
      </trkpt>
      <trkpt lat="43.26869" lon="-1.6847578">
        <time>2022-07-02T13:24:49Z</time>
      </trkpt>
      <trkpt lat="43.268612" lon="-1.6847231">
        <time>2022-07-02T13:24:51Z</time>
      </trkpt>
      <trkpt lat="43.26853" lon="-1.6846927">
        <time>2022-07-02T13:24:53Z</time>
      </trkpt>
      <trkpt lat="43.268456" lon="-1.6846688">
        <time>2022-07-02T13:24:55Z</time>
      </trkpt>
      <trkpt lat="43.26838" lon="-1.6846495">
        <time>2022-07-02T13:24:57Z</time>
      </trkpt>
      <trkpt lat="43.268303" lon="-1.6846344">
        <time>2022-07-02T13:24:59Z</time>
      </trkpt>
      <trkpt lat="43.268223" lon="-1.6846315">
        <time>2022-07-02T13:25:01Z</time>
      </trkpt>
      <trkpt lat="43.268147" lon="-1.6846358">
        <time>2022-07-02T13:25:03Z</time>
      </trkpt>
      <trkpt lat="43.26807" lon="-1.6846488">
        <time>2022-07-02T13:25:05Z</time>
      </trkpt>
      <trkpt lat="43.267994" lon="-1.6846728">
        <time>2022-07-02T13:25:07Z</time>
      </trkpt>
      <trkpt lat="43.267918" lon="-1.6847028">
        <time>2022-07-02T13:25:09Z</time>
      </trkpt>
      <trkpt lat="43.267845" lon="-1.6847391">
        <time>2022-07-02T13:25:11Z</time>
      </trkpt>
      <trkpt lat="43.267773" lon="-1.6847838">
        <time>2022-07-02T13:25:13Z</time>
      </trkpt>
      <trkpt lat="43.267704" lon="-1.6848311">
        <time>2022-07-02T13:25:15Z</time>
      </trkpt>
      <trkpt lat="43.267635" lon="-1.6848787">
        <time>2022-07-02T13:25:17Z</time>
      </trkpt>
      <trkpt lat="43.26757" lon="-1.6849288">
        <time>2022-07-02T13:25:19Z</time>
      </trkpt>
      <trkpt lat="43.26747" lon="-1.6850051">
        <time>2022-07-02T13:25:22Z</time>
      </trkpt>
      <trkpt lat="43.26741" lon="-1.6850537">
        <time>2022-07-02T13:25:24Z</time>
      </trkpt>
      <trkpt lat="43.26734" lon="-1.6850997">
        <time>2022-07-02T13:25:26Z</time>
      </trkpt>
      <trkpt lat="43.26727" lon="-1.6851468">
        <time>2022-07-02T13:25:28Z</time>
      </trkpt>
      <trkpt lat="43.26719" lon="-1.6851971">
        <time>2022-07-02T13:25:30Z</time>
      </trkpt>
      <trkpt lat="43.26711" lon="-1.6852508">
        <time>2022-07-02T13:25:32Z</time>
      </trkpt>
      <trkpt lat="43.267025" lon="-1.685307">
        <time>2022-07-02T13:25:34Z</time>
      </trkpt>
      <trkpt lat="43.266953" lon="-1.6853575">
        <time>2022-07-02T13:25:36Z</time>
      </trkpt>
      <trkpt lat="43.266888" lon="-1.6854037">
        <time>2022-07-02T13:25:38Z</time>
      </trkpt>
      <trkpt lat="43.266827" lon="-1.685446">
        <time>2022-07-02T13:25:40Z</time>
      </trkpt>
      <trkpt lat="43.26676" lon="-1.6854877">
        <time>2022-07-02T13:25:42Z</time>
      </trkpt>
      <trkpt lat="43.2667" lon="-1.6855351">
        <time>2022-07-02T13:25:44Z</time>
      </trkpt>
      <trkpt lat="43.266636" lon="-1.6855828">
        <time>2022-07-02T13:25:46Z</time>
      </trkpt>
      <trkpt lat="43.266567" lon="-1.6856257">
        <time>2022-07-02T13:25:48Z</time>
      </trkpt>
      <trkpt lat="43.266502" lon="-1.6856711">
        <time>2022-07-02T13:25:50Z</time>
      </trkpt>
      <trkpt lat="43.26644" lon="-1.6857147">
        <time>2022-07-02T13:25:52Z</time>
      </trkpt>
      <trkpt lat="43.266376" lon="-1.6857597">
        <time>2022-07-02T13:25:54Z</time>
      </trkpt>
      <trkpt lat="43.26631" lon="-1.6858047">
        <time>2022-07-02T13:25:56Z</time>
      </trkpt>
      <trkpt lat="43.26625" lon="-1.6858517">
        <time>2022-07-02T13:25:58Z</time>
      </trkpt>
      <trkpt lat="43.26619" lon="-1.6859057">
        <time>2022-07-02T13:26:00Z</time>
      </trkpt>
      <trkpt lat="43.26613" lon="-1.6859688">
        <time>2022-07-02T13:26:02Z</time>
      </trkpt>
      <trkpt lat="43.26607" lon="-1.6860363">
        <time>2022-07-02T13:26:04Z</time>
      </trkpt>
      <trkpt lat="43.266003" lon="-1.6861024">
        <time>2022-07-02T13:26:06Z</time>
      </trkpt>
      <trkpt lat="43.265934" lon="-1.6861697">
        <time>2022-07-02T13:26:08Z</time>
      </trkpt>
      <trkpt lat="43.26588" lon="-1.6862403">
        <time>2022-07-02T13:26:10Z</time>
      </trkpt>
      <trkpt lat="43.265823" lon="-1.6863014">
        <time>2022-07-02T13:26:12Z</time>
      </trkpt>
      <trkpt lat="43.26577" lon="-1.6863617">
        <time>2022-07-02T13:26:14Z</time>
      </trkpt>
      <trkpt lat="43.265717" lon="-1.686424">
        <time>2022-07-02T13:26:16Z</time>
      </trkpt>
      <trkpt lat="43.26566" lon="-1.6864817">
        <time>2022-07-02T13:26:18Z</time>
      </trkpt>
      <trkpt lat="43.265602" lon="-1.6865387">
        <time>2022-07-02T13:26:20Z</time>
      </trkpt>
      <trkpt lat="43.265545" lon="-1.6865927">
        <time>2022-07-02T13:26:22Z</time>
      </trkpt>
      <trkpt lat="43.265484" lon="-1.6866356">
        <time>2022-07-02T13:26:24Z</time>
      </trkpt>
      <trkpt lat="43.265415" lon="-1.6866777">
        <time>2022-07-02T13:26:26Z</time>
      </trkpt>
      <trkpt lat="43.265354" lon="-1.6867293">
        <time>2022-07-02T13:26:28Z</time>
      </trkpt>
      <trkpt lat="43.26529" lon="-1.6867857">
        <time>2022-07-02T13:26:30Z</time>
      </trkpt>
      <trkpt lat="43.265232" lon="-1.686847">
        <time>2022-07-02T13:26:32Z</time>
      </trkpt>
      <trkpt lat="43.265144" lon="-1.686941">
        <time>2022-07-02T13:26:35Z</time>
      </trkpt>
      <trkpt lat="43.265083" lon="-1.6870056">
        <time>2022-07-02T13:26:37Z</time>
      </trkpt>
      <trkpt lat="43.26502" lon="-1.6870667">
        <time>2022-07-02T13:26:39Z</time>
      </trkpt>
      <trkpt lat="43.264957" lon="-1.687124">
        <time>2022-07-02T13:26:41Z</time>
      </trkpt>
      <trkpt lat="43.2649" lon="-1.6871747">
        <time>2022-07-02T13:26:43Z</time>
      </trkpt>
      <trkpt lat="43.26484" lon="-1.6872253">
        <time>2022-07-02T13:26:45Z</time>
      </trkpt>
      <trkpt lat="43.264774" lon="-1.6872673">
        <time>2022-07-02T13:26:47Z</time>
      </trkpt>
      <trkpt lat="43.264706" lon="-1.6872979">
        <time>2022-07-02T13:26:49Z</time>
      </trkpt>
      <trkpt lat="43.264637" lon="-1.687315">
        <time>2022-07-02T13:26:51Z</time>
      </trkpt>
      <trkpt lat="43.26456" lon="-1.6873313">
        <time>2022-07-02T13:26:53Z</time>
      </trkpt>
      <trkpt lat="43.26449" lon="-1.6873513">
        <time>2022-07-02T13:26:55Z</time>
      </trkpt>
      <trkpt lat="43.264416" lon="-1.6873673">
        <time>2022-07-02T13:26:57Z</time>
      </trkpt>
      <trkpt lat="43.26435" lon="-1.6873889">
        <time>2022-07-02T13:26:59Z</time>
      </trkpt>
      <trkpt lat="43.264286" lon="-1.6874143">
        <time>2022-07-02T13:27:01Z</time>
      </trkpt>
      <trkpt lat="43.26422" lon="-1.687436">
        <time>2022-07-02T13:27:03Z</time>
      </trkpt>
      <trkpt lat="43.264153" lon="-1.6874603">
        <time>2022-07-02T13:27:05Z</time>
      </trkpt>
      <trkpt lat="43.26408" lon="-1.687475">
        <time>2022-07-02T13:27:07Z</time>
      </trkpt>
      <trkpt lat="43.264008" lon="-1.6874819">
        <time>2022-07-02T13:27:09Z</time>
      </trkpt>
      <trkpt lat="43.263943" lon="-1.687485">
        <time>2022-07-02T13:27:11Z</time>
      </trkpt>
      <trkpt lat="43.263878" lon="-1.6874859">
        <time>2022-07-02T13:27:13Z</time>
      </trkpt>
      <trkpt lat="43.26381" lon="-1.6874949">
        <time>2022-07-02T13:27:15Z</time>
      </trkpt>
      <trkpt lat="43.263737" lon="-1.6875056">
        <time>2022-07-02T13:27:17Z</time>
      </trkpt>
      <trkpt lat="43.263653" lon="-1.6875199">
        <time>2022-07-02T13:27:19Z</time>
      </trkpt>
      <trkpt lat="43.263573" lon="-1.6875212">
        <time>2022-07-02T13:27:21Z</time>
      </trkpt>
      <trkpt lat="43.263504" lon="-1.6875069">
        <time>2022-07-02T13:27:23Z</time>
      </trkpt>
      <trkpt lat="43.263435" lon="-1.6874872">
        <time>2022-07-02T13:27:25Z</time>
      </trkpt>
      <trkpt lat="43.263363" lon="-1.6874603">
        <time>2022-07-02T13:27:27Z</time>
      </trkpt>
      <trkpt lat="43.263294" lon="-1.6874386">
        <time>2022-07-02T13:27:29Z</time>
      </trkpt>
      <trkpt lat="43.26323" lon="-1.6874199">
        <time>2022-07-02T13:27:31Z</time>
      </trkpt>
      <trkpt lat="43.26316" lon="-1.6873963">
        <time>2022-07-02T13:27:33Z</time>
      </trkpt>
      <trkpt lat="43.263092" lon="-1.6873753">
        <time>2022-07-02T13:27:35Z</time>
      </trkpt>
      <trkpt lat="43.26302" lon="-1.687351">
        <time>2022-07-02T13:27:37Z</time>
      </trkpt>
      <trkpt lat="43.262947" lon="-1.68732">
        <time>2022-07-02T13:27:39Z</time>
      </trkpt>
      <trkpt lat="43.262882" lon="-1.6872896">
        <time>2022-07-02T13:27:41Z</time>
      </trkpt>
      <trkpt lat="43.26282" lon="-1.687261">
        <time>2022-07-02T13:27:43Z</time>
      </trkpt>
      <trkpt lat="43.26276" lon="-1.6872272">
        <time>2022-07-02T13:27:45Z</time>
      </trkpt>
      <trkpt lat="43.262688" lon="-1.6871912">
        <time>2022-07-02T13:27:47Z</time>
      </trkpt>
      <trkpt lat="43.262592" lon="-1.687129">
        <time>2022-07-02T13:27:50Z</time>
      </trkpt>
      <trkpt lat="43.262524" lon="-1.6870786">
        <time>2022-07-02T13:27:52Z</time>
      </trkpt>
      <trkpt lat="43.262466" lon="-1.68703">
        <time>2022-07-02T13:27:54Z</time>
      </trkpt>
      <trkpt lat="43.262413" lon="-1.6869806">
        <time>2022-07-02T13:27:56Z</time>
      </trkpt>
      <trkpt lat="43.26236" lon="-1.6869277">
        <time>2022-07-02T13:27:58Z</time>
      </trkpt>
      <trkpt lat="43.262302" lon="-1.6868637">
        <time>2022-07-02T13:28:00Z</time>
      </trkpt>
      <trkpt lat="43.262253" lon="-1.6867976">
        <time>2022-07-02T13:28:02Z</time>
      </trkpt>
      <trkpt lat="43.26219" lon="-1.6867427">
        <time>2022-07-02T13:28:04Z</time>
      </trkpt>
      <trkpt lat="43.262135" lon="-1.686698">
        <time>2022-07-02T13:28:06Z</time>
      </trkpt>
      <trkpt lat="43.262077" lon="-1.6866523">
        <time>2022-07-02T13:28:08Z</time>
      </trkpt>
      <trkpt lat="43.262024" lon="-1.686595">
        <time>2022-07-02T13:28:10Z</time>
      </trkpt>
      <trkpt lat="43.26197" lon="-1.686531">
        <time>2022-07-02T13:28:12Z</time>
      </trkpt>
      <trkpt lat="43.261917" lon="-1.686467">
        <time>2022-07-02T13:28:14Z</time>
      </trkpt>
      <trkpt lat="43.261864" lon="-1.6864014">
        <time>2022-07-02T13:28:16Z</time>
      </trkpt>
      <trkpt lat="43.261814" lon="-1.6863353">
        <time>2022-07-02T13:28:18Z</time>
      </trkpt>
      <trkpt lat="43.26176" lon="-1.6862717">
        <time>2022-07-02T13:28:20Z</time>
      </trkpt>
      <trkpt lat="43.261707" lon="-1.6862056">
        <time>2022-07-02T13:28:22Z</time>
      </trkpt>
      <trkpt lat="43.261654" lon="-1.6861364">
        <time>2022-07-02T13:28:24Z</time>
      </trkpt>
      <trkpt lat="43.261597" lon="-1.6860694">
        <time>2022-07-02T13:28:26Z</time>
      </trkpt>
      <trkpt lat="43.261547" lon="-1.6859983">
        <time>2022-07-02T13:28:28Z</time>
      </trkpt>
      <trkpt lat="43.2615" lon="-1.685926">
        <time>2022-07-02T13:28:30Z</time>
      </trkpt>
      <trkpt lat="43.261463" lon="-1.6858513">
        <time>2022-07-02T13:28:32Z</time>
      </trkpt>
      <trkpt lat="43.26142" lon="-1.685773">
        <time>2022-07-02T13:28:34Z</time>
      </trkpt>
      <trkpt lat="43.26138" lon="-1.6856884">
        <time>2022-07-02T13:28:36Z</time>
      </trkpt>
      <trkpt lat="43.261333" lon="-1.6856004">
        <time>2022-07-02T13:28:38Z</time>
      </trkpt>
      <trkpt lat="43.26129" lon="-1.6855143">
        <time>2022-07-02T13:28:40Z</time>
      </trkpt>
      <trkpt lat="43.26125" lon="-1.6854297">
        <time>2022-07-02T13:28:42Z</time>
      </trkpt>
      <trkpt lat="43.261208" lon="-1.6853421">
        <time>2022-07-02T13:28:44Z</time>
      </trkpt>
      <trkpt lat="43.261166" lon="-1.685258">
        <time>2022-07-02T13:28:46Z</time>
      </trkpt>
      <trkpt lat="43.261124" lon="-1.6851784">
        <time>2022-07-02T13:28:48Z</time>
      </trkpt>
      <trkpt lat="43.26108" lon="-1.6851027">
        <time>2022-07-02T13:28:50Z</time>
      </trkpt>
      <trkpt lat="43.26104" lon="-1.6850281">
        <time>2022-07-02T13:28:52Z</time>
      </trkpt>
      <trkpt lat="43.261005" lon="-1.6849434">
        <time>2022-07-02T13:28:54Z</time>
      </trkpt>
      <trkpt lat="43.26097" lon="-1.6848574">
        <time>2022-07-02T13:28:56Z</time>
      </trkpt>
      <trkpt lat="43.260937" lon="-1.6847714">
        <time>2022-07-02T13:28:58Z</time>
      </trkpt>
      <trkpt lat="43.260914" lon="-1.6846831">
        <time>2022-07-02T13:29:00Z</time>
      </trkpt>
      <trkpt lat="43.260883" lon="-1.6845868">
        <time>2022-07-02T13:29:02Z</time>
      </trkpt>
      <trkpt lat="43.260834" lon="-1.6844537">
        <time>2022-07-02T13:29:05Z</time>
      </trkpt>
      <trkpt lat="43.2608" lon="-1.684365">
        <time>2022-07-02T13:29:07Z</time>
      </trkpt>
      <trkpt lat="43.260765" lon="-1.6842741">
        <time>2022-07-02T13:29:09Z</time>
      </trkpt>
      <trkpt lat="43.260727" lon="-1.6841807">
        <time>2022-07-02T13:29:11Z</time>
      </trkpt>
      <trkpt lat="43.26068" lon="-1.6840898">
        <time>2022-07-02T13:29:13Z</time>
      </trkpt>
      <trkpt lat="43.260628" lon="-1.6840065">
        <time>2022-07-02T13:29:15Z</time>
      </trkpt>
      <trkpt lat="43.260582" lon="-1.6839268">
        <time>2022-07-02T13:29:17Z</time>
      </trkpt>
      <trkpt lat="43.260536" lon="-1.6838474">
        <time>2022-07-02T13:29:19Z</time>
      </trkpt>
      <trkpt lat="43.260494" lon="-1.6837721">
        <time>2022-07-02T13:29:21Z</time>
      </trkpt>
      <trkpt lat="43.26046" lon="-1.6836962">
        <time>2022-07-02T13:29:23Z</time>
      </trkpt>
      <trkpt lat="43.260426" lon="-1.6836128">
        <time>2022-07-02T13:29:25Z</time>
      </trkpt>
      <trkpt lat="43.26039" lon="-1.6835295">
        <time>2022-07-02T13:29:27Z</time>
      </trkpt>
      <trkpt lat="43.26036" lon="-1.6834458">
        <time>2022-07-02T13:29:29Z</time>
      </trkpt>
      <trkpt lat="43.26033" lon="-1.6833634">
        <time>2022-07-02T13:29:31Z</time>
      </trkpt>
      <trkpt lat="43.260307" lon="-1.6832808">
        <time>2022-07-02T13:29:33Z</time>
      </trkpt>
      <trkpt lat="43.26029" lon="-1.6831921">
        <time>2022-07-02T13:29:35Z</time>
      </trkpt>
      <trkpt lat="43.260273" lon="-1.6830978">
        <time>2022-07-02T13:29:37Z</time>
      </trkpt>
      <trkpt lat="43.26026" lon="-1.6830002">
        <time>2022-07-02T13:29:39Z</time>
      </trkpt>
      <trkpt lat="43.26025" lon="-1.6829028">
        <time>2022-07-02T13:29:41Z</time>
      </trkpt>
      <trkpt lat="43.260246" lon="-1.6828055">
        <time>2022-07-02T13:29:43Z</time>
      </trkpt>
      <trkpt lat="43.260242" lon="-1.6827092">
        <time>2022-07-02T13:29:45Z</time>
      </trkpt>
      <trkpt lat="43.26024" lon="-1.6826152">
        <time>2022-07-02T13:29:47Z</time>
      </trkpt>
      <trkpt lat="43.260235" lon="-1.6825211">
        <time>2022-07-02T13:29:49Z</time>
      </trkpt>
      <trkpt lat="43.260235" lon="-1.6824242">
        <time>2022-07-02T13:29:51Z</time>
      </trkpt>
      <trkpt lat="43.26024" lon="-1.6823285">
        <time>2022-07-02T13:29:53Z</time>
      </trkpt>
      <trkpt lat="43.260242" lon="-1.6822379">
        <time>2022-07-02T13:29:55Z</time>
      </trkpt>
      <trkpt lat="43.260246" lon="-1.6821412">
        <time>2022-07-02T13:29:57Z</time>
      </trkpt>
      <trkpt lat="43.260254" lon="-1.6820419">
        <time>2022-07-02T13:29:59Z</time>
      </trkpt>
      <trkpt lat="43.260258" lon="-1.6819435">
        <time>2022-07-02T13:30:01Z</time>
      </trkpt>
      <trkpt lat="43.26026" lon="-1.6818522">
        <time>2022-07-02T13:30:03Z</time>
      </trkpt>
      <trkpt lat="43.26027" lon="-1.6817676">
        <time>2022-07-02T13:30:05Z</time>
      </trkpt>
      <trkpt lat="43.260277" lon="-1.6816882">
        <time>2022-07-02T13:30:07Z</time>
      </trkpt>
      <trkpt lat="43.260284" lon="-1.6816108">
        <time>2022-07-02T13:30:09Z</time>
      </trkpt>
      <trkpt lat="43.26029" lon="-1.6815358">
        <time>2022-07-02T13:30:11Z</time>
      </trkpt>
      <trkpt lat="43.260284" lon="-1.6814672">
        <time>2022-07-02T13:30:13Z</time>
      </trkpt>
      <trkpt lat="43.260277" lon="-1.6814059">
        <time>2022-07-02T13:30:15Z</time>
      </trkpt>
      <trkpt lat="43.260246" lon="-1.6813296">
        <time>2022-07-02T13:30:18Z</time>
      </trkpt>
      <trkpt lat="43.26022" lon="-1.6812556">
        <time>2022-07-02T13:30:21Z</time>
      </trkpt>
      <trkpt lat="43.260178" lon="-1.6811699">
        <time>2022-07-02T13:30:24Z</time>
      </trkpt>
      <trkpt lat="43.260143" lon="-1.6811162">
        <time>2022-07-02T13:30:26Z</time>
      </trkpt>
      <trkpt lat="43.26011" lon="-1.6810616">
        <time>2022-07-02T13:30:28Z</time>
      </trkpt>
      <trkpt lat="43.260075" lon="-1.6810086">
        <time>2022-07-02T13:30:30Z</time>
      </trkpt>
      <trkpt lat="43.26002" lon="-1.6809173">
        <time>2022-07-02T13:30:33Z</time>
      </trkpt>
      <trkpt lat="43.259983" lon="-1.6808583">
        <time>2022-07-02T13:30:35Z</time>
      </trkpt>
      <trkpt lat="43.259945" lon="-1.6807983">
        <time>2022-07-02T13:30:37Z</time>
      </trkpt>
      <trkpt lat="43.259903" lon="-1.6807369">
        <time>2022-07-02T13:30:39Z</time>
      </trkpt>
      <trkpt lat="43.25986" lon="-1.6806786">
        <time>2022-07-02T13:30:41Z</time>
      </trkpt>
      <trkpt lat="43.259823" lon="-1.6806202">
        <time>2022-07-02T13:30:43Z</time>
      </trkpt>
      <trkpt lat="43.25978" lon="-1.680566">
        <time>2022-07-02T13:30:45Z</time>
      </trkpt>
      <trkpt lat="43.25974" lon="-1.6805133">
        <time>2022-07-02T13:30:47Z</time>
      </trkpt>
      <trkpt lat="43.259697" lon="-1.6804622">
        <time>2022-07-02T13:30:49Z</time>
      </trkpt>
      <trkpt lat="43.259655" lon="-1.6804123">
        <time>2022-07-02T13:30:51Z</time>
      </trkpt>
      <trkpt lat="43.259613" lon="-1.6803622">
        <time>2022-07-02T13:30:53Z</time>
      </trkpt>
      <trkpt lat="43.259567" lon="-1.6803169">
        <time>2022-07-02T13:30:55Z</time>
      </trkpt>
      <trkpt lat="43.25952" lon="-1.6802753">
        <time>2022-07-02T13:30:57Z</time>
      </trkpt>
      <trkpt lat="43.259476" lon="-1.680239">
        <time>2022-07-02T13:30:59Z</time>
      </trkpt>
      <trkpt lat="43.25943" lon="-1.6802106">
        <time>2022-07-02T13:31:01Z</time>
      </trkpt>
      <trkpt lat="43.259365" lon="-1.6801673">
        <time>2022-07-02T13:31:04Z</time>
      </trkpt>
      <trkpt lat="43.259315" lon="-1.6801336">
        <time>2022-07-02T13:31:06Z</time>
      </trkpt>
      <trkpt lat="43.259247" lon="-1.6801056">
        <time>2022-07-02T13:31:08Z</time>
      </trkpt>
      <trkpt lat="43.25916" lon="-1.6800942">
        <time>2022-07-02T13:31:10Z</time>
      </trkpt>
      <trkpt lat="43.25906" lon="-1.680102">
        <time>2022-07-02T13:31:12Z</time>
      </trkpt>
      <trkpt lat="43.25896" lon="-1.6801213">
        <time>2022-07-02T13:31:14Z</time>
      </trkpt>
      <trkpt lat="43.258865" lon="-1.6801519">
        <time>2022-07-02T13:31:16Z</time>
      </trkpt>
      <trkpt lat="43.258774" lon="-1.6801909">
        <time>2022-07-02T13:31:18Z</time>
      </trkpt>
      <trkpt lat="43.258682" lon="-1.6802416">
        <time>2022-07-02T13:31:20Z</time>
      </trkpt>
      <trkpt lat="43.2586" lon="-1.6802996">
        <time>2022-07-02T13:31:22Z</time>
      </trkpt>
      <trkpt lat="43.258522" lon="-1.6803553">
        <time>2022-07-02T13:31:24Z</time>
      </trkpt>
      <trkpt lat="43.258442" lon="-1.6804086">
        <time>2022-07-02T13:31:26Z</time>
      </trkpt>
      <trkpt lat="43.258366" lon="-1.6804546">
        <time>2022-07-02T13:31:28Z</time>
      </trkpt>
      <trkpt lat="43.258293" lon="-1.6804923">
        <time>2022-07-02T13:31:30Z</time>
      </trkpt>
      <trkpt lat="43.25822" lon="-1.6805255">
        <time>2022-07-02T13:31:32Z</time>
      </trkpt>
      <trkpt lat="43.258152" lon="-1.6805559">
        <time>2022-07-02T13:31:34Z</time>
      </trkpt>
      <trkpt lat="43.258083" lon="-1.6805823">
        <time>2022-07-02T13:31:36Z</time>
      </trkpt>
      <trkpt lat="43.25802" lon="-1.68061">
        <time>2022-07-02T13:31:38Z</time>
      </trkpt>
      <trkpt lat="43.25795" lon="-1.6806443">
        <time>2022-07-02T13:31:40Z</time>
      </trkpt>
      <trkpt lat="43.257885" lon="-1.6806822">
        <time>2022-07-02T13:31:42Z</time>
      </trkpt>
      <trkpt lat="43.257816" lon="-1.6807152">
        <time>2022-07-02T13:31:44Z</time>
      </trkpt>
      <trkpt lat="43.257744" lon="-1.6807475">
        <time>2022-07-02T13:31:46Z</time>
      </trkpt>
      <trkpt lat="43.25767" lon="-1.6807818">
        <time>2022-07-02T13:31:48Z</time>
      </trkpt>
      <trkpt lat="43.257595" lon="-1.6808122">
        <time>2022-07-02T13:31:50Z</time>
      </trkpt>
      <trkpt lat="43.257515" lon="-1.6808356">
        <time>2022-07-02T13:31:52Z</time>
      </trkpt>
      <trkpt lat="43.257435" lon="-1.6808572">
        <time>2022-07-02T13:31:54Z</time>
      </trkpt>
      <trkpt lat="43.25735" lon="-1.6808746">
        <time>2022-07-02T13:31:56Z</time>
      </trkpt>
      <trkpt lat="43.257267" lon="-1.6808989">
        <time>2022-07-02T13:31:58Z</time>
      </trkpt>
      <trkpt lat="43.257183" lon="-1.6809286">
        <time>2022-07-02T13:32:00Z</time>
      </trkpt>
      <trkpt lat="43.257095" lon="-1.6809509">
        <time>2022-07-02T13:32:02Z</time>
      </trkpt>
      <trkpt lat="43.257" lon="-1.6809672">
        <time>2022-07-02T13:32:04Z</time>
      </trkpt>
      <trkpt lat="43.2569" lon="-1.6809858">
        <time>2022-07-02T13:32:06Z</time>
      </trkpt>
      <trkpt lat="43.256805" lon="-1.6810122">
        <time>2022-07-02T13:32:08Z</time>
      </trkpt>
      <trkpt lat="43.25676" lon="-1.6810288">
        <time>2022-07-02T13:32:09Z</time>
      </trkpt>
      <trkpt lat="43.256664" lon="-1.6810699">
        <time>2022-07-02T13:32:11Z</time>
      </trkpt>
      <trkpt lat="43.25657" lon="-1.6811101">
        <time>2022-07-02T13:32:13Z</time>
      </trkpt>
      <trkpt lat="43.25648" lon="-1.6811495">
        <time>2022-07-02T13:32:15Z</time>
      </trkpt>
      <trkpt lat="43.25644" lon="-1.6811682">
        <time>2022-07-02T13:32:16Z</time>
      </trkpt>
      <trkpt lat="43.25636" lon="-1.6812092">
        <time>2022-07-02T13:32:18Z</time>
      </trkpt>
      <trkpt lat="43.25628" lon="-1.6812518">
        <time>2022-07-02T13:32:20Z</time>
      </trkpt>
      <trkpt lat="43.256207" lon="-1.6812898">
        <time>2022-07-02T13:32:22Z</time>
      </trkpt>
      <trkpt lat="43.256134" lon="-1.6813232">
        <time>2022-07-02T13:32:24Z</time>
      </trkpt>
      <trkpt lat="43.25607" lon="-1.6813614">
        <time>2022-07-02T13:32:26Z</time>
      </trkpt>
      <trkpt lat="43.256004" lon="-1.6813945">
        <time>2022-07-02T13:32:28Z</time>
      </trkpt>
      <trkpt lat="43.255936" lon="-1.6814169">
        <time>2022-07-02T13:32:30Z</time>
      </trkpt>
      <trkpt lat="43.255863" lon="-1.6814421">
        <time>2022-07-02T13:32:32Z</time>
      </trkpt>
      <trkpt lat="43.255795" lon="-1.6814758">
        <time>2022-07-02T13:32:34Z</time>
      </trkpt>
      <trkpt lat="43.25573" lon="-1.6815082">
        <time>2022-07-02T13:32:36Z</time>
      </trkpt>
      <trkpt lat="43.25567" lon="-1.6815258">
        <time>2022-07-02T13:32:38Z</time>
      </trkpt>
      <trkpt lat="43.2556" lon="-1.6815234">
        <time>2022-07-02T13:32:40Z</time>
      </trkpt>
      <trkpt lat="43.255524" lon="-1.6815101">
        <time>2022-07-02T13:32:42Z</time>
      </trkpt>
      <trkpt lat="43.255405" lon="-1.6814831">
        <time>2022-07-02T13:32:45Z</time>
      </trkpt>
      <trkpt lat="43.25533" lon="-1.6814531">
        <time>2022-07-02T13:32:47Z</time>
      </trkpt>
      <trkpt lat="43.255253" lon="-1.6814132">
        <time>2022-07-02T13:32:49Z</time>
      </trkpt>
      <trkpt lat="43.25518" lon="-1.6813664">
        <time>2022-07-02T13:32:51Z</time>
      </trkpt>
      <trkpt lat="43.255108" lon="-1.6813152">
        <time>2022-07-02T13:32:53Z</time>
      </trkpt>
      <trkpt lat="43.255035" lon="-1.6812738">
        <time>2022-07-02T13:32:55Z</time>
      </trkpt>
      <trkpt lat="43.254963" lon="-1.6812482">
        <time>2022-07-02T13:32:57Z</time>
      </trkpt>
      <trkpt lat="43.25489" lon="-1.6812421">
        <time>2022-07-02T13:32:59Z</time>
      </trkpt>
      <trkpt lat="43.254826" lon="-1.6812658">
        <time>2022-07-02T13:33:01Z</time>
      </trkpt>
      <trkpt lat="43.25477" lon="-1.6813128">
        <time>2022-07-02T13:33:03Z</time>
      </trkpt>
      <trkpt lat="43.254726" lon="-1.6813698">
        <time>2022-07-02T13:33:05Z</time>
      </trkpt>
      <trkpt lat="43.254696" lon="-1.6814351">
        <time>2022-07-02T13:33:07Z</time>
      </trkpt>
      <trkpt lat="43.254673" lon="-1.6815091">
        <time>2022-07-02T13:33:09Z</time>
      </trkpt>
      <trkpt lat="43.254654" lon="-1.6815819">
        <time>2022-07-02T13:33:11Z</time>
      </trkpt>
      <trkpt lat="43.254646" lon="-1.6816494">
        <time>2022-07-02T13:33:13Z</time>
      </trkpt>
      <trkpt lat="43.254642" lon="-1.6817374">
        <time>2022-07-02T13:33:16Z</time>
      </trkpt>
      <trkpt lat="43.25462" lon="-1.6817977">
        <time>2022-07-02T13:33:19Z</time>
      </trkpt>
      <trkpt lat="43.25456" lon="-1.6817541">
        <time>2022-07-02T13:33:23Z</time>
      </trkpt>
      <trkpt lat="43.254486" lon="-1.6816761">
        <time>2022-07-02T13:33:26Z</time>
      </trkpt>
      <trkpt lat="43.254414" lon="-1.6816355">
        <time>2022-07-02T13:33:28Z</time>
      </trkpt>
      <trkpt lat="43.25433" lon="-1.6816034">
        <time>2022-07-02T13:33:30Z</time>
      </trkpt>
      <trkpt lat="43.254234" lon="-1.6815748">
        <time>2022-07-02T13:33:32Z</time>
      </trkpt>
      <trkpt lat="43.254185" lon="-1.6815628">
        <time>2022-07-02T13:33:33Z</time>
      </trkpt>
      <trkpt lat="43.254135" lon="-1.6815538">
        <time>2022-07-02T13:33:34Z</time>
      </trkpt>
      <trkpt lat="43.254032" lon="-1.6815395">
        <time>2022-07-02T13:33:36Z</time>
      </trkpt>
      <trkpt lat="43.253933" lon="-1.6815318">
        <time>2022-07-02T13:33:38Z</time>
      </trkpt>
      <trkpt lat="43.253883" lon="-1.6815329">
        <time>2022-07-02T13:33:39Z</time>
      </trkpt>
      <trkpt lat="43.25378" lon="-1.6815375">
        <time>2022-07-02T13:33:41Z</time>
      </trkpt>
      <trkpt lat="43.253727" lon="-1.6815405">
        <time>2022-07-02T13:33:42Z</time>
      </trkpt>
      <trkpt lat="43.253624" lon="-1.6815444">
        <time>2022-07-02T13:33:44Z</time>
      </trkpt>
      <trkpt lat="43.253574" lon="-1.6815438">
        <time>2022-07-02T13:33:45Z</time>
      </trkpt>
      <trkpt lat="43.25348" lon="-1.6815401">
        <time>2022-07-02T13:33:47Z</time>
      </trkpt>
      <trkpt lat="43.253384" lon="-1.6815325">
        <time>2022-07-02T13:33:49Z</time>
      </trkpt>
      <trkpt lat="43.25329" lon="-1.6815258">
        <time>2022-07-02T13:33:51Z</time>
      </trkpt>
      <trkpt lat="43.253197" lon="-1.6815199">
        <time>2022-07-02T13:33:53Z</time>
      </trkpt>
      <trkpt lat="43.25311" lon="-1.6815082">
        <time>2022-07-02T13:33:55Z</time>
      </trkpt>
      <trkpt lat="43.25302" lon="-1.6814952">
        <time>2022-07-02T13:33:57Z</time>
      </trkpt>
      <trkpt lat="43.25293" lon="-1.6814796">
        <time>2022-07-02T13:33:59Z</time>
      </trkpt>
      <trkpt lat="43.25284" lon="-1.6814592">
        <time>2022-07-02T13:34:01Z</time>
      </trkpt>
      <trkpt lat="43.252747" lon="-1.6814365">
        <time>2022-07-02T13:34:03Z</time>
      </trkpt>
      <trkpt lat="43.252655" lon="-1.6814048">
        <time>2022-07-02T13:34:05Z</time>
      </trkpt>
      <trkpt lat="43.25261" lon="-1.6813862">
        <time>2022-07-02T13:34:06Z</time>
      </trkpt>
      <trkpt lat="43.252525" lon="-1.6813515">
        <time>2022-07-02T13:34:08Z</time>
      </trkpt>
      <trkpt lat="43.25245" lon="-1.6813176">
        <time>2022-07-02T13:34:10Z</time>
      </trkpt>
      <trkpt lat="43.252377" lon="-1.6812892">
        <time>2022-07-02T13:34:12Z</time>
      </trkpt>
      <trkpt lat="43.25231" lon="-1.6812652">
        <time>2022-07-02T13:34:14Z</time>
      </trkpt>
      <trkpt lat="43.252247" lon="-1.6812443">
        <time>2022-07-02T13:34:16Z</time>
      </trkpt>
      <trkpt lat="43.25218" lon="-1.6812239">
        <time>2022-07-02T13:34:18Z</time>
      </trkpt>
      <trkpt lat="43.252113" lon="-1.6812059">
        <time>2022-07-02T13:34:20Z</time>
      </trkpt>
      <trkpt lat="43.25204" lon="-1.6811839">
        <time>2022-07-02T13:34:22Z</time>
      </trkpt>
      <trkpt lat="43.251972" lon="-1.6811599">
        <time>2022-07-02T13:34:24Z</time>
      </trkpt>
      <trkpt lat="43.251904" lon="-1.6811329">
        <time>2022-07-02T13:34:26Z</time>
      </trkpt>
      <trkpt lat="43.25184" lon="-1.6811053">
        <time>2022-07-02T13:34:28Z</time>
      </trkpt>
      <trkpt lat="43.251774" lon="-1.6810743">
        <time>2022-07-02T13:34:30Z</time>
      </trkpt>
      <trkpt lat="43.251705" lon="-1.6810416">
        <time>2022-07-02T13:34:32Z</time>
      </trkpt>
      <trkpt lat="43.25164" lon="-1.681001">
        <time>2022-07-02T13:34:34Z</time>
      </trkpt>
      <trkpt lat="43.25157" lon="-1.6809542">
        <time>2022-07-02T13:34:36Z</time>
      </trkpt>
      <trkpt lat="43.251507" lon="-1.6809043">
        <time>2022-07-02T13:34:38Z</time>
      </trkpt>
      <trkpt lat="43.25144" lon="-1.6808486">
        <time>2022-07-02T13:34:40Z</time>
      </trkpt>
      <trkpt lat="43.251377" lon="-1.6807863">
        <time>2022-07-02T13:34:42Z</time>
      </trkpt>
      <trkpt lat="43.25132" lon="-1.6807156">
        <time>2022-07-02T13:34:44Z</time>
      </trkpt>
      <trkpt lat="43.251263" lon="-1.6806339">
        <time>2022-07-02T13:34:46Z</time>
      </trkpt>
      <trkpt lat="43.25121" lon="-1.6805459">
        <time>2022-07-02T13:34:48Z</time>
      </trkpt>
      <trkpt lat="43.25116" lon="-1.6804522">
        <time>2022-07-02T13:34:50Z</time>
      </trkpt>
      <trkpt lat="43.251114" lon="-1.6803557">
        <time>2022-07-02T13:34:52Z</time>
      </trkpt>
      <trkpt lat="43.251076" lon="-1.6802533">
        <time>2022-07-02T13:34:54Z</time>
      </trkpt>
      <trkpt lat="43.25104" lon="-1.6801476">
        <time>2022-07-02T13:34:56Z</time>
      </trkpt>
      <trkpt lat="43.251015" lon="-1.6800367">
        <time>2022-07-02T13:34:58Z</time>
      </trkpt>
      <trkpt lat="43.25099" lon="-1.6799192">
        <time>2022-07-02T13:35:00Z</time>
      </trkpt>
      <trkpt lat="43.25097" lon="-1.6798066">
        <time>2022-07-02T13:35:02Z</time>
      </trkpt>
      <trkpt lat="43.25095" lon="-1.679695">
        <time>2022-07-02T13:35:04Z</time>
      </trkpt>
      <trkpt lat="43.25094" lon="-1.6795809">
        <time>2022-07-02T13:35:06Z</time>
      </trkpt>
      <trkpt lat="43.25092" lon="-1.6794714">
        <time>2022-07-02T13:35:08Z</time>
      </trkpt>
      <trkpt lat="43.2509" lon="-1.6793603">
        <time>2022-07-02T13:35:10Z</time>
      </trkpt>
      <trkpt lat="43.25088" lon="-1.679246">
        <time>2022-07-02T13:35:12Z</time>
      </trkpt>
      <trkpt lat="43.250866" lon="-1.6791303">
        <time>2022-07-02T13:35:14Z</time>
      </trkpt>
      <trkpt lat="43.250847" lon="-1.679008">
        <time>2022-07-02T13:35:16Z</time>
      </trkpt>
      <trkpt lat="43.250828" lon="-1.678888">
        <time>2022-07-02T13:35:18Z</time>
      </trkpt>
      <trkpt lat="43.2508" lon="-1.6787816">
        <time>2022-07-02T13:35:20Z</time>
      </trkpt>
      <trkpt lat="43.25078" lon="-1.6786734">
        <time>2022-07-02T13:35:22Z</time>
      </trkpt>
      <trkpt lat="43.25076" lon="-1.6785576">
        <time>2022-07-02T13:35:24Z</time>
      </trkpt>
      <trkpt lat="43.250744" lon="-1.6784364">
        <time>2022-07-02T13:35:26Z</time>
      </trkpt>
      <trkpt lat="43.25073" lon="-1.6783156">
        <time>2022-07-02T13:35:28Z</time>
      </trkpt>
      <trkpt lat="43.250713" lon="-1.6781946">
        <time>2022-07-02T13:35:30Z</time>
      </trkpt>
      <trkpt lat="43.250694" lon="-1.6780736">
        <time>2022-07-02T13:35:32Z</time>
      </trkpt>
      <trkpt lat="43.25068" lon="-1.6779563">
        <time>2022-07-02T13:35:34Z</time>
      </trkpt>
      <trkpt lat="43.25066" lon="-1.6778353">
        <time>2022-07-02T13:35:36Z</time>
      </trkpt>
      <trkpt lat="43.25064" lon="-1.6777117">
        <time>2022-07-02T13:35:38Z</time>
      </trkpt>
      <trkpt lat="43.25062" lon="-1.6775883">
        <time>2022-07-02T13:35:40Z</time>
      </trkpt>
      <trkpt lat="43.250614" lon="-1.6775271">
        <time>2022-07-02T13:35:41Z</time>
      </trkpt>
      <trkpt lat="43.250595" lon="-1.677405">
        <time>2022-07-02T13:35:43Z</time>
      </trkpt>
      <trkpt lat="43.250576" lon="-1.6772847">
        <time>2022-07-02T13:35:45Z</time>
      </trkpt>
      <trkpt lat="43.25056" lon="-1.6771663">
        <time>2022-07-02T13:35:47Z</time>
      </trkpt>
      <trkpt lat="43.25054" lon="-1.6770474">
        <time>2022-07-02T13:35:49Z</time>
      </trkpt>
      <trkpt lat="43.250526" lon="-1.6769251">
        <time>2022-07-02T13:35:51Z</time>
      </trkpt>
      <trkpt lat="43.250507" lon="-1.676803">
        <time>2022-07-02T13:35:53Z</time>
      </trkpt>
      <trkpt lat="43.25049" lon="-1.676681">
        <time>2022-07-02T13:35:55Z</time>
      </trkpt>
      <trkpt lat="43.250473" lon="-1.6765591">
        <time>2022-07-02T13:35:57Z</time>
      </trkpt>
      <trkpt lat="43.250458" lon="-1.676439">
        <time>2022-07-02T13:35:59Z</time>
      </trkpt>
      <trkpt lat="43.250443" lon="-1.6763197">
        <time>2022-07-02T13:36:01Z</time>
      </trkpt>
      <trkpt lat="43.250427" lon="-1.6761994">
        <time>2022-07-02T13:36:03Z</time>
      </trkpt>
      <trkpt lat="43.250412" lon="-1.6760757">
        <time>2022-07-02T13:36:05Z</time>
      </trkpt>
      <trkpt lat="43.2504" lon="-1.6760137">
        <time>2022-07-02T13:36:06Z</time>
      </trkpt>
      <trkpt lat="43.250385" lon="-1.6758894">
        <time>2022-07-02T13:36:08Z</time>
      </trkpt>
      <trkpt lat="43.250362" lon="-1.6757644">
        <time>2022-07-02T13:36:10Z</time>
      </trkpt>
      <trkpt lat="43.250343" lon="-1.6756371">
        <time>2022-07-02T13:36:12Z</time>
      </trkpt>
      <trkpt lat="43.25032" lon="-1.6755117">
        <time>2022-07-02T13:36:14Z</time>
      </trkpt>
      <trkpt lat="43.2503" lon="-1.675384">
        <time>2022-07-02T13:36:16Z</time>
      </trkpt>
      <trkpt lat="43.250286" lon="-1.6752478">
        <time>2022-07-02T13:36:18Z</time>
      </trkpt>
      <trkpt lat="43.25027" lon="-1.6751068">
        <time>2022-07-02T13:36:20Z</time>
      </trkpt>
      <trkpt lat="43.25026" lon="-1.6750364">
        <time>2022-07-02T13:36:21Z</time>
      </trkpt>
      <trkpt lat="43.250248" lon="-1.6749661">
        <time>2022-07-02T13:36:22Z</time>
      </trkpt>
      <trkpt lat="43.250225" lon="-1.6748301">
        <time>2022-07-02T13:36:24Z</time>
      </trkpt>
      <trkpt lat="43.250214" lon="-1.6747648">
        <time>2022-07-02T13:36:25Z</time>
      </trkpt>
      <trkpt lat="43.2502" lon="-1.6746371">
        <time>2022-07-02T13:36:27Z</time>
      </trkpt>
      <trkpt lat="43.25018" lon="-1.6745101">
        <time>2022-07-02T13:36:29Z</time>
      </trkpt>
      <trkpt lat="43.250168" lon="-1.6743801">
        <time>2022-07-02T13:36:31Z</time>
      </trkpt>
      <trkpt lat="43.25016" lon="-1.6742438">
        <time>2022-07-02T13:36:33Z</time>
      </trkpt>
      <trkpt lat="43.250153" lon="-1.6741798">
        <time>2022-07-02T13:36:34Z</time>
      </trkpt>
      <trkpt lat="43.25013" lon="-1.6740497">
        <time>2022-07-02T13:36:36Z</time>
      </trkpt>
      <trkpt lat="43.2501" lon="-1.6739252">
        <time>2022-07-02T13:36:38Z</time>
      </trkpt>
      <trkpt lat="43.25006" lon="-1.6738251">
        <time>2022-07-02T13:36:40Z</time>
      </trkpt>
      <trkpt lat="43.25001" lon="-1.6737388">
        <time>2022-07-02T13:36:42Z</time>
      </trkpt>
      <trkpt lat="43.249966" lon="-1.6736594">
        <time>2022-07-02T13:36:44Z</time>
      </trkpt>
      <trkpt lat="43.249916" lon="-1.6735848">
        <time>2022-07-02T13:36:46Z</time>
      </trkpt>
      <trkpt lat="43.249866" lon="-1.6735108">
        <time>2022-07-02T13:36:48Z</time>
      </trkpt>
      <trkpt lat="43.24982" lon="-1.6734288">
        <time>2022-07-02T13:36:50Z</time>
      </trkpt>
      <trkpt lat="43.249775" lon="-1.6733531">
        <time>2022-07-02T13:36:52Z</time>
      </trkpt>
      <trkpt lat="43.249725" lon="-1.6732768">
        <time>2022-07-02T13:36:54Z</time>
      </trkpt>
      <trkpt lat="43.24967" lon="-1.6731988">
        <time>2022-07-02T13:36:56Z</time>
      </trkpt>
      <trkpt lat="43.249615" lon="-1.6731178">
        <time>2022-07-02T13:36:58Z</time>
      </trkpt>
      <trkpt lat="43.24956" lon="-1.6730407">
        <time>2022-07-02T13:37:00Z</time>
      </trkpt>
      <trkpt lat="43.249508" lon="-1.6729631">
        <time>2022-07-02T13:37:02Z</time>
      </trkpt>
      <trkpt lat="43.24945" lon="-1.6728835">
        <time>2022-07-02T13:37:04Z</time>
      </trkpt>
      <trkpt lat="43.249393" lon="-1.6728052">
        <time>2022-07-02T13:37:06Z</time>
      </trkpt>
      <trkpt lat="43.249332" lon="-1.6727288">
        <time>2022-07-02T13:37:08Z</time>
      </trkpt>
      <trkpt lat="43.24927" lon="-1.6726592">
        <time>2022-07-02T13:37:10Z</time>
      </trkpt>
      <trkpt lat="43.24921" lon="-1.6725942">
        <time>2022-07-02T13:37:12Z</time>
      </trkpt>
      <trkpt lat="43.24915" lon="-1.6725328">
        <time>2022-07-02T13:37:14Z</time>
      </trkpt>
      <trkpt lat="43.249096" lon="-1.6724695">
        <time>2022-07-02T13:37:16Z</time>
      </trkpt>
      <trkpt lat="43.24904" lon="-1.6723992">
        <time>2022-07-02T13:37:18Z</time>
      </trkpt>
      <trkpt lat="43.248978" lon="-1.6723281">
        <time>2022-07-02T13:37:20Z</time>
      </trkpt>
      <trkpt lat="43.248917" lon="-1.6722628">
        <time>2022-07-02T13:37:22Z</time>
      </trkpt>
      <trkpt lat="43.248848" lon="-1.6721948">
        <time>2022-07-02T13:37:24Z</time>
      </trkpt>
      <trkpt lat="43.248787" lon="-1.6721282">
        <time>2022-07-02T13:37:26Z</time>
      </trkpt>
      <trkpt lat="43.248722" lon="-1.6720566">
        <time>2022-07-02T13:37:28Z</time>
      </trkpt>
      <trkpt lat="43.248627" lon="-1.6719375">
        <time>2022-07-02T13:37:31Z</time>
      </trkpt>
      <trkpt lat="43.248558" lon="-1.6718498">
        <time>2022-07-02T13:37:33Z</time>
      </trkpt>
      <trkpt lat="43.248474" lon="-1.6717598">
        <time>2022-07-02T13:37:35Z</time>
      </trkpt>
      <trkpt lat="43.24843" lon="-1.6717182">
        <time>2022-07-02T13:37:36Z</time>
      </trkpt>
      <trkpt lat="43.248386" lon="-1.6716806">
        <time>2022-07-02T13:37:37Z</time>
      </trkpt>
      <trkpt lat="43.248337" lon="-1.6716412">
        <time>2022-07-02T13:37:38Z</time>
      </trkpt>
      <trkpt lat="43.248283" lon="-1.6716032">
        <time>2022-07-02T13:37:39Z</time>
      </trkpt>
      <trkpt lat="43.248234" lon="-1.6715668">
        <time>2022-07-02T13:37:40Z</time>
      </trkpt>
      <trkpt lat="43.248188" lon="-1.6715325">
        <time>2022-07-02T13:37:41Z</time>
      </trkpt>
      <trkpt lat="43.24814" lon="-1.6714989">
        <time>2022-07-02T13:37:42Z</time>
      </trkpt>
      <trkpt lat="43.248093" lon="-1.6714666">
        <time>2022-07-02T13:37:43Z</time>
      </trkpt>
      <trkpt lat="43.248047" lon="-1.6714352">
        <time>2022-07-02T13:37:44Z</time>
      </trkpt>
      <trkpt lat="43.24796" lon="-1.6713709">
        <time>2022-07-02T13:37:46Z</time>
      </trkpt>
      <trkpt lat="43.24788" lon="-1.6713083">
        <time>2022-07-02T13:37:48Z</time>
      </trkpt>
      <trkpt lat="43.247837" lon="-1.6712795">
        <time>2022-07-02T13:37:49Z</time>
      </trkpt>
      <trkpt lat="43.24776" lon="-1.6712216">
        <time>2022-07-02T13:37:51Z</time>
      </trkpt>
      <trkpt lat="43.247684" lon="-1.6711613">
        <time>2022-07-02T13:37:53Z</time>
      </trkpt>
      <trkpt lat="43.247612" lon="-1.671101">
        <time>2022-07-02T13:37:55Z</time>
      </trkpt>
      <trkpt lat="43.247536" lon="-1.6710386">
        <time>2022-07-02T13:37:57Z</time>
      </trkpt>
      <trkpt lat="43.247463" lon="-1.6709809">
        <time>2022-07-02T13:37:59Z</time>
      </trkpt>
      <trkpt lat="43.247387" lon="-1.6709206">
        <time>2022-07-02T13:38:01Z</time>
      </trkpt>
      <trkpt lat="43.24731" lon="-1.6708575">
        <time>2022-07-02T13:38:03Z</time>
      </trkpt>
      <trkpt lat="43.247234" lon="-1.6707953">
        <time>2022-07-02T13:38:05Z</time>
      </trkpt>
      <trkpt lat="43.247158" lon="-1.6707386">
        <time>2022-07-02T13:38:07Z</time>
      </trkpt>
      <trkpt lat="43.247078" lon="-1.6706827">
        <time>2022-07-02T13:38:09Z</time>
      </trkpt>
      <trkpt lat="43.246998" lon="-1.670625">
        <time>2022-07-02T13:38:11Z</time>
      </trkpt>
      <trkpt lat="43.246918" lon="-1.6705667">
        <time>2022-07-02T13:38:13Z</time>
      </trkpt>
      <trkpt lat="43.246838" lon="-1.6705096">
        <time>2022-07-02T13:38:15Z</time>
      </trkpt>
      <trkpt lat="43.246758" lon="-1.670452">
        <time>2022-07-02T13:38:17Z</time>
      </trkpt>
      <trkpt lat="43.246677" lon="-1.6703943">
        <time>2022-07-02T13:38:19Z</time>
      </trkpt>
      <trkpt lat="43.2466" lon="-1.670339">
        <time>2022-07-02T13:38:21Z</time>
      </trkpt>
      <trkpt lat="43.24652" lon="-1.6702839">
        <time>2022-07-02T13:38:23Z</time>
      </trkpt>
      <trkpt lat="43.24644" lon="-1.670226">
        <time>2022-07-02T13:38:25Z</time>
      </trkpt>
      <trkpt lat="43.24636" lon="-1.670165">
        <time>2022-07-02T13:38:27Z</time>
      </trkpt>
      <trkpt lat="43.24628" lon="-1.6701046">
        <time>2022-07-02T13:38:29Z</time>
      </trkpt>
      <trkpt lat="43.2462" lon="-1.6700467">
        <time>2022-07-02T13:38:31Z</time>
      </trkpt>
      <trkpt lat="43.24612" lon="-1.6699896">
        <time>2022-07-02T13:38:33Z</time>
      </trkpt>
      <trkpt lat="43.246044" lon="-1.6699396">
        <time>2022-07-02T13:38:35Z</time>
      </trkpt>
      <trkpt lat="43.245934" lon="-1.6698706">
        <time>2022-07-02T13:38:38Z</time>
      </trkpt>
      <trkpt lat="43.245865" lon="-1.6698283">
        <time>2022-07-02T13:38:40Z</time>
      </trkpt>
      <trkpt lat="43.245796" lon="-1.6697867">
        <time>2022-07-02T13:38:42Z</time>
      </trkpt>
      <trkpt lat="43.245728" lon="-1.669744">
        <time>2022-07-02T13:38:44Z</time>
      </trkpt>
      <trkpt lat="43.245647" lon="-1.669704">
        <time>2022-07-02T13:38:46Z</time>
      </trkpt>
      <trkpt lat="43.245556" lon="-1.669683">
        <time>2022-07-02T13:38:48Z</time>
      </trkpt>
      <trkpt lat="43.245464" lon="-1.6696917">
        <time>2022-07-02T13:38:50Z</time>
      </trkpt>
      <trkpt lat="43.24537" lon="-1.669729">
        <time>2022-07-02T13:38:52Z</time>
      </trkpt>
      <trkpt lat="43.245323" lon="-1.6697546">
        <time>2022-07-02T13:38:53Z</time>
      </trkpt>
      <trkpt lat="43.24523" lon="-1.6698077">
        <time>2022-07-02T13:38:55Z</time>
      </trkpt>
      <trkpt lat="43.245186" lon="-1.669833">
        <time>2022-07-02T13:38:56Z</time>
      </trkpt>
      <trkpt lat="43.245087" lon="-1.6698827">
        <time>2022-07-02T13:38:58Z</time>
      </trkpt>
      <trkpt lat="43.24504" lon="-1.6699066">
        <time>2022-07-02T13:38:59Z</time>
      </trkpt>
      <trkpt lat="43.244946" lon="-1.6699619">
        <time>2022-07-02T13:39:01Z</time>
      </trkpt>
      <trkpt lat="43.244904" lon="-1.669992">
        <time>2022-07-02T13:39:02Z</time>
      </trkpt>
      <trkpt lat="43.244816" lon="-1.6700577">
        <time>2022-07-02T13:39:04Z</time>
      </trkpt>
      <trkpt lat="43.24473" lon="-1.6701293">
        <time>2022-07-02T13:39:06Z</time>
      </trkpt>
      <trkpt lat="43.244656" lon="-1.6702056">
        <time>2022-07-02T13:39:08Z</time>
      </trkpt>
      <trkpt lat="43.24459" lon="-1.6702893">
        <time>2022-07-02T13:39:10Z</time>
      </trkpt>
      <trkpt lat="43.244556" lon="-1.6703336">
        <time>2022-07-02T13:39:11Z</time>
      </trkpt>
      <trkpt lat="43.24449" lon="-1.6704196">
        <time>2022-07-02T13:39:13Z</time>
      </trkpt>
      <trkpt lat="43.244427" lon="-1.6705023">
        <time>2022-07-02T13:39:15Z</time>
      </trkpt>
      <trkpt lat="43.24436" lon="-1.670584">
        <time>2022-07-02T13:39:17Z</time>
      </trkpt>
      <trkpt lat="43.2443" lon="-1.670669">
        <time>2022-07-02T13:39:19Z</time>
      </trkpt>
      <trkpt lat="43.24424" lon="-1.6707566">
        <time>2022-07-02T13:39:21Z</time>
      </trkpt>
      <trkpt lat="43.24418" lon="-1.6708412">
        <time>2022-07-02T13:39:23Z</time>
      </trkpt>
      <trkpt lat="43.24413" lon="-1.6709216">
        <time>2022-07-02T13:39:25Z</time>
      </trkpt>
      <trkpt lat="43.24408" lon="-1.6709993">
        <time>2022-07-02T13:39:27Z</time>
      </trkpt>
      <trkpt lat="43.244026" lon="-1.6710743">
        <time>2022-07-02T13:39:29Z</time>
      </trkpt>
      <trkpt lat="43.24397" lon="-1.6711552">
        <time>2022-07-02T13:39:31Z</time>
      </trkpt>
      <trkpt lat="43.243904" lon="-1.6712419">
        <time>2022-07-02T13:39:33Z</time>
      </trkpt>
      <trkpt lat="43.24384" lon="-1.6713469">
        <time>2022-07-02T13:39:35Z</time>
      </trkpt>
      <trkpt lat="43.243805" lon="-1.6714046">
        <time>2022-07-02T13:39:36Z</time>
      </trkpt>
      <trkpt lat="43.243774" lon="-1.6714538">
        <time>2022-07-02T13:39:37Z</time>
      </trkpt>
      <trkpt lat="43.24374" lon="-1.6715035">
        <time>2022-07-02T13:39:38Z</time>
      </trkpt>
      <trkpt lat="43.24365" lon="-1.6716446">
        <time>2022-07-02T13:39:41Z</time>
      </trkpt>
      <trkpt lat="43.243584" lon="-1.6717422">
        <time>2022-07-02T13:39:43Z</time>
      </trkpt>
      <trkpt lat="43.243515" lon="-1.6718389">
        <time>2022-07-02T13:39:45Z</time>
      </trkpt>
      <trkpt lat="43.243446" lon="-1.6719375">
        <time>2022-07-02T13:39:47Z</time>
      </trkpt>
      <trkpt lat="43.243378" lon="-1.6720382">
        <time>2022-07-02T13:39:49Z</time>
      </trkpt>
      <trkpt lat="43.24331" lon="-1.6721408">
        <time>2022-07-02T13:39:51Z</time>
      </trkpt>
      <trkpt lat="43.243275" lon="-1.6721915">
        <time>2022-07-02T13:39:52Z</time>
      </trkpt>
      <trkpt lat="43.243206" lon="-1.6722915">
        <time>2022-07-02T13:39:54Z</time>
      </trkpt>
      <trkpt lat="43.24314" lon="-1.6723886">
        <time>2022-07-02T13:39:56Z</time>
      </trkpt>
      <trkpt lat="43.243073" lon="-1.6724828">
        <time>2022-07-02T13:39:58Z</time>
      </trkpt>
      <trkpt lat="43.24304" lon="-1.6725302">
        <time>2022-07-02T13:39:59Z</time>
      </trkpt>
      <trkpt lat="43.242973" lon="-1.6726261">
        <time>2022-07-02T13:40:01Z</time>
      </trkpt>
      <trkpt lat="43.242943" lon="-1.6726701">
        <time>2022-07-02T13:40:02Z</time>
      </trkpt>
      <trkpt lat="43.242878" lon="-1.6727622">
        <time>2022-07-02T13:40:04Z</time>
      </trkpt>
      <trkpt lat="43.24281" lon="-1.6728559">
        <time>2022-07-02T13:40:06Z</time>
      </trkpt>
      <trkpt lat="43.242744" lon="-1.6729405">
        <time>2022-07-02T13:40:08Z</time>
      </trkpt>
      <trkpt lat="43.242676" lon="-1.6730261">
        <time>2022-07-02T13:40:10Z</time>
      </trkpt>
      <trkpt lat="43.24261" lon="-1.6731075">
        <time>2022-07-02T13:40:12Z</time>
      </trkpt>
      <trkpt lat="43.242542" lon="-1.6731911">
        <time>2022-07-02T13:40:14Z</time>
      </trkpt>
      <trkpt lat="43.242474" lon="-1.6732751">
        <time>2022-07-02T13:40:16Z</time>
      </trkpt>
      <trkpt lat="43.24241" lon="-1.6733625">
        <time>2022-07-02T13:40:18Z</time>
      </trkpt>
      <trkpt lat="43.24235" lon="-1.6734558">
        <time>2022-07-02T13:40:20Z</time>
      </trkpt>
      <trkpt lat="43.242294" lon="-1.6735488">
        <time>2022-07-02T13:40:22Z</time>
      </trkpt>
      <trkpt lat="43.242233" lon="-1.6736375">
        <time>2022-07-02T13:40:24Z</time>
      </trkpt>
      <trkpt lat="43.242172" lon="-1.6737278">
        <time>2022-07-02T13:40:26Z</time>
      </trkpt>
      <trkpt lat="43.242115" lon="-1.6738205">
        <time>2022-07-02T13:40:28Z</time>
      </trkpt>
      <trkpt lat="43.242054" lon="-1.6739154">
        <time>2022-07-02T13:40:30Z</time>
      </trkpt>
      <trkpt lat="43.242" lon="-1.6740158">
        <time>2022-07-02T13:40:32Z</time>
      </trkpt>
      <trkpt lat="43.241947" lon="-1.6741217">
        <time>2022-07-02T13:40:34Z</time>
      </trkpt>
      <trkpt lat="43.241898" lon="-1.6742305">
        <time>2022-07-02T13:40:36Z</time>
      </trkpt>
      <trkpt lat="43.241844" lon="-1.6743385">
        <time>2022-07-02T13:40:38Z</time>
      </trkpt>
      <trkpt lat="43.24182" lon="-1.6743921">
        <time>2022-07-02T13:40:39Z</time>
      </trkpt>
      <trkpt lat="43.24177" lon="-1.6745018">
        <time>2022-07-02T13:40:41Z</time>
      </trkpt>
      <trkpt lat="43.24172" lon="-1.674617">
        <time>2022-07-02T13:40:43Z</time>
      </trkpt>
      <trkpt lat="43.241642" lon="-1.6747781">
        <time>2022-07-02T13:40:46Z</time>
      </trkpt>
      <trkpt lat="43.2416" lon="-1.6748767">
        <time>2022-07-02T13:40:48Z</time>
      </trkpt>
      <trkpt lat="43.241547" lon="-1.6749711">
        <time>2022-07-02T13:40:50Z</time>
      </trkpt>
      <trkpt lat="43.241493" lon="-1.6750597">
        <time>2022-07-02T13:40:52Z</time>
      </trkpt>
      <trkpt lat="43.241436" lon="-1.6751434">
        <time>2022-07-02T13:40:54Z</time>
      </trkpt>
      <trkpt lat="43.241364" lon="-1.6752198">
        <time>2022-07-02T13:40:56Z</time>
      </trkpt>
      <trkpt lat="43.24129" lon="-1.6752957">
        <time>2022-07-02T13:40:58Z</time>
      </trkpt>
      <trkpt lat="43.24121" lon="-1.6753623">
        <time>2022-07-02T13:41:00Z</time>
      </trkpt>
      <trkpt lat="43.241123" lon="-1.6754191">
        <time>2022-07-02T13:41:02Z</time>
      </trkpt>
      <trkpt lat="43.241035" lon="-1.6754633">
        <time>2022-07-02T13:41:04Z</time>
      </trkpt>
      <trkpt lat="43.240944" lon="-1.6754997">
        <time>2022-07-02T13:41:06Z</time>
      </trkpt>
      <trkpt lat="43.240902" lon="-1.6755154">
        <time>2022-07-02T13:41:07Z</time>
      </trkpt>
      <trkpt lat="43.24081" lon="-1.675542">
        <time>2022-07-02T13:41:09Z</time>
      </trkpt>
      <trkpt lat="43.24071" lon="-1.675559">
        <time>2022-07-02T13:41:11Z</time>
      </trkpt>
      <trkpt lat="43.240616" lon="-1.6755613">
        <time>2022-07-02T13:41:13Z</time>
      </trkpt>
      <trkpt lat="43.240524" lon="-1.675551">
        <time>2022-07-02T13:41:15Z</time>
      </trkpt>
      <trkpt lat="43.240433" lon="-1.6755407">
        <time>2022-07-02T13:41:17Z</time>
      </trkpt>
      <trkpt lat="43.240345" lon="-1.675524">
        <time>2022-07-02T13:41:19Z</time>
      </trkpt>
      <trkpt lat="43.24026" lon="-1.675495">
        <time>2022-07-02T13:41:21Z</time>
      </trkpt>
      <trkpt lat="43.24018" lon="-1.675461">
        <time>2022-07-02T13:41:23Z</time>
      </trkpt>
      <trkpt lat="43.2401" lon="-1.6754167">
        <time>2022-07-02T13:41:25Z</time>
      </trkpt>
      <trkpt lat="43.24002" lon="-1.6753657">
        <time>2022-07-02T13:41:27Z</time>
      </trkpt>
      <trkpt lat="43.23995" lon="-1.675321">
        <time>2022-07-02T13:41:29Z</time>
      </trkpt>
      <trkpt lat="43.23988" lon="-1.675274">
        <time>2022-07-02T13:41:31Z</time>
      </trkpt>
      <trkpt lat="43.239815" lon="-1.6752237">
        <time>2022-07-02T13:41:33Z</time>
      </trkpt>
      <trkpt lat="43.239758" lon="-1.6751788">
        <time>2022-07-02T13:41:35Z</time>
      </trkpt>
      <trkpt lat="43.239708" lon="-1.6751384">
        <time>2022-07-02T13:41:37Z</time>
      </trkpt>
      <trkpt lat="43.239666" lon="-1.675106">
        <time>2022-07-02T13:41:39Z</time>
      </trkpt>
      <trkpt lat="43.237637" lon="-1.675132">
        <time>2022-07-02T13:42:31Z</time>
      </trkpt>
      <trkpt lat="43.237156" lon="-1.6757227">
        <time>2022-07-02T13:42:47Z</time>
      </trkpt>
      <trkpt lat="43.23709" lon="-1.6757967">
        <time>2022-07-02T13:42:50Z</time>
      </trkpt>
      <trkpt lat="43.237034" lon="-1.6758693">
        <time>2022-07-02T13:42:52Z</time>
      </trkpt>
      <trkpt lat="43.236977" lon="-1.6759597">
        <time>2022-07-02T13:42:54Z</time>
      </trkpt>
      <trkpt lat="43.236916" lon="-1.6760514">
        <time>2022-07-02T13:42:56Z</time>
      </trkpt>
      <trkpt lat="43.23686" lon="-1.6761436">
        <time>2022-07-02T13:42:58Z</time>
      </trkpt>
      <trkpt lat="43.2368" lon="-1.6762303">
        <time>2022-07-02T13:43:00Z</time>
      </trkpt>
      <trkpt lat="43.236748" lon="-1.676308">
        <time>2022-07-02T13:43:02Z</time>
      </trkpt>
      <trkpt lat="43.2367" lon="-1.676381">
        <time>2022-07-02T13:43:04Z</time>
      </trkpt>
      <trkpt lat="43.23664" lon="-1.6764507">
        <time>2022-07-02T13:43:06Z</time>
      </trkpt>
      <trkpt lat="43.236584" lon="-1.6765217">
        <time>2022-07-02T13:43:08Z</time>
      </trkpt>
      <trkpt lat="43.23652" lon="-1.6765937">
        <time>2022-07-02T13:43:10Z</time>
      </trkpt>
      <trkpt lat="43.236454" lon="-1.6766647">
        <time>2022-07-02T13:43:12Z</time>
      </trkpt>
      <trkpt lat="43.23638" lon="-1.6767297">
        <time>2022-07-02T13:43:14Z</time>
      </trkpt>
      <trkpt lat="43.236305" lon="-1.6767907">
        <time>2022-07-02T13:43:16Z</time>
      </trkpt>
      <trkpt lat="43.236263" lon="-1.6768206">
        <time>2022-07-02T13:43:17Z</time>
      </trkpt>
      <trkpt lat="43.236183" lon="-1.6768733">
        <time>2022-07-02T13:43:19Z</time>
      </trkpt>
      <trkpt lat="43.236107" lon="-1.6769233">
        <time>2022-07-02T13:43:21Z</time>
      </trkpt>
      <trkpt lat="43.236023" lon="-1.676963">
        <time>2022-07-02T13:43:23Z</time>
      </trkpt>
      <trkpt lat="43.23594" lon="-1.676993">
        <time>2022-07-02T13:43:25Z</time>
      </trkpt>
      <trkpt lat="43.23585" lon="-1.677016">
        <time>2022-07-02T13:43:27Z</time>
      </trkpt>
      <trkpt lat="43.235767" lon="-1.6770337">
        <time>2022-07-02T13:43:29Z</time>
      </trkpt>
      <trkpt lat="43.23568" lon="-1.6770487">
        <time>2022-07-02T13:43:31Z</time>
      </trkpt>
      <trkpt lat="43.23559" lon="-1.6770643">
        <time>2022-07-02T13:43:33Z</time>
      </trkpt>
      <trkpt lat="43.235504" lon="-1.6770823">
        <time>2022-07-02T13:43:35Z</time>
      </trkpt>
      <trkpt lat="43.235416" lon="-1.6770983">
        <time>2022-07-02T13:43:37Z</time>
      </trkpt>
      <trkpt lat="43.23533" lon="-1.6771146">
        <time>2022-07-02T13:43:39Z</time>
      </trkpt>
      <trkpt lat="43.23525" lon="-1.6771216">
        <time>2022-07-02T13:43:41Z</time>
      </trkpt>
      <trkpt lat="43.23516" lon="-1.6771166">
        <time>2022-07-02T13:43:43Z</time>
      </trkpt>
      <trkpt lat="43.23507" lon="-1.6771023">
        <time>2022-07-02T13:43:45Z</time>
      </trkpt>
      <trkpt lat="43.235027" lon="-1.677093">
        <time>2022-07-02T13:43:46Z</time>
      </trkpt>
      <trkpt lat="43.234936" lon="-1.6770667">
        <time>2022-07-02T13:43:48Z</time>
      </trkpt>
      <trkpt lat="43.234844" lon="-1.6770316">
        <time>2022-07-02T13:43:50Z</time>
      </trkpt>
      <trkpt lat="43.234756" lon="-1.6769884">
        <time>2022-07-02T13:43:52Z</time>
      </trkpt>
      <trkpt lat="43.23463" lon="-1.6769156">
        <time>2022-07-02T13:43:55Z</time>
      </trkpt>
      <trkpt lat="43.234554" lon="-1.676862">
        <time>2022-07-02T13:43:57Z</time>
      </trkpt>
      <trkpt lat="43.234478" lon="-1.6767987">
        <time>2022-07-02T13:43:59Z</time>
      </trkpt>
      <trkpt lat="43.234406" lon="-1.6767284">
        <time>2022-07-02T13:44:01Z</time>
      </trkpt>
      <trkpt lat="43.234333" lon="-1.6766523">
        <time>2022-07-02T13:44:03Z</time>
      </trkpt>
      <trkpt lat="43.23427" lon="-1.6765816">
        <time>2022-07-02T13:44:05Z</time>
      </trkpt>
      <trkpt lat="43.234207" lon="-1.676515">
        <time>2022-07-02T13:44:07Z</time>
      </trkpt>
      <trkpt lat="43.234146" lon="-1.6764463">
        <time>2022-07-02T13:44:09Z</time>
      </trkpt>
      <trkpt lat="43.23408" lon="-1.6763834">
        <time>2022-07-02T13:44:11Z</time>
      </trkpt>
      <trkpt lat="43.234005" lon="-1.676323">
        <time>2022-07-02T13:44:13Z</time>
      </trkpt>
      <trkpt lat="43.23393" lon="-1.6762524">
        <time>2022-07-02T13:44:15Z</time>
      </trkpt>
      <trkpt lat="43.233856" lon="-1.6761724">
        <time>2022-07-02T13:44:17Z</time>
      </trkpt>
      <trkpt lat="43.23378" lon="-1.6760864">
        <time>2022-07-02T13:44:19Z</time>
      </trkpt>
      <trkpt lat="43.233707" lon="-1.6759987">
        <time>2022-07-02T13:44:21Z</time>
      </trkpt>
      <trkpt lat="43.233673" lon="-1.675955">
        <time>2022-07-02T13:44:22Z</time>
      </trkpt>
      <trkpt lat="43.233604" lon="-1.6758693">
        <time>2022-07-02T13:44:24Z</time>
      </trkpt>
      <trkpt lat="43.233566" lon="-1.6758254">
        <time>2022-07-02T13:44:25Z</time>
      </trkpt>
      <trkpt lat="43.233498" lon="-1.6757357">
        <time>2022-07-02T13:44:27Z</time>
      </trkpt>
      <trkpt lat="43.233463" lon="-1.6756917">
        <time>2022-07-02T13:44:28Z</time>
      </trkpt>
      <trkpt lat="43.23339" lon="-1.6756084">
        <time>2022-07-02T13:44:30Z</time>
      </trkpt>
      <trkpt lat="43.23332" lon="-1.6755254">
        <time>2022-07-02T13:44:32Z</time>
      </trkpt>
      <trkpt lat="43.233284" lon="-1.6754831">
        <time>2022-07-02T13:44:33Z</time>
      </trkpt>
      <trkpt lat="43.233215" lon="-1.6753987">
        <time>2022-07-02T13:44:35Z</time>
      </trkpt>
      <trkpt lat="43.233147" lon="-1.675315">
        <time>2022-07-02T13:44:37Z</time>
      </trkpt>
      <trkpt lat="43.233078" lon="-1.6752357">
        <time>2022-07-02T13:44:39Z</time>
      </trkpt>
      <trkpt lat="43.23301" lon="-1.6751595">
        <time>2022-07-02T13:44:41Z</time>
      </trkpt>
      <trkpt lat="43.23294" lon="-1.6750834">
        <time>2022-07-02T13:44:43Z</time>
      </trkpt>
      <trkpt lat="43.23287" lon="-1.6750144">
        <time>2022-07-02T13:44:45Z</time>
      </trkpt>
      <trkpt lat="43.23279" lon="-1.6749591">
        <time>2022-07-02T13:44:47Z</time>
      </trkpt>
      <trkpt lat="43.23271" lon="-1.674913">
        <time>2022-07-02T13:44:49Z</time>
      </trkpt>
      <trkpt lat="43.23263" lon="-1.6748731">
        <time>2022-07-02T13:44:51Z</time>
      </trkpt>
      <trkpt lat="43.232548" lon="-1.6748388">
        <time>2022-07-02T13:44:53Z</time>
      </trkpt>
      <trkpt lat="43.232464" lon="-1.6748117">
        <time>2022-07-02T13:44:55Z</time>
      </trkpt>
      <trkpt lat="43.23233" lon="-1.6747854">
        <time>2022-07-02T13:44:58Z</time>
      </trkpt>
      <trkpt lat="43.232246" lon="-1.6747818">
        <time>2022-07-02T13:45:00Z</time>
      </trkpt>
      <trkpt lat="43.23216" lon="-1.6747965">
        <time>2022-07-02T13:45:02Z</time>
      </trkpt>
      <trkpt lat="43.232067" lon="-1.6748245">
        <time>2022-07-02T13:45:04Z</time>
      </trkpt>
      <trkpt lat="43.231976" lon="-1.6748611">
        <time>2022-07-02T13:45:06Z</time>
      </trkpt>
      <trkpt lat="43.23193" lon="-1.6748834">
        <time>2022-07-02T13:45:07Z</time>
      </trkpt>
      <trkpt lat="43.231842" lon="-1.6749405">
        <time>2022-07-02T13:45:09Z</time>
      </trkpt>
      <trkpt lat="43.231762" lon="-1.6750134">
        <time>2022-07-02T13:45:11Z</time>
      </trkpt>
      <trkpt lat="43.23169" lon="-1.6750954">
        <time>2022-07-02T13:45:13Z</time>
      </trkpt>
      <trkpt lat="43.23163" lon="-1.675181">
        <time>2022-07-02T13:45:15Z</time>
      </trkpt>
      <trkpt lat="43.231575" lon="-1.675263">
        <time>2022-07-02T13:45:17Z</time>
      </trkpt>
      <trkpt lat="43.231525" lon="-1.6753374">
        <time>2022-07-02T13:45:19Z</time>
      </trkpt>
      <trkpt lat="43.23147" lon="-1.6754264">
        <time>2022-07-02T13:45:21Z</time>
      </trkpt>
      <trkpt lat="43.231415" lon="-1.6755377">
        <time>2022-07-02T13:45:23Z</time>
      </trkpt>
      <trkpt lat="43.23136" lon="-1.6756427">
        <time>2022-07-02T13:45:25Z</time>
      </trkpt>
      <trkpt lat="43.231308" lon="-1.6757504">
        <time>2022-07-02T13:45:27Z</time>
      </trkpt>
      <trkpt lat="43.231255" lon="-1.6758684">
        <time>2022-07-02T13:45:29Z</time>
      </trkpt>
      <trkpt lat="43.231228" lon="-1.6759304">
        <time>2022-07-02T13:45:30Z</time>
      </trkpt>
      <trkpt lat="43.231174" lon="-1.6760597">
        <time>2022-07-02T13:45:32Z</time>
      </trkpt>
      <trkpt lat="43.231148" lon="-1.6761271">
        <time>2022-07-02T13:45:33Z</time>
      </trkpt>
      <trkpt lat="43.231125" lon="-1.6761861">
        <time>2022-07-02T13:45:34Z</time>
      </trkpt>
      <trkpt lat="43.231075" lon="-1.6763021">
        <time>2022-07-02T13:45:36Z</time>
      </trkpt>
      <trkpt lat="43.231033" lon="-1.6764107">
        <time>2022-07-02T13:45:38Z</time>
      </trkpt>
      <trkpt lat="43.230995" lon="-1.6765287">
        <time>2022-07-02T13:45:40Z</time>
      </trkpt>
      <trkpt lat="43.230972" lon="-1.6765871">
        <time>2022-07-02T13:45:41Z</time>
      </trkpt>
      <trkpt lat="43.23093" lon="-1.6767031">
        <time>2022-07-02T13:45:43Z</time>
      </trkpt>
      <trkpt lat="43.230892" lon="-1.6768177">
        <time>2022-07-02T13:45:45Z</time>
      </trkpt>
      <trkpt lat="43.230854" lon="-1.6769317">
        <time>2022-07-02T13:45:47Z</time>
      </trkpt>
      <trkpt lat="43.230816" lon="-1.677042">
        <time>2022-07-02T13:45:49Z</time>
      </trkpt>
      <trkpt lat="43.230774" lon="-1.6771517">
        <time>2022-07-02T13:45:51Z</time>
      </trkpt>
      <trkpt lat="43.230732" lon="-1.6772647">
        <time>2022-07-02T13:45:53Z</time>
      </trkpt>
      <trkpt lat="43.230694" lon="-1.6773734">
        <time>2022-07-02T13:45:55Z</time>
      </trkpt>
      <trkpt lat="43.23065" lon="-1.677484">
        <time>2022-07-02T13:45:57Z</time>
      </trkpt>
      <trkpt lat="43.23061" lon="-1.677598">
        <time>2022-07-02T13:45:59Z</time>
      </trkpt>
      <trkpt lat="43.230587" lon="-1.6776524">
        <time>2022-07-02T13:46:00Z</time>
      </trkpt>
      <trkpt lat="43.230537" lon="-1.6777596">
        <time>2022-07-02T13:46:02Z</time>
      </trkpt>
      <trkpt lat="43.230488" lon="-1.6778743">
        <time>2022-07-02T13:46:04Z</time>
      </trkpt>
      <trkpt lat="43.230465" lon="-1.677933">
        <time>2022-07-02T13:46:05Z</time>
      </trkpt>
      <trkpt lat="43.23042" lon="-1.6780363">
        <time>2022-07-02T13:46:07Z</time>
      </trkpt>
      <trkpt lat="43.230366" lon="-1.6781327">
        <time>2022-07-02T13:46:09Z</time>
      </trkpt>
      <trkpt lat="43.230312" lon="-1.678222">
        <time>2022-07-02T13:46:11Z</time>
      </trkpt>
      <trkpt lat="43.23025" lon="-1.678301">
        <time>2022-07-02T13:46:13Z</time>
      </trkpt>
      <trkpt lat="43.230186" lon="-1.6783746">
        <time>2022-07-02T13:46:15Z</time>
      </trkpt>
      <trkpt lat="43.230118" lon="-1.6784459">
        <time>2022-07-02T13:46:17Z</time>
      </trkpt>
      <trkpt lat="43.230045" lon="-1.6785103">
        <time>2022-07-02T13:46:19Z</time>
      </trkpt>
      <trkpt lat="43.22996" lon="-1.6785647">
        <time>2022-07-02T13:46:21Z</time>
      </trkpt>
      <trkpt lat="43.229877" lon="-1.6786103">
        <time>2022-07-02T13:46:23Z</time>
      </trkpt>
      <trkpt lat="43.229794" lon="-1.6786516">
        <time>2022-07-02T13:46:25Z</time>
      </trkpt>
      <trkpt lat="43.229706" lon="-1.6786942">
        <time>2022-07-02T13:46:27Z</time>
      </trkpt>
      <trkpt lat="43.229618" lon="-1.6787347">
        <time>2022-07-02T13:46:29Z</time>
      </trkpt>
      <trkpt lat="43.229576" lon="-1.6787546">
        <time>2022-07-02T13:46:30Z</time>
      </trkpt>
      <trkpt lat="43.229492" lon="-1.6787946">
        <time>2022-07-02T13:46:32Z</time>
      </trkpt>
      <trkpt lat="43.229404" lon="-1.6788356">
        <time>2022-07-02T13:46:34Z</time>
      </trkpt>
      <trkpt lat="43.229313" lon="-1.6788666">
        <time>2022-07-02T13:46:36Z</time>
      </trkpt>
      <trkpt lat="43.229225" lon="-1.678896">
        <time>2022-07-02T13:46:38Z</time>
      </trkpt>
      <trkpt lat="43.229134" lon="-1.6789293">
        <time>2022-07-02T13:46:40Z</time>
      </trkpt>
      <trkpt lat="43.229042" lon="-1.6789609">
        <time>2022-07-02T13:46:42Z</time>
      </trkpt>
      <trkpt lat="43.22895" lon="-1.6789932">
        <time>2022-07-02T13:46:44Z</time>
      </trkpt>
      <trkpt lat="43.228855" lon="-1.6790233">
        <time>2022-07-02T13:46:46Z</time>
      </trkpt>
      <trkpt lat="43.228813" lon="-1.679037">
        <time>2022-07-02T13:46:47Z</time>
      </trkpt>
      <trkpt lat="43.228725" lon="-1.6790669">
        <time>2022-07-02T13:46:49Z</time>
      </trkpt>
      <trkpt lat="43.22864" lon="-1.679096">
        <time>2022-07-02T13:46:51Z</time>
      </trkpt>
      <trkpt lat="43.228565" lon="-1.6791286">
        <time>2022-07-02T13:46:53Z</time>
      </trkpt>
      <trkpt lat="43.228493" lon="-1.6791652">
        <time>2022-07-02T13:46:55Z</time>
      </trkpt>
      <trkpt lat="43.228428" lon="-1.6792016">
        <time>2022-07-02T13:46:57Z</time>
      </trkpt>
      <trkpt lat="43.228367" lon="-1.6792289">
        <time>2022-07-02T13:46:59Z</time>
      </trkpt>
      <trkpt lat="43.228317" lon="-1.6792393">
        <time>2022-07-02T13:47:01Z</time>
      </trkpt>
      <trkpt lat="43.22825" lon="-1.6792479">
        <time>2022-07-02T13:47:04Z</time>
      </trkpt>
      <trkpt lat="43.22819" lon="-1.6792536">
        <time>2022-07-02T13:47:06Z</time>
      </trkpt>
      <trkpt lat="43.228127" lon="-1.6792562">
        <time>2022-07-02T13:47:08Z</time>
      </trkpt>
      <trkpt lat="43.228054" lon="-1.6792569">
        <time>2022-07-02T13:47:10Z</time>
      </trkpt>
      <trkpt lat="43.227985" lon="-1.6792519">
        <time>2022-07-02T13:47:12Z</time>
      </trkpt>
      <trkpt lat="43.227913" lon="-1.6792482">
        <time>2022-07-02T13:47:14Z</time>
      </trkpt>
      <trkpt lat="43.22784" lon="-1.6792436">
        <time>2022-07-02T13:47:16Z</time>
      </trkpt>
      <trkpt lat="43.227776" lon="-1.6792289">
        <time>2022-07-02T13:47:18Z</time>
      </trkpt>
      <trkpt lat="43.22773" lon="-1.6791959">
        <time>2022-07-02T13:47:20Z</time>
      </trkpt>
      <trkpt lat="43.22768" lon="-1.67913">
        <time>2022-07-02T13:47:23Z</time>
      </trkpt>
      <trkpt lat="43.227608" lon="-1.6790899">
        <time>2022-07-02T13:47:26Z</time>
      </trkpt>
      <trkpt lat="43.22755" lon="-1.6790602">
        <time>2022-07-02T13:47:28Z</time>
      </trkpt>
      <trkpt lat="43.22749" lon="-1.6790222">
        <time>2022-07-02T13:47:30Z</time>
      </trkpt>
      <trkpt lat="43.227425" lon="-1.6789786">
        <time>2022-07-02T13:47:32Z</time>
      </trkpt>
      <trkpt lat="43.227356" lon="-1.6789253">
        <time>2022-07-02T13:47:34Z</time>
      </trkpt>
      <trkpt lat="43.227287" lon="-1.678865">
        <time>2022-07-02T13:47:36Z</time>
      </trkpt>
      <trkpt lat="43.22722" lon="-1.6787946">
        <time>2022-07-02T13:47:38Z</time>
      </trkpt>
      <trkpt lat="43.22715" lon="-1.6787122">
        <time>2022-07-02T13:47:40Z</time>
      </trkpt>
      <trkpt lat="43.227077" lon="-1.6786216">
        <time>2022-07-02T13:47:42Z</time>
      </trkpt>
      <trkpt lat="43.22701" lon="-1.6785243">
        <time>2022-07-02T13:47:44Z</time>
      </trkpt>
      <trkpt lat="43.22694" lon="-1.6784266">
        <time>2022-07-02T13:47:46Z</time>
      </trkpt>
      <trkpt lat="43.226868" lon="-1.67833">
        <time>2022-07-02T13:47:48Z</time>
      </trkpt>
      <trkpt lat="43.226795" lon="-1.6782386">
        <time>2022-07-02T13:47:50Z</time>
      </trkpt>
      <trkpt lat="43.22673" lon="-1.6781523">
        <time>2022-07-02T13:47:52Z</time>
      </trkpt>
      <trkpt lat="43.22667" lon="-1.678069">
        <time>2022-07-02T13:47:54Z</time>
      </trkpt>
      <trkpt lat="43.226612" lon="-1.6779896">
        <time>2022-07-02T13:47:56Z</time>
      </trkpt>
      <trkpt lat="43.22656" lon="-1.6779153">
        <time>2022-07-02T13:47:58Z</time>
      </trkpt>
      <trkpt lat="43.226505" lon="-1.6778439">
        <time>2022-07-02T13:48:00Z</time>
      </trkpt>
      <trkpt lat="43.22645" lon="-1.6777736">
        <time>2022-07-02T13:48:02Z</time>
      </trkpt>
      <trkpt lat="43.226402" lon="-1.6777043">
        <time>2022-07-02T13:48:04Z</time>
      </trkpt>
      <trkpt lat="43.226353" lon="-1.6776363">
        <time>2022-07-02T13:48:06Z</time>
      </trkpt>
      <trkpt lat="43.226273" lon="-1.6775286">
        <time>2022-07-02T13:48:09Z</time>
      </trkpt>
      <trkpt lat="43.22622" lon="-1.677451">
        <time>2022-07-02T13:48:11Z</time>
      </trkpt>
      <trkpt lat="43.226166" lon="-1.6773729">
        <time>2022-07-02T13:48:13Z</time>
      </trkpt>
      <trkpt lat="43.226116" lon="-1.677295">
        <time>2022-07-02T13:48:15Z</time>
      </trkpt>
      <trkpt lat="43.226067" lon="-1.677209">
        <time>2022-07-02T13:48:17Z</time>
      </trkpt>
      <trkpt lat="43.22602" lon="-1.677123">
        <time>2022-07-02T13:48:19Z</time>
      </trkpt>
      <trkpt lat="43.22597" lon="-1.6770387">
        <time>2022-07-02T13:48:21Z</time>
      </trkpt>
      <trkpt lat="43.225918" lon="-1.6769643">
        <time>2022-07-02T13:48:23Z</time>
      </trkpt>
      <trkpt lat="43.22586" lon="-1.6769017">
        <time>2022-07-02T13:48:25Z</time>
      </trkpt>
      <trkpt lat="43.2258" lon="-1.6768397">
        <time>2022-07-02T13:48:27Z</time>
      </trkpt>
      <trkpt lat="43.225735" lon="-1.676775">
        <time>2022-07-02T13:48:29Z</time>
      </trkpt>
      <trkpt lat="43.225674" lon="-1.6767083">
        <time>2022-07-02T13:48:31Z</time>
      </trkpt>
      <trkpt lat="43.22561" lon="-1.676639">
        <time>2022-07-02T13:48:33Z</time>
      </trkpt>
      <trkpt lat="43.225544" lon="-1.6765707">
        <time>2022-07-02T13:48:35Z</time>
      </trkpt>
      <trkpt lat="43.22548" lon="-1.6765053">
        <time>2022-07-02T13:48:37Z</time>
      </trkpt>
      <trkpt lat="43.225407" lon="-1.6764463">
        <time>2022-07-02T13:48:39Z</time>
      </trkpt>
      <trkpt lat="43.225334" lon="-1.6763947">
        <time>2022-07-02T13:48:41Z</time>
      </trkpt>
      <trkpt lat="43.225254" lon="-1.6763504">
        <time>2022-07-02T13:48:43Z</time>
      </trkpt>
      <trkpt lat="43.225174" lon="-1.6763104">
        <time>2022-07-02T13:48:45Z</time>
      </trkpt>
      <trkpt lat="43.225086" lon="-1.6762694">
        <time>2022-07-02T13:48:47Z</time>
      </trkpt>
      <trkpt lat="43.22504" lon="-1.6762494">
        <time>2022-07-02T13:48:48Z</time>
      </trkpt>
      <trkpt lat="43.22495" lon="-1.6762108">
        <time>2022-07-02T13:48:50Z</time>
      </trkpt>
      <trkpt lat="43.224903" lon="-1.676193">
        <time>2022-07-02T13:48:51Z</time>
      </trkpt>
      <trkpt lat="43.22481" lon="-1.6761607">
        <time>2022-07-02T13:48:53Z</time>
      </trkpt>
      <trkpt lat="43.22472" lon="-1.6761334">
        <time>2022-07-02T13:48:55Z</time>
      </trkpt>
      <trkpt lat="43.224632" lon="-1.676112">
        <time>2022-07-02T13:48:57Z</time>
      </trkpt>
      <trkpt lat="43.224545" lon="-1.676092">
        <time>2022-07-02T13:48:59Z</time>
      </trkpt>
      <trkpt lat="43.224464" lon="-1.676076">
        <time>2022-07-02T13:49:01Z</time>
      </trkpt>
      <trkpt lat="43.22439" lon="-1.6760634">
        <time>2022-07-02T13:49:03Z</time>
      </trkpt>
      <trkpt lat="43.22431" lon="-1.676053">
        <time>2022-07-02T13:49:05Z</time>
      </trkpt>
      <trkpt lat="43.22423" lon="-1.6760428">
        <time>2022-07-02T13:49:07Z</time>
      </trkpt>
      <trkpt lat="43.22415" lon="-1.6760347">
        <time>2022-07-02T13:49:09Z</time>
      </trkpt>
      <trkpt lat="43.224022" lon="-1.6760215">
        <time>2022-07-02T13:49:12Z</time>
      </trkpt>
      <trkpt lat="43.223934" lon="-1.6760144">
        <time>2022-07-02T13:49:14Z</time>
      </trkpt>
      <trkpt lat="43.223843" lon="-1.6760101">
        <time>2022-07-02T13:49:16Z</time>
      </trkpt>
      <trkpt lat="43.22375" lon="-1.6760107">
        <time>2022-07-02T13:49:18Z</time>
      </trkpt>
      <trkpt lat="43.223667" lon="-1.6760198">
        <time>2022-07-02T13:49:20Z</time>
      </trkpt>
      <trkpt lat="43.223587" lon="-1.6760337">
        <time>2022-07-02T13:49:22Z</time>
      </trkpt>
      <trkpt lat="43.223507" lon="-1.6760517">
        <time>2022-07-02T13:49:24Z</time>
      </trkpt>
      <trkpt lat="43.223427" lon="-1.676071">
        <time>2022-07-02T13:49:26Z</time>
      </trkpt>
      <trkpt lat="43.22334" lon="-1.6760907">
        <time>2022-07-02T13:49:28Z</time>
      </trkpt>
      <trkpt lat="43.223248" lon="-1.6761107">
        <time>2022-07-02T13:49:30Z</time>
      </trkpt>
      <trkpt lat="43.22316" lon="-1.67613">
        <time>2022-07-02T13:49:32Z</time>
      </trkpt>
      <trkpt lat="43.22307" lon="-1.6761451">
        <time>2022-07-02T13:49:34Z</time>
      </trkpt>
      <trkpt lat="43.222977" lon="-1.6761603">
        <time>2022-07-02T13:49:36Z</time>
      </trkpt>
      <trkpt lat="43.22288" lon="-1.6761824">
        <time>2022-07-02T13:49:38Z</time>
      </trkpt>
      <trkpt lat="43.22283" lon="-1.676195">
        <time>2022-07-02T13:49:39Z</time>
      </trkpt>
      <trkpt lat="43.222736" lon="-1.676218">
        <time>2022-07-02T13:49:41Z</time>
      </trkpt>
      <trkpt lat="43.22269" lon="-1.6762304">
        <time>2022-07-02T13:49:42Z</time>
      </trkpt>
      <trkpt lat="43.2226" lon="-1.676257">
        <time>2022-07-02T13:49:44Z</time>
      </trkpt>
      <trkpt lat="43.222553" lon="-1.6762707">
        <time>2022-07-02T13:49:45Z</time>
      </trkpt>
      <trkpt lat="43.22246" lon="-1.676301">
        <time>2022-07-02T13:49:47Z</time>
      </trkpt>
      <trkpt lat="43.222366" lon="-1.6763374">
        <time>2022-07-02T13:49:49Z</time>
      </trkpt>
      <trkpt lat="43.22228" lon="-1.6763847">
        <time>2022-07-02T13:49:51Z</time>
      </trkpt>
      <trkpt lat="43.222195" lon="-1.6764483">
        <time>2022-07-02T13:49:53Z</time>
      </trkpt>
      <trkpt lat="43.22211" lon="-1.6765194">
        <time>2022-07-02T13:49:55Z</time>
      </trkpt>
      <trkpt lat="43.22203" lon="-1.676599">
        <time>2022-07-02T13:49:57Z</time>
      </trkpt>
      <trkpt lat="43.22195" lon="-1.6766887">
        <time>2022-07-02T13:49:59Z</time>
      </trkpt>
      <trkpt lat="43.221912" lon="-1.6767406">
        <time>2022-07-02T13:50:00Z</time>
      </trkpt>
      <trkpt lat="43.22188" lon="-1.6767983">
        <time>2022-07-02T13:50:01Z</time>
      </trkpt>
      <trkpt lat="43.22185" lon="-1.6768563">
        <time>2022-07-02T13:50:02Z</time>
      </trkpt>
      <trkpt lat="43.22179" lon="-1.6769643">
        <time>2022-07-02T13:50:04Z</time>
      </trkpt>
      <trkpt lat="43.221733" lon="-1.6770684">
        <time>2022-07-02T13:50:06Z</time>
      </trkpt>
      <trkpt lat="43.221703" lon="-1.677123">
        <time>2022-07-02T13:50:07Z</time>
      </trkpt>
      <trkpt lat="43.221653" lon="-1.6772346">
        <time>2022-07-02T13:50:09Z</time>
      </trkpt>
      <trkpt lat="43.22161" lon="-1.6773516">
        <time>2022-07-02T13:50:11Z</time>
      </trkpt>
      <trkpt lat="43.22159" lon="-1.6774117">
        <time>2022-07-02T13:50:12Z</time>
      </trkpt>
      <trkpt lat="43.221535" lon="-1.6775947">
        <time>2022-07-02T13:50:15Z</time>
      </trkpt>
      <trkpt lat="43.221508" lon="-1.6777136">
        <time>2022-07-02T13:50:17Z</time>
      </trkpt>
      <trkpt lat="43.221478" lon="-1.6778324">
        <time>2022-07-02T13:50:19Z</time>
      </trkpt>
      <trkpt lat="43.22145" lon="-1.6779484">
        <time>2022-07-02T13:50:21Z</time>
      </trkpt>
      <trkpt lat="43.221424" lon="-1.6780623">
        <time>2022-07-02T13:50:23Z</time>
      </trkpt>
      <trkpt lat="43.2214" lon="-1.6781757">
        <time>2022-07-02T13:50:25Z</time>
      </trkpt>
      <trkpt lat="43.221375" lon="-1.6782887">
        <time>2022-07-02T13:50:27Z</time>
      </trkpt>
      <trkpt lat="43.221348" lon="-1.6784053">
        <time>2022-07-02T13:50:29Z</time>
      </trkpt>
      <trkpt lat="43.22132" lon="-1.6785274">
        <time>2022-07-02T13:50:31Z</time>
      </trkpt>
      <trkpt lat="43.221306" lon="-1.6785907">
        <time>2022-07-02T13:50:32Z</time>
      </trkpt>
      <trkpt lat="43.221275" lon="-1.6787176">
        <time>2022-07-02T13:50:34Z</time>
      </trkpt>
      <trkpt lat="43.22126" lon="-1.678779">
        <time>2022-07-02T13:50:35Z</time>
      </trkpt>
      <trkpt lat="43.22123" lon="-1.6789019">
        <time>2022-07-02T13:50:37Z</time>
      </trkpt>
      <trkpt lat="43.221214" lon="-1.678962">
        <time>2022-07-02T13:50:38Z</time>
      </trkpt>
      <trkpt lat="43.22118" lon="-1.67908">
        <time>2022-07-02T13:50:40Z</time>
      </trkpt>
      <trkpt lat="43.22114" lon="-1.6791949">
        <time>2022-07-02T13:50:42Z</time>
      </trkpt>
      <trkpt lat="43.221104" lon="-1.6793076">
        <time>2022-07-02T13:50:44Z</time>
      </trkpt>
      <trkpt lat="43.221073" lon="-1.6794167">
        <time>2022-07-02T13:50:46Z</time>
      </trkpt>
      <trkpt lat="43.221027" lon="-1.6795243">
        <time>2022-07-02T13:50:48Z</time>
      </trkpt>
      <trkpt lat="43.220978" lon="-1.6796306">
        <time>2022-07-02T13:50:50Z</time>
      </trkpt>
      <trkpt lat="43.22093" lon="-1.6797386">
        <time>2022-07-02T13:50:52Z</time>
      </trkpt>
      <trkpt lat="43.220875" lon="-1.6798353">
        <time>2022-07-02T13:50:54Z</time>
      </trkpt>
      <trkpt lat="43.22081" lon="-1.6799226">
        <time>2022-07-02T13:50:56Z</time>
      </trkpt>
      <trkpt lat="43.22074" lon="-1.6799953">
        <time>2022-07-02T13:50:58Z</time>
      </trkpt>
      <trkpt lat="43.220673" lon="-1.6800606">
        <time>2022-07-02T13:51:00Z</time>
      </trkpt>
      <trkpt lat="43.220604" lon="-1.680118">
        <time>2022-07-02T13:51:02Z</time>
      </trkpt>
      <trkpt lat="43.220528" lon="-1.6801726">
        <time>2022-07-02T13:51:04Z</time>
      </trkpt>
      <trkpt lat="43.220448" lon="-1.6802162">
        <time>2022-07-02T13:51:06Z</time>
      </trkpt>
      <trkpt lat="43.220364" lon="-1.680247">
        <time>2022-07-02T13:51:08Z</time>
      </trkpt>
      <trkpt lat="43.220276" lon="-1.6802709">
        <time>2022-07-02T13:51:10Z</time>
      </trkpt>
      <trkpt lat="43.220184" lon="-1.6802902">
        <time>2022-07-02T13:51:12Z</time>
      </trkpt>
      <trkpt lat="43.2201" lon="-1.6803136">
        <time>2022-07-02T13:51:14Z</time>
      </trkpt>
      <trkpt lat="43.220016" lon="-1.6803296">
        <time>2022-07-02T13:51:16Z</time>
      </trkpt>
      <trkpt lat="43.219933" lon="-1.6803349">
        <time>2022-07-02T13:51:18Z</time>
      </trkpt>
      <trkpt lat="43.21985" lon="-1.6803288">
        <time>2022-07-02T13:51:20Z</time>
      </trkpt>
      <trkpt lat="43.219765" lon="-1.6803175">
        <time>2022-07-02T13:51:22Z</time>
      </trkpt>
      <trkpt lat="43.219677" lon="-1.6803019">
        <time>2022-07-02T13:51:24Z</time>
      </trkpt>
      <trkpt lat="43.219597" lon="-1.6802802">
        <time>2022-07-02T13:51:26Z</time>
      </trkpt>
      <trkpt lat="43.21951" lon="-1.6802566">
        <time>2022-07-02T13:51:28Z</time>
      </trkpt>
      <trkpt lat="43.21942" lon="-1.6802323">
        <time>2022-07-02T13:51:30Z</time>
      </trkpt>
      <trkpt lat="43.219334" lon="-1.6802089">
        <time>2022-07-02T13:51:32Z</time>
      </trkpt>
      <trkpt lat="43.219246" lon="-1.6801856">
        <time>2022-07-02T13:51:34Z</time>
      </trkpt>
      <trkpt lat="43.21916" lon="-1.6801653">
        <time>2022-07-02T13:51:36Z</time>
      </trkpt>
      <trkpt lat="43.21907" lon="-1.6801423">
        <time>2022-07-02T13:51:38Z</time>
      </trkpt>
      <trkpt lat="43.21898" lon="-1.6801193">
        <time>2022-07-02T13:51:40Z</time>
      </trkpt>
      <trkpt lat="43.21889" lon="-1.6800976">
        <time>2022-07-02T13:51:42Z</time>
      </trkpt>
      <trkpt lat="43.218807" lon="-1.6800762">
        <time>2022-07-02T13:51:44Z</time>
      </trkpt>
      <trkpt lat="43.218716" lon="-1.6800506">
        <time>2022-07-02T13:51:46Z</time>
      </trkpt>
      <trkpt lat="43.218674" lon="-1.6800389">
        <time>2022-07-02T13:51:47Z</time>
      </trkpt>
      <trkpt lat="43.21859" lon="-1.6800176">
        <time>2022-07-02T13:51:49Z</time>
      </trkpt>
      <trkpt lat="43.2185" lon="-1.6799927">
        <time>2022-07-02T13:51:51Z</time>
      </trkpt>
      <trkpt lat="43.218414" lon="-1.6799669">
        <time>2022-07-02T13:51:53Z</time>
      </trkpt>
      <trkpt lat="43.218327" lon="-1.6799363">
        <time>2022-07-02T13:51:55Z</time>
      </trkpt>
      <trkpt lat="43.218243" lon="-1.679901">
        <time>2022-07-02T13:51:57Z</time>
      </trkpt>
      <trkpt lat="43.21816" lon="-1.6798553">
        <time>2022-07-02T13:51:59Z</time>
      </trkpt>
      <trkpt lat="43.21808" lon="-1.6797993">
        <time>2022-07-02T13:52:01Z</time>
      </trkpt>
      <trkpt lat="43.218002" lon="-1.6797347">
        <time>2022-07-02T13:52:03Z</time>
      </trkpt>
      <trkpt lat="43.217926" lon="-1.6796674">
        <time>2022-07-02T13:52:05Z</time>
      </trkpt>
      <trkpt lat="43.21786" lon="-1.6795943">
        <time>2022-07-02T13:52:07Z</time>
      </trkpt>
      <trkpt lat="43.21781" lon="-1.6795133">
        <time>2022-07-02T13:52:09Z</time>
      </trkpt>
      <trkpt lat="43.217762" lon="-1.679421">
        <time>2022-07-02T13:52:11Z</time>
      </trkpt>
      <trkpt lat="43.217716" lon="-1.6793257">
        <time>2022-07-02T13:52:13Z</time>
      </trkpt>
      <trkpt lat="43.217667" lon="-1.679218">
        <time>2022-07-02T13:52:15Z</time>
      </trkpt>
      <trkpt lat="43.21764" lon="-1.6791596">
        <time>2022-07-02T13:52:16Z</time>
      </trkpt>
      <trkpt lat="43.21759" lon="-1.679047">
        <time>2022-07-02T13:52:18Z</time>
      </trkpt>
      <trkpt lat="43.21757" lon="-1.6789917">
        <time>2022-07-02T13:52:19Z</time>
      </trkpt>
      <trkpt lat="43.217533" lon="-1.6788777">
        <time>2022-07-02T13:52:21Z</time>
      </trkpt>
      <trkpt lat="43.217495" lon="-1.6787066">
        <time>2022-07-02T13:52:24Z</time>
      </trkpt>
      <trkpt lat="43.217472" lon="-1.6785843">
        <time>2022-07-02T13:52:26Z</time>
      </trkpt>
      <trkpt lat="43.21745" lon="-1.6784583">
        <time>2022-07-02T13:52:28Z</time>
      </trkpt>
      <trkpt lat="43.217422" lon="-1.6783264">
        <time>2022-07-02T13:52:30Z</time>
      </trkpt>
      <trkpt lat="43.2174" lon="-1.6781961">
        <time>2022-07-02T13:52:32Z</time>
      </trkpt>
      <trkpt lat="43.21738" lon="-1.678066">
        <time>2022-07-02T13:52:34Z</time>
      </trkpt>
      <trkpt lat="43.217365" lon="-1.677938">
        <time>2022-07-02T13:52:36Z</time>
      </trkpt>
      <trkpt lat="43.217354" lon="-1.6778737">
        <time>2022-07-02T13:52:37Z</time>
      </trkpt>
      <trkpt lat="43.217335" lon="-1.6777416">
        <time>2022-07-02T13:52:39Z</time>
      </trkpt>
      <trkpt lat="43.217316" lon="-1.6776123">
        <time>2022-07-02T13:52:41Z</time>
      </trkpt>
      <trkpt lat="43.21731" lon="-1.6775477">
        <time>2022-07-02T13:52:42Z</time>
      </trkpt>
      <trkpt lat="43.217308" lon="-1.6774207">
        <time>2022-07-02T13:52:44Z</time>
      </trkpt>
      <trkpt lat="43.217304" lon="-1.6772887">
        <time>2022-07-02T13:52:46Z</time>
      </trkpt>
      <trkpt lat="43.217297" lon="-1.6771584">
        <time>2022-07-02T13:52:48Z</time>
      </trkpt>
      <trkpt lat="43.217293" lon="-1.6770957">
        <time>2022-07-02T13:52:49Z</time>
      </trkpt>
      <trkpt lat="43.21729" lon="-1.6769694">
        <time>2022-07-02T13:52:51Z</time>
      </trkpt>
      <trkpt lat="43.217285" lon="-1.6768438">
        <time>2022-07-02T13:52:53Z</time>
      </trkpt>
      <trkpt lat="43.21728" lon="-1.6767228">
        <time>2022-07-02T13:52:55Z</time>
      </trkpt>
      <trkpt lat="43.217278" lon="-1.6765838">
        <time>2022-07-02T13:52:57Z</time>
      </trkpt>
      <trkpt lat="43.217274" lon="-1.6764457">
        <time>2022-07-02T13:52:59Z</time>
      </trkpt>
      <trkpt lat="43.21727" lon="-1.6763774">
        <time>2022-07-02T13:53:00Z</time>
      </trkpt>
      <trkpt lat="43.21727" lon="-1.6762394">
        <time>2022-07-02T13:53:02Z</time>
      </trkpt>
      <trkpt lat="43.21727" lon="-1.6761034">
        <time>2022-07-02T13:53:04Z</time>
      </trkpt>
      <trkpt lat="43.21727" lon="-1.6759717">
        <time>2022-07-02T13:53:06Z</time>
      </trkpt>
      <trkpt lat="43.217278" lon="-1.6758333">
        <time>2022-07-02T13:53:08Z</time>
      </trkpt>
      <trkpt lat="43.217293" lon="-1.6756991">
        <time>2022-07-02T13:53:10Z</time>
      </trkpt>
      <trkpt lat="43.217304" lon="-1.6756327">
        <time>2022-07-02T13:53:11Z</time>
      </trkpt>
      <trkpt lat="43.217323" lon="-1.6754998">
        <time>2022-07-02T13:53:13Z</time>
      </trkpt>
      <trkpt lat="43.217346" lon="-1.6753697">
        <time>2022-07-02T13:53:15Z</time>
      </trkpt>
      <trkpt lat="43.21737" lon="-1.6752391">
        <time>2022-07-02T13:53:17Z</time>
      </trkpt>
      <trkpt lat="43.21738" lon="-1.6751738">
        <time>2022-07-02T13:53:18Z</time>
      </trkpt>
      <trkpt lat="43.217403" lon="-1.6750435">
        <time>2022-07-02T13:53:20Z</time>
      </trkpt>
      <trkpt lat="43.21743" lon="-1.6749134">
        <time>2022-07-02T13:53:22Z</time>
      </trkpt>
      <trkpt lat="43.217457" lon="-1.6747844">
        <time>2022-07-02T13:53:24Z</time>
      </trkpt>
      <trkpt lat="43.217484" lon="-1.6746551">
        <time>2022-07-02T13:53:26Z</time>
      </trkpt>
      <trkpt lat="43.2175" lon="-1.6745248">
        <time>2022-07-02T13:53:28Z</time>
      </trkpt>
      <trkpt lat="43.217506" lon="-1.6744615">
        <time>2022-07-02T13:53:29Z</time>
      </trkpt>
      <trkpt lat="43.217525" lon="-1.6743385">
        <time>2022-07-02T13:53:31Z</time>
      </trkpt>
      <trkpt lat="43.21754" lon="-1.6742218">
        <time>2022-07-02T13:53:33Z</time>
      </trkpt>
      <trkpt lat="43.217556" lon="-1.6740985">
        <time>2022-07-02T13:53:35Z</time>
      </trkpt>
      <trkpt lat="43.21758" lon="-1.6739641">
        <time>2022-07-02T13:53:37Z</time>
      </trkpt>
      <trkpt lat="43.217606" lon="-1.6738211">
        <time>2022-07-02T13:53:39Z</time>
      </trkpt>
      <trkpt lat="43.217617" lon="-1.6737498">
        <time>2022-07-02T13:53:40Z</time>
      </trkpt>
      <trkpt lat="43.217632" lon="-1.6736788">
        <time>2022-07-02T13:53:41Z</time>
      </trkpt>
      <trkpt lat="43.217644" lon="-1.6736071">
        <time>2022-07-02T13:53:42Z</time>
      </trkpt>
      <trkpt lat="43.21766" lon="-1.6735345">
        <time>2022-07-02T13:53:43Z</time>
      </trkpt>
      <trkpt lat="43.21767" lon="-1.6734622">
        <time>2022-07-02T13:53:44Z</time>
      </trkpt>
      <trkpt lat="43.21768" lon="-1.6733888">
        <time>2022-07-02T13:53:45Z</time>
      </trkpt>
      <trkpt lat="43.217697" lon="-1.6733155">
        <time>2022-07-02T13:53:46Z</time>
      </trkpt>
      <trkpt lat="43.21771" lon="-1.6732428">
        <time>2022-07-02T13:53:47Z</time>
      </trkpt>
      <trkpt lat="43.217724" lon="-1.6731715">
        <time>2022-07-02T13:53:48Z</time>
      </trkpt>
      <trkpt lat="43.217735" lon="-1.6731012">
        <time>2022-07-02T13:53:49Z</time>
      </trkpt>
      <trkpt lat="43.217747" lon="-1.6730322">
        <time>2022-07-02T13:53:50Z</time>
      </trkpt>
      <trkpt lat="43.21776" lon="-1.6729648">
        <time>2022-07-02T13:53:51Z</time>
      </trkpt>
      <trkpt lat="43.217773" lon="-1.6728998">
        <time>2022-07-02T13:53:52Z</time>
      </trkpt>
      <trkpt lat="43.217793" lon="-1.6727731">
        <time>2022-07-02T13:53:54Z</time>
      </trkpt>
      <trkpt lat="43.217804" lon="-1.6726419">
        <time>2022-07-02T13:53:56Z</time>
      </trkpt>
      <trkpt lat="43.217804" lon="-1.6725751">
        <time>2022-07-02T13:53:57Z</time>
      </trkpt>
      <trkpt lat="43.2178" lon="-1.6724639">
        <time>2022-07-02T13:53:59Z</time>
      </trkpt>
      <trkpt lat="43.2178" lon="-1.6723852">
        <time>2022-07-02T13:54:01Z</time>
      </trkpt>
      <trkpt lat="43.21783" lon="-1.6722568">
        <time>2022-07-02T13:59:48Z</time>
      </trkpt>
      <trkpt lat="43.21779" lon="-1.6721675">
        <time>2022-07-02T13:59:51Z</time>
      </trkpt>
      <trkpt lat="43.21776" lon="-1.6720968">
        <time>2022-07-02T13:59:53Z</time>
      </trkpt>
      <trkpt lat="43.217728" lon="-1.6720252">
        <time>2022-07-02T13:59:55Z</time>
      </trkpt>
      <trkpt lat="43.217697" lon="-1.6719579">
        <time>2022-07-02T13:59:57Z</time>
      </trkpt>
      <trkpt lat="43.21766" lon="-1.6718882">
        <time>2022-07-02T13:59:59Z</time>
      </trkpt>
      <trkpt lat="43.217617" lon="-1.6718166">
        <time>2022-07-02T14:00:01Z</time>
      </trkpt>
      <trkpt lat="43.21757" lon="-1.6717416">
        <time>2022-07-02T14:00:03Z</time>
      </trkpt>
      <trkpt lat="43.217518" lon="-1.6716726">
        <time>2022-07-02T14:00:05Z</time>
      </trkpt>
      <trkpt lat="43.21747" lon="-1.6716086">
        <time>2022-07-02T14:00:07Z</time>
      </trkpt>
      <trkpt lat="43.21741" lon="-1.6715512">
        <time>2022-07-02T14:00:09Z</time>
      </trkpt>
      <trkpt lat="43.217358" lon="-1.671498">
        <time>2022-07-02T14:00:11Z</time>
      </trkpt>
      <trkpt lat="43.217297" lon="-1.6714482">
        <time>2022-07-02T14:00:13Z</time>
      </trkpt>
      <trkpt lat="43.217236" lon="-1.6714016">
        <time>2022-07-02T14:00:15Z</time>
      </trkpt>
      <trkpt lat="43.217175" lon="-1.6713569">
        <time>2022-07-02T14:00:17Z</time>
      </trkpt>
      <trkpt lat="43.217106" lon="-1.6713202">
        <time>2022-07-02T14:00:19Z</time>
      </trkpt>
      <trkpt lat="43.21704" lon="-1.6712923">
        <time>2022-07-02T14:00:21Z</time>
      </trkpt>
      <trkpt lat="43.216972" lon="-1.6712706">
        <time>2022-07-02T14:00:23Z</time>
      </trkpt>
      <trkpt lat="43.216904" lon="-1.6712565">
        <time>2022-07-02T14:00:25Z</time>
      </trkpt>
      <trkpt lat="43.21683" lon="-1.6712472">
        <time>2022-07-02T14:00:27Z</time>
      </trkpt>
      <trkpt lat="43.216747" lon="-1.6712393">
        <time>2022-07-02T14:00:29Z</time>
      </trkpt>
      <trkpt lat="43.216663" lon="-1.671227">
        <time>2022-07-02T14:00:31Z</time>
      </trkpt>
      <trkpt lat="43.21658" lon="-1.6712112">
        <time>2022-07-02T14:00:33Z</time>
      </trkpt>
      <trkpt lat="43.21649" lon="-1.6712003">
        <time>2022-07-02T14:00:35Z</time>
      </trkpt>
      <trkpt lat="43.216404" lon="-1.6711912">
        <time>2022-07-02T14:00:37Z</time>
      </trkpt>
      <trkpt lat="43.216316" lon="-1.6711826">
        <time>2022-07-02T14:00:39Z</time>
      </trkpt>
      <trkpt lat="43.21623" lon="-1.67117">
        <time>2022-07-02T14:00:41Z</time>
      </trkpt>
      <trkpt lat="43.21614" lon="-1.6711576">
        <time>2022-07-02T14:00:43Z</time>
      </trkpt>
      <trkpt lat="43.21605" lon="-1.6711476">
        <time>2022-07-02T14:00:45Z</time>
      </trkpt>
      <trkpt lat="43.215958" lon="-1.6711392">
        <time>2022-07-02T14:00:47Z</time>
      </trkpt>
      <trkpt lat="43.215866" lon="-1.671129">
        <time>2022-07-02T14:00:49Z</time>
      </trkpt>
      <trkpt lat="43.215775" lon="-1.671121">
        <time>2022-07-02T14:00:51Z</time>
      </trkpt>
      <trkpt lat="43.21569" lon="-1.6711206">
        <time>2022-07-02T14:00:53Z</time>
      </trkpt>
      <trkpt lat="43.215603" lon="-1.6711246">
        <time>2022-07-02T14:00:55Z</time>
      </trkpt>
      <trkpt lat="43.21552" lon="-1.6711296">
        <time>2022-07-02T14:00:57Z</time>
      </trkpt>
      <trkpt lat="43.21543" lon="-1.671139">
        <time>2022-07-02T14:00:59Z</time>
      </trkpt>
      <trkpt lat="43.215347" lon="-1.6711546">
        <time>2022-07-02T14:01:01Z</time>
      </trkpt>
      <trkpt lat="43.215263" lon="-1.6711813">
        <time>2022-07-02T14:01:03Z</time>
      </trkpt>
      <trkpt lat="43.215176" lon="-1.6712162">
        <time>2022-07-02T14:01:05Z</time>
      </trkpt>
      <trkpt lat="43.21509" lon="-1.6712513">
        <time>2022-07-02T14:01:07Z</time>
      </trkpt>
      <trkpt lat="43.215008" lon="-1.6712849">
        <time>2022-07-02T14:01:09Z</time>
      </trkpt>
      <trkpt lat="43.214928" lon="-1.671323">
        <time>2022-07-02T14:01:11Z</time>
      </trkpt>
      <trkpt lat="43.21485" lon="-1.6713597">
        <time>2022-07-02T14:01:13Z</time>
      </trkpt>
      <trkpt lat="43.214783" lon="-1.6713926">
        <time>2022-07-02T14:01:15Z</time>
      </trkpt>
      <trkpt lat="43.214714" lon="-1.6714326">
        <time>2022-07-02T14:01:17Z</time>
      </trkpt>
      <trkpt lat="43.21465" lon="-1.6714809">
        <time>2022-07-02T14:01:19Z</time>
      </trkpt>
      <trkpt lat="43.21458" lon="-1.671534">
        <time>2022-07-02T14:01:21Z</time>
      </trkpt>
      <trkpt lat="43.214516" lon="-1.6715883">
        <time>2022-07-02T14:01:23Z</time>
      </trkpt>
      <trkpt lat="43.214443" lon="-1.6716429">
        <time>2022-07-02T14:01:25Z</time>
      </trkpt>
      <trkpt lat="43.214363" lon="-1.6716915">
        <time>2022-07-02T14:01:27Z</time>
      </trkpt>
      <trkpt lat="43.21428" lon="-1.6717426">
        <time>2022-07-02T14:01:29Z</time>
      </trkpt>
      <trkpt lat="43.214195" lon="-1.6718003">
        <time>2022-07-02T14:01:31Z</time>
      </trkpt>
      <trkpt lat="43.21412" lon="-1.6718712">
        <time>2022-07-02T14:01:33Z</time>
      </trkpt>
      <trkpt lat="43.21405" lon="-1.6719456">
        <time>2022-07-02T14:01:35Z</time>
      </trkpt>
      <trkpt lat="43.213978" lon="-1.6720152">
        <time>2022-07-02T14:01:37Z</time>
      </trkpt>
      <trkpt lat="43.2139" lon="-1.6720653">
        <time>2022-07-02T14:01:39Z</time>
      </trkpt>
      <trkpt lat="43.21382" lon="-1.6721115">
        <time>2022-07-02T14:01:41Z</time>
      </trkpt>
      <trkpt lat="43.213737" lon="-1.6721479">
        <time>2022-07-02T14:01:43Z</time>
      </trkpt>
      <trkpt lat="43.213654" lon="-1.6721869">
        <time>2022-07-02T14:01:45Z</time>
      </trkpt>
      <trkpt lat="43.213573" lon="-1.6722302">
        <time>2022-07-02T14:01:47Z</time>
      </trkpt>
      <trkpt lat="43.213497" lon="-1.6722772">
        <time>2022-07-02T14:01:49Z</time>
      </trkpt>
      <trkpt lat="43.213417" lon="-1.6723255">
        <time>2022-07-02T14:01:51Z</time>
      </trkpt>
      <trkpt lat="43.213337" lon="-1.6723715">
        <time>2022-07-02T14:01:53Z</time>
      </trkpt>
      <trkpt lat="43.21326" lon="-1.6724199">
        <time>2022-07-02T14:01:55Z</time>
      </trkpt>
      <trkpt lat="43.213184" lon="-1.6724719">
        <time>2022-07-02T14:01:57Z</time>
      </trkpt>
      <trkpt lat="43.213108" lon="-1.6725266">
        <time>2022-07-02T14:01:59Z</time>
      </trkpt>
      <trkpt lat="43.21303" lon="-1.6725771">
        <time>2022-07-02T14:02:01Z</time>
      </trkpt>
      <trkpt lat="43.212955" lon="-1.6726185">
        <time>2022-07-02T14:02:03Z</time>
      </trkpt>
      <trkpt lat="43.21288" lon="-1.6726406">
        <time>2022-07-02T14:02:05Z</time>
      </trkpt>
      <trkpt lat="43.212807" lon="-1.6726619">
        <time>2022-07-02T14:02:07Z</time>
      </trkpt>
      <trkpt lat="43.212734" lon="-1.6726882">
        <time>2022-07-02T14:02:09Z</time>
      </trkpt>
      <trkpt lat="43.21266" lon="-1.6727072">
        <time>2022-07-02T14:02:11Z</time>
      </trkpt>
      <trkpt lat="43.21259" lon="-1.6727159">
        <time>2022-07-02T14:02:13Z</time>
      </trkpt>
      <trkpt lat="43.212513" lon="-1.6727209">
        <time>2022-07-02T14:02:15Z</time>
      </trkpt>
      <trkpt lat="43.212433" lon="-1.6727148">
        <time>2022-07-02T14:02:17Z</time>
      </trkpt>
      <trkpt lat="43.212345" lon="-1.6727018">
        <time>2022-07-02T14:02:19Z</time>
      </trkpt>
      <trkpt lat="43.212257" lon="-1.6726855">
        <time>2022-07-02T14:02:21Z</time>
      </trkpt>
      <trkpt lat="43.212215" lon="-1.6726745">
        <time>2022-07-02T14:02:22Z</time>
      </trkpt>
      <trkpt lat="43.21213" lon="-1.6726475">
        <time>2022-07-02T14:02:24Z</time>
      </trkpt>
      <trkpt lat="43.212048" lon="-1.6726155">
        <time>2022-07-02T14:02:26Z</time>
      </trkpt>
      <trkpt lat="43.211964" lon="-1.6725745">
        <time>2022-07-02T14:02:28Z</time>
      </trkpt>
      <trkpt lat="43.21188" lon="-1.6725268">
        <time>2022-07-02T14:02:30Z</time>
      </trkpt>
      <trkpt lat="43.2118" lon="-1.6724778">
        <time>2022-07-02T14:02:32Z</time>
      </trkpt>
      <trkpt lat="43.211727" lon="-1.6724192">
        <time>2022-07-02T14:02:34Z</time>
      </trkpt>
      <trkpt lat="43.211666" lon="-1.6723485">
        <time>2022-07-02T14:02:36Z</time>
      </trkpt>
      <trkpt lat="43.211617" lon="-1.6722746">
        <time>2022-07-02T14:02:38Z</time>
      </trkpt>
      <trkpt lat="43.21157" lon="-1.6722035">
        <time>2022-07-02T14:02:40Z</time>
      </trkpt>
      <trkpt lat="43.21152" lon="-1.6721306">
        <time>2022-07-02T14:02:42Z</time>
      </trkpt>
      <trkpt lat="43.211475" lon="-1.6720489">
        <time>2022-07-02T14:02:44Z</time>
      </trkpt>
      <trkpt lat="43.21143" lon="-1.6719619">
        <time>2022-07-02T14:02:46Z</time>
      </trkpt>
      <trkpt lat="43.211384" lon="-1.6718765">
        <time>2022-07-02T14:02:48Z</time>
      </trkpt>
      <trkpt lat="43.211338" lon="-1.6717962">
        <time>2022-07-02T14:02:50Z</time>
      </trkpt>
      <trkpt lat="43.2113" lon="-1.6717162">
        <time>2022-07-02T14:02:52Z</time>
      </trkpt>
      <trkpt lat="43.211266" lon="-1.6716262">
        <time>2022-07-02T14:02:54Z</time>
      </trkpt>
      <trkpt lat="43.21123" lon="-1.6715312">
        <time>2022-07-02T14:02:56Z</time>
      </trkpt>
      <trkpt lat="43.211193" lon="-1.6714379">
        <time>2022-07-02T14:02:58Z</time>
      </trkpt>
      <trkpt lat="43.211155" lon="-1.6713406">
        <time>2022-07-02T14:03:00Z</time>
      </trkpt>
      <trkpt lat="43.211113" lon="-1.6712419">
        <time>2022-07-02T14:03:02Z</time>
      </trkpt>
      <trkpt lat="43.21107" lon="-1.6711426">
        <time>2022-07-02T14:03:04Z</time>
      </trkpt>
      <trkpt lat="43.21102" lon="-1.6710405">
        <time>2022-07-02T14:03:06Z</time>
      </trkpt>
      <trkpt lat="43.21097" lon="-1.6709336">
        <time>2022-07-02T14:03:08Z</time>
      </trkpt>
      <trkpt lat="43.210922" lon="-1.670821">
        <time>2022-07-02T14:03:10Z</time>
      </trkpt>
      <trkpt lat="43.210873" lon="-1.6707119">
        <time>2022-07-02T14:03:12Z</time>
      </trkpt>
      <trkpt lat="43.210827" lon="-1.6706036">
        <time>2022-07-02T14:03:14Z</time>
      </trkpt>
      <trkpt lat="43.210804" lon="-1.6705513">
        <time>2022-07-02T14:03:15Z</time>
      </trkpt>
      <trkpt lat="43.210754" lon="-1.6704496">
        <time>2022-07-02T14:03:17Z</time>
      </trkpt>
      <trkpt lat="43.210705" lon="-1.6703489">
        <time>2022-07-02T14:03:19Z</time>
      </trkpt>
      <trkpt lat="43.210663" lon="-1.6702466">
        <time>2022-07-02T14:03:21Z</time>
      </trkpt>
      <trkpt lat="43.210625" lon="-1.6701477">
        <time>2022-07-02T14:03:23Z</time>
      </trkpt>
      <trkpt lat="43.21058" lon="-1.6700495">
        <time>2022-07-02T14:03:25Z</time>
      </trkpt>
      <trkpt lat="43.21053" lon="-1.6699516">
        <time>2022-07-02T14:03:27Z</time>
      </trkpt>
      <trkpt lat="43.21048" lon="-1.669851">
        <time>2022-07-02T14:03:29Z</time>
      </trkpt>
      <trkpt lat="43.210434" lon="-1.6697459">
        <time>2022-07-02T14:03:31Z</time>
      </trkpt>
      <trkpt lat="43.210392" lon="-1.6696466">
        <time>2022-07-02T14:03:33Z</time>
      </trkpt>
      <trkpt lat="43.210346" lon="-1.6695526">
        <time>2022-07-02T14:03:35Z</time>
      </trkpt>
      <trkpt lat="43.210297" lon="-1.6694566">
        <time>2022-07-02T14:03:37Z</time>
      </trkpt>
      <trkpt lat="43.210255" lon="-1.669357">
        <time>2022-07-02T14:03:39Z</time>
      </trkpt>
      <trkpt lat="43.210213" lon="-1.6692523">
        <time>2022-07-02T14:03:41Z</time>
      </trkpt>
      <trkpt lat="43.21017" lon="-1.6691413">
        <time>2022-07-02T14:03:43Z</time>
      </trkpt>
      <trkpt lat="43.21012" lon="-1.6690329">
        <time>2022-07-02T14:03:45Z</time>
      </trkpt>
      <trkpt lat="43.21007" lon="-1.6689266">
        <time>2022-07-02T14:03:47Z</time>
      </trkpt>
      <trkpt lat="43.210045" lon="-1.6688724">
        <time>2022-07-02T14:03:48Z</time>
      </trkpt>
      <trkpt lat="43.209995" lon="-1.6687623">
        <time>2022-07-02T14:03:50Z</time>
      </trkpt>
      <trkpt lat="43.20995" lon="-1.668656">
        <time>2022-07-02T14:03:52Z</time>
      </trkpt>
      <trkpt lat="43.209904" lon="-1.6685413">
        <time>2022-07-02T14:03:54Z</time>
      </trkpt>
      <trkpt lat="43.20986" lon="-1.66841">
        <time>2022-07-02T14:03:56Z</time>
      </trkpt>
      <trkpt lat="43.209843" lon="-1.6683407">
        <time>2022-07-02T14:03:57Z</time>
      </trkpt>
      <trkpt lat="43.209827" lon="-1.6682707">
        <time>2022-07-02T14:03:58Z</time>
      </trkpt>
      <trkpt lat="43.209812" lon="-1.668199">
        <time>2022-07-02T14:03:59Z</time>
      </trkpt>
      <trkpt lat="43.209797" lon="-1.6681273">
        <time>2022-07-02T14:04:00Z</time>
      </trkpt>
      <trkpt lat="43.209785" lon="-1.6680553">
        <time>2022-07-02T14:04:01Z</time>
      </trkpt>
      <trkpt lat="43.209774" lon="-1.6679827">
        <time>2022-07-02T14:04:02Z</time>
      </trkpt>
      <trkpt lat="43.209763" lon="-1.6679096">
        <time>2022-07-02T14:04:03Z</time>
      </trkpt>
      <trkpt lat="43.20975" lon="-1.6678374">
        <time>2022-07-02T14:04:04Z</time>
      </trkpt>
      <trkpt lat="43.20974" lon="-1.6677657">
        <time>2022-07-02T14:04:05Z</time>
      </trkpt>
      <trkpt lat="43.20973" lon="-1.6676947">
        <time>2022-07-02T14:04:06Z</time>
      </trkpt>
      <trkpt lat="43.209717" lon="-1.6676234">
        <time>2022-07-02T14:04:07Z</time>
      </trkpt>
      <trkpt lat="43.209705" lon="-1.6675524">
        <time>2022-07-02T14:04:08Z</time>
      </trkpt>
      <trkpt lat="43.20969" lon="-1.6674824">
        <time>2022-07-02T14:04:09Z</time>
      </trkpt>
      <trkpt lat="43.20966" lon="-1.6673456">
        <time>2022-07-02T14:04:11Z</time>
      </trkpt>
      <trkpt lat="43.20965" lon="-1.667278">
        <time>2022-07-02T14:04:12Z</time>
      </trkpt>
      <trkpt lat="43.209633" lon="-1.6672087">
        <time>2022-07-02T14:04:13Z</time>
      </trkpt>
      <trkpt lat="43.209618" lon="-1.6671394">
        <time>2022-07-02T14:04:14Z</time>
      </trkpt>
      <trkpt lat="43.20959" lon="-1.6669997">
        <time>2022-07-02T14:04:16Z</time>
      </trkpt>
      <trkpt lat="43.20958" lon="-1.666931">
        <time>2022-07-02T14:04:17Z</time>
      </trkpt>
      <trkpt lat="43.209568" lon="-1.6668644">
        <time>2022-07-02T14:04:18Z</time>
      </trkpt>
      <trkpt lat="43.209545" lon="-1.6667341">
        <time>2022-07-02T14:04:20Z</time>
      </trkpt>
      <trkpt lat="43.209526" lon="-1.6666068">
        <time>2022-07-02T14:04:22Z</time>
      </trkpt>
      <trkpt lat="43.209503" lon="-1.666475">
        <time>2022-07-02T14:04:24Z</time>
      </trkpt>
      <trkpt lat="43.209496" lon="-1.6664075">
        <time>2022-07-02T14:04:25Z</time>
      </trkpt>
      <trkpt lat="43.209476" lon="-1.6662718">
        <time>2022-07-02T14:04:27Z</time>
      </trkpt>
      <trkpt lat="43.20946" lon="-1.6662008">
        <time>2022-07-02T14:04:28Z</time>
      </trkpt>
      <trkpt lat="43.20945" lon="-1.6661367">
        <time>2022-07-02T14:04:29Z</time>
      </trkpt>
      <trkpt lat="43.20942" lon="-1.6659985">
        <time>2022-07-02T14:04:31Z</time>
      </trkpt>
      <trkpt lat="43.209404" lon="-1.6659315">
        <time>2022-07-02T14:04:32Z</time>
      </trkpt>
      <trkpt lat="43.209373" lon="-1.6658044">
        <time>2022-07-02T14:04:34Z</time>
      </trkpt>
      <trkpt lat="43.20935" lon="-1.665683">
        <time>2022-07-02T14:04:36Z</time>
      </trkpt>
      <trkpt lat="43.209335" lon="-1.6656231">
        <time>2022-07-02T14:04:37Z</time>
      </trkpt>
      <trkpt lat="43.2093" lon="-1.6655058">
        <time>2022-07-02T14:04:39Z</time>
      </trkpt>
      <trkpt lat="43.209255" lon="-1.6653918">
        <time>2022-07-02T14:04:41Z</time>
      </trkpt>
      <trkpt lat="43.20921" lon="-1.6652825">
        <time>2022-07-02T14:04:43Z</time>
      </trkpt>
      <trkpt lat="43.20916" lon="-1.6651791">
        <time>2022-07-02T14:04:45Z</time>
      </trkpt>
      <trkpt lat="43.209106" lon="-1.6650784">
        <time>2022-07-02T14:04:47Z</time>
      </trkpt>
      <trkpt lat="43.209057" lon="-1.6649698">
        <time>2022-07-02T14:04:49Z</time>
      </trkpt>
      <trkpt lat="43.209015" lon="-1.6648655">
        <time>2022-07-02T14:04:51Z</time>
      </trkpt>
      <trkpt lat="43.208973" lon="-1.6647698">
        <time>2022-07-02T14:04:53Z</time>
      </trkpt>
      <trkpt lat="43.208923" lon="-1.6646751">
        <time>2022-07-02T14:04:55Z</time>
      </trkpt>
      <trkpt lat="43.20887" lon="-1.6645762">
        <time>2022-07-02T14:04:57Z</time>
      </trkpt>
      <trkpt lat="43.208813" lon="-1.6644768">
        <time>2022-07-02T14:04:59Z</time>
      </trkpt>
      <trkpt lat="43.208782" lon="-1.6644278">
        <time>2022-07-02T14:05:00Z</time>
      </trkpt>
      <trkpt lat="43.208717" lon="-1.6643318">
        <time>2022-07-02T14:05:02Z</time>
      </trkpt>
      <trkpt lat="43.208652" lon="-1.6642385">
        <time>2022-07-02T14:05:04Z</time>
      </trkpt>
      <trkpt lat="43.20859" lon="-1.6641458">
        <time>2022-07-02T14:05:06Z</time>
      </trkpt>
      <trkpt lat="43.20853" lon="-1.6640538">
        <time>2022-07-02T14:05:08Z</time>
      </trkpt>
      <trkpt lat="43.20847" lon="-1.6639671">
        <time>2022-07-02T14:05:10Z</time>
      </trkpt>
      <trkpt lat="43.20841" lon="-1.6638801">
        <time>2022-07-02T14:05:12Z</time>
      </trkpt>
      <trkpt lat="43.208344" lon="-1.6637945">
        <time>2022-07-02T14:05:14Z</time>
      </trkpt>
      <trkpt lat="43.208275" lon="-1.6637068">
        <time>2022-07-02T14:05:16Z</time>
      </trkpt>
      <trkpt lat="43.208206" lon="-1.6636178">
        <time>2022-07-02T14:05:18Z</time>
      </trkpt>
      <trkpt lat="43.20817" lon="-1.6635702">
        <time>2022-07-02T14:05:19Z</time>
      </trkpt>
      <trkpt lat="43.2081" lon="-1.6634772">
        <time>2022-07-02T14:05:21Z</time>
      </trkpt>
      <trkpt lat="43.208027" lon="-1.6633879">
        <time>2022-07-02T14:05:23Z</time>
      </trkpt>
      <trkpt lat="43.20799" lon="-1.6633432">
        <time>2022-07-02T14:05:24Z</time>
      </trkpt>
      <trkpt lat="43.207912" lon="-1.6632595">
        <time>2022-07-02T14:05:26Z</time>
      </trkpt>
      <trkpt lat="43.20783" lon="-1.6631819">
        <time>2022-07-02T14:05:28Z</time>
      </trkpt>
      <trkpt lat="43.207787" lon="-1.6631439">
        <time>2022-07-02T14:05:29Z</time>
      </trkpt>
      <trkpt lat="43.2077" lon="-1.6630709">
        <time>2022-07-02T14:05:31Z</time>
      </trkpt>
      <trkpt lat="43.207657" lon="-1.6630362">
        <time>2022-07-02T14:05:32Z</time>
      </trkpt>
      <trkpt lat="43.207573" lon="-1.6629685">
        <time>2022-07-02T14:05:34Z</time>
      </trkpt>
      <trkpt lat="43.20753" lon="-1.6629353">
        <time>2022-07-02T14:05:35Z</time>
      </trkpt>
      <trkpt lat="43.207443" lon="-1.6628718">
        <time>2022-07-02T14:05:37Z</time>
      </trkpt>
      <trkpt lat="43.207355" lon="-1.6628172">
        <time>2022-07-02T14:05:39Z</time>
      </trkpt>
      <trkpt lat="43.20727" lon="-1.6627709">
        <time>2022-07-02T14:05:41Z</time>
      </trkpt>
      <trkpt lat="43.207146" lon="-1.6627042">
        <time>2022-07-02T14:05:44Z</time>
      </trkpt>
      <trkpt lat="43.207054" lon="-1.6626639">
        <time>2022-07-02T14:05:46Z</time>
      </trkpt>
      <trkpt lat="43.207012" lon="-1.6626432">
        <time>2022-07-02T14:05:47Z</time>
      </trkpt>
      <trkpt lat="43.20692" lon="-1.6626039">
        <time>2022-07-02T14:05:49Z</time>
      </trkpt>
      <trkpt lat="43.206833" lon="-1.6625786">
        <time>2022-07-02T14:05:51Z</time>
      </trkpt>
      <trkpt lat="43.206734" lon="-1.6625556">
        <time>2022-07-02T14:05:53Z</time>
      </trkpt>
      <trkpt lat="43.20668" lon="-1.6625376">
        <time>2022-07-02T14:05:54Z</time>
      </trkpt>
      <trkpt lat="43.20658" lon="-1.6624962">
        <time>2022-07-02T14:05:56Z</time>
      </trkpt>
      <trkpt lat="43.206528" lon="-1.6624752">
        <time>2022-07-02T14:05:57Z</time>
      </trkpt>
      <trkpt lat="43.20648" lon="-1.6624552">
        <time>2022-07-02T14:05:58Z</time>
      </trkpt>
      <trkpt lat="43.206432" lon="-1.6624353">
        <time>2022-07-02T14:05:59Z</time>
      </trkpt>
      <trkpt lat="43.206333" lon="-1.6623956">
        <time>2022-07-02T14:06:01Z</time>
      </trkpt>
      <trkpt lat="43.206287" lon="-1.6623772">
        <time>2022-07-02T14:06:02Z</time>
      </trkpt>
      <trkpt lat="43.206192" lon="-1.6623423">
        <time>2022-07-02T14:06:04Z</time>
      </trkpt>
      <trkpt lat="43.206097" lon="-1.6623052">
        <time>2022-07-02T14:06:06Z</time>
      </trkpt>
      <trkpt lat="43.20605" lon="-1.6622852">
        <time>2022-07-02T14:06:07Z</time>
      </trkpt>
      <trkpt lat="43.205956" lon="-1.6622573">
        <time>2022-07-02T14:06:09Z</time>
      </trkpt>
      <trkpt lat="43.205868" lon="-1.6622449">
        <time>2022-07-02T14:06:11Z</time>
      </trkpt>
      <trkpt lat="43.20578" lon="-1.6622349">
        <time>2022-07-02T14:06:13Z</time>
      </trkpt>
      <trkpt lat="43.205696" lon="-1.6622156">
        <time>2022-07-02T14:06:15Z</time>
      </trkpt>
      <trkpt lat="43.205605" lon="-1.6621926">
        <time>2022-07-02T14:06:17Z</time>
      </trkpt>
      <trkpt lat="43.205517" lon="-1.6621792">
        <time>2022-07-02T14:06:19Z</time>
      </trkpt>
      <trkpt lat="43.205433" lon="-1.6621792">
        <time>2022-07-02T14:06:21Z</time>
      </trkpt>
      <trkpt lat="43.20535" lon="-1.6621879">
        <time>2022-07-02T14:06:23Z</time>
      </trkpt>
      <trkpt lat="43.20526" lon="-1.662198">
        <time>2022-07-02T14:06:25Z</time>
      </trkpt>
      <trkpt lat="43.20517" lon="-1.6622176">
        <time>2022-07-02T14:06:27Z</time>
      </trkpt>
      <trkpt lat="43.205082" lon="-1.6622536">
        <time>2022-07-02T14:06:29Z</time>
      </trkpt>
      <trkpt lat="43.205" lon="-1.6623026">
        <time>2022-07-02T14:06:31Z</time>
      </trkpt>
      <trkpt lat="43.204926" lon="-1.662357">
        <time>2022-07-02T14:06:33Z</time>
      </trkpt>
      <trkpt lat="43.204857" lon="-1.662409">
        <time>2022-07-02T14:06:35Z</time>
      </trkpt>
      <trkpt lat="43.2048" lon="-1.6624706">
        <time>2022-07-02T14:06:37Z</time>
      </trkpt>
      <trkpt lat="43.204742" lon="-1.6625383">
        <time>2022-07-02T14:06:39Z</time>
      </trkpt>
      <trkpt lat="43.204678" lon="-1.6626122">
        <time>2022-07-02T14:06:41Z</time>
      </trkpt>
      <trkpt lat="43.204613" lon="-1.6626959">
        <time>2022-07-02T14:06:43Z</time>
      </trkpt>
      <trkpt lat="43.204548" lon="-1.6627909">
        <time>2022-07-02T14:06:45Z</time>
      </trkpt>
      <trkpt lat="43.204487" lon="-1.6628926">
        <time>2022-07-02T14:06:47Z</time>
      </trkpt>
      <trkpt lat="43.204433" lon="-1.6629962">
        <time>2022-07-02T14:06:49Z</time>
      </trkpt>
      <trkpt lat="43.204407" lon="-1.6630468">
        <time>2022-07-02T14:06:50Z</time>
      </trkpt>
      <trkpt lat="43.20436" lon="-1.6631479">
        <time>2022-07-02T14:06:52Z</time>
      </trkpt>
      <trkpt lat="43.20431" lon="-1.6632576">
        <time>2022-07-02T14:06:54Z</time>
      </trkpt>
      <trkpt lat="43.20429" lon="-1.6633205">
        <time>2022-07-02T14:06:55Z</time>
      </trkpt>
      <trkpt lat="43.204247" lon="-1.6634425">
        <time>2022-07-02T14:06:57Z</time>
      </trkpt>
      <trkpt lat="43.204205" lon="-1.6635649">
        <time>2022-07-02T14:06:59Z</time>
      </trkpt>
      <trkpt lat="43.20416" lon="-1.6636785">
        <time>2022-07-02T14:07:01Z</time>
      </trkpt>
      <trkpt lat="43.204136" lon="-1.6637372">
        <time>2022-07-02T14:07:02Z</time>
      </trkpt>
      <trkpt lat="43.204098" lon="-1.6638478">
        <time>2022-07-02T14:07:04Z</time>
      </trkpt>
      <trkpt lat="43.20406" lon="-1.6639638">
        <time>2022-07-02T14:07:06Z</time>
      </trkpt>
      <trkpt lat="43.204044" lon="-1.6640228">
        <time>2022-07-02T14:07:07Z</time>
      </trkpt>
      <trkpt lat="43.204006" lon="-1.6641402">
        <time>2022-07-02T14:07:09Z</time>
      </trkpt>
      <trkpt lat="43.20397" lon="-1.6642532">
        <time>2022-07-02T14:07:11Z</time>
      </trkpt>
      <trkpt lat="43.203934" lon="-1.6643676">
        <time>2022-07-02T14:07:13Z</time>
      </trkpt>
      <trkpt lat="43.20389" lon="-1.6644795">
        <time>2022-07-02T14:07:15Z</time>
      </trkpt>
      <trkpt lat="43.203854" lon="-1.6645958">
        <time>2022-07-02T14:07:17Z</time>
      </trkpt>
      <trkpt lat="43.203815" lon="-1.6647102">
        <time>2022-07-02T14:07:19Z</time>
      </trkpt>
      <trkpt lat="43.203777" lon="-1.6648291">
        <time>2022-07-02T14:07:21Z</time>
      </trkpt>
      <trkpt lat="43.203762" lon="-1.6648828">
        <time>2022-07-02T14:07:22Z</time>
      </trkpt>
      <trkpt lat="43.203724" lon="-1.6649915">
        <time>2022-07-02T14:07:24Z</time>
      </trkpt>
      <trkpt lat="43.203693" lon="-1.6650925">
        <time>2022-07-02T14:07:26Z</time>
      </trkpt>
      <trkpt lat="43.203663" lon="-1.6651942">
        <time>2022-07-02T14:07:28Z</time>
      </trkpt>
      <trkpt lat="43.203644" lon="-1.6652975">
        <time>2022-07-02T14:07:30Z</time>
      </trkpt>
      <trkpt lat="43.20363" lon="-1.6654111">
        <time>2022-07-02T14:07:32Z</time>
      </trkpt>
      <trkpt lat="43.20362" lon="-1.6655312">
        <time>2022-07-02T14:07:34Z</time>
      </trkpt>
      <trkpt lat="43.20361" lon="-1.6656448">
        <time>2022-07-02T14:07:36Z</time>
      </trkpt>
      <trkpt lat="43.203598" lon="-1.6657557">
        <time>2022-07-02T14:07:38Z</time>
      </trkpt>
      <trkpt lat="43.20358" lon="-1.6658748">
        <time>2022-07-02T14:07:40Z</time>
      </trkpt>
      <trkpt lat="43.20356" lon="-1.6659971">
        <time>2022-07-02T14:07:42Z</time>
      </trkpt>
      <trkpt lat="43.203533" lon="-1.6661202">
        <time>2022-07-02T14:07:44Z</time>
      </trkpt>
      <trkpt lat="43.203518" lon="-1.6661794">
        <time>2022-07-02T14:07:45Z</time>
      </trkpt>
      <trkpt lat="43.20348" lon="-1.6663542">
        <time>2022-07-02T14:07:48Z</time>
      </trkpt>
      <trkpt lat="43.203457" lon="-1.6664674">
        <time>2022-07-02T14:07:50Z</time>
      </trkpt>
      <trkpt lat="43.20343" lon="-1.6665821">
        <time>2022-07-02T14:07:52Z</time>
      </trkpt>
      <trkpt lat="43.203407" lon="-1.6666981">
        <time>2022-07-02T14:07:54Z</time>
      </trkpt>
      <trkpt lat="43.203384" lon="-1.6668051">
        <time>2022-07-02T14:07:56Z</time>
      </trkpt>
      <trkpt lat="43.203358" lon="-1.6669171">
        <time>2022-07-02T14:07:58Z</time>
      </trkpt>
      <trkpt lat="43.20333" lon="-1.6670305">
        <time>2022-07-02T14:08:00Z</time>
      </trkpt>
      <trkpt lat="43.203304" lon="-1.6671455">
        <time>2022-07-02T14:08:02Z</time>
      </trkpt>
      <trkpt lat="43.20328" lon="-1.6672624">
        <time>2022-07-02T14:08:04Z</time>
      </trkpt>
      <trkpt lat="43.203255" lon="-1.6673801">
        <time>2022-07-02T14:08:06Z</time>
      </trkpt>
      <trkpt lat="43.203228" lon="-1.6674994">
        <time>2022-07-02T14:08:08Z</time>
      </trkpt>
      <trkpt lat="43.20321" lon="-1.6676161">
        <time>2022-07-02T14:08:10Z</time>
      </trkpt>
      <trkpt lat="43.203194" lon="-1.6677234">
        <time>2022-07-02T14:08:12Z</time>
      </trkpt>
      <trkpt lat="43.203186" lon="-1.6678305">
        <time>2022-07-02T14:08:14Z</time>
      </trkpt>
      <trkpt lat="43.203182" lon="-1.6679327">
        <time>2022-07-02T14:08:16Z</time>
      </trkpt>
      <trkpt lat="43.203175" lon="-1.6680344">
        <time>2022-07-02T14:08:18Z</time>
      </trkpt>
      <trkpt lat="43.203167" lon="-1.6681391">
        <time>2022-07-02T14:08:20Z</time>
      </trkpt>
      <trkpt lat="43.20316" lon="-1.668246">
        <time>2022-07-02T14:08:22Z</time>
      </trkpt>
      <trkpt lat="43.20315" lon="-1.6683568">
        <time>2022-07-02T14:08:24Z</time>
      </trkpt>
      <trkpt lat="43.20314" lon="-1.6684717">
        <time>2022-07-02T14:08:26Z</time>
      </trkpt>
      <trkpt lat="43.20313" lon="-1.6685894">
        <time>2022-07-02T14:08:28Z</time>
      </trkpt>
      <trkpt lat="43.203125" lon="-1.6687074">
        <time>2022-07-02T14:08:30Z</time>
      </trkpt>
      <trkpt lat="43.203114" lon="-1.6688247">
        <time>2022-07-02T14:08:32Z</time>
      </trkpt>
      <trkpt lat="43.2031" lon="-1.6689404">
        <time>2022-07-02T14:08:34Z</time>
      </trkpt>
      <trkpt lat="43.203087" lon="-1.6690574">
        <time>2022-07-02T14:08:36Z</time>
      </trkpt>
      <trkpt lat="43.203075" lon="-1.669175">
        <time>2022-07-02T14:08:38Z</time>
      </trkpt>
      <trkpt lat="43.203064" lon="-1.669291">
        <time>2022-07-02T14:08:40Z</time>
      </trkpt>
      <trkpt lat="43.203056" lon="-1.669406">
        <time>2022-07-02T14:08:42Z</time>
      </trkpt>
      <trkpt lat="43.20304" lon="-1.6695161">
        <time>2022-07-02T14:08:44Z</time>
      </trkpt>
      <trkpt lat="43.203033" lon="-1.6696217">
        <time>2022-07-02T14:08:46Z</time>
      </trkpt>
      <trkpt lat="43.203022" lon="-1.6697243">
        <time>2022-07-02T14:08:48Z</time>
      </trkpt>
      <trkpt lat="43.20301" lon="-1.669822">
        <time>2022-07-02T14:08:50Z</time>
      </trkpt>
      <trkpt lat="43.203" lon="-1.669924">
        <time>2022-07-02T14:08:52Z</time>
      </trkpt>
      <trkpt lat="43.20299" lon="-1.6700244">
        <time>2022-07-02T14:08:54Z</time>
      </trkpt>
      <trkpt lat="43.20298" lon="-1.670112">
        <time>2022-07-02T14:08:56Z</time>
      </trkpt>
      <trkpt lat="43.202972" lon="-1.6702113">
        <time>2022-07-02T14:08:58Z</time>
      </trkpt>
      <trkpt lat="43.20296" lon="-1.6703054">
        <time>2022-07-02T14:09:00Z</time>
      </trkpt>
      <trkpt lat="43.20295" lon="-1.6704067">
        <time>2022-07-02T14:09:02Z</time>
      </trkpt>
      <trkpt lat="43.202938" lon="-1.670513">
        <time>2022-07-02T14:09:04Z</time>
      </trkpt>
      <trkpt lat="43.202927" lon="-1.6706257">
        <time>2022-07-02T14:09:06Z</time>
      </trkpt>
      <trkpt lat="43.202923" lon="-1.6707283">
        <time>2022-07-02T14:09:08Z</time>
      </trkpt>
      <trkpt lat="43.20291" lon="-1.6708263">
        <time>2022-07-02T14:09:10Z</time>
      </trkpt>
      <trkpt lat="43.20289" lon="-1.6709273">
        <time>2022-07-02T14:09:12Z</time>
      </trkpt>
      <trkpt lat="43.202866" lon="-1.6710273">
        <time>2022-07-02T14:09:14Z</time>
      </trkpt>
      <trkpt lat="43.202847" lon="-1.6711357">
        <time>2022-07-02T14:09:16Z</time>
      </trkpt>
      <trkpt lat="43.202827" lon="-1.6712387">
        <time>2022-07-02T14:09:18Z</time>
      </trkpt>
      <trkpt lat="43.20281" lon="-1.671346">
        <time>2022-07-02T14:09:20Z</time>
      </trkpt>
      <trkpt lat="43.20278" lon="-1.6714517">
        <time>2022-07-02T14:09:22Z</time>
      </trkpt>
      <trkpt lat="43.20275" lon="-1.671561">
        <time>2022-07-02T14:09:24Z</time>
      </trkpt>
      <trkpt lat="43.202717" lon="-1.6716646">
        <time>2022-07-02T14:09:26Z</time>
      </trkpt>
      <trkpt lat="43.202682" lon="-1.6717607">
        <time>2022-07-02T14:09:28Z</time>
      </trkpt>
      <trkpt lat="43.202637" lon="-1.671852">
        <time>2022-07-02T14:09:30Z</time>
      </trkpt>
      <trkpt lat="43.20259" lon="-1.6719466">
        <time>2022-07-02T14:09:32Z</time>
      </trkpt>
      <trkpt lat="43.20254" lon="-1.6720353">
        <time>2022-07-02T14:09:34Z</time>
      </trkpt>
      <trkpt lat="43.20249" lon="-1.6721219">
        <time>2022-07-02T14:09:36Z</time>
      </trkpt>
      <trkpt lat="43.202446" lon="-1.6722022">
        <time>2022-07-02T14:09:38Z</time>
      </trkpt>
      <trkpt lat="43.2024" lon="-1.6722866">
        <time>2022-07-02T14:09:40Z</time>
      </trkpt>
      <trkpt lat="43.202354" lon="-1.6723769">
        <time>2022-07-02T14:09:42Z</time>
      </trkpt>
      <trkpt lat="43.202305" lon="-1.6724633">
        <time>2022-07-02T14:09:44Z</time>
      </trkpt>
      <trkpt lat="43.20226" lon="-1.672545">
        <time>2022-07-02T14:09:46Z</time>
      </trkpt>
      <trkpt lat="43.20221" lon="-1.6726329">
        <time>2022-07-02T14:09:48Z</time>
      </trkpt>
      <trkpt lat="43.20216" lon="-1.6727259">
        <time>2022-07-02T14:09:50Z</time>
      </trkpt>
      <trkpt lat="43.20211" lon="-1.6728159">
        <time>2022-07-02T14:09:52Z</time>
      </trkpt>
      <trkpt lat="43.202053" lon="-1.6729063">
        <time>2022-07-02T14:09:54Z</time>
      </trkpt>
      <trkpt lat="43.201996" lon="-1.6729983">
        <time>2022-07-02T14:09:56Z</time>
      </trkpt>
      <trkpt lat="43.20194" lon="-1.6730835">
        <time>2022-07-02T14:09:58Z</time>
      </trkpt>
      <trkpt lat="43.20187" lon="-1.6731613">
        <time>2022-07-02T14:10:00Z</time>
      </trkpt>
      <trkpt lat="43.2018" lon="-1.6732316">
        <time>2022-07-02T14:10:02Z</time>
      </trkpt>
      <trkpt lat="43.20173" lon="-1.6732979">
        <time>2022-07-02T14:10:04Z</time>
      </trkpt>
      <trkpt lat="43.201653" lon="-1.6733626">
        <time>2022-07-02T14:10:06Z</time>
      </trkpt>
      <trkpt lat="43.20157" lon="-1.6734182">
        <time>2022-07-02T14:10:08Z</time>
      </trkpt>
      <trkpt lat="43.201527" lon="-1.6734452">
        <time>2022-07-02T14:10:09Z</time>
      </trkpt>
      <trkpt lat="43.201443" lon="-1.6734959">
        <time>2022-07-02T14:10:11Z</time>
      </trkpt>
      <trkpt lat="43.201363" lon="-1.6735458">
        <time>2022-07-02T14:10:13Z</time>
      </trkpt>
      <trkpt lat="43.20128" lon="-1.6735998">
        <time>2022-07-02T14:10:15Z</time>
      </trkpt>
      <trkpt lat="43.2012" lon="-1.6736436">
        <time>2022-07-02T14:10:17Z</time>
      </trkpt>
      <trkpt lat="43.20112" lon="-1.6736792">
        <time>2022-07-02T14:10:19Z</time>
      </trkpt>
      <trkpt lat="43.20104" lon="-1.6737125">
        <time>2022-07-02T14:10:21Z</time>
      </trkpt>
      <trkpt lat="43.20096" lon="-1.6737455">
        <time>2022-07-02T14:10:23Z</time>
      </trkpt>
      <trkpt lat="43.20088" lon="-1.6737765">
        <time>2022-07-02T14:10:25Z</time>
      </trkpt>
      <trkpt lat="43.200806" lon="-1.6738032">
        <time>2022-07-02T14:10:27Z</time>
      </trkpt>
      <trkpt lat="43.200733" lon="-1.6738312">
        <time>2022-07-02T14:10:29Z</time>
      </trkpt>
      <trkpt lat="43.20066" lon="-1.6738542">
        <time>2022-07-02T14:10:31Z</time>
      </trkpt>
      <trkpt lat="43.20059" lon="-1.6738669">
        <time>2022-07-02T14:10:33Z</time>
      </trkpt>
      <trkpt lat="43.200512" lon="-1.6738691">
        <time>2022-07-02T14:10:35Z</time>
      </trkpt>
      <trkpt lat="43.20043" lon="-1.6738552">
        <time>2022-07-02T14:10:37Z</time>
      </trkpt>
      <trkpt lat="43.20035" lon="-1.6738281">
        <time>2022-07-02T14:10:39Z</time>
      </trkpt>
      <trkpt lat="43.20027" lon="-1.6737938">
        <time>2022-07-02T14:10:41Z</time>
      </trkpt>
      <trkpt lat="43.200188" lon="-1.6737485">
        <time>2022-07-02T14:10:43Z</time>
      </trkpt>
      <trkpt lat="43.200108" lon="-1.6736972">
        <time>2022-07-02T14:10:45Z</time>
      </trkpt>
      <trkpt lat="43.20003" lon="-1.6736382">
        <time>2022-07-02T14:10:47Z</time>
      </trkpt>
      <trkpt lat="43.199955" lon="-1.6735785">
        <time>2022-07-02T14:10:49Z</time>
      </trkpt>
      <trkpt lat="43.19989" lon="-1.6735156">
        <time>2022-07-02T14:10:51Z</time>
      </trkpt>
      <trkpt lat="43.199825" lon="-1.6734428">
        <time>2022-07-02T14:10:53Z</time>
      </trkpt>
      <trkpt lat="43.199764" lon="-1.6733619">
        <time>2022-07-02T14:10:55Z</time>
      </trkpt>
      <trkpt lat="43.199703" lon="-1.6732789">
        <time>2022-07-02T14:10:57Z</time>
      </trkpt>
      <trkpt lat="43.19965" lon="-1.6731995">
        <time>2022-07-02T14:10:59Z</time>
      </trkpt>
      <trkpt lat="43.199596" lon="-1.6731242">
        <time>2022-07-02T14:11:01Z</time>
      </trkpt>
      <trkpt lat="43.199554" lon="-1.6730489">
        <time>2022-07-02T14:11:03Z</time>
      </trkpt>
      <trkpt lat="43.199528" lon="-1.6729769">
        <time>2022-07-02T14:11:05Z</time>
      </trkpt>
      <trkpt lat="43.19951" lon="-1.6729119">
        <time>2022-07-02T14:11:07Z</time>
      </trkpt>
      <trkpt lat="43.199474" lon="-1.6728519">
        <time>2022-07-02T14:11:09Z</time>
      </trkpt>
      <trkpt lat="43.199436" lon="-1.6728029">
        <time>2022-07-02T14:11:11Z</time>
      </trkpt>
      <trkpt lat="43.197533" lon="-1.6720439">
        <time>2022-07-02T14:12:07Z</time>
      </trkpt>
      <trkpt lat="43.196877" lon="-1.6722742">
        <time>2022-07-02T14:12:23Z</time>
      </trkpt>
      <trkpt lat="43.196777" lon="-1.6722622">
        <time>2022-07-02T14:12:27Z</time>
      </trkpt>
      <trkpt lat="43.196705" lon="-1.6722475">
        <time>2022-07-02T14:12:29Z</time>
      </trkpt>
      <trkpt lat="43.19663" lon="-1.6722345">
        <time>2022-07-02T14:12:31Z</time>
      </trkpt>
      <trkpt lat="43.196552" lon="-1.6722212">
        <time>2022-07-02T14:12:33Z</time>
      </trkpt>
      <trkpt lat="43.19648" lon="-1.6721972">
        <time>2022-07-02T14:12:35Z</time>
      </trkpt>
      <trkpt lat="43.19642" lon="-1.6721772">
        <time>2022-07-02T14:12:37Z</time>
      </trkpt>
      <trkpt lat="43.19636" lon="-1.6721542">
        <time>2022-07-02T14:12:39Z</time>
      </trkpt>
      <trkpt lat="43.1963" lon="-1.6721189">
        <time>2022-07-02T14:12:41Z</time>
      </trkpt>
      <trkpt lat="43.196236" lon="-1.6720799">
        <time>2022-07-02T14:12:43Z</time>
      </trkpt>
      <trkpt lat="43.19617" lon="-1.6720369">
        <time>2022-07-02T14:12:45Z</time>
      </trkpt>
      <trkpt lat="43.19611" lon="-1.6719929">
        <time>2022-07-02T14:12:47Z</time>
      </trkpt>
      <trkpt lat="43.19605" lon="-1.6719515">
        <time>2022-07-02T14:12:49Z</time>
      </trkpt>
      <trkpt lat="43.195995" lon="-1.6719086">
        <time>2022-07-02T14:12:51Z</time>
      </trkpt>
      <trkpt lat="43.19594" lon="-1.6718595">
        <time>2022-07-02T14:12:53Z</time>
      </trkpt>
      <trkpt lat="43.195858" lon="-1.6717895">
        <time>2022-07-02T14:12:56Z</time>
      </trkpt>
      <trkpt lat="43.195805" lon="-1.6717446">
        <time>2022-07-02T14:12:58Z</time>
      </trkpt>
      <trkpt lat="43.19575" lon="-1.6717019">
        <time>2022-07-02T14:13:00Z</time>
      </trkpt>
      <trkpt lat="43.195694" lon="-1.6716555">
        <time>2022-07-02T14:13:02Z</time>
      </trkpt>
      <trkpt lat="43.19564" lon="-1.6716013">
        <time>2022-07-02T14:13:04Z</time>
      </trkpt>
      <trkpt lat="43.19559" lon="-1.6715373">
        <time>2022-07-02T14:13:06Z</time>
      </trkpt>
      <trkpt lat="43.195545" lon="-1.6714686">
        <time>2022-07-02T14:13:08Z</time>
      </trkpt>
      <trkpt lat="43.1955" lon="-1.6713996">
        <time>2022-07-02T14:13:10Z</time>
      </trkpt>
      <trkpt lat="43.19545" lon="-1.6713313">
        <time>2022-07-02T14:13:12Z</time>
      </trkpt>
      <trkpt lat="43.195404" lon="-1.6712626">
        <time>2022-07-02T14:13:14Z</time>
      </trkpt>
      <trkpt lat="43.19536" lon="-1.6711826">
        <time>2022-07-02T14:13:16Z</time>
      </trkpt>
      <trkpt lat="43.19532" lon="-1.6710953">
        <time>2022-07-02T14:13:18Z</time>
      </trkpt>
      <trkpt lat="43.19529" lon="-1.6710013">
        <time>2022-07-02T14:13:20Z</time>
      </trkpt>
      <trkpt lat="43.195255" lon="-1.6709065">
        <time>2022-07-02T14:13:22Z</time>
      </trkpt>
      <trkpt lat="43.195217" lon="-1.6708176">
        <time>2022-07-02T14:13:24Z</time>
      </trkpt>
      <trkpt lat="43.19517" lon="-1.6707323">
        <time>2022-07-02T14:13:26Z</time>
      </trkpt>
      <trkpt lat="43.195126" lon="-1.6706476">
        <time>2022-07-02T14:13:28Z</time>
      </trkpt>
      <trkpt lat="43.195084" lon="-1.6705643">
        <time>2022-07-02T14:13:30Z</time>
      </trkpt>
      <trkpt lat="43.19504" lon="-1.6704873">
        <time>2022-07-02T14:13:32Z</time>
      </trkpt>
      <trkpt lat="43.195007" lon="-1.670412">
        <time>2022-07-02T14:13:34Z</time>
      </trkpt>
      <trkpt lat="43.194977" lon="-1.670336">
        <time>2022-07-02T14:13:36Z</time>
      </trkpt>
      <trkpt lat="43.19494" lon="-1.670264">
        <time>2022-07-02T14:13:38Z</time>
      </trkpt>
      <trkpt lat="43.194904" lon="-1.6701863">
        <time>2022-07-02T14:13:40Z</time>
      </trkpt>
      <trkpt lat="43.194878" lon="-1.6701007">
        <time>2022-07-02T14:13:42Z</time>
      </trkpt>
      <trkpt lat="43.19485" lon="-1.670013">
        <time>2022-07-02T14:13:44Z</time>
      </trkpt>
      <trkpt lat="43.194824" lon="-1.6699274">
        <time>2022-07-02T14:13:46Z</time>
      </trkpt>
      <trkpt lat="43.19481" lon="-1.6698409">
        <time>2022-07-02T14:13:48Z</time>
      </trkpt>
      <trkpt lat="43.194794" lon="-1.6697533">
        <time>2022-07-02T14:13:50Z</time>
      </trkpt>
      <trkpt lat="43.19478" lon="-1.6696746">
        <time>2022-07-02T14:13:52Z</time>
      </trkpt>
      <trkpt lat="43.19476" lon="-1.6695937">
        <time>2022-07-02T14:13:54Z</time>
      </trkpt>
      <trkpt lat="43.19474" lon="-1.6694677">
        <time>2022-07-02T14:13:57Z</time>
      </trkpt>
      <trkpt lat="43.194736" lon="-1.6693764">
        <time>2022-07-02T14:13:59Z</time>
      </trkpt>
      <trkpt lat="43.194733" lon="-1.6692764">
        <time>2022-07-02T14:14:01Z</time>
      </trkpt>
      <trkpt lat="43.19473" lon="-1.669174">
        <time>2022-07-02T14:14:03Z</time>
      </trkpt>
      <trkpt lat="43.194725" lon="-1.669068">
        <time>2022-07-02T14:14:05Z</time>
      </trkpt>
      <trkpt lat="43.194725" lon="-1.668964">
        <time>2022-07-02T14:14:07Z</time>
      </trkpt>
      <trkpt lat="43.19473" lon="-1.668863">
        <time>2022-07-02T14:14:09Z</time>
      </trkpt>
      <trkpt lat="43.194725" lon="-1.6687603">
        <time>2022-07-02T14:14:11Z</time>
      </trkpt>
      <trkpt lat="43.194717" lon="-1.6686463">
        <time>2022-07-02T14:14:13Z</time>
      </trkpt>
      <trkpt lat="43.194714" lon="-1.668527">
        <time>2022-07-02T14:14:15Z</time>
      </trkpt>
      <trkpt lat="43.19471" lon="-1.6684107">
        <time>2022-07-02T14:14:17Z</time>
      </trkpt>
      <trkpt lat="43.194706" lon="-1.6682943">
        <time>2022-07-02T14:14:19Z</time>
      </trkpt>
      <trkpt lat="43.19472" lon="-1.668183">
        <time>2022-07-02T14:14:21Z</time>
      </trkpt>
      <trkpt lat="43.19474" lon="-1.6680783">
        <time>2022-07-02T14:14:23Z</time>
      </trkpt>
      <trkpt lat="43.194748" lon="-1.6679734">
        <time>2022-07-02T14:14:25Z</time>
      </trkpt>
      <trkpt lat="43.19475" lon="-1.6678627">
        <time>2022-07-02T14:14:27Z</time>
      </trkpt>
      <trkpt lat="43.194756" lon="-1.6677524">
        <time>2022-07-02T14:14:29Z</time>
      </trkpt>
      <trkpt lat="43.194763" lon="-1.6676377">
        <time>2022-07-02T14:14:31Z</time>
      </trkpt>
      <trkpt lat="43.194775" lon="-1.6675227">
        <time>2022-07-02T14:14:33Z</time>
      </trkpt>
      <trkpt lat="43.194782" lon="-1.667412">
        <time>2022-07-02T14:14:35Z</time>
      </trkpt>
      <trkpt lat="43.19479" lon="-1.6673057">
        <time>2022-07-02T14:14:37Z</time>
      </trkpt>
      <trkpt lat="43.194805" lon="-1.6672037">
        <time>2022-07-02T14:14:39Z</time>
      </trkpt>
      <trkpt lat="43.194805" lon="-1.6670977">
        <time>2022-07-02T14:14:41Z</time>
      </trkpt>
      <trkpt lat="43.194794" lon="-1.6669943">
        <time>2022-07-02T14:14:43Z</time>
      </trkpt>
      <trkpt lat="43.19479" lon="-1.666897">
        <time>2022-07-02T14:14:45Z</time>
      </trkpt>
      <trkpt lat="43.194775" lon="-1.6668091">
        <time>2022-07-02T14:14:47Z</time>
      </trkpt>
      <trkpt lat="43.194756" lon="-1.6667087">
        <time>2022-07-02T14:14:49Z</time>
      </trkpt>
      <trkpt lat="43.194733" lon="-1.6666107">
        <time>2022-07-02T14:14:51Z</time>
      </trkpt>
      <trkpt lat="43.1947" lon="-1.6665137">
        <time>2022-07-02T14:14:53Z</time>
      </trkpt>
      <trkpt lat="43.19466" lon="-1.6664237">
        <time>2022-07-02T14:14:55Z</time>
      </trkpt>
      <trkpt lat="43.194633" lon="-1.6663381">
        <time>2022-07-02T14:14:57Z</time>
      </trkpt>
      <trkpt lat="43.1946" lon="-1.666203">
        <time>2022-07-02T14:15:00Z</time>
      </trkpt>
      <trkpt lat="43.19458" lon="-1.6661115">
        <time>2022-07-02T14:15:02Z</time>
      </trkpt>
      <trkpt lat="43.194565" lon="-1.6660191">
        <time>2022-07-02T14:15:04Z</time>
      </trkpt>
      <trkpt lat="43.194553" lon="-1.6659265">
        <time>2022-07-02T14:15:06Z</time>
      </trkpt>
      <trkpt lat="43.19454" lon="-1.6658401">
        <time>2022-07-02T14:15:08Z</time>
      </trkpt>
      <trkpt lat="43.194515" lon="-1.665742">
        <time>2022-07-02T14:15:10Z</time>
      </trkpt>
      <trkpt lat="43.19449" lon="-1.6656528">
        <time>2022-07-02T14:15:12Z</time>
      </trkpt>
      <trkpt lat="43.19445" lon="-1.6655848">
        <time>2022-07-02T14:15:14Z</time>
      </trkpt>
      <trkpt lat="43.194393" lon="-1.6655397">
        <time>2022-07-02T14:15:16Z</time>
      </trkpt>
      <trkpt lat="43.19433" lon="-1.6655217">
        <time>2022-07-02T14:15:18Z</time>
      </trkpt>
      <trkpt lat="43.19426" lon="-1.6655217">
        <time>2022-07-02T14:15:20Z</time>
      </trkpt>
      <trkpt lat="43.19419" lon="-1.6655384">
        <time>2022-07-02T14:15:22Z</time>
      </trkpt>
      <trkpt lat="43.194126" lon="-1.6655561">
        <time>2022-07-02T14:15:24Z</time>
      </trkpt>
      <trkpt lat="43.194057" lon="-1.6655734">
        <time>2022-07-02T14:15:26Z</time>
      </trkpt>
      <trkpt lat="43.193985" lon="-1.665593">
        <time>2022-07-02T14:15:28Z</time>
      </trkpt>
      <trkpt lat="43.193916" lon="-1.6656138">
        <time>2022-07-02T14:15:30Z</time>
      </trkpt>
      <trkpt lat="43.19384" lon="-1.6656297">
        <time>2022-07-02T14:15:32Z</time>
      </trkpt>
      <trkpt lat="43.193764" lon="-1.6656407">
        <time>2022-07-02T14:15:34Z</time>
      </trkpt>
      <trkpt lat="43.193684" lon="-1.6656533">
        <time>2022-07-02T14:15:36Z</time>
      </trkpt>
      <trkpt lat="43.1936" lon="-1.6656634">
        <time>2022-07-02T14:15:38Z</time>
      </trkpt>
      <trkpt lat="43.193516" lon="-1.665676">
        <time>2022-07-02T14:15:40Z</time>
      </trkpt>
      <trkpt lat="43.193443" lon="-1.6657023">
        <time>2022-07-02T14:15:42Z</time>
      </trkpt>
      <trkpt lat="43.193375" lon="-1.6657344">
        <time>2022-07-02T14:15:44Z</time>
      </trkpt>
      <trkpt lat="43.19331" lon="-1.6657658">
        <time>2022-07-02T14:15:46Z</time>
      </trkpt>
      <trkpt lat="43.19325" lon="-1.6657917">
        <time>2022-07-02T14:15:48Z</time>
      </trkpt>
      <trkpt lat="43.193184" lon="-1.6658207">
        <time>2022-07-02T14:15:50Z</time>
      </trkpt>
      <trkpt lat="43.193123" lon="-1.6658617">
        <time>2022-07-02T14:15:52Z</time>
      </trkpt>
      <trkpt lat="43.19306" lon="-1.6659037">
        <time>2022-07-02T14:15:54Z</time>
      </trkpt>
      <trkpt lat="43.193" lon="-1.6659427">
        <time>2022-07-02T14:15:56Z</time>
      </trkpt>
      <trkpt lat="43.192932" lon="-1.665977">
        <time>2022-07-02T14:15:58Z</time>
      </trkpt>
      <trkpt lat="43.19283" lon="-1.66603">
        <time>2022-07-02T14:16:01Z</time>
      </trkpt>
      <trkpt lat="43.192757" lon="-1.6660703">
        <time>2022-07-02T14:16:03Z</time>
      </trkpt>
      <trkpt lat="43.192684" lon="-1.6661137">
        <time>2022-07-02T14:16:05Z</time>
      </trkpt>
      <trkpt lat="43.192608" lon="-1.6661516">
        <time>2022-07-02T14:16:07Z</time>
      </trkpt>
      <trkpt lat="43.19253" lon="-1.666187">
        <time>2022-07-02T14:16:09Z</time>
      </trkpt>
      <trkpt lat="43.192455" lon="-1.6662253">
        <time>2022-07-02T14:16:11Z</time>
      </trkpt>
      <trkpt lat="43.192387" lon="-1.6662674">
        <time>2022-07-02T14:16:13Z</time>
      </trkpt>
      <trkpt lat="43.192318" lon="-1.6663107">
        <time>2022-07-02T14:16:15Z</time>
      </trkpt>
      <trkpt lat="43.192253" lon="-1.666349">
        <time>2022-07-02T14:16:17Z</time>
      </trkpt>
      <trkpt lat="43.192192" lon="-1.6663834">
        <time>2022-07-02T14:16:19Z</time>
      </trkpt>
      <trkpt lat="43.19213" lon="-1.6664194">
        <time>2022-07-02T14:16:21Z</time>
      </trkpt>
      <trkpt lat="43.192066" lon="-1.666452">
        <time>2022-07-02T14:16:23Z</time>
      </trkpt>
      <trkpt lat="43.191994" lon="-1.6664844">
        <time>2022-07-02T14:16:25Z</time>
      </trkpt>
      <trkpt lat="43.191917" lon="-1.6665133">
        <time>2022-07-02T14:16:27Z</time>
      </trkpt>
      <trkpt lat="43.19184" lon="-1.6665367">
        <time>2022-07-02T14:16:29Z</time>
      </trkpt>
      <trkpt lat="43.19176" lon="-1.666561">
        <time>2022-07-02T14:16:31Z</time>
      </trkpt>
      <trkpt lat="43.191677" lon="-1.666592">
        <time>2022-07-02T14:16:33Z</time>
      </trkpt>
      <trkpt lat="43.191593" lon="-1.6666267">
        <time>2022-07-02T14:16:35Z</time>
      </trkpt>
      <trkpt lat="43.191505" lon="-1.6666677">
        <time>2022-07-02T14:16:37Z</time>
      </trkpt>
      <trkpt lat="43.191418" lon="-1.6667076">
        <time>2022-07-02T14:16:39Z</time>
      </trkpt>
      <trkpt lat="43.19133" lon="-1.6667403">
        <time>2022-07-02T14:16:41Z</time>
      </trkpt>
      <trkpt lat="43.191246" lon="-1.6667683">
        <time>2022-07-02T14:16:43Z</time>
      </trkpt>
      <trkpt lat="43.19116" lon="-1.6667947">
        <time>2022-07-02T14:16:45Z</time>
      </trkpt>
      <trkpt lat="43.19107" lon="-1.6668253">
        <time>2022-07-02T14:16:47Z</time>
      </trkpt>
      <trkpt lat="43.19098" lon="-1.6668663">
        <time>2022-07-02T14:16:49Z</time>
      </trkpt>
      <trkpt lat="43.19089" lon="-1.6669173">
        <time>2022-07-02T14:16:51Z</time>
      </trkpt>
      <trkpt lat="43.190804" lon="-1.6669847">
        <time>2022-07-02T14:16:53Z</time>
      </trkpt>
      <trkpt lat="43.190765" lon="-1.6670226">
        <time>2022-07-02T14:16:54Z</time>
      </trkpt>
      <trkpt lat="43.190723" lon="-1.6670623">
        <time>2022-07-02T14:16:55Z</time>
      </trkpt>
      <trkpt lat="43.190647" lon="-1.6671447">
        <time>2022-07-02T14:16:57Z</time>
      </trkpt>
      <trkpt lat="43.190613" lon="-1.6671909">
        <time>2022-07-02T14:16:58Z</time>
      </trkpt>
      <trkpt lat="43.19055" lon="-1.6672876">
        <time>2022-07-02T14:17:00Z</time>
      </trkpt>
      <trkpt lat="43.19052" lon="-1.6673416">
        <time>2022-07-02T14:17:01Z</time>
      </trkpt>
      <trkpt lat="43.190456" lon="-1.6674533">
        <time>2022-07-02T14:17:03Z</time>
      </trkpt>
      <trkpt lat="43.19043" lon="-1.6675103">
        <time>2022-07-02T14:17:04Z</time>
      </trkpt>
      <trkpt lat="43.19038" lon="-1.6676306">
        <time>2022-07-02T14:17:06Z</time>
      </trkpt>
      <trkpt lat="43.190334" lon="-1.667756">
        <time>2022-07-02T14:17:08Z</time>
      </trkpt>
      <trkpt lat="43.190315" lon="-1.6678176">
        <time>2022-07-02T14:17:09Z</time>
      </trkpt>
      <trkpt lat="43.19028" lon="-1.6679436">
        <time>2022-07-02T14:17:11Z</time>
      </trkpt>
      <trkpt lat="43.190258" lon="-1.6680763">
        <time>2022-07-02T14:17:13Z</time>
      </trkpt>
      <trkpt lat="43.190247" lon="-1.6682079">
        <time>2022-07-02T14:17:15Z</time>
      </trkpt>
      <trkpt lat="43.190243" lon="-1.668338">
        <time>2022-07-02T14:17:17Z</time>
      </trkpt>
      <trkpt lat="43.190243" lon="-1.6684039">
        <time>2022-07-02T14:17:18Z</time>
      </trkpt>
      <trkpt lat="43.190243" lon="-1.6685343">
        <time>2022-07-02T14:17:20Z</time>
      </trkpt>
      <trkpt lat="43.190243" lon="-1.6685985">
        <time>2022-07-02T14:17:21Z</time>
      </trkpt>
      <trkpt lat="43.190254" lon="-1.6687266">
        <time>2022-07-02T14:17:23Z</time>
      </trkpt>
      <trkpt lat="43.190266" lon="-1.6688522">
        <time>2022-07-02T14:17:25Z</time>
      </trkpt>
      <trkpt lat="43.190277" lon="-1.6689839">
        <time>2022-07-02T14:17:27Z</time>
      </trkpt>
      <trkpt lat="43.19028" lon="-1.6691126">
        <time>2022-07-02T14:17:29Z</time>
      </trkpt>
      <trkpt lat="43.19029" lon="-1.6692475">
        <time>2022-07-02T14:17:31Z</time>
      </trkpt>
      <trkpt lat="43.190292" lon="-1.6693718">
        <time>2022-07-02T14:17:33Z</time>
      </trkpt>
      <trkpt lat="43.190292" lon="-1.6695029">
        <time>2022-07-02T14:17:35Z</time>
      </trkpt>
      <trkpt lat="43.190292" lon="-1.6695693">
        <time>2022-07-02T14:17:36Z</time>
      </trkpt>
      <trkpt lat="43.190292" lon="-1.6696942">
        <time>2022-07-02T14:17:38Z</time>
      </trkpt>
      <trkpt lat="43.190296" lon="-1.6698192">
        <time>2022-07-02T14:17:40Z</time>
      </trkpt>
      <trkpt lat="43.1903" lon="-1.6699436">
        <time>2022-07-02T14:17:42Z</time>
      </trkpt>
      <trkpt lat="43.190308" lon="-1.6700579">
        <time>2022-07-02T14:17:44Z</time>
      </trkpt>
      <trkpt lat="43.19031" lon="-1.6701772">
        <time>2022-07-02T14:17:46Z</time>
      </trkpt>
      <trkpt lat="43.19031" lon="-1.6702908">
        <time>2022-07-02T14:17:48Z</time>
      </trkpt>
      <trkpt lat="43.190323" lon="-1.6704055">
        <time>2022-07-02T14:17:50Z</time>
      </trkpt>
      <trkpt lat="43.190334" lon="-1.6705115">
        <time>2022-07-02T14:17:52Z</time>
      </trkpt>
      <trkpt lat="43.19035" lon="-1.6706018">
        <time>2022-07-02T14:17:54Z</time>
      </trkpt>
      <trkpt lat="43.19036" lon="-1.6706868">
        <time>2022-07-02T14:17:56Z</time>
      </trkpt>
      <trkpt lat="43.19037" lon="-1.6707798">
        <time>2022-07-02T14:17:58Z</time>
      </trkpt>
      <trkpt lat="43.19038" lon="-1.6708828">
        <time>2022-07-02T14:18:00Z</time>
      </trkpt>
      <trkpt lat="43.190395" lon="-1.6709965">
        <time>2022-07-02T14:18:02Z</time>
      </trkpt>
      <trkpt lat="43.190414" lon="-1.6711049">
        <time>2022-07-02T14:18:04Z</time>
      </trkpt>
      <trkpt lat="43.190422" lon="-1.6712339">
        <time>2022-07-02T14:18:06Z</time>
      </trkpt>
      <trkpt lat="43.190422" lon="-1.6712998">
        <time>2022-07-02T14:18:07Z</time>
      </trkpt>
      <trkpt lat="43.190426" lon="-1.6714355">
        <time>2022-07-02T14:18:09Z</time>
      </trkpt>
      <trkpt lat="43.19043" lon="-1.6715775">
        <time>2022-07-02T14:18:11Z</time>
      </trkpt>
      <trkpt lat="43.19043" lon="-1.6716452">
        <time>2022-07-02T14:18:12Z</time>
      </trkpt>
      <trkpt lat="43.190434" lon="-1.6717829">
        <time>2022-07-02T14:18:14Z</time>
      </trkpt>
      <trkpt lat="43.190434" lon="-1.6719198">
        <time>2022-07-02T14:18:16Z</time>
      </trkpt>
      <trkpt lat="43.190434" lon="-1.6719795">
        <time>2022-07-02T14:18:17Z</time>
      </trkpt>
      <trkpt lat="43.19043" lon="-1.6720995">
        <time>2022-07-02T14:18:19Z</time>
      </trkpt>
      <trkpt lat="43.190422" lon="-1.6722345">
        <time>2022-07-02T14:18:21Z</time>
      </trkpt>
      <trkpt lat="43.190407" lon="-1.6723602">
        <time>2022-07-02T14:18:23Z</time>
      </trkpt>
      <trkpt lat="43.1904" lon="-1.6724244">
        <time>2022-07-02T14:18:24Z</time>
      </trkpt>
      <trkpt lat="43.190384" lon="-1.6725454">
        <time>2022-07-02T14:18:26Z</time>
      </trkpt>
      <trkpt lat="43.190365" lon="-1.6726675">
        <time>2022-07-02T14:18:28Z</time>
      </trkpt>
      <trkpt lat="43.19033" lon="-1.6727898">
        <time>2022-07-02T14:18:30Z</time>
      </trkpt>
      <trkpt lat="43.190308" lon="-1.6728535">
        <time>2022-07-02T14:18:31Z</time>
      </trkpt>
      <trkpt lat="43.19027" lon="-1.6729808">
        <time>2022-07-02T14:18:33Z</time>
      </trkpt>
      <trkpt lat="43.19025" lon="-1.6730468">
        <time>2022-07-02T14:18:34Z</time>
      </trkpt>
      <trkpt lat="43.190212" lon="-1.6731764">
        <time>2022-07-02T14:18:36Z</time>
      </trkpt>
      <trkpt lat="43.190193" lon="-1.6732361">
        <time>2022-07-02T14:18:37Z</time>
      </trkpt>
      <trkpt lat="43.190163" lon="-1.6733642">
        <time>2022-07-02T14:18:39Z</time>
      </trkpt>
      <trkpt lat="43.190144" lon="-1.6734295">
        <time>2022-07-02T14:18:40Z</time>
      </trkpt>
      <trkpt lat="43.19013" lon="-1.6734904">
        <time>2022-07-02T14:18:41Z</time>
      </trkpt>
      <trkpt lat="43.190098" lon="-1.6736177">
        <time>2022-07-02T14:18:43Z</time>
      </trkpt>
      <trkpt lat="43.19008" lon="-1.6736795">
        <time>2022-07-02T14:18:44Z</time>
      </trkpt>
      <trkpt lat="43.190052" lon="-1.6737958">
        <time>2022-07-02T14:18:46Z</time>
      </trkpt>
      <trkpt lat="43.190018" lon="-1.6739137">
        <time>2022-07-02T14:18:48Z</time>
      </trkpt>
      <trkpt lat="43.189987" lon="-1.6740328">
        <time>2022-07-02T14:18:50Z</time>
      </trkpt>
      <trkpt lat="43.18996" lon="-1.6741524">
        <time>2022-07-02T14:18:52Z</time>
      </trkpt>
      <trkpt lat="43.18993" lon="-1.6742687">
        <time>2022-07-02T14:18:54Z</time>
      </trkpt>
      <trkpt lat="43.189907" lon="-1.6743821">
        <time>2022-07-02T14:18:56Z</time>
      </trkpt>
      <trkpt lat="43.189877" lon="-1.6744941">
        <time>2022-07-02T14:18:58Z</time>
      </trkpt>
      <trkpt lat="43.189842" lon="-1.6746031">
        <time>2022-07-02T14:19:00Z</time>
      </trkpt>
      <trkpt lat="43.189808" lon="-1.6747104">
        <time>2022-07-02T14:19:02Z</time>
      </trkpt>
      <trkpt lat="43.18977" lon="-1.6748167">
        <time>2022-07-02T14:19:04Z</time>
      </trkpt>
      <trkpt lat="43.18973" lon="-1.6749225">
        <time>2022-07-02T14:19:06Z</time>
      </trkpt>
      <trkpt lat="43.189667" lon="-1.6750737">
        <time>2022-07-02T14:19:09Z</time>
      </trkpt>
      <trkpt lat="43.189617" lon="-1.6751678">
        <time>2022-07-02T14:19:11Z</time>
      </trkpt>
      <trkpt lat="43.18956" lon="-1.675253">
        <time>2022-07-02T14:19:13Z</time>
      </trkpt>
      <trkpt lat="43.189503" lon="-1.6753321">
        <time>2022-07-02T14:19:15Z</time>
      </trkpt>
      <trkpt lat="43.189445" lon="-1.6754091">
        <time>2022-07-02T14:19:17Z</time>
      </trkpt>
      <trkpt lat="43.189384" lon="-1.6754814">
        <time>2022-07-02T14:19:19Z</time>
      </trkpt>
      <trkpt lat="43.18932" lon="-1.675547">
        <time>2022-07-02T14:19:21Z</time>
      </trkpt>
      <trkpt lat="43.18925" lon="-1.6756058">
        <time>2022-07-02T14:19:23Z</time>
      </trkpt>
      <trkpt lat="43.18918" lon="-1.6756611">
        <time>2022-07-02T14:19:25Z</time>
      </trkpt>
      <trkpt lat="43.189102" lon="-1.6757121">
        <time>2022-07-02T14:19:27Z</time>
      </trkpt>
      <trkpt lat="43.189026" lon="-1.67576">
        <time>2022-07-02T14:19:29Z</time>
      </trkpt>
      <trkpt lat="43.188946" lon="-1.675801">
        <time>2022-07-02T14:19:31Z</time>
      </trkpt>
      <trkpt lat="43.18887" lon="-1.6758333">
        <time>2022-07-02T14:19:33Z</time>
      </trkpt>
      <trkpt lat="43.188805" lon="-1.6758608">
        <time>2022-07-02T14:19:35Z</time>
      </trkpt>
      <trkpt lat="43.188732" lon="-1.6758757">
        <time>2022-07-02T14:19:37Z</time>
      </trkpt>
      <trkpt lat="43.188644" lon="-1.6758784">
        <time>2022-07-02T14:19:39Z</time>
      </trkpt>
      <trkpt lat="43.188557" lon="-1.6758591">
        <time>2022-07-02T14:19:41Z</time>
      </trkpt>
      <trkpt lat="43.18848" lon="-1.6758314">
        <time>2022-07-02T14:19:43Z</time>
      </trkpt>
      <trkpt lat="43.188404" lon="-1.6758051">
        <time>2022-07-02T14:19:45Z</time>
      </trkpt>
      <trkpt lat="43.188328" lon="-1.6757687">
        <time>2022-07-02T14:19:47Z</time>
      </trkpt>
      <trkpt lat="43.188263" lon="-1.6757324">
        <time>2022-07-02T14:19:49Z</time>
      </trkpt>
      <trkpt lat="43.188206" lon="-1.6756924">
        <time>2022-07-02T14:19:51Z</time>
      </trkpt>
      <trkpt lat="43.18815" lon="-1.6756454">
        <time>2022-07-02T14:19:53Z</time>
      </trkpt>
      <trkpt lat="43.188095" lon="-1.6755987">
        <time>2022-07-02T14:19:55Z</time>
      </trkpt>
      <trkpt lat="43.188046" lon="-1.6755447">
        <time>2022-07-02T14:19:57Z</time>
      </trkpt>
      <trkpt lat="43.187984" lon="-1.6754824">
        <time>2022-07-02T14:19:59Z</time>
      </trkpt>
      <trkpt lat="43.18793" lon="-1.6754234">
        <time>2022-07-02T14:20:01Z</time>
      </trkpt>
      <trkpt lat="43.187874" lon="-1.6753588">
        <time>2022-07-02T14:20:03Z</time>
      </trkpt>
      <trkpt lat="43.187824" lon="-1.6752968">
        <time>2022-07-02T14:20:05Z</time>
      </trkpt>
      <trkpt lat="43.187775" lon="-1.6752357">
        <time>2022-07-02T14:20:07Z</time>
      </trkpt>
      <trkpt lat="43.187733" lon="-1.6751645">
        <time>2022-07-02T14:20:09Z</time>
      </trkpt>
      <trkpt lat="43.187656" lon="-1.6750634">
        <time>2022-07-02T14:20:12Z</time>
      </trkpt>
      <trkpt lat="43.187607" lon="-1.6749945">
        <time>2022-07-02T14:20:14Z</time>
      </trkpt>
      <trkpt lat="43.187565" lon="-1.6749117">
        <time>2022-07-02T14:20:16Z</time>
      </trkpt>
      <trkpt lat="43.18752" lon="-1.6748191">
        <time>2022-07-02T14:20:18Z</time>
      </trkpt>
      <trkpt lat="43.187485" lon="-1.6747314">
        <time>2022-07-02T14:20:20Z</time>
      </trkpt>
      <trkpt lat="43.187454" lon="-1.6746491">
        <time>2022-07-02T14:20:22Z</time>
      </trkpt>
      <trkpt lat="43.187424" lon="-1.6745658">
        <time>2022-07-02T14:20:24Z</time>
      </trkpt>
      <trkpt lat="43.18739" lon="-1.6744754">
        <time>2022-07-02T14:20:26Z</time>
      </trkpt>
      <trkpt lat="43.18736" lon="-1.6743804">
        <time>2022-07-02T14:20:28Z</time>
      </trkpt>
      <trkpt lat="43.18733" lon="-1.6742882">
        <time>2022-07-02T14:20:30Z</time>
      </trkpt>
      <trkpt lat="43.187294" lon="-1.674195">
        <time>2022-07-02T14:20:32Z</time>
      </trkpt>
      <trkpt lat="43.18726" lon="-1.6740994">
        <time>2022-07-02T14:20:34Z</time>
      </trkpt>
      <trkpt lat="43.18723" lon="-1.6740052">
        <time>2022-07-02T14:20:36Z</time>
      </trkpt>
      <trkpt lat="43.1872" lon="-1.6739081">
        <time>2022-07-02T14:20:38Z</time>
      </trkpt>
      <trkpt lat="43.187164" lon="-1.6738135">
        <time>2022-07-02T14:20:40Z</time>
      </trkpt>
      <trkpt lat="43.187134" lon="-1.6737225">
        <time>2022-07-02T14:20:42Z</time>
      </trkpt>
      <trkpt lat="43.187103" lon="-1.6736262">
        <time>2022-07-02T14:20:44Z</time>
      </trkpt>
      <trkpt lat="43.187073" lon="-1.6735342">
        <time>2022-07-02T14:20:46Z</time>
      </trkpt>
      <trkpt lat="43.18704" lon="-1.6734408">
        <time>2022-07-02T14:20:48Z</time>
      </trkpt>
      <trkpt lat="43.187008" lon="-1.6733508">
        <time>2022-07-02T14:20:50Z</time>
      </trkpt>
      <trkpt lat="43.186974" lon="-1.6732575">
        <time>2022-07-02T14:20:52Z</time>
      </trkpt>
      <trkpt lat="43.18694" lon="-1.6731619">
        <time>2022-07-02T14:20:54Z</time>
      </trkpt>
      <trkpt lat="43.18691" lon="-1.6730688">
        <time>2022-07-02T14:20:56Z</time>
      </trkpt>
      <trkpt lat="43.186874" lon="-1.6729724">
        <time>2022-07-02T14:20:58Z</time>
      </trkpt>
      <trkpt lat="43.18684" lon="-1.6728774">
        <time>2022-07-02T14:21:00Z</time>
      </trkpt>
      <trkpt lat="43.18681" lon="-1.6727818">
        <time>2022-07-02T14:21:02Z</time>
      </trkpt>
      <trkpt lat="43.186775" lon="-1.6726842">
        <time>2022-07-02T14:21:04Z</time>
      </trkpt>
      <trkpt lat="43.186737" lon="-1.6725851">
        <time>2022-07-02T14:21:06Z</time>
      </trkpt>
      <trkpt lat="43.186703" lon="-1.6724851">
        <time>2022-07-02T14:21:08Z</time>
      </trkpt>
      <trkpt lat="43.18667" lon="-1.6723891">
        <time>2022-07-02T14:21:10Z</time>
      </trkpt>
      <trkpt lat="43.18663" lon="-1.6722878">
        <time>2022-07-02T14:21:12Z</time>
      </trkpt>
      <trkpt lat="43.186592" lon="-1.6721855">
        <time>2022-07-02T14:21:14Z</time>
      </trkpt>
      <trkpt lat="43.186535" lon="-1.6720225">
        <time>2022-07-02T14:21:17Z</time>
      </trkpt>
      <trkpt lat="43.186497" lon="-1.6719139">
        <time>2022-07-02T14:21:19Z</time>
      </trkpt>
      <trkpt lat="43.186455" lon="-1.6717979">
        <time>2022-07-02T14:21:21Z</time>
      </trkpt>
      <trkpt lat="43.186413" lon="-1.6716822">
        <time>2022-07-02T14:21:23Z</time>
      </trkpt>
      <trkpt lat="43.186375" lon="-1.6715726">
        <time>2022-07-02T14:21:25Z</time>
      </trkpt>
      <trkpt lat="43.186333" lon="-1.6714525">
        <time>2022-07-02T14:21:27Z</time>
      </trkpt>
      <trkpt lat="43.186295" lon="-1.6713349">
        <time>2022-07-02T14:21:29Z</time>
      </trkpt>
      <trkpt lat="43.186275" lon="-1.6712755">
        <time>2022-07-02T14:21:30Z</time>
      </trkpt>
      <trkpt lat="43.18623" lon="-1.6711472">
        <time>2022-07-02T14:21:32Z</time>
      </trkpt>
      <trkpt lat="43.186188" lon="-1.6710268">
        <time>2022-07-02T14:21:34Z</time>
      </trkpt>
      <trkpt lat="43.18614" lon="-1.6708999">
        <time>2022-07-02T14:21:36Z</time>
      </trkpt>
      <trkpt lat="43.186115" lon="-1.6708369">
        <time>2022-07-02T14:21:37Z</time>
      </trkpt>
      <trkpt lat="43.18609" lon="-1.6707752">
        <time>2022-07-02T14:21:38Z</time>
      </trkpt>
      <trkpt lat="43.186035" lon="-1.6706575">
        <time>2022-07-02T14:21:40Z</time>
      </trkpt>
      <trkpt lat="43.186005" lon="-1.6706012">
        <time>2022-07-02T14:21:41Z</time>
      </trkpt>
      <trkpt lat="43.18595" lon="-1.6704955">
        <time>2022-07-02T14:21:43Z</time>
      </trkpt>
      <trkpt lat="43.18589" lon="-1.6703942">
        <time>2022-07-02T14:21:45Z</time>
      </trkpt>
      <trkpt lat="43.185856" lon="-1.6703483">
        <time>2022-07-02T14:21:46Z</time>
      </trkpt>
      <trkpt lat="43.185795" lon="-1.6702609">
        <time>2022-07-02T14:21:48Z</time>
      </trkpt>
      <trkpt lat="43.18573" lon="-1.6701756">
        <time>2022-07-02T14:21:50Z</time>
      </trkpt>
      <trkpt lat="43.185665" lon="-1.6700943">
        <time>2022-07-02T14:21:52Z</time>
      </trkpt>
      <trkpt lat="43.18557" lon="-1.6700196">
        <time>2022-07-02T14:21:55Z</time>
      </trkpt>
      <trkpt lat="43.18552" lon="-1.6699876">
        <time>2022-07-02T14:21:56Z</time>
      </trkpt>
      <trkpt lat="43.185474" lon="-1.6699606">
        <time>2022-07-02T14:21:57Z</time>
      </trkpt>
      <trkpt lat="43.185383" lon="-1.6699106">
        <time>2022-07-02T14:21:59Z</time>
      </trkpt>
      <trkpt lat="43.18529" lon="-1.669869">
        <time>2022-07-02T14:22:01Z</time>
      </trkpt>
      <trkpt lat="43.18524" lon="-1.6698526">
        <time>2022-07-02T14:22:02Z</time>
      </trkpt>
      <trkpt lat="43.18515" lon="-1.6698316">
        <time>2022-07-02T14:22:04Z</time>
      </trkpt>
      <trkpt lat="43.18505" lon="-1.6698205">
        <time>2022-07-02T14:22:06Z</time>
      </trkpt>
      <trkpt lat="43.185" lon="-1.669817">
        <time>2022-07-02T14:22:07Z</time>
      </trkpt>
      <trkpt lat="43.184902" lon="-1.669817">
        <time>2022-07-02T14:22:09Z</time>
      </trkpt>
      <trkpt lat="43.184807" lon="-1.6698242">
        <time>2022-07-02T14:22:11Z</time>
      </trkpt>
      <trkpt lat="43.184753" lon="-1.6698296">
        <time>2022-07-02T14:22:12Z</time>
      </trkpt>
      <trkpt lat="43.184704" lon="-1.6698352">
        <time>2022-07-02T14:22:13Z</time>
      </trkpt>
      <trkpt lat="43.18461" lon="-1.6698513">
        <time>2022-07-02T14:22:15Z</time>
      </trkpt>
      <trkpt lat="43.184464" lon="-1.6698866">
        <time>2022-07-02T14:22:18Z</time>
      </trkpt>
      <trkpt lat="43.184364" lon="-1.6699159">
        <time>2022-07-02T14:22:20Z</time>
      </trkpt>
      <trkpt lat="43.184315" lon="-1.6699315">
        <time>2022-07-02T14:22:21Z</time>
      </trkpt>
      <trkpt lat="43.184216" lon="-1.6699623">
        <time>2022-07-02T14:22:23Z</time>
      </trkpt>
      <trkpt lat="43.184113" lon="-1.6699905">
        <time>2022-07-02T14:22:25Z</time>
      </trkpt>
      <trkpt lat="43.18406" lon="-1.6700052">
        <time>2022-07-02T14:22:26Z</time>
      </trkpt>
      <trkpt lat="43.18401" lon="-1.6700212">
        <time>2022-07-02T14:22:27Z</time>
      </trkpt>
      <trkpt lat="43.18396" lon="-1.6700373">
        <time>2022-07-02T14:22:28Z</time>
      </trkpt>
      <trkpt lat="43.18391" lon="-1.6700509">
        <time>2022-07-02T14:22:29Z</time>
      </trkpt>
      <trkpt lat="43.18381" lon="-1.6700715">
        <time>2022-07-02T14:22:31Z</time>
      </trkpt>
      <trkpt lat="43.18376" lon="-1.6700805">
        <time>2022-07-02T14:22:32Z</time>
      </trkpt>
      <trkpt lat="43.183666" lon="-1.6701039">
        <time>2022-07-02T14:22:34Z</time>
      </trkpt>
      <trkpt lat="43.18362" lon="-1.6701175">
        <time>2022-07-02T14:22:35Z</time>
      </trkpt>
      <trkpt lat="43.18353" lon="-1.6701488">
        <time>2022-07-02T14:22:37Z</time>
      </trkpt>
      <trkpt lat="43.18345" lon="-1.6701885">
        <time>2022-07-02T14:22:39Z</time>
      </trkpt>
      <trkpt lat="43.18335" lon="-1.6702292">
        <time>2022-07-02T14:22:41Z</time>
      </trkpt>
      <trkpt lat="43.183258" lon="-1.6702628">
        <time>2022-07-02T14:22:43Z</time>
      </trkpt>
      <trkpt lat="43.183155" lon="-1.6702958">
        <time>2022-07-02T14:22:45Z</time>
      </trkpt>
      <trkpt lat="43.1831" lon="-1.6703115">
        <time>2022-07-02T14:22:46Z</time>
      </trkpt>
      <trkpt lat="43.183002" lon="-1.6703405">
        <time>2022-07-02T14:22:48Z</time>
      </trkpt>
      <trkpt lat="43.18295" lon="-1.6703535">
        <time>2022-07-02T14:22:49Z</time>
      </trkpt>
      <trkpt lat="43.1829" lon="-1.6703678">
        <time>2022-07-02T14:22:50Z</time>
      </trkpt>
      <trkpt lat="43.182846" lon="-1.6703821">
        <time>2022-07-02T14:22:51Z</time>
      </trkpt>
      <trkpt lat="43.182743" lon="-1.6704102">
        <time>2022-07-02T14:22:53Z</time>
      </trkpt>
      <trkpt lat="43.182693" lon="-1.6704235">
        <time>2022-07-02T14:22:54Z</time>
      </trkpt>
      <trkpt lat="43.182644" lon="-1.6704365">
        <time>2022-07-02T14:22:55Z</time>
      </trkpt>
      <trkpt lat="43.18259" lon="-1.6704488">
        <time>2022-07-02T14:22:56Z</time>
      </trkpt>
      <trkpt lat="43.18249" lon="-1.6704764">
        <time>2022-07-02T14:22:58Z</time>
      </trkpt>
      <trkpt lat="43.182438" lon="-1.6704898">
        <time>2022-07-02T14:22:59Z</time>
      </trkpt>
      <trkpt lat="43.18239" lon="-1.6705035">
        <time>2022-07-02T14:23:00Z</time>
      </trkpt>
      <trkpt lat="43.182285" lon="-1.6705308">
        <time>2022-07-02T14:23:02Z</time>
      </trkpt>
      <trkpt lat="43.182236" lon="-1.6705455">
        <time>2022-07-02T14:23:03Z</time>
      </trkpt>
      <trkpt lat="43.182182" lon="-1.6705618">
        <time>2022-07-02T14:23:04Z</time>
      </trkpt>
      <trkpt lat="43.182133" lon="-1.6705778">
        <time>2022-07-02T14:23:05Z</time>
      </trkpt>
      <trkpt lat="43.182026" lon="-1.6706095">
        <time>2022-07-02T14:23:07Z</time>
      </trkpt>
      <trkpt lat="43.181973" lon="-1.6706218">
        <time>2022-07-02T14:23:08Z</time>
      </trkpt>
      <trkpt lat="43.181923" lon="-1.6706338">
        <time>2022-07-02T14:23:09Z</time>
      </trkpt>
      <trkpt lat="43.18187" lon="-1.6706474">
        <time>2022-07-02T14:23:10Z</time>
      </trkpt>
      <trkpt lat="43.18182" lon="-1.6706624">
        <time>2022-07-02T14:23:11Z</time>
      </trkpt>
      <trkpt lat="43.18177" lon="-1.6706781">
        <time>2022-07-02T14:23:12Z</time>
      </trkpt>
      <trkpt lat="43.181675" lon="-1.6707062">
        <time>2022-07-02T14:23:14Z</time>
      </trkpt>
      <trkpt lat="43.18158" lon="-1.6707277">
        <time>2022-07-02T14:23:16Z</time>
      </trkpt>
      <trkpt lat="43.18149" lon="-1.6707541">
        <time>2022-07-02T14:23:18Z</time>
      </trkpt>
      <trkpt lat="43.181374" lon="-1.6707861">
        <time>2022-07-02T14:23:21Z</time>
      </trkpt>
      <trkpt lat="43.181313" lon="-1.6708101">
        <time>2022-07-02T14:23:23Z</time>
      </trkpt>
      <trkpt lat="43.181274" lon="-1.6708205">
        <time>2022-07-02T14:23:25Z</time>
      </trkpt>
      <trkpt lat="43.181164" lon="-1.6706604">
        <time>2022-07-02T14:24:33Z</time>
      </trkpt>
      <trkpt lat="43.181137" lon="-1.6705524">
        <time>2022-07-02T14:25:03Z</time>
      </trkpt>
      <trkpt lat="43.181072" lon="-1.6705358">
        <time>2022-07-02T14:25:06Z</time>
      </trkpt>
      <trkpt lat="43.181015" lon="-1.6705427">
        <time>2022-07-02T14:25:08Z</time>
      </trkpt>
      <trkpt lat="43.18095" lon="-1.6705451">
        <time>2022-07-02T14:25:10Z</time>
      </trkpt>
      <trkpt lat="43.18089" lon="-1.6705375">
        <time>2022-07-02T14:25:12Z</time>
      </trkpt>
      <trkpt lat="43.18083" lon="-1.6705211">
        <time>2022-07-02T14:25:14Z</time>
      </trkpt>
      <trkpt lat="43.18076" lon="-1.6705638">
        <time>2022-07-02T14:25:16Z</time>
      </trkpt>
      <trkpt lat="43.180687" lon="-1.6706264">
        <time>2022-07-02T14:25:18Z</time>
      </trkpt>
      <trkpt lat="43.18062" lon="-1.6706991">
        <time>2022-07-02T14:25:20Z</time>
      </trkpt>
      <trkpt lat="43.18055" lon="-1.6707717">
        <time>2022-07-02T14:25:22Z</time>
      </trkpt>
      <trkpt lat="43.180473" lon="-1.6708277">
        <time>2022-07-02T14:25:24Z</time>
      </trkpt>
      <trkpt lat="43.180397" lon="-1.6708641">
        <time>2022-07-02T14:25:26Z</time>
      </trkpt>
      <trkpt lat="43.180317" lon="-1.670876">
        <time>2022-07-02T14:25:28Z</time>
      </trkpt>
      <trkpt lat="43.180233" lon="-1.6708797">
        <time>2022-07-02T14:25:30Z</time>
      </trkpt>
      <trkpt lat="43.18015" lon="-1.6708671">
        <time>2022-07-02T14:25:32Z</time>
      </trkpt>
      <trkpt lat="43.180065" lon="-1.6708248">
        <time>2022-07-02T14:25:34Z</time>
      </trkpt>
      <trkpt lat="43.179985" lon="-1.67075">
        <time>2022-07-02T14:25:36Z</time>
      </trkpt>
      <trkpt lat="43.179913" lon="-1.6706407">
        <time>2022-07-02T14:25:38Z</time>
      </trkpt>
      <trkpt lat="43.179882" lon="-1.6705904">
        <time>2022-07-02T14:25:39Z</time>
      </trkpt>
      <trkpt lat="43.179848" lon="-1.6705434">
        <time>2022-07-02T14:25:40Z</time>
      </trkpt>
      <trkpt lat="43.179783" lon="-1.6704601">
        <time>2022-07-02T14:25:42Z</time>
      </trkpt>
      <trkpt lat="43.17973" lon="-1.6703801">
        <time>2022-07-02T14:25:44Z</time>
      </trkpt>
      <trkpt lat="43.179676" lon="-1.6702948">
        <time>2022-07-02T14:25:46Z</time>
      </trkpt>
      <trkpt lat="43.179626" lon="-1.6701988">
        <time>2022-07-02T14:25:48Z</time>
      </trkpt>
      <trkpt lat="43.17957" lon="-1.6701034">
        <time>2022-07-02T14:25:50Z</time>
      </trkpt>
      <trkpt lat="43.17951" lon="-1.6700097">
        <time>2022-07-02T14:25:52Z</time>
      </trkpt>
      <trkpt lat="43.179447" lon="-1.6699241">
        <time>2022-07-02T14:25:54Z</time>
      </trkpt>
      <trkpt lat="43.179386" lon="-1.6698297">
        <time>2022-07-02T14:25:56Z</time>
      </trkpt>
      <trkpt lat="43.17933" lon="-1.6697508">
        <time>2022-07-02T14:25:58Z</time>
      </trkpt>
      <trkpt lat="43.179276" lon="-1.6696744">
        <time>2022-07-02T14:26:00Z</time>
      </trkpt>
      <trkpt lat="43.17922" lon="-1.6695985">
        <time>2022-07-02T14:26:02Z</time>
      </trkpt>
      <trkpt lat="43.179165" lon="-1.6695205">
        <time>2022-07-02T14:26:04Z</time>
      </trkpt>
      <trkpt lat="43.179108" lon="-1.6694411">
        <time>2022-07-02T14:26:06Z</time>
      </trkpt>
      <trkpt lat="43.179047" lon="-1.6693628">
        <time>2022-07-02T14:26:08Z</time>
      </trkpt>
      <trkpt lat="43.17899" lon="-1.6692818">
        <time>2022-07-02T14:26:10Z</time>
      </trkpt>
      <trkpt lat="43.178936" lon="-1.6692032">
        <time>2022-07-02T14:26:12Z</time>
      </trkpt>
      <trkpt lat="43.178875" lon="-1.6691248">
        <time>2022-07-02T14:26:14Z</time>
      </trkpt>
      <trkpt lat="43.178814" lon="-1.6690471">
        <time>2022-07-02T14:26:16Z</time>
      </trkpt>
      <trkpt lat="43.178757" lon="-1.6689678">
        <time>2022-07-02T14:26:18Z</time>
      </trkpt>
      <trkpt lat="43.178696" lon="-1.6688881">
        <time>2022-07-02T14:26:20Z</time>
      </trkpt>
      <trkpt lat="43.17864" lon="-1.6688131">
        <time>2022-07-02T14:26:22Z</time>
      </trkpt>
      <trkpt lat="43.178577" lon="-1.6687418">
        <time>2022-07-02T14:26:24Z</time>
      </trkpt>
      <trkpt lat="43.178524" lon="-1.6686635">
        <time>2022-07-02T14:26:26Z</time>
      </trkpt>
      <trkpt lat="43.17847" lon="-1.6685874">
        <time>2022-07-02T14:26:28Z</time>
      </trkpt>
      <trkpt lat="43.178413" lon="-1.6685082">
        <time>2022-07-02T14:26:30Z</time>
      </trkpt>
      <trkpt lat="43.17836" lon="-1.6684345">
        <time>2022-07-02T14:26:32Z</time>
      </trkpt>
      <trkpt lat="43.178307" lon="-1.6683635">
        <time>2022-07-02T14:26:34Z</time>
      </trkpt>
      <trkpt lat="43.178253" lon="-1.6682898">
        <time>2022-07-02T14:26:36Z</time>
      </trkpt>
      <trkpt lat="43.178204" lon="-1.6682235">
        <time>2022-07-02T14:26:38Z</time>
      </trkpt>
      <trkpt lat="43.178158" lon="-1.6681589">
        <time>2022-07-02T14:26:40Z</time>
      </trkpt>
      <trkpt lat="43.17811" lon="-1.6680925">
        <time>2022-07-02T14:26:42Z</time>
      </trkpt>
      <trkpt lat="43.17806" lon="-1.6680259">
        <time>2022-07-02T14:26:44Z</time>
      </trkpt>
      <trkpt lat="43.17801" lon="-1.6679565">
        <time>2022-07-02T14:26:46Z</time>
      </trkpt>
      <trkpt lat="43.177956" lon="-1.6678869">
        <time>2022-07-02T14:26:48Z</time>
      </trkpt>
      <trkpt lat="43.177906" lon="-1.6678199">
        <time>2022-07-02T14:26:50Z</time>
      </trkpt>
      <trkpt lat="43.17786" lon="-1.6677536">
        <time>2022-07-02T14:26:52Z</time>
      </trkpt>
      <trkpt lat="43.17781" lon="-1.6676896">
        <time>2022-07-02T14:26:54Z</time>
      </trkpt>
      <trkpt lat="43.17776" lon="-1.6676242">
        <time>2022-07-02T14:26:56Z</time>
      </trkpt>
      <trkpt lat="43.17771" lon="-1.6675675">
        <time>2022-07-02T14:26:58Z</time>
      </trkpt>
      <trkpt lat="43.177666" lon="-1.6675133">
        <time>2022-07-02T14:27:00Z</time>
      </trkpt>
      <trkpt lat="43.177612" lon="-1.6674622">
        <time>2022-07-02T14:27:02Z</time>
      </trkpt>
      <trkpt lat="43.177563" lon="-1.6674186">
        <time>2022-07-02T14:27:04Z</time>
      </trkpt>
      <trkpt lat="43.177505" lon="-1.6673765">
        <time>2022-07-02T14:27:06Z</time>
      </trkpt>
      <trkpt lat="43.17745" lon="-1.6673372">
        <time>2022-07-02T14:27:08Z</time>
      </trkpt>
      <trkpt lat="43.177387" lon="-1.6673049">
        <time>2022-07-02T14:27:10Z</time>
      </trkpt>
      <trkpt lat="43.177322" lon="-1.6672776">
        <time>2022-07-02T14:27:12Z</time>
      </trkpt>
      <trkpt lat="43.17726" lon="-1.6672566">
        <time>2022-07-02T14:27:14Z</time>
      </trkpt>
      <trkpt lat="43.177193" lon="-1.6672419">
        <time>2022-07-02T14:27:16Z</time>
      </trkpt>
      <trkpt lat="43.17712" lon="-1.6672312">
        <time>2022-07-02T14:27:18Z</time>
      </trkpt>
      <trkpt lat="43.177048" lon="-1.6672289">
        <time>2022-07-02T14:27:20Z</time>
      </trkpt>
      <trkpt lat="43.17697" lon="-1.6672336">
        <time>2022-07-02T14:27:22Z</time>
      </trkpt>
      <trkpt lat="43.1769" lon="-1.6672503">
        <time>2022-07-02T14:27:24Z</time>
      </trkpt>
      <trkpt lat="43.176826" lon="-1.6672746">
        <time>2022-07-02T14:27:26Z</time>
      </trkpt>
      <trkpt lat="43.176758" lon="-1.6673028">
        <time>2022-07-02T14:27:28Z</time>
      </trkpt>
      <trkpt lat="43.17669" lon="-1.6673346">
        <time>2022-07-02T14:27:30Z</time>
      </trkpt>
      <trkpt lat="43.17662" lon="-1.6673739">
        <time>2022-07-02T14:27:32Z</time>
      </trkpt>
      <trkpt lat="43.17656" lon="-1.6674142">
        <time>2022-07-02T14:27:34Z</time>
      </trkpt>
      <trkpt lat="43.176495" lon="-1.6674556">
        <time>2022-07-02T14:27:36Z</time>
      </trkpt>
      <trkpt lat="43.17643" lon="-1.6675019">
        <time>2022-07-02T14:27:38Z</time>
      </trkpt>
      <trkpt lat="43.17637" lon="-1.6675545">
        <time>2022-07-02T14:27:40Z</time>
      </trkpt>
      <trkpt lat="43.17632" lon="-1.6676148">
        <time>2022-07-02T14:27:42Z</time>
      </trkpt>
      <trkpt lat="43.17627" lon="-1.6676835">
        <time>2022-07-02T14:27:44Z</time>
      </trkpt>
      <trkpt lat="43.176224" lon="-1.6677486">
        <time>2022-07-02T14:27:46Z</time>
      </trkpt>
      <trkpt lat="43.17618" lon="-1.6678185">
        <time>2022-07-02T14:27:48Z</time>
      </trkpt>
      <trkpt lat="43.176144" lon="-1.6678939">
        <time>2022-07-02T14:27:50Z</time>
      </trkpt>
      <trkpt lat="43.176113" lon="-1.6679665">
        <time>2022-07-02T14:27:52Z</time>
      </trkpt>
      <trkpt lat="43.176083" lon="-1.6680398">
        <time>2022-07-02T14:27:54Z</time>
      </trkpt>
      <trkpt lat="43.17605" lon="-1.6681201">
        <time>2022-07-02T14:27:56Z</time>
      </trkpt>
      <trkpt lat="43.176025" lon="-1.6682088">
        <time>2022-07-02T14:27:58Z</time>
      </trkpt>
      <trkpt lat="43.17599" lon="-1.6682979">
        <time>2022-07-02T14:28:00Z</time>
      </trkpt>
      <trkpt lat="43.17596" lon="-1.6683912">
        <time>2022-07-02T14:28:02Z</time>
      </trkpt>
      <trkpt lat="43.17594" lon="-1.6684902">
        <time>2022-07-02T14:28:04Z</time>
      </trkpt>
      <trkpt lat="43.175926" lon="-1.6685952">
        <time>2022-07-02T14:28:06Z</time>
      </trkpt>
      <trkpt lat="43.17592" lon="-1.6687062">
        <time>2022-07-02T14:28:08Z</time>
      </trkpt>
      <trkpt lat="43.175922" lon="-1.6688255">
        <time>2022-07-02T14:28:10Z</time>
      </trkpt>
      <trkpt lat="43.175934" lon="-1.6689482">
        <time>2022-07-02T14:28:12Z</time>
      </trkpt>
      <trkpt lat="43.175953" lon="-1.6690714">
        <time>2022-07-02T14:28:14Z</time>
      </trkpt>
      <trkpt lat="43.175976" lon="-1.6691972">
        <time>2022-07-02T14:28:16Z</time>
      </trkpt>
      <trkpt lat="43.175983" lon="-1.6692578">
        <time>2022-07-02T14:28:17Z</time>
      </trkpt>
      <trkpt lat="43.17601" lon="-1.6693925">
        <time>2022-07-02T14:28:19Z</time>
      </trkpt>
      <trkpt lat="43.17602" lon="-1.6694591">
        <time>2022-07-02T14:28:20Z</time>
      </trkpt>
      <trkpt lat="43.176037" lon="-1.6695238">
        <time>2022-07-02T14:28:21Z</time>
      </trkpt>
      <trkpt lat="43.17606" lon="-1.6696521">
        <time>2022-07-02T14:28:23Z</time>
      </trkpt>
      <trkpt lat="43.17607" lon="-1.6697165">
        <time>2022-07-02T14:28:24Z</time>
      </trkpt>
      <trkpt lat="43.176094" lon="-1.6698477">
        <time>2022-07-02T14:28:26Z</time>
      </trkpt>
      <trkpt lat="43.176117" lon="-1.6699748">
        <time>2022-07-02T14:28:28Z</time>
      </trkpt>
      <trkpt lat="43.176136" lon="-1.6701028">
        <time>2022-07-02T14:28:30Z</time>
      </trkpt>
      <trkpt lat="43.176155" lon="-1.6702235">
        <time>2022-07-02T14:28:32Z</time>
      </trkpt>
      <trkpt lat="43.176163" lon="-1.6702855">
        <time>2022-07-02T14:28:33Z</time>
      </trkpt>
      <trkpt lat="43.176186" lon="-1.6704211">
        <time>2022-07-02T14:28:35Z</time>
      </trkpt>
      <trkpt lat="43.176197" lon="-1.6704881">
        <time>2022-07-02T14:28:36Z</time>
      </trkpt>
      <trkpt lat="43.17621" lon="-1.6705538">
        <time>2022-07-02T14:28:37Z</time>
      </trkpt>
      <trkpt lat="43.176224" lon="-1.6706834">
        <time>2022-07-02T14:28:39Z</time>
      </trkpt>
      <trkpt lat="43.17623" lon="-1.6707491">
        <time>2022-07-02T14:28:40Z</time>
      </trkpt>
      <trkpt lat="43.176243" lon="-1.6708688">
        <time>2022-07-02T14:28:42Z</time>
      </trkpt>
      <trkpt lat="43.17625" lon="-1.6709951">
        <time>2022-07-02T14:28:44Z</time>
      </trkpt>
      <trkpt lat="43.176258" lon="-1.6711254">
        <time>2022-07-02T14:28:46Z</time>
      </trkpt>
      <trkpt lat="43.176266" lon="-1.6712557">
        <time>2022-07-02T14:28:48Z</time>
      </trkpt>
      <trkpt lat="43.176266" lon="-1.671321">
        <time>2022-07-02T14:28:49Z</time>
      </trkpt>
      <trkpt lat="43.176273" lon="-1.6714487">
        <time>2022-07-02T14:28:51Z</time>
      </trkpt>
      <trkpt lat="43.176285" lon="-1.671578">
        <time>2022-07-02T14:28:53Z</time>
      </trkpt>
      <trkpt lat="43.176296" lon="-1.671712">
        <time>2022-07-02T14:28:55Z</time>
      </trkpt>
      <trkpt lat="43.176304" lon="-1.6717814">
        <time>2022-07-02T14:28:56Z</time>
      </trkpt>
      <trkpt lat="43.17631" lon="-1.6718531">
        <time>2022-07-02T14:28:57Z</time>
      </trkpt>
      <trkpt lat="43.17633" lon="-1.671996">
        <time>2022-07-02T14:28:59Z</time>
      </trkpt>
      <trkpt lat="43.17634" lon="-1.672068">
        <time>2022-07-02T14:29:00Z</time>
      </trkpt>
      <trkpt lat="43.176342" lon="-1.6721404">
        <time>2022-07-02T14:29:01Z</time>
      </trkpt>
      <trkpt lat="43.176346" lon="-1.6722114">
        <time>2022-07-02T14:29:02Z</time>
      </trkpt>
      <trkpt lat="43.17635" lon="-1.6722777">
        <time>2022-07-02T14:29:03Z</time>
      </trkpt>
      <trkpt lat="43.176357" lon="-1.6724024">
        <time>2022-07-02T14:29:05Z</time>
      </trkpt>
      <trkpt lat="43.17636" lon="-1.6724634">
        <time>2022-07-02T14:29:06Z</time>
      </trkpt>
      <trkpt lat="43.176365" lon="-1.672588">
        <time>2022-07-02T14:29:08Z</time>
      </trkpt>
      <trkpt lat="43.176365" lon="-1.672652">
        <time>2022-07-02T14:29:09Z</time>
      </trkpt>
      <trkpt lat="43.176365" lon="-1.6727806">
        <time>2022-07-02T14:29:11Z</time>
      </trkpt>
      <trkpt lat="43.176365" lon="-1.6729066">
        <time>2022-07-02T14:29:13Z</time>
      </trkpt>
      <trkpt lat="43.176365" lon="-1.6729697">
        <time>2022-07-02T14:29:14Z</time>
      </trkpt>
      <trkpt lat="43.17636" lon="-1.6730967">
        <time>2022-07-02T14:29:16Z</time>
      </trkpt>
      <trkpt lat="43.17636" lon="-1.673224">
        <time>2022-07-02T14:29:18Z</time>
      </trkpt>
      <trkpt lat="43.176353" lon="-1.673353">
        <time>2022-07-02T14:29:20Z</time>
      </trkpt>
      <trkpt lat="43.17634" lon="-1.6734823">
        <time>2022-07-02T14:29:22Z</time>
      </trkpt>
      <trkpt lat="43.176334" lon="-1.6735454">
        <time>2022-07-02T14:29:23Z</time>
      </trkpt>
      <trkpt lat="43.17632" lon="-1.673674">
        <time>2022-07-02T14:29:25Z</time>
      </trkpt>
      <trkpt lat="43.1763" lon="-1.673801">
        <time>2022-07-02T14:29:27Z</time>
      </trkpt>
      <trkpt lat="43.17629" lon="-1.6739256">
        <time>2022-07-02T14:29:29Z</time>
      </trkpt>
      <trkpt lat="43.176273" lon="-1.6740494">
        <time>2022-07-02T14:29:31Z</time>
      </trkpt>
      <trkpt lat="43.176266" lon="-1.6741596">
        <time>2022-07-02T14:29:33Z</time>
      </trkpt>
      <trkpt lat="43.176254" lon="-1.6742756">
        <time>2022-07-02T14:29:35Z</time>
      </trkpt>
      <trkpt lat="43.176243" lon="-1.6743836">
        <time>2022-07-02T14:29:37Z</time>
      </trkpt>
      <trkpt lat="43.17623" lon="-1.6744967">
        <time>2022-07-02T14:29:39Z</time>
      </trkpt>
      <trkpt lat="43.17622" lon="-1.674602">
        <time>2022-07-02T14:29:41Z</time>
      </trkpt>
      <trkpt lat="43.17621" lon="-1.6747103">
        <time>2022-07-02T14:29:43Z</time>
      </trkpt>
      <trkpt lat="43.176197" lon="-1.6748203">
        <time>2022-07-02T14:29:45Z</time>
      </trkpt>
      <trkpt lat="43.17618" lon="-1.6749309">
        <time>2022-07-02T14:29:47Z</time>
      </trkpt>
      <trkpt lat="43.176167" lon="-1.67504">
        <time>2022-07-02T14:29:49Z</time>
      </trkpt>
      <trkpt lat="43.176147" lon="-1.675151">
        <time>2022-07-02T14:29:51Z</time>
      </trkpt>
      <trkpt lat="43.176125" lon="-1.6752594">
        <time>2022-07-02T14:29:53Z</time>
      </trkpt>
      <trkpt lat="43.1761" lon="-1.6753613">
        <time>2022-07-02T14:29:55Z</time>
      </trkpt>
      <trkpt lat="43.17607" lon="-1.6754626">
        <time>2022-07-02T14:29:57Z</time>
      </trkpt>
      <trkpt lat="43.176044" lon="-1.6755617">
        <time>2022-07-02T14:29:59Z</time>
      </trkpt>
      <trkpt lat="43.176006" lon="-1.6756526">
        <time>2022-07-02T14:30:01Z</time>
      </trkpt>
      <trkpt lat="43.175964" lon="-1.6757406">
        <time>2022-07-02T14:30:03Z</time>
      </trkpt>
      <trkpt lat="43.175915" lon="-1.6758213">
        <time>2022-07-02T14:30:05Z</time>
      </trkpt>
      <trkpt lat="43.175854" lon="-1.6758989">
        <time>2022-07-02T14:30:07Z</time>
      </trkpt>
      <trkpt lat="43.17579" lon="-1.6759822">
        <time>2022-07-02T14:30:09Z</time>
      </trkpt>
      <trkpt lat="43.175728" lon="-1.6760666">
        <time>2022-07-02T14:30:11Z</time>
      </trkpt>
      <trkpt lat="43.175663" lon="-1.6761466">
        <time>2022-07-02T14:30:13Z</time>
      </trkpt>
      <trkpt lat="43.175606" lon="-1.6762313">
        <time>2022-07-02T14:30:15Z</time>
      </trkpt>
      <trkpt lat="43.17555" lon="-1.676317">
        <time>2022-07-02T14:30:17Z</time>
      </trkpt>
      <trkpt lat="43.175495" lon="-1.6764">
        <time>2022-07-02T14:30:19Z</time>
      </trkpt>
      <trkpt lat="43.17544" lon="-1.6764703">
        <time>2022-07-02T14:30:21Z</time>
      </trkpt>
      <trkpt lat="43.175396" lon="-1.6765239">
        <time>2022-07-02T14:30:23Z</time>
      </trkpt>
      <trkpt lat="43.17535" lon="-1.6765809">
        <time>2022-07-02T14:30:25Z</time>
      </trkpt>
      <trkpt lat="43.17531" lon="-1.6766396">
        <time>2022-07-02T14:30:27Z</time>
      </trkpt>
      <trkpt lat="43.17526" lon="-1.6767069">
        <time>2022-07-02T14:30:29Z</time>
      </trkpt>
      <trkpt lat="43.1752" lon="-1.6767776">
        <time>2022-07-02T14:30:31Z</time>
      </trkpt>
      <trkpt lat="43.175144" lon="-1.6768593">
        <time>2022-07-02T14:30:33Z</time>
      </trkpt>
      <trkpt lat="43.17508" lon="-1.6769372">
        <time>2022-07-02T14:30:35Z</time>
      </trkpt>
      <trkpt lat="43.17502" lon="-1.6770005">
        <time>2022-07-02T14:30:37Z</time>
      </trkpt>
      <trkpt lat="43.17495" lon="-1.6770602">
        <time>2022-07-02T14:30:39Z</time>
      </trkpt>
      <trkpt lat="43.174885" lon="-1.6771178">
        <time>2022-07-02T14:30:41Z</time>
      </trkpt>
      <trkpt lat="43.174816" lon="-1.6771718">
        <time>2022-07-02T14:30:43Z</time>
      </trkpt>
      <trkpt lat="43.174747" lon="-1.6772239">
        <time>2022-07-02T14:30:45Z</time>
      </trkpt>
      <trkpt lat="43.174683" lon="-1.6772732">
        <time>2022-07-02T14:30:47Z</time>
      </trkpt>
      <trkpt lat="43.174614" lon="-1.6773139">
        <time>2022-07-02T14:30:49Z</time>
      </trkpt>
      <trkpt lat="43.174538" lon="-1.6773438">
        <time>2022-07-02T14:30:51Z</time>
      </trkpt>
      <trkpt lat="43.174465" lon="-1.6773689">
        <time>2022-07-02T14:30:53Z</time>
      </trkpt>
      <trkpt lat="43.174393" lon="-1.6773885">
        <time>2022-07-02T14:30:55Z</time>
      </trkpt>
      <trkpt lat="43.174316" lon="-1.6774019">
        <time>2022-07-02T14:30:57Z</time>
      </trkpt>
      <trkpt lat="43.17424" lon="-1.6774142">
        <time>2022-07-02T14:30:59Z</time>
      </trkpt>
      <trkpt lat="43.17416" lon="-1.6774216">
        <time>2022-07-02T14:31:01Z</time>
      </trkpt>
      <trkpt lat="43.17408" lon="-1.6774199">
        <time>2022-07-02T14:31:03Z</time>
      </trkpt>
      <trkpt lat="43.174" lon="-1.6774158">
        <time>2022-07-02T14:31:05Z</time>
      </trkpt>
      <trkpt lat="43.173927" lon="-1.6774199">
        <time>2022-07-02T14:31:07Z</time>
      </trkpt>
      <trkpt lat="43.173855" lon="-1.6774225">
        <time>2022-07-02T14:31:09Z</time>
      </trkpt>
      <trkpt lat="43.17378" lon="-1.6774272">
        <time>2022-07-02T14:31:11Z</time>
      </trkpt>
      <trkpt lat="43.173702" lon="-1.6774322">
        <time>2022-07-02T14:31:13Z</time>
      </trkpt>
      <trkpt lat="43.173626" lon="-1.6774355">
        <time>2022-07-02T14:31:15Z</time>
      </trkpt>
      <trkpt lat="43.173546" lon="-1.6774338">
        <time>2022-07-02T14:31:17Z</time>
      </trkpt>
      <trkpt lat="43.173473" lon="-1.6774212">
        <time>2022-07-02T14:31:19Z</time>
      </trkpt>
      <trkpt lat="43.173405" lon="-1.6774079">
        <time>2022-07-02T14:31:21Z</time>
      </trkpt>
      <trkpt lat="43.173332" lon="-1.6773939">
        <time>2022-07-02T14:31:23Z</time>
      </trkpt>
      <trkpt lat="43.173267" lon="-1.6773765">
        <time>2022-07-02T14:31:25Z</time>
      </trkpt>
      <trkpt lat="43.173203" lon="-1.6773546">
        <time>2022-07-02T14:31:27Z</time>
      </trkpt>
      <trkpt lat="43.173134" lon="-1.6773332">
        <time>2022-07-02T14:31:29Z</time>
      </trkpt>
      <trkpt lat="43.173058" lon="-1.6773075">
        <time>2022-07-02T14:31:31Z</time>
      </trkpt>
      <trkpt lat="43.17298" lon="-1.6772785">
        <time>2022-07-02T14:31:33Z</time>
      </trkpt>
      <trkpt lat="43.172905" lon="-1.6772509">
        <time>2022-07-02T14:31:35Z</time>
      </trkpt>
      <trkpt lat="43.17283" lon="-1.6772223">
        <time>2022-07-02T14:31:37Z</time>
      </trkpt>
      <trkpt lat="43.172752" lon="-1.6771932">
        <time>2022-07-02T14:31:39Z</time>
      </trkpt>
      <trkpt lat="43.172634" lon="-1.6771495">
        <time>2022-07-02T14:31:42Z</time>
      </trkpt>
      <trkpt lat="43.17251" lon="-1.6771066">
        <time>2022-07-02T14:31:45Z</time>
      </trkpt>
      <trkpt lat="43.17242" lon="-1.6770736">
        <time>2022-07-02T14:31:47Z</time>
      </trkpt>
      <trkpt lat="43.172333" lon="-1.6770386">
        <time>2022-07-02T14:31:49Z</time>
      </trkpt>
      <trkpt lat="43.172245" lon="-1.6770066">
        <time>2022-07-02T14:31:51Z</time>
      </trkpt>
      <trkpt lat="43.172157" lon="-1.6769736">
        <time>2022-07-02T14:31:53Z</time>
      </trkpt>
      <trkpt lat="43.172066" lon="-1.6769426">
        <time>2022-07-02T14:31:55Z</time>
      </trkpt>
      <trkpt lat="43.17198" lon="-1.6769133">
        <time>2022-07-02T14:31:57Z</time>
      </trkpt>
      <trkpt lat="43.171894" lon="-1.6768812">
        <time>2022-07-02T14:31:59Z</time>
      </trkpt>
      <trkpt lat="43.171852" lon="-1.6768646">
        <time>2022-07-02T14:32:00Z</time>
      </trkpt>
      <trkpt lat="43.171764" lon="-1.6768305">
        <time>2022-07-02T14:32:02Z</time>
      </trkpt>
      <trkpt lat="43.171715" lon="-1.676814">
        <time>2022-07-02T14:32:03Z</time>
      </trkpt>
      <trkpt lat="43.171623" lon="-1.6767809">
        <time>2022-07-02T14:32:05Z</time>
      </trkpt>
      <trkpt lat="43.17158" lon="-1.6767646">
        <time>2022-07-02T14:32:06Z</time>
      </trkpt>
      <trkpt lat="43.17149" lon="-1.6767325">
        <time>2022-07-02T14:32:08Z</time>
      </trkpt>
      <trkpt lat="43.171402" lon="-1.6766993">
        <time>2022-07-02T14:32:10Z</time>
      </trkpt>
      <trkpt lat="43.171318" lon="-1.6766686">
        <time>2022-07-02T14:32:12Z</time>
      </trkpt>
      <trkpt lat="43.171234" lon="-1.6766416">
        <time>2022-07-02T14:32:14Z</time>
      </trkpt>
      <trkpt lat="43.171146" lon="-1.676613">
        <time>2022-07-02T14:32:16Z</time>
      </trkpt>
      <trkpt lat="43.17106" lon="-1.6765826">
        <time>2022-07-02T14:32:18Z</time>
      </trkpt>
      <trkpt lat="43.170967" lon="-1.6765486">
        <time>2022-07-02T14:32:20Z</time>
      </trkpt>
      <trkpt lat="43.170876" lon="-1.6765143">
        <time>2022-07-02T14:32:22Z</time>
      </trkpt>
      <trkpt lat="43.170788" lon="-1.676482">
        <time>2022-07-02T14:32:24Z</time>
      </trkpt>
      <trkpt lat="43.170742" lon="-1.676466">
        <time>2022-07-02T14:32:25Z</time>
      </trkpt>
      <trkpt lat="43.170654" lon="-1.6764346">
        <time>2022-07-02T14:32:27Z</time>
      </trkpt>
      <trkpt lat="43.17057" lon="-1.6764033">
        <time>2022-07-02T14:32:29Z</time>
      </trkpt>
      <trkpt lat="43.170483" lon="-1.6763756">
        <time>2022-07-02T14:32:31Z</time>
      </trkpt>
      <trkpt lat="43.1704" lon="-1.6763483">
        <time>2022-07-02T14:32:33Z</time>
      </trkpt>
      <trkpt lat="43.170307" lon="-1.6763237">
        <time>2022-07-02T14:32:35Z</time>
      </trkpt>
      <trkpt lat="43.17022" lon="-1.676306">
        <time>2022-07-02T14:32:37Z</time>
      </trkpt>
      <trkpt lat="43.170128" lon="-1.676297">
        <time>2022-07-02T14:32:39Z</time>
      </trkpt>
      <trkpt lat="43.17008" lon="-1.676297">
        <time>2022-07-02T14:32:40Z</time>
      </trkpt>
      <trkpt lat="43.169987" lon="-1.6763043">
        <time>2022-07-02T14:32:42Z</time>
      </trkpt>
      <trkpt lat="43.169853" lon="-1.6763229">
        <time>2022-07-02T14:32:45Z</time>
      </trkpt>
      <trkpt lat="43.169773" lon="-1.6763443">
        <time>2022-07-02T14:32:47Z</time>
      </trkpt>
      <trkpt lat="43.169693" lon="-1.676371">
        <time>2022-07-02T14:32:49Z</time>
      </trkpt>
      <trkpt lat="43.16962" lon="-1.6763979">
        <time>2022-07-02T14:32:51Z</time>
      </trkpt>
      <trkpt lat="43.169548" lon="-1.6764246">
        <time>2022-07-02T14:32:53Z</time>
      </trkpt>
      <trkpt lat="43.169476" lon="-1.6764456">
        <time>2022-07-02T14:32:55Z</time>
      </trkpt>
      <trkpt lat="43.169403" lon="-1.6764693">
        <time>2022-07-02T14:32:57Z</time>
      </trkpt>
      <trkpt lat="43.169334" lon="-1.6764956">
        <time>2022-07-02T14:32:59Z</time>
      </trkpt>
      <trkpt lat="43.16927" lon="-1.6765219">
        <time>2022-07-02T14:33:01Z</time>
      </trkpt>
      <trkpt lat="43.169205" lon="-1.6765512">
        <time>2022-07-02T14:33:03Z</time>
      </trkpt>
      <trkpt lat="43.169136" lon="-1.6765829">
        <time>2022-07-02T14:33:05Z</time>
      </trkpt>
      <trkpt lat="43.16906" lon="-1.6766115">
        <time>2022-07-02T14:33:07Z</time>
      </trkpt>
      <trkpt lat="43.16898" lon="-1.676644">
        <time>2022-07-02T14:33:09Z</time>
      </trkpt>
      <trkpt lat="43.1689" lon="-1.6766702">
        <time>2022-07-02T14:33:11Z</time>
      </trkpt>
      <trkpt lat="43.168823" lon="-1.6766872">
        <time>2022-07-02T14:33:13Z</time>
      </trkpt>
      <trkpt lat="43.16874" lon="-1.6766928">
        <time>2022-07-02T14:33:15Z</time>
      </trkpt>
      <trkpt lat="43.168655" lon="-1.6766806">
        <time>2022-07-02T14:33:17Z</time>
      </trkpt>
      <trkpt lat="43.168568" lon="-1.67666">
        <time>2022-07-02T14:33:19Z</time>
      </trkpt>
      <trkpt lat="43.16848" lon="-1.6766342">
        <time>2022-07-02T14:33:21Z</time>
      </trkpt>
      <trkpt lat="43.16839" lon="-1.6766049">
        <time>2022-07-02T14:33:23Z</time>
      </trkpt>
      <trkpt lat="43.16831" lon="-1.6765673">
        <time>2022-07-02T14:33:25Z</time>
      </trkpt>
      <trkpt lat="43.16823" lon="-1.6765265">
        <time>2022-07-02T14:33:27Z</time>
      </trkpt>
      <trkpt lat="43.16815" lon="-1.6764783">
        <time>2022-07-02T14:33:29Z</time>
      </trkpt>
      <trkpt lat="43.168076" lon="-1.6764226">
        <time>2022-07-02T14:33:31Z</time>
      </trkpt>
      <trkpt lat="43.168003" lon="-1.6763552">
        <time>2022-07-02T14:33:33Z</time>
      </trkpt>
      <trkpt lat="43.167942" lon="-1.6762886">
        <time>2022-07-02T14:33:35Z</time>
      </trkpt>
      <trkpt lat="43.167885" lon="-1.6762216">
        <time>2022-07-02T14:33:37Z</time>
      </trkpt>
      <trkpt lat="43.16783" lon="-1.6761503">
        <time>2022-07-02T14:33:39Z</time>
      </trkpt>
      <trkpt lat="43.16778" lon="-1.6760783">
        <time>2022-07-02T14:33:41Z</time>
      </trkpt>
      <trkpt lat="43.167736" lon="-1.6760069">
        <time>2022-07-02T14:33:43Z</time>
      </trkpt>
      <trkpt lat="43.16769" lon="-1.675934">
        <time>2022-07-02T14:33:45Z</time>
      </trkpt>
      <trkpt lat="43.16762" lon="-1.6758026">
        <time>2022-07-02T14:33:48Z</time>
      </trkpt>
      <trkpt lat="43.167576" lon="-1.6757109">
        <time>2022-07-02T14:33:50Z</time>
      </trkpt>
      <trkpt lat="43.16753" lon="-1.6756263">
        <time>2022-07-02T14:33:52Z</time>
      </trkpt>
      <trkpt lat="43.16749" lon="-1.675544">
        <time>2022-07-02T14:33:54Z</time>
      </trkpt>
      <trkpt lat="43.16745" lon="-1.6754633">
        <time>2022-07-02T14:33:56Z</time>
      </trkpt>
      <trkpt lat="43.16741" lon="-1.6753803">
        <time>2022-07-02T14:33:58Z</time>
      </trkpt>
      <trkpt lat="43.167377" lon="-1.6753004">
        <time>2022-07-02T14:34:00Z</time>
      </trkpt>
      <trkpt lat="43.16734" lon="-1.675222">
        <time>2022-07-02T14:34:02Z</time>
      </trkpt>
      <trkpt lat="43.167305" lon="-1.675139">
        <time>2022-07-02T14:34:04Z</time>
      </trkpt>
      <trkpt lat="43.167255" lon="-1.6750213">
        <time>2022-07-02T14:34:07Z</time>
      </trkpt>
      <trkpt lat="43.16722" lon="-1.674945">
        <time>2022-07-02T14:34:09Z</time>
      </trkpt>
      <trkpt lat="43.16719" lon="-1.674869">
        <time>2022-07-02T14:34:11Z</time>
      </trkpt>
      <trkpt lat="43.16716" lon="-1.6747967">
        <time>2022-07-02T14:34:13Z</time>
      </trkpt>
      <trkpt lat="43.16712" lon="-1.6747234">
        <time>2022-07-02T14:34:15Z</time>
      </trkpt>
      <trkpt lat="43.167084" lon="-1.674646">
        <time>2022-07-02T14:34:17Z</time>
      </trkpt>
      <trkpt lat="43.167053" lon="-1.674565">
        <time>2022-07-02T14:34:19Z</time>
      </trkpt>
      <trkpt lat="43.16702" lon="-1.6744794">
        <time>2022-07-02T14:34:21Z</time>
      </trkpt>
      <trkpt lat="43.166985" lon="-1.6743957">
        <time>2022-07-02T14:34:23Z</time>
      </trkpt>
      <trkpt lat="43.166958" lon="-1.674312">
        <time>2022-07-02T14:34:25Z</time>
      </trkpt>
      <trkpt lat="43.166924" lon="-1.6742283">
        <time>2022-07-02T14:34:27Z</time>
      </trkpt>
      <trkpt lat="43.166893" lon="-1.674144">
        <time>2022-07-02T14:34:29Z</time>
      </trkpt>
      <trkpt lat="43.16686" lon="-1.674057">
        <time>2022-07-02T14:34:31Z</time>
      </trkpt>
      <trkpt lat="43.166824" lon="-1.673967">
        <time>2022-07-02T14:34:33Z</time>
      </trkpt>
      <trkpt lat="43.166786" lon="-1.6738768">
        <time>2022-07-02T14:34:35Z</time>
      </trkpt>
      <trkpt lat="43.166748" lon="-1.673791">
        <time>2022-07-02T14:34:37Z</time>
      </trkpt>
      <trkpt lat="43.166714" lon="-1.673712">
        <time>2022-07-02T14:34:39Z</time>
      </trkpt>
      <trkpt lat="43.16668" lon="-1.6736314">
        <time>2022-07-02T14:34:41Z</time>
      </trkpt>
      <trkpt lat="43.16664" lon="-1.67355">
        <time>2022-07-02T14:34:43Z</time>
      </trkpt>
      <trkpt lat="43.1666" lon="-1.6734791">
        <time>2022-07-02T14:34:45Z</time>
      </trkpt>
      <trkpt lat="43.166557" lon="-1.6734108">
        <time>2022-07-02T14:34:47Z</time>
      </trkpt>
      <trkpt lat="43.166523" lon="-1.673346">
        <time>2022-07-02T14:34:49Z</time>
      </trkpt>
      <trkpt lat="43.16649" lon="-1.6732787">
        <time>2022-07-02T14:34:52Z</time>
      </trkpt>
      <trkpt lat="43.16654" lon="-1.6733171">
        <time>2022-07-02T14:35:35Z</time>
      </trkpt>
      <trkpt lat="43.166588" lon="-1.673346">
        <time>2022-07-02T14:35:38Z</time>
      </trkpt>
      <trkpt lat="43.16665" lon="-1.6733611">
        <time>2022-07-02T14:35:41Z</time>
      </trkpt>
      <trkpt lat="43.16671" lon="-1.6733757">
        <time>2022-07-02T14:35:44Z</time>
      </trkpt>
      <trkpt lat="43.166756" lon="-1.673382">
        <time>2022-07-02T14:35:47Z</time>
      </trkpt>
      <trkpt lat="43.166733" lon="-1.673359">
        <time>2022-07-02T14:36:55Z</time>
      </trkpt>
      <trkpt lat="43.16675" lon="-1.6734027">
        <time>2022-07-02T14:37:26Z</time>
      </trkpt>
      <trkpt lat="43.16673" lon="-1.6733574">
        <time>2022-07-02T14:37:44Z</time>
      </trkpt>
      <trkpt lat="43.166668" lon="-1.6733598">
        <time>2022-07-02T14:37:49Z</time>
      </trkpt>
      <trkpt lat="43.166626" lon="-1.6733937">
        <time>2022-07-02T14:37:55Z</time>
      </trkpt>
      <trkpt lat="43.16669" lon="-1.673418">
        <time>2022-07-02T14:39:35Z</time>
      </trkpt>
      <trkpt lat="43.166756" lon="-1.6734021">
        <time>2022-07-02T14:39:39Z</time>
      </trkpt>
      <trkpt lat="43.16677" lon="-1.673408">
        <time>2022-07-02T14:40:18Z</time>
      </trkpt>
      <trkpt lat="43.166718" lon="-1.6734188">
        <time>2022-07-02T14:40:22Z</time>
      </trkpt>
      <trkpt lat="43.16667" lon="-1.6734307">
        <time>2022-07-02T14:40:27Z</time>
      </trkpt>
      <trkpt lat="43.166725" lon="-1.6733927">
        <time>2022-07-02T14:42:06Z</time>
      </trkpt>
      <trkpt lat="43.16677" lon="-1.673359">
        <time>2022-07-02T14:42:10Z</time>
      </trkpt>
      <trkpt lat="43.16674" lon="-1.6733371">
        <time>2022-07-02T14:42:29Z</time>
      </trkpt>
      <trkpt lat="43.166737" lon="-1.6733414">
        <time>2022-07-02T14:42:30Z</time>
      </trkpt>
      <trkpt lat="43.166706" lon="-1.6734201">
        <time>2022-07-02T14:42:36Z</time>
      </trkpt>
      <trkpt lat="43.166836" lon="-1.6734704">
        <time>2022-07-02T15:10:30Z</time>
      </trkpt>
      <trkpt lat="43.16675" lon="-1.6734467">
        <time>2022-07-02T15:11:18Z</time>
      </trkpt>
      <trkpt lat="43.166683" lon="-1.6734091">
        <time>2022-07-02T15:11:21Z</time>
      </trkpt>
      <trkpt lat="43.166615" lon="-1.6733991">
        <time>2022-07-02T15:11:24Z</time>
      </trkpt>
      <trkpt lat="43.16656" lon="-1.6733978">
        <time>2022-07-02T15:11:27Z</time>
      </trkpt>
      <trkpt lat="43.166515" lon="-1.673372">
        <time>2022-07-02T15:11:30Z</time>
      </trkpt>
      <trkpt lat="43.166473" lon="-1.6733177">
        <time>2022-07-02T15:11:33Z</time>
      </trkpt>
      <trkpt lat="43.16643" lon="-1.673254">
        <time>2022-07-02T15:11:36Z</time>
      </trkpt>
      <trkpt lat="43.1664" lon="-1.6732011">
        <time>2022-07-02T15:11:38Z</time>
      </trkpt>
      <trkpt lat="43.166355" lon="-1.673115">
        <time>2022-07-02T15:11:41Z</time>
      </trkpt>
      <trkpt lat="43.166325" lon="-1.6730578">
        <time>2022-07-02T15:11:43Z</time>
      </trkpt>
      <trkpt lat="43.16629" lon="-1.6729708">
        <time>2022-07-02T15:11:46Z</time>
      </trkpt>
      <trkpt lat="43.16626" lon="-1.6729188">
        <time>2022-07-02T15:11:48Z</time>
      </trkpt>
      <trkpt lat="43.166214" lon="-1.6728485">
        <time>2022-07-02T15:11:51Z</time>
      </trkpt>
      <trkpt lat="43.16618" lon="-1.6727961">
        <time>2022-07-02T15:11:53Z</time>
      </trkpt>
      <trkpt lat="43.16613" lon="-1.672713">
        <time>2022-07-02T15:11:56Z</time>
      </trkpt>
      <trkpt lat="43.166096" lon="-1.6726584">
        <time>2022-07-02T15:11:58Z</time>
      </trkpt>
      <trkpt lat="43.166058" lon="-1.6726121">
        <time>2022-07-02T15:12:00Z</time>
      </trkpt>
      <trkpt lat="43.16602" lon="-1.6725677">
        <time>2022-07-02T15:12:02Z</time>
      </trkpt>
      <trkpt lat="43.165962" lon="-1.6724931">
        <time>2022-07-02T15:12:05Z</time>
      </trkpt>
      <trkpt lat="43.165924" lon="-1.6724454">
        <time>2022-07-02T15:12:07Z</time>
      </trkpt>
      <trkpt lat="43.165882" lon="-1.6723975">
        <time>2022-07-02T15:12:09Z</time>
      </trkpt>
      <trkpt lat="43.165844" lon="-1.6723518">
        <time>2022-07-02T15:12:11Z</time>
      </trkpt>
      <trkpt lat="43.16579" lon="-1.6722847">
        <time>2022-07-02T15:12:14Z</time>
      </trkpt>
      <trkpt lat="43.165714" lon="-1.6722184">
        <time>2022-07-02T15:12:18Z</time>
      </trkpt>
      <trkpt lat="43.16566" lon="-1.6721815">
        <time>2022-07-02T15:12:21Z</time>
      </trkpt>
      <trkpt lat="43.16561" lon="-1.6721591">
        <time>2022-07-02T15:12:24Z</time>
      </trkpt>
      <trkpt lat="43.16557" lon="-1.6721381">
        <time>2022-07-02T15:12:28Z</time>
      </trkpt>
      <trkpt lat="43.165478" lon="-1.6721117">
        <time>2022-07-02T15:13:46Z</time>
      </trkpt>
      <trkpt lat="43.165398" lon="-1.6720738">
        <time>2022-07-02T15:13:49Z</time>
      </trkpt>
      <trkpt lat="43.165337" lon="-1.6720475">
        <time>2022-07-02T15:13:51Z</time>
      </trkpt>
      <trkpt lat="43.165276" lon="-1.6720178">
        <time>2022-07-02T15:13:53Z</time>
      </trkpt>
      <trkpt lat="43.16521" lon="-1.6719811">
        <time>2022-07-02T15:13:55Z</time>
      </trkpt>
      <trkpt lat="43.165146" lon="-1.6719441">
        <time>2022-07-02T15:13:57Z</time>
      </trkpt>
      <trkpt lat="43.165077" lon="-1.6719098">
        <time>2022-07-02T15:13:59Z</time>
      </trkpt>
      <trkpt lat="43.16501" lon="-1.6718751">
        <time>2022-07-02T15:14:01Z</time>
      </trkpt>
      <trkpt lat="43.164948" lon="-1.6718389">
        <time>2022-07-02T15:14:03Z</time>
      </trkpt>
      <trkpt lat="43.164886" lon="-1.6718001">
        <time>2022-07-02T15:14:05Z</time>
      </trkpt>
      <trkpt lat="43.164825" lon="-1.6717588">
        <time>2022-07-02T15:14:07Z</time>
      </trkpt>
      <trkpt lat="43.163364" lon="-1.6712089">
        <time>2022-07-02T15:14:44Z</time>
      </trkpt>
      <trkpt lat="43.163086" lon="-1.6709381">
        <time>2022-07-02T15:15:07Z</time>
      </trkpt>
      <trkpt lat="43.163013" lon="-1.6709259">
        <time>2022-07-02T15:15:10Z</time>
      </trkpt>
      <trkpt lat="43.162956" lon="-1.6709225">
        <time>2022-07-02T15:15:12Z</time>
      </trkpt>
      <trkpt lat="43.1629" lon="-1.6709162">
        <time>2022-07-02T15:15:14Z</time>
      </trkpt>
      <trkpt lat="43.162838" lon="-1.6709116">
        <time>2022-07-02T15:15:16Z</time>
      </trkpt>
      <trkpt lat="43.16277" lon="-1.6709168">
        <time>2022-07-02T15:15:18Z</time>
      </trkpt>
      <trkpt lat="43.162704" lon="-1.6709299">
        <time>2022-07-02T15:15:20Z</time>
      </trkpt>
      <trkpt lat="43.162632" lon="-1.6709481">
        <time>2022-07-02T15:15:22Z</time>
      </trkpt>
      <trkpt lat="43.162556" lon="-1.6709656">
        <time>2022-07-02T15:15:24Z</time>
      </trkpt>
      <trkpt lat="43.16248" lon="-1.6709871">
        <time>2022-07-02T15:15:26Z</time>
      </trkpt>
      <trkpt lat="43.162407" lon="-1.6710155">
        <time>2022-07-02T15:15:28Z</time>
      </trkpt>
      <trkpt lat="43.16234" lon="-1.6710411">
        <time>2022-07-02T15:15:30Z</time>
      </trkpt>
      <trkpt lat="43.162273" lon="-1.6710675">
        <time>2022-07-02T15:15:32Z</time>
      </trkpt>
      <trkpt lat="43.16221" lon="-1.6710908">
        <time>2022-07-02T15:15:34Z</time>
      </trkpt>
      <trkpt lat="43.16214" lon="-1.6711128">
        <time>2022-07-02T15:15:36Z</time>
      </trkpt>
      <trkpt lat="43.162075" lon="-1.6711318">
        <time>2022-07-02T15:15:38Z</time>
      </trkpt>
      <trkpt lat="43.162003" lon="-1.6711469">
        <time>2022-07-02T15:15:40Z</time>
      </trkpt>
      <trkpt lat="43.16193" lon="-1.6711684">
        <time>2022-07-02T15:15:42Z</time>
      </trkpt>
      <trkpt lat="43.161865" lon="-1.6711909">
        <time>2022-07-02T15:15:44Z</time>
      </trkpt>
      <trkpt lat="43.1618" lon="-1.6712141">
        <time>2022-07-02T15:15:46Z</time>
      </trkpt>
      <trkpt lat="43.16174" lon="-1.6712338">
        <time>2022-07-02T15:15:48Z</time>
      </trkpt>
      <trkpt lat="43.16167" lon="-1.6712568">
        <time>2022-07-02T15:15:50Z</time>
      </trkpt>
      <trkpt lat="43.161602" lon="-1.6712824">
        <time>2022-07-02T15:15:52Z</time>
      </trkpt>
      <trkpt lat="43.16153" lon="-1.6713085">
        <time>2022-07-02T15:15:54Z</time>
      </trkpt>
      <trkpt lat="43.161457" lon="-1.6713334">
        <time>2022-07-02T15:15:56Z</time>
      </trkpt>
      <trkpt lat="43.161385" lon="-1.6713561">
        <time>2022-07-02T15:15:58Z</time>
      </trkpt>
      <trkpt lat="43.16131" lon="-1.6713828">
        <time>2022-07-02T15:16:00Z</time>
      </trkpt>
      <trkpt lat="43.16122" lon="-1.6714118">
        <time>2022-07-02T15:16:02Z</time>
      </trkpt>
      <trkpt lat="43.161133" lon="-1.6714411">
        <time>2022-07-02T15:16:04Z</time>
      </trkpt>
      <trkpt lat="43.161045" lon="-1.6714724">
        <time>2022-07-02T15:16:06Z</time>
      </trkpt>
      <trkpt lat="43.16096" lon="-1.671501">
        <time>2022-07-02T15:16:08Z</time>
      </trkpt>
      <trkpt lat="43.160873" lon="-1.6715227">
        <time>2022-07-02T15:16:10Z</time>
      </trkpt>
      <trkpt lat="43.160786" lon="-1.6715558">
        <time>2022-07-02T15:16:12Z</time>
      </trkpt>
      <trkpt lat="43.1607" lon="-1.6715914">
        <time>2022-07-02T15:16:14Z</time>
      </trkpt>
      <trkpt lat="43.16062" lon="-1.6716285">
        <time>2022-07-02T15:16:16Z</time>
      </trkpt>
      <trkpt lat="43.160538" lon="-1.6716647">
        <time>2022-07-02T15:16:18Z</time>
      </trkpt>
      <trkpt lat="43.160454" lon="-1.6716981">
        <time>2022-07-02T15:16:20Z</time>
      </trkpt>
      <trkpt lat="43.160408" lon="-1.6717148">
        <time>2022-07-02T15:16:21Z</time>
      </trkpt>
      <trkpt lat="43.160328" lon="-1.671743">
        <time>2022-07-02T15:16:23Z</time>
      </trkpt>
      <trkpt lat="43.160244" lon="-1.6717697">
        <time>2022-07-02T15:16:25Z</time>
      </trkpt>
      <trkpt lat="43.160156" lon="-1.6717964">
        <time>2022-07-02T15:16:27Z</time>
      </trkpt>
      <trkpt lat="43.160076" lon="-1.6718243">
        <time>2022-07-02T15:16:29Z</time>
      </trkpt>
      <trkpt lat="43.15999" lon="-1.6718557">
        <time>2022-07-02T15:16:31Z</time>
      </trkpt>
      <trkpt lat="43.15991" lon="-1.671882">
        <time>2022-07-02T15:16:33Z</time>
      </trkpt>
      <trkpt lat="43.15983" lon="-1.6718997">
        <time>2022-07-02T15:16:35Z</time>
      </trkpt>
      <trkpt lat="43.159748" lon="-1.6719074">
        <time>2022-07-02T15:16:37Z</time>
      </trkpt>
      <trkpt lat="43.159676" lon="-1.6719041">
        <time>2022-07-02T15:16:39Z</time>
      </trkpt>
      <trkpt lat="43.1596" lon="-1.6718947">
        <time>2022-07-02T15:16:41Z</time>
      </trkpt>
      <trkpt lat="43.15951" lon="-1.6718887">
        <time>2022-07-02T15:16:43Z</time>
      </trkpt>
      <trkpt lat="43.15943" lon="-1.6718817">
        <time>2022-07-02T15:16:45Z</time>
      </trkpt>
      <trkpt lat="43.159348" lon="-1.6718707">
        <time>2022-07-02T15:16:47Z</time>
      </trkpt>
      <trkpt lat="43.159267" lon="-1.6718637">
        <time>2022-07-02T15:16:49Z</time>
      </trkpt>
      <trkpt lat="43.159187" lon="-1.6718557">
        <time>2022-07-02T15:16:51Z</time>
      </trkpt>
      <trkpt lat="43.1591" lon="-1.671848">
        <time>2022-07-02T15:16:53Z</time>
      </trkpt>
      <trkpt lat="43.159004" lon="-1.6718484">
        <time>2022-07-02T15:16:55Z</time>
      </trkpt>
      <trkpt lat="43.158955" lon="-1.6718477">
        <time>2022-07-02T15:16:56Z</time>
      </trkpt>
      <trkpt lat="43.158855" lon="-1.6718473">
        <time>2022-07-02T15:16:58Z</time>
      </trkpt>
      <trkpt lat="43.15876" lon="-1.6718477">
        <time>2022-07-02T15:17:00Z</time>
      </trkpt>
      <trkpt lat="43.15871" lon="-1.671849">
        <time>2022-07-02T15:17:01Z</time>
      </trkpt>
      <trkpt lat="43.15861" lon="-1.6718467">
        <time>2022-07-02T15:17:03Z</time>
      </trkpt>
      <trkpt lat="43.15852" lon="-1.671843">
        <time>2022-07-02T15:17:05Z</time>
      </trkpt>
      <trkpt lat="43.158432" lon="-1.6718401">
        <time>2022-07-02T15:17:07Z</time>
      </trkpt>
      <trkpt lat="43.158344" lon="-1.6718394">
        <time>2022-07-02T15:17:09Z</time>
      </trkpt>
      <trkpt lat="43.158257" lon="-1.6718377">
        <time>2022-07-02T15:17:11Z</time>
      </trkpt>
      <trkpt lat="43.158173" lon="-1.6718345">
        <time>2022-07-02T15:17:13Z</time>
      </trkpt>
      <trkpt lat="43.158085" lon="-1.6718297">
        <time>2022-07-02T15:17:15Z</time>
      </trkpt>
      <trkpt lat="43.157997" lon="-1.6718237">
        <time>2022-07-02T15:17:17Z</time>
      </trkpt>
      <trkpt lat="43.15791" lon="-1.6718181">
        <time>2022-07-02T15:17:19Z</time>
      </trkpt>
      <trkpt lat="43.15782" lon="-1.6718107">
        <time>2022-07-02T15:17:21Z</time>
      </trkpt>
      <trkpt lat="43.157738" lon="-1.6718014">
        <time>2022-07-02T15:17:23Z</time>
      </trkpt>
      <trkpt lat="43.15765" lon="-1.6717888">
        <time>2022-07-02T15:17:25Z</time>
      </trkpt>
      <trkpt lat="43.15756" lon="-1.6717751">
        <time>2022-07-02T15:17:27Z</time>
      </trkpt>
      <trkpt lat="43.15747" lon="-1.6717597">
        <time>2022-07-02T15:17:29Z</time>
      </trkpt>
      <trkpt lat="43.15738" lon="-1.6717445">
        <time>2022-07-02T15:17:31Z</time>
      </trkpt>
      <trkpt lat="43.157288" lon="-1.6717254">
        <time>2022-07-02T15:17:33Z</time>
      </trkpt>
      <trkpt lat="43.157204" lon="-1.6717027">
        <time>2022-07-02T15:17:35Z</time>
      </trkpt>
      <trkpt lat="43.157116" lon="-1.6716745">
        <time>2022-07-02T15:17:37Z</time>
      </trkpt>
      <trkpt lat="43.157024" lon="-1.6716474">
        <time>2022-07-02T15:17:39Z</time>
      </trkpt>
      <trkpt lat="43.156937" lon="-1.6716251">
        <time>2022-07-02T15:17:41Z</time>
      </trkpt>
      <trkpt lat="43.15685" lon="-1.6716075">
        <time>2022-07-02T15:17:43Z</time>
      </trkpt>
      <trkpt lat="43.156765" lon="-1.6715899">
        <time>2022-07-02T15:17:45Z</time>
      </trkpt>
      <trkpt lat="43.156677" lon="-1.6715738">
        <time>2022-07-02T15:17:47Z</time>
      </trkpt>
      <trkpt lat="43.15659" lon="-1.6715544">
        <time>2022-07-02T15:17:49Z</time>
      </trkpt>
      <trkpt lat="43.1565" lon="-1.6715329">
        <time>2022-07-02T15:17:51Z</time>
      </trkpt>
      <trkpt lat="43.156414" lon="-1.6715088">
        <time>2022-07-02T15:17:53Z</time>
      </trkpt>
      <trkpt lat="43.156334" lon="-1.6714828">
        <time>2022-07-02T15:17:55Z</time>
      </trkpt>
      <trkpt lat="43.15625" lon="-1.6714551">
        <time>2022-07-02T15:17:57Z</time>
      </trkpt>
      <trkpt lat="43.156166" lon="-1.6714265">
        <time>2022-07-02T15:17:59Z</time>
      </trkpt>
      <trkpt lat="43.156082" lon="-1.6714032">
        <time>2022-07-02T15:18:01Z</time>
      </trkpt>
      <trkpt lat="43.155994" lon="-1.6713848">
        <time>2022-07-02T15:18:03Z</time>
      </trkpt>
      <trkpt lat="43.155903" lon="-1.6713665">
        <time>2022-07-02T15:18:05Z</time>
      </trkpt>
      <trkpt lat="43.155815" lon="-1.6713508">
        <time>2022-07-02T15:18:07Z</time>
      </trkpt>
      <trkpt lat="43.155735" lon="-1.6713291">
        <time>2022-07-02T15:18:09Z</time>
      </trkpt>
      <trkpt lat="43.155655" lon="-1.6712998">
        <time>2022-07-02T15:18:11Z</time>
      </trkpt>
      <trkpt lat="43.155575" lon="-1.6712649">
        <time>2022-07-02T15:18:13Z</time>
      </trkpt>
      <trkpt lat="43.1555" lon="-1.6712276">
        <time>2022-07-02T15:18:15Z</time>
      </trkpt>
      <trkpt lat="43.15542" lon="-1.6711845">
        <time>2022-07-02T15:18:17Z</time>
      </trkpt>
      <trkpt lat="43.155346" lon="-1.6711465">
        <time>2022-07-02T15:18:19Z</time>
      </trkpt>
      <trkpt lat="43.155273" lon="-1.6711116">
        <time>2022-07-02T15:18:21Z</time>
      </trkpt>
      <trkpt lat="43.155197" lon="-1.6710762">
        <time>2022-07-02T15:18:23Z</time>
      </trkpt>
      <trkpt lat="43.15512" lon="-1.6710385">
        <time>2022-07-02T15:18:25Z</time>
      </trkpt>
      <trkpt lat="43.15505" lon="-1.6709965">
        <time>2022-07-02T15:18:27Z</time>
      </trkpt>
      <trkpt lat="43.154934" lon="-1.6709296">
        <time>2022-07-02T15:18:30Z</time>
      </trkpt>
      <trkpt lat="43.15486" lon="-1.6708812">
        <time>2022-07-02T15:18:32Z</time>
      </trkpt>
      <trkpt lat="43.15479" lon="-1.6708306">
        <time>2022-07-02T15:18:34Z</time>
      </trkpt>
      <trkpt lat="43.154713" lon="-1.6707789">
        <time>2022-07-02T15:18:36Z</time>
      </trkpt>
      <trkpt lat="43.15464" lon="-1.6707366">
        <time>2022-07-02T15:18:38Z</time>
      </trkpt>
      <trkpt lat="43.154564" lon="-1.6706976">
        <time>2022-07-02T15:18:40Z</time>
      </trkpt>
      <trkpt lat="43.154484" lon="-1.6706566">
        <time>2022-07-02T15:18:42Z</time>
      </trkpt>
      <trkpt lat="43.154408" lon="-1.6706102">
        <time>2022-07-02T15:18:44Z</time>
      </trkpt>
      <trkpt lat="43.154335" lon="-1.6705632">
        <time>2022-07-02T15:18:46Z</time>
      </trkpt>
      <trkpt lat="43.154263" lon="-1.6705213">
        <time>2022-07-02T15:18:48Z</time>
      </trkpt>
      <trkpt lat="43.154186" lon="-1.6704808">
        <time>2022-07-02T15:18:50Z</time>
      </trkpt>
      <trkpt lat="43.154118" lon="-1.6704396">
        <time>2022-07-02T15:18:52Z</time>
      </trkpt>
      <trkpt lat="43.154045" lon="-1.6703929">
        <time>2022-07-02T15:18:54Z</time>
      </trkpt>
      <trkpt lat="43.153976" lon="-1.6703446">
        <time>2022-07-02T15:18:56Z</time>
      </trkpt>
      <trkpt lat="43.153904" lon="-1.6702993">
        <time>2022-07-02T15:18:58Z</time>
      </trkpt>
      <trkpt lat="43.15383" lon="-1.6702496">
        <time>2022-07-02T15:19:00Z</time>
      </trkpt>
      <trkpt lat="43.153755" lon="-1.6702043">
        <time>2022-07-02T15:19:02Z</time>
      </trkpt>
      <trkpt lat="43.153683" lon="-1.6701599">
        <time>2022-07-02T15:19:04Z</time>
      </trkpt>
      <trkpt lat="43.153606" lon="-1.6701213">
        <time>2022-07-02T15:19:06Z</time>
      </trkpt>
      <trkpt lat="43.153534" lon="-1.670087">
        <time>2022-07-02T15:19:08Z</time>
      </trkpt>
      <trkpt lat="43.153465" lon="-1.6700523">
        <time>2022-07-02T15:19:10Z</time>
      </trkpt>
      <trkpt lat="43.153397" lon="-1.6700202">
        <time>2022-07-02T15:19:12Z</time>
      </trkpt>
      <trkpt lat="43.153336" lon="-1.6699862">
        <time>2022-07-02T15:19:14Z</time>
      </trkpt>
      <trkpt lat="43.15328" lon="-1.6699497">
        <time>2022-07-02T15:19:16Z</time>
      </trkpt>
      <trkpt lat="43.15322" lon="-1.6699133">
        <time>2022-07-02T15:19:18Z</time>
      </trkpt>
      <trkpt lat="43.153164" lon="-1.6698799">
        <time>2022-07-02T15:19:20Z</time>
      </trkpt>
      <trkpt lat="43.153103" lon="-1.6698453">
        <time>2022-07-02T15:19:22Z</time>
      </trkpt>
      <trkpt lat="43.15304" lon="-1.6698127">
        <time>2022-07-02T15:19:24Z</time>
      </trkpt>
      <trkpt lat="43.152985" lon="-1.6697706">
        <time>2022-07-02T15:19:26Z</time>
      </trkpt>
      <trkpt lat="43.15292" lon="-1.669729">
        <time>2022-07-02T15:19:28Z</time>
      </trkpt>
      <trkpt lat="43.15285" lon="-1.6696893">
        <time>2022-07-02T15:19:30Z</time>
      </trkpt>
      <trkpt lat="43.152786" lon="-1.6696457">
        <time>2022-07-02T15:19:32Z</time>
      </trkpt>
      <trkpt lat="43.152718" lon="-1.6696043">
        <time>2022-07-02T15:19:34Z</time>
      </trkpt>
      <trkpt lat="43.15265" lon="-1.6695647">
        <time>2022-07-02T15:19:36Z</time>
      </trkpt>
      <trkpt lat="43.152584" lon="-1.6695267">
        <time>2022-07-02T15:19:38Z</time>
      </trkpt>
      <trkpt lat="43.15251" lon="-1.6694894">
        <time>2022-07-02T15:19:40Z</time>
      </trkpt>
      <trkpt lat="43.152443" lon="-1.6694523">
        <time>2022-07-02T15:19:42Z</time>
      </trkpt>
      <trkpt lat="43.152374" lon="-1.669416">
        <time>2022-07-02T15:19:44Z</time>
      </trkpt>
      <trkpt lat="43.1523" lon="-1.6693823">
        <time>2022-07-02T15:19:46Z</time>
      </trkpt>
      <trkpt lat="43.152233" lon="-1.669352">
        <time>2022-07-02T15:19:48Z</time>
      </trkpt>
      <trkpt lat="43.152164" lon="-1.6693263">
        <time>2022-07-02T15:19:50Z</time>
      </trkpt>
      <trkpt lat="43.1521" lon="-1.6693047">
        <time>2022-07-02T15:19:52Z</time>
      </trkpt>
      <trkpt lat="43.152027" lon="-1.6692787">
        <time>2022-07-02T15:19:54Z</time>
      </trkpt>
      <trkpt lat="43.15195" lon="-1.6692474">
        <time>2022-07-02T15:19:56Z</time>
      </trkpt>
      <trkpt lat="43.15188" lon="-1.6692181">
        <time>2022-07-02T15:19:58Z</time>
      </trkpt>
      <trkpt lat="43.151814" lon="-1.6691973">
        <time>2022-07-02T15:20:00Z</time>
      </trkpt>
      <trkpt lat="43.151745" lon="-1.669177">
        <time>2022-07-02T15:20:02Z</time>
      </trkpt>
      <trkpt lat="43.151672" lon="-1.669157">
        <time>2022-07-02T15:20:04Z</time>
      </trkpt>
      <trkpt lat="43.1516" lon="-1.6691337">
        <time>2022-07-02T15:20:06Z</time>
      </trkpt>
      <trkpt lat="43.15153" lon="-1.6691074">
        <time>2022-07-02T15:20:08Z</time>
      </trkpt>
      <trkpt lat="43.151463" lon="-1.6690874">
        <time>2022-07-02T15:20:10Z</time>
      </trkpt>
      <trkpt lat="43.151398" lon="-1.6690651">
        <time>2022-07-02T15:20:12Z</time>
      </trkpt>
      <trkpt lat="43.151333" lon="-1.6690423">
        <time>2022-07-02T15:20:14Z</time>
      </trkpt>
      <trkpt lat="43.15126" lon="-1.6690224">
        <time>2022-07-02T15:20:16Z</time>
      </trkpt>
      <trkpt lat="43.151188" lon="-1.6690058">
        <time>2022-07-02T15:20:18Z</time>
      </trkpt>
      <trkpt lat="43.15112" lon="-1.6689844">
        <time>2022-07-02T15:20:20Z</time>
      </trkpt>
      <trkpt lat="43.151054" lon="-1.6689614">
        <time>2022-07-02T15:20:22Z</time>
      </trkpt>
      <trkpt lat="43.15099" lon="-1.6689417">
        <time>2022-07-02T15:20:24Z</time>
      </trkpt>
      <trkpt lat="43.150913" lon="-1.6689265">
        <time>2022-07-02T15:20:26Z</time>
      </trkpt>
      <trkpt lat="43.150837" lon="-1.6689134">
        <time>2022-07-02T15:20:28Z</time>
      </trkpt>
      <trkpt lat="43.15076" lon="-1.6689078">
        <time>2022-07-02T15:20:30Z</time>
      </trkpt>
      <trkpt lat="43.150684" lon="-1.6689085">
        <time>2022-07-02T15:20:32Z</time>
      </trkpt>
      <trkpt lat="43.15061" lon="-1.6689165">
        <time>2022-07-02T15:20:34Z</time>
      </trkpt>
      <trkpt lat="43.150497" lon="-1.6689508">
        <time>2022-07-02T15:20:37Z</time>
      </trkpt>
      <trkpt lat="43.150414" lon="-1.6689744">
        <time>2022-07-02T15:20:39Z</time>
      </trkpt>
      <trkpt lat="43.15033" lon="-1.6689991">
        <time>2022-07-02T15:20:41Z</time>
      </trkpt>
      <trkpt lat="43.150246" lon="-1.6690274">
        <time>2022-07-02T15:20:43Z</time>
      </trkpt>
      <trkpt lat="43.15017" lon="-1.669051">
        <time>2022-07-02T15:20:45Z</time>
      </trkpt>
      <trkpt lat="43.150097" lon="-1.6690717">
        <time>2022-07-02T15:20:47Z</time>
      </trkpt>
      <trkpt lat="43.150024" lon="-1.6690958">
        <time>2022-07-02T15:20:49Z</time>
      </trkpt>
      <trkpt lat="43.14994" lon="-1.6691238">
        <time>2022-07-02T15:20:51Z</time>
      </trkpt>
      <trkpt lat="43.14986" lon="-1.6691517">
        <time>2022-07-02T15:20:53Z</time>
      </trkpt>
      <trkpt lat="43.14978" lon="-1.6691787">
        <time>2022-07-02T15:20:55Z</time>
      </trkpt>
      <trkpt lat="43.149696" lon="-1.6692084">
        <time>2022-07-02T15:20:57Z</time>
      </trkpt>
      <trkpt lat="43.149612" lon="-1.6692307">
        <time>2022-07-02T15:20:59Z</time>
      </trkpt>
      <trkpt lat="43.14953" lon="-1.669257">
        <time>2022-07-02T15:21:01Z</time>
      </trkpt>
      <trkpt lat="43.149445" lon="-1.6692843">
        <time>2022-07-02T15:21:03Z</time>
      </trkpt>
      <trkpt lat="43.149357" lon="-1.6693057">
        <time>2022-07-02T15:21:05Z</time>
      </trkpt>
      <trkpt lat="43.149273" lon="-1.6693187">
        <time>2022-07-02T15:21:07Z</time>
      </trkpt>
      <trkpt lat="43.149185" lon="-1.6693207">
        <time>2022-07-02T15:21:09Z</time>
      </trkpt>
      <trkpt lat="43.149097" lon="-1.6693127">
        <time>2022-07-02T15:21:11Z</time>
      </trkpt>
      <trkpt lat="43.149014" lon="-1.6692914">
        <time>2022-07-02T15:21:13Z</time>
      </trkpt>
      <trkpt lat="43.14893" lon="-1.6692641">
        <time>2022-07-02T15:21:15Z</time>
      </trkpt>
      <trkpt lat="43.14885" lon="-1.6692344">
        <time>2022-07-02T15:21:17Z</time>
      </trkpt>
      <trkpt lat="43.148773" lon="-1.6692017">
        <time>2022-07-02T15:21:19Z</time>
      </trkpt>
      <trkpt lat="43.148697" lon="-1.6691681">
        <time>2022-07-02T15:21:21Z</time>
      </trkpt>
      <trkpt lat="43.148624" lon="-1.6691357">
        <time>2022-07-02T15:21:23Z</time>
      </trkpt>
      <trkpt lat="43.148552" lon="-1.6691041">
        <time>2022-07-02T15:21:25Z</time>
      </trkpt>
      <trkpt lat="43.148483" lon="-1.6690781">
        <time>2022-07-02T15:21:27Z</time>
      </trkpt>
      <trkpt lat="43.14841" lon="-1.6690531">
        <time>2022-07-02T15:21:29Z</time>
      </trkpt>
      <trkpt lat="43.148346" lon="-1.6690254">
        <time>2022-07-02T15:21:31Z</time>
      </trkpt>
      <trkpt lat="43.148296" lon="-1.6689994">
        <time>2022-07-02T15:21:33Z</time>
      </trkpt>
      <trkpt lat="43.14826" lon="-1.6689714">
        <time>2022-07-02T15:21:38Z</time>
      </trkpt>
      <trkpt lat="43.148228" lon="-1.668984">
        <time>2022-07-02T15:22:40Z</time>
      </trkpt>
      <trkpt lat="43.148163" lon="-1.6689631">
        <time>2022-07-02T15:22:43Z</time>
      </trkpt>
      <trkpt lat="43.14809" lon="-1.6689237">
        <time>2022-07-02T15:22:46Z</time>
      </trkpt>
      <trkpt lat="43.148037" lon="-1.6688985">
        <time>2022-07-02T15:22:48Z</time>
      </trkpt>
      <trkpt lat="43.14798" lon="-1.6688771">
        <time>2022-07-02T15:22:50Z</time>
      </trkpt>
      <trkpt lat="43.14792" lon="-1.6688601">
        <time>2022-07-02T15:22:52Z</time>
      </trkpt>
      <trkpt lat="43.14785" lon="-1.6688484">
        <time>2022-07-02T15:22:54Z</time>
      </trkpt>
      <trkpt lat="43.147778" lon="-1.668835">
        <time>2022-07-02T15:22:56Z</time>
      </trkpt>
      <trkpt lat="43.14771" lon="-1.6688215">
        <time>2022-07-02T15:22:58Z</time>
      </trkpt>
      <trkpt lat="43.147636" lon="-1.6688118">
        <time>2022-07-02T15:23:00Z</time>
      </trkpt>
      <trkpt lat="43.147564" lon="-1.6688038">
        <time>2022-07-02T15:23:02Z</time>
      </trkpt>
      <trkpt lat="43.147495" lon="-1.6688021">
        <time>2022-07-02T15:23:04Z</time>
      </trkpt>
      <trkpt lat="43.147427" lon="-1.6688018">
        <time>2022-07-02T15:23:06Z</time>
      </trkpt>
      <trkpt lat="43.147354" lon="-1.6688038">
        <time>2022-07-02T15:23:08Z</time>
      </trkpt>
      <trkpt lat="43.147285" lon="-1.6688081">
        <time>2022-07-02T15:23:10Z</time>
      </trkpt>
      <trkpt lat="43.147213" lon="-1.6688198">
        <time>2022-07-02T15:23:12Z</time>
      </trkpt>
      <trkpt lat="43.147144" lon="-1.6688371">
        <time>2022-07-02T15:23:14Z</time>
      </trkpt>
      <trkpt lat="43.147076" lon="-1.6688575">
        <time>2022-07-02T15:23:16Z</time>
      </trkpt>
      <trkpt lat="43.147007" lon="-1.6688718">
        <time>2022-07-02T15:23:18Z</time>
      </trkpt>
      <trkpt lat="43.14694" lon="-1.6688874">
        <time>2022-07-02T15:23:20Z</time>
      </trkpt>
      <trkpt lat="43.14687" lon="-1.668899">
        <time>2022-07-02T15:23:22Z</time>
      </trkpt>
      <trkpt lat="43.14681" lon="-1.6689084">
        <time>2022-07-02T15:23:24Z</time>
      </trkpt>
      <trkpt lat="43.146748" lon="-1.6689254">
        <time>2022-07-02T15:23:26Z</time>
      </trkpt>
      <trkpt lat="43.146687" lon="-1.6689391">
        <time>2022-07-02T15:23:28Z</time>
      </trkpt>
      <trkpt lat="43.14662" lon="-1.6689534">
        <time>2022-07-02T15:23:30Z</time>
      </trkpt>
      <trkpt lat="43.14655" lon="-1.6689631">
        <time>2022-07-02T15:23:32Z</time>
      </trkpt>
      <trkpt lat="43.14648" lon="-1.6689727">
        <time>2022-07-02T15:23:34Z</time>
      </trkpt>
      <trkpt lat="43.146416" lon="-1.6689817">
        <time>2022-07-02T15:23:36Z</time>
      </trkpt>
      <trkpt lat="43.146343" lon="-1.6689891">
        <time>2022-07-02T15:23:38Z</time>
      </trkpt>
      <trkpt lat="43.146275" lon="-1.6689891">
        <time>2022-07-02T15:23:40Z</time>
      </trkpt>
      <trkpt lat="43.14617" lon="-1.6689824">
        <time>2022-07-02T15:23:43Z</time>
      </trkpt>
      <trkpt lat="43.146107" lon="-1.6689783">
        <time>2022-07-02T15:23:45Z</time>
      </trkpt>
      <trkpt lat="43.146038" lon="-1.668972">
        <time>2022-07-02T15:23:47Z</time>
      </trkpt>
      <trkpt lat="43.145973" lon="-1.6689631">
        <time>2022-07-02T15:23:49Z</time>
      </trkpt>
      <trkpt lat="43.145905" lon="-1.6689544">
        <time>2022-07-02T15:23:51Z</time>
      </trkpt>
      <trkpt lat="43.145832" lon="-1.668941">
        <time>2022-07-02T15:23:53Z</time>
      </trkpt>
      <trkpt lat="43.145763" lon="-1.6689278">
        <time>2022-07-02T15:23:55Z</time>
      </trkpt>
      <trkpt lat="43.14569" lon="-1.6689178">
        <time>2022-07-02T15:23:57Z</time>
      </trkpt>
      <trkpt lat="43.145615" lon="-1.6689074">
        <time>2022-07-02T15:23:59Z</time>
      </trkpt>
      <trkpt lat="43.145542" lon="-1.668894">
        <time>2022-07-02T15:24:01Z</time>
      </trkpt>
      <trkpt lat="43.145466" lon="-1.6688818">
        <time>2022-07-02T15:24:03Z</time>
      </trkpt>
      <trkpt lat="43.145393" lon="-1.6688727">
        <time>2022-07-02T15:24:05Z</time>
      </trkpt>
      <trkpt lat="43.14532" lon="-1.6688677">
        <time>2022-07-02T15:24:07Z</time>
      </trkpt>
      <trkpt lat="43.145252" lon="-1.6688654">
        <time>2022-07-02T15:24:09Z</time>
      </trkpt>
      <trkpt lat="43.145184" lon="-1.6688651">
        <time>2022-07-02T15:24:11Z</time>
      </trkpt>
      <trkpt lat="43.14511" lon="-1.6688634">
        <time>2022-07-02T15:24:13Z</time>
      </trkpt>
      <trkpt lat="43.145042" lon="-1.6688654">
        <time>2022-07-02T15:24:15Z</time>
      </trkpt>
      <trkpt lat="43.144966" lon="-1.6688688">
        <time>2022-07-02T15:24:17Z</time>
      </trkpt>
      <trkpt lat="43.144897" lon="-1.6688741">
        <time>2022-07-02T15:24:19Z</time>
      </trkpt>
      <trkpt lat="43.144825" lon="-1.6688768">
        <time>2022-07-02T15:24:21Z</time>
      </trkpt>
      <trkpt lat="43.14475" lon="-1.6688774">
        <time>2022-07-02T15:24:23Z</time>
      </trkpt>
      <trkpt lat="43.144672" lon="-1.6688807">
        <time>2022-07-02T15:24:25Z</time>
      </trkpt>
      <trkpt lat="43.144592" lon="-1.668884">
        <time>2022-07-02T15:24:27Z</time>
      </trkpt>
      <trkpt lat="43.144512" lon="-1.6688898">
        <time>2022-07-02T15:24:29Z</time>
      </trkpt>
      <trkpt lat="43.144436" lon="-1.6688907">
        <time>2022-07-02T15:24:31Z</time>
      </trkpt>
      <trkpt lat="43.14436" lon="-1.6688898">
        <time>2022-07-02T15:24:33Z</time>
      </trkpt>
      <trkpt lat="43.144283" lon="-1.668887">
        <time>2022-07-02T15:24:35Z</time>
      </trkpt>
      <trkpt lat="43.144207" lon="-1.6688818">
        <time>2022-07-02T15:24:37Z</time>
      </trkpt>
      <trkpt lat="43.144135" lon="-1.6688681">
        <time>2022-07-02T15:24:39Z</time>
      </trkpt>
      <trkpt lat="43.144062" lon="-1.6688445">
        <time>2022-07-02T15:24:41Z</time>
      </trkpt>
      <trkpt lat="43.143948" lon="-1.6688071">
        <time>2022-07-02T15:24:44Z</time>
      </trkpt>
      <trkpt lat="43.14388" lon="-1.6687714">
        <time>2022-07-02T15:24:46Z</time>
      </trkpt>
      <trkpt lat="43.143814" lon="-1.6687335">
        <time>2022-07-02T15:24:48Z</time>
      </trkpt>
      <trkpt lat="43.143745" lon="-1.6686912">
        <time>2022-07-02T15:24:50Z</time>
      </trkpt>
      <trkpt lat="43.143684" lon="-1.6686435">
        <time>2022-07-02T15:24:52Z</time>
      </trkpt>
      <trkpt lat="43.14363" lon="-1.6685941">
        <time>2022-07-02T15:24:54Z</time>
      </trkpt>
      <trkpt lat="43.143593" lon="-1.6685611">
        <time>2022-07-02T15:24:56Z</time>
      </trkpt>
      <trkpt lat="43.143505" lon="-1.6686101">
        <time>2022-07-02T15:27:37Z</time>
      </trkpt>
      <trkpt lat="43.143456" lon="-1.6685375">
        <time>2022-07-02T15:27:40Z</time>
      </trkpt>
      <trkpt lat="43.1434" lon="-1.6684588">
        <time>2022-07-02T15:27:43Z</time>
      </trkpt>
      <trkpt lat="43.143353" lon="-1.6684058">
        <time>2022-07-02T15:27:45Z</time>
      </trkpt>
      <trkpt lat="43.14331" lon="-1.6683528">
        <time>2022-07-02T15:27:47Z</time>
      </trkpt>
      <trkpt lat="43.14327" lon="-1.6682978">
        <time>2022-07-02T15:27:49Z</time>
      </trkpt>
      <trkpt lat="43.143227" lon="-1.6682428">
        <time>2022-07-02T15:27:51Z</time>
      </trkpt>
      <trkpt lat="43.14318" lon="-1.6681892">
        <time>2022-07-02T15:27:53Z</time>
      </trkpt>
      <trkpt lat="43.143143" lon="-1.6681291">
        <time>2022-07-02T15:27:55Z</time>
      </trkpt>
      <trkpt lat="43.14311" lon="-1.6680645">
        <time>2022-07-02T15:27:57Z</time>
      </trkpt>
      <trkpt lat="43.142235" lon="-1.6673658">
        <time>2022-07-02T15:28:25Z</time>
      </trkpt>
      <trkpt lat="43.141975" lon="-1.6671678">
        <time>2022-07-02T15:28:41Z</time>
      </trkpt>
      <trkpt lat="43.1419" lon="-1.6671501">
        <time>2022-07-02T15:28:44Z</time>
      </trkpt>
      <trkpt lat="43.141827" lon="-1.6671132">
        <time>2022-07-02T15:28:46Z</time>
      </trkpt>
      <trkpt lat="43.14177" lon="-1.6670711">
        <time>2022-07-02T15:28:48Z</time>
      </trkpt>
      <trkpt lat="43.14172" lon="-1.6670249">
        <time>2022-07-02T15:28:50Z</time>
      </trkpt>
      <trkpt lat="43.141666" lon="-1.6669892">
        <time>2022-07-02T15:28:52Z</time>
      </trkpt>
      <trkpt lat="43.141617" lon="-1.6669629">
        <time>2022-07-02T15:28:54Z</time>
      </trkpt>
      <trkpt lat="43.141563" lon="-1.6669315">
        <time>2022-07-02T15:28:56Z</time>
      </trkpt>
      <trkpt lat="43.141506" lon="-1.6668992">
        <time>2022-07-02T15:28:58Z</time>
      </trkpt>
      <trkpt lat="43.141453" lon="-1.6668569">
        <time>2022-07-02T15:29:00Z</time>
      </trkpt>
      <trkpt lat="43.14139" lon="-1.6668282">
        <time>2022-07-02T15:29:02Z</time>
      </trkpt>
      <trkpt lat="43.141327" lon="-1.6668038">
        <time>2022-07-02T15:29:04Z</time>
      </trkpt>
      <trkpt lat="43.14126" lon="-1.6667882">
        <time>2022-07-02T15:29:06Z</time>
      </trkpt>
      <trkpt lat="43.141197" lon="-1.6667795">
        <time>2022-07-02T15:29:08Z</time>
      </trkpt>
      <trkpt lat="43.141136" lon="-1.6667712">
        <time>2022-07-02T15:29:10Z</time>
      </trkpt>
      <trkpt lat="43.141064" lon="-1.6667725">
        <time>2022-07-02T15:29:12Z</time>
      </trkpt>
      <trkpt lat="43.140995" lon="-1.6667678">
        <time>2022-07-02T15:29:14Z</time>
      </trkpt>
      <trkpt lat="43.140923" lon="-1.6667576">
        <time>2022-07-02T15:29:16Z</time>
      </trkpt>
      <trkpt lat="43.14086" lon="-1.6667472">
        <time>2022-07-02T15:29:18Z</time>
      </trkpt>
      <trkpt lat="43.140793" lon="-1.6667439">
        <time>2022-07-02T15:29:20Z</time>
      </trkpt>
      <trkpt lat="43.14072" lon="-1.6667455">
        <time>2022-07-02T15:29:22Z</time>
      </trkpt>
      <trkpt lat="43.140648" lon="-1.6667515">
        <time>2022-07-02T15:29:24Z</time>
      </trkpt>
      <trkpt lat="43.14057" lon="-1.6667548">
        <time>2022-07-02T15:29:26Z</time>
      </trkpt>
      <trkpt lat="43.14049" lon="-1.6667559">
        <time>2022-07-02T15:29:28Z</time>
      </trkpt>
      <trkpt lat="43.140415" lon="-1.6667552">
        <time>2022-07-02T15:29:30Z</time>
      </trkpt>
      <trkpt lat="43.14034" lon="-1.6667539">
        <time>2022-07-02T15:29:32Z</time>
      </trkpt>
      <trkpt lat="43.140266" lon="-1.6667539">
        <time>2022-07-02T15:29:34Z</time>
      </trkpt>
      <trkpt lat="43.14019" lon="-1.6667442">
        <time>2022-07-02T15:29:36Z</time>
      </trkpt>
      <trkpt lat="43.140118" lon="-1.6667266">
        <time>2022-07-02T15:29:38Z</time>
      </trkpt>
      <trkpt lat="43.14004" lon="-1.6667032">
        <time>2022-07-02T15:29:40Z</time>
      </trkpt>
      <trkpt lat="43.139965" lon="-1.6666763">
        <time>2022-07-02T15:29:42Z</time>
      </trkpt>
      <trkpt lat="43.139896" lon="-1.6666416">
        <time>2022-07-02T15:29:44Z</time>
      </trkpt>
      <trkpt lat="43.139824" lon="-1.6665995">
        <time>2022-07-02T15:29:46Z</time>
      </trkpt>
      <trkpt lat="43.139713" lon="-1.6665379">
        <time>2022-07-02T15:29:49Z</time>
      </trkpt>
      <trkpt lat="43.13964" lon="-1.6664939">
        <time>2022-07-02T15:29:51Z</time>
      </trkpt>
      <trkpt lat="43.139565" lon="-1.6664499">
        <time>2022-07-02T15:29:53Z</time>
      </trkpt>
      <trkpt lat="43.139492" lon="-1.6663969">
        <time>2022-07-02T15:29:55Z</time>
      </trkpt>
      <trkpt lat="43.139427" lon="-1.6663406">
        <time>2022-07-02T15:29:57Z</time>
      </trkpt>
      <trkpt lat="43.139366" lon="-1.666287">
        <time>2022-07-02T15:29:59Z</time>
      </trkpt>
      <trkpt lat="43.139305" lon="-1.6662335">
        <time>2022-07-02T15:30:01Z</time>
      </trkpt>
      <trkpt lat="43.139248" lon="-1.6661843">
        <time>2022-07-02T15:30:03Z</time>
      </trkpt>
      <trkpt lat="43.139194" lon="-1.666137">
        <time>2022-07-02T15:30:05Z</time>
      </trkpt>
      <trkpt lat="43.139133" lon="-1.6660953">
        <time>2022-07-02T15:30:07Z</time>
      </trkpt>
      <trkpt lat="43.139072" lon="-1.6660563">
        <time>2022-07-02T15:30:09Z</time>
      </trkpt>
      <trkpt lat="43.13901" lon="-1.6660182">
        <time>2022-07-02T15:30:11Z</time>
      </trkpt>
      <trkpt lat="43.138947" lon="-1.665978">
        <time>2022-07-02T15:30:13Z</time>
      </trkpt>
      <trkpt lat="43.13888" lon="-1.6659353">
        <time>2022-07-02T15:30:15Z</time>
      </trkpt>
      <trkpt lat="43.13881" lon="-1.6658959">
        <time>2022-07-02T15:30:17Z</time>
      </trkpt>
      <trkpt lat="43.138737" lon="-1.6658636">
        <time>2022-07-02T15:30:19Z</time>
      </trkpt>
      <trkpt lat="43.138653" lon="-1.6658382">
        <time>2022-07-02T15:30:21Z</time>
      </trkpt>
      <trkpt lat="43.138573" lon="-1.6658217">
        <time>2022-07-02T15:30:23Z</time>
      </trkpt>
      <trkpt lat="43.138493" lon="-1.6658087">
        <time>2022-07-02T15:30:25Z</time>
      </trkpt>
      <trkpt lat="43.13842" lon="-1.6657976">
        <time>2022-07-02T15:30:27Z</time>
      </trkpt>
      <trkpt lat="43.138344" lon="-1.665794">
        <time>2022-07-02T15:30:29Z</time>
      </trkpt>
      <trkpt lat="43.13827" lon="-1.6657933">
        <time>2022-07-02T15:30:31Z</time>
      </trkpt>
      <trkpt lat="43.138195" lon="-1.6657946">
        <time>2022-07-02T15:30:33Z</time>
      </trkpt>
      <trkpt lat="43.13812" lon="-1.665793">
        <time>2022-07-02T15:30:35Z</time>
      </trkpt>
      <trkpt lat="43.138042" lon="-1.665791">
        <time>2022-07-02T15:30:37Z</time>
      </trkpt>
      <trkpt lat="43.137966" lon="-1.6657866">
        <time>2022-07-02T15:30:39Z</time>
      </trkpt>
      <trkpt lat="43.137882" lon="-1.6657833">
        <time>2022-07-02T15:30:41Z</time>
      </trkpt>
      <trkpt lat="43.137802" lon="-1.6657807">
        <time>2022-07-02T15:30:43Z</time>
      </trkpt>
      <trkpt lat="43.137726" lon="-1.6657773">
        <time>2022-07-02T15:30:45Z</time>
      </trkpt>
      <trkpt lat="43.137646" lon="-1.66577">
        <time>2022-07-02T15:30:47Z</time>
      </trkpt>
      <trkpt lat="43.13757" lon="-1.6657614">
        <time>2022-07-02T15:30:49Z</time>
      </trkpt>
      <trkpt lat="43.137497" lon="-1.6657447">
        <time>2022-07-02T15:30:51Z</time>
      </trkpt>
      <trkpt lat="43.137432" lon="-1.6657213">
        <time>2022-07-02T15:30:53Z</time>
      </trkpt>
      <trkpt lat="43.137363" lon="-1.6657017">
        <time>2022-07-02T15:30:55Z</time>
      </trkpt>
      <trkpt lat="43.137287" lon="-1.6656907">
        <time>2022-07-02T15:30:57Z</time>
      </trkpt>
      <trkpt lat="43.13722" lon="-1.665673">
        <time>2022-07-02T15:30:59Z</time>
      </trkpt>
      <trkpt lat="43.137142" lon="-1.6656541">
        <time>2022-07-02T15:31:01Z</time>
      </trkpt>
      <trkpt lat="43.137062" lon="-1.665642">
        <time>2022-07-02T15:31:03Z</time>
      </trkpt>
      <trkpt lat="43.136974" lon="-1.665631">
        <time>2022-07-02T15:31:05Z</time>
      </trkpt>
      <trkpt lat="43.136883" lon="-1.6656187">
        <time>2022-07-02T15:31:07Z</time>
      </trkpt>
      <trkpt lat="43.136787" lon="-1.6656127">
        <time>2022-07-02T15:31:09Z</time>
      </trkpt>
      <trkpt lat="43.136692" lon="-1.6656064">
        <time>2022-07-02T15:31:11Z</time>
      </trkpt>
      <trkpt lat="43.136646" lon="-1.6656073">
        <time>2022-07-02T15:31:12Z</time>
      </trkpt>
      <trkpt lat="43.13655" lon="-1.6656054">
        <time>2022-07-02T15:31:14Z</time>
      </trkpt>
      <trkpt lat="43.136505" lon="-1.6656057">
        <time>2022-07-02T15:31:15Z</time>
      </trkpt>
      <trkpt lat="43.136414" lon="-1.6656051">
        <time>2022-07-02T15:31:17Z</time>
      </trkpt>
      <trkpt lat="43.13632" lon="-1.6656094">
        <time>2022-07-02T15:31:19Z</time>
      </trkpt>
      <trkpt lat="43.136227" lon="-1.6656153">
        <time>2022-07-02T15:31:21Z</time>
      </trkpt>
      <trkpt lat="43.13618" lon="-1.6656201">
        <time>2022-07-02T15:31:22Z</time>
      </trkpt>
      <trkpt lat="43.136093" lon="-1.6656337">
        <time>2022-07-02T15:31:24Z</time>
      </trkpt>
      <trkpt lat="43.136017" lon="-1.6656524">
        <time>2022-07-02T15:31:26Z</time>
      </trkpt>
      <trkpt lat="43.13594" lon="-1.6656737">
        <time>2022-07-02T15:31:28Z</time>
      </trkpt>
      <trkpt lat="43.135868" lon="-1.6656983">
        <time>2022-07-02T15:31:30Z</time>
      </trkpt>
      <trkpt lat="43.1358" lon="-1.6657267">
        <time>2022-07-02T15:31:32Z</time>
      </trkpt>
      <trkpt lat="43.135735" lon="-1.6657547">
        <time>2022-07-02T15:31:34Z</time>
      </trkpt>
      <trkpt lat="43.13567" lon="-1.6657866">
        <time>2022-07-02T15:31:36Z</time>
      </trkpt>
      <trkpt lat="43.1356" lon="-1.6658247">
        <time>2022-07-02T15:31:38Z</time>
      </trkpt>
      <trkpt lat="43.135532" lon="-1.6658627">
        <time>2022-07-02T15:31:40Z</time>
      </trkpt>
      <trkpt lat="43.135464" lon="-1.665892">
        <time>2022-07-02T15:31:42Z</time>
      </trkpt>
      <trkpt lat="43.135387" lon="-1.665908">
        <time>2022-07-02T15:31:44Z</time>
      </trkpt>
      <trkpt lat="43.135315" lon="-1.6659043">
        <time>2022-07-02T15:31:46Z</time>
      </trkpt>
      <trkpt lat="43.135242" lon="-1.665885">
        <time>2022-07-02T15:31:48Z</time>
      </trkpt>
      <trkpt lat="43.13517" lon="-1.6658603">
        <time>2022-07-02T15:31:50Z</time>
      </trkpt>
      <trkpt lat="43.135067" lon="-1.6658313">
        <time>2022-07-02T15:31:53Z</time>
      </trkpt>
      <trkpt lat="43.135006" lon="-1.665824">
        <time>2022-07-02T15:31:55Z</time>
      </trkpt>
      <trkpt lat="43.134945" lon="-1.665827">
        <time>2022-07-02T15:31:57Z</time>
      </trkpt>
      <trkpt lat="43.13489" lon="-1.6658384">
        <time>2022-07-02T15:31:59Z</time>
      </trkpt>
      <trkpt lat="43.134842" lon="-1.665856">
        <time>2022-07-02T15:32:01Z</time>
      </trkpt>
      <trkpt lat="43.13477" lon="-1.665877">
        <time>2022-07-02T15:32:04Z</time>
      </trkpt>
      <trkpt lat="43.134716" lon="-1.6658874">
        <time>2022-07-02T15:32:06Z</time>
      </trkpt>
      <trkpt lat="43.13466" lon="-1.665901">
        <time>2022-07-02T15:32:08Z</time>
      </trkpt>
      <trkpt lat="43.134605" lon="-1.6659226">
        <time>2022-07-02T15:32:10Z</time>
      </trkpt>
      <trkpt lat="43.134556" lon="-1.6659313">
        <time>2022-07-02T15:32:12Z</time>
      </trkpt>
      <trkpt lat="43.134502" lon="-1.665931">
        <time>2022-07-02T15:32:14Z</time>
      </trkpt>
      <trkpt lat="43.134445" lon="-1.665938">
        <time>2022-07-02T15:32:16Z</time>
      </trkpt>
      <trkpt lat="43.13438" lon="-1.6659503">
        <time>2022-07-02T15:32:18Z</time>
      </trkpt>
      <trkpt lat="43.13431" lon="-1.665969">
        <time>2022-07-02T15:32:20Z</time>
      </trkpt>
      <trkpt lat="43.134247" lon="-1.66599">
        <time>2022-07-02T15:32:22Z</time>
      </trkpt>
      <trkpt lat="43.134186" lon="-1.6660036">
        <time>2022-07-02T15:32:24Z</time>
      </trkpt>
      <trkpt lat="43.13412" lon="-1.6660117">
        <time>2022-07-02T15:32:26Z</time>
      </trkpt>
      <trkpt lat="43.13406" lon="-1.6660123">
        <time>2022-07-02T15:32:28Z</time>
      </trkpt>
      <trkpt lat="43.134" lon="-1.6660156">
        <time>2022-07-02T15:32:30Z</time>
      </trkpt>
      <trkpt lat="43.13395" lon="-1.6660296">
        <time>2022-07-02T15:32:32Z</time>
      </trkpt>
      <trkpt lat="43.13391" lon="-1.6660492">
        <time>2022-07-02T15:32:35Z</time>
      </trkpt>
      <trkpt lat="43.133865" lon="-1.6660249">
        <time>2022-07-02T15:32:41Z</time>
      </trkpt>
      <trkpt lat="43.13381" lon="-1.666003">
        <time>2022-07-02T15:32:47Z</time>
      </trkpt>
      <trkpt lat="43.133743" lon="-1.665983">
        <time>2022-07-02T15:32:51Z</time>
      </trkpt>
      <trkpt lat="43.1337" lon="-1.6659774">
        <time>2022-07-02T15:32:54Z</time>
      </trkpt>
      <trkpt lat="43.133644" lon="-1.6659724">
        <time>2022-07-02T15:32:59Z</time>
      </trkpt>
      <trkpt lat="43.133587" lon="-1.6659703">
        <time>2022-07-02T15:33:03Z</time>
      </trkpt>
      <trkpt lat="43.133533" lon="-1.6659893">
        <time>2022-07-02T15:33:07Z</time>
      </trkpt>
      <trkpt lat="43.13348" lon="-1.666019">
        <time>2022-07-02T15:33:11Z</time>
      </trkpt>
      <trkpt lat="43.133434" lon="-1.6660703">
        <time>2022-07-02T15:33:15Z</time>
      </trkpt>
      <trkpt lat="43.133434" lon="-1.6661476">
        <time>2022-07-02T15:33:21Z</time>
      </trkpt>
      <trkpt lat="43.133427" lon="-1.6662433">
        <time>2022-07-02T15:33:25Z</time>
      </trkpt>
      <trkpt lat="43.133396" lon="-1.6663003">
        <time>2022-07-02T15:33:27Z</time>
      </trkpt>
      <trkpt lat="43.133347" lon="-1.6663849">
        <time>2022-07-02T15:33:30Z</time>
      </trkpt>
      <trkpt lat="43.133324" lon="-1.6664315">
        <time>2022-07-02T15:33:32Z</time>
      </trkpt>
      <trkpt lat="43.1333" lon="-1.6664892">
        <time>2022-07-02T15:33:35Z</time>
      </trkpt>
      <trkpt lat="43.133274" lon="-1.666554">
        <time>2022-07-02T15:33:40Z</time>
      </trkpt>
      <trkpt lat="43.133266" lon="-1.6665872">
        <time>2022-07-02T15:37:13Z</time>
      </trkpt>
      <trkpt lat="43.13332" lon="-1.6665086">
        <time>2022-07-02T15:37:18Z</time>
      </trkpt>
      <trkpt lat="43.13337" lon="-1.666426">
        <time>2022-07-02T15:37:21Z</time>
      </trkpt>
      <trkpt lat="43.133404" lon="-1.6663556">
        <time>2022-07-02T15:37:23Z</time>
      </trkpt>
      <trkpt lat="43.133423" lon="-1.6662873">
        <time>2022-07-02T15:37:25Z</time>
      </trkpt>
      <trkpt lat="43.133434" lon="-1.6662213">
        <time>2022-07-02T15:37:27Z</time>
      </trkpt>
      <trkpt lat="43.133434" lon="-1.666147">
        <time>2022-07-02T15:37:30Z</time>
      </trkpt>
      <trkpt lat="43.133423" lon="-1.6660903">
        <time>2022-07-02T15:37:36Z</time>
      </trkpt>
      <trkpt lat="43.133347" lon="-1.6661212">
        <time>2022-07-02T15:38:32Z</time>
      </trkpt>
      <trkpt lat="43.133297" lon="-1.66615">
        <time>2022-07-02T15:38:34Z</time>
      </trkpt>
      <trkpt lat="43.133236" lon="-1.6661862">
        <time>2022-07-02T15:38:36Z</time>
      </trkpt>
      <trkpt lat="43.133175" lon="-1.6662279">
        <time>2022-07-02T15:38:38Z</time>
      </trkpt>
      <trkpt lat="43.133114" lon="-1.6662723">
        <time>2022-07-02T15:38:40Z</time>
      </trkpt>
      <trkpt lat="43.133057" lon="-1.666323">
        <time>2022-07-02T15:38:42Z</time>
      </trkpt>
      <trkpt lat="43.133003" lon="-1.666379">
        <time>2022-07-02T15:38:44Z</time>
      </trkpt>
      <trkpt lat="43.132957" lon="-1.6664469">
        <time>2022-07-02T15:38:46Z</time>
      </trkpt>
      <trkpt lat="43.132915" lon="-1.6665215">
        <time>2022-07-02T15:38:48Z</time>
      </trkpt>
      <trkpt lat="43.132877" lon="-1.6666002">
        <time>2022-07-02T15:38:50Z</time>
      </trkpt>
      <trkpt lat="43.132843" lon="-1.6666782">
        <time>2022-07-02T15:38:52Z</time>
      </trkpt>
      <trkpt lat="43.1328" lon="-1.6667908">
        <time>2022-07-02T15:38:55Z</time>
      </trkpt>
      <trkpt lat="43.13277" lon="-1.6668615">
        <time>2022-07-02T15:38:57Z</time>
      </trkpt>
      <trkpt lat="43.13274" lon="-1.6669282">
        <time>2022-07-02T15:38:59Z</time>
      </trkpt>
      <trkpt lat="43.13271" lon="-1.6669999">
        <time>2022-07-02T15:39:01Z</time>
      </trkpt>
      <trkpt lat="43.13268" lon="-1.6670802">
        <time>2022-07-02T15:39:03Z</time>
      </trkpt>
      <trkpt lat="43.132645" lon="-1.6671579">
        <time>2022-07-02T15:39:05Z</time>
      </trkpt>
      <trkpt lat="43.13261" lon="-1.6672429">
        <time>2022-07-02T15:39:07Z</time>
      </trkpt>
      <trkpt lat="43.13258" lon="-1.6673305">
        <time>2022-07-02T15:39:09Z</time>
      </trkpt>
      <trkpt lat="43.13255" lon="-1.6674188">
        <time>2022-07-02T15:39:11Z</time>
      </trkpt>
      <trkpt lat="43.13253" lon="-1.6675049">
        <time>2022-07-02T15:39:13Z</time>
      </trkpt>
      <trkpt lat="43.13251" lon="-1.6675845">
        <time>2022-07-02T15:39:15Z</time>
      </trkpt>
      <trkpt lat="43.1325" lon="-1.6676632">
        <time>2022-07-02T15:39:17Z</time>
      </trkpt>
      <trkpt lat="43.13249" lon="-1.6677625">
        <time>2022-07-02T15:39:20Z</time>
      </trkpt>
      <trkpt lat="43.132484" lon="-1.6678449">
        <time>2022-07-02T15:39:22Z</time>
      </trkpt>
      <trkpt lat="43.132477" lon="-1.6679145">
        <time>2022-07-02T15:39:24Z</time>
      </trkpt>
      <trkpt lat="43.132465" lon="-1.6680051">
        <time>2022-07-02T15:39:27Z</time>
      </trkpt>
      <trkpt lat="43.132458" lon="-1.6680932">
        <time>2022-07-02T15:39:30Z</time>
      </trkpt>
      <trkpt lat="43.132446" lon="-1.6681921">
        <time>2022-07-02T15:39:33Z</time>
      </trkpt>
      <trkpt lat="43.132427" lon="-1.6683022">
        <time>2022-07-02T15:39:36Z</time>
      </trkpt>
      <trkpt lat="43.132416" lon="-1.6683775">
        <time>2022-07-02T15:39:38Z</time>
      </trkpt>
      <trkpt lat="43.132404" lon="-1.6684508">
        <time>2022-07-02T15:39:40Z</time>
      </trkpt>
      <trkpt lat="43.132393" lon="-1.6685201">
        <time>2022-07-02T15:39:42Z</time>
      </trkpt>
      <trkpt lat="43.132378" lon="-1.6685932">
        <time>2022-07-02T15:39:44Z</time>
      </trkpt>
      <trkpt lat="43.132366" lon="-1.6686745">
        <time>2022-07-02T15:39:46Z</time>
      </trkpt>
      <trkpt lat="43.13236" lon="-1.6687528">
        <time>2022-07-02T15:39:48Z</time>
      </trkpt>
      <trkpt lat="43.13235" lon="-1.6688265">
        <time>2022-07-02T15:39:50Z</time>
      </trkpt>
      <trkpt lat="43.13234" lon="-1.6688964">
        <time>2022-07-02T15:39:52Z</time>
      </trkpt>
      <trkpt lat="43.132328" lon="-1.6689612">
        <time>2022-07-02T15:39:54Z</time>
      </trkpt>
      <trkpt lat="43.132313" lon="-1.6690835">
        <time>2022-07-02T15:39:58Z</time>
      </trkpt>
      <trkpt lat="43.1323" lon="-1.6691625">
        <time>2022-07-02T15:40:01Z</time>
      </trkpt>
      <trkpt lat="43.132294" lon="-1.6692247">
        <time>2022-07-02T15:40:12Z</time>
      </trkpt>
      <trkpt lat="43.13227" lon="-1.6693544">
        <time>2022-07-02T15:40:43Z</time>
      </trkpt>
      <trkpt lat="43.132256" lon="-1.6694328">
        <time>2022-07-02T15:40:45Z</time>
      </trkpt>
      <trkpt lat="43.13224" lon="-1.6695178">
        <time>2022-07-02T15:40:47Z</time>
      </trkpt>
      <trkpt lat="43.132225" lon="-1.6696022">
        <time>2022-07-02T15:40:49Z</time>
      </trkpt>
      <trkpt lat="43.13221" lon="-1.6696844">
        <time>2022-07-02T15:40:51Z</time>
      </trkpt>
      <trkpt lat="43.13219" lon="-1.6697664">
        <time>2022-07-02T15:40:53Z</time>
      </trkpt>
      <trkpt lat="43.13217" lon="-1.669846">
        <time>2022-07-02T15:40:55Z</time>
      </trkpt>
      <trkpt lat="43.13215" lon="-1.6699247">
        <time>2022-07-02T15:40:57Z</time>
      </trkpt>
      <trkpt lat="43.132126" lon="-1.6700021">
        <time>2022-07-02T15:40:59Z</time>
      </trkpt>
      <trkpt lat="43.132103" lon="-1.6700758">
        <time>2022-07-02T15:41:01Z</time>
      </trkpt>
      <trkpt lat="43.13208" lon="-1.6701484">
        <time>2022-07-02T15:41:03Z</time>
      </trkpt>
      <trkpt lat="43.132053" lon="-1.6702231">
        <time>2022-07-02T15:41:05Z</time>
      </trkpt>
      <trkpt lat="43.132027" lon="-1.6702964">
        <time>2022-07-02T15:41:07Z</time>
      </trkpt>
      <trkpt lat="43.132004" lon="-1.6703694">
        <time>2022-07-02T15:41:09Z</time>
      </trkpt>
      <trkpt lat="43.131977" lon="-1.6704468">
        <time>2022-07-02T15:41:11Z</time>
      </trkpt>
      <trkpt lat="43.131954" lon="-1.670511">
        <time>2022-07-02T15:41:13Z</time>
      </trkpt>
      <trkpt lat="43.131935" lon="-1.6705667">
        <time>2022-07-02T15:41:15Z</time>
      </trkpt>
      <trkpt lat="43.13191" lon="-1.6706218">
        <time>2022-07-02T15:41:18Z</time>
      </trkpt>
      <trkpt lat="43.13186" lon="-1.67058">
        <time>2022-07-02T15:41:23Z</time>
      </trkpt>
      <trkpt lat="43.131824" lon="-1.6705">
        <time>2022-07-02T15:41:27Z</time>
      </trkpt>
      <trkpt lat="43.131805" lon="-1.6704384">
        <time>2022-07-02T15:41:30Z</time>
      </trkpt>
      <trkpt lat="43.13178" lon="-1.6703668">
        <time>2022-07-02T15:41:34Z</time>
      </trkpt>
      <trkpt lat="43.131756" lon="-1.6703707">
        <time>2022-07-02T15:41:40Z</time>
      </trkpt>
      <trkpt lat="43.13184" lon="-1.6703807">
        <time>2022-07-02T15:42:38Z</time>
      </trkpt>
      <trkpt lat="43.13182" lon="-1.6701647">
        <time>2022-07-02T15:43:09Z</time>
      </trkpt>
      <trkpt lat="43.131767" lon="-1.6700941">
        <time>2022-07-02T15:43:12Z</time>
      </trkpt>
      <trkpt lat="43.13173" lon="-1.6700515">
        <time>2022-07-02T15:43:14Z</time>
      </trkpt>
      <trkpt lat="43.131687" lon="-1.6699824">
        <time>2022-07-02T15:43:17Z</time>
      </trkpt>
      <trkpt lat="43.13166" lon="-1.6699058">
        <time>2022-07-02T15:43:20Z</time>
      </trkpt>
      <trkpt lat="43.13164" lon="-1.6698081">
        <time>2022-07-02T15:43:23Z</time>
      </trkpt>
      <trkpt lat="43.131638" lon="-1.669697">
        <time>2022-07-02T15:43:26Z</time>
      </trkpt>
      <trkpt lat="43.131634" lon="-1.6696202">
        <time>2022-07-02T15:43:28Z</time>
      </trkpt>
      <trkpt lat="43.13162" lon="-1.6695567">
        <time>2022-07-02T15:43:30Z</time>
      </trkpt>
      <trkpt lat="43.131577" lon="-1.6695144">
        <time>2022-07-02T15:43:33Z</time>
      </trkpt>
      <trkpt lat="43.13151" lon="-1.6695005">
        <time>2022-07-02T15:43:36Z</time>
      </trkpt>
      <trkpt lat="43.13145" lon="-1.6694775">
        <time>2022-07-02T15:43:39Z</time>
      </trkpt>
      <trkpt lat="43.131397" lon="-1.6694568">
        <time>2022-07-02T15:43:42Z</time>
      </trkpt>
      <trkpt lat="43.131348" lon="-1.6694518">
        <time>2022-07-02T15:43:45Z</time>
      </trkpt>
      <trkpt lat="43.131294" lon="-1.6694405">
        <time>2022-07-02T15:43:50Z</time>
      </trkpt>
      <trkpt lat="43.13134" lon="-1.6694511">
        <time>2022-07-02T15:44:10Z</time>
      </trkpt>
      <trkpt lat="43.1314" lon="-1.6694665">
        <time>2022-07-02T15:44:13Z</time>
      </trkpt>
      <trkpt lat="43.13145" lon="-1.669478">
        <time>2022-07-02T15:44:16Z</time>
      </trkpt>
      <trkpt lat="43.131504" lon="-1.6695055">
        <time>2022-07-02T15:44:21Z</time>
      </trkpt>
      <trkpt lat="43.13154" lon="-1.6695638">
        <time>2022-07-02T15:44:24Z</time>
      </trkpt>
      <trkpt lat="43.131554" lon="-1.6696601">
        <time>2022-07-02T15:44:27Z</time>
      </trkpt>
      <trkpt lat="43.131565" lon="-1.6697341">
        <time>2022-07-02T15:44:29Z</time>
      </trkpt>
      <trkpt lat="43.131577" lon="-1.6698117">
        <time>2022-07-02T15:44:31Z</time>
      </trkpt>
      <trkpt lat="43.13158" lon="-1.6698908">
        <time>2022-07-02T15:44:33Z</time>
      </trkpt>
      <trkpt lat="43.13157" lon="-1.6699744">
        <time>2022-07-02T15:44:35Z</time>
      </trkpt>
      <trkpt lat="43.131577" lon="-1.670058">
        <time>2022-07-02T15:44:37Z</time>
      </trkpt>
      <trkpt lat="43.131596" lon="-1.6701398">
        <time>2022-07-02T15:44:39Z</time>
      </trkpt>
      <trkpt lat="43.131622" lon="-1.670217">
        <time>2022-07-02T15:44:41Z</time>
      </trkpt>
      <trkpt lat="43.131653" lon="-1.6702914">
        <time>2022-07-02T15:44:43Z</time>
      </trkpt>
      <trkpt lat="43.131695" lon="-1.6703597">
        <time>2022-07-02T15:44:45Z</time>
      </trkpt>
      <trkpt lat="43.131737" lon="-1.6704254">
        <time>2022-07-02T15:44:47Z</time>
      </trkpt>
      <trkpt lat="43.13178" lon="-1.670498">
        <time>2022-07-02T15:44:49Z</time>
      </trkpt>
      <trkpt lat="43.131813" lon="-1.6705747">
        <time>2022-07-02T15:44:51Z</time>
      </trkpt>
      <trkpt lat="43.131836" lon="-1.6706563">
        <time>2022-07-02T15:44:53Z</time>
      </trkpt>
      <trkpt lat="43.131847" lon="-1.6707404">
        <time>2022-07-02T15:44:55Z</time>
      </trkpt>
      <trkpt lat="43.131844" lon="-1.670832">
        <time>2022-07-02T15:44:57Z</time>
      </trkpt>
      <trkpt lat="43.13181" lon="-1.6709673">
        <time>2022-07-02T15:45:00Z</time>
      </trkpt>
      <trkpt lat="43.131783" lon="-1.67104">
        <time>2022-07-02T15:45:02Z</time>
      </trkpt>
      <trkpt lat="43.131756" lon="-1.6711087">
        <time>2022-07-02T15:45:04Z</time>
      </trkpt>
      <trkpt lat="43.13172" lon="-1.6711763">
        <time>2022-07-02T15:45:06Z</time>
      </trkpt>
      <trkpt lat="43.131683" lon="-1.6712509">
        <time>2022-07-02T15:45:08Z</time>
      </trkpt>
      <trkpt lat="43.13164" lon="-1.6713207">
        <time>2022-07-02T15:45:10Z</time>
      </trkpt>
      <trkpt lat="43.131596" lon="-1.6713799">
        <time>2022-07-02T15:45:12Z</time>
      </trkpt>
      <trkpt lat="43.131557" lon="-1.6714339">
        <time>2022-07-02T15:45:14Z</time>
      </trkpt>
      <trkpt lat="43.131508" lon="-1.6714916">
        <time>2022-07-02T15:45:17Z</time>
      </trkpt>
      <trkpt lat="43.131454" lon="-1.6715053">
        <time>2022-07-02T15:45:20Z</time>
      </trkpt>
      <trkpt lat="43.131382" lon="-1.6714929">
        <time>2022-07-02T15:45:23Z</time>
      </trkpt>
      <trkpt lat="43.131325" lon="-1.6714683">
        <time>2022-07-02T15:45:25Z</time>
      </trkpt>
      <trkpt lat="43.13126" lon="-1.6714274">
        <time>2022-07-02T15:45:27Z</time>
      </trkpt>
      <trkpt lat="43.13119" lon="-1.671378">
        <time>2022-07-02T15:45:29Z</time>
      </trkpt>
      <trkpt lat="43.131126" lon="-1.671321">
        <time>2022-07-02T15:45:31Z</time>
      </trkpt>
      <trkpt lat="43.13107" lon="-1.6712567">
        <time>2022-07-02T15:45:33Z</time>
      </trkpt>
      <trkpt lat="43.13102" lon="-1.6711903">
        <time>2022-07-02T15:45:35Z</time>
      </trkpt>
      <trkpt lat="43.130978" lon="-1.6711253">
        <time>2022-07-02T15:45:37Z</time>
      </trkpt>
      <trkpt lat="43.130936" lon="-1.671063">
        <time>2022-07-02T15:45:39Z</time>
      </trkpt>
      <trkpt lat="43.1309" lon="-1.6709996">
        <time>2022-07-02T15:45:41Z</time>
      </trkpt>
      <trkpt lat="43.130875" lon="-1.6709434">
        <time>2022-07-02T15:45:43Z</time>
      </trkpt>
      <trkpt lat="43.13085" lon="-1.6708633">
        <time>2022-07-02T15:45:46Z</time>
      </trkpt>
      <trkpt lat="43.130848" lon="-1.670813">
        <time>2022-07-02T15:45:49Z</time>
      </trkpt>
      <trkpt lat="43.130802" lon="-1.6708733">
        <time>2022-07-02T15:47:11Z</time>
      </trkpt>
      <trkpt lat="43.130817" lon="-1.670811">
        <time>2022-07-02T15:47:15Z</time>
      </trkpt>
      <trkpt lat="43.13083" lon="-1.670814">
        <time>2022-07-02T15:49:45Z</time>
      </trkpt>
      <trkpt lat="43.130882" lon="-1.6708274">
        <time>2022-07-02T15:57:52Z</time>
      </trkpt>
      <trkpt lat="43.130905" lon="-1.6708924">
        <time>2022-07-02T15:57:56Z</time>
      </trkpt>
      <trkpt lat="43.13097" lon="-1.6709564">
        <time>2022-07-02T15:58:14Z</time>
      </trkpt>
      <trkpt lat="43.13101" lon="-1.6710143">
        <time>2022-07-02T15:58:18Z</time>
      </trkpt>
      <trkpt lat="43.131042" lon="-1.6710793">
        <time>2022-07-02T15:58:21Z</time>
      </trkpt>
      <trkpt lat="43.131092" lon="-1.6711533">
        <time>2022-07-02T15:58:24Z</time>
      </trkpt>
      <trkpt lat="43.131126" lon="-1.6712">
        <time>2022-07-02T15:58:26Z</time>
      </trkpt>
      <trkpt lat="43.13118" lon="-1.6712646">
        <time>2022-07-02T15:58:29Z</time>
      </trkpt>
      <trkpt lat="43.131237" lon="-1.6713133">
        <time>2022-07-02T15:58:32Z</time>
      </trkpt>
      <trkpt lat="43.1313" lon="-1.6713517">
        <time>2022-07-02T15:58:35Z</time>
      </trkpt>
      <trkpt lat="43.13137" lon="-1.671386">
        <time>2022-07-02T15:58:38Z</time>
      </trkpt>
      <trkpt lat="43.13143" lon="-1.671404">
        <time>2022-07-02T15:58:41Z</time>
      </trkpt>
      <trkpt lat="43.1315" lon="-1.6714033">
        <time>2022-07-02T15:58:44Z</time>
      </trkpt>
      <trkpt lat="43.131577" lon="-1.671374">
        <time>2022-07-02T15:58:47Z</time>
      </trkpt>
      <trkpt lat="43.131622" lon="-1.6713353">
        <time>2022-07-02T15:58:49Z</time>
      </trkpt>
      <trkpt lat="43.13167" lon="-1.6712843">
        <time>2022-07-02T15:58:51Z</time>
      </trkpt>
      <trkpt lat="43.131714" lon="-1.6712227">
        <time>2022-07-02T15:58:53Z</time>
      </trkpt>
      <trkpt lat="43.131752" lon="-1.6711527">
        <time>2022-07-02T15:58:55Z</time>
      </trkpt>
      <trkpt lat="43.131786" lon="-1.671077">
        <time>2022-07-02T15:58:57Z</time>
      </trkpt>
      <trkpt lat="43.13182" lon="-1.671004">
        <time>2022-07-02T15:58:59Z</time>
      </trkpt>
      <trkpt lat="43.13185" lon="-1.6709256">
        <time>2022-07-02T15:59:01Z</time>
      </trkpt>
      <trkpt lat="43.13187" lon="-1.6708397">
        <time>2022-07-02T15:59:03Z</time>
      </trkpt>
      <trkpt lat="43.13189" lon="-1.6707484">
        <time>2022-07-02T15:59:05Z</time>
      </trkpt>
      <trkpt lat="43.131916" lon="-1.6706147">
        <time>2022-07-02T15:59:08Z</time>
      </trkpt>
      <trkpt lat="43.13194" lon="-1.6705277">
        <time>2022-07-02T15:59:10Z</time>
      </trkpt>
      <trkpt lat="43.131966" lon="-1.6704366">
        <time>2022-07-02T15:59:12Z</time>
      </trkpt>
      <trkpt lat="43.132" lon="-1.6703436">
        <time>2022-07-02T15:59:14Z</time>
      </trkpt>
      <trkpt lat="43.132034" lon="-1.6702557">
        <time>2022-07-02T15:59:16Z</time>
      </trkpt>
      <trkpt lat="43.13207" lon="-1.670159">
        <time>2022-07-02T15:59:18Z</time>
      </trkpt>
      <trkpt lat="43.1321" lon="-1.670048">
        <time>2022-07-02T15:59:20Z</time>
      </trkpt>
      <trkpt lat="43.13213" lon="-1.6699377">
        <time>2022-07-02T15:59:22Z</time>
      </trkpt>
      <trkpt lat="43.132164" lon="-1.6698284">
        <time>2022-07-02T15:59:24Z</time>
      </trkpt>
      <trkpt lat="43.13219" lon="-1.6697187">
        <time>2022-07-02T15:59:26Z</time>
      </trkpt>
      <trkpt lat="43.13221" lon="-1.6696111">
        <time>2022-07-02T15:59:28Z</time>
      </trkpt>
      <trkpt lat="43.13223" lon="-1.6695044">
        <time>2022-07-02T15:59:30Z</time>
      </trkpt>
      <trkpt lat="43.132248" lon="-1.6694018">
        <time>2022-07-02T15:59:32Z</time>
      </trkpt>
      <trkpt lat="43.13227" lon="-1.6692934">
        <time>2022-07-02T15:59:34Z</time>
      </trkpt>
      <trkpt lat="43.132294" lon="-1.6691847">
        <time>2022-07-02T15:59:36Z</time>
      </trkpt>
      <trkpt lat="43.132313" lon="-1.6690764">
        <time>2022-07-02T15:59:38Z</time>
      </trkpt>
      <trkpt lat="43.13234" lon="-1.6689677">
        <time>2022-07-02T15:59:40Z</time>
      </trkpt>
      <trkpt lat="43.132362" lon="-1.6688594">
        <time>2022-07-02T15:59:42Z</time>
      </trkpt>
      <trkpt lat="43.13238" lon="-1.6687504">
        <time>2022-07-02T15:59:44Z</time>
      </trkpt>
      <trkpt lat="43.132404" lon="-1.6686404">
        <time>2022-07-02T15:59:46Z</time>
      </trkpt>
      <trkpt lat="43.132423" lon="-1.6685288">
        <time>2022-07-02T15:59:48Z</time>
      </trkpt>
      <trkpt lat="43.132442" lon="-1.6684088">
        <time>2022-07-02T15:59:50Z</time>
      </trkpt>
      <trkpt lat="43.132458" lon="-1.6682965">
        <time>2022-07-02T15:59:52Z</time>
      </trkpt>
      <trkpt lat="43.13247" lon="-1.6681805">
        <time>2022-07-02T15:59:54Z</time>
      </trkpt>
      <trkpt lat="43.13248" lon="-1.6680571">
        <time>2022-07-02T15:59:56Z</time>
      </trkpt>
      <trkpt lat="43.132492" lon="-1.6679324">
        <time>2022-07-02T15:59:58Z</time>
      </trkpt>
      <trkpt lat="43.1325" lon="-1.66787">
        <time>2022-07-02T15:59:59Z</time>
      </trkpt>
      <trkpt lat="43.13251" lon="-1.6677485">
        <time>2022-07-02T16:00:01Z</time>
      </trkpt>
      <trkpt lat="43.132523" lon="-1.6676275">
        <time>2022-07-02T16:00:03Z</time>
      </trkpt>
      <trkpt lat="43.132538" lon="-1.6675078">
        <time>2022-07-02T16:00:05Z</time>
      </trkpt>
      <trkpt lat="43.132565" lon="-1.6673911">
        <time>2022-07-02T16:00:07Z</time>
      </trkpt>
      <trkpt lat="43.132603" lon="-1.6672778">
        <time>2022-07-02T16:00:09Z</time>
      </trkpt>
      <trkpt lat="43.132652" lon="-1.6671698">
        <time>2022-07-02T16:00:11Z</time>
      </trkpt>
      <trkpt lat="43.132706" lon="-1.6670651">
        <time>2022-07-02T16:00:13Z</time>
      </trkpt>
      <trkpt lat="43.13276" lon="-1.6669551">
        <time>2022-07-02T16:00:15Z</time>
      </trkpt>
      <trkpt lat="43.132805" lon="-1.6668417">
        <time>2022-07-02T16:00:17Z</time>
      </trkpt>
      <trkpt lat="43.132824" lon="-1.6667835">
        <time>2022-07-02T16:00:18Z</time>
      </trkpt>
      <trkpt lat="43.13286" lon="-1.6666708">
        <time>2022-07-02T16:00:20Z</time>
      </trkpt>
      <trkpt lat="43.132896" lon="-1.6665602">
        <time>2022-07-02T16:00:22Z</time>
      </trkpt>
      <trkpt lat="43.132946" lon="-1.6664615">
        <time>2022-07-02T16:00:24Z</time>
      </trkpt>
      <trkpt lat="43.133003" lon="-1.6663802">
        <time>2022-07-02T16:00:26Z</time>
      </trkpt>
      <trkpt lat="43.133064" lon="-1.6663135">
        <time>2022-07-02T16:00:28Z</time>
      </trkpt>
      <trkpt lat="43.133125" lon="-1.6662495">
        <time>2022-07-02T16:00:30Z</time>
      </trkpt>
      <trkpt lat="43.133186" lon="-1.6661875">
        <time>2022-07-02T16:00:32Z</time>
      </trkpt>
      <trkpt lat="43.13324" lon="-1.6661335">
        <time>2022-07-02T16:00:34Z</time>
      </trkpt>
      <trkpt lat="43.13329" lon="-1.6660818">
        <time>2022-07-02T16:00:36Z</time>
      </trkpt>
      <trkpt lat="43.133343" lon="-1.6660309">
        <time>2022-07-02T16:00:38Z</time>
      </trkpt>
      <trkpt lat="43.133392" lon="-1.6659795">
        <time>2022-07-02T16:00:40Z</time>
      </trkpt>
      <trkpt lat="43.133446" lon="-1.6659312">
        <time>2022-07-02T16:00:42Z</time>
      </trkpt>
      <trkpt lat="43.133503" lon="-1.6658841">
        <time>2022-07-02T16:00:44Z</time>
      </trkpt>
      <trkpt lat="43.13356" lon="-1.6658345">
        <time>2022-07-02T16:00:46Z</time>
      </trkpt>
      <trkpt lat="43.133617" lon="-1.6657811">
        <time>2022-07-02T16:00:48Z</time>
      </trkpt>
      <trkpt lat="43.133675" lon="-1.6657249">
        <time>2022-07-02T16:00:50Z</time>
      </trkpt>
      <trkpt lat="43.133728" lon="-1.6656682">
        <time>2022-07-02T16:00:52Z</time>
      </trkpt>
      <trkpt lat="43.133785" lon="-1.6656119">
        <time>2022-07-02T16:00:54Z</time>
      </trkpt>
      <trkpt lat="43.133842" lon="-1.6655529">
        <time>2022-07-02T16:00:56Z</time>
      </trkpt>
      <trkpt lat="43.133896" lon="-1.6654896">
        <time>2022-07-02T16:00:58Z</time>
      </trkpt>
      <trkpt lat="43.13395" lon="-1.6654242">
        <time>2022-07-02T16:01:00Z</time>
      </trkpt>
      <trkpt lat="43.134" lon="-1.6653615">
        <time>2022-07-02T16:01:02Z</time>
      </trkpt>
      <trkpt lat="43.13405" lon="-1.6653023">
        <time>2022-07-02T16:01:04Z</time>
      </trkpt>
      <trkpt lat="43.134098" lon="-1.6652466">
        <time>2022-07-02T16:01:06Z</time>
      </trkpt>
      <trkpt lat="43.13415" lon="-1.6651932">
        <time>2022-07-02T16:01:08Z</time>
      </trkpt>
      <trkpt lat="43.134224" lon="-1.6651152">
        <time>2022-07-02T16:01:11Z</time>
      </trkpt>
      <trkpt lat="43.13427" lon="-1.6650625">
        <time>2022-07-02T16:01:13Z</time>
      </trkpt>
      <trkpt lat="43.134304" lon="-1.665008">
        <time>2022-07-02T16:01:15Z</time>
      </trkpt>
      <trkpt lat="43.13434" lon="-1.6649523">
        <time>2022-07-02T16:01:17Z</time>
      </trkpt>
      <trkpt lat="43.13439" lon="-1.6648732">
        <time>2022-07-02T16:01:20Z</time>
      </trkpt>
      <trkpt lat="43.13443" lon="-1.6648163">
        <time>2022-07-02T16:01:22Z</time>
      </trkpt>
      <trkpt lat="43.134476" lon="-1.6647582">
        <time>2022-07-02T16:01:24Z</time>
      </trkpt>
      <trkpt lat="43.134514" lon="-1.6646992">
        <time>2022-07-02T16:01:26Z</time>
      </trkpt>
      <trkpt lat="43.13455" lon="-1.664632">
        <time>2022-07-02T16:01:28Z</time>
      </trkpt>
      <trkpt lat="43.134567" lon="-1.6645622">
        <time>2022-07-02T16:01:30Z</time>
      </trkpt>
      <trkpt lat="43.134563" lon="-1.6644666">
        <time>2022-07-02T16:01:33Z</time>
      </trkpt>
      <trkpt lat="43.134533" lon="-1.6643876">
        <time>2022-07-02T16:01:36Z</time>
      </trkpt>
      <trkpt lat="43.13449" lon="-1.664321">
        <time>2022-07-02T16:01:39Z</time>
      </trkpt>
      <trkpt lat="43.134434" lon="-1.6642499">
        <time>2022-07-02T16:01:43Z</time>
      </trkpt>
      <trkpt lat="43.134396" lon="-1.6641929">
        <time>2022-07-02T16:01:45Z</time>
      </trkpt>
      <trkpt lat="43.13436" lon="-1.6641423">
        <time>2022-07-02T16:01:47Z</time>
      </trkpt>
      <trkpt lat="43.13432" lon="-1.6640669">
        <time>2022-07-02T16:01:50Z</time>
      </trkpt>
      <trkpt lat="43.134274" lon="-1.6639899">
        <time>2022-07-02T16:01:53Z</time>
      </trkpt>
      <trkpt lat="43.134228" lon="-1.6639149">
        <time>2022-07-02T16:01:56Z</time>
      </trkpt>
      <trkpt lat="43.134186" lon="-1.6638383">
        <time>2022-07-02T16:01:59Z</time>
      </trkpt>
      <trkpt lat="43.13416" lon="-1.6637876">
        <time>2022-07-02T16:02:01Z</time>
      </trkpt>
      <trkpt lat="43.134117" lon="-1.6637046">
        <time>2022-07-02T16:02:04Z</time>
      </trkpt>
      <trkpt lat="43.13409" lon="-1.6636453">
        <time>2022-07-02T16:02:06Z</time>
      </trkpt>
      <trkpt lat="43.134064" lon="-1.663585">
        <time>2022-07-02T16:02:08Z</time>
      </trkpt>
      <trkpt lat="43.13404" lon="-1.66352">
        <time>2022-07-02T16:02:10Z</time>
      </trkpt>
      <trkpt lat="43.134018" lon="-1.6634107">
        <time>2022-07-02T16:02:13Z</time>
      </trkpt>
      <trkpt lat="43.134" lon="-1.66334">
        <time>2022-07-02T16:02:15Z</time>
      </trkpt>
      <trkpt lat="43.133987" lon="-1.6632676">
        <time>2022-07-02T16:02:17Z</time>
      </trkpt>
      <trkpt lat="43.133972" lon="-1.6631887">
        <time>2022-07-02T16:02:19Z</time>
      </trkpt>
      <trkpt lat="43.133953" lon="-1.6631023">
        <time>2022-07-02T16:02:21Z</time>
      </trkpt>
      <trkpt lat="43.13394" lon="-1.663008">
        <time>2022-07-02T16:02:23Z</time>
      </trkpt>
      <trkpt lat="43.13393" lon="-1.6629096">
        <time>2022-07-02T16:02:25Z</time>
      </trkpt>
      <trkpt lat="43.133923" lon="-1.6628083">
        <time>2022-07-02T16:02:27Z</time>
      </trkpt>
      <trkpt lat="43.133907" lon="-1.662704">
        <time>2022-07-02T16:02:29Z</time>
      </trkpt>
      <trkpt lat="43.133896" lon="-1.6626014">
        <time>2022-07-02T16:02:31Z</time>
      </trkpt>
      <trkpt lat="43.13388" lon="-1.6625004">
        <time>2022-07-02T16:02:33Z</time>
      </trkpt>
      <trkpt lat="43.13386" lon="-1.6624013">
        <time>2022-07-02T16:02:35Z</time>
      </trkpt>
      <trkpt lat="43.133842" lon="-1.6623057">
        <time>2022-07-02T16:02:37Z</time>
      </trkpt>
      <trkpt lat="43.13382" lon="-1.6622117">
        <time>2022-07-02T16:02:39Z</time>
      </trkpt>
      <trkpt lat="43.133797" lon="-1.662119">
        <time>2022-07-02T16:02:41Z</time>
      </trkpt>
      <trkpt lat="43.133774" lon="-1.6620281">
        <time>2022-07-02T16:02:43Z</time>
      </trkpt>
      <trkpt lat="43.13375" lon="-1.6619374">
        <time>2022-07-02T16:02:45Z</time>
      </trkpt>
      <trkpt lat="43.133728" lon="-1.6618483">
        <time>2022-07-02T16:02:47Z</time>
      </trkpt>
      <trkpt lat="43.13371" lon="-1.66176">
        <time>2022-07-02T16:02:49Z</time>
      </trkpt>
      <trkpt lat="43.133686" lon="-1.6616727">
        <time>2022-07-02T16:02:51Z</time>
      </trkpt>
      <trkpt lat="43.13367" lon="-1.6615866">
        <time>2022-07-02T16:02:53Z</time>
      </trkpt>
      <trkpt lat="43.13365" lon="-1.6615053">
        <time>2022-07-02T16:02:55Z</time>
      </trkpt>
      <trkpt lat="43.133633" lon="-1.661427">
        <time>2022-07-02T16:02:57Z</time>
      </trkpt>
      <trkpt lat="43.133614" lon="-1.66135">
        <time>2022-07-02T16:02:59Z</time>
      </trkpt>
      <trkpt lat="43.133595" lon="-1.66127">
        <time>2022-07-02T16:03:01Z</time>
      </trkpt>
      <trkpt lat="43.13358" lon="-1.6611841">
        <time>2022-07-02T16:03:03Z</time>
      </trkpt>
      <trkpt lat="43.13356" lon="-1.6610961">
        <time>2022-07-02T16:03:05Z</time>
      </trkpt>
      <trkpt lat="43.133533" lon="-1.6610047">
        <time>2022-07-02T16:03:07Z</time>
      </trkpt>
      <trkpt lat="43.133503" lon="-1.66091">
        <time>2022-07-02T16:03:09Z</time>
      </trkpt>
      <trkpt lat="43.133465" lon="-1.6608181">
        <time>2022-07-02T16:03:11Z</time>
      </trkpt>
      <trkpt lat="43.133423" lon="-1.6607383">
        <time>2022-07-02T16:03:13Z</time>
      </trkpt>
      <trkpt lat="43.133377" lon="-1.6606567">
        <time>2022-07-02T16:03:15Z</time>
      </trkpt>
      <trkpt lat="43.133335" lon="-1.66058">
        <time>2022-07-02T16:03:17Z</time>
      </trkpt>
      <trkpt lat="43.133293" lon="-1.6605047">
        <time>2022-07-02T16:03:19Z</time>
      </trkpt>
      <trkpt lat="43.13325" lon="-1.6604294">
        <time>2022-07-02T16:03:21Z</time>
      </trkpt>
      <trkpt lat="43.1332" lon="-1.6603568">
        <time>2022-07-02T16:03:23Z</time>
      </trkpt>
      <trkpt lat="43.133156" lon="-1.6602838">
        <time>2022-07-02T16:03:25Z</time>
      </trkpt>
      <trkpt lat="43.133118" lon="-1.6602124">
        <time>2022-07-02T16:03:27Z</time>
      </trkpt>
      <trkpt lat="43.13307" lon="-1.6601365">
        <time>2022-07-02T16:03:29Z</time>
      </trkpt>
      <trkpt lat="43.133034" lon="-1.6600504">
        <time>2022-07-02T16:03:31Z</time>
      </trkpt>
      <trkpt lat="43.132988" lon="-1.6599624">
        <time>2022-07-02T16:03:33Z</time>
      </trkpt>
      <trkpt lat="43.132942" lon="-1.6598707">
        <time>2022-07-02T16:03:35Z</time>
      </trkpt>
      <trkpt lat="43.132896" lon="-1.6597798">
        <time>2022-07-02T16:03:37Z</time>
      </trkpt>
      <trkpt lat="43.132847" lon="-1.6596868">
        <time>2022-07-02T16:03:39Z</time>
      </trkpt>
      <trkpt lat="43.1328" lon="-1.6595898">
        <time>2022-07-02T16:03:41Z</time>
      </trkpt>
      <trkpt lat="43.132755" lon="-1.6594907">
        <time>2022-07-02T16:03:43Z</time>
      </trkpt>
      <trkpt lat="43.13271" lon="-1.6593904">
        <time>2022-07-02T16:03:45Z</time>
      </trkpt>
      <trkpt lat="43.132664" lon="-1.6592888">
        <time>2022-07-02T16:03:47Z</time>
      </trkpt>
      <trkpt lat="43.132618" lon="-1.6591895">
        <time>2022-07-02T16:03:49Z</time>
      </trkpt>
      <trkpt lat="43.132572" lon="-1.6590935">
        <time>2022-07-02T16:03:51Z</time>
      </trkpt>
      <trkpt lat="43.132526" lon="-1.6589965">
        <time>2022-07-02T16:03:53Z</time>
      </trkpt>
      <trkpt lat="43.13248" lon="-1.6588991">
        <time>2022-07-02T16:03:55Z</time>
      </trkpt>
      <trkpt lat="43.132435" lon="-1.6588005">
        <time>2022-07-02T16:03:57Z</time>
      </trkpt>
      <trkpt lat="43.13239" lon="-1.6586992">
        <time>2022-07-02T16:03:59Z</time>
      </trkpt>
      <trkpt lat="43.13235" lon="-1.6585928">
        <time>2022-07-02T16:04:01Z</time>
      </trkpt>
      <trkpt lat="43.132313" lon="-1.6584808">
        <time>2022-07-02T16:04:03Z</time>
      </trkpt>
      <trkpt lat="43.132294" lon="-1.6584225">
        <time>2022-07-02T16:04:04Z</time>
      </trkpt>
      <trkpt lat="43.13226" lon="-1.6583008">
        <time>2022-07-02T16:04:06Z</time>
      </trkpt>
      <trkpt lat="43.13222" lon="-1.6581755">
        <time>2022-07-02T16:04:08Z</time>
      </trkpt>
      <trkpt lat="43.13218" lon="-1.6580461">
        <time>2022-07-02T16:04:10Z</time>
      </trkpt>
      <trkpt lat="43.132164" lon="-1.6579808">
        <time>2022-07-02T16:04:11Z</time>
      </trkpt>
      <trkpt lat="43.132145" lon="-1.6579155">
        <time>2022-07-02T16:04:12Z</time>
      </trkpt>
      <trkpt lat="43.13211" lon="-1.6577855">
        <time>2022-07-02T16:04:14Z</time>
      </trkpt>
      <trkpt lat="43.132076" lon="-1.6576551">
        <time>2022-07-02T16:04:16Z</time>
      </trkpt>
      <trkpt lat="43.13206" lon="-1.6575888">
        <time>2022-07-02T16:04:17Z</time>
      </trkpt>
      <trkpt lat="43.13203" lon="-1.6574528">
        <time>2022-07-02T16:04:19Z</time>
      </trkpt>
      <trkpt lat="43.132015" lon="-1.6573845">
        <time>2022-07-02T16:04:20Z</time>
      </trkpt>
      <trkpt lat="43.132004" lon="-1.6573172">
        <time>2022-07-02T16:04:21Z</time>
      </trkpt>
      <trkpt lat="43.131973" lon="-1.6571845">
        <time>2022-07-02T16:04:23Z</time>
      </trkpt>
      <trkpt lat="43.13196" lon="-1.6571178">
        <time>2022-07-02T16:04:24Z</time>
      </trkpt>
      <trkpt lat="43.13193" lon="-1.6569865">
        <time>2022-07-02T16:04:26Z</time>
      </trkpt>
      <trkpt lat="43.1319" lon="-1.6568562">
        <time>2022-07-02T16:04:28Z</time>
      </trkpt>
      <trkpt lat="43.131874" lon="-1.6567272">
        <time>2022-07-02T16:04:30Z</time>
      </trkpt>
      <trkpt lat="43.131847" lon="-1.6566032">
        <time>2022-07-02T16:04:32Z</time>
      </trkpt>
      <trkpt lat="43.131824" lon="-1.6564835">
        <time>2022-07-02T16:04:34Z</time>
      </trkpt>
      <trkpt lat="43.131798" lon="-1.6563629">
        <time>2022-07-02T16:04:36Z</time>
      </trkpt>
      <trkpt lat="43.131775" lon="-1.6562473">
        <time>2022-07-02T16:04:38Z</time>
      </trkpt>
      <trkpt lat="43.13175" lon="-1.6561393">
        <time>2022-07-02T16:04:40Z</time>
      </trkpt>
      <trkpt lat="43.131725" lon="-1.6560379">
        <time>2022-07-02T16:04:42Z</time>
      </trkpt>
      <trkpt lat="43.131702" lon="-1.6559412">
        <time>2022-07-02T16:04:44Z</time>
      </trkpt>
      <trkpt lat="43.131683" lon="-1.6558518">
        <time>2022-07-02T16:04:46Z</time>
      </trkpt>
      <trkpt lat="43.131664" lon="-1.6557649">
        <time>2022-07-02T16:04:48Z</time>
      </trkpt>
      <trkpt lat="43.13165" lon="-1.6556752">
        <time>2022-07-02T16:04:50Z</time>
      </trkpt>
      <trkpt lat="43.13163" lon="-1.6555839">
        <time>2022-07-02T16:04:52Z</time>
      </trkpt>
      <trkpt lat="43.131615" lon="-1.6554855">
        <time>2022-07-02T16:04:54Z</time>
      </trkpt>
      <trkpt lat="43.131603" lon="-1.6553836">
        <time>2022-07-02T16:04:56Z</time>
      </trkpt>
      <trkpt lat="43.131588" lon="-1.6552802">
        <time>2022-07-02T16:04:58Z</time>
      </trkpt>
      <trkpt lat="43.131577" lon="-1.6551769">
        <time>2022-07-02T16:05:00Z</time>
      </trkpt>
      <trkpt lat="43.13157" lon="-1.6550766">
        <time>2022-07-02T16:05:02Z</time>
      </trkpt>
      <trkpt lat="43.13156" lon="-1.6549772">
        <time>2022-07-02T16:05:04Z</time>
      </trkpt>
      <trkpt lat="43.131554" lon="-1.6548772">
        <time>2022-07-02T16:05:06Z</time>
      </trkpt>
      <trkpt lat="43.131542" lon="-1.6547753">
        <time>2022-07-02T16:05:08Z</time>
      </trkpt>
      <trkpt lat="43.131527" lon="-1.654681">
        <time>2022-07-02T16:05:10Z</time>
      </trkpt>
      <trkpt lat="43.13151" lon="-1.6545999">
        <time>2022-07-02T16:05:12Z</time>
      </trkpt>
      <trkpt lat="43.1315" lon="-1.6545212">
        <time>2022-07-02T16:05:14Z</time>
      </trkpt>
      <trkpt lat="43.13149" lon="-1.6544453">
        <time>2022-07-02T16:05:16Z</time>
      </trkpt>
      <trkpt lat="43.131477" lon="-1.6543729">
        <time>2022-07-02T16:05:18Z</time>
      </trkpt>
      <trkpt lat="43.13147" lon="-1.6543099">
        <time>2022-07-02T16:05:20Z</time>
      </trkpt>
      <trkpt lat="43.13146" lon="-1.6542213">
        <time>2022-07-02T16:05:23Z</time>
      </trkpt>
      <trkpt lat="43.13145" lon="-1.6541343">
        <time>2022-07-02T16:05:26Z</time>
      </trkpt>
      <trkpt lat="43.131443" lon="-1.6540513">
        <time>2022-07-02T16:05:29Z</time>
      </trkpt>
      <trkpt lat="43.131447" lon="-1.6539686">
        <time>2022-07-02T16:05:32Z</time>
      </trkpt>
      <trkpt lat="43.13144" lon="-1.6538836">
        <time>2022-07-02T16:05:35Z</time>
      </trkpt>
      <trkpt lat="43.131435" lon="-1.6538002">
        <time>2022-07-02T16:05:38Z</time>
      </trkpt>
      <trkpt lat="43.131424" lon="-1.6537173">
        <time>2022-07-02T16:05:41Z</time>
      </trkpt>
      <trkpt lat="43.13142" lon="-1.6536303">
        <time>2022-07-02T16:05:44Z</time>
      </trkpt>
      <trkpt lat="43.131416" lon="-1.6535393">
        <time>2022-07-02T16:05:47Z</time>
      </trkpt>
      <trkpt lat="43.13141" lon="-1.6534516">
        <time>2022-07-02T16:05:50Z</time>
      </trkpt>
      <trkpt lat="43.13141" lon="-1.6533636">
        <time>2022-07-02T16:05:53Z</time>
      </trkpt>
      <trkpt lat="43.131413" lon="-1.653278">
        <time>2022-07-02T16:05:56Z</time>
      </trkpt>
      <trkpt lat="43.131416" lon="-1.6531873">
        <time>2022-07-02T16:05:59Z</time>
      </trkpt>
      <trkpt lat="43.13141" lon="-1.653095">
        <time>2022-07-02T16:06:02Z</time>
      </trkpt>
      <trkpt lat="43.13141" lon="-1.6530253">
        <time>2022-07-02T16:06:04Z</time>
      </trkpt>
      <trkpt lat="43.131416" lon="-1.6529269">
        <time>2022-07-02T16:06:07Z</time>
      </trkpt>
      <trkpt lat="43.13142" lon="-1.6528193">
        <time>2022-07-02T16:06:10Z</time>
      </trkpt>
      <trkpt lat="43.131424" lon="-1.6527363">
        <time>2022-07-02T16:06:12Z</time>
      </trkpt>
      <trkpt lat="43.131424" lon="-1.6526476">
        <time>2022-07-02T16:06:14Z</time>
      </trkpt>
      <trkpt lat="43.131428" lon="-1.652553">
        <time>2022-07-02T16:06:16Z</time>
      </trkpt>
      <trkpt lat="43.13144" lon="-1.6524073">
        <time>2022-07-02T16:06:19Z</time>
      </trkpt>
      <trkpt lat="43.131443" lon="-1.6523026">
        <time>2022-07-02T16:06:21Z</time>
      </trkpt>
      <trkpt lat="43.13145" lon="-1.6521887">
        <time>2022-07-02T16:06:23Z</time>
      </trkpt>
      <trkpt lat="43.13146" lon="-1.6520613">
        <time>2022-07-02T16:06:25Z</time>
      </trkpt>
      <trkpt lat="43.131466" lon="-1.6519183">
        <time>2022-07-02T16:06:27Z</time>
      </trkpt>
      <trkpt lat="43.131474" lon="-1.651839">
        <time>2022-07-02T16:06:28Z</time>
      </trkpt>
      <trkpt lat="43.131477" lon="-1.651755">
        <time>2022-07-02T16:06:29Z</time>
      </trkpt>
      <trkpt lat="43.131485" lon="-1.6516666">
        <time>2022-07-02T16:06:30Z</time>
      </trkpt>
      <trkpt lat="43.131493" lon="-1.6515764">
        <time>2022-07-02T16:06:31Z</time>
      </trkpt>
      <trkpt lat="43.1315" lon="-1.6514833">
        <time>2022-07-02T16:06:32Z</time>
      </trkpt>
      <trkpt lat="43.13151" lon="-1.6513894">
        <time>2022-07-02T16:06:33Z</time>
      </trkpt>
      <trkpt lat="43.13152" lon="-1.6512927">
        <time>2022-07-02T16:06:34Z</time>
      </trkpt>
      <trkpt lat="43.13153" lon="-1.6511937">
        <time>2022-07-02T16:06:35Z</time>
      </trkpt>
      <trkpt lat="43.131542" lon="-1.6510917">
        <time>2022-07-02T16:06:36Z</time>
      </trkpt>
      <trkpt lat="43.131554" lon="-1.6509874">
        <time>2022-07-02T16:06:37Z</time>
      </trkpt>
      <trkpt lat="43.13156" lon="-1.6508803">
        <time>2022-07-02T16:06:38Z</time>
      </trkpt>
      <trkpt lat="43.131573" lon="-1.6507714">
        <time>2022-07-02T16:06:39Z</time>
      </trkpt>
      <trkpt lat="43.131584" lon="-1.6506671">
        <time>2022-07-02T16:06:40Z</time>
      </trkpt>
      <trkpt lat="43.131596" lon="-1.6505504">
        <time>2022-07-02T16:06:41Z</time>
      </trkpt>
      <trkpt lat="43.131603" lon="-1.6504323">
        <time>2022-07-02T16:06:42Z</time>
      </trkpt>
      <trkpt lat="43.13161" lon="-1.6503217">
        <time>2022-07-02T16:06:43Z</time>
      </trkpt>
      <trkpt lat="43.13162" lon="-1.6502074">
        <time>2022-07-02T16:06:44Z</time>
      </trkpt>
      <trkpt lat="43.131622" lon="-1.6500844">
        <time>2022-07-02T16:06:45Z</time>
      </trkpt>
      <trkpt lat="43.131622" lon="-1.6499654">
        <time>2022-07-02T16:06:46Z</time>
      </trkpt>
      <trkpt lat="43.131622" lon="-1.6498554">
        <time>2022-07-02T16:06:47Z</time>
      </trkpt>
      <trkpt lat="43.131622" lon="-1.6497447">
        <time>2022-07-02T16:06:48Z</time>
      </trkpt>
      <trkpt lat="43.131622" lon="-1.649634">
        <time>2022-07-02T16:06:49Z</time>
      </trkpt>
      <trkpt lat="43.131622" lon="-1.6495167">
        <time>2022-07-02T16:06:50Z</time>
      </trkpt>
      <trkpt lat="43.13162" lon="-1.6494031">
        <time>2022-07-02T16:06:51Z</time>
      </trkpt>
      <trkpt lat="43.13162" lon="-1.6492921">
        <time>2022-07-02T16:06:52Z</time>
      </trkpt>
      <trkpt lat="43.13162" lon="-1.6491841">
        <time>2022-07-02T16:06:53Z</time>
      </trkpt>
      <trkpt lat="43.13162" lon="-1.6490858">
        <time>2022-07-02T16:06:54Z</time>
      </trkpt>
      <trkpt lat="43.131615" lon="-1.6489881">
        <time>2022-07-02T16:06:55Z</time>
      </trkpt>
      <trkpt lat="43.131615" lon="-1.6488864">
        <time>2022-07-02T16:06:56Z</time>
      </trkpt>
      <trkpt lat="43.13162" lon="-1.6487881">
        <time>2022-07-02T16:06:57Z</time>
      </trkpt>
      <trkpt lat="43.13162" lon="-1.6486927">
        <time>2022-07-02T16:06:58Z</time>
      </trkpt>
      <trkpt lat="43.131622" lon="-1.648601">
        <time>2022-07-02T16:06:59Z</time>
      </trkpt>
      <trkpt lat="43.131626" lon="-1.6485105">
        <time>2022-07-02T16:07:00Z</time>
      </trkpt>
      <trkpt lat="43.13163" lon="-1.6484228">
        <time>2022-07-02T16:07:01Z</time>
      </trkpt>
      <trkpt lat="43.131634" lon="-1.6483358">
        <time>2022-07-02T16:07:02Z</time>
      </trkpt>
      <trkpt lat="43.131638" lon="-1.6482501">
        <time>2022-07-02T16:07:03Z</time>
      </trkpt>
      <trkpt lat="43.13164" lon="-1.6481658">
        <time>2022-07-02T16:07:04Z</time>
      </trkpt>
      <trkpt lat="43.13165" lon="-1.6480825">
        <time>2022-07-02T16:07:05Z</time>
      </trkpt>
      <trkpt lat="43.131657" lon="-1.6480005">
        <time>2022-07-02T16:07:06Z</time>
      </trkpt>
      <trkpt lat="43.13166" lon="-1.6479205">
        <time>2022-07-02T16:07:07Z</time>
      </trkpt>
      <trkpt lat="43.131664" lon="-1.6478405">
        <time>2022-07-02T16:07:08Z</time>
      </trkpt>
      <trkpt lat="43.131668" lon="-1.6477658">
        <time>2022-07-02T16:07:09Z</time>
      </trkpt>
      <trkpt lat="43.131676" lon="-1.6476904">
        <time>2022-07-02T16:07:10Z</time>
      </trkpt>
      <trkpt lat="43.13168" lon="-1.6476098">
        <time>2022-07-02T16:07:11Z</time>
      </trkpt>
      <trkpt lat="43.131683" lon="-1.6475319">
        <time>2022-07-02T16:07:12Z</time>
      </trkpt>
      <trkpt lat="43.131687" lon="-1.6474538">
        <time>2022-07-02T16:07:13Z</time>
      </trkpt>
      <trkpt lat="43.13169" lon="-1.6473825">
        <time>2022-07-02T16:07:14Z</time>
      </trkpt>
      <trkpt lat="43.131695" lon="-1.6473111">
        <time>2022-07-02T16:07:15Z</time>
      </trkpt>
      <trkpt lat="43.1317" lon="-1.6472392">
        <time>2022-07-02T16:07:16Z</time>
      </trkpt>
      <trkpt lat="43.1317" lon="-1.6471622">
        <time>2022-07-02T16:07:17Z</time>
      </trkpt>
      <trkpt lat="43.131702" lon="-1.6470919">
        <time>2022-07-02T16:07:18Z</time>
      </trkpt>
      <trkpt lat="43.131702" lon="-1.6470208">
        <time>2022-07-02T16:07:19Z</time>
      </trkpt>
      <trkpt lat="43.131714" lon="-1.6468772">
        <time>2022-07-02T16:07:21Z</time>
      </trkpt>
      <trkpt lat="43.131718" lon="-1.6468055">
        <time>2022-07-02T16:07:22Z</time>
      </trkpt>
      <trkpt lat="43.131733" lon="-1.6466621">
        <time>2022-07-02T16:07:24Z</time>
      </trkpt>
      <trkpt lat="43.131737" lon="-1.6465915">
        <time>2022-07-02T16:07:25Z</time>
      </trkpt>
      <trkpt lat="43.13174" lon="-1.6465209">
        <time>2022-07-02T16:07:26Z</time>
      </trkpt>
      <trkpt lat="43.131744" lon="-1.6463811">
        <time>2022-07-02T16:07:28Z</time>
      </trkpt>
      <trkpt lat="43.13175" lon="-1.6463128">
        <time>2022-07-02T16:07:29Z</time>
      </trkpt>
      <trkpt lat="43.131756" lon="-1.6461788">
        <time>2022-07-02T16:07:31Z</time>
      </trkpt>
      <trkpt lat="43.131767" lon="-1.6460472">
        <time>2022-07-02T16:07:33Z</time>
      </trkpt>
      <trkpt lat="43.13178" lon="-1.6459222">
        <time>2022-07-02T16:07:35Z</time>
      </trkpt>
      <trkpt lat="43.131786" lon="-1.6458112">
        <time>2022-07-02T16:07:37Z</time>
      </trkpt>
      <trkpt lat="43.131798" lon="-1.6457028">
        <time>2022-07-02T16:07:39Z</time>
      </trkpt>
      <trkpt lat="43.131805" lon="-1.6455989">
        <time>2022-07-02T16:07:41Z</time>
      </trkpt>
      <trkpt lat="43.131813" lon="-1.6454998">
        <time>2022-07-02T16:07:43Z</time>
      </trkpt>
      <trkpt lat="43.13182" lon="-1.6454042">
        <time>2022-07-02T16:07:45Z</time>
      </trkpt>
      <trkpt lat="43.13183" lon="-1.6453109">
        <time>2022-07-02T16:07:47Z</time>
      </trkpt>
      <trkpt lat="43.131832" lon="-1.6452205">
        <time>2022-07-02T16:07:49Z</time>
      </trkpt>
      <trkpt lat="43.131836" lon="-1.6451296">
        <time>2022-07-02T16:07:51Z</time>
      </trkpt>
      <trkpt lat="43.131836" lon="-1.6450375">
        <time>2022-07-02T16:07:53Z</time>
      </trkpt>
      <trkpt lat="43.13184" lon="-1.6449442">
        <time>2022-07-02T16:07:55Z</time>
      </trkpt>
      <trkpt lat="43.13184" lon="-1.6448503">
        <time>2022-07-02T16:07:57Z</time>
      </trkpt>
      <trkpt lat="43.131847" lon="-1.6447499">
        <time>2022-07-02T16:07:59Z</time>
      </trkpt>
      <trkpt lat="43.131855" lon="-1.6446526">
        <time>2022-07-02T16:08:01Z</time>
      </trkpt>
      <trkpt lat="43.131866" lon="-1.6445496">
        <time>2022-07-02T16:08:03Z</time>
      </trkpt>
      <trkpt lat="43.131878" lon="-1.6444505">
        <time>2022-07-02T16:08:05Z</time>
      </trkpt>
      <trkpt lat="43.13189" lon="-1.6443472">
        <time>2022-07-02T16:08:07Z</time>
      </trkpt>
      <trkpt lat="43.1319" lon="-1.644244">
        <time>2022-07-02T16:08:09Z</time>
      </trkpt>
      <trkpt lat="43.131912" lon="-1.6441432">
        <time>2022-07-02T16:08:11Z</time>
      </trkpt>
      <trkpt lat="43.13192" lon="-1.6440322">
        <time>2022-07-02T16:08:13Z</time>
      </trkpt>
      <trkpt lat="43.131924" lon="-1.6439226">
        <time>2022-07-02T16:08:15Z</time>
      </trkpt>
      <trkpt lat="43.131935" lon="-1.6437796">
        <time>2022-07-02T16:08:18Z</time>
      </trkpt>
      <trkpt lat="43.13194" lon="-1.6437156">
        <time>2022-07-02T16:08:19Z</time>
      </trkpt>
      <trkpt lat="43.131947" lon="-1.6435999">
        <time>2022-07-02T16:08:21Z</time>
      </trkpt>
      <trkpt lat="43.131954" lon="-1.6434853">
        <time>2022-07-02T16:08:23Z</time>
      </trkpt>
      <trkpt lat="43.131966" lon="-1.6433122">
        <time>2022-07-02T16:08:26Z</time>
      </trkpt>
      <trkpt lat="43.131977" lon="-1.6432006">
        <time>2022-07-02T16:08:28Z</time>
      </trkpt>
      <trkpt lat="43.13198" lon="-1.6430873">
        <time>2022-07-02T16:08:30Z</time>
      </trkpt>
      <trkpt lat="43.131985" lon="-1.642978">
        <time>2022-07-02T16:08:32Z</time>
      </trkpt>
      <trkpt lat="43.131992" lon="-1.6428646">
        <time>2022-07-02T16:08:34Z</time>
      </trkpt>
      <trkpt lat="43.132004" lon="-1.6427519">
        <time>2022-07-02T16:08:36Z</time>
      </trkpt>
      <trkpt lat="43.13201" lon="-1.642643">
        <time>2022-07-02T16:08:38Z</time>
      </trkpt>
      <trkpt lat="43.132015" lon="-1.64253">
        <time>2022-07-02T16:08:40Z</time>
      </trkpt>
      <trkpt lat="43.13202" lon="-1.6424196">
        <time>2022-07-02T16:08:42Z</time>
      </trkpt>
      <trkpt lat="43.132027" lon="-1.6423132">
        <time>2022-07-02T16:08:44Z</time>
      </trkpt>
      <trkpt lat="43.13204" lon="-1.64221">
        <time>2022-07-02T16:08:46Z</time>
      </trkpt>
      <trkpt lat="43.132046" lon="-1.642115">
        <time>2022-07-02T16:08:48Z</time>
      </trkpt>
      <trkpt lat="43.132057" lon="-1.6420126">
        <time>2022-07-02T16:08:50Z</time>
      </trkpt>
      <trkpt lat="43.132065" lon="-1.6419096">
        <time>2022-07-02T16:08:52Z</time>
      </trkpt>
      <trkpt lat="43.132072" lon="-1.6418077">
        <time>2022-07-02T16:08:54Z</time>
      </trkpt>
      <trkpt lat="43.132076" lon="-1.6417032">
        <time>2022-07-02T16:08:56Z</time>
      </trkpt>
      <trkpt lat="43.132084" lon="-1.6415989">
        <time>2022-07-02T16:08:58Z</time>
      </trkpt>
      <trkpt lat="43.132088" lon="-1.6414956">
        <time>2022-07-02T16:09:00Z</time>
      </trkpt>
      <trkpt lat="43.132095" lon="-1.6413913">
        <time>2022-07-02T16:09:02Z</time>
      </trkpt>
      <trkpt lat="43.132103" lon="-1.6412877">
        <time>2022-07-02T16:09:04Z</time>
      </trkpt>
      <trkpt lat="43.13211" lon="-1.641182">
        <time>2022-07-02T16:09:06Z</time>
      </trkpt>
      <trkpt lat="43.13212" lon="-1.6410797">
        <time>2022-07-02T16:09:08Z</time>
      </trkpt>
      <trkpt lat="43.132126" lon="-1.640966">
        <time>2022-07-02T16:09:10Z</time>
      </trkpt>
      <trkpt lat="43.132133" lon="-1.640854">
        <time>2022-07-02T16:09:12Z</time>
      </trkpt>
      <trkpt lat="43.132137" lon="-1.640746">
        <time>2022-07-02T16:09:14Z</time>
      </trkpt>
      <trkpt lat="43.132137" lon="-1.640639">
        <time>2022-07-02T16:09:16Z</time>
      </trkpt>
      <trkpt lat="43.13215" lon="-1.6405307">
        <time>2022-07-02T16:09:18Z</time>
      </trkpt>
      <trkpt lat="43.132156" lon="-1.6404346">
        <time>2022-07-02T16:09:20Z</time>
      </trkpt>
      <trkpt lat="43.132164" lon="-1.6403357">
        <time>2022-07-02T16:09:22Z</time>
      </trkpt>
      <trkpt lat="43.13217" lon="-1.6402334">
        <time>2022-07-02T16:09:24Z</time>
      </trkpt>
      <trkpt lat="43.13217" lon="-1.6401293">
        <time>2022-07-02T16:09:26Z</time>
      </trkpt>
      <trkpt lat="43.13217" lon="-1.6400263">
        <time>2022-07-02T16:09:28Z</time>
      </trkpt>
      <trkpt lat="43.132183" lon="-1.6398753">
        <time>2022-07-02T16:09:31Z</time>
      </trkpt>
      <trkpt lat="43.13219" lon="-1.639775">
        <time>2022-07-02T16:09:33Z</time>
      </trkpt>
      <trkpt lat="43.132202" lon="-1.639677">
        <time>2022-07-02T16:09:35Z</time>
      </trkpt>
      <trkpt lat="43.132214" lon="-1.6395757">
        <time>2022-07-02T16:09:37Z</time>
      </trkpt>
      <trkpt lat="43.132225" lon="-1.6394694">
        <time>2022-07-02T16:09:39Z</time>
      </trkpt>
      <trkpt lat="43.132236" lon="-1.6393597">
        <time>2022-07-02T16:09:41Z</time>
      </trkpt>
      <trkpt lat="43.132248" lon="-1.6392463">
        <time>2022-07-02T16:09:43Z</time>
      </trkpt>
      <trkpt lat="43.132263" lon="-1.6391304">
        <time>2022-07-02T16:09:45Z</time>
      </trkpt>
      <trkpt lat="43.13228" lon="-1.6390123">
        <time>2022-07-02T16:09:47Z</time>
      </trkpt>
      <trkpt lat="43.132294" lon="-1.6388941">
        <time>2022-07-02T16:09:49Z</time>
      </trkpt>
      <trkpt lat="43.132313" lon="-1.6387777">
        <time>2022-07-02T16:09:51Z</time>
      </trkpt>
      <trkpt lat="43.132328" lon="-1.638663">
        <time>2022-07-02T16:09:53Z</time>
      </trkpt>
      <trkpt lat="43.132343" lon="-1.6385493">
        <time>2022-07-02T16:09:55Z</time>
      </trkpt>
      <trkpt lat="43.132355" lon="-1.6384381">
        <time>2022-07-02T16:09:57Z</time>
      </trkpt>
      <trkpt lat="43.132366" lon="-1.6383307">
        <time>2022-07-02T16:09:59Z</time>
      </trkpt>
      <trkpt lat="43.13238" lon="-1.6382314">
        <time>2022-07-02T16:10:01Z</time>
      </trkpt>
      <trkpt lat="43.1324" lon="-1.6381288">
        <time>2022-07-02T16:10:03Z</time>
      </trkpt>
      <trkpt lat="43.132416" lon="-1.638023">
        <time>2022-07-02T16:10:05Z</time>
      </trkpt>
      <trkpt lat="43.132427" lon="-1.6379161">
        <time>2022-07-02T16:10:07Z</time>
      </trkpt>
      <trkpt lat="43.13244" lon="-1.6378094">
        <time>2022-07-02T16:10:09Z</time>
      </trkpt>
      <trkpt lat="43.132454" lon="-1.6377031">
        <time>2022-07-02T16:10:11Z</time>
      </trkpt>
      <trkpt lat="43.132465" lon="-1.6375971">
        <time>2022-07-02T16:10:13Z</time>
      </trkpt>
      <trkpt lat="43.132477" lon="-1.6374887">
        <time>2022-07-02T16:10:15Z</time>
      </trkpt>
      <trkpt lat="43.13249" lon="-1.6373794">
        <time>2022-07-02T16:10:17Z</time>
      </trkpt>
      <trkpt lat="43.132504" lon="-1.6372688">
        <time>2022-07-02T16:10:19Z</time>
      </trkpt>
      <trkpt lat="43.132515" lon="-1.6371582">
        <time>2022-07-02T16:10:21Z</time>
      </trkpt>
      <trkpt lat="43.132526" lon="-1.6370465">
        <time>2022-07-02T16:10:23Z</time>
      </trkpt>
      <trkpt lat="43.13254" lon="-1.6369334">
        <time>2022-07-02T16:10:25Z</time>
      </trkpt>
      <trkpt lat="43.132553" lon="-1.6368188">
        <time>2022-07-02T16:10:27Z</time>
      </trkpt>
      <trkpt lat="43.132565" lon="-1.6367021">
        <time>2022-07-02T16:10:29Z</time>
      </trkpt>
      <trkpt lat="43.13258" lon="-1.6365848">
        <time>2022-07-02T16:10:31Z</time>
      </trkpt>
      <trkpt lat="43.1326" lon="-1.6364071">
        <time>2022-07-02T16:10:34Z</time>
      </trkpt>
      <trkpt lat="43.13261" lon="-1.6362878">
        <time>2022-07-02T16:10:36Z</time>
      </trkpt>
      <trkpt lat="43.132626" lon="-1.6361678">
        <time>2022-07-02T16:10:38Z</time>
      </trkpt>
      <trkpt lat="43.132637" lon="-1.6360471">
        <time>2022-07-02T16:10:40Z</time>
      </trkpt>
      <trkpt lat="43.132652" lon="-1.6359252">
        <time>2022-07-02T16:10:42Z</time>
      </trkpt>
      <trkpt lat="43.132664" lon="-1.6358035">
        <time>2022-07-02T16:10:44Z</time>
      </trkpt>
      <trkpt lat="43.13268" lon="-1.6356798">
        <time>2022-07-02T16:10:46Z</time>
      </trkpt>
      <trkpt lat="43.132694" lon="-1.6355568">
        <time>2022-07-02T16:10:48Z</time>
      </trkpt>
      <trkpt lat="43.13271" lon="-1.6354328">
        <time>2022-07-02T16:10:50Z</time>
      </trkpt>
      <trkpt lat="43.132725" lon="-1.6353074">
        <time>2022-07-02T16:10:52Z</time>
      </trkpt>
      <trkpt lat="43.132732" lon="-1.6352438">
        <time>2022-07-02T16:10:53Z</time>
      </trkpt>
      <trkpt lat="43.13275" lon="-1.6351168">
        <time>2022-07-02T16:10:55Z</time>
      </trkpt>
      <trkpt lat="43.132767" lon="-1.6349915">
        <time>2022-07-02T16:10:57Z</time>
      </trkpt>
      <trkpt lat="43.13277" lon="-1.6349331">
        <time>2022-07-02T16:10:58Z</time>
      </trkpt>
      <trkpt lat="43.132786" lon="-1.6348078">
        <time>2022-07-02T16:11:00Z</time>
      </trkpt>
      <trkpt lat="43.1328" lon="-1.6346872">
        <time>2022-07-02T16:11:02Z</time>
      </trkpt>
      <trkpt lat="43.132816" lon="-1.6345725">
        <time>2022-07-02T16:11:04Z</time>
      </trkpt>
      <trkpt lat="43.132828" lon="-1.6344622">
        <time>2022-07-02T16:11:06Z</time>
      </trkpt>
      <trkpt lat="43.132843" lon="-1.6343545">
        <time>2022-07-02T16:11:08Z</time>
      </trkpt>
      <trkpt lat="43.13286" lon="-1.6342489">
        <time>2022-07-02T16:11:10Z</time>
      </trkpt>
      <trkpt lat="43.132874" lon="-1.6341469">
        <time>2022-07-02T16:11:12Z</time>
      </trkpt>
      <trkpt lat="43.132885" lon="-1.6340479">
        <time>2022-07-02T16:11:14Z</time>
      </trkpt>
      <trkpt lat="43.132893" lon="-1.6339529">
        <time>2022-07-02T16:11:16Z</time>
      </trkpt>
      <trkpt lat="43.132908" lon="-1.6338528">
        <time>2022-07-02T16:11:18Z</time>
      </trkpt>
      <trkpt lat="43.13292" lon="-1.6337509">
        <time>2022-07-02T16:11:20Z</time>
      </trkpt>
      <trkpt lat="43.13293" lon="-1.6336485">
        <time>2022-07-02T16:11:22Z</time>
      </trkpt>
      <trkpt lat="43.132942" lon="-1.6335459">
        <time>2022-07-02T16:11:24Z</time>
      </trkpt>
      <trkpt lat="43.132957" lon="-1.6334416">
        <time>2022-07-02T16:11:26Z</time>
      </trkpt>
      <trkpt lat="43.13297" lon="-1.6333369">
        <time>2022-07-02T16:11:28Z</time>
      </trkpt>
      <trkpt lat="43.13298" lon="-1.6332313">
        <time>2022-07-02T16:11:30Z</time>
      </trkpt>
      <trkpt lat="43.132996" lon="-1.6331302">
        <time>2022-07-02T16:11:32Z</time>
      </trkpt>
      <trkpt lat="43.13301" lon="-1.6330196">
        <time>2022-07-02T16:11:34Z</time>
      </trkpt>
      <trkpt lat="43.133034" lon="-1.6328585">
        <time>2022-07-02T16:11:37Z</time>
      </trkpt>
      <trkpt lat="43.133045" lon="-1.632749">
        <time>2022-07-02T16:11:39Z</time>
      </trkpt>
      <trkpt lat="43.133057" lon="-1.6326406">
        <time>2022-07-02T16:11:41Z</time>
      </trkpt>
      <trkpt lat="43.13307" lon="-1.6325343">
        <time>2022-07-02T16:11:43Z</time>
      </trkpt>
      <trkpt lat="43.133083" lon="-1.6324276">
        <time>2022-07-02T16:11:45Z</time>
      </trkpt>
      <trkpt lat="43.1331" lon="-1.6323203">
        <time>2022-07-02T16:11:47Z</time>
      </trkpt>
      <trkpt lat="43.13311" lon="-1.6322162">
        <time>2022-07-02T16:11:49Z</time>
      </trkpt>
      <trkpt lat="43.133125" lon="-1.6321113">
        <time>2022-07-02T16:11:51Z</time>
      </trkpt>
      <trkpt lat="43.13314" lon="-1.632005">
        <time>2022-07-02T16:11:53Z</time>
      </trkpt>
      <trkpt lat="43.13316" lon="-1.6318989">
        <time>2022-07-02T16:11:55Z</time>
      </trkpt>
      <trkpt lat="43.133175" lon="-1.6317909">
        <time>2022-07-02T16:11:57Z</time>
      </trkpt>
      <trkpt lat="43.133186" lon="-1.6316836">
        <time>2022-07-02T16:11:59Z</time>
      </trkpt>
      <trkpt lat="43.1332" lon="-1.631573">
        <time>2022-07-02T16:12:01Z</time>
      </trkpt>
      <trkpt lat="43.133217" lon="-1.6314596">
        <time>2022-07-02T16:12:03Z</time>
      </trkpt>
      <trkpt lat="43.13323" lon="-1.631347">
        <time>2022-07-02T16:12:05Z</time>
      </trkpt>
      <trkpt lat="43.133244" lon="-1.6312356">
        <time>2022-07-02T16:12:07Z</time>
      </trkpt>
      <trkpt lat="43.133255" lon="-1.6311266">
        <time>2022-07-02T16:12:09Z</time>
      </trkpt>
      <trkpt lat="43.13327" lon="-1.631016">
        <time>2022-07-02T16:12:11Z</time>
      </trkpt>
      <trkpt lat="43.133286" lon="-1.630906">
        <time>2022-07-02T16:12:13Z</time>
      </trkpt>
      <trkpt lat="43.1333" lon="-1.6308036">
        <time>2022-07-02T16:12:15Z</time>
      </trkpt>
      <trkpt lat="43.133316" lon="-1.6306996">
        <time>2022-07-02T16:12:17Z</time>
      </trkpt>
      <trkpt lat="43.133335" lon="-1.630594">
        <time>2022-07-02T16:12:19Z</time>
      </trkpt>
      <trkpt lat="43.133347" lon="-1.630487">
        <time>2022-07-02T16:12:21Z</time>
      </trkpt>
      <trkpt lat="43.133358" lon="-1.6303706">
        <time>2022-07-02T16:12:23Z</time>
      </trkpt>
      <trkpt lat="43.13337" lon="-1.6302583">
        <time>2022-07-02T16:12:25Z</time>
      </trkpt>
      <trkpt lat="43.13338" lon="-1.630144">
        <time>2022-07-02T16:12:27Z</time>
      </trkpt>
      <trkpt lat="43.133392" lon="-1.63003">
        <time>2022-07-02T16:12:29Z</time>
      </trkpt>
      <trkpt lat="43.133404" lon="-1.6299189">
        <time>2022-07-02T16:12:31Z</time>
      </trkpt>
      <trkpt lat="43.133415" lon="-1.6298063">
        <time>2022-07-02T16:12:33Z</time>
      </trkpt>
      <trkpt lat="43.133427" lon="-1.6296936">
        <time>2022-07-02T16:12:35Z</time>
      </trkpt>
      <trkpt lat="43.13344" lon="-1.629579">
        <time>2022-07-02T16:12:37Z</time>
      </trkpt>
      <trkpt lat="43.133453" lon="-1.62947">
        <time>2022-07-02T16:12:39Z</time>
      </trkpt>
      <trkpt lat="43.133476" lon="-1.6293727">
        <time>2022-07-02T16:12:41Z</time>
      </trkpt>
      <trkpt lat="43.133503" lon="-1.6292833">
        <time>2022-07-02T16:12:43Z</time>
      </trkpt>
      <trkpt lat="43.133533" lon="-1.6291983">
        <time>2022-07-02T16:12:45Z</time>
      </trkpt>
      <trkpt lat="43.13356" lon="-1.6291083">
        <time>2022-07-02T16:12:47Z</time>
      </trkpt>
      <trkpt lat="43.133587" lon="-1.6290174">
        <time>2022-07-02T16:12:49Z</time>
      </trkpt>
      <trkpt lat="43.133614" lon="-1.6289274">
        <time>2022-07-02T16:12:51Z</time>
      </trkpt>
      <trkpt lat="43.133636" lon="-1.6288373">
        <time>2022-07-02T16:12:53Z</time>
      </trkpt>
      <trkpt lat="43.133667" lon="-1.6287407">
        <time>2022-07-02T16:12:55Z</time>
      </trkpt>
      <trkpt lat="43.13369" lon="-1.628641">
        <time>2022-07-02T16:12:57Z</time>
      </trkpt>
      <trkpt lat="43.133713" lon="-1.6285337">
        <time>2022-07-02T16:12:59Z</time>
      </trkpt>
      <trkpt lat="43.13373" lon="-1.6284283">
        <time>2022-07-02T16:13:01Z</time>
      </trkpt>
      <trkpt lat="43.13375" lon="-1.6283227">
        <time>2022-07-02T16:13:03Z</time>
      </trkpt>
      <trkpt lat="43.133766" lon="-1.6282144">
        <time>2022-07-02T16:13:05Z</time>
      </trkpt>
      <trkpt lat="43.13378" lon="-1.6281127">
        <time>2022-07-02T16:13:07Z</time>
      </trkpt>
      <trkpt lat="43.133793" lon="-1.6280107">
        <time>2022-07-02T16:13:09Z</time>
      </trkpt>
      <trkpt lat="43.133804" lon="-1.6279061">
        <time>2022-07-02T16:13:11Z</time>
      </trkpt>
      <trkpt lat="43.133816" lon="-1.6278031">
        <time>2022-07-02T16:13:13Z</time>
      </trkpt>
      <trkpt lat="43.133823" lon="-1.6277037">
        <time>2022-07-02T16:13:15Z</time>
      </trkpt>
      <trkpt lat="43.13383" lon="-1.6276021">
        <time>2022-07-02T16:13:17Z</time>
      </trkpt>
      <trkpt lat="43.133842" lon="-1.6275">
        <time>2022-07-02T16:13:19Z</time>
      </trkpt>
      <trkpt lat="43.13386" lon="-1.6274008">
        <time>2022-07-02T16:13:21Z</time>
      </trkpt>
      <trkpt lat="43.133884" lon="-1.6273047">
        <time>2022-07-02T16:13:23Z</time>
      </trkpt>
      <trkpt lat="43.133907" lon="-1.627212">
        <time>2022-07-02T16:13:25Z</time>
      </trkpt>
      <trkpt lat="43.133938" lon="-1.6271231">
        <time>2022-07-02T16:13:27Z</time>
      </trkpt>
      <trkpt lat="43.13397" lon="-1.6270331">
        <time>2022-07-02T16:13:29Z</time>
      </trkpt>
      <trkpt lat="43.134" lon="-1.626942">
        <time>2022-07-02T16:13:31Z</time>
      </trkpt>
      <trkpt lat="43.13403" lon="-1.6268494">
        <time>2022-07-02T16:13:33Z</time>
      </trkpt>
      <trkpt lat="43.134052" lon="-1.6267521">
        <time>2022-07-02T16:13:35Z</time>
      </trkpt>
      <trkpt lat="43.134075" lon="-1.6266527">
        <time>2022-07-02T16:13:37Z</time>
      </trkpt>
      <trkpt lat="43.134098" lon="-1.6265514">
        <time>2022-07-02T16:13:39Z</time>
      </trkpt>
      <trkpt lat="43.134117" lon="-1.6264467">
        <time>2022-07-02T16:13:41Z</time>
      </trkpt>
      <trkpt lat="43.134136" lon="-1.6263407">
        <time>2022-07-02T16:13:43Z</time>
      </trkpt>
      <trkpt lat="43.134167" lon="-1.6261781">
        <time>2022-07-02T16:13:46Z</time>
      </trkpt>
      <trkpt lat="43.134197" lon="-1.6260698">
        <time>2022-07-02T16:13:48Z</time>
      </trkpt>
      <trkpt lat="43.13423" lon="-1.6259588">
        <time>2022-07-02T16:13:50Z</time>
      </trkpt>
      <trkpt lat="43.13427" lon="-1.6258464">
        <time>2022-07-02T16:13:52Z</time>
      </trkpt>
      <trkpt lat="43.134315" lon="-1.6257365">
        <time>2022-07-02T16:13:54Z</time>
      </trkpt>
      <trkpt lat="43.13436" lon="-1.6256335">
        <time>2022-07-02T16:13:56Z</time>
      </trkpt>
      <trkpt lat="43.13441" lon="-1.6255338">
        <time>2022-07-02T16:13:58Z</time>
      </trkpt>
      <trkpt lat="43.134457" lon="-1.6254308">
        <time>2022-07-02T16:14:00Z</time>
      </trkpt>
      <trkpt lat="43.134502" lon="-1.6253338">
        <time>2022-07-02T16:14:02Z</time>
      </trkpt>
      <trkpt lat="43.134537" lon="-1.6252384">
        <time>2022-07-02T16:14:04Z</time>
      </trkpt>
      <trkpt lat="43.134575" lon="-1.6251451">
        <time>2022-07-02T16:14:06Z</time>
      </trkpt>
      <trkpt lat="43.134613" lon="-1.6250517">
        <time>2022-07-02T16:14:08Z</time>
      </trkpt>
      <trkpt lat="43.134655" lon="-1.6249535">
        <time>2022-07-02T16:14:10Z</time>
      </trkpt>
      <trkpt lat="43.134693" lon="-1.6248518">
        <time>2022-07-02T16:14:12Z</time>
      </trkpt>
      <trkpt lat="43.13473" lon="-1.6247542">
        <time>2022-07-02T16:14:14Z</time>
      </trkpt>
      <trkpt lat="43.13477" lon="-1.6246611">
        <time>2022-07-02T16:14:16Z</time>
      </trkpt>
      <trkpt lat="43.13481" lon="-1.6245655">
        <time>2022-07-02T16:14:18Z</time>
      </trkpt>
      <trkpt lat="43.13485" lon="-1.6244651">
        <time>2022-07-02T16:14:20Z</time>
      </trkpt>
      <trkpt lat="43.134888" lon="-1.6243608">
        <time>2022-07-02T16:14:22Z</time>
      </trkpt>
      <trkpt lat="43.134933" lon="-1.6242508">
        <time>2022-07-02T16:14:24Z</time>
      </trkpt>
      <trkpt lat="43.13498" lon="-1.6241398">
        <time>2022-07-02T16:14:26Z</time>
      </trkpt>
      <trkpt lat="43.135" lon="-1.6240832">
        <time>2022-07-02T16:14:27Z</time>
      </trkpt>
      <trkpt lat="43.13504" lon="-1.6239681">
        <time>2022-07-02T16:14:29Z</time>
      </trkpt>
      <trkpt lat="43.135082" lon="-1.6238532">
        <time>2022-07-02T16:14:31Z</time>
      </trkpt>
      <trkpt lat="43.1351" lon="-1.6237959">
        <time>2022-07-02T16:14:32Z</time>
      </trkpt>
      <trkpt lat="43.135143" lon="-1.6236825">
        <time>2022-07-02T16:14:34Z</time>
      </trkpt>
      <trkpt lat="43.135185" lon="-1.6235702">
        <time>2022-07-02T16:14:36Z</time>
      </trkpt>
      <trkpt lat="43.135227" lon="-1.6234592">
        <time>2022-07-02T16:14:38Z</time>
      </trkpt>
      <trkpt lat="43.13527" lon="-1.6233459">
        <time>2022-07-02T16:14:40Z</time>
      </trkpt>
      <trkpt lat="43.13531" lon="-1.6232288">
        <time>2022-07-02T16:14:42Z</time>
      </trkpt>
      <trkpt lat="43.135353" lon="-1.6231098">
        <time>2022-07-02T16:14:44Z</time>
      </trkpt>
      <trkpt lat="43.135418" lon="-1.6229272">
        <time>2022-07-02T16:14:47Z</time>
      </trkpt>
      <trkpt lat="43.135437" lon="-1.6228656">
        <time>2022-07-02T16:14:48Z</time>
      </trkpt>
      <trkpt lat="43.13548" lon="-1.6227415">
        <time>2022-07-02T16:14:50Z</time>
      </trkpt>
      <trkpt lat="43.13552" lon="-1.6226199">
        <time>2022-07-02T16:14:52Z</time>
      </trkpt>
      <trkpt lat="43.135563" lon="-1.6224982">
        <time>2022-07-02T16:14:54Z</time>
      </trkpt>
      <trkpt lat="43.135605" lon="-1.6223782">
        <time>2022-07-02T16:14:56Z</time>
      </trkpt>
      <trkpt lat="43.135647" lon="-1.6222602">
        <time>2022-07-02T16:14:58Z</time>
      </trkpt>
      <trkpt lat="43.13567" lon="-1.6222029">
        <time>2022-07-02T16:14:59Z</time>
      </trkpt>
      <trkpt lat="43.135708" lon="-1.6220886">
        <time>2022-07-02T16:15:01Z</time>
      </trkpt>
      <trkpt lat="43.135746" lon="-1.6219798">
        <time>2022-07-02T16:15:03Z</time>
      </trkpt>
      <trkpt lat="43.13578" lon="-1.6218809">
        <time>2022-07-02T16:15:05Z</time>
      </trkpt>
      <trkpt lat="43.135815" lon="-1.6217889">
        <time>2022-07-02T16:15:07Z</time>
      </trkpt>
      <trkpt lat="43.13584" lon="-1.6217002">
        <time>2022-07-02T16:15:09Z</time>
      </trkpt>
      <trkpt lat="43.13587" lon="-1.6216152">
        <time>2022-07-02T16:15:11Z</time>
      </trkpt>
      <trkpt lat="43.135902" lon="-1.6215326">
        <time>2022-07-02T16:15:13Z</time>
      </trkpt>
      <trkpt lat="43.13593" lon="-1.6214509">
        <time>2022-07-02T16:15:15Z</time>
      </trkpt>
      <trkpt lat="43.135952" lon="-1.62137">
        <time>2022-07-02T16:15:17Z</time>
      </trkpt>
      <trkpt lat="43.13598" lon="-1.6212909">
        <time>2022-07-02T16:15:19Z</time>
      </trkpt>
      <trkpt lat="43.136005" lon="-1.6212136">
        <time>2022-07-02T16:15:21Z</time>
      </trkpt>
      <trkpt lat="43.136036" lon="-1.6211356">
        <time>2022-07-02T16:15:23Z</time>
      </trkpt>
      <trkpt lat="43.136063" lon="-1.6210586">
        <time>2022-07-02T16:15:25Z</time>
      </trkpt>
      <trkpt lat="43.13609" lon="-1.6209853">
        <time>2022-07-02T16:15:27Z</time>
      </trkpt>
      <trkpt lat="43.136116" lon="-1.620917">
        <time>2022-07-02T16:15:29Z</time>
      </trkpt>
      <trkpt lat="43.13614" lon="-1.6208493">
        <time>2022-07-02T16:15:31Z</time>
      </trkpt>
      <trkpt lat="43.13616" lon="-1.6207802">
        <time>2022-07-02T16:15:33Z</time>
      </trkpt>
      <trkpt lat="43.136185" lon="-1.6207079">
        <time>2022-07-02T16:15:35Z</time>
      </trkpt>
      <trkpt lat="43.13621" lon="-1.6206373">
        <time>2022-07-02T16:15:37Z</time>
      </trkpt>
      <trkpt lat="43.13624" lon="-1.6205666">
        <time>2022-07-02T16:15:39Z</time>
      </trkpt>
      <trkpt lat="43.13626" lon="-1.6204993">
        <time>2022-07-02T16:15:41Z</time>
      </trkpt>
      <trkpt lat="43.136288" lon="-1.6204389">
        <time>2022-07-02T16:15:43Z</time>
      </trkpt>
      <trkpt lat="43.136314" lon="-1.6203803">
        <time>2022-07-02T16:15:45Z</time>
      </trkpt>
      <trkpt lat="43.136337" lon="-1.6203203">
        <time>2022-07-02T16:15:47Z</time>
      </trkpt>
      <trkpt lat="43.136368" lon="-1.6202296">
        <time>2022-07-02T16:15:50Z</time>
      </trkpt>
      <trkpt lat="43.136406" lon="-1.620137">
        <time>2022-07-02T16:15:53Z</time>
      </trkpt>
      <trkpt lat="43.136425" lon="-1.6200709">
        <time>2022-07-02T16:15:55Z</time>
      </trkpt>
      <trkpt lat="43.136444" lon="-1.620006">
        <time>2022-07-02T16:15:57Z</time>
      </trkpt>
      <trkpt lat="43.136475" lon="-1.6199089">
        <time>2022-07-02T16:16:00Z</time>
      </trkpt>
      <trkpt lat="43.136494" lon="-1.6198449">
        <time>2022-07-02T16:16:02Z</time>
      </trkpt>
      <trkpt lat="43.136517" lon="-1.619782">
        <time>2022-07-02T16:16:04Z</time>
      </trkpt>
      <trkpt lat="43.13655" lon="-1.619684">
        <time>2022-07-02T16:16:07Z</time>
      </trkpt>
      <trkpt lat="43.136574" lon="-1.6196176">
        <time>2022-07-02T16:16:09Z</time>
      </trkpt>
      <trkpt lat="43.136597" lon="-1.619553">
        <time>2022-07-02T16:16:11Z</time>
      </trkpt>
      <trkpt lat="43.136623" lon="-1.6194876">
        <time>2022-07-02T16:16:13Z</time>
      </trkpt>
      <trkpt lat="43.136646" lon="-1.6194216">
        <time>2022-07-02T16:16:15Z</time>
      </trkpt>
      <trkpt lat="43.13666" lon="-1.6193537">
        <time>2022-07-02T16:16:17Z</time>
      </trkpt>
      <trkpt lat="43.13668" lon="-1.6192833">
        <time>2022-07-02T16:16:19Z</time>
      </trkpt>
      <trkpt lat="43.1367" lon="-1.6192096">
        <time>2022-07-02T16:16:21Z</time>
      </trkpt>
      <trkpt lat="43.136715" lon="-1.619136">
        <time>2022-07-02T16:16:23Z</time>
      </trkpt>
      <trkpt lat="43.136726" lon="-1.6190586">
        <time>2022-07-02T16:16:25Z</time>
      </trkpt>
      <trkpt lat="43.136734" lon="-1.6189786">
        <time>2022-07-02T16:16:27Z</time>
      </trkpt>
      <trkpt lat="43.13674" lon="-1.6188956">
        <time>2022-07-02T16:16:29Z</time>
      </trkpt>
      <trkpt lat="43.136753" lon="-1.6188097">
        <time>2022-07-02T16:16:31Z</time>
      </trkpt>
      <trkpt lat="43.136765" lon="-1.6187193">
        <time>2022-07-02T16:16:33Z</time>
      </trkpt>
      <trkpt lat="43.136776" lon="-1.6186264">
        <time>2022-07-02T16:16:35Z</time>
      </trkpt>
      <trkpt lat="43.13679" lon="-1.618532">
        <time>2022-07-02T16:16:37Z</time>
      </trkpt>
      <trkpt lat="43.136806" lon="-1.6184373">
        <time>2022-07-02T16:16:39Z</time>
      </trkpt>
      <trkpt lat="43.136818" lon="-1.6183424">
        <time>2022-07-02T16:16:41Z</time>
      </trkpt>
      <trkpt lat="43.136826" lon="-1.6182474">
        <time>2022-07-02T16:16:43Z</time>
      </trkpt>
      <trkpt lat="43.136837" lon="-1.6181533">
        <time>2022-07-02T16:16:45Z</time>
      </trkpt>
      <trkpt lat="43.136845" lon="-1.6180607">
        <time>2022-07-02T16:16:47Z</time>
      </trkpt>
      <trkpt lat="43.136852" lon="-1.6179687">
        <time>2022-07-02T16:16:49Z</time>
      </trkpt>
      <trkpt lat="43.136864" lon="-1.6178744">
        <time>2022-07-02T16:16:51Z</time>
      </trkpt>
      <trkpt lat="43.136875" lon="-1.6177777">
        <time>2022-07-02T16:16:53Z</time>
      </trkpt>
      <trkpt lat="43.13689" lon="-1.617624">
        <time>2022-07-02T16:16:56Z</time>
      </trkpt>
      <trkpt lat="43.136906" lon="-1.617519">
        <time>2022-07-02T16:16:58Z</time>
      </trkpt>
      <trkpt lat="43.136917" lon="-1.6174164">
        <time>2022-07-02T16:17:00Z</time>
      </trkpt>
      <trkpt lat="43.13693" lon="-1.6173173">
        <time>2022-07-02T16:17:02Z</time>
      </trkpt>
      <trkpt lat="43.136936" lon="-1.6172217">
        <time>2022-07-02T16:17:04Z</time>
      </trkpt>
      <trkpt lat="43.136948" lon="-1.6171277">
        <time>2022-07-02T16:17:06Z</time>
      </trkpt>
      <trkpt lat="43.13696" lon="-1.6170361">
        <time>2022-07-02T16:17:08Z</time>
      </trkpt>
      <trkpt lat="43.136967" lon="-1.6169441">
        <time>2022-07-02T16:17:10Z</time>
      </trkpt>
      <trkpt lat="43.13698" lon="-1.6168494">
        <time>2022-07-02T16:17:12Z</time>
      </trkpt>
      <trkpt lat="43.136993" lon="-1.6167511">
        <time>2022-07-02T16:17:14Z</time>
      </trkpt>
      <trkpt lat="43.13701" lon="-1.6166477">
        <time>2022-07-02T16:17:16Z</time>
      </trkpt>
      <trkpt lat="43.137024" lon="-1.6165414">
        <time>2022-07-02T16:17:18Z</time>
      </trkpt>
      <trkpt lat="43.137035" lon="-1.6164345">
        <time>2022-07-02T16:17:20Z</time>
      </trkpt>
      <trkpt lat="43.137047" lon="-1.6163254">
        <time>2022-07-02T16:17:22Z</time>
      </trkpt>
      <trkpt lat="43.13706" lon="-1.6162157">
        <time>2022-07-02T16:17:24Z</time>
      </trkpt>
      <trkpt lat="43.13707" lon="-1.6161067">
        <time>2022-07-02T16:17:26Z</time>
      </trkpt>
      <trkpt lat="43.13708" lon="-1.6160008">
        <time>2022-07-02T16:17:28Z</time>
      </trkpt>
      <trkpt lat="43.137093" lon="-1.6158917">
        <time>2022-07-02T16:17:30Z</time>
      </trkpt>
      <trkpt lat="43.137104" lon="-1.615784">
        <time>2022-07-02T16:17:32Z</time>
      </trkpt>
      <trkpt lat="43.13712" lon="-1.6156754">
        <time>2022-07-02T16:17:34Z</time>
      </trkpt>
      <trkpt lat="43.13713" lon="-1.6155661">
        <time>2022-07-02T16:17:36Z</time>
      </trkpt>
      <trkpt lat="43.137146" lon="-1.6154557">
        <time>2022-07-02T16:17:38Z</time>
      </trkpt>
      <trkpt lat="43.13716" lon="-1.6153438">
        <time>2022-07-02T16:17:40Z</time>
      </trkpt>
      <trkpt lat="43.137173" lon="-1.6152312">
        <time>2022-07-02T16:17:42Z</time>
      </trkpt>
      <trkpt lat="43.137184" lon="-1.6151167">
        <time>2022-07-02T16:17:44Z</time>
      </trkpt>
      <trkpt lat="43.137196" lon="-1.6149994">
        <time>2022-07-02T16:17:46Z</time>
      </trkpt>
      <trkpt lat="43.137207" lon="-1.6148797">
        <time>2022-07-02T16:17:48Z</time>
      </trkpt>
      <trkpt lat="43.137215" lon="-1.6147604">
        <time>2022-07-02T16:17:50Z</time>
      </trkpt>
      <trkpt lat="43.137215" lon="-1.6146464">
        <time>2022-07-02T16:17:52Z</time>
      </trkpt>
      <trkpt lat="43.13722" lon="-1.6145325">
        <time>2022-07-02T16:17:54Z</time>
      </trkpt>
      <trkpt lat="43.13722" lon="-1.6143614">
        <time>2022-07-02T16:17:57Z</time>
      </trkpt>
      <trkpt lat="43.13722" lon="-1.6142471">
        <time>2022-07-02T16:17:59Z</time>
      </trkpt>
      <trkpt lat="43.137215" lon="-1.6141311">
        <time>2022-07-02T16:18:01Z</time>
      </trkpt>
      <trkpt lat="43.137215" lon="-1.6140147">
        <time>2022-07-02T16:18:03Z</time>
      </trkpt>
      <trkpt lat="43.13722" lon="-1.6138995">
        <time>2022-07-02T16:18:05Z</time>
      </trkpt>
      <trkpt lat="43.137215" lon="-1.6137865">
        <time>2022-07-02T16:18:07Z</time>
      </trkpt>
      <trkpt lat="43.13721" lon="-1.6136698">
        <time>2022-07-02T16:18:09Z</time>
      </trkpt>
      <trkpt lat="43.13721" lon="-1.6135511">
        <time>2022-07-02T16:18:11Z</time>
      </trkpt>
      <trkpt lat="43.13721" lon="-1.6134292">
        <time>2022-07-02T16:18:13Z</time>
      </trkpt>
      <trkpt lat="43.137215" lon="-1.6133065">
        <time>2022-07-02T16:18:15Z</time>
      </trkpt>
      <trkpt lat="43.13722" lon="-1.6131815">
        <time>2022-07-02T16:18:17Z</time>
      </trkpt>
      <trkpt lat="43.137226" lon="-1.6130582">
        <time>2022-07-02T16:18:19Z</time>
      </trkpt>
      <trkpt lat="43.137238" lon="-1.6129361">
        <time>2022-07-02T16:18:21Z</time>
      </trkpt>
      <trkpt lat="43.13724" lon="-1.6128161">
        <time>2022-07-02T16:18:23Z</time>
      </trkpt>
      <trkpt lat="43.137245" lon="-1.6126951">
        <time>2022-07-02T16:18:25Z</time>
      </trkpt>
      <trkpt lat="43.137245" lon="-1.6125752">
        <time>2022-07-02T16:18:27Z</time>
      </trkpt>
      <trkpt lat="43.137245" lon="-1.6124545">
        <time>2022-07-02T16:18:29Z</time>
      </trkpt>
      <trkpt lat="43.13725" lon="-1.6123338">
        <time>2022-07-02T16:18:31Z</time>
      </trkpt>
      <trkpt lat="43.137257" lon="-1.6122159">
        <time>2022-07-02T16:18:33Z</time>
      </trkpt>
      <trkpt lat="43.137257" lon="-1.6121051">
        <time>2022-07-02T16:18:35Z</time>
      </trkpt>
      <trkpt lat="43.13726" lon="-1.6120068">
        <time>2022-07-02T16:18:37Z</time>
      </trkpt>
      <trkpt lat="43.137264" lon="-1.6119121">
        <time>2022-07-02T16:18:39Z</time>
      </trkpt>
      <trkpt lat="43.137264" lon="-1.6118245">
        <time>2022-07-02T16:18:41Z</time>
      </trkpt>
      <trkpt lat="43.137264" lon="-1.6117386">
        <time>2022-07-02T16:18:43Z</time>
      </trkpt>
      <trkpt lat="43.13727" lon="-1.6116542">
        <time>2022-07-02T16:18:45Z</time>
      </trkpt>
      <trkpt lat="43.137287" lon="-1.6115716">
        <time>2022-07-02T16:18:47Z</time>
      </trkpt>
      <trkpt lat="43.137306" lon="-1.6114905">
        <time>2022-07-02T16:18:49Z</time>
      </trkpt>
      <trkpt lat="43.137325" lon="-1.6114101">
        <time>2022-07-02T16:18:51Z</time>
      </trkpt>
      <trkpt lat="43.13735" lon="-1.6113302">
        <time>2022-07-02T16:18:53Z</time>
      </trkpt>
      <trkpt lat="43.13737" lon="-1.6112512">
        <time>2022-07-02T16:18:55Z</time>
      </trkpt>
      <trkpt lat="43.137398" lon="-1.6111746">
        <time>2022-07-02T16:18:57Z</time>
      </trkpt>
      <trkpt lat="43.137417" lon="-1.6110963">
        <time>2022-07-02T16:18:59Z</time>
      </trkpt>
      <trkpt lat="43.137432" lon="-1.6110256">
        <time>2022-07-02T16:19:01Z</time>
      </trkpt>
      <trkpt lat="43.137455" lon="-1.6109525">
        <time>2022-07-02T16:19:03Z</time>
      </trkpt>
      <trkpt lat="43.137478" lon="-1.6108869">
        <time>2022-07-02T16:19:05Z</time>
      </trkpt>
      <trkpt lat="43.13754" lon="-1.610789">
        <time>2022-07-02T16:19:08Z</time>
      </trkpt>
      <trkpt lat="43.137585" lon="-1.6107199">
        <time>2022-07-02T16:19:10Z</time>
      </trkpt>
      <trkpt lat="43.13763" lon="-1.61065">
        <time>2022-07-02T16:19:12Z</time>
      </trkpt>
      <trkpt lat="43.137676" lon="-1.6105765">
        <time>2022-07-02T16:19:14Z</time>
      </trkpt>
      <trkpt lat="43.13772" lon="-1.6104999">
        <time>2022-07-02T16:19:16Z</time>
      </trkpt>
      <trkpt lat="43.13776" lon="-1.6104215">
        <time>2022-07-02T16:19:18Z</time>
      </trkpt>
      <trkpt lat="43.137802" lon="-1.6103399">
        <time>2022-07-02T16:19:20Z</time>
      </trkpt>
      <trkpt lat="43.137848" lon="-1.6102576">
        <time>2022-07-02T16:19:22Z</time>
      </trkpt>
      <trkpt lat="43.13789" lon="-1.6101766">
        <time>2022-07-02T16:19:24Z</time>
      </trkpt>
      <trkpt lat="43.137936" lon="-1.6100953">
        <time>2022-07-02T16:19:26Z</time>
      </trkpt>
      <trkpt lat="43.13798" lon="-1.610014">
        <time>2022-07-02T16:19:28Z</time>
      </trkpt>
      <trkpt lat="43.138027" lon="-1.6099342">
        <time>2022-07-02T16:19:30Z</time>
      </trkpt>
      <trkpt lat="43.13807" lon="-1.6098542">
        <time>2022-07-02T16:19:32Z</time>
      </trkpt>
      <trkpt lat="43.138115" lon="-1.6097753">
        <time>2022-07-02T16:19:34Z</time>
      </trkpt>
      <trkpt lat="43.13816" lon="-1.6096905">
        <time>2022-07-02T16:19:36Z</time>
      </trkpt>
      <trkpt lat="43.138203" lon="-1.6096092">
        <time>2022-07-02T16:19:38Z</time>
      </trkpt>
      <trkpt lat="43.138245" lon="-1.60953">
        <time>2022-07-02T16:19:40Z</time>
      </trkpt>
      <trkpt lat="43.13829" lon="-1.6094476">
        <time>2022-07-02T16:19:42Z</time>
      </trkpt>
      <trkpt lat="43.138332" lon="-1.6093643">
        <time>2022-07-02T16:19:44Z</time>
      </trkpt>
      <trkpt lat="43.13838" lon="-1.6092823">
        <time>2022-07-02T16:19:46Z</time>
      </trkpt>
      <trkpt lat="43.138416" lon="-1.6092069">
        <time>2022-07-02T16:19:48Z</time>
      </trkpt>
      <trkpt lat="43.13846" lon="-1.6091286">
        <time>2022-07-02T16:19:50Z</time>
      </trkpt>
      <trkpt lat="43.138496" lon="-1.6090553">
        <time>2022-07-02T16:19:52Z</time>
      </trkpt>
      <trkpt lat="43.13854" lon="-1.608981">
        <time>2022-07-02T16:19:54Z</time>
      </trkpt>
      <trkpt lat="43.138577" lon="-1.6089057">
        <time>2022-07-02T16:19:56Z</time>
      </trkpt>
      <trkpt lat="43.138622" lon="-1.6088287">
        <time>2022-07-02T16:19:58Z</time>
      </trkpt>
      <trkpt lat="43.138664" lon="-1.6087517">
        <time>2022-07-02T16:20:00Z</time>
      </trkpt>
      <trkpt lat="43.138706" lon="-1.6086723">
        <time>2022-07-02T16:20:02Z</time>
      </trkpt>
      <trkpt lat="43.13875" lon="-1.6085997">
        <time>2022-07-02T16:20:04Z</time>
      </trkpt>
      <trkpt lat="43.13879" lon="-1.6085227">
        <time>2022-07-02T16:20:06Z</time>
      </trkpt>
      <trkpt lat="43.138832" lon="-1.608444">
        <time>2022-07-02T16:20:08Z</time>
      </trkpt>
      <trkpt lat="43.13887" lon="-1.6083627">
        <time>2022-07-02T16:20:10Z</time>
      </trkpt>
      <trkpt lat="43.138912" lon="-1.6082833">
        <time>2022-07-02T16:20:12Z</time>
      </trkpt>
      <trkpt lat="43.138954" lon="-1.6082044">
        <time>2022-07-02T16:20:14Z</time>
      </trkpt>
      <trkpt lat="43.139" lon="-1.608126">
        <time>2022-07-02T16:20:16Z</time>
      </trkpt>
      <trkpt lat="43.13904" lon="-1.60805">
        <time>2022-07-02T16:20:18Z</time>
      </trkpt>
      <trkpt lat="43.13908" lon="-1.6079773">
        <time>2022-07-02T16:20:20Z</time>
      </trkpt>
      <trkpt lat="43.139122" lon="-1.6079093">
        <time>2022-07-02T16:20:22Z</time>
      </trkpt>
      <trkpt lat="43.13918" lon="-1.6078113">
        <time>2022-07-02T16:20:25Z</time>
      </trkpt>
      <trkpt lat="43.139214" lon="-1.6077453">
        <time>2022-07-02T16:20:27Z</time>
      </trkpt>
      <trkpt lat="43.139248" lon="-1.6076753">
        <time>2022-07-02T16:20:29Z</time>
      </trkpt>
      <trkpt lat="43.139282" lon="-1.6076063">
        <time>2022-07-02T16:20:31Z</time>
      </trkpt>
      <trkpt lat="43.13932" lon="-1.6075383">
        <time>2022-07-02T16:20:33Z</time>
      </trkpt>
      <trkpt lat="43.13936" lon="-1.6074727">
        <time>2022-07-02T16:20:35Z</time>
      </trkpt>
      <trkpt lat="43.139393" lon="-1.607404">
        <time>2022-07-02T16:20:37Z</time>
      </trkpt>
      <trkpt lat="43.13943" lon="-1.6073331">
        <time>2022-07-02T16:20:39Z</time>
      </trkpt>
      <trkpt lat="43.13947" lon="-1.6072613">
        <time>2022-07-02T16:20:41Z</time>
      </trkpt>
      <trkpt lat="43.139503" lon="-1.6071877">
        <time>2022-07-02T16:20:43Z</time>
      </trkpt>
      <trkpt lat="43.139538" lon="-1.6071141">
        <time>2022-07-02T16:20:45Z</time>
      </trkpt>
      <trkpt lat="43.13957" lon="-1.607039">
        <time>2022-07-02T16:20:47Z</time>
      </trkpt>
      <trkpt lat="43.139603" lon="-1.6069647">
        <time>2022-07-02T16:20:49Z</time>
      </trkpt>
      <trkpt lat="43.13964" lon="-1.6068897">
        <time>2022-07-02T16:20:51Z</time>
      </trkpt>
      <trkpt lat="43.13967" lon="-1.6068194">
        <time>2022-07-02T16:20:53Z</time>
      </trkpt>
      <trkpt lat="43.1397" lon="-1.606752">
        <time>2022-07-02T16:20:55Z</time>
      </trkpt>
      <trkpt lat="43.139736" lon="-1.6066904">
        <time>2022-07-02T16:20:57Z</time>
      </trkpt>
      <trkpt lat="43.13978" lon="-1.6066327">
        <time>2022-07-02T16:20:59Z</time>
      </trkpt>
      <trkpt lat="43.139816" lon="-1.606575">
        <time>2022-07-02T16:21:01Z</time>
      </trkpt>
      <trkpt lat="43.139854" lon="-1.6065187">
        <time>2022-07-02T16:21:03Z</time>
      </trkpt>
      <trkpt lat="43.139896" lon="-1.6064588">
        <time>2022-07-02T16:21:05Z</time>
      </trkpt>
      <trkpt lat="43.139935" lon="-1.6064024">
        <time>2022-07-02T16:21:07Z</time>
      </trkpt>
      <trkpt lat="43.139977" lon="-1.6063443">
        <time>2022-07-02T16:21:09Z</time>
      </trkpt>
      <trkpt lat="43.140015" lon="-1.606286">
        <time>2022-07-02T16:21:11Z</time>
      </trkpt>
      <trkpt lat="43.140053" lon="-1.606225">
        <time>2022-07-02T16:21:13Z</time>
      </trkpt>
      <trkpt lat="43.140087" lon="-1.6061641">
        <time>2022-07-02T16:21:15Z</time>
      </trkpt>
      <trkpt lat="43.140125" lon="-1.6061047">
        <time>2022-07-02T16:21:17Z</time>
      </trkpt>
      <trkpt lat="43.14016" lon="-1.6060451">
        <time>2022-07-02T16:21:19Z</time>
      </trkpt>
      <trkpt lat="43.140198" lon="-1.6059844">
        <time>2022-07-02T16:21:21Z</time>
      </trkpt>
      <trkpt lat="43.14023" lon="-1.6059201">
        <time>2022-07-02T16:21:23Z</time>
      </trkpt>
      <trkpt lat="43.14026" lon="-1.6058534">
        <time>2022-07-02T16:21:25Z</time>
      </trkpt>
      <trkpt lat="43.14029" lon="-1.6057918">
        <time>2022-07-02T16:21:27Z</time>
      </trkpt>
      <trkpt lat="43.140316" lon="-1.6057328">
        <time>2022-07-02T16:21:29Z</time>
      </trkpt>
      <trkpt lat="43.140354" lon="-1.6056541">
        <time>2022-07-02T16:21:32Z</time>
      </trkpt>
      <trkpt lat="43.1404" lon="-1.6055892">
        <time>2022-07-02T16:21:35Z</time>
      </trkpt>
      <trkpt lat="43.14044" lon="-1.6055355">
        <time>2022-07-02T16:21:38Z</time>
      </trkpt>
      <trkpt lat="43.140472" lon="-1.6054921">
        <time>2022-07-02T16:21:46Z</time>
      </trkpt>
      <trkpt lat="43.140537" lon="-1.6054498">
        <time>2022-07-02T16:23:54Z</time>
      </trkpt>
      <trkpt lat="43.140606" lon="-1.6053904">
        <time>2022-07-02T16:23:57Z</time>
      </trkpt>
      <trkpt lat="43.14066" lon="-1.6053431">
        <time>2022-07-02T16:23:59Z</time>
      </trkpt>
      <trkpt lat="43.14071" lon="-1.6053015">
        <time>2022-07-02T16:24:01Z</time>
      </trkpt>
      <trkpt lat="43.140785" lon="-1.6052401">
        <time>2022-07-02T16:24:04Z</time>
      </trkpt>
      <trkpt lat="43.140835" lon="-1.6052008">
        <time>2022-07-02T16:24:06Z</time>
      </trkpt>
      <trkpt lat="43.140884" lon="-1.6051651">
        <time>2022-07-02T16:24:08Z</time>
      </trkpt>
      <trkpt lat="43.140938" lon="-1.6051252">
        <time>2022-07-02T16:24:10Z</time>
      </trkpt>
      <trkpt lat="43.14099" lon="-1.6050848">
        <time>2022-07-02T16:24:12Z</time>
      </trkpt>
      <trkpt lat="43.14104" lon="-1.6050448">
        <time>2022-07-02T16:24:14Z</time>
      </trkpt>
      <trkpt lat="43.141094" lon="-1.6050068">
        <time>2022-07-02T16:24:16Z</time>
      </trkpt>
      <trkpt lat="43.141144" lon="-1.6049745">
        <time>2022-07-02T16:24:18Z</time>
      </trkpt>
      <trkpt lat="43.141197" lon="-1.6049395">
        <time>2022-07-02T16:24:20Z</time>
      </trkpt>
      <trkpt lat="43.141254" lon="-1.6049051">
        <time>2022-07-02T16:24:22Z</time>
      </trkpt>
      <trkpt lat="43.141304" lon="-1.6048752">
        <time>2022-07-02T16:24:24Z</time>
      </trkpt>
      <trkpt lat="43.141357" lon="-1.6048445">
        <time>2022-07-02T16:24:26Z</time>
      </trkpt>
      <trkpt lat="43.14141" lon="-1.6048155">
        <time>2022-07-02T16:24:28Z</time>
      </trkpt>
      <trkpt lat="43.141464" lon="-1.6047885">
        <time>2022-07-02T16:24:30Z</time>
      </trkpt>
      <trkpt lat="43.141518" lon="-1.6047615">
        <time>2022-07-02T16:24:32Z</time>
      </trkpt>
      <trkpt lat="43.141567" lon="-1.6047359">
        <time>2022-07-02T16:24:34Z</time>
      </trkpt>
      <trkpt lat="43.14162" lon="-1.6047062">
        <time>2022-07-02T16:24:36Z</time>
      </trkpt>
      <trkpt lat="43.141674" lon="-1.6046782">
        <time>2022-07-02T16:24:38Z</time>
      </trkpt>
      <trkpt lat="43.141727" lon="-1.6046495">
        <time>2022-07-02T16:24:40Z</time>
      </trkpt>
      <trkpt lat="43.141785" lon="-1.6046178">
        <time>2022-07-02T16:24:42Z</time>
      </trkpt>
      <trkpt lat="43.141846" lon="-1.6045809">
        <time>2022-07-02T16:24:44Z</time>
      </trkpt>
      <trkpt lat="43.14192" lon="-1.6045419">
        <time>2022-07-02T16:24:46Z</time>
      </trkpt>
      <trkpt lat="43.14199" lon="-1.6045035">
        <time>2022-07-02T16:24:48Z</time>
      </trkpt>
      <trkpt lat="43.14207" lon="-1.6044595">
        <time>2022-07-02T16:24:50Z</time>
      </trkpt>
      <trkpt lat="43.14215" lon="-1.6044172">
        <time>2022-07-02T16:24:52Z</time>
      </trkpt>
      <trkpt lat="43.142242" lon="-1.6043712">
        <time>2022-07-02T16:24:54Z</time>
      </trkpt>
      <trkpt lat="43.14234" lon="-1.6043218">
        <time>2022-07-02T16:24:56Z</time>
      </trkpt>
      <trkpt lat="43.14239" lon="-1.6042982">
        <time>2022-07-02T16:24:57Z</time>
      </trkpt>
      <trkpt lat="43.142494" lon="-1.6042572">
        <time>2022-07-02T16:24:59Z</time>
      </trkpt>
      <trkpt lat="43.142544" lon="-1.6042416">
        <time>2022-07-02T16:25:00Z</time>
      </trkpt>
      <trkpt lat="43.142593" lon="-1.6042299">
        <time>2022-07-02T16:25:01Z</time>
      </trkpt>
      <trkpt lat="43.142647" lon="-1.6042209">
        <time>2022-07-02T16:25:02Z</time>
      </trkpt>
      <trkpt lat="43.1427" lon="-1.6042155">
        <time>2022-07-02T16:25:03Z</time>
      </trkpt>
      <trkpt lat="43.142754" lon="-1.6042112">
        <time>2022-07-02T16:25:04Z</time>
      </trkpt>
      <trkpt lat="43.142857" lon="-1.6041979">
        <time>2022-07-02T16:25:06Z</time>
      </trkpt>
      <trkpt lat="43.142906" lon="-1.6041832">
        <time>2022-07-02T16:25:07Z</time>
      </trkpt>
      <trkpt lat="43.142956" lon="-1.6041602">
        <time>2022-07-02T16:25:08Z</time>
      </trkpt>
      <trkpt lat="43.142998" lon="-1.6041286">
        <time>2022-07-02T16:25:09Z</time>
      </trkpt>
      <trkpt lat="43.143074" lon="-1.6040466">
        <time>2022-07-02T16:25:11Z</time>
      </trkpt>
      <trkpt lat="43.143105" lon="-1.604">
        <time>2022-07-02T16:25:12Z</time>
      </trkpt>
      <trkpt lat="43.143147" lon="-1.6038953">
        <time>2022-07-02T16:25:14Z</time>
      </trkpt>
      <trkpt lat="43.143166" lon="-1.6037786">
        <time>2022-07-02T16:25:16Z</time>
      </trkpt>
      <trkpt lat="43.143173" lon="-1.6036559">
        <time>2022-07-02T16:25:18Z</time>
      </trkpt>
      <trkpt lat="43.14317" lon="-1.603537">
        <time>2022-07-02T16:25:20Z</time>
      </trkpt>
      <trkpt lat="43.143154" lon="-1.6033599">
        <time>2022-07-02T16:25:23Z</time>
      </trkpt>
      <trkpt lat="43.143147" lon="-1.603238">
        <time>2022-07-02T16:25:25Z</time>
      </trkpt>
      <trkpt lat="43.14314" lon="-1.6031176">
        <time>2022-07-02T16:25:27Z</time>
      </trkpt>
      <trkpt lat="43.143135" lon="-1.602997">
        <time>2022-07-02T16:25:29Z</time>
      </trkpt>
      <trkpt lat="43.14313" lon="-1.6028763">
        <time>2022-07-02T16:25:31Z</time>
      </trkpt>
      <trkpt lat="43.143135" lon="-1.6027579">
        <time>2022-07-02T16:25:33Z</time>
      </trkpt>
      <trkpt lat="43.14314" lon="-1.602641">
        <time>2022-07-02T16:25:35Z</time>
      </trkpt>
      <trkpt lat="43.143147" lon="-1.6025267">
        <time>2022-07-02T16:25:37Z</time>
      </trkpt>
      <trkpt lat="43.14315" lon="-1.6024126">
        <time>2022-07-02T16:25:39Z</time>
      </trkpt>
      <trkpt lat="43.143158" lon="-1.6022996">
        <time>2022-07-02T16:25:41Z</time>
      </trkpt>
      <trkpt lat="43.14316" lon="-1.6021873">
        <time>2022-07-02T16:25:43Z</time>
      </trkpt>
      <trkpt lat="43.14317" lon="-1.602074">
        <time>2022-07-02T16:25:45Z</time>
      </trkpt>
      <trkpt lat="43.143173" lon="-1.6019623">
        <time>2022-07-02T16:25:47Z</time>
      </trkpt>
      <trkpt lat="43.14318" lon="-1.6018556">
        <time>2022-07-02T16:25:49Z</time>
      </trkpt>
      <trkpt lat="43.143185" lon="-1.601757">
        <time>2022-07-02T16:25:51Z</time>
      </trkpt>
      <trkpt lat="43.143192" lon="-1.6016606">
        <time>2022-07-02T16:25:53Z</time>
      </trkpt>
      <trkpt lat="43.1432" lon="-1.6015646">
        <time>2022-07-02T16:25:55Z</time>
      </trkpt>
      <trkpt lat="43.143208" lon="-1.6014743">
        <time>2022-07-02T16:25:57Z</time>
      </trkpt>
      <trkpt lat="43.14321" lon="-1.6013846">
        <time>2022-07-02T16:25:59Z</time>
      </trkpt>
      <trkpt lat="43.143215" lon="-1.601295">
        <time>2022-07-02T16:26:01Z</time>
      </trkpt>
      <trkpt lat="43.143215" lon="-1.601204">
        <time>2022-07-02T16:26:03Z</time>
      </trkpt>
      <trkpt lat="43.14322" lon="-1.6011194">
        <time>2022-07-02T16:26:05Z</time>
      </trkpt>
      <trkpt lat="43.14322" lon="-1.6010263">
        <time>2022-07-02T16:26:07Z</time>
      </trkpt>
      <trkpt lat="43.143223" lon="-1.6009383">
        <time>2022-07-02T16:26:09Z</time>
      </trkpt>
      <trkpt lat="43.143227" lon="-1.6008604">
        <time>2022-07-02T16:26:11Z</time>
      </trkpt>
      <trkpt lat="43.14323" lon="-1.600785">
        <time>2022-07-02T16:26:13Z</time>
      </trkpt>
      <trkpt lat="43.143234" lon="-1.600709">
        <time>2022-07-02T16:26:15Z</time>
      </trkpt>
      <trkpt lat="43.143238" lon="-1.6006273">
        <time>2022-07-02T16:26:17Z</time>
      </trkpt>
      <trkpt lat="43.143238" lon="-1.6005514">
        <time>2022-07-02T16:26:19Z</time>
      </trkpt>
      <trkpt lat="43.14324" lon="-1.6004827">
        <time>2022-07-02T16:26:21Z</time>
      </trkpt>
      <trkpt lat="43.143246" lon="-1.6004181">
        <time>2022-07-02T16:26:23Z</time>
      </trkpt>
      <trkpt lat="43.143253" lon="-1.6003247">
        <time>2022-07-02T16:26:26Z</time>
      </trkpt>
      <trkpt lat="43.143257" lon="-1.6002357">
        <time>2022-07-02T16:26:29Z</time>
      </trkpt>
      <trkpt lat="43.14326" lon="-1.6001434">
        <time>2022-07-02T16:26:32Z</time>
      </trkpt>
      <trkpt lat="43.14326" lon="-1.6000494">
        <time>2022-07-02T16:26:35Z</time>
      </trkpt>
      <trkpt lat="43.143265" lon="-1.5999571">
        <time>2022-07-02T16:26:38Z</time>
      </trkpt>
      <trkpt lat="43.143265" lon="-1.5998673">
        <time>2022-07-02T16:26:41Z</time>
      </trkpt>
      <trkpt lat="43.14327" lon="-1.5997708">
        <time>2022-07-02T16:26:44Z</time>
      </trkpt>
      <trkpt lat="43.143265" lon="-1.5997057">
        <time>2022-07-02T16:26:46Z</time>
      </trkpt>
      <trkpt lat="43.14327" lon="-1.5996104">
        <time>2022-07-02T16:26:49Z</time>
      </trkpt>
      <trkpt lat="43.14327" lon="-1.5995468">
        <time>2022-07-02T16:26:51Z</time>
      </trkpt>
      <trkpt lat="43.143276" lon="-1.5994544">
        <time>2022-07-02T16:26:54Z</time>
      </trkpt>
      <trkpt lat="43.14328" lon="-1.5993614">
        <time>2022-07-02T16:26:57Z</time>
      </trkpt>
      <trkpt lat="43.143284" lon="-1.5992651">
        <time>2022-07-02T16:27:00Z</time>
      </trkpt>
      <trkpt lat="43.143288" lon="-1.5991731">
        <time>2022-07-02T16:27:03Z</time>
      </trkpt>
      <trkpt lat="43.1433" lon="-1.5990818">
        <time>2022-07-02T16:27:06Z</time>
      </trkpt>
      <trkpt lat="43.143314" lon="-1.5989888">
        <time>2022-07-02T16:27:09Z</time>
      </trkpt>
      <trkpt lat="43.143322" lon="-1.5989248">
        <time>2022-07-02T16:27:11Z</time>
      </trkpt>
      <trkpt lat="43.14334" lon="-1.5988318">
        <time>2022-07-02T16:27:14Z</time>
      </trkpt>
      <trkpt lat="43.143356" lon="-1.5987711">
        <time>2022-07-02T16:27:16Z</time>
      </trkpt>
      <trkpt lat="43.14338" lon="-1.5986785">
        <time>2022-07-02T16:27:19Z</time>
      </trkpt>
      <trkpt lat="43.143402" lon="-1.5985824">
        <time>2022-07-02T16:27:22Z</time>
      </trkpt>
      <trkpt lat="43.143425" lon="-1.5984851">
        <time>2022-07-02T16:27:25Z</time>
      </trkpt>
      <trkpt lat="43.143448" lon="-1.5984178">
        <time>2022-07-02T16:27:27Z</time>
      </trkpt>
      <trkpt lat="43.143467" lon="-1.5983437">
        <time>2022-07-02T16:27:29Z</time>
      </trkpt>
      <trkpt lat="43.143486" lon="-1.5982648">
        <time>2022-07-02T16:27:31Z</time>
      </trkpt>
      <trkpt lat="43.143505" lon="-1.5981815">
        <time>2022-07-02T16:27:33Z</time>
      </trkpt>
      <trkpt lat="43.143528" lon="-1.5980948">
        <time>2022-07-02T16:27:35Z</time>
      </trkpt>
      <trkpt lat="43.143547" lon="-1.5980015">
        <time>2022-07-02T16:27:37Z</time>
      </trkpt>
      <trkpt lat="43.143562" lon="-1.5978961">
        <time>2022-07-02T16:27:39Z</time>
      </trkpt>
      <trkpt lat="43.143566" lon="-1.5977888">
        <time>2022-07-02T16:27:41Z</time>
      </trkpt>
      <trkpt lat="43.143566" lon="-1.5976691">
        <time>2022-07-02T16:27:43Z</time>
      </trkpt>
      <trkpt lat="43.143555" lon="-1.5975378">
        <time>2022-07-02T16:27:45Z</time>
      </trkpt>
      <trkpt lat="43.14354" lon="-1.5974035">
        <time>2022-07-02T16:27:47Z</time>
      </trkpt>
      <trkpt lat="43.143517" lon="-1.5972558">
        <time>2022-07-02T16:27:49Z</time>
      </trkpt>
      <trkpt lat="43.143505" lon="-1.5971792">
        <time>2022-07-02T16:27:50Z</time>
      </trkpt>
      <trkpt lat="43.143494" lon="-1.5970995">
        <time>2022-07-02T16:27:51Z</time>
      </trkpt>
      <trkpt lat="43.143475" lon="-1.5970185">
        <time>2022-07-02T16:27:52Z</time>
      </trkpt>
      <trkpt lat="43.14345" lon="-1.5969359">
        <time>2022-07-02T16:27:53Z</time>
      </trkpt>
      <trkpt lat="43.14343" lon="-1.5968502">
        <time>2022-07-02T16:27:54Z</time>
      </trkpt>
      <trkpt lat="43.1434" lon="-1.5967625">
        <time>2022-07-02T16:27:55Z</time>
      </trkpt>
      <trkpt lat="43.143364" lon="-1.5966802">
        <time>2022-07-02T16:27:56Z</time>
      </trkpt>
      <trkpt lat="43.143322" lon="-1.5965915">
        <time>2022-07-02T16:27:57Z</time>
      </trkpt>
      <trkpt lat="43.143272" lon="-1.5965072">
        <time>2022-07-02T16:27:58Z</time>
      </trkpt>
      <trkpt lat="43.143158" lon="-1.5963589">
        <time>2022-07-02T16:28:00Z</time>
      </trkpt>
      <trkpt lat="43.143093" lon="-1.5962945">
        <time>2022-07-02T16:28:01Z</time>
      </trkpt>
      <trkpt lat="43.14303" lon="-1.5962368">
        <time>2022-07-02T16:28:02Z</time>
      </trkpt>
      <trkpt lat="43.142963" lon="-1.5961835">
        <time>2022-07-02T16:28:03Z</time>
      </trkpt>
      <trkpt lat="43.14289" lon="-1.5961353">
        <time>2022-07-02T16:28:04Z</time>
      </trkpt>
      <trkpt lat="43.142822" lon="-1.5960909">
        <time>2022-07-02T16:28:05Z</time>
      </trkpt>
      <trkpt lat="43.142754" lon="-1.5960499">
        <time>2022-07-02T16:28:06Z</time>
      </trkpt>
      <trkpt lat="43.14269" lon="-1.5960145">
        <time>2022-07-02T16:28:07Z</time>
      </trkpt>
      <trkpt lat="43.142628" lon="-1.5959796">
        <time>2022-07-02T16:28:08Z</time>
      </trkpt>
      <trkpt lat="43.142567" lon="-1.5959452">
        <time>2022-07-02T16:28:09Z</time>
      </trkpt>
      <trkpt lat="43.142506" lon="-1.5959132">
        <time>2022-07-02T16:28:10Z</time>
      </trkpt>
      <trkpt lat="43.14245" lon="-1.5958822">
        <time>2022-07-02T16:28:11Z</time>
      </trkpt>
      <trkpt lat="43.14239" lon="-1.5958506">
        <time>2022-07-02T16:28:12Z</time>
      </trkpt>
      <trkpt lat="43.142338" lon="-1.5958216">
        <time>2022-07-02T16:28:13Z</time>
      </trkpt>
      <trkpt lat="43.142284" lon="-1.5957936">
        <time>2022-07-02T16:28:14Z</time>
      </trkpt>
      <trkpt lat="43.142235" lon="-1.5957673">
        <time>2022-07-02T16:28:15Z</time>
      </trkpt>
      <trkpt lat="43.14219" lon="-1.5957406">
        <time>2022-07-02T16:28:16Z</time>
      </trkpt>
      <trkpt lat="43.142143" lon="-1.5957125">
        <time>2022-07-02T16:28:17Z</time>
      </trkpt>
      <trkpt lat="43.1421" lon="-1.5956876">
        <time>2022-07-02T16:28:18Z</time>
      </trkpt>
      <trkpt lat="43.14202" lon="-1.5956359">
        <time>2022-07-02T16:28:20Z</time>
      </trkpt>
      <trkpt lat="43.141945" lon="-1.5955849">
        <time>2022-07-02T16:28:22Z</time>
      </trkpt>
      <trkpt lat="43.141876" lon="-1.5955329">
        <time>2022-07-02T16:28:24Z</time>
      </trkpt>
      <trkpt lat="43.141815" lon="-1.5954779">
        <time>2022-07-02T16:28:26Z</time>
      </trkpt>
      <trkpt lat="43.141758" lon="-1.5954226">
        <time>2022-07-02T16:28:28Z</time>
      </trkpt>
      <trkpt lat="43.141705" lon="-1.5953586">
        <time>2022-07-02T16:28:30Z</time>
      </trkpt>
      <trkpt lat="43.141663" lon="-1.5952935">
        <time>2022-07-02T16:28:32Z</time>
      </trkpt>
      <trkpt lat="43.14162" lon="-1.5952282">
        <time>2022-07-02T16:28:34Z</time>
      </trkpt>
      <trkpt lat="43.141582" lon="-1.5951629">
        <time>2022-07-02T16:28:36Z</time>
      </trkpt>
      <trkpt lat="43.14154" lon="-1.5950916">
        <time>2022-07-02T16:28:38Z</time>
      </trkpt>
      <trkpt lat="43.141495" lon="-1.5950226">
        <time>2022-07-02T16:28:40Z</time>
      </trkpt>
      <trkpt lat="43.14145" lon="-1.5949559">
        <time>2022-07-02T16:28:42Z</time>
      </trkpt>
      <trkpt lat="43.1414" lon="-1.5948865">
        <time>2022-07-02T16:28:44Z</time>
      </trkpt>
      <trkpt lat="43.141354" lon="-1.5948203">
        <time>2022-07-02T16:28:46Z</time>
      </trkpt>
      <trkpt lat="43.141315" lon="-1.5947573">
        <time>2022-07-02T16:28:48Z</time>
      </trkpt>
      <trkpt lat="43.141277" lon="-1.594693">
        <time>2022-07-02T16:28:50Z</time>
      </trkpt>
      <trkpt lat="43.141243" lon="-1.594631">
        <time>2022-07-02T16:28:52Z</time>
      </trkpt>
      <trkpt lat="43.14121" lon="-1.5945666">
        <time>2022-07-02T16:28:54Z</time>
      </trkpt>
      <trkpt lat="43.14117" lon="-1.5945003">
        <time>2022-07-02T16:28:56Z</time>
      </trkpt>
      <trkpt lat="43.141132" lon="-1.5944289">
        <time>2022-07-02T16:28:58Z</time>
      </trkpt>
      <trkpt lat="43.141098" lon="-1.5943543">
        <time>2022-07-02T16:29:00Z</time>
      </trkpt>
      <trkpt lat="43.141064" lon="-1.5942773">
        <time>2022-07-02T16:29:02Z</time>
      </trkpt>
      <trkpt lat="43.141033" lon="-1.5941973">
        <time>2022-07-02T16:29:04Z</time>
      </trkpt>
      <trkpt lat="43.141003" lon="-1.594115">
        <time>2022-07-02T16:29:06Z</time>
      </trkpt>
      <trkpt lat="43.14097" lon="-1.594031">
        <time>2022-07-02T16:29:08Z</time>
      </trkpt>
      <trkpt lat="43.140934" lon="-1.593949">
        <time>2022-07-02T16:29:10Z</time>
      </trkpt>
      <trkpt lat="43.1409" lon="-1.5938697">
        <time>2022-07-02T16:29:12Z</time>
      </trkpt>
      <trkpt lat="43.14087" lon="-1.5937883">
        <time>2022-07-02T16:29:14Z</time>
      </trkpt>
      <trkpt lat="43.14084" lon="-1.5937063">
        <time>2022-07-02T16:29:16Z</time>
      </trkpt>
      <trkpt lat="43.140812" lon="-1.5936229">
        <time>2022-07-02T16:29:18Z</time>
      </trkpt>
      <trkpt lat="43.14078" lon="-1.5935423">
        <time>2022-07-02T16:29:20Z</time>
      </trkpt>
      <trkpt lat="43.140747" lon="-1.593465">
        <time>2022-07-02T16:29:22Z</time>
      </trkpt>
      <trkpt lat="43.140705" lon="-1.5933987">
        <time>2022-07-02T16:29:24Z</time>
      </trkpt>
      <trkpt lat="43.14066" lon="-1.5933464">
        <time>2022-07-02T16:29:26Z</time>
      </trkpt>
      <trkpt lat="43.140606" lon="-1.5933113">
        <time>2022-07-02T16:29:28Z</time>
      </trkpt>
      <trkpt lat="43.14056" lon="-1.5932877">
        <time>2022-07-02T16:29:30Z</time>
      </trkpt>
      <trkpt lat="43.140507" lon="-1.593261">
        <time>2022-07-02T16:29:33Z</time>
      </trkpt>
      <trkpt lat="43.140446" lon="-1.5932237">
        <time>2022-07-02T16:29:38Z</time>
      </trkpt>
      <trkpt lat="43.14042" lon="-1.5931433">
        <time>2022-07-02T16:29:41Z</time>
      </trkpt>
      <trkpt lat="43.14041" lon="-1.5930723">
        <time>2022-07-02T16:29:43Z</time>
      </trkpt>
      <trkpt lat="43.140423" lon="-1.5929914">
        <time>2022-07-02T16:29:45Z</time>
      </trkpt>
      <trkpt lat="43.140438" lon="-1.5929034">
        <time>2022-07-02T16:29:47Z</time>
      </trkpt>
      <trkpt lat="43.140457" lon="-1.5928077">
        <time>2022-07-02T16:29:49Z</time>
      </trkpt>
      <trkpt lat="43.14048" lon="-1.5927076">
        <time>2022-07-02T16:29:51Z</time>
      </trkpt>
      <trkpt lat="43.14051" lon="-1.592603">
        <time>2022-07-02T16:29:53Z</time>
      </trkpt>
      <trkpt lat="43.140537" lon="-1.5924964">
        <time>2022-07-02T16:29:55Z</time>
      </trkpt>
      <trkpt lat="43.140568" lon="-1.5923837">
        <time>2022-07-02T16:29:57Z</time>
      </trkpt>
      <trkpt lat="43.140602" lon="-1.5922724">
        <time>2022-07-02T16:29:59Z</time>
      </trkpt>
      <trkpt lat="43.140636" lon="-1.592161">
        <time>2022-07-02T16:30:01Z</time>
      </trkpt>
      <trkpt lat="43.14067" lon="-1.5920467">
        <time>2022-07-02T16:30:03Z</time>
      </trkpt>
      <trkpt lat="43.14071" lon="-1.5919291">
        <time>2022-07-02T16:30:05Z</time>
      </trkpt>
      <trkpt lat="43.14075" lon="-1.5918064">
        <time>2022-07-02T16:30:07Z</time>
      </trkpt>
      <trkpt lat="43.140774" lon="-1.5917464">
        <time>2022-07-02T16:30:08Z</time>
      </trkpt>
      <trkpt lat="43.140816" lon="-1.5916214">
        <time>2022-07-02T16:30:10Z</time>
      </trkpt>
      <trkpt lat="43.14084" lon="-1.5915564">
        <time>2022-07-02T16:30:11Z</time>
      </trkpt>
      <trkpt lat="43.14086" lon="-1.5914904">
        <time>2022-07-02T16:30:12Z</time>
      </trkpt>
      <trkpt lat="43.14091" lon="-1.5913547">
        <time>2022-07-02T16:30:14Z</time>
      </trkpt>
      <trkpt lat="43.140934" lon="-1.591287">
        <time>2022-07-02T16:30:15Z</time>
      </trkpt>
      <trkpt lat="43.140957" lon="-1.5912184">
        <time>2022-07-02T16:30:16Z</time>
      </trkpt>
      <trkpt lat="43.14098" lon="-1.5911491">
        <time>2022-07-02T16:30:17Z</time>
      </trkpt>
      <trkpt lat="43.141003" lon="-1.5910795">
        <time>2022-07-02T16:30:18Z</time>
      </trkpt>
      <trkpt lat="43.141026" lon="-1.5910108">
        <time>2022-07-02T16:30:19Z</time>
      </trkpt>
      <trkpt lat="43.141045" lon="-1.5909427">
        <time>2022-07-02T16:30:20Z</time>
      </trkpt>
      <trkpt lat="43.141068" lon="-1.5908751">
        <time>2022-07-02T16:30:21Z</time>
      </trkpt>
      <trkpt lat="43.14109" lon="-1.5908087">
        <time>2022-07-02T16:30:22Z</time>
      </trkpt>
      <trkpt lat="43.141132" lon="-1.5906781">
        <time>2022-07-02T16:30:24Z</time>
      </trkpt>
      <trkpt lat="43.141155" lon="-1.5906131">
        <time>2022-07-02T16:30:25Z</time>
      </trkpt>
      <trkpt lat="43.141174" lon="-1.5905482">
        <time>2022-07-02T16:30:26Z</time>
      </trkpt>
      <trkpt lat="43.141197" lon="-1.5904838">
        <time>2022-07-02T16:30:27Z</time>
      </trkpt>
      <trkpt lat="43.141235" lon="-1.5903524">
        <time>2022-07-02T16:30:29Z</time>
      </trkpt>
      <trkpt lat="43.14126" lon="-1.5902871">
        <time>2022-07-02T16:30:30Z</time>
      </trkpt>
      <trkpt lat="43.141277" lon="-1.5902221">
        <time>2022-07-02T16:30:31Z</time>
      </trkpt>
      <trkpt lat="43.141315" lon="-1.5900894">
        <time>2022-07-02T16:30:33Z</time>
      </trkpt>
      <trkpt lat="43.141357" lon="-1.5899578">
        <time>2022-07-02T16:30:35Z</time>
      </trkpt>
      <trkpt lat="43.141376" lon="-1.5898925">
        <time>2022-07-02T16:30:36Z</time>
      </trkpt>
      <trkpt lat="43.1414" lon="-1.5898265">
        <time>2022-07-02T16:30:37Z</time>
      </trkpt>
      <trkpt lat="43.14144" lon="-1.5896928">
        <time>2022-07-02T16:30:39Z</time>
      </trkpt>
      <trkpt lat="43.14146" lon="-1.5896258">
        <time>2022-07-02T16:30:40Z</time>
      </trkpt>
      <trkpt lat="43.14148" lon="-1.5895588">
        <time>2022-07-02T16:30:41Z</time>
      </trkpt>
      <trkpt lat="43.141502" lon="-1.5894915">
        <time>2022-07-02T16:30:42Z</time>
      </trkpt>
      <trkpt lat="43.141525" lon="-1.5894241">
        <time>2022-07-02T16:30:43Z</time>
      </trkpt>
      <trkpt lat="43.141544" lon="-1.5893568">
        <time>2022-07-02T16:30:44Z</time>
      </trkpt>
      <trkpt lat="43.141567" lon="-1.5892901">
        <time>2022-07-02T16:30:45Z</time>
      </trkpt>
      <trkpt lat="43.141586" lon="-1.5892228">
        <time>2022-07-02T16:30:46Z</time>
      </trkpt>
      <trkpt lat="43.14161" lon="-1.5891515">
        <time>2022-07-02T16:30:47Z</time>
      </trkpt>
      <trkpt lat="43.141632" lon="-1.5890869">
        <time>2022-07-02T16:30:48Z</time>
      </trkpt>
      <trkpt lat="43.141655" lon="-1.5890225">
        <time>2022-07-02T16:30:49Z</time>
      </trkpt>
      <trkpt lat="43.141678" lon="-1.5889572">
        <time>2022-07-02T16:30:50Z</time>
      </trkpt>
      <trkpt lat="43.141697" lon="-1.5888919">
        <time>2022-07-02T16:30:51Z</time>
      </trkpt>
      <trkpt lat="43.141743" lon="-1.5887645">
        <time>2022-07-02T16:30:53Z</time>
      </trkpt>
      <trkpt lat="43.14176" lon="-1.5887018">
        <time>2022-07-02T16:30:54Z</time>
      </trkpt>
      <trkpt lat="43.141785" lon="-1.5886389">
        <time>2022-07-02T16:30:55Z</time>
      </trkpt>
      <trkpt lat="43.141827" lon="-1.5885129">
        <time>2022-07-02T16:30:57Z</time>
      </trkpt>
      <trkpt lat="43.141872" lon="-1.5883852">
        <time>2022-07-02T16:30:59Z</time>
      </trkpt>
      <trkpt lat="43.141895" lon="-1.5883216">
        <time>2022-07-02T16:31:00Z</time>
      </trkpt>
      <trkpt lat="43.14192" lon="-1.5882566">
        <time>2022-07-02T16:31:01Z</time>
      </trkpt>
      <trkpt lat="43.14194" lon="-1.5881922">
        <time>2022-07-02T16:31:02Z</time>
      </trkpt>
      <trkpt lat="43.141987" lon="-1.5880653">
        <time>2022-07-02T16:31:04Z</time>
      </trkpt>
      <trkpt lat="43.14201" lon="-1.5880039">
        <time>2022-07-02T16:31:05Z</time>
      </trkpt>
      <trkpt lat="43.142033" lon="-1.5879436">
        <time>2022-07-02T16:31:06Z</time>
      </trkpt>
      <trkpt lat="43.142086" lon="-1.5878265">
        <time>2022-07-02T16:31:08Z</time>
      </trkpt>
      <trkpt lat="43.14214" lon="-1.5877125">
        <time>2022-07-02T16:31:10Z</time>
      </trkpt>
      <trkpt lat="43.142193" lon="-1.5876052">
        <time>2022-07-02T16:31:12Z</time>
      </trkpt>
      <trkpt lat="43.142246" lon="-1.5875059">
        <time>2022-07-02T16:31:14Z</time>
      </trkpt>
      <trkpt lat="43.1423" lon="-1.5874139">
        <time>2022-07-02T16:31:16Z</time>
      </trkpt>
      <trkpt lat="43.14235" lon="-1.5873302">
        <time>2022-07-02T16:31:18Z</time>
      </trkpt>
      <trkpt lat="43.1424" lon="-1.5872482">
        <time>2022-07-02T16:31:20Z</time>
      </trkpt>
      <trkpt lat="43.14245" lon="-1.587166">
        <time>2022-07-02T16:31:22Z</time>
      </trkpt>
      <trkpt lat="43.142498" lon="-1.587081">
        <time>2022-07-02T16:31:24Z</time>
      </trkpt>
      <trkpt lat="43.14255" lon="-1.5869936">
        <time>2022-07-02T16:31:26Z</time>
      </trkpt>
      <trkpt lat="43.142597" lon="-1.5869052">
        <time>2022-07-02T16:31:28Z</time>
      </trkpt>
      <trkpt lat="43.142647" lon="-1.5868126">
        <time>2022-07-02T16:31:30Z</time>
      </trkpt>
      <trkpt lat="43.142693" lon="-1.5867165">
        <time>2022-07-02T16:31:32Z</time>
      </trkpt>
      <trkpt lat="43.142742" lon="-1.58662">
        <time>2022-07-02T16:31:34Z</time>
      </trkpt>
      <trkpt lat="43.142788" lon="-1.5865192">
        <time>2022-07-02T16:31:36Z</time>
      </trkpt>
      <trkpt lat="43.14283" lon="-1.5864103">
        <time>2022-07-02T16:31:38Z</time>
      </trkpt>
      <trkpt lat="43.142864" lon="-1.5863029">
        <time>2022-07-02T16:31:40Z</time>
      </trkpt>
      <trkpt lat="43.142895" lon="-1.586196">
        <time>2022-07-02T16:31:42Z</time>
      </trkpt>
      <trkpt lat="43.14292" lon="-1.5860926">
        <time>2022-07-02T16:31:44Z</time>
      </trkpt>
      <trkpt lat="43.14294" lon="-1.5859953">
        <time>2022-07-02T16:31:46Z</time>
      </trkpt>
      <trkpt lat="43.142952" lon="-1.5859053">
        <time>2022-07-02T16:31:48Z</time>
      </trkpt>
      <trkpt lat="43.142963" lon="-1.5858243">
        <time>2022-07-02T16:31:50Z</time>
      </trkpt>
      <trkpt lat="43.14297" lon="-1.5857509">
        <time>2022-07-02T16:31:52Z</time>
      </trkpt>
      <trkpt lat="43.14298" lon="-1.5856243">
        <time>2022-07-02T16:31:56Z</time>
      </trkpt>
      <trkpt lat="43.14296" lon="-1.5855486">
        <time>2022-07-02T16:31:59Z</time>
      </trkpt>
      <trkpt lat="43.14293" lon="-1.5854833">
        <time>2022-07-02T16:32:02Z</time>
      </trkpt>
      <trkpt lat="43.142883" lon="-1.585444">
        <time>2022-07-02T16:32:06Z</time>
      </trkpt>
      <trkpt lat="43.14295" lon="-1.5854193">
        <time>2022-07-02T16:32:25Z</time>
      </trkpt>
      <trkpt lat="43.142994" lon="-1.585357">
        <time>2022-07-02T16:32:28Z</time>
      </trkpt>
      <trkpt lat="43.14301" lon="-1.585245">
        <time>2022-07-02T16:32:31Z</time>
      </trkpt>
      <trkpt lat="43.143013" lon="-1.5851537">
        <time>2022-07-02T16:32:33Z</time>
      </trkpt>
      <trkpt lat="43.143017" lon="-1.585051">
        <time>2022-07-02T16:32:35Z</time>
      </trkpt>
      <trkpt lat="43.143017" lon="-1.58494">
        <time>2022-07-02T16:32:37Z</time>
      </trkpt>
      <trkpt lat="43.143013" lon="-1.5848316">
        <time>2022-07-02T16:32:39Z</time>
      </trkpt>
      <trkpt lat="43.14301" lon="-1.5847243">
        <time>2022-07-02T16:32:41Z</time>
      </trkpt>
      <trkpt lat="43.143005" lon="-1.5846187">
        <time>2022-07-02T16:32:43Z</time>
      </trkpt>
      <trkpt lat="43.143" lon="-1.5845116">
        <time>2022-07-02T16:32:45Z</time>
      </trkpt>
      <trkpt lat="43.142994" lon="-1.584406">
        <time>2022-07-02T16:32:47Z</time>
      </trkpt>
      <trkpt lat="43.142986" lon="-1.584305">
        <time>2022-07-02T16:32:49Z</time>
      </trkpt>
      <trkpt lat="43.14298" lon="-1.584201">
        <time>2022-07-02T16:32:51Z</time>
      </trkpt>
      <trkpt lat="43.14297" lon="-1.584101">
        <time>2022-07-02T16:32:53Z</time>
      </trkpt>
      <trkpt lat="43.142967" lon="-1.584003">
        <time>2022-07-02T16:32:55Z</time>
      </trkpt>
      <trkpt lat="43.14296" lon="-1.5839074">
        <time>2022-07-02T16:32:57Z</time>
      </trkpt>
      <trkpt lat="43.142956" lon="-1.583815">
        <time>2022-07-02T16:32:59Z</time>
      </trkpt>
      <trkpt lat="43.14295" lon="-1.583727">
        <time>2022-07-02T16:33:01Z</time>
      </trkpt>
      <trkpt lat="43.142944" lon="-1.583643">
        <time>2022-07-02T16:33:03Z</time>
      </trkpt>
      <trkpt lat="43.142937" lon="-1.5835633">
        <time>2022-07-02T16:33:05Z</time>
      </trkpt>
      <trkpt lat="43.14293" lon="-1.5834837">
        <time>2022-07-02T16:33:07Z</time>
      </trkpt>
      <trkpt lat="43.142918" lon="-1.5833681">
        <time>2022-07-02T16:33:10Z</time>
      </trkpt>
      <trkpt lat="43.142914" lon="-1.5832916">
        <time>2022-07-02T16:33:12Z</time>
      </trkpt>
      <trkpt lat="43.14291" lon="-1.5832196">
        <time>2022-07-02T16:33:14Z</time>
      </trkpt>
      <trkpt lat="43.142902" lon="-1.5831411">
        <time>2022-07-02T16:33:16Z</time>
      </trkpt>
      <trkpt lat="43.1429" lon="-1.583066">
        <time>2022-07-02T16:33:18Z</time>
      </trkpt>
      <trkpt lat="43.142895" lon="-1.5829908">
        <time>2022-07-02T16:33:20Z</time>
      </trkpt>
      <trkpt lat="43.14289" lon="-1.5829154">
        <time>2022-07-02T16:33:22Z</time>
      </trkpt>
      <trkpt lat="43.142883" lon="-1.5828388">
        <time>2022-07-02T16:33:24Z</time>
      </trkpt>
      <trkpt lat="43.142876" lon="-1.5827618">
        <time>2022-07-02T16:33:26Z</time>
      </trkpt>
      <trkpt lat="43.142864" lon="-1.5826824">
        <time>2022-07-02T16:33:28Z</time>
      </trkpt>
      <trkpt lat="43.142857" lon="-1.5826054">
        <time>2022-07-02T16:33:30Z</time>
      </trkpt>
      <trkpt lat="43.142845" lon="-1.58253">
        <time>2022-07-02T16:33:32Z</time>
      </trkpt>
      <trkpt lat="43.142838" lon="-1.5824547">
        <time>2022-07-02T16:33:34Z</time>
      </trkpt>
      <trkpt lat="43.142826" lon="-1.5823791">
        <time>2022-07-02T16:33:36Z</time>
      </trkpt>
      <trkpt lat="43.14281" lon="-1.5823051">
        <time>2022-07-02T16:33:38Z</time>
      </trkpt>
      <trkpt lat="43.14279" lon="-1.5822294">
        <time>2022-07-02T16:33:40Z</time>
      </trkpt>
      <trkpt lat="43.14277" lon="-1.5821534">
        <time>2022-07-02T16:33:42Z</time>
      </trkpt>
      <trkpt lat="43.142742" lon="-1.5820774">
        <time>2022-07-02T16:33:44Z</time>
      </trkpt>
      <trkpt lat="43.142715" lon="-1.5819985">
        <time>2022-07-02T16:33:46Z</time>
      </trkpt>
      <trkpt lat="43.142685" lon="-1.5819178">
        <time>2022-07-02T16:33:48Z</time>
      </trkpt>
      <trkpt lat="43.14265" lon="-1.58184">
        <time>2022-07-02T16:33:50Z</time>
      </trkpt>
      <trkpt lat="43.14261" lon="-1.5817665">
        <time>2022-07-02T16:33:52Z</time>
      </trkpt>
      <trkpt lat="43.142574" lon="-1.5816971">
        <time>2022-07-02T16:33:54Z</time>
      </trkpt>
      <trkpt lat="43.142536" lon="-1.5816325">
        <time>2022-07-02T16:33:56Z</time>
      </trkpt>
      <trkpt lat="43.142494" lon="-1.5815688">
        <time>2022-07-02T16:33:58Z</time>
      </trkpt>
      <trkpt lat="43.142452" lon="-1.5815095">
        <time>2022-07-02T16:34:00Z</time>
      </trkpt>
      <trkpt lat="43.142403" lon="-1.5814458">
        <time>2022-07-02T16:34:02Z</time>
      </trkpt>
      <trkpt lat="43.142357" lon="-1.5813811">
        <time>2022-07-02T16:34:04Z</time>
      </trkpt>
      <trkpt lat="43.14231" lon="-1.5813124">
        <time>2022-07-02T16:34:06Z</time>
      </trkpt>
      <trkpt lat="43.142258" lon="-1.5812445">
        <time>2022-07-02T16:34:08Z</time>
      </trkpt>
      <trkpt lat="43.142197" lon="-1.5811768">
        <time>2022-07-02T16:34:10Z</time>
      </trkpt>
      <trkpt lat="43.142136" lon="-1.5811064">
        <time>2022-07-02T16:34:12Z</time>
      </trkpt>
      <trkpt lat="43.142075" lon="-1.5810335">
        <time>2022-07-02T16:34:14Z</time>
      </trkpt>
      <trkpt lat="43.142006" lon="-1.5809594">
        <time>2022-07-02T16:34:16Z</time>
      </trkpt>
      <trkpt lat="43.141937" lon="-1.5808822">
        <time>2022-07-02T16:34:18Z</time>
      </trkpt>
      <trkpt lat="43.14187" lon="-1.5808024">
        <time>2022-07-02T16:34:20Z</time>
      </trkpt>
      <trkpt lat="43.141796" lon="-1.5807172">
        <time>2022-07-02T16:34:22Z</time>
      </trkpt>
      <trkpt lat="43.141724" lon="-1.5806335">
        <time>2022-07-02T16:34:24Z</time>
      </trkpt>
      <trkpt lat="43.141647" lon="-1.5805461">
        <time>2022-07-02T16:34:26Z</time>
      </trkpt>
      <trkpt lat="43.14161" lon="-1.5805029">
        <time>2022-07-02T16:34:27Z</time>
      </trkpt>
      <trkpt lat="43.14153" lon="-1.5804145">
        <time>2022-07-02T16:34:29Z</time>
      </trkpt>
      <trkpt lat="43.141487" lon="-1.5803695">
        <time>2022-07-02T16:34:30Z</time>
      </trkpt>
      <trkpt lat="43.141407" lon="-1.5802772">
        <time>2022-07-02T16:34:32Z</time>
      </trkpt>
      <trkpt lat="43.14137" lon="-1.5802302">
        <time>2022-07-02T16:34:33Z</time>
      </trkpt>
      <trkpt lat="43.14133" lon="-1.5801815">
        <time>2022-07-02T16:34:34Z</time>
      </trkpt>
      <trkpt lat="43.141293" lon="-1.5801325">
        <time>2022-07-02T16:34:35Z</time>
      </trkpt>
      <trkpt lat="43.141254" lon="-1.5800831">
        <time>2022-07-02T16:34:36Z</time>
      </trkpt>
      <trkpt lat="43.14118" lon="-1.5799812">
        <time>2022-07-02T16:34:38Z</time>
      </trkpt>
      <trkpt lat="43.141144" lon="-1.5799328">
        <time>2022-07-02T16:34:39Z</time>
      </trkpt>
      <trkpt lat="43.14111" lon="-1.5798829">
        <time>2022-07-02T16:34:40Z</time>
      </trkpt>
      <trkpt lat="43.14104" lon="-1.5797762">
        <time>2022-07-02T16:34:42Z</time>
      </trkpt>
      <trkpt lat="43.141006" lon="-1.5797236">
        <time>2022-07-02T16:34:43Z</time>
      </trkpt>
      <trkpt lat="43.140976" lon="-1.5796715">
        <time>2022-07-02T16:34:44Z</time>
      </trkpt>
      <trkpt lat="43.140915" lon="-1.5795696">
        <time>2022-07-02T16:34:46Z</time>
      </trkpt>
      <trkpt lat="43.14089" lon="-1.5795219">
        <time>2022-07-02T16:34:47Z</time>
      </trkpt>
      <trkpt lat="43.14083" lon="-1.5794182">
        <time>2022-07-02T16:34:49Z</time>
      </trkpt>
      <trkpt lat="43.140774" lon="-1.5793155">
        <time>2022-07-02T16:34:51Z</time>
      </trkpt>
      <trkpt lat="43.140747" lon="-1.5792636">
        <time>2022-07-02T16:34:52Z</time>
      </trkpt>
      <trkpt lat="43.14069" lon="-1.5791619">
        <time>2022-07-02T16:34:54Z</time>
      </trkpt>
      <trkpt lat="43.140636" lon="-1.5790629">
        <time>2022-07-02T16:34:56Z</time>
      </trkpt>
      <trkpt lat="43.140587" lon="-1.5789676">
        <time>2022-07-02T16:34:58Z</time>
      </trkpt>
      <trkpt lat="43.14054" lon="-1.5788696">
        <time>2022-07-02T16:35:00Z</time>
      </trkpt>
      <trkpt lat="43.1405" lon="-1.5787692">
        <time>2022-07-02T16:35:02Z</time>
      </trkpt>
      <trkpt lat="43.14046" lon="-1.5786686">
        <time>2022-07-02T16:35:04Z</time>
      </trkpt>
      <trkpt lat="43.140423" lon="-1.5785643">
        <time>2022-07-02T16:35:06Z</time>
      </trkpt>
      <trkpt lat="43.140392" lon="-1.5784589">
        <time>2022-07-02T16:35:08Z</time>
      </trkpt>
      <trkpt lat="43.140366" lon="-1.5783533">
        <time>2022-07-02T16:35:10Z</time>
      </trkpt>
      <trkpt lat="43.140335" lon="-1.5782479">
        <time>2022-07-02T16:35:12Z</time>
      </trkpt>
      <trkpt lat="43.140312" lon="-1.578141">
        <time>2022-07-02T16:35:14Z</time>
      </trkpt>
      <trkpt lat="43.14029" lon="-1.5780319">
        <time>2022-07-02T16:35:16Z</time>
      </trkpt>
      <trkpt lat="43.14027" lon="-1.5779216">
        <time>2022-07-02T16:35:18Z</time>
      </trkpt>
      <trkpt lat="43.140255" lon="-1.5778106">
        <time>2022-07-02T16:35:20Z</time>
      </trkpt>
      <trkpt lat="43.14024" lon="-1.5776966">
        <time>2022-07-02T16:35:22Z</time>
      </trkpt>
      <trkpt lat="43.140232" lon="-1.5775783">
        <time>2022-07-02T16:35:24Z</time>
      </trkpt>
      <trkpt lat="43.14022" lon="-1.5774546">
        <time>2022-07-02T16:35:26Z</time>
      </trkpt>
      <trkpt lat="43.140213" lon="-1.5773293">
        <time>2022-07-02T16:35:28Z</time>
      </trkpt>
      <trkpt lat="43.140205" lon="-1.5772066">
        <time>2022-07-02T16:35:30Z</time>
      </trkpt>
      <trkpt lat="43.1402" lon="-1.5770869">
        <time>2022-07-02T16:35:32Z</time>
      </trkpt>
      <trkpt lat="43.140194" lon="-1.5769717">
        <time>2022-07-02T16:35:34Z</time>
      </trkpt>
      <trkpt lat="43.14019" lon="-1.5768616">
        <time>2022-07-02T16:35:36Z</time>
      </trkpt>
      <trkpt lat="43.140186" lon="-1.5767564">
        <time>2022-07-02T16:35:38Z</time>
      </trkpt>
      <trkpt lat="43.140182" lon="-1.57665">
        <time>2022-07-02T16:35:40Z</time>
      </trkpt>
      <trkpt lat="43.14018" lon="-1.5764873">
        <time>2022-07-02T16:35:43Z</time>
      </trkpt>
      <trkpt lat="43.14018" lon="-1.5763743">
        <time>2022-07-02T16:35:45Z</time>
      </trkpt>
      <trkpt lat="43.14018" lon="-1.5762577">
        <time>2022-07-02T16:35:47Z</time>
      </trkpt>
      <trkpt lat="43.14018" lon="-1.5761353">
        <time>2022-07-02T16:35:49Z</time>
      </trkpt>
      <trkpt lat="43.140182" lon="-1.57601">
        <time>2022-07-02T16:35:51Z</time>
      </trkpt>
      <trkpt lat="43.140186" lon="-1.5758823">
        <time>2022-07-02T16:35:53Z</time>
      </trkpt>
      <trkpt lat="43.140194" lon="-1.5758173">
        <time>2022-07-02T16:35:54Z</time>
      </trkpt>
      <trkpt lat="43.1402" lon="-1.5756843">
        <time>2022-07-02T16:35:56Z</time>
      </trkpt>
      <trkpt lat="43.14021" lon="-1.5756156">
        <time>2022-07-02T16:35:57Z</time>
      </trkpt>
      <trkpt lat="43.140217" lon="-1.5755464">
        <time>2022-07-02T16:35:58Z</time>
      </trkpt>
      <trkpt lat="43.140236" lon="-1.5754054">
        <time>2022-07-02T16:36:00Z</time>
      </trkpt>
      <trkpt lat="43.140244" lon="-1.5753354">
        <time>2022-07-02T16:36:01Z</time>
      </trkpt>
      <trkpt lat="43.140255" lon="-1.575266">
        <time>2022-07-02T16:36:02Z</time>
      </trkpt>
      <trkpt lat="43.140274" lon="-1.5751287">
        <time>2022-07-02T16:36:04Z</time>
      </trkpt>
      <trkpt lat="43.140297" lon="-1.574994">
        <time>2022-07-02T16:36:06Z</time>
      </trkpt>
      <trkpt lat="43.140327" lon="-1.5748694">
        <time>2022-07-02T16:36:08Z</time>
      </trkpt>
      <trkpt lat="43.14034" lon="-1.5748087">
        <time>2022-07-02T16:36:09Z</time>
      </trkpt>
      <trkpt lat="43.14037" lon="-1.5746887">
        <time>2022-07-02T16:36:11Z</time>
      </trkpt>
      <trkpt lat="43.140396" lon="-1.5745747">
        <time>2022-07-02T16:36:13Z</time>
      </trkpt>
      <trkpt lat="43.140427" lon="-1.5744671">
        <time>2022-07-02T16:36:15Z</time>
      </trkpt>
      <trkpt lat="43.140457" lon="-1.5743613">
        <time>2022-07-02T16:36:17Z</time>
      </trkpt>
      <trkpt lat="43.140484" lon="-1.5742577">
        <time>2022-07-02T16:36:19Z</time>
      </trkpt>
      <trkpt lat="43.14051" lon="-1.5741524">
        <time>2022-07-02T16:36:21Z</time>
      </trkpt>
      <trkpt lat="43.140533" lon="-1.5740454">
        <time>2022-07-02T16:36:23Z</time>
      </trkpt>
      <trkpt lat="43.140556" lon="-1.573938">
        <time>2022-07-02T16:36:25Z</time>
      </trkpt>
      <trkpt lat="43.14058" lon="-1.5738317">
        <time>2022-07-02T16:36:27Z</time>
      </trkpt>
      <trkpt lat="43.140602" lon="-1.5737257">
        <time>2022-07-02T16:36:29Z</time>
      </trkpt>
      <trkpt lat="43.140625" lon="-1.5736204">
        <time>2022-07-02T16:36:31Z</time>
      </trkpt>
      <trkpt lat="43.140648" lon="-1.5735143">
        <time>2022-07-02T16:36:33Z</time>
      </trkpt>
      <trkpt lat="43.14067" lon="-1.5734104">
        <time>2022-07-02T16:36:35Z</time>
      </trkpt>
      <trkpt lat="43.14069" lon="-1.5733137">
        <time>2022-07-02T16:36:37Z</time>
      </trkpt>
      <trkpt lat="43.140713" lon="-1.5732161">
        <time>2022-07-02T16:36:39Z</time>
      </trkpt>
      <trkpt lat="43.14073" lon="-1.5731277">
        <time>2022-07-02T16:36:41Z</time>
      </trkpt>
      <trkpt lat="43.140755" lon="-1.5730464">
        <time>2022-07-02T16:36:43Z</time>
      </trkpt>
      <trkpt lat="43.140774" lon="-1.5729648">
        <time>2022-07-02T16:36:45Z</time>
      </trkpt>
      <trkpt lat="43.14079" lon="-1.5728854">
        <time>2022-07-02T16:36:47Z</time>
      </trkpt>
      <trkpt lat="43.140793" lon="-1.5728074">
        <time>2022-07-02T16:36:49Z</time>
      </trkpt>
      <trkpt lat="43.140778" lon="-1.5727284">
        <time>2022-07-02T16:36:51Z</time>
      </trkpt>
      <trkpt lat="43.140747" lon="-1.5726547">
        <time>2022-07-02T16:36:53Z</time>
      </trkpt>
      <trkpt lat="43.1407" lon="-1.5725881">
        <time>2022-07-02T16:36:55Z</time>
      </trkpt>
      <trkpt lat="43.140644" lon="-1.5725415">
        <time>2022-07-02T16:36:57Z</time>
      </trkpt>
      <trkpt lat="43.14058" lon="-1.5725411">
        <time>2022-07-02T16:36:59Z</time>
      </trkpt>
      <trkpt lat="43.140514" lon="-1.5725771">
        <time>2022-07-02T16:37:01Z</time>
      </trkpt>
      <trkpt lat="43.140446" lon="-1.5726237">
        <time>2022-07-02T16:37:03Z</time>
      </trkpt>
      <trkpt lat="43.14039" lon="-1.5726898">
        <time>2022-07-02T16:37:05Z</time>
      </trkpt>
      <trkpt lat="43.140343" lon="-1.5727634">
        <time>2022-07-02T16:37:07Z</time>
      </trkpt>
      <trkpt lat="43.1403" lon="-1.5728284">
        <time>2022-07-02T16:37:09Z</time>
      </trkpt>
      <trkpt lat="43.140255" lon="-1.5728781">
        <time>2022-07-02T16:37:11Z</time>
      </trkpt>
      <trkpt lat="43.140213" lon="-1.5729178">
        <time>2022-07-02T16:37:13Z</time>
      </trkpt>
      <trkpt lat="43.14017" lon="-1.5729607">
        <time>2022-07-02T16:37:16Z</time>
      </trkpt>
      <trkpt lat="43.140144" lon="-1.5729594">
        <time>2022-07-02T16:37:22Z</time>
      </trkpt>
      <trkpt lat="43.140095" lon="-1.5729741">
        <time>2022-07-02T16:54:39Z</time>
      </trkpt>
      <trkpt lat="43.140274" lon="-1.5729004">
        <time>2022-07-02T17:22:26Z</time>
      </trkpt>
      <trkpt lat="43.14011" lon="-1.5728161">
        <time>2022-07-02T17:37:17Z</time>
      </trkpt>
      <trkpt lat="43.140152" lon="-1.5727265">
        <time>2022-07-02T17:37:20Z</time>
      </trkpt>
      <trkpt lat="43.140182" lon="-1.5726664">
        <time>2022-07-02T17:37:22Z</time>
      </trkpt>
      <trkpt lat="43.140224" lon="-1.5726088">
        <time>2022-07-02T17:37:24Z</time>
      </trkpt>
      <trkpt lat="43.140266" lon="-1.5725534">
        <time>2022-07-02T17:37:26Z</time>
      </trkpt>
      <trkpt lat="43.140312" lon="-1.5725058">
        <time>2022-07-02T17:37:28Z</time>
      </trkpt>
      <trkpt lat="43.140347" lon="-1.5724632">
        <time>2022-07-02T17:37:30Z</time>
      </trkpt>
      <trkpt lat="43.1404" lon="-1.5724171">
        <time>2022-07-02T17:37:33Z</time>
      </trkpt>
      <trkpt lat="43.14046" lon="-1.5724025">
        <time>2022-07-02T17:37:36Z</time>
      </trkpt>
      <trkpt lat="43.14052" lon="-1.5723945">
        <time>2022-07-02T17:37:39Z</time>
      </trkpt>
      <trkpt lat="43.14059" lon="-1.5724045">
        <time>2022-07-02T17:37:42Z</time>
      </trkpt>
      <trkpt lat="43.140644" lon="-1.5724235">
        <time>2022-07-02T17:37:44Z</time>
      </trkpt>
      <trkpt lat="43.140694" lon="-1.5724488">
        <time>2022-07-02T17:37:46Z</time>
      </trkpt>
      <trkpt lat="43.14074" lon="-1.5724738">
        <time>2022-07-02T17:37:48Z</time>
      </trkpt>
      <trkpt lat="43.14081" lon="-1.5724784">
        <time>2022-07-02T17:37:52Z</time>
      </trkpt>
      <trkpt lat="43.14085" lon="-1.5724478">
        <time>2022-07-02T17:37:54Z</time>
      </trkpt>
      <trkpt lat="43.140896" lon="-1.5723698">
        <time>2022-07-02T17:37:57Z</time>
      </trkpt>
      <trkpt lat="43.140923" lon="-1.5722711">
        <time>2022-07-02T17:38:00Z</time>
      </trkpt>
      <trkpt lat="43.14094" lon="-1.5721941">
        <time>2022-07-02T17:38:02Z</time>
      </trkpt>
      <trkpt lat="43.14096" lon="-1.5721174">
        <time>2022-07-02T17:38:04Z</time>
      </trkpt>
      <trkpt lat="43.140984" lon="-1.5720268">
        <time>2022-07-02T17:38:06Z</time>
      </trkpt>
      <trkpt lat="43.141" lon="-1.5719361">
        <time>2022-07-02T17:38:08Z</time>
      </trkpt>
      <trkpt lat="43.14102" lon="-1.5718361">
        <time>2022-07-02T17:38:10Z</time>
      </trkpt>
      <trkpt lat="43.141037" lon="-1.5717292">
        <time>2022-07-02T17:38:12Z</time>
      </trkpt>
      <trkpt lat="43.14106" lon="-1.5716195">
        <time>2022-07-02T17:38:14Z</time>
      </trkpt>
      <trkpt lat="43.14109" lon="-1.5715041">
        <time>2022-07-02T17:38:16Z</time>
      </trkpt>
      <trkpt lat="43.1411" lon="-1.5714445">
        <time>2022-07-02T17:38:17Z</time>
      </trkpt>
      <trkpt lat="43.14113" lon="-1.5713255">
        <time>2022-07-02T17:38:19Z</time>
      </trkpt>
      <trkpt lat="43.141163" lon="-1.5712099">
        <time>2022-07-02T17:38:21Z</time>
      </trkpt>
      <trkpt lat="43.14119" lon="-1.5710928">
        <time>2022-07-02T17:38:23Z</time>
      </trkpt>
      <trkpt lat="43.141212" lon="-1.5709839">
        <time>2022-07-02T17:38:25Z</time>
      </trkpt>
      <trkpt lat="43.141235" lon="-1.5708752">
        <time>2022-07-02T17:38:27Z</time>
      </trkpt>
      <trkpt lat="43.14125" lon="-1.5707692">
        <time>2022-07-02T17:38:29Z</time>
      </trkpt>
      <trkpt lat="43.14127" lon="-1.5706732">
        <time>2022-07-02T17:38:31Z</time>
      </trkpt>
      <trkpt lat="43.14129" lon="-1.5705799">
        <time>2022-07-02T17:38:33Z</time>
      </trkpt>
      <trkpt lat="43.141304" lon="-1.5704899">
        <time>2022-07-02T17:38:35Z</time>
      </trkpt>
      <trkpt lat="43.141323" lon="-1.5703973">
        <time>2022-07-02T17:38:37Z</time>
      </trkpt>
      <trkpt lat="43.14135" lon="-1.5702972">
        <time>2022-07-02T17:38:39Z</time>
      </trkpt>
      <trkpt lat="43.141373" lon="-1.5701972">
        <time>2022-07-02T17:38:41Z</time>
      </trkpt>
      <trkpt lat="43.141396" lon="-1.5700948">
        <time>2022-07-02T17:38:43Z</time>
      </trkpt>
      <trkpt lat="43.14142" lon="-1.5699916">
        <time>2022-07-02T17:38:45Z</time>
      </trkpt>
      <trkpt lat="43.141434" lon="-1.5698946">
        <time>2022-07-02T17:38:47Z</time>
      </trkpt>
      <trkpt lat="43.141445" lon="-1.5697752">
        <time>2022-07-02T17:38:50Z</time>
      </trkpt>
      <trkpt lat="43.14145" lon="-1.5697145">
        <time>2022-07-02T17:38:51Z</time>
      </trkpt>
      <trkpt lat="43.141457" lon="-1.5696089">
        <time>2022-07-02T17:38:53Z</time>
      </trkpt>
      <trkpt lat="43.14145" lon="-1.5695106">
        <time>2022-07-02T17:38:55Z</time>
      </trkpt>
      <trkpt lat="43.14144" lon="-1.5694143">
        <time>2022-07-02T17:38:57Z</time>
      </trkpt>
      <trkpt lat="43.141434" lon="-1.5693198">
        <time>2022-07-02T17:38:59Z</time>
      </trkpt>
      <trkpt lat="43.141438" lon="-1.5692279">
        <time>2022-07-02T17:39:01Z</time>
      </trkpt>
      <trkpt lat="43.14145" lon="-1.5691389">
        <time>2022-07-02T17:39:03Z</time>
      </trkpt>
      <trkpt lat="43.141468" lon="-1.5690452">
        <time>2022-07-02T17:39:05Z</time>
      </trkpt>
      <trkpt lat="43.14149" lon="-1.5689403">
        <time>2022-07-02T17:39:07Z</time>
      </trkpt>
      <trkpt lat="43.141518" lon="-1.5688332">
        <time>2022-07-02T17:39:09Z</time>
      </trkpt>
      <trkpt lat="43.14155" lon="-1.5687206">
        <time>2022-07-02T17:39:11Z</time>
      </trkpt>
      <trkpt lat="43.141575" lon="-1.5686113">
        <time>2022-07-02T17:39:13Z</time>
      </trkpt>
      <trkpt lat="43.1416" lon="-1.5684956">
        <time>2022-07-02T17:39:15Z</time>
      </trkpt>
      <trkpt lat="43.14163" lon="-1.5683769">
        <time>2022-07-02T17:39:17Z</time>
      </trkpt>
      <trkpt lat="43.141647" lon="-1.5682622">
        <time>2022-07-02T17:39:19Z</time>
      </trkpt>
      <trkpt lat="43.14167" lon="-1.568151">
        <time>2022-07-02T17:39:21Z</time>
      </trkpt>
      <trkpt lat="43.141693" lon="-1.5680506">
        <time>2022-07-02T17:39:23Z</time>
      </trkpt>
      <trkpt lat="43.14172" lon="-1.5679519">
        <time>2022-07-02T17:39:25Z</time>
      </trkpt>
      <trkpt lat="43.141747" lon="-1.567843">
        <time>2022-07-02T17:39:27Z</time>
      </trkpt>
      <trkpt lat="43.141766" lon="-1.5677357">
        <time>2022-07-02T17:39:29Z</time>
      </trkpt>
      <trkpt lat="43.14178" lon="-1.5676186">
        <time>2022-07-02T17:39:31Z</time>
      </trkpt>
      <trkpt lat="43.14179" lon="-1.567493">
        <time>2022-07-02T17:39:33Z</time>
      </trkpt>
      <trkpt lat="43.141785" lon="-1.5674343">
        <time>2022-07-02T17:39:34Z</time>
      </trkpt>
      <trkpt lat="43.14177" lon="-1.5673109">
        <time>2022-07-02T17:39:36Z</time>
      </trkpt>
      <trkpt lat="43.141758" lon="-1.567251">
        <time>2022-07-02T17:39:37Z</time>
      </trkpt>
      <trkpt lat="43.141724" lon="-1.5671413">
        <time>2022-07-02T17:39:39Z</time>
      </trkpt>
      <trkpt lat="43.14168" lon="-1.5670466">
        <time>2022-07-02T17:39:41Z</time>
      </trkpt>
      <trkpt lat="43.141605" lon="-1.5669303">
        <time>2022-07-02T17:39:44Z</time>
      </trkpt>
      <trkpt lat="43.14156" lon="-1.566869">
        <time>2022-07-02T17:39:46Z</time>
      </trkpt>
      <trkpt lat="43.14151" lon="-1.5668167">
        <time>2022-07-02T17:39:48Z</time>
      </trkpt>
      <trkpt lat="43.14146" lon="-1.5667673">
        <time>2022-07-02T17:39:50Z</time>
      </trkpt>
      <trkpt lat="43.14142" lon="-1.5667157">
        <time>2022-07-02T17:39:52Z</time>
      </trkpt>
      <trkpt lat="43.141365" lon="-1.566658">
        <time>2022-07-02T17:39:54Z</time>
      </trkpt>
      <trkpt lat="43.141315" lon="-1.5666027">
        <time>2022-07-02T17:39:56Z</time>
      </trkpt>
      <trkpt lat="43.14126" lon="-1.5665383">
        <time>2022-07-02T17:39:58Z</time>
      </trkpt>
      <trkpt lat="43.1412" lon="-1.566478">
        <time>2022-07-02T17:40:00Z</time>
      </trkpt>
      <trkpt lat="43.141144" lon="-1.5664123">
        <time>2022-07-02T17:40:02Z</time>
      </trkpt>
      <trkpt lat="43.14109" lon="-1.5663414">
        <time>2022-07-02T17:40:04Z</time>
      </trkpt>
      <trkpt lat="43.141045" lon="-1.5662661">
        <time>2022-07-02T17:40:06Z</time>
      </trkpt>
      <trkpt lat="43.14101" lon="-1.5661894">
        <time>2022-07-02T17:40:08Z</time>
      </trkpt>
      <trkpt lat="43.140976" lon="-1.5661057">
        <time>2022-07-02T17:40:10Z</time>
      </trkpt>
      <trkpt lat="43.14095" lon="-1.5660247">
        <time>2022-07-02T17:40:12Z</time>
      </trkpt>
      <trkpt lat="43.140934" lon="-1.5659344">
        <time>2022-07-02T17:40:14Z</time>
      </trkpt>
      <trkpt lat="43.140926" lon="-1.565845">
        <time>2022-07-02T17:40:16Z</time>
      </trkpt>
      <trkpt lat="43.140923" lon="-1.5657604">
        <time>2022-07-02T17:40:18Z</time>
      </trkpt>
      <trkpt lat="43.140923" lon="-1.5656824">
        <time>2022-07-02T17:40:20Z</time>
      </trkpt>
      <trkpt lat="43.14092" lon="-1.5656061">
        <time>2022-07-02T17:40:22Z</time>
      </trkpt>
      <trkpt lat="43.14091" lon="-1.5655195">
        <time>2022-07-02T17:40:24Z</time>
      </trkpt>
      <trkpt lat="43.1409" lon="-1.5654361">
        <time>2022-07-02T17:40:26Z</time>
      </trkpt>
      <trkpt lat="43.1409" lon="-1.565348">
        <time>2022-07-02T17:40:28Z</time>
      </trkpt>
      <trkpt lat="43.140896" lon="-1.5652567">
        <time>2022-07-02T17:40:30Z</time>
      </trkpt>
      <trkpt lat="43.140892" lon="-1.565165">
        <time>2022-07-02T17:40:32Z</time>
      </trkpt>
      <trkpt lat="43.140884" lon="-1.5650635">
        <time>2022-07-02T17:40:34Z</time>
      </trkpt>
      <trkpt lat="43.140873" lon="-1.5649635">
        <time>2022-07-02T17:40:36Z</time>
      </trkpt>
      <trkpt lat="43.140865" lon="-1.5648621">
        <time>2022-07-02T17:40:38Z</time>
      </trkpt>
      <trkpt lat="43.14086" lon="-1.5647525">
        <time>2022-07-02T17:40:40Z</time>
      </trkpt>
      <trkpt lat="43.14086" lon="-1.5646491">
        <time>2022-07-02T17:40:42Z</time>
      </trkpt>
      <trkpt lat="43.140858" lon="-1.5645481">
        <time>2022-07-02T17:40:44Z</time>
      </trkpt>
      <trkpt lat="43.14086" lon="-1.5644461">
        <time>2022-07-02T17:40:46Z</time>
      </trkpt>
      <trkpt lat="43.14086" lon="-1.5643574">
        <time>2022-07-02T17:40:48Z</time>
      </trkpt>
      <trkpt lat="43.14086" lon="-1.5642722">
        <time>2022-07-02T17:40:50Z</time>
      </trkpt>
      <trkpt lat="43.14086" lon="-1.5641928">
        <time>2022-07-02T17:40:52Z</time>
      </trkpt>
      <trkpt lat="43.140865" lon="-1.5641161">
        <time>2022-07-02T17:40:54Z</time>
      </trkpt>
      <trkpt lat="43.140858" lon="-1.5640454">
        <time>2022-07-02T17:40:56Z</time>
      </trkpt>
      <trkpt lat="43.140854" lon="-1.5639495">
        <time>2022-07-02T17:40:59Z</time>
      </trkpt>
      <trkpt lat="43.140854" lon="-1.5638591">
        <time>2022-07-02T17:41:02Z</time>
      </trkpt>
      <trkpt lat="43.140854" lon="-1.5637652">
        <time>2022-07-02T17:41:05Z</time>
      </trkpt>
      <trkpt lat="43.140858" lon="-1.5636661">
        <time>2022-07-02T17:41:08Z</time>
      </trkpt>
      <trkpt lat="43.14086" lon="-1.5635675">
        <time>2022-07-02T17:41:11Z</time>
      </trkpt>
      <trkpt lat="43.140865" lon="-1.5634772">
        <time>2022-07-02T17:41:14Z</time>
      </trkpt>
      <trkpt lat="43.14087" lon="-1.5633872">
        <time>2022-07-02T17:41:17Z</time>
      </trkpt>
      <trkpt lat="43.14087" lon="-1.5632975">
        <time>2022-07-02T17:41:20Z</time>
      </trkpt>
      <trkpt lat="43.14087" lon="-1.5632035">
        <time>2022-07-02T17:41:23Z</time>
      </trkpt>
      <trkpt lat="43.14086" lon="-1.5631078">
        <time>2022-07-02T17:41:26Z</time>
      </trkpt>
      <trkpt lat="43.140854" lon="-1.5630095">
        <time>2022-07-02T17:41:29Z</time>
      </trkpt>
      <trkpt lat="43.140854" lon="-1.5629405">
        <time>2022-07-02T17:41:31Z</time>
      </trkpt>
      <trkpt lat="43.140854" lon="-1.5628412">
        <time>2022-07-02T17:41:34Z</time>
      </trkpt>
      <trkpt lat="43.140846" lon="-1.5627402">
        <time>2022-07-02T17:41:37Z</time>
      </trkpt>
      <trkpt lat="43.14084" lon="-1.5626715">
        <time>2022-07-02T17:41:39Z</time>
      </trkpt>
      <trkpt lat="43.140823" lon="-1.5625699">
        <time>2022-07-02T17:41:42Z</time>
      </trkpt>
      <trkpt lat="43.14081" lon="-1.5625002">
        <time>2022-07-02T17:41:44Z</time>
      </trkpt>
      <trkpt lat="43.14079" lon="-1.5624301">
        <time>2022-07-02T17:41:46Z</time>
      </trkpt>
      <trkpt lat="43.14077" lon="-1.5623562">
        <time>2022-07-02T17:41:48Z</time>
      </trkpt>
      <trkpt lat="43.140743" lon="-1.5622842">
        <time>2022-07-02T17:41:50Z</time>
      </trkpt>
      <trkpt lat="43.140724" lon="-1.5622128">
        <time>2022-07-02T17:41:52Z</time>
      </trkpt>
      <trkpt lat="43.14071" lon="-1.5621419">
        <time>2022-07-02T17:41:54Z</time>
      </trkpt>
      <trkpt lat="43.14069" lon="-1.5620722">
        <time>2022-07-02T17:41:56Z</time>
      </trkpt>
      <trkpt lat="43.14067" lon="-1.5619979">
        <time>2022-07-02T17:41:58Z</time>
      </trkpt>
      <trkpt lat="43.14065" lon="-1.5619222">
        <time>2022-07-02T17:42:00Z</time>
      </trkpt>
      <trkpt lat="43.140633" lon="-1.5618502">
        <time>2022-07-02T17:42:02Z</time>
      </trkpt>
      <trkpt lat="43.140614" lon="-1.5617778">
        <time>2022-07-02T17:42:04Z</time>
      </trkpt>
      <trkpt lat="43.140594" lon="-1.5617045">
        <time>2022-07-02T17:42:06Z</time>
      </trkpt>
      <trkpt lat="43.140568" lon="-1.5616322">
        <time>2022-07-02T17:42:08Z</time>
      </trkpt>
      <trkpt lat="43.140545" lon="-1.5615588">
        <time>2022-07-02T17:42:10Z</time>
      </trkpt>
      <trkpt lat="43.140522" lon="-1.5614868">
        <time>2022-07-02T17:42:12Z</time>
      </trkpt>
      <trkpt lat="43.1405" lon="-1.5614179">
        <time>2022-07-02T17:42:14Z</time>
      </trkpt>
      <trkpt lat="43.14048" lon="-1.5613493">
        <time>2022-07-02T17:42:16Z</time>
      </trkpt>
      <trkpt lat="43.14046" lon="-1.5612803">
        <time>2022-07-02T17:42:18Z</time>
      </trkpt>
      <trkpt lat="43.14044" lon="-1.5612099">
        <time>2022-07-02T17:42:20Z</time>
      </trkpt>
      <trkpt lat="43.140423" lon="-1.5611402">
        <time>2022-07-02T17:42:22Z</time>
      </trkpt>
      <trkpt lat="43.140404" lon="-1.5610739">
        <time>2022-07-02T17:42:24Z</time>
      </trkpt>
      <trkpt lat="43.14038" lon="-1.5610093">
        <time>2022-07-02T17:42:26Z</time>
      </trkpt>
      <trkpt lat="43.14036" lon="-1.5609442">
        <time>2022-07-02T17:42:28Z</time>
      </trkpt>
      <trkpt lat="43.14033" lon="-1.5608529">
        <time>2022-07-02T17:42:31Z</time>
      </trkpt>
      <trkpt lat="43.140305" lon="-1.5607892">
        <time>2022-07-02T17:42:33Z</time>
      </trkpt>
      <trkpt lat="43.140274" lon="-1.5607219">
        <time>2022-07-02T17:42:35Z</time>
      </trkpt>
      <trkpt lat="43.140244" lon="-1.5606563">
        <time>2022-07-02T17:42:37Z</time>
      </trkpt>
      <trkpt lat="43.140217" lon="-1.5605962">
        <time>2022-07-02T17:42:39Z</time>
      </trkpt>
      <trkpt lat="43.14019" lon="-1.5605366">
        <time>2022-07-02T17:42:41Z</time>
      </trkpt>
      <trkpt lat="43.14016" lon="-1.5604776">
        <time>2022-07-02T17:42:43Z</time>
      </trkpt>
      <trkpt lat="43.140125" lon="-1.5604179">
        <time>2022-07-02T17:42:45Z</time>
      </trkpt>
      <trkpt lat="43.140095" lon="-1.5603596">
        <time>2022-07-02T17:42:47Z</time>
      </trkpt>
      <trkpt lat="43.14006" lon="-1.5603019">
        <time>2022-07-02T17:42:49Z</time>
      </trkpt>
      <trkpt lat="43.140022" lon="-1.5602436">
        <time>2022-07-02T17:42:51Z</time>
      </trkpt>
      <trkpt lat="43.139988" lon="-1.5601846">
        <time>2022-07-02T17:42:53Z</time>
      </trkpt>
      <trkpt lat="43.13995" lon="-1.560125">
        <time>2022-07-02T17:42:55Z</time>
      </trkpt>
      <trkpt lat="43.139908" lon="-1.5600636">
        <time>2022-07-02T17:42:57Z</time>
      </trkpt>
      <trkpt lat="43.139866" lon="-1.5600029">
        <time>2022-07-02T17:42:59Z</time>
      </trkpt>
      <trkpt lat="43.139824" lon="-1.55994">
        <time>2022-07-02T17:43:01Z</time>
      </trkpt>
      <trkpt lat="43.139782" lon="-1.5598776">
        <time>2022-07-02T17:43:03Z</time>
      </trkpt>
      <trkpt lat="43.139736" lon="-1.559813">
        <time>2022-07-02T17:43:05Z</time>
      </trkpt>
      <trkpt lat="43.13969" lon="-1.559745">
        <time>2022-07-02T17:43:07Z</time>
      </trkpt>
      <trkpt lat="43.13964" lon="-1.5596753">
        <time>2022-07-02T17:43:09Z</time>
      </trkpt>
      <trkpt lat="43.139595" lon="-1.5596043">
        <time>2022-07-02T17:43:11Z</time>
      </trkpt>
      <trkpt lat="43.139545" lon="-1.5595334">
        <time>2022-07-02T17:43:13Z</time>
      </trkpt>
      <trkpt lat="43.139496" lon="-1.5594606">
        <time>2022-07-02T17:43:15Z</time>
      </trkpt>
      <trkpt lat="43.139442" lon="-1.5593847">
        <time>2022-07-02T17:43:17Z</time>
      </trkpt>
      <trkpt lat="43.139393" lon="-1.559308">
        <time>2022-07-02T17:43:19Z</time>
      </trkpt>
      <trkpt lat="43.13934" lon="-1.559231">
        <time>2022-07-02T17:43:21Z</time>
      </trkpt>
      <trkpt lat="43.13929" lon="-1.5591527">
        <time>2022-07-02T17:43:23Z</time>
      </trkpt>
      <trkpt lat="43.139233" lon="-1.559073">
        <time>2022-07-02T17:43:25Z</time>
      </trkpt>
      <trkpt lat="43.139175" lon="-1.558994">
        <time>2022-07-02T17:43:27Z</time>
      </trkpt>
      <trkpt lat="43.139122" lon="-1.5589124">
        <time>2022-07-02T17:43:29Z</time>
      </trkpt>
      <trkpt lat="43.139065" lon="-1.5588276">
        <time>2022-07-02T17:43:31Z</time>
      </trkpt>
      <trkpt lat="43.13901" lon="-1.5587426">
        <time>2022-07-02T17:43:33Z</time>
      </trkpt>
      <trkpt lat="43.138958" lon="-1.5586607">
        <time>2022-07-02T17:43:35Z</time>
      </trkpt>
      <trkpt lat="43.1389" lon="-1.5585814">
        <time>2022-07-02T17:43:37Z</time>
      </trkpt>
      <trkpt lat="43.138847" lon="-1.5585017">
        <time>2022-07-02T17:43:39Z</time>
      </trkpt>
      <trkpt lat="43.13879" lon="-1.558423">
        <time>2022-07-02T17:43:41Z</time>
      </trkpt>
      <trkpt lat="43.138733" lon="-1.558344">
        <time>2022-07-02T17:43:43Z</time>
      </trkpt>
      <trkpt lat="43.13868" lon="-1.5582618">
        <time>2022-07-02T17:43:45Z</time>
      </trkpt>
      <trkpt lat="43.138622" lon="-1.558176">
        <time>2022-07-02T17:43:47Z</time>
      </trkpt>
      <trkpt lat="43.13856" lon="-1.5580907">
        <time>2022-07-02T17:43:49Z</time>
      </trkpt>
      <trkpt lat="43.138504" lon="-1.5580051">
        <time>2022-07-02T17:43:51Z</time>
      </trkpt>
      <trkpt lat="43.138443" lon="-1.5579197">
        <time>2022-07-02T17:43:53Z</time>
      </trkpt>
      <trkpt lat="43.13839" lon="-1.5578371">
        <time>2022-07-02T17:43:55Z</time>
      </trkpt>
      <trkpt lat="43.138336" lon="-1.5577544">
        <time>2022-07-02T17:43:57Z</time>
      </trkpt>
      <trkpt lat="43.138283" lon="-1.5576711">
        <time>2022-07-02T17:43:59Z</time>
      </trkpt>
      <trkpt lat="43.138226" lon="-1.5575838">
        <time>2022-07-02T17:44:01Z</time>
      </trkpt>
      <trkpt lat="43.13817" lon="-1.5574918">
        <time>2022-07-02T17:44:03Z</time>
      </trkpt>
      <trkpt lat="43.13811" lon="-1.5573951">
        <time>2022-07-02T17:44:05Z</time>
      </trkpt>
      <trkpt lat="43.138058" lon="-1.5572991">
        <time>2022-07-02T17:44:07Z</time>
      </trkpt>
      <trkpt lat="43.137997" lon="-1.5572045">
        <time>2022-07-02T17:44:09Z</time>
      </trkpt>
      <trkpt lat="43.137936" lon="-1.5571158">
        <time>2022-07-02T17:44:11Z</time>
      </trkpt>
      <trkpt lat="43.13787" lon="-1.5570301">
        <time>2022-07-02T17:44:13Z</time>
      </trkpt>
      <trkpt lat="43.137817" lon="-1.5569464">
        <time>2022-07-02T17:44:15Z</time>
      </trkpt>
      <trkpt lat="43.137768" lon="-1.5568655">
        <time>2022-07-02T17:44:17Z</time>
      </trkpt>
      <trkpt lat="43.137714" lon="-1.5567847">
        <time>2022-07-02T17:44:19Z</time>
      </trkpt>
      <trkpt lat="43.13766" lon="-1.5567012">
        <time>2022-07-02T17:44:21Z</time>
      </trkpt>
      <trkpt lat="43.13761" lon="-1.5566078">
        <time>2022-07-02T17:44:23Z</time>
      </trkpt>
      <trkpt lat="43.13756" lon="-1.5565048">
        <time>2022-07-02T17:44:25Z</time>
      </trkpt>
      <trkpt lat="43.137516" lon="-1.5563954">
        <time>2022-07-02T17:44:27Z</time>
      </trkpt>
      <trkpt lat="43.137466" lon="-1.5562801">
        <time>2022-07-02T17:44:29Z</time>
      </trkpt>
      <trkpt lat="43.13741" lon="-1.5561625">
        <time>2022-07-02T17:44:31Z</time>
      </trkpt>
      <trkpt lat="43.13738" lon="-1.5561042">
        <time>2022-07-02T17:44:32Z</time>
      </trkpt>
      <trkpt lat="43.137314" lon="-1.5559934">
        <time>2022-07-02T17:44:34Z</time>
      </trkpt>
      <trkpt lat="43.13728" lon="-1.5559409">
        <time>2022-07-02T17:44:35Z</time>
      </trkpt>
      <trkpt lat="43.13724" lon="-1.5558902">
        <time>2022-07-02T17:44:36Z</time>
      </trkpt>
      <trkpt lat="43.137177" lon="-1.5557965">
        <time>2022-07-02T17:44:38Z</time>
      </trkpt>
      <trkpt lat="43.13712" lon="-1.5557106">
        <time>2022-07-02T17:44:40Z</time>
      </trkpt>
      <trkpt lat="43.137066" lon="-1.5556298">
        <time>2022-07-02T17:44:42Z</time>
      </trkpt>
      <trkpt lat="43.137012" lon="-1.5555528">
        <time>2022-07-02T17:44:44Z</time>
      </trkpt>
      <trkpt lat="43.13696" lon="-1.5554792">
        <time>2022-07-02T17:44:46Z</time>
      </trkpt>
      <trkpt lat="43.1369" lon="-1.5554099">
        <time>2022-07-02T17:44:48Z</time>
      </trkpt>
      <trkpt lat="43.136845" lon="-1.5553415">
        <time>2022-07-02T17:44:50Z</time>
      </trkpt>
      <trkpt lat="43.136787" lon="-1.5552739">
        <time>2022-07-02T17:44:52Z</time>
      </trkpt>
      <trkpt lat="43.136723" lon="-1.5552052">
        <time>2022-07-02T17:44:54Z</time>
      </trkpt>
      <trkpt lat="43.13666" lon="-1.5551349">
        <time>2022-07-02T17:44:56Z</time>
      </trkpt>
      <trkpt lat="43.136597" lon="-1.5550642">
        <time>2022-07-02T17:44:58Z</time>
      </trkpt>
      <trkpt lat="43.136528" lon="-1.5549916">
        <time>2022-07-02T17:45:00Z</time>
      </trkpt>
      <trkpt lat="43.13646" lon="-1.554915">
        <time>2022-07-02T17:45:02Z</time>
      </trkpt>
      <trkpt lat="43.13639" lon="-1.5548435">
        <time>2022-07-02T17:45:04Z</time>
      </trkpt>
      <trkpt lat="43.13632" lon="-1.5547695">
        <time>2022-07-02T17:45:06Z</time>
      </trkpt>
      <trkpt lat="43.13625" lon="-1.5546992">
        <time>2022-07-02T17:45:08Z</time>
      </trkpt>
      <trkpt lat="43.13619" lon="-1.5546339">
        <time>2022-07-02T17:45:10Z</time>
      </trkpt>
      <trkpt lat="43.13612" lon="-1.5545683">
        <time>2022-07-02T17:45:12Z</time>
      </trkpt>
      <trkpt lat="43.13605" lon="-1.5545069">
        <time>2022-07-02T17:45:14Z</time>
      </trkpt>
      <trkpt lat="43.135986" lon="-1.5544503">
        <time>2022-07-02T17:45:16Z</time>
      </trkpt>
      <trkpt lat="43.135925" lon="-1.5543926">
        <time>2022-07-02T17:45:18Z</time>
      </trkpt>
      <trkpt lat="43.13587" lon="-1.55433">
        <time>2022-07-02T17:45:20Z</time>
      </trkpt>
      <trkpt lat="43.13582" lon="-1.5542706">
        <time>2022-07-02T17:45:22Z</time>
      </trkpt>
      <trkpt lat="43.13576" lon="-1.5542116">
        <time>2022-07-02T17:45:24Z</time>
      </trkpt>
      <trkpt lat="43.135696" lon="-1.5541576">
        <time>2022-07-02T17:45:26Z</time>
      </trkpt>
      <trkpt lat="43.13564" lon="-1.5541093">
        <time>2022-07-02T17:45:28Z</time>
      </trkpt>
      <trkpt lat="43.135582" lon="-1.5540617">
        <time>2022-07-02T17:45:30Z</time>
      </trkpt>
      <trkpt lat="43.135525" lon="-1.5540116">
        <time>2022-07-02T17:45:32Z</time>
      </trkpt>
      <trkpt lat="43.135468" lon="-1.5539553">
        <time>2022-07-02T17:45:34Z</time>
      </trkpt>
      <trkpt lat="43.13541" lon="-1.5539013">
        <time>2022-07-02T17:45:36Z</time>
      </trkpt>
      <trkpt lat="43.135357" lon="-1.5538493">
        <time>2022-07-02T17:45:38Z</time>
      </trkpt>
      <trkpt lat="43.135303" lon="-1.5538013">
        <time>2022-07-02T17:45:40Z</time>
      </trkpt>
      <trkpt lat="43.13525" lon="-1.5537513">
        <time>2022-07-02T17:45:42Z</time>
      </trkpt>
      <trkpt lat="43.1352" lon="-1.553699">
        <time>2022-07-02T17:45:44Z</time>
      </trkpt>
      <trkpt lat="43.13515" lon="-1.553648">
        <time>2022-07-02T17:45:46Z</time>
      </trkpt>
      <trkpt lat="43.135098" lon="-1.553594">
        <time>2022-07-02T17:45:48Z</time>
      </trkpt>
      <trkpt lat="43.135048" lon="-1.5535433">
        <time>2022-07-02T17:45:50Z</time>
      </trkpt>
      <trkpt lat="43.13499" lon="-1.5534936">
        <time>2022-07-02T17:45:52Z</time>
      </trkpt>
      <trkpt lat="43.134937" lon="-1.5534433">
        <time>2022-07-02T17:45:54Z</time>
      </trkpt>
      <trkpt lat="43.134884" lon="-1.5533923">
        <time>2022-07-02T17:45:56Z</time>
      </trkpt>
      <trkpt lat="43.13483" lon="-1.55334">
        <time>2022-07-02T17:45:58Z</time>
      </trkpt>
      <trkpt lat="43.134777" lon="-1.5532863">
        <time>2022-07-02T17:46:00Z</time>
      </trkpt>
      <trkpt lat="43.134727" lon="-1.5532336">
        <time>2022-07-02T17:46:02Z</time>
      </trkpt>
      <trkpt lat="43.134678" lon="-1.5531824">
        <time>2022-07-02T17:46:04Z</time>
      </trkpt>
      <trkpt lat="43.134624" lon="-1.553131">
        <time>2022-07-02T17:46:06Z</time>
      </trkpt>
      <trkpt lat="43.134575" lon="-1.5530766">
        <time>2022-07-02T17:46:08Z</time>
      </trkpt>
      <trkpt lat="43.134525" lon="-1.553023">
        <time>2022-07-02T17:46:10Z</time>
      </trkpt>
      <trkpt lat="43.134468" lon="-1.5529747">
        <time>2022-07-02T17:46:12Z</time>
      </trkpt>
      <trkpt lat="43.134415" lon="-1.55293">
        <time>2022-07-02T17:46:14Z</time>
      </trkpt>
      <trkpt lat="43.134365" lon="-1.5528864">
        <time>2022-07-02T17:46:16Z</time>
      </trkpt>
      <trkpt lat="43.13432" lon="-1.5528433">
        <time>2022-07-02T17:46:18Z</time>
      </trkpt>
      <trkpt lat="43.134277" lon="-1.552801">
        <time>2022-07-02T17:46:20Z</time>
      </trkpt>
      <trkpt lat="43.13423" lon="-1.5527594">
        <time>2022-07-02T17:46:22Z</time>
      </trkpt>
      <trkpt lat="43.134193" lon="-1.5527194">
        <time>2022-07-02T17:46:24Z</time>
      </trkpt>
      <trkpt lat="43.13415" lon="-1.5526794">
        <time>2022-07-02T17:46:26Z</time>
      </trkpt>
      <trkpt lat="43.134087" lon="-1.5526171">
        <time>2022-07-02T17:46:29Z</time>
      </trkpt>
      <trkpt lat="43.134045" lon="-1.5525761">
        <time>2022-07-02T17:46:31Z</time>
      </trkpt>
      <trkpt lat="43.134007" lon="-1.552534">
        <time>2022-07-02T17:46:33Z</time>
      </trkpt>
      <trkpt lat="43.13395" lon="-1.5524774">
        <time>2022-07-02T17:46:36Z</time>
      </trkpt>
      <trkpt lat="43.133884" lon="-1.5524204">
        <time>2022-07-02T17:46:39Z</time>
      </trkpt>
      <trkpt lat="43.13384" lon="-1.5523801">
        <time>2022-07-02T17:46:41Z</time>
      </trkpt>
      <trkpt lat="43.133793" lon="-1.5523374">
        <time>2022-07-02T17:46:43Z</time>
      </trkpt>
      <trkpt lat="43.13375" lon="-1.5522947">
        <time>2022-07-02T17:46:45Z</time>
      </trkpt>
      <trkpt lat="43.133698" lon="-1.5522541">
        <time>2022-07-02T17:46:47Z</time>
      </trkpt>
      <trkpt lat="43.133648" lon="-1.552211">
        <time>2022-07-02T17:46:49Z</time>
      </trkpt>
      <trkpt lat="43.1336" lon="-1.5521648">
        <time>2022-07-02T17:46:51Z</time>
      </trkpt>
      <trkpt lat="43.13355" lon="-1.5521177">
        <time>2022-07-02T17:46:53Z</time>
      </trkpt>
      <trkpt lat="43.133503" lon="-1.5520731">
        <time>2022-07-02T17:46:55Z</time>
      </trkpt>
      <trkpt lat="43.13345" lon="-1.5520267">
        <time>2022-07-02T17:46:57Z</time>
      </trkpt>
      <trkpt lat="43.1334" lon="-1.5519807">
        <time>2022-07-02T17:46:59Z</time>
      </trkpt>
      <trkpt lat="43.13335" lon="-1.5519358">
        <time>2022-07-02T17:47:01Z</time>
      </trkpt>
      <trkpt lat="43.133305" lon="-1.5518918">
        <time>2022-07-02T17:47:03Z</time>
      </trkpt>
      <trkpt lat="43.13326" lon="-1.5518491">
        <time>2022-07-02T17:47:05Z</time>
      </trkpt>
      <trkpt lat="43.133213" lon="-1.5518074">
        <time>2022-07-02T17:47:07Z</time>
      </trkpt>
      <trkpt lat="43.133167" lon="-1.5517658">
        <time>2022-07-02T17:47:09Z</time>
      </trkpt>
      <trkpt lat="43.133102" lon="-1.5517021">
        <time>2022-07-02T17:47:12Z</time>
      </trkpt>
      <trkpt lat="43.133057" lon="-1.5516608">
        <time>2022-07-02T17:47:14Z</time>
      </trkpt>
      <trkpt lat="43.13301" lon="-1.5516177">
        <time>2022-07-02T17:47:16Z</time>
      </trkpt>
      <trkpt lat="43.132965" lon="-1.5515751">
        <time>2022-07-02T17:47:18Z</time>
      </trkpt>
      <trkpt lat="43.1329" lon="-1.5515118">
        <time>2022-07-02T17:47:21Z</time>
      </trkpt>
      <trkpt lat="43.132854" lon="-1.5514691">
        <time>2022-07-02T17:47:23Z</time>
      </trkpt>
      <trkpt lat="43.132812" lon="-1.5514245">
        <time>2022-07-02T17:47:25Z</time>
      </trkpt>
      <trkpt lat="43.132767" lon="-1.5513778">
        <time>2022-07-02T17:47:27Z</time>
      </trkpt>
      <trkpt lat="43.132725" lon="-1.5513334">
        <time>2022-07-02T17:47:29Z</time>
      </trkpt>
      <trkpt lat="43.13268" lon="-1.5512892">
        <time>2022-07-02T17:47:31Z</time>
      </trkpt>
      <trkpt lat="43.132633" lon="-1.5512435">
        <time>2022-07-02T17:47:33Z</time>
      </trkpt>
      <trkpt lat="43.132595" lon="-1.5512009">
        <time>2022-07-02T17:47:35Z</time>
      </trkpt>
      <trkpt lat="43.13255" lon="-1.5511599">
        <time>2022-07-02T17:47:37Z</time>
      </trkpt>
      <trkpt lat="43.132507" lon="-1.5511205">
        <time>2022-07-02T17:47:39Z</time>
      </trkpt>
      <trkpt lat="43.13246" lon="-1.5510786">
        <time>2022-07-02T17:47:41Z</time>
      </trkpt>
      <trkpt lat="43.132416" lon="-1.5510335">
        <time>2022-07-02T17:47:43Z</time>
      </trkpt>
      <trkpt lat="43.13237" lon="-1.5509905">
        <time>2022-07-02T17:47:45Z</time>
      </trkpt>
      <trkpt lat="43.132328" lon="-1.5509515">
        <time>2022-07-02T17:47:47Z</time>
      </trkpt>
      <trkpt lat="43.132286" lon="-1.5509135">
        <time>2022-07-02T17:47:49Z</time>
      </trkpt>
      <trkpt lat="43.132202" lon="-1.5508412">
        <time>2022-07-02T17:47:53Z</time>
      </trkpt>
      <trkpt lat="43.13216" lon="-1.5507998">
        <time>2022-07-02T17:47:55Z</time>
      </trkpt>
      <trkpt lat="43.132114" lon="-1.5507568">
        <time>2022-07-02T17:47:57Z</time>
      </trkpt>
      <trkpt lat="43.132076" lon="-1.5507188">
        <time>2022-07-02T17:47:59Z</time>
      </trkpt>
      <trkpt lat="43.13202" lon="-1.5506625">
        <time>2022-07-02T17:48:02Z</time>
      </trkpt>
      <trkpt lat="43.131985" lon="-1.5506235">
        <time>2022-07-02T17:48:04Z</time>
      </trkpt>
      <trkpt lat="43.131935" lon="-1.5505738">
        <time>2022-07-02T17:48:07Z</time>
      </trkpt>
      <trkpt lat="43.131886" lon="-1.5505222">
        <time>2022-07-02T17:48:10Z</time>
      </trkpt>
      <trkpt lat="43.13183" lon="-1.5504682">
        <time>2022-07-02T17:48:13Z</time>
      </trkpt>
      <trkpt lat="43.131767" lon="-1.5504118">
        <time>2022-07-02T17:48:16Z</time>
      </trkpt>
      <trkpt lat="43.13171" lon="-1.5503552">
        <time>2022-07-02T17:48:19Z</time>
      </trkpt>
      <trkpt lat="43.131653" lon="-1.5503049">
        <time>2022-07-02T17:48:22Z</time>
      </trkpt>
      <trkpt lat="43.131603" lon="-1.5502642">
        <time>2022-07-02T17:48:24Z</time>
      </trkpt>
      <trkpt lat="43.131565" lon="-1.5502275">
        <time>2022-07-02T17:48:26Z</time>
      </trkpt>
      <trkpt lat="43.13151" lon="-1.5501722">
        <time>2022-07-02T17:48:29Z</time>
      </trkpt>
      <trkpt lat="43.13147" lon="-1.5501112">
        <time>2022-07-02T17:48:32Z</time>
      </trkpt>
      <trkpt lat="43.13143" lon="-1.5500479">
        <time>2022-07-02T17:48:35Z</time>
      </trkpt>
      <trkpt lat="43.131397" lon="-1.5499846">
        <time>2022-07-02T17:48:38Z</time>
      </trkpt>
      <trkpt lat="43.131355" lon="-1.5499215">
        <time>2022-07-02T17:48:41Z</time>
      </trkpt>
      <trkpt lat="43.131317" lon="-1.5498528">
        <time>2022-07-02T17:48:44Z</time>
      </trkpt>
      <trkpt lat="43.13127" lon="-1.5497808">
        <time>2022-07-02T17:48:47Z</time>
      </trkpt>
      <trkpt lat="43.13123" lon="-1.5497139">
        <time>2022-07-02T17:48:50Z</time>
      </trkpt>
      <trkpt lat="43.131195" lon="-1.5496442">
        <time>2022-07-02T17:48:53Z</time>
      </trkpt>
      <trkpt lat="43.131157" lon="-1.5495483">
        <time>2022-07-02T17:48:57Z</time>
      </trkpt>
      <trkpt lat="43.131126" lon="-1.5494766">
        <time>2022-07-02T17:49:00Z</time>
      </trkpt>
      <trkpt lat="43.1311" lon="-1.549403">
        <time>2022-07-02T17:49:03Z</time>
      </trkpt>
      <trkpt lat="43.131073" lon="-1.5493315">
        <time>2022-07-02T17:49:06Z</time>
      </trkpt>
      <trkpt lat="43.131046" lon="-1.5492629">
        <time>2022-07-02T17:49:09Z</time>
      </trkpt>
      <trkpt lat="43.131027" lon="-1.5491966">
        <time>2022-07-02T17:49:12Z</time>
      </trkpt>
      <trkpt lat="43.130997" lon="-1.5491256">
        <time>2022-07-02T17:49:15Z</time>
      </trkpt>
      <trkpt lat="43.13097" lon="-1.5490552">
        <time>2022-07-02T17:49:18Z</time>
      </trkpt>
      <trkpt lat="43.130943" lon="-1.5489846">
        <time>2022-07-02T17:49:21Z</time>
      </trkpt>
      <trkpt lat="43.13092" lon="-1.548913">
        <time>2022-07-02T17:49:24Z</time>
      </trkpt>
      <trkpt lat="43.130898" lon="-1.5488403">
        <time>2022-07-02T17:49:27Z</time>
      </trkpt>
      <trkpt lat="43.13088" lon="-1.548772">
        <time>2022-07-02T17:49:30Z</time>
      </trkpt>
      <trkpt lat="43.13085" lon="-1.5487043">
        <time>2022-07-02T17:49:33Z</time>
      </trkpt>
      <trkpt lat="43.130833" lon="-1.5486403">
        <time>2022-07-02T17:49:36Z</time>
      </trkpt>
      <trkpt lat="43.130814" lon="-1.5485706">
        <time>2022-07-02T17:49:39Z</time>
      </trkpt>
      <trkpt lat="43.13079" lon="-1.5484966">
        <time>2022-07-02T17:49:42Z</time>
      </trkpt>
      <trkpt lat="43.130775" lon="-1.5484227">
        <time>2022-07-02T17:49:45Z</time>
      </trkpt>
      <trkpt lat="43.13076" lon="-1.548349">
        <time>2022-07-02T17:49:48Z</time>
      </trkpt>
      <trkpt lat="43.13074" lon="-1.5482783">
        <time>2022-07-02T17:49:51Z</time>
      </trkpt>
      <trkpt lat="43.130726" lon="-1.548206">
        <time>2022-07-02T17:49:54Z</time>
      </trkpt>
      <trkpt lat="43.130714" lon="-1.548133">
        <time>2022-07-02T17:49:57Z</time>
      </trkpt>
      <trkpt lat="43.130703" lon="-1.548058">
        <time>2022-07-02T17:50:00Z</time>
      </trkpt>
      <trkpt lat="43.130695" lon="-1.5479823">
        <time>2022-07-02T17:50:03Z</time>
      </trkpt>
      <trkpt lat="43.130695" lon="-1.5479053">
        <time>2022-07-02T17:50:06Z</time>
      </trkpt>
      <trkpt lat="43.130695" lon="-1.547826">
        <time>2022-07-02T17:50:09Z</time>
      </trkpt>
      <trkpt lat="43.1307" lon="-1.5477517">
        <time>2022-07-02T17:50:12Z</time>
      </trkpt>
      <trkpt lat="43.13071" lon="-1.5476757">
        <time>2022-07-02T17:50:15Z</time>
      </trkpt>
      <trkpt lat="43.13071" lon="-1.5476">
        <time>2022-07-02T17:50:18Z</time>
      </trkpt>
      <trkpt lat="43.13071" lon="-1.5475273">
        <time>2022-07-02T17:50:21Z</time>
      </trkpt>
      <trkpt lat="43.13072" lon="-1.5474337">
        <time>2022-07-02T17:50:25Z</time>
      </trkpt>
      <trkpt lat="43.130726" lon="-1.5473647">
        <time>2022-07-02T17:50:28Z</time>
      </trkpt>
      <trkpt lat="43.130745" lon="-1.547299">
        <time>2022-07-02T17:50:31Z</time>
      </trkpt>
      <trkpt lat="43.130783" lon="-1.5472181">
        <time>2022-07-02T17:50:35Z</time>
      </trkpt>
      <trkpt lat="43.13082" lon="-1.5471524">
        <time>2022-07-02T17:50:38Z</time>
      </trkpt>
      <trkpt lat="43.130863" lon="-1.5470893">
        <time>2022-07-02T17:50:41Z</time>
      </trkpt>
      <trkpt lat="43.130913" lon="-1.5470287">
        <time>2022-07-02T17:50:44Z</time>
      </trkpt>
      <trkpt lat="43.130966" lon="-1.5469614">
        <time>2022-07-02T17:50:47Z</time>
      </trkpt>
      <trkpt lat="43.131004" lon="-1.5469028">
        <time>2022-07-02T17:50:49Z</time>
      </trkpt>
      <trkpt lat="43.131042" lon="-1.5468314">
        <time>2022-07-02T17:50:51Z</time>
      </trkpt>
      <trkpt lat="43.13108" lon="-1.5467377">
        <time>2022-07-02T17:50:53Z</time>
      </trkpt>
      <trkpt lat="43.131123" lon="-1.5466194">
        <time>2022-07-02T17:50:55Z</time>
      </trkpt>
      <trkpt lat="43.131145" lon="-1.5465524">
        <time>2022-07-02T17:50:56Z</time>
      </trkpt>
      <trkpt lat="43.131172" lon="-1.5464801">
        <time>2022-07-02T17:50:57Z</time>
      </trkpt>
      <trkpt lat="43.1312" lon="-1.5464027">
        <time>2022-07-02T17:50:58Z</time>
      </trkpt>
      <trkpt lat="43.13123" lon="-1.5463204">
        <time>2022-07-02T17:50:59Z</time>
      </trkpt>
      <trkpt lat="43.131264" lon="-1.5462341">
        <time>2022-07-02T17:51:00Z</time>
      </trkpt>
      <trkpt lat="43.1313" lon="-1.546143">
        <time>2022-07-02T17:51:01Z</time>
      </trkpt>
      <trkpt lat="43.131336" lon="-1.5460471">
        <time>2022-07-02T17:51:02Z</time>
      </trkpt>
      <trkpt lat="43.13138" lon="-1.545948">
        <time>2022-07-02T17:51:03Z</time>
      </trkpt>
      <trkpt lat="43.13142" lon="-1.545847">
        <time>2022-07-02T17:51:04Z</time>
      </trkpt>
      <trkpt lat="43.13147" lon="-1.5457461">
        <time>2022-07-02T17:51:05Z</time>
      </trkpt>
      <trkpt lat="43.13152" lon="-1.5456434">
        <time>2022-07-02T17:51:06Z</time>
      </trkpt>
      <trkpt lat="43.131573" lon="-1.5455375">
        <time>2022-07-02T17:51:07Z</time>
      </trkpt>
      <trkpt lat="43.131626" lon="-1.5454291">
        <time>2022-07-02T17:51:08Z</time>
      </trkpt>
      <trkpt lat="43.13174" lon="-1.5452064">
        <time>2022-07-02T17:51:10Z</time>
      </trkpt>
      <trkpt lat="43.131798" lon="-1.5450925">
        <time>2022-07-02T17:51:11Z</time>
      </trkpt>
      <trkpt lat="43.13186" lon="-1.5449781">
        <time>2022-07-02T17:51:12Z</time>
      </trkpt>
      <trkpt lat="43.131916" lon="-1.5448627">
        <time>2022-07-02T17:51:13Z</time>
      </trkpt>
      <trkpt lat="43.131977" lon="-1.5447478">
        <time>2022-07-02T17:51:14Z</time>
      </trkpt>
      <trkpt lat="43.132034" lon="-1.5446337">
        <time>2022-07-02T17:51:15Z</time>
      </trkpt>
      <trkpt lat="43.13209" lon="-1.5445207">
        <time>2022-07-02T17:51:16Z</time>
      </trkpt>
      <trkpt lat="43.13215" lon="-1.5444101">
        <time>2022-07-02T17:51:17Z</time>
      </trkpt>
      <trkpt lat="43.132202" lon="-1.5443025">
        <time>2022-07-02T17:51:18Z</time>
      </trkpt>
      <trkpt lat="43.132256" lon="-1.5441958">
        <time>2022-07-02T17:51:19Z</time>
      </trkpt>
      <trkpt lat="43.13231" lon="-1.5440935">
        <time>2022-07-02T17:51:20Z</time>
      </trkpt>
      <trkpt lat="43.132362" lon="-1.5439961">
        <time>2022-07-02T17:51:21Z</time>
      </trkpt>
      <trkpt lat="43.132416" lon="-1.5439035">
        <time>2022-07-02T17:51:22Z</time>
      </trkpt>
      <trkpt lat="43.13246" lon="-1.5438092">
        <time>2022-07-02T17:51:23Z</time>
      </trkpt>
      <trkpt lat="43.132504" lon="-1.5437248">
        <time>2022-07-02T17:51:24Z</time>
      </trkpt>
      <trkpt lat="43.132538" lon="-1.5436451">
        <time>2022-07-02T17:51:25Z</time>
      </trkpt>
      <trkpt lat="43.132572" lon="-1.5435709">
        <time>2022-07-02T17:51:26Z</time>
      </trkpt>
      <trkpt lat="43.132607" lon="-1.5435008">
        <time>2022-07-02T17:51:27Z</time>
      </trkpt>
      <trkpt lat="43.132637" lon="-1.5434338">
        <time>2022-07-02T17:51:28Z</time>
      </trkpt>
      <trkpt lat="43.132668" lon="-1.5433708">
        <time>2022-07-02T17:51:29Z</time>
      </trkpt>
      <trkpt lat="43.132698" lon="-1.5433111">
        <time>2022-07-02T17:51:30Z</time>
      </trkpt>
      <trkpt lat="43.132725" lon="-1.5432541">
        <time>2022-07-02T17:51:31Z</time>
      </trkpt>
      <trkpt lat="43.13275" lon="-1.5431992">
        <time>2022-07-02T17:51:32Z</time>
      </trkpt>
      <trkpt lat="43.132805" lon="-1.5430945">
        <time>2022-07-02T17:51:34Z</time>
      </trkpt>
      <trkpt lat="43.13283" lon="-1.5430452">
        <time>2022-07-02T17:51:35Z</time>
      </trkpt>
      <trkpt lat="43.13288" lon="-1.5429496">
        <time>2022-07-02T17:51:37Z</time>
      </trkpt>
      <trkpt lat="43.13293" lon="-1.5428615">
        <time>2022-07-02T17:51:39Z</time>
      </trkpt>
      <trkpt lat="43.132984" lon="-1.5427722">
        <time>2022-07-02T17:51:41Z</time>
      </trkpt>
      <trkpt lat="43.133034" lon="-1.5426775">
        <time>2022-07-02T17:51:43Z</time>
      </trkpt>
      <trkpt lat="43.13308" lon="-1.5425782">
        <time>2022-07-02T17:51:45Z</time>
      </trkpt>
      <trkpt lat="43.133125" lon="-1.5424765">
        <time>2022-07-02T17:51:47Z</time>
      </trkpt>
      <trkpt lat="43.13318" lon="-1.5423762">
        <time>2022-07-02T17:51:49Z</time>
      </trkpt>
      <trkpt lat="43.133232" lon="-1.5422832">
        <time>2022-07-02T17:51:51Z</time>
      </trkpt>
      <trkpt lat="43.13329" lon="-1.5421945">
        <time>2022-07-02T17:51:53Z</time>
      </trkpt>
      <trkpt lat="43.133343" lon="-1.5421013">
        <time>2022-07-02T17:51:55Z</time>
      </trkpt>
      <trkpt lat="43.13339" lon="-1.5420005">
        <time>2022-07-02T17:51:57Z</time>
      </trkpt>
      <trkpt lat="43.13343" lon="-1.5418962">
        <time>2022-07-02T17:51:59Z</time>
      </trkpt>
      <trkpt lat="43.13348" lon="-1.5417916">
        <time>2022-07-02T17:52:01Z</time>
      </trkpt>
      <trkpt lat="43.133526" lon="-1.5416886">
        <time>2022-07-02T17:52:03Z</time>
      </trkpt>
      <trkpt lat="43.133575" lon="-1.5415843">
        <time>2022-07-02T17:52:05Z</time>
      </trkpt>
      <trkpt lat="43.13362" lon="-1.5414792">
        <time>2022-07-02T17:52:07Z</time>
      </trkpt>
      <trkpt lat="43.133675" lon="-1.5413746">
        <time>2022-07-02T17:52:09Z</time>
      </trkpt>
      <trkpt lat="43.133728" lon="-1.5412673">
        <time>2022-07-02T17:52:11Z</time>
      </trkpt>
      <trkpt lat="43.133778" lon="-1.5411526">
        <time>2022-07-02T17:52:13Z</time>
      </trkpt>
      <trkpt lat="43.133804" lon="-1.5410912">
        <time>2022-07-02T17:52:14Z</time>
      </trkpt>
      <trkpt lat="43.133846" lon="-1.5409602">
        <time>2022-07-02T17:52:16Z</time>
      </trkpt>
      <trkpt lat="43.13387" lon="-1.5408916">
        <time>2022-07-02T17:52:17Z</time>
      </trkpt>
      <trkpt lat="43.133884" lon="-1.5408202">
        <time>2022-07-02T17:52:18Z</time>
      </trkpt>
      <trkpt lat="43.133904" lon="-1.5407443">
        <time>2022-07-02T17:52:19Z</time>
      </trkpt>
      <trkpt lat="43.13392" lon="-1.5406649">
        <time>2022-07-02T17:52:20Z</time>
      </trkpt>
      <trkpt lat="43.133938" lon="-1.540582">
        <time>2022-07-02T17:52:21Z</time>
      </trkpt>
      <trkpt lat="43.133957" lon="-1.5404936">
        <time>2022-07-02T17:52:22Z</time>
      </trkpt>
      <trkpt lat="43.133976" lon="-1.5404006">
        <time>2022-07-02T17:52:23Z</time>
      </trkpt>
      <trkpt lat="43.133995" lon="-1.540306">
        <time>2022-07-02T17:52:24Z</time>
      </trkpt>
      <trkpt lat="43.134014" lon="-1.5402086">
        <time>2022-07-02T17:52:25Z</time>
      </trkpt>
      <trkpt lat="43.13403" lon="-1.5401102">
        <time>2022-07-02T17:52:26Z</time>
      </trkpt>
      <trkpt lat="43.13405" lon="-1.5400026">
        <time>2022-07-02T17:52:27Z</time>
      </trkpt>
      <trkpt lat="43.13407" lon="-1.5398966">
        <time>2022-07-02T17:52:28Z</time>
      </trkpt>
      <trkpt lat="43.134087" lon="-1.5397977">
        <time>2022-07-02T17:52:29Z</time>
      </trkpt>
      <trkpt lat="43.134106" lon="-1.539698">
        <time>2022-07-02T17:52:30Z</time>
      </trkpt>
      <trkpt lat="43.13412" lon="-1.539599">
        <time>2022-07-02T17:52:31Z</time>
      </trkpt>
      <trkpt lat="43.13414" lon="-1.5394993">
        <time>2022-07-02T17:52:32Z</time>
      </trkpt>
      <trkpt lat="43.13416" lon="-1.5394022">
        <time>2022-07-02T17:52:33Z</time>
      </trkpt>
      <trkpt lat="43.13418" lon="-1.5393074">
        <time>2022-07-02T17:52:34Z</time>
      </trkpt>
      <trkpt lat="43.134197" lon="-1.5392159">
        <time>2022-07-02T17:52:35Z</time>
      </trkpt>
      <trkpt lat="43.134216" lon="-1.5391293">
        <time>2022-07-02T17:52:36Z</time>
      </trkpt>
      <trkpt lat="43.134235" lon="-1.5390474">
        <time>2022-07-02T17:52:37Z</time>
      </trkpt>
      <trkpt lat="43.134247" lon="-1.5389687">
        <time>2022-07-02T17:52:38Z</time>
      </trkpt>
      <trkpt lat="43.134262" lon="-1.5388937">
        <time>2022-07-02T17:52:39Z</time>
      </trkpt>
      <trkpt lat="43.134274" lon="-1.5388223">
        <time>2022-07-02T17:52:40Z</time>
      </trkpt>
      <trkpt lat="43.13429" lon="-1.5387543">
        <time>2022-07-02T17:52:41Z</time>
      </trkpt>
      <trkpt lat="43.1343" lon="-1.5386896">
        <time>2022-07-02T17:52:42Z</time>
      </trkpt>
      <trkpt lat="43.13431" lon="-1.5386283">
        <time>2022-07-02T17:52:43Z</time>
      </trkpt>
      <trkpt lat="43.13433" lon="-1.5385123">
        <time>2022-07-02T17:52:45Z</time>
      </trkpt>
      <trkpt lat="43.13435" lon="-1.5384043">
        <time>2022-07-02T17:52:47Z</time>
      </trkpt>
      <trkpt lat="43.134373" lon="-1.5383">
        <time>2022-07-02T17:52:49Z</time>
      </trkpt>
      <trkpt lat="43.1344" lon="-1.538199">
        <time>2022-07-02T17:52:51Z</time>
      </trkpt>
      <trkpt lat="43.134426" lon="-1.5381026">
        <time>2022-07-02T17:52:53Z</time>
      </trkpt>
      <trkpt lat="43.13445" lon="-1.538009">
        <time>2022-07-02T17:52:55Z</time>
      </trkpt>
      <trkpt lat="43.13447" lon="-1.537917">
        <time>2022-07-02T17:52:57Z</time>
      </trkpt>
      <trkpt lat="43.13449" lon="-1.5378246">
        <time>2022-07-02T17:52:59Z</time>
      </trkpt>
      <trkpt lat="43.13451" lon="-1.5377314">
        <time>2022-07-02T17:53:01Z</time>
      </trkpt>
      <trkpt lat="43.134525" lon="-1.5376383">
        <time>2022-07-02T17:53:03Z</time>
      </trkpt>
      <trkpt lat="43.13455" lon="-1.5375447">
        <time>2022-07-02T17:53:05Z</time>
      </trkpt>
      <trkpt lat="43.134563" lon="-1.5374517">
        <time>2022-07-02T17:53:07Z</time>
      </trkpt>
      <trkpt lat="43.134583" lon="-1.5373617">
        <time>2022-07-02T17:53:09Z</time>
      </trkpt>
      <trkpt lat="43.134605" lon="-1.537272">
        <time>2022-07-02T17:53:11Z</time>
      </trkpt>
      <trkpt lat="43.134624" lon="-1.5371836">
        <time>2022-07-02T17:53:13Z</time>
      </trkpt>
      <trkpt lat="43.134644" lon="-1.5370528">
        <time>2022-07-02T17:53:16Z</time>
      </trkpt>
      <trkpt lat="43.134663" lon="-1.536967">
        <time>2022-07-02T17:53:18Z</time>
      </trkpt>
      <trkpt lat="43.134678" lon="-1.5368794">
        <time>2022-07-02T17:53:20Z</time>
      </trkpt>
      <trkpt lat="43.134693" lon="-1.536795">
        <time>2022-07-02T17:53:22Z</time>
      </trkpt>
      <trkpt lat="43.13471" lon="-1.5367074">
        <time>2022-07-02T17:53:24Z</time>
      </trkpt>
      <trkpt lat="43.13472" lon="-1.536617">
        <time>2022-07-02T17:53:26Z</time>
      </trkpt>
      <trkpt lat="43.134735" lon="-1.5365281">
        <time>2022-07-02T17:53:28Z</time>
      </trkpt>
      <trkpt lat="43.13475" lon="-1.5364367">
        <time>2022-07-02T17:53:30Z</time>
      </trkpt>
      <trkpt lat="43.13477" lon="-1.5363401">
        <time>2022-07-02T17:53:32Z</time>
      </trkpt>
      <trkpt lat="43.134796" lon="-1.5362377">
        <time>2022-07-02T17:53:34Z</time>
      </trkpt>
      <trkpt lat="43.134815" lon="-1.536133">
        <time>2022-07-02T17:53:36Z</time>
      </trkpt>
      <trkpt lat="43.13484" lon="-1.53603">
        <time>2022-07-02T17:53:38Z</time>
      </trkpt>
      <trkpt lat="43.134865" lon="-1.5359278">
        <time>2022-07-02T17:53:40Z</time>
      </trkpt>
      <trkpt lat="43.134884" lon="-1.5358268">
        <time>2022-07-02T17:53:42Z</time>
      </trkpt>
      <trkpt lat="43.13491" lon="-1.5357238">
        <time>2022-07-02T17:53:44Z</time>
      </trkpt>
      <trkpt lat="43.13494" lon="-1.5356184">
        <time>2022-07-02T17:53:46Z</time>
      </trkpt>
      <trkpt lat="43.134968" lon="-1.5355097">
        <time>2022-07-02T17:53:48Z</time>
      </trkpt>
      <trkpt lat="43.13499" lon="-1.5353981">
        <time>2022-07-02T17:53:50Z</time>
      </trkpt>
      <trkpt lat="43.13501" lon="-1.5352855">
        <time>2022-07-02T17:53:52Z</time>
      </trkpt>
      <trkpt lat="43.13503" lon="-1.5351734">
        <time>2022-07-02T17:53:54Z</time>
      </trkpt>
      <trkpt lat="43.135044" lon="-1.5350645">
        <time>2022-07-02T17:53:56Z</time>
      </trkpt>
      <trkpt lat="43.135063" lon="-1.5349491">
        <time>2022-07-02T17:53:58Z</time>
      </trkpt>
      <trkpt lat="43.135082" lon="-1.5348371">
        <time>2022-07-02T17:54:00Z</time>
      </trkpt>
      <trkpt lat="43.135105" lon="-1.5347248">
        <time>2022-07-02T17:54:02Z</time>
      </trkpt>
      <trkpt lat="43.135124" lon="-1.5346122">
        <time>2022-07-02T17:54:04Z</time>
      </trkpt>
      <trkpt lat="43.135147" lon="-1.5345021">
        <time>2022-07-02T17:54:06Z</time>
      </trkpt>
      <trkpt lat="43.135174" lon="-1.5343947">
        <time>2022-07-02T17:54:08Z</time>
      </trkpt>
      <trkpt lat="43.1352" lon="-1.5342908">
        <time>2022-07-02T17:54:10Z</time>
      </trkpt>
      <trkpt lat="43.13522" lon="-1.5341902">
        <time>2022-07-02T17:54:12Z</time>
      </trkpt>
      <trkpt lat="43.13524" lon="-1.5340931">
        <time>2022-07-02T17:54:14Z</time>
      </trkpt>
      <trkpt lat="43.135258" lon="-1.5339972">
        <time>2022-07-02T17:54:16Z</time>
      </trkpt>
      <trkpt lat="43.135292" lon="-1.5338458">
        <time>2022-07-02T17:54:19Z</time>
      </trkpt>
      <trkpt lat="43.135315" lon="-1.5337428">
        <time>2022-07-02T17:54:21Z</time>
      </trkpt>
      <trkpt lat="43.135338" lon="-1.5336438">
        <time>2022-07-02T17:54:23Z</time>
      </trkpt>
      <trkpt lat="43.135365" lon="-1.5335438">
        <time>2022-07-02T17:54:25Z</time>
      </trkpt>
      <trkpt lat="43.13539" lon="-1.5334405">
        <time>2022-07-02T17:54:27Z</time>
      </trkpt>
      <trkpt lat="43.135414" lon="-1.5333341">
        <time>2022-07-02T17:54:29Z</time>
      </trkpt>
      <trkpt lat="43.135437" lon="-1.5332265">
        <time>2022-07-02T17:54:31Z</time>
      </trkpt>
      <trkpt lat="43.13546" lon="-1.5331235">
        <time>2022-07-02T17:54:33Z</time>
      </trkpt>
      <trkpt lat="43.135483" lon="-1.5330298">
        <time>2022-07-02T17:54:35Z</time>
      </trkpt>
      <trkpt lat="43.135506" lon="-1.5329442">
        <time>2022-07-02T17:54:37Z</time>
      </trkpt>
      <trkpt lat="43.135525" lon="-1.5328605">
        <time>2022-07-02T17:54:39Z</time>
      </trkpt>
      <trkpt lat="43.135548" lon="-1.5327772">
        <time>2022-07-02T17:54:41Z</time>
      </trkpt>
      <trkpt lat="43.13557" lon="-1.5326982">
        <time>2022-07-02T17:54:43Z</time>
      </trkpt>
      <trkpt lat="43.135612" lon="-1.5325831">
        <time>2022-07-02T17:54:46Z</time>
      </trkpt>
      <trkpt lat="43.13564" lon="-1.5325218">
        <time>2022-07-02T17:54:48Z</time>
      </trkpt>
      <trkpt lat="43.135666" lon="-1.5324655">
        <time>2022-07-02T17:54:50Z</time>
      </trkpt>
      <trkpt lat="43.135708" lon="-1.5323808">
        <time>2022-07-02T17:54:53Z</time>
      </trkpt>
      <trkpt lat="43.135727" lon="-1.5323175">
        <time>2022-07-02T17:54:56Z</time>
      </trkpt>
      <trkpt lat="43.135765" lon="-1.5321999">
        <time>2022-07-02T17:55:47Z</time>
      </trkpt>
      <trkpt lat="43.13581" lon="-1.5321345">
        <time>2022-07-02T17:55:49Z</time>
      </trkpt>
      <trkpt lat="43.135868" lon="-1.5320535">
        <time>2022-07-02T17:55:51Z</time>
      </trkpt>
      <trkpt lat="43.13593" lon="-1.5319571">
        <time>2022-07-02T17:55:53Z</time>
      </trkpt>
      <trkpt lat="43.135983" lon="-1.5318542">
        <time>2022-07-02T17:55:55Z</time>
      </trkpt>
      <trkpt lat="43.136044" lon="-1.5317439">
        <time>2022-07-02T17:55:57Z</time>
      </trkpt>
      <trkpt lat="43.13607" lon="-1.5316849">
        <time>2022-07-02T17:55:58Z</time>
      </trkpt>
      <trkpt lat="43.1361" lon="-1.5316246">
        <time>2022-07-02T17:55:59Z</time>
      </trkpt>
      <trkpt lat="43.136135" lon="-1.5315626">
        <time>2022-07-02T17:56:00Z</time>
      </trkpt>
      <trkpt lat="43.13617" lon="-1.5314969">
        <time>2022-07-02T17:56:01Z</time>
      </trkpt>
      <trkpt lat="43.136204" lon="-1.5314282">
        <time>2022-07-02T17:56:02Z</time>
      </trkpt>
      <trkpt lat="43.136242" lon="-1.5313575">
        <time>2022-07-02T17:56:03Z</time>
      </trkpt>
      <trkpt lat="43.136276" lon="-1.5312853">
        <time>2022-07-02T17:56:04Z</time>
      </trkpt>
      <trkpt lat="43.136314" lon="-1.5312113">
        <time>2022-07-02T17:56:05Z</time>
      </trkpt>
      <trkpt lat="43.13635" lon="-1.5311346">
        <time>2022-07-02T17:56:06Z</time>
      </trkpt>
      <trkpt lat="43.136387" lon="-1.5310552">
        <time>2022-07-02T17:56:07Z</time>
      </trkpt>
      <trkpt lat="43.13642" lon="-1.5309739">
        <time>2022-07-02T17:56:08Z</time>
      </trkpt>
      <trkpt lat="43.13646" lon="-1.5308915">
        <time>2022-07-02T17:56:09Z</time>
      </trkpt>
      <trkpt lat="43.136497" lon="-1.5308086">
        <time>2022-07-02T17:56:10Z</time>
      </trkpt>
      <trkpt lat="43.13654" lon="-1.5307252">
        <time>2022-07-02T17:56:11Z</time>
      </trkpt>
      <trkpt lat="43.136578" lon="-1.5306412">
        <time>2022-07-02T17:56:12Z</time>
      </trkpt>
      <trkpt lat="43.13662" lon="-1.5305579">
        <time>2022-07-02T17:56:13Z</time>
      </trkpt>
      <trkpt lat="43.136658" lon="-1.5304762">
        <time>2022-07-02T17:56:14Z</time>
      </trkpt>
      <trkpt lat="43.1367" lon="-1.530396">
        <time>2022-07-02T17:56:15Z</time>
      </trkpt>
      <trkpt lat="43.136738" lon="-1.5303156">
        <time>2022-07-02T17:56:16Z</time>
      </trkpt>
      <trkpt lat="43.13678" lon="-1.5302346">
        <time>2022-07-02T17:56:17Z</time>
      </trkpt>
      <trkpt lat="43.13682" lon="-1.5301553">
        <time>2022-07-02T17:56:18Z</time>
      </trkpt>
      <trkpt lat="43.136864" lon="-1.5300763">
        <time>2022-07-02T17:56:19Z</time>
      </trkpt>
      <trkpt lat="43.1369" lon="-1.53">
        <time>2022-07-02T17:56:20Z</time>
      </trkpt>
      <trkpt lat="43.13694" lon="-1.529926">
        <time>2022-07-02T17:56:21Z</time>
      </trkpt>
      <trkpt lat="43.13702" lon="-1.5297796">
        <time>2022-07-02T17:56:23Z</time>
      </trkpt>
      <trkpt lat="43.137062" lon="-1.529709">
        <time>2022-07-02T17:56:24Z</time>
      </trkpt>
      <trkpt lat="43.137096" lon="-1.5296413">
        <time>2022-07-02T17:56:25Z</time>
      </trkpt>
      <trkpt lat="43.13713" lon="-1.5295726">
        <time>2022-07-02T17:56:26Z</time>
      </trkpt>
      <trkpt lat="43.13716" lon="-1.5295043">
        <time>2022-07-02T17:56:27Z</time>
      </trkpt>
      <trkpt lat="43.137188" lon="-1.5294366">
        <time>2022-07-02T17:56:28Z</time>
      </trkpt>
      <trkpt lat="43.13722" lon="-1.5293696">
        <time>2022-07-02T17:56:29Z</time>
      </trkpt>
      <trkpt lat="43.137245" lon="-1.5293033">
        <time>2022-07-02T17:56:30Z</time>
      </trkpt>
      <trkpt lat="43.13727" lon="-1.5292373">
        <time>2022-07-02T17:56:31Z</time>
      </trkpt>
      <trkpt lat="43.137302" lon="-1.5291736">
        <time>2022-07-02T17:56:32Z</time>
      </trkpt>
      <trkpt lat="43.137333" lon="-1.529112">
        <time>2022-07-02T17:56:33Z</time>
      </trkpt>
      <trkpt lat="43.137363" lon="-1.5290537">
        <time>2022-07-02T17:56:34Z</time>
      </trkpt>
      <trkpt lat="43.137394" lon="-1.5289953">
        <time>2022-07-02T17:56:35Z</time>
      </trkpt>
      <trkpt lat="43.13745" lon="-1.5288743">
        <time>2022-07-02T17:56:37Z</time>
      </trkpt>
      <trkpt lat="43.13748" lon="-1.528813">
        <time>2022-07-02T17:56:38Z</time>
      </trkpt>
      <trkpt lat="43.137512" lon="-1.5287523">
        <time>2022-07-02T17:56:39Z</time>
      </trkpt>
      <trkpt lat="43.137543" lon="-1.5286916">
        <time>2022-07-02T17:56:40Z</time>
      </trkpt>
      <trkpt lat="43.137573" lon="-1.5286317">
        <time>2022-07-02T17:56:41Z</time>
      </trkpt>
      <trkpt lat="43.137604" lon="-1.5285736">
        <time>2022-07-02T17:56:42Z</time>
      </trkpt>
      <trkpt lat="43.137634" lon="-1.528518">
        <time>2022-07-02T17:56:43Z</time>
      </trkpt>
      <trkpt lat="43.137665" lon="-1.5284643">
        <time>2022-07-02T17:56:44Z</time>
      </trkpt>
      <trkpt lat="43.13773" lon="-1.5283597">
        <time>2022-07-02T17:56:46Z</time>
      </trkpt>
      <trkpt lat="43.13779" lon="-1.528256">
        <time>2022-07-02T17:56:48Z</time>
      </trkpt>
      <trkpt lat="43.137848" lon="-1.5281581">
        <time>2022-07-02T17:56:50Z</time>
      </trkpt>
      <trkpt lat="43.1379" lon="-1.5280521">
        <time>2022-07-02T17:56:52Z</time>
      </trkpt>
      <trkpt lat="43.137928" lon="-1.5280011">
        <time>2022-07-02T17:56:53Z</time>
      </trkpt>
      <trkpt lat="43.13798" lon="-1.5279003">
        <time>2022-07-02T17:56:55Z</time>
      </trkpt>
      <trkpt lat="43.138035" lon="-1.527799">
        <time>2022-07-02T17:56:57Z</time>
      </trkpt>
      <trkpt lat="43.13808" lon="-1.527703">
        <time>2022-07-02T17:56:59Z</time>
      </trkpt>
      <trkpt lat="43.138123" lon="-1.5276088">
        <time>2022-07-02T17:57:01Z</time>
      </trkpt>
      <trkpt lat="43.138172" lon="-1.5275117">
        <time>2022-07-02T17:57:03Z</time>
      </trkpt>
      <trkpt lat="43.13822" lon="-1.5274171">
        <time>2022-07-02T17:57:05Z</time>
      </trkpt>
      <trkpt lat="43.138268" lon="-1.5273247">
        <time>2022-07-02T17:57:07Z</time>
      </trkpt>
      <trkpt lat="43.138317" lon="-1.5272304">
        <time>2022-07-02T17:57:09Z</time>
      </trkpt>
      <trkpt lat="43.13836" lon="-1.5271444">
        <time>2022-07-02T17:57:11Z</time>
      </trkpt>
      <trkpt lat="43.138397" lon="-1.5270628">
        <time>2022-07-02T17:57:13Z</time>
      </trkpt>
      <trkpt lat="43.13844" lon="-1.5269837">
        <time>2022-07-02T17:57:15Z</time>
      </trkpt>
      <trkpt lat="43.13848" lon="-1.5269021">
        <time>2022-07-02T17:57:17Z</time>
      </trkpt>
      <trkpt lat="43.138523" lon="-1.526818">
        <time>2022-07-02T17:57:19Z</time>
      </trkpt>
      <trkpt lat="43.138565" lon="-1.5267347">
        <time>2022-07-02T17:57:21Z</time>
      </trkpt>
      <trkpt lat="43.138603" lon="-1.5266511">
        <time>2022-07-02T17:57:23Z</time>
      </trkpt>
      <trkpt lat="43.13864" lon="-1.5265695">
        <time>2022-07-02T17:57:25Z</time>
      </trkpt>
      <trkpt lat="43.13868" lon="-1.5264888">
        <time>2022-07-02T17:57:27Z</time>
      </trkpt>
      <trkpt lat="43.138737" lon="-1.5263635">
        <time>2022-07-02T17:57:30Z</time>
      </trkpt>
      <trkpt lat="43.13877" lon="-1.5262871">
        <time>2022-07-02T17:57:32Z</time>
      </trkpt>
      <trkpt lat="43.13881" lon="-1.5262095">
        <time>2022-07-02T17:57:34Z</time>
      </trkpt>
      <trkpt lat="43.138844" lon="-1.5261317">
        <time>2022-07-02T17:57:36Z</time>
      </trkpt>
      <trkpt lat="43.138885" lon="-1.5260504">
        <time>2022-07-02T17:57:38Z</time>
      </trkpt>
      <trkpt lat="43.138927" lon="-1.5259671">
        <time>2022-07-02T17:57:40Z</time>
      </trkpt>
      <trkpt lat="43.13896" lon="-1.5258858">
        <time>2022-07-02T17:57:42Z</time>
      </trkpt>
      <trkpt lat="43.138996" lon="-1.5258005">
        <time>2022-07-02T17:57:44Z</time>
      </trkpt>
      <trkpt lat="43.139038" lon="-1.5257084">
        <time>2022-07-02T17:57:46Z</time>
      </trkpt>
      <trkpt lat="43.139084" lon="-1.5256234">
        <time>2022-07-02T17:57:48Z</time>
      </trkpt>
      <trkpt lat="43.139126" lon="-1.5255475">
        <time>2022-07-02T17:57:50Z</time>
      </trkpt>
      <trkpt lat="43.139168" lon="-1.5254735">
        <time>2022-07-02T17:57:52Z</time>
      </trkpt>
      <trkpt lat="43.139206" lon="-1.5253952">
        <time>2022-07-02T17:57:54Z</time>
      </trkpt>
      <trkpt lat="43.13925" lon="-1.5253155">
        <time>2022-07-02T17:57:56Z</time>
      </trkpt>
      <trkpt lat="43.139294" lon="-1.5252398">
        <time>2022-07-02T17:57:58Z</time>
      </trkpt>
      <trkpt lat="43.13934" lon="-1.5251628">
        <time>2022-07-02T17:58:00Z</time>
      </trkpt>
      <trkpt lat="43.13939" lon="-1.5250795">
        <time>2022-07-02T17:58:02Z</time>
      </trkpt>
      <trkpt lat="43.139442" lon="-1.5249935">
        <time>2022-07-02T17:58:04Z</time>
      </trkpt>
      <trkpt lat="43.139484" lon="-1.5249075">
        <time>2022-07-02T17:58:06Z</time>
      </trkpt>
      <trkpt lat="43.139523" lon="-1.5248235">
        <time>2022-07-02T17:58:08Z</time>
      </trkpt>
      <trkpt lat="43.139565" lon="-1.5247332">
        <time>2022-07-02T17:58:10Z</time>
      </trkpt>
      <trkpt lat="43.13961" lon="-1.5246404">
        <time>2022-07-02T17:58:12Z</time>
      </trkpt>
      <trkpt lat="43.139656" lon="-1.5245519">
        <time>2022-07-02T17:58:14Z</time>
      </trkpt>
      <trkpt lat="43.139694" lon="-1.5244669">
        <time>2022-07-02T17:58:16Z</time>
      </trkpt>
      <trkpt lat="43.13974" lon="-1.5243869">
        <time>2022-07-02T17:58:18Z</time>
      </trkpt>
      <trkpt lat="43.139786" lon="-1.5243002">
        <time>2022-07-02T17:58:20Z</time>
      </trkpt>
      <trkpt lat="43.139843" lon="-1.5242078">
        <time>2022-07-02T17:58:22Z</time>
      </trkpt>
      <trkpt lat="43.139896" lon="-1.5241128">
        <time>2022-07-02T17:58:24Z</time>
      </trkpt>
      <trkpt lat="43.139942" lon="-1.5240189">
        <time>2022-07-02T17:58:26Z</time>
      </trkpt>
      <trkpt lat="43.139988" lon="-1.5239358">
        <time>2022-07-02T17:58:28Z</time>
      </trkpt>
      <trkpt lat="43.14003" lon="-1.5238552">
        <time>2022-07-02T17:58:30Z</time>
      </trkpt>
      <trkpt lat="43.140064" lon="-1.5237715">
        <time>2022-07-02T17:58:32Z</time>
      </trkpt>
      <trkpt lat="43.140106" lon="-1.5236849">
        <time>2022-07-02T17:58:34Z</time>
      </trkpt>
      <trkpt lat="43.140152" lon="-1.5235995">
        <time>2022-07-02T17:58:36Z</time>
      </trkpt>
      <trkpt lat="43.140194" lon="-1.5235162">
        <time>2022-07-02T17:58:38Z</time>
      </trkpt>
      <trkpt lat="43.140236" lon="-1.5234362">
        <time>2022-07-02T17:58:40Z</time>
      </trkpt>
      <trkpt lat="43.14028" lon="-1.5233625">
        <time>2022-07-02T17:58:42Z</time>
      </trkpt>
      <trkpt lat="43.140327" lon="-1.5232955">
        <time>2022-07-02T17:58:44Z</time>
      </trkpt>
      <trkpt lat="43.140377" lon="-1.5232298">
        <time>2022-07-02T17:58:46Z</time>
      </trkpt>
      <trkpt lat="43.140427" lon="-1.5231656">
        <time>2022-07-02T17:58:48Z</time>
      </trkpt>
      <trkpt lat="43.14048" lon="-1.5231053">
        <time>2022-07-02T17:58:50Z</time>
      </trkpt>
      <trkpt lat="43.140537" lon="-1.5230426">
        <time>2022-07-02T17:58:52Z</time>
      </trkpt>
      <trkpt lat="43.140594" lon="-1.5229793">
        <time>2022-07-02T17:58:54Z</time>
      </trkpt>
      <trkpt lat="43.140648" lon="-1.5229169">
        <time>2022-07-02T17:58:56Z</time>
      </trkpt>
      <trkpt lat="43.140705" lon="-1.5228516">
        <time>2022-07-02T17:58:58Z</time>
      </trkpt>
      <trkpt lat="43.140762" lon="-1.5227872">
        <time>2022-07-02T17:59:00Z</time>
      </trkpt>
      <trkpt lat="43.14082" lon="-1.5227222">
        <time>2022-07-02T17:59:02Z</time>
      </trkpt>
      <trkpt lat="43.140877" lon="-1.5226569">
        <time>2022-07-02T17:59:04Z</time>
      </trkpt>
      <trkpt lat="43.140934" lon="-1.5225896">
        <time>2022-07-02T17:59:06Z</time>
      </trkpt>
      <trkpt lat="43.14099" lon="-1.52252">
        <time>2022-07-02T17:59:08Z</time>
      </trkpt>
      <trkpt lat="43.14105" lon="-1.5224489">
        <time>2022-07-02T17:59:10Z</time>
      </trkpt>
      <trkpt lat="43.141106" lon="-1.5223783">
        <time>2022-07-02T17:59:12Z</time>
      </trkpt>
      <trkpt lat="43.141163" lon="-1.5223043">
        <time>2022-07-02T17:59:14Z</time>
      </trkpt>
      <trkpt lat="43.14122" lon="-1.5222316">
        <time>2022-07-02T17:59:16Z</time>
      </trkpt>
      <trkpt lat="43.141277" lon="-1.5221603">
        <time>2022-07-02T17:59:18Z</time>
      </trkpt>
      <trkpt lat="43.141335" lon="-1.52209">
        <time>2022-07-02T17:59:20Z</time>
      </trkpt>
      <trkpt lat="43.14139" lon="-1.5220183">
        <time>2022-07-02T17:59:22Z</time>
      </trkpt>
      <trkpt lat="43.141445" lon="-1.5219496">
        <time>2022-07-02T17:59:24Z</time>
      </trkpt>
      <trkpt lat="43.141506" lon="-1.5218836">
        <time>2022-07-02T17:59:26Z</time>
      </trkpt>
      <trkpt lat="43.141567" lon="-1.521821">
        <time>2022-07-02T17:59:28Z</time>
      </trkpt>
      <trkpt lat="43.14162" lon="-1.5217543">
        <time>2022-07-02T17:59:30Z</time>
      </trkpt>
      <trkpt lat="43.141678" lon="-1.5216806">
        <time>2022-07-02T17:59:32Z</time>
      </trkpt>
      <trkpt lat="43.14173" lon="-1.5216063">
        <time>2022-07-02T17:59:34Z</time>
      </trkpt>
      <trkpt lat="43.141785" lon="-1.521538">
        <time>2022-07-02T17:59:36Z</time>
      </trkpt>
      <trkpt lat="43.141838" lon="-1.521462">
        <time>2022-07-02T17:59:38Z</time>
      </trkpt>
      <trkpt lat="43.141895" lon="-1.5213903">
        <time>2022-07-02T17:59:40Z</time>
      </trkpt>
      <trkpt lat="43.141953" lon="-1.521319">
        <time>2022-07-02T17:59:42Z</time>
      </trkpt>
      <trkpt lat="43.142006" lon="-1.5212474">
        <time>2022-07-02T17:59:44Z</time>
      </trkpt>
      <trkpt lat="43.14206" lon="-1.521173">
        <time>2022-07-02T17:59:46Z</time>
      </trkpt>
      <trkpt lat="43.142117" lon="-1.5211017">
        <time>2022-07-02T17:59:48Z</time>
      </trkpt>
      <trkpt lat="43.142174" lon="-1.5210336">
        <time>2022-07-02T17:59:50Z</time>
      </trkpt>
      <trkpt lat="43.142235" lon="-1.5209681">
        <time>2022-07-02T17:59:52Z</time>
      </trkpt>
      <trkpt lat="43.142292" lon="-1.5209037">
        <time>2022-07-02T17:59:54Z</time>
      </trkpt>
      <trkpt lat="43.14235" lon="-1.5208434">
        <time>2022-07-02T17:59:56Z</time>
      </trkpt>
      <trkpt lat="43.142406" lon="-1.5207833">
        <time>2022-07-02T17:59:58Z</time>
      </trkpt>
      <trkpt lat="43.14246" lon="-1.5207204">
        <time>2022-07-02T18:00:00Z</time>
      </trkpt>
      <trkpt lat="43.142517" lon="-1.5206537">
        <time>2022-07-02T18:00:02Z</time>
      </trkpt>
      <trkpt lat="43.142574" lon="-1.5205897">
        <time>2022-07-02T18:00:04Z</time>
      </trkpt>
      <trkpt lat="43.142628" lon="-1.5205234">
        <time>2022-07-02T18:00:06Z</time>
      </trkpt>
      <trkpt lat="43.14268" lon="-1.52046">
        <time>2022-07-02T18:00:08Z</time>
      </trkpt>
      <trkpt lat="43.142735" lon="-1.5204017">
        <time>2022-07-02T18:00:10Z</time>
      </trkpt>
      <trkpt lat="43.142784" lon="-1.5203484">
        <time>2022-07-02T18:00:12Z</time>
      </trkpt>
      <trkpt lat="43.142834" lon="-1.520287">
        <time>2022-07-02T18:00:14Z</time>
      </trkpt>
      <trkpt lat="43.142887" lon="-1.520226">
        <time>2022-07-02T18:00:16Z</time>
      </trkpt>
      <trkpt lat="43.14294" lon="-1.5201597">
        <time>2022-07-02T18:00:18Z</time>
      </trkpt>
      <trkpt lat="43.142994" lon="-1.520091">
        <time>2022-07-02T18:00:20Z</time>
      </trkpt>
      <trkpt lat="43.143044" lon="-1.5200207">
        <time>2022-07-02T18:00:22Z</time>
      </trkpt>
      <trkpt lat="43.143097" lon="-1.5199478">
        <time>2022-07-02T18:00:24Z</time>
      </trkpt>
      <trkpt lat="43.14315" lon="-1.5198821">
        <time>2022-07-02T18:00:26Z</time>
      </trkpt>
      <trkpt lat="43.143208" lon="-1.519821">
        <time>2022-07-02T18:00:28Z</time>
      </trkpt>
      <trkpt lat="43.14326" lon="-1.5197611">
        <time>2022-07-02T18:00:30Z</time>
      </trkpt>
      <trkpt lat="43.143314" lon="-1.5197">
        <time>2022-07-02T18:00:32Z</time>
      </trkpt>
      <trkpt lat="43.143368" lon="-1.5196397">
        <time>2022-07-02T18:00:34Z</time>
      </trkpt>
      <trkpt lat="43.143425" lon="-1.5195794">
        <time>2022-07-02T18:00:36Z</time>
      </trkpt>
      <trkpt lat="43.14348" lon="-1.5195178">
        <time>2022-07-02T18:00:38Z</time>
      </trkpt>
      <trkpt lat="43.14353" lon="-1.5194545">
        <time>2022-07-02T18:00:40Z</time>
      </trkpt>
      <trkpt lat="43.143585" lon="-1.5193924">
        <time>2022-07-02T18:00:42Z</time>
      </trkpt>
      <trkpt lat="43.143673" lon="-1.5193014">
        <time>2022-07-02T18:00:45Z</time>
      </trkpt>
      <trkpt lat="43.143726" lon="-1.5192398">
        <time>2022-07-02T18:00:47Z</time>
      </trkpt>
      <trkpt lat="43.143784" lon="-1.5191771">
        <time>2022-07-02T18:00:49Z</time>
      </trkpt>
      <trkpt lat="43.14384" lon="-1.5191125">
        <time>2022-07-02T18:00:51Z</time>
      </trkpt>
      <trkpt lat="43.143898" lon="-1.5190505">
        <time>2022-07-02T18:00:53Z</time>
      </trkpt>
      <trkpt lat="43.143955" lon="-1.5189915">
        <time>2022-07-02T18:00:55Z</time>
      </trkpt>
      <trkpt lat="43.144012" lon="-1.5189328">
        <time>2022-07-02T18:00:57Z</time>
      </trkpt>
      <trkpt lat="43.144066" lon="-1.5188751">
        <time>2022-07-02T18:00:59Z</time>
      </trkpt>
      <trkpt lat="43.144123" lon="-1.5188228">
        <time>2022-07-02T18:01:01Z</time>
      </trkpt>
      <trkpt lat="43.14418" lon="-1.5187731">
        <time>2022-07-02T18:01:03Z</time>
      </trkpt>
      <trkpt lat="43.144226" lon="-1.5187188">
        <time>2022-07-02T18:01:05Z</time>
      </trkpt>
      <trkpt lat="43.144253" lon="-1.5186625">
        <time>2022-07-02T18:01:07Z</time>
      </trkpt>
      <trkpt lat="43.144257" lon="-1.5185868">
        <time>2022-07-02T18:01:10Z</time>
      </trkpt>
      <trkpt lat="43.144222" lon="-1.5185162">
        <time>2022-07-02T18:01:13Z</time>
      </trkpt>
      <trkpt lat="43.144173" lon="-1.5184418">
        <time>2022-07-02T18:01:16Z</time>
      </trkpt>
      <trkpt lat="43.14412" lon="-1.5183631">
        <time>2022-07-02T18:01:19Z</time>
      </trkpt>
      <trkpt lat="43.14407" lon="-1.5183135">
        <time>2022-07-02T18:01:21Z</time>
      </trkpt>
      <trkpt lat="43.14402" lon="-1.5182642">
        <time>2022-07-02T18:01:23Z</time>
      </trkpt>
      <trkpt lat="43.14397" lon="-1.5182109">
        <time>2022-07-02T18:01:25Z</time>
      </trkpt>
      <trkpt lat="43.143925" lon="-1.5181515">
        <time>2022-07-02T18:01:27Z</time>
      </trkpt>
      <trkpt lat="43.143883" lon="-1.5180885">
        <time>2022-07-02T18:01:29Z</time>
      </trkpt>
      <trkpt lat="43.14385" lon="-1.5180255">
        <time>2022-07-02T18:01:31Z</time>
      </trkpt>
      <trkpt lat="43.14383" lon="-1.5179605">
        <time>2022-07-02T18:01:33Z</time>
      </trkpt>
      <trkpt lat="43.143833" lon="-1.5178702">
        <time>2022-07-02T18:01:36Z</time>
      </trkpt>
      <trkpt lat="43.14386" lon="-1.5177832">
        <time>2022-07-02T18:01:39Z</time>
      </trkpt>
      <trkpt lat="43.14389" lon="-1.5177249">
        <time>2022-07-02T18:01:41Z</time>
      </trkpt>
      <trkpt lat="43.143932" lon="-1.5176289">
        <time>2022-07-02T18:01:44Z</time>
      </trkpt>
      <trkpt lat="43.143963" lon="-1.5175675">
        <time>2022-07-02T18:01:46Z</time>
      </trkpt>
      <trkpt lat="43.14399" lon="-1.5175092">
        <time>2022-07-02T18:01:48Z</time>
      </trkpt>
      <trkpt lat="43.144035" lon="-1.5174265">
        <time>2022-07-02T18:01:51Z</time>
      </trkpt>
      <trkpt lat="43.14407" lon="-1.5173756">
        <time>2022-07-02T18:01:53Z</time>
      </trkpt>
      <trkpt lat="43.1441" lon="-1.5173151">
        <time>2022-07-02T18:01:56Z</time>
      </trkpt>
      <trkpt lat="43.144257" lon="-1.5174232">
        <time>2022-07-02T18:07:19Z</time>
      </trkpt>
      <trkpt lat="43.144238" lon="-1.5174628">
        <time>2022-07-02T18:07:37Z</time>
      </trkpt>
      <trkpt lat="43.144207" lon="-1.5174458">
        <time>2022-07-02T18:07:46Z</time>
      </trkpt>
      <trkpt lat="43.144142" lon="-1.5175325">
        <time>2022-07-02T18:07:50Z</time>
      </trkpt>
      <trkpt lat="43.14407" lon="-1.5176781">
        <time>2022-07-02T18:07:52Z</time>
      </trkpt>
      <trkpt lat="43.14403" lon="-1.5177518">
        <time>2022-07-02T18:07:53Z</time>
      </trkpt>
      <trkpt lat="43.143993" lon="-1.5178305">
        <time>2022-07-02T18:07:54Z</time>
      </trkpt>
      <trkpt lat="43.14395" lon="-1.5179008">
        <time>2022-07-02T18:07:55Z</time>
      </trkpt>
      <trkpt lat="43.143917" lon="-1.5179648">
        <time>2022-07-02T18:07:56Z</time>
      </trkpt>
      <trkpt lat="43.143894" lon="-1.5179999">
        <time>2022-07-02T18:07:57Z</time>
      </trkpt>
      <trkpt lat="43.143875" lon="-1.5180162">
        <time>2022-07-02T18:07:59Z</time>
      </trkpt>
      <trkpt lat="43.1439" lon="-1.5179348">
        <time>2022-07-02T18:08:04Z</time>
      </trkpt>
      <trkpt lat="43.14396" lon="-1.5178179">
        <time>2022-07-02T18:08:08Z</time>
      </trkpt>
      <trkpt lat="43.143993" lon="-1.5177628">
        <time>2022-07-02T18:08:10Z</time>
      </trkpt>
      <trkpt lat="43.144035" lon="-1.5176958">
        <time>2022-07-02T18:08:12Z</time>
      </trkpt>
      <trkpt lat="43.14408" lon="-1.5176288">
        <time>2022-07-02T18:08:14Z</time>
      </trkpt>
      <trkpt lat="43.144127" lon="-1.5175655">
        <time>2022-07-02T18:08:16Z</time>
      </trkpt>
      <trkpt lat="43.144146" lon="-1.5175339">
        <time>2022-07-02T18:08:18Z</time>
      </trkpt>
      <trkpt lat="43.14418" lon="-1.5174822">
        <time>2022-07-02T18:08:27Z</time>
      </trkpt>
      <trkpt lat="43.1442" lon="-1.5173842">
        <time>2022-07-02T18:08:30Z</time>
      </trkpt>
      <trkpt lat="43.144215" lon="-1.5172995">
        <time>2022-07-02T18:08:32Z</time>
      </trkpt>
      <trkpt lat="43.14423" lon="-1.5172149">
        <time>2022-07-02T18:08:34Z</time>
      </trkpt>
      <trkpt lat="43.144238" lon="-1.5171485">
        <time>2022-07-02T18:08:36Z</time>
      </trkpt>
      <trkpt lat="43.144253" lon="-1.5171072">
        <time>2022-07-02T18:08:39Z</time>
      </trkpt>
      <trkpt lat="43.14428" lon="-1.5171322">
        <time>2022-07-02T18:08:49Z</time>
      </trkpt>
      <trkpt lat="43.137764" lon="-1.5277717">
        <time>2022-07-03T08:17:57Z</time>
      </trkpt>
      <trkpt lat="43.137764" lon="-1.5277717">
        <time>2022-07-03T08:17:57Z</time>
      </trkpt>
      <trkpt lat="43.13785" lon="-1.5278267">
        <time>2022-07-03T08:17:58Z</time>
      </trkpt>
      <trkpt lat="43.137848" lon="-1.5278347">
        <time>2022-07-03T08:17:59Z</time>
      </trkpt>
      <trkpt lat="43.13791" lon="-1.5279467">
        <time>2022-07-03T08:18:02Z</time>
      </trkpt>
      <trkpt lat="43.137894" lon="-1.528056">
        <time>2022-07-03T08:18:04Z</time>
      </trkpt>
      <trkpt lat="43.13786" lon="-1.528162">
        <time>2022-07-03T08:18:06Z</time>
      </trkpt>
      <trkpt lat="43.137814" lon="-1.5282754">
        <time>2022-07-03T08:18:08Z</time>
      </trkpt>
      <trkpt lat="43.13776" lon="-1.5283873">
        <time>2022-07-03T08:18:10Z</time>
      </trkpt>
      <trkpt lat="43.137733" lon="-1.5284443">
        <time>2022-07-03T08:18:11Z</time>
      </trkpt>
      <trkpt lat="43.137676" lon="-1.5285616">
        <time>2022-07-03T08:18:13Z</time>
      </trkpt>
      <trkpt lat="43.13765" lon="-1.5286167">
        <time>2022-07-03T08:18:14Z</time>
      </trkpt>
      <trkpt lat="43.13759" lon="-1.5287349">
        <time>2022-07-03T08:18:16Z</time>
      </trkpt>
      <trkpt lat="43.137554" lon="-1.5287937">
        <time>2022-07-03T08:18:17Z</time>
      </trkpt>
      <trkpt lat="43.137524" lon="-1.5288523">
        <time>2022-07-03T08:18:18Z</time>
      </trkpt>
      <trkpt lat="43.137493" lon="-1.528911">
        <time>2022-07-03T08:18:19Z</time>
      </trkpt>
      <trkpt lat="43.13746" lon="-1.5289693">
        <time>2022-07-03T08:18:20Z</time>
      </trkpt>
      <trkpt lat="43.13743" lon="-1.5290273">
        <time>2022-07-03T08:18:21Z</time>
      </trkpt>
      <trkpt lat="43.137398" lon="-1.5290877">
        <time>2022-07-03T08:18:22Z</time>
      </trkpt>
      <trkpt lat="43.137367" lon="-1.5291497">
        <time>2022-07-03T08:18:23Z</time>
      </trkpt>
      <trkpt lat="43.137337" lon="-1.5292096">
        <time>2022-07-03T08:18:24Z</time>
      </trkpt>
      <trkpt lat="43.137306" lon="-1.5292699">
        <time>2022-07-03T08:18:25Z</time>
      </trkpt>
      <trkpt lat="43.137276" lon="-1.529331">
        <time>2022-07-03T08:18:26Z</time>
      </trkpt>
      <trkpt lat="43.137245" lon="-1.5293876">
        <time>2022-07-03T08:18:27Z</time>
      </trkpt>
      <trkpt lat="43.13718" lon="-1.5295076">
        <time>2022-07-03T08:18:29Z</time>
      </trkpt>
      <trkpt lat="43.13715" lon="-1.5295672">
        <time>2022-07-03T08:18:30Z</time>
      </trkpt>
      <trkpt lat="43.13712" lon="-1.529627">
        <time>2022-07-03T08:18:31Z</time>
      </trkpt>
      <trkpt lat="43.13709" lon="-1.5296876">
        <time>2022-07-03T08:18:32Z</time>
      </trkpt>
      <trkpt lat="43.13706" lon="-1.5297465">
        <time>2022-07-03T08:18:33Z</time>
      </trkpt>
      <trkpt lat="43.13703" lon="-1.5298029">
        <time>2022-07-03T08:18:34Z</time>
      </trkpt>
      <trkpt lat="43.137" lon="-1.5298582">
        <time>2022-07-03T08:18:35Z</time>
      </trkpt>
      <trkpt lat="43.136944" lon="-1.5299653">
        <time>2022-07-03T08:18:37Z</time>
      </trkpt>
      <trkpt lat="43.136887" lon="-1.5300735">
        <time>2022-07-03T08:18:39Z</time>
      </trkpt>
      <trkpt lat="43.13686" lon="-1.5301292">
        <time>2022-07-03T08:18:40Z</time>
      </trkpt>
      <trkpt lat="43.136806" lon="-1.5302383">
        <time>2022-07-03T08:18:42Z</time>
      </trkpt>
      <trkpt lat="43.13676" lon="-1.5303452">
        <time>2022-07-03T08:18:44Z</time>
      </trkpt>
      <trkpt lat="43.13669" lon="-1.5304983">
        <time>2022-07-03T08:18:47Z</time>
      </trkpt>
      <trkpt lat="43.136642" lon="-1.5305935">
        <time>2022-07-03T08:18:49Z</time>
      </trkpt>
      <trkpt lat="43.1366" lon="-1.5306816">
        <time>2022-07-03T08:18:51Z</time>
      </trkpt>
      <trkpt lat="43.13656" lon="-1.5307636">
        <time>2022-07-03T08:18:53Z</time>
      </trkpt>
      <trkpt lat="43.13652" lon="-1.530834">
        <time>2022-07-03T08:18:55Z</time>
      </trkpt>
      <trkpt lat="43.136482" lon="-1.5309023">
        <time>2022-07-03T08:18:57Z</time>
      </trkpt>
      <trkpt lat="43.136444" lon="-1.5309722">
        <time>2022-07-03T08:18:59Z</time>
      </trkpt>
      <trkpt lat="43.136406" lon="-1.5310409">
        <time>2022-07-03T08:19:01Z</time>
      </trkpt>
      <trkpt lat="43.13637" lon="-1.5311079">
        <time>2022-07-03T08:19:03Z</time>
      </trkpt>
      <trkpt lat="43.136337" lon="-1.531174">
        <time>2022-07-03T08:19:05Z</time>
      </trkpt>
      <trkpt lat="43.1363" lon="-1.5312372">
        <time>2022-07-03T08:19:07Z</time>
      </trkpt>
      <trkpt lat="43.136265" lon="-1.5312959">
        <time>2022-07-03T08:19:09Z</time>
      </trkpt>
      <trkpt lat="43.136223" lon="-1.5313569">
        <time>2022-07-03T08:19:11Z</time>
      </trkpt>
      <trkpt lat="43.13619" lon="-1.5314225">
        <time>2022-07-03T08:19:13Z</time>
      </trkpt>
      <trkpt lat="43.13616" lon="-1.5314978">
        <time>2022-07-03T08:19:15Z</time>
      </trkpt>
      <trkpt lat="43.136135" lon="-1.5315669">
        <time>2022-07-03T08:19:17Z</time>
      </trkpt>
      <trkpt lat="43.136105" lon="-1.5316352">
        <time>2022-07-03T08:19:19Z</time>
      </trkpt>
      <trkpt lat="43.136074" lon="-1.5316995">
        <time>2022-07-03T08:19:21Z</time>
      </trkpt>
      <trkpt lat="43.136044" lon="-1.5317665">
        <time>2022-07-03T08:19:23Z</time>
      </trkpt>
      <trkpt lat="43.13601" lon="-1.5318326">
        <time>2022-07-03T08:19:25Z</time>
      </trkpt>
      <trkpt lat="43.13597" lon="-1.5318992">
        <time>2022-07-03T08:19:27Z</time>
      </trkpt>
      <trkpt lat="43.135937" lon="-1.5319675">
        <time>2022-07-03T08:19:29Z</time>
      </trkpt>
      <trkpt lat="43.135906" lon="-1.5320319">
        <time>2022-07-03T08:19:31Z</time>
      </trkpt>
      <trkpt lat="43.135876" lon="-1.5320952">
        <time>2022-07-03T08:19:33Z</time>
      </trkpt>
      <trkpt lat="43.13585" lon="-1.5321572">
        <time>2022-07-03T08:19:35Z</time>
      </trkpt>
      <trkpt lat="43.13581" lon="-1.5322182">
        <time>2022-07-03T08:19:37Z</time>
      </trkpt>
      <trkpt lat="43.13578" lon="-1.5322775">
        <time>2022-07-03T08:19:39Z</time>
      </trkpt>
      <trkpt lat="43.135735" lon="-1.5323641">
        <time>2022-07-03T08:19:42Z</time>
      </trkpt>
      <trkpt lat="43.135704" lon="-1.5324261">
        <time>2022-07-03T08:19:44Z</time>
      </trkpt>
      <trkpt lat="43.135674" lon="-1.5324914">
        <time>2022-07-03T08:19:46Z</time>
      </trkpt>
      <trkpt lat="43.13564" lon="-1.5325584">
        <time>2022-07-03T08:19:48Z</time>
      </trkpt>
      <trkpt lat="43.13561" lon="-1.5326291">
        <time>2022-07-03T08:19:50Z</time>
      </trkpt>
      <trkpt lat="43.135582" lon="-1.5327039">
        <time>2022-07-03T08:19:52Z</time>
      </trkpt>
      <trkpt lat="43.135555" lon="-1.5327841">
        <time>2022-07-03T08:19:54Z</time>
      </trkpt>
      <trkpt lat="43.135532" lon="-1.5328705">
        <time>2022-07-03T08:19:56Z</time>
      </trkpt>
      <trkpt lat="43.135506" lon="-1.5329645">
        <time>2022-07-03T08:19:58Z</time>
      </trkpt>
      <trkpt lat="43.135475" lon="-1.5330669">
        <time>2022-07-03T08:20:00Z</time>
      </trkpt>
      <trkpt lat="43.13545" lon="-1.5331701">
        <time>2022-07-03T08:20:02Z</time>
      </trkpt>
      <trkpt lat="43.13543" lon="-1.5332718">
        <time>2022-07-03T08:20:04Z</time>
      </trkpt>
      <trkpt lat="43.13541" lon="-1.5333741">
        <time>2022-07-03T08:20:06Z</time>
      </trkpt>
      <trkpt lat="43.13539" lon="-1.5334791">
        <time>2022-07-03T08:20:08Z</time>
      </trkpt>
      <trkpt lat="43.135365" lon="-1.5335865">
        <time>2022-07-03T08:20:10Z</time>
      </trkpt>
      <trkpt lat="43.13534" lon="-1.5336988">
        <time>2022-07-03T08:20:12Z</time>
      </trkpt>
      <trkpt lat="43.13532" lon="-1.5338118">
        <time>2022-07-03T08:20:14Z</time>
      </trkpt>
      <trkpt lat="43.135292" lon="-1.5339278">
        <time>2022-07-03T08:20:16Z</time>
      </trkpt>
      <trkpt lat="43.13527" lon="-1.5340492">
        <time>2022-07-03T08:20:18Z</time>
      </trkpt>
      <trkpt lat="43.135242" lon="-1.5341761">
        <time>2022-07-03T08:20:20Z</time>
      </trkpt>
      <trkpt lat="43.13523" lon="-1.5342411">
        <time>2022-07-03T08:20:21Z</time>
      </trkpt>
      <trkpt lat="43.1352" lon="-1.5343841">
        <time>2022-07-03T08:20:23Z</time>
      </trkpt>
      <trkpt lat="43.135185" lon="-1.5344532">
        <time>2022-07-03T08:20:24Z</time>
      </trkpt>
      <trkpt lat="43.13517" lon="-1.5345258">
        <time>2022-07-03T08:20:25Z</time>
      </trkpt>
      <trkpt lat="43.135155" lon="-1.5346061">
        <time>2022-07-03T08:20:26Z</time>
      </trkpt>
      <trkpt lat="43.135136" lon="-1.5346861">
        <time>2022-07-03T08:20:27Z</time>
      </trkpt>
      <trkpt lat="43.13512" lon="-1.5347664">
        <time>2022-07-03T08:20:28Z</time>
      </trkpt>
      <trkpt lat="43.13511" lon="-1.5348408">
        <time>2022-07-03T08:20:29Z</time>
      </trkpt>
      <trkpt lat="43.135094" lon="-1.5349164">
        <time>2022-07-03T08:20:30Z</time>
      </trkpt>
      <trkpt lat="43.135082" lon="-1.5349911">
        <time>2022-07-03T08:20:31Z</time>
      </trkpt>
      <trkpt lat="43.135067" lon="-1.5350704">
        <time>2022-07-03T08:20:32Z</time>
      </trkpt>
      <trkpt lat="43.13505" lon="-1.5351461">
        <time>2022-07-03T08:20:33Z</time>
      </trkpt>
      <trkpt lat="43.13504" lon="-1.5352151">
        <time>2022-07-03T08:20:34Z</time>
      </trkpt>
      <trkpt lat="43.135025" lon="-1.5352827">
        <time>2022-07-03T08:20:35Z</time>
      </trkpt>
      <trkpt lat="43.135014" lon="-1.5353471">
        <time>2022-07-03T08:20:36Z</time>
      </trkpt>
      <trkpt lat="43.134987" lon="-1.5354707">
        <time>2022-07-03T08:20:38Z</time>
      </trkpt>
      <trkpt lat="43.134975" lon="-1.5355318">
        <time>2022-07-03T08:20:39Z</time>
      </trkpt>
      <trkpt lat="43.134953" lon="-1.5356504">
        <time>2022-07-03T08:20:41Z</time>
      </trkpt>
      <trkpt lat="43.13493" lon="-1.5357634">
        <time>2022-07-03T08:20:43Z</time>
      </trkpt>
      <trkpt lat="43.13491" lon="-1.5358727">
        <time>2022-07-03T08:20:45Z</time>
      </trkpt>
      <trkpt lat="43.134876" lon="-1.5360337">
        <time>2022-07-03T08:20:48Z</time>
      </trkpt>
      <trkpt lat="43.134857" lon="-1.5361371">
        <time>2022-07-03T08:20:50Z</time>
      </trkpt>
      <trkpt lat="43.13484" lon="-1.5362387">
        <time>2022-07-03T08:20:52Z</time>
      </trkpt>
      <trkpt lat="43.134815" lon="-1.5363463">
        <time>2022-07-03T08:20:54Z</time>
      </trkpt>
      <trkpt lat="43.134796" lon="-1.536456">
        <time>2022-07-03T08:20:56Z</time>
      </trkpt>
      <trkpt lat="43.134773" lon="-1.536566">
        <time>2022-07-03T08:20:58Z</time>
      </trkpt>
      <trkpt lat="43.134747" lon="-1.5366817">
        <time>2022-07-03T08:21:00Z</time>
      </trkpt>
      <trkpt lat="43.13472" lon="-1.5368026">
        <time>2022-07-03T08:21:02Z</time>
      </trkpt>
      <trkpt lat="43.134693" lon="-1.5369264">
        <time>2022-07-03T08:21:04Z</time>
      </trkpt>
      <trkpt lat="43.134678" lon="-1.5369887">
        <time>2022-07-03T08:21:05Z</time>
      </trkpt>
      <trkpt lat="43.13465" lon="-1.537118">
        <time>2022-07-03T08:21:07Z</time>
      </trkpt>
      <trkpt lat="43.134636" lon="-1.5371847">
        <time>2022-07-03T08:21:08Z</time>
      </trkpt>
      <trkpt lat="43.13462" lon="-1.5372517">
        <time>2022-07-03T08:21:09Z</time>
      </trkpt>
      <trkpt lat="43.13459" lon="-1.537388">
        <time>2022-07-03T08:21:11Z</time>
      </trkpt>
      <trkpt lat="43.134575" lon="-1.5374573">
        <time>2022-07-03T08:21:12Z</time>
      </trkpt>
      <trkpt lat="43.134563" lon="-1.5375264">
        <time>2022-07-03T08:21:13Z</time>
      </trkpt>
      <trkpt lat="43.13455" lon="-1.5375956">
        <time>2022-07-03T08:21:14Z</time>
      </trkpt>
      <trkpt lat="43.134518" lon="-1.5377387">
        <time>2022-07-03T08:21:16Z</time>
      </trkpt>
      <trkpt lat="43.134506" lon="-1.5378107">
        <time>2022-07-03T08:21:17Z</time>
      </trkpt>
      <trkpt lat="43.13449" lon="-1.5378823">
        <time>2022-07-03T08:21:18Z</time>
      </trkpt>
      <trkpt lat="43.134476" lon="-1.5379553">
        <time>2022-07-03T08:21:19Z</time>
      </trkpt>
      <trkpt lat="43.13446" lon="-1.5380293">
        <time>2022-07-03T08:21:20Z</time>
      </trkpt>
      <trkpt lat="43.134445" lon="-1.5381047">
        <time>2022-07-03T08:21:21Z</time>
      </trkpt>
      <trkpt lat="43.13443" lon="-1.5381807">
        <time>2022-07-03T08:21:22Z</time>
      </trkpt>
      <trkpt lat="43.134415" lon="-1.5382574">
        <time>2022-07-03T08:21:23Z</time>
      </trkpt>
      <trkpt lat="43.1344" lon="-1.538334">
        <time>2022-07-03T08:21:24Z</time>
      </trkpt>
      <trkpt lat="43.13438" lon="-1.53841">
        <time>2022-07-03T08:21:25Z</time>
      </trkpt>
      <trkpt lat="43.13436" lon="-1.538487">
        <time>2022-07-03T08:21:26Z</time>
      </trkpt>
      <trkpt lat="43.134346" lon="-1.5385633">
        <time>2022-07-03T08:21:27Z</time>
      </trkpt>
      <trkpt lat="43.13433" lon="-1.5386397">
        <time>2022-07-03T08:21:28Z</time>
      </trkpt>
      <trkpt lat="43.13431" lon="-1.5387217">
        <time>2022-07-03T08:21:29Z</time>
      </trkpt>
      <trkpt lat="43.134296" lon="-1.5388017">
        <time>2022-07-03T08:21:30Z</time>
      </trkpt>
      <trkpt lat="43.13428" lon="-1.5388813">
        <time>2022-07-03T08:21:31Z</time>
      </trkpt>
      <trkpt lat="43.134266" lon="-1.5389546">
        <time>2022-07-03T08:21:32Z</time>
      </trkpt>
      <trkpt lat="43.13425" lon="-1.5390273">
        <time>2022-07-03T08:21:33Z</time>
      </trkpt>
      <trkpt lat="43.134235" lon="-1.5391012">
        <time>2022-07-03T08:21:34Z</time>
      </trkpt>
      <trkpt lat="43.134216" lon="-1.539176">
        <time>2022-07-03T08:21:35Z</time>
      </trkpt>
      <trkpt lat="43.1342" lon="-1.5392516">
        <time>2022-07-03T08:21:36Z</time>
      </trkpt>
      <trkpt lat="43.134182" lon="-1.539328">
        <time>2022-07-03T08:21:37Z</time>
      </trkpt>
      <trkpt lat="43.134167" lon="-1.5394026">
        <time>2022-07-03T08:21:38Z</time>
      </trkpt>
      <trkpt lat="43.134148" lon="-1.5394766">
        <time>2022-07-03T08:21:39Z</time>
      </trkpt>
      <trkpt lat="43.134132" lon="-1.5395529">
        <time>2022-07-03T08:21:40Z</time>
      </trkpt>
      <trkpt lat="43.134117" lon="-1.5396216">
        <time>2022-07-03T08:21:41Z</time>
      </trkpt>
      <trkpt lat="43.134106" lon="-1.5396899">
        <time>2022-07-03T08:21:42Z</time>
      </trkpt>
      <trkpt lat="43.13409" lon="-1.5397569">
        <time>2022-07-03T08:21:43Z</time>
      </trkpt>
      <trkpt lat="43.13407" lon="-1.5398886">
        <time>2022-07-03T08:21:45Z</time>
      </trkpt>
      <trkpt lat="43.13405" lon="-1.5400065">
        <time>2022-07-03T08:21:47Z</time>
      </trkpt>
      <trkpt lat="43.134026" lon="-1.540111">
        <time>2022-07-03T08:21:49Z</time>
      </trkpt>
      <trkpt lat="43.133995" lon="-1.5402476">
        <time>2022-07-03T08:21:52Z</time>
      </trkpt>
      <trkpt lat="43.13398" lon="-1.5403262">
        <time>2022-07-03T08:21:54Z</time>
      </trkpt>
      <trkpt lat="43.13397" lon="-1.5403949">
        <time>2022-07-03T08:21:56Z</time>
      </trkpt>
      <trkpt lat="43.13396" lon="-1.5404495">
        <time>2022-07-03T08:21:58Z</time>
      </trkpt>
      <trkpt lat="43.13395" lon="-1.5405205">
        <time>2022-07-03T08:22:02Z</time>
      </trkpt>
      <trkpt lat="43.13398" lon="-1.5406126">
        <time>2022-07-03T08:24:02Z</time>
      </trkpt>
      <trkpt lat="43.133953" lon="-1.5407078">
        <time>2022-07-03T08:24:05Z</time>
      </trkpt>
      <trkpt lat="43.133934" lon="-1.5407782">
        <time>2022-07-03T08:24:07Z</time>
      </trkpt>
      <trkpt lat="43.133915" lon="-1.5408455">
        <time>2022-07-03T08:24:09Z</time>
      </trkpt>
      <trkpt lat="43.133896" lon="-1.5409108">
        <time>2022-07-03T08:24:11Z</time>
      </trkpt>
      <trkpt lat="43.13386" lon="-1.5410045">
        <time>2022-07-03T08:24:14Z</time>
      </trkpt>
      <trkpt lat="43.13384" lon="-1.5410682">
        <time>2022-07-03T08:24:16Z</time>
      </trkpt>
      <trkpt lat="43.13381" lon="-1.5411335">
        <time>2022-07-03T08:24:18Z</time>
      </trkpt>
      <trkpt lat="43.133778" lon="-1.5411988">
        <time>2022-07-03T08:24:20Z</time>
      </trkpt>
      <trkpt lat="43.133747" lon="-1.5412635">
        <time>2022-07-03T08:24:22Z</time>
      </trkpt>
      <trkpt lat="43.13371" lon="-1.5413299">
        <time>2022-07-03T08:24:24Z</time>
      </trkpt>
      <trkpt lat="43.13367" lon="-1.5413958">
        <time>2022-07-03T08:24:26Z</time>
      </trkpt>
      <trkpt lat="43.133636" lon="-1.5414648">
        <time>2022-07-03T08:24:28Z</time>
      </trkpt>
      <trkpt lat="43.133602" lon="-1.5415351">
        <time>2022-07-03T08:24:30Z</time>
      </trkpt>
      <trkpt lat="43.133568" lon="-1.5416045">
        <time>2022-07-03T08:24:32Z</time>
      </trkpt>
      <trkpt lat="43.133533" lon="-1.5416758">
        <time>2022-07-03T08:24:34Z</time>
      </trkpt>
      <trkpt lat="43.13349" lon="-1.5417452">
        <time>2022-07-03T08:24:36Z</time>
      </trkpt>
      <trkpt lat="43.133453" lon="-1.5418142">
        <time>2022-07-03T08:24:38Z</time>
      </trkpt>
      <trkpt lat="43.133415" lon="-1.5418831">
        <time>2022-07-03T08:24:40Z</time>
      </trkpt>
      <trkpt lat="43.13338" lon="-1.5419505">
        <time>2022-07-03T08:24:42Z</time>
      </trkpt>
      <trkpt lat="43.133343" lon="-1.5420221">
        <time>2022-07-03T08:24:44Z</time>
      </trkpt>
      <trkpt lat="43.133305" lon="-1.5420982">
        <time>2022-07-03T08:24:46Z</time>
      </trkpt>
      <trkpt lat="43.133266" lon="-1.5421722">
        <time>2022-07-03T08:24:48Z</time>
      </trkpt>
      <trkpt lat="43.133224" lon="-1.5422472">
        <time>2022-07-03T08:24:50Z</time>
      </trkpt>
      <trkpt lat="43.133183" lon="-1.5423275">
        <time>2022-07-03T08:24:52Z</time>
      </trkpt>
      <trkpt lat="43.13311" lon="-1.5424571">
        <time>2022-07-03T08:24:55Z</time>
      </trkpt>
      <trkpt lat="43.133068" lon="-1.5425404">
        <time>2022-07-03T08:24:57Z</time>
      </trkpt>
      <trkpt lat="43.13303" lon="-1.5426191">
        <time>2022-07-03T08:24:59Z</time>
      </trkpt>
      <trkpt lat="43.132988" lon="-1.5427017">
        <time>2022-07-03T08:25:01Z</time>
      </trkpt>
      <trkpt lat="43.132946" lon="-1.5427854">
        <time>2022-07-03T08:25:03Z</time>
      </trkpt>
      <trkpt lat="43.132904" lon="-1.5428708">
        <time>2022-07-03T08:25:05Z</time>
      </trkpt>
      <trkpt lat="43.13286" lon="-1.5429584">
        <time>2022-07-03T08:25:07Z</time>
      </trkpt>
      <trkpt lat="43.132793" lon="-1.5430974">
        <time>2022-07-03T08:25:10Z</time>
      </trkpt>
      <trkpt lat="43.132744" lon="-1.5431955">
        <time>2022-07-03T08:25:12Z</time>
      </trkpt>
      <trkpt lat="43.132694" lon="-1.5432951">
        <time>2022-07-03T08:25:14Z</time>
      </trkpt>
      <trkpt lat="43.132645" lon="-1.5433958">
        <time>2022-07-03T08:25:16Z</time>
      </trkpt>
      <trkpt lat="43.132595" lon="-1.5434984">
        <time>2022-07-03T08:25:18Z</time>
      </trkpt>
      <trkpt lat="43.13254" lon="-1.5436021">
        <time>2022-07-03T08:25:20Z</time>
      </trkpt>
      <trkpt lat="43.132492" lon="-1.5437047">
        <time>2022-07-03T08:25:22Z</time>
      </trkpt>
      <trkpt lat="43.13244" lon="-1.5438077">
        <time>2022-07-03T08:25:24Z</time>
      </trkpt>
      <trkpt lat="43.13239" lon="-1.5439124">
        <time>2022-07-03T08:25:26Z</time>
      </trkpt>
      <trkpt lat="43.13234" lon="-1.5440127">
        <time>2022-07-03T08:25:28Z</time>
      </trkpt>
      <trkpt lat="43.13229" lon="-1.5441201">
        <time>2022-07-03T08:25:30Z</time>
      </trkpt>
      <trkpt lat="43.132236" lon="-1.5442268">
        <time>2022-07-03T08:25:32Z</time>
      </trkpt>
      <trkpt lat="43.13221" lon="-1.5442791">
        <time>2022-07-03T08:25:33Z</time>
      </trkpt>
      <trkpt lat="43.13216" lon="-1.5443797">
        <time>2022-07-03T08:25:35Z</time>
      </trkpt>
      <trkpt lat="43.13211" lon="-1.5444767">
        <time>2022-07-03T08:25:37Z</time>
      </trkpt>
      <trkpt lat="43.132065" lon="-1.5445701">
        <time>2022-07-03T08:25:39Z</time>
      </trkpt>
      <trkpt lat="43.132023" lon="-1.544656">
        <time>2022-07-03T08:25:41Z</time>
      </trkpt>
      <trkpt lat="43.131985" lon="-1.544734">
        <time>2022-07-03T08:25:43Z</time>
      </trkpt>
      <trkpt lat="43.131954" lon="-1.5448077">
        <time>2022-07-03T08:25:45Z</time>
      </trkpt>
      <trkpt lat="43.131924" lon="-1.5448754">
        <time>2022-07-03T08:25:47Z</time>
      </trkpt>
      <trkpt lat="43.131893" lon="-1.5449424">
        <time>2022-07-03T08:25:49Z</time>
      </trkpt>
      <trkpt lat="43.13186" lon="-1.5450014">
        <time>2022-07-03T08:25:51Z</time>
      </trkpt>
      <trkpt lat="43.131832" lon="-1.5450563">
        <time>2022-07-03T08:25:53Z</time>
      </trkpt>
      <trkpt lat="43.13178" lon="-1.5451623">
        <time>2022-07-03T08:25:57Z</time>
      </trkpt>
      <trkpt lat="43.131752" lon="-1.545216">
        <time>2022-07-03T08:25:59Z</time>
      </trkpt>
      <trkpt lat="43.131718" lon="-1.5452913">
        <time>2022-07-03T08:26:02Z</time>
      </trkpt>
      <trkpt lat="43.13168" lon="-1.5453624">
        <time>2022-07-03T08:26:05Z</time>
      </trkpt>
      <trkpt lat="43.131638" lon="-1.545434">
        <time>2022-07-03T08:26:08Z</time>
      </trkpt>
      <trkpt lat="43.1316" lon="-1.5455084">
        <time>2022-07-03T08:26:11Z</time>
      </trkpt>
      <trkpt lat="43.13156" lon="-1.5455784">
        <time>2022-07-03T08:26:14Z</time>
      </trkpt>
      <trkpt lat="43.131527" lon="-1.5456487">
        <time>2022-07-03T08:26:17Z</time>
      </trkpt>
      <trkpt lat="43.13149" lon="-1.545717">
        <time>2022-07-03T08:26:20Z</time>
      </trkpt>
      <trkpt lat="43.131454" lon="-1.5457846">
        <time>2022-07-03T08:26:23Z</time>
      </trkpt>
      <trkpt lat="43.13142" lon="-1.5458549">
        <time>2022-07-03T08:26:26Z</time>
      </trkpt>
      <trkpt lat="43.131382" lon="-1.5459253">
        <time>2022-07-03T08:26:29Z</time>
      </trkpt>
      <trkpt lat="43.13135" lon="-1.5459939">
        <time>2022-07-03T08:26:32Z</time>
      </trkpt>
      <trkpt lat="43.13132" lon="-1.5460607">
        <time>2022-07-03T08:26:35Z</time>
      </trkpt>
      <trkpt lat="43.13129" lon="-1.54614">
        <time>2022-07-03T08:26:38Z</time>
      </trkpt>
      <trkpt lat="43.131264" lon="-1.5462186">
        <time>2022-07-03T08:26:41Z</time>
      </trkpt>
      <trkpt lat="43.131237" lon="-1.5462847">
        <time>2022-07-03T08:26:44Z</time>
      </trkpt>
      <trkpt lat="43.131207" lon="-1.5463476">
        <time>2022-07-03T08:26:47Z</time>
      </trkpt>
      <trkpt lat="43.131176" lon="-1.5464159">
        <time>2022-07-03T08:26:50Z</time>
      </trkpt>
      <trkpt lat="43.13114" lon="-1.5464907">
        <time>2022-07-03T08:26:53Z</time>
      </trkpt>
      <trkpt lat="43.13111" lon="-1.5465709">
        <time>2022-07-03T08:26:56Z</time>
      </trkpt>
      <trkpt lat="43.131092" lon="-1.546644">
        <time>2022-07-03T08:26:59Z</time>
      </trkpt>
      <trkpt lat="43.13109" lon="-1.5467196">
        <time>2022-07-03T08:27:02Z</time>
      </trkpt>
      <trkpt lat="43.13112" lon="-1.5467796">
        <time>2022-07-03T08:27:05Z</time>
      </trkpt>
      <trkpt lat="43.13116" lon="-1.546765">
        <time>2022-07-03T08:27:10Z</time>
      </trkpt>
      <trkpt lat="43.13116" lon="-1.5467863">
        <time>2022-07-03T08:27:46Z</time>
      </trkpt>
      <trkpt lat="43.131107" lon="-1.5468503">
        <time>2022-07-03T08:27:50Z</time>
      </trkpt>
      <trkpt lat="43.13105" lon="-1.546912">
        <time>2022-07-03T08:27:53Z</time>
      </trkpt>
      <trkpt lat="43.131012" lon="-1.5469573">
        <time>2022-07-03T08:27:55Z</time>
      </trkpt>
      <trkpt lat="43.13096" lon="-1.5470166">
        <time>2022-07-03T08:27:58Z</time>
      </trkpt>
      <trkpt lat="43.13087" lon="-1.5470903">
        <time>2022-07-03T08:28:02Z</time>
      </trkpt>
      <trkpt lat="43.130817" lon="-1.5471299">
        <time>2022-07-03T08:28:04Z</time>
      </trkpt>
      <trkpt lat="43.13076" lon="-1.5471786">
        <time>2022-07-03T08:28:06Z</time>
      </trkpt>
      <trkpt lat="43.130695" lon="-1.5472276">
        <time>2022-07-03T08:28:08Z</time>
      </trkpt>
      <trkpt lat="43.130627" lon="-1.5472702">
        <time>2022-07-03T08:28:10Z</time>
      </trkpt>
      <trkpt lat="43.130554" lon="-1.5473028">
        <time>2022-07-03T08:28:12Z</time>
      </trkpt>
      <trkpt lat="43.13047" lon="-1.5473342">
        <time>2022-07-03T08:28:14Z</time>
      </trkpt>
      <trkpt lat="43.13037" lon="-1.5473632">
        <time>2022-07-03T08:28:16Z</time>
      </trkpt>
      <trkpt lat="43.13032" lon="-1.5473759">
        <time>2022-07-03T08:28:17Z</time>
      </trkpt>
      <trkpt lat="43.130222" lon="-1.5473979">
        <time>2022-07-03T08:28:19Z</time>
      </trkpt>
      <trkpt lat="43.13011" lon="-1.5474275">
        <time>2022-07-03T08:28:21Z</time>
      </trkpt>
      <trkpt lat="43.13005" lon="-1.5474455">
        <time>2022-07-03T08:28:22Z</time>
      </trkpt>
      <trkpt lat="43.12999" lon="-1.5474643">
        <time>2022-07-03T08:28:23Z</time>
      </trkpt>
      <trkpt lat="43.12993" lon="-1.5474849">
        <time>2022-07-03T08:28:24Z</time>
      </trkpt>
      <trkpt lat="43.12986" lon="-1.5475092">
        <time>2022-07-03T08:28:25Z</time>
      </trkpt>
      <trkpt lat="43.129795" lon="-1.5475348">
        <time>2022-07-03T08:28:26Z</time>
      </trkpt>
      <trkpt lat="43.129723" lon="-1.5475641">
        <time>2022-07-03T08:28:27Z</time>
      </trkpt>
      <trkpt lat="43.129654" lon="-1.5475962">
        <time>2022-07-03T08:28:28Z</time>
      </trkpt>
      <trkpt lat="43.129585" lon="-1.5476298">
        <time>2022-07-03T08:28:29Z</time>
      </trkpt>
      <trkpt lat="43.129513" lon="-1.5476701">
        <time>2022-07-03T08:28:30Z</time>
      </trkpt>
      <trkpt lat="43.12943" lon="-1.5477206">
        <time>2022-07-03T08:28:31Z</time>
      </trkpt>
      <trkpt lat="43.12935" lon="-1.5477751">
        <time>2022-07-03T08:28:32Z</time>
      </trkpt>
      <trkpt lat="43.129272" lon="-1.5478288">
        <time>2022-07-03T08:28:33Z</time>
      </trkpt>
      <trkpt lat="43.12919" lon="-1.5478919">
        <time>2022-07-03T08:28:34Z</time>
      </trkpt>
      <trkpt lat="43.12911" lon="-1.5479581">
        <time>2022-07-03T08:28:35Z</time>
      </trkpt>
      <trkpt lat="43.129032" lon="-1.5480225">
        <time>2022-07-03T08:28:36Z</time>
      </trkpt>
      <trkpt lat="43.12895" lon="-1.5480934">
        <time>2022-07-03T08:28:37Z</time>
      </trkpt>
      <trkpt lat="43.128864" lon="-1.5481645">
        <time>2022-07-03T08:28:38Z</time>
      </trkpt>
      <trkpt lat="43.12878" lon="-1.5482361">
        <time>2022-07-03T08:28:39Z</time>
      </trkpt>
      <trkpt lat="43.128696" lon="-1.5483091">
        <time>2022-07-03T08:28:40Z</time>
      </trkpt>
      <trkpt lat="43.128616" lon="-1.5483835">
        <time>2022-07-03T08:28:41Z</time>
      </trkpt>
      <trkpt lat="43.128536" lon="-1.5484592">
        <time>2022-07-03T08:28:42Z</time>
      </trkpt>
      <trkpt lat="43.128464" lon="-1.5485348">
        <time>2022-07-03T08:28:43Z</time>
      </trkpt>
      <trkpt lat="43.128387" lon="-1.5486104">
        <time>2022-07-03T08:28:44Z</time>
      </trkpt>
      <trkpt lat="43.12832" lon="-1.5486861">
        <time>2022-07-03T08:28:45Z</time>
      </trkpt>
      <trkpt lat="43.12825" lon="-1.5487624">
        <time>2022-07-03T08:28:46Z</time>
      </trkpt>
      <trkpt lat="43.12819" lon="-1.5488394">
        <time>2022-07-03T08:28:47Z</time>
      </trkpt>
      <trkpt lat="43.128136" lon="-1.5489181">
        <time>2022-07-03T08:28:48Z</time>
      </trkpt>
      <trkpt lat="43.128086" lon="-1.5489981">
        <time>2022-07-03T08:28:49Z</time>
      </trkpt>
      <trkpt lat="43.12804" lon="-1.5490787">
        <time>2022-07-03T08:28:50Z</time>
      </trkpt>
      <trkpt lat="43.128002" lon="-1.549159">
        <time>2022-07-03T08:28:51Z</time>
      </trkpt>
      <trkpt lat="43.127964" lon="-1.5492401">
        <time>2022-07-03T08:28:52Z</time>
      </trkpt>
      <trkpt lat="43.127934" lon="-1.549321">
        <time>2022-07-03T08:28:53Z</time>
      </trkpt>
      <trkpt lat="43.127903" lon="-1.5494001">
        <time>2022-07-03T08:28:54Z</time>
      </trkpt>
      <trkpt lat="43.12788" lon="-1.5494777">
        <time>2022-07-03T08:28:55Z</time>
      </trkpt>
      <trkpt lat="43.127857" lon="-1.549553">
        <time>2022-07-03T08:28:56Z</time>
      </trkpt>
      <trkpt lat="43.127834" lon="-1.5496278">
        <time>2022-07-03T08:28:57Z</time>
      </trkpt>
      <trkpt lat="43.12782" lon="-1.5497017">
        <time>2022-07-03T08:28:58Z</time>
      </trkpt>
      <trkpt lat="43.1278" lon="-1.5497748">
        <time>2022-07-03T08:28:59Z</time>
      </trkpt>
      <trkpt lat="43.127785" lon="-1.5498444">
        <time>2022-07-03T08:29:00Z</time>
      </trkpt>
      <trkpt lat="43.127766" lon="-1.5499125">
        <time>2022-07-03T08:29:01Z</time>
      </trkpt>
      <trkpt lat="43.12774" lon="-1.550045">
        <time>2022-07-03T08:29:03Z</time>
      </trkpt>
      <trkpt lat="43.127724" lon="-1.550109">
        <time>2022-07-03T08:29:04Z</time>
      </trkpt>
      <trkpt lat="43.12769" lon="-1.5502977">
        <time>2022-07-03T08:29:07Z</time>
      </trkpt>
      <trkpt lat="43.127678" lon="-1.5504171">
        <time>2022-07-03T08:29:09Z</time>
      </trkpt>
      <trkpt lat="43.127666" lon="-1.5505301">
        <time>2022-07-03T08:29:11Z</time>
      </trkpt>
      <trkpt lat="43.127663" lon="-1.5506374">
        <time>2022-07-03T08:29:13Z</time>
      </trkpt>
      <trkpt lat="43.12766" lon="-1.5507424">
        <time>2022-07-03T08:29:15Z</time>
      </trkpt>
      <trkpt lat="43.127655" lon="-1.550842">
        <time>2022-07-03T08:29:17Z</time>
      </trkpt>
      <trkpt lat="43.127647" lon="-1.5509377">
        <time>2022-07-03T08:29:19Z</time>
      </trkpt>
      <trkpt lat="43.127644" lon="-1.5510254">
        <time>2022-07-03T08:29:21Z</time>
      </trkpt>
      <trkpt lat="43.127644" lon="-1.5511087">
        <time>2022-07-03T08:29:23Z</time>
      </trkpt>
      <trkpt lat="43.127644" lon="-1.5511887">
        <time>2022-07-03T08:29:25Z</time>
      </trkpt>
      <trkpt lat="43.127644" lon="-1.55126">
        <time>2022-07-03T08:29:27Z</time>
      </trkpt>
      <trkpt lat="43.12765" lon="-1.5513474">
        <time>2022-07-03T08:29:30Z</time>
      </trkpt>
      <trkpt lat="43.12766" lon="-1.5514244">
        <time>2022-07-03T08:29:33Z</time>
      </trkpt>
      <trkpt lat="43.127663" lon="-1.5514923">
        <time>2022-07-03T08:29:36Z</time>
      </trkpt>
      <trkpt lat="43.127686" lon="-1.5515773">
        <time>2022-07-03T08:29:40Z</time>
      </trkpt>
      <trkpt lat="43.12771" lon="-1.551635">
        <time>2022-07-03T08:29:43Z</time>
      </trkpt>
      <trkpt lat="43.12774" lon="-1.5517067">
        <time>2022-07-03T08:29:47Z</time>
      </trkpt>
      <trkpt lat="43.127766" lon="-1.551763">
        <time>2022-07-03T08:29:50Z</time>
      </trkpt>
      <trkpt lat="43.127796" lon="-1.5518357">
        <time>2022-07-03T08:29:54Z</time>
      </trkpt>
      <trkpt lat="43.12783" lon="-1.551904">
        <time>2022-07-03T08:29:58Z</time>
      </trkpt>
      <trkpt lat="43.127857" lon="-1.5519856">
        <time>2022-07-03T08:30:02Z</time>
      </trkpt>
      <trkpt lat="43.12789" lon="-1.5520606">
        <time>2022-07-03T08:30:06Z</time>
      </trkpt>
      <trkpt lat="43.127934" lon="-1.5521563">
        <time>2022-07-03T08:30:11Z</time>
      </trkpt>
      <trkpt lat="43.127964" lon="-1.5522146">
        <time>2022-07-03T08:30:14Z</time>
      </trkpt>
      <trkpt lat="43.12799" lon="-1.552287">
        <time>2022-07-03T08:30:18Z</time>
      </trkpt>
      <trkpt lat="43.128025" lon="-1.5523603">
        <time>2022-07-03T08:30:22Z</time>
      </trkpt>
      <trkpt lat="43.128048" lon="-1.5524323">
        <time>2022-07-03T08:30:26Z</time>
      </trkpt>
      <trkpt lat="43.128067" lon="-1.5525006">
        <time>2022-07-03T08:30:30Z</time>
      </trkpt>
      <trkpt lat="43.128082" lon="-1.5525863">
        <time>2022-07-03T08:30:34Z</time>
      </trkpt>
      <trkpt lat="43.1281" lon="-1.5526563">
        <time>2022-07-03T08:30:37Z</time>
      </trkpt>
      <trkpt lat="43.12812" lon="-1.5527207">
        <time>2022-07-03T08:30:40Z</time>
      </trkpt>
      <trkpt lat="43.12814" lon="-1.5527879">
        <time>2022-07-03T08:30:43Z</time>
      </trkpt>
      <trkpt lat="43.12816" lon="-1.5528547">
        <time>2022-07-03T08:30:46Z</time>
      </trkpt>
      <trkpt lat="43.12818" lon="-1.5529393">
        <time>2022-07-03T08:30:50Z</time>
      </trkpt>
      <trkpt lat="43.1282" lon="-1.5530139">
        <time>2022-07-03T08:30:54Z</time>
      </trkpt>
      <trkpt lat="43.128227" lon="-1.5530982">
        <time>2022-07-03T08:30:58Z</time>
      </trkpt>
      <trkpt lat="43.12825" lon="-1.5531663">
        <time>2022-07-03T08:31:01Z</time>
      </trkpt>
      <trkpt lat="43.12827" lon="-1.5532376">
        <time>2022-07-03T08:31:04Z</time>
      </trkpt>
      <trkpt lat="43.128292" lon="-1.5533192">
        <time>2022-07-03T08:31:07Z</time>
      </trkpt>
      <trkpt lat="43.12832" lon="-1.5534042">
        <time>2022-07-03T08:31:10Z</time>
      </trkpt>
      <trkpt lat="43.128345" lon="-1.5535252">
        <time>2022-07-03T08:31:14Z</time>
      </trkpt>
      <trkpt lat="43.12836" lon="-1.5535836">
        <time>2022-07-03T08:31:16Z</time>
      </trkpt>
      <trkpt lat="43.128387" lon="-1.5536712">
        <time>2022-07-03T08:31:19Z</time>
      </trkpt>
      <trkpt lat="43.12841" lon="-1.553757">
        <time>2022-07-03T08:31:22Z</time>
      </trkpt>
      <trkpt lat="43.12844" lon="-1.5538552">
        <time>2022-07-03T08:31:25Z</time>
      </trkpt>
      <trkpt lat="43.128464" lon="-1.5539169">
        <time>2022-07-03T08:31:27Z</time>
      </trkpt>
      <trkpt lat="43.128494" lon="-1.5539973">
        <time>2022-07-03T08:31:30Z</time>
      </trkpt>
      <trkpt lat="43.12853" lon="-1.5540782">
        <time>2022-07-03T08:31:33Z</time>
      </trkpt>
      <trkpt lat="43.128563" lon="-1.5541592">
        <time>2022-07-03T08:31:36Z</time>
      </trkpt>
      <trkpt lat="43.128597" lon="-1.5542302">
        <time>2022-07-03T08:31:39Z</time>
      </trkpt>
      <trkpt lat="43.128635" lon="-1.5542996">
        <time>2022-07-03T08:31:42Z</time>
      </trkpt>
      <trkpt lat="43.128677" lon="-1.5543672">
        <time>2022-07-03T08:31:45Z</time>
      </trkpt>
      <trkpt lat="43.12872" lon="-1.5544225">
        <time>2022-07-03T08:31:48Z</time>
      </trkpt>
      <trkpt lat="43.128773" lon="-1.5544646">
        <time>2022-07-03T08:31:51Z</time>
      </trkpt>
      <trkpt lat="43.12882" lon="-1.5545042">
        <time>2022-07-03T08:31:54Z</time>
      </trkpt>
      <trkpt lat="43.128883" lon="-1.5545292">
        <time>2022-07-03T08:31:57Z</time>
      </trkpt>
      <trkpt lat="43.128933" lon="-1.5545435">
        <time>2022-07-03T08:32:00Z</time>
      </trkpt>
      <trkpt lat="43.12901" lon="-1.5545492">
        <time>2022-07-03T08:33:21Z</time>
      </trkpt>
      <trkpt lat="43.129066" lon="-1.5545645">
        <time>2022-07-03T08:33:24Z</time>
      </trkpt>
      <trkpt lat="43.129128" lon="-1.5545732">
        <time>2022-07-03T08:33:27Z</time>
      </trkpt>
      <trkpt lat="43.12918" lon="-1.5545852">
        <time>2022-07-03T08:33:30Z</time>
      </trkpt>
      <trkpt lat="43.129227" lon="-1.5545992">
        <time>2022-07-03T08:33:33Z</time>
      </trkpt>
      <trkpt lat="43.12928" lon="-1.5546229">
        <time>2022-07-03T08:33:37Z</time>
      </trkpt>
      <trkpt lat="43.129322" lon="-1.5546628">
        <time>2022-07-03T08:33:41Z</time>
      </trkpt>
      <trkpt lat="43.129383" lon="-1.5546771">
        <time>2022-07-03T08:33:46Z</time>
      </trkpt>
      <trkpt lat="43.129448" lon="-1.5546855">
        <time>2022-07-03T08:33:50Z</time>
      </trkpt>
      <trkpt lat="43.1295" lon="-1.5546918">
        <time>2022-07-03T08:33:53Z</time>
      </trkpt>
      <trkpt lat="43.12956" lon="-1.5547062">
        <time>2022-07-03T08:33:56Z</time>
      </trkpt>
      <trkpt lat="43.129612" lon="-1.5547198">
        <time>2022-07-03T08:33:59Z</time>
      </trkpt>
      <trkpt lat="43.129665" lon="-1.5547371">
        <time>2022-07-03T08:34:02Z</time>
      </trkpt>
      <trkpt lat="43.12973" lon="-1.5547568">
        <time>2022-07-03T08:34:06Z</time>
      </trkpt>
      <trkpt lat="43.129784" lon="-1.5547762">
        <time>2022-07-03T08:34:09Z</time>
      </trkpt>
      <trkpt lat="43.129837" lon="-1.5548005">
        <time>2022-07-03T08:34:12Z</time>
      </trkpt>
      <trkpt lat="43.129887" lon="-1.5548261">
        <time>2022-07-03T08:34:15Z</time>
      </trkpt>
      <trkpt lat="43.129948" lon="-1.5548888">
        <time>2022-07-03T08:34:19Z</time>
      </trkpt>
      <trkpt lat="43.12999" lon="-1.5549442">
        <time>2022-07-03T08:34:22Z</time>
      </trkpt>
      <trkpt lat="43.130035" lon="-1.5550017">
        <time>2022-07-03T08:34:25Z</time>
      </trkpt>
      <trkpt lat="43.130074" lon="-1.5550611">
        <time>2022-07-03T08:34:28Z</time>
      </trkpt>
      <trkpt lat="43.130108" lon="-1.5551234">
        <time>2022-07-03T08:34:31Z</time>
      </trkpt>
      <trkpt lat="43.130154" lon="-1.5551925">
        <time>2022-07-03T08:34:34Z</time>
      </trkpt>
      <trkpt lat="43.13019" lon="-1.5552734">
        <time>2022-07-03T08:34:37Z</time>
      </trkpt>
      <trkpt lat="43.130215" lon="-1.5553287">
        <time>2022-07-03T08:34:39Z</time>
      </trkpt>
      <trkpt lat="43.13024" lon="-1.5554137">
        <time>2022-07-03T08:34:42Z</time>
      </trkpt>
      <trkpt lat="43.130264" lon="-1.5554991">
        <time>2022-07-03T08:34:45Z</time>
      </trkpt>
      <trkpt lat="43.130295" lon="-1.5555865">
        <time>2022-07-03T08:34:48Z</time>
      </trkpt>
      <trkpt lat="43.13031" lon="-1.5556455">
        <time>2022-07-03T08:34:50Z</time>
      </trkpt>
      <trkpt lat="43.130333" lon="-1.5557348">
        <time>2022-07-03T08:34:53Z</time>
      </trkpt>
      <trkpt lat="43.13035" lon="-1.5557954">
        <time>2022-07-03T08:34:55Z</time>
      </trkpt>
      <trkpt lat="43.13037" lon="-1.5558827">
        <time>2022-07-03T08:34:58Z</time>
      </trkpt>
      <trkpt lat="43.130413" lon="-1.555953">
        <time>2022-07-03T08:35:01Z</time>
      </trkpt>
      <trkpt lat="43.130474" lon="-1.556004">
        <time>2022-07-03T08:35:04Z</time>
      </trkpt>
      <trkpt lat="43.130516" lon="-1.5560244">
        <time>2022-07-03T08:35:06Z</time>
      </trkpt>
      <trkpt lat="43.130577" lon="-1.5560358">
        <time>2022-07-03T08:35:09Z</time>
      </trkpt>
      <trkpt lat="43.13064" lon="-1.5560331">
        <time>2022-07-03T08:35:12Z</time>
      </trkpt>
      <trkpt lat="43.130703" lon="-1.556012">
        <time>2022-07-03T08:35:15Z</time>
      </trkpt>
      <trkpt lat="43.130764" lon="-1.5559957">
        <time>2022-07-03T08:35:18Z</time>
      </trkpt>
      <trkpt lat="43.130825" lon="-1.5559847">
        <time>2022-07-03T08:35:21Z</time>
      </trkpt>
      <trkpt lat="43.130875" lon="-1.5559717">
        <time>2022-07-03T08:35:24Z</time>
      </trkpt>
      <trkpt lat="43.13093" lon="-1.5559474">
        <time>2022-07-03T08:35:28Z</time>
      </trkpt>
      <trkpt lat="43.130985" lon="-1.5559168">
        <time>2022-07-03T08:35:31Z</time>
      </trkpt>
      <trkpt lat="43.13103" lon="-1.5558784">
        <time>2022-07-03T08:35:34Z</time>
      </trkpt>
      <trkpt lat="43.131077" lon="-1.5558261">
        <time>2022-07-03T08:35:37Z</time>
      </trkpt>
      <trkpt lat="43.131123" lon="-1.5557761">
        <time>2022-07-03T08:35:40Z</time>
      </trkpt>
      <trkpt lat="43.13116" lon="-1.5557175">
        <time>2022-07-03T08:35:43Z</time>
      </trkpt>
      <trkpt lat="43.13119" lon="-1.5556618">
        <time>2022-07-03T08:35:46Z</time>
      </trkpt>
      <trkpt lat="43.13122" lon="-1.5555931">
        <time>2022-07-03T08:35:50Z</time>
      </trkpt>
      <trkpt lat="43.13125" lon="-1.5555141">
        <time>2022-07-03T08:35:54Z</time>
      </trkpt>
      <trkpt lat="43.131275" lon="-1.5554358">
        <time>2022-07-03T08:35:58Z</time>
      </trkpt>
      <trkpt lat="43.1313" lon="-1.5553662">
        <time>2022-07-03T08:36:01Z</time>
      </trkpt>
      <trkpt lat="43.131313" lon="-1.5552984">
        <time>2022-07-03T08:36:04Z</time>
      </trkpt>
      <trkpt lat="43.13134" lon="-1.5552185">
        <time>2022-07-03T08:36:08Z</time>
      </trkpt>
      <trkpt lat="43.13136" lon="-1.5551541">
        <time>2022-07-03T08:36:11Z</time>
      </trkpt>
      <trkpt lat="43.131386" lon="-1.5550722">
        <time>2022-07-03T08:36:15Z</time>
      </trkpt>
      <trkpt lat="43.131413" lon="-1.5549961">
        <time>2022-07-03T08:36:19Z</time>
      </trkpt>
      <trkpt lat="43.131447" lon="-1.5549362">
        <time>2022-07-03T08:36:22Z</time>
      </trkpt>
      <trkpt lat="43.131485" lon="-1.5548755">
        <time>2022-07-03T08:36:25Z</time>
      </trkpt>
      <trkpt lat="43.13151" lon="-1.5548189">
        <time>2022-07-03T08:36:28Z</time>
      </trkpt>
      <trkpt lat="43.131527" lon="-1.5547454">
        <time>2022-07-03T08:36:32Z</time>
      </trkpt>
      <trkpt lat="43.13157" lon="-1.5546888">
        <time>2022-07-03T08:36:37Z</time>
      </trkpt>
      <trkpt lat="43.131634" lon="-1.5546472">
        <time>2022-07-03T08:36:42Z</time>
      </trkpt>
      <trkpt lat="43.13168" lon="-1.5546339">
        <time>2022-07-03T08:36:45Z</time>
      </trkpt>
      <trkpt lat="43.131744" lon="-1.5546435">
        <time>2022-07-03T08:36:49Z</time>
      </trkpt>
      <trkpt lat="43.1318" lon="-1.5546612">
        <time>2022-07-03T08:36:53Z</time>
      </trkpt>
      <trkpt lat="43.131863" lon="-1.5546715">
        <time>2022-07-03T08:36:57Z</time>
      </trkpt>
      <trkpt lat="43.13192" lon="-1.5546964">
        <time>2022-07-03T08:37:01Z</time>
      </trkpt>
      <trkpt lat="43.131977" lon="-1.5547185">
        <time>2022-07-03T08:37:05Z</time>
      </trkpt>
      <trkpt lat="43.132034" lon="-1.5547605">
        <time>2022-07-03T08:37:09Z</time>
      </trkpt>
      <trkpt lat="43.132088" lon="-1.5548042">
        <time>2022-07-03T08:37:13Z</time>
      </trkpt>
      <trkpt lat="43.132133" lon="-1.5548402">
        <time>2022-07-03T08:37:16Z</time>
      </trkpt>
      <trkpt lat="43.132175" lon="-1.5548842">
        <time>2022-07-03T08:37:19Z</time>
      </trkpt>
      <trkpt lat="43.132217" lon="-1.5549464">
        <time>2022-07-03T08:37:23Z</time>
      </trkpt>
      <trkpt lat="43.132244" lon="-1.5550205">
        <time>2022-07-03T08:37:26Z</time>
      </trkpt>
      <trkpt lat="43.13228" lon="-1.5550735">
        <time>2022-07-03T08:37:29Z</time>
      </trkpt>
      <trkpt lat="43.132324" lon="-1.5551205">
        <time>2022-07-03T08:37:32Z</time>
      </trkpt>
      <trkpt lat="43.132366" lon="-1.5551639">
        <time>2022-07-03T08:37:35Z</time>
      </trkpt>
      <trkpt lat="43.132404" lon="-1.5552112">
        <time>2022-07-03T08:37:38Z</time>
      </trkpt>
      <trkpt lat="43.13244" lon="-1.5552588">
        <time>2022-07-03T08:37:41Z</time>
      </trkpt>
      <trkpt lat="43.132484" lon="-1.5553191">
        <time>2022-07-03T08:37:45Z</time>
      </trkpt>
      <trkpt lat="43.13253" lon="-1.5553885">
        <time>2022-07-03T08:37:49Z</time>
      </trkpt>
      <trkpt lat="43.132565" lon="-1.5554398">
        <time>2022-07-03T08:37:52Z</time>
      </trkpt>
      <trkpt lat="43.1326" lon="-1.5554901">
        <time>2022-07-03T08:37:55Z</time>
      </trkpt>
      <trkpt lat="43.13264" lon="-1.5555588">
        <time>2022-07-03T08:37:59Z</time>
      </trkpt>
      <trkpt lat="43.13268" lon="-1.5556304">
        <time>2022-07-03T08:38:03Z</time>
      </trkpt>
      <trkpt lat="43.13271" lon="-1.5556858">
        <time>2022-07-03T08:38:06Z</time>
      </trkpt>
      <trkpt lat="43.13275" lon="-1.5557591">
        <time>2022-07-03T08:38:10Z</time>
      </trkpt>
      <trkpt lat="43.132786" lon="-1.5558088">
        <time>2022-07-03T08:38:13Z</time>
      </trkpt>
      <trkpt lat="43.132828" lon="-1.55586">
        <time>2022-07-03T08:38:16Z</time>
      </trkpt>
      <trkpt lat="43.13287" lon="-1.5559107">
        <time>2022-07-03T08:38:19Z</time>
      </trkpt>
      <trkpt lat="43.132908" lon="-1.555958">
        <time>2022-07-03T08:38:22Z</time>
      </trkpt>
      <trkpt lat="43.13295" lon="-1.5560107">
        <time>2022-07-03T08:38:25Z</time>
      </trkpt>
      <trkpt lat="43.132988" lon="-1.5560755">
        <time>2022-07-03T08:38:28Z</time>
      </trkpt>
      <trkpt lat="43.133034" lon="-1.556149">
        <time>2022-07-03T08:38:32Z</time>
      </trkpt>
      <trkpt lat="43.13307" lon="-1.5562037">
        <time>2022-07-03T08:38:35Z</time>
      </trkpt>
      <trkpt lat="43.133114" lon="-1.556259">
        <time>2022-07-03T08:38:38Z</time>
      </trkpt>
      <trkpt lat="43.13316" lon="-1.556303">
        <time>2022-07-03T08:38:41Z</time>
      </trkpt>
      <trkpt lat="43.133213" lon="-1.5563397">
        <time>2022-07-03T08:38:44Z</time>
      </trkpt>
      <trkpt lat="43.13326" lon="-1.5563763">
        <time>2022-07-03T08:38:47Z</time>
      </trkpt>
      <trkpt lat="43.13332" lon="-1.5564157">
        <time>2022-07-03T08:38:51Z</time>
      </trkpt>
      <trkpt lat="43.13336" lon="-1.556437">
        <time>2022-07-03T08:38:54Z</time>
      </trkpt>
      <trkpt lat="43.13343" lon="-1.556442">
        <time>2022-07-03T08:38:58Z</time>
      </trkpt>
      <trkpt lat="43.133484" lon="-1.55645">
        <time>2022-07-03T08:39:01Z</time>
      </trkpt>
      <trkpt lat="43.133533" lon="-1.5564641">
        <time>2022-07-03T08:39:04Z</time>
      </trkpt>
      <trkpt lat="43.13359" lon="-1.5564837">
        <time>2022-07-03T08:39:08Z</time>
      </trkpt>
      <trkpt lat="43.133636" lon="-1.5564986">
        <time>2022-07-03T08:39:11Z</time>
      </trkpt>
      <trkpt lat="43.133694" lon="-1.5565283">
        <time>2022-07-03T08:39:15Z</time>
      </trkpt>
      <trkpt lat="43.133743" lon="-1.5565617">
        <time>2022-07-03T08:39:19Z</time>
      </trkpt>
      <trkpt lat="43.133804" lon="-1.5565877">
        <time>2022-07-03T08:39:23Z</time>
      </trkpt>
      <trkpt lat="43.133877" lon="-1.5566003">
        <time>2022-07-03T08:39:27Z</time>
      </trkpt>
      <trkpt lat="43.13393" lon="-1.5566046">
        <time>2022-07-03T08:39:30Z</time>
      </trkpt>
      <trkpt lat="43.133984" lon="-1.5566137">
        <time>2022-07-03T08:39:33Z</time>
      </trkpt>
      <trkpt lat="43.134052" lon="-1.5566317">
        <time>2022-07-03T08:39:37Z</time>
      </trkpt>
      <trkpt lat="43.134117" lon="-1.5566463">
        <time>2022-07-03T08:39:41Z</time>
      </trkpt>
      <trkpt lat="43.134174" lon="-1.5566653">
        <time>2022-07-03T08:39:45Z</time>
      </trkpt>
      <trkpt lat="43.134235" lon="-1.5566959">
        <time>2022-07-03T08:39:49Z</time>
      </trkpt>
      <trkpt lat="43.13428" lon="-1.5567516">
        <time>2022-07-03T08:39:53Z</time>
      </trkpt>
      <trkpt lat="43.13433" lon="-1.5567876">
        <time>2022-07-03T08:39:57Z</time>
      </trkpt>
      <trkpt lat="43.134388" lon="-1.556823">
        <time>2022-07-03T08:40:01Z</time>
      </trkpt>
      <trkpt lat="43.134445" lon="-1.556849">
        <time>2022-07-03T08:40:05Z</time>
      </trkpt>
      <trkpt lat="43.134483" lon="-1.556887">
        <time>2022-07-03T08:40:09Z</time>
      </trkpt>
      <trkpt lat="43.134533" lon="-1.556946">
        <time>2022-07-03T08:40:13Z</time>
      </trkpt>
      <trkpt lat="43.134575" lon="-1.557009">
        <time>2022-07-03T08:40:17Z</time>
      </trkpt>
      <trkpt lat="43.134617" lon="-1.5570623">
        <time>2022-07-03T08:40:21Z</time>
      </trkpt>
      <trkpt lat="43.134678" lon="-1.5571079">
        <time>2022-07-03T08:40:25Z</time>
      </trkpt>
      <trkpt lat="43.134727" lon="-1.557147">
        <time>2022-07-03T08:40:28Z</time>
      </trkpt>
      <trkpt lat="43.13477" lon="-1.5571986">
        <time>2022-07-03T08:40:31Z</time>
      </trkpt>
      <trkpt lat="43.134804" lon="-1.5572566">
        <time>2022-07-03T08:40:34Z</time>
      </trkpt>
      <trkpt lat="43.134842" lon="-1.557316">
        <time>2022-07-03T08:40:37Z</time>
      </trkpt>
      <trkpt lat="43.134884" lon="-1.5573956">
        <time>2022-07-03T08:40:41Z</time>
      </trkpt>
      <trkpt lat="43.13491" lon="-1.5574636">
        <time>2022-07-03T08:40:44Z</time>
      </trkpt>
      <trkpt lat="43.13494" lon="-1.5575277">
        <time>2022-07-03T08:40:47Z</time>
      </trkpt>
      <trkpt lat="43.13496" lon="-1.5575906">
        <time>2022-07-03T08:40:50Z</time>
      </trkpt>
      <trkpt lat="43.134987" lon="-1.5576696">
        <time>2022-07-03T08:40:54Z</time>
      </trkpt>
      <trkpt lat="43.135" lon="-1.557742">
        <time>2022-07-03T08:40:58Z</time>
      </trkpt>
      <trkpt lat="43.135017" lon="-1.5578156">
        <time>2022-07-03T08:41:01Z</time>
      </trkpt>
      <trkpt lat="43.135036" lon="-1.5579042">
        <time>2022-07-03T08:41:04Z</time>
      </trkpt>
      <trkpt lat="43.135048" lon="-1.5580119">
        <time>2022-07-03T08:41:07Z</time>
      </trkpt>
      <trkpt lat="43.13505" lon="-1.55808">
        <time>2022-07-03T08:41:09Z</time>
      </trkpt>
      <trkpt lat="43.13506" lon="-1.558144">
        <time>2022-07-03T08:41:11Z</time>
      </trkpt>
      <trkpt lat="43.135067" lon="-1.5582383">
        <time>2022-07-03T08:41:14Z</time>
      </trkpt>
      <trkpt lat="43.135067" lon="-1.558304">
        <time>2022-07-03T08:41:16Z</time>
      </trkpt>
      <trkpt lat="43.135067" lon="-1.5583743">
        <time>2022-07-03T08:41:19Z</time>
      </trkpt>
      <trkpt lat="43.13505" lon="-1.5584522">
        <time>2022-07-03T08:41:22Z</time>
      </trkpt>
      <trkpt lat="43.13503" lon="-1.5585495">
        <time>2022-07-03T08:41:25Z</time>
      </trkpt>
      <trkpt lat="43.135006" lon="-1.5586146">
        <time>2022-07-03T08:41:27Z</time>
      </trkpt>
      <trkpt lat="43.134987" lon="-1.5586833">
        <time>2022-07-03T08:41:29Z</time>
      </trkpt>
      <trkpt lat="43.134968" lon="-1.5587542">
        <time>2022-07-03T08:41:31Z</time>
      </trkpt>
      <trkpt lat="43.13495" lon="-1.5588229">
        <time>2022-07-03T08:41:33Z</time>
      </trkpt>
      <trkpt lat="43.13493" lon="-1.5588849">
        <time>2022-07-03T08:41:35Z</time>
      </trkpt>
      <trkpt lat="43.134903" lon="-1.558973">
        <time>2022-07-03T08:41:38Z</time>
      </trkpt>
      <trkpt lat="43.134872" lon="-1.5590465">
        <time>2022-07-03T08:41:41Z</time>
      </trkpt>
      <trkpt lat="43.134846" lon="-1.5591242">
        <time>2022-07-03T08:41:44Z</time>
      </trkpt>
      <trkpt lat="43.13482" lon="-1.5592026">
        <time>2022-07-03T08:41:47Z</time>
      </trkpt>
      <trkpt lat="43.134785" lon="-1.5592788">
        <time>2022-07-03T08:41:50Z</time>
      </trkpt>
      <trkpt lat="43.134743" lon="-1.5593505">
        <time>2022-07-03T08:41:53Z</time>
      </trkpt>
      <trkpt lat="43.1347" lon="-1.5594208">
        <time>2022-07-03T08:41:56Z</time>
      </trkpt>
      <trkpt lat="43.134663" lon="-1.5594906">
        <time>2022-07-03T08:41:59Z</time>
      </trkpt>
      <trkpt lat="43.134624" lon="-1.5595568">
        <time>2022-07-03T08:42:02Z</time>
      </trkpt>
      <trkpt lat="43.13458" lon="-1.5596168">
        <time>2022-07-03T08:42:05Z</time>
      </trkpt>
      <trkpt lat="43.134533" lon="-1.5596786">
        <time>2022-07-03T08:42:08Z</time>
      </trkpt>
      <trkpt lat="43.13449" lon="-1.5597389">
        <time>2022-07-03T08:42:11Z</time>
      </trkpt>
      <trkpt lat="43.134445" lon="-1.5597999">
        <time>2022-07-03T08:42:14Z</time>
      </trkpt>
      <trkpt lat="43.1344" lon="-1.5598582">
        <time>2022-07-03T08:42:17Z</time>
      </trkpt>
      <trkpt lat="43.13435" lon="-1.5599155">
        <time>2022-07-03T08:42:20Z</time>
      </trkpt>
      <trkpt lat="43.134304" lon="-1.5599698">
        <time>2022-07-03T08:42:23Z</time>
      </trkpt>
      <trkpt lat="43.13426" lon="-1.5600275">
        <time>2022-07-03T08:42:26Z</time>
      </trkpt>
      <trkpt lat="43.134212" lon="-1.5600908">
        <time>2022-07-03T08:42:29Z</time>
      </trkpt>
      <trkpt lat="43.134174" lon="-1.5601611">
        <time>2022-07-03T08:42:32Z</time>
      </trkpt>
      <trkpt lat="43.13414" lon="-1.5602238">
        <time>2022-07-03T08:42:35Z</time>
      </trkpt>
      <trkpt lat="43.134098" lon="-1.5602735">
        <time>2022-07-03T08:42:38Z</time>
      </trkpt>
      <trkpt lat="43.13405" lon="-1.5603235">
        <time>2022-07-03T08:42:41Z</time>
      </trkpt>
      <trkpt lat="43.133995" lon="-1.5603685">
        <time>2022-07-03T08:42:44Z</time>
      </trkpt>
      <trkpt lat="43.133945" lon="-1.5604172">
        <time>2022-07-03T08:42:47Z</time>
      </trkpt>
      <trkpt lat="43.133896" lon="-1.5604801">
        <time>2022-07-03T08:42:50Z</time>
      </trkpt>
      <trkpt lat="43.133846" lon="-1.5605501">
        <time>2022-07-03T08:42:53Z</time>
      </trkpt>
      <trkpt lat="43.133793" lon="-1.5606115">
        <time>2022-07-03T08:42:56Z</time>
      </trkpt>
      <trkpt lat="43.13374" lon="-1.5606638">
        <time>2022-07-03T08:42:59Z</time>
      </trkpt>
      <trkpt lat="43.13368" lon="-1.5607084">
        <time>2022-07-03T08:43:02Z</time>
      </trkpt>
      <trkpt lat="43.133617" lon="-1.5607395">
        <time>2022-07-03T08:43:05Z</time>
      </trkpt>
      <trkpt lat="43.133553" lon="-1.5607635">
        <time>2022-07-03T08:43:08Z</time>
      </trkpt>
      <trkpt lat="43.13348" lon="-1.5607661">
        <time>2022-07-03T08:43:11Z</time>
      </trkpt>
      <trkpt lat="43.133434" lon="-1.5607588">
        <time>2022-07-03T08:43:13Z</time>
      </trkpt>
      <trkpt lat="43.133354" lon="-1.5607505">
        <time>2022-07-03T08:43:16Z</time>
      </trkpt>
      <trkpt lat="43.1333" lon="-1.5607455">
        <time>2022-07-03T08:43:18Z</time>
      </trkpt>
      <trkpt lat="43.13324" lon="-1.5607412">
        <time>2022-07-03T08:43:20Z</time>
      </trkpt>
      <trkpt lat="43.133167" lon="-1.5607262">
        <time>2022-07-03T08:43:22Z</time>
      </trkpt>
      <trkpt lat="43.133095" lon="-1.5607069">
        <time>2022-07-03T08:43:24Z</time>
      </trkpt>
      <trkpt lat="43.133022" lon="-1.5606885">
        <time>2022-07-03T08:43:26Z</time>
      </trkpt>
      <trkpt lat="43.13295" lon="-1.5606668">
        <time>2022-07-03T08:43:28Z</time>
      </trkpt>
      <trkpt lat="43.132874" lon="-1.5606458">
        <time>2022-07-03T08:43:30Z</time>
      </trkpt>
      <trkpt lat="43.132793" lon="-1.5606252">
        <time>2022-07-03T08:43:32Z</time>
      </trkpt>
      <trkpt lat="43.132717" lon="-1.5606048">
        <time>2022-07-03T08:43:34Z</time>
      </trkpt>
      <trkpt lat="43.132637" lon="-1.5605885">
        <time>2022-07-03T08:43:36Z</time>
      </trkpt>
      <trkpt lat="43.132565" lon="-1.5605708">
        <time>2022-07-03T08:43:38Z</time>
      </trkpt>
      <trkpt lat="43.1325" lon="-1.5605502">
        <time>2022-07-03T08:43:40Z</time>
      </trkpt>
      <trkpt lat="43.13243" lon="-1.5605278">
        <time>2022-07-03T08:43:42Z</time>
      </trkpt>
      <trkpt lat="43.132366" lon="-1.5605052">
        <time>2022-07-03T08:43:44Z</time>
      </trkpt>
      <trkpt lat="43.132298" lon="-1.5604836">
        <time>2022-07-03T08:43:46Z</time>
      </trkpt>
      <trkpt lat="43.132233" lon="-1.5604622">
        <time>2022-07-03T08:43:48Z</time>
      </trkpt>
      <trkpt lat="43.13214" lon="-1.5604205">
        <time>2022-07-03T08:43:51Z</time>
      </trkpt>
      <trkpt lat="43.13208" lon="-1.5603842">
        <time>2022-07-03T08:43:53Z</time>
      </trkpt>
      <trkpt lat="43.13202" lon="-1.5603409">
        <time>2022-07-03T08:43:55Z</time>
      </trkpt>
      <trkpt lat="43.131958" lon="-1.5602962">
        <time>2022-07-03T08:43:57Z</time>
      </trkpt>
      <trkpt lat="43.131905" lon="-1.5602472">
        <time>2022-07-03T08:43:59Z</time>
      </trkpt>
      <trkpt lat="43.131847" lon="-1.5601848">
        <time>2022-07-03T08:44:01Z</time>
      </trkpt>
      <trkpt lat="43.131786" lon="-1.5601115">
        <time>2022-07-03T08:44:03Z</time>
      </trkpt>
      <trkpt lat="43.13173" lon="-1.5600386">
        <time>2022-07-03T08:44:05Z</time>
      </trkpt>
      <trkpt lat="43.13167" lon="-1.5599589">
        <time>2022-07-03T08:44:07Z</time>
      </trkpt>
      <trkpt lat="43.131622" lon="-1.5598749">
        <time>2022-07-03T08:44:09Z</time>
      </trkpt>
      <trkpt lat="43.131565" lon="-1.5597886">
        <time>2022-07-03T08:44:11Z</time>
      </trkpt>
      <trkpt lat="43.131508" lon="-1.5596942">
        <time>2022-07-03T08:44:13Z</time>
      </trkpt>
      <trkpt lat="43.131447" lon="-1.5595943">
        <time>2022-07-03T08:44:15Z</time>
      </trkpt>
      <trkpt lat="43.131386" lon="-1.5594879">
        <time>2022-07-03T08:44:17Z</time>
      </trkpt>
      <trkpt lat="43.131325" lon="-1.559372">
        <time>2022-07-03T08:44:19Z</time>
      </trkpt>
      <trkpt lat="43.131294" lon="-1.5593096">
        <time>2022-07-03T08:44:20Z</time>
      </trkpt>
      <trkpt lat="43.13126" lon="-1.559246">
        <time>2022-07-03T08:44:21Z</time>
      </trkpt>
      <trkpt lat="43.13123" lon="-1.5591866">
        <time>2022-07-03T08:44:22Z</time>
      </trkpt>
      <trkpt lat="43.1312" lon="-1.5591276">
        <time>2022-07-03T08:44:23Z</time>
      </trkpt>
      <trkpt lat="43.131157" lon="-1.5590682">
        <time>2022-07-03T08:44:24Z</time>
      </trkpt>
      <trkpt lat="43.131115" lon="-1.5590175">
        <time>2022-07-03T08:44:25Z</time>
      </trkpt>
      <trkpt lat="43.13107" lon="-1.5589756">
        <time>2022-07-03T08:44:26Z</time>
      </trkpt>
      <trkpt lat="43.13102" lon="-1.5589483">
        <time>2022-07-03T08:44:27Z</time>
      </trkpt>
      <trkpt lat="43.13097" lon="-1.558934">
        <time>2022-07-03T08:44:28Z</time>
      </trkpt>
      <trkpt lat="43.13092" lon="-1.5589323">
        <time>2022-07-03T08:44:29Z</time>
      </trkpt>
      <trkpt lat="43.130833" lon="-1.5589542">
        <time>2022-07-03T08:44:31Z</time>
      </trkpt>
      <trkpt lat="43.130764" lon="-1.558988">
        <time>2022-07-03T08:44:33Z</time>
      </trkpt>
      <trkpt lat="43.130703" lon="-1.5590262">
        <time>2022-07-03T08:44:35Z</time>
      </trkpt>
      <trkpt lat="43.13065" lon="-1.5590619">
        <time>2022-07-03T08:44:37Z</time>
      </trkpt>
      <trkpt lat="43.1306" lon="-1.5590992">
        <time>2022-07-03T08:44:39Z</time>
      </trkpt>
      <trkpt lat="43.13055" lon="-1.5591296">
        <time>2022-07-03T08:44:41Z</time>
      </trkpt>
      <trkpt lat="43.130505" lon="-1.5591586">
        <time>2022-07-03T08:44:43Z</time>
      </trkpt>
      <trkpt lat="43.130444" lon="-1.5592109">
        <time>2022-07-03T08:44:46Z</time>
      </trkpt>
      <trkpt lat="43.130386" lon="-1.5592725">
        <time>2022-07-03T08:44:49Z</time>
      </trkpt>
      <trkpt lat="43.130318" lon="-1.5593612">
        <time>2022-07-03T08:44:53Z</time>
      </trkpt>
      <trkpt lat="43.130276" lon="-1.5594085">
        <time>2022-07-03T08:44:56Z</time>
      </trkpt>
      <trkpt lat="43.13023" lon="-1.5594538">
        <time>2022-07-03T08:44:59Z</time>
      </trkpt>
      <trkpt lat="43.130184" lon="-1.5595069">
        <time>2022-07-03T08:45:02Z</time>
      </trkpt>
      <trkpt lat="43.13014" lon="-1.5595585">
        <time>2022-07-03T08:45:05Z</time>
      </trkpt>
      <trkpt lat="43.130085" lon="-1.5596006">
        <time>2022-07-03T08:45:08Z</time>
      </trkpt>
      <trkpt lat="43.130024" lon="-1.5596379">
        <time>2022-07-03T08:45:11Z</time>
      </trkpt>
      <trkpt lat="43.12996" lon="-1.5596799">
        <time>2022-07-03T08:45:14Z</time>
      </trkpt>
      <trkpt lat="43.129898" lon="-1.5597259">
        <time>2022-07-03T08:45:17Z</time>
      </trkpt>
      <trkpt lat="43.129837" lon="-1.5597669">
        <time>2022-07-03T08:45:20Z</time>
      </trkpt>
      <trkpt lat="43.12978" lon="-1.5598049">
        <time>2022-07-03T08:45:23Z</time>
      </trkpt>
      <trkpt lat="43.129715" lon="-1.5598326">
        <time>2022-07-03T08:45:26Z</time>
      </trkpt>
      <trkpt lat="43.12965" lon="-1.5598506">
        <time>2022-07-03T08:45:29Z</time>
      </trkpt>
      <trkpt lat="43.129585" lon="-1.5598632">
        <time>2022-07-03T08:45:32Z</time>
      </trkpt>
      <trkpt lat="43.12952" lon="-1.5598786">
        <time>2022-07-03T08:45:35Z</time>
      </trkpt>
      <trkpt lat="43.12945" lon="-1.5598885">
        <time>2022-07-03T08:45:38Z</time>
      </trkpt>
      <trkpt lat="43.129402" lon="-1.5598905">
        <time>2022-07-03T08:45:40Z</time>
      </trkpt>
      <trkpt lat="43.129345" lon="-1.5598892">
        <time>2022-07-03T08:45:43Z</time>
      </trkpt>
      <trkpt lat="43.129288" lon="-1.5598918">
        <time>2022-07-03T08:45:46Z</time>
      </trkpt>
      <trkpt lat="43.12921" lon="-1.5598912">
        <time>2022-07-03T08:45:49Z</time>
      </trkpt>
      <trkpt lat="43.129147" lon="-1.5598866">
        <time>2022-07-03T08:45:52Z</time>
      </trkpt>
      <trkpt lat="43.129055" lon="-1.5598786">
        <time>2022-07-03T08:45:56Z</time>
      </trkpt>
      <trkpt lat="43.12899" lon="-1.5598675">
        <time>2022-07-03T08:45:59Z</time>
      </trkpt>
      <trkpt lat="43.128925" lon="-1.5598495">
        <time>2022-07-03T08:46:02Z</time>
      </trkpt>
      <trkpt lat="43.12886" lon="-1.5598246">
        <time>2022-07-03T08:46:05Z</time>
      </trkpt>
      <trkpt lat="43.128796" lon="-1.5598005">
        <time>2022-07-03T08:46:08Z</time>
      </trkpt>
      <trkpt lat="43.12873" lon="-1.5597742">
        <time>2022-07-03T08:46:11Z</time>
      </trkpt>
      <trkpt lat="43.12867" lon="-1.5597392">
        <time>2022-07-03T08:46:14Z</time>
      </trkpt>
      <trkpt lat="43.128613" lon="-1.5597049">
        <time>2022-07-03T08:46:17Z</time>
      </trkpt>
      <trkpt lat="43.128555" lon="-1.5596646">
        <time>2022-07-03T08:46:20Z</time>
      </trkpt>
      <trkpt lat="43.128498" lon="-1.5596203">
        <time>2022-07-03T08:46:23Z</time>
      </trkpt>
      <trkpt lat="43.12844" lon="-1.5595806">
        <time>2022-07-03T08:46:26Z</time>
      </trkpt>
      <trkpt lat="43.128384" lon="-1.5595388">
        <time>2022-07-03T08:46:29Z</time>
      </trkpt>
      <trkpt lat="43.12832" lon="-1.5595052">
        <time>2022-07-03T08:46:32Z</time>
      </trkpt>
      <trkpt lat="43.128258" lon="-1.5594752">
        <time>2022-07-03T08:46:35Z</time>
      </trkpt>
      <trkpt lat="43.128204" lon="-1.559439">
        <time>2022-07-03T08:46:38Z</time>
      </trkpt>
      <trkpt lat="43.12815" lon="-1.5594019">
        <time>2022-07-03T08:46:41Z</time>
      </trkpt>
      <trkpt lat="43.128094" lon="-1.5593653">
        <time>2022-07-03T08:46:44Z</time>
      </trkpt>
      <trkpt lat="43.128036" lon="-1.5593246">
        <time>2022-07-03T08:46:47Z</time>
      </trkpt>
      <trkpt lat="43.127975" lon="-1.5592883">
        <time>2022-07-03T08:46:50Z</time>
      </trkpt>
      <trkpt lat="43.127914" lon="-1.5592489">
        <time>2022-07-03T08:46:53Z</time>
      </trkpt>
      <trkpt lat="43.127857" lon="-1.5592096">
        <time>2022-07-03T08:46:56Z</time>
      </trkpt>
      <trkpt lat="43.12779" lon="-1.5591552">
        <time>2022-07-03T08:47:00Z</time>
      </trkpt>
      <trkpt lat="43.12773" lon="-1.5591106">
        <time>2022-07-03T08:47:03Z</time>
      </trkpt>
      <trkpt lat="43.127674" lon="-1.5590706">
        <time>2022-07-03T08:47:06Z</time>
      </trkpt>
      <trkpt lat="43.127617" lon="-1.5590329">
        <time>2022-07-03T08:47:09Z</time>
      </trkpt>
      <trkpt lat="43.12756" lon="-1.5589952">
        <time>2022-07-03T08:47:12Z</time>
      </trkpt>
      <trkpt lat="43.1275" lon="-1.5589637">
        <time>2022-07-03T08:47:15Z</time>
      </trkpt>
      <trkpt lat="43.127438" lon="-1.5589403">
        <time>2022-07-03T08:47:18Z</time>
      </trkpt>
      <trkpt lat="43.12738" lon="-1.5589327">
        <time>2022-07-03T08:47:21Z</time>
      </trkpt>
      <trkpt lat="43.12733" lon="-1.5589427">
        <time>2022-07-03T08:47:24Z</time>
      </trkpt>
      <trkpt lat="43.127274" lon="-1.5589724">
        <time>2022-07-03T08:47:28Z</time>
      </trkpt>
      <trkpt lat="43.12722" lon="-1.5590106">
        <time>2022-07-03T08:47:32Z</time>
      </trkpt>
      <trkpt lat="43.127174" lon="-1.5590473">
        <time>2022-07-03T08:47:36Z</time>
      </trkpt>
      <trkpt lat="43.127125" lon="-1.5590913">
        <time>2022-07-03T08:47:40Z</time>
      </trkpt>
      <trkpt lat="43.12708" lon="-1.5591416">
        <time>2022-07-03T08:47:44Z</time>
      </trkpt>
      <trkpt lat="43.12704" lon="-1.5591823">
        <time>2022-07-03T08:47:48Z</time>
      </trkpt>
      <trkpt lat="43.12699" lon="-1.5592263">
        <time>2022-07-03T08:47:53Z</time>
      </trkpt>
      <trkpt lat="43.126926" lon="-1.5592669">
        <time>2022-07-03T08:47:57Z</time>
      </trkpt>
      <trkpt lat="43.126873" lon="-1.5592976">
        <time>2022-07-03T08:48:00Z</time>
      </trkpt>
      <trkpt lat="43.1268" lon="-1.559338">
        <time>2022-07-03T08:48:04Z</time>
      </trkpt>
      <trkpt lat="43.126747" lon="-1.5593723">
        <time>2022-07-03T08:48:07Z</time>
      </trkpt>
      <trkpt lat="43.126686" lon="-1.5594009">
        <time>2022-07-03T08:48:10Z</time>
      </trkpt>
      <trkpt lat="43.12662" lon="-1.5594199">
        <time>2022-07-03T08:48:13Z</time>
      </trkpt>
      <trkpt lat="43.126556" lon="-1.5594373">
        <time>2022-07-03T08:48:16Z</time>
      </trkpt>
      <trkpt lat="43.12649" lon="-1.5594416">
        <time>2022-07-03T08:48:19Z</time>
      </trkpt>
      <trkpt lat="43.126446" lon="-1.5594395">
        <time>2022-07-03T08:48:21Z</time>
      </trkpt>
      <trkpt lat="43.126377" lon="-1.5594323">
        <time>2022-07-03T08:48:24Z</time>
      </trkpt>
      <trkpt lat="43.126312" lon="-1.5594193">
        <time>2022-07-03T08:48:27Z</time>
      </trkpt>
      <trkpt lat="43.12626" lon="-1.5593959">
        <time>2022-07-03T08:48:30Z</time>
      </trkpt>
      <trkpt lat="43.126213" lon="-1.5593733">
        <time>2022-07-03T08:48:33Z</time>
      </trkpt>
      <trkpt lat="43.126152" lon="-1.5593506">
        <time>2022-07-03T08:48:37Z</time>
      </trkpt>
      <trkpt lat="43.126095" lon="-1.5593235">
        <time>2022-07-03T08:48:41Z</time>
      </trkpt>
      <trkpt lat="43.12605" lon="-1.5593036">
        <time>2022-07-03T08:48:44Z</time>
      </trkpt>
      <trkpt lat="43.125984" lon="-1.5592645">
        <time>2022-07-03T08:48:48Z</time>
      </trkpt>
      <trkpt lat="43.125935" lon="-1.5592335">
        <time>2022-07-03T08:48:51Z</time>
      </trkpt>
      <trkpt lat="43.125885" lon="-1.5591979">
        <time>2022-07-03T08:48:54Z</time>
      </trkpt>
      <trkpt lat="43.125828" lon="-1.559148">
        <time>2022-07-03T08:48:58Z</time>
      </trkpt>
      <trkpt lat="43.125786" lon="-1.5590973">
        <time>2022-07-03T08:49:01Z</time>
      </trkpt>
      <trkpt lat="43.125736" lon="-1.5590576">
        <time>2022-07-03T08:49:04Z</time>
      </trkpt>
      <trkpt lat="43.12566" lon="-1.5590032">
        <time>2022-07-03T08:49:09Z</time>
      </trkpt>
      <trkpt lat="43.125618" lon="-1.558964">
        <time>2022-07-03T08:49:12Z</time>
      </trkpt>
      <trkpt lat="43.125576" lon="-1.5589203">
        <time>2022-07-03T08:49:15Z</time>
      </trkpt>
      <trkpt lat="43.125523" lon="-1.558861">
        <time>2022-07-03T08:49:19Z</time>
      </trkpt>
      <trkpt lat="43.125484" lon="-1.5588106">
        <time>2022-07-03T08:49:22Z</time>
      </trkpt>
      <trkpt lat="43.125446" lon="-1.5587547">
        <time>2022-07-03T08:49:25Z</time>
      </trkpt>
      <trkpt lat="43.12541" lon="-1.5586957">
        <time>2022-07-03T08:49:28Z</time>
      </trkpt>
      <trkpt lat="43.125374" lon="-1.558635">
        <time>2022-07-03T08:49:31Z</time>
      </trkpt>
      <trkpt lat="43.12534" lon="-1.5585669">
        <time>2022-07-03T08:49:34Z</time>
      </trkpt>
      <trkpt lat="43.125298" lon="-1.5585093">
        <time>2022-07-03T08:49:37Z</time>
      </trkpt>
      <trkpt lat="43.125267" lon="-1.5584427">
        <time>2022-07-03T08:49:40Z</time>
      </trkpt>
      <trkpt lat="43.125237" lon="-1.5583707">
        <time>2022-07-03T08:49:43Z</time>
      </trkpt>
      <trkpt lat="43.125202" lon="-1.55829">
        <time>2022-07-03T08:49:46Z</time>
      </trkpt>
      <trkpt lat="43.12518" lon="-1.5582323">
        <time>2022-07-03T08:49:48Z</time>
      </trkpt>
      <trkpt lat="43.125137" lon="-1.5581434">
        <time>2022-07-03T08:49:51Z</time>
      </trkpt>
      <trkpt lat="43.125103" lon="-1.5580913">
        <time>2022-07-03T08:49:53Z</time>
      </trkpt>
      <trkpt lat="43.125046" lon="-1.5580257">
        <time>2022-07-03T08:49:56Z</time>
      </trkpt>
      <trkpt lat="43.125" lon="-1.5579907">
        <time>2022-07-03T08:49:58Z</time>
      </trkpt>
      <trkpt lat="43.12495" lon="-1.557969">
        <time>2022-07-03T08:50:00Z</time>
      </trkpt>
      <trkpt lat="43.124897" lon="-1.5579584">
        <time>2022-07-03T08:50:02Z</time>
      </trkpt>
      <trkpt lat="43.124844" lon="-1.5579593">
        <time>2022-07-03T08:50:04Z</time>
      </trkpt>
      <trkpt lat="43.124767" lon="-1.5579807">
        <time>2022-07-03T08:50:07Z</time>
      </trkpt>
      <trkpt lat="43.12472" lon="-1.558004">
        <time>2022-07-03T08:50:09Z</time>
      </trkpt>
      <trkpt lat="43.124657" lon="-1.5580413">
        <time>2022-07-03T08:50:12Z</time>
      </trkpt>
      <trkpt lat="43.124603" lon="-1.558079">
        <time>2022-07-03T08:50:15Z</time>
      </trkpt>
      <trkpt lat="43.124546" lon="-1.5581183">
        <time>2022-07-03T08:50:18Z</time>
      </trkpt>
      <trkpt lat="43.124493" lon="-1.5581547">
        <time>2022-07-03T08:50:21Z</time>
      </trkpt>
      <trkpt lat="43.124435" lon="-1.558189">
        <time>2022-07-03T08:50:24Z</time>
      </trkpt>
      <trkpt lat="43.12438" lon="-1.5582206">
        <time>2022-07-03T08:50:27Z</time>
      </trkpt>
      <trkpt lat="43.124325" lon="-1.5582513">
        <time>2022-07-03T08:50:30Z</time>
      </trkpt>
      <trkpt lat="43.12427" lon="-1.5582833">
        <time>2022-07-03T08:50:33Z</time>
      </trkpt>
      <trkpt lat="43.124226" lon="-1.558313">
        <time>2022-07-03T08:50:36Z</time>
      </trkpt>
      <trkpt lat="43.124176" lon="-1.558341">
        <time>2022-07-03T08:50:39Z</time>
      </trkpt>
      <trkpt lat="43.124126" lon="-1.558375">
        <time>2022-07-03T08:50:43Z</time>
      </trkpt>
      <trkpt lat="43.124073" lon="-1.5584203">
        <time>2022-07-03T08:50:47Z</time>
      </trkpt>
      <trkpt lat="43.12402" lon="-1.558453">
        <time>2022-07-03T08:50:51Z</time>
      </trkpt>
      <trkpt lat="43.123962" lon="-1.558493">
        <time>2022-07-03T08:50:55Z</time>
      </trkpt>
      <trkpt lat="43.12391" lon="-1.5585253">
        <time>2022-07-03T08:50:59Z</time>
      </trkpt>
      <trkpt lat="43.123848" lon="-1.558566">
        <time>2022-07-03T08:51:03Z</time>
      </trkpt>
      <trkpt lat="43.123795" lon="-1.5586079">
        <time>2022-07-03T08:51:07Z</time>
      </trkpt>
      <trkpt lat="43.123745" lon="-1.5586402">
        <time>2022-07-03T08:51:11Z</time>
      </trkpt>
      <trkpt lat="43.12366" lon="-1.558659">
        <time>2022-07-03T08:51:16Z</time>
      </trkpt>
      <trkpt lat="43.123615" lon="-1.5586846">
        <time>2022-07-03T08:51:19Z</time>
      </trkpt>
      <trkpt lat="43.123558" lon="-1.5587189">
        <time>2022-07-03T08:51:23Z</time>
      </trkpt>
      <trkpt lat="43.123535" lon="-1.558762">
        <time>2022-07-03T08:51:27Z</time>
      </trkpt>
      <trkpt lat="43.12358" lon="-1.5586966">
        <time>2022-07-03T08:51:33Z</time>
      </trkpt>
      <trkpt lat="43.12356" lon="-1.5587013">
        <time>2022-07-03T08:54:18Z</time>
      </trkpt>
      <trkpt lat="43.1235" lon="-1.5587316">
        <time>2022-07-03T08:54:22Z</time>
      </trkpt>
      <trkpt lat="43.123447" lon="-1.5587592">
        <time>2022-07-03T08:54:25Z</time>
      </trkpt>
      <trkpt lat="43.123398" lon="-1.5587913">
        <time>2022-07-03T08:54:28Z</time>
      </trkpt>
      <trkpt lat="43.12334" lon="-1.5588279">
        <time>2022-07-03T08:54:32Z</time>
      </trkpt>
      <trkpt lat="43.12329" lon="-1.5588516">
        <time>2022-07-03T08:54:35Z</time>
      </trkpt>
      <trkpt lat="43.123226" lon="-1.5588835">
        <time>2022-07-03T08:54:39Z</time>
      </trkpt>
      <trkpt lat="43.123177" lon="-1.5589069">
        <time>2022-07-03T08:54:42Z</time>
      </trkpt>
      <trkpt lat="43.12313" lon="-1.5589299">
        <time>2022-07-03T08:54:45Z</time>
      </trkpt>
      <trkpt lat="43.12307" lon="-1.5589559">
        <time>2022-07-03T08:54:49Z</time>
      </trkpt>
      <trkpt lat="43.123005" lon="-1.5589823">
        <time>2022-07-03T08:54:53Z</time>
      </trkpt>
      <trkpt lat="43.122955" lon="-1.5590049">
        <time>2022-07-03T08:54:56Z</time>
      </trkpt>
      <trkpt lat="43.122902" lon="-1.559035">
        <time>2022-07-03T08:54:59Z</time>
      </trkpt>
      <trkpt lat="43.122856" lon="-1.5590649">
        <time>2022-07-03T08:55:02Z</time>
      </trkpt>
      <trkpt lat="43.122807" lon="-1.5591103">
        <time>2022-07-03T08:55:05Z</time>
      </trkpt>
      <trkpt lat="43.12276" lon="-1.5591532">
        <time>2022-07-03T08:55:08Z</time>
      </trkpt>
      <trkpt lat="43.12272" lon="-1.5592113">
        <time>2022-07-03T08:55:12Z</time>
      </trkpt>
      <trkpt lat="43.122673" lon="-1.5592705">
        <time>2022-07-03T08:55:16Z</time>
      </trkpt>
      <trkpt lat="43.122646" lon="-1.5593228">
        <time>2022-07-03T08:55:19Z</time>
      </trkpt>
      <trkpt lat="43.122612" lon="-1.5593972">
        <time>2022-07-03T08:55:23Z</time>
      </trkpt>
      <trkpt lat="43.122578" lon="-1.5594729">
        <time>2022-07-03T08:55:27Z</time>
      </trkpt>
      <trkpt lat="43.122543" lon="-1.5595492">
        <time>2022-07-03T08:55:31Z</time>
      </trkpt>
      <trkpt lat="43.122513" lon="-1.5596036">
        <time>2022-07-03T08:55:34Z</time>
      </trkpt>
      <trkpt lat="43.122475" lon="-1.5596756">
        <time>2022-07-03T08:55:38Z</time>
      </trkpt>
      <trkpt lat="43.122444" lon="-1.5597322">
        <time>2022-07-03T08:55:41Z</time>
      </trkpt>
      <trkpt lat="43.12241" lon="-1.5598046">
        <time>2022-07-03T08:55:45Z</time>
      </trkpt>
      <trkpt lat="43.122375" lon="-1.5598772">
        <time>2022-07-03T08:55:49Z</time>
      </trkpt>
      <trkpt lat="43.122337" lon="-1.5599356">
        <time>2022-07-03T08:55:52Z</time>
      </trkpt>
      <trkpt lat="43.122307" lon="-1.5599875">
        <time>2022-07-03T08:55:55Z</time>
      </trkpt>
      <trkpt lat="43.122272" lon="-1.5600638">
        <time>2022-07-03T08:55:59Z</time>
      </trkpt>
      <trkpt lat="43.122242" lon="-1.5601429">
        <time>2022-07-03T08:56:03Z</time>
      </trkpt>
      <trkpt lat="43.12221" lon="-1.5601965">
        <time>2022-07-03T08:56:06Z</time>
      </trkpt>
      <trkpt lat="43.122177" lon="-1.5602592">
        <time>2022-07-03T08:56:10Z</time>
      </trkpt>
      <trkpt lat="43.122143" lon="-1.5603235">
        <time>2022-07-03T08:56:14Z</time>
      </trkpt>
      <trkpt lat="43.122116" lon="-1.5604018">
        <time>2022-07-03T08:56:18Z</time>
      </trkpt>
      <trkpt lat="43.122097" lon="-1.5604645">
        <time>2022-07-03T08:56:21Z</time>
      </trkpt>
      <trkpt lat="43.122066" lon="-1.5605298">
        <time>2022-07-03T08:56:25Z</time>
      </trkpt>
      <trkpt lat="43.122025" lon="-1.5605972">
        <time>2022-07-03T08:56:30Z</time>
      </trkpt>
      <trkpt lat="43.12199" lon="-1.5606558">
        <time>2022-07-03T08:56:34Z</time>
      </trkpt>
      <trkpt lat="43.121964" lon="-1.5607108">
        <time>2022-07-03T08:56:38Z</time>
      </trkpt>
      <trkpt lat="43.121937" lon="-1.5607811">
        <time>2022-07-03T08:56:43Z</time>
      </trkpt>
      <trkpt lat="43.121906" lon="-1.5608425">
        <time>2022-07-03T08:56:47Z</time>
      </trkpt>
      <trkpt lat="43.121872" lon="-1.5609008">
        <time>2022-07-03T08:56:51Z</time>
      </trkpt>
      <trkpt lat="43.121838" lon="-1.5609624">
        <time>2022-07-03T08:56:55Z</time>
      </trkpt>
      <trkpt lat="43.121807" lon="-1.5610168">
        <time>2022-07-03T08:56:59Z</time>
      </trkpt>
      <trkpt lat="43.121773" lon="-1.5610718">
        <time>2022-07-03T08:57:03Z</time>
      </trkpt>
      <trkpt lat="43.12174" lon="-1.5611265">
        <time>2022-07-03T08:57:07Z</time>
      </trkpt>
      <trkpt lat="43.121696" lon="-1.5611918">
        <time>2022-07-03T08:57:12Z</time>
      </trkpt>
      <trkpt lat="43.121662" lon="-1.5612501">
        <time>2022-07-03T08:57:16Z</time>
      </trkpt>
      <trkpt lat="43.121628" lon="-1.5613128">
        <time>2022-07-03T08:57:20Z</time>
      </trkpt>
      <trkpt lat="43.12159" lon="-1.5613751">
        <time>2022-07-03T08:57:24Z</time>
      </trkpt>
      <trkpt lat="43.121548" lon="-1.5614227">
        <time>2022-07-03T08:57:28Z</time>
      </trkpt>
      <trkpt lat="43.121502" lon="-1.5614748">
        <time>2022-07-03T08:57:33Z</time>
      </trkpt>
      <trkpt lat="43.12145" lon="-1.5615238">
        <time>2022-07-03T08:57:38Z</time>
      </trkpt>
      <trkpt lat="43.1214" lon="-1.5615658">
        <time>2022-07-03T08:57:42Z</time>
      </trkpt>
      <trkpt lat="43.121357" lon="-1.5616094">
        <time>2022-07-03T08:57:46Z</time>
      </trkpt>
      <trkpt lat="43.121292" lon="-1.5617315">
        <time>2022-07-03T09:01:37Z</time>
      </trkpt>
      <trkpt lat="43.121353" lon="-1.561542">
        <time>2022-07-03T09:02:11Z</time>
      </trkpt>
      <trkpt lat="43.121407" lon="-1.5615071">
        <time>2022-07-03T09:02:13Z</time>
      </trkpt>
      <trkpt lat="43.121464" lon="-1.5614874">
        <time>2022-07-03T09:02:15Z</time>
      </trkpt>
      <trkpt lat="43.12153" lon="-1.5615014">
        <time>2022-07-03T09:02:17Z</time>
      </trkpt>
      <trkpt lat="43.12159" lon="-1.5615311">
        <time>2022-07-03T09:02:19Z</time>
      </trkpt>
      <trkpt lat="43.12164" lon="-1.5615554">
        <time>2022-07-03T09:02:21Z</time>
      </trkpt>
      <trkpt lat="43.121677" lon="-1.5615741">
        <time>2022-07-03T09:02:23Z</time>
      </trkpt>
      <trkpt lat="43.121727" lon="-1.5615997">
        <time>2022-07-03T09:02:26Z</time>
      </trkpt>
      <trkpt lat="43.121788" lon="-1.561596">
        <time>2022-07-03T09:02:30Z</time>
      </trkpt>
      <trkpt lat="43.121845" lon="-1.5615877">
        <time>2022-07-03T09:02:34Z</time>
      </trkpt>
      <trkpt lat="43.121906" lon="-1.5615541">
        <time>2022-07-03T09:02:39Z</time>
      </trkpt>
      <trkpt lat="43.12197" lon="-1.5615011">
        <time>2022-07-03T09:02:43Z</time>
      </trkpt>
      <trkpt lat="43.122025" lon="-1.5614628">
        <time>2022-07-03T09:02:46Z</time>
      </trkpt>
      <trkpt lat="43.122086" lon="-1.5614218">
        <time>2022-07-03T09:02:49Z</time>
      </trkpt>
      <trkpt lat="43.12214" lon="-1.5613811">
        <time>2022-07-03T09:02:52Z</time>
      </trkpt>
      <trkpt lat="43.122185" lon="-1.5613414">
        <time>2022-07-03T09:02:55Z</time>
      </trkpt>
      <trkpt lat="43.12223" lon="-1.5612941">
        <time>2022-07-03T09:02:58Z</time>
      </trkpt>
      <trkpt lat="43.122284" lon="-1.5612428">
        <time>2022-07-03T09:03:01Z</time>
      </trkpt>
      <trkpt lat="43.122337" lon="-1.5611924">
        <time>2022-07-03T09:03:04Z</time>
      </trkpt>
      <trkpt lat="43.122387" lon="-1.5611482">
        <time>2022-07-03T09:03:07Z</time>
      </trkpt>
      <trkpt lat="43.122444" lon="-1.5610955">
        <time>2022-07-03T09:03:10Z</time>
      </trkpt>
      <trkpt lat="43.122498" lon="-1.5610418">
        <time>2022-07-03T09:03:13Z</time>
      </trkpt>
      <trkpt lat="43.122547" lon="-1.5609818">
        <time>2022-07-03T09:03:16Z</time>
      </trkpt>
      <trkpt lat="43.122585" lon="-1.5609378">
        <time>2022-07-03T09:03:18Z</time>
      </trkpt>
      <trkpt lat="43.122643" lon="-1.5608735">
        <time>2022-07-03T09:03:21Z</time>
      </trkpt>
      <trkpt lat="43.12268" lon="-1.5608295">
        <time>2022-07-03T09:03:23Z</time>
      </trkpt>
      <trkpt lat="43.12274" lon="-1.5607644">
        <time>2022-07-03T09:03:26Z</time>
      </trkpt>
      <trkpt lat="43.12278" lon="-1.5607228">
        <time>2022-07-03T09:03:28Z</time>
      </trkpt>
      <trkpt lat="43.122837" lon="-1.5606618">
        <time>2022-07-03T09:03:31Z</time>
      </trkpt>
      <trkpt lat="43.122894" lon="-1.5606031">
        <time>2022-07-03T09:03:34Z</time>
      </trkpt>
      <trkpt lat="43.122955" lon="-1.5605534">
        <time>2022-07-03T09:03:37Z</time>
      </trkpt>
      <trkpt lat="43.123043" lon="-1.5604988">
        <time>2022-07-03T09:03:41Z</time>
      </trkpt>
      <trkpt lat="43.123116" lon="-1.5604708">
        <time>2022-07-03T09:03:44Z</time>
      </trkpt>
      <trkpt lat="43.123173" lon="-1.5604604">
        <time>2022-07-03T09:03:46Z</time>
      </trkpt>
      <trkpt lat="43.123222" lon="-1.5604522">
        <time>2022-07-03T09:03:48Z</time>
      </trkpt>
      <trkpt lat="43.123272" lon="-1.5604478">
        <time>2022-07-03T09:03:50Z</time>
      </trkpt>
      <trkpt lat="43.123344" lon="-1.5604455">
        <time>2022-07-03T09:03:53Z</time>
      </trkpt>
      <trkpt lat="43.123394" lon="-1.5604458">
        <time>2022-07-03T09:03:55Z</time>
      </trkpt>
      <trkpt lat="43.12347" lon="-1.5604558">
        <time>2022-07-03T09:03:58Z</time>
      </trkpt>
      <trkpt lat="43.123516" lon="-1.5604665">
        <time>2022-07-03T09:04:00Z</time>
      </trkpt>
      <trkpt lat="43.12358" lon="-1.5604799">
        <time>2022-07-03T09:04:03Z</time>
      </trkpt>
      <trkpt lat="43.123634" lon="-1.5604888">
        <time>2022-07-03T09:04:06Z</time>
      </trkpt>
      <trkpt lat="43.12367" lon="-1.5604419">
        <time>2022-07-03T09:04:19Z</time>
      </trkpt>
      <trkpt lat="43.123714" lon="-1.5605195">
        <time>2022-07-03T09:04:55Z</time>
      </trkpt>
      <trkpt lat="43.123764" lon="-1.5605632">
        <time>2022-07-03T09:04:58Z</time>
      </trkpt>
      <trkpt lat="43.12383" lon="-1.5606011">
        <time>2022-07-03T09:05:01Z</time>
      </trkpt>
      <trkpt lat="43.123875" lon="-1.5606282">
        <time>2022-07-03T09:05:03Z</time>
      </trkpt>
      <trkpt lat="43.12392" lon="-1.5606564">
        <time>2022-07-03T09:05:05Z</time>
      </trkpt>
      <trkpt lat="43.123993" lon="-1.5606945">
        <time>2022-07-03T09:05:08Z</time>
      </trkpt>
      <trkpt lat="43.124043" lon="-1.5607255">
        <time>2022-07-03T09:05:10Z</time>
      </trkpt>
      <trkpt lat="43.124092" lon="-1.5607594">
        <time>2022-07-03T09:05:12Z</time>
      </trkpt>
      <trkpt lat="43.124138" lon="-1.5608015">
        <time>2022-07-03T09:05:14Z</time>
      </trkpt>
      <trkpt lat="43.12418" lon="-1.5608531">
        <time>2022-07-03T09:05:16Z</time>
      </trkpt>
      <trkpt lat="43.124218" lon="-1.5609112">
        <time>2022-07-03T09:05:18Z</time>
      </trkpt>
      <trkpt lat="43.12426" lon="-1.5609818">
        <time>2022-07-03T09:05:21Z</time>
      </trkpt>
      <trkpt lat="43.1243" lon="-1.5610561">
        <time>2022-07-03T09:05:23Z</time>
      </trkpt>
      <trkpt lat="43.124317" lon="-1.5611328">
        <time>2022-07-03T09:05:25Z</time>
      </trkpt>
      <trkpt lat="43.124325" lon="-1.5612148">
        <time>2022-07-03T09:05:27Z</time>
      </trkpt>
      <trkpt lat="43.12432" lon="-1.5612978">
        <time>2022-07-03T09:05:29Z</time>
      </trkpt>
      <trkpt lat="43.124306" lon="-1.5613785">
        <time>2022-07-03T09:05:31Z</time>
      </trkpt>
      <trkpt lat="43.12428" lon="-1.5614557">
        <time>2022-07-03T09:05:33Z</time>
      </trkpt>
      <trkpt lat="43.12425" lon="-1.5615268">
        <time>2022-07-03T09:05:35Z</time>
      </trkpt>
      <trkpt lat="43.124214" lon="-1.5615882">
        <time>2022-07-03T09:05:37Z</time>
      </trkpt>
      <trkpt lat="43.124172" lon="-1.5616411">
        <time>2022-07-03T09:05:39Z</time>
      </trkpt>
      <trkpt lat="43.124134" lon="-1.5616921">
        <time>2022-07-03T09:05:41Z</time>
      </trkpt>
      <trkpt lat="43.124092" lon="-1.5617435">
        <time>2022-07-03T09:05:43Z</time>
      </trkpt>
      <trkpt lat="43.12405" lon="-1.5617955">
        <time>2022-07-03T09:05:45Z</time>
      </trkpt>
      <trkpt lat="43.124004" lon="-1.5618471">
        <time>2022-07-03T09:05:47Z</time>
      </trkpt>
      <trkpt lat="43.12396" lon="-1.5619011">
        <time>2022-07-03T09:05:49Z</time>
      </trkpt>
      <trkpt lat="43.123913" lon="-1.5619577">
        <time>2022-07-03T09:05:51Z</time>
      </trkpt>
      <trkpt lat="43.123867" lon="-1.562015">
        <time>2022-07-03T09:05:53Z</time>
      </trkpt>
      <trkpt lat="43.12382" lon="-1.562067">
        <time>2022-07-03T09:05:55Z</time>
      </trkpt>
      <trkpt lat="43.123783" lon="-1.5621145">
        <time>2022-07-03T09:05:57Z</time>
      </trkpt>
      <trkpt lat="43.123737" lon="-1.562165">
        <time>2022-07-03T09:05:59Z</time>
      </trkpt>
      <trkpt lat="43.12369" lon="-1.562216">
        <time>2022-07-03T09:06:01Z</time>
      </trkpt>
      <trkpt lat="43.123646" lon="-1.5622717">
        <time>2022-07-03T09:06:03Z</time>
      </trkpt>
      <trkpt lat="43.1236" lon="-1.5623261">
        <time>2022-07-03T09:06:05Z</time>
      </trkpt>
      <trkpt lat="43.123554" lon="-1.5623764">
        <time>2022-07-03T09:06:07Z</time>
      </trkpt>
      <trkpt lat="43.123512" lon="-1.5624267">
        <time>2022-07-03T09:06:09Z</time>
      </trkpt>
      <trkpt lat="43.123474" lon="-1.5624747">
        <time>2022-07-03T09:06:11Z</time>
      </trkpt>
      <trkpt lat="43.12342" lon="-1.562543">
        <time>2022-07-03T09:06:14Z</time>
      </trkpt>
      <trkpt lat="43.123367" lon="-1.5626097">
        <time>2022-07-03T09:06:17Z</time>
      </trkpt>
      <trkpt lat="43.123318" lon="-1.5626767">
        <time>2022-07-03T09:06:20Z</time>
      </trkpt>
      <trkpt lat="43.123283" lon="-1.5627217">
        <time>2022-07-03T09:06:22Z</time>
      </trkpt>
      <trkpt lat="43.123245" lon="-1.562788">
        <time>2022-07-03T09:06:25Z</time>
      </trkpt>
      <trkpt lat="43.123203" lon="-1.5628417">
        <time>2022-07-03T09:06:28Z</time>
      </trkpt>
      <trkpt lat="43.123165" lon="-1.562893">
        <time>2022-07-03T09:06:31Z</time>
      </trkpt>
      <trkpt lat="43.123123" lon="-1.562944">
        <time>2022-07-03T09:06:34Z</time>
      </trkpt>
      <trkpt lat="43.12308" lon="-1.5629953">
        <time>2022-07-03T09:06:37Z</time>
      </trkpt>
      <trkpt lat="43.12304" lon="-1.5630487">
        <time>2022-07-03T09:06:40Z</time>
      </trkpt>
      <trkpt lat="43.123" lon="-1.5630981">
        <time>2022-07-03T09:06:43Z</time>
      </trkpt>
      <trkpt lat="43.12296" lon="-1.563141">
        <time>2022-07-03T09:06:46Z</time>
      </trkpt>
      <trkpt lat="43.12292" lon="-1.5631814">
        <time>2022-07-03T09:06:49Z</time>
      </trkpt>
      <trkpt lat="43.122883" lon="-1.5632293">
        <time>2022-07-03T09:06:53Z</time>
      </trkpt>
      <trkpt lat="43.122818" lon="-1.5632817">
        <time>2022-07-03T09:07:06Z</time>
      </trkpt>
      <trkpt lat="43.12276" lon="-1.5633221">
        <time>2022-07-03T09:07:10Z</time>
      </trkpt>
      <trkpt lat="43.122704" lon="-1.563362">
        <time>2022-07-03T09:07:14Z</time>
      </trkpt>
      <trkpt lat="43.122658" lon="-1.5633833">
        <time>2022-07-03T09:07:17Z</time>
      </trkpt>
      <trkpt lat="43.122597" lon="-1.5634027">
        <time>2022-07-03T09:07:20Z</time>
      </trkpt>
      <trkpt lat="43.12254" lon="-1.5634184">
        <time>2022-07-03T09:07:23Z</time>
      </trkpt>
      <trkpt lat="43.122482" lon="-1.56343">
        <time>2022-07-03T09:07:26Z</time>
      </trkpt>
      <trkpt lat="43.122425" lon="-1.563441">
        <time>2022-07-03T09:07:29Z</time>
      </trkpt>
      <trkpt lat="43.122364" lon="-1.5634563">
        <time>2022-07-03T09:07:32Z</time>
      </trkpt>
      <trkpt lat="43.1223" lon="-1.5634767">
        <time>2022-07-03T09:07:35Z</time>
      </trkpt>
      <trkpt lat="43.12223" lon="-1.563492">
        <time>2022-07-03T09:07:38Z</time>
      </trkpt>
      <trkpt lat="43.12216" lon="-1.563503">
        <time>2022-07-03T09:07:41Z</time>
      </trkpt>
      <trkpt lat="43.122116" lon="-1.5635114">
        <time>2022-07-03T09:07:43Z</time>
      </trkpt>
      <trkpt lat="43.12204" lon="-1.5635237">
        <time>2022-07-03T09:07:46Z</time>
      </trkpt>
      <trkpt lat="43.12199" lon="-1.56353">
        <time>2022-07-03T09:07:48Z</time>
      </trkpt>
      <trkpt lat="43.12192" lon="-1.5635467">
        <time>2022-07-03T09:07:51Z</time>
      </trkpt>
      <trkpt lat="43.121853" lon="-1.5635633">
        <time>2022-07-03T09:07:54Z</time>
      </trkpt>
      <trkpt lat="43.121803" lon="-1.5635753">
        <time>2022-07-03T09:07:56Z</time>
      </trkpt>
      <trkpt lat="43.12174" lon="-1.563596">
        <time>2022-07-03T09:07:59Z</time>
      </trkpt>
      <trkpt lat="43.121674" lon="-1.563614">
        <time>2022-07-03T09:08:02Z</time>
      </trkpt>
      <trkpt lat="43.12161" lon="-1.56363">
        <time>2022-07-03T09:08:05Z</time>
      </trkpt>
      <trkpt lat="43.121544" lon="-1.5636497">
        <time>2022-07-03T09:08:08Z</time>
      </trkpt>
      <trkpt lat="43.121483" lon="-1.563669">
        <time>2022-07-03T09:08:11Z</time>
      </trkpt>
      <trkpt lat="43.12142" lon="-1.5636876">
        <time>2022-07-03T09:08:14Z</time>
      </trkpt>
      <trkpt lat="43.12136" lon="-1.5637072">
        <time>2022-07-03T09:08:17Z</time>
      </trkpt>
      <trkpt lat="43.121304" lon="-1.5637217">
        <time>2022-07-03T09:08:20Z</time>
      </trkpt>
      <trkpt lat="43.12125" lon="-1.5637382">
        <time>2022-07-03T09:08:23Z</time>
      </trkpt>
      <trkpt lat="43.121197" lon="-1.5637573">
        <time>2022-07-03T09:08:26Z</time>
      </trkpt>
      <trkpt lat="43.121143" lon="-1.5637726">
        <time>2022-07-03T09:08:29Z</time>
      </trkpt>
      <trkpt lat="43.12109" lon="-1.56379">
        <time>2022-07-03T09:08:32Z</time>
      </trkpt>
      <trkpt lat="43.121033" lon="-1.5638076">
        <time>2022-07-03T09:08:35Z</time>
      </trkpt>
      <trkpt lat="43.12098" lon="-1.5638269">
        <time>2022-07-03T09:08:38Z</time>
      </trkpt>
      <trkpt lat="43.120926" lon="-1.5638446">
        <time>2022-07-03T09:08:41Z</time>
      </trkpt>
      <trkpt lat="43.120872" lon="-1.5638633">
        <time>2022-07-03T09:08:44Z</time>
      </trkpt>
      <trkpt lat="43.12082" lon="-1.5638819">
        <time>2022-07-03T09:08:47Z</time>
      </trkpt>
      <trkpt lat="43.120766" lon="-1.5639036">
        <time>2022-07-03T09:08:50Z</time>
      </trkpt>
      <trkpt lat="43.120716" lon="-1.5639346">
        <time>2022-07-03T09:08:53Z</time>
      </trkpt>
      <trkpt lat="43.120667" lon="-1.5639662">
        <time>2022-07-03T09:08:56Z</time>
      </trkpt>
      <trkpt lat="43.120617" lon="-1.5639988">
        <time>2022-07-03T09:08:59Z</time>
      </trkpt>
      <trkpt lat="43.120567" lon="-1.5640239">
        <time>2022-07-03T09:09:02Z</time>
      </trkpt>
      <trkpt lat="43.120518" lon="-1.5640602">
        <time>2022-07-03T09:09:05Z</time>
      </trkpt>
      <trkpt lat="43.12047" lon="-1.5640959">
        <time>2022-07-03T09:09:08Z</time>
      </trkpt>
      <trkpt lat="43.120422" lon="-1.5641302">
        <time>2022-07-03T09:09:11Z</time>
      </trkpt>
      <trkpt lat="43.120365" lon="-1.5641725">
        <time>2022-07-03T09:09:15Z</time>
      </trkpt>
      <trkpt lat="43.12032" lon="-1.5642029">
        <time>2022-07-03T09:09:18Z</time>
      </trkpt>
      <trkpt lat="43.12027" lon="-1.5642362">
        <time>2022-07-03T09:09:21Z</time>
      </trkpt>
      <trkpt lat="43.12022" lon="-1.5642755">
        <time>2022-07-03T09:09:24Z</time>
      </trkpt>
      <trkpt lat="43.12017" lon="-1.5643085">
        <time>2022-07-03T09:09:27Z</time>
      </trkpt>
      <trkpt lat="43.120125" lon="-1.5643449">
        <time>2022-07-03T09:09:30Z</time>
      </trkpt>
      <trkpt lat="43.12007" lon="-1.5643839">
        <time>2022-07-03T09:09:33Z</time>
      </trkpt>
      <trkpt lat="43.120018" lon="-1.5644242">
        <time>2022-07-03T09:09:36Z</time>
      </trkpt>
      <trkpt lat="43.11997" lon="-1.5644705">
        <time>2022-07-03T09:09:39Z</time>
      </trkpt>
      <trkpt lat="43.119915" lon="-1.5645125">
        <time>2022-07-03T09:09:42Z</time>
      </trkpt>
      <trkpt lat="43.119865" lon="-1.5645545">
        <time>2022-07-03T09:09:45Z</time>
      </trkpt>
      <trkpt lat="43.119816" lon="-1.5646018">
        <time>2022-07-03T09:09:48Z</time>
      </trkpt>
      <trkpt lat="43.119774" lon="-1.5646511">
        <time>2022-07-03T09:09:51Z</time>
      </trkpt>
      <trkpt lat="43.11973" lon="-1.5647085">
        <time>2022-07-03T09:09:54Z</time>
      </trkpt>
      <trkpt lat="43.11969" lon="-1.5647621">
        <time>2022-07-03T09:09:57Z</time>
      </trkpt>
      <trkpt lat="43.119648" lon="-1.5648122">
        <time>2022-07-03T09:10:00Z</time>
      </trkpt>
      <trkpt lat="43.119595" lon="-1.5648731">
        <time>2022-07-03T09:10:04Z</time>
      </trkpt>
      <trkpt lat="43.11954" lon="-1.5649358">
        <time>2022-07-03T09:10:08Z</time>
      </trkpt>
      <trkpt lat="43.1195" lon="-1.5649824">
        <time>2022-07-03T09:10:11Z</time>
      </trkpt>
      <trkpt lat="43.119465" lon="-1.5650271">
        <time>2022-07-03T09:10:14Z</time>
      </trkpt>
      <trkpt lat="43.119415" lon="-1.5650781">
        <time>2022-07-03T09:10:18Z</time>
      </trkpt>
      <trkpt lat="43.119377" lon="-1.5651171">
        <time>2022-07-03T09:10:21Z</time>
      </trkpt>
      <trkpt lat="43.11933" lon="-1.5651845">
        <time>2022-07-03T09:10:25Z</time>
      </trkpt>
      <trkpt lat="43.119293" lon="-1.5652511">
        <time>2022-07-03T09:10:29Z</time>
      </trkpt>
      <trkpt lat="43.119247" lon="-1.5653081">
        <time>2022-07-03T09:10:33Z</time>
      </trkpt>
      <trkpt lat="43.1192" lon="-1.5653714">
        <time>2022-07-03T09:10:37Z</time>
      </trkpt>
      <trkpt lat="43.11916" lon="-1.5654354">
        <time>2022-07-03T09:10:41Z</time>
      </trkpt>
      <trkpt lat="43.119125" lon="-1.5654801">
        <time>2022-07-03T09:10:44Z</time>
      </trkpt>
      <trkpt lat="43.119076" lon="-1.5655367">
        <time>2022-07-03T09:10:48Z</time>
      </trkpt>
      <trkpt lat="43.119034" lon="-1.5655915">
        <time>2022-07-03T09:10:52Z</time>
      </trkpt>
      <trkpt lat="43.11899" lon="-1.5656534">
        <time>2022-07-03T09:10:56Z</time>
      </trkpt>
      <trkpt lat="43.118954" lon="-1.5657147">
        <time>2022-07-03T09:11:00Z</time>
      </trkpt>
      <trkpt lat="43.118923" lon="-1.5657631">
        <time>2022-07-03T09:11:03Z</time>
      </trkpt>
      <trkpt lat="43.118874" lon="-1.5658231">
        <time>2022-07-03T09:11:07Z</time>
      </trkpt>
      <trkpt lat="43.118824" lon="-1.5658811">
        <time>2022-07-03T09:11:11Z</time>
      </trkpt>
      <trkpt lat="43.11879" lon="-1.5659285">
        <time>2022-07-03T09:11:14Z</time>
      </trkpt>
      <trkpt lat="43.118744" lon="-1.5659894">
        <time>2022-07-03T09:11:18Z</time>
      </trkpt>
      <trkpt lat="43.1187" lon="-1.5660474">
        <time>2022-07-03T09:11:22Z</time>
      </trkpt>
      <trkpt lat="43.118645" lon="-1.5661135">
        <time>2022-07-03T09:11:26Z</time>
      </trkpt>
      <trkpt lat="43.118603" lon="-1.5661641">
        <time>2022-07-03T09:11:29Z</time>
      </trkpt>
      <trkpt lat="43.11856" lon="-1.5662144">
        <time>2022-07-03T09:11:32Z</time>
      </trkpt>
      <trkpt lat="43.11851" lon="-1.5662574">
        <time>2022-07-03T09:11:35Z</time>
      </trkpt>
      <trkpt lat="43.118458" lon="-1.5663011">
        <time>2022-07-03T09:11:38Z</time>
      </trkpt>
      <trkpt lat="43.118397" lon="-1.5663444">
        <time>2022-07-03T09:11:41Z</time>
      </trkpt>
      <trkpt lat="43.118343" lon="-1.5663724">
        <time>2022-07-03T09:11:43Z</time>
      </trkpt>
      <trkpt lat="43.118282" lon="-1.5664054">
        <time>2022-07-03T09:11:45Z</time>
      </trkpt>
      <trkpt lat="43.118214" lon="-1.5664454">
        <time>2022-07-03T09:11:47Z</time>
      </trkpt>
      <trkpt lat="43.118137" lon="-1.566491">
        <time>2022-07-03T09:11:49Z</time>
      </trkpt>
      <trkpt lat="43.118053" lon="-1.5665357">
        <time>2022-07-03T09:11:51Z</time>
      </trkpt>
      <trkpt lat="43.11797" lon="-1.5665777">
        <time>2022-07-03T09:11:53Z</time>
      </trkpt>
      <trkpt lat="43.117878" lon="-1.566627">
        <time>2022-07-03T09:11:55Z</time>
      </trkpt>
      <trkpt lat="43.117832" lon="-1.566653">
        <time>2022-07-03T09:11:56Z</time>
      </trkpt>
      <trkpt lat="43.117783" lon="-1.5666797">
        <time>2022-07-03T09:11:57Z</time>
      </trkpt>
      <trkpt lat="43.117676" lon="-1.5667334">
        <time>2022-07-03T09:11:59Z</time>
      </trkpt>
      <trkpt lat="43.117626" lon="-1.5667584">
        <time>2022-07-03T09:12:00Z</time>
      </trkpt>
      <trkpt lat="43.117573" lon="-1.5667853">
        <time>2022-07-03T09:12:01Z</time>
      </trkpt>
      <trkpt lat="43.117516" lon="-1.566817">
        <time>2022-07-03T09:12:02Z</time>
      </trkpt>
      <trkpt lat="43.117462" lon="-1.5668507">
        <time>2022-07-03T09:12:03Z</time>
      </trkpt>
      <trkpt lat="43.117405" lon="-1.5668857">
        <time>2022-07-03T09:12:04Z</time>
      </trkpt>
      <trkpt lat="43.117355" lon="-1.5669223">
        <time>2022-07-03T09:12:05Z</time>
      </trkpt>
      <trkpt lat="43.117302" lon="-1.566958">
        <time>2022-07-03T09:12:06Z</time>
      </trkpt>
      <trkpt lat="43.11725" lon="-1.5669956">
        <time>2022-07-03T09:12:07Z</time>
      </trkpt>
      <trkpt lat="43.117195" lon="-1.567039">
        <time>2022-07-03T09:12:08Z</time>
      </trkpt>
      <trkpt lat="43.11715" lon="-1.567091">
        <time>2022-07-03T09:12:09Z</time>
      </trkpt>
      <trkpt lat="43.11707" lon="-1.56722">
        <time>2022-07-03T09:12:11Z</time>
      </trkpt>
      <trkpt lat="43.117043" lon="-1.5672903">
        <time>2022-07-03T09:12:12Z</time>
      </trkpt>
      <trkpt lat="43.117023" lon="-1.5673556">
        <time>2022-07-03T09:12:13Z</time>
      </trkpt>
      <trkpt lat="43.117012" lon="-1.5674226">
        <time>2022-07-03T09:12:14Z</time>
      </trkpt>
      <trkpt lat="43.117" lon="-1.5675433">
        <time>2022-07-03T09:12:16Z</time>
      </trkpt>
      <trkpt lat="43.116993" lon="-1.5676496">
        <time>2022-07-03T09:12:18Z</time>
      </trkpt>
      <trkpt lat="43.116978" lon="-1.567747">
        <time>2022-07-03T09:12:20Z</time>
      </trkpt>
      <trkpt lat="43.11696" lon="-1.5678456">
        <time>2022-07-03T09:12:22Z</time>
      </trkpt>
      <trkpt lat="43.116932" lon="-1.567943">
        <time>2022-07-03T09:12:24Z</time>
      </trkpt>
      <trkpt lat="43.116898" lon="-1.5680456">
        <time>2022-07-03T09:12:26Z</time>
      </trkpt>
      <trkpt lat="43.116856" lon="-1.5681443">
        <time>2022-07-03T09:12:28Z</time>
      </trkpt>
      <trkpt lat="43.116806" lon="-1.5682433">
        <time>2022-07-03T09:12:30Z</time>
      </trkpt>
      <trkpt lat="43.116753" lon="-1.5683426">
        <time>2022-07-03T09:12:32Z</time>
      </trkpt>
      <trkpt lat="43.11669" lon="-1.568442">
        <time>2022-07-03T09:12:34Z</time>
      </trkpt>
      <trkpt lat="43.116657" lon="-1.568493">
        <time>2022-07-03T09:12:35Z</time>
      </trkpt>
      <trkpt lat="43.11659" lon="-1.5685956">
        <time>2022-07-03T09:12:37Z</time>
      </trkpt>
      <trkpt lat="43.11653" lon="-1.5686873">
        <time>2022-07-03T09:12:39Z</time>
      </trkpt>
      <trkpt lat="43.116486" lon="-1.568769">
        <time>2022-07-03T09:12:41Z</time>
      </trkpt>
      <trkpt lat="43.11646" lon="-1.5688362">
        <time>2022-07-03T09:12:43Z</time>
      </trkpt>
      <trkpt lat="43.116447" lon="-1.5688913">
        <time>2022-07-03T09:12:46Z</time>
      </trkpt>
      <trkpt lat="43.116386" lon="-1.5689303">
        <time>2022-07-03T09:13:26Z</time>
      </trkpt>
      <trkpt lat="43.116318" lon="-1.568996">
        <time>2022-07-03T09:13:29Z</time>
      </trkpt>
      <trkpt lat="43.116264" lon="-1.5690696">
        <time>2022-07-03T09:13:31Z</time>
      </trkpt>
      <trkpt lat="43.116207" lon="-1.5691552">
        <time>2022-07-03T09:13:33Z</time>
      </trkpt>
      <trkpt lat="43.116154" lon="-1.5692528">
        <time>2022-07-03T09:13:35Z</time>
      </trkpt>
      <trkpt lat="43.116093" lon="-1.5693623">
        <time>2022-07-03T09:13:37Z</time>
      </trkpt>
      <trkpt lat="43.116035" lon="-1.5694818">
        <time>2022-07-03T09:13:39Z</time>
      </trkpt>
      <trkpt lat="43.116" lon="-1.5695429">
        <time>2022-07-03T09:13:40Z</time>
      </trkpt>
      <trkpt lat="43.11597" lon="-1.5696049">
        <time>2022-07-03T09:13:41Z</time>
      </trkpt>
      <trkpt lat="43.115936" lon="-1.5696698">
        <time>2022-07-03T09:13:42Z</time>
      </trkpt>
      <trkpt lat="43.115902" lon="-1.5697352">
        <time>2022-07-03T09:13:43Z</time>
      </trkpt>
      <trkpt lat="43.115868" lon="-1.5698022">
        <time>2022-07-03T09:13:44Z</time>
      </trkpt>
      <trkpt lat="43.115833" lon="-1.5698702">
        <time>2022-07-03T09:13:45Z</time>
      </trkpt>
      <trkpt lat="43.115795" lon="-1.5699393">
        <time>2022-07-03T09:13:46Z</time>
      </trkpt>
      <trkpt lat="43.11576" lon="-1.5700089">
        <time>2022-07-03T09:13:47Z</time>
      </trkpt>
      <trkpt lat="43.11572" lon="-1.5700779">
        <time>2022-07-03T09:13:48Z</time>
      </trkpt>
      <trkpt lat="43.115677" lon="-1.5701455">
        <time>2022-07-03T09:13:49Z</time>
      </trkpt>
      <trkpt lat="43.11563" lon="-1.5702108">
        <time>2022-07-03T09:13:50Z</time>
      </trkpt>
      <trkpt lat="43.11558" lon="-1.5702735">
        <time>2022-07-03T09:13:51Z</time>
      </trkpt>
      <trkpt lat="43.115532" lon="-1.5703338">
        <time>2022-07-03T09:13:52Z</time>
      </trkpt>
      <trkpt lat="43.11548" lon="-1.5703915">
        <time>2022-07-03T09:13:53Z</time>
      </trkpt>
      <trkpt lat="43.115425" lon="-1.5704472">
        <time>2022-07-03T09:13:54Z</time>
      </trkpt>
      <trkpt lat="43.115364" lon="-1.5705059">
        <time>2022-07-03T09:13:55Z</time>
      </trkpt>
      <trkpt lat="43.115303" lon="-1.5705615">
        <time>2022-07-03T09:13:56Z</time>
      </trkpt>
      <trkpt lat="43.115242" lon="-1.5706148">
        <time>2022-07-03T09:13:57Z</time>
      </trkpt>
      <trkpt lat="43.115185" lon="-1.5706645">
        <time>2022-07-03T09:13:58Z</time>
      </trkpt>
      <trkpt lat="43.115128" lon="-1.5707152">
        <time>2022-07-03T09:13:59Z</time>
      </trkpt>
      <trkpt lat="43.115074" lon="-1.5707648">
        <time>2022-07-03T09:14:00Z</time>
      </trkpt>
      <trkpt lat="43.115017" lon="-1.5708128">
        <time>2022-07-03T09:14:01Z</time>
      </trkpt>
      <trkpt lat="43.11496" lon="-1.5708598">
        <time>2022-07-03T09:14:02Z</time>
      </trkpt>
      <trkpt lat="43.114906" lon="-1.5709054">
        <time>2022-07-03T09:14:03Z</time>
      </trkpt>
      <trkpt lat="43.11485" lon="-1.5709494">
        <time>2022-07-03T09:14:04Z</time>
      </trkpt>
      <trkpt lat="43.11479" lon="-1.5709915">
        <time>2022-07-03T09:14:05Z</time>
      </trkpt>
      <trkpt lat="43.11474" lon="-1.5710311">
        <time>2022-07-03T09:14:06Z</time>
      </trkpt>
      <trkpt lat="43.114685" lon="-1.5710678">
        <time>2022-07-03T09:14:07Z</time>
      </trkpt>
      <trkpt lat="43.114628" lon="-1.5711027">
        <time>2022-07-03T09:14:08Z</time>
      </trkpt>
      <trkpt lat="43.114574" lon="-1.5711361">
        <time>2022-07-03T09:14:09Z</time>
      </trkpt>
      <trkpt lat="43.11452" lon="-1.5711695">
        <time>2022-07-03T09:14:10Z</time>
      </trkpt>
      <trkpt lat="43.114468" lon="-1.5712038">
        <time>2022-07-03T09:14:11Z</time>
      </trkpt>
      <trkpt lat="43.114414" lon="-1.5712384">
        <time>2022-07-03T09:14:12Z</time>
      </trkpt>
      <trkpt lat="43.11436" lon="-1.5712721">
        <time>2022-07-03T09:14:13Z</time>
      </trkpt>
      <trkpt lat="43.11431" lon="-1.5713035">
        <time>2022-07-03T09:14:14Z</time>
      </trkpt>
      <trkpt lat="43.114212" lon="-1.5713634">
        <time>2022-07-03T09:14:16Z</time>
      </trkpt>
      <trkpt lat="43.114166" lon="-1.5713931">
        <time>2022-07-03T09:14:17Z</time>
      </trkpt>
      <trkpt lat="43.114117" lon="-1.5714225">
        <time>2022-07-03T09:14:18Z</time>
      </trkpt>
      <trkpt lat="43.114025" lon="-1.5714778">
        <time>2022-07-03T09:14:20Z</time>
      </trkpt>
      <trkpt lat="43.113934" lon="-1.5715268">
        <time>2022-07-03T09:14:22Z</time>
      </trkpt>
      <trkpt lat="43.113888" lon="-1.5715474">
        <time>2022-07-03T09:14:23Z</time>
      </trkpt>
      <trkpt lat="43.113792" lon="-1.5715804">
        <time>2022-07-03T09:14:25Z</time>
      </trkpt>
      <trkpt lat="43.113747" lon="-1.5715927">
        <time>2022-07-03T09:14:26Z</time>
      </trkpt>
      <trkpt lat="43.113647" lon="-1.571609">
        <time>2022-07-03T09:14:28Z</time>
      </trkpt>
      <trkpt lat="43.11355" lon="-1.5716157">
        <time>2022-07-03T09:14:30Z</time>
      </trkpt>
      <trkpt lat="43.11344" lon="-1.571616">
        <time>2022-07-03T09:14:32Z</time>
      </trkpt>
      <trkpt lat="43.11339" lon="-1.5716151">
        <time>2022-07-03T09:14:33Z</time>
      </trkpt>
      <trkpt lat="43.11334" lon="-1.5716131">
        <time>2022-07-03T09:14:34Z</time>
      </trkpt>
      <trkpt lat="43.11323" lon="-1.5716071">
        <time>2022-07-03T09:14:36Z</time>
      </trkpt>
      <trkpt lat="43.11318" lon="-1.5716017">
        <time>2022-07-03T09:14:37Z</time>
      </trkpt>
      <trkpt lat="43.11313" lon="-1.5715938">
        <time>2022-07-03T09:14:38Z</time>
      </trkpt>
      <trkpt lat="43.113075" lon="-1.5715824">
        <time>2022-07-03T09:14:39Z</time>
      </trkpt>
      <trkpt lat="43.11302" lon="-1.57157">
        <time>2022-07-03T09:14:40Z</time>
      </trkpt>
      <trkpt lat="43.112972" lon="-1.5715567">
        <time>2022-07-03T09:14:41Z</time>
      </trkpt>
      <trkpt lat="43.11287" lon="-1.5715301">
        <time>2022-07-03T09:14:43Z</time>
      </trkpt>
      <trkpt lat="43.11282" lon="-1.5715171">
        <time>2022-07-03T09:14:44Z</time>
      </trkpt>
      <trkpt lat="43.11277" lon="-1.5715054">
        <time>2022-07-03T09:14:45Z</time>
      </trkpt>
      <trkpt lat="43.11267" lon="-1.5714811">
        <time>2022-07-03T09:14:47Z</time>
      </trkpt>
      <trkpt lat="43.112617" lon="-1.5714685">
        <time>2022-07-03T09:14:48Z</time>
      </trkpt>
      <trkpt lat="43.11252" lon="-1.5714481">
        <time>2022-07-03T09:14:50Z</time>
      </trkpt>
      <trkpt lat="43.11246" lon="-1.5714418">
        <time>2022-07-03T09:14:51Z</time>
      </trkpt>
      <trkpt lat="43.112408" lon="-1.5714401">
        <time>2022-07-03T09:14:52Z</time>
      </trkpt>
      <trkpt lat="43.11231" lon="-1.5714488">
        <time>2022-07-03T09:14:54Z</time>
      </trkpt>
      <trkpt lat="43.112263" lon="-1.5714577">
        <time>2022-07-03T09:14:55Z</time>
      </trkpt>
      <trkpt lat="43.112167" lon="-1.5714874">
        <time>2022-07-03T09:14:57Z</time>
      </trkpt>
      <trkpt lat="43.112118" lon="-1.5715071">
        <time>2022-07-03T09:14:58Z</time>
      </trkpt>
      <trkpt lat="43.112026" lon="-1.5715511">
        <time>2022-07-03T09:15:00Z</time>
      </trkpt>
      <trkpt lat="43.111935" lon="-1.5715954">
        <time>2022-07-03T09:15:02Z</time>
      </trkpt>
      <trkpt lat="43.111847" lon="-1.5716401">
        <time>2022-07-03T09:15:04Z</time>
      </trkpt>
      <trkpt lat="43.111797" lon="-1.5716637">
        <time>2022-07-03T09:15:05Z</time>
      </trkpt>
      <trkpt lat="43.111706" lon="-1.571712">
        <time>2022-07-03T09:15:07Z</time>
      </trkpt>
      <trkpt lat="43.111618" lon="-1.5717577">
        <time>2022-07-03T09:15:09Z</time>
      </trkpt>
      <trkpt lat="43.111572" lon="-1.5717784">
        <time>2022-07-03T09:15:10Z</time>
      </trkpt>
      <trkpt lat="43.111485" lon="-1.5718117">
        <time>2022-07-03T09:15:12Z</time>
      </trkpt>
      <trkpt lat="43.111343" lon="-1.5718247">
        <time>2022-07-03T09:15:15Z</time>
      </trkpt>
      <trkpt lat="43.111294" lon="-1.5718174">
        <time>2022-07-03T09:15:16Z</time>
      </trkpt>
      <trkpt lat="43.111183" lon="-1.5717881">
        <time>2022-07-03T09:15:18Z</time>
      </trkpt>
      <trkpt lat="43.11113" lon="-1.5717694">
        <time>2022-07-03T09:15:19Z</time>
      </trkpt>
      <trkpt lat="43.111073" lon="-1.5717463">
        <time>2022-07-03T09:15:20Z</time>
      </trkpt>
      <trkpt lat="43.111015" lon="-1.5717204">
        <time>2022-07-03T09:15:21Z</time>
      </trkpt>
      <trkpt lat="43.110954" lon="-1.5716927">
        <time>2022-07-03T09:15:22Z</time>
      </trkpt>
      <trkpt lat="43.110893" lon="-1.5716645">
        <time>2022-07-03T09:15:23Z</time>
      </trkpt>
      <trkpt lat="43.110825" lon="-1.5716354">
        <time>2022-07-03T09:15:24Z</time>
      </trkpt>
      <trkpt lat="43.110764" lon="-1.5716094">
        <time>2022-07-03T09:15:25Z</time>
      </trkpt>
      <trkpt lat="43.110695" lon="-1.5715841">
        <time>2022-07-03T09:15:26Z</time>
      </trkpt>
      <trkpt lat="43.11063" lon="-1.57156">
        <time>2022-07-03T09:15:27Z</time>
      </trkpt>
      <trkpt lat="43.11056" lon="-1.571539">
        <time>2022-07-03T09:15:28Z</time>
      </trkpt>
      <trkpt lat="43.11049" lon="-1.5715201">
        <time>2022-07-03T09:15:29Z</time>
      </trkpt>
      <trkpt lat="43.11042" lon="-1.571506">
        <time>2022-07-03T09:15:30Z</time>
      </trkpt>
      <trkpt lat="43.110355" lon="-1.5714958">
        <time>2022-07-03T09:15:31Z</time>
      </trkpt>
      <trkpt lat="43.11029" lon="-1.5714897">
        <time>2022-07-03T09:15:32Z</time>
      </trkpt>
      <trkpt lat="43.11022" lon="-1.5714908">
        <time>2022-07-03T09:15:33Z</time>
      </trkpt>
      <trkpt lat="43.11016" lon="-1.5714958">
        <time>2022-07-03T09:15:34Z</time>
      </trkpt>
      <trkpt lat="43.1101" lon="-1.5715067">
        <time>2022-07-03T09:15:35Z</time>
      </trkpt>
      <trkpt lat="43.11004" lon="-1.5715218">
        <time>2022-07-03T09:15:36Z</time>
      </trkpt>
      <trkpt lat="43.109978" lon="-1.5715411">
        <time>2022-07-03T09:15:37Z</time>
      </trkpt>
      <trkpt lat="43.10992" lon="-1.57156">
        <time>2022-07-03T09:15:38Z</time>
      </trkpt>
      <trkpt lat="43.109867" lon="-1.5715791">
        <time>2022-07-03T09:15:39Z</time>
      </trkpt>
      <trkpt lat="43.109814" lon="-1.5715971">
        <time>2022-07-03T09:15:40Z</time>
      </trkpt>
      <trkpt lat="43.10976" lon="-1.5716147">
        <time>2022-07-03T09:15:41Z</time>
      </trkpt>
      <trkpt lat="43.10971" lon="-1.5716331">
        <time>2022-07-03T09:15:42Z</time>
      </trkpt>
      <trkpt lat="43.109657" lon="-1.5716528">
        <time>2022-07-03T09:15:43Z</time>
      </trkpt>
      <trkpt lat="43.109608" lon="-1.5716741">
        <time>2022-07-03T09:15:44Z</time>
      </trkpt>
      <trkpt lat="43.109554" lon="-1.5716981">
        <time>2022-07-03T09:15:45Z</time>
      </trkpt>
      <trkpt lat="43.1095" lon="-1.5717264">
        <time>2022-07-03T09:15:46Z</time>
      </trkpt>
      <trkpt lat="43.109455" lon="-1.5717591">
        <time>2022-07-03T09:15:47Z</time>
      </trkpt>
      <trkpt lat="43.10941" lon="-1.5717961">
        <time>2022-07-03T09:15:48Z</time>
      </trkpt>
      <trkpt lat="43.10937" lon="-1.5718371">
        <time>2022-07-03T09:15:49Z</time>
      </trkpt>
      <trkpt lat="43.10931" lon="-1.571936">
        <time>2022-07-03T09:15:51Z</time>
      </trkpt>
      <trkpt lat="43.109276" lon="-1.5720607">
        <time>2022-07-03T09:15:53Z</time>
      </trkpt>
      <trkpt lat="43.109276" lon="-1.5721267">
        <time>2022-07-03T09:15:54Z</time>
      </trkpt>
      <trkpt lat="43.109295" lon="-1.57225">
        <time>2022-07-03T09:15:56Z</time>
      </trkpt>
      <trkpt lat="43.109344" lon="-1.5723567">
        <time>2022-07-03T09:15:58Z</time>
      </trkpt>
      <trkpt lat="43.1094" lon="-1.5724443">
        <time>2022-07-03T09:16:00Z</time>
      </trkpt>
      <trkpt lat="43.109467" lon="-1.5725183">
        <time>2022-07-03T09:16:02Z</time>
      </trkpt>
      <trkpt lat="43.109535" lon="-1.5725781">
        <time>2022-07-03T09:16:04Z</time>
      </trkpt>
      <trkpt lat="43.109604" lon="-1.572616">
        <time>2022-07-03T09:16:06Z</time>
      </trkpt>
      <trkpt lat="43.10968" lon="-1.5726503">
        <time>2022-07-03T09:16:08Z</time>
      </trkpt>
      <trkpt lat="43.10974" lon="-1.572689">
        <time>2022-07-03T09:16:10Z</time>
      </trkpt>
      <trkpt lat="43.109806" lon="-1.5727336">
        <time>2022-07-03T09:16:12Z</time>
      </trkpt>
      <trkpt lat="43.109867" lon="-1.5727847">
        <time>2022-07-03T09:16:14Z</time>
      </trkpt>
      <trkpt lat="43.109962" lon="-1.5728546">
        <time>2022-07-03T09:16:17Z</time>
      </trkpt>
      <trkpt lat="43.11004" lon="-1.5728936">
        <time>2022-07-03T09:16:19Z</time>
      </trkpt>
      <trkpt lat="43.11011" lon="-1.5729327">
        <time>2022-07-03T09:16:21Z</time>
      </trkpt>
      <trkpt lat="43.110188" lon="-1.572976">
        <time>2022-07-03T09:16:23Z</time>
      </trkpt>
      <trkpt lat="43.110264" lon="-1.5730144">
        <time>2022-07-03T09:16:25Z</time>
      </trkpt>
      <trkpt lat="43.11034" lon="-1.573042">
        <time>2022-07-03T09:16:27Z</time>
      </trkpt>
      <trkpt lat="43.110424" lon="-1.573058">
        <time>2022-07-03T09:16:29Z</time>
      </trkpt>
      <trkpt lat="43.110504" lon="-1.5730749">
        <time>2022-07-03T09:16:31Z</time>
      </trkpt>
      <trkpt lat="43.11058" lon="-1.573091">
        <time>2022-07-03T09:16:33Z</time>
      </trkpt>
      <trkpt lat="43.110653" lon="-1.5731046">
        <time>2022-07-03T09:16:35Z</time>
      </trkpt>
      <trkpt lat="43.11072" lon="-1.573123">
        <time>2022-07-03T09:16:37Z</time>
      </trkpt>
      <trkpt lat="43.11079" lon="-1.5731493">
        <time>2022-07-03T09:16:39Z</time>
      </trkpt>
      <trkpt lat="43.110855" lon="-1.5731857">
        <time>2022-07-03T09:16:41Z</time>
      </trkpt>
      <trkpt lat="43.11092" lon="-1.5732236">
        <time>2022-07-03T09:16:43Z</time>
      </trkpt>
      <trkpt lat="43.11098" lon="-1.5732629">
        <time>2022-07-03T09:16:45Z</time>
      </trkpt>
      <trkpt lat="43.111042" lon="-1.57331">
        <time>2022-07-03T09:16:47Z</time>
      </trkpt>
      <trkpt lat="43.1111" lon="-1.5733603">
        <time>2022-07-03T09:16:49Z</time>
      </trkpt>
      <trkpt lat="43.111156" lon="-1.573419">
        <time>2022-07-03T09:16:51Z</time>
      </trkpt>
      <trkpt lat="43.111214" lon="-1.5734756">
        <time>2022-07-03T09:16:53Z</time>
      </trkpt>
      <trkpt lat="43.111267" lon="-1.5735337">
        <time>2022-07-03T09:16:55Z</time>
      </trkpt>
      <trkpt lat="43.11132" lon="-1.573594">
        <time>2022-07-03T09:16:57Z</time>
      </trkpt>
      <trkpt lat="43.111374" lon="-1.573661">
        <time>2022-07-03T09:16:59Z</time>
      </trkpt>
      <trkpt lat="43.111427" lon="-1.5737313">
        <time>2022-07-03T09:17:01Z</time>
      </trkpt>
      <trkpt lat="43.111477" lon="-1.5738072">
        <time>2022-07-03T09:17:03Z</time>
      </trkpt>
      <trkpt lat="43.111526" lon="-1.5738863">
        <time>2022-07-03T09:17:05Z</time>
      </trkpt>
      <trkpt lat="43.111576" lon="-1.5739689">
        <time>2022-07-03T09:17:07Z</time>
      </trkpt>
      <trkpt lat="43.111618" lon="-1.5740546">
        <time>2022-07-03T09:17:09Z</time>
      </trkpt>
      <trkpt lat="43.111664" lon="-1.5741433">
        <time>2022-07-03T09:17:11Z</time>
      </trkpt>
      <trkpt lat="43.111702" lon="-1.5742366">
        <time>2022-07-03T09:17:13Z</time>
      </trkpt>
      <trkpt lat="43.11174" lon="-1.5743293">
        <time>2022-07-03T09:17:15Z</time>
      </trkpt>
      <trkpt lat="43.111782" lon="-1.5744213">
        <time>2022-07-03T09:17:17Z</time>
      </trkpt>
      <trkpt lat="43.111816" lon="-1.5745245">
        <time>2022-07-03T09:17:19Z</time>
      </trkpt>
      <trkpt lat="43.11186" lon="-1.5746253">
        <time>2022-07-03T09:17:21Z</time>
      </trkpt>
      <trkpt lat="43.111904" lon="-1.5747169">
        <time>2022-07-03T09:17:23Z</time>
      </trkpt>
      <trkpt lat="43.11194" lon="-1.5748062">
        <time>2022-07-03T09:17:25Z</time>
      </trkpt>
      <trkpt lat="43.111977" lon="-1.5748979">
        <time>2022-07-03T09:17:27Z</time>
      </trkpt>
      <trkpt lat="43.11201" lon="-1.5749872">
        <time>2022-07-03T09:17:29Z</time>
      </trkpt>
      <trkpt lat="43.112045" lon="-1.5750705">
        <time>2022-07-03T09:17:31Z</time>
      </trkpt>
      <trkpt lat="43.11208" lon="-1.5751462">
        <time>2022-07-03T09:17:33Z</time>
      </trkpt>
      <trkpt lat="43.112114" lon="-1.5752162">
        <time>2022-07-03T09:17:35Z</time>
      </trkpt>
      <trkpt lat="43.11215" lon="-1.5752815">
        <time>2022-07-03T09:17:37Z</time>
      </trkpt>
      <trkpt lat="43.11218" lon="-1.5753433">
        <time>2022-07-03T09:17:39Z</time>
      </trkpt>
      <trkpt lat="43.112206" lon="-1.5754015">
        <time>2022-07-03T09:17:41Z</time>
      </trkpt>
      <trkpt lat="43.112247" lon="-1.5754812">
        <time>2022-07-03T09:17:44Z</time>
      </trkpt>
      <trkpt lat="43.11228" lon="-1.5755556">
        <time>2022-07-03T09:17:47Z</time>
      </trkpt>
      <trkpt lat="43.112316" lon="-1.5756289">
        <time>2022-07-03T09:17:50Z</time>
      </trkpt>
      <trkpt lat="43.112347" lon="-1.5756948">
        <time>2022-07-03T09:17:53Z</time>
      </trkpt>
      <trkpt lat="43.112377" lon="-1.5757649">
        <time>2022-07-03T09:17:56Z</time>
      </trkpt>
      <trkpt lat="43.11241" lon="-1.5758338">
        <time>2022-07-03T09:17:59Z</time>
      </trkpt>
      <trkpt lat="43.112446" lon="-1.5759041">
        <time>2022-07-03T09:18:02Z</time>
      </trkpt>
      <trkpt lat="43.112473" lon="-1.5759755">
        <time>2022-07-03T09:18:05Z</time>
      </trkpt>
      <trkpt lat="43.112503" lon="-1.5760465">
        <time>2022-07-03T09:18:08Z</time>
      </trkpt>
      <trkpt lat="43.11253" lon="-1.5761198">
        <time>2022-07-03T09:18:11Z</time>
      </trkpt>
      <trkpt lat="43.112556" lon="-1.5761852">
        <time>2022-07-03T09:18:14Z</time>
      </trkpt>
      <trkpt lat="43.112583" lon="-1.5762565">
        <time>2022-07-03T09:18:17Z</time>
      </trkpt>
      <trkpt lat="43.112602" lon="-1.5763335">
        <time>2022-07-03T09:18:20Z</time>
      </trkpt>
      <trkpt lat="43.112617" lon="-1.5764098">
        <time>2022-07-03T09:18:23Z</time>
      </trkpt>
      <trkpt lat="43.112625" lon="-1.5764838">
        <time>2022-07-03T09:18:26Z</time>
      </trkpt>
      <trkpt lat="43.112625" lon="-1.5765675">
        <time>2022-07-03T09:18:29Z</time>
      </trkpt>
      <trkpt lat="43.11262" lon="-1.5766525">
        <time>2022-07-03T09:18:32Z</time>
      </trkpt>
      <trkpt lat="43.112606" lon="-1.5767442">
        <time>2022-07-03T09:18:35Z</time>
      </trkpt>
      <trkpt lat="43.112587" lon="-1.5768498">
        <time>2022-07-03T09:18:38Z</time>
      </trkpt>
      <trkpt lat="43.11257" lon="-1.5769222">
        <time>2022-07-03T09:18:40Z</time>
      </trkpt>
      <trkpt lat="43.112556" lon="-1.5769961">
        <time>2022-07-03T09:18:42Z</time>
      </trkpt>
      <trkpt lat="43.11254" lon="-1.5770698">
        <time>2022-07-03T09:18:44Z</time>
      </trkpt>
      <trkpt lat="43.11253" lon="-1.5771391">
        <time>2022-07-03T09:18:46Z</time>
      </trkpt>
      <trkpt lat="43.112514" lon="-1.5772091">
        <time>2022-07-03T09:18:48Z</time>
      </trkpt>
      <trkpt lat="43.112495" lon="-1.5773108">
        <time>2022-07-03T09:18:51Z</time>
      </trkpt>
      <trkpt lat="43.11248" lon="-1.5773811">
        <time>2022-07-03T09:18:53Z</time>
      </trkpt>
      <trkpt lat="43.11247" lon="-1.5774524">
        <time>2022-07-03T09:18:55Z</time>
      </trkpt>
      <trkpt lat="43.112453" lon="-1.5775257">
        <time>2022-07-03T09:18:57Z</time>
      </trkpt>
      <trkpt lat="43.112442" lon="-1.5775961">
        <time>2022-07-03T09:18:59Z</time>
      </trkpt>
      <trkpt lat="43.11243" lon="-1.5776638">
        <time>2022-07-03T09:19:01Z</time>
      </trkpt>
      <trkpt lat="43.11242" lon="-1.5777284">
        <time>2022-07-03T09:19:03Z</time>
      </trkpt>
      <trkpt lat="43.112392" lon="-1.5778271">
        <time>2022-07-03T09:19:06Z</time>
      </trkpt>
      <trkpt lat="43.112373" lon="-1.5778967">
        <time>2022-07-03T09:19:08Z</time>
      </trkpt>
      <trkpt lat="43.11235" lon="-1.57797">
        <time>2022-07-03T09:19:10Z</time>
      </trkpt>
      <trkpt lat="43.112328" lon="-1.5780454">
        <time>2022-07-03T09:19:12Z</time>
      </trkpt>
      <trkpt lat="43.112297" lon="-1.5781235">
        <time>2022-07-03T09:19:14Z</time>
      </trkpt>
      <trkpt lat="43.112267" lon="-1.5782061">
        <time>2022-07-03T09:19:16Z</time>
      </trkpt>
      <trkpt lat="43.112236" lon="-1.5782957">
        <time>2022-07-03T09:19:18Z</time>
      </trkpt>
      <trkpt lat="43.112198" lon="-1.5783898">
        <time>2022-07-03T09:19:20Z</time>
      </trkpt>
      <trkpt lat="43.112152" lon="-1.5784878">
        <time>2022-07-03T09:19:22Z</time>
      </trkpt>
      <trkpt lat="43.112106" lon="-1.5786004">
        <time>2022-07-03T09:19:24Z</time>
      </trkpt>
      <trkpt lat="43.112034" lon="-1.5788103">
        <time>2022-07-03T09:19:27Z</time>
      </trkpt>
      <trkpt lat="43.112007" lon="-1.5788847">
        <time>2022-07-03T09:19:28Z</time>
      </trkpt>
      <trkpt lat="43.11198" lon="-1.5789614">
        <time>2022-07-03T09:19:29Z</time>
      </trkpt>
      <trkpt lat="43.111954" lon="-1.5790397">
        <time>2022-07-03T09:19:30Z</time>
      </trkpt>
      <trkpt lat="43.111927" lon="-1.5791193">
        <time>2022-07-03T09:19:31Z</time>
      </trkpt>
      <trkpt lat="43.111897" lon="-1.5791993">
        <time>2022-07-03T09:19:32Z</time>
      </trkpt>
      <trkpt lat="43.111866" lon="-1.5792817">
        <time>2022-07-03T09:19:33Z</time>
      </trkpt>
      <trkpt lat="43.111835" lon="-1.5793667">
        <time>2022-07-03T09:19:34Z</time>
      </trkpt>
      <trkpt lat="43.1118" lon="-1.5794547">
        <time>2022-07-03T09:19:35Z</time>
      </trkpt>
      <trkpt lat="43.111763" lon="-1.5795463">
        <time>2022-07-03T09:19:36Z</time>
      </trkpt>
      <trkpt lat="43.111725" lon="-1.57964">
        <time>2022-07-03T09:19:37Z</time>
      </trkpt>
      <trkpt lat="43.11169" lon="-1.5797343">
        <time>2022-07-03T09:19:38Z</time>
      </trkpt>
      <trkpt lat="43.111656" lon="-1.579827">
        <time>2022-07-03T09:19:39Z</time>
      </trkpt>
      <trkpt lat="43.11162" lon="-1.5799236">
        <time>2022-07-03T09:19:40Z</time>
      </trkpt>
      <trkpt lat="43.111584" lon="-1.5800123">
        <time>2022-07-03T09:19:41Z</time>
      </trkpt>
      <trkpt lat="43.111546" lon="-1.5801064">
        <time>2022-07-03T09:19:42Z</time>
      </trkpt>
      <trkpt lat="43.111504" lon="-1.5801973">
        <time>2022-07-03T09:19:43Z</time>
      </trkpt>
      <trkpt lat="43.111465" lon="-1.5802797">
        <time>2022-07-03T09:19:44Z</time>
      </trkpt>
      <trkpt lat="43.111423" lon="-1.580362">
        <time>2022-07-03T09:19:45Z</time>
      </trkpt>
      <trkpt lat="43.11138" lon="-1.5804433">
        <time>2022-07-03T09:19:46Z</time>
      </trkpt>
      <trkpt lat="43.111336" lon="-1.5805249">
        <time>2022-07-03T09:19:47Z</time>
      </trkpt>
      <trkpt lat="43.111286" lon="-1.580604">
        <time>2022-07-03T09:19:48Z</time>
      </trkpt>
      <trkpt lat="43.111237" lon="-1.5806793">
        <time>2022-07-03T09:19:49Z</time>
      </trkpt>
      <trkpt lat="43.111187" lon="-1.580753">
        <time>2022-07-03T09:19:50Z</time>
      </trkpt>
      <trkpt lat="43.11113" lon="-1.5808303">
        <time>2022-07-03T09:19:51Z</time>
      </trkpt>
      <trkpt lat="43.111076" lon="-1.5808994">
        <time>2022-07-03T09:19:52Z</time>
      </trkpt>
      <trkpt lat="43.11101" lon="-1.580969">
        <time>2022-07-03T09:19:53Z</time>
      </trkpt>
      <trkpt lat="43.110954" lon="-1.5810286">
        <time>2022-07-03T09:19:54Z</time>
      </trkpt>
      <trkpt lat="43.11089" lon="-1.58108">
        <time>2022-07-03T09:19:55Z</time>
      </trkpt>
      <trkpt lat="43.110817" lon="-1.5811199">
        <time>2022-07-03T09:19:56Z</time>
      </trkpt>
      <trkpt lat="43.110744" lon="-1.5811476">
        <time>2022-07-03T09:19:57Z</time>
      </trkpt>
      <trkpt lat="43.110664" lon="-1.5811636">
        <time>2022-07-03T09:19:58Z</time>
      </trkpt>
      <trkpt lat="43.110584" lon="-1.5811713">
        <time>2022-07-03T09:19:59Z</time>
      </trkpt>
      <trkpt lat="43.110497" lon="-1.5811722">
        <time>2022-07-03T09:20:00Z</time>
      </trkpt>
      <trkpt lat="43.110413" lon="-1.5811689">
        <time>2022-07-03T09:20:01Z</time>
      </trkpt>
      <trkpt lat="43.11032" lon="-1.5811623">
        <time>2022-07-03T09:20:02Z</time>
      </trkpt>
      <trkpt lat="43.11023" lon="-1.5811507">
        <time>2022-07-03T09:20:03Z</time>
      </trkpt>
      <trkpt lat="43.110138" lon="-1.5811349">
        <time>2022-07-03T09:20:04Z</time>
      </trkpt>
      <trkpt lat="43.110043" lon="-1.581118">
        <time>2022-07-03T09:20:05Z</time>
      </trkpt>
      <trkpt lat="43.109947" lon="-1.5811026">
        <time>2022-07-03T09:20:06Z</time>
      </trkpt>
      <trkpt lat="43.109848" lon="-1.5810887">
        <time>2022-07-03T09:20:07Z</time>
      </trkpt>
      <trkpt lat="43.109753" lon="-1.5810757">
        <time>2022-07-03T09:20:08Z</time>
      </trkpt>
      <trkpt lat="43.109653" lon="-1.5810636">
        <time>2022-07-03T09:20:09Z</time>
      </trkpt>
      <trkpt lat="43.10956" lon="-1.5810499">
        <time>2022-07-03T09:20:10Z</time>
      </trkpt>
      <trkpt lat="43.10946" lon="-1.581035">
        <time>2022-07-03T09:20:11Z</time>
      </trkpt>
      <trkpt lat="43.109364" lon="-1.5810187">
        <time>2022-07-03T09:20:12Z</time>
      </trkpt>
      <trkpt lat="43.109272" lon="-1.581004">
        <time>2022-07-03T09:20:13Z</time>
      </trkpt>
      <trkpt lat="43.109177" lon="-1.5809896">
        <time>2022-07-03T09:20:14Z</time>
      </trkpt>
      <trkpt lat="43.109085" lon="-1.5809747">
        <time>2022-07-03T09:20:15Z</time>
      </trkpt>
      <trkpt lat="43.108997" lon="-1.5809597">
        <time>2022-07-03T09:20:16Z</time>
      </trkpt>
      <trkpt lat="43.108906" lon="-1.5809456">
        <time>2022-07-03T09:20:17Z</time>
      </trkpt>
      <trkpt lat="43.108814" lon="-1.580932">
        <time>2022-07-03T09:20:18Z</time>
      </trkpt>
      <trkpt lat="43.108727" lon="-1.580914">
        <time>2022-07-03T09:20:19Z</time>
      </trkpt>
      <trkpt lat="43.10864" lon="-1.5808883">
        <time>2022-07-03T09:20:20Z</time>
      </trkpt>
      <trkpt lat="43.10855" lon="-1.580855">
        <time>2022-07-03T09:20:21Z</time>
      </trkpt>
      <trkpt lat="43.10846" lon="-1.580811">
        <time>2022-07-03T09:20:22Z</time>
      </trkpt>
      <trkpt lat="43.108368" lon="-1.5807643">
        <time>2022-07-03T09:20:23Z</time>
      </trkpt>
      <trkpt lat="43.108284" lon="-1.580721">
        <time>2022-07-03T09:20:24Z</time>
      </trkpt>
      <trkpt lat="43.1082" lon="-1.580681">
        <time>2022-07-03T09:20:25Z</time>
      </trkpt>
      <trkpt lat="43.108116" lon="-1.5806507">
        <time>2022-07-03T09:20:26Z</time>
      </trkpt>
      <trkpt lat="43.108032" lon="-1.580638">
        <time>2022-07-03T09:20:27Z</time>
      </trkpt>
      <trkpt lat="43.107944" lon="-1.5806527">
        <time>2022-07-03T09:20:28Z</time>
      </trkpt>
      <trkpt lat="43.107807" lon="-1.5807557">
        <time>2022-07-03T09:20:30Z</time>
      </trkpt>
      <trkpt lat="43.107765" lon="-1.5808403">
        <time>2022-07-03T09:20:31Z</time>
      </trkpt>
      <trkpt lat="43.10774" lon="-1.58093">
        <time>2022-07-03T09:20:32Z</time>
      </trkpt>
      <trkpt lat="43.107723" lon="-1.5810287">
        <time>2022-07-03T09:20:33Z</time>
      </trkpt>
      <trkpt lat="43.10772" lon="-1.581133">
        <time>2022-07-03T09:20:34Z</time>
      </trkpt>
      <trkpt lat="43.10772" lon="-1.581249">
        <time>2022-07-03T09:20:35Z</time>
      </trkpt>
      <trkpt lat="43.10772" lon="-1.5813576">
        <time>2022-07-03T09:20:36Z</time>
      </trkpt>
      <trkpt lat="43.10772" lon="-1.5814717">
        <time>2022-07-03T09:20:37Z</time>
      </trkpt>
      <trkpt lat="43.10771" lon="-1.5815786">
        <time>2022-07-03T09:20:38Z</time>
      </trkpt>
      <trkpt lat="43.107697" lon="-1.581677">
        <time>2022-07-03T09:20:39Z</time>
      </trkpt>
      <trkpt lat="43.107666" lon="-1.5817616">
        <time>2022-07-03T09:20:40Z</time>
      </trkpt>
      <trkpt lat="43.10763" lon="-1.581828">
        <time>2022-07-03T09:20:41Z</time>
      </trkpt>
      <trkpt lat="43.107586" lon="-1.5818803">
        <time>2022-07-03T09:20:42Z</time>
      </trkpt>
      <trkpt lat="43.107525" lon="-1.5819223">
        <time>2022-07-03T09:20:43Z</time>
      </trkpt>
      <trkpt lat="43.10746" lon="-1.5819513">
        <time>2022-07-03T09:20:44Z</time>
      </trkpt>
      <trkpt lat="43.107395" lon="-1.5819713">
        <time>2022-07-03T09:20:45Z</time>
      </trkpt>
      <trkpt lat="43.107323" lon="-1.5819839">
        <time>2022-07-03T09:20:46Z</time>
      </trkpt>
      <trkpt lat="43.107243" lon="-1.581991">
        <time>2022-07-03T09:20:47Z</time>
      </trkpt>
      <trkpt lat="43.107162" lon="-1.5819926">
        <time>2022-07-03T09:20:48Z</time>
      </trkpt>
      <trkpt lat="43.107082" lon="-1.581993">
        <time>2022-07-03T09:20:49Z</time>
      </trkpt>
      <trkpt lat="43.107006" lon="-1.5819932">
        <time>2022-07-03T09:20:50Z</time>
      </trkpt>
      <trkpt lat="43.10693" lon="-1.5819949">
        <time>2022-07-03T09:20:51Z</time>
      </trkpt>
      <trkpt lat="43.106842" lon="-1.5820006">
        <time>2022-07-03T09:20:52Z</time>
      </trkpt>
      <trkpt lat="43.10676" lon="-1.5820159">
        <time>2022-07-03T09:20:53Z</time>
      </trkpt>
      <trkpt lat="43.106674" lon="-1.582042">
        <time>2022-07-03T09:20:54Z</time>
      </trkpt>
      <trkpt lat="43.106598" lon="-1.5820776">
        <time>2022-07-03T09:20:55Z</time>
      </trkpt>
      <trkpt lat="43.106525" lon="-1.5821259">
        <time>2022-07-03T09:20:56Z</time>
      </trkpt>
      <trkpt lat="43.10646" lon="-1.5821892">
        <time>2022-07-03T09:20:57Z</time>
      </trkpt>
      <trkpt lat="43.106415" lon="-1.5822706">
        <time>2022-07-03T09:20:58Z</time>
      </trkpt>
      <trkpt lat="43.10639" lon="-1.5823573">
        <time>2022-07-03T09:20:59Z</time>
      </trkpt>
      <trkpt lat="43.10639" lon="-1.5824462">
        <time>2022-07-03T09:21:00Z</time>
      </trkpt>
      <trkpt lat="43.106407" lon="-1.5825329">
        <time>2022-07-03T09:21:01Z</time>
      </trkpt>
      <trkpt lat="43.106438" lon="-1.5826179">
        <time>2022-07-03T09:21:02Z</time>
      </trkpt>
      <trkpt lat="43.106472" lon="-1.5826916">
        <time>2022-07-03T09:21:03Z</time>
      </trkpt>
      <trkpt lat="43.106514" lon="-1.5827626">
        <time>2022-07-03T09:21:04Z</time>
      </trkpt>
      <trkpt lat="43.10656" lon="-1.582825">
        <time>2022-07-03T09:21:05Z</time>
      </trkpt>
      <trkpt lat="43.1066" lon="-1.5828838">
        <time>2022-07-03T09:21:06Z</time>
      </trkpt>
      <trkpt lat="43.106644" lon="-1.5829409">
        <time>2022-07-03T09:21:07Z</time>
      </trkpt>
      <trkpt lat="43.10668" lon="-1.5830009">
        <time>2022-07-03T09:21:08Z</time>
      </trkpt>
      <trkpt lat="43.106716" lon="-1.5830575">
        <time>2022-07-03T09:21:09Z</time>
      </trkpt>
      <trkpt lat="43.106747" lon="-1.5831143">
        <time>2022-07-03T09:21:10Z</time>
      </trkpt>
      <trkpt lat="43.106808" lon="-1.5832303">
        <time>2022-07-03T09:21:12Z</time>
      </trkpt>
      <trkpt lat="43.106834" lon="-1.5832893">
        <time>2022-07-03T09:21:13Z</time>
      </trkpt>
      <trkpt lat="43.106853" lon="-1.5833515">
        <time>2022-07-03T09:21:14Z</time>
      </trkpt>
      <trkpt lat="43.106888" lon="-1.5834832">
        <time>2022-07-03T09:21:16Z</time>
      </trkpt>
      <trkpt lat="43.10692" lon="-1.5836219">
        <time>2022-07-03T09:21:18Z</time>
      </trkpt>
      <trkpt lat="43.106937" lon="-1.5836896">
        <time>2022-07-03T09:21:19Z</time>
      </trkpt>
      <trkpt lat="43.106964" lon="-1.5837575">
        <time>2022-07-03T09:21:20Z</time>
      </trkpt>
      <trkpt lat="43.10699" lon="-1.5838165">
        <time>2022-07-03T09:21:21Z</time>
      </trkpt>
      <trkpt lat="43.107025" lon="-1.5838761">
        <time>2022-07-03T09:21:22Z</time>
      </trkpt>
      <trkpt lat="43.10706" lon="-1.5839312">
        <time>2022-07-03T09:21:23Z</time>
      </trkpt>
      <trkpt lat="43.107094" lon="-1.5839856">
        <time>2022-07-03T09:21:24Z</time>
      </trkpt>
      <trkpt lat="43.107136" lon="-1.5840385">
        <time>2022-07-03T09:21:25Z</time>
      </trkpt>
      <trkpt lat="43.10718" lon="-1.5840882">
        <time>2022-07-03T09:21:26Z</time>
      </trkpt>
      <trkpt lat="43.10723" lon="-1.5841355">
        <time>2022-07-03T09:21:27Z</time>
      </trkpt>
      <trkpt lat="43.107285" lon="-1.5841784">
        <time>2022-07-03T09:21:28Z</time>
      </trkpt>
      <trkpt lat="43.10734" lon="-1.5842209">
        <time>2022-07-03T09:21:29Z</time>
      </trkpt>
      <trkpt lat="43.107395" lon="-1.5842599">
        <time>2022-07-03T09:21:30Z</time>
      </trkpt>
      <trkpt lat="43.107452" lon="-1.5843028">
        <time>2022-07-03T09:21:31Z</time>
      </trkpt>
      <trkpt lat="43.10756" lon="-1.5843985">
        <time>2022-07-03T09:21:33Z</time>
      </trkpt>
      <trkpt lat="43.10761" lon="-1.5844555">
        <time>2022-07-03T09:21:34Z</time>
      </trkpt>
      <trkpt lat="43.10765" lon="-1.5845255">
        <time>2022-07-03T09:21:35Z</time>
      </trkpt>
      <trkpt lat="43.107685" lon="-1.5845948">
        <time>2022-07-03T09:21:36Z</time>
      </trkpt>
      <trkpt lat="43.107708" lon="-1.5846785">
        <time>2022-07-03T09:21:37Z</time>
      </trkpt>
      <trkpt lat="43.107723" lon="-1.5847682">
        <time>2022-07-03T09:21:38Z</time>
      </trkpt>
      <trkpt lat="43.10773" lon="-1.5848552">
        <time>2022-07-03T09:21:39Z</time>
      </trkpt>
      <trkpt lat="43.107735" lon="-1.5849525">
        <time>2022-07-03T09:21:40Z</time>
      </trkpt>
      <trkpt lat="43.107735" lon="-1.5850484">
        <time>2022-07-03T09:21:41Z</time>
      </trkpt>
      <trkpt lat="43.107735" lon="-1.5851425">
        <time>2022-07-03T09:21:42Z</time>
      </trkpt>
      <trkpt lat="43.107727" lon="-1.5852338">
        <time>2022-07-03T09:21:43Z</time>
      </trkpt>
      <trkpt lat="43.107723" lon="-1.5853168">
        <time>2022-07-03T09:21:44Z</time>
      </trkpt>
      <trkpt lat="43.10772" lon="-1.5853997">
        <time>2022-07-03T09:21:45Z</time>
      </trkpt>
      <trkpt lat="43.107708" lon="-1.5854881">
        <time>2022-07-03T09:21:46Z</time>
      </trkpt>
      <trkpt lat="43.107697" lon="-1.5855745">
        <time>2022-07-03T09:21:47Z</time>
      </trkpt>
      <trkpt lat="43.107685" lon="-1.5856601">
        <time>2022-07-03T09:21:48Z</time>
      </trkpt>
      <trkpt lat="43.10767" lon="-1.5857371">
        <time>2022-07-03T09:21:49Z</time>
      </trkpt>
      <trkpt lat="43.10765" lon="-1.5858212">
        <time>2022-07-03T09:21:50Z</time>
      </trkpt>
      <trkpt lat="43.107635" lon="-1.5858991">
        <time>2022-07-03T09:21:51Z</time>
      </trkpt>
      <trkpt lat="43.107616" lon="-1.5859841">
        <time>2022-07-03T09:21:52Z</time>
      </trkpt>
      <trkpt lat="43.107597" lon="-1.5860628">
        <time>2022-07-03T09:21:53Z</time>
      </trkpt>
      <trkpt lat="43.107574" lon="-1.5861504">
        <time>2022-07-03T09:21:54Z</time>
      </trkpt>
      <trkpt lat="43.107555" lon="-1.5862335">
        <time>2022-07-03T09:21:55Z</time>
      </trkpt>
      <trkpt lat="43.107536" lon="-1.5863154">
        <time>2022-07-03T09:21:56Z</time>
      </trkpt>
      <trkpt lat="43.10752" lon="-1.5863968">
        <time>2022-07-03T09:21:57Z</time>
      </trkpt>
      <trkpt lat="43.107502" lon="-1.5864801">
        <time>2022-07-03T09:21:58Z</time>
      </trkpt>
      <trkpt lat="43.107487" lon="-1.5865718">
        <time>2022-07-03T09:21:59Z</time>
      </trkpt>
      <trkpt lat="43.107468" lon="-1.5866587">
        <time>2022-07-03T09:22:00Z</time>
      </trkpt>
      <trkpt lat="43.10745" lon="-1.5867468">
        <time>2022-07-03T09:22:01Z</time>
      </trkpt>
      <trkpt lat="43.107433" lon="-1.5868398">
        <time>2022-07-03T09:22:02Z</time>
      </trkpt>
      <trkpt lat="43.107414" lon="-1.5869308">
        <time>2022-07-03T09:22:03Z</time>
      </trkpt>
      <trkpt lat="43.107395" lon="-1.5870148">
        <time>2022-07-03T09:22:04Z</time>
      </trkpt>
      <trkpt lat="43.107372" lon="-1.5871034">
        <time>2022-07-03T09:22:05Z</time>
      </trkpt>
      <trkpt lat="43.10735" lon="-1.5871898">
        <time>2022-07-03T09:22:06Z</time>
      </trkpt>
      <trkpt lat="43.107323" lon="-1.587275">
        <time>2022-07-03T09:22:07Z</time>
      </trkpt>
      <trkpt lat="43.107296" lon="-1.5873594">
        <time>2022-07-03T09:22:08Z</time>
      </trkpt>
      <trkpt lat="43.107265" lon="-1.5874374">
        <time>2022-07-03T09:22:09Z</time>
      </trkpt>
      <trkpt lat="43.107235" lon="-1.5875154">
        <time>2022-07-03T09:22:10Z</time>
      </trkpt>
      <trkpt lat="43.107197" lon="-1.5875927">
        <time>2022-07-03T09:22:11Z</time>
      </trkpt>
      <trkpt lat="43.107155" lon="-1.5876701">
        <time>2022-07-03T09:22:12Z</time>
      </trkpt>
      <trkpt lat="43.107113" lon="-1.5877467">
        <time>2022-07-03T09:22:13Z</time>
      </trkpt>
      <trkpt lat="43.107067" lon="-1.5878264">
        <time>2022-07-03T09:22:14Z</time>
      </trkpt>
      <trkpt lat="43.10702" lon="-1.5879047">
        <time>2022-07-03T09:22:15Z</time>
      </trkpt>
      <trkpt lat="43.106976" lon="-1.5879813">
        <time>2022-07-03T09:22:16Z</time>
      </trkpt>
      <trkpt lat="43.106934" lon="-1.588057">
        <time>2022-07-03T09:22:17Z</time>
      </trkpt>
      <trkpt lat="43.10689" lon="-1.5881324">
        <time>2022-07-03T09:22:18Z</time>
      </trkpt>
      <trkpt lat="43.106853" lon="-1.5882081">
        <time>2022-07-03T09:22:19Z</time>
      </trkpt>
      <trkpt lat="43.10682" lon="-1.5882831">
        <time>2022-07-03T09:22:20Z</time>
      </trkpt>
      <trkpt lat="43.106792" lon="-1.588358">
        <time>2022-07-03T09:22:21Z</time>
      </trkpt>
      <trkpt lat="43.106766" lon="-1.5884337">
        <time>2022-07-03T09:22:22Z</time>
      </trkpt>
      <trkpt lat="43.106747" lon="-1.5885084">
        <time>2022-07-03T09:22:23Z</time>
      </trkpt>
      <trkpt lat="43.106735" lon="-1.5885817">
        <time>2022-07-03T09:22:24Z</time>
      </trkpt>
      <trkpt lat="43.106724" lon="-1.5886527">
        <time>2022-07-03T09:22:25Z</time>
      </trkpt>
      <trkpt lat="43.106724" lon="-1.588785">
        <time>2022-07-03T09:22:27Z</time>
      </trkpt>
      <trkpt lat="43.106735" lon="-1.5888933">
        <time>2022-07-03T09:22:29Z</time>
      </trkpt>
      <trkpt lat="43.106762" lon="-1.5889844">
        <time>2022-07-03T09:22:31Z</time>
      </trkpt>
      <trkpt lat="43.106792" lon="-1.589065">
        <time>2022-07-03T09:22:33Z</time>
      </trkpt>
      <trkpt lat="43.106827" lon="-1.5891407">
        <time>2022-07-03T09:22:35Z</time>
      </trkpt>
      <trkpt lat="43.106865" lon="-1.589209">
        <time>2022-07-03T09:22:37Z</time>
      </trkpt>
      <trkpt lat="43.106895" lon="-1.5892737">
        <time>2022-07-03T09:22:39Z</time>
      </trkpt>
      <trkpt lat="43.10693" lon="-1.5893366">
        <time>2022-07-03T09:22:41Z</time>
      </trkpt>
      <trkpt lat="43.106968" lon="-1.5893943">
        <time>2022-07-03T09:22:43Z</time>
      </trkpt>
      <trkpt lat="43.107002" lon="-1.5894573">
        <time>2022-07-03T09:22:45Z</time>
      </trkpt>
      <trkpt lat="43.10703" lon="-1.5895183">
        <time>2022-07-03T09:22:47Z</time>
      </trkpt>
      <trkpt lat="43.10706" lon="-1.5895793">
        <time>2022-07-03T09:22:49Z</time>
      </trkpt>
      <trkpt lat="43.107082" lon="-1.5896469">
        <time>2022-07-03T09:22:51Z</time>
      </trkpt>
      <trkpt lat="43.107098" lon="-1.589728">
        <time>2022-07-03T09:22:53Z</time>
      </trkpt>
      <trkpt lat="43.107105" lon="-1.589813">
        <time>2022-07-03T09:22:55Z</time>
      </trkpt>
      <trkpt lat="43.107105" lon="-1.5898947">
        <time>2022-07-03T09:22:57Z</time>
      </trkpt>
      <trkpt lat="43.1071" lon="-1.589978">
        <time>2022-07-03T09:22:59Z</time>
      </trkpt>
      <trkpt lat="43.107098" lon="-1.5900663">
        <time>2022-07-03T09:23:01Z</time>
      </trkpt>
      <trkpt lat="43.10709" lon="-1.590156">
        <time>2022-07-03T09:23:03Z</time>
      </trkpt>
      <trkpt lat="43.10707" lon="-1.5902556">
        <time>2022-07-03T09:23:05Z</time>
      </trkpt>
      <trkpt lat="43.107048" lon="-1.5903523">
        <time>2022-07-03T09:23:07Z</time>
      </trkpt>
      <trkpt lat="43.107025" lon="-1.5904499">
        <time>2022-07-03T09:23:09Z</time>
      </trkpt>
      <trkpt lat="43.107006" lon="-1.5905466">
        <time>2022-07-03T09:23:11Z</time>
      </trkpt>
      <trkpt lat="43.106976" lon="-1.5906422">
        <time>2022-07-03T09:23:13Z</time>
      </trkpt>
      <trkpt lat="43.106945" lon="-1.5907313">
        <time>2022-07-03T09:23:15Z</time>
      </trkpt>
      <trkpt lat="43.106907" lon="-1.5908172">
        <time>2022-07-03T09:23:17Z</time>
      </trkpt>
      <trkpt lat="43.10686" lon="-1.5908989">
        <time>2022-07-03T09:23:19Z</time>
      </trkpt>
      <trkpt lat="43.1068" lon="-1.590977">
        <time>2022-07-03T09:23:21Z</time>
      </trkpt>
      <trkpt lat="43.10673" lon="-1.5910469">
        <time>2022-07-03T09:23:23Z</time>
      </trkpt>
      <trkpt lat="43.10665" lon="-1.5911119">
        <time>2022-07-03T09:23:25Z</time>
      </trkpt>
      <trkpt lat="43.106575" lon="-1.5911776">
        <time>2022-07-03T09:23:27Z</time>
      </trkpt>
      <trkpt lat="43.10649" lon="-1.5912412">
        <time>2022-07-03T09:23:29Z</time>
      </trkpt>
      <trkpt lat="43.106407" lon="-1.5912939">
        <time>2022-07-03T09:23:31Z</time>
      </trkpt>
      <trkpt lat="43.10632" lon="-1.5913419">
        <time>2022-07-03T09:23:33Z</time>
      </trkpt>
      <trkpt lat="43.106224" lon="-1.5913869">
        <time>2022-07-03T09:23:35Z</time>
      </trkpt>
      <trkpt lat="43.106117" lon="-1.5914263">
        <time>2022-07-03T09:23:37Z</time>
      </trkpt>
      <trkpt lat="43.106064" lon="-1.5914448">
        <time>2022-07-03T09:23:38Z</time>
      </trkpt>
      <trkpt lat="43.106003" lon="-1.5914652">
        <time>2022-07-03T09:23:39Z</time>
      </trkpt>
      <trkpt lat="43.10595" lon="-1.5914825">
        <time>2022-07-03T09:23:40Z</time>
      </trkpt>
      <trkpt lat="43.105896" lon="-1.5914989">
        <time>2022-07-03T09:23:41Z</time>
      </trkpt>
      <trkpt lat="43.105835" lon="-1.5915163">
        <time>2022-07-03T09:23:42Z</time>
      </trkpt>
      <trkpt lat="43.10577" lon="-1.5915339">
        <time>2022-07-03T09:23:43Z</time>
      </trkpt>
      <trkpt lat="43.105713" lon="-1.5915521">
        <time>2022-07-03T09:23:44Z</time>
      </trkpt>
      <trkpt lat="43.10565" lon="-1.5915712">
        <time>2022-07-03T09:23:45Z</time>
      </trkpt>
      <trkpt lat="43.105595" lon="-1.5915905">
        <time>2022-07-03T09:23:46Z</time>
      </trkpt>
      <trkpt lat="43.105534" lon="-1.5916098">
        <time>2022-07-03T09:23:47Z</time>
      </trkpt>
      <trkpt lat="43.10547" lon="-1.5916308">
        <time>2022-07-03T09:23:48Z</time>
      </trkpt>
      <trkpt lat="43.105408" lon="-1.5916512">
        <time>2022-07-03T09:23:49Z</time>
      </trkpt>
      <trkpt lat="43.10535" lon="-1.5916705">
        <time>2022-07-03T09:23:50Z</time>
      </trkpt>
      <trkpt lat="43.105293" lon="-1.5916895">
        <time>2022-07-03T09:23:51Z</time>
      </trkpt>
      <trkpt lat="43.105232" lon="-1.5917089">
        <time>2022-07-03T09:23:52Z</time>
      </trkpt>
      <trkpt lat="43.105175" lon="-1.5917288">
        <time>2022-07-03T09:23:53Z</time>
      </trkpt>
      <trkpt lat="43.105114" lon="-1.5917488">
        <time>2022-07-03T09:23:54Z</time>
      </trkpt>
      <trkpt lat="43.105057" lon="-1.5917689">
        <time>2022-07-03T09:23:55Z</time>
      </trkpt>
      <trkpt lat="43.105" lon="-1.5917906">
        <time>2022-07-03T09:23:56Z</time>
      </trkpt>
      <trkpt lat="43.104935" lon="-1.5918149">
        <time>2022-07-03T09:23:57Z</time>
      </trkpt>
      <trkpt lat="43.104877" lon="-1.5918375">
        <time>2022-07-03T09:23:58Z</time>
      </trkpt>
      <trkpt lat="43.10482" lon="-1.5918602">
        <time>2022-07-03T09:23:59Z</time>
      </trkpt>
      <trkpt lat="43.10476" lon="-1.5918825">
        <time>2022-07-03T09:24:00Z</time>
      </trkpt>
      <trkpt lat="43.104694" lon="-1.5919045">
        <time>2022-07-03T09:24:01Z</time>
      </trkpt>
      <trkpt lat="43.104633" lon="-1.5919265">
        <time>2022-07-03T09:24:02Z</time>
      </trkpt>
      <trkpt lat="43.104572" lon="-1.5919485">
        <time>2022-07-03T09:24:03Z</time>
      </trkpt>
      <trkpt lat="43.104515" lon="-1.5919691">
        <time>2022-07-03T09:24:04Z</time>
      </trkpt>
      <trkpt lat="43.104458" lon="-1.5919918">
        <time>2022-07-03T09:24:05Z</time>
      </trkpt>
      <trkpt lat="43.104397" lon="-1.5920165">
        <time>2022-07-03T09:24:06Z</time>
      </trkpt>
      <trkpt lat="43.10434" lon="-1.5920404">
        <time>2022-07-03T09:24:07Z</time>
      </trkpt>
      <trkpt lat="43.10428" lon="-1.5920621">
        <time>2022-07-03T09:24:08Z</time>
      </trkpt>
      <trkpt lat="43.10422" lon="-1.5920821">
        <time>2022-07-03T09:24:09Z</time>
      </trkpt>
      <trkpt lat="43.10416" lon="-1.5921022">
        <time>2022-07-03T09:24:10Z</time>
      </trkpt>
      <trkpt lat="43.10409" lon="-1.5921218">
        <time>2022-07-03T09:24:11Z</time>
      </trkpt>
      <trkpt lat="43.104027" lon="-1.5921397">
        <time>2022-07-03T09:24:12Z</time>
      </trkpt>
      <trkpt lat="43.103962" lon="-1.5921568">
        <time>2022-07-03T09:24:13Z</time>
      </trkpt>
      <trkpt lat="43.103897" lon="-1.5921731">
        <time>2022-07-03T09:24:14Z</time>
      </trkpt>
      <trkpt lat="43.103836" lon="-1.5921901">
        <time>2022-07-03T09:24:15Z</time>
      </trkpt>
      <trkpt lat="43.10377" lon="-1.5922087">
        <time>2022-07-03T09:24:16Z</time>
      </trkpt>
      <trkpt lat="43.103706" lon="-1.5922278">
        <time>2022-07-03T09:24:17Z</time>
      </trkpt>
      <trkpt lat="43.10364" lon="-1.5922458">
        <time>2022-07-03T09:24:18Z</time>
      </trkpt>
      <trkpt lat="43.103584" lon="-1.5922607">
        <time>2022-07-03T09:24:19Z</time>
      </trkpt>
      <trkpt lat="43.10352" lon="-1.5922774">
        <time>2022-07-03T09:24:20Z</time>
      </trkpt>
      <trkpt lat="43.103455" lon="-1.5922984">
        <time>2022-07-03T09:24:21Z</time>
      </trkpt>
      <trkpt lat="43.103386" lon="-1.5923221">
        <time>2022-07-03T09:24:22Z</time>
      </trkpt>
      <trkpt lat="43.103317" lon="-1.5923424">
        <time>2022-07-03T09:24:23Z</time>
      </trkpt>
      <trkpt lat="43.103256" lon="-1.5923604">
        <time>2022-07-03T09:24:24Z</time>
      </trkpt>
      <trkpt lat="43.103188" lon="-1.5923787">
        <time>2022-07-03T09:24:25Z</time>
      </trkpt>
      <trkpt lat="43.103115" lon="-1.5923967">
        <time>2022-07-03T09:24:26Z</time>
      </trkpt>
      <trkpt lat="43.10304" lon="-1.5924134">
        <time>2022-07-03T09:24:27Z</time>
      </trkpt>
      <trkpt lat="43.102966" lon="-1.5924277">
        <time>2022-07-03T09:24:28Z</time>
      </trkpt>
      <trkpt lat="43.10289" lon="-1.5924404">
        <time>2022-07-03T09:24:29Z</time>
      </trkpt>
      <trkpt lat="43.10281" lon="-1.5924541">
        <time>2022-07-03T09:24:30Z</time>
      </trkpt>
      <trkpt lat="43.10273" lon="-1.5924667">
        <time>2022-07-03T09:24:31Z</time>
      </trkpt>
      <trkpt lat="43.10265" lon="-1.5924804">
        <time>2022-07-03T09:24:32Z</time>
      </trkpt>
      <trkpt lat="43.102566" lon="-1.5924951">
        <time>2022-07-03T09:24:33Z</time>
      </trkpt>
      <trkpt lat="43.102486" lon="-1.5925107">
        <time>2022-07-03T09:24:34Z</time>
      </trkpt>
      <trkpt lat="43.102398" lon="-1.592528">
        <time>2022-07-03T09:24:35Z</time>
      </trkpt>
      <trkpt lat="43.102314" lon="-1.5925467">
        <time>2022-07-03T09:24:36Z</time>
      </trkpt>
      <trkpt lat="43.10223" lon="-1.592568">
        <time>2022-07-03T09:24:37Z</time>
      </trkpt>
      <trkpt lat="43.102142" lon="-1.5925937">
        <time>2022-07-03T09:24:38Z</time>
      </trkpt>
      <trkpt lat="43.10206" lon="-1.5926254">
        <time>2022-07-03T09:24:39Z</time>
      </trkpt>
      <trkpt lat="43.10189" lon="-1.592706">
        <time>2022-07-03T09:24:41Z</time>
      </trkpt>
      <trkpt lat="43.101803" lon="-1.5927514">
        <time>2022-07-03T09:24:42Z</time>
      </trkpt>
      <trkpt lat="43.10172" lon="-1.592799">
        <time>2022-07-03T09:24:43Z</time>
      </trkpt>
      <trkpt lat="43.101627" lon="-1.5928516">
        <time>2022-07-03T09:24:44Z</time>
      </trkpt>
      <trkpt lat="43.101532" lon="-1.592913">
        <time>2022-07-03T09:24:45Z</time>
      </trkpt>
      <trkpt lat="43.101437" lon="-1.5929719">
        <time>2022-07-03T09:24:46Z</time>
      </trkpt>
      <trkpt lat="43.101337" lon="-1.593032">
        <time>2022-07-03T09:24:47Z</time>
      </trkpt>
      <trkpt lat="43.101246" lon="-1.5930833">
        <time>2022-07-03T09:24:48Z</time>
      </trkpt>
      <trkpt lat="43.101154" lon="-1.5931289">
        <time>2022-07-03T09:24:49Z</time>
      </trkpt>
      <trkpt lat="43.101063" lon="-1.5931693">
        <time>2022-07-03T09:24:50Z</time>
      </trkpt>
      <trkpt lat="43.10097" lon="-1.5932009">
        <time>2022-07-03T09:24:51Z</time>
      </trkpt>
      <trkpt lat="43.10088" lon="-1.593226">
        <time>2022-07-03T09:24:52Z</time>
      </trkpt>
      <trkpt lat="43.10079" lon="-1.5932447">
        <time>2022-07-03T09:24:53Z</time>
      </trkpt>
      <trkpt lat="43.100697" lon="-1.5932562">
        <time>2022-07-03T09:24:54Z</time>
      </trkpt>
      <trkpt lat="43.100613" lon="-1.5932599">
        <time>2022-07-03T09:24:55Z</time>
      </trkpt>
      <trkpt lat="43.10053" lon="-1.593259">
        <time>2022-07-03T09:24:56Z</time>
      </trkpt>
      <trkpt lat="43.10045" lon="-1.593252">
        <time>2022-07-03T09:24:57Z</time>
      </trkpt>
      <trkpt lat="43.100376" lon="-1.5932403">
        <time>2022-07-03T09:24:58Z</time>
      </trkpt>
      <trkpt lat="43.100315" lon="-1.5932282">
        <time>2022-07-03T09:24:59Z</time>
      </trkpt>
      <trkpt lat="43.100254" lon="-1.593221">
        <time>2022-07-03T09:25:00Z</time>
      </trkpt>
      <trkpt lat="43.1002" lon="-1.5932223">
        <time>2022-07-03T09:25:01Z</time>
      </trkpt>
      <trkpt lat="43.10015" lon="-1.593234">
        <time>2022-07-03T09:25:02Z</time>
      </trkpt>
      <trkpt lat="43.100082" lon="-1.5932783">
        <time>2022-07-03T09:25:04Z</time>
      </trkpt>
      <trkpt lat="43.100033" lon="-1.593339">
        <time>2022-07-03T09:25:06Z</time>
      </trkpt>
      <trkpt lat="43.099987" lon="-1.5933906">
        <time>2022-07-03T09:25:08Z</time>
      </trkpt>
      <trkpt lat="43.099934" lon="-1.5934136">
        <time>2022-07-03T09:25:10Z</time>
      </trkpt>
      <trkpt lat="43.099876" lon="-1.5934149">
        <time>2022-07-03T09:25:12Z</time>
      </trkpt>
      <trkpt lat="43.099815" lon="-1.5934112">
        <time>2022-07-03T09:25:14Z</time>
      </trkpt>
      <trkpt lat="43.09976" lon="-1.5934246">
        <time>2022-07-03T09:25:16Z</time>
      </trkpt>
      <trkpt lat="43.099705" lon="-1.5934609">
        <time>2022-07-03T09:25:18Z</time>
      </trkpt>
      <trkpt lat="43.09966" lon="-1.5935025">
        <time>2022-07-03T09:25:20Z</time>
      </trkpt>
      <trkpt lat="43.099586" lon="-1.5935479">
        <time>2022-07-03T09:25:23Z</time>
      </trkpt>
      <trkpt lat="43.09953" lon="-1.5935689">
        <time>2022-07-03T09:25:25Z</time>
      </trkpt>
      <trkpt lat="43.099472" lon="-1.5935743">
        <time>2022-07-03T09:25:27Z</time>
      </trkpt>
      <trkpt lat="43.09941" lon="-1.5935582">
        <time>2022-07-03T09:25:29Z</time>
      </trkpt>
      <trkpt lat="43.099354" lon="-1.5935156">
        <time>2022-07-03T09:25:31Z</time>
      </trkpt>
      <trkpt lat="43.099304" lon="-1.5934529">
        <time>2022-07-03T09:25:33Z</time>
      </trkpt>
      <trkpt lat="43.09926" lon="-1.5933703">
        <time>2022-07-03T09:25:35Z</time>
      </trkpt>
      <trkpt lat="43.09921" lon="-1.5932733">
        <time>2022-07-03T09:25:37Z</time>
      </trkpt>
      <trkpt lat="43.099148" lon="-1.5931683">
        <time>2022-07-03T09:25:39Z</time>
      </trkpt>
      <trkpt lat="43.09912" lon="-1.593113">
        <time>2022-07-03T09:25:40Z</time>
      </trkpt>
      <trkpt lat="43.09906" lon="-1.592997">
        <time>2022-07-03T09:25:42Z</time>
      </trkpt>
      <trkpt lat="43.09903" lon="-1.5929383">
        <time>2022-07-03T09:25:43Z</time>
      </trkpt>
      <trkpt lat="43.098965" lon="-1.5928242">
        <time>2022-07-03T09:25:45Z</time>
      </trkpt>
      <trkpt lat="43.09889" lon="-1.5927219">
        <time>2022-07-03T09:25:47Z</time>
      </trkpt>
      <trkpt lat="43.098846" lon="-1.5926813">
        <time>2022-07-03T09:25:48Z</time>
      </trkpt>
      <trkpt lat="43.098804" lon="-1.5926473">
        <time>2022-07-03T09:25:49Z</time>
      </trkpt>
      <trkpt lat="43.09873" lon="-1.5925959">
        <time>2022-07-03T09:25:51Z</time>
      </trkpt>
      <trkpt lat="43.098648" lon="-1.592557">
        <time>2022-07-03T09:25:53Z</time>
      </trkpt>
      <trkpt lat="43.098568" lon="-1.5925386">
        <time>2022-07-03T09:25:55Z</time>
      </trkpt>
      <trkpt lat="43.0985" lon="-1.592551">
        <time>2022-07-03T09:25:57Z</time>
      </trkpt>
      <trkpt lat="43.098442" lon="-1.5925856">
        <time>2022-07-03T09:25:59Z</time>
      </trkpt>
      <trkpt lat="43.098396" lon="-1.5926476">
        <time>2022-07-03T09:26:02Z</time>
      </trkpt>
      <trkpt lat="43.09838" lon="-1.5927103">
        <time>2022-07-03T09:26:05Z</time>
      </trkpt>
      <trkpt lat="43.09837" lon="-1.5927986">
        <time>2022-07-03T09:26:09Z</time>
      </trkpt>
      <trkpt lat="43.098373" lon="-1.5928749">
        <time>2022-07-03T09:26:12Z</time>
      </trkpt>
      <trkpt lat="43.098373" lon="-1.592948">
        <time>2022-07-03T09:26:15Z</time>
      </trkpt>
      <trkpt lat="43.09838" lon="-1.5930189">
        <time>2022-07-03T09:26:18Z</time>
      </trkpt>
      <trkpt lat="43.098392" lon="-1.5930866">
        <time>2022-07-03T09:26:21Z</time>
      </trkpt>
      <trkpt lat="43.098408" lon="-1.5931609">
        <time>2022-07-03T09:26:24Z</time>
      </trkpt>
      <trkpt lat="43.098423" lon="-1.593231">
        <time>2022-07-03T09:26:27Z</time>
      </trkpt>
      <trkpt lat="43.098434" lon="-1.5933056">
        <time>2022-07-03T09:26:30Z</time>
      </trkpt>
      <trkpt lat="43.098454" lon="-1.5933752">
        <time>2022-07-03T09:26:33Z</time>
      </trkpt>
      <trkpt lat="43.098473" lon="-1.5934533">
        <time>2022-07-03T09:26:36Z</time>
      </trkpt>
      <trkpt lat="43.098488" lon="-1.5935376">
        <time>2022-07-03T09:26:39Z</time>
      </trkpt>
      <trkpt lat="43.0985" lon="-1.5936233">
        <time>2022-07-03T09:26:42Z</time>
      </trkpt>
      <trkpt lat="43.09851" lon="-1.5937102">
        <time>2022-07-03T09:26:45Z</time>
      </trkpt>
      <trkpt lat="43.098526" lon="-1.5937909">
        <time>2022-07-03T09:26:48Z</time>
      </trkpt>
      <trkpt lat="43.098522" lon="-1.5938716">
        <time>2022-07-03T09:26:51Z</time>
      </trkpt>
      <trkpt lat="43.098507" lon="-1.5939566">
        <time>2022-07-03T09:26:54Z</time>
      </trkpt>
      <trkpt lat="43.098484" lon="-1.5940449">
        <time>2022-07-03T09:26:57Z</time>
      </trkpt>
      <trkpt lat="43.098446" lon="-1.5941105">
        <time>2022-07-03T09:27:00Z</time>
      </trkpt>
      <trkpt lat="43.098392" lon="-1.5941626">
        <time>2022-07-03T09:27:03Z</time>
      </trkpt>
      <trkpt lat="43.09833" lon="-1.5942118">
        <time>2022-07-03T09:27:06Z</time>
      </trkpt>
      <trkpt lat="43.09827" lon="-1.5942602">
        <time>2022-07-03T09:27:09Z</time>
      </trkpt>
      <trkpt lat="43.098206" lon="-1.5943096">
        <time>2022-07-03T09:27:12Z</time>
      </trkpt>
      <trkpt lat="43.098152" lon="-1.5943402">
        <time>2022-07-03T09:27:14Z</time>
      </trkpt>
      <trkpt lat="43.0981" lon="-1.5943718">
        <time>2022-07-03T09:27:16Z</time>
      </trkpt>
      <trkpt lat="43.09804" lon="-1.5944059">
        <time>2022-07-03T09:27:18Z</time>
      </trkpt>
      <trkpt lat="43.09798" lon="-1.5944402">
        <time>2022-07-03T09:27:20Z</time>
      </trkpt>
      <trkpt lat="43.09792" lon="-1.5944775">
        <time>2022-07-03T09:27:22Z</time>
      </trkpt>
      <trkpt lat="43.09785" lon="-1.5945139">
        <time>2022-07-03T09:27:24Z</time>
      </trkpt>
      <trkpt lat="43.097782" lon="-1.5945505">
        <time>2022-07-03T09:27:26Z</time>
      </trkpt>
      <trkpt lat="43.09771" lon="-1.5945905">
        <time>2022-07-03T09:27:28Z</time>
      </trkpt>
      <trkpt lat="43.097637" lon="-1.5946362">
        <time>2022-07-03T09:27:30Z</time>
      </trkpt>
      <trkpt lat="43.09756" lon="-1.5946871">
        <time>2022-07-03T09:27:32Z</time>
      </trkpt>
      <trkpt lat="43.097477" lon="-1.5947394">
        <time>2022-07-03T09:27:34Z</time>
      </trkpt>
      <trkpt lat="43.097397" lon="-1.5947955">
        <time>2022-07-03T09:27:36Z</time>
      </trkpt>
      <trkpt lat="43.097305" lon="-1.5948468">
        <time>2022-07-03T09:27:38Z</time>
      </trkpt>
      <trkpt lat="43.097214" lon="-1.5948992">
        <time>2022-07-03T09:27:40Z</time>
      </trkpt>
      <trkpt lat="43.09717" lon="-1.5949252">
        <time>2022-07-03T09:27:41Z</time>
      </trkpt>
      <trkpt lat="43.097084" lon="-1.5949728">
        <time>2022-07-03T09:27:43Z</time>
      </trkpt>
      <trkpt lat="43.09699" lon="-1.5950345">
        <time>2022-07-03T09:27:45Z</time>
      </trkpt>
      <trkpt lat="43.096893" lon="-1.5950994">
        <time>2022-07-03T09:27:47Z</time>
      </trkpt>
      <trkpt lat="43.096844" lon="-1.5951312">
        <time>2022-07-03T09:27:48Z</time>
      </trkpt>
      <trkpt lat="43.096794" lon="-1.5951608">
        <time>2022-07-03T09:27:49Z</time>
      </trkpt>
      <trkpt lat="43.096745" lon="-1.5951881">
        <time>2022-07-03T09:27:50Z</time>
      </trkpt>
      <trkpt lat="43.0967" lon="-1.5952104">
        <time>2022-07-03T09:27:51Z</time>
      </trkpt>
      <trkpt lat="43.096607" lon="-1.5952384">
        <time>2022-07-03T09:27:53Z</time>
      </trkpt>
      <trkpt lat="43.096558" lon="-1.5952448">
        <time>2022-07-03T09:27:54Z</time>
      </trkpt>
      <trkpt lat="43.096462" lon="-1.5952384">
        <time>2022-07-03T09:27:56Z</time>
      </trkpt>
      <trkpt lat="43.09637" lon="-1.5952098">
        <time>2022-07-03T09:27:58Z</time>
      </trkpt>
      <trkpt lat="43.096287" lon="-1.5951592">
        <time>2022-07-03T09:28:00Z</time>
      </trkpt>
      <trkpt lat="43.096207" lon="-1.5950907">
        <time>2022-07-03T09:28:02Z</time>
      </trkpt>
      <trkpt lat="43.09613" lon="-1.5950202">
        <time>2022-07-03T09:28:04Z</time>
      </trkpt>
      <trkpt lat="43.096054" lon="-1.5949502">
        <time>2022-07-03T09:28:06Z</time>
      </trkpt>
      <trkpt lat="43.09598" lon="-1.5948788">
        <time>2022-07-03T09:28:08Z</time>
      </trkpt>
      <trkpt lat="43.09591" lon="-1.5948098">
        <time>2022-07-03T09:28:10Z</time>
      </trkpt>
      <trkpt lat="43.095833" lon="-1.5947465">
        <time>2022-07-03T09:28:12Z</time>
      </trkpt>
      <trkpt lat="43.09575" lon="-1.5946878">
        <time>2022-07-03T09:28:14Z</time>
      </trkpt>
      <trkpt lat="43.095673" lon="-1.5946338">
        <time>2022-07-03T09:28:16Z</time>
      </trkpt>
      <trkpt lat="43.09559" lon="-1.5945898">
        <time>2022-07-03T09:28:18Z</time>
      </trkpt>
      <trkpt lat="43.095505" lon="-1.5945481">
        <time>2022-07-03T09:28:20Z</time>
      </trkpt>
      <trkpt lat="43.095425" lon="-1.5945148">
        <time>2022-07-03T09:28:22Z</time>
      </trkpt>
      <trkpt lat="43.095345" lon="-1.5944822">
        <time>2022-07-03T09:28:24Z</time>
      </trkpt>
      <trkpt lat="43.09526" lon="-1.5944562">
        <time>2022-07-03T09:28:26Z</time>
      </trkpt>
      <trkpt lat="43.095173" lon="-1.5944442">
        <time>2022-07-03T09:28:28Z</time>
      </trkpt>
      <trkpt lat="43.095085" lon="-1.5944419">
        <time>2022-07-03T09:28:30Z</time>
      </trkpt>
      <trkpt lat="43.094997" lon="-1.5944479">
        <time>2022-07-03T09:28:32Z</time>
      </trkpt>
      <trkpt lat="43.094913" lon="-1.5944551">
        <time>2022-07-03T09:28:34Z</time>
      </trkpt>
      <trkpt lat="43.094837" lon="-1.5944538">
        <time>2022-07-03T09:28:36Z</time>
      </trkpt>
      <trkpt lat="43.094757" lon="-1.5944518">
        <time>2022-07-03T09:28:38Z</time>
      </trkpt>
      <trkpt lat="43.09468" lon="-1.5944442">
        <time>2022-07-03T09:28:40Z</time>
      </trkpt>
      <trkpt lat="43.09461" lon="-1.5944332">
        <time>2022-07-03T09:28:42Z</time>
      </trkpt>
      <trkpt lat="43.094532" lon="-1.5944245">
        <time>2022-07-03T09:28:44Z</time>
      </trkpt>
      <trkpt lat="43.09441" lon="-1.5944185">
        <time>2022-07-03T09:28:47Z</time>
      </trkpt>
      <trkpt lat="43.09432" lon="-1.5944105">
        <time>2022-07-03T09:28:49Z</time>
      </trkpt>
      <trkpt lat="43.09423" lon="-1.5944022">
        <time>2022-07-03T09:28:51Z</time>
      </trkpt>
      <trkpt lat="43.094135" lon="-1.5943965">
        <time>2022-07-03T09:28:53Z</time>
      </trkpt>
      <trkpt lat="43.094036" lon="-1.5943862">
        <time>2022-07-03T09:28:55Z</time>
      </trkpt>
      <trkpt lat="43.09399" lon="-1.5943809">
        <time>2022-07-03T09:28:56Z</time>
      </trkpt>
      <trkpt lat="43.09389" lon="-1.5943708">
        <time>2022-07-03T09:28:58Z</time>
      </trkpt>
      <trkpt lat="43.093792" lon="-1.5943636">
        <time>2022-07-03T09:29:00Z</time>
      </trkpt>
      <trkpt lat="43.093693" lon="-1.5943552">
        <time>2022-07-03T09:29:02Z</time>
      </trkpt>
      <trkpt lat="43.093643" lon="-1.5943562">
        <time>2022-07-03T09:29:03Z</time>
      </trkpt>
      <trkpt lat="43.093563" lon="-1.5943758">
        <time>2022-07-03T09:29:05Z</time>
      </trkpt>
      <trkpt lat="43.09351" lon="-1.5944211">
        <time>2022-07-03T09:29:07Z</time>
      </trkpt>
      <trkpt lat="43.093475" lon="-1.5944998">
        <time>2022-07-03T09:29:09Z</time>
      </trkpt>
      <trkpt lat="43.093452" lon="-1.5945895">
        <time>2022-07-03T09:29:11Z</time>
      </trkpt>
      <trkpt lat="43.093433" lon="-1.5946826">
        <time>2022-07-03T09:29:13Z</time>
      </trkpt>
      <trkpt lat="43.093422" lon="-1.5947748">
        <time>2022-07-03T09:29:15Z</time>
      </trkpt>
      <trkpt lat="43.093414" lon="-1.5948712">
        <time>2022-07-03T09:29:17Z</time>
      </trkpt>
      <trkpt lat="43.09342" lon="-1.5949582">
        <time>2022-07-03T09:29:19Z</time>
      </trkpt>
      <trkpt lat="43.093437" lon="-1.5950322">
        <time>2022-07-03T09:29:21Z</time>
      </trkpt>
      <trkpt lat="43.09346" lon="-1.5950872">
        <time>2022-07-03T09:29:23Z</time>
      </trkpt>
      <trkpt lat="43.093502" lon="-1.5951475">
        <time>2022-07-03T09:29:26Z</time>
      </trkpt>
      <trkpt lat="43.09354" lon="-1.5952041">
        <time>2022-07-03T09:29:29Z</time>
      </trkpt>
      <trkpt lat="43.093575" lon="-1.5952618">
        <time>2022-07-03T09:29:32Z</time>
      </trkpt>
      <trkpt lat="43.09361" lon="-1.5953091">
        <time>2022-07-03T09:29:35Z</time>
      </trkpt>
      <trkpt lat="43.09366" lon="-1.5953249">
        <time>2022-07-03T09:29:38Z</time>
      </trkpt>
      <trkpt lat="43.09371" lon="-1.5953511">
        <time>2022-07-03T09:29:42Z</time>
      </trkpt>
      <trkpt lat="43.09376" lon="-1.5953954">
        <time>2022-07-03T09:29:46Z</time>
      </trkpt>
      <trkpt lat="43.093815" lon="-1.5954444">
        <time>2022-07-03T09:29:50Z</time>
      </trkpt>
      <trkpt lat="43.09386" lon="-1.5955018">
        <time>2022-07-03T09:29:54Z</time>
      </trkpt>
      <trkpt lat="43.093906" lon="-1.5955641">
        <time>2022-07-03T09:29:58Z</time>
      </trkpt>
      <trkpt lat="43.09395" lon="-1.5956352">
        <time>2022-07-03T09:30:02Z</time>
      </trkpt>
      <trkpt lat="43.09398" lon="-1.5956872">
        <time>2022-07-03T09:30:05Z</time>
      </trkpt>
      <trkpt lat="43.094017" lon="-1.5957512">
        <time>2022-07-03T09:30:09Z</time>
      </trkpt>
      <trkpt lat="43.094044" lon="-1.5958265">
        <time>2022-07-03T09:30:13Z</time>
      </trkpt>
      <trkpt lat="43.094067" lon="-1.5958838">
        <time>2022-07-03T09:30:16Z</time>
      </trkpt>
      <trkpt lat="43.094093" lon="-1.5959568">
        <time>2022-07-03T09:30:20Z</time>
      </trkpt>
      <trkpt lat="43.09412" lon="-1.5960308">
        <time>2022-07-03T09:30:24Z</time>
      </trkpt>
      <trkpt lat="43.09415" lon="-1.5960995">
        <time>2022-07-03T09:30:28Z</time>
      </trkpt>
      <trkpt lat="43.094166" lon="-1.5961754">
        <time>2022-07-03T09:30:32Z</time>
      </trkpt>
      <trkpt lat="43.09418" lon="-1.5962424">
        <time>2022-07-03T09:30:36Z</time>
      </trkpt>
      <trkpt lat="43.094196" lon="-1.5963085">
        <time>2022-07-03T09:30:40Z</time>
      </trkpt>
      <trkpt lat="43.0942" lon="-1.5963888">
        <time>2022-07-03T09:30:45Z</time>
      </trkpt>
      <trkpt lat="43.0942" lon="-1.5964772">
        <time>2022-07-03T09:30:50Z</time>
      </trkpt>
      <trkpt lat="43.0942" lon="-1.5965497">
        <time>2022-07-03T09:30:54Z</time>
      </trkpt>
      <trkpt lat="43.09418" lon="-1.5966321">
        <time>2022-07-03T09:30:59Z</time>
      </trkpt>
      <trkpt lat="43.094162" lon="-1.5966995">
        <time>2022-07-03T09:31:03Z</time>
      </trkpt>
      <trkpt lat="43.094135" lon="-1.5967695">
        <time>2022-07-03T09:31:07Z</time>
      </trkpt>
      <trkpt lat="43.09411" lon="-1.5968394">
        <time>2022-07-03T09:31:11Z</time>
      </trkpt>
      <trkpt lat="43.09408" lon="-1.5969085">
        <time>2022-07-03T09:31:15Z</time>
      </trkpt>
      <trkpt lat="43.094048" lon="-1.5969714">
        <time>2022-07-03T09:31:19Z</time>
      </trkpt>
      <trkpt lat="43.09401" lon="-1.5970224">
        <time>2022-07-03T09:31:23Z</time>
      </trkpt>
      <trkpt lat="43.093967" lon="-1.5970654">
        <time>2022-07-03T09:31:27Z</time>
      </trkpt>
      <trkpt lat="43.09392" lon="-1.5971074">
        <time>2022-07-03T09:31:31Z</time>
      </trkpt>
      <trkpt lat="43.093876" lon="-1.5971497">
        <time>2022-07-03T09:31:35Z</time>
      </trkpt>
      <trkpt lat="43.093838" lon="-1.5971904">
        <time>2022-07-03T09:31:39Z</time>
      </trkpt>
      <trkpt lat="43.09379" lon="-1.5972351">
        <time>2022-07-03T09:31:43Z</time>
      </trkpt>
      <trkpt lat="43.09373" lon="-1.5972698">
        <time>2022-07-03T09:31:47Z</time>
      </trkpt>
      <trkpt lat="43.093685" lon="-1.5973188">
        <time>2022-07-03T09:31:51Z</time>
      </trkpt>
      <trkpt lat="43.09364" lon="-1.5973674">
        <time>2022-07-03T09:31:55Z</time>
      </trkpt>
      <trkpt lat="43.09359" lon="-1.5974435">
        <time>2022-07-03T09:32:00Z</time>
      </trkpt>
      <trkpt lat="43.09355" lon="-1.5975118">
        <time>2022-07-03T09:32:04Z</time>
      </trkpt>
      <trkpt lat="43.09352" lon="-1.597581">
        <time>2022-07-03T09:32:08Z</time>
      </trkpt>
      <trkpt lat="43.093487" lon="-1.5976437">
        <time>2022-07-03T09:32:12Z</time>
      </trkpt>
      <trkpt lat="43.093445" lon="-1.59771">
        <time>2022-07-03T09:32:16Z</time>
      </trkpt>
      <trkpt lat="43.093414" lon="-1.5977614">
        <time>2022-07-03T09:32:19Z</time>
      </trkpt>
      <trkpt lat="43.093372" lon="-1.5978254">
        <time>2022-07-03T09:32:23Z</time>
      </trkpt>
      <trkpt lat="43.093334" lon="-1.5978857">
        <time>2022-07-03T09:32:27Z</time>
      </trkpt>
      <trkpt lat="43.0933" lon="-1.597944">
        <time>2022-07-03T09:32:31Z</time>
      </trkpt>
      <trkpt lat="43.09327" lon="-1.5980091">
        <time>2022-07-03T09:32:35Z</time>
      </trkpt>
      <trkpt lat="43.09323" lon="-1.5980711">
        <time>2022-07-03T09:32:39Z</time>
      </trkpt>
      <trkpt lat="43.09319" lon="-1.5981333">
        <time>2022-07-03T09:32:43Z</time>
      </trkpt>
      <trkpt lat="43.093155" lon="-1.5982074">
        <time>2022-07-03T09:32:47Z</time>
      </trkpt>
      <trkpt lat="43.09312" lon="-1.5982857">
        <time>2022-07-03T09:32:51Z</time>
      </trkpt>
      <trkpt lat="43.093094" lon="-1.5983487">
        <time>2022-07-03T09:32:54Z</time>
      </trkpt>
      <trkpt lat="43.093067" lon="-1.5983998">
        <time>2022-07-03T09:32:57Z</time>
      </trkpt>
      <trkpt lat="43.093037" lon="-1.5984637">
        <time>2022-07-03T09:33:01Z</time>
      </trkpt>
      <trkpt lat="43.093" lon="-1.5985317">
        <time>2022-07-03T09:33:05Z</time>
      </trkpt>
      <trkpt lat="43.092964" lon="-1.598593">
        <time>2022-07-03T09:33:09Z</time>
      </trkpt>
      <trkpt lat="43.092937" lon="-1.5986677">
        <time>2022-07-03T09:33:14Z</time>
      </trkpt>
      <trkpt lat="43.092903" lon="-1.5987287">
        <time>2022-07-03T09:33:18Z</time>
      </trkpt>
      <trkpt lat="43.09287" lon="-1.5987887">
        <time>2022-07-03T09:33:22Z</time>
      </trkpt>
      <trkpt lat="43.09283" lon="-1.59887">
        <time>2022-07-03T09:33:27Z</time>
      </trkpt>
      <trkpt lat="43.092804" lon="-1.5989404">
        <time>2022-07-03T09:33:31Z</time>
      </trkpt>
      <trkpt lat="43.09278" lon="-1.5990144">
        <time>2022-07-03T09:33:35Z</time>
      </trkpt>
      <trkpt lat="43.09276" lon="-1.5990883">
        <time>2022-07-03T09:33:39Z</time>
      </trkpt>
      <trkpt lat="43.09274" lon="-1.599166">
        <time>2022-07-03T09:33:43Z</time>
      </trkpt>
      <trkpt lat="43.09274" lon="-1.5992451">
        <time>2022-07-03T09:33:47Z</time>
      </trkpt>
      <trkpt lat="43.092735" lon="-1.5993193">
        <time>2022-07-03T09:33:51Z</time>
      </trkpt>
      <trkpt lat="43.092728" lon="-1.5993937">
        <time>2022-07-03T09:33:55Z</time>
      </trkpt>
      <trkpt lat="43.092712" lon="-1.599475">
        <time>2022-07-03T09:33:59Z</time>
      </trkpt>
      <trkpt lat="43.092697" lon="-1.5995743">
        <time>2022-07-03T09:34:04Z</time>
      </trkpt>
      <trkpt lat="43.09269" lon="-1.5996554">
        <time>2022-07-03T09:34:08Z</time>
      </trkpt>
      <trkpt lat="43.0927" lon="-1.5997317">
        <time>2022-07-03T09:34:12Z</time>
      </trkpt>
      <trkpt lat="43.092705" lon="-1.599809">
        <time>2022-07-03T09:34:16Z</time>
      </trkpt>
      <trkpt lat="43.092693" lon="-1.599885">
        <time>2022-07-03T09:34:20Z</time>
      </trkpt>
      <trkpt lat="43.092686" lon="-1.5999546">
        <time>2022-07-03T09:34:24Z</time>
      </trkpt>
      <trkpt lat="43.092674" lon="-1.6000316">
        <time>2022-07-03T09:34:28Z</time>
      </trkpt>
      <trkpt lat="43.092655" lon="-1.6001103">
        <time>2022-07-03T09:34:32Z</time>
      </trkpt>
      <trkpt lat="43.09264" lon="-1.6001853">
        <time>2022-07-03T09:34:36Z</time>
      </trkpt>
      <trkpt lat="43.092625" lon="-1.600261">
        <time>2022-07-03T09:34:40Z</time>
      </trkpt>
      <trkpt lat="43.092613" lon="-1.600338">
        <time>2022-07-03T09:34:44Z</time>
      </trkpt>
      <trkpt lat="43.092594" lon="-1.6004087">
        <time>2022-07-03T09:34:48Z</time>
      </trkpt>
      <trkpt lat="43.092575" lon="-1.6004744">
        <time>2022-07-03T09:34:52Z</time>
      </trkpt>
      <trkpt lat="43.09256" lon="-1.6005453">
        <time>2022-07-03T09:34:56Z</time>
      </trkpt>
      <trkpt lat="43.092545" lon="-1.600618">
        <time>2022-07-03T09:35:00Z</time>
      </trkpt>
      <trkpt lat="43.09254" lon="-1.600694">
        <time>2022-07-03T09:35:04Z</time>
      </trkpt>
      <trkpt lat="43.09253" lon="-1.6007693">
        <time>2022-07-03T09:35:08Z</time>
      </trkpt>
      <trkpt lat="43.092518" lon="-1.6008437">
        <time>2022-07-03T09:35:12Z</time>
      </trkpt>
      <trkpt lat="43.092503" lon="-1.6009146">
        <time>2022-07-03T09:35:16Z</time>
      </trkpt>
      <trkpt lat="43.092484" lon="-1.600989">
        <time>2022-07-03T09:35:20Z</time>
      </trkpt>
      <trkpt lat="43.092457" lon="-1.6010599">
        <time>2022-07-03T09:35:24Z</time>
      </trkpt>
      <trkpt lat="43.09244" lon="-1.6011482">
        <time>2022-07-03T09:35:29Z</time>
      </trkpt>
      <trkpt lat="43.092426" lon="-1.6012219">
        <time>2022-07-03T09:35:33Z</time>
      </trkpt>
      <trkpt lat="43.092422" lon="-1.6012896">
        <time>2022-07-03T09:35:37Z</time>
      </trkpt>
      <trkpt lat="43.0924" lon="-1.6013589">
        <time>2022-07-03T09:35:41Z</time>
      </trkpt>
      <trkpt lat="43.09236" lon="-1.6014223">
        <time>2022-07-03T09:35:45Z</time>
      </trkpt>
      <trkpt lat="43.09232" lon="-1.6014749">
        <time>2022-07-03T09:35:49Z</time>
      </trkpt>
      <trkpt lat="43.092278" lon="-1.6015289">
        <time>2022-07-03T09:35:53Z</time>
      </trkpt>
      <trkpt lat="43.092236" lon="-1.6015656">
        <time>2022-07-03T09:35:56Z</time>
      </trkpt>
      <trkpt lat="43.09219" lon="-1.6015996">
        <time>2022-07-03T09:36:00Z</time>
      </trkpt>
      <trkpt lat="43.092144" lon="-1.6016372">
        <time>2022-07-03T09:36:04Z</time>
      </trkpt>
      <trkpt lat="43.0921" lon="-1.6016805">
        <time>2022-07-03T09:36:08Z</time>
      </trkpt>
      <trkpt lat="43.09205" lon="-1.6017199">
        <time>2022-07-03T09:36:12Z</time>
      </trkpt>
      <trkpt lat="43.09199" lon="-1.6017622">
        <time>2022-07-03T09:36:16Z</time>
      </trkpt>
      <trkpt lat="43.09194" lon="-1.6018076">
        <time>2022-07-03T09:36:20Z</time>
      </trkpt>
      <trkpt lat="43.091892" lon="-1.6018488">
        <time>2022-07-03T09:36:24Z</time>
      </trkpt>
      <trkpt lat="43.09184" lon="-1.6018829">
        <time>2022-07-03T09:36:28Z</time>
      </trkpt>
      <trkpt lat="43.09178" lon="-1.6019192">
        <time>2022-07-03T09:36:32Z</time>
      </trkpt>
      <trkpt lat="43.09173" lon="-1.6019642">
        <time>2022-07-03T09:36:36Z</time>
      </trkpt>
      <trkpt lat="43.091686" lon="-1.6020029">
        <time>2022-07-03T09:36:40Z</time>
      </trkpt>
      <trkpt lat="43.091637" lon="-1.6020329">
        <time>2022-07-03T09:36:44Z</time>
      </trkpt>
      <trkpt lat="43.091587" lon="-1.6020648">
        <time>2022-07-03T09:36:48Z</time>
      </trkpt>
      <trkpt lat="43.09153" lon="-1.6021003">
        <time>2022-07-03T09:36:52Z</time>
      </trkpt>
      <trkpt lat="43.09148" lon="-1.6021432">
        <time>2022-07-03T09:36:56Z</time>
      </trkpt>
      <trkpt lat="43.091434" lon="-1.6021845">
        <time>2022-07-03T09:37:00Z</time>
      </trkpt>
      <trkpt lat="43.09138" lon="-1.6022189">
        <time>2022-07-03T09:37:04Z</time>
      </trkpt>
      <trkpt lat="43.09133" lon="-1.6022528">
        <time>2022-07-03T09:37:08Z</time>
      </trkpt>
      <trkpt lat="43.091293" lon="-1.6022999">
        <time>2022-07-03T09:37:12Z</time>
      </trkpt>
      <trkpt lat="43.09124" lon="-1.6023295">
        <time>2022-07-03T09:37:16Z</time>
      </trkpt>
      <trkpt lat="43.09119" lon="-1.6023662">
        <time>2022-07-03T09:37:20Z</time>
      </trkpt>
      <trkpt lat="43.09115" lon="-1.6024011">
        <time>2022-07-03T09:37:23Z</time>
      </trkpt>
      <trkpt lat="43.091103" lon="-1.6024518">
        <time>2022-07-03T09:37:27Z</time>
      </trkpt>
      <trkpt lat="43.091057" lon="-1.6025099">
        <time>2022-07-03T09:37:32Z</time>
      </trkpt>
      <trkpt lat="43.091022" lon="-1.6025596">
        <time>2022-07-03T09:37:35Z</time>
      </trkpt>
      <trkpt lat="43.09098" lon="-1.6026052">
        <time>2022-07-03T09:37:38Z</time>
      </trkpt>
      <trkpt lat="43.0909" lon="-1.6027049">
        <time>2022-07-03T09:39:02Z</time>
      </trkpt>
      <trkpt lat="43.09085" lon="-1.6027645">
        <time>2022-07-03T09:39:06Z</time>
      </trkpt>
      <trkpt lat="43.09081" lon="-1.6028205">
        <time>2022-07-03T09:39:09Z</time>
      </trkpt>
      <trkpt lat="43.090767" lon="-1.6028792">
        <time>2022-07-03T09:39:12Z</time>
      </trkpt>
      <trkpt lat="43.090733" lon="-1.6029391">
        <time>2022-07-03T09:39:15Z</time>
      </trkpt>
      <trkpt lat="43.090694" lon="-1.6030022">
        <time>2022-07-03T09:39:18Z</time>
      </trkpt>
      <trkpt lat="43.090656" lon="-1.6030575">
        <time>2022-07-03T09:39:21Z</time>
      </trkpt>
      <trkpt lat="43.090614" lon="-1.6031061">
        <time>2022-07-03T09:39:24Z</time>
      </trkpt>
      <trkpt lat="43.09058" lon="-1.6031405">
        <time>2022-07-03T09:39:27Z</time>
      </trkpt>
      <trkpt lat="43.090534" lon="-1.6031998">
        <time>2022-07-03T09:39:32Z</time>
      </trkpt>
      <trkpt lat="43.090504" lon="-1.6032648">
        <time>2022-07-03T09:39:36Z</time>
      </trkpt>
      <trkpt lat="43.090466" lon="-1.6033227">
        <time>2022-07-03T09:39:40Z</time>
      </trkpt>
      <trkpt lat="43.09043" lon="-1.6033918">
        <time>2022-07-03T09:39:44Z</time>
      </trkpt>
      <trkpt lat="43.090397" lon="-1.6034487">
        <time>2022-07-03T09:39:48Z</time>
      </trkpt>
      <trkpt lat="43.090363" lon="-1.6034977">
        <time>2022-07-03T09:39:52Z</time>
      </trkpt>
      <trkpt lat="43.090324" lon="-1.6035532">
        <time>2022-07-03T09:39:56Z</time>
      </trkpt>
      <trkpt lat="43.09029" lon="-1.6036152">
        <time>2022-07-03T09:40:00Z</time>
      </trkpt>
      <trkpt lat="43.09026" lon="-1.6036825">
        <time>2022-07-03T09:40:04Z</time>
      </trkpt>
      <trkpt lat="43.090233" lon="-1.6037561">
        <time>2022-07-03T09:40:08Z</time>
      </trkpt>
      <trkpt lat="43.090202" lon="-1.6038195">
        <time>2022-07-03T09:40:12Z</time>
      </trkpt>
      <trkpt lat="43.090183" lon="-1.6038995">
        <time>2022-07-03T09:40:16Z</time>
      </trkpt>
      <trkpt lat="43.090202" lon="-1.6039782">
        <time>2022-07-03T09:40:20Z</time>
      </trkpt>
      <trkpt lat="43.090237" lon="-1.6040448">
        <time>2022-07-03T09:40:24Z</time>
      </trkpt>
      <trkpt lat="43.09028" lon="-1.6040931">
        <time>2022-07-03T09:40:28Z</time>
      </trkpt>
      <trkpt lat="43.090332" lon="-1.6041151">
        <time>2022-07-03T09:40:32Z</time>
      </trkpt>
      <trkpt lat="43.09039" lon="-1.6041138">
        <time>2022-07-03T09:40:36Z</time>
      </trkpt>
      <trkpt lat="43.090446" lon="-1.6041224">
        <time>2022-07-03T09:40:40Z</time>
      </trkpt>
      <trkpt lat="43.0905" lon="-1.6041348">
        <time>2022-07-03T09:40:44Z</time>
      </trkpt>
      <trkpt lat="43.090557" lon="-1.6041524">
        <time>2022-07-03T09:40:48Z</time>
      </trkpt>
      <trkpt lat="43.090614" lon="-1.6041751">
        <time>2022-07-03T09:40:52Z</time>
      </trkpt>
      <trkpt lat="43.090675" lon="-1.6041898">
        <time>2022-07-03T09:40:56Z</time>
      </trkpt>
      <trkpt lat="43.090733" lon="-1.6041987">
        <time>2022-07-03T09:41:00Z</time>
      </trkpt>
      <trkpt lat="43.090782" lon="-1.6042295">
        <time>2022-07-03T09:41:04Z</time>
      </trkpt>
      <trkpt lat="43.09082" lon="-1.6042714">
        <time>2022-07-03T09:41:08Z</time>
      </trkpt>
      <trkpt lat="43.09087" lon="-1.6043217">
        <time>2022-07-03T09:41:13Z</time>
      </trkpt>
      <trkpt lat="43.09089" lon="-1.6043817">
        <time>2022-07-03T09:41:20Z</time>
      </trkpt>
      <trkpt lat="43.09095" lon="-1.604416">
        <time>2022-07-03T09:42:06Z</time>
      </trkpt>
      <trkpt lat="43.091007" lon="-1.6044497">
        <time>2022-07-03T09:42:10Z</time>
      </trkpt>
      <trkpt lat="43.091045" lon="-1.6044878">
        <time>2022-07-03T09:42:13Z</time>
      </trkpt>
      <trkpt lat="43.09109" lon="-1.60454">
        <time>2022-07-03T09:42:17Z</time>
      </trkpt>
      <trkpt lat="43.09115" lon="-1.6046064">
        <time>2022-07-03T09:42:22Z</time>
      </trkpt>
      <trkpt lat="43.09119" lon="-1.604657">
        <time>2022-07-03T09:42:26Z</time>
      </trkpt>
      <trkpt lat="43.091225" lon="-1.6047114">
        <time>2022-07-03T09:42:30Z</time>
      </trkpt>
      <trkpt lat="43.091255" lon="-1.6047767">
        <time>2022-07-03T09:42:34Z</time>
      </trkpt>
      <trkpt lat="43.09128" lon="-1.6048497">
        <time>2022-07-03T09:42:38Z</time>
      </trkpt>
      <trkpt lat="43.091305" lon="-1.6049213">
        <time>2022-07-03T09:42:42Z</time>
      </trkpt>
      <trkpt lat="43.091316" lon="-1.6049987">
        <time>2022-07-03T09:42:46Z</time>
      </trkpt>
      <trkpt lat="43.09131" lon="-1.6050804">
        <time>2022-07-03T09:42:50Z</time>
      </trkpt>
      <trkpt lat="43.09129" lon="-1.60516">
        <time>2022-07-03T09:42:54Z</time>
      </trkpt>
      <trkpt lat="43.09125" lon="-1.6052327">
        <time>2022-07-03T09:42:58Z</time>
      </trkpt>
      <trkpt lat="43.09121" lon="-1.6052897">
        <time>2022-07-03T09:43:02Z</time>
      </trkpt>
      <trkpt lat="43.091167" lon="-1.605334">
        <time>2022-07-03T09:43:06Z</time>
      </trkpt>
      <trkpt lat="43.091118" lon="-1.6053996">
        <time>2022-07-03T09:43:11Z</time>
      </trkpt>
      <trkpt lat="43.09108" lon="-1.6054584">
        <time>2022-07-03T09:43:14Z</time>
      </trkpt>
      <trkpt lat="43.091038" lon="-1.6055213">
        <time>2022-07-03T09:43:17Z</time>
      </trkpt>
      <trkpt lat="43.09098" lon="-1.6055766">
        <time>2022-07-03T09:43:20Z</time>
      </trkpt>
      <trkpt lat="43.090923" lon="-1.6056406">
        <time>2022-07-03T09:43:23Z</time>
      </trkpt>
      <trkpt lat="43.09088" lon="-1.6056753">
        <time>2022-07-03T09:43:25Z</time>
      </trkpt>
      <trkpt lat="43.09083" lon="-1.6057119">
        <time>2022-07-03T09:43:28Z</time>
      </trkpt>
      <trkpt lat="43.090794" lon="-1.6057407">
        <time>2022-07-03T09:43:33Z</time>
      </trkpt>
      <trkpt lat="43.09072" lon="-1.6057416">
        <time>2022-07-03T09:44:19Z</time>
      </trkpt>
      <trkpt lat="43.090656" lon="-1.6057466">
        <time>2022-07-03T09:44:22Z</time>
      </trkpt>
      <trkpt lat="43.09059" lon="-1.605753">
        <time>2022-07-03T09:44:25Z</time>
      </trkpt>
      <trkpt lat="43.090527" lon="-1.6057733">
        <time>2022-07-03T09:44:28Z</time>
      </trkpt>
      <trkpt lat="43.090466" lon="-1.6057926">
        <time>2022-07-03T09:44:31Z</time>
      </trkpt>
      <trkpt lat="43.090397" lon="-1.6058086">
        <time>2022-07-03T09:44:34Z</time>
      </trkpt>
      <trkpt lat="43.090332" lon="-1.6058276">
        <time>2022-07-03T09:44:37Z</time>
      </trkpt>
      <trkpt lat="43.090267" lon="-1.6058426">
        <time>2022-07-03T09:44:40Z</time>
      </trkpt>
      <trkpt lat="43.090195" lon="-1.6058639">
        <time>2022-07-03T09:44:43Z</time>
      </trkpt>
      <trkpt lat="43.090122" lon="-1.6058893">
        <time>2022-07-03T09:44:46Z</time>
      </trkpt>
      <trkpt lat="43.090054" lon="-1.6059123">
        <time>2022-07-03T09:44:49Z</time>
      </trkpt>
      <trkpt lat="43.08998" lon="-1.6059436">
        <time>2022-07-03T09:44:52Z</time>
      </trkpt>
      <trkpt lat="43.08994" lon="-1.6059543">
        <time>2022-07-03T09:44:54Z</time>
      </trkpt>
      <trkpt lat="43.089874" lon="-1.6059773">
        <time>2022-07-03T09:44:57Z</time>
      </trkpt>
      <trkpt lat="43.089817" lon="-1.6059949">
        <time>2022-07-03T09:45:00Z</time>
      </trkpt>
      <trkpt lat="43.089764" lon="-1.6060086">
        <time>2022-07-03T09:45:03Z</time>
      </trkpt>
      <trkpt lat="43.0897" lon="-1.6060206">
        <time>2022-07-03T09:45:07Z</time>
      </trkpt>
      <trkpt lat="43.08965" lon="-1.6060373">
        <time>2022-07-03T09:45:10Z</time>
      </trkpt>
      <trkpt lat="43.08958" lon="-1.6060575">
        <time>2022-07-03T09:45:14Z</time>
      </trkpt>
      <trkpt lat="43.089527" lon="-1.6060696">
        <time>2022-07-03T09:45:17Z</time>
      </trkpt>
      <trkpt lat="43.089474" lon="-1.6060846">
        <time>2022-07-03T09:45:20Z</time>
      </trkpt>
      <trkpt lat="43.089428" lon="-1.6061063">
        <time>2022-07-03T09:45:23Z</time>
      </trkpt>
      <trkpt lat="43.089375" lon="-1.6061165">
        <time>2022-07-03T09:45:26Z</time>
      </trkpt>
      <trkpt lat="43.08932" lon="-1.6061199">
        <time>2022-07-03T09:45:29Z</time>
      </trkpt>
      <trkpt lat="43.08926" lon="-1.6061362">
        <time>2022-07-03T09:45:33Z</time>
      </trkpt>
      <trkpt lat="43.089203" lon="-1.6061655">
        <time>2022-07-03T09:45:37Z</time>
      </trkpt>
      <trkpt lat="43.089146" lon="-1.6061972">
        <time>2022-07-03T09:45:41Z</time>
      </trkpt>
      <trkpt lat="43.08909" lon="-1.6062329">
        <time>2022-07-03T09:45:45Z</time>
      </trkpt>
      <trkpt lat="43.089035" lon="-1.6062745">
        <time>2022-07-03T09:45:49Z</time>
      </trkpt>
      <trkpt lat="43.088993" lon="-1.6063052">
        <time>2022-07-03T09:45:52Z</time>
      </trkpt>
      <trkpt lat="43.089005" lon="-1.6062689">
        <time>2022-07-03T09:46:34Z</time>
      </trkpt>
      <trkpt lat="43.08907" lon="-1.6062108">
        <time>2022-07-03T09:46:37Z</time>
      </trkpt>
      <trkpt lat="43.08912" lon="-1.6061715">
        <time>2022-07-03T09:46:39Z</time>
      </trkpt>
      <trkpt lat="43.08918" lon="-1.6061352">
        <time>2022-07-03T09:46:41Z</time>
      </trkpt>
      <trkpt lat="43.08924" lon="-1.6061035">
        <time>2022-07-03T09:46:43Z</time>
      </trkpt>
      <trkpt lat="43.089317" lon="-1.606072">
        <time>2022-07-03T09:46:45Z</time>
      </trkpt>
      <trkpt lat="43.089397" lon="-1.6060408">
        <time>2022-07-03T09:46:47Z</time>
      </trkpt>
      <trkpt lat="43.089474" lon="-1.6060122">
        <time>2022-07-03T09:46:49Z</time>
      </trkpt>
      <trkpt lat="43.089546" lon="-1.6059875">
        <time>2022-07-03T09:46:51Z</time>
      </trkpt>
      <trkpt lat="43.08961" lon="-1.6059673">
        <time>2022-07-03T09:46:53Z</time>
      </trkpt>
      <trkpt lat="43.08967" lon="-1.6059486">
        <time>2022-07-03T09:46:55Z</time>
      </trkpt>
      <trkpt lat="43.089725" lon="-1.6059322">
        <time>2022-07-03T09:46:57Z</time>
      </trkpt>
      <trkpt lat="43.089775" lon="-1.6059196">
        <time>2022-07-03T09:46:59Z</time>
      </trkpt>
      <trkpt lat="43.089825" lon="-1.6059092">
        <time>2022-07-03T09:47:01Z</time>
      </trkpt>
      <trkpt lat="43.0899" lon="-1.6058979">
        <time>2022-07-03T09:47:04Z</time>
      </trkpt>
      <trkpt lat="43.089962" lon="-1.6058916">
        <time>2022-07-03T09:47:07Z</time>
      </trkpt>
      <trkpt lat="43.090023" lon="-1.6058933">
        <time>2022-07-03T09:47:11Z</time>
      </trkpt>
      <trkpt lat="43.090076" lon="-1.6059072">
        <time>2022-07-03T09:47:15Z</time>
      </trkpt>
      <trkpt lat="43.09022" lon="-1.6058416">
        <time>2022-07-03T09:48:14Z</time>
      </trkpt>
      <trkpt lat="43.09028" lon="-1.6058223">
        <time>2022-07-03T09:48:16Z</time>
      </trkpt>
      <trkpt lat="43.090332" lon="-1.6057966">
        <time>2022-07-03T09:48:18Z</time>
      </trkpt>
      <trkpt lat="43.090378" lon="-1.6057683">
        <time>2022-07-03T09:48:20Z</time>
      </trkpt>
      <trkpt lat="43.09043" lon="-1.6057177">
        <time>2022-07-03T09:48:23Z</time>
      </trkpt>
      <trkpt lat="43.090466" lon="-1.605631">
        <time>2022-07-03T09:48:26Z</time>
      </trkpt>
      <trkpt lat="43.09047" lon="-1.6055593">
        <time>2022-07-03T09:48:28Z</time>
      </trkpt>
      <trkpt lat="43.09047" lon="-1.6054943">
        <time>2022-07-03T09:48:30Z</time>
      </trkpt>
      <trkpt lat="43.09047" lon="-1.6054547">
        <time>2022-07-03T09:48:35Z</time>
      </trkpt>
      <trkpt lat="43.090405" lon="-1.6055549">
        <time>2022-07-03T09:58:07Z</time>
      </trkpt>
      <trkpt lat="43.090412" lon="-1.6056213">
        <time>2022-07-03T09:58:12Z</time>
      </trkpt>
      <trkpt lat="43.09045" lon="-1.6056947">
        <time>2022-07-03T09:58:17Z</time>
      </trkpt>
      <trkpt lat="43.090496" lon="-1.6057507">
        <time>2022-07-03T09:58:22Z</time>
      </trkpt>
      <trkpt lat="43.09056" lon="-1.605776">
        <time>2022-07-03T09:58:26Z</time>
      </trkpt>
      <trkpt lat="43.090607" lon="-1.6057893">
        <time>2022-07-03T09:58:29Z</time>
      </trkpt>
      <trkpt lat="43.090668" lon="-1.6058023">
        <time>2022-07-03T09:58:33Z</time>
      </trkpt>
      <trkpt lat="43.090755" lon="-1.6057583">
        <time>2022-07-03T10:00:40Z</time>
      </trkpt>
      <trkpt lat="43.090702" lon="-1.6057603">
        <time>2022-07-03T10:00:44Z</time>
      </trkpt>
      <trkpt lat="43.09065" lon="-1.605776">
        <time>2022-07-03T10:00:48Z</time>
      </trkpt>
      <trkpt lat="43.09058" lon="-1.6057982">
        <time>2022-07-03T10:00:52Z</time>
      </trkpt>
      <trkpt lat="43.090523" lon="-1.6058129">
        <time>2022-07-03T10:00:55Z</time>
      </trkpt>
      <trkpt lat="43.09047" lon="-1.6058216">
        <time>2022-07-03T10:00:58Z</time>
      </trkpt>
      <trkpt lat="43.090412" lon="-1.60583">
        <time>2022-07-03T10:01:01Z</time>
      </trkpt>
      <trkpt lat="43.090363" lon="-1.605837">
        <time>2022-07-03T10:01:04Z</time>
      </trkpt>
      <trkpt lat="43.090305" lon="-1.6058359">
        <time>2022-07-03T10:01:07Z</time>
      </trkpt>
      <trkpt lat="43.09025" lon="-1.6058466">
        <time>2022-07-03T10:01:10Z</time>
      </trkpt>
      <trkpt lat="43.090195" lon="-1.6058673">
        <time>2022-07-03T10:01:13Z</time>
      </trkpt>
      <trkpt lat="43.090145" lon="-1.6058786">
        <time>2022-07-03T10:01:16Z</time>
      </trkpt>
      <trkpt lat="43.090084" lon="-1.6059003">
        <time>2022-07-03T10:01:20Z</time>
      </trkpt>
      <trkpt lat="43.090023" lon="-1.6059139">
        <time>2022-07-03T10:01:24Z</time>
      </trkpt>
      <trkpt lat="43.08997" lon="-1.6059246">
        <time>2022-07-03T10:01:27Z</time>
      </trkpt>
      <trkpt lat="43.089905" lon="-1.6059296">
        <time>2022-07-03T10:01:31Z</time>
      </trkpt>
      <trkpt lat="43.08986" lon="-1.6059335">
        <time>2022-07-03T10:01:34Z</time>
      </trkpt>
      <trkpt lat="43.089794" lon="-1.6059632">
        <time>2022-07-03T10:01:38Z</time>
      </trkpt>
      <trkpt lat="43.089733" lon="-1.6059916">
        <time>2022-07-03T10:01:42Z</time>
      </trkpt>
      <trkpt lat="43.089684" lon="-1.6060048">
        <time>2022-07-03T10:01:45Z</time>
      </trkpt>
      <trkpt lat="43.08962" lon="-1.6060162">
        <time>2022-07-03T10:01:49Z</time>
      </trkpt>
      <trkpt lat="43.089558" lon="-1.6060315">
        <time>2022-07-03T10:01:53Z</time>
      </trkpt>
      <trkpt lat="43.089497" lon="-1.6060479">
        <time>2022-07-03T10:01:57Z</time>
      </trkpt>
      <trkpt lat="43.08943" lon="-1.6060612">
        <time>2022-07-03T10:02:01Z</time>
      </trkpt>
      <trkpt lat="43.089367" lon="-1.6060748">
        <time>2022-07-03T10:02:05Z</time>
      </trkpt>
      <trkpt lat="43.089302" lon="-1.6060852">
        <time>2022-07-03T10:02:09Z</time>
      </trkpt>
      <trkpt lat="43.089256" lon="-1.6061032">
        <time>2022-07-03T10:02:12Z</time>
      </trkpt>
      <trkpt lat="43.0892" lon="-1.6061379">
        <time>2022-07-03T10:02:16Z</time>
      </trkpt>
      <trkpt lat="43.08915" lon="-1.6061726">
        <time>2022-07-03T10:02:19Z</time>
      </trkpt>
      <trkpt lat="43.089096" lon="-1.6062065">
        <time>2022-07-03T10:02:22Z</time>
      </trkpt>
      <trkpt lat="43.089046" lon="-1.6062412">
        <time>2022-07-03T10:02:25Z</time>
      </trkpt>
      <trkpt lat="43.088997" lon="-1.6062799">
        <time>2022-07-03T10:02:28Z</time>
      </trkpt>
      <trkpt lat="43.088943" lon="-1.6063168">
        <time>2022-07-03T10:02:31Z</time>
      </trkpt>
      <trkpt lat="43.08888" lon="-1.6063641">
        <time>2022-07-03T10:02:34Z</time>
      </trkpt>
      <trkpt lat="43.088833" lon="-1.6064018">
        <time>2022-07-03T10:02:36Z</time>
      </trkpt>
      <trkpt lat="43.08877" lon="-1.6064465">
        <time>2022-07-03T10:02:38Z</time>
      </trkpt>
      <trkpt lat="43.088703" lon="-1.6064965">
        <time>2022-07-03T10:02:40Z</time>
      </trkpt>
      <trkpt lat="43.08863" lon="-1.6065499">
        <time>2022-07-03T10:02:42Z</time>
      </trkpt>
      <trkpt lat="43.08856" lon="-1.6066061">
        <time>2022-07-03T10:02:44Z</time>
      </trkpt>
      <trkpt lat="43.088486" lon="-1.6066577">
        <time>2022-07-03T10:02:46Z</time>
      </trkpt>
      <trkpt lat="43.08842" lon="-1.6067052">
        <time>2022-07-03T10:02:48Z</time>
      </trkpt>
      <trkpt lat="43.08836" lon="-1.6067498">
        <time>2022-07-03T10:02:50Z</time>
      </trkpt>
      <trkpt lat="43.088306" lon="-1.6067871">
        <time>2022-07-03T10:02:52Z</time>
      </trkpt>
      <trkpt lat="43.08826" lon="-1.6068225">
        <time>2022-07-03T10:02:54Z</time>
      </trkpt>
      <trkpt lat="43.0882" lon="-1.6068738">
        <time>2022-07-03T10:02:57Z</time>
      </trkpt>
      <trkpt lat="43.088146" lon="-1.6069098">
        <time>2022-07-03T10:03:00Z</time>
      </trkpt>
      <trkpt lat="43.088097" lon="-1.6069351">
        <time>2022-07-03T10:03:03Z</time>
      </trkpt>
      <trkpt lat="43.088047" lon="-1.6069565">
        <time>2022-07-03T10:03:06Z</time>
      </trkpt>
      <trkpt lat="43.087986" lon="-1.6069845">
        <time>2022-07-03T10:03:10Z</time>
      </trkpt>
      <trkpt lat="43.087936" lon="-1.6070077">
        <time>2022-07-03T10:03:13Z</time>
      </trkpt>
      <trkpt lat="43.08789" lon="-1.6070257">
        <time>2022-07-03T10:03:16Z</time>
      </trkpt>
      <trkpt lat="43.087833" lon="-1.6070604">
        <time>2022-07-03T10:03:20Z</time>
      </trkpt>
      <trkpt lat="43.087788" lon="-1.6070981">
        <time>2022-07-03T10:03:23Z</time>
      </trkpt>
      <trkpt lat="43.08774" lon="-1.6071321">
        <time>2022-07-03T10:03:26Z</time>
      </trkpt>
      <trkpt lat="43.08769" lon="-1.6071764">
        <time>2022-07-03T10:03:30Z</time>
      </trkpt>
      <trkpt lat="43.087627" lon="-1.6072261">
        <time>2022-07-03T10:03:34Z</time>
      </trkpt>
      <trkpt lat="43.08758" lon="-1.6072518">
        <time>2022-07-03T10:03:37Z</time>
      </trkpt>
      <trkpt lat="43.087524" lon="-1.6072848">
        <time>2022-07-03T10:03:41Z</time>
      </trkpt>
      <trkpt lat="43.08747" lon="-1.607321">
        <time>2022-07-03T10:03:45Z</time>
      </trkpt>
      <trkpt lat="43.087414" lon="-1.607362">
        <time>2022-07-03T10:03:49Z</time>
      </trkpt>
      <trkpt lat="43.087357" lon="-1.6074041">
        <time>2022-07-03T10:03:53Z</time>
      </trkpt>
      <trkpt lat="43.08731" lon="-1.6074318">
        <time>2022-07-03T10:03:56Z</time>
      </trkpt>
      <trkpt lat="43.08725" lon="-1.6074758">
        <time>2022-07-03T10:04:00Z</time>
      </trkpt>
      <trkpt lat="43.08721" lon="-1.6075094">
        <time>2022-07-03T10:04:03Z</time>
      </trkpt>
      <trkpt lat="43.087154" lon="-1.6075467">
        <time>2022-07-03T10:04:07Z</time>
      </trkpt>
      <trkpt lat="43.08709" lon="-1.6075877">
        <time>2022-07-03T10:04:11Z</time>
      </trkpt>
      <trkpt lat="43.087044" lon="-1.6076217">
        <time>2022-07-03T10:04:14Z</time>
      </trkpt>
      <trkpt lat="43.086998" lon="-1.6076458">
        <time>2022-07-03T10:04:17Z</time>
      </trkpt>
      <trkpt lat="43.08694" lon="-1.6076754">
        <time>2022-07-03T10:04:21Z</time>
      </trkpt>
      <trkpt lat="43.08688" lon="-1.6077003">
        <time>2022-07-03T10:04:25Z</time>
      </trkpt>
      <trkpt lat="43.086815" lon="-1.6077217">
        <time>2022-07-03T10:04:29Z</time>
      </trkpt>
      <trkpt lat="43.086754" lon="-1.6077371">
        <time>2022-07-03T10:04:33Z</time>
      </trkpt>
      <trkpt lat="43.08669" lon="-1.6077564">
        <time>2022-07-03T10:04:38Z</time>
      </trkpt>
      <trkpt lat="43.08663" lon="-1.6077707">
        <time>2022-07-03T10:04:41Z</time>
      </trkpt>
      <trkpt lat="43.08658" lon="-1.607784">
        <time>2022-07-03T10:04:44Z</time>
      </trkpt>
      <trkpt lat="43.086533" lon="-1.607793">
        <time>2022-07-03T10:04:47Z</time>
      </trkpt>
      <trkpt lat="43.086468" lon="-1.6077961">
        <time>2022-07-03T10:04:51Z</time>
      </trkpt>
      <trkpt lat="43.086407" lon="-1.6077927">
        <time>2022-07-03T10:04:55Z</time>
      </trkpt>
      <trkpt lat="43.08634" lon="-1.6078117">
        <time>2022-07-03T10:04:59Z</time>
      </trkpt>
      <trkpt lat="43.086277" lon="-1.6078191">
        <time>2022-07-03T10:05:03Z</time>
      </trkpt>
      <trkpt lat="43.086212" lon="-1.60782">
        <time>2022-07-03T10:05:07Z</time>
      </trkpt>
      <trkpt lat="43.086166" lon="-1.607813">
        <time>2022-07-03T10:05:10Z</time>
      </trkpt>
      <trkpt lat="43.0861" lon="-1.607803">
        <time>2022-07-03T10:05:14Z</time>
      </trkpt>
      <trkpt lat="43.08604" lon="-1.6077967">
        <time>2022-07-03T10:05:18Z</time>
      </trkpt>
      <trkpt lat="43.085995" lon="-1.607797">
        <time>2022-07-03T10:05:21Z</time>
      </trkpt>
      <trkpt lat="43.085934" lon="-1.6077911">
        <time>2022-07-03T10:05:25Z</time>
      </trkpt>
      <trkpt lat="43.08588" lon="-1.6077753">
        <time>2022-07-03T10:05:29Z</time>
      </trkpt>
      <trkpt lat="43.085823" lon="-1.6077567">
        <time>2022-07-03T10:05:33Z</time>
      </trkpt>
      <trkpt lat="43.085766" lon="-1.607745">
        <time>2022-07-03T10:05:37Z</time>
      </trkpt>
      <trkpt lat="43.08571" lon="-1.6077477">
        <time>2022-07-03T10:05:41Z</time>
      </trkpt>
      <trkpt lat="43.085648" lon="-1.607751">
        <time>2022-07-03T10:05:45Z</time>
      </trkpt>
      <trkpt lat="43.08559" lon="-1.60774">
        <time>2022-07-03T10:05:49Z</time>
      </trkpt>
      <trkpt lat="43.085526" lon="-1.6077424">
        <time>2022-07-03T10:05:53Z</time>
      </trkpt>
      <trkpt lat="43.08547" lon="-1.6077471">
        <time>2022-07-03T10:05:57Z</time>
      </trkpt>
      <trkpt lat="43.08541" lon="-1.6077437">
        <time>2022-07-03T10:06:01Z</time>
      </trkpt>
      <trkpt lat="43.08535" lon="-1.6077456">
        <time>2022-07-03T10:06:06Z</time>
      </trkpt>
      <trkpt lat="43.085293" lon="-1.6077551">
        <time>2022-07-03T10:06:10Z</time>
      </trkpt>
      <trkpt lat="43.085224" lon="-1.6077551">
        <time>2022-07-03T10:06:15Z</time>
      </trkpt>
      <trkpt lat="43.08517" lon="-1.607751">
        <time>2022-07-03T10:06:19Z</time>
      </trkpt>
      <trkpt lat="43.085117" lon="-1.6077597">
        <time>2022-07-03T10:06:23Z</time>
      </trkpt>
      <trkpt lat="43.08506" lon="-1.6077647">
        <time>2022-07-03T10:06:27Z</time>
      </trkpt>
      <trkpt lat="43.085003" lon="-1.6077667">
        <time>2022-07-03T10:06:31Z</time>
      </trkpt>
      <trkpt lat="43.08495" lon="-1.607771">
        <time>2022-07-03T10:06:35Z</time>
      </trkpt>
      <trkpt lat="43.08489" lon="-1.607772">
        <time>2022-07-03T10:06:39Z</time>
      </trkpt>
      <trkpt lat="43.084827" lon="-1.6077714">
        <time>2022-07-03T10:06:43Z</time>
      </trkpt>
      <trkpt lat="43.084766" lon="-1.607786">
        <time>2022-07-03T10:06:47Z</time>
      </trkpt>
      <trkpt lat="43.084713" lon="-1.6077954">
        <time>2022-07-03T10:06:52Z</time>
      </trkpt>
      <trkpt lat="43.084656" lon="-1.607807">
        <time>2022-07-03T10:06:56Z</time>
      </trkpt>
      <trkpt lat="43.0846" lon="-1.607815">
        <time>2022-07-03T10:07:00Z</time>
      </trkpt>
      <trkpt lat="43.084538" lon="-1.6078217">
        <time>2022-07-03T10:07:04Z</time>
      </trkpt>
      <trkpt lat="43.084476" lon="-1.607828">
        <time>2022-07-03T10:07:08Z</time>
      </trkpt>
      <trkpt lat="43.08442" lon="-1.6078393">
        <time>2022-07-03T10:07:12Z</time>
      </trkpt>
      <trkpt lat="43.084366" lon="-1.607845">
        <time>2022-07-03T10:07:16Z</time>
      </trkpt>
      <trkpt lat="43.08431" lon="-1.6078563">
        <time>2022-07-03T10:07:20Z</time>
      </trkpt>
      <trkpt lat="43.08425" lon="-1.6078657">
        <time>2022-07-03T10:07:24Z</time>
      </trkpt>
      <trkpt lat="43.084194" lon="-1.6078757">
        <time>2022-07-03T10:07:28Z</time>
      </trkpt>
      <trkpt lat="43.084145" lon="-1.607886">
        <time>2022-07-03T10:07:32Z</time>
      </trkpt>
      <trkpt lat="43.08409" lon="-1.6078917">
        <time>2022-07-03T10:07:36Z</time>
      </trkpt>
      <trkpt lat="43.08404" lon="-1.6078984">
        <time>2022-07-03T10:07:40Z</time>
      </trkpt>
      <trkpt lat="43.083984" lon="-1.607901">
        <time>2022-07-03T10:07:44Z</time>
      </trkpt>
      <trkpt lat="43.08393" lon="-1.607916">
        <time>2022-07-03T10:07:48Z</time>
      </trkpt>
      <trkpt lat="43.083874" lon="-1.6079286">
        <time>2022-07-03T10:07:52Z</time>
      </trkpt>
      <trkpt lat="43.083813" lon="-1.6079359">
        <time>2022-07-03T10:07:56Z</time>
      </trkpt>
      <trkpt lat="43.083755" lon="-1.6079413">
        <time>2022-07-03T10:08:00Z</time>
      </trkpt>
      <trkpt lat="43.083702" lon="-1.6079583">
        <time>2022-07-03T10:08:04Z</time>
      </trkpt>
      <trkpt lat="43.083645" lon="-1.6079789">
        <time>2022-07-03T10:08:08Z</time>
      </trkpt>
      <trkpt lat="43.08359" lon="-1.6080049">
        <time>2022-07-03T10:08:12Z</time>
      </trkpt>
      <trkpt lat="43.083534" lon="-1.608019">
        <time>2022-07-03T10:08:16Z</time>
      </trkpt>
      <trkpt lat="43.083477" lon="-1.6080173">
        <time>2022-07-03T10:08:20Z</time>
      </trkpt>
      <trkpt lat="43.083427" lon="-1.6080083">
        <time>2022-07-03T10:08:24Z</time>
      </trkpt>
      <trkpt lat="43.083363" lon="-1.6079746">
        <time>2022-07-03T10:08:29Z</time>
      </trkpt>
      <trkpt lat="43.083324" lon="-1.6079216">
        <time>2022-07-03T10:08:33Z</time>
      </trkpt>
      <trkpt lat="43.0833" lon="-1.6078583">
        <time>2022-07-03T10:08:37Z</time>
      </trkpt>
      <trkpt lat="43.0833" lon="-1.6077833">
        <time>2022-07-03T10:08:41Z</time>
      </trkpt>
      <trkpt lat="43.083313" lon="-1.607702">
        <time>2022-07-03T10:08:45Z</time>
      </trkpt>
      <trkpt lat="43.083336" lon="-1.6076243">
        <time>2022-07-03T10:08:49Z</time>
      </trkpt>
      <trkpt lat="43.083363" lon="-1.607548">
        <time>2022-07-03T10:08:53Z</time>
      </trkpt>
      <trkpt lat="43.083385" lon="-1.6074706">
        <time>2022-07-03T10:08:57Z</time>
      </trkpt>
      <trkpt lat="43.08341" lon="-1.607394">
        <time>2022-07-03T10:09:01Z</time>
      </trkpt>
      <trkpt lat="43.08342" lon="-1.6073303">
        <time>2022-07-03T10:09:05Z</time>
      </trkpt>
      <trkpt lat="43.083466" lon="-1.6072876">
        <time>2022-07-03T10:09:09Z</time>
      </trkpt>
      <trkpt lat="43.08354" lon="-1.6072793">
        <time>2022-07-03T10:09:13Z</time>
      </trkpt>
      <trkpt lat="43.083607" lon="-1.6073067">
        <time>2022-07-03T10:09:16Z</time>
      </trkpt>
      <trkpt lat="43.083652" lon="-1.6073387">
        <time>2022-07-03T10:09:18Z</time>
      </trkpt>
      <trkpt lat="43.083706" lon="-1.607372">
        <time>2022-07-03T10:09:21Z</time>
      </trkpt>
      <trkpt lat="43.0837" lon="-1.6073847">
        <time>2022-07-03T10:12:51Z</time>
      </trkpt>
      <trkpt lat="43.08364" lon="-1.60738">
        <time>2022-07-03T10:12:54Z</time>
      </trkpt>
      <trkpt lat="43.083588" lon="-1.607368">
        <time>2022-07-03T10:12:57Z</time>
      </trkpt>
      <trkpt lat="43.08354" lon="-1.6073279">
        <time>2022-07-03T10:13:00Z</time>
      </trkpt>
      <trkpt lat="43.083508" lon="-1.6072654">
        <time>2022-07-03T10:13:03Z</time>
      </trkpt>
      <trkpt lat="43.08349" lon="-1.6071897">
        <time>2022-07-03T10:13:06Z</time>
      </trkpt>
      <trkpt lat="43.083492" lon="-1.6071">
        <time>2022-07-03T10:13:09Z</time>
      </trkpt>
      <trkpt lat="43.083508" lon="-1.6070007">
        <time>2022-07-03T10:13:12Z</time>
      </trkpt>
      <trkpt lat="43.08372" lon="-1.6066707">
        <time>2022-07-03T10:13:21Z</time>
      </trkpt>
      <trkpt lat="43.083717" lon="-1.6066657">
        <time>2022-07-03T10:13:22Z</time>
      </trkpt>
      <trkpt lat="43.083755" lon="-1.6065637">
        <time>2022-07-03T10:13:27Z</time>
      </trkpt>
      <trkpt lat="43.08381" lon="-1.6065034">
        <time>2022-07-03T10:13:29Z</time>
      </trkpt>
      <trkpt lat="43.083862" lon="-1.6064533">
        <time>2022-07-03T10:13:31Z</time>
      </trkpt>
      <trkpt lat="43.083916" lon="-1.6064117">
        <time>2022-07-03T10:13:33Z</time>
      </trkpt>
      <trkpt lat="43.083965" lon="-1.6063807">
        <time>2022-07-03T10:13:35Z</time>
      </trkpt>
      <trkpt lat="43.08403" lon="-1.6063536">
        <time>2022-07-03T10:13:37Z</time>
      </trkpt>
      <trkpt lat="43.084106" lon="-1.6063293">
        <time>2022-07-03T10:13:39Z</time>
      </trkpt>
      <trkpt lat="43.08422" lon="-1.6062866">
        <time>2022-07-03T10:13:42Z</time>
      </trkpt>
      <trkpt lat="43.08429" lon="-1.6062506">
        <time>2022-07-03T10:13:44Z</time>
      </trkpt>
      <trkpt lat="43.08436" lon="-1.606225">
        <time>2022-07-03T10:13:46Z</time>
      </trkpt>
      <trkpt lat="43.084415" lon="-1.6062124">
        <time>2022-07-03T10:13:48Z</time>
      </trkpt>
      <trkpt lat="43.08447" lon="-1.6062114">
        <time>2022-07-03T10:13:50Z</time>
      </trkpt>
      <trkpt lat="43.08452" lon="-1.606225">
        <time>2022-07-03T10:13:52Z</time>
      </trkpt>
      <trkpt lat="43.084583" lon="-1.6062614">
        <time>2022-07-03T10:13:55Z</time>
      </trkpt>
      <trkpt lat="43.08464" lon="-1.6063007">
        <time>2022-07-03T10:13:58Z</time>
      </trkpt>
      <trkpt lat="43.08469" lon="-1.6063321">
        <time>2022-07-03T10:14:01Z</time>
      </trkpt>
      <trkpt lat="43.08474" lon="-1.606354">
        <time>2022-07-03T10:14:04Z</time>
      </trkpt>
      <trkpt lat="43.0848" lon="-1.6063896">
        <time>2022-07-03T10:14:08Z</time>
      </trkpt>
      <trkpt lat="43.084858" lon="-1.6064171">
        <time>2022-07-03T10:14:12Z</time>
      </trkpt>
      <trkpt lat="43.08492" lon="-1.6064247">
        <time>2022-07-03T10:14:16Z</time>
      </trkpt>
      <trkpt lat="43.084984" lon="-1.6064373">
        <time>2022-07-03T10:14:20Z</time>
      </trkpt>
      <trkpt lat="43.085033" lon="-1.606456">
        <time>2022-07-03T10:14:23Z</time>
      </trkpt>
      <trkpt lat="43.0851" lon="-1.606478">
        <time>2022-07-03T10:14:27Z</time>
      </trkpt>
      <trkpt lat="43.08516" lon="-1.6064956">
        <time>2022-07-03T10:14:30Z</time>
      </trkpt>
      <trkpt lat="43.08522" lon="-1.6065117">
        <time>2022-07-03T10:14:33Z</time>
      </trkpt>
      <trkpt lat="43.085285" lon="-1.6065216">
        <time>2022-07-03T10:14:36Z</time>
      </trkpt>
      <trkpt lat="43.08535" lon="-1.6065227">
        <time>2022-07-03T10:14:39Z</time>
      </trkpt>
      <trkpt lat="43.08542" lon="-1.606522">
        <time>2022-07-03T10:14:42Z</time>
      </trkpt>
      <trkpt lat="43.08548" lon="-1.6065177">
        <time>2022-07-03T10:14:45Z</time>
      </trkpt>
      <trkpt lat="43.08556" lon="-1.606505">
        <time>2022-07-03T10:14:49Z</time>
      </trkpt>
      <trkpt lat="43.08562" lon="-1.6064926">
        <time>2022-07-03T10:14:52Z</time>
      </trkpt>
      <trkpt lat="43.085682" lon="-1.6064774">
        <time>2022-07-03T10:14:55Z</time>
      </trkpt>
      <trkpt lat="43.085743" lon="-1.6064637">
        <time>2022-07-03T10:14:58Z</time>
      </trkpt>
      <trkpt lat="43.085804" lon="-1.6064503">
        <time>2022-07-03T10:15:01Z</time>
      </trkpt>
      <trkpt lat="43.085873" lon="-1.6064317">
        <time>2022-07-03T10:15:04Z</time>
      </trkpt>
      <trkpt lat="43.08594" lon="-1.606407">
        <time>2022-07-03T10:15:07Z</time>
      </trkpt>
      <trkpt lat="43.086002" lon="-1.606377">
        <time>2022-07-03T10:15:10Z</time>
      </trkpt>
      <trkpt lat="43.08606" lon="-1.6063604">
        <time>2022-07-03T10:15:13Z</time>
      </trkpt>
      <trkpt lat="43.08612" lon="-1.606336">
        <time>2022-07-03T10:15:16Z</time>
      </trkpt>
      <trkpt lat="43.08618" lon="-1.606309">
        <time>2022-07-03T10:15:19Z</time>
      </trkpt>
      <trkpt lat="43.086243" lon="-1.6062851">
        <time>2022-07-03T10:15:22Z</time>
      </trkpt>
      <trkpt lat="43.0863" lon="-1.6062638">
        <time>2022-07-03T10:15:25Z</time>
      </trkpt>
      <trkpt lat="43.086353" lon="-1.60624">
        <time>2022-07-03T10:15:28Z</time>
      </trkpt>
      <trkpt lat="43.08641" lon="-1.6062127">
        <time>2022-07-03T10:15:31Z</time>
      </trkpt>
      <trkpt lat="43.086468" lon="-1.6061774">
        <time>2022-07-03T10:15:34Z</time>
      </trkpt>
      <trkpt lat="43.08652" lon="-1.6061391">
        <time>2022-07-03T10:15:37Z</time>
      </trkpt>
      <trkpt lat="43.08657" lon="-1.6060841">
        <time>2022-07-03T10:15:40Z</time>
      </trkpt>
      <trkpt lat="43.086613" lon="-1.6060171">
        <time>2022-07-03T10:15:43Z</time>
      </trkpt>
      <trkpt lat="43.08662" lon="-1.6059414">
        <time>2022-07-03T10:15:46Z</time>
      </trkpt>
      <trkpt lat="43.0866" lon="-1.6058774">
        <time>2022-07-03T10:15:49Z</time>
      </trkpt>
      <trkpt lat="43.086544" lon="-1.6058247">
        <time>2022-07-03T10:15:53Z</time>
      </trkpt>
      <trkpt lat="43.08647" lon="-1.6058191">
        <time>2022-07-03T10:15:57Z</time>
      </trkpt>
      <trkpt lat="43.08641" lon="-1.6058284">
        <time>2022-07-03T10:16:00Z</time>
      </trkpt>
      <trkpt lat="43.08635" lon="-1.6058451">
        <time>2022-07-03T10:16:03Z</time>
      </trkpt>
      <trkpt lat="43.08629" lon="-1.6058631">
        <time>2022-07-03T10:16:06Z</time>
      </trkpt>
      <trkpt lat="43.08623" lon="-1.6058791">
        <time>2022-07-03T10:16:09Z</time>
      </trkpt>
      <trkpt lat="43.08618" lon="-1.6058887">
        <time>2022-07-03T10:16:12Z</time>
      </trkpt>
      <trkpt lat="43.086124" lon="-1.6058987">
        <time>2022-07-03T10:16:15Z</time>
      </trkpt>
      <trkpt lat="43.08607" lon="-1.605913">
        <time>2022-07-03T10:16:18Z</time>
      </trkpt>
      <trkpt lat="43.086014" lon="-1.6059251">
        <time>2022-07-03T10:16:21Z</time>
      </trkpt>
      <trkpt lat="43.085957" lon="-1.6059357">
        <time>2022-07-03T10:16:24Z</time>
      </trkpt>
      <trkpt lat="43.085903" lon="-1.605942">
        <time>2022-07-03T10:16:27Z</time>
      </trkpt>
      <trkpt lat="43.08585" lon="-1.6059554">
        <time>2022-07-03T10:16:30Z</time>
      </trkpt>
      <trkpt lat="43.0858" lon="-1.6059711">
        <time>2022-07-03T10:16:33Z</time>
      </trkpt>
      <trkpt lat="43.085747" lon="-1.6059817">
        <time>2022-07-03T10:16:36Z</time>
      </trkpt>
      <trkpt lat="43.085686" lon="-1.6059937">
        <time>2022-07-03T10:16:40Z</time>
      </trkpt>
      <trkpt lat="43.085632" lon="-1.606004">
        <time>2022-07-03T10:16:43Z</time>
      </trkpt>
      <trkpt lat="43.08557" lon="-1.606022">
        <time>2022-07-03T10:16:47Z</time>
      </trkpt>
      <trkpt lat="43.085503" lon="-1.60603">
        <time>2022-07-03T10:16:51Z</time>
      </trkpt>
      <trkpt lat="43.085445" lon="-1.6060303">
        <time>2022-07-03T10:16:54Z</time>
      </trkpt>
      <trkpt lat="43.085392" lon="-1.6060337">
        <time>2022-07-03T10:16:57Z</time>
      </trkpt>
      <trkpt lat="43.085342" lon="-1.6060383">
        <time>2022-07-03T10:17:00Z</time>
      </trkpt>
      <trkpt lat="43.08529" lon="-1.6060437">
        <time>2022-07-03T10:17:03Z</time>
      </trkpt>
      <trkpt lat="43.085224" lon="-1.606045">
        <time>2022-07-03T10:17:07Z</time>
      </trkpt>
      <trkpt lat="43.08518" lon="-1.6060383">
        <time>2022-07-03T10:17:10Z</time>
      </trkpt>
      <trkpt lat="43.085114" lon="-1.606026">
        <time>2022-07-03T10:17:14Z</time>
      </trkpt>
      <trkpt lat="43.085045" lon="-1.6060117">
        <time>2022-07-03T10:17:18Z</time>
      </trkpt>
      <trkpt lat="43.085" lon="-1.6060021">
        <time>2022-07-03T10:17:21Z</time>
      </trkpt>
      <trkpt lat="43.084938" lon="-1.6059871">
        <time>2022-07-03T10:17:25Z</time>
      </trkpt>
      <trkpt lat="43.084885" lon="-1.605973">
        <time>2022-07-03T10:17:28Z</time>
      </trkpt>
      <trkpt lat="43.084835" lon="-1.6059624">
        <time>2022-07-03T10:17:31Z</time>
      </trkpt>
      <trkpt lat="43.084774" lon="-1.6059418">
        <time>2022-07-03T10:17:35Z</time>
      </trkpt>
      <trkpt lat="43.084724" lon="-1.6059251">
        <time>2022-07-03T10:17:38Z</time>
      </trkpt>
      <trkpt lat="43.084656" lon="-1.6059047">
        <time>2022-07-03T10:17:42Z</time>
      </trkpt>
      <trkpt lat="43.084602" lon="-1.605898">
        <time>2022-07-03T10:17:45Z</time>
      </trkpt>
      <trkpt lat="43.084553" lon="-1.605895">
        <time>2022-07-03T10:17:48Z</time>
      </trkpt>
      <trkpt lat="43.084488" lon="-1.6058867">
        <time>2022-07-03T10:17:52Z</time>
      </trkpt>
      <trkpt lat="43.084427" lon="-1.605864">
        <time>2022-07-03T10:17:56Z</time>
      </trkpt>
      <trkpt lat="43.08437" lon="-1.6058507">
        <time>2022-07-03T10:18:00Z</time>
      </trkpt>
      <trkpt lat="43.084316" lon="-1.6058421">
        <time>2022-07-03T10:18:03Z</time>
      </trkpt>
      <trkpt lat="43.084263" lon="-1.6058384">
        <time>2022-07-03T10:18:06Z</time>
      </trkpt>
      <trkpt lat="43.084217" lon="-1.6058297">
        <time>2022-07-03T10:18:09Z</time>
      </trkpt>
      <trkpt lat="43.084156" lon="-1.6058078">
        <time>2022-07-03T10:18:13Z</time>
      </trkpt>
      <trkpt lat="43.084106" lon="-1.6057905">
        <time>2022-07-03T10:18:16Z</time>
      </trkpt>
      <trkpt lat="43.08404" lon="-1.6057771">
        <time>2022-07-03T10:18:20Z</time>
      </trkpt>
      <trkpt lat="43.083992" lon="-1.6057655">
        <time>2022-07-03T10:18:23Z</time>
      </trkpt>
      <trkpt lat="43.083935" lon="-1.6057664">
        <time>2022-07-03T10:18:26Z</time>
      </trkpt>
      <trkpt lat="43.08388" lon="-1.6057731">
        <time>2022-07-03T10:18:29Z</time>
      </trkpt>
      <trkpt lat="43.083836" lon="-1.6057801">
        <time>2022-07-03T10:18:32Z</time>
      </trkpt>
      <trkpt lat="43.08377" lon="-1.6057954">
        <time>2022-07-03T10:18:36Z</time>
      </trkpt>
      <trkpt lat="43.083706" lon="-1.605815">
        <time>2022-07-03T10:18:40Z</time>
      </trkpt>
      <trkpt lat="43.083645" lon="-1.6058418">
        <time>2022-07-03T10:18:44Z</time>
      </trkpt>
      <trkpt lat="43.08358" lon="-1.6058664">
        <time>2022-07-03T10:18:48Z</time>
      </trkpt>
      <trkpt lat="43.083534" lon="-1.6058867">
        <time>2022-07-03T10:18:51Z</time>
      </trkpt>
      <trkpt lat="43.08347" lon="-1.6059111">
        <time>2022-07-03T10:18:55Z</time>
      </trkpt>
      <trkpt lat="43.083424" lon="-1.6059324">
        <time>2022-07-03T10:18:58Z</time>
      </trkpt>
      <trkpt lat="43.083366" lon="-1.6059641">
        <time>2022-07-03T10:19:02Z</time>
      </trkpt>
      <trkpt lat="43.0833" lon="-1.605993">
        <time>2022-07-03T10:19:06Z</time>
      </trkpt>
      <trkpt lat="43.083244" lon="-1.6060104">
        <time>2022-07-03T10:19:10Z</time>
      </trkpt>
      <trkpt lat="43.083187" lon="-1.6060297">
        <time>2022-07-03T10:19:14Z</time>
      </trkpt>
      <trkpt lat="43.08313" lon="-1.6060554">
        <time>2022-07-03T10:19:18Z</time>
      </trkpt>
      <trkpt lat="43.083076" lon="-1.6060714">
        <time>2022-07-03T10:19:21Z</time>
      </trkpt>
      <trkpt lat="43.08302" lon="-1.6060877">
        <time>2022-07-03T10:19:24Z</time>
      </trkpt>
      <trkpt lat="43.08294" lon="-1.6060988">
        <time>2022-07-03T10:19:28Z</time>
      </trkpt>
      <trkpt lat="43.082874" lon="-1.6061081">
        <time>2022-07-03T10:19:31Z</time>
      </trkpt>
      <trkpt lat="43.082806" lon="-1.6061137">
        <time>2022-07-03T10:19:34Z</time>
      </trkpt>
      <trkpt lat="43.082737" lon="-1.6061224">
        <time>2022-07-03T10:19:37Z</time>
      </trkpt>
      <trkpt lat="43.082676" lon="-1.6061337">
        <time>2022-07-03T10:19:40Z</time>
      </trkpt>
      <trkpt lat="43.082626" lon="-1.6061447">
        <time>2022-07-03T10:19:43Z</time>
      </trkpt>
      <trkpt lat="43.082573" lon="-1.6061593">
        <time>2022-07-03T10:19:46Z</time>
      </trkpt>
      <trkpt lat="43.082523" lon="-1.6061751">
        <time>2022-07-03T10:19:49Z</time>
      </trkpt>
      <trkpt lat="43.08246" lon="-1.6061894">
        <time>2022-07-03T10:19:53Z</time>
      </trkpt>
      <trkpt lat="43.08241" lon="-1.6061953">
        <time>2022-07-03T10:19:56Z</time>
      </trkpt>
      <trkpt lat="43.082344" lon="-1.6062083">
        <time>2022-07-03T10:20:00Z</time>
      </trkpt>
      <trkpt lat="43.08228" lon="-1.6062247">
        <time>2022-07-03T10:20:04Z</time>
      </trkpt>
      <trkpt lat="43.08222" lon="-1.6062334">
        <time>2022-07-03T10:20:08Z</time>
      </trkpt>
      <trkpt lat="43.082153" lon="-1.6062406">
        <time>2022-07-03T10:20:12Z</time>
      </trkpt>
      <trkpt lat="43.082092" lon="-1.6062434">
        <time>2022-07-03T10:20:16Z</time>
      </trkpt>
      <trkpt lat="43.08203" lon="-1.6062523">
        <time>2022-07-03T10:20:20Z</time>
      </trkpt>
      <trkpt lat="43.081966" lon="-1.6062506">
        <time>2022-07-03T10:20:24Z</time>
      </trkpt>
      <trkpt lat="43.081917" lon="-1.6062577">
        <time>2022-07-03T10:20:27Z</time>
      </trkpt>
      <trkpt lat="43.081844" lon="-1.6062633">
        <time>2022-07-03T10:20:31Z</time>
      </trkpt>
      <trkpt lat="43.0818" lon="-1.6062737">
        <time>2022-07-03T10:20:34Z</time>
      </trkpt>
      <trkpt lat="43.081734" lon="-1.6062887">
        <time>2022-07-03T10:20:38Z</time>
      </trkpt>
      <trkpt lat="43.081684" lon="-1.6062993">
        <time>2022-07-03T10:20:41Z</time>
      </trkpt>
      <trkpt lat="43.081615" lon="-1.606315">
        <time>2022-07-03T10:20:45Z</time>
      </trkpt>
      <trkpt lat="43.08157" lon="-1.6063286">
        <time>2022-07-03T10:20:48Z</time>
      </trkpt>
      <trkpt lat="43.081505" lon="-1.606346">
        <time>2022-07-03T10:20:52Z</time>
      </trkpt>
      <trkpt lat="43.081444" lon="-1.6063693">
        <time>2022-07-03T10:20:56Z</time>
      </trkpt>
      <trkpt lat="43.08138" lon="-1.6063946">
        <time>2022-07-03T10:21:00Z</time>
      </trkpt>
      <trkpt lat="43.08133" lon="-1.6064149">
        <time>2022-07-03T10:21:03Z</time>
      </trkpt>
      <trkpt lat="43.08128" lon="-1.6064336">
        <time>2022-07-03T10:21:06Z</time>
      </trkpt>
      <trkpt lat="43.08122" lon="-1.6064556">
        <time>2022-07-03T10:21:10Z</time>
      </trkpt>
      <trkpt lat="43.081154" lon="-1.606483">
        <time>2022-07-03T10:21:14Z</time>
      </trkpt>
      <trkpt lat="43.081104" lon="-1.6065046">
        <time>2022-07-03T10:21:17Z</time>
      </trkpt>
      <trkpt lat="43.081055" lon="-1.6065246">
        <time>2022-07-03T10:21:20Z</time>
      </trkpt>
      <trkpt lat="43.080994" lon="-1.606548">
        <time>2022-07-03T10:21:24Z</time>
      </trkpt>
      <trkpt lat="43.08093" lon="-1.6065615">
        <time>2022-07-03T10:21:28Z</time>
      </trkpt>
      <trkpt lat="43.080864" lon="-1.6065702">
        <time>2022-07-03T10:21:32Z</time>
      </trkpt>
      <trkpt lat="43.080803" lon="-1.6065779">
        <time>2022-07-03T10:21:36Z</time>
      </trkpt>
      <trkpt lat="43.080738" lon="-1.6065866">
        <time>2022-07-03T10:21:40Z</time>
      </trkpt>
      <trkpt lat="43.080692" lon="-1.6065936">
        <time>2022-07-03T10:21:43Z</time>
      </trkpt>
      <trkpt lat="43.080624" lon="-1.6065975">
        <time>2022-07-03T10:21:47Z</time>
      </trkpt>
      <trkpt lat="43.080563" lon="-1.606594">
        <time>2022-07-03T10:21:51Z</time>
      </trkpt>
      <trkpt lat="43.080498" lon="-1.6065919">
        <time>2022-07-03T10:21:55Z</time>
      </trkpt>
      <trkpt lat="43.08045" lon="-1.6065882">
        <time>2022-07-03T10:21:58Z</time>
      </trkpt>
      <trkpt lat="43.080383" lon="-1.6065749">
        <time>2022-07-03T10:22:02Z</time>
      </trkpt>
      <trkpt lat="43.080322" lon="-1.6065526">
        <time>2022-07-03T10:22:06Z</time>
      </trkpt>
      <trkpt lat="43.080257" lon="-1.6065236">
        <time>2022-07-03T10:22:10Z</time>
      </trkpt>
      <trkpt lat="43.080208" lon="-1.6064956">
        <time>2022-07-03T10:22:13Z</time>
      </trkpt>
      <trkpt lat="43.080162" lon="-1.6064663">
        <time>2022-07-03T10:22:16Z</time>
      </trkpt>
      <trkpt lat="43.08012" lon="-1.6064312">
        <time>2022-07-03T10:22:19Z</time>
      </trkpt>
      <trkpt lat="43.080067" lon="-1.6063722">
        <time>2022-07-03T10:22:23Z</time>
      </trkpt>
      <trkpt lat="43.08001" lon="-1.6063249">
        <time>2022-07-03T10:22:27Z</time>
      </trkpt>
      <trkpt lat="43.07997" lon="-1.606285">
        <time>2022-07-03T10:22:30Z</time>
      </trkpt>
      <trkpt lat="43.079918" lon="-1.606234">
        <time>2022-07-03T10:22:34Z</time>
      </trkpt>
      <trkpt lat="43.07987" lon="-1.6061742">
        <time>2022-07-03T10:22:38Z</time>
      </trkpt>
      <trkpt lat="43.079823" lon="-1.6061193">
        <time>2022-07-03T10:22:41Z</time>
      </trkpt>
      <trkpt lat="43.079773" lon="-1.6060556">
        <time>2022-07-03T10:22:44Z</time>
      </trkpt>
      <trkpt lat="43.079723" lon="-1.6059879">
        <time>2022-07-03T10:22:47Z</time>
      </trkpt>
      <trkpt lat="43.07968" lon="-1.6059283">
        <time>2022-07-03T10:22:50Z</time>
      </trkpt>
      <trkpt lat="43.07964" lon="-1.6058806">
        <time>2022-07-03T10:22:53Z</time>
      </trkpt>
      <trkpt lat="43.079597" lon="-1.605835">
        <time>2022-07-03T10:22:56Z</time>
      </trkpt>
      <trkpt lat="43.07956" lon="-1.6057906">
        <time>2022-07-03T10:22:59Z</time>
      </trkpt>
      <trkpt lat="43.07951" lon="-1.605733">
        <time>2022-07-03T10:23:03Z</time>
      </trkpt>
      <trkpt lat="43.079468" lon="-1.6056707">
        <time>2022-07-03T10:23:07Z</time>
      </trkpt>
      <trkpt lat="43.079426" lon="-1.605607">
        <time>2022-07-03T10:23:11Z</time>
      </trkpt>
      <trkpt lat="43.07938" lon="-1.6055553">
        <time>2022-07-03T10:23:15Z</time>
      </trkpt>
      <trkpt lat="43.07934" lon="-1.6054931">
        <time>2022-07-03T10:23:19Z</time>
      </trkpt>
      <trkpt lat="43.079304" lon="-1.6054204">
        <time>2022-07-03T10:23:23Z</time>
      </trkpt>
      <trkpt lat="43.07928" lon="-1.6053557">
        <time>2022-07-03T10:23:26Z</time>
      </trkpt>
      <trkpt lat="43.079254" lon="-1.6052927">
        <time>2022-07-03T10:23:29Z</time>
      </trkpt>
      <trkpt lat="43.079216" lon="-1.6052134">
        <time>2022-07-03T10:23:33Z</time>
      </trkpt>
      <trkpt lat="43.07919" lon="-1.6051548">
        <time>2022-07-03T10:23:36Z</time>
      </trkpt>
      <trkpt lat="43.079163" lon="-1.6051004">
        <time>2022-07-03T10:23:39Z</time>
      </trkpt>
      <trkpt lat="43.079124" lon="-1.6050277">
        <time>2022-07-03T10:23:43Z</time>
      </trkpt>
      <trkpt lat="43.079094" lon="-1.604954">
        <time>2022-07-03T10:23:47Z</time>
      </trkpt>
      <trkpt lat="43.079063" lon="-1.6048803">
        <time>2022-07-03T10:23:51Z</time>
      </trkpt>
      <trkpt lat="43.079033" lon="-1.6048313">
        <time>2022-07-03T10:23:54Z</time>
      </trkpt>
      <trkpt lat="43.078995" lon="-1.6047587">
        <time>2022-07-03T10:23:58Z</time>
      </trkpt>
      <trkpt lat="43.07896" lon="-1.6046841">
        <time>2022-07-03T10:24:02Z</time>
      </trkpt>
      <trkpt lat="43.078926" lon="-1.6046311">
        <time>2022-07-03T10:24:05Z</time>
      </trkpt>
      <trkpt lat="43.07888" lon="-1.6045631">
        <time>2022-07-03T10:24:09Z</time>
      </trkpt>
      <trkpt lat="43.078846" lon="-1.6045167">
        <time>2022-07-03T10:24:12Z</time>
      </trkpt>
      <trkpt lat="43.0788" lon="-1.604467">
        <time>2022-07-03T10:24:16Z</time>
      </trkpt>
      <trkpt lat="43.078743" lon="-1.6044158">
        <time>2022-07-03T10:24:20Z</time>
      </trkpt>
      <trkpt lat="43.078693" lon="-1.6043851">
        <time>2022-07-03T10:24:23Z</time>
      </trkpt>
      <trkpt lat="43.07864" lon="-1.6043581">
        <time>2022-07-03T10:24:26Z</time>
      </trkpt>
      <trkpt lat="43.078587" lon="-1.6043364">
        <time>2022-07-03T10:24:29Z</time>
      </trkpt>
      <trkpt lat="43.07853" lon="-1.6043171">
        <time>2022-07-03T10:24:32Z</time>
      </trkpt>
      <trkpt lat="43.078476" lon="-1.6043024">
        <time>2022-07-03T10:24:35Z</time>
      </trkpt>
      <trkpt lat="43.07842" lon="-1.6043028">
        <time>2022-07-03T10:24:38Z</time>
      </trkpt>
      <trkpt lat="43.07836" lon="-1.6043115">
        <time>2022-07-03T10:24:41Z</time>
      </trkpt>
      <trkpt lat="43.078312" lon="-1.6043297">
        <time>2022-07-03T10:24:44Z</time>
      </trkpt>
      <trkpt lat="43.07827" lon="-1.6043751">
        <time>2022-07-03T10:24:47Z</time>
      </trkpt>
      <trkpt lat="43.07823" lon="-1.6044275">
        <time>2022-07-03T10:24:50Z</time>
      </trkpt>
      <trkpt lat="43.078197" lon="-1.6044865">
        <time>2022-07-03T10:24:53Z</time>
      </trkpt>
      <trkpt lat="43.078175" lon="-1.6045537">
        <time>2022-07-03T10:24:56Z</time>
      </trkpt>
      <trkpt lat="43.078148" lon="-1.6046205">
        <time>2022-07-03T10:24:59Z</time>
      </trkpt>
      <trkpt lat="43.078136" lon="-1.6046877">
        <time>2022-07-03T10:25:02Z</time>
      </trkpt>
      <trkpt lat="43.07814" lon="-1.6047534">
        <time>2022-07-03T10:25:05Z</time>
      </trkpt>
      <trkpt lat="43.07816" lon="-1.6048391">
        <time>2022-07-03T10:25:09Z</time>
      </trkpt>
      <trkpt lat="43.078182" lon="-1.604905">
        <time>2022-07-03T10:25:12Z</time>
      </trkpt>
      <trkpt lat="43.078217" lon="-1.6049734">
        <time>2022-07-03T10:25:16Z</time>
      </trkpt>
      <trkpt lat="43.078262" lon="-1.6050434">
        <time>2022-07-03T10:25:20Z</time>
      </trkpt>
      <trkpt lat="43.078293" lon="-1.605113">
        <time>2022-07-03T10:25:23Z</time>
      </trkpt>
      <trkpt lat="43.078323" lon="-1.6051891">
        <time>2022-07-03T10:25:26Z</time>
      </trkpt>
      <trkpt lat="43.078354" lon="-1.605252">
        <time>2022-07-03T10:25:29Z</time>
      </trkpt>
      <trkpt lat="43.07838" lon="-1.6053071">
        <time>2022-07-03T10:25:32Z</time>
      </trkpt>
      <trkpt lat="43.07842" lon="-1.6053867">
        <time>2022-07-03T10:25:36Z</time>
      </trkpt>
      <trkpt lat="43.07845" lon="-1.6054491">
        <time>2022-07-03T10:25:39Z</time>
      </trkpt>
      <trkpt lat="43.078472" lon="-1.605509">
        <time>2022-07-03T10:25:42Z</time>
      </trkpt>
      <trkpt lat="43.078495" lon="-1.6055701">
        <time>2022-07-03T10:25:45Z</time>
      </trkpt>
      <trkpt lat="43.078537" lon="-1.6056471">
        <time>2022-07-03T10:25:49Z</time>
      </trkpt>
      <trkpt lat="43.07856" lon="-1.6057154">
        <time>2022-07-03T10:25:52Z</time>
      </trkpt>
      <trkpt lat="43.07859" lon="-1.6057857">
        <time>2022-07-03T10:25:55Z</time>
      </trkpt>
      <trkpt lat="43.078613" lon="-1.6058561">
        <time>2022-07-03T10:25:58Z</time>
      </trkpt>
      <trkpt lat="43.078648" lon="-1.6059214">
        <time>2022-07-03T10:26:01Z</time>
      </trkpt>
      <trkpt lat="43.078674" lon="-1.6059934">
        <time>2022-07-03T10:26:04Z</time>
      </trkpt>
      <trkpt lat="43.078697" lon="-1.6060656">
        <time>2022-07-03T10:26:07Z</time>
      </trkpt>
      <trkpt lat="43.078728" lon="-1.606134">
        <time>2022-07-03T10:26:10Z</time>
      </trkpt>
      <trkpt lat="43.078754" lon="-1.606202">
        <time>2022-07-03T10:26:13Z</time>
      </trkpt>
      <trkpt lat="43.07878" lon="-1.6062727">
        <time>2022-07-03T10:26:16Z</time>
      </trkpt>
      <trkpt lat="43.078808" lon="-1.6063427">
        <time>2022-07-03T10:26:19Z</time>
      </trkpt>
      <trkpt lat="43.07883" lon="-1.6064137">
        <time>2022-07-03T10:26:22Z</time>
      </trkpt>
      <trkpt lat="43.07885" lon="-1.6064857">
        <time>2022-07-03T10:26:25Z</time>
      </trkpt>
      <trkpt lat="43.078865" lon="-1.6065563">
        <time>2022-07-03T10:26:28Z</time>
      </trkpt>
      <trkpt lat="43.07888" lon="-1.6066253">
        <time>2022-07-03T10:26:31Z</time>
      </trkpt>
      <trkpt lat="43.078896" lon="-1.6066947">
        <time>2022-07-03T10:26:34Z</time>
      </trkpt>
      <trkpt lat="43.078915" lon="-1.606759">
        <time>2022-07-03T10:26:37Z</time>
      </trkpt>
      <trkpt lat="43.07893" lon="-1.606832">
        <time>2022-07-03T10:26:40Z</time>
      </trkpt>
      <trkpt lat="43.078945" lon="-1.6069326">
        <time>2022-07-03T10:26:44Z</time>
      </trkpt>
      <trkpt lat="43.078957" lon="-1.6070089">
        <time>2022-07-03T10:26:47Z</time>
      </trkpt>
      <trkpt lat="43.078964" lon="-1.607087">
        <time>2022-07-03T10:26:50Z</time>
      </trkpt>
      <trkpt lat="43.07897" lon="-1.6071666">
        <time>2022-07-03T10:26:53Z</time>
      </trkpt>
      <trkpt lat="43.07898" lon="-1.6072423">
        <time>2022-07-03T10:26:56Z</time>
      </trkpt>
      <trkpt lat="43.078987" lon="-1.6073183">
        <time>2022-07-03T10:26:59Z</time>
      </trkpt>
      <trkpt lat="43.078995" lon="-1.6073936">
        <time>2022-07-03T10:27:02Z</time>
      </trkpt>
      <trkpt lat="43.079002" lon="-1.6074703">
        <time>2022-07-03T10:27:05Z</time>
      </trkpt>
      <trkpt lat="43.079002" lon="-1.607544">
        <time>2022-07-03T10:27:08Z</time>
      </trkpt>
      <trkpt lat="43.078995" lon="-1.607618">
        <time>2022-07-03T10:27:11Z</time>
      </trkpt>
      <trkpt lat="43.07898" lon="-1.6076903">
        <time>2022-07-03T10:27:14Z</time>
      </trkpt>
      <trkpt lat="43.078957" lon="-1.6077629">
        <time>2022-07-03T10:27:17Z</time>
      </trkpt>
      <trkpt lat="43.07893" lon="-1.607827">
        <time>2022-07-03T10:27:20Z</time>
      </trkpt>
      <trkpt lat="43.078896" lon="-1.6078813">
        <time>2022-07-03T10:27:23Z</time>
      </trkpt>
      <trkpt lat="43.078854" lon="-1.6079333">
        <time>2022-07-03T10:27:26Z</time>
      </trkpt>
      <trkpt lat="43.078808" lon="-1.6079832">
        <time>2022-07-03T10:27:29Z</time>
      </trkpt>
      <trkpt lat="43.078762" lon="-1.6080259">
        <time>2022-07-03T10:27:32Z</time>
      </trkpt>
      <trkpt lat="43.07871" lon="-1.608069">
        <time>2022-07-03T10:27:35Z</time>
      </trkpt>
      <trkpt lat="43.078663" lon="-1.6081083">
        <time>2022-07-03T10:27:38Z</time>
      </trkpt>
      <trkpt lat="43.078613" lon="-1.6081393">
        <time>2022-07-03T10:27:41Z</time>
      </trkpt>
      <trkpt lat="43.078564" lon="-1.6081666">
        <time>2022-07-03T10:27:44Z</time>
      </trkpt>
      <trkpt lat="43.078518" lon="-1.6081892">
        <time>2022-07-03T10:27:47Z</time>
      </trkpt>
      <trkpt lat="43.078457" lon="-1.6082252">
        <time>2022-07-03T10:27:51Z</time>
      </trkpt>
      <trkpt lat="43.078396" lon="-1.6082582">
        <time>2022-07-03T10:27:55Z</time>
      </trkpt>
      <trkpt lat="43.078346" lon="-1.6082803">
        <time>2022-07-03T10:27:58Z</time>
      </trkpt>
      <trkpt lat="43.078297" lon="-1.6082929">
        <time>2022-07-03T10:28:01Z</time>
      </trkpt>
      <trkpt lat="43.078228" lon="-1.6083022">
        <time>2022-07-03T10:28:05Z</time>
      </trkpt>
      <trkpt lat="43.078163" lon="-1.6083109">
        <time>2022-07-03T10:28:09Z</time>
      </trkpt>
      <trkpt lat="43.078114" lon="-1.608321">
        <time>2022-07-03T10:28:12Z</time>
      </trkpt>
      <trkpt lat="43.07805" lon="-1.6083392">
        <time>2022-07-03T10:28:16Z</time>
      </trkpt>
      <trkpt lat="43.077995" lon="-1.6083503">
        <time>2022-07-03T10:28:19Z</time>
      </trkpt>
      <trkpt lat="43.077946" lon="-1.6083583">
        <time>2022-07-03T10:28:22Z</time>
      </trkpt>
      <trkpt lat="43.07788" lon="-1.6083676">
        <time>2022-07-03T10:28:26Z</time>
      </trkpt>
      <trkpt lat="43.07783" lon="-1.6083716">
        <time>2022-07-03T10:28:29Z</time>
      </trkpt>
      <trkpt lat="43.077763" lon="-1.6083755">
        <time>2022-07-03T10:28:33Z</time>
      </trkpt>
      <trkpt lat="43.077713" lon="-1.6083785">
        <time>2022-07-03T10:28:36Z</time>
      </trkpt>
      <trkpt lat="43.07765" lon="-1.6083813">
        <time>2022-07-03T10:28:40Z</time>
      </trkpt>
      <trkpt lat="43.07759" lon="-1.6083856">
        <time>2022-07-03T10:28:43Z</time>
      </trkpt>
      <trkpt lat="43.07754" lon="-1.6083896">
        <time>2022-07-03T10:28:46Z</time>
      </trkpt>
      <trkpt lat="43.077457" lon="-1.6084039">
        <time>2022-07-03T10:28:51Z</time>
      </trkpt>
      <trkpt lat="43.077408" lon="-1.6084173">
        <time>2022-07-03T10:28:54Z</time>
      </trkpt>
      <trkpt lat="43.077347" lon="-1.6084336">
        <time>2022-07-03T10:28:58Z</time>
      </trkpt>
      <trkpt lat="43.077305" lon="-1.6084518">
        <time>2022-07-03T10:29:01Z</time>
      </trkpt>
      <trkpt lat="43.07725" lon="-1.6084726">
        <time>2022-07-03T10:29:05Z</time>
      </trkpt>
      <trkpt lat="43.07719" lon="-1.6084906">
        <time>2022-07-03T10:29:10Z</time>
      </trkpt>
      <trkpt lat="43.077133" lon="-1.6085242">
        <time>2022-07-03T10:29:14Z</time>
      </trkpt>
      <trkpt lat="43.077072" lon="-1.6085572">
        <time>2022-07-03T10:29:18Z</time>
      </trkpt>
      <trkpt lat="43.077023" lon="-1.6085886">
        <time>2022-07-03T10:29:21Z</time>
      </trkpt>
      <trkpt lat="43.076973" lon="-1.6086372">
        <time>2022-07-03T10:29:24Z</time>
      </trkpt>
      <trkpt lat="43.07692" lon="-1.6086948">
        <time>2022-07-03T10:29:27Z</time>
      </trkpt>
      <trkpt lat="43.076874" lon="-1.6087565">
        <time>2022-07-03T10:29:30Z</time>
      </trkpt>
      <trkpt lat="43.076828" lon="-1.6088108">
        <time>2022-07-03T10:29:33Z</time>
      </trkpt>
      <trkpt lat="43.07678" lon="-1.6088542">
        <time>2022-07-03T10:29:36Z</time>
      </trkpt>
      <trkpt lat="43.07673" lon="-1.6088918">
        <time>2022-07-03T10:29:39Z</time>
      </trkpt>
      <trkpt lat="43.076668" lon="-1.6089292">
        <time>2022-07-03T10:29:42Z</time>
      </trkpt>
      <trkpt lat="43.076614" lon="-1.6089648">
        <time>2022-07-03T10:29:45Z</time>
      </trkpt>
      <trkpt lat="43.076565" lon="-1.6090038">
        <time>2022-07-03T10:29:48Z</time>
      </trkpt>
      <trkpt lat="43.07652" lon="-1.6090475">
        <time>2022-07-03T10:29:51Z</time>
      </trkpt>
      <trkpt lat="43.076473" lon="-1.6090865">
        <time>2022-07-03T10:29:54Z</time>
      </trkpt>
      <trkpt lat="43.07643" lon="-1.6091244">
        <time>2022-07-03T10:29:57Z</time>
      </trkpt>
      <trkpt lat="43.076374" lon="-1.6091805">
        <time>2022-07-03T10:30:01Z</time>
      </trkpt>
      <trkpt lat="43.076324" lon="-1.6092211">
        <time>2022-07-03T10:30:04Z</time>
      </trkpt>
      <trkpt lat="43.076275" lon="-1.6092604">
        <time>2022-07-03T10:30:07Z</time>
      </trkpt>
      <trkpt lat="43.07622" lon="-1.6093072">
        <time>2022-07-03T10:30:10Z</time>
      </trkpt>
      <trkpt lat="43.076168" lon="-1.6093554">
        <time>2022-07-03T10:30:13Z</time>
      </trkpt>
      <trkpt lat="43.07612" lon="-1.6093918">
        <time>2022-07-03T10:30:16Z</time>
      </trkpt>
      <trkpt lat="43.07607" lon="-1.6094204">
        <time>2022-07-03T10:30:19Z</time>
      </trkpt>
      <trkpt lat="43.076023" lon="-1.6094548">
        <time>2022-07-03T10:30:22Z</time>
      </trkpt>
      <trkpt lat="43.075974" lon="-1.6094824">
        <time>2022-07-03T10:30:25Z</time>
      </trkpt>
      <trkpt lat="43.075912" lon="-1.6095065">
        <time>2022-07-03T10:30:29Z</time>
      </trkpt>
      <trkpt lat="43.07586" lon="-1.6095327">
        <time>2022-07-03T10:30:32Z</time>
      </trkpt>
      <trkpt lat="43.07581" lon="-1.6095555">
        <time>2022-07-03T10:30:35Z</time>
      </trkpt>
      <trkpt lat="43.075752" lon="-1.6095915">
        <time>2022-07-03T10:30:39Z</time>
      </trkpt>
      <trkpt lat="43.075714" lon="-1.6096518">
        <time>2022-07-03T10:30:43Z</time>
      </trkpt>
      <trkpt lat="43.075676" lon="-1.6096997">
        <time>2022-07-03T10:30:46Z</time>
      </trkpt>
      <trkpt lat="43.07563" lon="-1.6097318">
        <time>2022-07-03T10:30:49Z</time>
      </trkpt>
      <trkpt lat="43.075584" lon="-1.6097664">
        <time>2022-07-03T10:30:52Z</time>
      </trkpt>
      <trkpt lat="43.075527" lon="-1.6098105">
        <time>2022-07-03T10:30:56Z</time>
      </trkpt>
      <trkpt lat="43.075466" lon="-1.6098374">
        <time>2022-07-03T10:31:00Z</time>
      </trkpt>
      <trkpt lat="43.07541" lon="-1.6098834">
        <time>2022-07-03T10:31:04Z</time>
      </trkpt>
      <trkpt lat="43.07536" lon="-1.6099281">
        <time>2022-07-03T10:31:07Z</time>
      </trkpt>
      <trkpt lat="43.07531" lon="-1.6099597">
        <time>2022-07-03T10:31:10Z</time>
      </trkpt>
      <trkpt lat="43.075253" lon="-1.6099944">
        <time>2022-07-03T10:31:14Z</time>
      </trkpt>
      <trkpt lat="43.075184" lon="-1.6100034">
        <time>2022-07-03T10:31:18Z</time>
      </trkpt>
      <trkpt lat="43.07513" lon="-1.610018">
        <time>2022-07-03T10:31:21Z</time>
      </trkpt>
      <trkpt lat="43.07508" lon="-1.6100377">
        <time>2022-07-03T10:31:24Z</time>
      </trkpt>
      <trkpt lat="43.075027" lon="-1.6100518">
        <time>2022-07-03T10:31:27Z</time>
      </trkpt>
      <trkpt lat="43.074963" lon="-1.6100787">
        <time>2022-07-03T10:31:31Z</time>
      </trkpt>
      <trkpt lat="43.07491" lon="-1.610102">
        <time>2022-07-03T10:31:34Z</time>
      </trkpt>
      <trkpt lat="43.074856" lon="-1.6101251">
        <time>2022-07-03T10:31:37Z</time>
      </trkpt>
      <trkpt lat="43.07481" lon="-1.6101484">
        <time>2022-07-03T10:31:40Z</time>
      </trkpt>
      <trkpt lat="43.07475" lon="-1.6101714">
        <time>2022-07-03T10:31:44Z</time>
      </trkpt>
      <trkpt lat="43.074684" lon="-1.6101954">
        <time>2022-07-03T10:31:48Z</time>
      </trkpt>
      <trkpt lat="43.07464" lon="-1.6102134">
        <time>2022-07-03T10:31:51Z</time>
      </trkpt>
      <trkpt lat="43.074574" lon="-1.6102297">
        <time>2022-07-03T10:31:55Z</time>
      </trkpt>
      <trkpt lat="43.074524" lon="-1.6102377">
        <time>2022-07-03T10:31:58Z</time>
      </trkpt>
      <trkpt lat="43.074467" lon="-1.6102517">
        <time>2022-07-03T10:32:01Z</time>
      </trkpt>
      <trkpt lat="43.074413" lon="-1.6102717">
        <time>2022-07-03T10:32:04Z</time>
      </trkpt>
      <trkpt lat="43.07436" lon="-1.6102847">
        <time>2022-07-03T10:32:07Z</time>
      </trkpt>
      <trkpt lat="43.074306" lon="-1.6102984">
        <time>2022-07-03T10:32:10Z</time>
      </trkpt>
      <trkpt lat="43.07426" lon="-1.6103123">
        <time>2022-07-03T10:32:13Z</time>
      </trkpt>
      <trkpt lat="43.0742" lon="-1.6103244">
        <time>2022-07-03T10:32:17Z</time>
      </trkpt>
      <trkpt lat="43.074142" lon="-1.6103303">
        <time>2022-07-03T10:32:21Z</time>
      </trkpt>
      <trkpt lat="43.07409" lon="-1.6103327">
        <time>2022-07-03T10:32:25Z</time>
      </trkpt>
      <trkpt lat="43.074036" lon="-1.610345">
        <time>2022-07-03T10:32:29Z</time>
      </trkpt>
      <trkpt lat="43.073975" lon="-1.6103567">
        <time>2022-07-03T10:32:33Z</time>
      </trkpt>
      <trkpt lat="43.073917" lon="-1.6103717">
        <time>2022-07-03T10:32:37Z</time>
      </trkpt>
      <trkpt lat="43.07386" lon="-1.610384">
        <time>2022-07-03T10:32:41Z</time>
      </trkpt>
      <trkpt lat="43.07381" lon="-1.6103947">
        <time>2022-07-03T10:32:45Z</time>
      </trkpt>
      <trkpt lat="43.07376" lon="-1.6104033">
        <time>2022-07-03T10:32:49Z</time>
      </trkpt>
      <trkpt lat="43.073704" lon="-1.610413">
        <time>2022-07-03T10:32:53Z</time>
      </trkpt>
      <trkpt lat="43.073647" lon="-1.610434">
        <time>2022-07-03T10:32:57Z</time>
      </trkpt>
      <trkpt lat="43.073597" lon="-1.610448">
        <time>2022-07-03T10:33:01Z</time>
      </trkpt>
      <trkpt lat="43.073547" lon="-1.6104547">
        <time>2022-07-03T10:33:05Z</time>
      </trkpt>
      <trkpt lat="43.07349" lon="-1.6104697">
        <time>2022-07-03T10:33:10Z</time>
      </trkpt>
      <trkpt lat="43.073433" lon="-1.610472">
        <time>2022-07-03T10:33:15Z</time>
      </trkpt>
      <trkpt lat="43.073376" lon="-1.6104636">
        <time>2022-07-03T10:33:20Z</time>
      </trkpt>
      <trkpt lat="43.07332" lon="-1.6104523">
        <time>2022-07-03T10:33:25Z</time>
      </trkpt>
      <trkpt lat="43.07327" lon="-1.6104196">
        <time>2022-07-03T10:33:29Z</time>
      </trkpt>
      <trkpt lat="43.073235" lon="-1.6103704">
        <time>2022-07-03T10:33:33Z</time>
      </trkpt>
      <trkpt lat="43.073204" lon="-1.6103033">
        <time>2022-07-03T10:33:38Z</time>
      </trkpt>
      <trkpt lat="43.073196" lon="-1.6102377">
        <time>2022-07-03T10:39:04Z</time>
      </trkpt>
      <trkpt lat="43.073208" lon="-1.610167">
        <time>2022-07-03T10:39:06Z</time>
      </trkpt>
      <trkpt lat="43.073223" lon="-1.6100926">
        <time>2022-07-03T10:39:08Z</time>
      </trkpt>
      <trkpt lat="43.073235" lon="-1.6100254">
        <time>2022-07-03T10:39:10Z</time>
      </trkpt>
      <trkpt lat="43.073254" lon="-1.6099406">
        <time>2022-07-03T10:39:13Z</time>
      </trkpt>
      <trkpt lat="43.073288" lon="-1.6098664">
        <time>2022-07-03T10:39:16Z</time>
      </trkpt>
      <trkpt lat="43.073334" lon="-1.609812">
        <time>2022-07-03T10:39:19Z</time>
      </trkpt>
      <trkpt lat="43.073395" lon="-1.6097764">
        <time>2022-07-03T10:39:22Z</time>
      </trkpt>
      <trkpt lat="43.07346" lon="-1.6097507">
        <time>2022-07-03T10:39:25Z</time>
      </trkpt>
      <trkpt lat="43.073524" lon="-1.609735">
        <time>2022-07-03T10:39:28Z</time>
      </trkpt>
      <trkpt lat="43.07359" lon="-1.6097327">
        <time>2022-07-03T10:39:31Z</time>
      </trkpt>
      <trkpt lat="43.073654" lon="-1.6097333">
        <time>2022-07-03T10:39:34Z</time>
      </trkpt>
      <trkpt lat="43.07372" lon="-1.6097287">
        <time>2022-07-03T10:39:37Z</time>
      </trkpt>
      <trkpt lat="43.073784" lon="-1.6097237">
        <time>2022-07-03T10:39:40Z</time>
      </trkpt>
      <trkpt lat="43.07384" lon="-1.6097174">
        <time>2022-07-03T10:39:43Z</time>
      </trkpt>
      <trkpt lat="43.073906" lon="-1.6097127">
        <time>2022-07-03T10:39:46Z</time>
      </trkpt>
      <trkpt lat="43.073967" lon="-1.609709">
        <time>2022-07-03T10:39:49Z</time>
      </trkpt>
      <trkpt lat="43.074024" lon="-1.6097054">
        <time>2022-07-03T10:39:52Z</time>
      </trkpt>
      <trkpt lat="43.07408" lon="-1.6096914">
        <time>2022-07-03T10:39:55Z</time>
      </trkpt>
      <trkpt lat="43.074142" lon="-1.6096771">
        <time>2022-07-03T10:39:58Z</time>
      </trkpt>
      <trkpt lat="43.074192" lon="-1.6096644">
        <time>2022-07-03T10:40:01Z</time>
      </trkpt>
      <trkpt lat="43.074238" lon="-1.6096518">
        <time>2022-07-03T10:40:05Z</time>
      </trkpt>
      <trkpt lat="43.074287" lon="-1.6096385">
        <time>2022-07-03T10:40:10Z</time>
      </trkpt>
      <trkpt lat="43.074345" lon="-1.6096147">
        <time>2022-07-03T10:40:15Z</time>
      </trkpt>
      <trkpt lat="43.07441" lon="-1.6095948">
        <time>2022-07-03T10:40:20Z</time>
      </trkpt>
      <trkpt lat="43.074455" lon="-1.6095492">
        <time>2022-07-03T10:40:24Z</time>
      </trkpt>
      <trkpt lat="43.074497" lon="-1.6095111">
        <time>2022-07-03T10:40:27Z</time>
      </trkpt>
      <trkpt lat="43.07456" lon="-1.6094824">
        <time>2022-07-03T10:40:31Z</time>
      </trkpt>
      <trkpt lat="43.074615" lon="-1.6094705">
        <time>2022-07-03T10:40:35Z</time>
      </trkpt>
      <trkpt lat="43.074654" lon="-1.6094102">
        <time>2022-07-03T10:40:39Z</time>
      </trkpt>
      <trkpt lat="43.074703" lon="-1.6093545">
        <time>2022-07-03T10:40:43Z</time>
      </trkpt>
      <trkpt lat="43.07474" lon="-1.6093178">
        <time>2022-07-03T10:40:46Z</time>
      </trkpt>
      <trkpt lat="43.0748" lon="-1.6092695">
        <time>2022-07-03T10:40:50Z</time>
      </trkpt>
      <trkpt lat="43.074856" lon="-1.6092148">
        <time>2022-07-03T10:40:54Z</time>
      </trkpt>
      <trkpt lat="43.074905" lon="-1.6091771">
        <time>2022-07-03T10:40:57Z</time>
      </trkpt>
      <trkpt lat="43.074955" lon="-1.6091335">
        <time>2022-07-03T10:41:00Z</time>
      </trkpt>
      <trkpt lat="43.07501" lon="-1.6090785">
        <time>2022-07-03T10:41:03Z</time>
      </trkpt>
      <trkpt lat="43.07505" lon="-1.6090381">
        <time>2022-07-03T10:41:06Z</time>
      </trkpt>
      <trkpt lat="43.075115" lon="-1.6089568">
        <time>2022-07-03T10:41:11Z</time>
      </trkpt>
      <trkpt lat="43.07515" lon="-1.6089041">
        <time>2022-07-03T10:41:14Z</time>
      </trkpt>
      <trkpt lat="43.07518" lon="-1.6088469">
        <time>2022-07-03T10:41:17Z</time>
      </trkpt>
      <trkpt lat="43.075214" lon="-1.6087922">
        <time>2022-07-03T10:41:20Z</time>
      </trkpt>
      <trkpt lat="43.07525" lon="-1.6087378">
        <time>2022-07-03T10:41:23Z</time>
      </trkpt>
      <trkpt lat="43.07529" lon="-1.6086845">
        <time>2022-07-03T10:41:26Z</time>
      </trkpt>
      <trkpt lat="43.075333" lon="-1.6086352">
        <time>2022-07-03T10:41:29Z</time>
      </trkpt>
      <trkpt lat="43.075386" lon="-1.6085806">
        <time>2022-07-03T10:41:32Z</time>
      </trkpt>
      <trkpt lat="43.075417" lon="-1.6085203">
        <time>2022-07-03T10:41:35Z</time>
      </trkpt>
      <trkpt lat="43.07546" lon="-1.6084539">
        <time>2022-07-03T10:41:39Z</time>
      </trkpt>
      <trkpt lat="43.075504" lon="-1.6083999">
        <time>2022-07-03T10:41:42Z</time>
      </trkpt>
      <trkpt lat="43.075542" lon="-1.6083483">
        <time>2022-07-03T10:41:45Z</time>
      </trkpt>
      <trkpt lat="43.075584" lon="-1.6082976">
        <time>2022-07-03T10:41:48Z</time>
      </trkpt>
      <trkpt lat="43.07562" lon="-1.6082373">
        <time>2022-07-03T10:41:51Z</time>
      </trkpt>
      <trkpt lat="43.07565" lon="-1.6081786">
        <time>2022-07-03T10:41:54Z</time>
      </trkpt>
      <trkpt lat="43.07569" lon="-1.6081276">
        <time>2022-07-03T10:41:57Z</time>
      </trkpt>
      <trkpt lat="43.075733" lon="-1.6080719">
        <time>2022-07-03T10:42:00Z</time>
      </trkpt>
      <trkpt lat="43.075768" lon="-1.6080096">
        <time>2022-07-03T10:42:03Z</time>
      </trkpt>
      <trkpt lat="43.07581" lon="-1.6079539">
        <time>2022-07-03T10:42:06Z</time>
      </trkpt>
      <trkpt lat="43.075848" lon="-1.6079049">
        <time>2022-07-03T10:42:09Z</time>
      </trkpt>
      <trkpt lat="43.07589" lon="-1.6078486">
        <time>2022-07-03T10:42:12Z</time>
      </trkpt>
      <trkpt lat="43.07594" lon="-1.607778">
        <time>2022-07-03T10:42:16Z</time>
      </trkpt>
      <trkpt lat="43.07598" lon="-1.6077293">
        <time>2022-07-03T10:42:19Z</time>
      </trkpt>
      <trkpt lat="43.076027" lon="-1.6076822">
        <time>2022-07-03T10:42:22Z</time>
      </trkpt>
      <trkpt lat="43.076065" lon="-1.6076273">
        <time>2022-07-03T10:42:25Z</time>
      </trkpt>
      <trkpt lat="43.0761" lon="-1.607572">
        <time>2022-07-03T10:42:28Z</time>
      </trkpt>
      <trkpt lat="43.07614" lon="-1.6074983">
        <time>2022-07-03T10:42:32Z</time>
      </trkpt>
      <trkpt lat="43.076168" lon="-1.6074423">
        <time>2022-07-03T10:42:35Z</time>
      </trkpt>
      <trkpt lat="43.076183" lon="-1.6073623">
        <time>2022-07-03T10:42:39Z</time>
      </trkpt>
      <trkpt lat="43.076176" lon="-1.6072836">
        <time>2022-07-03T10:42:43Z</time>
      </trkpt>
      <trkpt lat="43.076145" lon="-1.6072233">
        <time>2022-07-03T10:42:47Z</time>
      </trkpt>
      <trkpt lat="43.076103" lon="-1.607175">
        <time>2022-07-03T10:42:51Z</time>
      </trkpt>
      <trkpt lat="43.07605" lon="-1.6071433">
        <time>2022-07-03T10:42:55Z</time>
      </trkpt>
      <trkpt lat="43.07599" lon="-1.607121">
        <time>2022-07-03T10:42:59Z</time>
      </trkpt>
      <trkpt lat="43.075943" lon="-1.6071063">
        <time>2022-07-03T10:43:02Z</time>
      </trkpt>
      <trkpt lat="43.07588" lon="-1.6070913">
        <time>2022-07-03T10:43:06Z</time>
      </trkpt>
      <trkpt lat="43.075813" lon="-1.6070904">
        <time>2022-07-03T10:43:10Z</time>
      </trkpt>
      <trkpt lat="43.075752" lon="-1.6070943">
        <time>2022-07-03T10:43:14Z</time>
      </trkpt>
      <trkpt lat="43.075672" lon="-1.607082">
        <time>2022-07-03T10:43:19Z</time>
      </trkpt>
      <trkpt lat="43.07561" lon="-1.6070707">
        <time>2022-07-03T10:43:23Z</time>
      </trkpt>
      <trkpt lat="43.075546" lon="-1.6070546">
        <time>2022-07-03T10:43:27Z</time>
      </trkpt>
      <trkpt lat="43.07548" lon="-1.607046">
        <time>2022-07-03T10:43:31Z</time>
      </trkpt>
      <trkpt lat="43.07542" lon="-1.6070406">
        <time>2022-07-03T10:43:35Z</time>
      </trkpt>
      <trkpt lat="43.075356" lon="-1.6070406">
        <time>2022-07-03T10:43:39Z</time>
      </trkpt>
      <trkpt lat="43.075287" lon="-1.6070353">
        <time>2022-07-03T10:43:43Z</time>
      </trkpt>
      <trkpt lat="43.07524" lon="-1.6070226">
        <time>2022-07-03T10:43:46Z</time>
      </trkpt>
      <trkpt lat="43.07518" lon="-1.6069967">
        <time>2022-07-03T10:43:50Z</time>
      </trkpt>
      <trkpt lat="43.075123" lon="-1.6069827">
        <time>2022-07-03T10:43:54Z</time>
      </trkpt>
      <trkpt lat="43.07506" lon="-1.60697">
        <time>2022-07-03T10:43:58Z</time>
      </trkpt>
      <trkpt lat="43.075012" lon="-1.6069573">
        <time>2022-07-03T10:44:01Z</time>
      </trkpt>
      <trkpt lat="43.074947" lon="-1.606937">
        <time>2022-07-03T10:44:05Z</time>
      </trkpt>
      <trkpt lat="43.07489" lon="-1.6069127">
        <time>2022-07-03T10:44:08Z</time>
      </trkpt>
      <trkpt lat="43.074833" lon="-1.6068977">
        <time>2022-07-03T10:44:11Z</time>
      </trkpt>
      <trkpt lat="43.07478" lon="-1.6068931">
        <time>2022-07-03T10:44:14Z</time>
      </trkpt>
      <trkpt lat="43.074715" lon="-1.606891">
        <time>2022-07-03T10:44:18Z</time>
      </trkpt>
      <trkpt lat="43.07465" lon="-1.606894">
        <time>2022-07-03T10:44:22Z</time>
      </trkpt>
      <trkpt lat="43.074593" lon="-1.606913">
        <time>2022-07-03T10:44:25Z</time>
      </trkpt>
      <trkpt lat="43.074543" lon="-1.6069347">
        <time>2022-07-03T10:44:28Z</time>
      </trkpt>
      <trkpt lat="43.07448" lon="-1.606956">
        <time>2022-07-03T10:44:32Z</time>
      </trkpt>
      <trkpt lat="43.07443" lon="-1.6069807">
        <time>2022-07-03T10:44:35Z</time>
      </trkpt>
      <trkpt lat="43.074383" lon="-1.6070074">
        <time>2022-07-03T10:44:38Z</time>
      </trkpt>
      <trkpt lat="43.07432" lon="-1.6070327">
        <time>2022-07-03T10:44:42Z</time>
      </trkpt>
      <trkpt lat="43.07426" lon="-1.6070673">
        <time>2022-07-03T10:44:46Z</time>
      </trkpt>
      <trkpt lat="43.07421" lon="-1.6070896">
        <time>2022-07-03T10:44:49Z</time>
      </trkpt>
      <trkpt lat="43.07415" lon="-1.6071186">
        <time>2022-07-03T10:44:53Z</time>
      </trkpt>
      <trkpt lat="43.0741" lon="-1.6071466">
        <time>2022-07-03T10:44:56Z</time>
      </trkpt>
      <trkpt lat="43.07405" lon="-1.607172">
        <time>2022-07-03T10:44:59Z</time>
      </trkpt>
      <trkpt lat="43.074005" lon="-1.6071963">
        <time>2022-07-03T10:45:02Z</time>
      </trkpt>
      <trkpt lat="43.073948" lon="-1.607231">
        <time>2022-07-03T10:45:06Z</time>
      </trkpt>
      <trkpt lat="43.073895" lon="-1.607265">
        <time>2022-07-03T10:45:10Z</time>
      </trkpt>
      <trkpt lat="43.07384" lon="-1.607296">
        <time>2022-07-03T10:45:14Z</time>
      </trkpt>
      <trkpt lat="43.073784" lon="-1.6073177">
        <time>2022-07-03T10:45:18Z</time>
      </trkpt>
      <trkpt lat="43.073727" lon="-1.6073426">
        <time>2022-07-03T10:45:22Z</time>
      </trkpt>
      <trkpt lat="43.07367" lon="-1.60737">
        <time>2022-07-03T10:45:26Z</time>
      </trkpt>
      <trkpt lat="43.073624" lon="-1.6073836">
        <time>2022-07-03T10:45:29Z</time>
      </trkpt>
      <trkpt lat="43.073566" lon="-1.6073973">
        <time>2022-07-03T10:45:33Z</time>
      </trkpt>
      <trkpt lat="43.07351" lon="-1.6074173">
        <time>2022-07-03T10:45:37Z</time>
      </trkpt>
      <trkpt lat="43.07345" lon="-1.6074193">
        <time>2022-07-03T10:45:41Z</time>
      </trkpt>
      <trkpt lat="43.073387" lon="-1.6074173">
        <time>2022-07-03T10:45:45Z</time>
      </trkpt>
      <trkpt lat="43.073338" lon="-1.6074157">
        <time>2022-07-03T10:45:48Z</time>
      </trkpt>
      <trkpt lat="43.07326" lon="-1.607407">
        <time>2022-07-03T10:45:52Z</time>
      </trkpt>
      <trkpt lat="43.073193" lon="-1.6073966">
        <time>2022-07-03T10:45:56Z</time>
      </trkpt>
      <trkpt lat="43.073116" lon="-1.6073916">
        <time>2022-07-03T10:46:00Z</time>
      </trkpt>
      <trkpt lat="43.07306" lon="-1.6073947">
        <time>2022-07-03T10:46:03Z</time>
      </trkpt>
      <trkpt lat="43.073006" lon="-1.6074036">
        <time>2022-07-03T10:46:06Z</time>
      </trkpt>
      <trkpt lat="43.072956" lon="-1.60742">
        <time>2022-07-03T10:46:09Z</time>
      </trkpt>
      <trkpt lat="43.0729" lon="-1.60744">
        <time>2022-07-03T10:46:13Z</time>
      </trkpt>
      <trkpt lat="43.07284" lon="-1.6074693">
        <time>2022-07-03T10:46:17Z</time>
      </trkpt>
      <trkpt lat="43.072784" lon="-1.6074927">
        <time>2022-07-03T10:46:21Z</time>
      </trkpt>
      <trkpt lat="43.072742" lon="-1.6075293">
        <time>2022-07-03T10:46:25Z</time>
      </trkpt>
      <trkpt lat="43.072697" lon="-1.6075723">
        <time>2022-07-03T10:46:29Z</time>
      </trkpt>
      <trkpt lat="43.072636" lon="-1.6076056">
        <time>2022-07-03T10:46:33Z</time>
      </trkpt>
      <trkpt lat="43.072586" lon="-1.607646">
        <time>2022-07-03T10:46:37Z</time>
      </trkpt>
      <trkpt lat="43.072536" lon="-1.6076876">
        <time>2022-07-03T10:46:41Z</time>
      </trkpt>
      <trkpt lat="43.07249" lon="-1.6077306">
        <time>2022-07-03T10:46:45Z</time>
      </trkpt>
      <trkpt lat="43.072437" lon="-1.6077819">
        <time>2022-07-03T10:46:49Z</time>
      </trkpt>
      <trkpt lat="43.072407" lon="-1.6078246">
        <time>2022-07-03T10:46:52Z</time>
      </trkpt>
      <trkpt lat="43.072365" lon="-1.6078752">
        <time>2022-07-03T10:46:56Z</time>
      </trkpt>
      <trkpt lat="43.07233" lon="-1.6079316">
        <time>2022-07-03T10:47:00Z</time>
      </trkpt>
      <trkpt lat="43.072292" lon="-1.6079916">
        <time>2022-07-03T10:47:04Z</time>
      </trkpt>
      <trkpt lat="43.072254" lon="-1.6080436">
        <time>2022-07-03T10:47:08Z</time>
      </trkpt>
      <trkpt lat="43.072197" lon="-1.6081042">
        <time>2022-07-03T10:47:12Z</time>
      </trkpt>
      <trkpt lat="43.07215" lon="-1.6081612">
        <time>2022-07-03T10:47:15Z</time>
      </trkpt>
      <trkpt lat="43.07212" lon="-1.6082306">
        <time>2022-07-03T10:47:18Z</time>
      </trkpt>
      <trkpt lat="43.072086" lon="-1.6083032">
        <time>2022-07-03T10:47:21Z</time>
      </trkpt>
      <trkpt lat="43.072067" lon="-1.6083802">
        <time>2022-07-03T10:47:24Z</time>
      </trkpt>
      <trkpt lat="43.07206" lon="-1.6084605">
        <time>2022-07-03T10:47:27Z</time>
      </trkpt>
      <trkpt lat="43.072056" lon="-1.6085452">
        <time>2022-07-03T10:47:30Z</time>
      </trkpt>
      <trkpt lat="43.072044" lon="-1.6086175">
        <time>2022-07-03T10:47:33Z</time>
      </trkpt>
      <trkpt lat="43.072025" lon="-1.6086872">
        <time>2022-07-03T10:47:36Z</time>
      </trkpt>
      <trkpt lat="43.07201" lon="-1.6087552">
        <time>2022-07-03T10:47:39Z</time>
      </trkpt>
      <trkpt lat="43.071976" lon="-1.6088198">
        <time>2022-07-03T10:47:42Z</time>
      </trkpt>
      <trkpt lat="43.071945" lon="-1.6088855">
        <time>2022-07-03T10:47:45Z</time>
      </trkpt>
      <trkpt lat="43.07192" lon="-1.6089466">
        <time>2022-07-03T10:47:48Z</time>
      </trkpt>
      <trkpt lat="43.07188" lon="-1.6090052">
        <time>2022-07-03T10:47:51Z</time>
      </trkpt>
      <trkpt lat="43.071835" lon="-1.6090539">
        <time>2022-07-03T10:47:54Z</time>
      </trkpt>
      <trkpt lat="43.071793" lon="-1.6090941">
        <time>2022-07-03T10:47:57Z</time>
      </trkpt>
      <trkpt lat="43.071743" lon="-1.6091288">
        <time>2022-07-03T10:48:00Z</time>
      </trkpt>
      <trkpt lat="43.071697" lon="-1.6091548">
        <time>2022-07-03T10:48:03Z</time>
      </trkpt>
      <trkpt lat="43.07165" lon="-1.6091765">
        <time>2022-07-03T10:48:06Z</time>
      </trkpt>
      <trkpt lat="43.071583" lon="-1.6091932">
        <time>2022-07-03T10:48:10Z</time>
      </trkpt>
      <trkpt lat="43.071526" lon="-1.6092042">
        <time>2022-07-03T10:48:13Z</time>
      </trkpt>
      <trkpt lat="43.071472" lon="-1.6092145">
        <time>2022-07-03T10:48:16Z</time>
      </trkpt>
      <trkpt lat="43.071426" lon="-1.6092188">
        <time>2022-07-03T10:48:19Z</time>
      </trkpt>
      <trkpt lat="43.071365" lon="-1.6092192">
        <time>2022-07-03T10:48:23Z</time>
      </trkpt>
      <trkpt lat="43.071312" lon="-1.6092252">
        <time>2022-07-03T10:48:26Z</time>
      </trkpt>
      <trkpt lat="43.071255" lon="-1.6092432">
        <time>2022-07-03T10:48:30Z</time>
      </trkpt>
      <trkpt lat="43.071182" lon="-1.6092715">
        <time>2022-07-03T10:48:34Z</time>
      </trkpt>
      <trkpt lat="43.07112" lon="-1.6093118">
        <time>2022-07-03T10:48:37Z</time>
      </trkpt>
      <trkpt lat="43.07107" lon="-1.6093415">
        <time>2022-07-03T10:48:40Z</time>
      </trkpt>
      <trkpt lat="43.07103" lon="-1.6093861">
        <time>2022-07-03T10:48:44Z</time>
      </trkpt>
      <trkpt lat="43.070988" lon="-1.6094328">
        <time>2022-07-03T10:48:47Z</time>
      </trkpt>
      <trkpt lat="43.07094" lon="-1.6094885">
        <time>2022-07-03T10:48:51Z</time>
      </trkpt>
      <trkpt lat="43.07089" lon="-1.6095448">
        <time>2022-07-03T10:48:55Z</time>
      </trkpt>
      <trkpt lat="43.07085" lon="-1.6096114">
        <time>2022-07-03T10:48:59Z</time>
      </trkpt>
      <trkpt lat="43.070816" lon="-1.6096845">
        <time>2022-07-03T10:49:03Z</time>
      </trkpt>
      <trkpt lat="43.07078" lon="-1.6097552">
        <time>2022-07-03T10:49:07Z</time>
      </trkpt>
      <trkpt lat="43.070747" lon="-1.6098344">
        <time>2022-07-03T10:49:11Z</time>
      </trkpt>
      <trkpt lat="43.070732" lon="-1.6098955">
        <time>2022-07-03T10:49:14Z</time>
      </trkpt>
      <trkpt lat="43.070713" lon="-1.6099831">
        <time>2022-07-03T10:49:18Z</time>
      </trkpt>
      <trkpt lat="43.070698" lon="-1.6100497">
        <time>2022-07-03T10:49:21Z</time>
      </trkpt>
      <trkpt lat="43.07067" lon="-1.6101295">
        <time>2022-07-03T10:49:25Z</time>
      </trkpt>
      <trkpt lat="43.070652" lon="-1.6102158">
        <time>2022-07-03T10:49:29Z</time>
      </trkpt>
      <trkpt lat="43.07064" lon="-1.6102887">
        <time>2022-07-03T10:49:32Z</time>
      </trkpt>
      <trkpt lat="43.070618" lon="-1.6103485">
        <time>2022-07-03T10:49:35Z</time>
      </trkpt>
      <trkpt lat="43.070587" lon="-1.6104171">
        <time>2022-07-03T10:49:39Z</time>
      </trkpt>
      <trkpt lat="43.070576" lon="-1.6104984">
        <time>2022-07-03T10:49:44Z</time>
      </trkpt>
      <trkpt lat="43.070557" lon="-1.6105734">
        <time>2022-07-03T10:49:49Z</time>
      </trkpt>
      <trkpt lat="43.070526" lon="-1.6106367">
        <time>2022-07-03T10:49:54Z</time>
      </trkpt>
      <trkpt lat="43.070488" lon="-1.6106861">
        <time>2022-07-03T10:49:58Z</time>
      </trkpt>
      <trkpt lat="43.07045" lon="-1.6107358">
        <time>2022-07-03T10:50:02Z</time>
      </trkpt>
      <trkpt lat="43.070396" lon="-1.6107837">
        <time>2022-07-03T10:50:06Z</time>
      </trkpt>
      <trkpt lat="43.07036" lon="-1.6108347">
        <time>2022-07-03T10:50:10Z</time>
      </trkpt>
      <trkpt lat="43.070312" lon="-1.6108913">
        <time>2022-07-03T10:50:15Z</time>
      </trkpt>
      <trkpt lat="43.070263" lon="-1.610918">
        <time>2022-07-03T10:50:19Z</time>
      </trkpt>
      <trkpt lat="43.070194" lon="-1.6109344">
        <time>2022-07-03T10:50:23Z</time>
      </trkpt>
      <trkpt lat="43.070145" lon="-1.6109596">
        <time>2022-07-03T10:50:27Z</time>
      </trkpt>
      <trkpt lat="43.070095" lon="-1.6110067">
        <time>2022-07-03T10:50:32Z</time>
      </trkpt>
      <trkpt lat="43.070053" lon="-1.6110591">
        <time>2022-07-03T10:50:35Z</time>
      </trkpt>
      <trkpt lat="43.070007" lon="-1.611109">
        <time>2022-07-03T10:50:38Z</time>
      </trkpt>
      <trkpt lat="43.069958" lon="-1.6111491">
        <time>2022-07-03T10:50:41Z</time>
      </trkpt>
      <trkpt lat="43.0699" lon="-1.6111964">
        <time>2022-07-03T10:50:45Z</time>
      </trkpt>
      <trkpt lat="43.06986" lon="-1.6112341">
        <time>2022-07-03T10:50:48Z</time>
      </trkpt>
      <trkpt lat="43.069813" lon="-1.6112697">
        <time>2022-07-03T10:50:51Z</time>
      </trkpt>
      <trkpt lat="43.069748" lon="-1.6113063">
        <time>2022-07-03T10:50:54Z</time>
      </trkpt>
      <trkpt lat="43.06969" lon="-1.6113523">
        <time>2022-07-03T10:50:57Z</time>
      </trkpt>
      <trkpt lat="43.069637" lon="-1.61139">
        <time>2022-07-03T10:51:00Z</time>
      </trkpt>
      <trkpt lat="43.069588" lon="-1.6114193">
        <time>2022-07-03T10:51:03Z</time>
      </trkpt>
      <trkpt lat="43.06954" lon="-1.6114433">
        <time>2022-07-03T10:51:06Z</time>
      </trkpt>
      <trkpt lat="43.06949" lon="-1.6114687">
        <time>2022-07-03T10:51:10Z</time>
      </trkpt>
      <trkpt lat="43.069435" lon="-1.6115023">
        <time>2022-07-03T10:51:14Z</time>
      </trkpt>
      <trkpt lat="43.069374" lon="-1.6115444">
        <time>2022-07-03T10:51:18Z</time>
      </trkpt>
      <trkpt lat="43.069324" lon="-1.6115646">
        <time>2022-07-03T10:51:21Z</time>
      </trkpt>
      <trkpt lat="43.06927" lon="-1.6115803">
        <time>2022-07-03T10:51:25Z</time>
      </trkpt>
      <trkpt lat="43.069202" lon="-1.611589">
        <time>2022-07-03T10:51:29Z</time>
      </trkpt>
      <trkpt lat="43.06915" lon="-1.6115947">
        <time>2022-07-03T10:51:32Z</time>
      </trkpt>
      <trkpt lat="43.069096" lon="-1.6116046">
        <time>2022-07-03T10:51:35Z</time>
      </trkpt>
      <trkpt lat="43.06904" lon="-1.6116366">
        <time>2022-07-03T10:51:39Z</time>
      </trkpt>
      <trkpt lat="43.068996" lon="-1.6116953">
        <time>2022-07-03T10:51:42Z</time>
      </trkpt>
      <trkpt lat="43.06895" lon="-1.6117346">
        <time>2022-07-03T10:51:45Z</time>
      </trkpt>
      <trkpt lat="43.068905" lon="-1.611756">
        <time>2022-07-03T10:51:48Z</time>
      </trkpt>
      <trkpt lat="43.06884" lon="-1.6117823">
        <time>2022-07-03T10:51:52Z</time>
      </trkpt>
      <trkpt lat="43.068794" lon="-1.6118063">
        <time>2022-07-03T10:51:55Z</time>
      </trkpt>
      <trkpt lat="43.06873" lon="-1.611841">
        <time>2022-07-03T10:51:59Z</time>
      </trkpt>
      <trkpt lat="43.068684" lon="-1.6118673">
        <time>2022-07-03T10:52:02Z</time>
      </trkpt>
      <trkpt lat="43.068626" lon="-1.6118969">
        <time>2022-07-03T10:52:06Z</time>
      </trkpt>
      <trkpt lat="43.06857" lon="-1.6119362">
        <time>2022-07-03T10:52:10Z</time>
      </trkpt>
      <trkpt lat="43.068512" lon="-1.6119796">
        <time>2022-07-03T10:52:14Z</time>
      </trkpt>
      <trkpt lat="43.068462" lon="-1.6120212">
        <time>2022-07-03T10:52:18Z</time>
      </trkpt>
      <trkpt lat="43.068413" lon="-1.612065">
        <time>2022-07-03T10:52:22Z</time>
      </trkpt>
      <trkpt lat="43.068363" lon="-1.6121095">
        <time>2022-07-03T10:52:26Z</time>
      </trkpt>
      <trkpt lat="43.068314" lon="-1.6121489">
        <time>2022-07-03T10:52:30Z</time>
      </trkpt>
      <trkpt lat="43.068256" lon="-1.6121786">
        <time>2022-07-03T10:52:34Z</time>
      </trkpt>
      <trkpt lat="43.068207" lon="-1.6122209">
        <time>2022-07-03T10:52:38Z</time>
      </trkpt>
      <trkpt lat="43.06816" lon="-1.6122535">
        <time>2022-07-03T10:52:42Z</time>
      </trkpt>
      <trkpt lat="43.06809" lon="-1.6122955">
        <time>2022-07-03T10:52:48Z</time>
      </trkpt>
      <trkpt lat="43.06805" lon="-1.6123539">
        <time>2022-07-03T10:52:53Z</time>
      </trkpt>
      <trkpt lat="43.068035" lon="-1.6124276">
        <time>2022-07-03T10:52:57Z</time>
      </trkpt>
      <trkpt lat="43.068024" lon="-1.6125035">
        <time>2022-07-03T10:53:01Z</time>
      </trkpt>
      <trkpt lat="43.068" lon="-1.6125625">
        <time>2022-07-03T10:53:05Z</time>
      </trkpt>
      <trkpt lat="43.068035" lon="-1.6124899">
        <time>2022-07-03T10:57:18Z</time>
      </trkpt>
      <trkpt lat="43.06803" lon="-1.6123832">
        <time>2022-07-03T10:57:21Z</time>
      </trkpt>
      <trkpt lat="43.068016" lon="-1.6123189">
        <time>2022-07-03T10:57:23Z</time>
      </trkpt>
      <trkpt lat="43.06799" lon="-1.6122456">
        <time>2022-07-03T10:57:26Z</time>
      </trkpt>
      <trkpt lat="43.067966" lon="-1.6121782">
        <time>2022-07-03T10:57:29Z</time>
      </trkpt>
      <trkpt lat="43.067944" lon="-1.6121053">
        <time>2022-07-03T10:57:32Z</time>
      </trkpt>
      <trkpt lat="43.067932" lon="-1.6120309">
        <time>2022-07-03T10:57:35Z</time>
      </trkpt>
      <trkpt lat="43.067932" lon="-1.6119579">
        <time>2022-07-03T10:57:38Z</time>
      </trkpt>
      <trkpt lat="43.06795" lon="-1.6118869">
        <time>2022-07-03T10:57:41Z</time>
      </trkpt>
      <trkpt lat="43.06798" lon="-1.6118243">
        <time>2022-07-03T10:57:44Z</time>
      </trkpt>
      <trkpt lat="43.068016" lon="-1.611769">
        <time>2022-07-03T10:57:47Z</time>
      </trkpt>
      <trkpt lat="43.06807" lon="-1.6117322">
        <time>2022-07-03T10:57:50Z</time>
      </trkpt>
      <trkpt lat="43.06813" lon="-1.6117003">
        <time>2022-07-03T10:57:53Z</time>
      </trkpt>
      <trkpt lat="43.06819" lon="-1.6116682">
        <time>2022-07-03T10:57:56Z</time>
      </trkpt>
      <trkpt lat="43.068253" lon="-1.6116402">
        <time>2022-07-03T10:57:59Z</time>
      </trkpt>
      <trkpt lat="43.06831" lon="-1.6116042">
        <time>2022-07-03T10:58:02Z</time>
      </trkpt>
      <trkpt lat="43.068367" lon="-1.6115736">
        <time>2022-07-03T10:58:05Z</time>
      </trkpt>
      <trkpt lat="43.068428" lon="-1.6115502">
        <time>2022-07-03T10:58:08Z</time>
      </trkpt>
      <trkpt lat="43.068485" lon="-1.6115283">
        <time>2022-07-03T10:58:11Z</time>
      </trkpt>
      <trkpt lat="43.06854" lon="-1.6115133">
        <time>2022-07-03T10:58:14Z</time>
      </trkpt>
      <trkpt lat="43.0686" lon="-1.6114886">
        <time>2022-07-03T10:58:18Z</time>
      </trkpt>
      <trkpt lat="43.06864" lon="-1.611465">
        <time>2022-07-03T10:58:21Z</time>
      </trkpt>
      <trkpt lat="43.06869" lon="-1.611424">
        <time>2022-07-03T10:58:26Z</time>
      </trkpt>
      <trkpt lat="43.068737" lon="-1.6113836">
        <time>2022-07-03T10:58:30Z</time>
      </trkpt>
      <trkpt lat="43.06878" lon="-1.611331">
        <time>2022-07-03T10:58:34Z</time>
      </trkpt>
      <trkpt lat="43.06883" lon="-1.6112746">
        <time>2022-07-03T10:58:38Z</time>
      </trkpt>
      <trkpt lat="43.068863" lon="-1.6112366">
        <time>2022-07-03T10:58:41Z</time>
      </trkpt>
      <trkpt lat="43.068924" lon="-1.6112006">
        <time>2022-07-03T10:58:45Z</time>
      </trkpt>
      <trkpt lat="43.06899" lon="-1.6111486">
        <time>2022-07-03T10:58:49Z</time>
      </trkpt>
      <trkpt lat="43.069027" lon="-1.6111073">
        <time>2022-07-03T10:58:52Z</time>
      </trkpt>
      <trkpt lat="43.069084" lon="-1.6110506">
        <time>2022-07-03T10:58:56Z</time>
      </trkpt>
      <trkpt lat="43.069138" lon="-1.6110157">
        <time>2022-07-03T10:58:59Z</time>
      </trkpt>
      <trkpt lat="43.06919" lon="-1.6109617">
        <time>2022-07-03T10:59:03Z</time>
      </trkpt>
      <trkpt lat="43.06924" lon="-1.6109257">
        <time>2022-07-03T10:59:06Z</time>
      </trkpt>
      <trkpt lat="43.06929" lon="-1.610891">
        <time>2022-07-03T10:59:09Z</time>
      </trkpt>
      <trkpt lat="43.069347" lon="-1.610844">
        <time>2022-07-03T10:59:13Z</time>
      </trkpt>
      <trkpt lat="43.06939" lon="-1.610803">
        <time>2022-07-03T10:59:16Z</time>
      </trkpt>
      <trkpt lat="43.069435" lon="-1.6107626">
        <time>2022-07-03T10:59:19Z</time>
      </trkpt>
      <trkpt lat="43.06947" lon="-1.6107086">
        <time>2022-07-03T10:59:22Z</time>
      </trkpt>
      <trkpt lat="43.0695" lon="-1.6106473">
        <time>2022-07-03T10:59:25Z</time>
      </trkpt>
      <trkpt lat="43.06954" lon="-1.6105827">
        <time>2022-07-03T10:59:29Z</time>
      </trkpt>
      <trkpt lat="43.069588" lon="-1.6105276">
        <time>2022-07-03T10:59:33Z</time>
      </trkpt>
      <trkpt lat="43.069622" lon="-1.610467">
        <time>2022-07-03T10:59:37Z</time>
      </trkpt>
      <trkpt lat="43.06965" lon="-1.6104">
        <time>2022-07-03T10:59:41Z</time>
      </trkpt>
      <trkpt lat="43.069668" lon="-1.6103203">
        <time>2022-07-03T10:59:45Z</time>
      </trkpt>
      <trkpt lat="43.069637" lon="-1.610226">
        <time>2022-07-03T10:59:50Z</time>
      </trkpt>
      <trkpt lat="43.06959" lon="-1.6101954">
        <time>2022-07-03T10:59:53Z</time>
      </trkpt>
      <trkpt lat="43.069523" lon="-1.6102034">
        <time>2022-07-03T10:59:57Z</time>
      </trkpt>
      <trkpt lat="43.069477" lon="-1.6102394">
        <time>2022-07-03T11:00:00Z</time>
      </trkpt>
      <trkpt lat="43.069443" lon="-1.6102903">
        <time>2022-07-03T11:00:03Z</time>
      </trkpt>
      <trkpt lat="43.069405" lon="-1.6103387">
        <time>2022-07-03T11:00:06Z</time>
      </trkpt>
      <trkpt lat="43.069363" lon="-1.6103786">
        <time>2022-07-03T11:00:09Z</time>
      </trkpt>
      <trkpt lat="43.069317" lon="-1.6104296">
        <time>2022-07-03T11:00:13Z</time>
      </trkpt>
      <trkpt lat="43.06927" lon="-1.6104937">
        <time>2022-07-03T11:00:17Z</time>
      </trkpt>
      <trkpt lat="43.069233" lon="-1.6105334">
        <time>2022-07-03T11:00:20Z</time>
      </trkpt>
      <trkpt lat="43.06918" lon="-1.6105746">
        <time>2022-07-03T11:00:24Z</time>
      </trkpt>
      <trkpt lat="43.069122" lon="-1.6106253">
        <time>2022-07-03T11:00:28Z</time>
      </trkpt>
      <trkpt lat="43.069084" lon="-1.6106644">
        <time>2022-07-03T11:00:31Z</time>
      </trkpt>
      <trkpt lat="43.069023" lon="-1.610709">
        <time>2022-07-03T11:00:35Z</time>
      </trkpt>
      <trkpt lat="43.068974" lon="-1.6107353">
        <time>2022-07-03T11:00:38Z</time>
      </trkpt>
      <trkpt lat="43.06891" lon="-1.6107633">
        <time>2022-07-03T11:00:42Z</time>
      </trkpt>
      <trkpt lat="43.06886" lon="-1.6107776">
        <time>2022-07-03T11:00:45Z</time>
      </trkpt>
      <trkpt lat="43.068813" lon="-1.6107886">
        <time>2022-07-03T11:00:48Z</time>
      </trkpt>
      <trkpt lat="43.068726" lon="-1.6108053">
        <time>2022-07-03T11:00:53Z</time>
      </trkpt>
      <trkpt lat="43.068665" lon="-1.6108123">
        <time>2022-07-03T11:00:57Z</time>
      </trkpt>
      <trkpt lat="43.068596" lon="-1.610812">
        <time>2022-07-03T11:01:01Z</time>
      </trkpt>
      <trkpt lat="43.06854" lon="-1.6108093">
        <time>2022-07-03T11:01:04Z</time>
      </trkpt>
      <trkpt lat="43.068474" lon="-1.6108019">
        <time>2022-07-03T11:01:08Z</time>
      </trkpt>
      <trkpt lat="43.06841" lon="-1.6108023">
        <time>2022-07-03T11:01:12Z</time>
      </trkpt>
      <trkpt lat="43.068363" lon="-1.6108136">
        <time>2022-07-03T11:01:16Z</time>
      </trkpt>
      <trkpt lat="43.06831" lon="-1.6107973">
        <time>2022-07-03T11:01:20Z</time>
      </trkpt>
      <trkpt lat="43.06826" lon="-1.6107767">
        <time>2022-07-03T11:01:24Z</time>
      </trkpt>
      <trkpt lat="43.06821" lon="-1.6107479">
        <time>2022-07-03T11:01:28Z</time>
      </trkpt>
      <trkpt lat="43.068157" lon="-1.6107126">
        <time>2022-07-03T11:01:33Z</time>
      </trkpt>
      <trkpt lat="43.068092" lon="-1.610679">
        <time>2022-07-03T11:01:39Z</time>
      </trkpt>
      <trkpt lat="43.068035" lon="-1.6106493">
        <time>2022-07-03T11:01:43Z</time>
      </trkpt>
      <trkpt lat="43.06799" lon="-1.6106207">
        <time>2022-07-03T11:01:47Z</time>
      </trkpt>
      <trkpt lat="43.067944" lon="-1.6105837">
        <time>2022-07-03T11:01:51Z</time>
      </trkpt>
      <trkpt lat="43.06789" lon="-1.6105443">
        <time>2022-07-03T11:01:56Z</time>
      </trkpt>
      <trkpt lat="43.067852" lon="-1.6104964">
        <time>2022-07-03T11:02:00Z</time>
      </trkpt>
      <trkpt lat="43.0678" lon="-1.6104677">
        <time>2022-07-03T11:02:04Z</time>
      </trkpt>
      <trkpt lat="43.067734" lon="-1.610445">
        <time>2022-07-03T11:02:07Z</time>
      </trkpt>
      <trkpt lat="43.067688" lon="-1.6104313">
        <time>2022-07-03T11:02:09Z</time>
      </trkpt>
      <trkpt lat="43.06761" lon="-1.6104068">
        <time>2022-07-03T11:02:12Z</time>
      </trkpt>
      <trkpt lat="43.067562" lon="-1.6103973">
        <time>2022-07-03T11:02:14Z</time>
      </trkpt>
      <trkpt lat="43.067497" lon="-1.6103904">
        <time>2022-07-03T11:02:17Z</time>
      </trkpt>
      <trkpt lat="43.06743" lon="-1.6103793">
        <time>2022-07-03T11:02:20Z</time>
      </trkpt>
      <trkpt lat="43.06736" lon="-1.610371">
        <time>2022-07-03T11:02:23Z</time>
      </trkpt>
      <trkpt lat="43.067314" lon="-1.6103613">
        <time>2022-07-03T11:02:25Z</time>
      </trkpt>
      <trkpt lat="43.06725" lon="-1.6103544">
        <time>2022-07-03T11:02:28Z</time>
      </trkpt>
      <trkpt lat="43.067196" lon="-1.6103584">
        <time>2022-07-03T11:02:31Z</time>
      </trkpt>
      <trkpt lat="43.067146" lon="-1.6103697">
        <time>2022-07-03T11:02:35Z</time>
      </trkpt>
      <trkpt lat="43.06709" lon="-1.6103841">
        <time>2022-07-03T11:02:39Z</time>
      </trkpt>
      <trkpt lat="43.06704" lon="-1.6103851">
        <time>2022-07-03T11:02:42Z</time>
      </trkpt>
      <trkpt lat="43.06698" lon="-1.6103857">
        <time>2022-07-03T11:02:46Z</time>
      </trkpt>
      <trkpt lat="43.06692" lon="-1.6103888">
        <time>2022-07-03T11:02:50Z</time>
      </trkpt>
      <trkpt lat="43.066868" lon="-1.6103741">
        <time>2022-07-03T11:02:54Z</time>
      </trkpt>
      <trkpt lat="43.06682" lon="-1.6103504">
        <time>2022-07-03T11:02:58Z</time>
      </trkpt>
      <trkpt lat="43.066772" lon="-1.6103357">
        <time>2022-07-03T11:03:02Z</time>
      </trkpt>
      <trkpt lat="43.06671" lon="-1.6103164">
        <time>2022-07-03T11:03:07Z</time>
      </trkpt>
      <trkpt lat="43.06666" lon="-1.6102837">
        <time>2022-07-03T11:03:11Z</time>
      </trkpt>
      <trkpt lat="43.066612" lon="-1.6102414">
        <time>2022-07-03T11:03:15Z</time>
      </trkpt>
      <trkpt lat="43.066566" lon="-1.6101964">
        <time>2022-07-03T11:03:19Z</time>
      </trkpt>
      <trkpt lat="43.06652" lon="-1.610154">
        <time>2022-07-03T11:03:23Z</time>
      </trkpt>
      <trkpt lat="43.066475" lon="-1.610115">
        <time>2022-07-03T11:03:27Z</time>
      </trkpt>
      <trkpt lat="43.066425" lon="-1.6100677">
        <time>2022-07-03T11:03:31Z</time>
      </trkpt>
      <trkpt lat="43.06637" lon="-1.610025">
        <time>2022-07-03T11:03:35Z</time>
      </trkpt>
      <trkpt lat="43.066334" lon="-1.6099805">
        <time>2022-07-03T11:03:39Z</time>
      </trkpt>
      <trkpt lat="43.066296" lon="-1.6099298">
        <time>2022-07-03T11:03:43Z</time>
      </trkpt>
      <trkpt lat="43.06624" lon="-1.6098868">
        <time>2022-07-03T11:03:47Z</time>
      </trkpt>
      <trkpt lat="43.066185" lon="-1.6098567">
        <time>2022-07-03T11:03:50Z</time>
      </trkpt>
      <trkpt lat="43.06614" lon="-1.6098255">
        <time>2022-07-03T11:03:53Z</time>
      </trkpt>
      <trkpt lat="43.066093" lon="-1.6097901">
        <time>2022-07-03T11:03:56Z</time>
      </trkpt>
      <trkpt lat="43.066055" lon="-1.6097498">
        <time>2022-07-03T11:03:59Z</time>
      </trkpt>
      <trkpt lat="43.066" lon="-1.6097058">
        <time>2022-07-03T11:04:03Z</time>
      </trkpt>
      <trkpt lat="43.065952" lon="-1.6096641">
        <time>2022-07-03T11:04:07Z</time>
      </trkpt>
      <trkpt lat="43.065895" lon="-1.6096201">
        <time>2022-07-03T11:04:11Z</time>
      </trkpt>
      <trkpt lat="43.065853" lon="-1.6095845">
        <time>2022-07-03T11:04:14Z</time>
      </trkpt>
      <trkpt lat="43.065792" lon="-1.6095492">
        <time>2022-07-03T11:04:18Z</time>
      </trkpt>
      <trkpt lat="43.065735" lon="-1.6095124">
        <time>2022-07-03T11:04:22Z</time>
      </trkpt>
      <trkpt lat="43.065678" lon="-1.6094685">
        <time>2022-07-03T11:04:26Z</time>
      </trkpt>
      <trkpt lat="43.065636" lon="-1.6094368">
        <time>2022-07-03T11:04:29Z</time>
      </trkpt>
      <trkpt lat="43.065575" lon="-1.6093942">
        <time>2022-07-03T11:04:33Z</time>
      </trkpt>
      <trkpt lat="43.06553" lon="-1.6093645">
        <time>2022-07-03T11:04:36Z</time>
      </trkpt>
      <trkpt lat="43.06547" lon="-1.6093202">
        <time>2022-07-03T11:04:40Z</time>
      </trkpt>
      <trkpt lat="43.065422" lon="-1.6092888">
        <time>2022-07-03T11:04:43Z</time>
      </trkpt>
      <trkpt lat="43.065376" lon="-1.6092602">
        <time>2022-07-03T11:04:46Z</time>
      </trkpt>
      <trkpt lat="43.065315" lon="-1.6092222">
        <time>2022-07-03T11:04:50Z</time>
      </trkpt>
      <trkpt lat="43.06526" lon="-1.6091968">
        <time>2022-07-03T11:04:54Z</time>
      </trkpt>
      <trkpt lat="43.0652" lon="-1.6091778">
        <time>2022-07-03T11:04:58Z</time>
      </trkpt>
      <trkpt lat="43.065155" lon="-1.6091665">
        <time>2022-07-03T11:05:01Z</time>
      </trkpt>
      <trkpt lat="43.06509" lon="-1.6091648">
        <time>2022-07-03T11:05:05Z</time>
      </trkpt>
      <trkpt lat="43.06503" lon="-1.6091765">
        <time>2022-07-03T11:05:09Z</time>
      </trkpt>
      <trkpt lat="43.064972" lon="-1.6091878">
        <time>2022-07-03T11:05:13Z</time>
      </trkpt>
      <trkpt lat="43.064915" lon="-1.6092209">
        <time>2022-07-03T11:05:18Z</time>
      </trkpt>
      <trkpt lat="43.064854" lon="-1.6092552">
        <time>2022-07-03T11:05:22Z</time>
      </trkpt>
      <trkpt lat="43.0648" lon="-1.6093018">
        <time>2022-07-03T11:05:26Z</time>
      </trkpt>
      <trkpt lat="43.06475" lon="-1.6093339">
        <time>2022-07-03T11:05:30Z</time>
      </trkpt>
      <trkpt lat="43.06471" lon="-1.6093678">
        <time>2022-07-03T11:05:34Z</time>
      </trkpt>
      <trkpt lat="43.064663" lon="-1.6094152">
        <time>2022-07-03T11:05:39Z</time>
      </trkpt>
      <trkpt lat="43.064606" lon="-1.6094354">
        <time>2022-07-03T11:05:44Z</time>
      </trkpt>
      <trkpt lat="43.064545" lon="-1.6094742">
        <time>2022-07-03T11:05:49Z</time>
      </trkpt>
      <trkpt lat="43.064503" lon="-1.6095208">
        <time>2022-07-03T11:05:53Z</time>
      </trkpt>
      <trkpt lat="43.064453" lon="-1.6095514">
        <time>2022-07-03T11:05:57Z</time>
      </trkpt>
      <trkpt lat="43.064404" lon="-1.6095668">
        <time>2022-07-03T11:06:01Z</time>
      </trkpt>
      <trkpt lat="43.064342" lon="-1.6095651">
        <time>2022-07-03T11:06:06Z</time>
      </trkpt>
      <trkpt lat="43.06426" lon="-1.6095501">
        <time>2022-07-03T11:06:12Z</time>
      </trkpt>
      <trkpt lat="43.064205" lon="-1.6095371">
        <time>2022-07-03T11:06:16Z</time>
      </trkpt>
      <trkpt lat="43.06415" lon="-1.6095282">
        <time>2022-07-03T11:06:20Z</time>
      </trkpt>
      <trkpt lat="43.064095" lon="-1.6095188">
        <time>2022-07-03T11:06:24Z</time>
      </trkpt>
      <trkpt lat="43.064037" lon="-1.6095119">
        <time>2022-07-03T11:06:28Z</time>
      </trkpt>
      <trkpt lat="43.06398" lon="-1.6095052">
        <time>2022-07-03T11:06:32Z</time>
      </trkpt>
      <trkpt lat="43.063927" lon="-1.6095045">
        <time>2022-07-03T11:06:36Z</time>
      </trkpt>
      <trkpt lat="43.06387" lon="-1.6095169">
        <time>2022-07-03T11:06:40Z</time>
      </trkpt>
      <trkpt lat="43.06382" lon="-1.6095368">
        <time>2022-07-03T11:06:44Z</time>
      </trkpt>
      <trkpt lat="43.063774" lon="-1.6095648">
        <time>2022-07-03T11:06:48Z</time>
      </trkpt>
      <trkpt lat="43.06373" lon="-1.6096182">
        <time>2022-07-03T11:06:53Z</time>
      </trkpt>
      <trkpt lat="43.063698" lon="-1.6096672">
        <time>2022-07-03T11:06:57Z</time>
      </trkpt>
      <trkpt lat="43.063667" lon="-1.6097392">
        <time>2022-07-03T11:07:02Z</time>
      </trkpt>
      <trkpt lat="43.06365" lon="-1.6097978">
        <time>2022-07-03T11:07:06Z</time>
      </trkpt>
      <trkpt lat="43.063618" lon="-1.6098711">
        <time>2022-07-03T11:07:10Z</time>
      </trkpt>
      <trkpt lat="43.063587" lon="-1.6099348">
        <time>2022-07-03T11:07:14Z</time>
      </trkpt>
      <trkpt lat="43.063557" lon="-1.6099905">
        <time>2022-07-03T11:07:17Z</time>
      </trkpt>
      <trkpt lat="43.06353" lon="-1.6100721">
        <time>2022-07-03T11:07:21Z</time>
      </trkpt>
      <trkpt lat="43.0635" lon="-1.6101464">
        <time>2022-07-03T11:07:25Z</time>
      </trkpt>
      <trkpt lat="43.063488" lon="-1.6102108">
        <time>2022-07-03T11:07:28Z</time>
      </trkpt>
      <trkpt lat="43.06348" lon="-1.61029">
        <time>2022-07-03T11:07:32Z</time>
      </trkpt>
      <trkpt lat="43.063473" lon="-1.6103591">
        <time>2022-07-03T11:07:36Z</time>
      </trkpt>
      <trkpt lat="43.063454" lon="-1.6104378">
        <time>2022-07-03T11:07:40Z</time>
      </trkpt>
      <trkpt lat="43.063423" lon="-1.6105042">
        <time>2022-07-03T11:07:45Z</time>
      </trkpt>
      <trkpt lat="43.063362" lon="-1.6105435">
        <time>2022-07-03T11:07:49Z</time>
      </trkpt>
      <trkpt lat="43.063316" lon="-1.6105925">
        <time>2022-07-03T11:07:52Z</time>
      </trkpt>
      <trkpt lat="43.063274" lon="-1.6106484">
        <time>2022-07-03T11:07:55Z</time>
      </trkpt>
      <trkpt lat="43.06324" lon="-1.6107191">
        <time>2022-07-03T11:07:58Z</time>
      </trkpt>
      <trkpt lat="43.0632" lon="-1.6107874">
        <time>2022-07-03T11:08:01Z</time>
      </trkpt>
      <trkpt lat="43.06317" lon="-1.6108677">
        <time>2022-07-03T11:08:04Z</time>
      </trkpt>
      <trkpt lat="43.063152" lon="-1.6109514">
        <time>2022-07-03T11:08:07Z</time>
      </trkpt>
      <trkpt lat="43.063145" lon="-1.6110264">
        <time>2022-07-03T11:08:10Z</time>
      </trkpt>
      <trkpt lat="43.06313" lon="-1.6110944">
        <time>2022-07-03T11:08:14Z</time>
      </trkpt>
      <trkpt lat="43.06311" lon="-1.6111617">
        <time>2022-07-03T11:08:17Z</time>
      </trkpt>
      <trkpt lat="43.063087" lon="-1.6112391">
        <time>2022-07-03T11:08:20Z</time>
      </trkpt>
      <trkpt lat="43.063065" lon="-1.611312">
        <time>2022-07-03T11:08:23Z</time>
      </trkpt>
      <trkpt lat="43.063038" lon="-1.6113801">
        <time>2022-07-03T11:08:26Z</time>
      </trkpt>
      <trkpt lat="43.063007" lon="-1.611446">
        <time>2022-07-03T11:08:29Z</time>
      </trkpt>
      <trkpt lat="43.06298" lon="-1.6115067">
        <time>2022-07-03T11:08:32Z</time>
      </trkpt>
      <trkpt lat="43.062958" lon="-1.6115824">
        <time>2022-07-03T11:08:36Z</time>
      </trkpt>
      <trkpt lat="43.06295" lon="-1.6116583">
        <time>2022-07-03T11:08:40Z</time>
      </trkpt>
      <trkpt lat="43.062946" lon="-1.6117331">
        <time>2022-07-03T11:08:45Z</time>
      </trkpt>
      <trkpt lat="43.062927" lon="-1.611803">
        <time>2022-07-03T11:08:49Z</time>
      </trkpt>
      <trkpt lat="43.062897" lon="-1.6118747">
        <time>2022-07-03T11:08:53Z</time>
      </trkpt>
      <trkpt lat="43.06287" lon="-1.6119391">
        <time>2022-07-03T11:08:57Z</time>
      </trkpt>
      <trkpt lat="43.06284" lon="-1.6120054">
        <time>2022-07-03T11:09:01Z</time>
      </trkpt>
      <trkpt lat="43.06281" lon="-1.612046">
        <time>2022-07-03T11:09:05Z</time>
      </trkpt>
      <trkpt lat="43.06276" lon="-1.6121273">
        <time>2022-07-03T11:09:10Z</time>
      </trkpt>
      <trkpt lat="43.06273" lon="-1.6121957">
        <time>2022-07-03T11:09:13Z</time>
      </trkpt>
      <trkpt lat="43.062702" lon="-1.612267">
        <time>2022-07-03T11:09:16Z</time>
      </trkpt>
      <trkpt lat="43.06268" lon="-1.6123383">
        <time>2022-07-03T11:09:19Z</time>
      </trkpt>
      <trkpt lat="43.062653" lon="-1.6124094">
        <time>2022-07-03T11:09:22Z</time>
      </trkpt>
      <trkpt lat="43.06263" lon="-1.612468">
        <time>2022-07-03T11:09:25Z</time>
      </trkpt>
      <trkpt lat="43.062607" lon="-1.6125393">
        <time>2022-07-03T11:09:29Z</time>
      </trkpt>
      <trkpt lat="43.06259" lon="-1.6126077">
        <time>2022-07-03T11:09:32Z</time>
      </trkpt>
      <trkpt lat="43.062565" lon="-1.612674">
        <time>2022-07-03T11:09:35Z</time>
      </trkpt>
      <trkpt lat="43.06254" lon="-1.6127373">
        <time>2022-07-03T11:09:38Z</time>
      </trkpt>
      <trkpt lat="43.062504" lon="-1.6127933">
        <time>2022-07-03T11:09:41Z</time>
      </trkpt>
      <trkpt lat="43.062466" lon="-1.612855">
        <time>2022-07-03T11:09:44Z</time>
      </trkpt>
      <trkpt lat="43.062428" lon="-1.612914">
        <time>2022-07-03T11:09:47Z</time>
      </trkpt>
      <trkpt lat="43.06237" lon="-1.612985">
        <time>2022-07-03T11:09:50Z</time>
      </trkpt>
      <trkpt lat="43.062325" lon="-1.6130323">
        <time>2022-07-03T11:09:52Z</time>
      </trkpt>
      <trkpt lat="43.062283" lon="-1.613088">
        <time>2022-07-03T11:09:54Z</time>
      </trkpt>
      <trkpt lat="43.06225" lon="-1.613148">
        <time>2022-07-03T11:09:56Z</time>
      </trkpt>
      <trkpt lat="43.062218" lon="-1.6132073">
        <time>2022-07-03T11:09:58Z</time>
      </trkpt>
      <trkpt lat="43.06218" lon="-1.6132697">
        <time>2022-07-03T11:10:00Z</time>
      </trkpt>
      <trkpt lat="43.06214" lon="-1.6133356">
        <time>2022-07-03T11:10:02Z</time>
      </trkpt>
      <trkpt lat="43.062103" lon="-1.6134022">
        <time>2022-07-03T11:10:04Z</time>
      </trkpt>
      <trkpt lat="43.06207" lon="-1.6134709">
        <time>2022-07-03T11:10:06Z</time>
      </trkpt>
      <trkpt lat="43.062042" lon="-1.6135433">
        <time>2022-07-03T11:10:08Z</time>
      </trkpt>
      <trkpt lat="43.06202" lon="-1.6136086">
        <time>2022-07-03T11:10:10Z</time>
      </trkpt>
      <trkpt lat="43.061993" lon="-1.6136767">
        <time>2022-07-03T11:10:12Z</time>
      </trkpt>
      <trkpt lat="43.061966" lon="-1.6137487">
        <time>2022-07-03T11:10:14Z</time>
      </trkpt>
      <trkpt lat="43.06194" lon="-1.6138213">
        <time>2022-07-03T11:10:16Z</time>
      </trkpt>
      <trkpt lat="43.0619" lon="-1.6138946">
        <time>2022-07-03T11:10:18Z</time>
      </trkpt>
      <trkpt lat="43.061848" lon="-1.6139636">
        <time>2022-07-03T11:10:20Z</time>
      </trkpt>
      <trkpt lat="43.061783" lon="-1.6140299">
        <time>2022-07-03T11:10:22Z</time>
      </trkpt>
      <trkpt lat="43.06171" lon="-1.6140976">
        <time>2022-07-03T11:10:24Z</time>
      </trkpt>
      <trkpt lat="43.061653" lon="-1.6141512">
        <time>2022-07-03T11:10:26Z</time>
      </trkpt>
      <trkpt lat="43.06159" lon="-1.614198">
        <time>2022-07-03T11:10:28Z</time>
      </trkpt>
      <trkpt lat="43.06152" lon="-1.6142455">
        <time>2022-07-03T11:10:30Z</time>
      </trkpt>
      <trkpt lat="43.061443" lon="-1.6142912">
        <time>2022-07-03T11:10:32Z</time>
      </trkpt>
      <trkpt lat="43.061363" lon="-1.6143326">
        <time>2022-07-03T11:10:34Z</time>
      </trkpt>
      <trkpt lat="43.06127" lon="-1.6143678">
        <time>2022-07-03T11:10:36Z</time>
      </trkpt>
      <trkpt lat="43.061222" lon="-1.6143862">
        <time>2022-07-03T11:10:37Z</time>
      </trkpt>
      <trkpt lat="43.061127" lon="-1.6144266">
        <time>2022-07-03T11:10:39Z</time>
      </trkpt>
      <trkpt lat="43.061035" lon="-1.6144623">
        <time>2022-07-03T11:10:41Z</time>
      </trkpt>
      <trkpt lat="43.060947" lon="-1.6144933">
        <time>2022-07-03T11:10:43Z</time>
      </trkpt>
      <trkpt lat="43.060852" lon="-1.6145202">
        <time>2022-07-03T11:10:45Z</time>
      </trkpt>
      <trkpt lat="43.060806" lon="-1.6145343">
        <time>2022-07-03T11:10:46Z</time>
      </trkpt>
      <trkpt lat="43.06071" lon="-1.6145645">
        <time>2022-07-03T11:10:48Z</time>
      </trkpt>
      <trkpt lat="43.060623" lon="-1.6146055">
        <time>2022-07-03T11:10:50Z</time>
      </trkpt>
      <trkpt lat="43.060547" lon="-1.6146545">
        <time>2022-07-03T11:10:52Z</time>
      </trkpt>
      <trkpt lat="43.06047" lon="-1.6147115">
        <time>2022-07-03T11:10:54Z</time>
      </trkpt>
      <trkpt lat="43.060387" lon="-1.6147602">
        <time>2022-07-03T11:10:56Z</time>
      </trkpt>
      <trkpt lat="43.060295" lon="-1.6148108">
        <time>2022-07-03T11:10:58Z</time>
      </trkpt>
      <trkpt lat="43.060196" lon="-1.6148648">
        <time>2022-07-03T11:11:00Z</time>
      </trkpt>
      <trkpt lat="43.060146" lon="-1.6148872">
        <time>2022-07-03T11:11:01Z</time>
      </trkpt>
      <trkpt lat="43.060097" lon="-1.6149055">
        <time>2022-07-03T11:11:02Z</time>
      </trkpt>
      <trkpt lat="43.060047" lon="-1.6149255">
        <time>2022-07-03T11:11:03Z</time>
      </trkpt>
      <trkpt lat="43.059998" lon="-1.6149455">
        <time>2022-07-03T11:11:04Z</time>
      </trkpt>
      <trkpt lat="43.059895" lon="-1.6149842">
        <time>2022-07-03T11:11:06Z</time>
      </trkpt>
      <trkpt lat="43.05984" lon="-1.6149966">
        <time>2022-07-03T11:11:07Z</time>
      </trkpt>
      <trkpt lat="43.059795" lon="-1.6150045">
        <time>2022-07-03T11:11:08Z</time>
      </trkpt>
      <trkpt lat="43.059696" lon="-1.6150131">
        <time>2022-07-03T11:11:10Z</time>
      </trkpt>
      <trkpt lat="43.059605" lon="-1.6150148">
        <time>2022-07-03T11:11:12Z</time>
      </trkpt>
      <trkpt lat="43.05951" lon="-1.6150032">
        <time>2022-07-03T11:11:14Z</time>
      </trkpt>
      <trkpt lat="43.05938" lon="-1.6149762">
        <time>2022-07-03T11:11:17Z</time>
      </trkpt>
      <trkpt lat="43.059338" lon="-1.6149658">
        <time>2022-07-03T11:11:18Z</time>
      </trkpt>
      <trkpt lat="43.059242" lon="-1.6149325">
        <time>2022-07-03T11:11:20Z</time>
      </trkpt>
      <trkpt lat="43.05915" lon="-1.6148875">
        <time>2022-07-03T11:11:22Z</time>
      </trkpt>
      <trkpt lat="43.059105" lon="-1.6148629">
        <time>2022-07-03T11:11:23Z</time>
      </trkpt>
      <trkpt lat="43.059017" lon="-1.6148072">
        <time>2022-07-03T11:11:25Z</time>
      </trkpt>
      <trkpt lat="43.058933" lon="-1.6147549">
        <time>2022-07-03T11:11:27Z</time>
      </trkpt>
      <trkpt lat="43.058857" lon="-1.6147186">
        <time>2022-07-03T11:11:29Z</time>
      </trkpt>
      <trkpt lat="43.05879" lon="-1.6146835">
        <time>2022-07-03T11:11:31Z</time>
      </trkpt>
      <trkpt lat="43.05871" lon="-1.6146386">
        <time>2022-07-03T11:11:33Z</time>
      </trkpt>
      <trkpt lat="43.058624" lon="-1.6145949">
        <time>2022-07-03T11:11:35Z</time>
      </trkpt>
      <trkpt lat="43.058544" lon="-1.6145445">
        <time>2022-07-03T11:11:37Z</time>
      </trkpt>
      <trkpt lat="43.05847" lon="-1.6144899">
        <time>2022-07-03T11:11:39Z</time>
      </trkpt>
      <trkpt lat="43.0584" lon="-1.6144342">
        <time>2022-07-03T11:11:41Z</time>
      </trkpt>
      <trkpt lat="43.058334" lon="-1.6143786">
        <time>2022-07-03T11:11:43Z</time>
      </trkpt>
      <trkpt lat="43.058273" lon="-1.6143216">
        <time>2022-07-03T11:11:45Z</time>
      </trkpt>
      <trkpt lat="43.058216" lon="-1.6142622">
        <time>2022-07-03T11:11:47Z</time>
      </trkpt>
      <trkpt lat="43.058163" lon="-1.6142039">
        <time>2022-07-03T11:11:49Z</time>
      </trkpt>
      <trkpt lat="43.058117" lon="-1.6141509">
        <time>2022-07-03T11:11:51Z</time>
      </trkpt>
      <trkpt lat="43.058075" lon="-1.6140906">
        <time>2022-07-03T11:11:53Z</time>
      </trkpt>
      <trkpt lat="43.05804" lon="-1.6140349">
        <time>2022-07-03T11:11:55Z</time>
      </trkpt>
      <trkpt lat="43.05801" lon="-1.6139759">
        <time>2022-07-03T11:11:57Z</time>
      </trkpt>
      <trkpt lat="43.05798" lon="-1.6139122">
        <time>2022-07-03T11:11:59Z</time>
      </trkpt>
      <trkpt lat="43.05795" lon="-1.6138515">
        <time>2022-07-03T11:12:01Z</time>
      </trkpt>
      <trkpt lat="43.057915" lon="-1.6137962">
        <time>2022-07-03T11:12:03Z</time>
      </trkpt>
      <trkpt lat="43.05788" lon="-1.6137443">
        <time>2022-07-03T11:12:05Z</time>
      </trkpt>
      <trkpt lat="43.057846" lon="-1.613688">
        <time>2022-07-03T11:12:07Z</time>
      </trkpt>
      <trkpt lat="43.057804" lon="-1.6136143">
        <time>2022-07-03T11:12:10Z</time>
      </trkpt>
      <trkpt lat="43.057766" lon="-1.6135429">
        <time>2022-07-03T11:12:13Z</time>
      </trkpt>
      <trkpt lat="43.057724" lon="-1.613478">
        <time>2022-07-03T11:12:16Z</time>
      </trkpt>
      <trkpt lat="43.05769" lon="-1.6134076">
        <time>2022-07-03T11:12:19Z</time>
      </trkpt>
      <trkpt lat="43.057648" lon="-1.6133399">
        <time>2022-07-03T11:12:22Z</time>
      </trkpt>
      <trkpt lat="43.05761" lon="-1.6132699">
        <time>2022-07-03T11:12:25Z</time>
      </trkpt>
      <trkpt lat="43.057575" lon="-1.6132123">
        <time>2022-07-03T11:12:28Z</time>
      </trkpt>
      <trkpt lat="43.05754" lon="-1.613151">
        <time>2022-07-03T11:12:31Z</time>
      </trkpt>
      <trkpt lat="43.0575" lon="-1.6130947">
        <time>2022-07-03T11:12:34Z</time>
      </trkpt>
      <trkpt lat="43.057457" lon="-1.6130403">
        <time>2022-07-03T11:12:37Z</time>
      </trkpt>
      <trkpt lat="43.057415" lon="-1.6129867">
        <time>2022-07-03T11:12:40Z</time>
      </trkpt>
      <trkpt lat="43.05737" lon="-1.6129364">
        <time>2022-07-03T11:12:43Z</time>
      </trkpt>
      <trkpt lat="43.057323" lon="-1.6128807">
        <time>2022-07-03T11:12:46Z</time>
      </trkpt>
      <trkpt lat="43.05728" lon="-1.6128137">
        <time>2022-07-03T11:12:49Z</time>
      </trkpt>
      <trkpt lat="43.05724" lon="-1.61275">
        <time>2022-07-03T11:12:52Z</time>
      </trkpt>
      <trkpt lat="43.0572" lon="-1.612662">
        <time>2022-07-03T11:12:56Z</time>
      </trkpt>
      <trkpt lat="43.05718" lon="-1.6125907">
        <time>2022-07-03T11:12:59Z</time>
      </trkpt>
      <trkpt lat="43.05716" lon="-1.612514">
        <time>2022-07-03T11:13:02Z</time>
      </trkpt>
      <trkpt lat="43.057144" lon="-1.6124314">
        <time>2022-07-03T11:13:05Z</time>
      </trkpt>
      <trkpt lat="43.057137" lon="-1.6123477">
        <time>2022-07-03T11:13:08Z</time>
      </trkpt>
      <trkpt lat="43.057125" lon="-1.6122667">
        <time>2022-07-03T11:13:11Z</time>
      </trkpt>
      <trkpt lat="43.057114" lon="-1.6121867">
        <time>2022-07-03T11:13:14Z</time>
      </trkpt>
      <trkpt lat="43.057102" lon="-1.6121107">
        <time>2022-07-03T11:13:17Z</time>
      </trkpt>
      <trkpt lat="43.05709" lon="-1.6120341">
        <time>2022-07-03T11:13:20Z</time>
      </trkpt>
      <trkpt lat="43.057076" lon="-1.6119571">
        <time>2022-07-03T11:13:23Z</time>
      </trkpt>
      <trkpt lat="43.057068" lon="-1.6118737">
        <time>2022-07-03T11:13:26Z</time>
      </trkpt>
      <trkpt lat="43.057053" lon="-1.6117927">
        <time>2022-07-03T11:13:29Z</time>
      </trkpt>
      <trkpt lat="43.05704" lon="-1.6117086">
        <time>2022-07-03T11:13:32Z</time>
      </trkpt>
      <trkpt lat="43.05703" lon="-1.6116294">
        <time>2022-07-03T11:13:35Z</time>
      </trkpt>
      <trkpt lat="43.057014" lon="-1.6115537">
        <time>2022-07-03T11:13:38Z</time>
      </trkpt>
      <trkpt lat="43.057003" lon="-1.6114724">
        <time>2022-07-03T11:13:41Z</time>
      </trkpt>
      <trkpt lat="43.056988" lon="-1.6113931">
        <time>2022-07-03T11:13:44Z</time>
      </trkpt>
      <trkpt lat="43.056973" lon="-1.6113131">
        <time>2022-07-03T11:13:47Z</time>
      </trkpt>
      <trkpt lat="43.05696" lon="-1.6112314">
        <time>2022-07-03T11:13:50Z</time>
      </trkpt>
      <trkpt lat="43.056942" lon="-1.6111578">
        <time>2022-07-03T11:13:53Z</time>
      </trkpt>
      <trkpt lat="43.05693" lon="-1.6110767">
        <time>2022-07-03T11:13:56Z</time>
      </trkpt>
      <trkpt lat="43.056923" lon="-1.6109937">
        <time>2022-07-03T11:13:59Z</time>
      </trkpt>
      <trkpt lat="43.05691" lon="-1.6109054">
        <time>2022-07-03T11:14:02Z</time>
      </trkpt>
      <trkpt lat="43.0569" lon="-1.6108197">
        <time>2022-07-03T11:14:05Z</time>
      </trkpt>
      <trkpt lat="43.056885" lon="-1.6107308">
        <time>2022-07-03T11:14:08Z</time>
      </trkpt>
      <trkpt lat="43.05687" lon="-1.6106467">
        <time>2022-07-03T11:14:11Z</time>
      </trkpt>
      <trkpt lat="43.056858" lon="-1.61056">
        <time>2022-07-03T11:14:14Z</time>
      </trkpt>
      <trkpt lat="43.056843" lon="-1.6104717">
        <time>2022-07-03T11:14:17Z</time>
      </trkpt>
      <trkpt lat="43.056828" lon="-1.6103874">
        <time>2022-07-03T11:14:20Z</time>
      </trkpt>
      <trkpt lat="43.056812" lon="-1.6103121">
        <time>2022-07-03T11:14:23Z</time>
      </trkpt>
      <trkpt lat="43.056805" lon="-1.6102375">
        <time>2022-07-03T11:14:26Z</time>
      </trkpt>
      <trkpt lat="43.056805" lon="-1.6101571">
        <time>2022-07-03T11:14:29Z</time>
      </trkpt>
      <trkpt lat="43.05681" lon="-1.6100734">
        <time>2022-07-03T11:14:32Z</time>
      </trkpt>
      <trkpt lat="43.056812" lon="-1.6099898">
        <time>2022-07-03T11:14:35Z</time>
      </trkpt>
      <trkpt lat="43.056816" lon="-1.6099068">
        <time>2022-07-03T11:14:38Z</time>
      </trkpt>
      <trkpt lat="43.05682" lon="-1.6098111">
        <time>2022-07-03T11:14:41Z</time>
      </trkpt>
      <trkpt lat="43.056824" lon="-1.6097398">
        <time>2022-07-03T11:14:43Z</time>
      </trkpt>
      <trkpt lat="43.05683" lon="-1.6096598">
        <time>2022-07-03T11:14:45Z</time>
      </trkpt>
      <trkpt lat="43.05684" lon="-1.6095728">
        <time>2022-07-03T11:14:47Z</time>
      </trkpt>
      <trkpt lat="43.056847" lon="-1.6094811">
        <time>2022-07-03T11:14:49Z</time>
      </trkpt>
      <trkpt lat="43.05685" lon="-1.6093941">
        <time>2022-07-03T11:14:51Z</time>
      </trkpt>
      <trkpt lat="43.056854" lon="-1.6093128">
        <time>2022-07-03T11:14:53Z</time>
      </trkpt>
      <trkpt lat="43.05685" lon="-1.6092365">
        <time>2022-07-03T11:14:55Z</time>
      </trkpt>
      <trkpt lat="43.05685" lon="-1.6091702">
        <time>2022-07-03T11:14:57Z</time>
      </trkpt>
      <trkpt lat="43.056847" lon="-1.6090752">
        <time>2022-07-03T11:15:00Z</time>
      </trkpt>
      <trkpt lat="43.05685" lon="-1.6089789">
        <time>2022-07-03T11:15:03Z</time>
      </trkpt>
      <trkpt lat="43.05684" lon="-1.6088865">
        <time>2022-07-03T11:15:06Z</time>
      </trkpt>
      <trkpt lat="43.056816" lon="-1.6087922">
        <time>2022-07-03T11:15:09Z</time>
      </trkpt>
      <trkpt lat="43.056797" lon="-1.6087304">
        <time>2022-07-03T11:15:11Z</time>
      </trkpt>
      <trkpt lat="43.05676" lon="-1.6086485">
        <time>2022-07-03T11:15:14Z</time>
      </trkpt>
      <trkpt lat="43.056713" lon="-1.6085855">
        <time>2022-07-03T11:15:17Z</time>
      </trkpt>
      <trkpt lat="43.056667" lon="-1.6085345">
        <time>2022-07-03T11:15:20Z</time>
      </trkpt>
      <trkpt lat="43.056614" lon="-1.6084962">
        <time>2022-07-03T11:15:23Z</time>
      </trkpt>
      <trkpt lat="43.056564" lon="-1.6084675">
        <time>2022-07-03T11:15:26Z</time>
      </trkpt>
      <trkpt lat="43.056507" lon="-1.6084495">
        <time>2022-07-03T11:15:29Z</time>
      </trkpt>
      <trkpt lat="43.05645" lon="-1.6084428">
        <time>2022-07-03T11:15:32Z</time>
      </trkpt>
      <trkpt lat="43.056385" lon="-1.6084355">
        <time>2022-07-03T11:15:35Z</time>
      </trkpt>
      <trkpt lat="43.05632" lon="-1.6084309">
        <time>2022-07-03T11:15:38Z</time>
      </trkpt>
      <trkpt lat="43.05626" lon="-1.6084282">
        <time>2022-07-03T11:15:41Z</time>
      </trkpt>
      <trkpt lat="43.0562" lon="-1.6084251">
        <time>2022-07-03T11:15:44Z</time>
      </trkpt>
      <trkpt lat="43.056137" lon="-1.6084255">
        <time>2022-07-03T11:15:47Z</time>
      </trkpt>
      <trkpt lat="43.056076" lon="-1.6084251">
        <time>2022-07-03T11:15:50Z</time>
      </trkpt>
      <trkpt lat="43.056015" lon="-1.6084262">
        <time>2022-07-03T11:15:53Z</time>
      </trkpt>
      <trkpt lat="43.055958" lon="-1.6084318">
        <time>2022-07-03T11:15:56Z</time>
      </trkpt>
      <trkpt lat="43.055897" lon="-1.6084396">
        <time>2022-07-03T11:15:59Z</time>
      </trkpt>
      <trkpt lat="43.05584" lon="-1.6084455">
        <time>2022-07-03T11:16:02Z</time>
      </trkpt>
      <trkpt lat="43.055786" lon="-1.6084478">
        <time>2022-07-03T11:16:05Z</time>
      </trkpt>
      <trkpt lat="43.05573" lon="-1.6084545">
        <time>2022-07-03T11:16:08Z</time>
      </trkpt>
      <trkpt lat="43.055676" lon="-1.6084702">
        <time>2022-07-03T11:16:11Z</time>
      </trkpt>
      <trkpt lat="43.055607" lon="-1.6084962">
        <time>2022-07-03T11:16:15Z</time>
      </trkpt>
      <trkpt lat="43.05556" lon="-1.6085231">
        <time>2022-07-03T11:16:18Z</time>
      </trkpt>
      <trkpt lat="43.05551" lon="-1.6085528">
        <time>2022-07-03T11:16:21Z</time>
      </trkpt>
      <trkpt lat="43.055466" lon="-1.6085885">
        <time>2022-07-03T11:16:24Z</time>
      </trkpt>
      <trkpt lat="43.055412" lon="-1.6086298">
        <time>2022-07-03T11:16:28Z</time>
      </trkpt>
      <trkpt lat="43.055363" lon="-1.6086692">
        <time>2022-07-03T11:16:32Z</time>
      </trkpt>
      <trkpt lat="43.055305" lon="-1.6087202">
        <time>2022-07-03T11:16:36Z</time>
      </trkpt>
      <trkpt lat="43.055267" lon="-1.6087651">
        <time>2022-07-03T11:16:39Z</time>
      </trkpt>
      <trkpt lat="43.055225" lon="-1.6088037">
        <time>2022-07-03T11:16:42Z</time>
      </trkpt>
      <trkpt lat="43.05517" lon="-1.6088527">
        <time>2022-07-03T11:16:46Z</time>
      </trkpt>
      <trkpt lat="43.05512" lon="-1.6088918">
        <time>2022-07-03T11:16:49Z</time>
      </trkpt>
      <trkpt lat="43.055073" lon="-1.6089271">
        <time>2022-07-03T11:16:52Z</time>
      </trkpt>
      <trkpt lat="43.05502" lon="-1.6089765">
        <time>2022-07-03T11:16:56Z</time>
      </trkpt>
      <trkpt lat="43.054966" lon="-1.6090164">
        <time>2022-07-03T11:17:00Z</time>
      </trkpt>
      <trkpt lat="43.054916" lon="-1.6090415">
        <time>2022-07-03T11:17:03Z</time>
      </trkpt>
      <trkpt lat="43.054867" lon="-1.6090648">
        <time>2022-07-03T11:17:06Z</time>
      </trkpt>
      <trkpt lat="43.054817" lon="-1.6090864">
        <time>2022-07-03T11:17:09Z</time>
      </trkpt>
      <trkpt lat="43.054756" lon="-1.6091118">
        <time>2022-07-03T11:17:13Z</time>
      </trkpt>
      <trkpt lat="43.054707" lon="-1.6091231">
        <time>2022-07-03T11:17:16Z</time>
      </trkpt>
      <trkpt lat="43.054634" lon="-1.6091335">
        <time>2022-07-03T11:17:20Z</time>
      </trkpt>
      <trkpt lat="43.05458" lon="-1.6091448">
        <time>2022-07-03T11:17:23Z</time>
      </trkpt>
      <trkpt lat="43.05452" lon="-1.6091428">
        <time>2022-07-03T11:17:26Z</time>
      </trkpt>
      <trkpt lat="43.05445" lon="-1.6091287">
        <time>2022-07-03T11:17:29Z</time>
      </trkpt>
      <trkpt lat="43.05439" lon="-1.6091241">
        <time>2022-07-03T11:17:32Z</time>
      </trkpt>
      <trkpt lat="43.054337" lon="-1.6091264">
        <time>2022-07-03T11:17:35Z</time>
      </trkpt>
      <trkpt lat="43.054268" lon="-1.6091402">
        <time>2022-07-03T11:17:39Z</time>
      </trkpt>
      <trkpt lat="43.05422" lon="-1.6091582">
        <time>2022-07-03T11:17:42Z</time>
      </trkpt>
      <trkpt lat="43.05417" lon="-1.6091744">
        <time>2022-07-03T11:17:45Z</time>
      </trkpt>
      <trkpt lat="43.054115" lon="-1.6091841">
        <time>2022-07-03T11:17:48Z</time>
      </trkpt>
      <trkpt lat="43.054058" lon="-1.6091894">
        <time>2022-07-03T11:17:51Z</time>
      </trkpt>
      <trkpt lat="43.053986" lon="-1.6091841">
        <time>2022-07-03T11:17:54Z</time>
      </trkpt>
      <trkpt lat="43.05394" lon="-1.6091797">
        <time>2022-07-03T11:17:56Z</time>
      </trkpt>
      <trkpt lat="43.05387" lon="-1.6091791">
        <time>2022-07-03T11:17:59Z</time>
      </trkpt>
      <trkpt lat="43.053806" lon="-1.6091844">
        <time>2022-07-03T11:18:02Z</time>
      </trkpt>
      <trkpt lat="43.053738" lon="-1.6091868">
        <time>2022-07-03T11:18:05Z</time>
      </trkpt>
      <trkpt lat="43.053665" lon="-1.6091985">
        <time>2022-07-03T11:18:08Z</time>
      </trkpt>
      <trkpt lat="43.053604" lon="-1.6092018">
        <time>2022-07-03T11:18:11Z</time>
      </trkpt>
      <trkpt lat="43.053543" lon="-1.6091918">
        <time>2022-07-03T11:18:14Z</time>
      </trkpt>
      <trkpt lat="43.053482" lon="-1.6091825">
        <time>2022-07-03T11:18:17Z</time>
      </trkpt>
      <trkpt lat="43.05342" lon="-1.6091717">
        <time>2022-07-03T11:18:20Z</time>
      </trkpt>
      <trkpt lat="43.053375" lon="-1.6091582">
        <time>2022-07-03T11:18:23Z</time>
      </trkpt>
      <trkpt lat="43.053307" lon="-1.6091387">
        <time>2022-07-03T11:18:27Z</time>
      </trkpt>
      <trkpt lat="43.05324" lon="-1.6091207">
        <time>2022-07-03T11:18:31Z</time>
      </trkpt>
      <trkpt lat="43.053192" lon="-1.6091081">
        <time>2022-07-03T11:18:34Z</time>
      </trkpt>
      <trkpt lat="43.053127" lon="-1.6090947">
        <time>2022-07-03T11:18:38Z</time>
      </trkpt>
      <trkpt lat="43.053078" lon="-1.6090871">
        <time>2022-07-03T11:18:41Z</time>
      </trkpt>
      <trkpt lat="43.05302" lon="-1.6090838">
        <time>2022-07-03T11:18:45Z</time>
      </trkpt>
      <trkpt lat="43.05297" lon="-1.6090878">
        <time>2022-07-03T11:18:48Z</time>
      </trkpt>
      <trkpt lat="43.05291" lon="-1.6090962">
        <time>2022-07-03T11:18:52Z</time>
      </trkpt>
      <trkpt lat="43.052845" lon="-1.6091177">
        <time>2022-07-03T11:18:56Z</time>
      </trkpt>
      <trkpt lat="43.052776" lon="-1.6091448">
        <time>2022-07-03T11:19:00Z</time>
      </trkpt>
      <trkpt lat="43.052727" lon="-1.6091621">
        <time>2022-07-03T11:19:03Z</time>
      </trkpt>
      <trkpt lat="43.052677" lon="-1.6091858">
        <time>2022-07-03T11:19:06Z</time>
      </trkpt>
      <trkpt lat="43.05263" lon="-1.6092068">
        <time>2022-07-03T11:19:09Z</time>
      </trkpt>
      <trkpt lat="43.05257" lon="-1.6092345">
        <time>2022-07-03T11:19:13Z</time>
      </trkpt>
      <trkpt lat="43.052505" lon="-1.6092625">
        <time>2022-07-03T11:19:17Z</time>
      </trkpt>
      <trkpt lat="43.05246" lon="-1.6092805">
        <time>2022-07-03T11:19:20Z</time>
      </trkpt>
      <trkpt lat="43.052406" lon="-1.6092994">
        <time>2022-07-03T11:19:23Z</time>
      </trkpt>
      <trkpt lat="43.05234" lon="-1.6093174">
        <time>2022-07-03T11:19:27Z</time>
      </trkpt>
      <trkpt lat="43.052288" lon="-1.6093237">
        <time>2022-07-03T11:19:30Z</time>
      </trkpt>
      <trkpt lat="43.05222" lon="-1.6093328">
        <time>2022-07-03T11:19:34Z</time>
      </trkpt>
      <trkpt lat="43.05217" lon="-1.6093374">
        <time>2022-07-03T11:19:37Z</time>
      </trkpt>
      <trkpt lat="43.052113" lon="-1.6093314">
        <time>2022-07-03T11:19:40Z</time>
      </trkpt>
      <trkpt lat="43.052055" lon="-1.6093308">
        <time>2022-07-03T11:19:43Z</time>
      </trkpt>
      <trkpt lat="43.05199" lon="-1.6093271">
        <time>2022-07-03T11:19:46Z</time>
      </trkpt>
      <trkpt lat="43.05192" lon="-1.6093165">
        <time>2022-07-03T11:19:49Z</time>
      </trkpt>
      <trkpt lat="43.051857" lon="-1.6092964">
        <time>2022-07-03T11:19:52Z</time>
      </trkpt>
      <trkpt lat="43.051796" lon="-1.6092675">
        <time>2022-07-03T11:19:55Z</time>
      </trkpt>
      <trkpt lat="43.05173" lon="-1.6092324">
        <time>2022-07-03T11:19:58Z</time>
      </trkpt>
      <trkpt lat="43.051662" lon="-1.6091825">
        <time>2022-07-03T11:20:01Z</time>
      </trkpt>
      <trkpt lat="43.05162" lon="-1.6091465">
        <time>2022-07-03T11:20:03Z</time>
      </trkpt>
      <trkpt lat="43.051567" lon="-1.6090978">
        <time>2022-07-03T11:20:06Z</time>
      </trkpt>
      <trkpt lat="43.05151" lon="-1.6090422">
        <time>2022-07-03T11:20:09Z</time>
      </trkpt>
      <trkpt lat="43.051445" lon="-1.6089875">
        <time>2022-07-03T11:20:12Z</time>
      </trkpt>
      <trkpt lat="43.051407" lon="-1.6089531">
        <time>2022-07-03T11:20:14Z</time>
      </trkpt>
      <trkpt lat="43.051342" lon="-1.6089115">
        <time>2022-07-03T11:20:17Z</time>
      </trkpt>
      <trkpt lat="43.05127" lon="-1.6088778">
        <time>2022-07-03T11:20:20Z</time>
      </trkpt>
      <trkpt lat="43.05122" lon="-1.6088595">
        <time>2022-07-03T11:20:22Z</time>
      </trkpt>
      <trkpt lat="43.051163" lon="-1.6088508">
        <time>2022-07-03T11:20:24Z</time>
      </trkpt>
      <trkpt lat="43.051113" lon="-1.6088495">
        <time>2022-07-03T11:20:26Z</time>
      </trkpt>
      <trkpt lat="43.051018" lon="-1.6088598">
        <time>2022-07-03T11:20:29Z</time>
      </trkpt>
      <trkpt lat="43.05095" lon="-1.6088761">
        <time>2022-07-03T11:20:31Z</time>
      </trkpt>
      <trkpt lat="43.05088" lon="-1.6089125">
        <time>2022-07-03T11:20:33Z</time>
      </trkpt>
      <trkpt lat="43.05082" lon="-1.6089661">
        <time>2022-07-03T11:20:35Z</time>
      </trkpt>
      <trkpt lat="43.05076" lon="-1.6090361">
        <time>2022-07-03T11:20:37Z</time>
      </trkpt>
      <trkpt lat="43.0507" lon="-1.6091075">
        <time>2022-07-03T11:20:39Z</time>
      </trkpt>
      <trkpt lat="43.050648" lon="-1.6091791">
        <time>2022-07-03T11:20:41Z</time>
      </trkpt>
      <trkpt lat="43.050602" lon="-1.6092548">
        <time>2022-07-03T11:20:43Z</time>
      </trkpt>
      <trkpt lat="43.050564" lon="-1.6093365">
        <time>2022-07-03T11:20:45Z</time>
      </trkpt>
      <trkpt lat="43.050526" lon="-1.6094234">
        <time>2022-07-03T11:20:47Z</time>
      </trkpt>
      <trkpt lat="43.050476" lon="-1.6095091">
        <time>2022-07-03T11:20:49Z</time>
      </trkpt>
      <trkpt lat="43.05042" lon="-1.6095887">
        <time>2022-07-03T11:20:51Z</time>
      </trkpt>
      <trkpt lat="43.05036" lon="-1.6096721">
        <time>2022-07-03T11:20:53Z</time>
      </trkpt>
      <trkpt lat="43.05031" lon="-1.6097515">
        <time>2022-07-03T11:20:55Z</time>
      </trkpt>
      <trkpt lat="43.05025" lon="-1.609837">
        <time>2022-07-03T11:20:57Z</time>
      </trkpt>
      <trkpt lat="43.05019" lon="-1.6099224">
        <time>2022-07-03T11:20:59Z</time>
      </trkpt>
      <trkpt lat="43.05013" lon="-1.6100061">
        <time>2022-07-03T11:21:01Z</time>
      </trkpt>
      <trkpt lat="43.050076" lon="-1.6100878">
        <time>2022-07-03T11:21:03Z</time>
      </trkpt>
      <trkpt lat="43.05001" lon="-1.6101733">
        <time>2022-07-03T11:21:05Z</time>
      </trkpt>
      <trkpt lat="43.04995" lon="-1.6102667">
        <time>2022-07-03T11:21:07Z</time>
      </trkpt>
      <trkpt lat="43.049885" lon="-1.6103461">
        <time>2022-07-03T11:21:09Z</time>
      </trkpt>
      <trkpt lat="43.04981" lon="-1.610401">
        <time>2022-07-03T11:21:11Z</time>
      </trkpt>
      <trkpt lat="43.049736" lon="-1.6104511">
        <time>2022-07-03T11:21:13Z</time>
      </trkpt>
      <trkpt lat="43.049667" lon="-1.6105007">
        <time>2022-07-03T11:21:15Z</time>
      </trkpt>
      <trkpt lat="43.049606" lon="-1.6105527">
        <time>2022-07-03T11:21:17Z</time>
      </trkpt>
      <trkpt lat="43.04955" lon="-1.6105931">
        <time>2022-07-03T11:21:19Z</time>
      </trkpt>
      <trkpt lat="43.04949" lon="-1.6106163">
        <time>2022-07-03T11:21:21Z</time>
      </trkpt>
      <trkpt lat="43.049458" lon="-1.6106234">
        <time>2022-07-03T11:21:23Z</time>
      </trkpt>
      <trkpt lat="43.049442" lon="-1.6106377">
        <time>2022-07-03T11:21:44Z</time>
      </trkpt>
      <trkpt lat="43.04941" lon="-1.6106207">
        <time>2022-07-03T11:23:18Z</time>
      </trkpt>
      <trkpt lat="43.04948" lon="-1.6105514">
        <time>2022-07-03T11:26:25Z</time>
      </trkpt>
      <trkpt lat="43.049534" lon="-1.6105677">
        <time>2022-07-03T11:26:27Z</time>
      </trkpt>
      <trkpt lat="43.04959" lon="-1.6106133">
        <time>2022-07-03T11:26:30Z</time>
      </trkpt>
      <trkpt lat="43.04963" lon="-1.61067">
        <time>2022-07-03T11:26:33Z</time>
      </trkpt>
      <trkpt lat="43.04964" lon="-1.6107687">
        <time>2022-07-03T11:26:36Z</time>
      </trkpt>
      <trkpt lat="43.04965" lon="-1.6108383">
        <time>2022-07-03T11:26:38Z</time>
      </trkpt>
      <trkpt lat="43.049667" lon="-1.6109347">
        <time>2022-07-03T11:26:41Z</time>
      </trkpt>
      <trkpt lat="43.049683" lon="-1.6110023">
        <time>2022-07-03T11:26:43Z</time>
      </trkpt>
      <trkpt lat="43.049713" lon="-1.611099">
        <time>2022-07-03T11:26:46Z</time>
      </trkpt>
      <trkpt lat="43.049736" lon="-1.6111617">
        <time>2022-07-03T11:26:48Z</time>
      </trkpt>
      <trkpt lat="43.04976" lon="-1.6112237">
        <time>2022-07-03T11:26:50Z</time>
      </trkpt>
      <trkpt lat="43.049793" lon="-1.6112857">
        <time>2022-07-03T11:26:52Z</time>
      </trkpt>
      <trkpt lat="43.04983" lon="-1.6113514">
        <time>2022-07-03T11:26:54Z</time>
      </trkpt>
      <trkpt lat="43.04987" lon="-1.6114264">
        <time>2022-07-03T11:26:56Z</time>
      </trkpt>
      <trkpt lat="43.0499" lon="-1.611504">
        <time>2022-07-03T11:26:58Z</time>
      </trkpt>
      <trkpt lat="43.04993" lon="-1.6115884">
        <time>2022-07-03T11:27:00Z</time>
      </trkpt>
      <trkpt lat="43.049965" lon="-1.6116816">
        <time>2022-07-03T11:27:02Z</time>
      </trkpt>
      <trkpt lat="43.050003" lon="-1.611779">
        <time>2022-07-03T11:27:04Z</time>
      </trkpt>
      <trkpt lat="43.050053" lon="-1.6118783">
        <time>2022-07-03T11:27:06Z</time>
      </trkpt>
      <trkpt lat="43.050095" lon="-1.6119846">
        <time>2022-07-03T11:27:08Z</time>
      </trkpt>
      <trkpt lat="43.050125" lon="-1.6120939">
        <time>2022-07-03T11:27:10Z</time>
      </trkpt>
      <trkpt lat="43.050148" lon="-1.612206">
        <time>2022-07-03T11:27:12Z</time>
      </trkpt>
      <trkpt lat="43.05016" lon="-1.6123157">
        <time>2022-07-03T11:27:14Z</time>
      </trkpt>
      <trkpt lat="43.050163" lon="-1.6124239">
        <time>2022-07-03T11:27:16Z</time>
      </trkpt>
      <trkpt lat="43.050156" lon="-1.6125296">
        <time>2022-07-03T11:27:18Z</time>
      </trkpt>
      <trkpt lat="43.050137" lon="-1.6126302">
        <time>2022-07-03T11:27:20Z</time>
      </trkpt>
      <trkpt lat="43.050114" lon="-1.612724">
        <time>2022-07-03T11:27:22Z</time>
      </trkpt>
      <trkpt lat="43.05008" lon="-1.6128062">
        <time>2022-07-03T11:27:24Z</time>
      </trkpt>
      <trkpt lat="43.050034" lon="-1.6128776">
        <time>2022-07-03T11:27:26Z</time>
      </trkpt>
      <trkpt lat="43.049984" lon="-1.6129413">
        <time>2022-07-03T11:27:28Z</time>
      </trkpt>
      <trkpt lat="43.04993" lon="-1.6129996">
        <time>2022-07-03T11:27:30Z</time>
      </trkpt>
      <trkpt lat="43.049873" lon="-1.6130502">
        <time>2022-07-03T11:27:32Z</time>
      </trkpt>
      <trkpt lat="43.049812" lon="-1.6130936">
        <time>2022-07-03T11:27:34Z</time>
      </trkpt>
      <trkpt lat="43.049747" lon="-1.6131349">
        <time>2022-07-03T11:27:36Z</time>
      </trkpt>
      <trkpt lat="43.049686" lon="-1.6131775">
        <time>2022-07-03T11:27:38Z</time>
      </trkpt>
      <trkpt lat="43.049625" lon="-1.6132206">
        <time>2022-07-03T11:27:40Z</time>
      </trkpt>
      <trkpt lat="43.049564" lon="-1.6132672">
        <time>2022-07-03T11:27:42Z</time>
      </trkpt>
      <trkpt lat="43.049507" lon="-1.6133162">
        <time>2022-07-03T11:27:44Z</time>
      </trkpt>
      <trkpt lat="43.04945" lon="-1.6133666">
        <time>2022-07-03T11:27:46Z</time>
      </trkpt>
      <trkpt lat="43.049393" lon="-1.6134195">
        <time>2022-07-03T11:27:48Z</time>
      </trkpt>
      <trkpt lat="43.04934" lon="-1.6134715">
        <time>2022-07-03T11:27:50Z</time>
      </trkpt>
      <trkpt lat="43.04929" lon="-1.6135368">
        <time>2022-07-03T11:27:52Z</time>
      </trkpt>
      <trkpt lat="43.049248" lon="-1.6136119">
        <time>2022-07-03T11:27:54Z</time>
      </trkpt>
      <trkpt lat="43.049217" lon="-1.6136942">
        <time>2022-07-03T11:27:56Z</time>
      </trkpt>
      <trkpt lat="43.0492" lon="-1.6137795">
        <time>2022-07-03T11:27:58Z</time>
      </trkpt>
      <trkpt lat="43.049183" lon="-1.6138649">
        <time>2022-07-03T11:28:00Z</time>
      </trkpt>
      <trkpt lat="43.049175" lon="-1.6139432">
        <time>2022-07-03T11:28:02Z</time>
      </trkpt>
      <trkpt lat="43.049168" lon="-1.6140128">
        <time>2022-07-03T11:28:04Z</time>
      </trkpt>
      <trkpt lat="43.049168" lon="-1.6141042">
        <time>2022-07-03T11:28:07Z</time>
      </trkpt>
      <trkpt lat="43.049168" lon="-1.6141889">
        <time>2022-07-03T11:28:10Z</time>
      </trkpt>
      <trkpt lat="43.049164" lon="-1.6142672">
        <time>2022-07-03T11:28:13Z</time>
      </trkpt>
      <trkpt lat="43.04915" lon="-1.6143422">
        <time>2022-07-03T11:28:16Z</time>
      </trkpt>
      <trkpt lat="43.049137" lon="-1.6144131">
        <time>2022-07-03T11:28:19Z</time>
      </trkpt>
      <trkpt lat="43.049118" lon="-1.6144835">
        <time>2022-07-03T11:28:23Z</time>
      </trkpt>
      <trkpt lat="43.04906" lon="-1.6145039">
        <time>2022-07-03T11:28:27Z</time>
      </trkpt>
      <trkpt lat="43.049076" lon="-1.6145092">
        <time>2022-07-03T11:30:51Z</time>
      </trkpt>
      <trkpt lat="43.049114" lon="-1.6145382">
        <time>2022-07-03T11:30:55Z</time>
      </trkpt>
      <trkpt lat="43.049103" lon="-1.6146435">
        <time>2022-07-03T11:31:13Z</time>
      </trkpt>
      <trkpt lat="43.049072" lon="-1.6147285">
        <time>2022-07-03T11:31:16Z</time>
      </trkpt>
      <trkpt lat="43.049046" lon="-1.6147958">
        <time>2022-07-03T11:31:18Z</time>
      </trkpt>
      <trkpt lat="43.049007" lon="-1.6148728">
        <time>2022-07-03T11:31:20Z</time>
      </trkpt>
      <trkpt lat="43.04896" lon="-1.6149621">
        <time>2022-07-03T11:31:22Z</time>
      </trkpt>
      <trkpt lat="43.048912" lon="-1.6150585">
        <time>2022-07-03T11:31:24Z</time>
      </trkpt>
      <trkpt lat="43.048843" lon="-1.6151575">
        <time>2022-07-03T11:31:26Z</time>
      </trkpt>
      <trkpt lat="43.048805" lon="-1.6152118">
        <time>2022-07-03T11:31:27Z</time>
      </trkpt>
      <trkpt lat="43.048767" lon="-1.6152631">
        <time>2022-07-03T11:31:28Z</time>
      </trkpt>
      <trkpt lat="43.048725" lon="-1.6153178">
        <time>2022-07-03T11:31:29Z</time>
      </trkpt>
      <trkpt lat="43.048687" lon="-1.6153755">
        <time>2022-07-03T11:31:30Z</time>
      </trkpt>
      <trkpt lat="43.04864" lon="-1.6154355">
        <time>2022-07-03T11:31:31Z</time>
      </trkpt>
      <trkpt lat="43.048595" lon="-1.6155025">
        <time>2022-07-03T11:31:32Z</time>
      </trkpt>
      <trkpt lat="43.04855" lon="-1.6155695">
        <time>2022-07-03T11:31:33Z</time>
      </trkpt>
      <trkpt lat="43.048504" lon="-1.6156318">
        <time>2022-07-03T11:31:34Z</time>
      </trkpt>
      <trkpt lat="43.048454" lon="-1.6156951">
        <time>2022-07-03T11:31:35Z</time>
      </trkpt>
      <trkpt lat="43.048405" lon="-1.6157601">
        <time>2022-07-03T11:31:36Z</time>
      </trkpt>
      <trkpt lat="43.04835" lon="-1.6158278">
        <time>2022-07-03T11:31:37Z</time>
      </trkpt>
      <trkpt lat="43.048298" lon="-1.6158985">
        <time>2022-07-03T11:31:38Z</time>
      </trkpt>
      <trkpt lat="43.04824" lon="-1.6159701">
        <time>2022-07-03T11:31:39Z</time>
      </trkpt>
      <trkpt lat="43.04818" lon="-1.6160411">
        <time>2022-07-03T11:31:40Z</time>
      </trkpt>
      <trkpt lat="43.04812" lon="-1.6161145">
        <time>2022-07-03T11:31:41Z</time>
      </trkpt>
      <trkpt lat="43.048058" lon="-1.6161884">
        <time>2022-07-03T11:31:42Z</time>
      </trkpt>
      <trkpt lat="43.047993" lon="-1.6162637">
        <time>2022-07-03T11:31:43Z</time>
      </trkpt>
      <trkpt lat="43.047928" lon="-1.6163411">
        <time>2022-07-03T11:31:44Z</time>
      </trkpt>
      <trkpt lat="43.047863" lon="-1.6164201">
        <time>2022-07-03T11:31:45Z</time>
      </trkpt>
      <trkpt lat="43.047794" lon="-1.6165054">
        <time>2022-07-03T11:31:46Z</time>
      </trkpt>
      <trkpt lat="43.047726" lon="-1.6165904">
        <time>2022-07-03T11:31:47Z</time>
      </trkpt>
      <trkpt lat="43.04766" lon="-1.6166768">
        <time>2022-07-03T11:31:48Z</time>
      </trkpt>
      <trkpt lat="43.0476" lon="-1.6167581">
        <time>2022-07-03T11:31:49Z</time>
      </trkpt>
      <trkpt lat="43.047543" lon="-1.6168401">
        <time>2022-07-03T11:31:50Z</time>
      </trkpt>
      <trkpt lat="43.04748" lon="-1.6169224">
        <time>2022-07-03T11:31:51Z</time>
      </trkpt>
      <trkpt lat="43.04742" lon="-1.6170071">
        <time>2022-07-03T11:31:52Z</time>
      </trkpt>
      <trkpt lat="43.04736" lon="-1.6170927">
        <time>2022-07-03T11:31:53Z</time>
      </trkpt>
      <trkpt lat="43.0473" lon="-1.617179">
        <time>2022-07-03T11:31:54Z</time>
      </trkpt>
      <trkpt lat="43.047237" lon="-1.6172674">
        <time>2022-07-03T11:31:55Z</time>
      </trkpt>
      <trkpt lat="43.047176" lon="-1.6173574">
        <time>2022-07-03T11:31:56Z</time>
      </trkpt>
      <trkpt lat="43.04711" lon="-1.6174487">
        <time>2022-07-03T11:31:57Z</time>
      </trkpt>
      <trkpt lat="43.047043" lon="-1.617547">
        <time>2022-07-03T11:31:58Z</time>
      </trkpt>
      <trkpt lat="43.046978" lon="-1.6176437">
        <time>2022-07-03T11:31:59Z</time>
      </trkpt>
      <trkpt lat="43.04691" lon="-1.6177391">
        <time>2022-07-03T11:32:00Z</time>
      </trkpt>
      <trkpt lat="43.04685" lon="-1.6178308">
        <time>2022-07-03T11:32:01Z</time>
      </trkpt>
      <trkpt lat="43.046787" lon="-1.6179267">
        <time>2022-07-03T11:32:02Z</time>
      </trkpt>
      <trkpt lat="43.046722" lon="-1.6180338">
        <time>2022-07-03T11:32:03Z</time>
      </trkpt>
      <trkpt lat="43.04666" lon="-1.6181457">
        <time>2022-07-03T11:32:04Z</time>
      </trkpt>
      <trkpt lat="43.046608" lon="-1.618253">
        <time>2022-07-03T11:32:05Z</time>
      </trkpt>
      <trkpt lat="43.046566" lon="-1.618366">
        <time>2022-07-03T11:32:06Z</time>
      </trkpt>
      <trkpt lat="43.046528" lon="-1.6184837">
        <time>2022-07-03T11:32:07Z</time>
      </trkpt>
      <trkpt lat="43.046494" lon="-1.618611">
        <time>2022-07-03T11:32:08Z</time>
      </trkpt>
      <trkpt lat="43.046467" lon="-1.6187277">
        <time>2022-07-03T11:32:09Z</time>
      </trkpt>
      <trkpt lat="43.046444" lon="-1.618842">
        <time>2022-07-03T11:32:10Z</time>
      </trkpt>
      <trkpt lat="43.046425" lon="-1.6189541">
        <time>2022-07-03T11:32:11Z</time>
      </trkpt>
      <trkpt lat="43.04641" lon="-1.619065">
        <time>2022-07-03T11:32:12Z</time>
      </trkpt>
      <trkpt lat="43.046402" lon="-1.6191744">
        <time>2022-07-03T11:32:13Z</time>
      </trkpt>
      <trkpt lat="43.04639" lon="-1.6192807">
        <time>2022-07-03T11:32:14Z</time>
      </trkpt>
      <trkpt lat="43.046383" lon="-1.6193827">
        <time>2022-07-03T11:32:15Z</time>
      </trkpt>
      <trkpt lat="43.04637" lon="-1.6194807">
        <time>2022-07-03T11:32:16Z</time>
      </trkpt>
      <trkpt lat="43.046364" lon="-1.6195743">
        <time>2022-07-03T11:32:17Z</time>
      </trkpt>
      <trkpt lat="43.046356" lon="-1.6196647">
        <time>2022-07-03T11:32:18Z</time>
      </trkpt>
      <trkpt lat="43.046352" lon="-1.619752">
        <time>2022-07-03T11:32:19Z</time>
      </trkpt>
      <trkpt lat="43.04635" lon="-1.61984">
        <time>2022-07-03T11:32:20Z</time>
      </trkpt>
      <trkpt lat="43.04634" lon="-1.619922">
        <time>2022-07-03T11:32:21Z</time>
      </trkpt>
      <trkpt lat="43.046337" lon="-1.619996">
        <time>2022-07-03T11:32:22Z</time>
      </trkpt>
      <trkpt lat="43.04633" lon="-1.620069">
        <time>2022-07-03T11:32:23Z</time>
      </trkpt>
      <trkpt lat="43.046326" lon="-1.6201414">
        <time>2022-07-03T11:32:24Z</time>
      </trkpt>
      <trkpt lat="43.046314" lon="-1.6202787">
        <time>2022-07-03T11:32:26Z</time>
      </trkpt>
      <trkpt lat="43.046307" lon="-1.6203443">
        <time>2022-07-03T11:32:27Z</time>
      </trkpt>
      <trkpt lat="43.046303" lon="-1.620469">
        <time>2022-07-03T11:32:29Z</time>
      </trkpt>
      <trkpt lat="43.0463" lon="-1.620588">
        <time>2022-07-03T11:32:31Z</time>
      </trkpt>
      <trkpt lat="43.04628" lon="-1.6207633">
        <time>2022-07-03T11:32:34Z</time>
      </trkpt>
      <trkpt lat="43.046265" lon="-1.620876">
        <time>2022-07-03T11:32:36Z</time>
      </trkpt>
      <trkpt lat="43.04624" lon="-1.6209966">
        <time>2022-07-03T11:32:38Z</time>
      </trkpt>
      <trkpt lat="43.046215" lon="-1.621118">
        <time>2022-07-03T11:32:40Z</time>
      </trkpt>
      <trkpt lat="43.046192" lon="-1.6212313">
        <time>2022-07-03T11:32:42Z</time>
      </trkpt>
      <trkpt lat="43.04616" lon="-1.6213423">
        <time>2022-07-03T11:32:44Z</time>
      </trkpt>
      <trkpt lat="43.046127" lon="-1.621455">
        <time>2022-07-03T11:32:46Z</time>
      </trkpt>
      <trkpt lat="43.046097" lon="-1.6215633">
        <time>2022-07-03T11:32:48Z</time>
      </trkpt>
      <trkpt lat="43.04607" lon="-1.6216689">
        <time>2022-07-03T11:32:50Z</time>
      </trkpt>
      <trkpt lat="43.04604" lon="-1.6217726">
        <time>2022-07-03T11:32:52Z</time>
      </trkpt>
      <trkpt lat="43.046013" lon="-1.6218712">
        <time>2022-07-03T11:32:54Z</time>
      </trkpt>
      <trkpt lat="43.045986" lon="-1.6219692">
        <time>2022-07-03T11:32:56Z</time>
      </trkpt>
      <trkpt lat="43.04595" lon="-1.6220709">
        <time>2022-07-03T11:32:58Z</time>
      </trkpt>
      <trkpt lat="43.045914" lon="-1.6221693">
        <time>2022-07-03T11:33:00Z</time>
      </trkpt>
      <trkpt lat="43.04587" lon="-1.6222726">
        <time>2022-07-03T11:33:02Z</time>
      </trkpt>
      <trkpt lat="43.04583" lon="-1.6223849">
        <time>2022-07-03T11:33:04Z</time>
      </trkpt>
      <trkpt lat="43.045784" lon="-1.6224983">
        <time>2022-07-03T11:33:06Z</time>
      </trkpt>
      <trkpt lat="43.045734" lon="-1.6226102">
        <time>2022-07-03T11:33:08Z</time>
      </trkpt>
      <trkpt lat="43.045708" lon="-1.6226659">
        <time>2022-07-03T11:33:09Z</time>
      </trkpt>
      <trkpt lat="43.045654" lon="-1.6227769">
        <time>2022-07-03T11:33:11Z</time>
      </trkpt>
      <trkpt lat="43.045624" lon="-1.6228312">
        <time>2022-07-03T11:33:12Z</time>
      </trkpt>
      <trkpt lat="43.045567" lon="-1.6229359">
        <time>2022-07-03T11:33:14Z</time>
      </trkpt>
      <trkpt lat="43.04551" lon="-1.6230406">
        <time>2022-07-03T11:33:16Z</time>
      </trkpt>
      <trkpt lat="43.04548" lon="-1.6230949">
        <time>2022-07-03T11:33:17Z</time>
      </trkpt>
      <trkpt lat="43.045418" lon="-1.6232052">
        <time>2022-07-03T11:33:19Z</time>
      </trkpt>
      <trkpt lat="43.04535" lon="-1.6233115">
        <time>2022-07-03T11:33:21Z</time>
      </trkpt>
      <trkpt lat="43.04531" lon="-1.6233639">
        <time>2022-07-03T11:33:22Z</time>
      </trkpt>
      <trkpt lat="43.045277" lon="-1.6234175">
        <time>2022-07-03T11:33:23Z</time>
      </trkpt>
      <trkpt lat="43.045242" lon="-1.6234735">
        <time>2022-07-03T11:33:24Z</time>
      </trkpt>
      <trkpt lat="43.045204" lon="-1.6235309">
        <time>2022-07-03T11:33:25Z</time>
      </trkpt>
      <trkpt lat="43.04517" lon="-1.6235888">
        <time>2022-07-03T11:33:26Z</time>
      </trkpt>
      <trkpt lat="43.04513" lon="-1.6236472">
        <time>2022-07-03T11:33:27Z</time>
      </trkpt>
      <trkpt lat="43.045094" lon="-1.6237032">
        <time>2022-07-03T11:33:28Z</time>
      </trkpt>
      <trkpt lat="43.045055" lon="-1.6237582">
        <time>2022-07-03T11:33:29Z</time>
      </trkpt>
      <trkpt lat="43.045017" lon="-1.6238135">
        <time>2022-07-03T11:33:30Z</time>
      </trkpt>
      <trkpt lat="43.044975" lon="-1.6238675">
        <time>2022-07-03T11:33:31Z</time>
      </trkpt>
      <trkpt lat="43.044933" lon="-1.6239189">
        <time>2022-07-03T11:33:32Z</time>
      </trkpt>
      <trkpt lat="43.04489" lon="-1.6239705">
        <time>2022-07-03T11:33:33Z</time>
      </trkpt>
      <trkpt lat="43.04485" lon="-1.6240221">
        <time>2022-07-03T11:33:34Z</time>
      </trkpt>
      <trkpt lat="43.044807" lon="-1.6240722">
        <time>2022-07-03T11:33:35Z</time>
      </trkpt>
      <trkpt lat="43.044765" lon="-1.6241215">
        <time>2022-07-03T11:33:36Z</time>
      </trkpt>
      <trkpt lat="43.044724" lon="-1.6241695">
        <time>2022-07-03T11:33:37Z</time>
      </trkpt>
      <trkpt lat="43.04468" lon="-1.6242155">
        <time>2022-07-03T11:33:38Z</time>
      </trkpt>
      <trkpt lat="43.044636" lon="-1.6242595">
        <time>2022-07-03T11:33:39Z</time>
      </trkpt>
      <trkpt lat="43.044586" lon="-1.6243045">
        <time>2022-07-03T11:33:40Z</time>
      </trkpt>
      <trkpt lat="43.044525" lon="-1.6243565">
        <time>2022-07-03T11:33:42Z</time>
      </trkpt>
      <trkpt lat="43.04447" lon="-1.6244035">
        <time>2022-07-03T11:33:43Z</time>
      </trkpt>
      <trkpt lat="43.04442" lon="-1.6244458">
        <time>2022-07-03T11:33:44Z</time>
      </trkpt>
      <trkpt lat="43.044365" lon="-1.6244864">
        <time>2022-07-03T11:33:45Z</time>
      </trkpt>
      <trkpt lat="43.04431" lon="-1.6245224">
        <time>2022-07-03T11:33:46Z</time>
      </trkpt>
      <trkpt lat="43.044266" lon="-1.6245562">
        <time>2022-07-03T11:33:47Z</time>
      </trkpt>
      <trkpt lat="43.04422" lon="-1.6245852">
        <time>2022-07-03T11:33:48Z</time>
      </trkpt>
      <trkpt lat="43.044086" lon="-1.6246642">
        <time>2022-07-03T11:33:51Z</time>
      </trkpt>
      <trkpt lat="43.044" lon="-1.6247112">
        <time>2022-07-03T11:33:53Z</time>
      </trkpt>
      <trkpt lat="43.04391" lon="-1.6247565">
        <time>2022-07-03T11:33:55Z</time>
      </trkpt>
      <trkpt lat="43.043823" lon="-1.6248071">
        <time>2022-07-03T11:33:57Z</time>
      </trkpt>
      <trkpt lat="43.04378" lon="-1.6248322">
        <time>2022-07-03T11:33:58Z</time>
      </trkpt>
      <trkpt lat="43.043694" lon="-1.6248804">
        <time>2022-07-03T11:34:00Z</time>
      </trkpt>
      <trkpt lat="43.043602" lon="-1.6249251">
        <time>2022-07-03T11:34:02Z</time>
      </trkpt>
      <trkpt lat="43.04351" lon="-1.6249641">
        <time>2022-07-03T11:34:04Z</time>
      </trkpt>
      <trkpt lat="43.043415" lon="-1.6250005">
        <time>2022-07-03T11:34:06Z</time>
      </trkpt>
      <trkpt lat="43.043365" lon="-1.6250172">
        <time>2022-07-03T11:34:07Z</time>
      </trkpt>
      <trkpt lat="43.043274" lon="-1.6250484">
        <time>2022-07-03T11:34:09Z</time>
      </trkpt>
      <trkpt lat="43.043175" lon="-1.6250821">
        <time>2022-07-03T11:34:11Z</time>
      </trkpt>
      <trkpt lat="43.043076" lon="-1.6251072">
        <time>2022-07-03T11:34:13Z</time>
      </trkpt>
      <trkpt lat="43.042976" lon="-1.6251298">
        <time>2022-07-03T11:34:15Z</time>
      </trkpt>
      <trkpt lat="43.042927" lon="-1.6251428">
        <time>2022-07-03T11:34:16Z</time>
      </trkpt>
      <trkpt lat="43.042828" lon="-1.6251627">
        <time>2022-07-03T11:34:18Z</time>
      </trkpt>
      <trkpt lat="43.04273" lon="-1.6251805">
        <time>2022-07-03T11:34:20Z</time>
      </trkpt>
      <trkpt lat="43.04268" lon="-1.6251885">
        <time>2022-07-03T11:34:21Z</time>
      </trkpt>
      <trkpt lat="43.042576" lon="-1.6252037">
        <time>2022-07-03T11:34:23Z</time>
      </trkpt>
      <trkpt lat="43.042526" lon="-1.6252137">
        <time>2022-07-03T11:34:24Z</time>
      </trkpt>
      <trkpt lat="43.042427" lon="-1.6252325">
        <time>2022-07-03T11:34:26Z</time>
      </trkpt>
      <trkpt lat="43.042377" lon="-1.6252408">
        <time>2022-07-03T11:34:27Z</time>
      </trkpt>
      <trkpt lat="43.042328" lon="-1.625249">
        <time>2022-07-03T11:34:28Z</time>
      </trkpt>
      <trkpt lat="43.042225" lon="-1.6252651">
        <time>2022-07-03T11:34:30Z</time>
      </trkpt>
      <trkpt lat="43.042175" lon="-1.6252724">
        <time>2022-07-03T11:34:31Z</time>
      </trkpt>
      <trkpt lat="43.042072" lon="-1.6252824">
        <time>2022-07-03T11:34:33Z</time>
      </trkpt>
      <trkpt lat="43.042023" lon="-1.6252841">
        <time>2022-07-03T11:34:34Z</time>
      </trkpt>
      <trkpt lat="43.04191" lon="-1.6252815">
        <time>2022-07-03T11:34:36Z</time>
      </trkpt>
      <trkpt lat="43.041855" lon="-1.6252804">
        <time>2022-07-03T11:34:37Z</time>
      </trkpt>
      <trkpt lat="43.0418" lon="-1.6252794">
        <time>2022-07-03T11:34:38Z</time>
      </trkpt>
      <trkpt lat="43.041748" lon="-1.6252784">
        <time>2022-07-03T11:34:39Z</time>
      </trkpt>
      <trkpt lat="43.0417" lon="-1.625277">
        <time>2022-07-03T11:34:40Z</time>
      </trkpt>
      <trkpt lat="43.04159" lon="-1.6252754">
        <time>2022-07-03T11:34:42Z</time>
      </trkpt>
      <trkpt lat="43.04154" lon="-1.6252735">
        <time>2022-07-03T11:34:43Z</time>
      </trkpt>
      <trkpt lat="43.04148" lon="-1.6252701">
        <time>2022-07-03T11:34:44Z</time>
      </trkpt>
      <trkpt lat="43.041428" lon="-1.6252651">
        <time>2022-07-03T11:34:45Z</time>
      </trkpt>
      <trkpt lat="43.041374" lon="-1.6252594">
        <time>2022-07-03T11:34:46Z</time>
      </trkpt>
      <trkpt lat="43.04132" lon="-1.6252558">
        <time>2022-07-03T11:34:47Z</time>
      </trkpt>
      <trkpt lat="43.04127" lon="-1.6252514">
        <time>2022-07-03T11:34:48Z</time>
      </trkpt>
      <trkpt lat="43.041218" lon="-1.6252455">
        <time>2022-07-03T11:34:49Z</time>
      </trkpt>
      <trkpt lat="43.04117" lon="-1.6252381">
        <time>2022-07-03T11:34:50Z</time>
      </trkpt>
      <trkpt lat="43.041065" lon="-1.6252224">
        <time>2022-07-03T11:34:52Z</time>
      </trkpt>
      <trkpt lat="43.041016" lon="-1.6252145">
        <time>2022-07-03T11:34:53Z</time>
      </trkpt>
      <trkpt lat="43.040913" lon="-1.6251988">
        <time>2022-07-03T11:34:55Z</time>
      </trkpt>
      <trkpt lat="43.04086" lon="-1.6251885">
        <time>2022-07-03T11:34:56Z</time>
      </trkpt>
      <trkpt lat="43.040806" lon="-1.6251758">
        <time>2022-07-03T11:34:57Z</time>
      </trkpt>
      <trkpt lat="43.04075" lon="-1.6251612">
        <time>2022-07-03T11:34:58Z</time>
      </trkpt>
      <trkpt lat="43.040695" lon="-1.6251458">
        <time>2022-07-03T11:34:59Z</time>
      </trkpt>
      <trkpt lat="43.040638" lon="-1.6251318">
        <time>2022-07-03T11:35:00Z</time>
      </trkpt>
      <trkpt lat="43.040585" lon="-1.6251185">
        <time>2022-07-03T11:35:01Z</time>
      </trkpt>
      <trkpt lat="43.040527" lon="-1.6251048">
        <time>2022-07-03T11:35:02Z</time>
      </trkpt>
      <trkpt lat="43.040474" lon="-1.6250912">
        <time>2022-07-03T11:35:03Z</time>
      </trkpt>
      <trkpt lat="43.040417" lon="-1.6250765">
        <time>2022-07-03T11:35:04Z</time>
      </trkpt>
      <trkpt lat="43.04036" lon="-1.6250606">
        <time>2022-07-03T11:35:05Z</time>
      </trkpt>
      <trkpt lat="43.040302" lon="-1.6250439">
        <time>2022-07-03T11:35:06Z</time>
      </trkpt>
      <trkpt lat="43.04024" lon="-1.6250246">
        <time>2022-07-03T11:35:07Z</time>
      </trkpt>
      <trkpt lat="43.040184" lon="-1.6250058">
        <time>2022-07-03T11:35:08Z</time>
      </trkpt>
      <trkpt lat="43.040127" lon="-1.6249865">
        <time>2022-07-03T11:35:09Z</time>
      </trkpt>
      <trkpt lat="43.04" lon="-1.6249422">
        <time>2022-07-03T11:35:11Z</time>
      </trkpt>
      <trkpt lat="43.039944" lon="-1.6249212">
        <time>2022-07-03T11:35:12Z</time>
      </trkpt>
      <trkpt lat="43.039883" lon="-1.6248999">
        <time>2022-07-03T11:35:13Z</time>
      </trkpt>
      <trkpt lat="43.03982" lon="-1.6248785">
        <time>2022-07-03T11:35:14Z</time>
      </trkpt>
      <trkpt lat="43.039753" lon="-1.6248542">
        <time>2022-07-03T11:35:15Z</time>
      </trkpt>
      <trkpt lat="43.039684" lon="-1.6248305">
        <time>2022-07-03T11:35:16Z</time>
      </trkpt>
      <trkpt lat="43.03962" lon="-1.6248078">
        <time>2022-07-03T11:35:17Z</time>
      </trkpt>
      <trkpt lat="43.039555" lon="-1.6247859">
        <time>2022-07-03T11:35:18Z</time>
      </trkpt>
      <trkpt lat="43.039482" lon="-1.6247668">
        <time>2022-07-03T11:35:19Z</time>
      </trkpt>
      <trkpt lat="43.03941" lon="-1.6247499">
        <time>2022-07-03T11:35:20Z</time>
      </trkpt>
      <trkpt lat="43.039333" lon="-1.6247336">
        <time>2022-07-03T11:35:21Z</time>
      </trkpt>
      <trkpt lat="43.039257" lon="-1.6247193">
        <time>2022-07-03T11:35:22Z</time>
      </trkpt>
      <trkpt lat="43.039173" lon="-1.6247069">
        <time>2022-07-03T11:35:23Z</time>
      </trkpt>
      <trkpt lat="43.03909" lon="-1.6246989">
        <time>2022-07-03T11:35:24Z</time>
      </trkpt>
      <trkpt lat="43.039005" lon="-1.6246922">
        <time>2022-07-03T11:35:25Z</time>
      </trkpt>
      <trkpt lat="43.038918" lon="-1.6246849">
        <time>2022-07-03T11:35:26Z</time>
      </trkpt>
      <trkpt lat="43.03883" lon="-1.6246749">
        <time>2022-07-03T11:35:27Z</time>
      </trkpt>
      <trkpt lat="43.038742" lon="-1.6246603">
        <time>2022-07-03T11:35:28Z</time>
      </trkpt>
      <trkpt lat="43.038647" lon="-1.6246399">
        <time>2022-07-03T11:35:29Z</time>
      </trkpt>
      <trkpt lat="43.03855" lon="-1.6246135">
        <time>2022-07-03T11:35:30Z</time>
      </trkpt>
      <trkpt lat="43.038456" lon="-1.6245829">
        <time>2022-07-03T11:35:31Z</time>
      </trkpt>
      <trkpt lat="43.03835" lon="-1.6245496">
        <time>2022-07-03T11:35:32Z</time>
      </trkpt>
      <trkpt lat="43.03825" lon="-1.6245186">
        <time>2022-07-03T11:35:33Z</time>
      </trkpt>
      <trkpt lat="43.03815" lon="-1.6244849">
        <time>2022-07-03T11:35:34Z</time>
      </trkpt>
      <trkpt lat="43.038048" lon="-1.6244522">
        <time>2022-07-03T11:35:35Z</time>
      </trkpt>
      <trkpt lat="43.03794" lon="-1.6244192">
        <time>2022-07-03T11:35:36Z</time>
      </trkpt>
      <trkpt lat="43.037834" lon="-1.6243899">
        <time>2022-07-03T11:35:37Z</time>
      </trkpt>
      <trkpt lat="43.037735" lon="-1.6243653">
        <time>2022-07-03T11:35:38Z</time>
      </trkpt>
      <trkpt lat="43.037632" lon="-1.6243459">
        <time>2022-07-03T11:35:39Z</time>
      </trkpt>
      <trkpt lat="43.03752" lon="-1.6243373">
        <time>2022-07-03T11:35:40Z</time>
      </trkpt>
      <trkpt lat="43.03741" lon="-1.6243403">
        <time>2022-07-03T11:35:41Z</time>
      </trkpt>
      <trkpt lat="43.0373" lon="-1.6243566">
        <time>2022-07-03T11:35:42Z</time>
      </trkpt>
      <trkpt lat="43.037193" lon="-1.6243856">
        <time>2022-07-03T11:35:43Z</time>
      </trkpt>
      <trkpt lat="43.03709" lon="-1.6244273">
        <time>2022-07-03T11:35:44Z</time>
      </trkpt>
      <trkpt lat="43.036987" lon="-1.6244789">
        <time>2022-07-03T11:35:45Z</time>
      </trkpt>
      <trkpt lat="43.03689" lon="-1.624542">
        <time>2022-07-03T11:35:46Z</time>
      </trkpt>
      <trkpt lat="43.036793" lon="-1.6246139">
        <time>2022-07-03T11:35:47Z</time>
      </trkpt>
      <trkpt lat="43.036694" lon="-1.6246909">
        <time>2022-07-03T11:35:48Z</time>
      </trkpt>
      <trkpt lat="43.0366" lon="-1.624772">
        <time>2022-07-03T11:35:49Z</time>
      </trkpt>
      <trkpt lat="43.036507" lon="-1.6248536">
        <time>2022-07-03T11:35:50Z</time>
      </trkpt>
      <trkpt lat="43.036427" lon="-1.6249279">
        <time>2022-07-03T11:35:51Z</time>
      </trkpt>
      <trkpt lat="43.03634" lon="-1.625009">
        <time>2022-07-03T11:35:52Z</time>
      </trkpt>
      <trkpt lat="43.03625" lon="-1.6250896">
        <time>2022-07-03T11:35:53Z</time>
      </trkpt>
      <trkpt lat="43.036163" lon="-1.6251682">
        <time>2022-07-03T11:35:54Z</time>
      </trkpt>
      <trkpt lat="43.036076" lon="-1.6252419">
        <time>2022-07-03T11:35:55Z</time>
      </trkpt>
      <trkpt lat="43.035988" lon="-1.6253072">
        <time>2022-07-03T11:35:56Z</time>
      </trkpt>
      <trkpt lat="43.0359" lon="-1.6253645">
        <time>2022-07-03T11:35:57Z</time>
      </trkpt>
      <trkpt lat="43.03581" lon="-1.6254122">
        <time>2022-07-03T11:35:58Z</time>
      </trkpt>
      <trkpt lat="43.03572" lon="-1.6254512">
        <time>2022-07-03T11:35:59Z</time>
      </trkpt>
      <trkpt lat="43.03563" lon="-1.6254835">
        <time>2022-07-03T11:36:00Z</time>
      </trkpt>
      <trkpt lat="43.035534" lon="-1.6255139">
        <time>2022-07-03T11:36:01Z</time>
      </trkpt>
      <trkpt lat="43.035442" lon="-1.6255459">
        <time>2022-07-03T11:36:02Z</time>
      </trkpt>
      <trkpt lat="43.03535" lon="-1.6255805">
        <time>2022-07-03T11:36:03Z</time>
      </trkpt>
      <trkpt lat="43.035255" lon="-1.6256179">
        <time>2022-07-03T11:36:04Z</time>
      </trkpt>
      <trkpt lat="43.03516" lon="-1.6256572">
        <time>2022-07-03T11:36:05Z</time>
      </trkpt>
      <trkpt lat="43.035065" lon="-1.6256995">
        <time>2022-07-03T11:36:06Z</time>
      </trkpt>
      <trkpt lat="43.03497" lon="-1.6257448">
        <time>2022-07-03T11:36:07Z</time>
      </trkpt>
      <trkpt lat="43.034874" lon="-1.6257942">
        <time>2022-07-03T11:36:08Z</time>
      </trkpt>
      <trkpt lat="43.03478" lon="-1.6258456">
        <time>2022-07-03T11:36:09Z</time>
      </trkpt>
      <trkpt lat="43.034687" lon="-1.6258996">
        <time>2022-07-03T11:36:10Z</time>
      </trkpt>
      <trkpt lat="43.034595" lon="-1.6259549">
        <time>2022-07-03T11:36:11Z</time>
      </trkpt>
      <trkpt lat="43.034504" lon="-1.6260109">
        <time>2022-07-03T11:36:12Z</time>
      </trkpt>
      <trkpt lat="43.03441" lon="-1.6260738">
        <time>2022-07-03T11:36:13Z</time>
      </trkpt>
      <trkpt lat="43.034317" lon="-1.6261442">
        <time>2022-07-03T11:36:14Z</time>
      </trkpt>
      <trkpt lat="43.034225" lon="-1.6262219">
        <time>2022-07-03T11:36:15Z</time>
      </trkpt>
      <trkpt lat="43.034134" lon="-1.6263132">
        <time>2022-07-03T11:36:16Z</time>
      </trkpt>
      <trkpt lat="43.034054" lon="-1.6264168">
        <time>2022-07-03T11:36:17Z</time>
      </trkpt>
      <trkpt lat="43.033962" lon="-1.6265699">
        <time>2022-07-03T11:36:19Z</time>
      </trkpt>
      <trkpt lat="43.033882" lon="-1.6267111">
        <time>2022-07-03T11:36:20Z</time>
      </trkpt>
      <trkpt lat="43.03381" lon="-1.6268458">
        <time>2022-07-03T11:36:21Z</time>
      </trkpt>
      <trkpt lat="43.033737" lon="-1.6269728">
        <time>2022-07-03T11:36:22Z</time>
      </trkpt>
      <trkpt lat="43.033665" lon="-1.6270908">
        <time>2022-07-03T11:36:23Z</time>
      </trkpt>
      <trkpt lat="43.033592" lon="-1.6272035">
        <time>2022-07-03T11:36:24Z</time>
      </trkpt>
      <trkpt lat="43.033512" lon="-1.6273111">
        <time>2022-07-03T11:36:25Z</time>
      </trkpt>
      <trkpt lat="43.033436" lon="-1.6274122">
        <time>2022-07-03T11:36:26Z</time>
      </trkpt>
      <trkpt lat="43.03335" lon="-1.6275082">
        <time>2022-07-03T11:36:27Z</time>
      </trkpt>
      <trkpt lat="43.033188" lon="-1.6276788">
        <time>2022-07-03T11:36:29Z</time>
      </trkpt>
      <trkpt lat="43.033104" lon="-1.6277598">
        <time>2022-07-03T11:36:30Z</time>
      </trkpt>
      <trkpt lat="43.03302" lon="-1.6278374">
        <time>2022-07-03T11:36:31Z</time>
      </trkpt>
      <trkpt lat="43.032936" lon="-1.6279114">
        <time>2022-07-03T11:36:32Z</time>
      </trkpt>
      <trkpt lat="43.032852" lon="-1.6279775">
        <time>2022-07-03T11:36:33Z</time>
      </trkpt>
      <trkpt lat="43.032764" lon="-1.6280311">
        <time>2022-07-03T11:36:34Z</time>
      </trkpt>
      <trkpt lat="43.03268" lon="-1.6280727">
        <time>2022-07-03T11:36:35Z</time>
      </trkpt>
      <trkpt lat="43.032597" lon="-1.6281008">
        <time>2022-07-03T11:36:36Z</time>
      </trkpt>
      <trkpt lat="43.032513" lon="-1.6281178">
        <time>2022-07-03T11:36:37Z</time>
      </trkpt>
      <trkpt lat="43.03243" lon="-1.6281234">
        <time>2022-07-03T11:36:38Z</time>
      </trkpt>
      <trkpt lat="43.03235" lon="-1.6281178">
        <time>2022-07-03T11:36:39Z</time>
      </trkpt>
      <trkpt lat="43.03227" lon="-1.6280991">
        <time>2022-07-03T11:36:40Z</time>
      </trkpt>
      <trkpt lat="43.032196" lon="-1.6280705">
        <time>2022-07-03T11:36:41Z</time>
      </trkpt>
      <trkpt lat="43.032127" lon="-1.6280335">
        <time>2022-07-03T11:36:42Z</time>
      </trkpt>
      <trkpt lat="43.032055" lon="-1.6279951">
        <time>2022-07-03T11:36:43Z</time>
      </trkpt>
      <trkpt lat="43.031994" lon="-1.6279615">
        <time>2022-07-03T11:36:44Z</time>
      </trkpt>
      <trkpt lat="43.03192" lon="-1.6279274">
        <time>2022-07-03T11:36:45Z</time>
      </trkpt>
      <trkpt lat="43.031853" lon="-1.6278955">
        <time>2022-07-03T11:36:46Z</time>
      </trkpt>
      <trkpt lat="43.03178" lon="-1.6278691">
        <time>2022-07-03T11:36:47Z</time>
      </trkpt>
      <trkpt lat="43.031708" lon="-1.6278522">
        <time>2022-07-03T11:36:48Z</time>
      </trkpt>
      <trkpt lat="43.031635" lon="-1.6278481">
        <time>2022-07-03T11:36:49Z</time>
      </trkpt>
      <trkpt lat="43.031563" lon="-1.6278574">
        <time>2022-07-03T11:36:50Z</time>
      </trkpt>
      <trkpt lat="43.031494" lon="-1.6278799">
        <time>2022-07-03T11:36:51Z</time>
      </trkpt>
      <trkpt lat="43.031425" lon="-1.6279155">
        <time>2022-07-03T11:36:52Z</time>
      </trkpt>
      <trkpt lat="43.03136" lon="-1.6279598">
        <time>2022-07-03T11:36:53Z</time>
      </trkpt>
      <trkpt lat="43.031307" lon="-1.6280172">
        <time>2022-07-03T11:36:54Z</time>
      </trkpt>
      <trkpt lat="43.031254" lon="-1.6280857">
        <time>2022-07-03T11:36:55Z</time>
      </trkpt>
      <trkpt lat="43.031204" lon="-1.6281701">
        <time>2022-07-03T11:36:56Z</time>
      </trkpt>
      <trkpt lat="43.031162" lon="-1.6282611">
        <time>2022-07-03T11:36:57Z</time>
      </trkpt>
      <trkpt lat="43.031124" lon="-1.6283481">
        <time>2022-07-03T11:36:58Z</time>
      </trkpt>
      <trkpt lat="43.03109" lon="-1.6284378">
        <time>2022-07-03T11:36:59Z</time>
      </trkpt>
      <trkpt lat="43.031048" lon="-1.6285328">
        <time>2022-07-03T11:37:00Z</time>
      </trkpt>
      <trkpt lat="43.031006" lon="-1.6286198">
        <time>2022-07-03T11:37:01Z</time>
      </trkpt>
      <trkpt lat="43.030964" lon="-1.6287054">
        <time>2022-07-03T11:37:02Z</time>
      </trkpt>
      <trkpt lat="43.03091" lon="-1.628787">
        <time>2022-07-03T11:37:03Z</time>
      </trkpt>
      <trkpt lat="43.030853" lon="-1.6288644">
        <time>2022-07-03T11:37:04Z</time>
      </trkpt>
      <trkpt lat="43.03079" lon="-1.628936">
        <time>2022-07-03T11:37:05Z</time>
      </trkpt>
      <trkpt lat="43.03072" lon="-1.6290028">
        <time>2022-07-03T11:37:06Z</time>
      </trkpt>
      <trkpt lat="43.030647" lon="-1.6290665">
        <time>2022-07-03T11:37:07Z</time>
      </trkpt>
      <trkpt lat="43.030575" lon="-1.6291281">
        <time>2022-07-03T11:37:08Z</time>
      </trkpt>
      <trkpt lat="43.0305" lon="-1.6291873">
        <time>2022-07-03T11:37:09Z</time>
      </trkpt>
      <trkpt lat="43.030415" lon="-1.629251">
        <time>2022-07-03T11:37:10Z</time>
      </trkpt>
      <trkpt lat="43.03033" lon="-1.6293144">
        <time>2022-07-03T11:37:11Z</time>
      </trkpt>
      <trkpt lat="43.030254" lon="-1.6293757">
        <time>2022-07-03T11:37:12Z</time>
      </trkpt>
      <trkpt lat="43.03017" lon="-1.6294454">
        <time>2022-07-03T11:37:13Z</time>
      </trkpt>
      <trkpt lat="43.030094" lon="-1.6295204">
        <time>2022-07-03T11:37:14Z</time>
      </trkpt>
      <trkpt lat="43.030025" lon="-1.629601">
        <time>2022-07-03T11:37:15Z</time>
      </trkpt>
      <trkpt lat="43.02996" lon="-1.6296874">
        <time>2022-07-03T11:37:16Z</time>
      </trkpt>
      <trkpt lat="43.029903" lon="-1.62978">
        <time>2022-07-03T11:37:17Z</time>
      </trkpt>
      <trkpt lat="43.02985" lon="-1.6298777">
        <time>2022-07-03T11:37:18Z</time>
      </trkpt>
      <trkpt lat="43.029804" lon="-1.6299827">
        <time>2022-07-03T11:37:19Z</time>
      </trkpt>
      <trkpt lat="43.029762" lon="-1.630093">
        <time>2022-07-03T11:37:20Z</time>
      </trkpt>
      <trkpt lat="43.02973" lon="-1.6302093">
        <time>2022-07-03T11:37:21Z</time>
      </trkpt>
      <trkpt lat="43.029705" lon="-1.6303303">
        <time>2022-07-03T11:37:22Z</time>
      </trkpt>
      <trkpt lat="43.02968" lon="-1.630452">
        <time>2022-07-03T11:37:23Z</time>
      </trkpt>
      <trkpt lat="43.02965" lon="-1.630574">
        <time>2022-07-03T11:37:24Z</time>
      </trkpt>
      <trkpt lat="43.02962" lon="-1.630696">
        <time>2022-07-03T11:37:25Z</time>
      </trkpt>
      <trkpt lat="43.02959" lon="-1.6308087">
        <time>2022-07-03T11:37:26Z</time>
      </trkpt>
      <trkpt lat="43.029552" lon="-1.630927">
        <time>2022-07-03T11:37:27Z</time>
      </trkpt>
      <trkpt lat="43.02951" lon="-1.6310444">
        <time>2022-07-03T11:37:28Z</time>
      </trkpt>
      <trkpt lat="43.029476" lon="-1.6311547">
        <time>2022-07-03T11:37:29Z</time>
      </trkpt>
      <trkpt lat="43.029434" lon="-1.6312677">
        <time>2022-07-03T11:37:30Z</time>
      </trkpt>
      <trkpt lat="43.029392" lon="-1.6313787">
        <time>2022-07-03T11:37:31Z</time>
      </trkpt>
      <trkpt lat="43.029346" lon="-1.631496">
        <time>2022-07-03T11:37:32Z</time>
      </trkpt>
      <trkpt lat="43.029305" lon="-1.6316053">
        <time>2022-07-03T11:37:33Z</time>
      </trkpt>
      <trkpt lat="43.02923" lon="-1.6318064">
        <time>2022-07-03T11:37:35Z</time>
      </trkpt>
      <trkpt lat="43.02919" lon="-1.6318996">
        <time>2022-07-03T11:37:36Z</time>
      </trkpt>
      <trkpt lat="43.02915" lon="-1.631994">
        <time>2022-07-03T11:37:37Z</time>
      </trkpt>
      <trkpt lat="43.029106" lon="-1.6320946">
        <time>2022-07-03T11:37:38Z</time>
      </trkpt>
      <trkpt lat="43.029064" lon="-1.6321913">
        <time>2022-07-03T11:37:39Z</time>
      </trkpt>
      <trkpt lat="43.029026" lon="-1.6322787">
        <time>2022-07-03T11:37:40Z</time>
      </trkpt>
      <trkpt lat="43.02898" lon="-1.6323637">
        <time>2022-07-03T11:37:41Z</time>
      </trkpt>
      <trkpt lat="43.02893" lon="-1.6324493">
        <time>2022-07-03T11:37:42Z</time>
      </trkpt>
      <trkpt lat="43.028877" lon="-1.6325203">
        <time>2022-07-03T11:37:43Z</time>
      </trkpt>
      <trkpt lat="43.02882" lon="-1.6325812">
        <time>2022-07-03T11:37:44Z</time>
      </trkpt>
      <trkpt lat="43.02876" lon="-1.6326317">
        <time>2022-07-03T11:37:45Z</time>
      </trkpt>
      <trkpt lat="43.028687" lon="-1.6326736">
        <time>2022-07-03T11:37:46Z</time>
      </trkpt>
      <trkpt lat="43.02861" lon="-1.6327026">
        <time>2022-07-03T11:37:47Z</time>
      </trkpt>
      <trkpt lat="43.02853" lon="-1.6327163">
        <time>2022-07-03T11:37:48Z</time>
      </trkpt>
      <trkpt lat="43.028454" lon="-1.6327173">
        <time>2022-07-03T11:37:49Z</time>
      </trkpt>
      <trkpt lat="43.02838" lon="-1.6327072">
        <time>2022-07-03T11:37:50Z</time>
      </trkpt>
      <trkpt lat="43.028305" lon="-1.6326886">
        <time>2022-07-03T11:37:51Z</time>
      </trkpt>
      <trkpt lat="43.028236" lon="-1.6326616">
        <time>2022-07-03T11:37:52Z</time>
      </trkpt>
      <trkpt lat="43.02816" lon="-1.6326233">
        <time>2022-07-03T11:37:53Z</time>
      </trkpt>
      <trkpt lat="43.028084" lon="-1.6325816">
        <time>2022-07-03T11:37:54Z</time>
      </trkpt>
      <trkpt lat="43.028015" lon="-1.6325387">
        <time>2022-07-03T11:37:55Z</time>
      </trkpt>
      <trkpt lat="43.027943" lon="-1.6324927">
        <time>2022-07-03T11:37:56Z</time>
      </trkpt>
      <trkpt lat="43.027874" lon="-1.632445">
        <time>2022-07-03T11:37:57Z</time>
      </trkpt>
      <trkpt lat="43.027798" lon="-1.632398">
        <time>2022-07-03T11:37:58Z</time>
      </trkpt>
      <trkpt lat="43.027718" lon="-1.6323553">
        <time>2022-07-03T11:37:59Z</time>
      </trkpt>
      <trkpt lat="43.027637" lon="-1.6323183">
        <time>2022-07-03T11:38:00Z</time>
      </trkpt>
      <trkpt lat="43.02756" lon="-1.6322937">
        <time>2022-07-03T11:38:01Z</time>
      </trkpt>
      <trkpt lat="43.027485" lon="-1.632284">
        <time>2022-07-03T11:38:02Z</time>
      </trkpt>
      <trkpt lat="43.0274" lon="-1.632298">
        <time>2022-07-03T11:38:03Z</time>
      </trkpt>
      <trkpt lat="43.027325" lon="-1.6323273">
        <time>2022-07-03T11:38:04Z</time>
      </trkpt>
      <trkpt lat="43.02725" lon="-1.6323756">
        <time>2022-07-03T11:38:05Z</time>
      </trkpt>
      <trkpt lat="43.027172" lon="-1.6324409">
        <time>2022-07-03T11:38:06Z</time>
      </trkpt>
      <trkpt lat="43.0271" lon="-1.6325203">
        <time>2022-07-03T11:38:07Z</time>
      </trkpt>
      <trkpt lat="43.02703" lon="-1.6326096">
        <time>2022-07-03T11:38:08Z</time>
      </trkpt>
      <trkpt lat="43.02697" lon="-1.632709">
        <time>2022-07-03T11:38:09Z</time>
      </trkpt>
      <trkpt lat="43.026917" lon="-1.632818">
        <time>2022-07-03T11:38:10Z</time>
      </trkpt>
      <trkpt lat="43.026882" lon="-1.6329349">
        <time>2022-07-03T11:38:11Z</time>
      </trkpt>
      <trkpt lat="43.026855" lon="-1.6330566">
        <time>2022-07-03T11:38:12Z</time>
      </trkpt>
      <trkpt lat="43.026844" lon="-1.6331806">
        <time>2022-07-03T11:38:13Z</time>
      </trkpt>
      <trkpt lat="43.026844" lon="-1.6333033">
        <time>2022-07-03T11:38:14Z</time>
      </trkpt>
      <trkpt lat="43.026855" lon="-1.6334193">
        <time>2022-07-03T11:38:15Z</time>
      </trkpt>
      <trkpt lat="43.02688" lon="-1.633531">
        <time>2022-07-03T11:38:16Z</time>
      </trkpt>
      <trkpt lat="43.026913" lon="-1.6336366">
        <time>2022-07-03T11:38:17Z</time>
      </trkpt>
      <trkpt lat="43.02696" lon="-1.6337376">
        <time>2022-07-03T11:38:18Z</time>
      </trkpt>
      <trkpt lat="43.02701" lon="-1.6338336">
        <time>2022-07-03T11:38:19Z</time>
      </trkpt>
      <trkpt lat="43.027073" lon="-1.633927">
        <time>2022-07-03T11:38:20Z</time>
      </trkpt>
      <trkpt lat="43.02713" lon="-1.634018">
        <time>2022-07-03T11:38:21Z</time>
      </trkpt>
      <trkpt lat="43.027187" lon="-1.6341106">
        <time>2022-07-03T11:38:22Z</time>
      </trkpt>
      <trkpt lat="43.027252" lon="-1.6342059">
        <time>2022-07-03T11:38:23Z</time>
      </trkpt>
      <trkpt lat="43.027317" lon="-1.6343043">
        <time>2022-07-03T11:38:24Z</time>
      </trkpt>
      <trkpt lat="43.02738" lon="-1.6344056">
        <time>2022-07-03T11:38:25Z</time>
      </trkpt>
      <trkpt lat="43.027447" lon="-1.6345073">
        <time>2022-07-03T11:38:26Z</time>
      </trkpt>
      <trkpt lat="43.027515" lon="-1.6346096">
        <time>2022-07-03T11:38:27Z</time>
      </trkpt>
      <trkpt lat="43.027584" lon="-1.6347102">
        <time>2022-07-03T11:38:28Z</time>
      </trkpt>
      <trkpt lat="43.02765" lon="-1.6348063">
        <time>2022-07-03T11:38:29Z</time>
      </trkpt>
      <trkpt lat="43.02771" lon="-1.6348989">
        <time>2022-07-03T11:38:30Z</time>
      </trkpt>
      <trkpt lat="43.027775" lon="-1.6349932">
        <time>2022-07-03T11:38:31Z</time>
      </trkpt>
      <trkpt lat="43.02784" lon="-1.6350876">
        <time>2022-07-03T11:38:32Z</time>
      </trkpt>
      <trkpt lat="43.027905" lon="-1.6351839">
        <time>2022-07-03T11:38:33Z</time>
      </trkpt>
      <trkpt lat="43.02797" lon="-1.6352808">
        <time>2022-07-03T11:38:34Z</time>
      </trkpt>
      <trkpt lat="43.028034" lon="-1.6353759">
        <time>2022-07-03T11:38:35Z</time>
      </trkpt>
      <trkpt lat="43.028088" lon="-1.6354682">
        <time>2022-07-03T11:38:36Z</time>
      </trkpt>
      <trkpt lat="43.02814" lon="-1.6355605">
        <time>2022-07-03T11:38:37Z</time>
      </trkpt>
      <trkpt lat="43.028217" lon="-1.6357596">
        <time>2022-07-03T11:38:39Z</time>
      </trkpt>
      <trkpt lat="43.028233" lon="-1.6358615">
        <time>2022-07-03T11:38:40Z</time>
      </trkpt>
      <trkpt lat="43.02823" lon="-1.6359532">
        <time>2022-07-03T11:38:41Z</time>
      </trkpt>
      <trkpt lat="43.028202" lon="-1.6360378">
        <time>2022-07-03T11:38:42Z</time>
      </trkpt>
      <trkpt lat="43.02816" lon="-1.6361109">
        <time>2022-07-03T11:38:43Z</time>
      </trkpt>
      <trkpt lat="43.02811" lon="-1.6361638">
        <time>2022-07-03T11:38:44Z</time>
      </trkpt>
      <trkpt lat="43.028046" lon="-1.6361979">
        <time>2022-07-03T11:38:45Z</time>
      </trkpt>
      <trkpt lat="43.027977" lon="-1.6362139">
        <time>2022-07-03T11:38:46Z</time>
      </trkpt>
      <trkpt lat="43.0279" lon="-1.6362145">
        <time>2022-07-03T11:38:47Z</time>
      </trkpt>
      <trkpt lat="43.027817" lon="-1.6362002">
        <time>2022-07-03T11:38:48Z</time>
      </trkpt>
      <trkpt lat="43.027725" lon="-1.6361666">
        <time>2022-07-03T11:38:49Z</time>
      </trkpt>
      <trkpt lat="43.027634" lon="-1.6361182">
        <time>2022-07-03T11:38:50Z</time>
      </trkpt>
      <trkpt lat="43.027546" lon="-1.6360636">
        <time>2022-07-03T11:38:51Z</time>
      </trkpt>
      <trkpt lat="43.02745" lon="-1.6360033">
        <time>2022-07-03T11:38:52Z</time>
      </trkpt>
      <trkpt lat="43.027348" lon="-1.6359369">
        <time>2022-07-03T11:38:53Z</time>
      </trkpt>
      <trkpt lat="43.02724" lon="-1.6358765">
        <time>2022-07-03T11:38:54Z</time>
      </trkpt>
      <trkpt lat="43.027134" lon="-1.6358229">
        <time>2022-07-03T11:38:55Z</time>
      </trkpt>
      <trkpt lat="43.027027" lon="-1.635778">
        <time>2022-07-03T11:38:56Z</time>
      </trkpt>
      <trkpt lat="43.026928" lon="-1.6357436">
        <time>2022-07-03T11:38:57Z</time>
      </trkpt>
      <trkpt lat="43.02682" lon="-1.6357195">
        <time>2022-07-03T11:38:58Z</time>
      </trkpt>
      <trkpt lat="43.026714" lon="-1.6357116">
        <time>2022-07-03T11:38:59Z</time>
      </trkpt>
      <trkpt lat="43.0266" lon="-1.6357136">
        <time>2022-07-03T11:39:00Z</time>
      </trkpt>
      <trkpt lat="43.026485" lon="-1.6357236">
        <time>2022-07-03T11:39:01Z</time>
      </trkpt>
      <trkpt lat="43.026382" lon="-1.6357386">
        <time>2022-07-03T11:39:02Z</time>
      </trkpt>
      <trkpt lat="43.02628" lon="-1.6357563">
        <time>2022-07-03T11:39:03Z</time>
      </trkpt>
      <trkpt lat="43.026173" lon="-1.6357756">
        <time>2022-07-03T11:39:04Z</time>
      </trkpt>
      <trkpt lat="43.026066" lon="-1.6357936">
        <time>2022-07-03T11:39:05Z</time>
      </trkpt>
      <trkpt lat="43.025955" lon="-1.6358099">
        <time>2022-07-03T11:39:06Z</time>
      </trkpt>
      <trkpt lat="43.025845" lon="-1.6358212">
        <time>2022-07-03T11:39:07Z</time>
      </trkpt>
      <trkpt lat="43.025726" lon="-1.6358238">
        <time>2022-07-03T11:39:08Z</time>
      </trkpt>
      <trkpt lat="43.025608" lon="-1.6358142">
        <time>2022-07-03T11:39:09Z</time>
      </trkpt>
      <trkpt lat="43.025494" lon="-1.635791">
        <time>2022-07-03T11:39:10Z</time>
      </trkpt>
      <trkpt lat="43.025375" lon="-1.6357533">
        <time>2022-07-03T11:39:11Z</time>
      </trkpt>
      <trkpt lat="43.02526" lon="-1.6356995">
        <time>2022-07-03T11:39:12Z</time>
      </trkpt>
      <trkpt lat="43.025154" lon="-1.6356273">
        <time>2022-07-03T11:39:13Z</time>
      </trkpt>
      <trkpt lat="43.025047" lon="-1.6355306">
        <time>2022-07-03T11:39:14Z</time>
      </trkpt>
      <trkpt lat="43.02495" lon="-1.6354206">
        <time>2022-07-03T11:39:15Z</time>
      </trkpt>
      <trkpt lat="43.024864" lon="-1.6353112">
        <time>2022-07-03T11:39:16Z</time>
      </trkpt>
      <trkpt lat="43.024788" lon="-1.6351916">
        <time>2022-07-03T11:39:17Z</time>
      </trkpt>
      <trkpt lat="43.024727" lon="-1.6350766">
        <time>2022-07-03T11:39:18Z</time>
      </trkpt>
      <trkpt lat="43.02467" lon="-1.6349546">
        <time>2022-07-03T11:39:19Z</time>
      </trkpt>
      <trkpt lat="43.024628" lon="-1.6348206">
        <time>2022-07-03T11:39:20Z</time>
      </trkpt>
      <trkpt lat="43.024597" lon="-1.6346803">
        <time>2022-07-03T11:39:21Z</time>
      </trkpt>
      <trkpt lat="43.024574" lon="-1.6345522">
        <time>2022-07-03T11:39:22Z</time>
      </trkpt>
      <trkpt lat="43.024563" lon="-1.6344249">
        <time>2022-07-03T11:39:23Z</time>
      </trkpt>
      <trkpt lat="43.024548" lon="-1.6343023">
        <time>2022-07-03T11:39:24Z</time>
      </trkpt>
      <trkpt lat="43.02452" lon="-1.6341813">
        <time>2022-07-03T11:39:25Z</time>
      </trkpt>
      <trkpt lat="43.02449" lon="-1.6340729">
        <time>2022-07-03T11:39:26Z</time>
      </trkpt>
      <trkpt lat="43.024445" lon="-1.633984">
        <time>2022-07-03T11:39:27Z</time>
      </trkpt>
      <trkpt lat="43.02439" lon="-1.6339216">
        <time>2022-07-03T11:39:28Z</time>
      </trkpt>
      <trkpt lat="43.024326" lon="-1.633884">
        <time>2022-07-03T11:39:29Z</time>
      </trkpt>
      <trkpt lat="43.024254" lon="-1.6338717">
        <time>2022-07-03T11:39:30Z</time>
      </trkpt>
      <trkpt lat="43.024178" lon="-1.6338849">
        <time>2022-07-03T11:39:31Z</time>
      </trkpt>
      <trkpt lat="43.0241" lon="-1.63392">
        <time>2022-07-03T11:39:32Z</time>
      </trkpt>
      <trkpt lat="43.024017" lon="-1.6339723">
        <time>2022-07-03T11:39:33Z</time>
      </trkpt>
      <trkpt lat="43.023933" lon="-1.6340369">
        <time>2022-07-03T11:39:34Z</time>
      </trkpt>
      <trkpt lat="43.02384" lon="-1.6341126">
        <time>2022-07-03T11:39:35Z</time>
      </trkpt>
      <trkpt lat="43.023746" lon="-1.6341909">
        <time>2022-07-03T11:39:36Z</time>
      </trkpt>
      <trkpt lat="43.02365" lon="-1.6342686">
        <time>2022-07-03T11:39:37Z</time>
      </trkpt>
      <trkpt lat="43.02356" lon="-1.6343462">
        <time>2022-07-03T11:39:38Z</time>
      </trkpt>
      <trkpt lat="43.02347" lon="-1.6344179">
        <time>2022-07-03T11:39:39Z</time>
      </trkpt>
      <trkpt lat="43.023388" lon="-1.6344899">
        <time>2022-07-03T11:39:40Z</time>
      </trkpt>
      <trkpt lat="43.023212" lon="-1.6346233">
        <time>2022-07-03T11:39:42Z</time>
      </trkpt>
      <trkpt lat="43.02313" lon="-1.6346762">
        <time>2022-07-03T11:39:43Z</time>
      </trkpt>
      <trkpt lat="43.023045" lon="-1.6347185">
        <time>2022-07-03T11:39:44Z</time>
      </trkpt>
      <trkpt lat="43.022964" lon="-1.6347516">
        <time>2022-07-03T11:39:45Z</time>
      </trkpt>
      <trkpt lat="43.022892" lon="-1.6347783">
        <time>2022-07-03T11:39:46Z</time>
      </trkpt>
      <trkpt lat="43.022827" lon="-1.6347998">
        <time>2022-07-03T11:39:47Z</time>
      </trkpt>
      <trkpt lat="43.02277" lon="-1.6348182">
        <time>2022-07-03T11:39:48Z</time>
      </trkpt>
      <trkpt lat="43.022724" lon="-1.6348336">
        <time>2022-07-03T11:39:49Z</time>
      </trkpt>
      <trkpt lat="43.022686" lon="-1.6348442">
        <time>2022-07-03T11:39:50Z</time>
      </trkpt>
      <trkpt lat="43.022644" lon="-1.6348579">
        <time>2022-07-03T11:39:52Z</time>
      </trkpt>
      <trkpt lat="43.022583" lon="-1.6349136">
        <time>2022-07-03T11:42:27Z</time>
      </trkpt>
      <trkpt lat="43.02253" lon="-1.6349338">
        <time>2022-07-03T11:42:30Z</time>
      </trkpt>
      <trkpt lat="43.022453" lon="-1.6349626">
        <time>2022-07-03T11:42:33Z</time>
      </trkpt>
      <trkpt lat="43.022408" lon="-1.6349822">
        <time>2022-07-03T11:42:35Z</time>
      </trkpt>
      <trkpt lat="43.02236" lon="-1.6350021">
        <time>2022-07-03T11:42:37Z</time>
      </trkpt>
      <trkpt lat="43.022263" lon="-1.6350431">
        <time>2022-07-03T11:42:41Z</time>
      </trkpt>
      <trkpt lat="43.022205" lon="-1.6350585">
        <time>2022-07-03T11:42:43Z</time>
      </trkpt>
      <trkpt lat="43.02215" lon="-1.6350698">
        <time>2022-07-03T11:42:45Z</time>
      </trkpt>
      <trkpt lat="43.022087" lon="-1.6350788">
        <time>2022-07-03T11:42:47Z</time>
      </trkpt>
      <trkpt lat="43.02202" lon="-1.6350862">
        <time>2022-07-03T11:42:49Z</time>
      </trkpt>
      <trkpt lat="43.021946" lon="-1.6350908">
        <time>2022-07-03T11:42:51Z</time>
      </trkpt>
      <trkpt lat="43.021873" lon="-1.6350882">
        <time>2022-07-03T11:42:53Z</time>
      </trkpt>
      <trkpt lat="43.021797" lon="-1.6350815">
        <time>2022-07-03T11:42:55Z</time>
      </trkpt>
      <trkpt lat="43.021725" lon="-1.6350691">
        <time>2022-07-03T11:42:57Z</time>
      </trkpt>
      <trkpt lat="43.02165" lon="-1.6350509">
        <time>2022-07-03T11:42:59Z</time>
      </trkpt>
      <trkpt lat="43.021572" lon="-1.6350238">
        <time>2022-07-03T11:43:01Z</time>
      </trkpt>
      <trkpt lat="43.021492" lon="-1.6349841">
        <time>2022-07-03T11:43:03Z</time>
      </trkpt>
      <trkpt lat="43.02141" lon="-1.6349332">
        <time>2022-07-03T11:43:05Z</time>
      </trkpt>
      <trkpt lat="43.021324" lon="-1.6348742">
        <time>2022-07-03T11:43:07Z</time>
      </trkpt>
      <trkpt lat="43.02123" lon="-1.6348149">
        <time>2022-07-03T11:43:09Z</time>
      </trkpt>
      <trkpt lat="43.02117" lon="-1.6347829">
        <time>2022-07-03T11:43:10Z</time>
      </trkpt>
      <trkpt lat="43.021114" lon="-1.6347572">
        <time>2022-07-03T11:43:11Z</time>
      </trkpt>
      <trkpt lat="43.021057" lon="-1.6347373">
        <time>2022-07-03T11:43:12Z</time>
      </trkpt>
      <trkpt lat="43.020992" lon="-1.6347249">
        <time>2022-07-03T11:43:13Z</time>
      </trkpt>
      <trkpt lat="43.020927" lon="-1.6347195">
        <time>2022-07-03T11:43:14Z</time>
      </trkpt>
      <trkpt lat="43.02086" lon="-1.6347195">
        <time>2022-07-03T11:43:15Z</time>
      </trkpt>
      <trkpt lat="43.020786" lon="-1.6347212">
        <time>2022-07-03T11:43:16Z</time>
      </trkpt>
      <trkpt lat="43.02071" lon="-1.6347232">
        <time>2022-07-03T11:43:17Z</time>
      </trkpt>
      <trkpt lat="43.020634" lon="-1.6347269">
        <time>2022-07-03T11:43:18Z</time>
      </trkpt>
      <trkpt lat="43.020557" lon="-1.6347322">
        <time>2022-07-03T11:43:19Z</time>
      </trkpt>
      <trkpt lat="43.020473" lon="-1.6347382">
        <time>2022-07-03T11:43:20Z</time>
      </trkpt>
      <trkpt lat="43.02039" lon="-1.6347458">
        <time>2022-07-03T11:43:21Z</time>
      </trkpt>
      <trkpt lat="43.020306" lon="-1.6347535">
        <time>2022-07-03T11:43:22Z</time>
      </trkpt>
      <trkpt lat="43.02022" lon="-1.6347631">
        <time>2022-07-03T11:43:23Z</time>
      </trkpt>
      <trkpt lat="43.020134" lon="-1.6347755">
        <time>2022-07-03T11:43:24Z</time>
      </trkpt>
      <trkpt lat="43.020046" lon="-1.6347882">
        <time>2022-07-03T11:43:25Z</time>
      </trkpt>
      <trkpt lat="43.019955" lon="-1.6348021">
        <time>2022-07-03T11:43:26Z</time>
      </trkpt>
      <trkpt lat="43.019863" lon="-1.6348162">
        <time>2022-07-03T11:43:27Z</time>
      </trkpt>
      <trkpt lat="43.019768" lon="-1.6348282">
        <time>2022-07-03T11:43:28Z</time>
      </trkpt>
      <trkpt lat="43.01967" lon="-1.6348395">
        <time>2022-07-03T11:43:29Z</time>
      </trkpt>
      <trkpt lat="43.019573" lon="-1.6348492">
        <time>2022-07-03T11:43:30Z</time>
      </trkpt>
      <trkpt lat="43.019474" lon="-1.6348585">
        <time>2022-07-03T11:43:31Z</time>
      </trkpt>
      <trkpt lat="43.019375" lon="-1.6348685">
        <time>2022-07-03T11:43:32Z</time>
      </trkpt>
      <trkpt lat="43.019276" lon="-1.6348808">
        <time>2022-07-03T11:43:33Z</time>
      </trkpt>
      <trkpt lat="43.019173" lon="-1.6348958">
        <time>2022-07-03T11:43:34Z</time>
      </trkpt>
      <trkpt lat="43.019073" lon="-1.6349121">
        <time>2022-07-03T11:43:35Z</time>
      </trkpt>
      <trkpt lat="43.01897" lon="-1.6349308">
        <time>2022-07-03T11:43:36Z</time>
      </trkpt>
      <trkpt lat="43.018867" lon="-1.6349522">
        <time>2022-07-03T11:43:37Z</time>
      </trkpt>
      <trkpt lat="43.018764" lon="-1.6349741">
        <time>2022-07-03T11:43:38Z</time>
      </trkpt>
      <trkpt lat="43.01866" lon="-1.6349971">
        <time>2022-07-03T11:43:39Z</time>
      </trkpt>
      <trkpt lat="43.01845" lon="-1.6350471">
        <time>2022-07-03T11:43:41Z</time>
      </trkpt>
      <trkpt lat="43.01835" lon="-1.6350734">
        <time>2022-07-03T11:43:42Z</time>
      </trkpt>
      <trkpt lat="43.01824" lon="-1.6351005">
        <time>2022-07-03T11:43:43Z</time>
      </trkpt>
      <trkpt lat="43.018036" lon="-1.6351571">
        <time>2022-07-03T11:43:45Z</time>
      </trkpt>
      <trkpt lat="43.01794" lon="-1.6351842">
        <time>2022-07-03T11:43:46Z</time>
      </trkpt>
      <trkpt lat="43.01783" lon="-1.6352131">
        <time>2022-07-03T11:43:47Z</time>
      </trkpt>
      <trkpt lat="43.017723" lon="-1.6352432">
        <time>2022-07-03T11:43:48Z</time>
      </trkpt>
      <trkpt lat="43.017612" lon="-1.6352742">
        <time>2022-07-03T11:43:49Z</time>
      </trkpt>
      <trkpt lat="43.0175" lon="-1.6353052">
        <time>2022-07-03T11:43:50Z</time>
      </trkpt>
      <trkpt lat="43.017387" lon="-1.6353371">
        <time>2022-07-03T11:43:51Z</time>
      </trkpt>
      <trkpt lat="43.017277" lon="-1.6353694">
        <time>2022-07-03T11:43:52Z</time>
      </trkpt>
      <trkpt lat="43.017166" lon="-1.6354021">
        <time>2022-07-03T11:43:53Z</time>
      </trkpt>
      <trkpt lat="43.01705" lon="-1.6354347">
        <time>2022-07-03T11:43:54Z</time>
      </trkpt>
      <trkpt lat="43.01694" lon="-1.6354668">
        <time>2022-07-03T11:43:55Z</time>
      </trkpt>
      <trkpt lat="43.016827" lon="-1.6354988">
        <time>2022-07-03T11:43:56Z</time>
      </trkpt>
      <trkpt lat="43.016716" lon="-1.6355318">
        <time>2022-07-03T11:43:57Z</time>
      </trkpt>
      <trkpt lat="43.0166" lon="-1.6355641">
        <time>2022-07-03T11:43:58Z</time>
      </trkpt>
      <trkpt lat="43.016487" lon="-1.6355964">
        <time>2022-07-03T11:43:59Z</time>
      </trkpt>
      <trkpt lat="43.016373" lon="-1.6356298">
        <time>2022-07-03T11:44:00Z</time>
      </trkpt>
      <trkpt lat="43.01626" lon="-1.6356634">
        <time>2022-07-03T11:44:01Z</time>
      </trkpt>
      <trkpt lat="43.01614" lon="-1.6356964">
        <time>2022-07-03T11:44:02Z</time>
      </trkpt>
      <trkpt lat="43.016026" lon="-1.6357298">
        <time>2022-07-03T11:44:03Z</time>
      </trkpt>
      <trkpt lat="43.015907" lon="-1.6357625">
        <time>2022-07-03T11:44:04Z</time>
      </trkpt>
      <trkpt lat="43.01579" lon="-1.6357957">
        <time>2022-07-03T11:44:05Z</time>
      </trkpt>
      <trkpt lat="43.01567" lon="-1.6358297">
        <time>2022-07-03T11:44:06Z</time>
      </trkpt>
      <trkpt lat="43.015553" lon="-1.6358634">
        <time>2022-07-03T11:44:07Z</time>
      </trkpt>
      <trkpt lat="43.01543" lon="-1.635897">
        <time>2022-07-03T11:44:08Z</time>
      </trkpt>
      <trkpt lat="43.01532" lon="-1.6359284">
        <time>2022-07-03T11:44:09Z</time>
      </trkpt>
      <trkpt lat="43.0152" lon="-1.6359614">
        <time>2022-07-03T11:44:10Z</time>
      </trkpt>
      <trkpt lat="43.015076" lon="-1.6359967">
        <time>2022-07-03T11:44:11Z</time>
      </trkpt>
      <trkpt lat="43.014957" lon="-1.6360297">
        <time>2022-07-03T11:44:12Z</time>
      </trkpt>
      <trkpt lat="43.01483" lon="-1.6360664">
        <time>2022-07-03T11:44:13Z</time>
      </trkpt>
      <trkpt lat="43.014713" lon="-1.6361008">
        <time>2022-07-03T11:44:14Z</time>
      </trkpt>
      <trkpt lat="43.014595" lon="-1.636135">
        <time>2022-07-03T11:44:15Z</time>
      </trkpt>
      <trkpt lat="43.01447" lon="-1.6361704">
        <time>2022-07-03T11:44:16Z</time>
      </trkpt>
      <trkpt lat="43.014343" lon="-1.6362051">
        <time>2022-07-03T11:44:17Z</time>
      </trkpt>
      <trkpt lat="43.01422" lon="-1.636238">
        <time>2022-07-03T11:44:18Z</time>
      </trkpt>
      <trkpt lat="43.0141" lon="-1.6362714">
        <time>2022-07-03T11:44:19Z</time>
      </trkpt>
      <trkpt lat="43.013977" lon="-1.6363044">
        <time>2022-07-03T11:44:20Z</time>
      </trkpt>
      <trkpt lat="43.013863" lon="-1.6363367">
        <time>2022-07-03T11:44:21Z</time>
      </trkpt>
      <trkpt lat="43.013744" lon="-1.6363703">
        <time>2022-07-03T11:44:22Z</time>
      </trkpt>
      <trkpt lat="43.013622" lon="-1.636405">
        <time>2022-07-03T11:44:23Z</time>
      </trkpt>
      <trkpt lat="43.0135" lon="-1.6364406">
        <time>2022-07-03T11:44:24Z</time>
      </trkpt>
      <trkpt lat="43.01338" lon="-1.6364766">
        <time>2022-07-03T11:44:25Z</time>
      </trkpt>
      <trkpt lat="43.013252" lon="-1.636512">
        <time>2022-07-03T11:44:26Z</time>
      </trkpt>
      <trkpt lat="43.013126" lon="-1.636547">
        <time>2022-07-03T11:44:27Z</time>
      </trkpt>
      <trkpt lat="43.01299" lon="-1.6365833">
        <time>2022-07-03T11:44:28Z</time>
      </trkpt>
      <trkpt lat="43.01285" lon="-1.636617">
        <time>2022-07-03T11:44:29Z</time>
      </trkpt>
      <trkpt lat="43.01273" lon="-1.636646">
        <time>2022-07-03T11:44:30Z</time>
      </trkpt>
      <trkpt lat="43.012604" lon="-1.636674">
        <time>2022-07-03T11:44:31Z</time>
      </trkpt>
      <trkpt lat="43.012466" lon="-1.6366997">
        <time>2022-07-03T11:44:32Z</time>
      </trkpt>
      <trkpt lat="43.012325" lon="-1.6367207">
        <time>2022-07-03T11:44:33Z</time>
      </trkpt>
      <trkpt lat="43.012188" lon="-1.636736">
        <time>2022-07-03T11:44:34Z</time>
      </trkpt>
      <trkpt lat="43.012062" lon="-1.6367463">
        <time>2022-07-03T11:44:35Z</time>
      </trkpt>
      <trkpt lat="43.01193" lon="-1.6367517">
        <time>2022-07-03T11:44:36Z</time>
      </trkpt>
      <trkpt lat="43.011806" lon="-1.636753">
        <time>2022-07-03T11:44:37Z</time>
      </trkpt>
      <trkpt lat="43.011684" lon="-1.6367496">
        <time>2022-07-03T11:44:38Z</time>
      </trkpt>
      <trkpt lat="43.011555" lon="-1.6367396">
        <time>2022-07-03T11:44:39Z</time>
      </trkpt>
      <trkpt lat="43.01144" lon="-1.6367263">
        <time>2022-07-03T11:44:40Z</time>
      </trkpt>
      <trkpt lat="43.011314" lon="-1.6367053">
        <time>2022-07-03T11:44:41Z</time>
      </trkpt>
      <trkpt lat="43.011208" lon="-1.6366853">
        <time>2022-07-03T11:44:42Z</time>
      </trkpt>
      <trkpt lat="43.0111" lon="-1.6366609">
        <time>2022-07-03T11:44:43Z</time>
      </trkpt>
      <trkpt lat="43.010887" lon="-1.636605">
        <time>2022-07-03T11:44:45Z</time>
      </trkpt>
      <trkpt lat="43.010784" lon="-1.6365746">
        <time>2022-07-03T11:44:46Z</time>
      </trkpt>
      <trkpt lat="43.01068" lon="-1.636544">
        <time>2022-07-03T11:44:47Z</time>
      </trkpt>
      <trkpt lat="43.01058" lon="-1.6365117">
        <time>2022-07-03T11:44:48Z</time>
      </trkpt>
      <trkpt lat="43.010483" lon="-1.6364796">
        <time>2022-07-03T11:44:49Z</time>
      </trkpt>
      <trkpt lat="43.010384" lon="-1.6364484">
        <time>2022-07-03T11:44:50Z</time>
      </trkpt>
      <trkpt lat="43.01029" lon="-1.636418">
        <time>2022-07-03T11:44:51Z</time>
      </trkpt>
      <trkpt lat="43.010193" lon="-1.6363883">
        <time>2022-07-03T11:44:52Z</time>
      </trkpt>
      <trkpt lat="43.010098" lon="-1.636359">
        <time>2022-07-03T11:44:53Z</time>
      </trkpt>
      <trkpt lat="43.010002" lon="-1.6363297">
        <time>2022-07-03T11:44:54Z</time>
      </trkpt>
      <trkpt lat="43.00991" lon="-1.6363007">
        <time>2022-07-03T11:44:55Z</time>
      </trkpt>
      <trkpt lat="43.00982" lon="-1.636271">
        <time>2022-07-03T11:44:56Z</time>
      </trkpt>
      <trkpt lat="43.009727" lon="-1.6362427">
        <time>2022-07-03T11:44:57Z</time>
      </trkpt>
      <trkpt lat="43.009636" lon="-1.6362131">
        <time>2022-07-03T11:44:58Z</time>
      </trkpt>
      <trkpt lat="43.009556" lon="-1.636185">
        <time>2022-07-03T11:44:59Z</time>
      </trkpt>
      <trkpt lat="43.009468" lon="-1.6361563">
        <time>2022-07-03T11:45:00Z</time>
      </trkpt>
      <trkpt lat="43.009384" lon="-1.6361284">
        <time>2022-07-03T11:45:01Z</time>
      </trkpt>
      <trkpt lat="43.00929" lon="-1.6361">
        <time>2022-07-03T11:45:02Z</time>
      </trkpt>
      <trkpt lat="43.009197" lon="-1.636073">
        <time>2022-07-03T11:45:03Z</time>
      </trkpt>
      <trkpt lat="43.0091" lon="-1.636046">
        <time>2022-07-03T11:45:04Z</time>
      </trkpt>
      <trkpt lat="43.009007" lon="-1.6360154">
        <time>2022-07-03T11:45:05Z</time>
      </trkpt>
      <trkpt lat="43.008915" lon="-1.6359867">
        <time>2022-07-03T11:45:06Z</time>
      </trkpt>
      <trkpt lat="43.008823" lon="-1.6359574">
        <time>2022-07-03T11:45:07Z</time>
      </trkpt>
      <trkpt lat="43.00873" lon="-1.6359297">
        <time>2022-07-03T11:45:08Z</time>
      </trkpt>
      <trkpt lat="43.008633" lon="-1.6359">
        <time>2022-07-03T11:45:09Z</time>
      </trkpt>
      <trkpt lat="43.00854" lon="-1.6358724">
        <time>2022-07-03T11:45:10Z</time>
      </trkpt>
      <trkpt lat="43.00845" lon="-1.6358434">
        <time>2022-07-03T11:45:11Z</time>
      </trkpt>
      <trkpt lat="43.008358" lon="-1.6358137">
        <time>2022-07-03T11:45:12Z</time>
      </trkpt>
      <trkpt lat="43.008266" lon="-1.6357844">
        <time>2022-07-03T11:45:13Z</time>
      </trkpt>
      <trkpt lat="43.008175" lon="-1.6357558">
        <time>2022-07-03T11:45:14Z</time>
      </trkpt>
      <trkpt lat="43.008083" lon="-1.6357281">
        <time>2022-07-03T11:45:15Z</time>
      </trkpt>
      <trkpt lat="43.007988" lon="-1.6356992">
        <time>2022-07-03T11:45:16Z</time>
      </trkpt>
      <trkpt lat="43.0079" lon="-1.6356711">
        <time>2022-07-03T11:45:17Z</time>
      </trkpt>
      <trkpt lat="43.007812" lon="-1.6356431">
        <time>2022-07-03T11:45:18Z</time>
      </trkpt>
      <trkpt lat="43.007717" lon="-1.6356131">
        <time>2022-07-03T11:45:19Z</time>
      </trkpt>
      <trkpt lat="43.00763" lon="-1.6355854">
        <time>2022-07-03T11:45:20Z</time>
      </trkpt>
      <trkpt lat="43.00754" lon="-1.6355587">
        <time>2022-07-03T11:45:21Z</time>
      </trkpt>
      <trkpt lat="43.00745" lon="-1.6355318">
        <time>2022-07-03T11:45:22Z</time>
      </trkpt>
      <trkpt lat="43.00736" lon="-1.6355051">
        <time>2022-07-03T11:45:23Z</time>
      </trkpt>
      <trkpt lat="43.00727" lon="-1.6354804">
        <time>2022-07-03T11:45:24Z</time>
      </trkpt>
      <trkpt lat="43.00718" lon="-1.6354598">
        <time>2022-07-03T11:45:25Z</time>
      </trkpt>
      <trkpt lat="43.007095" lon="-1.6354448">
        <time>2022-07-03T11:45:26Z</time>
      </trkpt>
      <trkpt lat="43.00701" lon="-1.6354375">
        <time>2022-07-03T11:45:27Z</time>
      </trkpt>
      <trkpt lat="43.006924" lon="-1.6354371">
        <time>2022-07-03T11:45:28Z</time>
      </trkpt>
      <trkpt lat="43.006832" lon="-1.6354429">
        <time>2022-07-03T11:45:29Z</time>
      </trkpt>
      <trkpt lat="43.00674" lon="-1.6354514">
        <time>2022-07-03T11:45:30Z</time>
      </trkpt>
      <trkpt lat="43.006657" lon="-1.6354611">
        <time>2022-07-03T11:45:31Z</time>
      </trkpt>
      <trkpt lat="43.00657" lon="-1.6354737">
        <time>2022-07-03T11:45:32Z</time>
      </trkpt>
      <trkpt lat="43.006477" lon="-1.6354891">
        <time>2022-07-03T11:45:33Z</time>
      </trkpt>
      <trkpt lat="43.00639" lon="-1.6355038">
        <time>2022-07-03T11:45:34Z</time>
      </trkpt>
      <trkpt lat="43.0063" lon="-1.6355188">
        <time>2022-07-03T11:45:35Z</time>
      </trkpt>
      <trkpt lat="43.00621" lon="-1.6355348">
        <time>2022-07-03T11:45:36Z</time>
      </trkpt>
      <trkpt lat="43.006126" lon="-1.6355504">
        <time>2022-07-03T11:45:37Z</time>
      </trkpt>
      <trkpt lat="43.006046" lon="-1.6355671">
        <time>2022-07-03T11:45:38Z</time>
      </trkpt>
      <trkpt lat="43.005955" lon="-1.6355851">
        <time>2022-07-03T11:45:39Z</time>
      </trkpt>
      <trkpt lat="43.00587" lon="-1.6356014">
        <time>2022-07-03T11:45:40Z</time>
      </trkpt>
      <trkpt lat="43.005787" lon="-1.6356164">
        <time>2022-07-03T11:45:41Z</time>
      </trkpt>
      <trkpt lat="43.005703" lon="-1.6356328">
        <time>2022-07-03T11:45:42Z</time>
      </trkpt>
      <trkpt lat="43.005615" lon="-1.6356498">
        <time>2022-07-03T11:45:43Z</time>
      </trkpt>
      <trkpt lat="43.00553" lon="-1.6356658">
        <time>2022-07-03T11:45:44Z</time>
      </trkpt>
      <trkpt lat="43.00544" lon="-1.6356834">
        <time>2022-07-03T11:45:45Z</time>
      </trkpt>
      <trkpt lat="43.005356" lon="-1.6357001">
        <time>2022-07-03T11:45:46Z</time>
      </trkpt>
      <trkpt lat="43.005188" lon="-1.6357331">
        <time>2022-07-03T11:45:48Z</time>
      </trkpt>
      <trkpt lat="43.0051" lon="-1.6357495">
        <time>2022-07-03T11:45:49Z</time>
      </trkpt>
      <trkpt lat="43.005013" lon="-1.6357657">
        <time>2022-07-03T11:45:50Z</time>
      </trkpt>
      <trkpt lat="43.00492" lon="-1.635782">
        <time>2022-07-03T11:45:51Z</time>
      </trkpt>
      <trkpt lat="43.004826" lon="-1.6357987">
        <time>2022-07-03T11:45:52Z</time>
      </trkpt>
      <trkpt lat="43.00473" lon="-1.6358157">
        <time>2022-07-03T11:45:53Z</time>
      </trkpt>
      <trkpt lat="43.004635" lon="-1.6358343">
        <time>2022-07-03T11:45:54Z</time>
      </trkpt>
      <trkpt lat="43.00454" lon="-1.635854">
        <time>2022-07-03T11:45:55Z</time>
      </trkpt>
      <trkpt lat="43.00444" lon="-1.6358737">
        <time>2022-07-03T11:45:56Z</time>
      </trkpt>
      <trkpt lat="43.00434" lon="-1.635892">
        <time>2022-07-03T11:45:57Z</time>
      </trkpt>
      <trkpt lat="43.00424" lon="-1.6359097">
        <time>2022-07-03T11:45:58Z</time>
      </trkpt>
      <trkpt lat="43.00414" lon="-1.635927">
        <time>2022-07-03T11:45:59Z</time>
      </trkpt>
      <trkpt lat="43.004036" lon="-1.6359447">
        <time>2022-07-03T11:46:00Z</time>
      </trkpt>
      <trkpt lat="43.003933" lon="-1.635962">
        <time>2022-07-03T11:46:01Z</time>
      </trkpt>
      <trkpt lat="43.00383" lon="-1.635978">
        <time>2022-07-03T11:46:02Z</time>
      </trkpt>
      <trkpt lat="43.003727" lon="-1.635992">
        <time>2022-07-03T11:46:03Z</time>
      </trkpt>
      <trkpt lat="43.003624" lon="-1.6360043">
        <time>2022-07-03T11:46:04Z</time>
      </trkpt>
      <trkpt lat="43.003525" lon="-1.636014">
        <time>2022-07-03T11:46:05Z</time>
      </trkpt>
      <trkpt lat="43.003418" lon="-1.63602">
        <time>2022-07-03T11:46:06Z</time>
      </trkpt>
      <trkpt lat="43.00332" lon="-1.636023">
        <time>2022-07-03T11:46:07Z</time>
      </trkpt>
      <trkpt lat="43.003227" lon="-1.636024">
        <time>2022-07-03T11:46:08Z</time>
      </trkpt>
      <trkpt lat="43.003136" lon="-1.6360214">
        <time>2022-07-03T11:46:09Z</time>
      </trkpt>
      <trkpt lat="43.003044" lon="-1.6360157">
        <time>2022-07-03T11:46:10Z</time>
      </trkpt>
      <trkpt lat="43.002956" lon="-1.6360071">
        <time>2022-07-03T11:46:11Z</time>
      </trkpt>
      <trkpt lat="43.002872" lon="-1.6359974">
        <time>2022-07-03T11:46:12Z</time>
      </trkpt>
      <trkpt lat="43.002785" lon="-1.6359863">
        <time>2022-07-03T11:46:13Z</time>
      </trkpt>
      <trkpt lat="43.0027" lon="-1.6359746">
        <time>2022-07-03T11:46:14Z</time>
      </trkpt>
      <trkpt lat="43.00262" lon="-1.6359627">
        <time>2022-07-03T11:46:15Z</time>
      </trkpt>
      <trkpt lat="43.002544" lon="-1.6359507">
        <time>2022-07-03T11:46:16Z</time>
      </trkpt>
      <trkpt lat="43.00247" lon="-1.635938">
        <time>2022-07-03T11:46:17Z</time>
      </trkpt>
      <trkpt lat="43.002396" lon="-1.635926">
        <time>2022-07-03T11:46:18Z</time>
      </trkpt>
      <trkpt lat="43.002323" lon="-1.6359143">
        <time>2022-07-03T11:46:19Z</time>
      </trkpt>
      <trkpt lat="43.00226" lon="-1.6359028">
        <time>2022-07-03T11:46:20Z</time>
      </trkpt>
      <trkpt lat="43.00219" lon="-1.6358914">
        <time>2022-07-03T11:46:21Z</time>
      </trkpt>
      <trkpt lat="43.002132" lon="-1.6358804">
        <time>2022-07-03T11:46:22Z</time>
      </trkpt>
      <trkpt lat="43.00208" lon="-1.6358701">
        <time>2022-07-03T11:46:23Z</time>
      </trkpt>
      <trkpt lat="43.002026" lon="-1.6358604">
        <time>2022-07-03T11:46:24Z</time>
      </trkpt>
      <trkpt lat="43.001976" lon="-1.6358508">
        <time>2022-07-03T11:46:25Z</time>
      </trkpt>
      <trkpt lat="43.001892" lon="-1.6358337">
        <time>2022-07-03T11:46:27Z</time>
      </trkpt>
      <trkpt lat="43.001816" lon="-1.63582">
        <time>2022-07-03T11:46:29Z</time>
      </trkpt>
      <trkpt lat="43.001755" lon="-1.635807">
        <time>2022-07-03T11:46:31Z</time>
      </trkpt>
      <trkpt lat="43.001698" lon="-1.635797">
        <time>2022-07-03T11:46:33Z</time>
      </trkpt>
      <trkpt lat="43.001633" lon="-1.6357857">
        <time>2022-07-03T11:46:36Z</time>
      </trkpt>
      <trkpt lat="43.00157" lon="-1.6357714">
        <time>2022-07-03T11:46:39Z</time>
      </trkpt>
      <trkpt lat="43.00151" lon="-1.6357554">
        <time>2022-07-03T11:46:42Z</time>
      </trkpt>
      <trkpt lat="43.001453" lon="-1.6357384">
        <time>2022-07-03T11:46:45Z</time>
      </trkpt>
      <trkpt lat="43.001396" lon="-1.6357261">
        <time>2022-07-03T11:46:48Z</time>
      </trkpt>
      <trkpt lat="43.001316" lon="-1.6357038">
        <time>2022-07-03T11:46:52Z</time>
      </trkpt>
      <trkpt lat="43.00125" lon="-1.6356838">
        <time>2022-07-03T11:46:55Z</time>
      </trkpt>
      <trkpt lat="43.001194" lon="-1.6356658">
        <time>2022-07-03T11:46:58Z</time>
      </trkpt>
      <trkpt lat="43.001125" lon="-1.6356441">
        <time>2022-07-03T11:47:01Z</time>
      </trkpt>
      <trkpt lat="43.001057" lon="-1.6356198">
        <time>2022-07-03T11:47:04Z</time>
      </trkpt>
      <trkpt lat="43.00099" lon="-1.6355968">
        <time>2022-07-03T11:47:07Z</time>
      </trkpt>
      <trkpt lat="43.00093" lon="-1.6355698">
        <time>2022-07-03T11:47:10Z</time>
      </trkpt>
      <trkpt lat="43.000874" lon="-1.6355414">
        <time>2022-07-03T11:47:13Z</time>
      </trkpt>
      <trkpt lat="43.000813" lon="-1.6355084">
        <time>2022-07-03T11:47:16Z</time>
      </trkpt>
      <trkpt lat="43.00075" lon="-1.6354798">
        <time>2022-07-03T11:47:19Z</time>
      </trkpt>
      <trkpt lat="43.00069" lon="-1.6354438">
        <time>2022-07-03T11:47:22Z</time>
      </trkpt>
      <trkpt lat="43.000633" lon="-1.6354145">
        <time>2022-07-03T11:47:25Z</time>
      </trkpt>
      <trkpt lat="43.000576" lon="-1.6353902">
        <time>2022-07-03T11:47:28Z</time>
      </trkpt>
      <trkpt lat="43.000523" lon="-1.6353672">
        <time>2022-07-03T11:47:31Z</time>
      </trkpt>
      <trkpt lat="43.000465" lon="-1.6353401">
        <time>2022-07-03T11:47:34Z</time>
      </trkpt>
      <trkpt lat="43.000404" lon="-1.6353137">
        <time>2022-07-03T11:47:37Z</time>
      </trkpt>
      <trkpt lat="43.00035" lon="-1.6352922">
        <time>2022-07-03T11:47:40Z</time>
      </trkpt>
      <trkpt lat="43.00029" lon="-1.6352701">
        <time>2022-07-03T11:47:43Z</time>
      </trkpt>
      <trkpt lat="43.000233" lon="-1.6352417">
        <time>2022-07-03T11:47:46Z</time>
      </trkpt>
      <trkpt lat="43.000164" lon="-1.6352057">
        <time>2022-07-03T11:47:49Z</time>
      </trkpt>
      <trkpt lat="43.00011" lon="-1.6351771">
        <time>2022-07-03T11:47:51Z</time>
      </trkpt>
      <trkpt lat="43.00002" lon="-1.6351315">
        <time>2022-07-03T11:47:54Z</time>
      </trkpt>
      <trkpt lat="42.99995" lon="-1.6350968">
        <time>2022-07-03T11:47:56Z</time>
      </trkpt>
      <trkpt lat="42.999874" lon="-1.6350588">
        <time>2022-07-03T11:47:58Z</time>
      </trkpt>
      <trkpt lat="42.999794" lon="-1.6350218">
        <time>2022-07-03T11:48:00Z</time>
      </trkpt>
      <trkpt lat="42.999672" lon="-1.6349605">
        <time>2022-07-03T11:48:03Z</time>
      </trkpt>
      <trkpt lat="42.999615" lon="-1.6349301">
        <time>2022-07-03T11:48:04Z</time>
      </trkpt>
      <trkpt lat="42.999557" lon="-1.6349002">
        <time>2022-07-03T11:48:05Z</time>
      </trkpt>
      <trkpt lat="42.999496" lon="-1.6348698">
        <time>2022-07-03T11:48:06Z</time>
      </trkpt>
      <trkpt lat="42.999443" lon="-1.6348418">
        <time>2022-07-03T11:48:07Z</time>
      </trkpt>
      <trkpt lat="42.99938" lon="-1.6348108">
        <time>2022-07-03T11:48:08Z</time>
      </trkpt>
      <trkpt lat="42.999313" lon="-1.6347798">
        <time>2022-07-03T11:48:09Z</time>
      </trkpt>
      <trkpt lat="42.99925" lon="-1.6347501">
        <time>2022-07-03T11:48:10Z</time>
      </trkpt>
      <trkpt lat="42.99918" lon="-1.6347162">
        <time>2022-07-03T11:48:11Z</time>
      </trkpt>
      <trkpt lat="42.999104" lon="-1.6346815">
        <time>2022-07-03T11:48:12Z</time>
      </trkpt>
      <trkpt lat="42.99903" lon="-1.6346465">
        <time>2022-07-03T11:48:13Z</time>
      </trkpt>
      <trkpt lat="42.99895" lon="-1.6346109">
        <time>2022-07-03T11:48:14Z</time>
      </trkpt>
      <trkpt lat="42.99887" lon="-1.6345742">
        <time>2022-07-03T11:48:15Z</time>
      </trkpt>
      <trkpt lat="42.998795" lon="-1.6345392">
        <time>2022-07-03T11:48:16Z</time>
      </trkpt>
      <trkpt lat="42.99872" lon="-1.6345029">
        <time>2022-07-03T11:48:17Z</time>
      </trkpt>
      <trkpt lat="42.99863" lon="-1.6344632">
        <time>2022-07-03T11:48:18Z</time>
      </trkpt>
      <trkpt lat="42.99854" lon="-1.6344242">
        <time>2022-07-03T11:48:19Z</time>
      </trkpt>
      <trkpt lat="42.99845" lon="-1.6343849">
        <time>2022-07-03T11:48:20Z</time>
      </trkpt>
      <trkpt lat="42.998363" lon="-1.6343448">
        <time>2022-07-03T11:48:21Z</time>
      </trkpt>
      <trkpt lat="42.998276" lon="-1.6343069">
        <time>2022-07-03T11:48:22Z</time>
      </trkpt>
      <trkpt lat="42.99819" lon="-1.6342655">
        <time>2022-07-03T11:48:23Z</time>
      </trkpt>
      <trkpt lat="42.998096" lon="-1.6342199">
        <time>2022-07-03T11:48:24Z</time>
      </trkpt>
      <trkpt lat="42.998013" lon="-1.6341776">
        <time>2022-07-03T11:48:25Z</time>
      </trkpt>
      <trkpt lat="42.99792" lon="-1.6341345">
        <time>2022-07-03T11:48:26Z</time>
      </trkpt>
      <trkpt lat="42.99783" lon="-1.6340896">
        <time>2022-07-03T11:48:27Z</time>
      </trkpt>
      <trkpt lat="42.99773" lon="-1.6340419">
        <time>2022-07-03T11:48:28Z</time>
      </trkpt>
      <trkpt lat="42.99763" lon="-1.6339952">
        <time>2022-07-03T11:48:29Z</time>
      </trkpt>
      <trkpt lat="42.99754" lon="-1.6339519">
        <time>2022-07-03T11:48:30Z</time>
      </trkpt>
      <trkpt lat="42.997444" lon="-1.6339062">
        <time>2022-07-03T11:48:31Z</time>
      </trkpt>
      <trkpt lat="42.99735" lon="-1.6338593">
        <time>2022-07-03T11:48:32Z</time>
      </trkpt>
      <trkpt lat="42.997242" lon="-1.6338086">
        <time>2022-07-03T11:48:33Z</time>
      </trkpt>
      <trkpt lat="42.99714" lon="-1.6337572">
        <time>2022-07-03T11:48:34Z</time>
      </trkpt>
      <trkpt lat="42.997044" lon="-1.633709">
        <time>2022-07-03T11:48:35Z</time>
      </trkpt>
      <trkpt lat="42.99695" lon="-1.6336589">
        <time>2022-07-03T11:48:36Z</time>
      </trkpt>
      <trkpt lat="42.99685" lon="-1.6336076">
        <time>2022-07-03T11:48:37Z</time>
      </trkpt>
      <trkpt lat="42.996746" lon="-1.6335526">
        <time>2022-07-03T11:48:38Z</time>
      </trkpt>
      <trkpt lat="42.996643" lon="-1.6334985">
        <time>2022-07-03T11:48:39Z</time>
      </trkpt>
      <trkpt lat="42.996548" lon="-1.6334503">
        <time>2022-07-03T11:48:40Z</time>
      </trkpt>
      <trkpt lat="42.99645" lon="-1.6334006">
        <time>2022-07-03T11:48:41Z</time>
      </trkpt>
      <trkpt lat="42.996353" lon="-1.6333506">
        <time>2022-07-03T11:48:42Z</time>
      </trkpt>
      <trkpt lat="42.996254" lon="-1.6333009">
        <time>2022-07-03T11:48:43Z</time>
      </trkpt>
      <trkpt lat="42.99615" lon="-1.633248">
        <time>2022-07-03T11:48:44Z</time>
      </trkpt>
      <trkpt lat="42.99605" lon="-1.6331993">
        <time>2022-07-03T11:48:45Z</time>
      </trkpt>
      <trkpt lat="42.995956" lon="-1.633152">
        <time>2022-07-03T11:48:46Z</time>
      </trkpt>
      <trkpt lat="42.99586" lon="-1.6331036">
        <time>2022-07-03T11:48:47Z</time>
      </trkpt>
      <trkpt lat="42.995766" lon="-1.633057">
        <time>2022-07-03T11:48:48Z</time>
      </trkpt>
      <trkpt lat="42.995667" lon="-1.6330086">
        <time>2022-07-03T11:48:49Z</time>
      </trkpt>
      <trkpt lat="42.995575" lon="-1.632965">
        <time>2022-07-03T11:48:50Z</time>
      </trkpt>
      <trkpt lat="42.995483" lon="-1.6329234">
        <time>2022-07-03T11:48:51Z</time>
      </trkpt>
      <trkpt lat="42.9954" lon="-1.6328843">
        <time>2022-07-03T11:48:52Z</time>
      </trkpt>
      <trkpt lat="42.99531" lon="-1.6328473">
        <time>2022-07-03T11:48:53Z</time>
      </trkpt>
      <trkpt lat="42.99523" lon="-1.6328123">
        <time>2022-07-03T11:48:54Z</time>
      </trkpt>
      <trkpt lat="42.995163" lon="-1.632782">
        <time>2022-07-03T11:48:55Z</time>
      </trkpt>
      <trkpt lat="42.995094" lon="-1.632751">
        <time>2022-07-03T11:48:56Z</time>
      </trkpt>
      <trkpt lat="42.995033" lon="-1.6327233">
        <time>2022-07-03T11:48:57Z</time>
      </trkpt>
      <trkpt lat="42.994976" lon="-1.6326946">
        <time>2022-07-03T11:48:58Z</time>
      </trkpt>
      <trkpt lat="42.99492" lon="-1.6326667">
        <time>2022-07-03T11:48:59Z</time>
      </trkpt>
      <trkpt lat="42.99487" lon="-1.632642">
        <time>2022-07-03T11:49:00Z</time>
      </trkpt>
      <trkpt lat="42.994766" lon="-1.6325923">
        <time>2022-07-03T11:49:02Z</time>
      </trkpt>
      <trkpt lat="42.994713" lon="-1.632569">
        <time>2022-07-03T11:49:03Z</time>
      </trkpt>
      <trkpt lat="42.994667" lon="-1.632548">
        <time>2022-07-03T11:49:04Z</time>
      </trkpt>
      <trkpt lat="42.99458" lon="-1.6325086">
        <time>2022-07-03T11:49:06Z</time>
      </trkpt>
      <trkpt lat="42.9945" lon="-1.632472">
        <time>2022-07-03T11:49:08Z</time>
      </trkpt>
      <trkpt lat="42.994423" lon="-1.6324377">
        <time>2022-07-03T11:49:10Z</time>
      </trkpt>
      <trkpt lat="42.99435" lon="-1.6324064">
        <time>2022-07-03T11:49:12Z</time>
      </trkpt>
      <trkpt lat="42.99428" lon="-1.6323746">
        <time>2022-07-03T11:49:14Z</time>
      </trkpt>
      <trkpt lat="42.994217" lon="-1.6323427">
        <time>2022-07-03T11:49:16Z</time>
      </trkpt>
      <trkpt lat="42.994156" lon="-1.6323117">
        <time>2022-07-03T11:49:18Z</time>
      </trkpt>
      <trkpt lat="42.994095" lon="-1.6322798">
        <time>2022-07-03T11:49:20Z</time>
      </trkpt>
      <trkpt lat="42.99403" lon="-1.6322473">
        <time>2022-07-03T11:49:22Z</time>
      </trkpt>
      <trkpt lat="42.993965" lon="-1.6322137">
        <time>2022-07-03T11:49:24Z</time>
      </trkpt>
      <trkpt lat="42.993908" lon="-1.6321794">
        <time>2022-07-03T11:49:26Z</time>
      </trkpt>
      <trkpt lat="42.993847" lon="-1.6321477">
        <time>2022-07-03T11:49:28Z</time>
      </trkpt>
      <trkpt lat="42.993793" lon="-1.6321204">
        <time>2022-07-03T11:49:30Z</time>
      </trkpt>
      <trkpt lat="42.99374" lon="-1.6320957">
        <time>2022-07-03T11:49:32Z</time>
      </trkpt>
      <trkpt lat="42.99369" lon="-1.6320734">
        <time>2022-07-03T11:49:34Z</time>
      </trkpt>
      <trkpt lat="42.99364" lon="-1.6320511">
        <time>2022-07-03T11:49:36Z</time>
      </trkpt>
      <trkpt lat="42.993565" lon="-1.632019">
        <time>2022-07-03T11:49:39Z</time>
      </trkpt>
      <trkpt lat="42.99352" lon="-1.6319988">
        <time>2022-07-03T11:49:41Z</time>
      </trkpt>
      <trkpt lat="42.993446" lon="-1.6319697">
        <time>2022-07-03T11:49:44Z</time>
      </trkpt>
      <trkpt lat="42.99338" lon="-1.6319424">
        <time>2022-07-03T11:49:47Z</time>
      </trkpt>
      <trkpt lat="42.993317" lon="-1.6319144">
        <time>2022-07-03T11:49:50Z</time>
      </trkpt>
      <trkpt lat="42.99326" lon="-1.6318861">
        <time>2022-07-03T11:49:53Z</time>
      </trkpt>
      <trkpt lat="42.9932" lon="-1.6318551">
        <time>2022-07-03T11:49:56Z</time>
      </trkpt>
      <trkpt lat="42.99314" lon="-1.6318268">
        <time>2022-07-03T11:49:59Z</time>
      </trkpt>
      <trkpt lat="42.993084" lon="-1.6317981">
        <time>2022-07-03T11:50:02Z</time>
      </trkpt>
      <trkpt lat="42.993023" lon="-1.6317674">
        <time>2022-07-03T11:50:05Z</time>
      </trkpt>
      <trkpt lat="42.992966" lon="-1.6317421">
        <time>2022-07-03T11:50:08Z</time>
      </trkpt>
      <trkpt lat="42.992912" lon="-1.6317165">
        <time>2022-07-03T11:50:11Z</time>
      </trkpt>
      <trkpt lat="42.99286" lon="-1.6316885">
        <time>2022-07-03T11:50:14Z</time>
      </trkpt>
      <trkpt lat="42.992805" lon="-1.6316578">
        <time>2022-07-03T11:50:17Z</time>
      </trkpt>
      <trkpt lat="42.992752" lon="-1.6316298">
        <time>2022-07-03T11:50:20Z</time>
      </trkpt>
      <trkpt lat="42.992695" lon="-1.6316011">
        <time>2022-07-03T11:50:23Z</time>
      </trkpt>
      <trkpt lat="42.99264" lon="-1.6315738">
        <time>2022-07-03T11:50:26Z</time>
      </trkpt>
      <trkpt lat="42.992584" lon="-1.6315495">
        <time>2022-07-03T11:50:29Z</time>
      </trkpt>
      <trkpt lat="42.992523" lon="-1.6315205">
        <time>2022-07-03T11:50:32Z</time>
      </trkpt>
      <trkpt lat="42.992466" lon="-1.6314898">
        <time>2022-07-03T11:50:35Z</time>
      </trkpt>
      <trkpt lat="42.992405" lon="-1.6314721">
        <time>2022-07-03T11:50:38Z</time>
      </trkpt>
      <trkpt lat="42.992344" lon="-1.6314465">
        <time>2022-07-03T11:50:41Z</time>
      </trkpt>
      <trkpt lat="42.99228" lon="-1.6314181">
        <time>2022-07-03T11:50:44Z</time>
      </trkpt>
      <trkpt lat="42.99222" lon="-1.6313955">
        <time>2022-07-03T11:50:47Z</time>
      </trkpt>
      <trkpt lat="42.99216" lon="-1.6313739">
        <time>2022-07-03T11:50:50Z</time>
      </trkpt>
      <trkpt lat="42.9921" lon="-1.6313518">
        <time>2022-07-03T11:50:53Z</time>
      </trkpt>
      <trkpt lat="42.992035" lon="-1.6313329">
        <time>2022-07-03T11:50:56Z</time>
      </trkpt>
      <trkpt lat="42.991974" lon="-1.6313184">
        <time>2022-07-03T11:50:59Z</time>
      </trkpt>
      <trkpt lat="42.99191" lon="-1.6313088">
        <time>2022-07-03T11:51:02Z</time>
      </trkpt>
      <trkpt lat="42.991848" lon="-1.6312988">
        <time>2022-07-03T11:51:05Z</time>
      </trkpt>
      <trkpt lat="42.99179" lon="-1.6312889">
        <time>2022-07-03T11:51:08Z</time>
      </trkpt>
      <trkpt lat="42.99173" lon="-1.6312776">
        <time>2022-07-03T11:51:11Z</time>
      </trkpt>
      <trkpt lat="42.991665" lon="-1.6312668">
        <time>2022-07-03T11:51:14Z</time>
      </trkpt>
      <trkpt lat="42.991604" lon="-1.6312609">
        <time>2022-07-03T11:51:17Z</time>
      </trkpt>
      <trkpt lat="42.991535" lon="-1.6312559">
        <time>2022-07-03T11:51:20Z</time>
      </trkpt>
      <trkpt lat="42.991467" lon="-1.6312495">
        <time>2022-07-03T11:51:23Z</time>
      </trkpt>
      <trkpt lat="42.991405" lon="-1.6312442">
        <time>2022-07-03T11:51:26Z</time>
      </trkpt>
      <trkpt lat="42.991344" lon="-1.6312466">
        <time>2022-07-03T11:51:29Z</time>
      </trkpt>
      <trkpt lat="42.991283" lon="-1.6312501">
        <time>2022-07-03T11:51:32Z</time>
      </trkpt>
      <trkpt lat="42.991222" lon="-1.6312505">
        <time>2022-07-03T11:51:35Z</time>
      </trkpt>
      <trkpt lat="42.991158" lon="-1.6312546">
        <time>2022-07-03T11:51:38Z</time>
      </trkpt>
      <trkpt lat="42.9911" lon="-1.6312585">
        <time>2022-07-03T11:51:41Z</time>
      </trkpt>
      <trkpt lat="42.99104" lon="-1.6312642">
        <time>2022-07-03T11:51:44Z</time>
      </trkpt>
      <trkpt lat="42.990974" lon="-1.6312745">
        <time>2022-07-03T11:51:47Z</time>
      </trkpt>
      <trkpt lat="42.99091" lon="-1.6312824">
        <time>2022-07-03T11:51:50Z</time>
      </trkpt>
      <trkpt lat="42.99085" lon="-1.6312938">
        <time>2022-07-03T11:51:53Z</time>
      </trkpt>
      <trkpt lat="42.99079" lon="-1.6313041">
        <time>2022-07-03T11:51:56Z</time>
      </trkpt>
      <trkpt lat="42.99072" lon="-1.6313121">
        <time>2022-07-03T11:51:59Z</time>
      </trkpt>
      <trkpt lat="42.990643" lon="-1.6313218">
        <time>2022-07-03T11:52:02Z</time>
      </trkpt>
      <trkpt lat="42.99059" lon="-1.6313275">
        <time>2022-07-03T11:52:04Z</time>
      </trkpt>
      <trkpt lat="42.990532" lon="-1.6313335">
        <time>2022-07-03T11:52:06Z</time>
      </trkpt>
      <trkpt lat="42.99048" lon="-1.6313394">
        <time>2022-07-03T11:52:08Z</time>
      </trkpt>
      <trkpt lat="42.990425" lon="-1.6313459">
        <time>2022-07-03T11:52:10Z</time>
      </trkpt>
      <trkpt lat="42.99037" lon="-1.6313531">
        <time>2022-07-03T11:52:12Z</time>
      </trkpt>
      <trkpt lat="42.990314" lon="-1.6313591">
        <time>2022-07-03T11:52:14Z</time>
      </trkpt>
      <trkpt lat="42.99026" lon="-1.6313652">
        <time>2022-07-03T11:52:16Z</time>
      </trkpt>
      <trkpt lat="42.990204" lon="-1.6313748">
        <time>2022-07-03T11:52:18Z</time>
      </trkpt>
      <trkpt lat="42.990147" lon="-1.6313854">
        <time>2022-07-03T11:52:20Z</time>
      </trkpt>
      <trkpt lat="42.990097" lon="-1.6313938">
        <time>2022-07-03T11:52:22Z</time>
      </trkpt>
      <trkpt lat="42.99002" lon="-1.6314044">
        <time>2022-07-03T11:52:25Z</time>
      </trkpt>
      <trkpt lat="42.989975" lon="-1.6314111">
        <time>2022-07-03T11:52:27Z</time>
      </trkpt>
      <trkpt lat="42.989906" lon="-1.6314287">
        <time>2022-07-03T11:52:30Z</time>
      </trkpt>
      <trkpt lat="42.98986" lon="-1.6314415">
        <time>2022-07-03T11:52:32Z</time>
      </trkpt>
      <trkpt lat="42.989788" lon="-1.6314625">
        <time>2022-07-03T11:52:35Z</time>
      </trkpt>
      <trkpt lat="42.98972" lon="-1.631484">
        <time>2022-07-03T11:52:38Z</time>
      </trkpt>
      <trkpt lat="42.989647" lon="-1.6315081">
        <time>2022-07-03T11:52:41Z</time>
      </trkpt>
      <trkpt lat="42.98958" lon="-1.6315341">
        <time>2022-07-03T11:52:44Z</time>
      </trkpt>
      <trkpt lat="42.989506" lon="-1.6315664">
        <time>2022-07-03T11:52:47Z</time>
      </trkpt>
      <trkpt lat="42.989437" lon="-1.6316007">
        <time>2022-07-03T11:52:50Z</time>
      </trkpt>
      <trkpt lat="42.98939" lon="-1.6316211">
        <time>2022-07-03T11:52:52Z</time>
      </trkpt>
      <trkpt lat="42.98932" lon="-1.6316555">
        <time>2022-07-03T11:52:55Z</time>
      </trkpt>
      <trkpt lat="42.989254" lon="-1.6316941">
        <time>2022-07-03T11:52:58Z</time>
      </trkpt>
      <trkpt lat="42.989185" lon="-1.6317294">
        <time>2022-07-03T11:53:01Z</time>
      </trkpt>
      <trkpt lat="42.989124" lon="-1.6317667">
        <time>2022-07-03T11:53:04Z</time>
      </trkpt>
      <trkpt lat="42.989063" lon="-1.6318047">
        <time>2022-07-03T11:53:07Z</time>
      </trkpt>
      <trkpt lat="42.989002" lon="-1.631842">
        <time>2022-07-03T11:53:10Z</time>
      </trkpt>
      <trkpt lat="42.988945" lon="-1.6318758">
        <time>2022-07-03T11:53:13Z</time>
      </trkpt>
      <trkpt lat="42.98889" lon="-1.631908">
        <time>2022-07-03T11:53:16Z</time>
      </trkpt>
      <trkpt lat="42.988823" lon="-1.6319491">
        <time>2022-07-03T11:53:20Z</time>
      </trkpt>
      <trkpt lat="42.98877" lon="-1.6319827">
        <time>2022-07-03T11:53:23Z</time>
      </trkpt>
      <trkpt lat="42.988716" lon="-1.6320183">
        <time>2022-07-03T11:53:26Z</time>
      </trkpt>
      <trkpt lat="42.988663" lon="-1.632053">
        <time>2022-07-03T11:53:29Z</time>
      </trkpt>
      <trkpt lat="42.988605" lon="-1.6320847">
        <time>2022-07-03T11:53:32Z</time>
      </trkpt>
      <trkpt lat="42.988544" lon="-1.6321167">
        <time>2022-07-03T11:53:35Z</time>
      </trkpt>
      <trkpt lat="42.988487" lon="-1.6321437">
        <time>2022-07-03T11:53:38Z</time>
      </trkpt>
      <trkpt lat="42.98843" lon="-1.6321764">
        <time>2022-07-03T11:53:41Z</time>
      </trkpt>
      <trkpt lat="42.98837" lon="-1.632205">
        <time>2022-07-03T11:53:44Z</time>
      </trkpt>
      <trkpt lat="42.9883" lon="-1.6322367">
        <time>2022-07-03T11:53:47Z</time>
      </trkpt>
      <trkpt lat="42.98823" lon="-1.6322696">
        <time>2022-07-03T11:53:50Z</time>
      </trkpt>
      <trkpt lat="42.988182" lon="-1.632293">
        <time>2022-07-03T11:53:52Z</time>
      </trkpt>
      <trkpt lat="42.988132" lon="-1.6323167">
        <time>2022-07-03T11:53:54Z</time>
      </trkpt>
      <trkpt lat="42.988075" lon="-1.6323383">
        <time>2022-07-03T11:53:56Z</time>
      </trkpt>
      <trkpt lat="42.988018" lon="-1.632358">
        <time>2022-07-03T11:53:58Z</time>
      </trkpt>
      <trkpt lat="42.987953" lon="-1.632377">
        <time>2022-07-03T11:54:00Z</time>
      </trkpt>
      <trkpt lat="42.987885" lon="-1.6323934">
        <time>2022-07-03T11:54:02Z</time>
      </trkpt>
      <trkpt lat="42.98781" lon="-1.6324106">
        <time>2022-07-03T11:54:04Z</time>
      </trkpt>
      <trkpt lat="42.987732" lon="-1.6324286">
        <time>2022-07-03T11:54:06Z</time>
      </trkpt>
      <trkpt lat="42.987644" lon="-1.632444">
        <time>2022-07-03T11:54:08Z</time>
      </trkpt>
      <trkpt lat="42.987556" lon="-1.63246">
        <time>2022-07-03T11:54:10Z</time>
      </trkpt>
      <trkpt lat="42.98746" lon="-1.632474">
        <time>2022-07-03T11:54:12Z</time>
      </trkpt>
      <trkpt lat="42.98741" lon="-1.632479">
        <time>2022-07-03T11:54:13Z</time>
      </trkpt>
      <trkpt lat="42.987297" lon="-1.6324843">
        <time>2022-07-03T11:54:15Z</time>
      </trkpt>
      <trkpt lat="42.98724" lon="-1.6324832">
        <time>2022-07-03T11:54:16Z</time>
      </trkpt>
      <trkpt lat="42.987175" lon="-1.6324813">
        <time>2022-07-03T11:54:17Z</time>
      </trkpt>
      <trkpt lat="42.987106" lon="-1.6324776">
        <time>2022-07-03T11:54:18Z</time>
      </trkpt>
      <trkpt lat="42.987038" lon="-1.6324706">
        <time>2022-07-03T11:54:19Z</time>
      </trkpt>
      <trkpt lat="42.98696" lon="-1.632461">
        <time>2022-07-03T11:54:20Z</time>
      </trkpt>
      <trkpt lat="42.986885" lon="-1.6324496">
        <time>2022-07-03T11:54:21Z</time>
      </trkpt>
      <trkpt lat="42.986805" lon="-1.6324363">
        <time>2022-07-03T11:54:22Z</time>
      </trkpt>
      <trkpt lat="42.98672" lon="-1.632421">
        <time>2022-07-03T11:54:23Z</time>
      </trkpt>
      <trkpt lat="42.986637" lon="-1.632402">
        <time>2022-07-03T11:54:24Z</time>
      </trkpt>
      <trkpt lat="42.986458" lon="-1.6323516">
        <time>2022-07-03T11:54:26Z</time>
      </trkpt>
      <trkpt lat="42.986366" lon="-1.6323214">
        <time>2022-07-03T11:54:27Z</time>
      </trkpt>
      <trkpt lat="42.98627" lon="-1.632288">
        <time>2022-07-03T11:54:28Z</time>
      </trkpt>
      <trkpt lat="42.98618" lon="-1.6322497">
        <time>2022-07-03T11:54:29Z</time>
      </trkpt>
      <trkpt lat="42.986084" lon="-1.632208">
        <time>2022-07-03T11:54:30Z</time>
      </trkpt>
      <trkpt lat="42.98599" lon="-1.6321644">
        <time>2022-07-03T11:54:31Z</time>
      </trkpt>
      <trkpt lat="42.98589" lon="-1.632119">
        <time>2022-07-03T11:54:32Z</time>
      </trkpt>
      <trkpt lat="42.98579" lon="-1.6320707">
        <time>2022-07-03T11:54:33Z</time>
      </trkpt>
      <trkpt lat="42.98569" lon="-1.6320233">
        <time>2022-07-03T11:54:34Z</time>
      </trkpt>
      <trkpt lat="42.985588" lon="-1.6319784">
        <time>2022-07-03T11:54:35Z</time>
      </trkpt>
      <trkpt lat="42.985485" lon="-1.6319324">
        <time>2022-07-03T11:54:36Z</time>
      </trkpt>
      <trkpt lat="42.985386" lon="-1.631886">
        <time>2022-07-03T11:54:37Z</time>
      </trkpt>
      <trkpt lat="42.98528" lon="-1.631839">
        <time>2022-07-03T11:54:38Z</time>
      </trkpt>
      <trkpt lat="42.985176" lon="-1.63179">
        <time>2022-07-03T11:54:39Z</time>
      </trkpt>
      <trkpt lat="42.98507" lon="-1.63174">
        <time>2022-07-03T11:54:40Z</time>
      </trkpt>
      <trkpt lat="42.984966" lon="-1.6316887">
        <time>2022-07-03T11:54:41Z</time>
      </trkpt>
      <trkpt lat="42.98486" lon="-1.6316371">
        <time>2022-07-03T11:54:42Z</time>
      </trkpt>
      <trkpt lat="42.984753" lon="-1.6315861">
        <time>2022-07-03T11:54:43Z</time>
      </trkpt>
      <trkpt lat="42.984646" lon="-1.631535">
        <time>2022-07-03T11:54:44Z</time>
      </trkpt>
      <trkpt lat="42.98454" lon="-1.6314831">
        <time>2022-07-03T11:54:45Z</time>
      </trkpt>
      <trkpt lat="42.984432" lon="-1.631431">
        <time>2022-07-03T11:54:46Z</time>
      </trkpt>
      <trkpt lat="42.984325" lon="-1.6313797">
        <time>2022-07-03T11:54:47Z</time>
      </trkpt>
      <trkpt lat="42.984215" lon="-1.6313287">
        <time>2022-07-03T11:54:48Z</time>
      </trkpt>
      <trkpt lat="42.984104" lon="-1.6312777">
        <time>2022-07-03T11:54:49Z</time>
      </trkpt>
      <trkpt lat="42.983994" lon="-1.6312287">
        <time>2022-07-03T11:54:50Z</time>
      </trkpt>
      <trkpt lat="42.983883" lon="-1.6311791">
        <time>2022-07-03T11:54:51Z</time>
      </trkpt>
      <trkpt lat="42.983772" lon="-1.631129">
        <time>2022-07-03T11:54:52Z</time>
      </trkpt>
      <trkpt lat="42.98366" lon="-1.6310811">
        <time>2022-07-03T11:54:53Z</time>
      </trkpt>
      <trkpt lat="42.98355" lon="-1.6310354">
        <time>2022-07-03T11:54:54Z</time>
      </trkpt>
      <trkpt lat="42.983444" lon="-1.6309897">
        <time>2022-07-03T11:54:55Z</time>
      </trkpt>
      <trkpt lat="42.983337" lon="-1.6309444">
        <time>2022-07-03T11:54:56Z</time>
      </trkpt>
      <trkpt lat="42.98323" lon="-1.6308974">
        <time>2022-07-03T11:54:57Z</time>
      </trkpt>
      <trkpt lat="42.983124" lon="-1.6308517">
        <time>2022-07-03T11:54:58Z</time>
      </trkpt>
      <trkpt lat="42.98302" lon="-1.6308061">
        <time>2022-07-03T11:54:59Z</time>
      </trkpt>
      <trkpt lat="42.982914" lon="-1.6307625">
        <time>2022-07-03T11:55:00Z</time>
      </trkpt>
      <trkpt lat="42.98281" lon="-1.6307194">
        <time>2022-07-03T11:55:01Z</time>
      </trkpt>
      <trkpt lat="42.982708" lon="-1.6306747">
        <time>2022-07-03T11:55:02Z</time>
      </trkpt>
      <trkpt lat="42.98261" lon="-1.6306281">
        <time>2022-07-03T11:55:03Z</time>
      </trkpt>
      <trkpt lat="42.982513" lon="-1.6305845">
        <time>2022-07-03T11:55:04Z</time>
      </trkpt>
      <trkpt lat="42.98241" lon="-1.6305374">
        <time>2022-07-03T11:55:05Z</time>
      </trkpt>
      <trkpt lat="42.982304" lon="-1.6304938">
        <time>2022-07-03T11:55:06Z</time>
      </trkpt>
      <trkpt lat="42.9822" lon="-1.6304531">
        <time>2022-07-03T11:55:07Z</time>
      </trkpt>
      <trkpt lat="42.982098" lon="-1.6304141">
        <time>2022-07-03T11:55:08Z</time>
      </trkpt>
      <trkpt lat="42.982" lon="-1.6303768">
        <time>2022-07-03T11:55:09Z</time>
      </trkpt>
      <trkpt lat="42.9819" lon="-1.6303384">
        <time>2022-07-03T11:55:10Z</time>
      </trkpt>
      <trkpt lat="42.981785" lon="-1.6302961">
        <time>2022-07-03T11:55:11Z</time>
      </trkpt>
      <trkpt lat="42.981674" lon="-1.6302534">
        <time>2022-07-03T11:55:12Z</time>
      </trkpt>
      <trkpt lat="42.98156" lon="-1.6302108">
        <time>2022-07-03T11:55:13Z</time>
      </trkpt>
      <trkpt lat="42.981453" lon="-1.6301695">
        <time>2022-07-03T11:55:14Z</time>
      </trkpt>
      <trkpt lat="42.981335" lon="-1.6301235">
        <time>2022-07-03T11:55:15Z</time>
      </trkpt>
      <trkpt lat="42.98122" lon="-1.6300765">
        <time>2022-07-03T11:55:16Z</time>
      </trkpt>
      <trkpt lat="42.981102" lon="-1.6300288">
        <time>2022-07-03T11:55:17Z</time>
      </trkpt>
      <trkpt lat="42.980988" lon="-1.6299815">
        <time>2022-07-03T11:55:18Z</time>
      </trkpt>
      <trkpt lat="42.98087" lon="-1.6299335">
        <time>2022-07-03T11:55:19Z</time>
      </trkpt>
      <trkpt lat="42.980755" lon="-1.6298845">
        <time>2022-07-03T11:55:20Z</time>
      </trkpt>
      <trkpt lat="42.980637" lon="-1.6298348">
        <time>2022-07-03T11:55:21Z</time>
      </trkpt>
      <trkpt lat="42.980522" lon="-1.6297835">
        <time>2022-07-03T11:55:22Z</time>
      </trkpt>
      <trkpt lat="42.980408" lon="-1.6297308">
        <time>2022-07-03T11:55:23Z</time>
      </trkpt>
      <trkpt lat="42.980293" lon="-1.6296775">
        <time>2022-07-03T11:55:24Z</time>
      </trkpt>
      <trkpt lat="42.98018" lon="-1.6296245">
        <time>2022-07-03T11:55:25Z</time>
      </trkpt>
      <trkpt lat="42.980064" lon="-1.6295716">
        <time>2022-07-03T11:55:26Z</time>
      </trkpt>
      <trkpt lat="42.97995" lon="-1.6295195">
        <time>2022-07-03T11:55:27Z</time>
      </trkpt>
      <trkpt lat="42.97984" lon="-1.6294671">
        <time>2022-07-03T11:55:28Z</time>
      </trkpt>
      <trkpt lat="42.97961" lon="-1.6293645">
        <time>2022-07-03T11:55:30Z</time>
      </trkpt>
      <trkpt lat="42.979496" lon="-1.6293135">
        <time>2022-07-03T11:55:31Z</time>
      </trkpt>
      <trkpt lat="42.979385" lon="-1.6292642">
        <time>2022-07-03T11:55:32Z</time>
      </trkpt>
      <trkpt lat="42.97927" lon="-1.6292145">
        <time>2022-07-03T11:55:33Z</time>
      </trkpt>
      <trkpt lat="42.97916" lon="-1.6291648">
        <time>2022-07-03T11:55:34Z</time>
      </trkpt>
      <trkpt lat="42.979046" lon="-1.6291162">
        <time>2022-07-03T11:55:35Z</time>
      </trkpt>
      <trkpt lat="42.978943" lon="-1.6290709">
        <time>2022-07-03T11:55:36Z</time>
      </trkpt>
      <trkpt lat="42.97884" lon="-1.6290243">
        <time>2022-07-03T11:55:37Z</time>
      </trkpt>
      <trkpt lat="42.978737" lon="-1.6289779">
        <time>2022-07-03T11:55:38Z</time>
      </trkpt>
      <trkpt lat="42.97863" lon="-1.6289315">
        <time>2022-07-03T11:55:39Z</time>
      </trkpt>
      <trkpt lat="42.978527" lon="-1.6288849">
        <time>2022-07-03T11:55:40Z</time>
      </trkpt>
      <trkpt lat="42.978424" lon="-1.628838">
        <time>2022-07-03T11:55:41Z</time>
      </trkpt>
      <trkpt lat="42.978317" lon="-1.6287882">
        <time>2022-07-03T11:55:42Z</time>
      </trkpt>
      <trkpt lat="42.97821" lon="-1.6287396">
        <time>2022-07-03T11:55:43Z</time>
      </trkpt>
      <trkpt lat="42.978107" lon="-1.6286919">
        <time>2022-07-03T11:55:44Z</time>
      </trkpt>
      <trkpt lat="42.978" lon="-1.6286426">
        <time>2022-07-03T11:55:45Z</time>
      </trkpt>
      <trkpt lat="42.9779" lon="-1.628598">
        <time>2022-07-03T11:55:46Z</time>
      </trkpt>
      <trkpt lat="42.977802" lon="-1.6285533">
        <time>2022-07-03T11:55:47Z</time>
      </trkpt>
      <trkpt lat="42.977703" lon="-1.6285089">
        <time>2022-07-03T11:55:48Z</time>
      </trkpt>
      <trkpt lat="42.977604" lon="-1.6284642">
        <time>2022-07-03T11:55:49Z</time>
      </trkpt>
      <trkpt lat="42.97751" lon="-1.628421">
        <time>2022-07-03T11:55:50Z</time>
      </trkpt>
      <trkpt lat="42.977413" lon="-1.6283766">
        <time>2022-07-03T11:55:51Z</time>
      </trkpt>
      <trkpt lat="42.977318" lon="-1.6283339">
        <time>2022-07-03T11:55:52Z</time>
      </trkpt>
      <trkpt lat="42.977222" lon="-1.6282923">
        <time>2022-07-03T11:55:53Z</time>
      </trkpt>
      <trkpt lat="42.97713" lon="-1.628251">
        <time>2022-07-03T11:55:54Z</time>
      </trkpt>
      <trkpt lat="42.97704" lon="-1.628209">
        <time>2022-07-03T11:55:55Z</time>
      </trkpt>
      <trkpt lat="42.976944" lon="-1.6281667">
        <time>2022-07-03T11:55:56Z</time>
      </trkpt>
      <trkpt lat="42.976852" lon="-1.6281246">
        <time>2022-07-03T11:55:57Z</time>
      </trkpt>
      <trkpt lat="42.97676" lon="-1.6280826">
        <time>2022-07-03T11:55:58Z</time>
      </trkpt>
      <trkpt lat="42.97667" lon="-1.62804">
        <time>2022-07-03T11:55:59Z</time>
      </trkpt>
      <trkpt lat="42.97658" lon="-1.627999">
        <time>2022-07-03T11:56:00Z</time>
      </trkpt>
      <trkpt lat="42.976494" lon="-1.6279583">
        <time>2022-07-03T11:56:01Z</time>
      </trkpt>
      <trkpt lat="42.976406" lon="-1.6279176">
        <time>2022-07-03T11:56:02Z</time>
      </trkpt>
      <trkpt lat="42.976322" lon="-1.6278774">
        <time>2022-07-03T11:56:03Z</time>
      </trkpt>
      <trkpt lat="42.97624" lon="-1.6278384">
        <time>2022-07-03T11:56:04Z</time>
      </trkpt>
      <trkpt lat="42.97615" lon="-1.6277993">
        <time>2022-07-03T11:56:05Z</time>
      </trkpt>
      <trkpt lat="42.97607" lon="-1.627762">
        <time>2022-07-03T11:56:06Z</time>
      </trkpt>
      <trkpt lat="42.97599" lon="-1.627725">
        <time>2022-07-03T11:56:07Z</time>
      </trkpt>
      <trkpt lat="42.97591" lon="-1.62769">
        <time>2022-07-03T11:56:08Z</time>
      </trkpt>
      <trkpt lat="42.975834" lon="-1.627656">
        <time>2022-07-03T11:56:09Z</time>
      </trkpt>
      <trkpt lat="42.975758" lon="-1.627623">
        <time>2022-07-03T11:56:10Z</time>
      </trkpt>
      <trkpt lat="42.97568" lon="-1.6275886">
        <time>2022-07-03T11:56:11Z</time>
      </trkpt>
      <trkpt lat="42.97561" lon="-1.627553">
        <time>2022-07-03T11:56:12Z</time>
      </trkpt>
      <trkpt lat="42.975536" lon="-1.627519">
        <time>2022-07-03T11:56:13Z</time>
      </trkpt>
      <trkpt lat="42.97547" lon="-1.6274884">
        <time>2022-07-03T11:56:14Z</time>
      </trkpt>
      <trkpt lat="42.9754" lon="-1.6274554">
        <time>2022-07-03T11:56:15Z</time>
      </trkpt>
      <trkpt lat="42.975327" lon="-1.627423">
        <time>2022-07-03T11:56:16Z</time>
      </trkpt>
      <trkpt lat="42.975258" lon="-1.6273913">
        <time>2022-07-03T11:56:17Z</time>
      </trkpt>
      <trkpt lat="42.975185" lon="-1.6273597">
        <time>2022-07-03T11:56:18Z</time>
      </trkpt>
      <trkpt lat="42.975117" lon="-1.6273273">
        <time>2022-07-03T11:56:19Z</time>
      </trkpt>
      <trkpt lat="42.975048" lon="-1.627295">
        <time>2022-07-03T11:56:20Z</time>
      </trkpt>
      <trkpt lat="42.97498" lon="-1.627262">
        <time>2022-07-03T11:56:21Z</time>
      </trkpt>
      <trkpt lat="42.97491" lon="-1.6272297">
        <time>2022-07-03T11:56:22Z</time>
      </trkpt>
      <trkpt lat="42.974842" lon="-1.6271964">
        <time>2022-07-03T11:56:23Z</time>
      </trkpt>
      <trkpt lat="42.974777" lon="-1.6271657">
        <time>2022-07-03T11:56:24Z</time>
      </trkpt>
      <trkpt lat="42.974705" lon="-1.6271328">
        <time>2022-07-03T11:56:25Z</time>
      </trkpt>
      <trkpt lat="42.974632" lon="-1.627099">
        <time>2022-07-03T11:56:26Z</time>
      </trkpt>
      <trkpt lat="42.974564" lon="-1.6270638">
        <time>2022-07-03T11:56:27Z</time>
      </trkpt>
      <trkpt lat="42.974495" lon="-1.6270281">
        <time>2022-07-03T11:56:28Z</time>
      </trkpt>
      <trkpt lat="42.974426" lon="-1.6269971">
        <time>2022-07-03T11:56:29Z</time>
      </trkpt>
      <trkpt lat="42.974354" lon="-1.6269658">
        <time>2022-07-03T11:56:30Z</time>
      </trkpt>
      <trkpt lat="42.974285" lon="-1.6269348">
        <time>2022-07-03T11:56:31Z</time>
      </trkpt>
      <trkpt lat="42.97415" lon="-1.6268717">
        <time>2022-07-03T11:56:33Z</time>
      </trkpt>
      <trkpt lat="42.974083" lon="-1.6268401">
        <time>2022-07-03T11:56:34Z</time>
      </trkpt>
      <trkpt lat="42.97402" lon="-1.6268084">
        <time>2022-07-03T11:56:35Z</time>
      </trkpt>
      <trkpt lat="42.973953" lon="-1.6267761">
        <time>2022-07-03T11:56:36Z</time>
      </trkpt>
      <trkpt lat="42.97389" lon="-1.6267434">
        <time>2022-07-03T11:56:37Z</time>
      </trkpt>
      <trkpt lat="42.973824" lon="-1.6267104">
        <time>2022-07-03T11:56:38Z</time>
      </trkpt>
      <trkpt lat="42.973766" lon="-1.6266791">
        <time>2022-07-03T11:56:39Z</time>
      </trkpt>
      <trkpt lat="42.973705" lon="-1.6266451">
        <time>2022-07-03T11:56:40Z</time>
      </trkpt>
      <trkpt lat="42.97364" lon="-1.6266094">
        <time>2022-07-03T11:56:41Z</time>
      </trkpt>
      <trkpt lat="42.97358" lon="-1.6265714">
        <time>2022-07-03T11:56:42Z</time>
      </trkpt>
      <trkpt lat="42.97352" lon="-1.6265315">
        <time>2022-07-03T11:56:43Z</time>
      </trkpt>
      <trkpt lat="42.973454" lon="-1.6264905">
        <time>2022-07-03T11:56:44Z</time>
      </trkpt>
      <trkpt lat="42.97339" lon="-1.6264484">
        <time>2022-07-03T11:56:45Z</time>
      </trkpt>
      <trkpt lat="42.97332" lon="-1.6264018">
        <time>2022-07-03T11:56:46Z</time>
      </trkpt>
      <trkpt lat="42.973255" lon="-1.6263591">
        <time>2022-07-03T11:56:47Z</time>
      </trkpt>
      <trkpt lat="42.97319" lon="-1.6263151">
        <time>2022-07-03T11:56:48Z</time>
      </trkpt>
      <trkpt lat="42.973125" lon="-1.6262698">
        <time>2022-07-03T11:56:49Z</time>
      </trkpt>
      <trkpt lat="42.973057" lon="-1.6262238">
        <time>2022-07-03T11:56:50Z</time>
      </trkpt>
      <trkpt lat="42.97299" lon="-1.6261771">
        <time>2022-07-03T11:56:51Z</time>
      </trkpt>
      <trkpt lat="42.972916" lon="-1.6261275">
        <time>2022-07-03T11:56:52Z</time>
      </trkpt>
      <trkpt lat="42.972847" lon="-1.6260785">
        <time>2022-07-03T11:56:53Z</time>
      </trkpt>
      <trkpt lat="42.972775" lon="-1.6260304">
        <time>2022-07-03T11:56:54Z</time>
      </trkpt>
      <trkpt lat="42.97271" lon="-1.6259865">
        <time>2022-07-03T11:56:55Z</time>
      </trkpt>
      <trkpt lat="42.972645" lon="-1.6259428">
        <time>2022-07-03T11:56:56Z</time>
      </trkpt>
      <trkpt lat="42.97258" lon="-1.6258992">
        <time>2022-07-03T11:56:57Z</time>
      </trkpt>
      <trkpt lat="42.972515" lon="-1.6258578">
        <time>2022-07-03T11:56:58Z</time>
      </trkpt>
      <trkpt lat="42.972446" lon="-1.6258198">
        <time>2022-07-03T11:56:59Z</time>
      </trkpt>
      <trkpt lat="42.97239" lon="-1.6257908">
        <time>2022-07-03T11:57:00Z</time>
      </trkpt>
      <trkpt lat="42.972336" lon="-1.6257662">
        <time>2022-07-03T11:57:01Z</time>
      </trkpt>
      <trkpt lat="42.972286" lon="-1.6257428">
        <time>2022-07-03T11:57:02Z</time>
      </trkpt>
      <trkpt lat="42.972248" lon="-1.6257205">
        <time>2022-07-03T11:57:03Z</time>
      </trkpt>
      <trkpt lat="42.972195" lon="-1.6256915">
        <time>2022-07-03T11:57:05Z</time>
      </trkpt>
      <trkpt lat="42.97211" lon="-1.6255805">
        <time>2022-07-03T11:59:23Z</time>
      </trkpt>
      <trkpt lat="42.972065" lon="-1.6255255">
        <time>2022-07-03T11:59:25Z</time>
      </trkpt>
      <trkpt lat="42.972" lon="-1.6254681">
        <time>2022-07-03T11:59:27Z</time>
      </trkpt>
      <trkpt lat="42.971928" lon="-1.6254048">
        <time>2022-07-03T11:59:29Z</time>
      </trkpt>
      <trkpt lat="42.971848" lon="-1.6253438">
        <time>2022-07-03T11:59:31Z</time>
      </trkpt>
      <trkpt lat="42.97172" lon="-1.6252532">
        <time>2022-07-03T11:59:34Z</time>
      </trkpt>
      <trkpt lat="42.97168" lon="-1.6252198">
        <time>2022-07-03T11:59:35Z</time>
      </trkpt>
      <trkpt lat="42.971592" lon="-1.6251512">
        <time>2022-07-03T11:59:37Z</time>
      </trkpt>
      <trkpt lat="42.971546" lon="-1.6251168">
        <time>2022-07-03T11:59:38Z</time>
      </trkpt>
      <trkpt lat="42.97146" lon="-1.6250429">
        <time>2022-07-03T11:59:40Z</time>
      </trkpt>
      <trkpt lat="42.971367" lon="-1.6249605">
        <time>2022-07-03T11:59:42Z</time>
      </trkpt>
      <trkpt lat="42.97132" lon="-1.6249232">
        <time>2022-07-03T11:59:43Z</time>
      </trkpt>
      <trkpt lat="42.97128" lon="-1.6248856">
        <time>2022-07-03T11:59:44Z</time>
      </trkpt>
      <trkpt lat="42.971184" lon="-1.6248006">
        <time>2022-07-03T11:59:46Z</time>
      </trkpt>
      <trkpt lat="42.971138" lon="-1.6247585">
        <time>2022-07-03T11:59:47Z</time>
      </trkpt>
      <trkpt lat="42.971035" lon="-1.6246679">
        <time>2022-07-03T11:59:49Z</time>
      </trkpt>
      <trkpt lat="42.97099" lon="-1.6246235">
        <time>2022-07-03T11:59:50Z</time>
      </trkpt>
      <trkpt lat="42.97094" lon="-1.6245766">
        <time>2022-07-03T11:59:51Z</time>
      </trkpt>
      <trkpt lat="42.970886" lon="-1.6245279">
        <time>2022-07-03T11:59:52Z</time>
      </trkpt>
      <trkpt lat="42.970833" lon="-1.6244779">
        <time>2022-07-03T11:59:53Z</time>
      </trkpt>
      <trkpt lat="42.97077" lon="-1.6244255">
        <time>2022-07-03T11:59:54Z</time>
      </trkpt>
      <trkpt lat="42.970707" lon="-1.6243702">
        <time>2022-07-03T11:59:55Z</time>
      </trkpt>
      <trkpt lat="42.970642" lon="-1.6243116">
        <time>2022-07-03T11:59:56Z</time>
      </trkpt>
      <trkpt lat="42.97057" lon="-1.6242492">
        <time>2022-07-03T11:59:57Z</time>
      </trkpt>
      <trkpt lat="42.970486" lon="-1.6241792">
        <time>2022-07-03T11:59:58Z</time>
      </trkpt>
      <trkpt lat="42.970406" lon="-1.6241122">
        <time>2022-07-03T11:59:59Z</time>
      </trkpt>
      <trkpt lat="42.97032" lon="-1.6240416">
        <time>2022-07-03T12:00:00Z</time>
      </trkpt>
      <trkpt lat="42.970234" lon="-1.623969">
        <time>2022-07-03T12:00:01Z</time>
      </trkpt>
      <trkpt lat="42.970146" lon="-1.623894">
        <time>2022-07-03T12:00:02Z</time>
      </trkpt>
      <trkpt lat="42.970055" lon="-1.6238172">
        <time>2022-07-03T12:00:03Z</time>
      </trkpt>
      <trkpt lat="42.96996" lon="-1.6237389">
        <time>2022-07-03T12:00:04Z</time>
      </trkpt>
      <trkpt lat="42.969864" lon="-1.6236596">
        <time>2022-07-03T12:00:05Z</time>
      </trkpt>
      <trkpt lat="42.96977" lon="-1.6235789">
        <time>2022-07-03T12:00:06Z</time>
      </trkpt>
      <trkpt lat="42.969673" lon="-1.6234989">
        <time>2022-07-03T12:00:07Z</time>
      </trkpt>
      <trkpt lat="42.969578" lon="-1.6234183">
        <time>2022-07-03T12:00:08Z</time>
      </trkpt>
      <trkpt lat="42.969486" lon="-1.6233386">
        <time>2022-07-03T12:00:09Z</time>
      </trkpt>
      <trkpt lat="42.96939" lon="-1.6232593">
        <time>2022-07-03T12:00:10Z</time>
      </trkpt>
      <trkpt lat="42.9693" lon="-1.6231813">
        <time>2022-07-03T12:00:11Z</time>
      </trkpt>
      <trkpt lat="42.96921" lon="-1.6231049">
        <time>2022-07-03T12:00:12Z</time>
      </trkpt>
      <trkpt lat="42.96912" lon="-1.6230296">
        <time>2022-07-03T12:00:13Z</time>
      </trkpt>
      <trkpt lat="42.96903" lon="-1.6229557">
        <time>2022-07-03T12:00:14Z</time>
      </trkpt>
      <trkpt lat="42.96894" lon="-1.6228826">
        <time>2022-07-03T12:00:15Z</time>
      </trkpt>
      <trkpt lat="42.96885" lon="-1.6228102">
        <time>2022-07-03T12:00:16Z</time>
      </trkpt>
      <trkpt lat="42.96876" lon="-1.622738">
        <time>2022-07-03T12:00:17Z</time>
      </trkpt>
      <trkpt lat="42.968678" lon="-1.622666">
        <time>2022-07-03T12:00:18Z</time>
      </trkpt>
      <trkpt lat="42.96859" lon="-1.6225946">
        <time>2022-07-03T12:00:19Z</time>
      </trkpt>
      <trkpt lat="42.968506" lon="-1.6225233">
        <time>2022-07-03T12:00:20Z</time>
      </trkpt>
      <trkpt lat="42.968422" lon="-1.6224517">
        <time>2022-07-03T12:00:21Z</time>
      </trkpt>
      <trkpt lat="42.968334" lon="-1.6223787">
        <time>2022-07-03T12:00:22Z</time>
      </trkpt>
      <trkpt lat="42.96825" lon="-1.6223063">
        <time>2022-07-03T12:00:23Z</time>
      </trkpt>
      <trkpt lat="42.968166" lon="-1.622235">
        <time>2022-07-03T12:00:24Z</time>
      </trkpt>
      <trkpt lat="42.968082" lon="-1.622165">
        <time>2022-07-03T12:00:25Z</time>
      </trkpt>
      <trkpt lat="42.968" lon="-1.6220963">
        <time>2022-07-03T12:00:26Z</time>
      </trkpt>
      <trkpt lat="42.967915" lon="-1.6220287">
        <time>2022-07-03T12:00:27Z</time>
      </trkpt>
      <trkpt lat="42.96783" lon="-1.6219614">
        <time>2022-07-03T12:00:28Z</time>
      </trkpt>
      <trkpt lat="42.96775" lon="-1.621895">
        <time>2022-07-03T12:00:29Z</time>
      </trkpt>
      <trkpt lat="42.96767" lon="-1.6218277">
        <time>2022-07-03T12:00:30Z</time>
      </trkpt>
      <trkpt lat="42.96759" lon="-1.6217597">
        <time>2022-07-03T12:00:31Z</time>
      </trkpt>
      <trkpt lat="42.96751" lon="-1.621691">
        <time>2022-07-03T12:00:32Z</time>
      </trkpt>
      <trkpt lat="42.96743" lon="-1.6216234">
        <time>2022-07-03T12:00:33Z</time>
      </trkpt>
      <trkpt lat="42.96735" lon="-1.6215574">
        <time>2022-07-03T12:00:34Z</time>
      </trkpt>
      <trkpt lat="42.967274" lon="-1.6214917">
        <time>2022-07-03T12:00:35Z</time>
      </trkpt>
      <trkpt lat="42.967197" lon="-1.6214267">
        <time>2022-07-03T12:00:36Z</time>
      </trkpt>
      <trkpt lat="42.96712" lon="-1.621361">
        <time>2022-07-03T12:00:37Z</time>
      </trkpt>
      <trkpt lat="42.967045" lon="-1.6212957">
        <time>2022-07-03T12:00:38Z</time>
      </trkpt>
      <trkpt lat="42.966896" lon="-1.6211714">
        <time>2022-07-03T12:00:40Z</time>
      </trkpt>
      <trkpt lat="42.966824" lon="-1.621109">
        <time>2022-07-03T12:00:41Z</time>
      </trkpt>
      <trkpt lat="42.966747" lon="-1.6210467">
        <time>2022-07-03T12:00:42Z</time>
      </trkpt>
      <trkpt lat="42.96668" lon="-1.620985">
        <time>2022-07-03T12:00:43Z</time>
      </trkpt>
      <trkpt lat="42.966606" lon="-1.6209251">
        <time>2022-07-03T12:00:44Z</time>
      </trkpt>
      <trkpt lat="42.966534" lon="-1.6208651">
        <time>2022-07-03T12:00:45Z</time>
      </trkpt>
      <trkpt lat="42.966465" lon="-1.6208054">
        <time>2022-07-03T12:00:46Z</time>
      </trkpt>
      <trkpt lat="42.966396" lon="-1.6207474">
        <time>2022-07-03T12:00:47Z</time>
      </trkpt>
      <trkpt lat="42.966328" lon="-1.6206914">
        <time>2022-07-03T12:00:48Z</time>
      </trkpt>
      <trkpt lat="42.966255" lon="-1.6206348">
        <time>2022-07-03T12:00:49Z</time>
      </trkpt>
      <trkpt lat="42.966187" lon="-1.6205771">
        <time>2022-07-03T12:00:50Z</time>
      </trkpt>
      <trkpt lat="42.966114" lon="-1.620514">
        <time>2022-07-03T12:00:51Z</time>
      </trkpt>
      <trkpt lat="42.96605" lon="-1.6204561">
        <time>2022-07-03T12:00:52Z</time>
      </trkpt>
      <trkpt lat="42.96598" lon="-1.6203974">
        <time>2022-07-03T12:00:53Z</time>
      </trkpt>
      <trkpt lat="42.96591" lon="-1.6203371">
        <time>2022-07-03T12:00:54Z</time>
      </trkpt>
      <trkpt lat="42.965847" lon="-1.6202768">
        <time>2022-07-03T12:00:55Z</time>
      </trkpt>
      <trkpt lat="42.965775" lon="-1.6202167">
        <time>2022-07-03T12:00:56Z</time>
      </trkpt>
      <trkpt lat="42.965706" lon="-1.6201575">
        <time>2022-07-03T12:00:57Z</time>
      </trkpt>
      <trkpt lat="42.965633" lon="-1.6200981">
        <time>2022-07-03T12:00:58Z</time>
      </trkpt>
      <trkpt lat="42.965557" lon="-1.6200398">
        <time>2022-07-03T12:00:59Z</time>
      </trkpt>
      <trkpt lat="42.96548" lon="-1.6199855">
        <time>2022-07-03T12:01:00Z</time>
      </trkpt>
      <trkpt lat="42.9654" lon="-1.6199352">
        <time>2022-07-03T12:01:01Z</time>
      </trkpt>
      <trkpt lat="42.96532" lon="-1.6198925">
        <time>2022-07-03T12:01:02Z</time>
      </trkpt>
      <trkpt lat="42.965237" lon="-1.6198568">
        <time>2022-07-03T12:01:03Z</time>
      </trkpt>
      <trkpt lat="42.96515" lon="-1.6198242">
        <time>2022-07-03T12:01:04Z</time>
      </trkpt>
      <trkpt lat="42.965065" lon="-1.6197928">
        <time>2022-07-03T12:01:05Z</time>
      </trkpt>
      <trkpt lat="42.96498" lon="-1.6197631">
        <time>2022-07-03T12:01:06Z</time>
      </trkpt>
      <trkpt lat="42.964897" lon="-1.6197325">
        <time>2022-07-03T12:01:07Z</time>
      </trkpt>
      <trkpt lat="42.964813" lon="-1.6197035">
        <time>2022-07-03T12:01:08Z</time>
      </trkpt>
      <trkpt lat="42.964733" lon="-1.6196755">
        <time>2022-07-03T12:01:09Z</time>
      </trkpt>
      <trkpt lat="42.96465" lon="-1.6196479">
        <time>2022-07-03T12:01:10Z</time>
      </trkpt>
      <trkpt lat="42.964573" lon="-1.6196195">
        <time>2022-07-03T12:01:11Z</time>
      </trkpt>
      <trkpt lat="42.964497" lon="-1.6195915">
        <time>2022-07-03T12:01:12Z</time>
      </trkpt>
      <trkpt lat="42.96442" lon="-1.6195642">
        <time>2022-07-03T12:01:13Z</time>
      </trkpt>
      <trkpt lat="42.96434" lon="-1.6195371">
        <time>2022-07-03T12:01:14Z</time>
      </trkpt>
      <trkpt lat="42.964264" lon="-1.6195091">
        <time>2022-07-03T12:01:15Z</time>
      </trkpt>
      <trkpt lat="42.964184" lon="-1.6194795">
        <time>2022-07-03T12:01:16Z</time>
      </trkpt>
      <trkpt lat="42.964108" lon="-1.6194482">
        <time>2022-07-03T12:01:17Z</time>
      </trkpt>
      <trkpt lat="42.96403" lon="-1.6194178">
        <time>2022-07-03T12:01:18Z</time>
      </trkpt>
      <trkpt lat="42.96396" lon="-1.6193892">
        <time>2022-07-03T12:01:19Z</time>
      </trkpt>
      <trkpt lat="42.963886" lon="-1.6193612">
        <time>2022-07-03T12:01:20Z</time>
      </trkpt>
      <trkpt lat="42.963818" lon="-1.6193335">
        <time>2022-07-03T12:01:21Z</time>
      </trkpt>
      <trkpt lat="42.963757" lon="-1.6193051">
        <time>2022-07-03T12:01:22Z</time>
      </trkpt>
      <trkpt lat="42.963696" lon="-1.6192772">
        <time>2022-07-03T12:01:23Z</time>
      </trkpt>
      <trkpt lat="42.963642" lon="-1.6192498">
        <time>2022-07-03T12:01:24Z</time>
      </trkpt>
      <trkpt lat="42.963585" lon="-1.6192212">
        <time>2022-07-03T12:01:25Z</time>
      </trkpt>
      <trkpt lat="42.96353" lon="-1.6191882">
        <time>2022-07-03T12:01:26Z</time>
      </trkpt>
      <trkpt lat="42.963478" lon="-1.6191572">
        <time>2022-07-03T12:01:27Z</time>
      </trkpt>
      <trkpt lat="42.963425" lon="-1.6191221">
        <time>2022-07-03T12:01:28Z</time>
      </trkpt>
      <trkpt lat="42.963375" lon="-1.6190892">
        <time>2022-07-03T12:01:29Z</time>
      </trkpt>
      <trkpt lat="42.963326" lon="-1.6190525">
        <time>2022-07-03T12:01:30Z</time>
      </trkpt>
      <trkpt lat="42.963272" lon="-1.6190143">
        <time>2022-07-03T12:01:31Z</time>
      </trkpt>
      <trkpt lat="42.963223" lon="-1.6189752">
        <time>2022-07-03T12:01:32Z</time>
      </trkpt>
      <trkpt lat="42.963173" lon="-1.6189358">
        <time>2022-07-03T12:01:33Z</time>
      </trkpt>
      <trkpt lat="42.963127" lon="-1.6188985">
        <time>2022-07-03T12:01:34Z</time>
      </trkpt>
      <trkpt lat="42.96308" lon="-1.6188649">
        <time>2022-07-03T12:01:35Z</time>
      </trkpt>
      <trkpt lat="42.963036" lon="-1.6188343">
        <time>2022-07-03T12:01:36Z</time>
      </trkpt>
      <trkpt lat="42.962967" lon="-1.6187849">
        <time>2022-07-03T12:01:38Z</time>
      </trkpt>
      <trkpt lat="42.962906" lon="-1.6187383">
        <time>2022-07-03T12:01:40Z</time>
      </trkpt>
      <trkpt lat="42.962826" lon="-1.618676">
        <time>2022-07-03T12:01:43Z</time>
      </trkpt>
      <trkpt lat="42.962784" lon="-1.6186485">
        <time>2022-07-03T12:01:45Z</time>
      </trkpt>
      <trkpt lat="42.96269" lon="-1.6185886">
        <time>2022-07-03T12:02:54Z</time>
      </trkpt>
      <trkpt lat="42.962612" lon="-1.6185203">
        <time>2022-07-03T12:02:57Z</time>
      </trkpt>
      <trkpt lat="42.962547" lon="-1.618462">
        <time>2022-07-03T12:02:59Z</time>
      </trkpt>
      <trkpt lat="42.96248" lon="-1.6184013">
        <time>2022-07-03T12:03:01Z</time>
      </trkpt>
      <trkpt lat="42.962406" lon="-1.6183449">
        <time>2022-07-03T12:03:03Z</time>
      </trkpt>
      <trkpt lat="42.962334" lon="-1.6182892">
        <time>2022-07-03T12:03:05Z</time>
      </trkpt>
      <trkpt lat="42.962254" lon="-1.6182346">
        <time>2022-07-03T12:03:07Z</time>
      </trkpt>
      <trkpt lat="42.962173" lon="-1.6181756">
        <time>2022-07-03T12:03:09Z</time>
      </trkpt>
      <trkpt lat="42.96209" lon="-1.6181076">
        <time>2022-07-03T12:03:11Z</time>
      </trkpt>
      <trkpt lat="42.962048" lon="-1.6180719">
        <time>2022-07-03T12:03:12Z</time>
      </trkpt>
      <trkpt lat="42.961964" lon="-1.6179966">
        <time>2022-07-03T12:03:14Z</time>
      </trkpt>
      <trkpt lat="42.961926" lon="-1.617958">
        <time>2022-07-03T12:03:15Z</time>
      </trkpt>
      <trkpt lat="42.961884" lon="-1.6179166">
        <time>2022-07-03T12:03:16Z</time>
      </trkpt>
      <trkpt lat="42.9618" lon="-1.6178306">
        <time>2022-07-03T12:03:18Z</time>
      </trkpt>
      <trkpt lat="42.961758" lon="-1.6177872">
        <time>2022-07-03T12:03:19Z</time>
      </trkpt>
      <trkpt lat="42.961716" lon="-1.617747">
        <time>2022-07-03T12:03:20Z</time>
      </trkpt>
      <trkpt lat="42.961674" lon="-1.617706">
        <time>2022-07-03T12:03:21Z</time>
      </trkpt>
      <trkpt lat="42.961597" lon="-1.617631">
        <time>2022-07-03T12:03:23Z</time>
      </trkpt>
      <trkpt lat="42.961514" lon="-1.61756">
        <time>2022-07-03T12:03:25Z</time>
      </trkpt>
      <trkpt lat="42.96147" lon="-1.6175213">
        <time>2022-07-03T12:03:26Z</time>
      </trkpt>
      <trkpt lat="42.961384" lon="-1.6174409">
        <time>2022-07-03T12:03:28Z</time>
      </trkpt>
      <trkpt lat="42.961334" lon="-1.617402">
        <time>2022-07-03T12:03:29Z</time>
      </trkpt>
      <trkpt lat="42.96129" lon="-1.617362">
        <time>2022-07-03T12:03:30Z</time>
      </trkpt>
      <trkpt lat="42.961235" lon="-1.6173197">
        <time>2022-07-03T12:03:31Z</time>
      </trkpt>
      <trkpt lat="42.96118" lon="-1.6172783">
        <time>2022-07-03T12:03:32Z</time>
      </trkpt>
      <trkpt lat="42.961136" lon="-1.6172413">
        <time>2022-07-03T12:03:33Z</time>
      </trkpt>
      <trkpt lat="42.961094" lon="-1.6172056">
        <time>2022-07-03T12:03:34Z</time>
      </trkpt>
      <trkpt lat="42.96104" lon="-1.617136">
        <time>2022-07-03T12:03:36Z</time>
      </trkpt>
      <trkpt lat="42.961018" lon="-1.617075">
        <time>2022-07-03T12:03:38Z</time>
      </trkpt>
      <trkpt lat="42.960995" lon="-1.6170013">
        <time>2022-07-03T12:03:41Z</time>
      </trkpt>
      <trkpt lat="42.960976" lon="-1.6169397">
        <time>2022-07-03T12:03:44Z</time>
      </trkpt>
      <trkpt lat="42.960987" lon="-1.6168923">
        <time>2022-07-03T12:04:50Z</time>
      </trkpt>
      <trkpt lat="42.96108" lon="-1.6168107">
        <time>2022-07-03T12:05:05Z</time>
      </trkpt>
      <trkpt lat="42.961147" lon="-1.6174806">
        <time>2022-07-03T12:07:12Z</time>
      </trkpt>
      <trkpt lat="42.961197" lon="-1.6172857">
        <time>2022-07-03T12:09:48Z</time>
      </trkpt>
      <trkpt lat="42.961193" lon="-1.617279">
        <time>2022-07-03T12:10:27Z</time>
      </trkpt>
      <trkpt lat="42.96123" lon="-1.6173414">
        <time>2022-07-03T12:10:35Z</time>
      </trkpt>
      <trkpt lat="42.961014" lon="-1.6170824">
        <time>2022-07-03T12:21:22Z</time>
      </trkpt>
      <trkpt lat="42.960987" lon="-1.6172827">
        <time>2022-07-03T12:27:22Z</time>
      </trkpt>
      <trkpt lat="42.961094" lon="-1.6171957">
        <time>2022-07-03T12:36:21Z</time>
      </trkpt>
      <trkpt lat="42.961094" lon="-1.6171957">
        <time>2022-07-03T12:36:22Z</time>
      </trkpt>
      <trkpt lat="42.961143" lon="-1.6172271">
        <time>2022-07-03T12:36:31Z</time>
      </trkpt>
      <trkpt lat="42.961815" lon="-1.6160073">
        <time>2022-07-03T12:37:55Z</time>
      </trkpt>
      <trkpt lat="42.961517" lon="-1.6166687">
        <time>2022-07-03T12:38:25Z</time>
      </trkpt>
      <trkpt lat="42.960888" lon="-1.6168807">
        <time>2022-07-03T12:42:12Z</time>
      </trkpt>
      <trkpt lat="42.9608" lon="-1.6169417">
        <time>2022-07-03T12:42:29Z</time>
      </trkpt>
      <trkpt lat="42.960854" lon="-1.6169397">
        <time>2022-07-03T12:42:37Z</time>
      </trkpt>
      <trkpt lat="42.960907" lon="-1.6169521">
        <time>2022-07-03T12:42:40Z</time>
      </trkpt>
      <trkpt lat="42.96096" lon="-1.616991">
        <time>2022-07-03T12:42:43Z</time>
      </trkpt>
      <trkpt lat="42.960938" lon="-1.6170607">
        <time>2022-07-03T12:46:27Z</time>
      </trkpt>
      <trkpt lat="42.96088" lon="-1.617059">
        <time>2022-07-03T12:46:29Z</time>
      </trkpt>
      <trkpt lat="42.960808" lon="-1.6170454">
        <time>2022-07-03T12:46:31Z</time>
      </trkpt>
      <trkpt lat="42.96073" lon="-1.6170104">
        <time>2022-07-03T12:46:33Z</time>
      </trkpt>
      <trkpt lat="42.960655" lon="-1.616965">
        <time>2022-07-03T12:46:35Z</time>
      </trkpt>
      <trkpt lat="42.96057" lon="-1.6169097">
        <time>2022-07-03T12:46:37Z</time>
      </trkpt>
      <trkpt lat="42.96044" lon="-1.616819">
        <time>2022-07-03T12:46:40Z</time>
      </trkpt>
      <trkpt lat="42.9604" lon="-1.6167874">
        <time>2022-07-03T12:46:41Z</time>
      </trkpt>
      <trkpt lat="42.960308" lon="-1.616721">
        <time>2022-07-03T12:46:43Z</time>
      </trkpt>
      <trkpt lat="42.960262" lon="-1.6166917">
        <time>2022-07-03T12:46:44Z</time>
      </trkpt>
      <trkpt lat="42.960175" lon="-1.6166317">
        <time>2022-07-03T12:46:46Z</time>
      </trkpt>
      <trkpt lat="42.96013" lon="-1.6166017">
        <time>2022-07-03T12:46:47Z</time>
      </trkpt>
      <trkpt lat="42.960087" lon="-1.6165707">
        <time>2022-07-03T12:46:48Z</time>
      </trkpt>
      <trkpt lat="42.959995" lon="-1.6165078">
        <time>2022-07-03T12:46:50Z</time>
      </trkpt>
      <trkpt lat="42.959904" lon="-1.6164408">
        <time>2022-07-03T12:46:52Z</time>
      </trkpt>
      <trkpt lat="42.959854" lon="-1.6164064">
        <time>2022-07-03T12:46:53Z</time>
      </trkpt>
      <trkpt lat="42.95981" lon="-1.616371">
        <time>2022-07-03T12:46:54Z</time>
      </trkpt>
      <trkpt lat="42.959763" lon="-1.6163363">
        <time>2022-07-03T12:46:55Z</time>
      </trkpt>
      <trkpt lat="42.959717" lon="-1.6163034">
        <time>2022-07-03T12:46:56Z</time>
      </trkpt>
      <trkpt lat="42.959667" lon="-1.6162697">
        <time>2022-07-03T12:46:57Z</time>
      </trkpt>
      <trkpt lat="42.95962" lon="-1.6162398">
        <time>2022-07-03T12:46:58Z</time>
      </trkpt>
      <trkpt lat="42.959526" lon="-1.6161801">
        <time>2022-07-03T12:47:00Z</time>
      </trkpt>
      <trkpt lat="42.95948" lon="-1.6161491">
        <time>2022-07-03T12:47:01Z</time>
      </trkpt>
      <trkpt lat="42.959393" lon="-1.6160891">
        <time>2022-07-03T12:47:03Z</time>
      </trkpt>
      <trkpt lat="42.959347" lon="-1.6160594">
        <time>2022-07-03T12:47:04Z</time>
      </trkpt>
      <trkpt lat="42.95925" lon="-1.6160061">
        <time>2022-07-03T12:47:06Z</time>
      </trkpt>
      <trkpt lat="42.9592" lon="-1.6159835">
        <time>2022-07-03T12:47:07Z</time>
      </trkpt>
      <trkpt lat="42.959095" lon="-1.6159501">
        <time>2022-07-03T12:47:09Z</time>
      </trkpt>
      <trkpt lat="42.958996" lon="-1.6159317">
        <time>2022-07-03T12:47:11Z</time>
      </trkpt>
      <trkpt lat="42.95894" lon="-1.6159261">
        <time>2022-07-03T12:47:12Z</time>
      </trkpt>
      <trkpt lat="42.958878" lon="-1.6159215">
        <time>2022-07-03T12:47:13Z</time>
      </trkpt>
      <trkpt lat="42.95882" lon="-1.6159174">
        <time>2022-07-03T12:47:14Z</time>
      </trkpt>
      <trkpt lat="42.958763" lon="-1.6159132">
        <time>2022-07-03T12:47:15Z</time>
      </trkpt>
      <trkpt lat="42.958702" lon="-1.6159087">
        <time>2022-07-03T12:47:16Z</time>
      </trkpt>
      <trkpt lat="42.958645" lon="-1.6159058">
        <time>2022-07-03T12:47:17Z</time>
      </trkpt>
      <trkpt lat="42.958588" lon="-1.6159035">
        <time>2022-07-03T12:47:18Z</time>
      </trkpt>
      <trkpt lat="42.95853" lon="-1.6159022">
        <time>2022-07-03T12:47:19Z</time>
      </trkpt>
      <trkpt lat="42.95847" lon="-1.6158981">
        <time>2022-07-03T12:47:20Z</time>
      </trkpt>
      <trkpt lat="42.958412" lon="-1.6158941">
        <time>2022-07-03T12:47:21Z</time>
      </trkpt>
      <trkpt lat="42.958355" lon="-1.6158901">
        <time>2022-07-03T12:47:22Z</time>
      </trkpt>
      <trkpt lat="42.958294" lon="-1.6158864">
        <time>2022-07-03T12:47:23Z</time>
      </trkpt>
      <trkpt lat="42.958237" lon="-1.6158835">
        <time>2022-07-03T12:47:24Z</time>
      </trkpt>
      <trkpt lat="42.95818" lon="-1.6158805">
        <time>2022-07-03T12:47:25Z</time>
      </trkpt>
      <trkpt lat="42.958122" lon="-1.6158779">
        <time>2022-07-03T12:47:26Z</time>
      </trkpt>
      <trkpt lat="42.958065" lon="-1.6158758">
        <time>2022-07-03T12:47:27Z</time>
      </trkpt>
      <trkpt lat="42.958008" lon="-1.6158731">
        <time>2022-07-03T12:47:28Z</time>
      </trkpt>
      <trkpt lat="42.957954" lon="-1.6158701">
        <time>2022-07-03T12:47:29Z</time>
      </trkpt>
      <trkpt lat="42.957897" lon="-1.6158688">
        <time>2022-07-03T12:47:30Z</time>
      </trkpt>
      <trkpt lat="42.95784" lon="-1.6158679">
        <time>2022-07-03T12:47:31Z</time>
      </trkpt>
      <trkpt lat="42.957787" lon="-1.6158665">
        <time>2022-07-03T12:47:32Z</time>
      </trkpt>
      <trkpt lat="42.95773" lon="-1.6158645">
        <time>2022-07-03T12:47:33Z</time>
      </trkpt>
      <trkpt lat="42.957672" lon="-1.6158605">
        <time>2022-07-03T12:47:34Z</time>
      </trkpt>
      <trkpt lat="42.957615" lon="-1.6158562">
        <time>2022-07-03T12:47:35Z</time>
      </trkpt>
      <trkpt lat="42.957558" lon="-1.6158512">
        <time>2022-07-03T12:47:36Z</time>
      </trkpt>
      <trkpt lat="42.9575" lon="-1.6158448">
        <time>2022-07-03T12:47:37Z</time>
      </trkpt>
      <trkpt lat="42.957443" lon="-1.6158369">
        <time>2022-07-03T12:47:38Z</time>
      </trkpt>
      <trkpt lat="42.95739" lon="-1.6158272">
        <time>2022-07-03T12:47:39Z</time>
      </trkpt>
      <trkpt lat="42.957336" lon="-1.6158148">
        <time>2022-07-03T12:47:40Z</time>
      </trkpt>
      <trkpt lat="42.957287" lon="-1.6158009">
        <time>2022-07-03T12:47:41Z</time>
      </trkpt>
      <trkpt lat="42.957237" lon="-1.6157838">
        <time>2022-07-03T12:47:42Z</time>
      </trkpt>
      <trkpt lat="42.95719" lon="-1.6157665">
        <time>2022-07-03T12:47:43Z</time>
      </trkpt>
      <trkpt lat="42.9571" lon="-1.6157229">
        <time>2022-07-03T12:47:45Z</time>
      </trkpt>
      <trkpt lat="42.957058" lon="-1.6157002">
        <time>2022-07-03T12:47:46Z</time>
      </trkpt>
      <trkpt lat="42.95699" lon="-1.6156555">
        <time>2022-07-03T12:47:48Z</time>
      </trkpt>
      <trkpt lat="42.95693" lon="-1.6156142">
        <time>2022-07-03T12:47:50Z</time>
      </trkpt>
      <trkpt lat="42.956875" lon="-1.6155812">
        <time>2022-07-03T12:47:52Z</time>
      </trkpt>
      <trkpt lat="42.956814" lon="-1.6155648">
        <time>2022-07-03T12:47:54Z</time>
      </trkpt>
      <trkpt lat="42.95675" lon="-1.6155692">
        <time>2022-07-03T12:47:56Z</time>
      </trkpt>
      <trkpt lat="42.956673" lon="-1.6155832">
        <time>2022-07-03T12:47:58Z</time>
      </trkpt>
      <trkpt lat="42.95658" lon="-1.6156042">
        <time>2022-07-03T12:48:00Z</time>
      </trkpt>
      <trkpt lat="42.956486" lon="-1.6156275">
        <time>2022-07-03T12:48:02Z</time>
      </trkpt>
      <trkpt lat="42.956436" lon="-1.6156402">
        <time>2022-07-03T12:48:03Z</time>
      </trkpt>
      <trkpt lat="42.956326" lon="-1.6156632">
        <time>2022-07-03T12:48:05Z</time>
      </trkpt>
      <trkpt lat="42.95627" lon="-1.6156722">
        <time>2022-07-03T12:48:06Z</time>
      </trkpt>
      <trkpt lat="42.956207" lon="-1.6156806">
        <time>2022-07-03T12:48:07Z</time>
      </trkpt>
      <trkpt lat="42.956146" lon="-1.6156882">
        <time>2022-07-03T12:48:08Z</time>
      </trkpt>
      <trkpt lat="42.956085" lon="-1.6156962">
        <time>2022-07-03T12:48:09Z</time>
      </trkpt>
      <trkpt lat="42.95602" lon="-1.6157032">
        <time>2022-07-03T12:48:10Z</time>
      </trkpt>
      <trkpt lat="42.955956" lon="-1.6157098">
        <time>2022-07-03T12:48:11Z</time>
      </trkpt>
      <trkpt lat="42.955887" lon="-1.6157155">
        <time>2022-07-03T12:48:12Z</time>
      </trkpt>
      <trkpt lat="42.95582" lon="-1.6157205">
        <time>2022-07-03T12:48:13Z</time>
      </trkpt>
      <trkpt lat="42.95575" lon="-1.6157265">
        <time>2022-07-03T12:48:14Z</time>
      </trkpt>
      <trkpt lat="42.95568" lon="-1.6157322">
        <time>2022-07-03T12:48:15Z</time>
      </trkpt>
      <trkpt lat="42.955612" lon="-1.6157382">
        <time>2022-07-03T12:48:16Z</time>
      </trkpt>
      <trkpt lat="42.95554" lon="-1.6157435">
        <time>2022-07-03T12:48:17Z</time>
      </trkpt>
      <trkpt lat="42.95547" lon="-1.6157475">
        <time>2022-07-03T12:48:18Z</time>
      </trkpt>
      <trkpt lat="42.955402" lon="-1.6157511">
        <time>2022-07-03T12:48:19Z</time>
      </trkpt>
      <trkpt lat="42.955338" lon="-1.6157548">
        <time>2022-07-03T12:48:20Z</time>
      </trkpt>
      <trkpt lat="42.95527" lon="-1.6157578">
        <time>2022-07-03T12:48:21Z</time>
      </trkpt>
      <trkpt lat="42.9552" lon="-1.6157604">
        <time>2022-07-03T12:48:22Z</time>
      </trkpt>
      <trkpt lat="42.95513" lon="-1.6157628">
        <time>2022-07-03T12:48:23Z</time>
      </trkpt>
      <trkpt lat="42.95506" lon="-1.6157625">
        <time>2022-07-03T12:48:24Z</time>
      </trkpt>
      <trkpt lat="42.95499" lon="-1.6157601">
        <time>2022-07-03T12:48:25Z</time>
      </trkpt>
      <trkpt lat="42.95492" lon="-1.6157582">
        <time>2022-07-03T12:48:26Z</time>
      </trkpt>
      <trkpt lat="42.95485" lon="-1.6157575">
        <time>2022-07-03T12:48:27Z</time>
      </trkpt>
      <trkpt lat="42.95478" lon="-1.6157562">
        <time>2022-07-03T12:48:28Z</time>
      </trkpt>
      <trkpt lat="42.954704" lon="-1.6157548">
        <time>2022-07-03T12:48:29Z</time>
      </trkpt>
      <trkpt lat="42.95463" lon="-1.6157535">
        <time>2022-07-03T12:48:30Z</time>
      </trkpt>
      <trkpt lat="42.95456" lon="-1.6157521">
        <time>2022-07-03T12:48:31Z</time>
      </trkpt>
      <trkpt lat="42.95449" lon="-1.6157495">
        <time>2022-07-03T12:48:32Z</time>
      </trkpt>
      <trkpt lat="42.954426" lon="-1.6157465">
        <time>2022-07-03T12:48:33Z</time>
      </trkpt>
      <trkpt lat="42.954353" lon="-1.6157428">
        <time>2022-07-03T12:48:34Z</time>
      </trkpt>
      <trkpt lat="42.95428" lon="-1.6157402">
        <time>2022-07-03T12:48:35Z</time>
      </trkpt>
      <trkpt lat="42.954212" lon="-1.6157376">
        <time>2022-07-03T12:48:36Z</time>
      </trkpt>
      <trkpt lat="42.95414" lon="-1.6157352">
        <time>2022-07-03T12:48:37Z</time>
      </trkpt>
      <trkpt lat="42.95407" lon="-1.6157331">
        <time>2022-07-03T12:48:38Z</time>
      </trkpt>
      <trkpt lat="42.954002" lon="-1.6157309">
        <time>2022-07-03T12:48:39Z</time>
      </trkpt>
      <trkpt lat="42.953934" lon="-1.6157285">
        <time>2022-07-03T12:48:40Z</time>
      </trkpt>
      <trkpt lat="42.953865" lon="-1.6157275">
        <time>2022-07-03T12:48:41Z</time>
      </trkpt>
      <trkpt lat="42.9538" lon="-1.6157275">
        <time>2022-07-03T12:48:42Z</time>
      </trkpt>
      <trkpt lat="42.953735" lon="-1.6157279">
        <time>2022-07-03T12:48:43Z</time>
      </trkpt>
      <trkpt lat="42.95367" lon="-1.6157289">
        <time>2022-07-03T12:48:44Z</time>
      </trkpt>
      <trkpt lat="42.953606" lon="-1.6157305">
        <time>2022-07-03T12:48:45Z</time>
      </trkpt>
      <trkpt lat="42.953545" lon="-1.6157329">
        <time>2022-07-03T12:48:46Z</time>
      </trkpt>
      <trkpt lat="42.953487" lon="-1.6157365">
        <time>2022-07-03T12:48:47Z</time>
      </trkpt>
      <trkpt lat="42.953426" lon="-1.6157415">
        <time>2022-07-03T12:48:48Z</time>
      </trkpt>
      <trkpt lat="42.95337" lon="-1.6157475">
        <time>2022-07-03T12:48:49Z</time>
      </trkpt>
      <trkpt lat="42.95331" lon="-1.6157545">
        <time>2022-07-03T12:48:50Z</time>
      </trkpt>
      <trkpt lat="42.953247" lon="-1.6157625">
        <time>2022-07-03T12:48:51Z</time>
      </trkpt>
      <trkpt lat="42.95319" lon="-1.6157705">
        <time>2022-07-03T12:48:52Z</time>
      </trkpt>
      <trkpt lat="42.953133" lon="-1.6157795">
        <time>2022-07-03T12:48:53Z</time>
      </trkpt>
      <trkpt lat="42.95308" lon="-1.6157895">
        <time>2022-07-03T12:48:54Z</time>
      </trkpt>
      <trkpt lat="42.952984" lon="-1.6158112">
        <time>2022-07-03T12:48:56Z</time>
      </trkpt>
      <trkpt lat="42.952892" lon="-1.6158332">
        <time>2022-07-03T12:48:58Z</time>
      </trkpt>
      <trkpt lat="42.952805" lon="-1.6158602">
        <time>2022-07-03T12:49:00Z</time>
      </trkpt>
      <trkpt lat="42.952763" lon="-1.6158792">
        <time>2022-07-03T12:49:01Z</time>
      </trkpt>
      <trkpt lat="42.952675" lon="-1.6159198">
        <time>2022-07-03T12:49:03Z</time>
      </trkpt>
      <trkpt lat="42.952595" lon="-1.6159571">
        <time>2022-07-03T12:49:05Z</time>
      </trkpt>
      <trkpt lat="42.952507" lon="-1.6159958">
        <time>2022-07-03T12:49:07Z</time>
      </trkpt>
      <trkpt lat="42.952427" lon="-1.6160299">
        <time>2022-07-03T12:49:09Z</time>
      </trkpt>
      <trkpt lat="42.95234" lon="-1.6160635">
        <time>2022-07-03T12:49:11Z</time>
      </trkpt>
      <trkpt lat="42.952255" lon="-1.6160985">
        <time>2022-07-03T12:49:13Z</time>
      </trkpt>
      <trkpt lat="42.95217" lon="-1.6161351">
        <time>2022-07-03T12:49:15Z</time>
      </trkpt>
      <trkpt lat="42.95209" lon="-1.6161741">
        <time>2022-07-03T12:49:17Z</time>
      </trkpt>
      <trkpt lat="42.95201" lon="-1.6162114">
        <time>2022-07-03T12:49:19Z</time>
      </trkpt>
      <trkpt lat="42.95193" lon="-1.6162505">
        <time>2022-07-03T12:49:21Z</time>
      </trkpt>
      <trkpt lat="42.951847" lon="-1.6162962">
        <time>2022-07-03T12:49:23Z</time>
      </trkpt>
      <trkpt lat="42.951767" lon="-1.6163361">
        <time>2022-07-03T12:49:25Z</time>
      </trkpt>
      <trkpt lat="42.95168" lon="-1.6163784">
        <time>2022-07-03T12:49:27Z</time>
      </trkpt>
      <trkpt lat="42.951633" lon="-1.6163998">
        <time>2022-07-03T12:49:28Z</time>
      </trkpt>
      <trkpt lat="42.951546" lon="-1.6164404">
        <time>2022-07-03T12:49:30Z</time>
      </trkpt>
      <trkpt lat="42.951458" lon="-1.6164821">
        <time>2022-07-03T12:49:32Z</time>
      </trkpt>
      <trkpt lat="42.95141" lon="-1.6165035">
        <time>2022-07-03T12:49:33Z</time>
      </trkpt>
      <trkpt lat="42.951313" lon="-1.6165438">
        <time>2022-07-03T12:49:35Z</time>
      </trkpt>
      <trkpt lat="42.95121" lon="-1.6165835">
        <time>2022-07-03T12:49:37Z</time>
      </trkpt>
      <trkpt lat="42.951157" lon="-1.6166031">
        <time>2022-07-03T12:49:38Z</time>
      </trkpt>
      <trkpt lat="42.951107" lon="-1.6166221">
        <time>2022-07-03T12:49:39Z</time>
      </trkpt>
      <trkpt lat="42.951054" lon="-1.6166391">
        <time>2022-07-03T12:49:40Z</time>
      </trkpt>
      <trkpt lat="42.951004" lon="-1.6166548">
        <time>2022-07-03T12:49:41Z</time>
      </trkpt>
      <trkpt lat="42.95095" lon="-1.6166704">
        <time>2022-07-03T12:49:42Z</time>
      </trkpt>
      <trkpt lat="42.95089" lon="-1.6166865">
        <time>2022-07-03T12:49:43Z</time>
      </trkpt>
      <trkpt lat="42.950832" lon="-1.6167008">
        <time>2022-07-03T12:49:44Z</time>
      </trkpt>
      <trkpt lat="42.95077" lon="-1.6167138">
        <time>2022-07-03T12:49:45Z</time>
      </trkpt>
      <trkpt lat="42.950714" lon="-1.6167247">
        <time>2022-07-03T12:49:46Z</time>
      </trkpt>
      <trkpt lat="42.950657" lon="-1.6167347">
        <time>2022-07-03T12:49:47Z</time>
      </trkpt>
      <trkpt lat="42.950592" lon="-1.6167451">
        <time>2022-07-03T12:49:48Z</time>
      </trkpt>
      <trkpt lat="42.950527" lon="-1.6167524">
        <time>2022-07-03T12:49:49Z</time>
      </trkpt>
      <trkpt lat="42.95046" lon="-1.6167587">
        <time>2022-07-03T12:49:50Z</time>
      </trkpt>
      <trkpt lat="42.95039" lon="-1.6167648">
        <time>2022-07-03T12:49:51Z</time>
      </trkpt>
      <trkpt lat="42.950325" lon="-1.6167694">
        <time>2022-07-03T12:49:52Z</time>
      </trkpt>
      <trkpt lat="42.950256" lon="-1.616772">
        <time>2022-07-03T12:49:53Z</time>
      </trkpt>
      <trkpt lat="42.95018" lon="-1.6167713">
        <time>2022-07-03T12:49:54Z</time>
      </trkpt>
      <trkpt lat="42.95011" lon="-1.6167691">
        <time>2022-07-03T12:49:55Z</time>
      </trkpt>
      <trkpt lat="42.95004" lon="-1.6167648">
        <time>2022-07-03T12:49:56Z</time>
      </trkpt>
      <trkpt lat="42.949966" lon="-1.6167594">
        <time>2022-07-03T12:49:57Z</time>
      </trkpt>
      <trkpt lat="42.949886" lon="-1.6167527">
        <time>2022-07-03T12:49:58Z</time>
      </trkpt>
      <trkpt lat="42.949806" lon="-1.6167437">
        <time>2022-07-03T12:49:59Z</time>
      </trkpt>
      <trkpt lat="42.949722" lon="-1.6167331">
        <time>2022-07-03T12:50:00Z</time>
      </trkpt>
      <trkpt lat="42.94964" lon="-1.6167225">
        <time>2022-07-03T12:50:01Z</time>
      </trkpt>
      <trkpt lat="42.94955" lon="-1.616708">
        <time>2022-07-03T12:50:02Z</time>
      </trkpt>
      <trkpt lat="42.949467" lon="-1.6166908">
        <time>2022-07-03T12:50:03Z</time>
      </trkpt>
      <trkpt lat="42.949383" lon="-1.6166701">
        <time>2022-07-03T12:50:04Z</time>
      </trkpt>
      <trkpt lat="42.949295" lon="-1.6166468">
        <time>2022-07-03T12:50:05Z</time>
      </trkpt>
      <trkpt lat="42.949215" lon="-1.6166208">
        <time>2022-07-03T12:50:06Z</time>
      </trkpt>
      <trkpt lat="42.94913" lon="-1.6165922">
        <time>2022-07-03T12:50:07Z</time>
      </trkpt>
      <trkpt lat="42.94897" lon="-1.6165301">
        <time>2022-07-03T12:50:09Z</time>
      </trkpt>
      <trkpt lat="42.948895" lon="-1.6164978">
        <time>2022-07-03T12:50:10Z</time>
      </trkpt>
      <trkpt lat="42.94882" lon="-1.6164634">
        <time>2022-07-03T12:50:11Z</time>
      </trkpt>
      <trkpt lat="42.948742" lon="-1.6164258">
        <time>2022-07-03T12:50:12Z</time>
      </trkpt>
      <trkpt lat="42.948666" lon="-1.6163841">
        <time>2022-07-03T12:50:13Z</time>
      </trkpt>
      <trkpt lat="42.94858" lon="-1.6163365">
        <time>2022-07-03T12:50:14Z</time>
      </trkpt>
      <trkpt lat="42.9485" lon="-1.6162908">
        <time>2022-07-03T12:50:15Z</time>
      </trkpt>
      <trkpt lat="42.948425" lon="-1.6162438">
        <time>2022-07-03T12:50:16Z</time>
      </trkpt>
      <trkpt lat="42.94834" lon="-1.6161915">
        <time>2022-07-03T12:50:17Z</time>
      </trkpt>
      <trkpt lat="42.948265" lon="-1.6161392">
        <time>2022-07-03T12:50:18Z</time>
      </trkpt>
      <trkpt lat="42.94818" lon="-1.6160791">
        <time>2022-07-03T12:50:19Z</time>
      </trkpt>
      <trkpt lat="42.9481" lon="-1.6160161">
        <time>2022-07-03T12:50:20Z</time>
      </trkpt>
      <trkpt lat="42.948025" lon="-1.6159508">
        <time>2022-07-03T12:50:21Z</time>
      </trkpt>
      <trkpt lat="42.947952" lon="-1.6158875">
        <time>2022-07-03T12:50:22Z</time>
      </trkpt>
      <trkpt lat="42.947876" lon="-1.6158218">
        <time>2022-07-03T12:50:23Z</time>
      </trkpt>
      <trkpt lat="42.947803" lon="-1.6157539">
        <time>2022-07-03T12:50:24Z</time>
      </trkpt>
      <trkpt lat="42.947727" lon="-1.6156769">
        <time>2022-07-03T12:50:25Z</time>
      </trkpt>
      <trkpt lat="42.947655" lon="-1.6156042">
        <time>2022-07-03T12:50:26Z</time>
      </trkpt>
      <trkpt lat="42.947582" lon="-1.6155308">
        <time>2022-07-03T12:50:27Z</time>
      </trkpt>
      <trkpt lat="42.94751" lon="-1.6154572">
        <time>2022-07-03T12:50:28Z</time>
      </trkpt>
      <trkpt lat="42.947437" lon="-1.6153828">
        <time>2022-07-03T12:50:29Z</time>
      </trkpt>
      <trkpt lat="42.947365" lon="-1.6153095">
        <time>2022-07-03T12:50:30Z</time>
      </trkpt>
      <trkpt lat="42.947292" lon="-1.6152372">
        <time>2022-07-03T12:50:31Z</time>
      </trkpt>
      <trkpt lat="42.94722" lon="-1.6151652">
        <time>2022-07-03T12:50:32Z</time>
      </trkpt>
      <trkpt lat="42.947147" lon="-1.6150951">
        <time>2022-07-03T12:50:33Z</time>
      </trkpt>
      <trkpt lat="42.947075" lon="-1.6150255">
        <time>2022-07-03T12:50:34Z</time>
      </trkpt>
      <trkpt lat="42.947006" lon="-1.6149552">
        <time>2022-07-03T12:50:35Z</time>
      </trkpt>
      <trkpt lat="42.946934" lon="-1.6148849">
        <time>2022-07-03T12:50:36Z</time>
      </trkpt>
      <trkpt lat="42.94686" lon="-1.6148125">
        <time>2022-07-03T12:50:37Z</time>
      </trkpt>
      <trkpt lat="42.946793" lon="-1.6147386">
        <time>2022-07-03T12:50:38Z</time>
      </trkpt>
      <trkpt lat="42.946724" lon="-1.6146672">
        <time>2022-07-03T12:50:39Z</time>
      </trkpt>
      <trkpt lat="42.946648" lon="-1.6145952">
        <time>2022-07-03T12:50:40Z</time>
      </trkpt>
      <trkpt lat="42.946575" lon="-1.6145235">
        <time>2022-07-03T12:50:41Z</time>
      </trkpt>
      <trkpt lat="42.946503" lon="-1.6144528">
        <time>2022-07-03T12:50:42Z</time>
      </trkpt>
      <trkpt lat="42.946434" lon="-1.6143832">
        <time>2022-07-03T12:50:43Z</time>
      </trkpt>
      <trkpt lat="42.94636" lon="-1.6143142">
        <time>2022-07-03T12:50:44Z</time>
      </trkpt>
      <trkpt lat="42.946293" lon="-1.6142452">
        <time>2022-07-03T12:50:45Z</time>
      </trkpt>
      <trkpt lat="42.94622" lon="-1.6141759">
        <time>2022-07-03T12:50:46Z</time>
      </trkpt>
      <trkpt lat="42.94615" lon="-1.6141069">
        <time>2022-07-03T12:50:47Z</time>
      </trkpt>
      <trkpt lat="42.94608" lon="-1.614039">
        <time>2022-07-03T12:50:48Z</time>
      </trkpt>
      <trkpt lat="42.94601" lon="-1.6139705">
        <time>2022-07-03T12:50:49Z</time>
      </trkpt>
      <trkpt lat="42.94594" lon="-1.6139013">
        <time>2022-07-03T12:50:50Z</time>
      </trkpt>
      <trkpt lat="42.945873" lon="-1.6138359">
        <time>2022-07-03T12:50:51Z</time>
      </trkpt>
      <trkpt lat="42.945805" lon="-1.6137682">
        <time>2022-07-03T12:50:52Z</time>
      </trkpt>
      <trkpt lat="42.945732" lon="-1.6136945">
        <time>2022-07-03T12:50:53Z</time>
      </trkpt>
      <trkpt lat="42.94566" lon="-1.6136223">
        <time>2022-07-03T12:50:54Z</time>
      </trkpt>
      <trkpt lat="42.945595" lon="-1.6135553">
        <time>2022-07-03T12:50:55Z</time>
      </trkpt>
      <trkpt lat="42.945522" lon="-1.6134822">
        <time>2022-07-03T12:50:56Z</time>
      </trkpt>
      <trkpt lat="42.945454" lon="-1.6134146">
        <time>2022-07-03T12:50:57Z</time>
      </trkpt>
      <trkpt lat="42.945385" lon="-1.6133456">
        <time>2022-07-03T12:50:58Z</time>
      </trkpt>
      <trkpt lat="42.945316" lon="-1.6132756">
        <time>2022-07-03T12:50:59Z</time>
      </trkpt>
      <trkpt lat="42.945244" lon="-1.6132046">
        <time>2022-07-03T12:51:00Z</time>
      </trkpt>
      <trkpt lat="42.94517" lon="-1.6131285">
        <time>2022-07-03T12:51:01Z</time>
      </trkpt>
      <trkpt lat="42.945103" lon="-1.6130583">
        <time>2022-07-03T12:51:02Z</time>
      </trkpt>
      <trkpt lat="42.94503" lon="-1.6129802">
        <time>2022-07-03T12:51:03Z</time>
      </trkpt>
      <trkpt lat="42.944958" lon="-1.6129019">
        <time>2022-07-03T12:51:04Z</time>
      </trkpt>
      <trkpt lat="42.944885" lon="-1.6128227">
        <time>2022-07-03T12:51:05Z</time>
      </trkpt>
      <trkpt lat="42.944813" lon="-1.6127433">
        <time>2022-07-03T12:51:06Z</time>
      </trkpt>
      <trkpt lat="42.94474" lon="-1.612664">
        <time>2022-07-03T12:51:07Z</time>
      </trkpt>
      <trkpt lat="42.94467" lon="-1.6125836">
        <time>2022-07-03T12:51:08Z</time>
      </trkpt>
      <trkpt lat="42.9446" lon="-1.6125033">
        <time>2022-07-03T12:51:09Z</time>
      </trkpt>
      <trkpt lat="42.944527" lon="-1.6124233">
        <time>2022-07-03T12:51:10Z</time>
      </trkpt>
      <trkpt lat="42.944454" lon="-1.6123433">
        <time>2022-07-03T12:51:11Z</time>
      </trkpt>
      <trkpt lat="42.94438" lon="-1.6122643">
        <time>2022-07-03T12:51:12Z</time>
      </trkpt>
      <trkpt lat="42.94431" lon="-1.6121867">
        <time>2022-07-03T12:51:13Z</time>
      </trkpt>
      <trkpt lat="42.944237" lon="-1.61211">
        <time>2022-07-03T12:51:14Z</time>
      </trkpt>
      <trkpt lat="42.94416" lon="-1.6120336">
        <time>2022-07-03T12:51:15Z</time>
      </trkpt>
      <trkpt lat="42.944088" lon="-1.6119573">
        <time>2022-07-03T12:51:16Z</time>
      </trkpt>
      <trkpt lat="42.94401" lon="-1.6118827">
        <time>2022-07-03T12:51:17Z</time>
      </trkpt>
      <trkpt lat="42.94394" lon="-1.611811">
        <time>2022-07-03T12:51:18Z</time>
      </trkpt>
      <trkpt lat="42.943787" lon="-1.6116734">
        <time>2022-07-03T12:51:20Z</time>
      </trkpt>
      <trkpt lat="42.94371" lon="-1.6116053">
        <time>2022-07-03T12:51:21Z</time>
      </trkpt>
      <trkpt lat="42.943638" lon="-1.6115377">
        <time>2022-07-03T12:51:22Z</time>
      </trkpt>
      <trkpt lat="42.943565" lon="-1.611471">
        <time>2022-07-03T12:51:23Z</time>
      </trkpt>
      <trkpt lat="42.943493" lon="-1.6114043">
        <time>2022-07-03T12:51:24Z</time>
      </trkpt>
      <trkpt lat="42.94342" lon="-1.611338">
        <time>2022-07-03T12:51:25Z</time>
      </trkpt>
      <trkpt lat="42.943348" lon="-1.611274">
        <time>2022-07-03T12:51:26Z</time>
      </trkpt>
      <trkpt lat="42.943275" lon="-1.6112124">
        <time>2022-07-03T12:51:27Z</time>
      </trkpt>
      <trkpt lat="42.943203" lon="-1.6111534">
        <time>2022-07-03T12:51:28Z</time>
      </trkpt>
      <trkpt lat="42.943127" lon="-1.6110957">
        <time>2022-07-03T12:51:29Z</time>
      </trkpt>
      <trkpt lat="42.943054" lon="-1.61104">
        <time>2022-07-03T12:51:30Z</time>
      </trkpt>
      <trkpt lat="42.942986" lon="-1.6109893">
        <time>2022-07-03T12:51:31Z</time>
      </trkpt>
      <trkpt lat="42.942913" lon="-1.610939">
        <time>2022-07-03T12:51:32Z</time>
      </trkpt>
      <trkpt lat="42.94284" lon="-1.6108894">
        <time>2022-07-03T12:51:33Z</time>
      </trkpt>
      <trkpt lat="42.94277" lon="-1.6108384">
        <time>2022-07-03T12:51:34Z</time>
      </trkpt>
      <trkpt lat="42.942696" lon="-1.6107881">
        <time>2022-07-03T12:51:35Z</time>
      </trkpt>
      <trkpt lat="42.94262" lon="-1.610738">
        <time>2022-07-03T12:51:36Z</time>
      </trkpt>
      <trkpt lat="42.942543" lon="-1.6106904">
        <time>2022-07-03T12:51:37Z</time>
      </trkpt>
      <trkpt lat="42.942463" lon="-1.610643">
        <time>2022-07-03T12:51:38Z</time>
      </trkpt>
      <trkpt lat="42.942383" lon="-1.6105964">
        <time>2022-07-03T12:51:39Z</time>
      </trkpt>
      <trkpt lat="42.9423" lon="-1.6105478">
        <time>2022-07-03T12:51:40Z</time>
      </trkpt>
      <trkpt lat="42.942215" lon="-1.610501">
        <time>2022-07-03T12:51:41Z</time>
      </trkpt>
      <trkpt lat="42.942135" lon="-1.6104574">
        <time>2022-07-03T12:51:42Z</time>
      </trkpt>
      <trkpt lat="42.942055" lon="-1.6104164">
        <time>2022-07-03T12:51:43Z</time>
      </trkpt>
      <trkpt lat="42.941982" lon="-1.61038">
        <time>2022-07-03T12:51:44Z</time>
      </trkpt>
      <trkpt lat="42.94191" lon="-1.6103448">
        <time>2022-07-03T12:51:45Z</time>
      </trkpt>
      <trkpt lat="42.941826" lon="-1.6103064">
        <time>2022-07-03T12:51:46Z</time>
      </trkpt>
      <trkpt lat="42.94175" lon="-1.6102681">
        <time>2022-07-03T12:51:47Z</time>
      </trkpt>
      <trkpt lat="42.94167" lon="-1.6102301">
        <time>2022-07-03T12:51:48Z</time>
      </trkpt>
      <trkpt lat="42.941597" lon="-1.6101928">
        <time>2022-07-03T12:51:49Z</time>
      </trkpt>
      <trkpt lat="42.94152" lon="-1.6101562">
        <time>2022-07-03T12:51:50Z</time>
      </trkpt>
      <trkpt lat="42.941452" lon="-1.6101204">
        <time>2022-07-03T12:51:51Z</time>
      </trkpt>
      <trkpt lat="42.941387" lon="-1.6100885">
        <time>2022-07-03T12:51:52Z</time>
      </trkpt>
      <trkpt lat="42.94132" lon="-1.6100554">
        <time>2022-07-03T12:51:53Z</time>
      </trkpt>
      <trkpt lat="42.941254" lon="-1.6100188">
        <time>2022-07-03T12:51:54Z</time>
      </trkpt>
      <trkpt lat="42.941185" lon="-1.6099834">
        <time>2022-07-03T12:51:55Z</time>
      </trkpt>
      <trkpt lat="42.94112" lon="-1.6099498">
        <time>2022-07-03T12:51:56Z</time>
      </trkpt>
      <trkpt lat="42.94105" lon="-1.6099185">
        <time>2022-07-03T12:51:57Z</time>
      </trkpt>
      <trkpt lat="42.940987" lon="-1.6098888">
        <time>2022-07-03T12:51:58Z</time>
      </trkpt>
      <trkpt lat="42.94092" lon="-1.6098605">
        <time>2022-07-03T12:51:59Z</time>
      </trkpt>
      <trkpt lat="42.940857" lon="-1.6098335">
        <time>2022-07-03T12:52:00Z</time>
      </trkpt>
      <trkpt lat="42.940792" lon="-1.6098065">
        <time>2022-07-03T12:52:01Z</time>
      </trkpt>
      <trkpt lat="42.94073" lon="-1.6097802">
        <time>2022-07-03T12:52:02Z</time>
      </trkpt>
      <trkpt lat="42.94067" lon="-1.6097531">
        <time>2022-07-03T12:52:03Z</time>
      </trkpt>
      <trkpt lat="42.94061" lon="-1.6097255">
        <time>2022-07-03T12:52:04Z</time>
      </trkpt>
      <trkpt lat="42.94055" lon="-1.6096985">
        <time>2022-07-03T12:52:05Z</time>
      </trkpt>
      <trkpt lat="42.940495" lon="-1.6096718">
        <time>2022-07-03T12:52:06Z</time>
      </trkpt>
      <trkpt lat="42.940434" lon="-1.6096466">
        <time>2022-07-03T12:52:07Z</time>
      </trkpt>
      <trkpt lat="42.940376" lon="-1.6096219">
        <time>2022-07-03T12:52:08Z</time>
      </trkpt>
      <trkpt lat="42.940315" lon="-1.6095952">
        <time>2022-07-03T12:52:09Z</time>
      </trkpt>
      <trkpt lat="42.94026" lon="-1.6095709">
        <time>2022-07-03T12:52:10Z</time>
      </trkpt>
      <trkpt lat="42.940205" lon="-1.6095465">
        <time>2022-07-03T12:52:11Z</time>
      </trkpt>
      <trkpt lat="42.94015" lon="-1.6095232">
        <time>2022-07-03T12:52:12Z</time>
      </trkpt>
      <trkpt lat="42.940094" lon="-1.6095018">
        <time>2022-07-03T12:52:13Z</time>
      </trkpt>
      <trkpt lat="42.94004" lon="-1.6094809">
        <time>2022-07-03T12:52:14Z</time>
      </trkpt>
      <trkpt lat="42.939987" lon="-1.6094606">
        <time>2022-07-03T12:52:15Z</time>
      </trkpt>
      <trkpt lat="42.939934" lon="-1.6094412">
        <time>2022-07-03T12:52:16Z</time>
      </trkpt>
      <trkpt lat="42.939877" lon="-1.6094218">
        <time>2022-07-03T12:52:17Z</time>
      </trkpt>
      <trkpt lat="42.93982" lon="-1.6094025">
        <time>2022-07-03T12:52:18Z</time>
      </trkpt>
      <trkpt lat="42.939766" lon="-1.6093853">
        <time>2022-07-03T12:52:19Z</time>
      </trkpt>
      <trkpt lat="42.939716" lon="-1.6093695">
        <time>2022-07-03T12:52:20Z</time>
      </trkpt>
      <trkpt lat="42.939663" lon="-1.6093532">
        <time>2022-07-03T12:52:21Z</time>
      </trkpt>
      <trkpt lat="42.93961" lon="-1.6093383">
        <time>2022-07-03T12:52:22Z</time>
      </trkpt>
      <trkpt lat="42.93956" lon="-1.6093233">
        <time>2022-07-03T12:52:23Z</time>
      </trkpt>
      <trkpt lat="42.939465" lon="-1.6092958">
        <time>2022-07-03T12:52:25Z</time>
      </trkpt>
      <trkpt lat="42.939415" lon="-1.6092823">
        <time>2022-07-03T12:52:26Z</time>
      </trkpt>
      <trkpt lat="42.93932" lon="-1.6092569">
        <time>2022-07-03T12:52:28Z</time>
      </trkpt>
      <trkpt lat="42.93927" lon="-1.6092439">
        <time>2022-07-03T12:52:29Z</time>
      </trkpt>
      <trkpt lat="42.939175" lon="-1.609219">
        <time>2022-07-03T12:52:31Z</time>
      </trkpt>
      <trkpt lat="42.939083" lon="-1.6091923">
        <time>2022-07-03T12:52:33Z</time>
      </trkpt>
      <trkpt lat="42.938984" lon="-1.6091622">
        <time>2022-07-03T12:52:35Z</time>
      </trkpt>
      <trkpt lat="42.93894" lon="-1.6091472">
        <time>2022-07-03T12:52:36Z</time>
      </trkpt>
      <trkpt lat="42.93885" lon="-1.6091202">
        <time>2022-07-03T12:52:38Z</time>
      </trkpt>
      <trkpt lat="42.938755" lon="-1.6090922">
        <time>2022-07-03T12:52:40Z</time>
      </trkpt>
      <trkpt lat="42.938713" lon="-1.6090783">
        <time>2022-07-03T12:52:41Z</time>
      </trkpt>
      <trkpt lat="42.938625" lon="-1.6090469">
        <time>2022-07-03T12:52:43Z</time>
      </trkpt>
      <trkpt lat="42.938534" lon="-1.6090146">
        <time>2022-07-03T12:52:45Z</time>
      </trkpt>
      <trkpt lat="42.938446" lon="-1.60898">
        <time>2022-07-03T12:52:47Z</time>
      </trkpt>
      <trkpt lat="42.93836" lon="-1.6089399">
        <time>2022-07-03T12:52:49Z</time>
      </trkpt>
      <trkpt lat="42.938313" lon="-1.6089202">
        <time>2022-07-03T12:52:50Z</time>
      </trkpt>
      <trkpt lat="42.93822" lon="-1.6088823">
        <time>2022-07-03T12:52:52Z</time>
      </trkpt>
      <trkpt lat="42.93818" lon="-1.6088656">
        <time>2022-07-03T12:52:53Z</time>
      </trkpt>
      <trkpt lat="42.938095" lon="-1.60883">
        <time>2022-07-03T12:52:55Z</time>
      </trkpt>
      <trkpt lat="42.938007" lon="-1.6087912">
        <time>2022-07-03T12:52:57Z</time>
      </trkpt>
      <trkpt lat="42.937927" lon="-1.6087539">
        <time>2022-07-03T12:52:59Z</time>
      </trkpt>
      <trkpt lat="42.93784" lon="-1.6087149">
        <time>2022-07-03T12:53:01Z</time>
      </trkpt>
      <trkpt lat="42.93775" lon="-1.6086767">
        <time>2022-07-03T12:53:03Z</time>
      </trkpt>
      <trkpt lat="42.93766" lon="-1.6086386">
        <time>2022-07-03T12:53:05Z</time>
      </trkpt>
      <trkpt lat="42.937565" lon="-1.6085993">
        <time>2022-07-03T12:53:07Z</time>
      </trkpt>
      <trkpt lat="42.93752" lon="-1.608578">
        <time>2022-07-03T12:53:08Z</time>
      </trkpt>
      <trkpt lat="42.937424" lon="-1.6085356">
        <time>2022-07-03T12:53:10Z</time>
      </trkpt>
      <trkpt lat="42.93737" lon="-1.6085134">
        <time>2022-07-03T12:53:11Z</time>
      </trkpt>
      <trkpt lat="42.93732" lon="-1.608492">
        <time>2022-07-03T12:53:12Z</time>
      </trkpt>
      <trkpt lat="42.937218" lon="-1.6084483">
        <time>2022-07-03T12:53:14Z</time>
      </trkpt>
      <trkpt lat="42.937172" lon="-1.6084287">
        <time>2022-07-03T12:53:15Z</time>
      </trkpt>
      <trkpt lat="42.937122" lon="-1.6084076">
        <time>2022-07-03T12:53:16Z</time>
      </trkpt>
      <trkpt lat="42.937073" lon="-1.6083857">
        <time>2022-07-03T12:53:17Z</time>
      </trkpt>
      <trkpt lat="42.93697" lon="-1.6083393">
        <time>2022-07-03T12:53:19Z</time>
      </trkpt>
      <trkpt lat="42.936916" lon="-1.6083176">
        <time>2022-07-03T12:53:20Z</time>
      </trkpt>
      <trkpt lat="42.93686" lon="-1.6082964">
        <time>2022-07-03T12:53:21Z</time>
      </trkpt>
      <trkpt lat="42.936806" lon="-1.608275">
        <time>2022-07-03T12:53:22Z</time>
      </trkpt>
      <trkpt lat="42.93674" lon="-1.608252">
        <time>2022-07-03T12:53:23Z</time>
      </trkpt>
      <trkpt lat="42.936684" lon="-1.6082304">
        <time>2022-07-03T12:53:24Z</time>
      </trkpt>
      <trkpt lat="42.936626" lon="-1.6082087">
        <time>2022-07-03T12:53:25Z</time>
      </trkpt>
      <trkpt lat="42.936565" lon="-1.6081877">
        <time>2022-07-03T12:53:26Z</time>
      </trkpt>
      <trkpt lat="42.936497" lon="-1.6081654">
        <time>2022-07-03T12:53:27Z</time>
      </trkpt>
      <trkpt lat="42.93643" lon="-1.6081444">
        <time>2022-07-03T12:53:28Z</time>
      </trkpt>
      <trkpt lat="42.936363" lon="-1.6081237">
        <time>2022-07-03T12:53:29Z</time>
      </trkpt>
      <trkpt lat="42.936295" lon="-1.6081027">
        <time>2022-07-03T12:53:30Z</time>
      </trkpt>
      <trkpt lat="42.936222" lon="-1.6080824">
        <time>2022-07-03T12:53:31Z</time>
      </trkpt>
      <trkpt lat="42.936146" lon="-1.6080647">
        <time>2022-07-03T12:53:32Z</time>
      </trkpt>
      <trkpt lat="42.936073" lon="-1.6080498">
        <time>2022-07-03T12:53:33Z</time>
      </trkpt>
      <trkpt lat="42.935997" lon="-1.6080384">
        <time>2022-07-03T12:53:34Z</time>
      </trkpt>
      <trkpt lat="42.935917" lon="-1.6080301">
        <time>2022-07-03T12:53:35Z</time>
      </trkpt>
      <trkpt lat="42.935837" lon="-1.6080227">
        <time>2022-07-03T12:53:36Z</time>
      </trkpt>
      <trkpt lat="42.935757" lon="-1.6080151">
        <time>2022-07-03T12:53:37Z</time>
      </trkpt>
      <trkpt lat="42.935665" lon="-1.6080058">
        <time>2022-07-03T12:53:38Z</time>
      </trkpt>
      <trkpt lat="42.935574" lon="-1.6079961">
        <time>2022-07-03T12:53:39Z</time>
      </trkpt>
      <trkpt lat="42.935394" lon="-1.6079804">
        <time>2022-07-03T12:53:41Z</time>
      </trkpt>
      <trkpt lat="42.935303" lon="-1.6079748">
        <time>2022-07-03T12:53:42Z</time>
      </trkpt>
      <trkpt lat="42.935204" lon="-1.6079707">
        <time>2022-07-03T12:53:43Z</time>
      </trkpt>
      <trkpt lat="42.93511" lon="-1.6079688">
        <time>2022-07-03T12:53:44Z</time>
      </trkpt>
      <trkpt lat="42.93502" lon="-1.607969">
        <time>2022-07-03T12:53:45Z</time>
      </trkpt>
      <trkpt lat="42.93493" lon="-1.6079724">
        <time>2022-07-03T12:53:46Z</time>
      </trkpt>
      <trkpt lat="42.934837" lon="-1.6079774">
        <time>2022-07-03T12:53:47Z</time>
      </trkpt>
      <trkpt lat="42.934746" lon="-1.6079854">
        <time>2022-07-03T12:53:48Z</time>
      </trkpt>
      <trkpt lat="42.93465" lon="-1.607995">
        <time>2022-07-03T12:53:49Z</time>
      </trkpt>
      <trkpt lat="42.93456" lon="-1.6080064">
        <time>2022-07-03T12:53:50Z</time>
      </trkpt>
      <trkpt lat="42.93446" lon="-1.6080204">
        <time>2022-07-03T12:53:51Z</time>
      </trkpt>
      <trkpt lat="42.93436" lon="-1.6080354">
        <time>2022-07-03T12:53:52Z</time>
      </trkpt>
      <trkpt lat="42.934254" lon="-1.6080518">
        <time>2022-07-03T12:53:53Z</time>
      </trkpt>
      <trkpt lat="42.93415" lon="-1.6080674">
        <time>2022-07-03T12:53:54Z</time>
      </trkpt>
      <trkpt lat="42.934048" lon="-1.6080817">
        <time>2022-07-03T12:53:55Z</time>
      </trkpt>
      <trkpt lat="42.933956" lon="-1.608095">
        <time>2022-07-03T12:53:56Z</time>
      </trkpt>
      <trkpt lat="42.93387" lon="-1.6081077">
        <time>2022-07-03T12:53:57Z</time>
      </trkpt>
      <trkpt lat="42.933773" lon="-1.6081214">
        <time>2022-07-03T12:53:58Z</time>
      </trkpt>
      <trkpt lat="42.933674" lon="-1.608135">
        <time>2022-07-03T12:53:59Z</time>
      </trkpt>
      <trkpt lat="42.93358" lon="-1.6081483">
        <time>2022-07-03T12:54:00Z</time>
      </trkpt>
      <trkpt lat="42.93349" lon="-1.608162">
        <time>2022-07-03T12:54:01Z</time>
      </trkpt>
      <trkpt lat="42.933403" lon="-1.6081771">
        <time>2022-07-03T12:54:02Z</time>
      </trkpt>
      <trkpt lat="42.933308" lon="-1.6081944">
        <time>2022-07-03T12:54:03Z</time>
      </trkpt>
      <trkpt lat="42.93322" lon="-1.6082116">
        <time>2022-07-03T12:54:04Z</time>
      </trkpt>
      <trkpt lat="42.93313" lon="-1.6082296">
        <time>2022-07-03T12:54:05Z</time>
      </trkpt>
      <trkpt lat="42.93305" lon="-1.6082467">
        <time>2022-07-03T12:54:06Z</time>
      </trkpt>
      <trkpt lat="42.932964" lon="-1.608264">
        <time>2022-07-03T12:54:07Z</time>
      </trkpt>
      <trkpt lat="42.93288" lon="-1.6082827">
        <time>2022-07-03T12:54:08Z</time>
      </trkpt>
      <trkpt lat="42.93279" lon="-1.608304">
        <time>2022-07-03T12:54:09Z</time>
      </trkpt>
      <trkpt lat="42.932705" lon="-1.608324">
        <time>2022-07-03T12:54:10Z</time>
      </trkpt>
      <trkpt lat="42.93262" lon="-1.6083436">
        <time>2022-07-03T12:54:11Z</time>
      </trkpt>
      <trkpt lat="42.932537" lon="-1.6083643">
        <time>2022-07-03T12:54:12Z</time>
      </trkpt>
      <trkpt lat="42.932453" lon="-1.6083846">
        <time>2022-07-03T12:54:13Z</time>
      </trkpt>
      <trkpt lat="42.932365" lon="-1.6084026">
        <time>2022-07-03T12:54:14Z</time>
      </trkpt>
      <trkpt lat="42.93228" lon="-1.608419">
        <time>2022-07-03T12:54:15Z</time>
      </trkpt>
      <trkpt lat="42.932198" lon="-1.6084343">
        <time>2022-07-03T12:54:16Z</time>
      </trkpt>
      <trkpt lat="42.93211" lon="-1.6084497">
        <time>2022-07-03T12:54:17Z</time>
      </trkpt>
      <trkpt lat="42.932026" lon="-1.608466">
        <time>2022-07-03T12:54:18Z</time>
      </trkpt>
      <trkpt lat="42.93194" lon="-1.6084846">
        <time>2022-07-03T12:54:19Z</time>
      </trkpt>
      <trkpt lat="42.931854" lon="-1.6085043">
        <time>2022-07-03T12:54:20Z</time>
      </trkpt>
      <trkpt lat="42.93177" lon="-1.6085229">
        <time>2022-07-03T12:54:21Z</time>
      </trkpt>
      <trkpt lat="42.93169" lon="-1.6085403">
        <time>2022-07-03T12:54:22Z</time>
      </trkpt>
      <trkpt lat="42.931614" lon="-1.6085587">
        <time>2022-07-03T12:54:23Z</time>
      </trkpt>
      <trkpt lat="42.931538" lon="-1.6085769">
        <time>2022-07-03T12:54:24Z</time>
      </trkpt>
      <trkpt lat="42.931458" lon="-1.6085947">
        <time>2022-07-03T12:54:25Z</time>
      </trkpt>
      <trkpt lat="42.93138" lon="-1.608612">
        <time>2022-07-03T12:54:26Z</time>
      </trkpt>
      <trkpt lat="42.931305" lon="-1.6086292">
        <time>2022-07-03T12:54:27Z</time>
      </trkpt>
      <trkpt lat="42.93123" lon="-1.6086463">
        <time>2022-07-03T12:54:28Z</time>
      </trkpt>
      <trkpt lat="42.931152" lon="-1.6086632">
        <time>2022-07-03T12:54:29Z</time>
      </trkpt>
      <trkpt lat="42.931076" lon="-1.6086793">
        <time>2022-07-03T12:54:30Z</time>
      </trkpt>
      <trkpt lat="42.931004" lon="-1.6086962">
        <time>2022-07-03T12:54:31Z</time>
      </trkpt>
      <trkpt lat="42.930927" lon="-1.6087133">
        <time>2022-07-03T12:54:32Z</time>
      </trkpt>
      <trkpt lat="42.93085" lon="-1.60873">
        <time>2022-07-03T12:54:33Z</time>
      </trkpt>
      <trkpt lat="42.930775" lon="-1.608748">
        <time>2022-07-03T12:54:34Z</time>
      </trkpt>
      <trkpt lat="42.9307" lon="-1.608766">
        <time>2022-07-03T12:54:35Z</time>
      </trkpt>
      <trkpt lat="42.93062" lon="-1.6087832">
        <time>2022-07-03T12:54:36Z</time>
      </trkpt>
      <trkpt lat="42.93054" lon="-1.608802">
        <time>2022-07-03T12:54:37Z</time>
      </trkpt>
      <trkpt lat="42.93046" lon="-1.6088185">
        <time>2022-07-03T12:54:38Z</time>
      </trkpt>
      <trkpt lat="42.930386" lon="-1.6088346">
        <time>2022-07-03T12:54:39Z</time>
      </trkpt>
      <trkpt lat="42.93031" lon="-1.6088506">
        <time>2022-07-03T12:54:40Z</time>
      </trkpt>
      <trkpt lat="42.930233" lon="-1.6088669">
        <time>2022-07-03T12:54:41Z</time>
      </trkpt>
      <trkpt lat="42.93016" lon="-1.6088833">
        <time>2022-07-03T12:54:42Z</time>
      </trkpt>
      <trkpt lat="42.930084" lon="-1.6089005">
        <time>2022-07-03T12:54:43Z</time>
      </trkpt>
      <trkpt lat="42.930008" lon="-1.6089182">
        <time>2022-07-03T12:54:44Z</time>
      </trkpt>
      <trkpt lat="42.92993" lon="-1.6089358">
        <time>2022-07-03T12:54:45Z</time>
      </trkpt>
      <trkpt lat="42.92985" lon="-1.6089529">
        <time>2022-07-03T12:54:46Z</time>
      </trkpt>
      <trkpt lat="42.929775" lon="-1.6089692">
        <time>2022-07-03T12:54:47Z</time>
      </trkpt>
      <trkpt lat="42.9297" lon="-1.6089846">
        <time>2022-07-03T12:54:48Z</time>
      </trkpt>
      <trkpt lat="42.929623" lon="-1.6089993">
        <time>2022-07-03T12:54:49Z</time>
      </trkpt>
      <trkpt lat="42.929546" lon="-1.6090145">
        <time>2022-07-03T12:54:50Z</time>
      </trkpt>
      <trkpt lat="42.92947" lon="-1.6090305">
        <time>2022-07-03T12:54:51Z</time>
      </trkpt>
      <trkpt lat="42.929394" lon="-1.6090466">
        <time>2022-07-03T12:54:52Z</time>
      </trkpt>
      <trkpt lat="42.929245" lon="-1.6090795">
        <time>2022-07-03T12:54:54Z</time>
      </trkpt>
      <trkpt lat="42.92917" lon="-1.6090958">
        <time>2022-07-03T12:54:55Z</time>
      </trkpt>
      <trkpt lat="42.929092" lon="-1.6091121">
        <time>2022-07-03T12:54:56Z</time>
      </trkpt>
      <trkpt lat="42.92902" lon="-1.6091288">
        <time>2022-07-03T12:54:57Z</time>
      </trkpt>
      <trkpt lat="42.928947" lon="-1.6091459">
        <time>2022-07-03T12:54:58Z</time>
      </trkpt>
      <trkpt lat="42.928875" lon="-1.6091628">
        <time>2022-07-03T12:54:59Z</time>
      </trkpt>
      <trkpt lat="42.928806" lon="-1.6091802">
        <time>2022-07-03T12:55:00Z</time>
      </trkpt>
      <trkpt lat="42.928734" lon="-1.6091992">
        <time>2022-07-03T12:55:01Z</time>
      </trkpt>
      <trkpt lat="42.928665" lon="-1.6092188">
        <time>2022-07-03T12:55:02Z</time>
      </trkpt>
      <trkpt lat="42.928596" lon="-1.6092402">
        <time>2022-07-03T12:55:03Z</time>
      </trkpt>
      <trkpt lat="42.928524" lon="-1.6092628">
        <time>2022-07-03T12:55:04Z</time>
      </trkpt>
      <trkpt lat="42.928455" lon="-1.6092834">
        <time>2022-07-03T12:55:05Z</time>
      </trkpt>
      <trkpt lat="42.92839" lon="-1.6093059">
        <time>2022-07-03T12:55:06Z</time>
      </trkpt>
      <trkpt lat="42.928326" lon="-1.6093291">
        <time>2022-07-03T12:55:07Z</time>
      </trkpt>
      <trkpt lat="42.928257" lon="-1.6093538">
        <time>2022-07-03T12:55:08Z</time>
      </trkpt>
      <trkpt lat="42.928192" lon="-1.6093798">
        <time>2022-07-03T12:55:09Z</time>
      </trkpt>
      <trkpt lat="42.928127" lon="-1.6094068">
        <time>2022-07-03T12:55:10Z</time>
      </trkpt>
      <trkpt lat="42.928062" lon="-1.6094351">
        <time>2022-07-03T12:55:11Z</time>
      </trkpt>
      <trkpt lat="42.927998" lon="-1.6094631">
        <time>2022-07-03T12:55:12Z</time>
      </trkpt>
      <trkpt lat="42.927933" lon="-1.6094922">
        <time>2022-07-03T12:55:13Z</time>
      </trkpt>
      <trkpt lat="42.92787" lon="-1.6095217">
        <time>2022-07-03T12:55:14Z</time>
      </trkpt>
      <trkpt lat="42.92781" lon="-1.6095525">
        <time>2022-07-03T12:55:15Z</time>
      </trkpt>
      <trkpt lat="42.927753" lon="-1.6095837">
        <time>2022-07-03T12:55:16Z</time>
      </trkpt>
      <trkpt lat="42.927696" lon="-1.6096151">
        <time>2022-07-03T12:55:17Z</time>
      </trkpt>
      <trkpt lat="42.92764" lon="-1.6096464">
        <time>2022-07-03T12:55:18Z</time>
      </trkpt>
      <trkpt lat="42.927586" lon="-1.6096774">
        <time>2022-07-03T12:55:19Z</time>
      </trkpt>
      <trkpt lat="42.92753" lon="-1.6097081">
        <time>2022-07-03T12:55:20Z</time>
      </trkpt>
      <trkpt lat="42.92748" lon="-1.6097391">
        <time>2022-07-03T12:55:21Z</time>
      </trkpt>
      <trkpt lat="42.92743" lon="-1.6097708">
        <time>2022-07-03T12:55:22Z</time>
      </trkpt>
      <trkpt lat="42.92738" lon="-1.6098025">
        <time>2022-07-03T12:55:23Z</time>
      </trkpt>
      <trkpt lat="42.92733" lon="-1.6098344">
        <time>2022-07-03T12:55:24Z</time>
      </trkpt>
      <trkpt lat="42.927284" lon="-1.6098664">
        <time>2022-07-03T12:55:25Z</time>
      </trkpt>
      <trkpt lat="42.927235" lon="-1.6098984">
        <time>2022-07-03T12:55:26Z</time>
      </trkpt>
      <trkpt lat="42.92719" lon="-1.60993">
        <time>2022-07-03T12:55:27Z</time>
      </trkpt>
      <trkpt lat="42.927143" lon="-1.6099604">
        <time>2022-07-03T12:55:28Z</time>
      </trkpt>
      <trkpt lat="42.927055" lon="-1.6100221">
        <time>2022-07-03T12:55:30Z</time>
      </trkpt>
      <trkpt lat="42.92697" lon="-1.6100857">
        <time>2022-07-03T12:55:32Z</time>
      </trkpt>
      <trkpt lat="42.92689" lon="-1.6101501">
        <time>2022-07-03T12:55:34Z</time>
      </trkpt>
      <trkpt lat="42.92681" lon="-1.6102147">
        <time>2022-07-03T12:55:36Z</time>
      </trkpt>
      <trkpt lat="42.926735" lon="-1.6102804">
        <time>2022-07-03T12:55:38Z</time>
      </trkpt>
      <trkpt lat="42.92666" lon="-1.610344">
        <time>2022-07-03T12:55:40Z</time>
      </trkpt>
      <trkpt lat="42.926586" lon="-1.6104103">
        <time>2022-07-03T12:55:42Z</time>
      </trkpt>
      <trkpt lat="42.926514" lon="-1.610478">
        <time>2022-07-03T12:55:44Z</time>
      </trkpt>
      <trkpt lat="42.926445" lon="-1.610548">
        <time>2022-07-03T12:55:46Z</time>
      </trkpt>
      <trkpt lat="42.926373" lon="-1.610617">
        <time>2022-07-03T12:55:48Z</time>
      </trkpt>
      <trkpt lat="42.926304" lon="-1.6106861">
        <time>2022-07-03T12:55:50Z</time>
      </trkpt>
      <trkpt lat="42.926235" lon="-1.6107584">
        <time>2022-07-03T12:55:52Z</time>
      </trkpt>
      <trkpt lat="42.926167" lon="-1.6108327">
        <time>2022-07-03T12:55:54Z</time>
      </trkpt>
      <trkpt lat="42.926098" lon="-1.6109077">
        <time>2022-07-03T12:55:56Z</time>
      </trkpt>
      <trkpt lat="42.92603" lon="-1.6109864">
        <time>2022-07-03T12:55:58Z</time>
      </trkpt>
      <trkpt lat="42.925964" lon="-1.61106">
        <time>2022-07-03T12:56:00Z</time>
      </trkpt>
      <trkpt lat="42.925903" lon="-1.6111374">
        <time>2022-07-03T12:56:02Z</time>
      </trkpt>
      <trkpt lat="42.925842" lon="-1.6112174">
        <time>2022-07-03T12:56:04Z</time>
      </trkpt>
      <trkpt lat="42.925777" lon="-1.611296">
        <time>2022-07-03T12:56:06Z</time>
      </trkpt>
      <trkpt lat="42.92569" lon="-1.6114177">
        <time>2022-07-03T12:56:09Z</time>
      </trkpt>
      <trkpt lat="42.92563" lon="-1.6115034">
        <time>2022-07-03T12:56:11Z</time>
      </trkpt>
      <trkpt lat="42.92557" lon="-1.6115936">
        <time>2022-07-03T12:56:13Z</time>
      </trkpt>
      <trkpt lat="42.925514" lon="-1.611689">
        <time>2022-07-03T12:56:15Z</time>
      </trkpt>
      <trkpt lat="42.925457" lon="-1.6117883">
        <time>2022-07-03T12:56:17Z</time>
      </trkpt>
      <trkpt lat="42.925396" lon="-1.6118933">
        <time>2022-07-03T12:56:19Z</time>
      </trkpt>
      <trkpt lat="42.925335" lon="-1.6120043">
        <time>2022-07-03T12:56:21Z</time>
      </trkpt>
      <trkpt lat="42.9253" lon="-1.6120616">
        <time>2022-07-03T12:56:22Z</time>
      </trkpt>
      <trkpt lat="42.925236" lon="-1.61218">
        <time>2022-07-03T12:56:24Z</time>
      </trkpt>
      <trkpt lat="42.9252" lon="-1.6122403">
        <time>2022-07-03T12:56:25Z</time>
      </trkpt>
      <trkpt lat="42.92517" lon="-1.6123013">
        <time>2022-07-03T12:56:26Z</time>
      </trkpt>
      <trkpt lat="42.925137" lon="-1.612363">
        <time>2022-07-03T12:56:27Z</time>
      </trkpt>
      <trkpt lat="42.925102" lon="-1.6124246">
        <time>2022-07-03T12:56:28Z</time>
      </trkpt>
      <trkpt lat="42.925068" lon="-1.6124877">
        <time>2022-07-03T12:56:29Z</time>
      </trkpt>
      <trkpt lat="42.925034" lon="-1.6125517">
        <time>2022-07-03T12:56:30Z</time>
      </trkpt>
      <trkpt lat="42.925" lon="-1.612617">
        <time>2022-07-03T12:56:31Z</time>
      </trkpt>
      <trkpt lat="42.92497" lon="-1.6126833">
        <time>2022-07-03T12:56:32Z</time>
      </trkpt>
      <trkpt lat="42.924934" lon="-1.6127512">
        <time>2022-07-03T12:56:33Z</time>
      </trkpt>
      <trkpt lat="42.9249" lon="-1.6128193">
        <time>2022-07-03T12:56:34Z</time>
      </trkpt>
      <trkpt lat="42.924862" lon="-1.6128926">
        <time>2022-07-03T12:56:35Z</time>
      </trkpt>
      <trkpt lat="42.924828" lon="-1.6129603">
        <time>2022-07-03T12:56:36Z</time>
      </trkpt>
      <trkpt lat="42.924793" lon="-1.6130286">
        <time>2022-07-03T12:56:37Z</time>
      </trkpt>
      <trkpt lat="42.92476" lon="-1.6131016">
        <time>2022-07-03T12:56:38Z</time>
      </trkpt>
      <trkpt lat="42.92472" lon="-1.6131723">
        <time>2022-07-03T12:56:39Z</time>
      </trkpt>
      <trkpt lat="42.924686" lon="-1.6132419">
        <time>2022-07-03T12:56:40Z</time>
      </trkpt>
      <trkpt lat="42.924652" lon="-1.6133102">
        <time>2022-07-03T12:56:41Z</time>
      </trkpt>
      <trkpt lat="42.924614" lon="-1.6133776">
        <time>2022-07-03T12:56:42Z</time>
      </trkpt>
      <trkpt lat="42.92458" lon="-1.6134436">
        <time>2022-07-03T12:56:43Z</time>
      </trkpt>
      <trkpt lat="42.924545" lon="-1.6135099">
        <time>2022-07-03T12:56:44Z</time>
      </trkpt>
      <trkpt lat="42.92451" lon="-1.6135763">
        <time>2022-07-03T12:56:45Z</time>
      </trkpt>
      <trkpt lat="42.924477" lon="-1.6136422">
        <time>2022-07-03T12:56:46Z</time>
      </trkpt>
      <trkpt lat="42.924446" lon="-1.6137036">
        <time>2022-07-03T12:56:47Z</time>
      </trkpt>
      <trkpt lat="42.924408" lon="-1.6137702">
        <time>2022-07-03T12:56:48Z</time>
      </trkpt>
      <trkpt lat="42.924374" lon="-1.6138372">
        <time>2022-07-03T12:56:49Z</time>
      </trkpt>
      <trkpt lat="42.924335" lon="-1.6139039">
        <time>2022-07-03T12:56:50Z</time>
      </trkpt>
      <trkpt lat="42.9243" lon="-1.613972">
        <time>2022-07-03T12:56:51Z</time>
      </trkpt>
      <trkpt lat="42.924267" lon="-1.6140395">
        <time>2022-07-03T12:56:52Z</time>
      </trkpt>
      <trkpt lat="42.92423" lon="-1.6141078">
        <time>2022-07-03T12:56:53Z</time>
      </trkpt>
      <trkpt lat="42.924194" lon="-1.6141765">
        <time>2022-07-03T12:56:54Z</time>
      </trkpt>
      <trkpt lat="42.924156" lon="-1.6142462">
        <time>2022-07-03T12:56:55Z</time>
      </trkpt>
      <trkpt lat="42.92412" lon="-1.6143155">
        <time>2022-07-03T12:56:56Z</time>
      </trkpt>
      <trkpt lat="42.924088" lon="-1.6143832">
        <time>2022-07-03T12:56:57Z</time>
      </trkpt>
      <trkpt lat="42.92405" lon="-1.6144508">
        <time>2022-07-03T12:56:58Z</time>
      </trkpt>
      <trkpt lat="42.924015" lon="-1.6145176">
        <time>2022-07-03T12:56:59Z</time>
      </trkpt>
      <trkpt lat="42.92398" lon="-1.6145835">
        <time>2022-07-03T12:57:00Z</time>
      </trkpt>
      <trkpt lat="42.923946" lon="-1.6146482">
        <time>2022-07-03T12:57:01Z</time>
      </trkpt>
      <trkpt lat="42.92391" lon="-1.6147119">
        <time>2022-07-03T12:57:02Z</time>
      </trkpt>
      <trkpt lat="42.923874" lon="-1.6147742">
        <time>2022-07-03T12:57:03Z</time>
      </trkpt>
      <trkpt lat="42.92384" lon="-1.6148359">
        <time>2022-07-03T12:57:04Z</time>
      </trkpt>
      <trkpt lat="42.9238" lon="-1.6148965">
        <time>2022-07-03T12:57:05Z</time>
      </trkpt>
      <trkpt lat="42.923763" lon="-1.6149565">
        <time>2022-07-03T12:57:06Z</time>
      </trkpt>
      <trkpt lat="42.923725" lon="-1.6150159">
        <time>2022-07-03T12:57:07Z</time>
      </trkpt>
      <trkpt lat="42.923687" lon="-1.6150749">
        <time>2022-07-03T12:57:08Z</time>
      </trkpt>
      <trkpt lat="42.92365" lon="-1.6151328">
        <time>2022-07-03T12:57:09Z</time>
      </trkpt>
      <trkpt lat="42.923607" lon="-1.6151878">
        <time>2022-07-03T12:57:10Z</time>
      </trkpt>
      <trkpt lat="42.923565" lon="-1.6152488">
        <time>2022-07-03T12:57:11Z</time>
      </trkpt>
      <trkpt lat="42.923523" lon="-1.6153108">
        <time>2022-07-03T12:57:12Z</time>
      </trkpt>
      <trkpt lat="42.923477" lon="-1.6153725">
        <time>2022-07-03T12:57:13Z</time>
      </trkpt>
      <trkpt lat="42.923435" lon="-1.6154292">
        <time>2022-07-03T12:57:14Z</time>
      </trkpt>
      <trkpt lat="42.923347" lon="-1.6155428">
        <time>2022-07-03T12:57:16Z</time>
      </trkpt>
      <trkpt lat="42.923298" lon="-1.6156014">
        <time>2022-07-03T12:57:17Z</time>
      </trkpt>
      <trkpt lat="42.923252" lon="-1.6156582">
        <time>2022-07-03T12:57:18Z</time>
      </trkpt>
      <trkpt lat="42.923206" lon="-1.6157098">
        <time>2022-07-03T12:57:19Z</time>
      </trkpt>
      <trkpt lat="42.923157" lon="-1.6157641">
        <time>2022-07-03T12:57:20Z</time>
      </trkpt>
      <trkpt lat="42.92311" lon="-1.6158165">
        <time>2022-07-03T12:57:21Z</time>
      </trkpt>
      <trkpt lat="42.92306" lon="-1.6158681">
        <time>2022-07-03T12:57:22Z</time>
      </trkpt>
      <trkpt lat="42.923016" lon="-1.6159174">
        <time>2022-07-03T12:57:23Z</time>
      </trkpt>
      <trkpt lat="42.92297" lon="-1.6159644">
        <time>2022-07-03T12:57:24Z</time>
      </trkpt>
      <trkpt lat="42.922924" lon="-1.6160097">
        <time>2022-07-03T12:57:25Z</time>
      </trkpt>
      <trkpt lat="42.92288" lon="-1.6160537">
        <time>2022-07-03T12:57:26Z</time>
      </trkpt>
      <trkpt lat="42.922832" lon="-1.6160954">
        <time>2022-07-03T12:57:27Z</time>
      </trkpt>
      <trkpt lat="42.92279" lon="-1.6161348">
        <time>2022-07-03T12:57:28Z</time>
      </trkpt>
      <trkpt lat="42.922745" lon="-1.6161717">
        <time>2022-07-03T12:57:29Z</time>
      </trkpt>
      <trkpt lat="42.922703" lon="-1.6162064">
        <time>2022-07-03T12:57:30Z</time>
      </trkpt>
      <trkpt lat="42.92266" lon="-1.6162394">
        <time>2022-07-03T12:57:31Z</time>
      </trkpt>
      <trkpt lat="42.92258" lon="-1.6163001">
        <time>2022-07-03T12:57:33Z</time>
      </trkpt>
      <trkpt lat="42.92251" lon="-1.6163517">
        <time>2022-07-03T12:57:35Z</time>
      </trkpt>
      <trkpt lat="42.922436" lon="-1.6164007">
        <time>2022-07-03T12:57:37Z</time>
      </trkpt>
      <trkpt lat="42.92237" lon="-1.6164451">
        <time>2022-07-03T12:57:39Z</time>
      </trkpt>
      <trkpt lat="42.922306" lon="-1.6164894">
        <time>2022-07-03T12:57:41Z</time>
      </trkpt>
      <trkpt lat="42.922245" lon="-1.6165274">
        <time>2022-07-03T12:57:43Z</time>
      </trkpt>
      <trkpt lat="42.92219" lon="-1.6165597">
        <time>2022-07-03T12:57:45Z</time>
      </trkpt>
      <trkpt lat="42.922134" lon="-1.6165928">
        <time>2022-07-03T12:57:47Z</time>
      </trkpt>
      <trkpt lat="42.922085" lon="-1.6166251">
        <time>2022-07-03T12:57:49Z</time>
      </trkpt>
      <trkpt lat="42.922035" lon="-1.6166544">
        <time>2022-07-03T12:57:51Z</time>
      </trkpt>
      <trkpt lat="42.921986" lon="-1.6166813">
        <time>2022-07-03T12:57:53Z</time>
      </trkpt>
      <trkpt lat="42.921936" lon="-1.6167051">
        <time>2022-07-03T12:57:55Z</time>
      </trkpt>
      <trkpt lat="42.92189" lon="-1.616729">
        <time>2022-07-03T12:57:57Z</time>
      </trkpt>
      <trkpt lat="42.92182" lon="-1.6167676">
        <time>2022-07-03T12:58:00Z</time>
      </trkpt>
      <trkpt lat="42.921776" lon="-1.616793">
        <time>2022-07-03T12:58:02Z</time>
      </trkpt>
      <trkpt lat="42.9217" lon="-1.6168257">
        <time>2022-07-03T12:58:05Z</time>
      </trkpt>
      <trkpt lat="42.92165" lon="-1.6168467">
        <time>2022-07-03T12:58:07Z</time>
      </trkpt>
      <trkpt lat="42.921597" lon="-1.6168687">
        <time>2022-07-03T12:58:09Z</time>
      </trkpt>
      <trkpt lat="42.921547" lon="-1.6168927">
        <time>2022-07-03T12:58:11Z</time>
      </trkpt>
      <trkpt lat="42.921497" lon="-1.6169157">
        <time>2022-07-03T12:58:13Z</time>
      </trkpt>
      <trkpt lat="42.921448" lon="-1.6169367">
        <time>2022-07-03T12:58:15Z</time>
      </trkpt>
      <trkpt lat="42.92138" lon="-1.6169637">
        <time>2022-07-03T12:58:18Z</time>
      </trkpt>
      <trkpt lat="42.921314" lon="-1.6169914">
        <time>2022-07-03T12:58:21Z</time>
      </trkpt>
      <trkpt lat="42.92125" lon="-1.6170133">
        <time>2022-07-03T12:58:24Z</time>
      </trkpt>
      <trkpt lat="42.92118" lon="-1.6170354">
        <time>2022-07-03T12:58:27Z</time>
      </trkpt>
      <trkpt lat="42.921116" lon="-1.6170557">
        <time>2022-07-03T12:58:30Z</time>
      </trkpt>
      <trkpt lat="42.921055" lon="-1.6170697">
        <time>2022-07-03T12:58:33Z</time>
      </trkpt>
      <trkpt lat="42.920986" lon="-1.6170794">
        <time>2022-07-03T12:58:36Z</time>
      </trkpt>
      <trkpt lat="42.920914" lon="-1.61709">
        <time>2022-07-03T12:58:39Z</time>
      </trkpt>
      <trkpt lat="42.920853" lon="-1.6171037">
        <time>2022-07-03T12:58:42Z</time>
      </trkpt>
      <trkpt lat="42.920788" lon="-1.617112">
        <time>2022-07-03T12:58:45Z</time>
      </trkpt>
      <trkpt lat="42.920727" lon="-1.6171173">
        <time>2022-07-03T12:58:48Z</time>
      </trkpt>
      <trkpt lat="42.920662" lon="-1.6171219">
        <time>2022-07-03T12:58:51Z</time>
      </trkpt>
      <trkpt lat="42.920597" lon="-1.6171273">
        <time>2022-07-03T12:58:54Z</time>
      </trkpt>
      <trkpt lat="42.92053" lon="-1.6171327">
        <time>2022-07-03T12:58:57Z</time>
      </trkpt>
      <trkpt lat="42.920464" lon="-1.6171412">
        <time>2022-07-03T12:59:00Z</time>
      </trkpt>
      <trkpt lat="42.9204" lon="-1.6171486">
        <time>2022-07-03T12:59:03Z</time>
      </trkpt>
      <trkpt lat="42.920334" lon="-1.6171523">
        <time>2022-07-03T12:59:06Z</time>
      </trkpt>
      <trkpt lat="42.920265" lon="-1.6171523">
        <time>2022-07-03T12:59:09Z</time>
      </trkpt>
      <trkpt lat="42.920197" lon="-1.6171507">
        <time>2022-07-03T12:59:12Z</time>
      </trkpt>
      <trkpt lat="42.920147" lon="-1.6171486">
        <time>2022-07-03T12:59:14Z</time>
      </trkpt>
      <trkpt lat="42.920082" lon="-1.6171507">
        <time>2022-07-03T12:59:17Z</time>
      </trkpt>
      <trkpt lat="42.920013" lon="-1.617146">
        <time>2022-07-03T12:59:20Z</time>
      </trkpt>
      <trkpt lat="42.91995" lon="-1.6171377">
        <time>2022-07-03T12:59:23Z</time>
      </trkpt>
      <trkpt lat="42.91988" lon="-1.6171283">
        <time>2022-07-03T12:59:26Z</time>
      </trkpt>
      <trkpt lat="42.919834" lon="-1.6171223">
        <time>2022-07-03T12:59:28Z</time>
      </trkpt>
      <trkpt lat="42.91976" lon="-1.6171113">
        <time>2022-07-03T12:59:31Z</time>
      </trkpt>
      <trkpt lat="42.919716" lon="-1.6171083">
        <time>2022-07-03T12:59:35Z</time>
      </trkpt>
      <trkpt lat="42.91964" lon="-1.6170957">
        <time>2022-07-03T13:00:05Z</time>
      </trkpt>
      <trkpt lat="42.919582" lon="-1.617082">
        <time>2022-07-03T13:00:07Z</time>
      </trkpt>
      <trkpt lat="42.919506" lon="-1.617062">
        <time>2022-07-03T13:00:09Z</time>
      </trkpt>
      <trkpt lat="42.91941" lon="-1.6170326">
        <time>2022-07-03T13:00:11Z</time>
      </trkpt>
      <trkpt lat="42.919357" lon="-1.617014">
        <time>2022-07-03T13:00:12Z</time>
      </trkpt>
      <trkpt lat="42.919296" lon="-1.6169937">
        <time>2022-07-03T13:00:13Z</time>
      </trkpt>
      <trkpt lat="42.91923" lon="-1.6169707">
        <time>2022-07-03T13:00:14Z</time>
      </trkpt>
      <trkpt lat="42.91917" lon="-1.616945">
        <time>2022-07-03T13:00:15Z</time>
      </trkpt>
      <trkpt lat="42.919106" lon="-1.6169157">
        <time>2022-07-03T13:00:16Z</time>
      </trkpt>
      <trkpt lat="42.91904" lon="-1.6168857">
        <time>2022-07-03T13:00:17Z</time>
      </trkpt>
      <trkpt lat="42.91898" lon="-1.616857">
        <time>2022-07-03T13:00:18Z</time>
      </trkpt>
      <trkpt lat="42.918922" lon="-1.616833">
        <time>2022-07-03T13:00:19Z</time>
      </trkpt>
      <trkpt lat="42.918865" lon="-1.6168137">
        <time>2022-07-03T13:00:20Z</time>
      </trkpt>
      <trkpt lat="42.918808" lon="-1.6168007">
        <time>2022-07-03T13:00:21Z</time>
      </trkpt>
      <trkpt lat="42.918755" lon="-1.616793">
        <time>2022-07-03T13:00:22Z</time>
      </trkpt>
      <trkpt lat="42.918697" lon="-1.6167917">
        <time>2022-07-03T13:00:23Z</time>
      </trkpt>
      <trkpt lat="42.918644" lon="-1.616796">
        <time>2022-07-03T13:00:24Z</time>
      </trkpt>
      <trkpt lat="42.91859" lon="-1.616809">
        <time>2022-07-03T13:00:25Z</time>
      </trkpt>
      <trkpt lat="42.91854" lon="-1.6168311">
        <time>2022-07-03T13:00:26Z</time>
      </trkpt>
      <trkpt lat="42.918446" lon="-1.6168953">
        <time>2022-07-03T13:00:28Z</time>
      </trkpt>
      <trkpt lat="42.918396" lon="-1.6169337">
        <time>2022-07-03T13:00:29Z</time>
      </trkpt>
      <trkpt lat="42.918346" lon="-1.616974">
        <time>2022-07-03T13:00:30Z</time>
      </trkpt>
      <trkpt lat="42.918293" lon="-1.6170157">
        <time>2022-07-03T13:00:31Z</time>
      </trkpt>
      <trkpt lat="42.918243" lon="-1.6170553">
        <time>2022-07-03T13:00:32Z</time>
      </trkpt>
      <trkpt lat="42.918186" lon="-1.6171007">
        <time>2022-07-03T13:00:33Z</time>
      </trkpt>
      <trkpt lat="42.918125" lon="-1.6171473">
        <time>2022-07-03T13:00:34Z</time>
      </trkpt>
      <trkpt lat="42.918064" lon="-1.617193">
        <time>2022-07-03T13:00:35Z</time>
      </trkpt>
      <trkpt lat="42.918003" lon="-1.6172377">
        <time>2022-07-03T13:00:36Z</time>
      </trkpt>
      <trkpt lat="42.91794" lon="-1.6172813">
        <time>2022-07-03T13:00:37Z</time>
      </trkpt>
      <trkpt lat="42.91787" lon="-1.6173223">
        <time>2022-07-03T13:00:38Z</time>
      </trkpt>
      <trkpt lat="42.9178" lon="-1.61736">
        <time>2022-07-03T13:00:39Z</time>
      </trkpt>
      <trkpt lat="42.917732" lon="-1.617397">
        <time>2022-07-03T13:00:40Z</time>
      </trkpt>
      <trkpt lat="42.917656" lon="-1.6174303">
        <time>2022-07-03T13:00:41Z</time>
      </trkpt>
      <trkpt lat="42.917576" lon="-1.617463">
        <time>2022-07-03T13:00:42Z</time>
      </trkpt>
      <trkpt lat="42.917496" lon="-1.6174912">
        <time>2022-07-03T13:00:43Z</time>
      </trkpt>
      <trkpt lat="42.917328" lon="-1.6175356">
        <time>2022-07-03T13:00:45Z</time>
      </trkpt>
      <trkpt lat="42.91724" lon="-1.6175519">
        <time>2022-07-03T13:00:46Z</time>
      </trkpt>
      <trkpt lat="42.91715" lon="-1.6175653">
        <time>2022-07-03T13:00:47Z</time>
      </trkpt>
      <trkpt lat="42.917057" lon="-1.6175779">
        <time>2022-07-03T13:00:48Z</time>
      </trkpt>
      <trkpt lat="42.91696" lon="-1.6175939">
        <time>2022-07-03T13:00:49Z</time>
      </trkpt>
      <trkpt lat="42.91687" lon="-1.6176143">
        <time>2022-07-03T13:00:50Z</time>
      </trkpt>
      <trkpt lat="42.916775" lon="-1.617641">
        <time>2022-07-03T13:00:51Z</time>
      </trkpt>
      <trkpt lat="42.916683" lon="-1.6176686">
        <time>2022-07-03T13:00:52Z</time>
      </trkpt>
      <trkpt lat="42.91659" lon="-1.6176922">
        <time>2022-07-03T13:00:53Z</time>
      </trkpt>
      <trkpt lat="42.9165" lon="-1.617708">
        <time>2022-07-03T13:00:54Z</time>
      </trkpt>
      <trkpt lat="42.916412" lon="-1.617716">
        <time>2022-07-03T13:00:55Z</time>
      </trkpt>
      <trkpt lat="42.91633" lon="-1.6177162">
        <time>2022-07-03T13:00:56Z</time>
      </trkpt>
      <trkpt lat="42.91625" lon="-1.6177106">
        <time>2022-07-03T13:00:57Z</time>
      </trkpt>
      <trkpt lat="42.91618" lon="-1.617703">
        <time>2022-07-03T13:00:58Z</time>
      </trkpt>
      <trkpt lat="42.916115" lon="-1.617693">
        <time>2022-07-03T13:00:59Z</time>
      </trkpt>
      <trkpt lat="42.916054" lon="-1.6176816">
        <time>2022-07-03T13:01:00Z</time>
      </trkpt>
      <trkpt lat="42.915997" lon="-1.6176703">
        <time>2022-07-03T13:01:01Z</time>
      </trkpt>
      <trkpt lat="42.915936" lon="-1.6176592">
        <time>2022-07-03T13:01:02Z</time>
      </trkpt>
      <trkpt lat="42.915886" lon="-1.6176499">
        <time>2022-07-03T13:01:03Z</time>
      </trkpt>
      <trkpt lat="42.915787" lon="-1.6176323">
        <time>2022-07-03T13:01:05Z</time>
      </trkpt>
      <trkpt lat="42.91574" lon="-1.6176239">
        <time>2022-07-03T13:01:06Z</time>
      </trkpt>
      <trkpt lat="42.915657" lon="-1.6176083">
        <time>2022-07-03T13:01:08Z</time>
      </trkpt>
      <trkpt lat="42.915573" lon="-1.6175903">
        <time>2022-07-03T13:01:10Z</time>
      </trkpt>
      <trkpt lat="42.91549" lon="-1.617572">
        <time>2022-07-03T13:01:12Z</time>
      </trkpt>
      <trkpt lat="42.915382" lon="-1.6175543">
        <time>2022-07-03T13:01:15Z</time>
      </trkpt>
      <trkpt lat="42.915333" lon="-1.6175467">
        <time>2022-07-03T13:01:16Z</time>
      </trkpt>
      <trkpt lat="42.915237" lon="-1.61753">
        <time>2022-07-03T13:01:18Z</time>
      </trkpt>
      <trkpt lat="42.915142" lon="-1.6175109">
        <time>2022-07-03T13:01:20Z</time>
      </trkpt>
      <trkpt lat="42.915096" lon="-1.6175013">
        <time>2022-07-03T13:01:21Z</time>
      </trkpt>
      <trkpt lat="42.914997" lon="-1.617482">
        <time>2022-07-03T13:01:23Z</time>
      </trkpt>
      <trkpt lat="42.914948" lon="-1.61747">
        <time>2022-07-03T13:01:24Z</time>
      </trkpt>
      <trkpt lat="42.91485" lon="-1.617444">
        <time>2022-07-03T13:01:26Z</time>
      </trkpt>
      <trkpt lat="42.914795" lon="-1.6174303">
        <time>2022-07-03T13:01:27Z</time>
      </trkpt>
      <trkpt lat="42.91474" lon="-1.6174166">
        <time>2022-07-03T13:01:28Z</time>
      </trkpt>
      <trkpt lat="42.91469" lon="-1.6174036">
        <time>2022-07-03T13:01:29Z</time>
      </trkpt>
      <trkpt lat="42.914635" lon="-1.6173927">
        <time>2022-07-03T13:01:30Z</time>
      </trkpt>
      <trkpt lat="42.914577" lon="-1.6173834">
        <time>2022-07-03T13:01:31Z</time>
      </trkpt>
      <trkpt lat="42.914524" lon="-1.6173743">
        <time>2022-07-03T13:01:32Z</time>
      </trkpt>
      <trkpt lat="42.914463" lon="-1.6173643">
        <time>2022-07-03T13:01:33Z</time>
      </trkpt>
      <trkpt lat="42.914406" lon="-1.6173543">
        <time>2022-07-03T13:01:34Z</time>
      </trkpt>
      <trkpt lat="42.91435" lon="-1.6173437">
        <time>2022-07-03T13:01:35Z</time>
      </trkpt>
      <trkpt lat="42.91429" lon="-1.6173333">
        <time>2022-07-03T13:01:36Z</time>
      </trkpt>
      <trkpt lat="42.914238" lon="-1.6173227">
        <time>2022-07-03T13:01:37Z</time>
      </trkpt>
      <trkpt lat="42.91418" lon="-1.6173093">
        <time>2022-07-03T13:01:38Z</time>
      </trkpt>
      <trkpt lat="42.914124" lon="-1.617295">
        <time>2022-07-03T13:01:39Z</time>
      </trkpt>
      <trkpt lat="42.914062" lon="-1.6172804">
        <time>2022-07-03T13:01:40Z</time>
      </trkpt>
      <trkpt lat="42.914005" lon="-1.617265">
        <time>2022-07-03T13:01:41Z</time>
      </trkpt>
      <trkpt lat="42.913944" lon="-1.6172494">
        <time>2022-07-03T13:01:42Z</time>
      </trkpt>
      <trkpt lat="42.913887" lon="-1.6172343">
        <time>2022-07-03T13:01:43Z</time>
      </trkpt>
      <trkpt lat="42.913826" lon="-1.6172193">
        <time>2022-07-03T13:01:44Z</time>
      </trkpt>
      <trkpt lat="42.913765" lon="-1.617205">
        <time>2022-07-03T13:01:45Z</time>
      </trkpt>
      <trkpt lat="42.9137" lon="-1.6171911">
        <time>2022-07-03T13:01:46Z</time>
      </trkpt>
      <trkpt lat="42.913586" lon="-1.6171607">
        <time>2022-07-03T13:01:48Z</time>
      </trkpt>
      <trkpt lat="42.91353" lon="-1.6171427">
        <time>2022-07-03T13:01:49Z</time>
      </trkpt>
      <trkpt lat="42.91347" lon="-1.6171224">
        <time>2022-07-03T13:01:50Z</time>
      </trkpt>
      <trkpt lat="42.91341" lon="-1.617097">
        <time>2022-07-03T13:01:51Z</time>
      </trkpt>
      <trkpt lat="42.913307" lon="-1.6170441">
        <time>2022-07-03T13:01:53Z</time>
      </trkpt>
      <trkpt lat="42.913254" lon="-1.617014">
        <time>2022-07-03T13:01:54Z</time>
      </trkpt>
      <trkpt lat="42.9132" lon="-1.6169827">
        <time>2022-07-03T13:01:55Z</time>
      </trkpt>
      <trkpt lat="42.913147" lon="-1.6169497">
        <time>2022-07-03T13:01:56Z</time>
      </trkpt>
      <trkpt lat="42.913097" lon="-1.6169168">
        <time>2022-07-03T13:01:57Z</time>
      </trkpt>
      <trkpt lat="42.913044" lon="-1.6168841">
        <time>2022-07-03T13:01:58Z</time>
      </trkpt>
      <trkpt lat="42.912994" lon="-1.6168514">
        <time>2022-07-03T13:01:59Z</time>
      </trkpt>
      <trkpt lat="42.912945" lon="-1.6168181">
        <time>2022-07-03T13:02:00Z</time>
      </trkpt>
      <trkpt lat="42.912895" lon="-1.616785">
        <time>2022-07-03T13:02:01Z</time>
      </trkpt>
      <trkpt lat="42.912846" lon="-1.616752">
        <time>2022-07-03T13:02:02Z</time>
      </trkpt>
      <trkpt lat="42.912796" lon="-1.6167191">
        <time>2022-07-03T13:02:03Z</time>
      </trkpt>
      <trkpt lat="42.91275" lon="-1.6166874">
        <time>2022-07-03T13:02:04Z</time>
      </trkpt>
      <trkpt lat="42.9127" lon="-1.6166561">
        <time>2022-07-03T13:02:05Z</time>
      </trkpt>
      <trkpt lat="42.912655" lon="-1.6166247">
        <time>2022-07-03T13:02:06Z</time>
      </trkpt>
      <trkpt lat="42.912563" lon="-1.6165621">
        <time>2022-07-03T13:02:08Z</time>
      </trkpt>
      <trkpt lat="42.91252" lon="-1.6165328">
        <time>2022-07-03T13:02:09Z</time>
      </trkpt>
      <trkpt lat="42.912445" lon="-1.6164792">
        <time>2022-07-03T13:02:11Z</time>
      </trkpt>
      <trkpt lat="42.912384" lon="-1.6164317">
        <time>2022-07-03T13:02:13Z</time>
      </trkpt>
      <trkpt lat="42.912342" lon="-1.6163994">
        <time>2022-07-03T13:02:15Z</time>
      </trkpt>
      <trkpt lat="42.912235" lon="-1.6162868">
        <time>2022-07-03T13:03:48Z</time>
      </trkpt>
      <trkpt lat="42.912178" lon="-1.6162198">
        <time>2022-07-03T13:03:50Z</time>
      </trkpt>
      <trkpt lat="42.912113" lon="-1.6161361">
        <time>2022-07-03T13:03:52Z</time>
      </trkpt>
      <trkpt lat="42.912037" lon="-1.6160444">
        <time>2022-07-03T13:03:54Z</time>
      </trkpt>
      <trkpt lat="42.911995" lon="-1.6159958">
        <time>2022-07-03T13:03:55Z</time>
      </trkpt>
      <trkpt lat="42.911957" lon="-1.6159447">
        <time>2022-07-03T13:03:56Z</time>
      </trkpt>
      <trkpt lat="42.911915" lon="-1.6158928">
        <time>2022-07-03T13:03:57Z</time>
      </trkpt>
      <trkpt lat="42.91187" lon="-1.6158391">
        <time>2022-07-03T13:03:58Z</time>
      </trkpt>
      <trkpt lat="42.911823" lon="-1.6157838">
        <time>2022-07-03T13:03:59Z</time>
      </trkpt>
      <trkpt lat="42.911777" lon="-1.6157281">
        <time>2022-07-03T13:04:00Z</time>
      </trkpt>
      <trkpt lat="42.911728" lon="-1.6156712">
        <time>2022-07-03T13:04:01Z</time>
      </trkpt>
      <trkpt lat="42.91168" lon="-1.6156075">
        <time>2022-07-03T13:04:02Z</time>
      </trkpt>
      <trkpt lat="42.911625" lon="-1.6155429">
        <time>2022-07-03T13:04:03Z</time>
      </trkpt>
      <trkpt lat="42.911575" lon="-1.6154822">
        <time>2022-07-03T13:04:04Z</time>
      </trkpt>
      <trkpt lat="42.911526" lon="-1.6154191">
        <time>2022-07-03T13:04:05Z</time>
      </trkpt>
      <trkpt lat="42.911472" lon="-1.6153549">
        <time>2022-07-03T13:04:06Z</time>
      </trkpt>
      <trkpt lat="42.911415" lon="-1.6152885">
        <time>2022-07-03T13:04:07Z</time>
      </trkpt>
      <trkpt lat="42.911358" lon="-1.6152209">
        <time>2022-07-03T13:04:08Z</time>
      </trkpt>
      <trkpt lat="42.9113" lon="-1.6151528">
        <time>2022-07-03T13:04:09Z</time>
      </trkpt>
      <trkpt lat="42.91124" lon="-1.6150849">
        <time>2022-07-03T13:04:10Z</time>
      </trkpt>
      <trkpt lat="42.911175" lon="-1.6150168">
        <time>2022-07-03T13:04:11Z</time>
      </trkpt>
      <trkpt lat="42.911114" lon="-1.6149476">
        <time>2022-07-03T13:04:12Z</time>
      </trkpt>
      <trkpt lat="42.911045" lon="-1.6148772">
        <time>2022-07-03T13:04:13Z</time>
      </trkpt>
      <trkpt lat="42.91098" lon="-1.6148039">
        <time>2022-07-03T13:04:14Z</time>
      </trkpt>
      <trkpt lat="42.910908" lon="-1.6147225">
        <time>2022-07-03T13:04:15Z</time>
      </trkpt>
      <trkpt lat="42.910835" lon="-1.6146399">
        <time>2022-07-03T13:04:16Z</time>
      </trkpt>
      <trkpt lat="42.910763" lon="-1.6145558">
        <time>2022-07-03T13:04:17Z</time>
      </trkpt>
      <trkpt lat="42.91069" lon="-1.6144719">
        <time>2022-07-03T13:04:18Z</time>
      </trkpt>
      <trkpt lat="42.910614" lon="-1.6143866">
        <time>2022-07-03T13:04:19Z</time>
      </trkpt>
      <trkpt lat="42.910538" lon="-1.6143005">
        <time>2022-07-03T13:04:20Z</time>
      </trkpt>
      <trkpt lat="42.910465" lon="-1.6142192">
        <time>2022-07-03T13:04:21Z</time>
      </trkpt>
      <trkpt lat="42.910385" lon="-1.6141305">
        <time>2022-07-03T13:04:22Z</time>
      </trkpt>
      <trkpt lat="42.91031" lon="-1.6140492">
        <time>2022-07-03T13:04:23Z</time>
      </trkpt>
      <trkpt lat="42.91022" lon="-1.6139632">
        <time>2022-07-03T13:04:24Z</time>
      </trkpt>
      <trkpt lat="42.91014" lon="-1.6138849">
        <time>2022-07-03T13:04:25Z</time>
      </trkpt>
      <trkpt lat="42.910057" lon="-1.6138083">
        <time>2022-07-03T13:04:26Z</time>
      </trkpt>
      <trkpt lat="42.90997" lon="-1.6137313">
        <time>2022-07-03T13:04:27Z</time>
      </trkpt>
      <trkpt lat="42.909878" lon="-1.6136563">
        <time>2022-07-03T13:04:28Z</time>
      </trkpt>
      <trkpt lat="42.909782" lon="-1.6135795">
        <time>2022-07-03T13:04:29Z</time>
      </trkpt>
      <trkpt lat="42.909687" lon="-1.6135132">
        <time>2022-07-03T13:04:30Z</time>
      </trkpt>
      <trkpt lat="42.909595" lon="-1.6134512">
        <time>2022-07-03T13:04:31Z</time>
      </trkpt>
      <trkpt lat="42.909496" lon="-1.6133926">
        <time>2022-07-03T13:04:32Z</time>
      </trkpt>
      <trkpt lat="42.90939" lon="-1.6133353">
        <time>2022-07-03T13:04:33Z</time>
      </trkpt>
      <trkpt lat="42.909286" lon="-1.6132836">
        <time>2022-07-03T13:04:34Z</time>
      </trkpt>
      <trkpt lat="42.90919" lon="-1.6132382">
        <time>2022-07-03T13:04:35Z</time>
      </trkpt>
      <trkpt lat="42.909096" lon="-1.6131966">
        <time>2022-07-03T13:04:36Z</time>
      </trkpt>
      <trkpt lat="42.909" lon="-1.6131563">
        <time>2022-07-03T13:04:37Z</time>
      </trkpt>
      <trkpt lat="42.908897" lon="-1.6131196">
        <time>2022-07-03T13:04:38Z</time>
      </trkpt>
      <trkpt lat="42.9088" lon="-1.6130893">
        <time>2022-07-03T13:04:39Z</time>
      </trkpt>
      <trkpt lat="42.908707" lon="-1.6130643">
        <time>2022-07-03T13:04:40Z</time>
      </trkpt>
      <trkpt lat="42.908607" lon="-1.61304">
        <time>2022-07-03T13:04:41Z</time>
      </trkpt>
      <trkpt lat="42.908512" lon="-1.613019">
        <time>2022-07-03T13:04:42Z</time>
      </trkpt>
      <trkpt lat="42.90842" lon="-1.6129999">
        <time>2022-07-03T13:04:43Z</time>
      </trkpt>
      <trkpt lat="42.90833" lon="-1.6129823">
        <time>2022-07-03T13:04:44Z</time>
      </trkpt>
      <trkpt lat="42.90824" lon="-1.6129646">
        <time>2022-07-03T13:04:45Z</time>
      </trkpt>
      <trkpt lat="42.908157" lon="-1.6129487">
        <time>2022-07-03T13:04:46Z</time>
      </trkpt>
      <trkpt lat="42.908073" lon="-1.612934">
        <time>2022-07-03T13:04:47Z</time>
      </trkpt>
      <trkpt lat="42.90799" lon="-1.6129203">
        <time>2022-07-03T13:04:48Z</time>
      </trkpt>
      <trkpt lat="42.907833" lon="-1.612898">
        <time>2022-07-03T13:04:50Z</time>
      </trkpt>
      <trkpt lat="42.907753" lon="-1.6128896">
        <time>2022-07-03T13:04:51Z</time>
      </trkpt>
      <trkpt lat="42.907673" lon="-1.6128824">
        <time>2022-07-03T13:04:52Z</time>
      </trkpt>
      <trkpt lat="42.907597" lon="-1.6128753">
        <time>2022-07-03T13:04:53Z</time>
      </trkpt>
      <trkpt lat="42.90752" lon="-1.612869">
        <time>2022-07-03T13:04:54Z</time>
      </trkpt>
      <trkpt lat="42.907444" lon="-1.6128637">
        <time>2022-07-03T13:04:55Z</time>
      </trkpt>
      <trkpt lat="42.907368" lon="-1.6128594">
        <time>2022-07-03T13:04:56Z</time>
      </trkpt>
      <trkpt lat="42.90729" lon="-1.612857">
        <time>2022-07-03T13:04:57Z</time>
      </trkpt>
      <trkpt lat="42.90722" lon="-1.612856">
        <time>2022-07-03T13:04:58Z</time>
      </trkpt>
      <trkpt lat="42.907146" lon="-1.6128557">
        <time>2022-07-03T13:04:59Z</time>
      </trkpt>
      <trkpt lat="42.907078" lon="-1.612854">
        <time>2022-07-03T13:05:00Z</time>
      </trkpt>
      <trkpt lat="42.90701" lon="-1.612852">
        <time>2022-07-03T13:05:01Z</time>
      </trkpt>
      <trkpt lat="42.90694" lon="-1.6128484">
        <time>2022-07-03T13:05:02Z</time>
      </trkpt>
      <trkpt lat="42.906876" lon="-1.6128443">
        <time>2022-07-03T13:05:03Z</time>
      </trkpt>
      <trkpt lat="42.906807" lon="-1.6128403">
        <time>2022-07-03T13:05:04Z</time>
      </trkpt>
      <trkpt lat="42.90675" lon="-1.6128367">
        <time>2022-07-03T13:05:05Z</time>
      </trkpt>
      <trkpt lat="42.90669" lon="-1.612833">
        <time>2022-07-03T13:05:06Z</time>
      </trkpt>
      <trkpt lat="42.906624" lon="-1.6128297">
        <time>2022-07-03T13:05:07Z</time>
      </trkpt>
      <trkpt lat="42.90656" lon="-1.6128274">
        <time>2022-07-03T13:05:08Z</time>
      </trkpt>
      <trkpt lat="42.906498" lon="-1.6128254">
        <time>2022-07-03T13:05:09Z</time>
      </trkpt>
      <trkpt lat="42.906437" lon="-1.6128234">
        <time>2022-07-03T13:05:10Z</time>
      </trkpt>
      <trkpt lat="42.906376" lon="-1.6128207">
        <time>2022-07-03T13:05:11Z</time>
      </trkpt>
      <trkpt lat="42.90631" lon="-1.6128178">
        <time>2022-07-03T13:05:12Z</time>
      </trkpt>
      <trkpt lat="42.90624" lon="-1.612813">
        <time>2022-07-03T13:05:13Z</time>
      </trkpt>
      <trkpt lat="42.906174" lon="-1.6128081">
        <time>2022-07-03T13:05:14Z</time>
      </trkpt>
      <trkpt lat="42.90611" lon="-1.612802">
        <time>2022-07-03T13:05:15Z</time>
      </trkpt>
      <trkpt lat="42.906044" lon="-1.612795">
        <time>2022-07-03T13:05:16Z</time>
      </trkpt>
      <trkpt lat="42.905975" lon="-1.6127864">
        <time>2022-07-03T13:05:17Z</time>
      </trkpt>
      <trkpt lat="42.90591" lon="-1.612776">
        <time>2022-07-03T13:05:18Z</time>
      </trkpt>
      <trkpt lat="42.905846" lon="-1.612764">
        <time>2022-07-03T13:05:19Z</time>
      </trkpt>
      <trkpt lat="42.905773" lon="-1.6127495">
        <time>2022-07-03T13:05:20Z</time>
      </trkpt>
      <trkpt lat="42.905712" lon="-1.6127344">
        <time>2022-07-03T13:05:21Z</time>
      </trkpt>
      <trkpt lat="42.905647" lon="-1.612719">
        <time>2022-07-03T13:05:22Z</time>
      </trkpt>
      <trkpt lat="42.905582" lon="-1.6127034">
        <time>2022-07-03T13:05:23Z</time>
      </trkpt>
      <trkpt lat="42.90552" lon="-1.6126858">
        <time>2022-07-03T13:05:24Z</time>
      </trkpt>
      <trkpt lat="42.90546" lon="-1.6126661">
        <time>2022-07-03T13:05:25Z</time>
      </trkpt>
      <trkpt lat="42.9054" lon="-1.6126441">
        <time>2022-07-03T13:05:26Z</time>
      </trkpt>
      <trkpt lat="42.905342" lon="-1.6126211">
        <time>2022-07-03T13:05:27Z</time>
      </trkpt>
      <trkpt lat="42.905285" lon="-1.6126021">
        <time>2022-07-03T13:05:28Z</time>
      </trkpt>
      <trkpt lat="42.90523" lon="-1.6125847">
        <time>2022-07-03T13:05:29Z</time>
      </trkpt>
      <trkpt lat="42.905174" lon="-1.6125698">
        <time>2022-07-03T13:05:30Z</time>
      </trkpt>
      <trkpt lat="42.90512" lon="-1.6125561">
        <time>2022-07-03T13:05:31Z</time>
      </trkpt>
      <trkpt lat="42.905064" lon="-1.6125435">
        <time>2022-07-03T13:05:32Z</time>
      </trkpt>
      <trkpt lat="42.90501" lon="-1.6125327">
        <time>2022-07-03T13:05:33Z</time>
      </trkpt>
      <trkpt lat="42.90495" lon="-1.6125234">
        <time>2022-07-03T13:05:34Z</time>
      </trkpt>
      <trkpt lat="42.904896" lon="-1.6125154">
        <time>2022-07-03T13:05:35Z</time>
      </trkpt>
      <trkpt lat="42.904846" lon="-1.6125082">
        <time>2022-07-03T13:05:36Z</time>
      </trkpt>
      <trkpt lat="42.904793" lon="-1.6125008">
        <time>2022-07-03T13:05:37Z</time>
      </trkpt>
      <trkpt lat="42.904743" lon="-1.6124941">
        <time>2022-07-03T13:05:38Z</time>
      </trkpt>
      <trkpt lat="42.90464" lon="-1.6124855">
        <time>2022-07-03T13:05:40Z</time>
      </trkpt>
      <trkpt lat="42.904594" lon="-1.6124828">
        <time>2022-07-03T13:05:41Z</time>
      </trkpt>
      <trkpt lat="42.904495" lon="-1.6124768">
        <time>2022-07-03T13:05:43Z</time>
      </trkpt>
      <trkpt lat="42.904392" lon="-1.6124742">
        <time>2022-07-03T13:05:45Z</time>
      </trkpt>
      <trkpt lat="42.904343" lon="-1.6124735">
        <time>2022-07-03T13:05:46Z</time>
      </trkpt>
      <trkpt lat="42.904297" lon="-1.6124738">
        <time>2022-07-03T13:05:47Z</time>
      </trkpt>
      <trkpt lat="42.904198" lon="-1.6124731">
        <time>2022-07-03T13:05:49Z</time>
      </trkpt>
      <trkpt lat="42.90415" lon="-1.6124731">
        <time>2022-07-03T13:05:50Z</time>
      </trkpt>
      <trkpt lat="42.904053" lon="-1.6124705">
        <time>2022-07-03T13:05:52Z</time>
      </trkpt>
      <trkpt lat="42.904007" lon="-1.6124696">
        <time>2022-07-03T13:05:53Z</time>
      </trkpt>
      <trkpt lat="42.90391" lon="-1.6124675">
        <time>2022-07-03T13:05:55Z</time>
      </trkpt>
      <trkpt lat="42.903816" lon="-1.6124638">
        <time>2022-07-03T13:05:57Z</time>
      </trkpt>
      <trkpt lat="42.90372" lon="-1.6124585">
        <time>2022-07-03T13:05:59Z</time>
      </trkpt>
      <trkpt lat="42.903625" lon="-1.6124512">
        <time>2022-07-03T13:06:01Z</time>
      </trkpt>
      <trkpt lat="42.903538" lon="-1.6124405">
        <time>2022-07-03T13:06:03Z</time>
      </trkpt>
      <trkpt lat="42.903442" lon="-1.6124262">
        <time>2022-07-03T13:06:05Z</time>
      </trkpt>
      <trkpt lat="42.903397" lon="-1.6124185">
        <time>2022-07-03T13:06:06Z</time>
      </trkpt>
      <trkpt lat="42.90331" lon="-1.6124035">
        <time>2022-07-03T13:06:08Z</time>
      </trkpt>
      <trkpt lat="42.903214" lon="-1.6123852">
        <time>2022-07-03T13:06:10Z</time>
      </trkpt>
      <trkpt lat="42.90312" lon="-1.6123595">
        <time>2022-07-03T13:06:12Z</time>
      </trkpt>
      <trkpt lat="42.903027" lon="-1.6123309">
        <time>2022-07-03T13:06:14Z</time>
      </trkpt>
      <trkpt lat="42.90293" lon="-1.6122962">
        <time>2022-07-03T13:06:16Z</time>
      </trkpt>
      <trkpt lat="42.902832" lon="-1.6122546">
        <time>2022-07-03T13:06:18Z</time>
      </trkpt>
      <trkpt lat="42.902782" lon="-1.6122316">
        <time>2022-07-03T13:06:19Z</time>
      </trkpt>
      <trkpt lat="42.902733" lon="-1.6122075">
        <time>2022-07-03T13:06:20Z</time>
      </trkpt>
      <trkpt lat="42.902683" lon="-1.6121812">
        <time>2022-07-03T13:06:21Z</time>
      </trkpt>
      <trkpt lat="42.90263" lon="-1.6121513">
        <time>2022-07-03T13:06:22Z</time>
      </trkpt>
      <trkpt lat="42.90258" lon="-1.6121225">
        <time>2022-07-03T13:06:23Z</time>
      </trkpt>
      <trkpt lat="42.90253" lon="-1.6120932">
        <time>2022-07-03T13:06:24Z</time>
      </trkpt>
      <trkpt lat="42.90248" lon="-1.6120629">
        <time>2022-07-03T13:06:25Z</time>
      </trkpt>
      <trkpt lat="42.902428" lon="-1.6120296">
        <time>2022-07-03T13:06:26Z</time>
      </trkpt>
      <trkpt lat="42.902378" lon="-1.6119952">
        <time>2022-07-03T13:06:27Z</time>
      </trkpt>
      <trkpt lat="42.902325" lon="-1.6119599">
        <time>2022-07-03T13:06:28Z</time>
      </trkpt>
      <trkpt lat="42.902275" lon="-1.6119226">
        <time>2022-07-03T13:06:29Z</time>
      </trkpt>
      <trkpt lat="42.902225" lon="-1.6118842">
        <time>2022-07-03T13:06:30Z</time>
      </trkpt>
      <trkpt lat="42.902176" lon="-1.6118456">
        <time>2022-07-03T13:06:31Z</time>
      </trkpt>
      <trkpt lat="42.902122" lon="-1.6118063">
        <time>2022-07-03T13:06:32Z</time>
      </trkpt>
      <trkpt lat="42.902073" lon="-1.611766">
        <time>2022-07-03T13:06:33Z</time>
      </trkpt>
      <trkpt lat="42.90202" lon="-1.6117239">
        <time>2022-07-03T13:06:34Z</time>
      </trkpt>
      <trkpt lat="42.90197" lon="-1.6116803">
        <time>2022-07-03T13:06:35Z</time>
      </trkpt>
      <trkpt lat="42.901917" lon="-1.6116363">
        <time>2022-07-03T13:06:36Z</time>
      </trkpt>
      <trkpt lat="42.901863" lon="-1.6115919">
        <time>2022-07-03T13:06:37Z</time>
      </trkpt>
      <trkpt lat="42.90181" lon="-1.6115472">
        <time>2022-07-03T13:06:38Z</time>
      </trkpt>
      <trkpt lat="42.901756" lon="-1.6115026">
        <time>2022-07-03T13:06:39Z</time>
      </trkpt>
      <trkpt lat="42.901707" lon="-1.6114607">
        <time>2022-07-03T13:06:40Z</time>
      </trkpt>
      <trkpt lat="42.90165" lon="-1.611415">
        <time>2022-07-03T13:06:41Z</time>
      </trkpt>
      <trkpt lat="42.901592" lon="-1.6113693">
        <time>2022-07-03T13:06:42Z</time>
      </trkpt>
      <trkpt lat="42.901535" lon="-1.611324">
        <time>2022-07-03T13:06:43Z</time>
      </trkpt>
      <trkpt lat="42.901478" lon="-1.6112777">
        <time>2022-07-03T13:06:44Z</time>
      </trkpt>
      <trkpt lat="42.90142" lon="-1.6112297">
        <time>2022-07-03T13:06:45Z</time>
      </trkpt>
      <trkpt lat="42.901363" lon="-1.61118">
        <time>2022-07-03T13:06:46Z</time>
      </trkpt>
      <trkpt lat="42.901306" lon="-1.6111283">
        <time>2022-07-03T13:06:47Z</time>
      </trkpt>
      <trkpt lat="42.901253" lon="-1.611077">
        <time>2022-07-03T13:06:48Z</time>
      </trkpt>
      <trkpt lat="42.901196" lon="-1.6110287">
        <time>2022-07-03T13:06:49Z</time>
      </trkpt>
      <trkpt lat="42.901142" lon="-1.6109797">
        <time>2022-07-03T13:06:50Z</time>
      </trkpt>
      <trkpt lat="42.901077" lon="-1.6109266">
        <time>2022-07-03T13:06:51Z</time>
      </trkpt>
      <trkpt lat="42.90102" lon="-1.6108767">
        <time>2022-07-03T13:06:52Z</time>
      </trkpt>
      <trkpt lat="42.900963" lon="-1.6108266">
        <time>2022-07-03T13:06:53Z</time>
      </trkpt>
      <trkpt lat="42.9009" lon="-1.6107763">
        <time>2022-07-03T13:06:54Z</time>
      </trkpt>
      <trkpt lat="42.90084" lon="-1.6107253">
        <time>2022-07-03T13:06:55Z</time>
      </trkpt>
      <trkpt lat="42.900784" lon="-1.610675">
        <time>2022-07-03T13:06:56Z</time>
      </trkpt>
      <trkpt lat="42.900723" lon="-1.6106243">
        <time>2022-07-03T13:06:57Z</time>
      </trkpt>
      <trkpt lat="42.900604" lon="-1.6105227">
        <time>2022-07-03T13:06:59Z</time>
      </trkpt>
      <trkpt lat="42.900543" lon="-1.6104723">
        <time>2022-07-03T13:07:00Z</time>
      </trkpt>
      <trkpt lat="42.900486" lon="-1.6104224">
        <time>2022-07-03T13:07:01Z</time>
      </trkpt>
      <trkpt lat="42.900425" lon="-1.6103737">
        <time>2022-07-03T13:07:02Z</time>
      </trkpt>
      <trkpt lat="42.900368" lon="-1.6103264">
        <time>2022-07-03T13:07:03Z</time>
      </trkpt>
      <trkpt lat="42.900307" lon="-1.61028">
        <time>2022-07-03T13:07:04Z</time>
      </trkpt>
      <trkpt lat="42.90025" lon="-1.6102344">
        <time>2022-07-03T13:07:05Z</time>
      </trkpt>
      <trkpt lat="42.900192" lon="-1.6101897">
        <time>2022-07-03T13:07:06Z</time>
      </trkpt>
      <trkpt lat="42.900135" lon="-1.6101471">
        <time>2022-07-03T13:07:07Z</time>
      </trkpt>
      <trkpt lat="42.900078" lon="-1.6101058">
        <time>2022-07-03T13:07:08Z</time>
      </trkpt>
      <trkpt lat="42.900024" lon="-1.6100653">
        <time>2022-07-03T13:07:09Z</time>
      </trkpt>
      <trkpt lat="42.899967" lon="-1.6100264">
        <time>2022-07-03T13:07:10Z</time>
      </trkpt>
      <trkpt lat="42.899914" lon="-1.609989">
        <time>2022-07-03T13:07:11Z</time>
      </trkpt>
      <trkpt lat="42.899857" lon="-1.6099538">
        <time>2022-07-03T13:07:12Z</time>
      </trkpt>
      <trkpt lat="42.899796" lon="-1.6099198">
        <time>2022-07-03T13:07:13Z</time>
      </trkpt>
      <trkpt lat="42.89974" lon="-1.6098868">
        <time>2022-07-03T13:07:14Z</time>
      </trkpt>
      <trkpt lat="42.899677" lon="-1.6098554">
        <time>2022-07-03T13:07:15Z</time>
      </trkpt>
      <trkpt lat="42.899612" lon="-1.6098244">
        <time>2022-07-03T13:07:16Z</time>
      </trkpt>
      <trkpt lat="42.899548" lon="-1.6097968">
        <time>2022-07-03T13:07:17Z</time>
      </trkpt>
      <trkpt lat="42.899483" lon="-1.6097704">
        <time>2022-07-03T13:07:18Z</time>
      </trkpt>
      <trkpt lat="42.899418" lon="-1.6097461">
        <time>2022-07-03T13:07:19Z</time>
      </trkpt>
      <trkpt lat="42.899353" lon="-1.6097238">
        <time>2022-07-03T13:07:20Z</time>
      </trkpt>
      <trkpt lat="42.89929" lon="-1.6097031">
        <time>2022-07-03T13:07:21Z</time>
      </trkpt>
      <trkpt lat="42.899223" lon="-1.6096861">
        <time>2022-07-03T13:07:22Z</time>
      </trkpt>
      <trkpt lat="42.89916" lon="-1.6096698">
        <time>2022-07-03T13:07:23Z</time>
      </trkpt>
      <trkpt lat="42.89909" lon="-1.6096537">
        <time>2022-07-03T13:07:24Z</time>
      </trkpt>
      <trkpt lat="42.899025" lon="-1.6096385">
        <time>2022-07-03T13:07:25Z</time>
      </trkpt>
      <trkpt lat="42.898956" lon="-1.6096228">
        <time>2022-07-03T13:07:26Z</time>
      </trkpt>
      <trkpt lat="42.898888" lon="-1.6096071">
        <time>2022-07-03T13:07:27Z</time>
      </trkpt>
      <trkpt lat="42.898823" lon="-1.6095915">
        <time>2022-07-03T13:07:28Z</time>
      </trkpt>
      <trkpt lat="42.898754" lon="-1.6095761">
        <time>2022-07-03T13:07:29Z</time>
      </trkpt>
      <trkpt lat="42.898685" lon="-1.6095622">
        <time>2022-07-03T13:07:30Z</time>
      </trkpt>
      <trkpt lat="42.898617" lon="-1.6095488">
        <time>2022-07-03T13:07:31Z</time>
      </trkpt>
      <trkpt lat="42.89855" lon="-1.6095347">
        <time>2022-07-03T13:07:32Z</time>
      </trkpt>
      <trkpt lat="42.89848" lon="-1.6095198">
        <time>2022-07-03T13:07:33Z</time>
      </trkpt>
      <trkpt lat="42.89841" lon="-1.6095035">
        <time>2022-07-03T13:07:34Z</time>
      </trkpt>
      <trkpt lat="42.898342" lon="-1.6094865">
        <time>2022-07-03T13:07:35Z</time>
      </trkpt>
      <trkpt lat="42.898273" lon="-1.6094685">
        <time>2022-07-03T13:07:36Z</time>
      </trkpt>
      <trkpt lat="42.898205" lon="-1.6094501">
        <time>2022-07-03T13:07:37Z</time>
      </trkpt>
      <trkpt lat="42.898136" lon="-1.6094325">
        <time>2022-07-03T13:07:38Z</time>
      </trkpt>
      <trkpt lat="42.898067" lon="-1.6094158">
        <time>2022-07-03T13:07:39Z</time>
      </trkpt>
      <trkpt lat="42.898" lon="-1.6093988">
        <time>2022-07-03T13:07:40Z</time>
      </trkpt>
      <trkpt lat="42.897934" lon="-1.6093829">
        <time>2022-07-03T13:07:41Z</time>
      </trkpt>
      <trkpt lat="42.897865" lon="-1.6093665">
        <time>2022-07-03T13:07:42Z</time>
      </trkpt>
      <trkpt lat="42.8978" lon="-1.6093504">
        <time>2022-07-03T13:07:43Z</time>
      </trkpt>
      <trkpt lat="42.897736" lon="-1.6093361">
        <time>2022-07-03T13:07:44Z</time>
      </trkpt>
      <trkpt lat="42.897667" lon="-1.6093231">
        <time>2022-07-03T13:07:45Z</time>
      </trkpt>
      <trkpt lat="42.897602" lon="-1.6093098">
        <time>2022-07-03T13:07:46Z</time>
      </trkpt>
      <trkpt lat="42.897537" lon="-1.6092972">
        <time>2022-07-03T13:07:47Z</time>
      </trkpt>
      <trkpt lat="42.89747" lon="-1.6092855">
        <time>2022-07-03T13:07:48Z</time>
      </trkpt>
      <trkpt lat="42.897404" lon="-1.6092741">
        <time>2022-07-03T13:07:49Z</time>
      </trkpt>
      <trkpt lat="42.897335" lon="-1.6092645">
        <time>2022-07-03T13:07:50Z</time>
      </trkpt>
      <trkpt lat="42.89727" lon="-1.6092552">
        <time>2022-07-03T13:07:51Z</time>
      </trkpt>
      <trkpt lat="42.8972" lon="-1.6092476">
        <time>2022-07-03T13:07:52Z</time>
      </trkpt>
      <trkpt lat="42.897137" lon="-1.6092405">
        <time>2022-07-03T13:07:53Z</time>
      </trkpt>
      <trkpt lat="42.89707" lon="-1.6092331">
        <time>2022-07-03T13:07:54Z</time>
      </trkpt>
      <trkpt lat="42.897003" lon="-1.6092255">
        <time>2022-07-03T13:07:55Z</time>
      </trkpt>
      <trkpt lat="42.89694" lon="-1.6092175">
        <time>2022-07-03T13:07:56Z</time>
      </trkpt>
      <trkpt lat="42.89687" lon="-1.6092105">
        <time>2022-07-03T13:07:57Z</time>
      </trkpt>
      <trkpt lat="42.8968" lon="-1.6092055">
        <time>2022-07-03T13:07:58Z</time>
      </trkpt>
      <trkpt lat="42.896732" lon="-1.6092025">
        <time>2022-07-03T13:07:59Z</time>
      </trkpt>
      <trkpt lat="42.896664" lon="-1.6092008">
        <time>2022-07-03T13:08:00Z</time>
      </trkpt>
      <trkpt lat="42.896595" lon="-1.6091999">
        <time>2022-07-03T13:08:01Z</time>
      </trkpt>
      <trkpt lat="42.896458" lon="-1.6092012">
        <time>2022-07-03T13:08:03Z</time>
      </trkpt>
      <trkpt lat="42.89639" lon="-1.6092012">
        <time>2022-07-03T13:08:04Z</time>
      </trkpt>
      <trkpt lat="42.896324" lon="-1.6092008">
        <time>2022-07-03T13:08:05Z</time>
      </trkpt>
      <trkpt lat="42.896255" lon="-1.6091992">
        <time>2022-07-03T13:08:06Z</time>
      </trkpt>
      <trkpt lat="42.89619" lon="-1.6091979">
        <time>2022-07-03T13:08:07Z</time>
      </trkpt>
      <trkpt lat="42.896122" lon="-1.6091962">
        <time>2022-07-03T13:08:08Z</time>
      </trkpt>
      <trkpt lat="42.896057" lon="-1.6091936">
        <time>2022-07-03T13:08:09Z</time>
      </trkpt>
      <trkpt lat="42.895992" lon="-1.6091886">
        <time>2022-07-03T13:08:10Z</time>
      </trkpt>
      <trkpt lat="42.895927" lon="-1.6091813">
        <time>2022-07-03T13:08:11Z</time>
      </trkpt>
      <trkpt lat="42.895863" lon="-1.6091716">
        <time>2022-07-03T13:08:12Z</time>
      </trkpt>
      <trkpt lat="42.895798" lon="-1.6091609">
        <time>2022-07-03T13:08:13Z</time>
      </trkpt>
      <trkpt lat="42.895733" lon="-1.6091496">
        <time>2022-07-03T13:08:14Z</time>
      </trkpt>
      <trkpt lat="42.895668" lon="-1.6091373">
        <time>2022-07-03T13:08:15Z</time>
      </trkpt>
      <trkpt lat="42.895603" lon="-1.6091232">
        <time>2022-07-03T13:08:16Z</time>
      </trkpt>
      <trkpt lat="42.89554" lon="-1.6091069">
        <time>2022-07-03T13:08:17Z</time>
      </trkpt>
      <trkpt lat="42.895473" lon="-1.6090869">
        <time>2022-07-03T13:08:18Z</time>
      </trkpt>
      <trkpt lat="42.89541" lon="-1.6090642">
        <time>2022-07-03T13:08:19Z</time>
      </trkpt>
      <trkpt lat="42.89534" lon="-1.6090376">
        <time>2022-07-03T13:08:20Z</time>
      </trkpt>
      <trkpt lat="42.895275" lon="-1.609008">
        <time>2022-07-03T13:08:21Z</time>
      </trkpt>
      <trkpt lat="42.895206" lon="-1.6089756">
        <time>2022-07-03T13:08:22Z</time>
      </trkpt>
      <trkpt lat="42.89514" lon="-1.6089402">
        <time>2022-07-03T13:08:23Z</time>
      </trkpt>
      <trkpt lat="42.895077" lon="-1.6089042">
        <time>2022-07-03T13:08:24Z</time>
      </trkpt>
      <trkpt lat="42.89501" lon="-1.6088666">
        <time>2022-07-03T13:08:25Z</time>
      </trkpt>
      <trkpt lat="42.894947" lon="-1.6088257">
        <time>2022-07-03T13:08:26Z</time>
      </trkpt>
      <trkpt lat="42.89488" lon="-1.6087816">
        <time>2022-07-03T13:08:27Z</time>
      </trkpt>
      <trkpt lat="42.894817" lon="-1.6087383">
        <time>2022-07-03T13:08:28Z</time>
      </trkpt>
      <trkpt lat="42.894753" lon="-1.608694">
        <time>2022-07-03T13:08:29Z</time>
      </trkpt>
      <trkpt lat="42.89468" lon="-1.6086483">
        <time>2022-07-03T13:08:30Z</time>
      </trkpt>
      <trkpt lat="42.89461" lon="-1.6086019">
        <time>2022-07-03T13:08:31Z</time>
      </trkpt>
      <trkpt lat="42.89454" lon="-1.6085529">
        <time>2022-07-03T13:08:32Z</time>
      </trkpt>
      <trkpt lat="42.894466" lon="-1.6085023">
        <time>2022-07-03T13:08:33Z</time>
      </trkpt>
      <trkpt lat="42.894394" lon="-1.6084499">
        <time>2022-07-03T13:08:34Z</time>
      </trkpt>
      <trkpt lat="42.89432" lon="-1.608397">
        <time>2022-07-03T13:08:35Z</time>
      </trkpt>
      <trkpt lat="42.89424" lon="-1.6083406">
        <time>2022-07-03T13:08:36Z</time>
      </trkpt>
      <trkpt lat="42.89417" lon="-1.6082894">
        <time>2022-07-03T13:08:37Z</time>
      </trkpt>
      <trkpt lat="42.894096" lon="-1.6082376">
        <time>2022-07-03T13:08:38Z</time>
      </trkpt>
      <trkpt lat="42.894016" lon="-1.608182">
        <time>2022-07-03T13:08:39Z</time>
      </trkpt>
      <trkpt lat="42.893944" lon="-1.6081307">
        <time>2022-07-03T13:08:40Z</time>
      </trkpt>
      <trkpt lat="42.89387" lon="-1.6080776">
        <time>2022-07-03T13:08:41Z</time>
      </trkpt>
      <trkpt lat="42.893795" lon="-1.6080244">
        <time>2022-07-03T13:08:42Z</time>
      </trkpt>
      <trkpt lat="42.89372" lon="-1.6079704">
        <time>2022-07-03T13:08:43Z</time>
      </trkpt>
      <trkpt lat="42.89364" lon="-1.607913">
        <time>2022-07-03T13:08:44Z</time>
      </trkpt>
      <trkpt lat="42.893566" lon="-1.6078603">
        <time>2022-07-03T13:08:45Z</time>
      </trkpt>
      <trkpt lat="42.89349" lon="-1.6078074">
        <time>2022-07-03T13:08:46Z</time>
      </trkpt>
      <trkpt lat="42.893414" lon="-1.6077534">
        <time>2022-07-03T13:08:47Z</time>
      </trkpt>
      <trkpt lat="42.893337" lon="-1.6076994">
        <time>2022-07-03T13:08:48Z</time>
      </trkpt>
      <trkpt lat="42.893257" lon="-1.607642">
        <time>2022-07-03T13:08:49Z</time>
      </trkpt>
      <trkpt lat="42.893185" lon="-1.6075901">
        <time>2022-07-03T13:08:50Z</time>
      </trkpt>
      <trkpt lat="42.89311" lon="-1.607538">
        <time>2022-07-03T13:08:51Z</time>
      </trkpt>
      <trkpt lat="42.893032" lon="-1.6074873">
        <time>2022-07-03T13:08:52Z</time>
      </trkpt>
      <trkpt lat="42.89296" lon="-1.6074377">
        <time>2022-07-03T13:08:53Z</time>
      </trkpt>
      <trkpt lat="42.892883" lon="-1.6073887">
        <time>2022-07-03T13:08:54Z</time>
      </trkpt>
      <trkpt lat="42.892807" lon="-1.6073403">
        <time>2022-07-03T13:08:55Z</time>
      </trkpt>
      <trkpt lat="42.89273" lon="-1.607292">
        <time>2022-07-03T13:08:56Z</time>
      </trkpt>
      <trkpt lat="42.892654" lon="-1.6072451">
        <time>2022-07-03T13:08:57Z</time>
      </trkpt>
      <trkpt lat="42.892582" lon="-1.6071997">
        <time>2022-07-03T13:08:58Z</time>
      </trkpt>
      <trkpt lat="42.892506" lon="-1.607156">
        <time>2022-07-03T13:08:59Z</time>
      </trkpt>
      <trkpt lat="42.89243" lon="-1.6071134">
        <time>2022-07-03T13:09:00Z</time>
      </trkpt>
      <trkpt lat="42.892357" lon="-1.6070724">
        <time>2022-07-03T13:09:01Z</time>
      </trkpt>
      <trkpt lat="42.89228" lon="-1.6070328">
        <time>2022-07-03T13:09:02Z</time>
      </trkpt>
      <trkpt lat="42.89221" lon="-1.6069938">
        <time>2022-07-03T13:09:03Z</time>
      </trkpt>
      <trkpt lat="42.892136" lon="-1.6069558">
        <time>2022-07-03T13:09:04Z</time>
      </trkpt>
      <trkpt lat="42.892063" lon="-1.6069177">
        <time>2022-07-03T13:09:05Z</time>
      </trkpt>
      <trkpt lat="42.891987" lon="-1.6068774">
        <time>2022-07-03T13:09:06Z</time>
      </trkpt>
      <trkpt lat="42.89184" lon="-1.6068034">
        <time>2022-07-03T13:09:08Z</time>
      </trkpt>
      <trkpt lat="42.89177" lon="-1.6067694">
        <time>2022-07-03T13:09:09Z</time>
      </trkpt>
      <trkpt lat="42.891705" lon="-1.6067368">
        <time>2022-07-03T13:09:10Z</time>
      </trkpt>
      <trkpt lat="42.89164" lon="-1.6067041">
        <time>2022-07-03T13:09:11Z</time>
      </trkpt>
      <trkpt lat="42.891575" lon="-1.6066711">
        <time>2022-07-03T13:09:12Z</time>
      </trkpt>
      <trkpt lat="42.89151" lon="-1.6066391">
        <time>2022-07-03T13:09:13Z</time>
      </trkpt>
      <trkpt lat="42.89145" lon="-1.6066087">
        <time>2022-07-03T13:09:14Z</time>
      </trkpt>
      <trkpt lat="42.891384" lon="-1.6065791">
        <time>2022-07-03T13:09:15Z</time>
      </trkpt>
      <trkpt lat="42.891323" lon="-1.6065488">
        <time>2022-07-03T13:09:16Z</time>
      </trkpt>
      <trkpt lat="42.891262" lon="-1.6065195">
        <time>2022-07-03T13:09:17Z</time>
      </trkpt>
      <trkpt lat="42.8912" lon="-1.6064901">
        <time>2022-07-03T13:09:18Z</time>
      </trkpt>
      <trkpt lat="42.891144" lon="-1.6064595">
        <time>2022-07-03T13:09:19Z</time>
      </trkpt>
      <trkpt lat="42.891083" lon="-1.6064285">
        <time>2022-07-03T13:09:20Z</time>
      </trkpt>
      <trkpt lat="42.891026" lon="-1.6063977">
        <time>2022-07-03T13:09:21Z</time>
      </trkpt>
      <trkpt lat="42.890972" lon="-1.6063678">
        <time>2022-07-03T13:09:22Z</time>
      </trkpt>
      <trkpt lat="42.890915" lon="-1.6063391">
        <time>2022-07-03T13:09:23Z</time>
      </trkpt>
      <trkpt lat="42.89086" lon="-1.6063122">
        <time>2022-07-03T13:09:24Z</time>
      </trkpt>
      <trkpt lat="42.89081" lon="-1.6062858">
        <time>2022-07-03T13:09:25Z</time>
      </trkpt>
      <trkpt lat="42.890755" lon="-1.6062591">
        <time>2022-07-03T13:09:26Z</time>
      </trkpt>
      <trkpt lat="42.890705" lon="-1.6062331">
        <time>2022-07-03T13:09:27Z</time>
      </trkpt>
      <trkpt lat="42.890656" lon="-1.6062075">
        <time>2022-07-03T13:09:28Z</time>
      </trkpt>
      <trkpt lat="42.890606" lon="-1.6061828">
        <time>2022-07-03T13:09:29Z</time>
      </trkpt>
      <trkpt lat="42.890556" lon="-1.6061578">
        <time>2022-07-03T13:09:30Z</time>
      </trkpt>
      <trkpt lat="42.890465" lon="-1.6061102">
        <time>2022-07-03T13:09:32Z</time>
      </trkpt>
      <trkpt lat="42.89037" lon="-1.6060648">
        <time>2022-07-03T13:09:34Z</time>
      </trkpt>
      <trkpt lat="42.890278" lon="-1.6060212">
        <time>2022-07-03T13:09:36Z</time>
      </trkpt>
      <trkpt lat="42.890182" lon="-1.6059735">
        <time>2022-07-03T13:09:38Z</time>
      </trkpt>
      <trkpt lat="42.890137" lon="-1.6059499">
        <time>2022-07-03T13:09:39Z</time>
      </trkpt>
      <trkpt lat="42.890038" lon="-1.6059039">
        <time>2022-07-03T13:09:41Z</time>
      </trkpt>
      <trkpt lat="42.889988" lon="-1.6058809">
        <time>2022-07-03T13:09:42Z</time>
      </trkpt>
      <trkpt lat="42.88989" lon="-1.6058322">
        <time>2022-07-03T13:09:44Z</time>
      </trkpt>
      <trkpt lat="42.88984" lon="-1.6058075">
        <time>2022-07-03T13:09:45Z</time>
      </trkpt>
      <trkpt lat="42.88979" lon="-1.6057832">
        <time>2022-07-03T13:09:46Z</time>
      </trkpt>
      <trkpt lat="42.889736" lon="-1.6057599">
        <time>2022-07-03T13:09:47Z</time>
      </trkpt>
      <trkpt lat="42.889687" lon="-1.6057369">
        <time>2022-07-03T13:09:48Z</time>
      </trkpt>
      <trkpt lat="42.889633" lon="-1.6057138">
        <time>2022-07-03T13:09:49Z</time>
      </trkpt>
      <trkpt lat="42.88958" lon="-1.6056908">
        <time>2022-07-03T13:09:50Z</time>
      </trkpt>
      <trkpt lat="42.889523" lon="-1.6056665">
        <time>2022-07-03T13:09:51Z</time>
      </trkpt>
      <trkpt lat="42.88947" lon="-1.6056415">
        <time>2022-07-03T13:09:52Z</time>
      </trkpt>
      <trkpt lat="42.889412" lon="-1.6056149">
        <time>2022-07-03T13:09:53Z</time>
      </trkpt>
      <trkpt lat="42.889355" lon="-1.6055882">
        <time>2022-07-03T13:09:54Z</time>
      </trkpt>
      <trkpt lat="42.889297" lon="-1.6055626">
        <time>2022-07-03T13:09:55Z</time>
      </trkpt>
      <trkpt lat="42.88924" lon="-1.6055375">
        <time>2022-07-03T13:09:56Z</time>
      </trkpt>
      <trkpt lat="42.889183" lon="-1.6055139">
        <time>2022-07-03T13:09:57Z</time>
      </trkpt>
      <trkpt lat="42.889126" lon="-1.6054902">
        <time>2022-07-03T13:09:58Z</time>
      </trkpt>
      <trkpt lat="42.889072" lon="-1.6054679">
        <time>2022-07-03T13:09:59Z</time>
      </trkpt>
      <trkpt lat="42.889015" lon="-1.6054432">
        <time>2022-07-03T13:10:00Z</time>
      </trkpt>
      <trkpt lat="42.888958" lon="-1.6054165">
        <time>2022-07-03T13:10:01Z</time>
      </trkpt>
      <trkpt lat="42.888897" lon="-1.6053909">
        <time>2022-07-03T13:10:02Z</time>
      </trkpt>
      <trkpt lat="42.88884" lon="-1.6053675">
        <time>2022-07-03T13:10:03Z</time>
      </trkpt>
      <trkpt lat="42.888783" lon="-1.6053456">
        <time>2022-07-03T13:10:04Z</time>
      </trkpt>
      <trkpt lat="42.888725" lon="-1.6053246">
        <time>2022-07-03T13:10:05Z</time>
      </trkpt>
      <trkpt lat="42.888664" lon="-1.6053036">
        <time>2022-07-03T13:10:06Z</time>
      </trkpt>
      <trkpt lat="42.888607" lon="-1.6052816">
        <time>2022-07-03T13:10:07Z</time>
      </trkpt>
      <trkpt lat="42.88855" lon="-1.6052582">
        <time>2022-07-03T13:10:08Z</time>
      </trkpt>
      <trkpt lat="42.88844" lon="-1.6052109">
        <time>2022-07-03T13:10:10Z</time>
      </trkpt>
      <trkpt lat="42.888386" lon="-1.605186">
        <time>2022-07-03T13:10:11Z</time>
      </trkpt>
      <trkpt lat="42.888332" lon="-1.6051613">
        <time>2022-07-03T13:10:12Z</time>
      </trkpt>
      <trkpt lat="42.88828" lon="-1.6051372">
        <time>2022-07-03T13:10:13Z</time>
      </trkpt>
      <trkpt lat="42.88823" lon="-1.6051142">
        <time>2022-07-03T13:10:14Z</time>
      </trkpt>
      <trkpt lat="42.888176" lon="-1.6050919">
        <time>2022-07-03T13:10:15Z</time>
      </trkpt>
      <trkpt lat="42.888123" lon="-1.6050696">
        <time>2022-07-03T13:10:16Z</time>
      </trkpt>
      <trkpt lat="42.88807" lon="-1.605047">
        <time>2022-07-03T13:10:17Z</time>
      </trkpt>
      <trkpt lat="42.88802" lon="-1.605024">
        <time>2022-07-03T13:10:18Z</time>
      </trkpt>
      <trkpt lat="42.887966" lon="-1.6050003">
        <time>2022-07-03T13:10:19Z</time>
      </trkpt>
      <trkpt lat="42.887913" lon="-1.6049767">
        <time>2022-07-03T13:10:20Z</time>
      </trkpt>
      <trkpt lat="42.88786" lon="-1.6049527">
        <time>2022-07-03T13:10:21Z</time>
      </trkpt>
      <trkpt lat="42.887806" lon="-1.6049293">
        <time>2022-07-03T13:10:22Z</time>
      </trkpt>
      <trkpt lat="42.887753" lon="-1.6049063">
        <time>2022-07-03T13:10:23Z</time>
      </trkpt>
      <trkpt lat="42.8877" lon="-1.6048824">
        <time>2022-07-03T13:10:24Z</time>
      </trkpt>
      <trkpt lat="42.887646" lon="-1.6048577">
        <time>2022-07-03T13:10:25Z</time>
      </trkpt>
      <trkpt lat="42.88759" lon="-1.6048326">
        <time>2022-07-03T13:10:26Z</time>
      </trkpt>
      <trkpt lat="42.887535" lon="-1.604808">
        <time>2022-07-03T13:10:27Z</time>
      </trkpt>
      <trkpt lat="42.887478" lon="-1.6047829">
        <time>2022-07-03T13:10:28Z</time>
      </trkpt>
      <trkpt lat="42.88742" lon="-1.604757">
        <time>2022-07-03T13:10:29Z</time>
      </trkpt>
      <trkpt lat="42.887363" lon="-1.60473">
        <time>2022-07-03T13:10:30Z</time>
      </trkpt>
      <trkpt lat="42.887306" lon="-1.6047044">
        <time>2022-07-03T13:10:31Z</time>
      </trkpt>
      <trkpt lat="42.887245" lon="-1.604679">
        <time>2022-07-03T13:10:32Z</time>
      </trkpt>
      <trkpt lat="42.887188" lon="-1.6046543">
        <time>2022-07-03T13:10:33Z</time>
      </trkpt>
      <trkpt lat="42.887127" lon="-1.60463">
        <time>2022-07-03T13:10:34Z</time>
      </trkpt>
      <trkpt lat="42.88707" lon="-1.604606">
        <time>2022-07-03T13:10:35Z</time>
      </trkpt>
      <trkpt lat="42.88701" lon="-1.604581">
        <time>2022-07-03T13:10:36Z</time>
      </trkpt>
      <trkpt lat="42.88695" lon="-1.6045557">
        <time>2022-07-03T13:10:37Z</time>
      </trkpt>
      <trkpt lat="42.88689" lon="-1.6045303">
        <time>2022-07-03T13:10:38Z</time>
      </trkpt>
      <trkpt lat="42.88683" lon="-1.6045051">
        <time>2022-07-03T13:10:39Z</time>
      </trkpt>
      <trkpt lat="42.88677" lon="-1.60448">
        <time>2022-07-03T13:10:40Z</time>
      </trkpt>
      <trkpt lat="42.886707" lon="-1.604455">
        <time>2022-07-03T13:10:41Z</time>
      </trkpt>
      <trkpt lat="42.886646" lon="-1.6044301">
        <time>2022-07-03T13:10:42Z</time>
      </trkpt>
      <trkpt lat="42.886585" lon="-1.6044043">
        <time>2022-07-03T13:10:43Z</time>
      </trkpt>
      <trkpt lat="42.886524" lon="-1.60438">
        <time>2022-07-03T13:10:44Z</time>
      </trkpt>
      <trkpt lat="42.886467" lon="-1.6043577">
        <time>2022-07-03T13:10:45Z</time>
      </trkpt>
      <trkpt lat="42.88641" lon="-1.6043351">
        <time>2022-07-03T13:10:46Z</time>
      </trkpt>
      <trkpt lat="42.88635" lon="-1.60431">
        <time>2022-07-03T13:10:47Z</time>
      </trkpt>
      <trkpt lat="42.88629" lon="-1.6042877">
        <time>2022-07-03T13:10:48Z</time>
      </trkpt>
      <trkpt lat="42.88623" lon="-1.6042653">
        <time>2022-07-03T13:10:49Z</time>
      </trkpt>
      <trkpt lat="42.88617" lon="-1.604244">
        <time>2022-07-03T13:10:50Z</time>
      </trkpt>
      <trkpt lat="42.886105" lon="-1.6042237">
        <time>2022-07-03T13:10:51Z</time>
      </trkpt>
      <trkpt lat="42.886044" lon="-1.6042061">
        <time>2022-07-03T13:10:52Z</time>
      </trkpt>
      <trkpt lat="42.885983" lon="-1.6041901">
        <time>2022-07-03T13:10:53Z</time>
      </trkpt>
      <trkpt lat="42.885918" lon="-1.6041747">
        <time>2022-07-03T13:10:54Z</time>
      </trkpt>
      <trkpt lat="42.885853" lon="-1.6041614">
        <time>2022-07-03T13:10:55Z</time>
      </trkpt>
      <trkpt lat="42.885788" lon="-1.60415">
        <time>2022-07-03T13:10:56Z</time>
      </trkpt>
      <trkpt lat="42.885723" lon="-1.6041404">
        <time>2022-07-03T13:10:57Z</time>
      </trkpt>
      <trkpt lat="42.885654" lon="-1.6041328">
        <time>2022-07-03T13:10:58Z</time>
      </trkpt>
      <trkpt lat="42.88559" lon="-1.6041257">
        <time>2022-07-03T13:10:59Z</time>
      </trkpt>
      <trkpt lat="42.885525" lon="-1.6041201">
        <time>2022-07-03T13:11:00Z</time>
      </trkpt>
      <trkpt lat="42.885464" lon="-1.6041155">
        <time>2022-07-03T13:11:01Z</time>
      </trkpt>
      <trkpt lat="42.885395" lon="-1.6041131">
        <time>2022-07-03T13:11:02Z</time>
      </trkpt>
      <trkpt lat="42.88533" lon="-1.6041127">
        <time>2022-07-03T13:11:03Z</time>
      </trkpt>
      <trkpt lat="42.885273" lon="-1.6041131">
        <time>2022-07-03T13:11:04Z</time>
      </trkpt>
      <trkpt lat="42.885216" lon="-1.6041148">
        <time>2022-07-03T13:11:05Z</time>
      </trkpt>
      <trkpt lat="42.88516" lon="-1.6041187">
        <time>2022-07-03T13:11:06Z</time>
      </trkpt>
      <trkpt lat="42.885105" lon="-1.6041248">
        <time>2022-07-03T13:11:07Z</time>
      </trkpt>
      <trkpt lat="42.885048" lon="-1.6041341">
        <time>2022-07-03T13:11:08Z</time>
      </trkpt>
      <trkpt lat="42.885" lon="-1.6041464">
        <time>2022-07-03T13:11:09Z</time>
      </trkpt>
      <trkpt lat="42.884945" lon="-1.6041625">
        <time>2022-07-03T13:11:10Z</time>
      </trkpt>
      <trkpt lat="42.884895" lon="-1.6041805">
        <time>2022-07-03T13:11:11Z</time>
      </trkpt>
      <trkpt lat="42.88485" lon="-1.6041977">
        <time>2022-07-03T13:11:12Z</time>
      </trkpt>
      <trkpt lat="42.88471" lon="-1.604256">
        <time>2022-07-03T13:11:15Z</time>
      </trkpt>
      <trkpt lat="42.884617" lon="-1.6042954">
        <time>2022-07-03T13:11:17Z</time>
      </trkpt>
      <trkpt lat="42.88453" lon="-1.604336">
        <time>2022-07-03T13:11:19Z</time>
      </trkpt>
      <trkpt lat="42.88444" lon="-1.6043774">
        <time>2022-07-03T13:11:21Z</time>
      </trkpt>
      <trkpt lat="42.88436" lon="-1.6044258">
        <time>2022-07-03T13:11:23Z</time>
      </trkpt>
      <trkpt lat="42.884285" lon="-1.6044767">
        <time>2022-07-03T13:11:25Z</time>
      </trkpt>
      <trkpt lat="42.884212" lon="-1.604526">
        <time>2022-07-03T13:11:27Z</time>
      </trkpt>
      <trkpt lat="42.884144" lon="-1.6045767">
        <time>2022-07-03T13:11:29Z</time>
      </trkpt>
      <trkpt lat="42.884075" lon="-1.604624">
        <time>2022-07-03T13:11:31Z</time>
      </trkpt>
      <trkpt lat="42.88401" lon="-1.6046684">
        <time>2022-07-03T13:11:33Z</time>
      </trkpt>
      <trkpt lat="42.88395" lon="-1.6047127">
        <time>2022-07-03T13:11:35Z</time>
      </trkpt>
      <trkpt lat="42.883884" lon="-1.6047587">
        <time>2022-07-03T13:11:37Z</time>
      </trkpt>
      <trkpt lat="42.883823" lon="-1.604807">
        <time>2022-07-03T13:11:39Z</time>
      </trkpt>
      <trkpt lat="42.88376" lon="-1.6048557">
        <time>2022-07-03T13:11:41Z</time>
      </trkpt>
      <trkpt lat="42.883694" lon="-1.604903">
        <time>2022-07-03T13:11:43Z</time>
      </trkpt>
      <trkpt lat="42.88363" lon="-1.6049523">
        <time>2022-07-03T13:11:45Z</time>
      </trkpt>
      <trkpt lat="42.883564" lon="-1.6050024">
        <time>2022-07-03T13:11:47Z</time>
      </trkpt>
      <trkpt lat="42.8835" lon="-1.6050547">
        <time>2022-07-03T13:11:49Z</time>
      </trkpt>
      <trkpt lat="42.88343" lon="-1.6051077">
        <time>2022-07-03T13:11:51Z</time>
      </trkpt>
      <trkpt lat="42.88336" lon="-1.6051594">
        <time>2022-07-03T13:11:53Z</time>
      </trkpt>
      <trkpt lat="42.883293" lon="-1.6052101">
        <time>2022-07-03T13:11:55Z</time>
      </trkpt>
      <trkpt lat="42.88322" lon="-1.6052617">
        <time>2022-07-03T13:11:57Z</time>
      </trkpt>
      <trkpt lat="42.88314" lon="-1.6053153">
        <time>2022-07-03T13:11:59Z</time>
      </trkpt>
      <trkpt lat="42.88306" lon="-1.6053693">
        <time>2022-07-03T13:12:01Z</time>
      </trkpt>
      <trkpt lat="42.882977" lon="-1.6054257">
        <time>2022-07-03T13:12:03Z</time>
      </trkpt>
      <trkpt lat="42.88289" lon="-1.6054829">
        <time>2022-07-03T13:12:05Z</time>
      </trkpt>
      <trkpt lat="42.882797" lon="-1.6055427">
        <time>2022-07-03T13:12:07Z</time>
      </trkpt>
      <trkpt lat="42.882706" lon="-1.6056023">
        <time>2022-07-03T13:12:09Z</time>
      </trkpt>
      <trkpt lat="42.88266" lon="-1.605632">
        <time>2022-07-03T13:12:10Z</time>
      </trkpt>
      <trkpt lat="42.882565" lon="-1.6056963">
        <time>2022-07-03T13:12:12Z</time>
      </trkpt>
      <trkpt lat="42.88251" lon="-1.6057283">
        <time>2022-07-03T13:12:13Z</time>
      </trkpt>
      <trkpt lat="42.88246" lon="-1.60576">
        <time>2022-07-03T13:12:14Z</time>
      </trkpt>
      <trkpt lat="42.88241" lon="-1.6057923">
        <time>2022-07-03T13:12:15Z</time>
      </trkpt>
      <trkpt lat="42.882355" lon="-1.6058276">
        <time>2022-07-03T13:12:16Z</time>
      </trkpt>
      <trkpt lat="42.8823" lon="-1.6058602">
        <time>2022-07-03T13:12:17Z</time>
      </trkpt>
      <trkpt lat="42.882195" lon="-1.6059283">
        <time>2022-07-03T13:12:19Z</time>
      </trkpt>
      <trkpt lat="42.882137" lon="-1.6059632">
        <time>2022-07-03T13:12:20Z</time>
      </trkpt>
      <trkpt lat="42.882084" lon="-1.605999">
        <time>2022-07-03T13:12:21Z</time>
      </trkpt>
      <trkpt lat="42.882023" lon="-1.6060382">
        <time>2022-07-03T13:12:22Z</time>
      </trkpt>
      <trkpt lat="42.881966" lon="-1.6060753">
        <time>2022-07-03T13:12:23Z</time>
      </trkpt>
      <trkpt lat="42.88191" lon="-1.6061152">
        <time>2022-07-03T13:12:24Z</time>
      </trkpt>
      <trkpt lat="42.881847" lon="-1.606154">
        <time>2022-07-03T13:12:25Z</time>
      </trkpt>
      <trkpt lat="42.88179" lon="-1.60619">
        <time>2022-07-03T13:12:26Z</time>
      </trkpt>
      <trkpt lat="42.88173" lon="-1.606226">
        <time>2022-07-03T13:12:27Z</time>
      </trkpt>
      <trkpt lat="42.881668" lon="-1.6062622">
        <time>2022-07-03T13:12:28Z</time>
      </trkpt>
      <trkpt lat="42.8816" lon="-1.6063019">
        <time>2022-07-03T13:12:29Z</time>
      </trkpt>
      <trkpt lat="42.881535" lon="-1.6063422">
        <time>2022-07-03T13:12:30Z</time>
      </trkpt>
      <trkpt lat="42.88147" lon="-1.6063826">
        <time>2022-07-03T13:12:31Z</time>
      </trkpt>
      <trkpt lat="42.881405" lon="-1.6064229">
        <time>2022-07-03T13:12:32Z</time>
      </trkpt>
      <trkpt lat="42.881344" lon="-1.6064602">
        <time>2022-07-03T13:12:33Z</time>
      </trkpt>
      <trkpt lat="42.881283" lon="-1.6064982">
        <time>2022-07-03T13:12:34Z</time>
      </trkpt>
      <trkpt lat="42.881214" lon="-1.6065422">
        <time>2022-07-03T13:12:35Z</time>
      </trkpt>
      <trkpt lat="42.881145" lon="-1.6065856">
        <time>2022-07-03T13:12:36Z</time>
      </trkpt>
      <trkpt lat="42.88108" lon="-1.6066265">
        <time>2022-07-03T13:12:37Z</time>
      </trkpt>
      <trkpt lat="42.881016" lon="-1.6066692">
        <time>2022-07-03T13:12:38Z</time>
      </trkpt>
      <trkpt lat="42.88095" lon="-1.6067132">
        <time>2022-07-03T13:12:39Z</time>
      </trkpt>
      <trkpt lat="42.880882" lon="-1.6067575">
        <time>2022-07-03T13:12:40Z</time>
      </trkpt>
      <trkpt lat="42.880814" lon="-1.6068022">
        <time>2022-07-03T13:12:41Z</time>
      </trkpt>
      <trkpt lat="42.880745" lon="-1.6068429">
        <time>2022-07-03T13:12:42Z</time>
      </trkpt>
      <trkpt lat="42.88067" lon="-1.6068879">
        <time>2022-07-03T13:12:43Z</time>
      </trkpt>
      <trkpt lat="42.880592" lon="-1.6069322">
        <time>2022-07-03T13:12:44Z</time>
      </trkpt>
      <trkpt lat="42.880516" lon="-1.6069759">
        <time>2022-07-03T13:12:45Z</time>
      </trkpt>
      <trkpt lat="42.880444" lon="-1.6070199">
        <time>2022-07-03T13:12:46Z</time>
      </trkpt>
      <trkpt lat="42.880367" lon="-1.6070642">
        <time>2022-07-03T13:12:47Z</time>
      </trkpt>
      <trkpt lat="42.880295" lon="-1.6071092">
        <time>2022-07-03T13:12:48Z</time>
      </trkpt>
      <trkpt lat="42.88022" lon="-1.6071548">
        <time>2022-07-03T13:12:49Z</time>
      </trkpt>
      <trkpt lat="42.880146" lon="-1.6071999">
        <time>2022-07-03T13:12:50Z</time>
      </trkpt>
      <trkpt lat="42.880074" lon="-1.6072469">
        <time>2022-07-03T13:12:51Z</time>
      </trkpt>
      <trkpt lat="42.880005" lon="-1.6072896">
        <time>2022-07-03T13:12:52Z</time>
      </trkpt>
      <trkpt lat="42.879936" lon="-1.6073312">
        <time>2022-07-03T13:12:53Z</time>
      </trkpt>
      <trkpt lat="42.879868" lon="-1.6073722">
        <time>2022-07-03T13:12:54Z</time>
      </trkpt>
      <trkpt lat="42.8798" lon="-1.6074132">
        <time>2022-07-03T13:12:55Z</time>
      </trkpt>
      <trkpt lat="42.87973" lon="-1.6074558">
        <time>2022-07-03T13:12:56Z</time>
      </trkpt>
      <trkpt lat="42.87966" lon="-1.6074958">
        <time>2022-07-03T13:12:57Z</time>
      </trkpt>
      <trkpt lat="42.879597" lon="-1.6075318">
        <time>2022-07-03T13:12:58Z</time>
      </trkpt>
      <trkpt lat="42.87953" lon="-1.6075672">
        <time>2022-07-03T13:12:59Z</time>
      </trkpt>
      <trkpt lat="42.879463" lon="-1.6076032">
        <time>2022-07-03T13:13:00Z</time>
      </trkpt>
      <trkpt lat="42.879402" lon="-1.6076359">
        <time>2022-07-03T13:13:01Z</time>
      </trkpt>
      <trkpt lat="42.879333" lon="-1.6076689">
        <time>2022-07-03T13:13:02Z</time>
      </trkpt>
      <trkpt lat="42.879265" lon="-1.6077012">
        <time>2022-07-03T13:13:03Z</time>
      </trkpt>
      <trkpt lat="42.879196" lon="-1.6077311">
        <time>2022-07-03T13:13:04Z</time>
      </trkpt>
      <trkpt lat="42.879124" lon="-1.6077608">
        <time>2022-07-03T13:13:05Z</time>
      </trkpt>
      <trkpt lat="42.87905" lon="-1.6077895">
        <time>2022-07-03T13:13:06Z</time>
      </trkpt>
      <trkpt lat="42.878975" lon="-1.6078188">
        <time>2022-07-03T13:13:07Z</time>
      </trkpt>
      <trkpt lat="42.878902" lon="-1.6078441">
        <time>2022-07-03T13:13:08Z</time>
      </trkpt>
      <trkpt lat="42.878826" lon="-1.6078701">
        <time>2022-07-03T13:13:09Z</time>
      </trkpt>
      <trkpt lat="42.878746" lon="-1.6078975">
        <time>2022-07-03T13:13:10Z</time>
      </trkpt>
      <trkpt lat="42.878662" lon="-1.6079237">
        <time>2022-07-03T13:13:11Z</time>
      </trkpt>
      <trkpt lat="42.87859" lon="-1.6079478">
        <time>2022-07-03T13:13:12Z</time>
      </trkpt>
      <trkpt lat="42.87851" lon="-1.6079708">
        <time>2022-07-03T13:13:13Z</time>
      </trkpt>
      <trkpt lat="42.87843" lon="-1.6079931">
        <time>2022-07-03T13:13:14Z</time>
      </trkpt>
      <trkpt lat="42.878338" lon="-1.6080165">
        <time>2022-07-03T13:13:15Z</time>
      </trkpt>
      <trkpt lat="42.878254" lon="-1.6080384">
        <time>2022-07-03T13:13:16Z</time>
      </trkpt>
      <trkpt lat="42.878162" lon="-1.6080614">
        <time>2022-07-03T13:13:17Z</time>
      </trkpt>
      <trkpt lat="42.878075" lon="-1.6080822">
        <time>2022-07-03T13:13:18Z</time>
      </trkpt>
      <trkpt lat="42.877987" lon="-1.6081045">
        <time>2022-07-03T13:13:19Z</time>
      </trkpt>
      <trkpt lat="42.8779" lon="-1.6081288">
        <time>2022-07-03T13:13:20Z</time>
      </trkpt>
      <trkpt lat="42.877705" lon="-1.6081845">
        <time>2022-07-03T13:13:22Z</time>
      </trkpt>
      <trkpt lat="42.877617" lon="-1.6082114">
        <time>2022-07-03T13:13:23Z</time>
      </trkpt>
      <trkpt lat="42.877525" lon="-1.6082381">
        <time>2022-07-03T13:13:24Z</time>
      </trkpt>
      <trkpt lat="42.877422" lon="-1.6082661">
        <time>2022-07-03T13:13:25Z</time>
      </trkpt>
      <trkpt lat="42.877327" lon="-1.6082925">
        <time>2022-07-03T13:13:26Z</time>
      </trkpt>
      <trkpt lat="42.877235" lon="-1.6083161">
        <time>2022-07-03T13:13:27Z</time>
      </trkpt>
      <trkpt lat="42.877144" lon="-1.6083404">
        <time>2022-07-03T13:13:28Z</time>
      </trkpt>
      <trkpt lat="42.87705" lon="-1.6083637">
        <time>2022-07-03T13:13:29Z</time>
      </trkpt>
      <trkpt lat="42.876957" lon="-1.6083881">
        <time>2022-07-03T13:13:30Z</time>
      </trkpt>
      <trkpt lat="42.87686" lon="-1.6084154">
        <time>2022-07-03T13:13:31Z</time>
      </trkpt>
      <trkpt lat="42.876766" lon="-1.6084414">
        <time>2022-07-03T13:13:32Z</time>
      </trkpt>
      <trkpt lat="42.876675" lon="-1.6084658">
        <time>2022-07-03T13:13:33Z</time>
      </trkpt>
      <trkpt lat="42.876587" lon="-1.6084888">
        <time>2022-07-03T13:13:34Z</time>
      </trkpt>
      <trkpt lat="42.876495" lon="-1.6085128">
        <time>2022-07-03T13:13:35Z</time>
      </trkpt>
      <trkpt lat="42.876396" lon="-1.608538">
        <time>2022-07-03T13:13:36Z</time>
      </trkpt>
      <trkpt lat="42.8763" lon="-1.6085644">
        <time>2022-07-03T13:13:37Z</time>
      </trkpt>
      <trkpt lat="42.87621" lon="-1.6085881">
        <time>2022-07-03T13:13:38Z</time>
      </trkpt>
      <trkpt lat="42.876118" lon="-1.608613">
        <time>2022-07-03T13:13:39Z</time>
      </trkpt>
      <trkpt lat="42.87602" lon="-1.608641">
        <time>2022-07-03T13:13:40Z</time>
      </trkpt>
      <trkpt lat="42.87593" lon="-1.6086664">
        <time>2022-07-03T13:13:41Z</time>
      </trkpt>
      <trkpt lat="42.875835" lon="-1.6086954">
        <time>2022-07-03T13:13:42Z</time>
      </trkpt>
      <trkpt lat="42.87574" lon="-1.6087257">
        <time>2022-07-03T13:13:43Z</time>
      </trkpt>
      <trkpt lat="42.875656" lon="-1.6087561">
        <time>2022-07-03T13:13:44Z</time>
      </trkpt>
      <trkpt lat="42.875572" lon="-1.6087874">
        <time>2022-07-03T13:13:45Z</time>
      </trkpt>
      <trkpt lat="42.87548" lon="-1.608822">
        <time>2022-07-03T13:13:46Z</time>
      </trkpt>
      <trkpt lat="42.875397" lon="-1.6088554">
        <time>2022-07-03T13:13:47Z</time>
      </trkpt>
      <trkpt lat="42.875317" lon="-1.608889">
        <time>2022-07-03T13:13:48Z</time>
      </trkpt>
      <trkpt lat="42.875233" lon="-1.6089231">
        <time>2022-07-03T13:13:49Z</time>
      </trkpt>
      <trkpt lat="42.875153" lon="-1.6089576">
        <time>2022-07-03T13:13:50Z</time>
      </trkpt>
      <trkpt lat="42.87507" lon="-1.6089944">
        <time>2022-07-03T13:13:51Z</time>
      </trkpt>
      <trkpt lat="42.874985" lon="-1.60903">
        <time>2022-07-03T13:13:52Z</time>
      </trkpt>
      <trkpt lat="42.874905" lon="-1.6090667">
        <time>2022-07-03T13:13:53Z</time>
      </trkpt>
      <trkpt lat="42.874832" lon="-1.609102">
        <time>2022-07-03T13:13:54Z</time>
      </trkpt>
      <trkpt lat="42.87476" lon="-1.6091347">
        <time>2022-07-03T13:13:55Z</time>
      </trkpt>
      <trkpt lat="42.874683" lon="-1.6091644">
        <time>2022-07-03T13:13:56Z</time>
      </trkpt>
      <trkpt lat="42.874603" lon="-1.6091924">
        <time>2022-07-03T13:13:57Z</time>
      </trkpt>
      <trkpt lat="42.874523" lon="-1.6092176">
        <time>2022-07-03T13:13:58Z</time>
      </trkpt>
      <trkpt lat="42.87445" lon="-1.6092414">
        <time>2022-07-03T13:13:59Z</time>
      </trkpt>
      <trkpt lat="42.87438" lon="-1.6092683">
        <time>2022-07-03T13:14:00Z</time>
      </trkpt>
      <trkpt lat="42.87431" lon="-1.6092967">
        <time>2022-07-03T13:14:01Z</time>
      </trkpt>
      <trkpt lat="42.874233" lon="-1.6093266">
        <time>2022-07-03T13:14:02Z</time>
      </trkpt>
      <trkpt lat="42.874165" lon="-1.6093516">
        <time>2022-07-03T13:14:03Z</time>
      </trkpt>
      <trkpt lat="42.874096" lon="-1.609375">
        <time>2022-07-03T13:14:04Z</time>
      </trkpt>
      <trkpt lat="42.874027" lon="-1.609399">
        <time>2022-07-03T13:14:05Z</time>
      </trkpt>
      <trkpt lat="42.87396" lon="-1.6094233">
        <time>2022-07-03T13:14:06Z</time>
      </trkpt>
      <trkpt lat="42.87389" lon="-1.609448">
        <time>2022-07-03T13:14:07Z</time>
      </trkpt>
      <trkpt lat="42.873825" lon="-1.609471">
        <time>2022-07-03T13:14:08Z</time>
      </trkpt>
      <trkpt lat="42.87376" lon="-1.609492">
        <time>2022-07-03T13:14:09Z</time>
      </trkpt>
      <trkpt lat="42.873695" lon="-1.6095093">
        <time>2022-07-03T13:14:10Z</time>
      </trkpt>
      <trkpt lat="42.873634" lon="-1.6095246">
        <time>2022-07-03T13:14:11Z</time>
      </trkpt>
      <trkpt lat="42.873566" lon="-1.60954">
        <time>2022-07-03T13:14:12Z</time>
      </trkpt>
      <trkpt lat="42.8735" lon="-1.6095543">
        <time>2022-07-03T13:14:13Z</time>
      </trkpt>
      <trkpt lat="42.873436" lon="-1.6095647">
        <time>2022-07-03T13:14:14Z</time>
      </trkpt>
      <trkpt lat="42.87338" lon="-1.6095723">
        <time>2022-07-03T13:14:15Z</time>
      </trkpt>
      <trkpt lat="42.873314" lon="-1.6095779">
        <time>2022-07-03T13:14:16Z</time>
      </trkpt>
      <trkpt lat="42.873253" lon="-1.6095836">
        <time>2022-07-03T13:14:17Z</time>
      </trkpt>
      <trkpt lat="42.87319" lon="-1.6095879">
        <time>2022-07-03T13:14:18Z</time>
      </trkpt>
      <trkpt lat="42.87313" lon="-1.6095899">
        <time>2022-07-03T13:14:19Z</time>
      </trkpt>
      <trkpt lat="42.873074" lon="-1.6095922">
        <time>2022-07-03T13:14:20Z</time>
      </trkpt>
      <trkpt lat="42.873013" lon="-1.6095912">
        <time>2022-07-03T13:14:21Z</time>
      </trkpt>
      <trkpt lat="42.872955" lon="-1.6095876">
        <time>2022-07-03T13:14:22Z</time>
      </trkpt>
      <trkpt lat="42.872894" lon="-1.6095816">
        <time>2022-07-03T13:14:23Z</time>
      </trkpt>
      <trkpt lat="42.872837" lon="-1.6095746">
        <time>2022-07-03T13:14:24Z</time>
      </trkpt>
      <trkpt lat="42.872776" lon="-1.6095676">
        <time>2022-07-03T13:14:25Z</time>
      </trkpt>
      <trkpt lat="42.87271" lon="-1.6095612">
        <time>2022-07-03T13:14:26Z</time>
      </trkpt>
      <trkpt lat="42.872646" lon="-1.609556">
        <time>2022-07-03T13:14:27Z</time>
      </trkpt>
      <trkpt lat="42.872585" lon="-1.6095493">
        <time>2022-07-03T13:14:28Z</time>
      </trkpt>
      <trkpt lat="42.87252" lon="-1.6095419">
        <time>2022-07-03T13:14:29Z</time>
      </trkpt>
      <trkpt lat="42.87246" lon="-1.6095339">
        <time>2022-07-03T13:14:30Z</time>
      </trkpt>
      <trkpt lat="42.872395" lon="-1.6095233">
        <time>2022-07-03T13:14:31Z</time>
      </trkpt>
      <trkpt lat="42.87233" lon="-1.6095113">
        <time>2022-07-03T13:14:32Z</time>
      </trkpt>
      <trkpt lat="42.872265" lon="-1.6094993">
        <time>2022-07-03T13:14:33Z</time>
      </trkpt>
      <trkpt lat="42.872135" lon="-1.6094749">
        <time>2022-07-03T13:14:35Z</time>
      </trkpt>
      <trkpt lat="42.872074" lon="-1.609463">
        <time>2022-07-03T13:14:36Z</time>
      </trkpt>
      <trkpt lat="42.872005" lon="-1.60945">
        <time>2022-07-03T13:14:37Z</time>
      </trkpt>
      <trkpt lat="42.87194" lon="-1.6094383">
        <time>2022-07-03T13:14:38Z</time>
      </trkpt>
      <trkpt lat="42.87188" lon="-1.6094273">
        <time>2022-07-03T13:14:39Z</time>
      </trkpt>
      <trkpt lat="42.871815" lon="-1.6094166">
        <time>2022-07-03T13:14:40Z</time>
      </trkpt>
      <trkpt lat="42.871746" lon="-1.6094056">
        <time>2022-07-03T13:14:41Z</time>
      </trkpt>
      <trkpt lat="42.871685" lon="-1.609395">
        <time>2022-07-03T13:14:42Z</time>
      </trkpt>
      <trkpt lat="42.871624" lon="-1.609385">
        <time>2022-07-03T13:14:43Z</time>
      </trkpt>
      <trkpt lat="42.87156" lon="-1.6093773">
        <time>2022-07-03T13:14:44Z</time>
      </trkpt>
      <trkpt lat="42.8715" lon="-1.609371">
        <time>2022-07-03T13:14:45Z</time>
      </trkpt>
      <trkpt lat="42.871433" lon="-1.6093683">
        <time>2022-07-03T13:14:46Z</time>
      </trkpt>
      <trkpt lat="42.871372" lon="-1.609369">
        <time>2022-07-03T13:14:47Z</time>
      </trkpt>
      <trkpt lat="42.871304" lon="-1.6093754">
        <time>2022-07-03T13:14:48Z</time>
      </trkpt>
      <trkpt lat="42.871243" lon="-1.609384">
        <time>2022-07-03T13:14:49Z</time>
      </trkpt>
      <trkpt lat="42.87118" lon="-1.609395">
        <time>2022-07-03T13:14:50Z</time>
      </trkpt>
      <trkpt lat="42.871117" lon="-1.609408">
        <time>2022-07-03T13:14:51Z</time>
      </trkpt>
      <trkpt lat="42.87105" lon="-1.6094233">
        <time>2022-07-03T13:14:52Z</time>
      </trkpt>
      <trkpt lat="42.870983" lon="-1.609443">
        <time>2022-07-03T13:14:53Z</time>
      </trkpt>
      <trkpt lat="42.87092" lon="-1.609465">
        <time>2022-07-03T13:14:54Z</time>
      </trkpt>
      <trkpt lat="42.870857" lon="-1.6094873">
        <time>2022-07-03T13:14:55Z</time>
      </trkpt>
      <trkpt lat="42.870792" lon="-1.6095136">
        <time>2022-07-03T13:14:56Z</time>
      </trkpt>
      <trkpt lat="42.870735" lon="-1.609537">
        <time>2022-07-03T13:14:57Z</time>
      </trkpt>
      <trkpt lat="42.870674" lon="-1.6095566">
        <time>2022-07-03T13:14:58Z</time>
      </trkpt>
      <trkpt lat="42.870617" lon="-1.6095673">
        <time>2022-07-03T13:14:59Z</time>
      </trkpt>
      <trkpt lat="42.870556" lon="-1.6095682">
        <time>2022-07-03T13:15:00Z</time>
      </trkpt>
      <trkpt lat="42.870506" lon="-1.6095593">
        <time>2022-07-03T13:15:01Z</time>
      </trkpt>
      <trkpt lat="42.870403" lon="-1.6095036">
        <time>2022-07-03T13:15:03Z</time>
      </trkpt>
      <trkpt lat="42.87036" lon="-1.6094652">
        <time>2022-07-03T13:15:04Z</time>
      </trkpt>
      <trkpt lat="42.870316" lon="-1.6094242">
        <time>2022-07-03T13:15:05Z</time>
      </trkpt>
      <trkpt lat="42.870274" lon="-1.609383">
        <time>2022-07-03T13:15:06Z</time>
      </trkpt>
      <trkpt lat="42.870228" lon="-1.6093436">
        <time>2022-07-03T13:15:07Z</time>
      </trkpt>
      <trkpt lat="42.870182" lon="-1.6093069">
        <time>2022-07-03T13:15:08Z</time>
      </trkpt>
      <trkpt lat="42.870132" lon="-1.6092743">
        <time>2022-07-03T13:15:09Z</time>
      </trkpt>
      <trkpt lat="42.870083" lon="-1.6092463">
        <time>2022-07-03T13:15:10Z</time>
      </trkpt>
      <trkpt lat="42.87003" lon="-1.6092249">
        <time>2022-07-03T13:15:11Z</time>
      </trkpt>
      <trkpt lat="42.86998" lon="-1.609209">
        <time>2022-07-03T13:15:12Z</time>
      </trkpt>
      <trkpt lat="42.869926" lon="-1.6091973">
        <time>2022-07-03T13:15:13Z</time>
      </trkpt>
      <trkpt lat="42.86987" lon="-1.6091883">
        <time>2022-07-03T13:15:14Z</time>
      </trkpt>
      <trkpt lat="42.869812" lon="-1.6091796">
        <time>2022-07-03T13:15:15Z</time>
      </trkpt>
      <trkpt lat="42.86975" lon="-1.609172">
        <time>2022-07-03T13:15:16Z</time>
      </trkpt>
      <trkpt lat="42.86969" lon="-1.609167">
        <time>2022-07-03T13:15:17Z</time>
      </trkpt>
      <trkpt lat="42.86963" lon="-1.6091623">
        <time>2022-07-03T13:15:18Z</time>
      </trkpt>
      <trkpt lat="42.869568" lon="-1.6091573">
        <time>2022-07-03T13:15:19Z</time>
      </trkpt>
      <trkpt lat="42.869503" lon="-1.6091493">
        <time>2022-07-03T13:15:20Z</time>
      </trkpt>
      <trkpt lat="42.86945" lon="-1.6091406">
        <time>2022-07-03T13:15:21Z</time>
      </trkpt>
      <trkpt lat="42.86939" lon="-1.6091323">
        <time>2022-07-03T13:15:22Z</time>
      </trkpt>
      <trkpt lat="42.869328" lon="-1.609126">
        <time>2022-07-03T13:15:23Z</time>
      </trkpt>
      <trkpt lat="42.869267" lon="-1.6091241">
        <time>2022-07-03T13:15:24Z</time>
      </trkpt>
      <trkpt lat="42.8692" lon="-1.6091247">
        <time>2022-07-03T13:15:25Z</time>
      </trkpt>
      <trkpt lat="42.86914" lon="-1.609128">
        <time>2022-07-03T13:15:26Z</time>
      </trkpt>
      <trkpt lat="42.86908" lon="-1.609133">
        <time>2022-07-03T13:15:27Z</time>
      </trkpt>
      <trkpt lat="42.86902" lon="-1.609138">
        <time>2022-07-03T13:15:28Z</time>
      </trkpt>
      <trkpt lat="42.86896" lon="-1.609144">
        <time>2022-07-03T13:15:29Z</time>
      </trkpt>
      <trkpt lat="42.868904" lon="-1.6091497">
        <time>2022-07-03T13:15:30Z</time>
      </trkpt>
      <trkpt lat="42.868843" lon="-1.6091543">
        <time>2022-07-03T13:15:31Z</time>
      </trkpt>
      <trkpt lat="42.868782" lon="-1.6091577">
        <time>2022-07-03T13:15:32Z</time>
      </trkpt>
      <trkpt lat="42.86872" lon="-1.6091607">
        <time>2022-07-03T13:15:33Z</time>
      </trkpt>
      <trkpt lat="42.868664" lon="-1.6091613">
        <time>2022-07-03T13:15:34Z</time>
      </trkpt>
      <trkpt lat="42.868603" lon="-1.6091627">
        <time>2022-07-03T13:15:35Z</time>
      </trkpt>
      <trkpt lat="42.868546" lon="-1.6091627">
        <time>2022-07-03T13:15:36Z</time>
      </trkpt>
      <trkpt lat="42.868492" lon="-1.6091633">
        <time>2022-07-03T13:15:37Z</time>
      </trkpt>
      <trkpt lat="42.868435" lon="-1.609165">
        <time>2022-07-03T13:15:38Z</time>
      </trkpt>
      <trkpt lat="42.868374" lon="-1.60917">
        <time>2022-07-03T13:15:39Z</time>
      </trkpt>
      <trkpt lat="42.868317" lon="-1.6091743">
        <time>2022-07-03T13:15:40Z</time>
      </trkpt>
      <trkpt lat="42.868256" lon="-1.60918">
        <time>2022-07-03T13:15:41Z</time>
      </trkpt>
      <trkpt lat="42.868195" lon="-1.6091876">
        <time>2022-07-03T13:15:42Z</time>
      </trkpt>
      <trkpt lat="42.868134" lon="-1.6091963">
        <time>2022-07-03T13:15:43Z</time>
      </trkpt>
      <trkpt lat="42.86808" lon="-1.6092036">
        <time>2022-07-03T13:15:44Z</time>
      </trkpt>
      <trkpt lat="42.868015" lon="-1.609211">
        <time>2022-07-03T13:15:45Z</time>
      </trkpt>
      <trkpt lat="42.867954" lon="-1.6092182">
        <time>2022-07-03T13:15:46Z</time>
      </trkpt>
      <trkpt lat="42.867897" lon="-1.6092249">
        <time>2022-07-03T13:15:47Z</time>
      </trkpt>
      <trkpt lat="42.867836" lon="-1.609232">
        <time>2022-07-03T13:15:48Z</time>
      </trkpt>
      <trkpt lat="42.86778" lon="-1.6092376">
        <time>2022-07-03T13:15:49Z</time>
      </trkpt>
      <trkpt lat="42.86772" lon="-1.609245">
        <time>2022-07-03T13:15:50Z</time>
      </trkpt>
      <trkpt lat="42.86766" lon="-1.6092516">
        <time>2022-07-03T13:15:51Z</time>
      </trkpt>
      <trkpt lat="42.867546" lon="-1.6092632">
        <time>2022-07-03T13:15:53Z</time>
      </trkpt>
      <trkpt lat="42.867493" lon="-1.6092685">
        <time>2022-07-03T13:15:54Z</time>
      </trkpt>
      <trkpt lat="42.86744" lon="-1.6092739">
        <time>2022-07-03T13:15:55Z</time>
      </trkpt>
      <trkpt lat="42.86739" lon="-1.6092789">
        <time>2022-07-03T13:15:56Z</time>
      </trkpt>
      <trkpt lat="42.867294" lon="-1.6092862">
        <time>2022-07-03T13:15:58Z</time>
      </trkpt>
      <trkpt lat="42.867207" lon="-1.6092906">
        <time>2022-07-03T13:16:00Z</time>
      </trkpt>
      <trkpt lat="42.867126" lon="-1.6092969">
        <time>2022-07-03T13:16:02Z</time>
      </trkpt>
      <trkpt lat="42.867054" lon="-1.6093066">
        <time>2022-07-03T13:16:04Z</time>
      </trkpt>
      <trkpt lat="42.86698" lon="-1.6093196">
        <time>2022-07-03T13:16:06Z</time>
      </trkpt>
      <trkpt lat="42.866917" lon="-1.6093313">
        <time>2022-07-03T13:16:08Z</time>
      </trkpt>
      <trkpt lat="42.866848" lon="-1.6093389">
        <time>2022-07-03T13:16:10Z</time>
      </trkpt>
      <trkpt lat="42.86678" lon="-1.6093448">
        <time>2022-07-03T13:16:12Z</time>
      </trkpt>
      <trkpt lat="42.866714" lon="-1.6093508">
        <time>2022-07-03T13:16:14Z</time>
      </trkpt>
      <trkpt lat="42.86665" lon="-1.6093636">
        <time>2022-07-03T13:16:16Z</time>
      </trkpt>
      <trkpt lat="42.86659" lon="-1.6093779">
        <time>2022-07-03T13:16:18Z</time>
      </trkpt>
      <trkpt lat="42.866528" lon="-1.6093932">
        <time>2022-07-03T13:16:20Z</time>
      </trkpt>
      <trkpt lat="42.866467" lon="-1.6094092">
        <time>2022-07-03T13:16:22Z</time>
      </trkpt>
      <trkpt lat="42.86641" lon="-1.6094255">
        <time>2022-07-03T13:16:24Z</time>
      </trkpt>
      <trkpt lat="42.866352" lon="-1.6094441">
        <time>2022-07-03T13:16:26Z</time>
      </trkpt>
      <trkpt lat="42.866295" lon="-1.6094638">
        <time>2022-07-03T13:16:28Z</time>
      </trkpt>
      <trkpt lat="42.866234" lon="-1.6094851">
        <time>2022-07-03T13:16:30Z</time>
      </trkpt>
      <trkpt lat="42.866177" lon="-1.6095061">
        <time>2022-07-03T13:16:32Z</time>
      </trkpt>
      <trkpt lat="42.86612" lon="-1.6095258">
        <time>2022-07-03T13:16:34Z</time>
      </trkpt>
      <trkpt lat="42.866062" lon="-1.6095438">
        <time>2022-07-03T13:16:36Z</time>
      </trkpt>
      <trkpt lat="42.86601" lon="-1.6095588">
        <time>2022-07-03T13:16:38Z</time>
      </trkpt>
      <trkpt lat="42.86596" lon="-1.6095761">
        <time>2022-07-03T13:16:40Z</time>
      </trkpt>
      <trkpt lat="42.865913" lon="-1.6095941">
        <time>2022-07-03T13:16:42Z</time>
      </trkpt>
      <trkpt lat="42.865864" lon="-1.6096332">
        <time>2022-07-03T13:16:45Z</time>
      </trkpt>
      <trkpt lat="42.865856" lon="-1.6096818">
        <time>2022-07-03T13:22:11Z</time>
      </trkpt>
      <trkpt lat="42.865795" lon="-1.6096848">
        <time>2022-07-03T13:22:14Z</time>
      </trkpt>
      <trkpt lat="42.86573" lon="-1.6097058">
        <time>2022-07-03T13:22:17Z</time>
      </trkpt>
      <trkpt lat="42.86566" lon="-1.6097418">
        <time>2022-07-03T13:22:20Z</time>
      </trkpt>
      <trkpt lat="42.865616" lon="-1.6097704">
        <time>2022-07-03T13:22:22Z</time>
      </trkpt>
      <trkpt lat="42.86557" lon="-1.6098042">
        <time>2022-07-03T13:22:24Z</time>
      </trkpt>
      <trkpt lat="42.865505" lon="-1.6098598">
        <time>2022-07-03T13:22:27Z</time>
      </trkpt>
      <trkpt lat="42.86546" lon="-1.6098968">
        <time>2022-07-03T13:22:29Z</time>
      </trkpt>
      <trkpt lat="42.86541" lon="-1.6099424">
        <time>2022-07-03T13:22:31Z</time>
      </trkpt>
      <trkpt lat="42.865364" lon="-1.6099898">
        <time>2022-07-03T13:22:33Z</time>
      </trkpt>
      <trkpt lat="42.865307" lon="-1.6100451">
        <time>2022-07-03T13:22:35Z</time>
      </trkpt>
      <trkpt lat="42.86525" lon="-1.6101004">
        <time>2022-07-03T13:22:37Z</time>
      </trkpt>
      <trkpt lat="42.86519" lon="-1.6101631">
        <time>2022-07-03T13:22:39Z</time>
      </trkpt>
      <trkpt lat="42.86512" lon="-1.6102338">
        <time>2022-07-03T13:22:41Z</time>
      </trkpt>
      <trkpt lat="42.865055" lon="-1.6103061">
        <time>2022-07-03T13:22:43Z</time>
      </trkpt>
      <trkpt lat="42.864986" lon="-1.6103791">
        <time>2022-07-03T13:22:45Z</time>
      </trkpt>
      <trkpt lat="42.86491" lon="-1.6104531">
        <time>2022-07-03T13:22:47Z</time>
      </trkpt>
      <trkpt lat="42.86483" lon="-1.6105291">
        <time>2022-07-03T13:22:49Z</time>
      </trkpt>
      <trkpt lat="42.86475" lon="-1.6106044">
        <time>2022-07-03T13:22:51Z</time>
      </trkpt>
      <trkpt lat="42.86467" lon="-1.6106774">
        <time>2022-07-03T13:22:53Z</time>
      </trkpt>
      <trkpt lat="42.86459" lon="-1.6107571">
        <time>2022-07-03T13:22:55Z</time>
      </trkpt>
      <trkpt lat="42.864513" lon="-1.6108327">
        <time>2022-07-03T13:22:57Z</time>
      </trkpt>
      <trkpt lat="42.864437" lon="-1.6109114">
        <time>2022-07-03T13:22:59Z</time>
      </trkpt>
      <trkpt lat="42.8644" lon="-1.6109511">
        <time>2022-07-03T13:23:00Z</time>
      </trkpt>
      <trkpt lat="42.864323" lon="-1.611029">
        <time>2022-07-03T13:23:02Z</time>
      </trkpt>
      <trkpt lat="42.864285" lon="-1.6110694">
        <time>2022-07-03T13:23:03Z</time>
      </trkpt>
      <trkpt lat="42.86421" lon="-1.6111467">
        <time>2022-07-03T13:23:05Z</time>
      </trkpt>
      <trkpt lat="42.86417" lon="-1.6111854">
        <time>2022-07-03T13:23:06Z</time>
      </trkpt>
      <trkpt lat="42.864098" lon="-1.6112654">
        <time>2022-07-03T13:23:08Z</time>
      </trkpt>
      <trkpt lat="42.864025" lon="-1.6113414">
        <time>2022-07-03T13:23:10Z</time>
      </trkpt>
      <trkpt lat="42.863953" lon="-1.6114128">
        <time>2022-07-03T13:23:12Z</time>
      </trkpt>
      <trkpt lat="42.86388" lon="-1.6114811">
        <time>2022-07-03T13:23:14Z</time>
      </trkpt>
      <trkpt lat="42.863777" lon="-1.611592">
        <time>2022-07-03T13:23:17Z</time>
      </trkpt>
      <trkpt lat="42.863712" lon="-1.6116787">
        <time>2022-07-03T13:23:19Z</time>
      </trkpt>
      <trkpt lat="42.863686" lon="-1.6117353">
        <time>2022-07-03T13:23:20Z</time>
      </trkpt>
      <trkpt lat="42.863655" lon="-1.6118597">
        <time>2022-07-03T13:23:22Z</time>
      </trkpt>
      <trkpt lat="42.863647" lon="-1.6119297">
        <time>2022-07-03T13:23:23Z</time>
      </trkpt>
      <trkpt lat="42.863647" lon="-1.6120083">
        <time>2022-07-03T13:23:24Z</time>
      </trkpt>
      <trkpt lat="42.863644" lon="-1.612088">
        <time>2022-07-03T13:23:25Z</time>
      </trkpt>
      <trkpt lat="42.863636" lon="-1.6121616">
        <time>2022-07-03T13:23:26Z</time>
      </trkpt>
      <trkpt lat="42.86362" lon="-1.6122353">
        <time>2022-07-03T13:23:27Z</time>
      </trkpt>
      <trkpt lat="42.863598" lon="-1.6123077">
        <time>2022-07-03T13:23:28Z</time>
      </trkpt>
      <trkpt lat="42.863567" lon="-1.61237">
        <time>2022-07-03T13:23:29Z</time>
      </trkpt>
      <trkpt lat="42.863533" lon="-1.612419">
        <time>2022-07-03T13:23:30Z</time>
      </trkpt>
      <trkpt lat="42.863445" lon="-1.6124734">
        <time>2022-07-03T13:23:32Z</time>
      </trkpt>
      <trkpt lat="42.863396" lon="-1.6124814">
        <time>2022-07-03T13:23:33Z</time>
      </trkpt>
      <trkpt lat="42.863293" lon="-1.6124797">
        <time>2022-07-03T13:23:35Z</time>
      </trkpt>
      <trkpt lat="42.863247" lon="-1.612477">
        <time>2022-07-03T13:23:36Z</time>
      </trkpt>
      <trkpt lat="42.86314" lon="-1.612479">
        <time>2022-07-03T13:23:38Z</time>
      </trkpt>
      <trkpt lat="42.863087" lon="-1.612489">
        <time>2022-07-03T13:23:39Z</time>
      </trkpt>
      <trkpt lat="42.86304" lon="-1.612504">
        <time>2022-07-03T13:23:40Z</time>
      </trkpt>
      <trkpt lat="42.86294" lon="-1.6125456">
        <time>2022-07-03T13:23:42Z</time>
      </trkpt>
      <trkpt lat="42.86284" lon="-1.6126057">
        <time>2022-07-03T13:23:44Z</time>
      </trkpt>
      <trkpt lat="42.862793" lon="-1.612638">
        <time>2022-07-03T13:23:45Z</time>
      </trkpt>
      <trkpt lat="42.862747" lon="-1.6126733">
        <time>2022-07-03T13:23:46Z</time>
      </trkpt>
      <trkpt lat="42.8627" lon="-1.6127117">
        <time>2022-07-03T13:23:47Z</time>
      </trkpt>
      <trkpt lat="42.862648" lon="-1.6127547">
        <time>2022-07-03T13:23:48Z</time>
      </trkpt>
      <trkpt lat="42.8626" lon="-1.6127983">
        <time>2022-07-03T13:23:49Z</time>
      </trkpt>
      <trkpt lat="42.86255" lon="-1.6128429">
        <time>2022-07-03T13:23:50Z</time>
      </trkpt>
      <trkpt lat="42.862503" lon="-1.612885">
        <time>2022-07-03T13:23:51Z</time>
      </trkpt>
      <trkpt lat="42.862453" lon="-1.612929">
        <time>2022-07-03T13:23:52Z</time>
      </trkpt>
      <trkpt lat="42.862404" lon="-1.6129773">
        <time>2022-07-03T13:23:53Z</time>
      </trkpt>
      <trkpt lat="42.862354" lon="-1.6130259">
        <time>2022-07-03T13:23:54Z</time>
      </trkpt>
      <trkpt lat="42.862305" lon="-1.6130726">
        <time>2022-07-03T13:23:55Z</time>
      </trkpt>
      <trkpt lat="42.862255" lon="-1.6131213">
        <time>2022-07-03T13:23:56Z</time>
      </trkpt>
      <trkpt lat="42.862206" lon="-1.613171">
        <time>2022-07-03T13:23:57Z</time>
      </trkpt>
      <trkpt lat="42.862152" lon="-1.6132213">
        <time>2022-07-03T13:23:58Z</time>
      </trkpt>
      <trkpt lat="42.8621" lon="-1.6132736">
        <time>2022-07-03T13:23:59Z</time>
      </trkpt>
      <trkpt lat="42.862045" lon="-1.6133276">
        <time>2022-07-03T13:24:00Z</time>
      </trkpt>
      <trkpt lat="42.86199" lon="-1.6133829">
        <time>2022-07-03T13:24:01Z</time>
      </trkpt>
      <trkpt lat="42.861935" lon="-1.6134396">
        <time>2022-07-03T13:24:02Z</time>
      </trkpt>
      <trkpt lat="42.861877" lon="-1.613501">
        <time>2022-07-03T13:24:03Z</time>
      </trkpt>
      <trkpt lat="42.86182" lon="-1.6135609">
        <time>2022-07-03T13:24:04Z</time>
      </trkpt>
      <trkpt lat="42.861767" lon="-1.613617">
        <time>2022-07-03T13:24:05Z</time>
      </trkpt>
      <trkpt lat="42.86171" lon="-1.6136732">
        <time>2022-07-03T13:24:06Z</time>
      </trkpt>
      <trkpt lat="42.861656" lon="-1.6137305">
        <time>2022-07-03T13:24:07Z</time>
      </trkpt>
      <trkpt lat="42.861595" lon="-1.6137912">
        <time>2022-07-03T13:24:08Z</time>
      </trkpt>
      <trkpt lat="42.861538" lon="-1.6138476">
        <time>2022-07-03T13:24:09Z</time>
      </trkpt>
      <trkpt lat="42.86148" lon="-1.6139046">
        <time>2022-07-03T13:24:10Z</time>
      </trkpt>
      <trkpt lat="42.861423" lon="-1.6139619">
        <time>2022-07-03T13:24:11Z</time>
      </trkpt>
      <trkpt lat="42.86137" lon="-1.6140206">
        <time>2022-07-03T13:24:12Z</time>
      </trkpt>
      <trkpt lat="42.861313" lon="-1.6140798">
        <time>2022-07-03T13:24:13Z</time>
      </trkpt>
      <trkpt lat="42.861256" lon="-1.6141392">
        <time>2022-07-03T13:24:14Z</time>
      </trkpt>
      <trkpt lat="42.8612" lon="-1.6141995">
        <time>2022-07-03T13:24:15Z</time>
      </trkpt>
      <trkpt lat="42.86114" lon="-1.6142596">
        <time>2022-07-03T13:24:16Z</time>
      </trkpt>
      <trkpt lat="42.861084" lon="-1.6143196">
        <time>2022-07-03T13:24:17Z</time>
      </trkpt>
      <trkpt lat="42.861027" lon="-1.6143795">
        <time>2022-07-03T13:24:18Z</time>
      </trkpt>
      <trkpt lat="42.86097" lon="-1.6144396">
        <time>2022-07-03T13:24:19Z</time>
      </trkpt>
      <trkpt lat="42.860912" lon="-1.6144996">
        <time>2022-07-03T13:24:20Z</time>
      </trkpt>
      <trkpt lat="42.860855" lon="-1.6145592">
        <time>2022-07-03T13:24:21Z</time>
      </trkpt>
      <trkpt lat="42.8608" lon="-1.6146193">
        <time>2022-07-03T13:24:22Z</time>
      </trkpt>
      <trkpt lat="42.860744" lon="-1.6146805">
        <time>2022-07-03T13:24:23Z</time>
      </trkpt>
      <trkpt lat="42.860687" lon="-1.6147419">
        <time>2022-07-03T13:24:24Z</time>
      </trkpt>
      <trkpt lat="42.860634" lon="-1.6148036">
        <time>2022-07-03T13:24:25Z</time>
      </trkpt>
      <trkpt lat="42.860577" lon="-1.6148639">
        <time>2022-07-03T13:24:26Z</time>
      </trkpt>
      <trkpt lat="42.86052" lon="-1.6149235">
        <time>2022-07-03T13:24:27Z</time>
      </trkpt>
      <trkpt lat="42.860462" lon="-1.6149836">
        <time>2022-07-03T13:24:28Z</time>
      </trkpt>
      <trkpt lat="42.860405" lon="-1.6150428">
        <time>2022-07-03T13:24:29Z</time>
      </trkpt>
      <trkpt lat="42.860348" lon="-1.6151012">
        <time>2022-07-03T13:24:30Z</time>
      </trkpt>
      <trkpt lat="42.86029" lon="-1.6151602">
        <time>2022-07-03T13:24:31Z</time>
      </trkpt>
      <trkpt lat="42.860233" lon="-1.6152195">
        <time>2022-07-03T13:24:32Z</time>
      </trkpt>
      <trkpt lat="42.860172" lon="-1.6152785">
        <time>2022-07-03T13:24:33Z</time>
      </trkpt>
      <trkpt lat="42.860115" lon="-1.6153378">
        <time>2022-07-03T13:24:34Z</time>
      </trkpt>
      <trkpt lat="42.86" lon="-1.6154568">
        <time>2022-07-03T13:24:36Z</time>
      </trkpt>
      <trkpt lat="42.859943" lon="-1.6155168">
        <time>2022-07-03T13:24:37Z</time>
      </trkpt>
      <trkpt lat="42.859886" lon="-1.6155772">
        <time>2022-07-03T13:24:38Z</time>
      </trkpt>
      <trkpt lat="42.85983" lon="-1.6156375">
        <time>2022-07-03T13:24:39Z</time>
      </trkpt>
      <trkpt lat="42.859768" lon="-1.6156971">
        <time>2022-07-03T13:24:40Z</time>
      </trkpt>
      <trkpt lat="42.85971" lon="-1.6157562">
        <time>2022-07-03T13:24:41Z</time>
      </trkpt>
      <trkpt lat="42.85965" lon="-1.6158161">
        <time>2022-07-03T13:24:42Z</time>
      </trkpt>
      <trkpt lat="42.85959" lon="-1.6158768">
        <time>2022-07-03T13:24:43Z</time>
      </trkpt>
      <trkpt lat="42.859528" lon="-1.6159369">
        <time>2022-07-03T13:24:44Z</time>
      </trkpt>
      <trkpt lat="42.85947" lon="-1.6159965">
        <time>2022-07-03T13:24:45Z</time>
      </trkpt>
      <trkpt lat="42.85941" lon="-1.6160564">
        <time>2022-07-03T13:24:46Z</time>
      </trkpt>
      <trkpt lat="42.85935" lon="-1.6161165">
        <time>2022-07-03T13:24:47Z</time>
      </trkpt>
      <trkpt lat="42.859287" lon="-1.6161768">
        <time>2022-07-03T13:24:48Z</time>
      </trkpt>
      <trkpt lat="42.859226" lon="-1.6162385">
        <time>2022-07-03T13:24:49Z</time>
      </trkpt>
      <trkpt lat="42.859165" lon="-1.6162997">
        <time>2022-07-03T13:24:50Z</time>
      </trkpt>
      <trkpt lat="42.859104" lon="-1.6163608">
        <time>2022-07-03T13:24:51Z</time>
      </trkpt>
      <trkpt lat="42.85904" lon="-1.6164222">
        <time>2022-07-03T13:24:52Z</time>
      </trkpt>
      <trkpt lat="42.85898" lon="-1.6164834">
        <time>2022-07-03T13:24:53Z</time>
      </trkpt>
      <trkpt lat="42.858917" lon="-1.6165454">
        <time>2022-07-03T13:24:54Z</time>
      </trkpt>
      <trkpt lat="42.858856" lon="-1.6166068">
        <time>2022-07-03T13:24:55Z</time>
      </trkpt>
      <trkpt lat="42.85879" lon="-1.6166685">
        <time>2022-07-03T13:24:56Z</time>
      </trkpt>
      <trkpt lat="42.85873" lon="-1.6167308">
        <time>2022-07-03T13:24:57Z</time>
      </trkpt>
      <trkpt lat="42.858665" lon="-1.6167938">
        <time>2022-07-03T13:24:58Z</time>
      </trkpt>
      <trkpt lat="42.858604" lon="-1.6168568">
        <time>2022-07-03T13:24:59Z</time>
      </trkpt>
      <trkpt lat="42.85854" lon="-1.6169198">
        <time>2022-07-03T13:25:00Z</time>
      </trkpt>
      <trkpt lat="42.858475" lon="-1.6169838">
        <time>2022-07-03T13:25:01Z</time>
      </trkpt>
      <trkpt lat="42.85841" lon="-1.6170478">
        <time>2022-07-03T13:25:02Z</time>
      </trkpt>
      <trkpt lat="42.858345" lon="-1.6171118">
        <time>2022-07-03T13:25:03Z</time>
      </trkpt>
      <trkpt lat="42.858276" lon="-1.6171792">
        <time>2022-07-03T13:25:04Z</time>
      </trkpt>
      <trkpt lat="42.858208" lon="-1.6172454">
        <time>2022-07-03T13:25:05Z</time>
      </trkpt>
      <trkpt lat="42.858143" lon="-1.6173095">
        <time>2022-07-03T13:25:06Z</time>
      </trkpt>
      <trkpt lat="42.85808" lon="-1.617369">
        <time>2022-07-03T13:25:07Z</time>
      </trkpt>
      <trkpt lat="42.858017" lon="-1.6174347">
        <time>2022-07-03T13:25:08Z</time>
      </trkpt>
      <trkpt lat="42.857952" lon="-1.6175001">
        <time>2022-07-03T13:25:09Z</time>
      </trkpt>
      <trkpt lat="42.857887" lon="-1.6175648">
        <time>2022-07-03T13:25:10Z</time>
      </trkpt>
      <trkpt lat="42.857822" lon="-1.6176298">
        <time>2022-07-03T13:25:11Z</time>
      </trkpt>
      <trkpt lat="42.85776" lon="-1.6176908">
        <time>2022-07-03T13:25:12Z</time>
      </trkpt>
      <trkpt lat="42.857697" lon="-1.6177558">
        <time>2022-07-03T13:25:13Z</time>
      </trkpt>
      <trkpt lat="42.85763" lon="-1.6178204">
        <time>2022-07-03T13:25:14Z</time>
      </trkpt>
      <trkpt lat="42.857567" lon="-1.617884">
        <time>2022-07-03T13:25:15Z</time>
      </trkpt>
      <trkpt lat="42.857502" lon="-1.6179484">
        <time>2022-07-03T13:25:16Z</time>
      </trkpt>
      <trkpt lat="42.85744" lon="-1.6180094">
        <time>2022-07-03T13:25:17Z</time>
      </trkpt>
      <trkpt lat="42.857376" lon="-1.6180761">
        <time>2022-07-03T13:25:18Z</time>
      </trkpt>
      <trkpt lat="42.85731" lon="-1.618141">
        <time>2022-07-03T13:25:19Z</time>
      </trkpt>
      <trkpt lat="42.857246" lon="-1.6182054">
        <time>2022-07-03T13:25:20Z</time>
      </trkpt>
      <trkpt lat="42.85719" lon="-1.6182647">
        <time>2022-07-03T13:25:21Z</time>
      </trkpt>
      <trkpt lat="42.857124" lon="-1.6183257">
        <time>2022-07-03T13:25:22Z</time>
      </trkpt>
      <trkpt lat="42.857063" lon="-1.6183873">
        <time>2022-07-03T13:25:23Z</time>
      </trkpt>
      <trkpt lat="42.857002" lon="-1.6184504">
        <time>2022-07-03T13:25:24Z</time>
      </trkpt>
      <trkpt lat="42.856937" lon="-1.6185127">
        <time>2022-07-03T13:25:25Z</time>
      </trkpt>
      <trkpt lat="42.856876" lon="-1.618576">
        <time>2022-07-03T13:25:26Z</time>
      </trkpt>
      <trkpt lat="42.856815" lon="-1.6186384">
        <time>2022-07-03T13:25:27Z</time>
      </trkpt>
      <trkpt lat="42.85675" lon="-1.6187004">
        <time>2022-07-03T13:25:28Z</time>
      </trkpt>
      <trkpt lat="42.85669" lon="-1.6187624">
        <time>2022-07-03T13:25:29Z</time>
      </trkpt>
      <trkpt lat="42.85663" lon="-1.6188236">
        <time>2022-07-03T13:25:30Z</time>
      </trkpt>
      <trkpt lat="42.856564" lon="-1.618885">
        <time>2022-07-03T13:25:31Z</time>
      </trkpt>
      <trkpt lat="42.856503" lon="-1.6189461">
        <time>2022-07-03T13:25:32Z</time>
      </trkpt>
      <trkpt lat="42.85644" lon="-1.619007">
        <time>2022-07-03T13:25:33Z</time>
      </trkpt>
      <trkpt lat="42.85638" lon="-1.619068">
        <time>2022-07-03T13:25:34Z</time>
      </trkpt>
      <trkpt lat="42.85632" lon="-1.61913">
        <time>2022-07-03T13:25:35Z</time>
      </trkpt>
      <trkpt lat="42.85626" lon="-1.6191927">
        <time>2022-07-03T13:25:36Z</time>
      </trkpt>
      <trkpt lat="42.856205" lon="-1.6192507">
        <time>2022-07-03T13:25:37Z</time>
      </trkpt>
      <trkpt lat="42.85614" lon="-1.619313">
        <time>2022-07-03T13:25:38Z</time>
      </trkpt>
      <trkpt lat="42.856087" lon="-1.6193696">
        <time>2022-07-03T13:25:39Z</time>
      </trkpt>
      <trkpt lat="42.85603" lon="-1.619427">
        <time>2022-07-03T13:25:40Z</time>
      </trkpt>
      <trkpt lat="42.855972" lon="-1.6194841">
        <time>2022-07-03T13:25:41Z</time>
      </trkpt>
      <trkpt lat="42.855915" lon="-1.619541">
        <time>2022-07-03T13:25:42Z</time>
      </trkpt>
      <trkpt lat="42.855858" lon="-1.6195984">
        <time>2022-07-03T13:25:43Z</time>
      </trkpt>
      <trkpt lat="42.8558" lon="-1.6196547">
        <time>2022-07-03T13:25:44Z</time>
      </trkpt>
      <trkpt lat="42.855743" lon="-1.6197096">
        <time>2022-07-03T13:25:45Z</time>
      </trkpt>
      <trkpt lat="42.855686" lon="-1.6197627">
        <time>2022-07-03T13:25:46Z</time>
      </trkpt>
      <trkpt lat="42.85563" lon="-1.619816">
        <time>2022-07-03T13:25:47Z</time>
      </trkpt>
      <trkpt lat="42.855576" lon="-1.6198707">
        <time>2022-07-03T13:25:48Z</time>
      </trkpt>
      <trkpt lat="42.855526" lon="-1.619928">
        <time>2022-07-03T13:25:49Z</time>
      </trkpt>
      <trkpt lat="42.855476" lon="-1.6199903">
        <time>2022-07-03T13:25:50Z</time>
      </trkpt>
      <trkpt lat="42.855434" lon="-1.6200577">
        <time>2022-07-03T13:25:51Z</time>
      </trkpt>
      <trkpt lat="42.855396" lon="-1.6201293">
        <time>2022-07-03T13:25:52Z</time>
      </trkpt>
      <trkpt lat="42.85536" lon="-1.620203">
        <time>2022-07-03T13:25:53Z</time>
      </trkpt>
      <trkpt lat="42.855316" lon="-1.62028">
        <time>2022-07-03T13:25:54Z</time>
      </trkpt>
      <trkpt lat="42.855232" lon="-1.6204063">
        <time>2022-07-03T13:25:56Z</time>
      </trkpt>
      <trkpt lat="42.855183" lon="-1.6204547">
        <time>2022-07-03T13:25:57Z</time>
      </trkpt>
      <trkpt lat="42.855125" lon="-1.6204957">
        <time>2022-07-03T13:25:58Z</time>
      </trkpt>
      <trkpt lat="42.85507" lon="-1.62053">
        <time>2022-07-03T13:25:59Z</time>
      </trkpt>
      <trkpt lat="42.85501" lon="-1.6205627">
        <time>2022-07-03T13:26:00Z</time>
      </trkpt>
      <trkpt lat="42.854954" lon="-1.6205953">
        <time>2022-07-03T13:26:01Z</time>
      </trkpt>
      <trkpt lat="42.8549" lon="-1.6206282">
        <time>2022-07-03T13:26:02Z</time>
      </trkpt>
      <trkpt lat="42.854847" lon="-1.6206657">
        <time>2022-07-03T13:26:03Z</time>
      </trkpt>
      <trkpt lat="42.854797" lon="-1.6207063">
        <time>2022-07-03T13:26:04Z</time>
      </trkpt>
      <trkpt lat="42.85474" lon="-1.6207526">
        <time>2022-07-03T13:26:05Z</time>
      </trkpt>
      <trkpt lat="42.854687" lon="-1.6207999">
        <time>2022-07-03T13:26:06Z</time>
      </trkpt>
      <trkpt lat="42.85463" lon="-1.6208472">
        <time>2022-07-03T13:26:07Z</time>
      </trkpt>
      <trkpt lat="42.854576" lon="-1.6208953">
        <time>2022-07-03T13:26:08Z</time>
      </trkpt>
      <trkpt lat="42.85452" lon="-1.6209446">
        <time>2022-07-03T13:26:09Z</time>
      </trkpt>
      <trkpt lat="42.85446" lon="-1.6209953">
        <time>2022-07-03T13:26:10Z</time>
      </trkpt>
      <trkpt lat="42.85441" lon="-1.6210469">
        <time>2022-07-03T13:26:11Z</time>
      </trkpt>
      <trkpt lat="42.854347" lon="-1.6210983">
        <time>2022-07-03T13:26:12Z</time>
      </trkpt>
      <trkpt lat="42.85429" lon="-1.6211495">
        <time>2022-07-03T13:26:13Z</time>
      </trkpt>
      <trkpt lat="42.854233" lon="-1.6212006">
        <time>2022-07-03T13:26:14Z</time>
      </trkpt>
      <trkpt lat="42.85418" lon="-1.6212488">
        <time>2022-07-03T13:26:15Z</time>
      </trkpt>
      <trkpt lat="42.854122" lon="-1.6212986">
        <time>2022-07-03T13:26:16Z</time>
      </trkpt>
      <trkpt lat="42.854065" lon="-1.6213486">
        <time>2022-07-03T13:26:17Z</time>
      </trkpt>
      <trkpt lat="42.854004" lon="-1.6213979">
        <time>2022-07-03T13:26:18Z</time>
      </trkpt>
      <trkpt lat="42.853943" lon="-1.6214463">
        <time>2022-07-03T13:26:19Z</time>
      </trkpt>
      <trkpt lat="42.853878" lon="-1.6214942">
        <time>2022-07-03T13:26:20Z</time>
      </trkpt>
      <trkpt lat="42.853813" lon="-1.6215422">
        <time>2022-07-03T13:26:21Z</time>
      </trkpt>
      <trkpt lat="42.853745" lon="-1.6215905">
        <time>2022-07-03T13:26:22Z</time>
      </trkpt>
      <trkpt lat="42.853676" lon="-1.6216385">
        <time>2022-07-03T13:26:23Z</time>
      </trkpt>
      <trkpt lat="42.853607" lon="-1.6216879">
        <time>2022-07-03T13:26:24Z</time>
      </trkpt>
      <trkpt lat="42.853535" lon="-1.6217409">
        <time>2022-07-03T13:26:25Z</time>
      </trkpt>
      <trkpt lat="42.853466" lon="-1.6217896">
        <time>2022-07-03T13:26:26Z</time>
      </trkpt>
      <trkpt lat="42.853394" lon="-1.6218373">
        <time>2022-07-03T13:26:27Z</time>
      </trkpt>
      <trkpt lat="42.85332" lon="-1.6218855">
        <time>2022-07-03T13:26:28Z</time>
      </trkpt>
      <trkpt lat="42.853245" lon="-1.6219325">
        <time>2022-07-03T13:26:29Z</time>
      </trkpt>
      <trkpt lat="42.85317" lon="-1.6219778">
        <time>2022-07-03T13:26:30Z</time>
      </trkpt>
      <trkpt lat="42.853092" lon="-1.6220219">
        <time>2022-07-03T13:26:31Z</time>
      </trkpt>
      <trkpt lat="42.85301" lon="-1.6220685">
        <time>2022-07-03T13:26:32Z</time>
      </trkpt>
      <trkpt lat="42.85293" lon="-1.6221112">
        <time>2022-07-03T13:26:33Z</time>
      </trkpt>
      <trkpt lat="42.852848" lon="-1.6221539">
        <time>2022-07-03T13:26:34Z</time>
      </trkpt>
      <trkpt lat="42.852768" lon="-1.6221942">
        <time>2022-07-03T13:26:35Z</time>
      </trkpt>
      <trkpt lat="42.85268" lon="-1.6222374">
        <time>2022-07-03T13:26:36Z</time>
      </trkpt>
      <trkpt lat="42.852596" lon="-1.6222788">
        <time>2022-07-03T13:26:37Z</time>
      </trkpt>
      <trkpt lat="42.85251" lon="-1.6223195">
        <time>2022-07-03T13:26:38Z</time>
      </trkpt>
      <trkpt lat="42.852425" lon="-1.6223599">
        <time>2022-07-03T13:26:39Z</time>
      </trkpt>
      <trkpt lat="42.852345" lon="-1.6223965">
        <time>2022-07-03T13:26:40Z</time>
      </trkpt>
      <trkpt lat="42.85226" lon="-1.6224328">
        <time>2022-07-03T13:26:41Z</time>
      </trkpt>
      <trkpt lat="42.852177" lon="-1.6224705">
        <time>2022-07-03T13:26:42Z</time>
      </trkpt>
      <trkpt lat="42.85209" lon="-1.6225091">
        <time>2022-07-03T13:26:43Z</time>
      </trkpt>
      <trkpt lat="42.852005" lon="-1.6225492">
        <time>2022-07-03T13:26:44Z</time>
      </trkpt>
      <trkpt lat="42.85191" lon="-1.6225928">
        <time>2022-07-03T13:26:45Z</time>
      </trkpt>
      <trkpt lat="42.851818" lon="-1.6226381">
        <time>2022-07-03T13:26:46Z</time>
      </trkpt>
      <trkpt lat="42.851734" lon="-1.6226808">
        <time>2022-07-03T13:26:47Z</time>
      </trkpt>
      <trkpt lat="42.851646" lon="-1.6227261">
        <time>2022-07-03T13:26:48Z</time>
      </trkpt>
      <trkpt lat="42.851555" lon="-1.6227758">
        <time>2022-07-03T13:26:49Z</time>
      </trkpt>
      <trkpt lat="42.851467" lon="-1.6228228">
        <time>2022-07-03T13:26:50Z</time>
      </trkpt>
      <trkpt lat="42.85138" lon="-1.622871">
        <time>2022-07-03T13:26:51Z</time>
      </trkpt>
      <trkpt lat="42.851284" lon="-1.6229258">
        <time>2022-07-03T13:26:52Z</time>
      </trkpt>
      <trkpt lat="42.851192" lon="-1.6229805">
        <time>2022-07-03T13:26:53Z</time>
      </trkpt>
      <trkpt lat="42.8511" lon="-1.6230354">
        <time>2022-07-03T13:26:54Z</time>
      </trkpt>
      <trkpt lat="42.851006" lon="-1.6230917">
        <time>2022-07-03T13:26:55Z</time>
      </trkpt>
      <trkpt lat="42.85092" lon="-1.623146">
        <time>2022-07-03T13:26:56Z</time>
      </trkpt>
      <trkpt lat="42.85083" lon="-1.6232071">
        <time>2022-07-03T13:26:57Z</time>
      </trkpt>
      <trkpt lat="42.850742" lon="-1.623265">
        <time>2022-07-03T13:26:58Z</time>
      </trkpt>
      <trkpt lat="42.850655" lon="-1.6233261">
        <time>2022-07-03T13:26:59Z</time>
      </trkpt>
      <trkpt lat="42.850567" lon="-1.6233891">
        <time>2022-07-03T13:27:00Z</time>
      </trkpt>
      <trkpt lat="42.85048" lon="-1.6234547">
        <time>2022-07-03T13:27:01Z</time>
      </trkpt>
      <trkpt lat="42.85039" lon="-1.6235204">
        <time>2022-07-03T13:27:02Z</time>
      </trkpt>
      <trkpt lat="42.850296" lon="-1.623592">
        <time>2022-07-03T13:27:03Z</time>
      </trkpt>
      <trkpt lat="42.850204" lon="-1.6236631">
        <time>2022-07-03T13:27:04Z</time>
      </trkpt>
      <trkpt lat="42.850117" lon="-1.6237344">
        <time>2022-07-03T13:27:05Z</time>
      </trkpt>
      <trkpt lat="42.85003" lon="-1.6238071">
        <time>2022-07-03T13:27:06Z</time>
      </trkpt>
      <trkpt lat="42.84994" lon="-1.6238804">
        <time>2022-07-03T13:27:07Z</time>
      </trkpt>
      <trkpt lat="42.849857" lon="-1.6239547">
        <time>2022-07-03T13:27:08Z</time>
      </trkpt>
      <trkpt lat="42.849773" lon="-1.6240287">
        <time>2022-07-03T13:27:09Z</time>
      </trkpt>
      <trkpt lat="42.84969" lon="-1.6241047">
        <time>2022-07-03T13:27:10Z</time>
      </trkpt>
      <trkpt lat="42.84961" lon="-1.624182">
        <time>2022-07-03T13:27:11Z</time>
      </trkpt>
      <trkpt lat="42.849525" lon="-1.6242604">
        <time>2022-07-03T13:27:12Z</time>
      </trkpt>
      <trkpt lat="42.84945" lon="-1.6243384">
        <time>2022-07-03T13:27:13Z</time>
      </trkpt>
      <trkpt lat="42.84937" lon="-1.6244164">
        <time>2022-07-03T13:27:14Z</time>
      </trkpt>
      <trkpt lat="42.84922" lon="-1.6245611">
        <time>2022-07-03T13:27:16Z</time>
      </trkpt>
      <trkpt lat="42.849136" lon="-1.6246374">
        <time>2022-07-03T13:27:17Z</time>
      </trkpt>
      <trkpt lat="42.84906" lon="-1.6247057">
        <time>2022-07-03T13:27:18Z</time>
      </trkpt>
      <trkpt lat="42.848984" lon="-1.62477">
        <time>2022-07-03T13:27:19Z</time>
      </trkpt>
      <trkpt lat="42.848904" lon="-1.624832">
        <time>2022-07-03T13:27:20Z</time>
      </trkpt>
      <trkpt lat="42.848824" lon="-1.6248907">
        <time>2022-07-03T13:27:21Z</time>
      </trkpt>
      <trkpt lat="42.84874" lon="-1.6249464">
        <time>2022-07-03T13:27:22Z</time>
      </trkpt>
      <trkpt lat="42.84866" lon="-1.625">
        <time>2022-07-03T13:27:23Z</time>
      </trkpt>
      <trkpt lat="42.84858" lon="-1.6250507">
        <time>2022-07-03T13:27:24Z</time>
      </trkpt>
      <trkpt lat="42.8485" lon="-1.625098">
        <time>2022-07-03T13:27:25Z</time>
      </trkpt>
      <trkpt lat="42.848415" lon="-1.6251436">
        <time>2022-07-03T13:27:26Z</time>
      </trkpt>
      <trkpt lat="42.84833" lon="-1.6251847">
        <time>2022-07-03T13:27:27Z</time>
      </trkpt>
      <trkpt lat="42.848248" lon="-1.6252207">
        <time>2022-07-03T13:27:28Z</time>
      </trkpt>
      <trkpt lat="42.848164" lon="-1.6252524">
        <time>2022-07-03T13:27:29Z</time>
      </trkpt>
      <trkpt lat="42.848087" lon="-1.6252797">
        <time>2022-07-03T13:27:30Z</time>
      </trkpt>
      <trkpt lat="42.848007" lon="-1.6253049">
        <time>2022-07-03T13:27:31Z</time>
      </trkpt>
      <trkpt lat="42.847927" lon="-1.6253276">
        <time>2022-07-03T13:27:32Z</time>
      </trkpt>
      <trkpt lat="42.847843" lon="-1.6253487">
        <time>2022-07-03T13:27:33Z</time>
      </trkpt>
      <trkpt lat="42.84776" lon="-1.6253682">
        <time>2022-07-03T13:27:34Z</time>
      </trkpt>
      <trkpt lat="42.84768" lon="-1.625384">
        <time>2022-07-03T13:27:35Z</time>
      </trkpt>
      <trkpt lat="42.8476" lon="-1.6253963">
        <time>2022-07-03T13:27:36Z</time>
      </trkpt>
      <trkpt lat="42.847515" lon="-1.6254053">
        <time>2022-07-03T13:27:37Z</time>
      </trkpt>
      <trkpt lat="42.84743" lon="-1.6254113">
        <time>2022-07-03T13:27:38Z</time>
      </trkpt>
      <trkpt lat="42.847343" lon="-1.625415">
        <time>2022-07-03T13:27:39Z</time>
      </trkpt>
      <trkpt lat="42.84725" lon="-1.6254163">
        <time>2022-07-03T13:27:40Z</time>
      </trkpt>
      <trkpt lat="42.84717" lon="-1.6254153">
        <time>2022-07-03T13:27:41Z</time>
      </trkpt>
      <trkpt lat="42.847095" lon="-1.6254122">
        <time>2022-07-03T13:27:42Z</time>
      </trkpt>
      <trkpt lat="42.847015" lon="-1.6254057">
        <time>2022-07-03T13:27:43Z</time>
      </trkpt>
      <trkpt lat="42.846935" lon="-1.6253963">
        <time>2022-07-03T13:27:44Z</time>
      </trkpt>
      <trkpt lat="42.846855" lon="-1.6253833">
        <time>2022-07-03T13:27:45Z</time>
      </trkpt>
      <trkpt lat="42.846775" lon="-1.6253666">
        <time>2022-07-03T13:27:46Z</time>
      </trkpt>
      <trkpt lat="42.846695" lon="-1.6253467">
        <time>2022-07-03T13:27:47Z</time>
      </trkpt>
      <trkpt lat="42.846615" lon="-1.6253233">
        <time>2022-07-03T13:27:48Z</time>
      </trkpt>
      <trkpt lat="42.846535" lon="-1.625296">
        <time>2022-07-03T13:27:49Z</time>
      </trkpt>
      <trkpt lat="42.84645" lon="-1.625263">
        <time>2022-07-03T13:27:50Z</time>
      </trkpt>
      <trkpt lat="42.846367" lon="-1.6252263">
        <time>2022-07-03T13:27:51Z</time>
      </trkpt>
      <trkpt lat="42.846287" lon="-1.6251843">
        <time>2022-07-03T13:27:52Z</time>
      </trkpt>
      <trkpt lat="42.846207" lon="-1.625139">
        <time>2022-07-03T13:27:53Z</time>
      </trkpt>
      <trkpt lat="42.84613" lon="-1.6250889">
        <time>2022-07-03T13:27:54Z</time>
      </trkpt>
      <trkpt lat="42.846058" lon="-1.6250399">
        <time>2022-07-03T13:27:55Z</time>
      </trkpt>
      <trkpt lat="42.845985" lon="-1.6249859">
        <time>2022-07-03T13:27:56Z</time>
      </trkpt>
      <trkpt lat="42.845913" lon="-1.624928">
        <time>2022-07-03T13:27:57Z</time>
      </trkpt>
      <trkpt lat="42.845844" lon="-1.624867">
        <time>2022-07-03T13:27:58Z</time>
      </trkpt>
      <trkpt lat="42.845776" lon="-1.6248026">
        <time>2022-07-03T13:27:59Z</time>
      </trkpt>
      <trkpt lat="42.845715" lon="-1.6247356">
        <time>2022-07-03T13:28:00Z</time>
      </trkpt>
      <trkpt lat="42.845654" lon="-1.6246656">
        <time>2022-07-03T13:28:01Z</time>
      </trkpt>
      <trkpt lat="42.845596" lon="-1.624594">
        <time>2022-07-03T13:28:02Z</time>
      </trkpt>
      <trkpt lat="42.84554" lon="-1.6245223">
        <time>2022-07-03T13:28:03Z</time>
      </trkpt>
      <trkpt lat="42.84549" lon="-1.6244524">
        <time>2022-07-03T13:28:04Z</time>
      </trkpt>
      <trkpt lat="42.84544" lon="-1.6243817">
        <time>2022-07-03T13:28:05Z</time>
      </trkpt>
      <trkpt lat="42.845394" lon="-1.624308">
        <time>2022-07-03T13:28:06Z</time>
      </trkpt>
      <trkpt lat="42.84535" lon="-1.6242373">
        <time>2022-07-03T13:28:07Z</time>
      </trkpt>
      <trkpt lat="42.84531" lon="-1.6241701">
        <time>2022-07-03T13:28:08Z</time>
      </trkpt>
      <trkpt lat="42.845276" lon="-1.6241057">
        <time>2022-07-03T13:28:09Z</time>
      </trkpt>
      <trkpt lat="42.84524" lon="-1.62404">
        <time>2022-07-03T13:28:10Z</time>
      </trkpt>
      <trkpt lat="42.845215" lon="-1.6239817">
        <time>2022-07-03T13:28:11Z</time>
      </trkpt>
      <trkpt lat="42.84519" lon="-1.6239233">
        <time>2022-07-03T13:28:12Z</time>
      </trkpt>
      <trkpt lat="42.845165" lon="-1.6238678">
        <time>2022-07-03T13:28:13Z</time>
      </trkpt>
      <trkpt lat="42.845116" lon="-1.6237557">
        <time>2022-07-03T13:28:15Z</time>
      </trkpt>
      <trkpt lat="42.84507" lon="-1.6236434">
        <time>2022-07-03T13:28:17Z</time>
      </trkpt>
      <trkpt lat="42.845028" lon="-1.623531">
        <time>2022-07-03T13:28:19Z</time>
      </trkpt>
      <trkpt lat="42.844982" lon="-1.6234181">
        <time>2022-07-03T13:28:21Z</time>
      </trkpt>
      <trkpt lat="42.844936" lon="-1.623303">
        <time>2022-07-03T13:28:23Z</time>
      </trkpt>
      <trkpt lat="42.844894" lon="-1.6231893">
        <time>2022-07-03T13:28:25Z</time>
      </trkpt>
      <trkpt lat="42.84485" lon="-1.6230824">
        <time>2022-07-03T13:28:27Z</time>
      </trkpt>
      <trkpt lat="42.8448" lon="-1.622985">
        <time>2022-07-03T13:28:29Z</time>
      </trkpt>
      <trkpt lat="42.84475" lon="-1.6229054">
        <time>2022-07-03T13:28:31Z</time>
      </trkpt>
      <trkpt lat="42.844704" lon="-1.6228487">
        <time>2022-07-03T13:28:33Z</time>
      </trkpt>
      <trkpt lat="42.84466" lon="-1.6228094">
        <time>2022-07-03T13:28:35Z</time>
      </trkpt>
      <trkpt lat="42.84462" lon="-1.6227744">
        <time>2022-07-03T13:28:38Z</time>
      </trkpt>
      <trkpt lat="42.844517" lon="-1.6227098">
        <time>2022-07-03T13:29:19Z</time>
      </trkpt>
      <trkpt lat="42.84444" lon="-1.6226517">
        <time>2022-07-03T13:29:22Z</time>
      </trkpt>
      <trkpt lat="42.844387" lon="-1.6225834">
        <time>2022-07-03T13:29:24Z</time>
      </trkpt>
      <trkpt lat="42.84434" lon="-1.6225028">
        <time>2022-07-03T13:29:26Z</time>
      </trkpt>
      <trkpt lat="42.844296" lon="-1.6224114">
        <time>2022-07-03T13:29:28Z</time>
      </trkpt>
      <trkpt lat="42.844265" lon="-1.622315">
        <time>2022-07-03T13:29:30Z</time>
      </trkpt>
      <trkpt lat="42.84425" lon="-1.6222094">
        <time>2022-07-03T13:29:32Z</time>
      </trkpt>
      <trkpt lat="42.84425" lon="-1.6220998">
        <time>2022-07-03T13:29:34Z</time>
      </trkpt>
      <trkpt lat="42.844265" lon="-1.6219914">
        <time>2022-07-03T13:29:36Z</time>
      </trkpt>
      <trkpt lat="42.84428" lon="-1.6218832">
        <time>2022-07-03T13:29:38Z</time>
      </trkpt>
      <trkpt lat="42.84429" lon="-1.6217707">
        <time>2022-07-03T13:29:40Z</time>
      </trkpt>
      <trkpt lat="42.8443" lon="-1.6216505">
        <time>2022-07-03T13:29:42Z</time>
      </trkpt>
      <trkpt lat="42.84429" lon="-1.6215261">
        <time>2022-07-03T13:29:44Z</time>
      </trkpt>
      <trkpt lat="42.84427" lon="-1.6214068">
        <time>2022-07-03T13:29:46Z</time>
      </trkpt>
      <trkpt lat="42.84424" lon="-1.6212995">
        <time>2022-07-03T13:29:48Z</time>
      </trkpt>
      <trkpt lat="42.844196" lon="-1.6212015">
        <time>2022-07-03T13:29:50Z</time>
      </trkpt>
      <trkpt lat="42.844143" lon="-1.6211184">
        <time>2022-07-03T13:29:52Z</time>
      </trkpt>
      <trkpt lat="42.84408" lon="-1.6210505">
        <time>2022-07-03T13:29:54Z</time>
      </trkpt>
      <trkpt lat="42.844017" lon="-1.6209978">
        <time>2022-07-03T13:29:56Z</time>
      </trkpt>
      <trkpt lat="42.843945" lon="-1.6209497">
        <time>2022-07-03T13:29:58Z</time>
      </trkpt>
      <trkpt lat="42.843876" lon="-1.6209015">
        <time>2022-07-03T13:30:00Z</time>
      </trkpt>
      <trkpt lat="42.843807" lon="-1.6208565">
        <time>2022-07-03T13:30:02Z</time>
      </trkpt>
      <trkpt lat="42.843735" lon="-1.6208081">
        <time>2022-07-03T13:30:04Z</time>
      </trkpt>
      <trkpt lat="42.843666" lon="-1.6207604">
        <time>2022-07-03T13:30:06Z</time>
      </trkpt>
      <trkpt lat="42.843594" lon="-1.6207125">
        <time>2022-07-03T13:30:08Z</time>
      </trkpt>
      <trkpt lat="42.843525" lon="-1.6206648">
        <time>2022-07-03T13:30:10Z</time>
      </trkpt>
      <trkpt lat="42.843456" lon="-1.6206168">
        <time>2022-07-03T13:30:12Z</time>
      </trkpt>
      <trkpt lat="42.843388" lon="-1.6205685">
        <time>2022-07-03T13:30:14Z</time>
      </trkpt>
      <trkpt lat="42.84332" lon="-1.6205199">
        <time>2022-07-03T13:30:16Z</time>
      </trkpt>
      <trkpt lat="42.84325" lon="-1.6204739">
        <time>2022-07-03T13:30:18Z</time>
      </trkpt>
      <trkpt lat="42.843185" lon="-1.6204288">
        <time>2022-07-03T13:30:20Z</time>
      </trkpt>
      <trkpt lat="42.84312" lon="-1.6203828">
        <time>2022-07-03T13:30:22Z</time>
      </trkpt>
      <trkpt lat="42.84306" lon="-1.6203368">
        <time>2022-07-03T13:30:24Z</time>
      </trkpt>
      <trkpt lat="42.843002" lon="-1.6202878">
        <time>2022-07-03T13:30:26Z</time>
      </trkpt>
      <trkpt lat="42.842945" lon="-1.6202371">
        <time>2022-07-03T13:30:28Z</time>
      </trkpt>
      <trkpt lat="42.84289" lon="-1.6201851">
        <time>2022-07-03T13:30:30Z</time>
      </trkpt>
      <trkpt lat="42.84284" lon="-1.6201348">
        <time>2022-07-03T13:30:32Z</time>
      </trkpt>
      <trkpt lat="42.84279" lon="-1.6200832">
        <time>2022-07-03T13:30:34Z</time>
      </trkpt>
      <trkpt lat="42.842743" lon="-1.6200292">
        <time>2022-07-03T13:30:36Z</time>
      </trkpt>
      <trkpt lat="42.842693" lon="-1.6199725">
        <time>2022-07-03T13:30:38Z</time>
      </trkpt>
      <trkpt lat="42.842648" lon="-1.6199129">
        <time>2022-07-03T13:30:40Z</time>
      </trkpt>
      <trkpt lat="42.8426" lon="-1.6198502">
        <time>2022-07-03T13:30:42Z</time>
      </trkpt>
      <trkpt lat="42.842556" lon="-1.6197865">
        <time>2022-07-03T13:30:44Z</time>
      </trkpt>
      <trkpt lat="42.842514" lon="-1.6197222">
        <time>2022-07-03T13:30:46Z</time>
      </trkpt>
      <trkpt lat="42.842472" lon="-1.6196558">
        <time>2022-07-03T13:30:48Z</time>
      </trkpt>
      <trkpt lat="42.842434" lon="-1.6195883">
        <time>2022-07-03T13:30:50Z</time>
      </trkpt>
      <trkpt lat="42.842396" lon="-1.6195172">
        <time>2022-07-03T13:30:52Z</time>
      </trkpt>
      <trkpt lat="42.84236" lon="-1.6194482">
        <time>2022-07-03T13:30:54Z</time>
      </trkpt>
      <trkpt lat="42.842327" lon="-1.6193782">
        <time>2022-07-03T13:30:56Z</time>
      </trkpt>
      <trkpt lat="42.842293" lon="-1.619304">
        <time>2022-07-03T13:30:58Z</time>
      </trkpt>
      <trkpt lat="42.84226" lon="-1.6192305">
        <time>2022-07-03T13:31:00Z</time>
      </trkpt>
      <trkpt lat="42.84222" lon="-1.6191622">
        <time>2022-07-03T13:31:02Z</time>
      </trkpt>
      <trkpt lat="42.842182" lon="-1.6190906">
        <time>2022-07-03T13:31:04Z</time>
      </trkpt>
      <trkpt lat="42.84215" lon="-1.6190146">
        <time>2022-07-03T13:31:06Z</time>
      </trkpt>
      <trkpt lat="42.84212" lon="-1.6189393">
        <time>2022-07-03T13:31:08Z</time>
      </trkpt>
      <trkpt lat="42.842083" lon="-1.6188285">
        <time>2022-07-03T13:31:11Z</time>
      </trkpt>
      <trkpt lat="42.84206" lon="-1.6187593">
        <time>2022-07-03T13:31:13Z</time>
      </trkpt>
      <trkpt lat="42.842033" lon="-1.618686">
        <time>2022-07-03T13:31:15Z</time>
      </trkpt>
      <trkpt lat="42.842007" lon="-1.6186156">
        <time>2022-07-03T13:31:17Z</time>
      </trkpt>
      <trkpt lat="42.841984" lon="-1.6185483">
        <time>2022-07-03T13:31:19Z</time>
      </trkpt>
      <trkpt lat="42.84196" lon="-1.6184819">
        <time>2022-07-03T13:31:21Z</time>
      </trkpt>
      <trkpt lat="42.84194" lon="-1.6184165">
        <time>2022-07-03T13:31:23Z</time>
      </trkpt>
      <trkpt lat="42.84192" lon="-1.6183519">
        <time>2022-07-03T13:31:25Z</time>
      </trkpt>
      <trkpt lat="42.841896" lon="-1.6182879">
        <time>2022-07-03T13:31:27Z</time>
      </trkpt>
      <trkpt lat="42.841866" lon="-1.6181899">
        <time>2022-07-03T13:31:30Z</time>
      </trkpt>
      <trkpt lat="42.841846" lon="-1.6181233">
        <time>2022-07-03T13:31:32Z</time>
      </trkpt>
      <trkpt lat="42.841824" lon="-1.6180569">
        <time>2022-07-03T13:31:34Z</time>
      </trkpt>
      <trkpt lat="42.841805" lon="-1.6179906">
        <time>2022-07-03T13:31:36Z</time>
      </trkpt>
      <trkpt lat="42.841785" lon="-1.6179253">
        <time>2022-07-03T13:31:38Z</time>
      </trkpt>
      <trkpt lat="42.84176" lon="-1.617823">
        <time>2022-07-03T13:31:41Z</time>
      </trkpt>
      <trkpt lat="42.84174" lon="-1.6177557">
        <time>2022-07-03T13:31:43Z</time>
      </trkpt>
      <trkpt lat="42.84172" lon="-1.6176887">
        <time>2022-07-03T13:31:45Z</time>
      </trkpt>
      <trkpt lat="42.841705" lon="-1.6176203">
        <time>2022-07-03T13:31:47Z</time>
      </trkpt>
      <trkpt lat="42.841686" lon="-1.6175486">
        <time>2022-07-03T13:31:49Z</time>
      </trkpt>
      <trkpt lat="42.841667" lon="-1.617479">
        <time>2022-07-03T13:31:51Z</time>
      </trkpt>
      <trkpt lat="42.84165" lon="-1.6174116">
        <time>2022-07-03T13:31:53Z</time>
      </trkpt>
      <trkpt lat="42.841633" lon="-1.617342">
        <time>2022-07-03T13:31:55Z</time>
      </trkpt>
      <trkpt lat="42.841614" lon="-1.6172754">
        <time>2022-07-03T13:31:57Z</time>
      </trkpt>
      <trkpt lat="42.8416" lon="-1.617209">
        <time>2022-07-03T13:31:59Z</time>
      </trkpt>
      <trkpt lat="42.841576" lon="-1.6171087">
        <time>2022-07-03T13:32:02Z</time>
      </trkpt>
      <trkpt lat="42.84156" lon="-1.61704">
        <time>2022-07-03T13:32:04Z</time>
      </trkpt>
      <trkpt lat="42.841545" lon="-1.6169714">
        <time>2022-07-03T13:32:06Z</time>
      </trkpt>
      <trkpt lat="42.841534" lon="-1.616902">
        <time>2022-07-03T13:32:08Z</time>
      </trkpt>
      <trkpt lat="42.84152" lon="-1.6168324">
        <time>2022-07-03T13:32:10Z</time>
      </trkpt>
      <trkpt lat="42.841496" lon="-1.6167283">
        <time>2022-07-03T13:32:13Z</time>
      </trkpt>
      <trkpt lat="42.84148" lon="-1.6166596">
        <time>2022-07-03T13:32:15Z</time>
      </trkpt>
      <trkpt lat="42.84146" lon="-1.6165891">
        <time>2022-07-03T13:32:17Z</time>
      </trkpt>
      <trkpt lat="42.84145" lon="-1.6165184">
        <time>2022-07-03T13:32:19Z</time>
      </trkpt>
      <trkpt lat="42.841434" lon="-1.6164488">
        <time>2022-07-03T13:32:21Z</time>
      </trkpt>
      <trkpt lat="42.841423" lon="-1.616379">
        <time>2022-07-03T13:32:23Z</time>
      </trkpt>
      <trkpt lat="42.84141" lon="-1.6163085">
        <time>2022-07-03T13:32:25Z</time>
      </trkpt>
      <trkpt lat="42.8414" lon="-1.6162364">
        <time>2022-07-03T13:32:27Z</time>
      </trkpt>
      <trkpt lat="42.841385" lon="-1.6161691">
        <time>2022-07-03T13:32:29Z</time>
      </trkpt>
      <trkpt lat="42.841373" lon="-1.6160951">
        <time>2022-07-03T13:32:31Z</time>
      </trkpt>
      <trkpt lat="42.841362" lon="-1.6160218">
        <time>2022-07-03T13:32:33Z</time>
      </trkpt>
      <trkpt lat="42.84135" lon="-1.6159521">
        <time>2022-07-03T13:32:35Z</time>
      </trkpt>
      <trkpt lat="42.84134" lon="-1.6158794">
        <time>2022-07-03T13:32:37Z</time>
      </trkpt>
      <trkpt lat="42.841328" lon="-1.6158074">
        <time>2022-07-03T13:32:39Z</time>
      </trkpt>
      <trkpt lat="42.841316" lon="-1.6157295">
        <time>2022-07-03T13:32:41Z</time>
      </trkpt>
      <trkpt lat="42.84131" lon="-1.6156514">
        <time>2022-07-03T13:32:43Z</time>
      </trkpt>
      <trkpt lat="42.8413" lon="-1.6155725">
        <time>2022-07-03T13:32:45Z</time>
      </trkpt>
      <trkpt lat="42.84129" lon="-1.6154914">
        <time>2022-07-03T13:32:47Z</time>
      </trkpt>
      <trkpt lat="42.841278" lon="-1.6154075">
        <time>2022-07-03T13:32:49Z</time>
      </trkpt>
      <trkpt lat="42.841263" lon="-1.6153231">
        <time>2022-07-03T13:32:51Z</time>
      </trkpt>
      <trkpt lat="42.841248" lon="-1.6152391">
        <time>2022-07-03T13:32:53Z</time>
      </trkpt>
      <trkpt lat="42.841236" lon="-1.6151538">
        <time>2022-07-03T13:32:55Z</time>
      </trkpt>
      <trkpt lat="42.841225" lon="-1.6150677">
        <time>2022-07-03T13:32:57Z</time>
      </trkpt>
      <trkpt lat="42.841213" lon="-1.6149797">
        <time>2022-07-03T13:32:59Z</time>
      </trkpt>
      <trkpt lat="42.841198" lon="-1.614891">
        <time>2022-07-03T13:33:01Z</time>
      </trkpt>
      <trkpt lat="42.841187" lon="-1.6148031">
        <time>2022-07-03T13:33:03Z</time>
      </trkpt>
      <trkpt lat="42.841167" lon="-1.6147134">
        <time>2022-07-03T13:33:05Z</time>
      </trkpt>
      <trkpt lat="42.841152" lon="-1.6146262">
        <time>2022-07-03T13:33:07Z</time>
      </trkpt>
      <trkpt lat="42.841133" lon="-1.6145321">
        <time>2022-07-03T13:33:09Z</time>
      </trkpt>
      <trkpt lat="42.841118" lon="-1.6144408">
        <time>2022-07-03T13:33:11Z</time>
      </trkpt>
      <trkpt lat="42.8411" lon="-1.6143458">
        <time>2022-07-03T13:33:13Z</time>
      </trkpt>
      <trkpt lat="42.84108" lon="-1.6142454">
        <time>2022-07-03T13:33:15Z</time>
      </trkpt>
      <trkpt lat="42.84106" lon="-1.6141448">
        <time>2022-07-03T13:33:17Z</time>
      </trkpt>
      <trkpt lat="42.841038" lon="-1.6140438">
        <time>2022-07-03T13:33:19Z</time>
      </trkpt>
      <trkpt lat="42.84101" lon="-1.6139398">
        <time>2022-07-03T13:33:21Z</time>
      </trkpt>
      <trkpt lat="42.84099" lon="-1.6138301">
        <time>2022-07-03T13:33:23Z</time>
      </trkpt>
      <trkpt lat="42.84096" lon="-1.6137135">
        <time>2022-07-03T13:33:25Z</time>
      </trkpt>
      <trkpt lat="42.84093" lon="-1.6135955">
        <time>2022-07-03T13:33:27Z</time>
      </trkpt>
      <trkpt lat="42.840897" lon="-1.6134685">
        <time>2022-07-03T13:33:29Z</time>
      </trkpt>
      <trkpt lat="42.840878" lon="-1.6134042">
        <time>2022-07-03T13:33:30Z</time>
      </trkpt>
      <trkpt lat="42.840862" lon="-1.6133381">
        <time>2022-07-03T13:33:31Z</time>
      </trkpt>
      <trkpt lat="42.840824" lon="-1.6132025">
        <time>2022-07-03T13:33:33Z</time>
      </trkpt>
      <trkpt lat="42.8408" lon="-1.6131325">
        <time>2022-07-03T13:33:34Z</time>
      </trkpt>
      <trkpt lat="42.840782" lon="-1.6130612">
        <time>2022-07-03T13:33:35Z</time>
      </trkpt>
      <trkpt lat="42.84076" lon="-1.6129888">
        <time>2022-07-03T13:33:36Z</time>
      </trkpt>
      <trkpt lat="42.840736" lon="-1.6129152">
        <time>2022-07-03T13:33:37Z</time>
      </trkpt>
      <trkpt lat="42.840714" lon="-1.6128418">
        <time>2022-07-03T13:33:38Z</time>
      </trkpt>
      <trkpt lat="42.84069" lon="-1.6127678">
        <time>2022-07-03T13:33:39Z</time>
      </trkpt>
      <trkpt lat="42.840664" lon="-1.6126921">
        <time>2022-07-03T13:33:40Z</time>
      </trkpt>
      <trkpt lat="42.840637" lon="-1.6126165">
        <time>2022-07-03T13:33:41Z</time>
      </trkpt>
      <trkpt lat="42.840614" lon="-1.6125399">
        <time>2022-07-03T13:33:42Z</time>
      </trkpt>
      <trkpt lat="42.840588" lon="-1.6124625">
        <time>2022-07-03T13:33:43Z</time>
      </trkpt>
      <trkpt lat="42.840557" lon="-1.6123846">
        <time>2022-07-03T13:33:44Z</time>
      </trkpt>
      <trkpt lat="42.840527" lon="-1.6123052">
        <time>2022-07-03T13:33:45Z</time>
      </trkpt>
      <trkpt lat="42.84046" lon="-1.6121422">
        <time>2022-07-03T13:33:47Z</time>
      </trkpt>
      <trkpt lat="42.840424" lon="-1.6120582">
        <time>2022-07-03T13:33:48Z</time>
      </trkpt>
      <trkpt lat="42.84039" lon="-1.6119739">
        <time>2022-07-03T13:33:49Z</time>
      </trkpt>
      <trkpt lat="42.84035" lon="-1.6118878">
        <time>2022-07-03T13:33:50Z</time>
      </trkpt>
      <trkpt lat="42.84031" lon="-1.6117998">
        <time>2022-07-03T13:33:51Z</time>
      </trkpt>
      <trkpt lat="42.840267" lon="-1.6117089">
        <time>2022-07-03T13:33:52Z</time>
      </trkpt>
      <trkpt lat="42.840225" lon="-1.6116178">
        <time>2022-07-03T13:33:53Z</time>
      </trkpt>
      <trkpt lat="42.840183" lon="-1.6115248">
        <time>2022-07-03T13:33:54Z</time>
      </trkpt>
      <trkpt lat="42.84014" lon="-1.6114302">
        <time>2022-07-03T13:33:55Z</time>
      </trkpt>
      <trkpt lat="42.840096" lon="-1.6113399">
        <time>2022-07-03T13:33:56Z</time>
      </trkpt>
      <trkpt lat="42.840054" lon="-1.6112438">
        <time>2022-07-03T13:33:57Z</time>
      </trkpt>
      <trkpt lat="42.840008" lon="-1.6111445">
        <time>2022-07-03T13:33:58Z</time>
      </trkpt>
      <trkpt lat="42.83996" lon="-1.6110436">
        <time>2022-07-03T13:33:59Z</time>
      </trkpt>
      <trkpt lat="42.839912" lon="-1.6109399">
        <time>2022-07-03T13:34:00Z</time>
      </trkpt>
      <trkpt lat="42.839863" lon="-1.6108335">
        <time>2022-07-03T13:34:01Z</time>
      </trkpt>
      <trkpt lat="42.839813" lon="-1.6107255">
        <time>2022-07-03T13:34:02Z</time>
      </trkpt>
      <trkpt lat="42.839764" lon="-1.6106155">
        <time>2022-07-03T13:34:03Z</time>
      </trkpt>
      <trkpt lat="42.839714" lon="-1.6105009">
        <time>2022-07-03T13:34:04Z</time>
      </trkpt>
      <trkpt lat="42.839664" lon="-1.6103829">
        <time>2022-07-03T13:34:05Z</time>
      </trkpt>
      <trkpt lat="42.83961" lon="-1.6102529">
        <time>2022-07-03T13:34:06Z</time>
      </trkpt>
      <trkpt lat="42.83956" lon="-1.6101222">
        <time>2022-07-03T13:34:07Z</time>
      </trkpt>
      <trkpt lat="42.839508" lon="-1.6099906">
        <time>2022-07-03T13:34:08Z</time>
      </trkpt>
      <trkpt lat="42.83946" lon="-1.6098585">
        <time>2022-07-03T13:34:09Z</time>
      </trkpt>
      <trkpt lat="42.83941" lon="-1.609726">
        <time>2022-07-03T13:34:10Z</time>
      </trkpt>
      <trkpt lat="42.83936" lon="-1.6095926">
        <time>2022-07-03T13:34:11Z</time>
      </trkpt>
      <trkpt lat="42.83931" lon="-1.6094582">
        <time>2022-07-03T13:34:12Z</time>
      </trkpt>
      <trkpt lat="42.839264" lon="-1.6093236">
        <time>2022-07-03T13:34:13Z</time>
      </trkpt>
      <trkpt lat="42.83922" lon="-1.6091999">
        <time>2022-07-03T13:34:14Z</time>
      </trkpt>
      <trkpt lat="42.839172" lon="-1.6090763">
        <time>2022-07-03T13:34:15Z</time>
      </trkpt>
      <trkpt lat="42.839123" lon="-1.6089553">
        <time>2022-07-03T13:34:16Z</time>
      </trkpt>
      <trkpt lat="42.83907" lon="-1.6088396">
        <time>2022-07-03T13:34:17Z</time>
      </trkpt>
      <trkpt lat="42.83902" lon="-1.6087209">
        <time>2022-07-03T13:34:18Z</time>
      </trkpt>
      <trkpt lat="42.838978" lon="-1.6086063">
        <time>2022-07-03T13:34:19Z</time>
      </trkpt>
      <trkpt lat="42.838943" lon="-1.6084946">
        <time>2022-07-03T13:34:20Z</time>
      </trkpt>
      <trkpt lat="42.83892" lon="-1.608385">
        <time>2022-07-03T13:34:21Z</time>
      </trkpt>
      <trkpt lat="42.838905" lon="-1.608276">
        <time>2022-07-03T13:34:22Z</time>
      </trkpt>
      <trkpt lat="42.838894" lon="-1.608169">
        <time>2022-07-03T13:34:23Z</time>
      </trkpt>
      <trkpt lat="42.838882" lon="-1.608062">
        <time>2022-07-03T13:34:24Z</time>
      </trkpt>
      <trkpt lat="42.838867" lon="-1.6079557">
        <time>2022-07-03T13:34:25Z</time>
      </trkpt>
      <trkpt lat="42.83885" lon="-1.6078503">
        <time>2022-07-03T13:34:26Z</time>
      </trkpt>
      <trkpt lat="42.838833" lon="-1.6077466">
        <time>2022-07-03T13:34:27Z</time>
      </trkpt>
      <trkpt lat="42.838814" lon="-1.6076434">
        <time>2022-07-03T13:34:28Z</time>
      </trkpt>
      <trkpt lat="42.8388" lon="-1.607547">
        <time>2022-07-03T13:34:29Z</time>
      </trkpt>
      <trkpt lat="42.83878" lon="-1.607443">
        <time>2022-07-03T13:34:30Z</time>
      </trkpt>
      <trkpt lat="42.838764" lon="-1.6073476">
        <time>2022-07-03T13:34:31Z</time>
      </trkpt>
      <trkpt lat="42.83875" lon="-1.6072533">
        <time>2022-07-03T13:34:32Z</time>
      </trkpt>
      <trkpt lat="42.83873" lon="-1.607152">
        <time>2022-07-03T13:34:33Z</time>
      </trkpt>
      <trkpt lat="42.83872" lon="-1.6070594">
        <time>2022-07-03T13:34:34Z</time>
      </trkpt>
      <trkpt lat="42.838703" lon="-1.606961">
        <time>2022-07-03T13:34:35Z</time>
      </trkpt>
      <trkpt lat="42.838688" lon="-1.6068637">
        <time>2022-07-03T13:34:36Z</time>
      </trkpt>
      <trkpt lat="42.838676" lon="-1.6067743">
        <time>2022-07-03T13:34:37Z</time>
      </trkpt>
      <trkpt lat="42.838665" lon="-1.6066843">
        <time>2022-07-03T13:34:38Z</time>
      </trkpt>
      <trkpt lat="42.83865" lon="-1.6065927">
        <time>2022-07-03T13:34:39Z</time>
      </trkpt>
      <trkpt lat="42.83864" lon="-1.6064943">
        <time>2022-07-03T13:34:40Z</time>
      </trkpt>
      <trkpt lat="42.838627" lon="-1.606397">
        <time>2022-07-03T13:34:41Z</time>
      </trkpt>
      <trkpt lat="42.838615" lon="-1.606307">
        <time>2022-07-03T13:34:42Z</time>
      </trkpt>
      <trkpt lat="42.838604" lon="-1.6062157">
        <time>2022-07-03T13:34:43Z</time>
      </trkpt>
      <trkpt lat="42.838593" lon="-1.6061181">
        <time>2022-07-03T13:34:44Z</time>
      </trkpt>
      <trkpt lat="42.83858" lon="-1.6060218">
        <time>2022-07-03T13:34:45Z</time>
      </trkpt>
      <trkpt lat="42.838573" lon="-1.6059324">
        <time>2022-07-03T13:34:46Z</time>
      </trkpt>
      <trkpt lat="42.838566" lon="-1.6058414">
        <time>2022-07-03T13:34:47Z</time>
      </trkpt>
      <trkpt lat="42.83856" lon="-1.6057501">
        <time>2022-07-03T13:34:48Z</time>
      </trkpt>
      <trkpt lat="42.838547" lon="-1.6055677">
        <time>2022-07-03T13:34:50Z</time>
      </trkpt>
      <trkpt lat="42.83854" lon="-1.6054773">
        <time>2022-07-03T13:34:51Z</time>
      </trkpt>
      <trkpt lat="42.838535" lon="-1.605388">
        <time>2022-07-03T13:34:52Z</time>
      </trkpt>
      <trkpt lat="42.83853" lon="-1.6053004">
        <time>2022-07-03T13:34:53Z</time>
      </trkpt>
      <trkpt lat="42.838528" lon="-1.6052197">
        <time>2022-07-03T13:34:54Z</time>
      </trkpt>
      <trkpt lat="42.838524" lon="-1.6051334">
        <time>2022-07-03T13:34:55Z</time>
      </trkpt>
      <trkpt lat="42.83852" lon="-1.6050481">
        <time>2022-07-03T13:34:56Z</time>
      </trkpt>
      <trkpt lat="42.838516" lon="-1.6049697">
        <time>2022-07-03T13:34:57Z</time>
      </trkpt>
      <trkpt lat="42.838512" lon="-1.6048911">
        <time>2022-07-03T13:34:58Z</time>
      </trkpt>
      <trkpt lat="42.83851" lon="-1.6048124">
        <time>2022-07-03T13:34:59Z</time>
      </trkpt>
      <trkpt lat="42.83851" lon="-1.604729">
        <time>2022-07-03T13:35:00Z</time>
      </trkpt>
      <trkpt lat="42.838505" lon="-1.6046478">
        <time>2022-07-03T13:35:01Z</time>
      </trkpt>
      <trkpt lat="42.838505" lon="-1.6045681">
        <time>2022-07-03T13:35:02Z</time>
      </trkpt>
      <trkpt lat="42.838505" lon="-1.6044894">
        <time>2022-07-03T13:35:03Z</time>
      </trkpt>
      <trkpt lat="42.838505" lon="-1.6044118">
        <time>2022-07-03T13:35:04Z</time>
      </trkpt>
      <trkpt lat="42.838505" lon="-1.6043352">
        <time>2022-07-03T13:35:05Z</time>
      </trkpt>
      <trkpt lat="42.838505" lon="-1.6042645">
        <time>2022-07-03T13:35:06Z</time>
      </trkpt>
      <trkpt lat="42.838505" lon="-1.6041892">
        <time>2022-07-03T13:35:07Z</time>
      </trkpt>
      <trkpt lat="42.838505" lon="-1.6041172">
        <time>2022-07-03T13:35:08Z</time>
      </trkpt>
      <trkpt lat="42.838505" lon="-1.6040485">
        <time>2022-07-03T13:35:09Z</time>
      </trkpt>
      <trkpt lat="42.83851" lon="-1.6039182">
        <time>2022-07-03T13:35:11Z</time>
      </trkpt>
      <trkpt lat="42.838512" lon="-1.6037939">
        <time>2022-07-03T13:35:13Z</time>
      </trkpt>
      <trkpt lat="42.838512" lon="-1.6036772">
        <time>2022-07-03T13:35:15Z</time>
      </trkpt>
      <trkpt lat="42.83852" lon="-1.6035671">
        <time>2022-07-03T13:35:17Z</time>
      </trkpt>
      <trkpt lat="42.838524" lon="-1.6034635">
        <time>2022-07-03T13:35:19Z</time>
      </trkpt>
      <trkpt lat="42.83853" lon="-1.6033659">
        <time>2022-07-03T13:35:21Z</time>
      </trkpt>
      <trkpt lat="42.838543" lon="-1.6032745">
        <time>2022-07-03T13:35:23Z</time>
      </trkpt>
      <trkpt lat="42.838554" lon="-1.6031942">
        <time>2022-07-03T13:35:25Z</time>
      </trkpt>
      <trkpt lat="42.838566" lon="-1.6031128">
        <time>2022-07-03T13:35:27Z</time>
      </trkpt>
      <trkpt lat="42.838573" lon="-1.6030341">
        <time>2022-07-03T13:35:29Z</time>
      </trkpt>
      <trkpt lat="42.838585" lon="-1.6029599">
        <time>2022-07-03T13:35:31Z</time>
      </trkpt>
      <trkpt lat="42.838593" lon="-1.6028925">
        <time>2022-07-03T13:35:33Z</time>
      </trkpt>
      <trkpt lat="42.838604" lon="-1.6027932">
        <time>2022-07-03T13:35:36Z</time>
      </trkpt>
      <trkpt lat="42.83861" lon="-1.6027275">
        <time>2022-07-03T13:35:38Z</time>
      </trkpt>
      <trkpt lat="42.83862" lon="-1.6026402">
        <time>2022-07-03T13:35:41Z</time>
      </trkpt>
      <trkpt lat="42.83863" lon="-1.6025566">
        <time>2022-07-03T13:35:44Z</time>
      </trkpt>
      <trkpt lat="42.838642" lon="-1.6024766">
        <time>2022-07-03T13:35:47Z</time>
      </trkpt>
      <trkpt lat="42.83865" lon="-1.6024019">
        <time>2022-07-03T13:35:50Z</time>
      </trkpt>
      <trkpt lat="42.83866" lon="-1.6023359">
        <time>2022-07-03T13:35:53Z</time>
      </trkpt>
      <trkpt lat="42.838673" lon="-1.6022465">
        <time>2022-07-03T13:35:57Z</time>
      </trkpt>
      <trkpt lat="42.838676" lon="-1.6021795">
        <time>2022-07-03T13:36:00Z</time>
      </trkpt>
      <trkpt lat="42.83869" lon="-1.6020923">
        <time>2022-07-03T13:36:04Z</time>
      </trkpt>
      <trkpt lat="42.838703" lon="-1.6020246">
        <time>2022-07-03T13:36:07Z</time>
      </trkpt>
      <trkpt lat="42.83872" lon="-1.6019336">
        <time>2022-07-03T13:36:11Z</time>
      </trkpt>
      <trkpt lat="42.838726" lon="-1.6018636">
        <time>2022-07-03T13:36:14Z</time>
      </trkpt>
      <trkpt lat="42.838737" lon="-1.6017959">
        <time>2022-07-03T13:36:17Z</time>
      </trkpt>
      <trkpt lat="42.838753" lon="-1.6017089">
        <time>2022-07-03T13:36:21Z</time>
      </trkpt>
      <trkpt lat="42.838764" lon="-1.6016419">
        <time>2022-07-03T13:36:24Z</time>
      </trkpt>
      <trkpt lat="42.838776" lon="-1.6015536">
        <time>2022-07-03T13:36:28Z</time>
      </trkpt>
      <trkpt lat="42.838783" lon="-1.6014866">
        <time>2022-07-03T13:36:31Z</time>
      </trkpt>
      <trkpt lat="42.838802" lon="-1.6013995">
        <time>2022-07-03T13:36:35Z</time>
      </trkpt>
      <trkpt lat="42.838814" lon="-1.6013336">
        <time>2022-07-03T13:36:38Z</time>
      </trkpt>
      <trkpt lat="42.83883" lon="-1.6012449">
        <time>2022-07-03T13:36:42Z</time>
      </trkpt>
      <trkpt lat="42.83884" lon="-1.60118">
        <time>2022-07-03T13:36:45Z</time>
      </trkpt>
      <trkpt lat="42.838852" lon="-1.6010933">
        <time>2022-07-03T13:36:49Z</time>
      </trkpt>
      <trkpt lat="42.838863" lon="-1.6010036">
        <time>2022-07-03T13:36:53Z</time>
      </trkpt>
      <trkpt lat="42.838867" lon="-1.6009336">
        <time>2022-07-03T13:36:56Z</time>
      </trkpt>
      <trkpt lat="42.83888" lon="-1.6008416">
        <time>2022-07-03T13:37:00Z</time>
      </trkpt>
      <trkpt lat="42.838894" lon="-1.6007693">
        <time>2022-07-03T13:37:03Z</time>
      </trkpt>
      <trkpt lat="42.838905" lon="-1.6006993">
        <time>2022-07-03T13:37:06Z</time>
      </trkpt>
      <trkpt lat="42.83891" lon="-1.600631">
        <time>2022-07-03T13:37:09Z</time>
      </trkpt>
      <trkpt lat="42.838917" lon="-1.6005603">
        <time>2022-07-03T13:37:12Z</time>
      </trkpt>
      <trkpt lat="42.838924" lon="-1.600474">
        <time>2022-07-03T13:37:16Z</time>
      </trkpt>
      <trkpt lat="42.838932" lon="-1.6003886">
        <time>2022-07-03T13:37:20Z</time>
      </trkpt>
      <trkpt lat="42.83894" lon="-1.6003009">
        <time>2022-07-03T13:37:24Z</time>
      </trkpt>
      <trkpt lat="42.838943" lon="-1.6002203">
        <time>2022-07-03T13:37:28Z</time>
      </trkpt>
      <trkpt lat="42.838947" lon="-1.600135">
        <time>2022-07-03T13:37:32Z</time>
      </trkpt>
      <trkpt lat="42.838947" lon="-1.6000617">
        <time>2022-07-03T13:37:36Z</time>
      </trkpt>
      <trkpt lat="42.83895" lon="-1.5999806">
        <time>2022-07-03T13:37:40Z</time>
      </trkpt>
      <trkpt lat="42.83895" lon="-1.599895">
        <time>2022-07-03T13:37:44Z</time>
      </trkpt>
      <trkpt lat="42.838955" lon="-1.5998343">
        <time>2022-07-03T13:37:47Z</time>
      </trkpt>
      <trkpt lat="42.838955" lon="-1.5997486">
        <time>2022-07-03T13:37:51Z</time>
      </trkpt>
      <trkpt lat="42.838955" lon="-1.5996866">
        <time>2022-07-03T13:37:54Z</time>
      </trkpt>
      <trkpt lat="42.838955" lon="-1.599609">
        <time>2022-07-03T13:37:58Z</time>
      </trkpt>
      <trkpt lat="42.83896" lon="-1.5995296">
        <time>2022-07-03T13:38:02Z</time>
      </trkpt>
      <trkpt lat="42.838955" lon="-1.5994503">
        <time>2022-07-03T13:38:06Z</time>
      </trkpt>
      <trkpt lat="42.838955" lon="-1.5993726">
        <time>2022-07-03T13:38:10Z</time>
      </trkpt>
      <trkpt lat="42.838955" lon="-1.5992941">
        <time>2022-07-03T13:38:14Z</time>
      </trkpt>
      <trkpt lat="42.83895" lon="-1.5992141">
        <time>2022-07-03T13:38:18Z</time>
      </trkpt>
      <trkpt lat="42.83895" lon="-1.5991297">
        <time>2022-07-03T13:38:22Z</time>
      </trkpt>
      <trkpt lat="42.838947" lon="-1.599056">
        <time>2022-07-03T13:38:26Z</time>
      </trkpt>
      <trkpt lat="42.838947" lon="-1.5989773">
        <time>2022-07-03T13:38:30Z</time>
      </trkpt>
      <trkpt lat="42.838947" lon="-1.5988971">
        <time>2022-07-03T13:38:34Z</time>
      </trkpt>
      <trkpt lat="42.838943" lon="-1.5988157">
        <time>2022-07-03T13:38:38Z</time>
      </trkpt>
      <trkpt lat="42.838943" lon="-1.5987318">
        <time>2022-07-03T13:38:42Z</time>
      </trkpt>
      <trkpt lat="42.838936" lon="-1.598669">
        <time>2022-07-03T13:38:45Z</time>
      </trkpt>
      <trkpt lat="42.838924" lon="-1.5985914">
        <time>2022-07-03T13:38:49Z</time>
      </trkpt>
      <trkpt lat="42.83892" lon="-1.5985084">
        <time>2022-07-03T13:38:53Z</time>
      </trkpt>
      <trkpt lat="42.838917" lon="-1.5984287">
        <time>2022-07-03T13:38:57Z</time>
      </trkpt>
      <trkpt lat="42.838913" lon="-1.5983487">
        <time>2022-07-03T13:39:01Z</time>
      </trkpt>
      <trkpt lat="42.838905" lon="-1.5982658">
        <time>2022-07-03T13:39:05Z</time>
      </trkpt>
      <trkpt lat="42.838894" lon="-1.5981843">
        <time>2022-07-03T13:39:09Z</time>
      </trkpt>
      <trkpt lat="42.83889" lon="-1.5981054">
        <time>2022-07-03T13:39:13Z</time>
      </trkpt>
      <trkpt lat="42.83889" lon="-1.5980268">
        <time>2022-07-03T13:39:17Z</time>
      </trkpt>
      <trkpt lat="42.83888" lon="-1.5979477">
        <time>2022-07-03T13:39:21Z</time>
      </trkpt>
      <trkpt lat="42.838875" lon="-1.5978707">
        <time>2022-07-03T13:39:25Z</time>
      </trkpt>
      <trkpt lat="42.838863" lon="-1.5977898">
        <time>2022-07-03T13:39:29Z</time>
      </trkpt>
      <trkpt lat="42.83885" lon="-1.5977117">
        <time>2022-07-03T13:39:33Z</time>
      </trkpt>
      <trkpt lat="42.838833" lon="-1.5976315">
        <time>2022-07-03T13:39:37Z</time>
      </trkpt>
      <trkpt lat="42.83882" lon="-1.5975507">
        <time>2022-07-03T13:39:41Z</time>
      </trkpt>
      <trkpt lat="42.83881" lon="-1.5974704">
        <time>2022-07-03T13:39:45Z</time>
      </trkpt>
      <trkpt lat="42.8388" lon="-1.5973904">
        <time>2022-07-03T13:39:49Z</time>
      </trkpt>
      <trkpt lat="42.838787" lon="-1.597308">
        <time>2022-07-03T13:39:53Z</time>
      </trkpt>
      <trkpt lat="42.838776" lon="-1.5972295">
        <time>2022-07-03T13:39:57Z</time>
      </trkpt>
      <trkpt lat="42.838764" lon="-1.5971508">
        <time>2022-07-03T13:40:01Z</time>
      </trkpt>
      <trkpt lat="42.838753" lon="-1.5970684">
        <time>2022-07-03T13:40:05Z</time>
      </trkpt>
      <trkpt lat="42.838737" lon="-1.5969805">
        <time>2022-07-03T13:40:09Z</time>
      </trkpt>
      <trkpt lat="42.83873" lon="-1.5969114">
        <time>2022-07-03T13:40:12Z</time>
      </trkpt>
      <trkpt lat="42.83872" lon="-1.5968431">
        <time>2022-07-03T13:40:15Z</time>
      </trkpt>
      <trkpt lat="42.838707" lon="-1.5967494">
        <time>2022-07-03T13:40:19Z</time>
      </trkpt>
      <trkpt lat="42.8387" lon="-1.5966785">
        <time>2022-07-03T13:40:22Z</time>
      </trkpt>
      <trkpt lat="42.838688" lon="-1.5966074">
        <time>2022-07-03T13:40:25Z</time>
      </trkpt>
      <trkpt lat="42.83868" lon="-1.5965362">
        <time>2022-07-03T13:40:28Z</time>
      </trkpt>
      <trkpt lat="42.83867" lon="-1.5964612">
        <time>2022-07-03T13:40:31Z</time>
      </trkpt>
      <trkpt lat="42.838657" lon="-1.5963888">
        <time>2022-07-03T13:40:34Z</time>
      </trkpt>
      <trkpt lat="42.838646" lon="-1.5963188">
        <time>2022-07-03T13:40:37Z</time>
      </trkpt>
      <trkpt lat="42.838634" lon="-1.5962461">
        <time>2022-07-03T13:40:40Z</time>
      </trkpt>
      <trkpt lat="42.838623" lon="-1.5961645">
        <time>2022-07-03T13:40:43Z</time>
      </trkpt>
      <trkpt lat="42.83861" lon="-1.5960804">
        <time>2022-07-03T13:40:46Z</time>
      </trkpt>
      <trkpt lat="42.8386" lon="-1.5959824">
        <time>2022-07-03T13:40:49Z</time>
      </trkpt>
      <trkpt lat="42.83859" lon="-1.5959154">
        <time>2022-07-03T13:40:51Z</time>
      </trkpt>
      <trkpt lat="42.83858" lon="-1.5958451">
        <time>2022-07-03T13:40:53Z</time>
      </trkpt>
      <trkpt lat="42.83857" lon="-1.5957421">
        <time>2022-07-03T13:40:56Z</time>
      </trkpt>
      <trkpt lat="42.838562" lon="-1.5956738">
        <time>2022-07-03T13:40:58Z</time>
      </trkpt>
      <trkpt lat="42.838554" lon="-1.5956012">
        <time>2022-07-03T13:41:00Z</time>
      </trkpt>
      <trkpt lat="42.83855" lon="-1.5955259">
        <time>2022-07-03T13:41:02Z</time>
      </trkpt>
      <trkpt lat="42.838543" lon="-1.5954459">
        <time>2022-07-03T13:41:04Z</time>
      </trkpt>
      <trkpt lat="42.838535" lon="-1.5953605">
        <time>2022-07-03T13:41:06Z</time>
      </trkpt>
      <trkpt lat="42.838524" lon="-1.5952219">
        <time>2022-07-03T13:41:09Z</time>
      </trkpt>
      <trkpt lat="42.83852" lon="-1.5951239">
        <time>2022-07-03T13:41:11Z</time>
      </trkpt>
      <trkpt lat="42.83852" lon="-1.5950235">
        <time>2022-07-03T13:41:13Z</time>
      </trkpt>
      <trkpt lat="42.83852" lon="-1.5949202">
        <time>2022-07-03T13:41:15Z</time>
      </trkpt>
      <trkpt lat="42.83852" lon="-1.5948179">
        <time>2022-07-03T13:41:17Z</time>
      </trkpt>
      <trkpt lat="42.83852" lon="-1.5947155">
        <time>2022-07-03T13:41:19Z</time>
      </trkpt>
      <trkpt lat="42.838524" lon="-1.5946125">
        <time>2022-07-03T13:41:21Z</time>
      </trkpt>
      <trkpt lat="42.838528" lon="-1.5945102">
        <time>2022-07-03T13:41:23Z</time>
      </trkpt>
      <trkpt lat="42.83853" lon="-1.5944061">
        <time>2022-07-03T13:41:25Z</time>
      </trkpt>
      <trkpt lat="42.838543" lon="-1.5943009">
        <time>2022-07-03T13:41:27Z</time>
      </trkpt>
      <trkpt lat="42.83855" lon="-1.5941921">
        <time>2022-07-03T13:41:29Z</time>
      </trkpt>
      <trkpt lat="42.838566" lon="-1.5940799">
        <time>2022-07-03T13:41:31Z</time>
      </trkpt>
      <trkpt lat="42.83858" lon="-1.5939629">
        <time>2022-07-03T13:41:33Z</time>
      </trkpt>
      <trkpt lat="42.838596" lon="-1.5938395">
        <time>2022-07-03T13:41:35Z</time>
      </trkpt>
      <trkpt lat="42.83862" lon="-1.5937089">
        <time>2022-07-03T13:41:37Z</time>
      </trkpt>
      <trkpt lat="42.83865" lon="-1.5935699">
        <time>2022-07-03T13:41:39Z</time>
      </trkpt>
      <trkpt lat="42.83866" lon="-1.5934966">
        <time>2022-07-03T13:41:40Z</time>
      </trkpt>
      <trkpt lat="42.838676" lon="-1.5934209">
        <time>2022-07-03T13:41:41Z</time>
      </trkpt>
      <trkpt lat="42.838696" lon="-1.5933422">
        <time>2022-07-03T13:41:42Z</time>
      </trkpt>
      <trkpt lat="42.83871" lon="-1.5932622">
        <time>2022-07-03T13:41:43Z</time>
      </trkpt>
      <trkpt lat="42.838734" lon="-1.5931813">
        <time>2022-07-03T13:41:44Z</time>
      </trkpt>
      <trkpt lat="42.838753" lon="-1.5930982">
        <time>2022-07-03T13:41:45Z</time>
      </trkpt>
      <trkpt lat="42.838776" lon="-1.5930132">
        <time>2022-07-03T13:41:46Z</time>
      </trkpt>
      <trkpt lat="42.838795" lon="-1.5929246">
        <time>2022-07-03T13:41:47Z</time>
      </trkpt>
      <trkpt lat="42.838818" lon="-1.5928329">
        <time>2022-07-03T13:41:48Z</time>
      </trkpt>
      <trkpt lat="42.838844" lon="-1.5927379">
        <time>2022-07-03T13:41:49Z</time>
      </trkpt>
      <trkpt lat="42.83887" lon="-1.5926386">
        <time>2022-07-03T13:41:50Z</time>
      </trkpt>
      <trkpt lat="42.8389" lon="-1.5925359">
        <time>2022-07-03T13:41:51Z</time>
      </trkpt>
      <trkpt lat="42.838936" lon="-1.5924289">
        <time>2022-07-03T13:41:52Z</time>
      </trkpt>
      <trkpt lat="42.838974" lon="-1.5923185">
        <time>2022-07-03T13:41:53Z</time>
      </trkpt>
      <trkpt lat="42.83901" lon="-1.5922129">
        <time>2022-07-03T13:41:54Z</time>
      </trkpt>
      <trkpt lat="42.839046" lon="-1.5921023">
        <time>2022-07-03T13:41:55Z</time>
      </trkpt>
      <trkpt lat="42.83909" lon="-1.5919873">
        <time>2022-07-03T13:41:56Z</time>
      </trkpt>
      <trkpt lat="42.83913" lon="-1.5918686">
        <time>2022-07-03T13:41:57Z</time>
      </trkpt>
      <trkpt lat="42.839176" lon="-1.5917389">
        <time>2022-07-03T13:41:58Z</time>
      </trkpt>
      <trkpt lat="42.83922" lon="-1.5916187">
        <time>2022-07-03T13:41:59Z</time>
      </trkpt>
      <trkpt lat="42.839264" lon="-1.591489">
        <time>2022-07-03T13:42:00Z</time>
      </trkpt>
      <trkpt lat="42.839306" lon="-1.5913703">
        <time>2022-07-03T13:42:01Z</time>
      </trkpt>
      <trkpt lat="42.83935" lon="-1.5912423">
        <time>2022-07-03T13:42:02Z</time>
      </trkpt>
      <trkpt lat="42.839394" lon="-1.5911236">
        <time>2022-07-03T13:42:03Z</time>
      </trkpt>
      <trkpt lat="42.83944" lon="-1.590994">
        <time>2022-07-03T13:42:04Z</time>
      </trkpt>
      <trkpt lat="42.839478" lon="-1.590866">
        <time>2022-07-03T13:42:05Z</time>
      </trkpt>
      <trkpt lat="42.839516" lon="-1.5907476">
        <time>2022-07-03T13:42:06Z</time>
      </trkpt>
      <trkpt lat="42.839546" lon="-1.590627">
        <time>2022-07-03T13:42:07Z</time>
      </trkpt>
      <trkpt lat="42.839577" lon="-1.590503">
        <time>2022-07-03T13:42:08Z</time>
      </trkpt>
      <trkpt lat="42.839607" lon="-1.5903736">
        <time>2022-07-03T13:42:09Z</time>
      </trkpt>
      <trkpt lat="42.83963" lon="-1.5902387">
        <time>2022-07-03T13:42:10Z</time>
      </trkpt>
      <trkpt lat="42.83965" lon="-1.5900986">
        <time>2022-07-03T13:42:11Z</time>
      </trkpt>
      <trkpt lat="42.839664" lon="-1.589955">
        <time>2022-07-03T13:42:12Z</time>
      </trkpt>
      <trkpt lat="42.839676" lon="-1.589653">
        <time>2022-07-03T13:42:14Z</time>
      </trkpt>
      <trkpt lat="42.839676" lon="-1.5894973">
        <time>2022-07-03T13:42:15Z</time>
      </trkpt>
      <trkpt lat="42.83967" lon="-1.5893394">
        <time>2022-07-03T13:42:16Z</time>
      </trkpt>
      <trkpt lat="42.839653" lon="-1.5891793">
        <time>2022-07-03T13:42:17Z</time>
      </trkpt>
      <trkpt lat="42.83963" lon="-1.5890183">
        <time>2022-07-03T13:42:18Z</time>
      </trkpt>
      <trkpt lat="42.839603" lon="-1.5888577">
        <time>2022-07-03T13:42:19Z</time>
      </trkpt>
      <trkpt lat="42.83957" lon="-1.588698">
        <time>2022-07-03T13:42:20Z</time>
      </trkpt>
      <trkpt lat="42.83953" lon="-1.5885416">
        <time>2022-07-03T13:42:21Z</time>
      </trkpt>
      <trkpt lat="42.839485" lon="-1.5883927">
        <time>2022-07-03T13:42:22Z</time>
      </trkpt>
      <trkpt lat="42.83944" lon="-1.5882504">
        <time>2022-07-03T13:42:23Z</time>
      </trkpt>
      <trkpt lat="42.839386" lon="-1.5881147">
        <time>2022-07-03T13:42:24Z</time>
      </trkpt>
      <trkpt lat="42.83933" lon="-1.5879847">
        <time>2022-07-03T13:42:25Z</time>
      </trkpt>
      <trkpt lat="42.83927" lon="-1.5878614">
        <time>2022-07-03T13:42:26Z</time>
      </trkpt>
      <trkpt lat="42.839207" lon="-1.587743">
        <time>2022-07-03T13:42:27Z</time>
      </trkpt>
      <trkpt lat="42.83914" lon="-1.5876307">
        <time>2022-07-03T13:42:28Z</time>
      </trkpt>
      <trkpt lat="42.83907" lon="-1.587525">
        <time>2022-07-03T13:42:29Z</time>
      </trkpt>
      <trkpt lat="42.838997" lon="-1.5874274">
        <time>2022-07-03T13:42:30Z</time>
      </trkpt>
      <trkpt lat="42.838913" lon="-1.587331">
        <time>2022-07-03T13:42:31Z</time>
      </trkpt>
      <trkpt lat="42.838833" lon="-1.5872427">
        <time>2022-07-03T13:42:32Z</time>
      </trkpt>
      <trkpt lat="42.838757" lon="-1.5871664">
        <time>2022-07-03T13:42:33Z</time>
      </trkpt>
      <trkpt lat="42.83868" lon="-1.5870944">
        <time>2022-07-03T13:42:34Z</time>
      </trkpt>
      <trkpt lat="42.8386" lon="-1.5870274">
        <time>2022-07-03T13:42:35Z</time>
      </trkpt>
      <trkpt lat="42.838516" lon="-1.5869651">
        <time>2022-07-03T13:42:36Z</time>
      </trkpt>
      <trkpt lat="42.838432" lon="-1.5869094">
        <time>2022-07-03T13:42:37Z</time>
      </trkpt>
      <trkpt lat="42.838337" lon="-1.5868587">
        <time>2022-07-03T13:42:38Z</time>
      </trkpt>
      <trkpt lat="42.83825" lon="-1.5868194">
        <time>2022-07-03T13:42:39Z</time>
      </trkpt>
      <trkpt lat="42.838158" lon="-1.5867864">
        <time>2022-07-03T13:42:40Z</time>
      </trkpt>
      <trkpt lat="42.838066" lon="-1.5867621">
        <time>2022-07-03T13:42:41Z</time>
      </trkpt>
      <trkpt lat="42.83798" lon="-1.586745">
        <time>2022-07-03T13:42:42Z</time>
      </trkpt>
      <trkpt lat="42.8379" lon="-1.5867304">
        <time>2022-07-03T13:42:43Z</time>
      </trkpt>
      <trkpt lat="42.83782" lon="-1.5867211">
        <time>2022-07-03T13:42:44Z</time>
      </trkpt>
      <trkpt lat="42.837734" lon="-1.5867131">
        <time>2022-07-03T13:42:45Z</time>
      </trkpt>
      <trkpt lat="42.83765" lon="-1.5867051">
        <time>2022-07-03T13:42:46Z</time>
      </trkpt>
      <trkpt lat="42.83757" lon="-1.5866947">
        <time>2022-07-03T13:42:47Z</time>
      </trkpt>
      <trkpt lat="42.837498" lon="-1.5866845">
        <time>2022-07-03T13:42:48Z</time>
      </trkpt>
      <trkpt lat="42.837425" lon="-1.5866765">
        <time>2022-07-03T13:42:49Z</time>
      </trkpt>
      <trkpt lat="42.83735" lon="-1.5866691">
        <time>2022-07-03T13:42:50Z</time>
      </trkpt>
      <trkpt lat="42.837276" lon="-1.5866635">
        <time>2022-07-03T13:42:51Z</time>
      </trkpt>
      <trkpt lat="42.837204" lon="-1.5866574">
        <time>2022-07-03T13:42:52Z</time>
      </trkpt>
      <trkpt lat="42.83714" lon="-1.5866507">
        <time>2022-07-03T13:42:53Z</time>
      </trkpt>
      <trkpt lat="42.837074" lon="-1.5866414">
        <time>2022-07-03T13:42:54Z</time>
      </trkpt>
      <trkpt lat="42.83701" lon="-1.5866305">
        <time>2022-07-03T13:42:55Z</time>
      </trkpt>
      <trkpt lat="42.83694" lon="-1.5866158">
        <time>2022-07-03T13:42:56Z</time>
      </trkpt>
      <trkpt lat="42.836884" lon="-1.5865991">
        <time>2022-07-03T13:42:57Z</time>
      </trkpt>
      <trkpt lat="42.836823" lon="-1.5865815">
        <time>2022-07-03T13:42:58Z</time>
      </trkpt>
      <trkpt lat="42.836765" lon="-1.5865638">
        <time>2022-07-03T13:42:59Z</time>
      </trkpt>
      <trkpt lat="42.836708" lon="-1.5865462">
        <time>2022-07-03T13:43:00Z</time>
      </trkpt>
      <trkpt lat="42.83665" lon="-1.5865295">
        <time>2022-07-03T13:43:01Z</time>
      </trkpt>
      <trkpt lat="42.83659" lon="-1.5865155">
        <time>2022-07-03T13:43:02Z</time>
      </trkpt>
      <trkpt lat="42.836533" lon="-1.5865024">
        <time>2022-07-03T13:43:03Z</time>
      </trkpt>
      <trkpt lat="42.83647" lon="-1.5864892">
        <time>2022-07-03T13:43:04Z</time>
      </trkpt>
      <trkpt lat="42.83641" lon="-1.5864775">
        <time>2022-07-03T13:43:05Z</time>
      </trkpt>
      <trkpt lat="42.836353" lon="-1.5864668">
        <time>2022-07-03T13:43:06Z</time>
      </trkpt>
      <trkpt lat="42.836292" lon="-1.5864578">
        <time>2022-07-03T13:43:07Z</time>
      </trkpt>
      <trkpt lat="42.836235" lon="-1.5864491">
        <time>2022-07-03T13:43:08Z</time>
      </trkpt>
      <trkpt lat="42.836178" lon="-1.5864419">
        <time>2022-07-03T13:43:09Z</time>
      </trkpt>
      <trkpt lat="42.836117" lon="-1.5864389">
        <time>2022-07-03T13:43:10Z</time>
      </trkpt>
      <trkpt lat="42.83606" lon="-1.5864402">
        <time>2022-07-03T13:43:11Z</time>
      </trkpt>
      <trkpt lat="42.836" lon="-1.5864478">
        <time>2022-07-03T13:43:12Z</time>
      </trkpt>
      <trkpt lat="42.83594" lon="-1.5864592">
        <time>2022-07-03T13:43:13Z</time>
      </trkpt>
      <trkpt lat="42.835884" lon="-1.5864725">
        <time>2022-07-03T13:43:14Z</time>
      </trkpt>
      <trkpt lat="42.83583" lon="-1.5864872">
        <time>2022-07-03T13:43:15Z</time>
      </trkpt>
      <trkpt lat="42.83574" lon="-1.5865191">
        <time>2022-07-03T13:43:17Z</time>
      </trkpt>
      <trkpt lat="42.835667" lon="-1.5865438">
        <time>2022-07-03T13:43:19Z</time>
      </trkpt>
      <trkpt lat="42.835625" lon="-1.5865581">
        <time>2022-07-03T13:43:21Z</time>
      </trkpt>
      <trkpt lat="42.835575" lon="-1.5864902">
        <time>2022-07-03T13:44:52Z</time>
      </trkpt>
      <trkpt lat="42.835575" lon="-1.5863682">
        <time>2022-07-03T13:44:55Z</time>
      </trkpt>
      <trkpt lat="42.835583" lon="-1.5862801">
        <time>2022-07-03T13:44:57Z</time>
      </trkpt>
      <trkpt lat="42.83561" lon="-1.5862029">
        <time>2022-07-03T13:44:59Z</time>
      </trkpt>
      <trkpt lat="42.835655" lon="-1.5861342">
        <time>2022-07-03T13:45:01Z</time>
      </trkpt>
      <trkpt lat="42.835705" lon="-1.5860659">
        <time>2022-07-03T13:45:03Z</time>
      </trkpt>
      <trkpt lat="42.83574" lon="-1.5859848">
        <time>2022-07-03T13:45:05Z</time>
      </trkpt>
      <trkpt lat="42.835762" lon="-1.5858968">
        <time>2022-07-03T13:45:07Z</time>
      </trkpt>
      <trkpt lat="42.835777" lon="-1.5858132">
        <time>2022-07-03T13:45:09Z</time>
      </trkpt>
      <trkpt lat="42.83579" lon="-1.5857308">
        <time>2022-07-03T13:45:11Z</time>
      </trkpt>
      <trkpt lat="42.835796" lon="-1.5856522">
        <time>2022-07-03T13:45:13Z</time>
      </trkpt>
      <trkpt lat="42.835808" lon="-1.5855448">
        <time>2022-07-03T13:45:16Z</time>
      </trkpt>
      <trkpt lat="42.835815" lon="-1.5854692">
        <time>2022-07-03T13:45:18Z</time>
      </trkpt>
      <trkpt lat="42.835823" lon="-1.5853935">
        <time>2022-07-03T13:45:20Z</time>
      </trkpt>
      <trkpt lat="42.83583" lon="-1.5853152">
        <time>2022-07-03T13:45:22Z</time>
      </trkpt>
      <trkpt lat="42.83584" lon="-1.5852369">
        <time>2022-07-03T13:45:24Z</time>
      </trkpt>
      <trkpt lat="42.835842" lon="-1.5851609">
        <time>2022-07-03T13:45:26Z</time>
      </trkpt>
      <trkpt lat="42.83585" lon="-1.5850866">
        <time>2022-07-03T13:45:28Z</time>
      </trkpt>
      <trkpt lat="42.835854" lon="-1.5850122">
        <time>2022-07-03T13:45:30Z</time>
      </trkpt>
      <trkpt lat="42.835857" lon="-1.5849389">
        <time>2022-07-03T13:45:32Z</time>
      </trkpt>
      <trkpt lat="42.835865" lon="-1.5848649">
        <time>2022-07-03T13:45:34Z</time>
      </trkpt>
      <trkpt lat="42.835873" lon="-1.5847915">
        <time>2022-07-03T13:45:36Z</time>
      </trkpt>
      <trkpt lat="42.835884" lon="-1.5846852">
        <time>2022-07-03T13:45:39Z</time>
      </trkpt>
      <trkpt lat="42.83589" lon="-1.5846126">
        <time>2022-07-03T13:45:41Z</time>
      </trkpt>
      <trkpt lat="42.835896" lon="-1.5845386">
        <time>2022-07-03T13:45:43Z</time>
      </trkpt>
      <trkpt lat="42.835896" lon="-1.5844659">
        <time>2022-07-03T13:45:45Z</time>
      </trkpt>
      <trkpt lat="42.835884" lon="-1.5843959">
        <time>2022-07-03T13:45:47Z</time>
      </trkpt>
      <trkpt lat="42.835857" lon="-1.5843326">
        <time>2022-07-03T13:45:49Z</time>
      </trkpt>
      <trkpt lat="42.83582" lon="-1.5842682">
        <time>2022-07-03T13:45:51Z</time>
      </trkpt>
      <trkpt lat="42.835777" lon="-1.5842003">
        <time>2022-07-03T13:45:53Z</time>
      </trkpt>
      <trkpt lat="42.835735" lon="-1.5841329">
        <time>2022-07-03T13:45:55Z</time>
      </trkpt>
      <trkpt lat="42.83569" lon="-1.5840646">
        <time>2022-07-03T13:45:57Z</time>
      </trkpt>
      <trkpt lat="42.835644" lon="-1.5839893">
        <time>2022-07-03T13:45:59Z</time>
      </trkpt>
      <trkpt lat="42.835594" lon="-1.583913">
        <time>2022-07-03T13:46:01Z</time>
      </trkpt>
      <trkpt lat="42.835545" lon="-1.5838326">
        <time>2022-07-03T13:46:03Z</time>
      </trkpt>
      <trkpt lat="42.835495" lon="-1.5837499">
        <time>2022-07-03T13:46:05Z</time>
      </trkpt>
      <trkpt lat="42.83544" lon="-1.5836676">
        <time>2022-07-03T13:46:07Z</time>
      </trkpt>
      <trkpt lat="42.83538" lon="-1.5835845">
        <time>2022-07-03T13:46:09Z</time>
      </trkpt>
      <trkpt lat="42.83532" lon="-1.5835023">
        <time>2022-07-03T13:46:11Z</time>
      </trkpt>
      <trkpt lat="42.835255" lon="-1.5834156">
        <time>2022-07-03T13:46:13Z</time>
      </trkpt>
      <trkpt lat="42.835197" lon="-1.5833306">
        <time>2022-07-03T13:46:15Z</time>
      </trkpt>
      <trkpt lat="42.835125" lon="-1.5832456">
        <time>2022-07-03T13:46:17Z</time>
      </trkpt>
      <trkpt lat="42.835052" lon="-1.5831629">
        <time>2022-07-03T13:46:19Z</time>
      </trkpt>
      <trkpt lat="42.835" lon="-1.5830733">
        <time>2022-07-03T13:46:21Z</time>
      </trkpt>
      <trkpt lat="42.834972" lon="-1.582973">
        <time>2022-07-03T13:46:23Z</time>
      </trkpt>
      <trkpt lat="42.834972" lon="-1.5828747">
        <time>2022-07-03T13:46:25Z</time>
      </trkpt>
      <trkpt lat="42.83498" lon="-1.58278">
        <time>2022-07-03T13:46:27Z</time>
      </trkpt>
      <trkpt lat="42.834995" lon="-1.582687">
        <time>2022-07-03T13:46:29Z</time>
      </trkpt>
      <trkpt lat="42.835014" lon="-1.5825976">
        <time>2022-07-03T13:46:31Z</time>
      </trkpt>
      <trkpt lat="42.835033" lon="-1.582511">
        <time>2022-07-03T13:46:33Z</time>
      </trkpt>
      <trkpt lat="42.835052" lon="-1.582426">
        <time>2022-07-03T13:46:35Z</time>
      </trkpt>
      <trkpt lat="42.83507" lon="-1.5823423">
        <time>2022-07-03T13:46:37Z</time>
      </trkpt>
      <trkpt lat="42.835083" lon="-1.5822626">
        <time>2022-07-03T13:46:39Z</time>
      </trkpt>
      <trkpt lat="42.8351" lon="-1.5821773">
        <time>2022-07-03T13:46:41Z</time>
      </trkpt>
      <trkpt lat="42.835114" lon="-1.582093">
        <time>2022-07-03T13:46:43Z</time>
      </trkpt>
      <trkpt lat="42.83512" lon="-1.5820093">
        <time>2022-07-03T13:46:45Z</time>
      </trkpt>
      <trkpt lat="42.83513" lon="-1.5819247">
        <time>2022-07-03T13:46:47Z</time>
      </trkpt>
      <trkpt lat="42.83514" lon="-1.5818421">
        <time>2022-07-03T13:46:49Z</time>
      </trkpt>
      <trkpt lat="42.83515" lon="-1.581763">
        <time>2022-07-03T13:46:51Z</time>
      </trkpt>
      <trkpt lat="42.835163" lon="-1.5816851">
        <time>2022-07-03T13:46:53Z</time>
      </trkpt>
      <trkpt lat="42.835163" lon="-1.5816094">
        <time>2022-07-03T13:46:55Z</time>
      </trkpt>
      <trkpt lat="42.83516" lon="-1.5815333">
        <time>2022-07-03T13:46:57Z</time>
      </trkpt>
      <trkpt lat="42.835155" lon="-1.5814574">
        <time>2022-07-03T13:46:59Z</time>
      </trkpt>
      <trkpt lat="42.83515" lon="-1.58138">
        <time>2022-07-03T13:47:01Z</time>
      </trkpt>
      <trkpt lat="42.835148" lon="-1.5813067">
        <time>2022-07-03T13:47:03Z</time>
      </trkpt>
      <trkpt lat="42.835144" lon="-1.581241">
        <time>2022-07-03T13:47:05Z</time>
      </trkpt>
      <trkpt lat="42.83513" lon="-1.5811524">
        <time>2022-07-03T13:47:08Z</time>
      </trkpt>
      <trkpt lat="42.83512" lon="-1.5810757">
        <time>2022-07-03T13:47:11Z</time>
      </trkpt>
      <trkpt lat="42.83511" lon="-1.5809954">
        <time>2022-07-03T13:47:14Z</time>
      </trkpt>
      <trkpt lat="42.835094" lon="-1.580917">
        <time>2022-07-03T13:47:17Z</time>
      </trkpt>
      <trkpt lat="42.835075" lon="-1.5808364">
        <time>2022-07-03T13:47:20Z</time>
      </trkpt>
      <trkpt lat="42.835056" lon="-1.5807531">
        <time>2022-07-03T13:47:23Z</time>
      </trkpt>
      <trkpt lat="42.835033" lon="-1.5806651">
        <time>2022-07-03T13:47:26Z</time>
      </trkpt>
      <trkpt lat="42.83502" lon="-1.5806057">
        <time>2022-07-03T13:47:28Z</time>
      </trkpt>
      <trkpt lat="42.83499" lon="-1.5805144">
        <time>2022-07-03T13:47:31Z</time>
      </trkpt>
      <trkpt lat="42.834972" lon="-1.5804564">
        <time>2022-07-03T13:47:33Z</time>
      </trkpt>
      <trkpt lat="42.83494" lon="-1.5803645">
        <time>2022-07-03T13:47:36Z</time>
      </trkpt>
      <trkpt lat="42.83491" lon="-1.5802745">
        <time>2022-07-03T13:47:39Z</time>
      </trkpt>
      <trkpt lat="42.83488" lon="-1.5801821">
        <time>2022-07-03T13:47:42Z</time>
      </trkpt>
      <trkpt lat="42.83486" lon="-1.5801197">
        <time>2022-07-03T13:47:44Z</time>
      </trkpt>
      <trkpt lat="42.834827" lon="-1.580026">
        <time>2022-07-03T13:47:47Z</time>
      </trkpt>
      <trkpt lat="42.834805" lon="-1.5799638">
        <time>2022-07-03T13:47:49Z</time>
      </trkpt>
      <trkpt lat="42.834774" lon="-1.5799048">
        <time>2022-07-03T13:47:51Z</time>
      </trkpt>
      <trkpt lat="42.834736" lon="-1.5798211">
        <time>2022-07-03T13:47:54Z</time>
      </trkpt>
      <trkpt lat="42.8347" lon="-1.5797328">
        <time>2022-07-03T13:47:57Z</time>
      </trkpt>
      <trkpt lat="42.83466" lon="-1.5796461">
        <time>2022-07-03T13:48:00Z</time>
      </trkpt>
      <trkpt lat="42.83463" lon="-1.5795808">
        <time>2022-07-03T13:48:02Z</time>
      </trkpt>
      <trkpt lat="42.834602" lon="-1.5795164">
        <time>2022-07-03T13:48:04Z</time>
      </trkpt>
      <trkpt lat="42.834576" lon="-1.5794511">
        <time>2022-07-03T13:48:06Z</time>
      </trkpt>
      <trkpt lat="42.834545" lon="-1.5793848">
        <time>2022-07-03T13:48:08Z</time>
      </trkpt>
      <trkpt lat="42.83452" lon="-1.5793184">
        <time>2022-07-03T13:48:10Z</time>
      </trkpt>
      <trkpt lat="42.83449" lon="-1.5792547">
        <time>2022-07-03T13:48:12Z</time>
      </trkpt>
      <trkpt lat="42.834465" lon="-1.5791942">
        <time>2022-07-03T13:48:14Z</time>
      </trkpt>
      <trkpt lat="42.83444" lon="-1.5791315">
        <time>2022-07-03T13:48:16Z</time>
      </trkpt>
      <trkpt lat="42.834408" lon="-1.5790658">
        <time>2022-07-03T13:48:18Z</time>
      </trkpt>
      <trkpt lat="42.834373" lon="-1.5789925">
        <time>2022-07-03T13:48:20Z</time>
      </trkpt>
      <trkpt lat="42.834343" lon="-1.5789145">
        <time>2022-07-03T13:48:22Z</time>
      </trkpt>
      <trkpt lat="42.834312" lon="-1.5788355">
        <time>2022-07-03T13:48:24Z</time>
      </trkpt>
      <trkpt lat="42.83428" lon="-1.5787575">
        <time>2022-07-03T13:48:26Z</time>
      </trkpt>
      <trkpt lat="42.834244" lon="-1.5786794">
        <time>2022-07-03T13:48:28Z</time>
      </trkpt>
      <trkpt lat="42.83421" lon="-1.5786002">
        <time>2022-07-03T13:48:30Z</time>
      </trkpt>
      <trkpt lat="42.834175" lon="-1.5785202">
        <time>2022-07-03T13:48:32Z</time>
      </trkpt>
      <trkpt lat="42.834137" lon="-1.5784378">
        <time>2022-07-03T13:48:34Z</time>
      </trkpt>
      <trkpt lat="42.834103" lon="-1.5783615">
        <time>2022-07-03T13:48:36Z</time>
      </trkpt>
      <trkpt lat="42.83406" lon="-1.5782821">
        <time>2022-07-03T13:48:38Z</time>
      </trkpt>
      <trkpt lat="42.83403" lon="-1.5781986">
        <time>2022-07-03T13:48:40Z</time>
      </trkpt>
      <trkpt lat="42.833996" lon="-1.5781162">
        <time>2022-07-03T13:48:42Z</time>
      </trkpt>
      <trkpt lat="42.833965" lon="-1.5780338">
        <time>2022-07-03T13:48:44Z</time>
      </trkpt>
      <trkpt lat="42.83393" lon="-1.5779555">
        <time>2022-07-03T13:48:46Z</time>
      </trkpt>
      <trkpt lat="42.833897" lon="-1.5778738">
        <time>2022-07-03T13:48:48Z</time>
      </trkpt>
      <trkpt lat="42.833866" lon="-1.5777966">
        <time>2022-07-03T13:48:50Z</time>
      </trkpt>
      <trkpt lat="42.833828" lon="-1.5777172">
        <time>2022-07-03T13:48:52Z</time>
      </trkpt>
      <trkpt lat="42.833794" lon="-1.5776381">
        <time>2022-07-03T13:48:54Z</time>
      </trkpt>
      <trkpt lat="42.833755" lon="-1.5775579">
        <time>2022-07-03T13:48:56Z</time>
      </trkpt>
      <trkpt lat="42.833717" lon="-1.5774746">
        <time>2022-07-03T13:48:58Z</time>
      </trkpt>
      <trkpt lat="42.833683" lon="-1.5773965">
        <time>2022-07-03T13:49:00Z</time>
      </trkpt>
      <trkpt lat="42.833645" lon="-1.5773119">
        <time>2022-07-03T13:49:02Z</time>
      </trkpt>
      <trkpt lat="42.833607" lon="-1.5772302">
        <time>2022-07-03T13:49:04Z</time>
      </trkpt>
      <trkpt lat="42.833572" lon="-1.5771526">
        <time>2022-07-03T13:49:06Z</time>
      </trkpt>
      <trkpt lat="42.833534" lon="-1.5770723">
        <time>2022-07-03T13:49:08Z</time>
      </trkpt>
      <trkpt lat="42.8335" lon="-1.5769953">
        <time>2022-07-03T13:49:10Z</time>
      </trkpt>
      <trkpt lat="42.833466" lon="-1.5769092">
        <time>2022-07-03T13:49:12Z</time>
      </trkpt>
      <trkpt lat="42.833427" lon="-1.5768269">
        <time>2022-07-03T13:49:14Z</time>
      </trkpt>
      <trkpt lat="42.833393" lon="-1.5767453">
        <time>2022-07-03T13:49:16Z</time>
      </trkpt>
      <trkpt lat="42.833355" lon="-1.5766672">
        <time>2022-07-03T13:49:18Z</time>
      </trkpt>
      <trkpt lat="42.83332" lon="-1.5765929">
        <time>2022-07-03T13:49:20Z</time>
      </trkpt>
      <trkpt lat="42.833282" lon="-1.5765116">
        <time>2022-07-03T13:49:22Z</time>
      </trkpt>
      <trkpt lat="42.833244" lon="-1.5764335">
        <time>2022-07-03T13:49:24Z</time>
      </trkpt>
      <trkpt lat="42.833206" lon="-1.5763569">
        <time>2022-07-03T13:49:26Z</time>
      </trkpt>
      <trkpt lat="42.833164" lon="-1.5762713">
        <time>2022-07-03T13:49:28Z</time>
      </trkpt>
      <trkpt lat="42.83311" lon="-1.5761462">
        <time>2022-07-03T13:49:31Z</time>
      </trkpt>
      <trkpt lat="42.833073" lon="-1.5760583">
        <time>2022-07-03T13:49:33Z</time>
      </trkpt>
      <trkpt lat="42.833035" lon="-1.5759716">
        <time>2022-07-03T13:49:35Z</time>
      </trkpt>
      <trkpt lat="42.833" lon="-1.5758853">
        <time>2022-07-03T13:49:37Z</time>
      </trkpt>
      <trkpt lat="42.832962" lon="-1.5757973">
        <time>2022-07-03T13:49:39Z</time>
      </trkpt>
      <trkpt lat="42.832924" lon="-1.5757123">
        <time>2022-07-03T13:49:41Z</time>
      </trkpt>
      <trkpt lat="42.832882" lon="-1.5756242">
        <time>2022-07-03T13:49:43Z</time>
      </trkpt>
      <trkpt lat="42.832844" lon="-1.575534">
        <time>2022-07-03T13:49:45Z</time>
      </trkpt>
      <trkpt lat="42.832806" lon="-1.5754449">
        <time>2022-07-03T13:49:47Z</time>
      </trkpt>
      <trkpt lat="42.83277" lon="-1.5753529">
        <time>2022-07-03T13:49:49Z</time>
      </trkpt>
      <trkpt lat="42.832733" lon="-1.5752616">
        <time>2022-07-03T13:49:51Z</time>
      </trkpt>
      <trkpt lat="42.83269" lon="-1.5751696">
        <time>2022-07-03T13:49:53Z</time>
      </trkpt>
      <trkpt lat="42.83265" lon="-1.5750749">
        <time>2022-07-03T13:49:55Z</time>
      </trkpt>
      <trkpt lat="42.832607" lon="-1.5749823">
        <time>2022-07-03T13:49:57Z</time>
      </trkpt>
      <trkpt lat="42.83257" lon="-1.5748953">
        <time>2022-07-03T13:49:59Z</time>
      </trkpt>
      <trkpt lat="42.832527" lon="-1.574801">
        <time>2022-07-03T13:50:01Z</time>
      </trkpt>
      <trkpt lat="42.83249" lon="-1.5747086">
        <time>2022-07-03T13:50:03Z</time>
      </trkpt>
      <trkpt lat="42.832447" lon="-1.574615">
        <time>2022-07-03T13:50:05Z</time>
      </trkpt>
      <trkpt lat="42.832405" lon="-1.5745213">
        <time>2022-07-03T13:50:07Z</time>
      </trkpt>
      <trkpt lat="42.832367" lon="-1.5744333">
        <time>2022-07-03T13:50:09Z</time>
      </trkpt>
      <trkpt lat="42.83233" lon="-1.5743376">
        <time>2022-07-03T13:50:11Z</time>
      </trkpt>
      <trkpt lat="42.83229" lon="-1.5742483">
        <time>2022-07-03T13:50:13Z</time>
      </trkpt>
      <trkpt lat="42.832256" lon="-1.574163">
        <time>2022-07-03T13:50:15Z</time>
      </trkpt>
      <trkpt lat="42.83221" lon="-1.5740744">
        <time>2022-07-03T13:50:17Z</time>
      </trkpt>
      <trkpt lat="42.83217" lon="-1.5739967">
        <time>2022-07-03T13:50:19Z</time>
      </trkpt>
      <trkpt lat="42.83213" lon="-1.5739143">
        <time>2022-07-03T13:50:21Z</time>
      </trkpt>
      <trkpt lat="42.832096" lon="-1.5738343">
        <time>2022-07-03T13:50:23Z</time>
      </trkpt>
      <trkpt lat="42.832058" lon="-1.573751">
        <time>2022-07-03T13:50:25Z</time>
      </trkpt>
      <trkpt lat="42.832024" lon="-1.5736647">
        <time>2022-07-03T13:50:27Z</time>
      </trkpt>
      <trkpt lat="42.831985" lon="-1.5735823">
        <time>2022-07-03T13:50:29Z</time>
      </trkpt>
      <trkpt lat="42.831932" lon="-1.5734594">
        <time>2022-07-03T13:50:32Z</time>
      </trkpt>
      <trkpt lat="42.831898" lon="-1.5733767">
        <time>2022-07-03T13:50:34Z</time>
      </trkpt>
      <trkpt lat="42.83186" lon="-1.5732944">
        <time>2022-07-03T13:50:36Z</time>
      </trkpt>
      <trkpt lat="42.831825" lon="-1.5732157">
        <time>2022-07-03T13:50:38Z</time>
      </trkpt>
      <trkpt lat="42.831787" lon="-1.573135">
        <time>2022-07-03T13:50:40Z</time>
      </trkpt>
      <trkpt lat="42.831753" lon="-1.5730557">
        <time>2022-07-03T13:50:42Z</time>
      </trkpt>
      <trkpt lat="42.83171" lon="-1.5729784">
        <time>2022-07-03T13:50:44Z</time>
      </trkpt>
      <trkpt lat="42.831676" lon="-1.5729014">
        <time>2022-07-03T13:50:46Z</time>
      </trkpt>
      <trkpt lat="42.83164" lon="-1.5728221">
        <time>2022-07-03T13:50:48Z</time>
      </trkpt>
      <trkpt lat="42.831604" lon="-1.572739">
        <time>2022-07-03T13:50:50Z</time>
      </trkpt>
      <trkpt lat="42.831566" lon="-1.5726564">
        <time>2022-07-03T13:50:52Z</time>
      </trkpt>
      <trkpt lat="42.831524" lon="-1.5725801">
        <time>2022-07-03T13:50:54Z</time>
      </trkpt>
      <trkpt lat="42.83148" lon="-1.5725161">
        <time>2022-07-03T13:50:56Z</time>
      </trkpt>
      <trkpt lat="42.83142" lon="-1.5724534">
        <time>2022-07-03T13:50:58Z</time>
      </trkpt>
      <trkpt lat="42.831364" lon="-1.5723777">
        <time>2022-07-03T13:51:00Z</time>
      </trkpt>
      <trkpt lat="42.83131" lon="-1.5722927">
        <time>2022-07-03T13:51:02Z</time>
      </trkpt>
      <trkpt lat="42.83122" lon="-1.5721537">
        <time>2022-07-03T13:51:07Z</time>
      </trkpt>
      <trkpt lat="42.83118" lon="-1.5721124">
        <time>2022-07-03T13:51:08Z</time>
      </trkpt>
      <trkpt lat="42.83111" lon="-1.5720698">
        <time>2022-07-03T13:51:10Z</time>
      </trkpt>
      <trkpt lat="42.831024" lon="-1.572072">
        <time>2022-07-03T13:51:12Z</time>
      </trkpt>
      <trkpt lat="42.83094" lon="-1.5721028">
        <time>2022-07-03T13:51:14Z</time>
      </trkpt>
      <trkpt lat="42.830845" lon="-1.572149">
        <time>2022-07-03T13:51:16Z</time>
      </trkpt>
      <trkpt lat="42.830795" lon="-1.5721765">
        <time>2022-07-03T13:51:17Z</time>
      </trkpt>
      <trkpt lat="42.830746" lon="-1.5722075">
        <time>2022-07-03T13:51:18Z</time>
      </trkpt>
      <trkpt lat="42.830696" lon="-1.5722398">
        <time>2022-07-03T13:51:19Z</time>
      </trkpt>
      <trkpt lat="42.830647" lon="-1.5722708">
        <time>2022-07-03T13:51:20Z</time>
      </trkpt>
      <trkpt lat="42.830597" lon="-1.5723014">
        <time>2022-07-03T13:51:21Z</time>
      </trkpt>
      <trkpt lat="42.830547" lon="-1.5723324">
        <time>2022-07-03T13:51:22Z</time>
      </trkpt>
      <trkpt lat="42.830494" lon="-1.5723604">
        <time>2022-07-03T13:51:23Z</time>
      </trkpt>
      <trkpt lat="42.830444" lon="-1.5723844">
        <time>2022-07-03T13:51:24Z</time>
      </trkpt>
      <trkpt lat="42.83039" lon="-1.5724051">
        <time>2022-07-03T13:51:25Z</time>
      </trkpt>
      <trkpt lat="42.83034" lon="-1.5724224">
        <time>2022-07-03T13:51:26Z</time>
      </trkpt>
      <trkpt lat="42.830296" lon="-1.5724367">
        <time>2022-07-03T13:51:27Z</time>
      </trkpt>
      <trkpt lat="42.830204" lon="-1.572459">
        <time>2022-07-03T13:51:29Z</time>
      </trkpt>
      <trkpt lat="42.83012" lon="-1.572482">
        <time>2022-07-03T13:51:31Z</time>
      </trkpt>
      <trkpt lat="42.830017" lon="-1.5725363">
        <time>2022-07-03T13:51:34Z</time>
      </trkpt>
      <trkpt lat="42.829964" lon="-1.5725827">
        <time>2022-07-03T13:51:36Z</time>
      </trkpt>
      <trkpt lat="42.82993" lon="-1.5726377">
        <time>2022-07-03T13:51:38Z</time>
      </trkpt>
      <trkpt lat="42.829906" lon="-1.5726993">
        <time>2022-07-03T13:51:40Z</time>
      </trkpt>
      <trkpt lat="42.82989" lon="-1.5727637">
        <time>2022-07-03T13:51:42Z</time>
      </trkpt>
      <trkpt lat="42.82984" lon="-1.5728474">
        <time>2022-07-03T13:51:45Z</time>
      </trkpt>
      <trkpt lat="42.829796" lon="-1.5728906">
        <time>2022-07-03T13:51:47Z</time>
      </trkpt>
      <trkpt lat="42.829746" lon="-1.5729274">
        <time>2022-07-03T13:51:49Z</time>
      </trkpt>
      <trkpt lat="42.829693" lon="-1.5729604">
        <time>2022-07-03T13:51:51Z</time>
      </trkpt>
      <trkpt lat="42.82964" lon="-1.572996">
        <time>2022-07-03T13:51:53Z</time>
      </trkpt>
      <trkpt lat="42.829582" lon="-1.573032">
        <time>2022-07-03T13:51:55Z</time>
      </trkpt>
      <trkpt lat="42.829525" lon="-1.573069">
        <time>2022-07-03T13:51:57Z</time>
      </trkpt>
      <trkpt lat="42.82947" lon="-1.5731037">
        <time>2022-07-03T13:51:59Z</time>
      </trkpt>
      <trkpt lat="42.829414" lon="-1.5731387">
        <time>2022-07-03T13:52:01Z</time>
      </trkpt>
      <trkpt lat="42.829357" lon="-1.573169">
        <time>2022-07-03T13:52:03Z</time>
      </trkpt>
      <trkpt lat="42.829308" lon="-1.573202">
        <time>2022-07-03T13:52:05Z</time>
      </trkpt>
      <trkpt lat="42.829254" lon="-1.5732356">
        <time>2022-07-03T13:52:07Z</time>
      </trkpt>
      <trkpt lat="42.82921" lon="-1.5732694">
        <time>2022-07-03T13:52:09Z</time>
      </trkpt>
      <trkpt lat="42.82916" lon="-1.5733023">
        <time>2022-07-03T13:52:11Z</time>
      </trkpt>
      <trkpt lat="42.829086" lon="-1.573349">
        <time>2022-07-03T13:52:14Z</time>
      </trkpt>
      <trkpt lat="42.829014" lon="-1.573395">
        <time>2022-07-03T13:52:17Z</time>
      </trkpt>
      <trkpt lat="42.82897" lon="-1.5734262">
        <time>2022-07-03T13:52:19Z</time>
      </trkpt>
      <trkpt lat="42.828926" lon="-1.5734606">
        <time>2022-07-03T13:52:21Z</time>
      </trkpt>
      <trkpt lat="42.82888" lon="-1.5734993">
        <time>2022-07-03T13:52:23Z</time>
      </trkpt>
      <trkpt lat="42.82882" lon="-1.57356">
        <time>2022-07-03T13:52:26Z</time>
      </trkpt>
      <trkpt lat="42.828777" lon="-1.5736042">
        <time>2022-07-03T13:52:28Z</time>
      </trkpt>
      <trkpt lat="42.828743" lon="-1.5736593">
        <time>2022-07-03T13:52:30Z</time>
      </trkpt>
      <trkpt lat="42.828712" lon="-1.5737222">
        <time>2022-07-03T13:52:32Z</time>
      </trkpt>
      <trkpt lat="42.828682" lon="-1.573782">
        <time>2022-07-03T13:52:34Z</time>
      </trkpt>
      <trkpt lat="42.82864" lon="-1.5738343">
        <time>2022-07-03T13:52:36Z</time>
      </trkpt>
      <trkpt lat="42.828587" lon="-1.5738657">
        <time>2022-07-03T13:52:38Z</time>
      </trkpt>
      <trkpt lat="42.828503" lon="-1.573854">
        <time>2022-07-03T13:52:41Z</time>
      </trkpt>
      <trkpt lat="42.828453" lon="-1.5738063">
        <time>2022-07-03T13:52:43Z</time>
      </trkpt>
      <trkpt lat="42.82842" lon="-1.5737269">
        <time>2022-07-03T13:52:45Z</time>
      </trkpt>
      <trkpt lat="42.8284" lon="-1.573617">
        <time>2022-07-03T13:52:47Z</time>
      </trkpt>
      <trkpt lat="42.82839" lon="-1.5734936">
        <time>2022-07-03T13:52:49Z</time>
      </trkpt>
      <trkpt lat="42.82838" lon="-1.5733536">
        <time>2022-07-03T13:52:51Z</time>
      </trkpt>
      <trkpt lat="42.828373" lon="-1.5732826">
        <time>2022-07-03T13:52:52Z</time>
      </trkpt>
      <trkpt lat="42.828358" lon="-1.5731393">
        <time>2022-07-03T13:52:54Z</time>
      </trkpt>
      <trkpt lat="42.82835" lon="-1.573066">
        <time>2022-07-03T13:52:55Z</time>
      </trkpt>
      <trkpt lat="42.82834" lon="-1.5729936">
        <time>2022-07-03T13:52:56Z</time>
      </trkpt>
      <trkpt lat="42.82833" lon="-1.5729276">
        <time>2022-07-03T13:52:57Z</time>
      </trkpt>
      <trkpt lat="42.82832" lon="-1.5728617">
        <time>2022-07-03T13:52:58Z</time>
      </trkpt>
      <trkpt lat="42.828297" lon="-1.5727243">
        <time>2022-07-03T13:53:00Z</time>
      </trkpt>
      <trkpt lat="42.82828" lon="-1.5726613">
        <time>2022-07-03T13:53:01Z</time>
      </trkpt>
      <trkpt lat="42.82825" lon="-1.5725313">
        <time>2022-07-03T13:53:03Z</time>
      </trkpt>
      <trkpt lat="42.82822" lon="-1.5724009">
        <time>2022-07-03T13:53:05Z</time>
      </trkpt>
      <trkpt lat="42.8282" lon="-1.5723354">
        <time>2022-07-03T13:53:06Z</time>
      </trkpt>
      <trkpt lat="42.828167" lon="-1.5721997">
        <time>2022-07-03T13:53:08Z</time>
      </trkpt>
      <trkpt lat="42.828148" lon="-1.57213">
        <time>2022-07-03T13:53:09Z</time>
      </trkpt>
      <trkpt lat="42.828133" lon="-1.5720587">
        <time>2022-07-03T13:53:10Z</time>
      </trkpt>
      <trkpt lat="42.828114" lon="-1.5719863">
        <time>2022-07-03T13:53:11Z</time>
      </trkpt>
      <trkpt lat="42.8281" lon="-1.5719123">
        <time>2022-07-03T13:53:12Z</time>
      </trkpt>
      <trkpt lat="42.82808" lon="-1.5718373">
        <time>2022-07-03T13:53:13Z</time>
      </trkpt>
      <trkpt lat="42.828064" lon="-1.5717617">
        <time>2022-07-03T13:53:14Z</time>
      </trkpt>
      <trkpt lat="42.828045" lon="-1.5716844">
        <time>2022-07-03T13:53:15Z</time>
      </trkpt>
      <trkpt lat="42.828026" lon="-1.571607">
        <time>2022-07-03T13:53:16Z</time>
      </trkpt>
      <trkpt lat="42.828007" lon="-1.5715307">
        <time>2022-07-03T13:53:17Z</time>
      </trkpt>
      <trkpt lat="42.827988" lon="-1.5714537">
        <time>2022-07-03T13:53:18Z</time>
      </trkpt>
      <trkpt lat="42.827972" lon="-1.571375">
        <time>2022-07-03T13:53:19Z</time>
      </trkpt>
      <trkpt lat="42.827953" lon="-1.5712957">
        <time>2022-07-03T13:53:20Z</time>
      </trkpt>
      <trkpt lat="42.827934" lon="-1.5712147">
        <time>2022-07-03T13:53:21Z</time>
      </trkpt>
      <trkpt lat="42.827915" lon="-1.5711327">
        <time>2022-07-03T13:53:22Z</time>
      </trkpt>
      <trkpt lat="42.827892" lon="-1.57105">
        <time>2022-07-03T13:53:23Z</time>
      </trkpt>
      <trkpt lat="42.827873" lon="-1.570966">
        <time>2022-07-03T13:53:24Z</time>
      </trkpt>
      <trkpt lat="42.827854" lon="-1.5708807">
        <time>2022-07-03T13:53:25Z</time>
      </trkpt>
      <trkpt lat="42.827835" lon="-1.570795">
        <time>2022-07-03T13:53:26Z</time>
      </trkpt>
      <trkpt lat="42.827812" lon="-1.5707077">
        <time>2022-07-03T13:53:27Z</time>
      </trkpt>
      <trkpt lat="42.827793" lon="-1.5706204">
        <time>2022-07-03T13:53:28Z</time>
      </trkpt>
      <trkpt lat="42.82777" lon="-1.570533">
        <time>2022-07-03T13:53:29Z</time>
      </trkpt>
      <trkpt lat="42.82775" lon="-1.5704464">
        <time>2022-07-03T13:53:30Z</time>
      </trkpt>
      <trkpt lat="42.827732" lon="-1.5703593">
        <time>2022-07-03T13:53:31Z</time>
      </trkpt>
      <trkpt lat="42.827713" lon="-1.5702724">
        <time>2022-07-03T13:53:32Z</time>
      </trkpt>
      <trkpt lat="42.827694" lon="-1.5701867">
        <time>2022-07-03T13:53:33Z</time>
      </trkpt>
      <trkpt lat="42.827675" lon="-1.570101">
        <time>2022-07-03T13:53:34Z</time>
      </trkpt>
      <trkpt lat="42.82766" lon="-1.5700171">
        <time>2022-07-03T13:53:35Z</time>
      </trkpt>
      <trkpt lat="42.82764" lon="-1.569933">
        <time>2022-07-03T13:53:36Z</time>
      </trkpt>
      <trkpt lat="42.827625" lon="-1.5698504">
        <time>2022-07-03T13:53:37Z</time>
      </trkpt>
      <trkpt lat="42.827602" lon="-1.569769">
        <time>2022-07-03T13:53:38Z</time>
      </trkpt>
      <trkpt lat="42.827564" lon="-1.5696107">
        <time>2022-07-03T13:53:40Z</time>
      </trkpt>
      <trkpt lat="42.827545" lon="-1.5695314">
        <time>2022-07-03T13:53:41Z</time>
      </trkpt>
      <trkpt lat="42.82753" lon="-1.5694528">
        <time>2022-07-03T13:53:42Z</time>
      </trkpt>
      <trkpt lat="42.82751" lon="-1.5693735">
        <time>2022-07-03T13:53:43Z</time>
      </trkpt>
      <trkpt lat="42.827496" lon="-1.5692945">
        <time>2022-07-03T13:53:44Z</time>
      </trkpt>
      <trkpt lat="42.827477" lon="-1.5692167">
        <time>2022-07-03T13:53:45Z</time>
      </trkpt>
      <trkpt lat="42.82746" lon="-1.5691404">
        <time>2022-07-03T13:53:46Z</time>
      </trkpt>
      <trkpt lat="42.827442" lon="-1.5690647">
        <time>2022-07-03T13:53:47Z</time>
      </trkpt>
      <trkpt lat="42.827423" lon="-1.5689898">
        <time>2022-07-03T13:53:48Z</time>
      </trkpt>
      <trkpt lat="42.827404" lon="-1.5689168">
        <time>2022-07-03T13:53:49Z</time>
      </trkpt>
      <trkpt lat="42.827385" lon="-1.5688452">
        <time>2022-07-03T13:53:50Z</time>
      </trkpt>
      <trkpt lat="42.82737" lon="-1.5687741">
        <time>2022-07-03T13:53:51Z</time>
      </trkpt>
      <trkpt lat="42.82735" lon="-1.5687048">
        <time>2022-07-03T13:53:52Z</time>
      </trkpt>
      <trkpt lat="42.827335" lon="-1.5686364">
        <time>2022-07-03T13:53:53Z</time>
      </trkpt>
      <trkpt lat="42.827316" lon="-1.5685701">
        <time>2022-07-03T13:53:54Z</time>
      </trkpt>
      <trkpt lat="42.827286" lon="-1.5684415">
        <time>2022-07-03T13:53:56Z</time>
      </trkpt>
      <trkpt lat="42.82727" lon="-1.5683798">
        <time>2022-07-03T13:53:57Z</time>
      </trkpt>
      <trkpt lat="42.827244" lon="-1.5682598">
        <time>2022-07-03T13:53:59Z</time>
      </trkpt>
      <trkpt lat="42.827217" lon="-1.5681442">
        <time>2022-07-03T13:54:01Z</time>
      </trkpt>
      <trkpt lat="42.827194" lon="-1.5680342">
        <time>2022-07-03T13:54:03Z</time>
      </trkpt>
      <trkpt lat="42.827168" lon="-1.5679282">
        <time>2022-07-03T13:54:05Z</time>
      </trkpt>
      <trkpt lat="42.827145" lon="-1.5678282">
        <time>2022-07-03T13:54:07Z</time>
      </trkpt>
      <trkpt lat="42.827126" lon="-1.5677311">
        <time>2022-07-03T13:54:09Z</time>
      </trkpt>
      <trkpt lat="42.827103" lon="-1.5676372">
        <time>2022-07-03T13:54:11Z</time>
      </trkpt>
      <trkpt lat="42.82708" lon="-1.5675485">
        <time>2022-07-03T13:54:13Z</time>
      </trkpt>
      <trkpt lat="42.82706" lon="-1.5674624">
        <time>2022-07-03T13:54:15Z</time>
      </trkpt>
      <trkpt lat="42.82704" lon="-1.5673774">
        <time>2022-07-03T13:54:17Z</time>
      </trkpt>
      <trkpt lat="42.827026" lon="-1.5672928">
        <time>2022-07-03T13:54:19Z</time>
      </trkpt>
      <trkpt lat="42.82701" lon="-1.5672148">
        <time>2022-07-03T13:54:21Z</time>
      </trkpt>
      <trkpt lat="42.826996" lon="-1.5671438">
        <time>2022-07-03T13:54:23Z</time>
      </trkpt>
      <trkpt lat="42.82698" lon="-1.5670732">
        <time>2022-07-03T13:54:25Z</time>
      </trkpt>
      <trkpt lat="42.826965" lon="-1.5670015">
        <time>2022-07-03T13:54:27Z</time>
      </trkpt>
      <trkpt lat="42.826946" lon="-1.5669295">
        <time>2022-07-03T13:54:29Z</time>
      </trkpt>
      <trkpt lat="42.82693" lon="-1.5668542">
        <time>2022-07-03T13:54:31Z</time>
      </trkpt>
      <trkpt lat="42.826912" lon="-1.5667791">
        <time>2022-07-03T13:54:33Z</time>
      </trkpt>
      <trkpt lat="42.826893" lon="-1.5667065">
        <time>2022-07-03T13:54:35Z</time>
      </trkpt>
      <trkpt lat="42.826878" lon="-1.5666349">
        <time>2022-07-03T13:54:37Z</time>
      </trkpt>
      <trkpt lat="42.826862" lon="-1.5665646">
        <time>2022-07-03T13:54:39Z</time>
      </trkpt>
      <trkpt lat="42.826836" lon="-1.5664558">
        <time>2022-07-03T13:54:42Z</time>
      </trkpt>
      <trkpt lat="42.826817" lon="-1.5663862">
        <time>2022-07-03T13:54:44Z</time>
      </trkpt>
      <trkpt lat="42.8268" lon="-1.5663152">
        <time>2022-07-03T13:54:46Z</time>
      </trkpt>
      <trkpt lat="42.826786" lon="-1.5662429">
        <time>2022-07-03T13:54:48Z</time>
      </trkpt>
      <trkpt lat="42.826763" lon="-1.5661346">
        <time>2022-07-03T13:54:51Z</time>
      </trkpt>
      <trkpt lat="42.826744" lon="-1.5660635">
        <time>2022-07-03T13:54:53Z</time>
      </trkpt>
      <trkpt lat="42.826725" lon="-1.5659922">
        <time>2022-07-03T13:54:55Z</time>
      </trkpt>
      <trkpt lat="42.82671" lon="-1.5659192">
        <time>2022-07-03T13:54:57Z</time>
      </trkpt>
      <trkpt lat="42.82669" lon="-1.5658469">
        <time>2022-07-03T13:54:59Z</time>
      </trkpt>
      <trkpt lat="42.826675" lon="-1.5657736">
        <time>2022-07-03T13:55:01Z</time>
      </trkpt>
      <trkpt lat="42.82666" lon="-1.5657009">
        <time>2022-07-03T13:55:03Z</time>
      </trkpt>
      <trkpt lat="42.82664" lon="-1.5656269">
        <time>2022-07-03T13:55:05Z</time>
      </trkpt>
      <trkpt lat="42.826626" lon="-1.5655535">
        <time>2022-07-03T13:55:07Z</time>
      </trkpt>
      <trkpt lat="42.82661" lon="-1.5654799">
        <time>2022-07-03T13:55:09Z</time>
      </trkpt>
      <trkpt lat="42.82659" lon="-1.5654116">
        <time>2022-07-03T13:55:11Z</time>
      </trkpt>
      <trkpt lat="42.826576" lon="-1.5653416">
        <time>2022-07-03T13:55:13Z</time>
      </trkpt>
      <trkpt lat="42.826557" lon="-1.5652659">
        <time>2022-07-03T13:55:15Z</time>
      </trkpt>
      <trkpt lat="42.826538" lon="-1.5651876">
        <time>2022-07-03T13:55:17Z</time>
      </trkpt>
      <trkpt lat="42.82652" lon="-1.565108">
        <time>2022-07-03T13:55:19Z</time>
      </trkpt>
      <trkpt lat="42.826504" lon="-1.5650289">
        <time>2022-07-03T13:55:21Z</time>
      </trkpt>
      <trkpt lat="42.826485" lon="-1.5649493">
        <time>2022-07-03T13:55:23Z</time>
      </trkpt>
      <trkpt lat="42.82647" lon="-1.5648686">
        <time>2022-07-03T13:55:25Z</time>
      </trkpt>
      <trkpt lat="42.826447" lon="-1.5647897">
        <time>2022-07-03T13:55:27Z</time>
      </trkpt>
      <trkpt lat="42.826427" lon="-1.564709">
        <time>2022-07-03T13:55:29Z</time>
      </trkpt>
      <trkpt lat="42.826412" lon="-1.5646266">
        <time>2022-07-03T13:55:31Z</time>
      </trkpt>
      <trkpt lat="42.826397" lon="-1.5645466">
        <time>2022-07-03T13:55:33Z</time>
      </trkpt>
      <trkpt lat="42.82638" lon="-1.5644666">
        <time>2022-07-03T13:55:35Z</time>
      </trkpt>
      <trkpt lat="42.826363" lon="-1.5643873">
        <time>2022-07-03T13:55:37Z</time>
      </trkpt>
      <trkpt lat="42.826344" lon="-1.564309">
        <time>2022-07-03T13:55:39Z</time>
      </trkpt>
      <trkpt lat="42.826324" lon="-1.5642307">
        <time>2022-07-03T13:55:41Z</time>
      </trkpt>
      <trkpt lat="42.826305" lon="-1.5641563">
        <time>2022-07-03T13:55:43Z</time>
      </trkpt>
      <trkpt lat="42.826286" lon="-1.5640796">
        <time>2022-07-03T13:55:45Z</time>
      </trkpt>
      <trkpt lat="42.826256" lon="-1.56396">
        <time>2022-07-03T13:55:48Z</time>
      </trkpt>
      <trkpt lat="42.826233" lon="-1.5638777">
        <time>2022-07-03T13:55:50Z</time>
      </trkpt>
      <trkpt lat="42.826214" lon="-1.5637946">
        <time>2022-07-03T13:55:52Z</time>
      </trkpt>
      <trkpt lat="42.826195" lon="-1.563713">
        <time>2022-07-03T13:55:54Z</time>
      </trkpt>
      <trkpt lat="42.82618" lon="-1.5636367">
        <time>2022-07-03T13:55:56Z</time>
      </trkpt>
      <trkpt lat="42.82616" lon="-1.5635526">
        <time>2022-07-03T13:55:58Z</time>
      </trkpt>
      <trkpt lat="42.82614" lon="-1.5634674">
        <time>2022-07-03T13:56:00Z</time>
      </trkpt>
      <trkpt lat="42.826122" lon="-1.5633826">
        <time>2022-07-03T13:56:02Z</time>
      </trkpt>
      <trkpt lat="42.8261" lon="-1.5632993">
        <time>2022-07-03T13:56:04Z</time>
      </trkpt>
      <trkpt lat="42.82608" lon="-1.5632157">
        <time>2022-07-03T13:56:06Z</time>
      </trkpt>
      <trkpt lat="42.82606" lon="-1.563132">
        <time>2022-07-03T13:56:08Z</time>
      </trkpt>
      <trkpt lat="42.826042" lon="-1.5630484">
        <time>2022-07-03T13:56:10Z</time>
      </trkpt>
      <trkpt lat="42.826023" lon="-1.5629663">
        <time>2022-07-03T13:56:12Z</time>
      </trkpt>
      <trkpt lat="42.826" lon="-1.5628864">
        <time>2022-07-03T13:56:14Z</time>
      </trkpt>
      <trkpt lat="42.82598" lon="-1.562808">
        <time>2022-07-03T13:56:16Z</time>
      </trkpt>
      <trkpt lat="42.825962" lon="-1.5627301">
        <time>2022-07-03T13:56:18Z</time>
      </trkpt>
      <trkpt lat="42.825943" lon="-1.5626544">
        <time>2022-07-03T13:56:20Z</time>
      </trkpt>
      <trkpt lat="42.825928" lon="-1.5625811">
        <time>2022-07-03T13:56:22Z</time>
      </trkpt>
      <trkpt lat="42.82591" lon="-1.5625094">
        <time>2022-07-03T13:56:24Z</time>
      </trkpt>
      <trkpt lat="42.825893" lon="-1.5624387">
        <time>2022-07-03T13:56:26Z</time>
      </trkpt>
      <trkpt lat="42.82588" lon="-1.5623688">
        <time>2022-07-03T13:56:28Z</time>
      </trkpt>
      <trkpt lat="42.82586" lon="-1.5622977">
        <time>2022-07-03T13:56:30Z</time>
      </trkpt>
      <trkpt lat="42.825844" lon="-1.5622264">
        <time>2022-07-03T13:56:32Z</time>
      </trkpt>
      <trkpt lat="42.82582" lon="-1.562155">
        <time>2022-07-03T13:56:34Z</time>
      </trkpt>
      <trkpt lat="42.8258" lon="-1.5620847">
        <time>2022-07-03T13:56:36Z</time>
      </trkpt>
      <trkpt lat="42.82578" lon="-1.5620134">
        <time>2022-07-03T13:56:38Z</time>
      </trkpt>
      <trkpt lat="42.82576" lon="-1.5619408">
        <time>2022-07-03T13:56:40Z</time>
      </trkpt>
      <trkpt lat="42.82574" lon="-1.5618671">
        <time>2022-07-03T13:56:42Z</time>
      </trkpt>
      <trkpt lat="42.82572" lon="-1.5617931">
        <time>2022-07-03T13:56:44Z</time>
      </trkpt>
      <trkpt lat="42.825703" lon="-1.5617248">
        <time>2022-07-03T13:56:46Z</time>
      </trkpt>
      <trkpt lat="42.82568" lon="-1.5616624">
        <time>2022-07-03T13:56:48Z</time>
      </trkpt>
      <trkpt lat="42.82565" lon="-1.5615814">
        <time>2022-07-03T13:56:51Z</time>
      </trkpt>
      <trkpt lat="42.825626" lon="-1.5615108">
        <time>2022-07-03T13:56:54Z</time>
      </trkpt>
      <trkpt lat="42.825596" lon="-1.5614341">
        <time>2022-07-03T13:56:57Z</time>
      </trkpt>
      <trkpt lat="42.825565" lon="-1.5613564">
        <time>2022-07-03T13:57:00Z</time>
      </trkpt>
      <trkpt lat="42.825535" lon="-1.5612891">
        <time>2022-07-03T13:57:03Z</time>
      </trkpt>
      <trkpt lat="42.8254" lon="-1.5611675">
        <time>2022-07-03T14:01:37Z</time>
      </trkpt>
      <trkpt lat="42.825375" lon="-1.5610698">
        <time>2022-07-03T14:01:40Z</time>
      </trkpt>
      <trkpt lat="42.825363" lon="-1.5609928">
        <time>2022-07-03T14:01:42Z</time>
      </trkpt>
      <trkpt lat="42.825363" lon="-1.5609148">
        <time>2022-07-03T14:01:44Z</time>
      </trkpt>
      <trkpt lat="42.825367" lon="-1.5608338">
        <time>2022-07-03T14:01:46Z</time>
      </trkpt>
      <trkpt lat="42.825375" lon="-1.5607525">
        <time>2022-07-03T14:01:48Z</time>
      </trkpt>
      <trkpt lat="42.825382" lon="-1.5606718">
        <time>2022-07-03T14:01:50Z</time>
      </trkpt>
      <trkpt lat="42.825386" lon="-1.5605885">
        <time>2022-07-03T14:01:52Z</time>
      </trkpt>
      <trkpt lat="42.825386" lon="-1.5605042">
        <time>2022-07-03T14:01:54Z</time>
      </trkpt>
      <trkpt lat="42.825382" lon="-1.5604198">
        <time>2022-07-03T14:01:56Z</time>
      </trkpt>
      <trkpt lat="42.825375" lon="-1.5603368">
        <time>2022-07-03T14:01:58Z</time>
      </trkpt>
      <trkpt lat="42.825363" lon="-1.5602541">
        <time>2022-07-03T14:02:00Z</time>
      </trkpt>
      <trkpt lat="42.825348" lon="-1.5601718">
        <time>2022-07-03T14:02:02Z</time>
      </trkpt>
      <trkpt lat="42.825333" lon="-1.5600908">
        <time>2022-07-03T14:02:04Z</time>
      </trkpt>
      <trkpt lat="42.825314" lon="-1.5600082">
        <time>2022-07-03T14:02:06Z</time>
      </trkpt>
      <trkpt lat="42.825294" lon="-1.5599271">
        <time>2022-07-03T14:02:08Z</time>
      </trkpt>
      <trkpt lat="42.825275" lon="-1.5598485">
        <time>2022-07-03T14:02:10Z</time>
      </trkpt>
      <trkpt lat="42.825256" lon="-1.5597678">
        <time>2022-07-03T14:02:12Z</time>
      </trkpt>
      <trkpt lat="42.825237" lon="-1.5596852">
        <time>2022-07-03T14:02:14Z</time>
      </trkpt>
      <trkpt lat="42.82522" lon="-1.5596029">
        <time>2022-07-03T14:02:16Z</time>
      </trkpt>
      <trkpt lat="42.825195" lon="-1.5595199">
        <time>2022-07-03T14:02:18Z</time>
      </trkpt>
      <trkpt lat="42.82517" lon="-1.5594362">
        <time>2022-07-03T14:02:20Z</time>
      </trkpt>
      <trkpt lat="42.825146" lon="-1.5593512">
        <time>2022-07-03T14:02:22Z</time>
      </trkpt>
      <trkpt lat="42.825123" lon="-1.5592659">
        <time>2022-07-03T14:02:24Z</time>
      </trkpt>
      <trkpt lat="42.8251" lon="-1.5591818">
        <time>2022-07-03T14:02:26Z</time>
      </trkpt>
      <trkpt lat="42.825073" lon="-1.5591012">
        <time>2022-07-03T14:02:28Z</time>
      </trkpt>
      <trkpt lat="42.825047" lon="-1.5590222">
        <time>2022-07-03T14:02:30Z</time>
      </trkpt>
      <trkpt lat="42.825012" lon="-1.5589442">
        <time>2022-07-03T14:02:32Z</time>
      </trkpt>
      <trkpt lat="42.82498" lon="-1.5588692">
        <time>2022-07-03T14:02:34Z</time>
      </trkpt>
      <trkpt lat="42.824947" lon="-1.5587965">
        <time>2022-07-03T14:02:36Z</time>
      </trkpt>
      <trkpt lat="42.82491" lon="-1.5587282">
        <time>2022-07-03T14:02:38Z</time>
      </trkpt>
      <trkpt lat="42.824863" lon="-1.5586638">
        <time>2022-07-03T14:02:40Z</time>
      </trkpt>
      <trkpt lat="42.82482" lon="-1.5586019">
        <time>2022-07-03T14:02:42Z</time>
      </trkpt>
      <trkpt lat="42.82477" lon="-1.5585436">
        <time>2022-07-03T14:02:44Z</time>
      </trkpt>
      <trkpt lat="42.824722" lon="-1.5584859">
        <time>2022-07-03T14:02:46Z</time>
      </trkpt>
      <trkpt lat="42.82468" lon="-1.5584216">
        <time>2022-07-03T14:02:48Z</time>
      </trkpt>
      <trkpt lat="42.824646" lon="-1.5583482">
        <time>2022-07-03T14:02:50Z</time>
      </trkpt>
      <trkpt lat="42.824623" lon="-1.5582706">
        <time>2022-07-03T14:02:52Z</time>
      </trkpt>
      <trkpt lat="42.824596" lon="-1.5581906">
        <time>2022-07-03T14:02:54Z</time>
      </trkpt>
      <trkpt lat="42.824574" lon="-1.5581095">
        <time>2022-07-03T14:02:56Z</time>
      </trkpt>
      <trkpt lat="42.824543" lon="-1.5579902">
        <time>2022-07-03T14:02:59Z</time>
      </trkpt>
      <trkpt lat="42.824516" lon="-1.5579135">
        <time>2022-07-03T14:03:01Z</time>
      </trkpt>
      <trkpt lat="42.824486" lon="-1.5578396">
        <time>2022-07-03T14:03:03Z</time>
      </trkpt>
      <trkpt lat="42.82445" lon="-1.557766">
        <time>2022-07-03T14:03:05Z</time>
      </trkpt>
      <trkpt lat="42.824417" lon="-1.5576912">
        <time>2022-07-03T14:03:07Z</time>
      </trkpt>
      <trkpt lat="42.824383" lon="-1.5576196">
        <time>2022-07-03T14:03:09Z</time>
      </trkpt>
      <trkpt lat="42.824345" lon="-1.5575513">
        <time>2022-07-03T14:03:11Z</time>
      </trkpt>
      <trkpt lat="42.8243" lon="-1.5574852">
        <time>2022-07-03T14:03:13Z</time>
      </trkpt>
      <trkpt lat="42.824253" lon="-1.5574203">
        <time>2022-07-03T14:03:15Z</time>
      </trkpt>
      <trkpt lat="42.824207" lon="-1.5573556">
        <time>2022-07-03T14:03:17Z</time>
      </trkpt>
      <trkpt lat="42.82416" lon="-1.5572892">
        <time>2022-07-03T14:03:19Z</time>
      </trkpt>
      <trkpt lat="42.824116" lon="-1.5572209">
        <time>2022-07-03T14:03:21Z</time>
      </trkpt>
      <trkpt lat="42.824074" lon="-1.5571533">
        <time>2022-07-03T14:03:23Z</time>
      </trkpt>
      <trkpt lat="42.82403" lon="-1.557086">
        <time>2022-07-03T14:03:25Z</time>
      </trkpt>
      <trkpt lat="42.823986" lon="-1.5570173">
        <time>2022-07-03T14:03:27Z</time>
      </trkpt>
      <trkpt lat="42.823944" lon="-1.5569496">
        <time>2022-07-03T14:03:29Z</time>
      </trkpt>
      <trkpt lat="42.8239" lon="-1.5568813">
        <time>2022-07-03T14:03:31Z</time>
      </trkpt>
      <trkpt lat="42.823853" lon="-1.556811">
        <time>2022-07-03T14:03:33Z</time>
      </trkpt>
      <trkpt lat="42.8238" lon="-1.5567273">
        <time>2022-07-03T14:03:36Z</time>
      </trkpt>
      <trkpt lat="42.823746" lon="-1.5566417">
        <time>2022-07-03T14:03:38Z</time>
      </trkpt>
      <trkpt lat="42.823692" lon="-1.5565614">
        <time>2022-07-03T14:03:40Z</time>
      </trkpt>
      <trkpt lat="42.823647" lon="-1.5564836">
        <time>2022-07-03T14:03:42Z</time>
      </trkpt>
      <trkpt lat="42.823597" lon="-1.5564053">
        <time>2022-07-03T14:03:44Z</time>
      </trkpt>
      <trkpt lat="42.82355" lon="-1.5563287">
        <time>2022-07-03T14:03:46Z</time>
      </trkpt>
      <trkpt lat="42.823505" lon="-1.556251">
        <time>2022-07-03T14:03:48Z</time>
      </trkpt>
      <trkpt lat="42.823456" lon="-1.556173">
        <time>2022-07-03T14:03:50Z</time>
      </trkpt>
      <trkpt lat="42.82341" lon="-1.5560924">
        <time>2022-07-03T14:03:52Z</time>
      </trkpt>
      <trkpt lat="42.823368" lon="-1.5560113">
        <time>2022-07-03T14:03:54Z</time>
      </trkpt>
      <trkpt lat="42.823326" lon="-1.5559283">
        <time>2022-07-03T14:03:56Z</time>
      </trkpt>
      <trkpt lat="42.823284" lon="-1.5558457">
        <time>2022-07-03T14:03:58Z</time>
      </trkpt>
      <trkpt lat="42.823242" lon="-1.555763">
        <time>2022-07-03T14:04:00Z</time>
      </trkpt>
      <trkpt lat="42.823185" lon="-1.5556384">
        <time>2022-07-03T14:04:03Z</time>
      </trkpt>
      <trkpt lat="42.823143" lon="-1.5555524">
        <time>2022-07-03T14:04:05Z</time>
      </trkpt>
      <trkpt lat="42.823105" lon="-1.5554637">
        <time>2022-07-03T14:04:07Z</time>
      </trkpt>
      <trkpt lat="42.82307" lon="-1.5553818">
        <time>2022-07-03T14:04:09Z</time>
      </trkpt>
      <trkpt lat="42.823036" lon="-1.5552984">
        <time>2022-07-03T14:04:11Z</time>
      </trkpt>
      <trkpt lat="42.823" lon="-1.5552127">
        <time>2022-07-03T14:04:13Z</time>
      </trkpt>
      <trkpt lat="42.82297" lon="-1.5551287">
        <time>2022-07-03T14:04:15Z</time>
      </trkpt>
      <trkpt lat="42.822945" lon="-1.5550444">
        <time>2022-07-03T14:04:17Z</time>
      </trkpt>
      <trkpt lat="42.822914" lon="-1.554959">
        <time>2022-07-03T14:04:19Z</time>
      </trkpt>
      <trkpt lat="42.822884" lon="-1.5548718">
        <time>2022-07-03T14:04:21Z</time>
      </trkpt>
      <trkpt lat="42.822853" lon="-1.554782">
        <time>2022-07-03T14:04:23Z</time>
      </trkpt>
      <trkpt lat="42.822823" lon="-1.5546894">
        <time>2022-07-03T14:04:25Z</time>
      </trkpt>
      <trkpt lat="42.8228" lon="-1.5545974">
        <time>2022-07-03T14:04:27Z</time>
      </trkpt>
      <trkpt lat="42.822773" lon="-1.554501">
        <time>2022-07-03T14:04:29Z</time>
      </trkpt>
      <trkpt lat="42.822746" lon="-1.5544031">
        <time>2022-07-03T14:04:31Z</time>
      </trkpt>
      <trkpt lat="42.822723" lon="-1.5543054">
        <time>2022-07-03T14:04:33Z</time>
      </trkpt>
      <trkpt lat="42.822704" lon="-1.5542004">
        <time>2022-07-03T14:04:35Z</time>
      </trkpt>
      <trkpt lat="42.82268" lon="-1.5540944">
        <time>2022-07-03T14:04:37Z</time>
      </trkpt>
      <trkpt lat="42.822666" lon="-1.5539914">
        <time>2022-07-03T14:04:39Z</time>
      </trkpt>
      <trkpt lat="42.822647" lon="-1.553886">
        <time>2022-07-03T14:04:41Z</time>
      </trkpt>
      <trkpt lat="42.822628" lon="-1.5537808">
        <time>2022-07-03T14:04:43Z</time>
      </trkpt>
      <trkpt lat="42.82261" lon="-1.5536761">
        <time>2022-07-03T14:04:45Z</time>
      </trkpt>
      <trkpt lat="42.822594" lon="-1.5535702">
        <time>2022-07-03T14:04:47Z</time>
      </trkpt>
      <trkpt lat="42.82258" lon="-1.5534648">
        <time>2022-07-03T14:04:49Z</time>
      </trkpt>
      <trkpt lat="42.82257" lon="-1.5533584">
        <time>2022-07-03T14:04:51Z</time>
      </trkpt>
      <trkpt lat="42.82256" lon="-1.5532551">
        <time>2022-07-03T14:04:53Z</time>
      </trkpt>
      <trkpt lat="42.822548" lon="-1.5531504">
        <time>2022-07-03T14:04:55Z</time>
      </trkpt>
      <trkpt lat="42.82254" lon="-1.5530441">
        <time>2022-07-03T14:04:57Z</time>
      </trkpt>
      <trkpt lat="42.82253" lon="-1.5529364">
        <time>2022-07-03T14:04:59Z</time>
      </trkpt>
      <trkpt lat="42.82252" lon="-1.5528278">
        <time>2022-07-03T14:05:01Z</time>
      </trkpt>
      <trkpt lat="42.822517" lon="-1.5527219">
        <time>2022-07-03T14:05:03Z</time>
      </trkpt>
      <trkpt lat="42.822514" lon="-1.5526105">
        <time>2022-07-03T14:05:05Z</time>
      </trkpt>
      <trkpt lat="42.822514" lon="-1.5524482">
        <time>2022-07-03T14:05:08Z</time>
      </trkpt>
      <trkpt lat="42.822514" lon="-1.5523388">
        <time>2022-07-03T14:05:10Z</time>
      </trkpt>
      <trkpt lat="42.822517" lon="-1.5522305">
        <time>2022-07-03T14:05:12Z</time>
      </trkpt>
      <trkpt lat="42.822517" lon="-1.5521221">
        <time>2022-07-03T14:05:14Z</time>
      </trkpt>
      <trkpt lat="42.82252" lon="-1.5520089">
        <time>2022-07-03T14:05:16Z</time>
      </trkpt>
      <trkpt lat="42.82253" lon="-1.5519012">
        <time>2022-07-03T14:05:18Z</time>
      </trkpt>
      <trkpt lat="42.82254" lon="-1.5517905">
        <time>2022-07-03T14:05:20Z</time>
      </trkpt>
      <trkpt lat="42.822548" lon="-1.5516798">
        <time>2022-07-03T14:05:22Z</time>
      </trkpt>
      <trkpt lat="42.822556" lon="-1.5515692">
        <time>2022-07-03T14:05:24Z</time>
      </trkpt>
      <trkpt lat="42.822567" lon="-1.5514572">
        <time>2022-07-03T14:05:26Z</time>
      </trkpt>
      <trkpt lat="42.822582" lon="-1.5513439">
        <time>2022-07-03T14:05:28Z</time>
      </trkpt>
      <trkpt lat="42.822598" lon="-1.5512326">
        <time>2022-07-03T14:05:30Z</time>
      </trkpt>
      <trkpt lat="42.822613" lon="-1.5511192">
        <time>2022-07-03T14:05:32Z</time>
      </trkpt>
      <trkpt lat="42.82263" lon="-1.5510072">
        <time>2022-07-03T14:05:34Z</time>
      </trkpt>
      <trkpt lat="42.82265" lon="-1.5508952">
        <time>2022-07-03T14:05:36Z</time>
      </trkpt>
      <trkpt lat="42.82267" lon="-1.5507872">
        <time>2022-07-03T14:05:38Z</time>
      </trkpt>
      <trkpt lat="42.822693" lon="-1.5506799">
        <time>2022-07-03T14:05:40Z</time>
      </trkpt>
      <trkpt lat="42.822716" lon="-1.5505716">
        <time>2022-07-03T14:05:42Z</time>
      </trkpt>
      <trkpt lat="42.822742" lon="-1.5504615">
        <time>2022-07-03T14:05:44Z</time>
      </trkpt>
      <trkpt lat="42.82277" lon="-1.5503513">
        <time>2022-07-03T14:05:46Z</time>
      </trkpt>
      <trkpt lat="42.822803" lon="-1.5502386">
        <time>2022-07-03T14:05:48Z</time>
      </trkpt>
      <trkpt lat="42.822834" lon="-1.5501332">
        <time>2022-07-03T14:05:50Z</time>
      </trkpt>
      <trkpt lat="42.82287" lon="-1.5500265">
        <time>2022-07-03T14:05:52Z</time>
      </trkpt>
      <trkpt lat="42.822903" lon="-1.5499182">
        <time>2022-07-03T14:05:54Z</time>
      </trkpt>
      <trkpt lat="42.822937" lon="-1.5498112">
        <time>2022-07-03T14:05:56Z</time>
      </trkpt>
      <trkpt lat="42.822975" lon="-1.5497056">
        <time>2022-07-03T14:05:58Z</time>
      </trkpt>
      <trkpt lat="42.823017" lon="-1.5496016">
        <time>2022-07-03T14:06:00Z</time>
      </trkpt>
      <trkpt lat="42.82306" lon="-1.5494969">
        <time>2022-07-03T14:06:02Z</time>
      </trkpt>
      <trkpt lat="42.823105" lon="-1.5493889">
        <time>2022-07-03T14:06:04Z</time>
      </trkpt>
      <trkpt lat="42.823147" lon="-1.5492872">
        <time>2022-07-03T14:06:06Z</time>
      </trkpt>
      <trkpt lat="42.823193" lon="-1.5491846">
        <time>2022-07-03T14:06:08Z</time>
      </trkpt>
      <trkpt lat="42.82324" lon="-1.5490795">
        <time>2022-07-03T14:06:10Z</time>
      </trkpt>
      <trkpt lat="42.823284" lon="-1.5489743">
        <time>2022-07-03T14:06:12Z</time>
      </trkpt>
      <trkpt lat="42.823334" lon="-1.5488696">
        <time>2022-07-03T14:06:14Z</time>
      </trkpt>
      <trkpt lat="42.823376" lon="-1.548764">
        <time>2022-07-03T14:06:16Z</time>
      </trkpt>
      <trkpt lat="42.823425" lon="-1.548661">
        <time>2022-07-03T14:06:18Z</time>
      </trkpt>
      <trkpt lat="42.82347" lon="-1.548558">
        <time>2022-07-03T14:06:20Z</time>
      </trkpt>
      <trkpt lat="42.823513" lon="-1.5484536">
        <time>2022-07-03T14:06:22Z</time>
      </trkpt>
      <trkpt lat="42.82356" lon="-1.5483496">
        <time>2022-07-03T14:06:24Z</time>
      </trkpt>
      <trkpt lat="42.8236" lon="-1.5482453">
        <time>2022-07-03T14:06:26Z</time>
      </trkpt>
      <trkpt lat="42.823643" lon="-1.548141">
        <time>2022-07-03T14:06:28Z</time>
      </trkpt>
      <trkpt lat="42.82369" lon="-1.5480363">
        <time>2022-07-03T14:06:30Z</time>
      </trkpt>
      <trkpt lat="42.82373" lon="-1.5479323">
        <time>2022-07-03T14:06:32Z</time>
      </trkpt>
      <trkpt lat="42.823772" lon="-1.547827">
        <time>2022-07-03T14:06:34Z</time>
      </trkpt>
      <trkpt lat="42.823814" lon="-1.5477207">
        <time>2022-07-03T14:06:36Z</time>
      </trkpt>
      <trkpt lat="42.82386" lon="-1.5476153">
        <time>2022-07-03T14:06:38Z</time>
      </trkpt>
      <trkpt lat="42.823902" lon="-1.5475084">
        <time>2022-07-03T14:06:40Z</time>
      </trkpt>
      <trkpt lat="42.823944" lon="-1.5474023">
        <time>2022-07-03T14:06:42Z</time>
      </trkpt>
      <trkpt lat="42.82398" lon="-1.5472943">
        <time>2022-07-03T14:06:44Z</time>
      </trkpt>
      <trkpt lat="42.824" lon="-1.547184">
        <time>2022-07-03T14:06:46Z</time>
      </trkpt>
      <trkpt lat="42.824013" lon="-1.54706">
        <time>2022-07-03T14:06:48Z</time>
      </trkpt>
      <trkpt lat="42.82402" lon="-1.546948">
        <time>2022-07-03T14:06:50Z</time>
      </trkpt>
      <trkpt lat="42.82403" lon="-1.5468343">
        <time>2022-07-03T14:06:52Z</time>
      </trkpt>
      <trkpt lat="42.824062" lon="-1.5467263">
        <time>2022-07-03T14:06:54Z</time>
      </trkpt>
      <trkpt lat="42.824112" lon="-1.546628">
        <time>2022-07-03T14:06:56Z</time>
      </trkpt>
      <trkpt lat="42.82417" lon="-1.5465443">
        <time>2022-07-03T14:06:58Z</time>
      </trkpt>
      <trkpt lat="42.824223" lon="-1.546467">
        <time>2022-07-03T14:07:00Z</time>
      </trkpt>
      <trkpt lat="42.82428" lon="-1.5463773">
        <time>2022-07-03T14:07:02Z</time>
      </trkpt>
      <trkpt lat="42.82432" lon="-1.546284">
        <time>2022-07-03T14:07:04Z</time>
      </trkpt>
      <trkpt lat="42.82436" lon="-1.5461807">
        <time>2022-07-03T14:07:06Z</time>
      </trkpt>
      <trkpt lat="42.824394" lon="-1.54607">
        <time>2022-07-03T14:07:08Z</time>
      </trkpt>
      <trkpt lat="42.82443" lon="-1.5459644">
        <time>2022-07-03T14:07:10Z</time>
      </trkpt>
      <trkpt lat="42.82446" lon="-1.545854">
        <time>2022-07-03T14:07:12Z</time>
      </trkpt>
      <trkpt lat="42.82449" lon="-1.5457484">
        <time>2022-07-03T14:07:14Z</time>
      </trkpt>
      <trkpt lat="42.82452" lon="-1.545636">
        <time>2022-07-03T14:07:16Z</time>
      </trkpt>
      <trkpt lat="42.82455" lon="-1.5455236">
        <time>2022-07-03T14:07:18Z</time>
      </trkpt>
      <trkpt lat="42.82458" lon="-1.5454154">
        <time>2022-07-03T14:07:20Z</time>
      </trkpt>
      <trkpt lat="42.82461" lon="-1.5453013">
        <time>2022-07-03T14:07:22Z</time>
      </trkpt>
      <trkpt lat="42.824642" lon="-1.5451927">
        <time>2022-07-03T14:07:24Z</time>
      </trkpt>
      <trkpt lat="42.82467" lon="-1.5450814">
        <time>2022-07-03T14:07:26Z</time>
      </trkpt>
      <trkpt lat="42.8247" lon="-1.544968">
        <time>2022-07-03T14:07:28Z</time>
      </trkpt>
      <trkpt lat="42.82473" lon="-1.5448531">
        <time>2022-07-03T14:07:30Z</time>
      </trkpt>
      <trkpt lat="42.824757" lon="-1.5447401">
        <time>2022-07-03T14:07:32Z</time>
      </trkpt>
      <trkpt lat="42.824783" lon="-1.544625">
        <time>2022-07-03T14:07:34Z</time>
      </trkpt>
      <trkpt lat="42.824814" lon="-1.5445087">
        <time>2022-07-03T14:07:36Z</time>
      </trkpt>
      <trkpt lat="42.82484" lon="-1.5443901">
        <time>2022-07-03T14:07:38Z</time>
      </trkpt>
      <trkpt lat="42.824852" lon="-1.5443307">
        <time>2022-07-03T14:07:39Z</time>
      </trkpt>
      <trkpt lat="42.824875" lon="-1.544213">
        <time>2022-07-03T14:07:41Z</time>
      </trkpt>
      <trkpt lat="42.8249" lon="-1.5440967">
        <time>2022-07-03T14:07:43Z</time>
      </trkpt>
      <trkpt lat="42.824924" lon="-1.5439785">
        <time>2022-07-03T14:07:45Z</time>
      </trkpt>
      <trkpt lat="42.82495" lon="-1.5438597">
        <time>2022-07-03T14:07:47Z</time>
      </trkpt>
      <trkpt lat="42.824978" lon="-1.5437394">
        <time>2022-07-03T14:07:49Z</time>
      </trkpt>
      <trkpt lat="42.825" lon="-1.5436177">
        <time>2022-07-03T14:07:51Z</time>
      </trkpt>
      <trkpt lat="42.82502" lon="-1.5434971">
        <time>2022-07-03T14:07:53Z</time>
      </trkpt>
      <trkpt lat="42.825043" lon="-1.5433774">
        <time>2022-07-03T14:07:55Z</time>
      </trkpt>
      <trkpt lat="42.82506" lon="-1.5432601">
        <time>2022-07-03T14:07:57Z</time>
      </trkpt>
      <trkpt lat="42.82508" lon="-1.5431437">
        <time>2022-07-03T14:07:59Z</time>
      </trkpt>
      <trkpt lat="42.8251" lon="-1.5430278">
        <time>2022-07-03T14:08:01Z</time>
      </trkpt>
      <trkpt lat="42.82512" lon="-1.5429114">
        <time>2022-07-03T14:08:03Z</time>
      </trkpt>
      <trkpt lat="42.82514" lon="-1.5427898">
        <time>2022-07-03T14:08:05Z</time>
      </trkpt>
      <trkpt lat="42.825157" lon="-1.5426794">
        <time>2022-07-03T14:08:07Z</time>
      </trkpt>
      <trkpt lat="42.825172" lon="-1.5425591">
        <time>2022-07-03T14:08:09Z</time>
      </trkpt>
      <trkpt lat="42.82519" lon="-1.5424408">
        <time>2022-07-03T14:08:11Z</time>
      </trkpt>
      <trkpt lat="42.825207" lon="-1.5423211">
        <time>2022-07-03T14:08:13Z</time>
      </trkpt>
      <trkpt lat="42.825226" lon="-1.5421985">
        <time>2022-07-03T14:08:15Z</time>
      </trkpt>
      <trkpt lat="42.825245" lon="-1.5420785">
        <time>2022-07-03T14:08:17Z</time>
      </trkpt>
      <trkpt lat="42.82526" lon="-1.5419549">
        <time>2022-07-03T14:08:19Z</time>
      </trkpt>
      <trkpt lat="42.825275" lon="-1.5418365">
        <time>2022-07-03T14:08:21Z</time>
      </trkpt>
      <trkpt lat="42.825287" lon="-1.5417179">
        <time>2022-07-03T14:08:23Z</time>
      </trkpt>
      <trkpt lat="42.825302" lon="-1.5415999">
        <time>2022-07-03T14:08:25Z</time>
      </trkpt>
      <trkpt lat="42.825314" lon="-1.5414925">
        <time>2022-07-03T14:08:27Z</time>
      </trkpt>
      <trkpt lat="42.82533" lon="-1.5413855">
        <time>2022-07-03T14:08:29Z</time>
      </trkpt>
      <trkpt lat="42.825336" lon="-1.5412785">
        <time>2022-07-03T14:08:31Z</time>
      </trkpt>
      <trkpt lat="42.825348" lon="-1.5411742">
        <time>2022-07-03T14:08:33Z</time>
      </trkpt>
      <trkpt lat="42.825356" lon="-1.5410751">
        <time>2022-07-03T14:08:35Z</time>
      </trkpt>
      <trkpt lat="42.825367" lon="-1.5409788">
        <time>2022-07-03T14:08:37Z</time>
      </trkpt>
      <trkpt lat="42.825375" lon="-1.5408865">
        <time>2022-07-03T14:08:39Z</time>
      </trkpt>
      <trkpt lat="42.825386" lon="-1.5407962">
        <time>2022-07-03T14:08:41Z</time>
      </trkpt>
      <trkpt lat="42.825394" lon="-1.5407108">
        <time>2022-07-03T14:08:43Z</time>
      </trkpt>
      <trkpt lat="42.8254" lon="-1.5406325">
        <time>2022-07-03T14:08:45Z</time>
      </trkpt>
      <trkpt lat="42.825405" lon="-1.5405579">
        <time>2022-07-03T14:08:47Z</time>
      </trkpt>
      <trkpt lat="42.825417" lon="-1.5404786">
        <time>2022-07-03T14:08:49Z</time>
      </trkpt>
      <trkpt lat="42.825428" lon="-1.5403985">
        <time>2022-07-03T14:08:51Z</time>
      </trkpt>
      <trkpt lat="42.825436" lon="-1.5403225">
        <time>2022-07-03T14:08:53Z</time>
      </trkpt>
      <trkpt lat="42.825447" lon="-1.5402472">
        <time>2022-07-03T14:08:55Z</time>
      </trkpt>
      <trkpt lat="42.82545" lon="-1.5401748">
        <time>2022-07-03T14:08:57Z</time>
      </trkpt>
      <trkpt lat="42.825462" lon="-1.5401045">
        <time>2022-07-03T14:08:59Z</time>
      </trkpt>
      <trkpt lat="42.82547" lon="-1.5400289">
        <time>2022-07-03T14:09:01Z</time>
      </trkpt>
      <trkpt lat="42.825478" lon="-1.5399538">
        <time>2022-07-03T14:09:03Z</time>
      </trkpt>
      <trkpt lat="42.825485" lon="-1.5398825">
        <time>2022-07-03T14:09:05Z</time>
      </trkpt>
      <trkpt lat="42.8255" lon="-1.5397792">
        <time>2022-07-03T14:09:08Z</time>
      </trkpt>
      <trkpt lat="42.82551" lon="-1.5397118">
        <time>2022-07-03T14:09:10Z</time>
      </trkpt>
      <trkpt lat="42.825516" lon="-1.5396439">
        <time>2022-07-03T14:09:12Z</time>
      </trkpt>
      <trkpt lat="42.825527" lon="-1.5395418">
        <time>2022-07-03T14:09:15Z</time>
      </trkpt>
      <trkpt lat="42.825535" lon="-1.5394739">
        <time>2022-07-03T14:09:17Z</time>
      </trkpt>
      <trkpt lat="42.825542" lon="-1.5393696">
        <time>2022-07-03T14:09:20Z</time>
      </trkpt>
      <trkpt lat="42.825546" lon="-1.5392982">
        <time>2022-07-03T14:09:22Z</time>
      </trkpt>
      <trkpt lat="42.825554" lon="-1.5392276">
        <time>2022-07-03T14:09:24Z</time>
      </trkpt>
      <trkpt lat="42.825565" lon="-1.539156">
        <time>2022-07-03T14:09:26Z</time>
      </trkpt>
      <trkpt lat="42.825573" lon="-1.539084">
        <time>2022-07-03T14:09:28Z</time>
      </trkpt>
      <trkpt lat="42.82558" lon="-1.5390142">
        <time>2022-07-03T14:09:30Z</time>
      </trkpt>
      <trkpt lat="42.82559" lon="-1.5389076">
        <time>2022-07-03T14:09:33Z</time>
      </trkpt>
      <trkpt lat="42.825596" lon="-1.5388392">
        <time>2022-07-03T14:09:35Z</time>
      </trkpt>
      <trkpt lat="42.825603" lon="-1.5387686">
        <time>2022-07-03T14:09:37Z</time>
      </trkpt>
      <trkpt lat="42.825615" lon="-1.5386666">
        <time>2022-07-03T14:09:40Z</time>
      </trkpt>
      <trkpt lat="42.825623" lon="-1.5385989">
        <time>2022-07-03T14:09:42Z</time>
      </trkpt>
      <trkpt lat="42.825638" lon="-1.5384942">
        <time>2022-07-03T14:09:45Z</time>
      </trkpt>
      <trkpt lat="42.825645" lon="-1.5384253">
        <time>2022-07-03T14:09:47Z</time>
      </trkpt>
      <trkpt lat="42.825653" lon="-1.5383517">
        <time>2022-07-03T14:09:49Z</time>
      </trkpt>
      <trkpt lat="42.825665" lon="-1.5382813">
        <time>2022-07-03T14:09:51Z</time>
      </trkpt>
      <trkpt lat="42.825672" lon="-1.5382097">
        <time>2022-07-03T14:09:53Z</time>
      </trkpt>
      <trkpt lat="42.825684" lon="-1.5381336">
        <time>2022-07-03T14:09:55Z</time>
      </trkpt>
      <trkpt lat="42.82569" lon="-1.5380596">
        <time>2022-07-03T14:09:57Z</time>
      </trkpt>
      <trkpt lat="42.8257" lon="-1.5379893">
        <time>2022-07-03T14:09:59Z</time>
      </trkpt>
      <trkpt lat="42.82571" lon="-1.5379156">
        <time>2022-07-03T14:10:01Z</time>
      </trkpt>
      <trkpt lat="42.825718" lon="-1.537843">
        <time>2022-07-03T14:10:03Z</time>
      </trkpt>
      <trkpt lat="42.82573" lon="-1.5377734">
        <time>2022-07-03T14:10:05Z</time>
      </trkpt>
      <trkpt lat="42.825733" lon="-1.537698">
        <time>2022-07-03T14:10:07Z</time>
      </trkpt>
      <trkpt lat="42.825745" lon="-1.5376203">
        <time>2022-07-03T14:10:09Z</time>
      </trkpt>
      <trkpt lat="42.825752" lon="-1.537546">
        <time>2022-07-03T14:10:11Z</time>
      </trkpt>
      <trkpt lat="42.82576" lon="-1.5374707">
        <time>2022-07-03T14:10:13Z</time>
      </trkpt>
      <trkpt lat="42.825768" lon="-1.5373963">
        <time>2022-07-03T14:10:15Z</time>
      </trkpt>
      <trkpt lat="42.825775" lon="-1.537324">
        <time>2022-07-03T14:10:17Z</time>
      </trkpt>
      <trkpt lat="42.82578" lon="-1.53725">
        <time>2022-07-03T14:10:19Z</time>
      </trkpt>
      <trkpt lat="42.825783" lon="-1.5371767">
        <time>2022-07-03T14:10:21Z</time>
      </trkpt>
      <trkpt lat="42.82579" lon="-1.5371023">
        <time>2022-07-03T14:10:23Z</time>
      </trkpt>
      <trkpt lat="42.825794" lon="-1.537029">
        <time>2022-07-03T14:10:25Z</time>
      </trkpt>
      <trkpt lat="42.825798" lon="-1.5369627">
        <time>2022-07-03T14:10:27Z</time>
      </trkpt>
      <trkpt lat="42.825806" lon="-1.5368654">
        <time>2022-07-03T14:10:30Z</time>
      </trkpt>
      <trkpt lat="42.825813" lon="-1.5367664">
        <time>2022-07-03T14:10:33Z</time>
      </trkpt>
      <trkpt lat="42.825817" lon="-1.5366983">
        <time>2022-07-03T14:10:35Z</time>
      </trkpt>
      <trkpt lat="42.82582" lon="-1.536597">
        <time>2022-07-03T14:10:38Z</time>
      </trkpt>
      <trkpt lat="42.825825" lon="-1.5364951">
        <time>2022-07-03T14:10:41Z</time>
      </trkpt>
      <trkpt lat="42.825825" lon="-1.5364261">
        <time>2022-07-03T14:10:43Z</time>
      </trkpt>
      <trkpt lat="42.82583" lon="-1.5363576">
        <time>2022-07-03T14:10:45Z</time>
      </trkpt>
      <trkpt lat="42.825825" lon="-1.5362604">
        <time>2022-07-03T14:10:48Z</time>
      </trkpt>
      <trkpt lat="42.825825" lon="-1.5361654">
        <time>2022-07-03T14:10:51Z</time>
      </trkpt>
      <trkpt lat="42.82583" lon="-1.536103">
        <time>2022-07-03T14:10:53Z</time>
      </trkpt>
      <trkpt lat="42.82583" lon="-1.53601">
        <time>2022-07-03T14:10:56Z</time>
      </trkpt>
      <trkpt lat="42.825832" lon="-1.5359194">
        <time>2022-07-03T14:10:59Z</time>
      </trkpt>
      <trkpt lat="42.825832" lon="-1.5358294">
        <time>2022-07-03T14:11:02Z</time>
      </trkpt>
      <trkpt lat="42.82583" lon="-1.5357367">
        <time>2022-07-03T14:11:05Z</time>
      </trkpt>
      <trkpt lat="42.82583" lon="-1.535644">
        <time>2022-07-03T14:11:08Z</time>
      </trkpt>
      <trkpt lat="42.82582" lon="-1.5355498">
        <time>2022-07-03T14:11:11Z</time>
      </trkpt>
      <trkpt lat="42.825817" lon="-1.5354531">
        <time>2022-07-03T14:11:14Z</time>
      </trkpt>
      <trkpt lat="42.825806" lon="-1.5353854">
        <time>2022-07-03T14:11:16Z</time>
      </trkpt>
      <trkpt lat="42.825798" lon="-1.5353165">
        <time>2022-07-03T14:11:18Z</time>
      </trkpt>
      <trkpt lat="42.825783" lon="-1.5352181">
        <time>2022-07-03T14:11:21Z</time>
      </trkpt>
      <trkpt lat="42.825775" lon="-1.5351487">
        <time>2022-07-03T14:11:23Z</time>
      </trkpt>
      <trkpt lat="42.825756" lon="-1.5350494">
        <time>2022-07-03T14:11:26Z</time>
      </trkpt>
      <trkpt lat="42.825745" lon="-1.5349828">
        <time>2022-07-03T14:11:28Z</time>
      </trkpt>
      <trkpt lat="42.825726" lon="-1.5348444">
        <time>2022-07-03T14:11:32Z</time>
      </trkpt>
      <trkpt lat="42.825718" lon="-1.5347801">
        <time>2022-07-03T14:11:34Z</time>
      </trkpt>
      <trkpt lat="42.825703" lon="-1.5346801">
        <time>2022-07-03T14:11:37Z</time>
      </trkpt>
      <trkpt lat="42.82569" lon="-1.5345747">
        <time>2022-07-03T14:11:40Z</time>
      </trkpt>
      <trkpt lat="42.825684" lon="-1.534504">
        <time>2022-07-03T14:11:42Z</time>
      </trkpt>
      <trkpt lat="42.82568" lon="-1.5344381">
        <time>2022-07-03T14:11:44Z</time>
      </trkpt>
      <trkpt lat="42.825676" lon="-1.5343355">
        <time>2022-07-03T14:11:47Z</time>
      </trkpt>
      <trkpt lat="42.82567" lon="-1.5342652">
        <time>2022-07-03T14:11:49Z</time>
      </trkpt>
      <trkpt lat="42.82566" lon="-1.5341665">
        <time>2022-07-03T14:11:52Z</time>
      </trkpt>
      <trkpt lat="42.825657" lon="-1.5340974">
        <time>2022-07-03T14:11:54Z</time>
      </trkpt>
      <trkpt lat="42.82564" lon="-1.5339941">
        <time>2022-07-03T14:11:57Z</time>
      </trkpt>
      <trkpt lat="42.82563" lon="-1.5339237">
        <time>2022-07-03T14:11:59Z</time>
      </trkpt>
      <trkpt lat="42.82562" lon="-1.5338545">
        <time>2022-07-03T14:12:01Z</time>
      </trkpt>
      <trkpt lat="42.825607" lon="-1.5337845">
        <time>2022-07-03T14:12:03Z</time>
      </trkpt>
      <trkpt lat="42.82559" lon="-1.5337168">
        <time>2022-07-03T14:12:05Z</time>
      </trkpt>
      <trkpt lat="42.82557" lon="-1.5336155">
        <time>2022-07-03T14:12:08Z</time>
      </trkpt>
      <trkpt lat="42.825554" lon="-1.5335442">
        <time>2022-07-03T14:12:10Z</time>
      </trkpt>
      <trkpt lat="42.82554" lon="-1.5334785">
        <time>2022-07-03T14:12:12Z</time>
      </trkpt>
      <trkpt lat="42.825523" lon="-1.5334085">
        <time>2022-07-03T14:12:14Z</time>
      </trkpt>
      <trkpt lat="42.825497" lon="-1.5333085">
        <time>2022-07-03T14:12:17Z</time>
      </trkpt>
      <trkpt lat="42.825478" lon="-1.5332412">
        <time>2022-07-03T14:12:19Z</time>
      </trkpt>
      <trkpt lat="42.825462" lon="-1.5331738">
        <time>2022-07-03T14:12:21Z</time>
      </trkpt>
      <trkpt lat="42.82544" lon="-1.5331038">
        <time>2022-07-03T14:12:23Z</time>
      </trkpt>
      <trkpt lat="42.82542" lon="-1.5330389">
        <time>2022-07-03T14:12:25Z</time>
      </trkpt>
      <trkpt lat="42.8254" lon="-1.5329719">
        <time>2022-07-03T14:12:27Z</time>
      </trkpt>
      <trkpt lat="42.825382" lon="-1.5329008">
        <time>2022-07-03T14:12:29Z</time>
      </trkpt>
      <trkpt lat="42.825363" lon="-1.5328345">
        <time>2022-07-03T14:12:31Z</time>
      </trkpt>
      <trkpt lat="42.82534" lon="-1.5327631">
        <time>2022-07-03T14:12:33Z</time>
      </trkpt>
      <trkpt lat="42.82532" lon="-1.5326972">
        <time>2022-07-03T14:12:35Z</time>
      </trkpt>
      <trkpt lat="42.825302" lon="-1.5326269">
        <time>2022-07-03T14:12:37Z</time>
      </trkpt>
      <trkpt lat="42.82528" lon="-1.5325586">
        <time>2022-07-03T14:12:39Z</time>
      </trkpt>
      <trkpt lat="42.82526" lon="-1.5324899">
        <time>2022-07-03T14:12:41Z</time>
      </trkpt>
      <trkpt lat="42.825237" lon="-1.5324202">
        <time>2022-07-03T14:12:43Z</time>
      </trkpt>
      <trkpt lat="42.82522" lon="-1.5323526">
        <time>2022-07-03T14:12:45Z</time>
      </trkpt>
      <trkpt lat="42.825195" lon="-1.5322825">
        <time>2022-07-03T14:12:47Z</time>
      </trkpt>
      <trkpt lat="42.825172" lon="-1.5322188">
        <time>2022-07-03T14:12:49Z</time>
      </trkpt>
      <trkpt lat="42.82515" lon="-1.5321549">
        <time>2022-07-03T14:12:51Z</time>
      </trkpt>
      <trkpt lat="42.82513" lon="-1.5320898">
        <time>2022-07-03T14:12:53Z</time>
      </trkpt>
      <trkpt lat="42.825108" lon="-1.5320243">
        <time>2022-07-03T14:12:55Z</time>
      </trkpt>
      <trkpt lat="42.825085" lon="-1.5319562">
        <time>2022-07-03T14:12:57Z</time>
      </trkpt>
      <trkpt lat="42.82506" lon="-1.5318872">
        <time>2022-07-03T14:12:59Z</time>
      </trkpt>
      <trkpt lat="42.82504" lon="-1.5318179">
        <time>2022-07-03T14:13:01Z</time>
      </trkpt>
      <trkpt lat="42.825016" lon="-1.5317442">
        <time>2022-07-03T14:13:03Z</time>
      </trkpt>
      <trkpt lat="42.824993" lon="-1.5316682">
        <time>2022-07-03T14:13:05Z</time>
      </trkpt>
      <trkpt lat="42.82497" lon="-1.5315882">
        <time>2022-07-03T14:13:07Z</time>
      </trkpt>
      <trkpt lat="42.824947" lon="-1.5315065">
        <time>2022-07-03T14:13:09Z</time>
      </trkpt>
      <trkpt lat="42.82492" lon="-1.5314176">
        <time>2022-07-03T14:13:11Z</time>
      </trkpt>
      <trkpt lat="42.824898" lon="-1.5313329">
        <time>2022-07-03T14:13:13Z</time>
      </trkpt>
      <trkpt lat="42.824875" lon="-1.5312419">
        <time>2022-07-03T14:13:15Z</time>
      </trkpt>
      <trkpt lat="42.824852" lon="-1.5311526">
        <time>2022-07-03T14:13:17Z</time>
      </trkpt>
      <trkpt lat="42.82483" lon="-1.5310615">
        <time>2022-07-03T14:13:19Z</time>
      </trkpt>
      <trkpt lat="42.824806" lon="-1.5309682">
        <time>2022-07-03T14:13:21Z</time>
      </trkpt>
      <trkpt lat="42.82479" lon="-1.5308766">
        <time>2022-07-03T14:13:23Z</time>
      </trkpt>
      <trkpt lat="42.82477" lon="-1.5307833">
        <time>2022-07-03T14:13:25Z</time>
      </trkpt>
      <trkpt lat="42.824757" lon="-1.5306956">
        <time>2022-07-03T14:13:27Z</time>
      </trkpt>
      <trkpt lat="42.824738" lon="-1.5306042">
        <time>2022-07-03T14:13:29Z</time>
      </trkpt>
      <trkpt lat="42.824722" lon="-1.5305179">
        <time>2022-07-03T14:13:31Z</time>
      </trkpt>
      <trkpt lat="42.824703" lon="-1.5304326">
        <time>2022-07-03T14:13:33Z</time>
      </trkpt>
      <trkpt lat="42.824688" lon="-1.5303413">
        <time>2022-07-03T14:13:35Z</time>
      </trkpt>
      <trkpt lat="42.824665" lon="-1.5301993">
        <time>2022-07-03T14:13:38Z</time>
      </trkpt>
      <trkpt lat="42.824654" lon="-1.5301019">
        <time>2022-07-03T14:13:40Z</time>
      </trkpt>
      <trkpt lat="42.824646" lon="-1.5300033">
        <time>2022-07-03T14:13:42Z</time>
      </trkpt>
      <trkpt lat="42.824635" lon="-1.5298979">
        <time>2022-07-03T14:13:44Z</time>
      </trkpt>
      <trkpt lat="42.824623" lon="-1.5297866">
        <time>2022-07-03T14:13:46Z</time>
      </trkpt>
      <trkpt lat="42.82461" lon="-1.5296667">
        <time>2022-07-03T14:13:48Z</time>
      </trkpt>
      <trkpt lat="42.824596" lon="-1.529544">
        <time>2022-07-03T14:13:50Z</time>
      </trkpt>
      <trkpt lat="42.82458" lon="-1.529418">
        <time>2022-07-03T14:13:52Z</time>
      </trkpt>
      <trkpt lat="42.82457" lon="-1.5293493">
        <time>2022-07-03T14:13:53Z</time>
      </trkpt>
      <trkpt lat="42.824554" lon="-1.5292137">
        <time>2022-07-03T14:13:55Z</time>
      </trkpt>
      <trkpt lat="42.824547" lon="-1.52914">
        <time>2022-07-03T14:13:56Z</time>
      </trkpt>
      <trkpt lat="42.82454" lon="-1.529065">
        <time>2022-07-03T14:13:57Z</time>
      </trkpt>
      <trkpt lat="42.82453" lon="-1.5289886">
        <time>2022-07-03T14:13:58Z</time>
      </trkpt>
      <trkpt lat="42.82452" lon="-1.5289116">
        <time>2022-07-03T14:13:59Z</time>
      </trkpt>
      <trkpt lat="42.824512" lon="-1.528836">
        <time>2022-07-03T14:14:00Z</time>
      </trkpt>
      <trkpt lat="42.8245" lon="-1.5287607">
        <time>2022-07-03T14:14:01Z</time>
      </trkpt>
      <trkpt lat="42.824493" lon="-1.5286846">
        <time>2022-07-03T14:14:02Z</time>
      </trkpt>
      <trkpt lat="42.824486" lon="-1.528613">
        <time>2022-07-03T14:14:03Z</time>
      </trkpt>
      <trkpt lat="42.82448" lon="-1.5285397">
        <time>2022-07-03T14:14:04Z</time>
      </trkpt>
      <trkpt lat="42.824467" lon="-1.5284606">
        <time>2022-07-03T14:14:05Z</time>
      </trkpt>
      <trkpt lat="42.82446" lon="-1.528383">
        <time>2022-07-03T14:14:06Z</time>
      </trkpt>
      <trkpt lat="42.824448" lon="-1.5283064">
        <time>2022-07-03T14:14:07Z</time>
      </trkpt>
      <trkpt lat="42.82444" lon="-1.5282303">
        <time>2022-07-03T14:14:08Z</time>
      </trkpt>
      <trkpt lat="42.824432" lon="-1.528159">
        <time>2022-07-03T14:14:09Z</time>
      </trkpt>
      <trkpt lat="42.824425" lon="-1.5280807">
        <time>2022-07-03T14:14:10Z</time>
      </trkpt>
      <trkpt lat="42.824413" lon="-1.5280037">
        <time>2022-07-03T14:14:11Z</time>
      </trkpt>
      <trkpt lat="42.824406" lon="-1.5279274">
        <time>2022-07-03T14:14:12Z</time>
      </trkpt>
      <trkpt lat="42.824398" lon="-1.5278571">
        <time>2022-07-03T14:14:13Z</time>
      </trkpt>
      <trkpt lat="42.82439" lon="-1.52778">
        <time>2022-07-03T14:14:14Z</time>
      </trkpt>
      <trkpt lat="42.824383" lon="-1.5277051">
        <time>2022-07-03T14:14:15Z</time>
      </trkpt>
      <trkpt lat="42.824375" lon="-1.527632">
        <time>2022-07-03T14:14:16Z</time>
      </trkpt>
      <trkpt lat="42.824368" lon="-1.5275607">
        <time>2022-07-03T14:14:17Z</time>
      </trkpt>
      <trkpt lat="42.82436" lon="-1.52749">
        <time>2022-07-03T14:14:18Z</time>
      </trkpt>
      <trkpt lat="42.824352" lon="-1.5274254">
        <time>2022-07-03T14:14:19Z</time>
      </trkpt>
      <trkpt lat="42.824345" lon="-1.527356">
        <time>2022-07-03T14:14:20Z</time>
      </trkpt>
      <trkpt lat="42.82433" lon="-1.5272248">
        <time>2022-07-03T14:14:22Z</time>
      </trkpt>
      <trkpt lat="42.824314" lon="-1.5270897">
        <time>2022-07-03T14:14:24Z</time>
      </trkpt>
      <trkpt lat="42.8243" lon="-1.5269527">
        <time>2022-07-03T14:14:26Z</time>
      </trkpt>
      <trkpt lat="42.82429" lon="-1.526885">
        <time>2022-07-03T14:14:27Z</time>
      </trkpt>
      <trkpt lat="42.824276" lon="-1.5267444">
        <time>2022-07-03T14:14:29Z</time>
      </trkpt>
      <trkpt lat="42.82427" lon="-1.5266734">
        <time>2022-07-03T14:14:30Z</time>
      </trkpt>
      <trkpt lat="42.82426" lon="-1.5266037">
        <time>2022-07-03T14:14:31Z</time>
      </trkpt>
      <trkpt lat="42.82425" lon="-1.5264695">
        <time>2022-07-03T14:14:33Z</time>
      </trkpt>
      <trkpt lat="42.82424" lon="-1.5264044">
        <time>2022-07-03T14:14:34Z</time>
      </trkpt>
      <trkpt lat="42.824223" lon="-1.5262707">
        <time>2022-07-03T14:14:36Z</time>
      </trkpt>
      <trkpt lat="42.824215" lon="-1.526203">
        <time>2022-07-03T14:14:37Z</time>
      </trkpt>
      <trkpt lat="42.824207" lon="-1.526136">
        <time>2022-07-03T14:14:38Z</time>
      </trkpt>
      <trkpt lat="42.824192" lon="-1.5260037">
        <time>2022-07-03T14:14:40Z</time>
      </trkpt>
      <trkpt lat="42.824173" lon="-1.5258697">
        <time>2022-07-03T14:14:42Z</time>
      </trkpt>
      <trkpt lat="42.824158" lon="-1.5257381">
        <time>2022-07-03T14:14:44Z</time>
      </trkpt>
      <trkpt lat="42.82414" lon="-1.5256108">
        <time>2022-07-03T14:14:46Z</time>
      </trkpt>
      <trkpt lat="42.82412" lon="-1.5254881">
        <time>2022-07-03T14:14:48Z</time>
      </trkpt>
      <trkpt lat="42.824104" lon="-1.5253705">
        <time>2022-07-03T14:14:50Z</time>
      </trkpt>
      <trkpt lat="42.82408" lon="-1.5252588">
        <time>2022-07-03T14:14:52Z</time>
      </trkpt>
      <trkpt lat="42.824062" lon="-1.5251518">
        <time>2022-07-03T14:14:54Z</time>
      </trkpt>
      <trkpt lat="42.824043" lon="-1.5250582">
        <time>2022-07-03T14:14:56Z</time>
      </trkpt>
      <trkpt lat="42.82402" lon="-1.5249691">
        <time>2022-07-03T14:14:58Z</time>
      </trkpt>
      <trkpt lat="42.824" lon="-1.5248871">
        <time>2022-07-03T14:15:00Z</time>
      </trkpt>
      <trkpt lat="42.82398" lon="-1.5248111">
        <time>2022-07-03T14:15:02Z</time>
      </trkpt>
      <trkpt lat="42.823956" lon="-1.5247371">
        <time>2022-07-03T14:15:04Z</time>
      </trkpt>
      <trkpt lat="42.823933" lon="-1.5246688">
        <time>2022-07-03T14:15:06Z</time>
      </trkpt>
      <trkpt lat="42.82391" lon="-1.5246001">
        <time>2022-07-03T14:15:08Z</time>
      </trkpt>
      <trkpt lat="42.823887" lon="-1.5245305">
        <time>2022-07-03T14:15:10Z</time>
      </trkpt>
      <trkpt lat="42.82386" lon="-1.5244619">
        <time>2022-07-03T14:15:12Z</time>
      </trkpt>
      <trkpt lat="42.823833" lon="-1.5243951">
        <time>2022-07-03T14:15:14Z</time>
      </trkpt>
      <trkpt lat="42.823807" lon="-1.5243318">
        <time>2022-07-03T14:15:16Z</time>
      </trkpt>
      <trkpt lat="42.823784" lon="-1.5242711">
        <time>2022-07-03T14:15:18Z</time>
      </trkpt>
      <trkpt lat="42.823757" lon="-1.5242125">
        <time>2022-07-03T14:15:20Z</time>
      </trkpt>
      <trkpt lat="42.82372" lon="-1.5241269">
        <time>2022-07-03T14:15:23Z</time>
      </trkpt>
      <trkpt lat="42.823685" lon="-1.5240402">
        <time>2022-07-03T14:15:26Z</time>
      </trkpt>
      <trkpt lat="42.82365" lon="-1.5239522">
        <time>2022-07-03T14:15:29Z</time>
      </trkpt>
      <trkpt lat="42.823612" lon="-1.5238672">
        <time>2022-07-03T14:15:32Z</time>
      </trkpt>
      <trkpt lat="42.823586" lon="-1.5238116">
        <time>2022-07-03T14:15:34Z</time>
      </trkpt>
      <trkpt lat="42.82354" lon="-1.5237262">
        <time>2022-07-03T14:15:37Z</time>
      </trkpt>
      <trkpt lat="42.823517" lon="-1.5236698">
        <time>2022-07-03T14:15:39Z</time>
      </trkpt>
      <trkpt lat="42.82348" lon="-1.5235882">
        <time>2022-07-03T14:15:42Z</time>
      </trkpt>
      <trkpt lat="42.82346" lon="-1.5235336">
        <time>2022-07-03T14:15:44Z</time>
      </trkpt>
      <trkpt lat="42.823425" lon="-1.5234559">
        <time>2022-07-03T14:15:47Z</time>
      </trkpt>
      <trkpt lat="42.82339" lon="-1.5233732">
        <time>2022-07-03T14:15:50Z</time>
      </trkpt>
      <trkpt lat="42.823357" lon="-1.5232903">
        <time>2022-07-03T14:15:53Z</time>
      </trkpt>
      <trkpt lat="42.823322" lon="-1.5232129">
        <time>2022-07-03T14:15:56Z</time>
      </trkpt>
      <trkpt lat="42.82329" lon="-1.5231429">
        <time>2022-07-03T14:15:59Z</time>
      </trkpt>
      <trkpt lat="42.823265" lon="-1.5230772">
        <time>2022-07-03T14:16:02Z</time>
      </trkpt>
      <trkpt lat="42.82324" lon="-1.5230106">
        <time>2022-07-03T14:16:05Z</time>
      </trkpt>
      <trkpt lat="42.823208" lon="-1.5229459">
        <time>2022-07-03T14:16:08Z</time>
      </trkpt>
      <trkpt lat="42.823185" lon="-1.5228883">
        <time>2022-07-03T14:16:11Z</time>
      </trkpt>
      <trkpt lat="42.823162" lon="-1.5228132">
        <time>2022-07-03T14:16:15Z</time>
      </trkpt>
      <trkpt lat="42.82313" lon="-1.5227352">
        <time>2022-07-03T14:16:19Z</time>
      </trkpt>
      <trkpt lat="42.823105" lon="-1.522653">
        <time>2022-07-03T14:16:23Z</time>
      </trkpt>
      <trkpt lat="42.82308" lon="-1.5225906">
        <time>2022-07-03T14:16:26Z</time>
      </trkpt>
      <trkpt lat="42.823055" lon="-1.5225066">
        <time>2022-07-03T14:16:30Z</time>
      </trkpt>
      <trkpt lat="42.823036" lon="-1.5224429">
        <time>2022-07-03T14:16:33Z</time>
      </trkpt>
      <trkpt lat="42.82301" lon="-1.5223546">
        <time>2022-07-03T14:16:37Z</time>
      </trkpt>
      <trkpt lat="42.82299" lon="-1.5222826">
        <time>2022-07-03T14:16:40Z</time>
      </trkpt>
      <trkpt lat="42.822968" lon="-1.5222067">
        <time>2022-07-03T14:16:43Z</time>
      </trkpt>
      <trkpt lat="42.82294" lon="-1.5221293">
        <time>2022-07-03T14:16:46Z</time>
      </trkpt>
      <trkpt lat="42.822918" lon="-1.5220267">
        <time>2022-07-03T14:16:50Z</time>
      </trkpt>
      <trkpt lat="42.8229" lon="-1.5219483">
        <time>2022-07-03T14:16:53Z</time>
      </trkpt>
      <trkpt lat="42.822872" lon="-1.5218726">
        <time>2022-07-03T14:16:56Z</time>
      </trkpt>
      <trkpt lat="42.82285" lon="-1.5217973">
        <time>2022-07-03T14:16:59Z</time>
      </trkpt>
      <trkpt lat="42.82283" lon="-1.5217206">
        <time>2022-07-03T14:17:02Z</time>
      </trkpt>
      <trkpt lat="42.82281" lon="-1.5216453">
        <time>2022-07-03T14:17:05Z</time>
      </trkpt>
      <trkpt lat="42.82279" lon="-1.5215733">
        <time>2022-07-03T14:17:08Z</time>
      </trkpt>
      <trkpt lat="42.82277" lon="-1.521497">
        <time>2022-07-03T14:17:11Z</time>
      </trkpt>
      <trkpt lat="42.822754" lon="-1.5214204">
        <time>2022-07-03T14:17:14Z</time>
      </trkpt>
      <trkpt lat="42.822735" lon="-1.5213404">
        <time>2022-07-03T14:17:17Z</time>
      </trkpt>
      <trkpt lat="42.822712" lon="-1.5212597">
        <time>2022-07-03T14:17:20Z</time>
      </trkpt>
      <trkpt lat="42.82269" lon="-1.5211877">
        <time>2022-07-03T14:17:23Z</time>
      </trkpt>
      <trkpt lat="42.822666" lon="-1.521108">
        <time>2022-07-03T14:17:26Z</time>
      </trkpt>
      <trkpt lat="42.822643" lon="-1.521034">
        <time>2022-07-03T14:17:29Z</time>
      </trkpt>
      <trkpt lat="42.82262" lon="-1.5209587">
        <time>2022-07-03T14:17:32Z</time>
      </trkpt>
      <trkpt lat="42.822594" lon="-1.5208844">
        <time>2022-07-03T14:17:35Z</time>
      </trkpt>
      <trkpt lat="42.822567" lon="-1.5208083">
        <time>2022-07-03T14:17:38Z</time>
      </trkpt>
      <trkpt lat="42.822548" lon="-1.520732">
        <time>2022-07-03T14:17:41Z</time>
      </trkpt>
      <trkpt lat="42.822533" lon="-1.520655">
        <time>2022-07-03T14:17:44Z</time>
      </trkpt>
      <trkpt lat="42.822514" lon="-1.5205806">
        <time>2022-07-03T14:17:47Z</time>
      </trkpt>
      <trkpt lat="42.8225" lon="-1.520504">
        <time>2022-07-03T14:17:50Z</time>
      </trkpt>
      <trkpt lat="42.82247" lon="-1.5203977">
        <time>2022-07-03T14:17:54Z</time>
      </trkpt>
      <trkpt lat="42.822445" lon="-1.5203221">
        <time>2022-07-03T14:17:57Z</time>
      </trkpt>
      <trkpt lat="42.822422" lon="-1.5202444">
        <time>2022-07-03T14:18:00Z</time>
      </trkpt>
      <trkpt lat="42.822395" lon="-1.5201694">
        <time>2022-07-03T14:18:03Z</time>
      </trkpt>
      <trkpt lat="42.82237" lon="-1.5200914">
        <time>2022-07-03T14:18:06Z</time>
      </trkpt>
      <trkpt lat="42.822342" lon="-1.52002">
        <time>2022-07-03T14:18:09Z</time>
      </trkpt>
      <trkpt lat="42.82231" lon="-1.5199474">
        <time>2022-07-03T14:18:12Z</time>
      </trkpt>
      <trkpt lat="42.822285" lon="-1.5198724">
        <time>2022-07-03T14:18:15Z</time>
      </trkpt>
      <trkpt lat="42.822254" lon="-1.5197884">
        <time>2022-07-03T14:18:18Z</time>
      </trkpt>
      <trkpt lat="42.822216" lon="-1.5196977">
        <time>2022-07-03T14:18:21Z</time>
      </trkpt>
      <trkpt lat="42.822186" lon="-1.5196371">
        <time>2022-07-03T14:18:23Z</time>
      </trkpt>
      <trkpt lat="42.822155" lon="-1.5195764">
        <time>2022-07-03T14:18:25Z</time>
      </trkpt>
      <trkpt lat="42.822124" lon="-1.5195144">
        <time>2022-07-03T14:18:27Z</time>
      </trkpt>
      <trkpt lat="42.822094" lon="-1.5194541">
        <time>2022-07-03T14:18:29Z</time>
      </trkpt>
      <trkpt lat="42.82206" lon="-1.5193974">
        <time>2022-07-03T14:18:31Z</time>
      </trkpt>
      <trkpt lat="42.82203" lon="-1.5193424">
        <time>2022-07-03T14:18:33Z</time>
      </trkpt>
      <trkpt lat="42.82198" lon="-1.5192578">
        <time>2022-07-03T14:18:36Z</time>
      </trkpt>
      <trkpt lat="42.82195" lon="-1.5192071">
        <time>2022-07-03T14:18:38Z</time>
      </trkpt>
      <trkpt lat="42.821903" lon="-1.5191301">
        <time>2022-07-03T14:18:41Z</time>
      </trkpt>
      <trkpt lat="42.821873" lon="-1.5190798">
        <time>2022-07-03T14:18:43Z</time>
      </trkpt>
      <trkpt lat="42.821827" lon="-1.519008">
        <time>2022-07-03T14:18:46Z</time>
      </trkpt>
      <trkpt lat="42.821793" lon="-1.5189614">
        <time>2022-07-03T14:18:48Z</time>
      </trkpt>
      <trkpt lat="42.82174" lon="-1.5188904">
        <time>2022-07-03T14:18:51Z</time>
      </trkpt>
      <trkpt lat="42.82167" lon="-1.5187885">
        <time>2022-07-03T14:18:55Z</time>
      </trkpt>
      <trkpt lat="42.821632" lon="-1.5187315">
        <time>2022-07-03T14:18:57Z</time>
      </trkpt>
      <trkpt lat="42.82159" lon="-1.5186754">
        <time>2022-07-03T14:18:59Z</time>
      </trkpt>
      <trkpt lat="42.82155" lon="-1.5186201">
        <time>2022-07-03T14:19:01Z</time>
      </trkpt>
      <trkpt lat="42.821503" lon="-1.5185635">
        <time>2022-07-03T14:19:03Z</time>
      </trkpt>
      <trkpt lat="42.82146" lon="-1.5185058">
        <time>2022-07-03T14:19:05Z</time>
      </trkpt>
      <trkpt lat="42.821415" lon="-1.5184464">
        <time>2022-07-03T14:19:07Z</time>
      </trkpt>
      <trkpt lat="42.82137" lon="-1.5183824">
        <time>2022-07-03T14:19:09Z</time>
      </trkpt>
      <trkpt lat="42.821323" lon="-1.5183148">
        <time>2022-07-03T14:19:11Z</time>
      </trkpt>
      <trkpt lat="42.821278" lon="-1.5182434">
        <time>2022-07-03T14:19:13Z</time>
      </trkpt>
      <trkpt lat="42.821228" lon="-1.5181729">
        <time>2022-07-03T14:19:15Z</time>
      </trkpt>
      <trkpt lat="42.821175" lon="-1.5180978">
        <time>2022-07-03T14:19:17Z</time>
      </trkpt>
      <trkpt lat="42.821125" lon="-1.5180222">
        <time>2022-07-03T14:19:19Z</time>
      </trkpt>
      <trkpt lat="42.821075" lon="-1.5179448">
        <time>2022-07-03T14:19:21Z</time>
      </trkpt>
      <trkpt lat="42.82102" lon="-1.5178608">
        <time>2022-07-03T14:19:23Z</time>
      </trkpt>
      <trkpt lat="42.82097" lon="-1.5177832">
        <time>2022-07-03T14:19:25Z</time>
      </trkpt>
      <trkpt lat="42.820915" lon="-1.5177062">
        <time>2022-07-03T14:19:27Z</time>
      </trkpt>
      <trkpt lat="42.820866" lon="-1.5176265">
        <time>2022-07-03T14:19:29Z</time>
      </trkpt>
      <trkpt lat="42.820816" lon="-1.5175529">
        <time>2022-07-03T14:19:31Z</time>
      </trkpt>
      <trkpt lat="42.82077" lon="-1.5174801">
        <time>2022-07-03T14:19:33Z</time>
      </trkpt>
      <trkpt lat="42.820724" lon="-1.5174081">
        <time>2022-07-03T14:19:35Z</time>
      </trkpt>
      <trkpt lat="42.82068" lon="-1.5173352">
        <time>2022-07-03T14:19:37Z</time>
      </trkpt>
      <trkpt lat="42.820625" lon="-1.5172589">
        <time>2022-07-03T14:19:39Z</time>
      </trkpt>
      <trkpt lat="42.82057" lon="-1.5171806">
        <time>2022-07-03T14:19:41Z</time>
      </trkpt>
      <trkpt lat="42.82052" lon="-1.5170969">
        <time>2022-07-03T14:19:43Z</time>
      </trkpt>
      <trkpt lat="42.820465" lon="-1.5170115">
        <time>2022-07-03T14:19:45Z</time>
      </trkpt>
      <trkpt lat="42.82041" lon="-1.5169245">
        <time>2022-07-03T14:19:47Z</time>
      </trkpt>
      <trkpt lat="42.82036" lon="-1.5168349">
        <time>2022-07-03T14:19:49Z</time>
      </trkpt>
      <trkpt lat="42.820305" lon="-1.5167428">
        <time>2022-07-03T14:19:51Z</time>
      </trkpt>
      <trkpt lat="42.820255" lon="-1.5166509">
        <time>2022-07-03T14:19:53Z</time>
      </trkpt>
      <trkpt lat="42.8202" lon="-1.5165572">
        <time>2022-07-03T14:19:55Z</time>
      </trkpt>
      <trkpt lat="42.820145" lon="-1.5164605">
        <time>2022-07-03T14:19:57Z</time>
      </trkpt>
      <trkpt lat="42.820087" lon="-1.5163605">
        <time>2022-07-03T14:19:59Z</time>
      </trkpt>
      <trkpt lat="42.82003" lon="-1.5162632">
        <time>2022-07-03T14:20:01Z</time>
      </trkpt>
      <trkpt lat="42.819973" lon="-1.5161675">
        <time>2022-07-03T14:20:03Z</time>
      </trkpt>
      <trkpt lat="42.8199" lon="-1.5160512">
        <time>2022-07-03T14:20:06Z</time>
      </trkpt>
      <trkpt lat="42.819866" lon="-1.515994">
        <time>2022-07-03T14:20:07Z</time>
      </trkpt>
      <trkpt lat="42.81983" lon="-1.5159396">
        <time>2022-07-03T14:20:08Z</time>
      </trkpt>
      <trkpt lat="42.819798" lon="-1.5158873">
        <time>2022-07-03T14:20:09Z</time>
      </trkpt>
      <trkpt lat="42.81974" lon="-1.5157839">
        <time>2022-07-03T14:20:11Z</time>
      </trkpt>
      <trkpt lat="42.81968" lon="-1.5156819">
        <time>2022-07-03T14:20:13Z</time>
      </trkpt>
      <trkpt lat="42.819645" lon="-1.5156276">
        <time>2022-07-03T14:20:14Z</time>
      </trkpt>
      <trkpt lat="42.819584" lon="-1.5155236">
        <time>2022-07-03T14:20:16Z</time>
      </trkpt>
      <trkpt lat="42.819527" lon="-1.5154222">
        <time>2022-07-03T14:20:18Z</time>
      </trkpt>
      <trkpt lat="42.819496" lon="-1.5153712">
        <time>2022-07-03T14:20:19Z</time>
      </trkpt>
      <trkpt lat="42.819435" lon="-1.5152663">
        <time>2022-07-03T14:20:21Z</time>
      </trkpt>
      <trkpt lat="42.81937" lon="-1.515163">
        <time>2022-07-03T14:20:23Z</time>
      </trkpt>
      <trkpt lat="42.8193" lon="-1.5150539">
        <time>2022-07-03T14:20:25Z</time>
      </trkpt>
      <trkpt lat="42.819267" lon="-1.5149972">
        <time>2022-07-03T14:20:26Z</time>
      </trkpt>
      <trkpt lat="42.819233" lon="-1.514941">
        <time>2022-07-03T14:20:27Z</time>
      </trkpt>
      <trkpt lat="42.819202" lon="-1.5148876">
        <time>2022-07-03T14:20:28Z</time>
      </trkpt>
      <trkpt lat="42.819168" lon="-1.5148319">
        <time>2022-07-03T14:20:29Z</time>
      </trkpt>
      <trkpt lat="42.8191" lon="-1.5147107">
        <time>2022-07-03T14:20:31Z</time>
      </trkpt>
      <trkpt lat="42.819065" lon="-1.5146496">
        <time>2022-07-03T14:20:32Z</time>
      </trkpt>
      <trkpt lat="42.81903" lon="-1.5145886">
        <time>2022-07-03T14:20:33Z</time>
      </trkpt>
      <trkpt lat="42.818993" lon="-1.5145273">
        <time>2022-07-03T14:20:34Z</time>
      </trkpt>
      <trkpt lat="42.818962" lon="-1.51447">
        <time>2022-07-03T14:20:35Z</time>
      </trkpt>
      <trkpt lat="42.818924" lon="-1.514406">
        <time>2022-07-03T14:20:36Z</time>
      </trkpt>
      <trkpt lat="42.818886" lon="-1.5143423">
        <time>2022-07-03T14:20:37Z</time>
      </trkpt>
      <trkpt lat="42.818848" lon="-1.5142776">
        <time>2022-07-03T14:20:38Z</time>
      </trkpt>
      <trkpt lat="42.818813" lon="-1.5142167">
        <time>2022-07-03T14:20:39Z</time>
      </trkpt>
      <trkpt lat="42.81878" lon="-1.5141536">
        <time>2022-07-03T14:20:40Z</time>
      </trkpt>
      <trkpt lat="42.818745" lon="-1.5140846">
        <time>2022-07-03T14:20:41Z</time>
      </trkpt>
      <trkpt lat="42.818707" lon="-1.5140146">
        <time>2022-07-03T14:20:42Z</time>
      </trkpt>
      <trkpt lat="42.81867" lon="-1.5139446">
        <time>2022-07-03T14:20:43Z</time>
      </trkpt>
      <trkpt lat="42.81863" lon="-1.5138752">
        <time>2022-07-03T14:20:44Z</time>
      </trkpt>
      <trkpt lat="42.818596" lon="-1.5138113">
        <time>2022-07-03T14:20:45Z</time>
      </trkpt>
      <trkpt lat="42.818554" lon="-1.5137403">
        <time>2022-07-03T14:20:46Z</time>
      </trkpt>
      <trkpt lat="42.818516" lon="-1.513669">
        <time>2022-07-03T14:20:47Z</time>
      </trkpt>
      <trkpt lat="42.818478" lon="-1.513602">
        <time>2022-07-03T14:20:48Z</time>
      </trkpt>
      <trkpt lat="42.81844" lon="-1.5135319">
        <time>2022-07-03T14:20:49Z</time>
      </trkpt>
      <trkpt lat="42.8184" lon="-1.513459">
        <time>2022-07-03T14:20:50Z</time>
      </trkpt>
      <trkpt lat="42.818363" lon="-1.513386">
        <time>2022-07-03T14:20:51Z</time>
      </trkpt>
      <trkpt lat="42.81832" lon="-1.5133046">
        <time>2022-07-03T14:20:52Z</time>
      </trkpt>
      <trkpt lat="42.818283" lon="-1.5132283">
        <time>2022-07-03T14:20:53Z</time>
      </trkpt>
      <trkpt lat="42.818245" lon="-1.5131513">
        <time>2022-07-03T14:20:54Z</time>
      </trkpt>
      <trkpt lat="42.818207" lon="-1.513073">
        <time>2022-07-03T14:20:55Z</time>
      </trkpt>
      <trkpt lat="42.818165" lon="-1.512996">
        <time>2022-07-03T14:20:56Z</time>
      </trkpt>
      <trkpt lat="42.818127" lon="-1.5129197">
        <time>2022-07-03T14:20:57Z</time>
      </trkpt>
      <trkpt lat="42.818085" lon="-1.5128427">
        <time>2022-07-03T14:20:58Z</time>
      </trkpt>
      <trkpt lat="42.818047" lon="-1.512764">
        <time>2022-07-03T14:20:59Z</time>
      </trkpt>
      <trkpt lat="42.81801" lon="-1.512685">
        <time>2022-07-03T14:21:00Z</time>
      </trkpt>
      <trkpt lat="42.81797" lon="-1.512603">
        <time>2022-07-03T14:21:01Z</time>
      </trkpt>
      <trkpt lat="42.817936" lon="-1.5125227">
        <time>2022-07-03T14:21:02Z</time>
      </trkpt>
      <trkpt lat="42.817867" lon="-1.5123613">
        <time>2022-07-03T14:21:04Z</time>
      </trkpt>
      <trkpt lat="42.817833" lon="-1.512279">
        <time>2022-07-03T14:21:05Z</time>
      </trkpt>
      <trkpt lat="42.8178" lon="-1.5121957">
        <time>2022-07-03T14:21:06Z</time>
      </trkpt>
      <trkpt lat="42.817764" lon="-1.5121124">
        <time>2022-07-03T14:21:07Z</time>
      </trkpt>
      <trkpt lat="42.81773" lon="-1.5120276">
        <time>2022-07-03T14:21:08Z</time>
      </trkpt>
      <trkpt lat="42.81769" lon="-1.5119433">
        <time>2022-07-03T14:21:09Z</time>
      </trkpt>
      <trkpt lat="42.817657" lon="-1.511858">
        <time>2022-07-03T14:21:10Z</time>
      </trkpt>
      <trkpt lat="42.817623" lon="-1.5117733">
        <time>2022-07-03T14:21:11Z</time>
      </trkpt>
      <trkpt lat="42.81759" lon="-1.5116887">
        <time>2022-07-03T14:21:12Z</time>
      </trkpt>
      <trkpt lat="42.81755" lon="-1.5116037">
        <time>2022-07-03T14:21:13Z</time>
      </trkpt>
      <trkpt lat="42.817516" lon="-1.5115176">
        <time>2022-07-03T14:21:14Z</time>
      </trkpt>
      <trkpt lat="42.81748" lon="-1.5114363">
        <time>2022-07-03T14:21:15Z</time>
      </trkpt>
      <trkpt lat="42.817444" lon="-1.5113534">
        <time>2022-07-03T14:21:16Z</time>
      </trkpt>
      <trkpt lat="42.817406" lon="-1.5112704">
        <time>2022-07-03T14:21:17Z</time>
      </trkpt>
      <trkpt lat="42.81736" lon="-1.5111817">
        <time>2022-07-03T14:21:18Z</time>
      </trkpt>
      <trkpt lat="42.817318" lon="-1.5110947">
        <time>2022-07-03T14:21:19Z</time>
      </trkpt>
      <trkpt lat="42.817272" lon="-1.5110041">
        <time>2022-07-03T14:21:20Z</time>
      </trkpt>
      <trkpt lat="42.817226" lon="-1.5109158">
        <time>2022-07-03T14:21:21Z</time>
      </trkpt>
      <trkpt lat="42.81718" lon="-1.5108314">
        <time>2022-07-03T14:21:22Z</time>
      </trkpt>
      <trkpt lat="42.817135" lon="-1.51075">
        <time>2022-07-03T14:21:23Z</time>
      </trkpt>
      <trkpt lat="42.817093" lon="-1.5106758">
        <time>2022-07-03T14:21:24Z</time>
      </trkpt>
      <trkpt lat="42.81705" lon="-1.5106021">
        <time>2022-07-03T14:21:25Z</time>
      </trkpt>
      <trkpt lat="42.817005" lon="-1.5105261">
        <time>2022-07-03T14:21:26Z</time>
      </trkpt>
      <trkpt lat="42.816963" lon="-1.5104591">
        <time>2022-07-03T14:21:27Z</time>
      </trkpt>
      <trkpt lat="42.816917" lon="-1.5103937">
        <time>2022-07-03T14:21:28Z</time>
      </trkpt>
      <trkpt lat="42.816875" lon="-1.5103297">
        <time>2022-07-03T14:21:29Z</time>
      </trkpt>
      <trkpt lat="42.816826" lon="-1.5102634">
        <time>2022-07-03T14:21:30Z</time>
      </trkpt>
      <trkpt lat="42.81678" lon="-1.5101994">
        <time>2022-07-03T14:21:31Z</time>
      </trkpt>
      <trkpt lat="42.816734" lon="-1.5101384">
        <time>2022-07-03T14:21:32Z</time>
      </trkpt>
      <trkpt lat="42.81669" lon="-1.5100794">
        <time>2022-07-03T14:21:33Z</time>
      </trkpt>
      <trkpt lat="42.81665" lon="-1.5100248">
        <time>2022-07-03T14:21:34Z</time>
      </trkpt>
      <trkpt lat="42.816605" lon="-1.5099664">
        <time>2022-07-03T14:21:35Z</time>
      </trkpt>
      <trkpt lat="42.81656" lon="-1.5099084">
        <time>2022-07-03T14:21:36Z</time>
      </trkpt>
      <trkpt lat="42.816517" lon="-1.5098561">
        <time>2022-07-03T14:21:37Z</time>
      </trkpt>
      <trkpt lat="42.81648" lon="-1.5098047">
        <time>2022-07-03T14:21:38Z</time>
      </trkpt>
      <trkpt lat="42.816437" lon="-1.5097535">
        <time>2022-07-03T14:21:39Z</time>
      </trkpt>
      <trkpt lat="42.816395" lon="-1.5097021">
        <time>2022-07-03T14:21:40Z</time>
      </trkpt>
      <trkpt lat="42.816353" lon="-1.5096505">
        <time>2022-07-03T14:21:41Z</time>
      </trkpt>
      <trkpt lat="42.81631" lon="-1.5096004">
        <time>2022-07-03T14:21:42Z</time>
      </trkpt>
      <trkpt lat="42.816273" lon="-1.5095518">
        <time>2022-07-03T14:21:43Z</time>
      </trkpt>
      <trkpt lat="42.81623" lon="-1.5095041">
        <time>2022-07-03T14:21:44Z</time>
      </trkpt>
      <trkpt lat="42.81619" lon="-1.5094575">
        <time>2022-07-03T14:21:45Z</time>
      </trkpt>
      <trkpt lat="42.81615" lon="-1.5094118">
        <time>2022-07-03T14:21:46Z</time>
      </trkpt>
      <trkpt lat="42.816113" lon="-1.5093665">
        <time>2022-07-03T14:21:47Z</time>
      </trkpt>
      <trkpt lat="42.816032" lon="-1.5092708">
        <time>2022-07-03T14:21:49Z</time>
      </trkpt>
      <trkpt lat="42.815956" lon="-1.5091811">
        <time>2022-07-03T14:21:51Z</time>
      </trkpt>
      <trkpt lat="42.81588" lon="-1.5090832">
        <time>2022-07-03T14:21:53Z</time>
      </trkpt>
      <trkpt lat="42.815838" lon="-1.5090362">
        <time>2022-07-03T14:21:54Z</time>
      </trkpt>
      <trkpt lat="42.815796" lon="-1.5089889">
        <time>2022-07-03T14:21:55Z</time>
      </trkpt>
      <trkpt lat="42.81575" lon="-1.5089358">
        <time>2022-07-03T14:21:56Z</time>
      </trkpt>
      <trkpt lat="42.81571" lon="-1.5088859">
        <time>2022-07-03T14:21:57Z</time>
      </trkpt>
      <trkpt lat="42.815662" lon="-1.5088341">
        <time>2022-07-03T14:21:58Z</time>
      </trkpt>
      <trkpt lat="42.815617" lon="-1.5087808">
        <time>2022-07-03T14:21:59Z</time>
      </trkpt>
      <trkpt lat="42.815567" lon="-1.5087259">
        <time>2022-07-03T14:22:00Z</time>
      </trkpt>
      <trkpt lat="42.815517" lon="-1.5086699">
        <time>2022-07-03T14:22:01Z</time>
      </trkpt>
      <trkpt lat="42.815468" lon="-1.5086125">
        <time>2022-07-03T14:22:02Z</time>
      </trkpt>
      <trkpt lat="42.81542" lon="-1.5085539">
        <time>2022-07-03T14:22:03Z</time>
      </trkpt>
      <trkpt lat="42.81537" lon="-1.5084941">
        <time>2022-07-03T14:22:04Z</time>
      </trkpt>
      <trkpt lat="42.81532" lon="-1.5084332">
        <time>2022-07-03T14:22:05Z</time>
      </trkpt>
      <trkpt lat="42.815266" lon="-1.5083718">
        <time>2022-07-03T14:22:06Z</time>
      </trkpt>
      <trkpt lat="42.815212" lon="-1.5083095">
        <time>2022-07-03T14:22:07Z</time>
      </trkpt>
      <trkpt lat="42.815105" lon="-1.5081835">
        <time>2022-07-03T14:22:09Z</time>
      </trkpt>
      <trkpt lat="42.815052" lon="-1.5081189">
        <time>2022-07-03T14:22:10Z</time>
      </trkpt>
      <trkpt lat="42.815" lon="-1.5080539">
        <time>2022-07-03T14:22:11Z</time>
      </trkpt>
      <trkpt lat="42.81494" lon="-1.5079849">
        <time>2022-07-03T14:22:12Z</time>
      </trkpt>
      <trkpt lat="42.81489" lon="-1.5079216">
        <time>2022-07-03T14:22:13Z</time>
      </trkpt>
      <trkpt lat="42.81484" lon="-1.5078582">
        <time>2022-07-03T14:22:14Z</time>
      </trkpt>
      <trkpt lat="42.814785" lon="-1.5077949">
        <time>2022-07-03T14:22:15Z</time>
      </trkpt>
      <trkpt lat="42.81473" lon="-1.5077325">
        <time>2022-07-03T14:22:16Z</time>
      </trkpt>
      <trkpt lat="42.814682" lon="-1.5076705">
        <time>2022-07-03T14:22:17Z</time>
      </trkpt>
      <trkpt lat="42.81463" lon="-1.5076092">
        <time>2022-07-03T14:22:18Z</time>
      </trkpt>
      <trkpt lat="42.814575" lon="-1.5075482">
        <time>2022-07-03T14:22:19Z</time>
      </trkpt>
      <trkpt lat="42.814526" lon="-1.5074875">
        <time>2022-07-03T14:22:20Z</time>
      </trkpt>
      <trkpt lat="42.814472" lon="-1.5074272">
        <time>2022-07-03T14:22:21Z</time>
      </trkpt>
      <trkpt lat="42.81442" lon="-1.5073652">
        <time>2022-07-03T14:22:22Z</time>
      </trkpt>
      <trkpt lat="42.81437" lon="-1.5073022">
        <time>2022-07-03T14:22:23Z</time>
      </trkpt>
      <trkpt lat="42.814316" lon="-1.5072399">
        <time>2022-07-03T14:22:24Z</time>
      </trkpt>
      <trkpt lat="42.814266" lon="-1.5071785">
        <time>2022-07-03T14:22:25Z</time>
      </trkpt>
      <trkpt lat="42.814217" lon="-1.5071229">
        <time>2022-07-03T14:22:26Z</time>
      </trkpt>
      <trkpt lat="42.814163" lon="-1.5070622">
        <time>2022-07-03T14:22:27Z</time>
      </trkpt>
      <trkpt lat="42.814114" lon="-1.5070032">
        <time>2022-07-03T14:22:28Z</time>
      </trkpt>
      <trkpt lat="42.814068" lon="-1.5069443">
        <time>2022-07-03T14:22:29Z</time>
      </trkpt>
      <trkpt lat="42.81402" lon="-1.5068866">
        <time>2022-07-03T14:22:30Z</time>
      </trkpt>
      <trkpt lat="42.813972" lon="-1.50683">
        <time>2022-07-03T14:22:31Z</time>
      </trkpt>
      <trkpt lat="42.813927" lon="-1.5067743">
        <time>2022-07-03T14:22:32Z</time>
      </trkpt>
      <trkpt lat="42.813885" lon="-1.5067192">
        <time>2022-07-03T14:22:33Z</time>
      </trkpt>
      <trkpt lat="42.81384" lon="-1.506666">
        <time>2022-07-03T14:22:34Z</time>
      </trkpt>
      <trkpt lat="42.813797" lon="-1.5066149">
        <time>2022-07-03T14:22:35Z</time>
      </trkpt>
      <trkpt lat="42.813755" lon="-1.5065652">
        <time>2022-07-03T14:22:36Z</time>
      </trkpt>
      <trkpt lat="42.813717" lon="-1.5065166">
        <time>2022-07-03T14:22:37Z</time>
      </trkpt>
      <trkpt lat="42.813675" lon="-1.5064689">
        <time>2022-07-03T14:22:38Z</time>
      </trkpt>
      <trkpt lat="42.813637" lon="-1.506423">
        <time>2022-07-03T14:22:39Z</time>
      </trkpt>
      <trkpt lat="42.8136" lon="-1.5063766">
        <time>2022-07-03T14:22:40Z</time>
      </trkpt>
      <trkpt lat="42.813522" lon="-1.5062853">
        <time>2022-07-03T14:22:42Z</time>
      </trkpt>
      <trkpt lat="42.813488" lon="-1.5062436">
        <time>2022-07-03T14:22:43Z</time>
      </trkpt>
      <trkpt lat="42.81341" lon="-1.506158">
        <time>2022-07-03T14:22:45Z</time>
      </trkpt>
      <trkpt lat="42.813377" lon="-1.5061159">
        <time>2022-07-03T14:22:46Z</time>
      </trkpt>
      <trkpt lat="42.813305" lon="-1.5060316">
        <time>2022-07-03T14:22:48Z</time>
      </trkpt>
      <trkpt lat="42.81324" lon="-1.5059507">
        <time>2022-07-03T14:22:50Z</time>
      </trkpt>
      <trkpt lat="42.813175" lon="-1.5058733">
        <time>2022-07-03T14:22:52Z</time>
      </trkpt>
      <trkpt lat="42.81311" lon="-1.5057993">
        <time>2022-07-03T14:22:54Z</time>
      </trkpt>
      <trkpt lat="42.81305" lon="-1.5057267">
        <time>2022-07-03T14:22:56Z</time>
      </trkpt>
      <trkpt lat="42.812992" lon="-1.5056573">
        <time>2022-07-03T14:22:58Z</time>
      </trkpt>
      <trkpt lat="42.81293" lon="-1.505591">
        <time>2022-07-03T14:23:00Z</time>
      </trkpt>
      <trkpt lat="42.812874" lon="-1.5055263">
        <time>2022-07-03T14:23:02Z</time>
      </trkpt>
      <trkpt lat="42.812817" lon="-1.505463">
        <time>2022-07-03T14:23:04Z</time>
      </trkpt>
      <trkpt lat="42.81276" lon="-1.5053993">
        <time>2022-07-03T14:23:06Z</time>
      </trkpt>
      <trkpt lat="42.812702" lon="-1.505337">
        <time>2022-07-03T14:23:08Z</time>
      </trkpt>
      <trkpt lat="42.812645" lon="-1.5052783">
        <time>2022-07-03T14:23:10Z</time>
      </trkpt>
      <trkpt lat="42.812584" lon="-1.505219">
        <time>2022-07-03T14:23:12Z</time>
      </trkpt>
      <trkpt lat="42.812523" lon="-1.5051594">
        <time>2022-07-03T14:23:14Z</time>
      </trkpt>
      <trkpt lat="42.81246" lon="-1.5051017">
        <time>2022-07-03T14:23:16Z</time>
      </trkpt>
      <trkpt lat="42.8124" lon="-1.505043">
        <time>2022-07-03T14:23:18Z</time>
      </trkpt>
      <trkpt lat="42.81234" lon="-1.5049851">
        <time>2022-07-03T14:23:20Z</time>
      </trkpt>
      <trkpt lat="42.812275" lon="-1.504927">
        <time>2022-07-03T14:23:22Z</time>
      </trkpt>
      <trkpt lat="42.81221" lon="-1.5048693">
        <time>2022-07-03T14:23:24Z</time>
      </trkpt>
      <trkpt lat="42.812145" lon="-1.5048137">
        <time>2022-07-03T14:23:26Z</time>
      </trkpt>
      <trkpt lat="42.81208" lon="-1.5047604">
        <time>2022-07-03T14:23:28Z</time>
      </trkpt>
      <trkpt lat="42.81201" lon="-1.504706">
        <time>2022-07-03T14:23:30Z</time>
      </trkpt>
      <trkpt lat="42.81194" lon="-1.5046498">
        <time>2022-07-03T14:23:32Z</time>
      </trkpt>
      <trkpt lat="42.811863" lon="-1.5045897">
        <time>2022-07-03T14:23:34Z</time>
      </trkpt>
      <trkpt lat="42.81182" lon="-1.5045611">
        <time>2022-07-03T14:23:35Z</time>
      </trkpt>
      <trkpt lat="42.81174" lon="-1.5045007">
        <time>2022-07-03T14:23:37Z</time>
      </trkpt>
      <trkpt lat="42.811657" lon="-1.5044425">
        <time>2022-07-03T14:23:39Z</time>
      </trkpt>
      <trkpt lat="42.811573" lon="-1.5043827">
        <time>2022-07-03T14:23:41Z</time>
      </trkpt>
      <trkpt lat="42.81153" lon="-1.5043545">
        <time>2022-07-03T14:23:42Z</time>
      </trkpt>
      <trkpt lat="42.811447" lon="-1.5042994">
        <time>2022-07-03T14:23:44Z</time>
      </trkpt>
      <trkpt lat="42.811356" lon="-1.5042424">
        <time>2022-07-03T14:23:46Z</time>
      </trkpt>
      <trkpt lat="42.81126" lon="-1.5041858">
        <time>2022-07-03T14:23:48Z</time>
      </trkpt>
      <trkpt lat="42.81121" lon="-1.5041578">
        <time>2022-07-03T14:23:49Z</time>
      </trkpt>
      <trkpt lat="42.81116" lon="-1.504129">
        <time>2022-07-03T14:23:50Z</time>
      </trkpt>
      <trkpt lat="42.811108" lon="-1.5041001">
        <time>2022-07-03T14:23:51Z</time>
      </trkpt>
      <trkpt lat="42.81105" lon="-1.5040685">
        <time>2022-07-03T14:23:52Z</time>
      </trkpt>
      <trkpt lat="42.81099" lon="-1.5040368">
        <time>2022-07-03T14:23:53Z</time>
      </trkpt>
      <trkpt lat="42.81093" lon="-1.5040051">
        <time>2022-07-03T14:23:54Z</time>
      </trkpt>
      <trkpt lat="42.810867" lon="-1.5039735">
        <time>2022-07-03T14:23:55Z</time>
      </trkpt>
      <trkpt lat="42.810806" lon="-1.5039418">
        <time>2022-07-03T14:23:56Z</time>
      </trkpt>
      <trkpt lat="42.81074" lon="-1.5039102">
        <time>2022-07-03T14:23:57Z</time>
      </trkpt>
      <trkpt lat="42.81068" lon="-1.5038794">
        <time>2022-07-03T14:23:58Z</time>
      </trkpt>
      <trkpt lat="42.810616" lon="-1.5038505">
        <time>2022-07-03T14:23:59Z</time>
      </trkpt>
      <trkpt lat="42.81055" lon="-1.5038218">
        <time>2022-07-03T14:24:00Z</time>
      </trkpt>
      <trkpt lat="42.810482" lon="-1.5037935">
        <time>2022-07-03T14:24:01Z</time>
      </trkpt>
      <trkpt lat="42.810413" lon="-1.5037658">
        <time>2022-07-03T14:24:02Z</time>
      </trkpt>
      <trkpt lat="42.810352" lon="-1.5037398">
        <time>2022-07-03T14:24:03Z</time>
      </trkpt>
      <trkpt lat="42.810287" lon="-1.5037128">
        <time>2022-07-03T14:24:04Z</time>
      </trkpt>
      <trkpt lat="42.81022" lon="-1.5036845">
        <time>2022-07-03T14:24:05Z</time>
      </trkpt>
      <trkpt lat="42.81015" lon="-1.5036558">
        <time>2022-07-03T14:24:06Z</time>
      </trkpt>
      <trkpt lat="42.810074" lon="-1.5036262">
        <time>2022-07-03T14:24:07Z</time>
      </trkpt>
      <trkpt lat="42.810005" lon="-1.5035986">
        <time>2022-07-03T14:24:08Z</time>
      </trkpt>
      <trkpt lat="42.809937" lon="-1.5035712">
        <time>2022-07-03T14:24:09Z</time>
      </trkpt>
      <trkpt lat="42.809864" lon="-1.5035431">
        <time>2022-07-03T14:24:10Z</time>
      </trkpt>
      <trkpt lat="42.80979" lon="-1.5035129">
        <time>2022-07-03T14:24:11Z</time>
      </trkpt>
      <trkpt lat="42.809715" lon="-1.5034828">
        <time>2022-07-03T14:24:12Z</time>
      </trkpt>
      <trkpt lat="42.809643" lon="-1.5034542">
        <time>2022-07-03T14:24:13Z</time>
      </trkpt>
      <trkpt lat="42.809578" lon="-1.5034279">
        <time>2022-07-03T14:24:14Z</time>
      </trkpt>
      <trkpt lat="42.80951" lon="-1.5034002">
        <time>2022-07-03T14:24:15Z</time>
      </trkpt>
      <trkpt lat="42.80944" lon="-1.5033712">
        <time>2022-07-03T14:24:16Z</time>
      </trkpt>
      <trkpt lat="42.80937" lon="-1.5033416">
        <time>2022-07-03T14:24:17Z</time>
      </trkpt>
      <trkpt lat="42.8093" lon="-1.5033115">
        <time>2022-07-03T14:24:18Z</time>
      </trkpt>
      <trkpt lat="42.809227" lon="-1.5032822">
        <time>2022-07-03T14:24:19Z</time>
      </trkpt>
      <trkpt lat="42.80908" lon="-1.5032213">
        <time>2022-07-03T14:24:21Z</time>
      </trkpt>
      <trkpt lat="42.809006" lon="-1.503192">
        <time>2022-07-03T14:24:22Z</time>
      </trkpt>
      <trkpt lat="42.808933" lon="-1.5031629">
        <time>2022-07-03T14:24:23Z</time>
      </trkpt>
      <trkpt lat="42.808857" lon="-1.5031292">
        <time>2022-07-03T14:24:24Z</time>
      </trkpt>
      <trkpt lat="42.808784" lon="-1.5030986">
        <time>2022-07-03T14:24:25Z</time>
      </trkpt>
      <trkpt lat="42.808712" lon="-1.5030669">
        <time>2022-07-03T14:24:26Z</time>
      </trkpt>
      <trkpt lat="42.80864" lon="-1.5030353">
        <time>2022-07-03T14:24:27Z</time>
      </trkpt>
      <trkpt lat="42.808567" lon="-1.5030029">
        <time>2022-07-03T14:24:28Z</time>
      </trkpt>
      <trkpt lat="42.80849" lon="-1.5029709">
        <time>2022-07-03T14:24:29Z</time>
      </trkpt>
      <trkpt lat="42.808422" lon="-1.5029413">
        <time>2022-07-03T14:24:30Z</time>
      </trkpt>
      <trkpt lat="42.808346" lon="-1.502911">
        <time>2022-07-03T14:24:31Z</time>
      </trkpt>
      <trkpt lat="42.808273" lon="-1.5028806">
        <time>2022-07-03T14:24:32Z</time>
      </trkpt>
      <trkpt lat="42.808197" lon="-1.5028512">
        <time>2022-07-03T14:24:33Z</time>
      </trkpt>
      <trkpt lat="42.808113" lon="-1.5028193">
        <time>2022-07-03T14:24:34Z</time>
      </trkpt>
      <trkpt lat="42.808033" lon="-1.502787">
        <time>2022-07-03T14:24:35Z</time>
      </trkpt>
      <trkpt lat="42.807953" lon="-1.5027543">
        <time>2022-07-03T14:24:36Z</time>
      </trkpt>
      <trkpt lat="42.807873" lon="-1.5027202">
        <time>2022-07-03T14:24:37Z</time>
      </trkpt>
      <trkpt lat="42.807793" lon="-1.5026853">
        <time>2022-07-03T14:24:38Z</time>
      </trkpt>
      <trkpt lat="42.80771" lon="-1.5026486">
        <time>2022-07-03T14:24:39Z</time>
      </trkpt>
      <trkpt lat="42.80763" lon="-1.50261">
        <time>2022-07-03T14:24:40Z</time>
      </trkpt>
      <trkpt lat="42.80755" lon="-1.502569">
        <time>2022-07-03T14:24:41Z</time>
      </trkpt>
      <trkpt lat="42.807472" lon="-1.5025253">
        <time>2022-07-03T14:24:42Z</time>
      </trkpt>
      <trkpt lat="42.807392" lon="-1.502479">
        <time>2022-07-03T14:24:43Z</time>
      </trkpt>
      <trkpt lat="42.807316" lon="-1.5024296">
        <time>2022-07-03T14:24:44Z</time>
      </trkpt>
      <trkpt lat="42.80724" lon="-1.502376">
        <time>2022-07-03T14:24:45Z</time>
      </trkpt>
      <trkpt lat="42.807163" lon="-1.5023164">
        <time>2022-07-03T14:24:46Z</time>
      </trkpt>
      <trkpt lat="42.80709" lon="-1.5022527">
        <time>2022-07-03T14:24:47Z</time>
      </trkpt>
      <trkpt lat="42.80702" lon="-1.5021853">
        <time>2022-07-03T14:24:48Z</time>
      </trkpt>
      <trkpt lat="42.806946" lon="-1.5021137">
        <time>2022-07-03T14:24:49Z</time>
      </trkpt>
      <trkpt lat="42.806873" lon="-1.5020373">
        <time>2022-07-03T14:24:50Z</time>
      </trkpt>
      <trkpt lat="42.8068" lon="-1.5019556">
        <time>2022-07-03T14:24:51Z</time>
      </trkpt>
      <trkpt lat="42.80673" lon="-1.501865">
        <time>2022-07-03T14:24:52Z</time>
      </trkpt>
      <trkpt lat="42.80666" lon="-1.5017776">
        <time>2022-07-03T14:24:53Z</time>
      </trkpt>
      <trkpt lat="42.806587" lon="-1.5016797">
        <time>2022-07-03T14:24:54Z</time>
      </trkpt>
      <trkpt lat="42.806515" lon="-1.5015804">
        <time>2022-07-03T14:24:55Z</time>
      </trkpt>
      <trkpt lat="42.806446" lon="-1.50148">
        <time>2022-07-03T14:24:56Z</time>
      </trkpt>
      <trkpt lat="42.80638" lon="-1.501378">
        <time>2022-07-03T14:24:57Z</time>
      </trkpt>
      <trkpt lat="42.806313" lon="-1.5012751">
        <time>2022-07-03T14:24:58Z</time>
      </trkpt>
      <trkpt lat="42.80625" lon="-1.5011777">
        <time>2022-07-03T14:24:59Z</time>
      </trkpt>
      <trkpt lat="42.806187" lon="-1.501077">
        <time>2022-07-03T14:25:00Z</time>
      </trkpt>
      <trkpt lat="42.806118" lon="-1.5009744">
        <time>2022-07-03T14:25:01Z</time>
      </trkpt>
      <trkpt lat="42.80605" lon="-1.5008627">
        <time>2022-07-03T14:25:02Z</time>
      </trkpt>
      <trkpt lat="42.80598" lon="-1.500758">
        <time>2022-07-03T14:25:03Z</time>
      </trkpt>
      <trkpt lat="42.805912" lon="-1.5006514">
        <time>2022-07-03T14:25:04Z</time>
      </trkpt>
      <trkpt lat="42.805843" lon="-1.5005434">
        <time>2022-07-03T14:25:05Z</time>
      </trkpt>
      <trkpt lat="42.80577" lon="-1.5004348">
        <time>2022-07-03T14:25:06Z</time>
      </trkpt>
      <trkpt lat="42.8057" lon="-1.5003241">
        <time>2022-07-03T14:25:07Z</time>
      </trkpt>
      <trkpt lat="42.80563" lon="-1.5002124">
        <time>2022-07-03T14:25:08Z</time>
      </trkpt>
      <trkpt lat="42.805557" lon="-1.500102">
        <time>2022-07-03T14:25:09Z</time>
      </trkpt>
      <trkpt lat="42.805485" lon="-1.4999918">
        <time>2022-07-03T14:25:10Z</time>
      </trkpt>
      <trkpt lat="42.805412" lon="-1.4998804">
        <time>2022-07-03T14:25:11Z</time>
      </trkpt>
      <trkpt lat="42.80534" lon="-1.4997694">
        <time>2022-07-03T14:25:12Z</time>
      </trkpt>
      <trkpt lat="42.80526" lon="-1.4996507">
        <time>2022-07-03T14:25:13Z</time>
      </trkpt>
      <trkpt lat="42.805187" lon="-1.4995414">
        <time>2022-07-03T14:25:14Z</time>
      </trkpt>
      <trkpt lat="42.80511" lon="-1.4994308">
        <time>2022-07-03T14:25:15Z</time>
      </trkpt>
      <trkpt lat="42.80503" lon="-1.4993138">
        <time>2022-07-03T14:25:16Z</time>
      </trkpt>
      <trkpt lat="42.80495" lon="-1.4992008">
        <time>2022-07-03T14:25:17Z</time>
      </trkpt>
      <trkpt lat="42.804867" lon="-1.4990898">
        <time>2022-07-03T14:25:18Z</time>
      </trkpt>
      <trkpt lat="42.804783" lon="-1.4989811">
        <time>2022-07-03T14:25:19Z</time>
      </trkpt>
      <trkpt lat="42.8047" lon="-1.4988751">
        <time>2022-07-03T14:25:20Z</time>
      </trkpt>
      <trkpt lat="42.804615" lon="-1.4987708">
        <time>2022-07-03T14:25:21Z</time>
      </trkpt>
      <trkpt lat="42.80453" lon="-1.4986675">
        <time>2022-07-03T14:25:22Z</time>
      </trkpt>
      <trkpt lat="42.804447" lon="-1.4985658">
        <time>2022-07-03T14:25:23Z</time>
      </trkpt>
      <trkpt lat="42.804363" lon="-1.4984658">
        <time>2022-07-03T14:25:24Z</time>
      </trkpt>
      <trkpt lat="42.8042" lon="-1.4982708">
        <time>2022-07-03T14:25:26Z</time>
      </trkpt>
      <trkpt lat="42.804115" lon="-1.4981735">
        <time>2022-07-03T14:25:27Z</time>
      </trkpt>
      <trkpt lat="42.804035" lon="-1.4980764">
        <time>2022-07-03T14:25:28Z</time>
      </trkpt>
      <trkpt lat="42.803955" lon="-1.4979798">
        <time>2022-07-03T14:25:29Z</time>
      </trkpt>
      <trkpt lat="42.80388" lon="-1.4978834">
        <time>2022-07-03T14:25:30Z</time>
      </trkpt>
      <trkpt lat="42.8038" lon="-1.4977875">
        <time>2022-07-03T14:25:31Z</time>
      </trkpt>
      <trkpt lat="42.803722" lon="-1.4976902">
        <time>2022-07-03T14:25:32Z</time>
      </trkpt>
      <trkpt lat="42.803646" lon="-1.4975908">
        <time>2022-07-03T14:25:33Z</time>
      </trkpt>
      <trkpt lat="42.80357" lon="-1.4974892">
        <time>2022-07-03T14:25:34Z</time>
      </trkpt>
      <trkpt lat="42.803497" lon="-1.4973875">
        <time>2022-07-03T14:25:35Z</time>
      </trkpt>
      <trkpt lat="42.803425" lon="-1.4972858">
        <time>2022-07-03T14:25:36Z</time>
      </trkpt>
      <trkpt lat="42.803356" lon="-1.4971902">
        <time>2022-07-03T14:25:37Z</time>
      </trkpt>
      <trkpt lat="42.803284" lon="-1.4970849">
        <time>2022-07-03T14:25:38Z</time>
      </trkpt>
      <trkpt lat="42.803215" lon="-1.4969792">
        <time>2022-07-03T14:25:39Z</time>
      </trkpt>
      <trkpt lat="42.803146" lon="-1.4968725">
        <time>2022-07-03T14:25:40Z</time>
      </trkpt>
      <trkpt lat="42.803085" lon="-1.4967712">
        <time>2022-07-03T14:25:41Z</time>
      </trkpt>
      <trkpt lat="42.80302" lon="-1.4966679">
        <time>2022-07-03T14:25:42Z</time>
      </trkpt>
      <trkpt lat="42.80295" lon="-1.4965562">
        <time>2022-07-03T14:25:43Z</time>
      </trkpt>
      <trkpt lat="42.802887" lon="-1.4964463">
        <time>2022-07-03T14:25:44Z</time>
      </trkpt>
      <trkpt lat="42.802822" lon="-1.4963369">
        <time>2022-07-03T14:25:45Z</time>
      </trkpt>
      <trkpt lat="42.802765" lon="-1.4962349">
        <time>2022-07-03T14:25:46Z</time>
      </trkpt>
      <trkpt lat="42.8027" lon="-1.4961236">
        <time>2022-07-03T14:25:47Z</time>
      </trkpt>
      <trkpt lat="42.802635" lon="-1.4960139">
        <time>2022-07-03T14:25:48Z</time>
      </trkpt>
      <trkpt lat="42.80257" lon="-1.4959055">
        <time>2022-07-03T14:25:49Z</time>
      </trkpt>
      <trkpt lat="42.80251" lon="-1.4957986">
        <time>2022-07-03T14:25:50Z</time>
      </trkpt>
      <trkpt lat="42.80245" lon="-1.4956989">
        <time>2022-07-03T14:25:51Z</time>
      </trkpt>
      <trkpt lat="42.802387" lon="-1.4955896">
        <time>2022-07-03T14:25:52Z</time>
      </trkpt>
      <trkpt lat="42.802322" lon="-1.4954805">
        <time>2022-07-03T14:25:53Z</time>
      </trkpt>
      <trkpt lat="42.80226" lon="-1.4953725">
        <time>2022-07-03T14:25:54Z</time>
      </trkpt>
      <trkpt lat="42.8022" lon="-1.4952719">
        <time>2022-07-03T14:25:55Z</time>
      </trkpt>
      <trkpt lat="42.802143" lon="-1.4951693">
        <time>2022-07-03T14:25:56Z</time>
      </trkpt>
      <trkpt lat="42.802082" lon="-1.4950659">
        <time>2022-07-03T14:25:57Z</time>
      </trkpt>
      <trkpt lat="42.802017" lon="-1.4949555">
        <time>2022-07-03T14:25:58Z</time>
      </trkpt>
      <trkpt lat="42.801956" lon="-1.494854">
        <time>2022-07-03T14:25:59Z</time>
      </trkpt>
      <trkpt lat="42.8019" lon="-1.4947529">
        <time>2022-07-03T14:26:00Z</time>
      </trkpt>
      <trkpt lat="42.801838" lon="-1.494651">
        <time>2022-07-03T14:26:01Z</time>
      </trkpt>
      <trkpt lat="42.801777" lon="-1.4945493">
        <time>2022-07-03T14:26:02Z</time>
      </trkpt>
      <trkpt lat="42.801716" lon="-1.4944476">
        <time>2022-07-03T14:26:03Z</time>
      </trkpt>
      <trkpt lat="42.801655" lon="-1.4943463">
        <time>2022-07-03T14:26:04Z</time>
      </trkpt>
      <trkpt lat="42.801598" lon="-1.4942456">
        <time>2022-07-03T14:26:05Z</time>
      </trkpt>
      <trkpt lat="42.801537" lon="-1.4941453">
        <time>2022-07-03T14:26:06Z</time>
      </trkpt>
      <trkpt lat="42.80148" lon="-1.4940436">
        <time>2022-07-03T14:26:07Z</time>
      </trkpt>
      <trkpt lat="42.801422" lon="-1.4939426">
        <time>2022-07-03T14:26:08Z</time>
      </trkpt>
      <trkpt lat="42.801365" lon="-1.493842">
        <time>2022-07-03T14:26:09Z</time>
      </trkpt>
      <trkpt lat="42.801304" lon="-1.4937416">
        <time>2022-07-03T14:26:10Z</time>
      </trkpt>
      <trkpt lat="42.801247" lon="-1.4936403">
        <time>2022-07-03T14:26:11Z</time>
      </trkpt>
      <trkpt lat="42.801186" lon="-1.4935399">
        <time>2022-07-03T14:26:12Z</time>
      </trkpt>
      <trkpt lat="42.801125" lon="-1.4934406">
        <time>2022-07-03T14:26:13Z</time>
      </trkpt>
      <trkpt lat="42.801067" lon="-1.4933423">
        <time>2022-07-03T14:26:14Z</time>
      </trkpt>
      <trkpt lat="42.801003" lon="-1.493238">
        <time>2022-07-03T14:26:15Z</time>
      </trkpt>
      <trkpt lat="42.80094" lon="-1.4931424">
        <time>2022-07-03T14:26:16Z</time>
      </trkpt>
      <trkpt lat="42.80088" lon="-1.4930444">
        <time>2022-07-03T14:26:17Z</time>
      </trkpt>
      <trkpt lat="42.800816" lon="-1.4929466">
        <time>2022-07-03T14:26:18Z</time>
      </trkpt>
      <trkpt lat="42.800755" lon="-1.4928473">
        <time>2022-07-03T14:26:19Z</time>
      </trkpt>
      <trkpt lat="42.80069" lon="-1.4927487">
        <time>2022-07-03T14:26:20Z</time>
      </trkpt>
      <trkpt lat="42.80063" lon="-1.4926571">
        <time>2022-07-03T14:26:21Z</time>
      </trkpt>
      <trkpt lat="42.800564" lon="-1.4925637">
        <time>2022-07-03T14:26:22Z</time>
      </trkpt>
      <trkpt lat="42.80049" lon="-1.492462">
        <time>2022-07-03T14:26:23Z</time>
      </trkpt>
      <trkpt lat="42.80042" lon="-1.4923617">
        <time>2022-07-03T14:26:24Z</time>
      </trkpt>
      <trkpt lat="42.800346" lon="-1.4922624">
        <time>2022-07-03T14:26:25Z</time>
      </trkpt>
      <trkpt lat="42.800266" lon="-1.4921594">
        <time>2022-07-03T14:26:26Z</time>
      </trkpt>
      <trkpt lat="42.80019" lon="-1.4920647">
        <time>2022-07-03T14:26:27Z</time>
      </trkpt>
      <trkpt lat="42.80011" lon="-1.4919701">
        <time>2022-07-03T14:26:28Z</time>
      </trkpt>
      <trkpt lat="42.80003" lon="-1.491875">
        <time>2022-07-03T14:26:29Z</time>
      </trkpt>
      <trkpt lat="42.799946" lon="-1.4917787">
        <time>2022-07-03T14:26:30Z</time>
      </trkpt>
      <trkpt lat="42.79986" lon="-1.4916811">
        <time>2022-07-03T14:26:31Z</time>
      </trkpt>
      <trkpt lat="42.79977" lon="-1.4915837">
        <time>2022-07-03T14:26:32Z</time>
      </trkpt>
      <trkpt lat="42.799683" lon="-1.4914887">
        <time>2022-07-03T14:26:33Z</time>
      </trkpt>
      <trkpt lat="42.799503" lon="-1.4912984">
        <time>2022-07-03T14:26:35Z</time>
      </trkpt>
      <trkpt lat="42.79941" lon="-1.4912018">
        <time>2022-07-03T14:26:36Z</time>
      </trkpt>
      <trkpt lat="42.79932" lon="-1.4911044">
        <time>2022-07-03T14:26:37Z</time>
      </trkpt>
      <trkpt lat="42.799232" lon="-1.4910064">
        <time>2022-07-03T14:26:38Z</time>
      </trkpt>
      <trkpt lat="42.799133" lon="-1.4909017">
        <time>2022-07-03T14:26:39Z</time>
      </trkpt>
      <trkpt lat="42.79904" lon="-1.4908015">
        <time>2022-07-03T14:26:40Z</time>
      </trkpt>
      <trkpt lat="42.798946" lon="-1.4907031">
        <time>2022-07-03T14:26:41Z</time>
      </trkpt>
      <trkpt lat="42.798855" lon="-1.4906044">
        <time>2022-07-03T14:26:42Z</time>
      </trkpt>
      <trkpt lat="42.798683" lon="-1.4904131">
        <time>2022-07-03T14:26:44Z</time>
      </trkpt>
      <trkpt lat="42.79861" lon="-1.4903218">
        <time>2022-07-03T14:26:45Z</time>
      </trkpt>
      <trkpt lat="42.79853" lon="-1.4902171">
        <time>2022-07-03T14:26:46Z</time>
      </trkpt>
      <trkpt lat="42.79846" lon="-1.4901161">
        <time>2022-07-03T14:26:47Z</time>
      </trkpt>
      <trkpt lat="42.798386" lon="-1.4900051">
        <time>2022-07-03T14:26:48Z</time>
      </trkpt>
      <trkpt lat="42.798313" lon="-1.4898927">
        <time>2022-07-03T14:26:49Z</time>
      </trkpt>
      <trkpt lat="42.79825" lon="-1.4897784">
        <time>2022-07-03T14:26:50Z</time>
      </trkpt>
      <trkpt lat="42.798183" lon="-1.4896535">
        <time>2022-07-03T14:26:51Z</time>
      </trkpt>
      <trkpt lat="42.798122" lon="-1.4895368">
        <time>2022-07-03T14:26:52Z</time>
      </trkpt>
      <trkpt lat="42.79807" lon="-1.4894165">
        <time>2022-07-03T14:26:53Z</time>
      </trkpt>
      <trkpt lat="42.79802" lon="-1.4892914">
        <time>2022-07-03T14:26:54Z</time>
      </trkpt>
      <trkpt lat="42.797974" lon="-1.4891641">
        <time>2022-07-03T14:26:55Z</time>
      </trkpt>
      <trkpt lat="42.79793" lon="-1.4890335">
        <time>2022-07-03T14:26:56Z</time>
      </trkpt>
      <trkpt lat="42.797894" lon="-1.4889004">
        <time>2022-07-03T14:26:57Z</time>
      </trkpt>
      <trkpt lat="42.79786" lon="-1.4887662">
        <time>2022-07-03T14:26:58Z</time>
      </trkpt>
      <trkpt lat="42.79783" lon="-1.4886305">
        <time>2022-07-03T14:26:59Z</time>
      </trkpt>
      <trkpt lat="42.797794" lon="-1.4884934">
        <time>2022-07-03T14:27:00Z</time>
      </trkpt>
      <trkpt lat="42.797768" lon="-1.4883639">
        <time>2022-07-03T14:27:01Z</time>
      </trkpt>
      <trkpt lat="42.797737" lon="-1.4882305">
        <time>2022-07-03T14:27:02Z</time>
      </trkpt>
      <trkpt lat="42.79771" lon="-1.4880952">
        <time>2022-07-03T14:27:03Z</time>
      </trkpt>
      <trkpt lat="42.79768" lon="-1.4879495">
        <time>2022-07-03T14:27:04Z</time>
      </trkpt>
      <trkpt lat="42.79765" lon="-1.4878058">
        <time>2022-07-03T14:27:05Z</time>
      </trkpt>
      <trkpt lat="42.797626" lon="-1.4876732">
        <time>2022-07-03T14:27:06Z</time>
      </trkpt>
      <trkpt lat="42.797596" lon="-1.4875299">
        <time>2022-07-03T14:27:07Z</time>
      </trkpt>
      <trkpt lat="42.79757" lon="-1.4873881">
        <time>2022-07-03T14:27:08Z</time>
      </trkpt>
      <trkpt lat="42.797543" lon="-1.4872469">
        <time>2022-07-03T14:27:09Z</time>
      </trkpt>
      <trkpt lat="42.797516" lon="-1.4870979">
        <time>2022-07-03T14:27:10Z</time>
      </trkpt>
      <trkpt lat="42.79749" lon="-1.4869535">
        <time>2022-07-03T14:27:11Z</time>
      </trkpt>
      <trkpt lat="42.797462" lon="-1.4868128">
        <time>2022-07-03T14:27:12Z</time>
      </trkpt>
      <trkpt lat="42.797436" lon="-1.4866738">
        <time>2022-07-03T14:27:13Z</time>
      </trkpt>
      <trkpt lat="42.79741" lon="-1.4865359">
        <time>2022-07-03T14:27:14Z</time>
      </trkpt>
      <trkpt lat="42.79738" lon="-1.4863988">
        <time>2022-07-03T14:27:15Z</time>
      </trkpt>
      <trkpt lat="42.79735" lon="-1.4862629">
        <time>2022-07-03T14:27:16Z</time>
      </trkpt>
      <trkpt lat="42.79732" lon="-1.4861289">
        <time>2022-07-03T14:27:17Z</time>
      </trkpt>
      <trkpt lat="42.7973" lon="-1.4860048">
        <time>2022-07-03T14:27:18Z</time>
      </trkpt>
      <trkpt lat="42.79727" lon="-1.4858792">
        <time>2022-07-03T14:27:19Z</time>
      </trkpt>
      <trkpt lat="42.797245" lon="-1.4857442">
        <time>2022-07-03T14:27:20Z</time>
      </trkpt>
      <trkpt lat="42.79722" lon="-1.4856125">
        <time>2022-07-03T14:27:21Z</time>
      </trkpt>
      <trkpt lat="42.79719" lon="-1.4854913">
        <time>2022-07-03T14:27:22Z</time>
      </trkpt>
      <trkpt lat="42.797165" lon="-1.4853683">
        <time>2022-07-03T14:27:23Z</time>
      </trkpt>
      <trkpt lat="42.79714" lon="-1.4852445">
        <time>2022-07-03T14:27:24Z</time>
      </trkpt>
      <trkpt lat="42.797108" lon="-1.4851205">
        <time>2022-07-03T14:27:25Z</time>
      </trkpt>
      <trkpt lat="42.797077" lon="-1.4849958">
        <time>2022-07-03T14:27:26Z</time>
      </trkpt>
      <trkpt lat="42.797047" lon="-1.4848716">
        <time>2022-07-03T14:27:27Z</time>
      </trkpt>
      <trkpt lat="42.797012" lon="-1.4847482">
        <time>2022-07-03T14:27:28Z</time>
      </trkpt>
      <trkpt lat="42.796978" lon="-1.4846256">
        <time>2022-07-03T14:27:29Z</time>
      </trkpt>
      <trkpt lat="42.79694" lon="-1.484497">
        <time>2022-07-03T14:27:30Z</time>
      </trkpt>
      <trkpt lat="42.796898" lon="-1.4843719">
        <time>2022-07-03T14:27:31Z</time>
      </trkpt>
      <trkpt lat="42.796856" lon="-1.48425">
        <time>2022-07-03T14:27:32Z</time>
      </trkpt>
      <trkpt lat="42.796814" lon="-1.4841312">
        <time>2022-07-03T14:27:33Z</time>
      </trkpt>
      <trkpt lat="42.796772" lon="-1.4840146">
        <time>2022-07-03T14:27:34Z</time>
      </trkpt>
      <trkpt lat="42.79673" lon="-1.4839076">
        <time>2022-07-03T14:27:35Z</time>
      </trkpt>
      <trkpt lat="42.79668" lon="-1.4837912">
        <time>2022-07-03T14:27:36Z</time>
      </trkpt>
      <trkpt lat="42.796635" lon="-1.4836769">
        <time>2022-07-03T14:27:37Z</time>
      </trkpt>
      <trkpt lat="42.79659" lon="-1.4835716">
        <time>2022-07-03T14:27:38Z</time>
      </trkpt>
      <trkpt lat="42.79654" lon="-1.4834659">
        <time>2022-07-03T14:27:39Z</time>
      </trkpt>
      <trkpt lat="42.796444" lon="-1.4832536">
        <time>2022-07-03T14:27:41Z</time>
      </trkpt>
      <trkpt lat="42.796394" lon="-1.4831483">
        <time>2022-07-03T14:27:42Z</time>
      </trkpt>
      <trkpt lat="42.796345" lon="-1.483045">
        <time>2022-07-03T14:27:43Z</time>
      </trkpt>
      <trkpt lat="42.796295" lon="-1.4829429">
        <time>2022-07-03T14:27:44Z</time>
      </trkpt>
      <trkpt lat="42.79625" lon="-1.4828423">
        <time>2022-07-03T14:27:45Z</time>
      </trkpt>
      <trkpt lat="42.796204" lon="-1.4827443">
        <time>2022-07-03T14:27:46Z</time>
      </trkpt>
      <trkpt lat="42.796154" lon="-1.4826419">
        <time>2022-07-03T14:27:47Z</time>
      </trkpt>
      <trkpt lat="42.796116" lon="-1.48255">
        <time>2022-07-03T14:27:48Z</time>
      </trkpt>
      <trkpt lat="42.796074" lon="-1.4824586">
        <time>2022-07-03T14:27:49Z</time>
      </trkpt>
      <trkpt lat="42.796036" lon="-1.482368">
        <time>2022-07-03T14:27:50Z</time>
      </trkpt>
      <trkpt lat="42.795998" lon="-1.482279">
        <time>2022-07-03T14:27:51Z</time>
      </trkpt>
      <trkpt lat="42.795963" lon="-1.4821917">
        <time>2022-07-03T14:27:52Z</time>
      </trkpt>
      <trkpt lat="42.79593" lon="-1.4821056">
        <time>2022-07-03T14:27:53Z</time>
      </trkpt>
      <trkpt lat="42.795902" lon="-1.4820217">
        <time>2022-07-03T14:27:54Z</time>
      </trkpt>
      <trkpt lat="42.795876" lon="-1.4819384">
        <time>2022-07-03T14:27:55Z</time>
      </trkpt>
      <trkpt lat="42.79585" lon="-1.4818573">
        <time>2022-07-03T14:27:56Z</time>
      </trkpt>
      <trkpt lat="42.795826" lon="-1.4817786">
        <time>2022-07-03T14:27:57Z</time>
      </trkpt>
      <trkpt lat="42.795807" lon="-1.481703">
        <time>2022-07-03T14:27:58Z</time>
      </trkpt>
      <trkpt lat="42.795788" lon="-1.4816294">
        <time>2022-07-03T14:27:59Z</time>
      </trkpt>
      <trkpt lat="42.795773" lon="-1.4815583">
        <time>2022-07-03T14:28:00Z</time>
      </trkpt>
      <trkpt lat="42.79576" lon="-1.4814897">
        <time>2022-07-03T14:28:01Z</time>
      </trkpt>
      <trkpt lat="42.79575" lon="-1.4814254">
        <time>2022-07-03T14:28:02Z</time>
      </trkpt>
      <trkpt lat="42.795727" lon="-1.4813057">
        <time>2022-07-03T14:28:04Z</time>
      </trkpt>
      <trkpt lat="42.795704" lon="-1.481196">
        <time>2022-07-03T14:28:06Z</time>
      </trkpt>
      <trkpt lat="42.795685" lon="-1.4810953">
        <time>2022-07-03T14:28:08Z</time>
      </trkpt>
      <trkpt lat="42.795666" lon="-1.4810021">
        <time>2022-07-03T14:28:10Z</time>
      </trkpt>
      <trkpt lat="42.79565" lon="-1.4809144">
        <time>2022-07-03T14:28:12Z</time>
      </trkpt>
      <trkpt lat="42.79564" lon="-1.4808327">
        <time>2022-07-03T14:28:14Z</time>
      </trkpt>
      <trkpt lat="42.795628" lon="-1.480759">
        <time>2022-07-03T14:28:16Z</time>
      </trkpt>
      <trkpt lat="42.795612" lon="-1.4806931">
        <time>2022-07-03T14:28:18Z</time>
      </trkpt>
      <trkpt lat="42.795605" lon="-1.4806334">
        <time>2022-07-03T14:28:20Z</time>
      </trkpt>
      <trkpt lat="42.79559" lon="-1.4805474">
        <time>2022-07-03T14:28:23Z</time>
      </trkpt>
      <trkpt lat="42.795567" lon="-1.4804624">
        <time>2022-07-03T14:28:26Z</time>
      </trkpt>
      <trkpt lat="42.795544" lon="-1.4803814">
        <time>2022-07-03T14:28:29Z</time>
      </trkpt>
      <trkpt lat="42.79552" lon="-1.4803091">
        <time>2022-07-03T14:28:32Z</time>
      </trkpt>
      <trkpt lat="42.7955" lon="-1.4802357">
        <time>2022-07-03T14:28:35Z</time>
      </trkpt>
      <trkpt lat="42.79548" lon="-1.4801604">
        <time>2022-07-03T14:28:38Z</time>
      </trkpt>
      <trkpt lat="42.79546" lon="-1.4800844">
        <time>2022-07-03T14:28:41Z</time>
      </trkpt>
      <trkpt lat="42.79543" lon="-1.4799814">
        <time>2022-07-03T14:28:45Z</time>
      </trkpt>
      <trkpt lat="42.795403" lon="-1.4799048">
        <time>2022-07-03T14:28:48Z</time>
      </trkpt>
      <trkpt lat="42.795372" lon="-1.4798274">
        <time>2022-07-03T14:28:51Z</time>
      </trkpt>
      <trkpt lat="42.795338" lon="-1.4797498">
        <time>2022-07-03T14:28:54Z</time>
      </trkpt>
      <trkpt lat="42.795307" lon="-1.4796708">
        <time>2022-07-03T14:28:57Z</time>
      </trkpt>
      <trkpt lat="42.79527" lon="-1.4795845">
        <time>2022-07-03T14:29:00Z</time>
      </trkpt>
      <trkpt lat="42.795227" lon="-1.4795021">
        <time>2022-07-03T14:29:03Z</time>
      </trkpt>
      <trkpt lat="42.795204" lon="-1.4794468">
        <time>2022-07-03T14:29:05Z</time>
      </trkpt>
      <trkpt lat="42.795162" lon="-1.4793692">
        <time>2022-07-03T14:29:08Z</time>
      </trkpt>
      <trkpt lat="42.79512" lon="-1.4792928">
        <time>2022-07-03T14:29:11Z</time>
      </trkpt>
      <trkpt lat="42.79508" lon="-1.4792157">
        <time>2022-07-03T14:29:14Z</time>
      </trkpt>
      <trkpt lat="42.79503" lon="-1.4791378">
        <time>2022-07-03T14:29:17Z</time>
      </trkpt>
      <trkpt lat="42.794994" lon="-1.4790888">
        <time>2022-07-03T14:29:19Z</time>
      </trkpt>
      <trkpt lat="42.794937" lon="-1.4790198">
        <time>2022-07-03T14:29:22Z</time>
      </trkpt>
      <trkpt lat="42.794903" lon="-1.4789732">
        <time>2022-07-03T14:29:24Z</time>
      </trkpt>
      <trkpt lat="42.794846" lon="-1.4788961">
        <time>2022-07-03T14:29:27Z</time>
      </trkpt>
      <trkpt lat="42.794796" lon="-1.4788418">
        <time>2022-07-03T14:29:29Z</time>
      </trkpt>
      <trkpt lat="42.794746" lon="-1.4787838">
        <time>2022-07-03T14:29:31Z</time>
      </trkpt>
      <trkpt lat="42.794697" lon="-1.4787248">
        <time>2022-07-03T14:29:33Z</time>
      </trkpt>
      <trkpt lat="42.794647" lon="-1.4786664">
        <time>2022-07-03T14:29:35Z</time>
      </trkpt>
      <trkpt lat="42.794594" lon="-1.4786074">
        <time>2022-07-03T14:29:37Z</time>
      </trkpt>
      <trkpt lat="42.79454" lon="-1.4785508">
        <time>2022-07-03T14:29:39Z</time>
      </trkpt>
      <trkpt lat="42.794487" lon="-1.4784958">
        <time>2022-07-03T14:29:41Z</time>
      </trkpt>
      <trkpt lat="42.79443" lon="-1.4784431">
        <time>2022-07-03T14:29:43Z</time>
      </trkpt>
      <trkpt lat="42.794373" lon="-1.4783899">
        <time>2022-07-03T14:29:45Z</time>
      </trkpt>
      <trkpt lat="42.794315" lon="-1.4783359">
        <time>2022-07-03T14:29:47Z</time>
      </trkpt>
      <trkpt lat="42.794216" lon="-1.4782531">
        <time>2022-07-03T14:29:50Z</time>
      </trkpt>
      <trkpt lat="42.79415" lon="-1.4781985">
        <time>2022-07-03T14:29:52Z</time>
      </trkpt>
      <trkpt lat="42.794086" lon="-1.4781379">
        <time>2022-07-03T14:29:54Z</time>
      </trkpt>
      <trkpt lat="42.79402" lon="-1.4780755">
        <time>2022-07-03T14:29:56Z</time>
      </trkpt>
      <trkpt lat="42.793953" lon="-1.4780124">
        <time>2022-07-03T14:29:58Z</time>
      </trkpt>
      <trkpt lat="42.79388" lon="-1.4779462">
        <time>2022-07-03T14:30:00Z</time>
      </trkpt>
      <trkpt lat="42.793808" lon="-1.4778762">
        <time>2022-07-03T14:30:02Z</time>
      </trkpt>
      <trkpt lat="42.79373" lon="-1.4778016">
        <time>2022-07-03T14:30:04Z</time>
      </trkpt>
      <trkpt lat="42.793655" lon="-1.4777231">
        <time>2022-07-03T14:30:06Z</time>
      </trkpt>
      <trkpt lat="42.793575" lon="-1.4776366">
        <time>2022-07-03T14:30:08Z</time>
      </trkpt>
      <trkpt lat="42.793537" lon="-1.4775922">
        <time>2022-07-03T14:30:09Z</time>
      </trkpt>
      <trkpt lat="42.793495" lon="-1.4775462">
        <time>2022-07-03T14:30:10Z</time>
      </trkpt>
      <trkpt lat="42.793453" lon="-1.4774985">
        <time>2022-07-03T14:30:11Z</time>
      </trkpt>
      <trkpt lat="42.793407" lon="-1.4774458">
        <time>2022-07-03T14:30:12Z</time>
      </trkpt>
      <trkpt lat="42.79336" lon="-1.4773915">
        <time>2022-07-03T14:30:13Z</time>
      </trkpt>
      <trkpt lat="42.793316" lon="-1.4773309">
        <time>2022-07-03T14:30:14Z</time>
      </trkpt>
      <trkpt lat="42.793266" lon="-1.4772692">
        <time>2022-07-03T14:30:15Z</time>
      </trkpt>
      <trkpt lat="42.79322" lon="-1.4772072">
        <time>2022-07-03T14:30:16Z</time>
      </trkpt>
      <trkpt lat="42.79317" lon="-1.4771435">
        <time>2022-07-03T14:30:17Z</time>
      </trkpt>
      <trkpt lat="42.793125" lon="-1.4770778">
        <time>2022-07-03T14:30:18Z</time>
      </trkpt>
      <trkpt lat="42.793076" lon="-1.4770103">
        <time>2022-07-03T14:30:19Z</time>
      </trkpt>
      <trkpt lat="42.793026" lon="-1.4769399">
        <time>2022-07-03T14:30:20Z</time>
      </trkpt>
      <trkpt lat="42.79298" lon="-1.4768726">
        <time>2022-07-03T14:30:21Z</time>
      </trkpt>
      <trkpt lat="42.79293" lon="-1.4768019">
        <time>2022-07-03T14:30:22Z</time>
      </trkpt>
      <trkpt lat="42.792877" lon="-1.4767209">
        <time>2022-07-03T14:30:23Z</time>
      </trkpt>
      <trkpt lat="42.79282" lon="-1.4766386">
        <time>2022-07-03T14:30:24Z</time>
      </trkpt>
      <trkpt lat="42.792767" lon="-1.476556">
        <time>2022-07-03T14:30:25Z</time>
      </trkpt>
      <trkpt lat="42.792713" lon="-1.4764773">
        <time>2022-07-03T14:30:26Z</time>
      </trkpt>
      <trkpt lat="42.792656" lon="-1.4763947">
        <time>2022-07-03T14:30:27Z</time>
      </trkpt>
      <trkpt lat="42.792595" lon="-1.4763033">
        <time>2022-07-03T14:30:28Z</time>
      </trkpt>
      <trkpt lat="42.792534" lon="-1.4762113">
        <time>2022-07-03T14:30:29Z</time>
      </trkpt>
      <trkpt lat="42.792477" lon="-1.4761236">
        <time>2022-07-03T14:30:30Z</time>
      </trkpt>
      <trkpt lat="42.792416" lon="-1.476031">
        <time>2022-07-03T14:30:31Z</time>
      </trkpt>
      <trkpt lat="42.792355" lon="-1.475935">
        <time>2022-07-03T14:30:32Z</time>
      </trkpt>
      <trkpt lat="42.79229" lon="-1.4758353">
        <time>2022-07-03T14:30:33Z</time>
      </trkpt>
      <trkpt lat="42.79222" lon="-1.4757313">
        <time>2022-07-03T14:30:34Z</time>
      </trkpt>
      <trkpt lat="42.792156" lon="-1.4756243">
        <time>2022-07-03T14:30:35Z</time>
      </trkpt>
      <trkpt lat="42.792088" lon="-1.4755147">
        <time>2022-07-03T14:30:36Z</time>
      </trkpt>
      <trkpt lat="42.79202" lon="-1.4754026">
        <time>2022-07-03T14:30:37Z</time>
      </trkpt>
      <trkpt lat="42.79195" lon="-1.475288">
        <time>2022-07-03T14:30:38Z</time>
      </trkpt>
      <trkpt lat="42.791874" lon="-1.4751633">
        <time>2022-07-03T14:30:39Z</time>
      </trkpt>
      <trkpt lat="42.7918" lon="-1.4750394">
        <time>2022-07-03T14:30:40Z</time>
      </trkpt>
      <trkpt lat="42.79173" lon="-1.474915">
        <time>2022-07-03T14:30:41Z</time>
      </trkpt>
      <trkpt lat="42.79166" lon="-1.474799">
        <time>2022-07-03T14:30:42Z</time>
      </trkpt>
      <trkpt lat="42.791584" lon="-1.4746723">
        <time>2022-07-03T14:30:43Z</time>
      </trkpt>
      <trkpt lat="42.79151" lon="-1.4745463">
        <time>2022-07-03T14:30:44Z</time>
      </trkpt>
      <trkpt lat="42.791435" lon="-1.4744214">
        <time>2022-07-03T14:30:45Z</time>
      </trkpt>
      <trkpt lat="42.791363" lon="-1.4743043">
        <time>2022-07-03T14:30:46Z</time>
      </trkpt>
      <trkpt lat="42.791286" lon="-1.4741853">
        <time>2022-07-03T14:30:47Z</time>
      </trkpt>
      <trkpt lat="42.791206" lon="-1.4740644">
        <time>2022-07-03T14:30:48Z</time>
      </trkpt>
      <trkpt lat="42.791134" lon="-1.4739497">
        <time>2022-07-03T14:30:49Z</time>
      </trkpt>
      <trkpt lat="42.79105" lon="-1.4738237">
        <time>2022-07-03T14:30:50Z</time>
      </trkpt>
      <trkpt lat="42.790966" lon="-1.4736977">
        <time>2022-07-03T14:30:51Z</time>
      </trkpt>
      <trkpt lat="42.790882" lon="-1.4735726">
        <time>2022-07-03T14:30:52Z</time>
      </trkpt>
      <trkpt lat="42.7908" lon="-1.4734486">
        <time>2022-07-03T14:30:53Z</time>
      </trkpt>
      <trkpt lat="42.790627" lon="-1.473197">
        <time>2022-07-03T14:30:55Z</time>
      </trkpt>
      <trkpt lat="42.790543" lon="-1.4730777">
        <time>2022-07-03T14:30:56Z</time>
      </trkpt>
      <trkpt lat="42.790462" lon="-1.4729587">
        <time>2022-07-03T14:30:57Z</time>
      </trkpt>
      <trkpt lat="42.79038" lon="-1.4728403">
        <time>2022-07-03T14:30:58Z</time>
      </trkpt>
      <trkpt lat="42.790295" lon="-1.4727223">
        <time>2022-07-03T14:30:59Z</time>
      </trkpt>
      <trkpt lat="42.790215" lon="-1.472604">
        <time>2022-07-03T14:31:00Z</time>
      </trkpt>
      <trkpt lat="42.79013" lon="-1.4724864">
        <time>2022-07-03T14:31:01Z</time>
      </trkpt>
      <trkpt lat="42.79005" lon="-1.4723693">
        <time>2022-07-03T14:31:02Z</time>
      </trkpt>
      <trkpt lat="42.789963" lon="-1.472246">
        <time>2022-07-03T14:31:03Z</time>
      </trkpt>
      <trkpt lat="42.78988" lon="-1.4721254">
        <time>2022-07-03T14:31:04Z</time>
      </trkpt>
      <trkpt lat="42.7898" lon="-1.4720054">
        <time>2022-07-03T14:31:05Z</time>
      </trkpt>
      <trkpt lat="42.789715" lon="-1.471886">
        <time>2022-07-03T14:31:06Z</time>
      </trkpt>
      <trkpt lat="42.78963" lon="-1.471765">
        <time>2022-07-03T14:31:07Z</time>
      </trkpt>
      <trkpt lat="42.78955" lon="-1.4716448">
        <time>2022-07-03T14:31:08Z</time>
      </trkpt>
      <trkpt lat="42.789467" lon="-1.4715244">
        <time>2022-07-03T14:31:09Z</time>
      </trkpt>
      <trkpt lat="42.789387" lon="-1.471405">
        <time>2022-07-03T14:31:10Z</time>
      </trkpt>
      <trkpt lat="42.789307" lon="-1.4712853">
        <time>2022-07-03T14:31:11Z</time>
      </trkpt>
      <trkpt lat="42.789223" lon="-1.4711671">
        <time>2022-07-03T14:31:12Z</time>
      </trkpt>
      <trkpt lat="42.789143" lon="-1.47105">
        <time>2022-07-03T14:31:13Z</time>
      </trkpt>
      <trkpt lat="42.789062" lon="-1.470934">
        <time>2022-07-03T14:31:14Z</time>
      </trkpt>
      <trkpt lat="42.788982" lon="-1.470818">
        <time>2022-07-03T14:31:15Z</time>
      </trkpt>
      <trkpt lat="42.788902" lon="-1.4707017">
        <time>2022-07-03T14:31:16Z</time>
      </trkpt>
      <trkpt lat="42.788822" lon="-1.4705868">
        <time>2022-07-03T14:31:17Z</time>
      </trkpt>
      <trkpt lat="42.788746" lon="-1.470473">
        <time>2022-07-03T14:31:18Z</time>
      </trkpt>
      <trkpt lat="42.788666" lon="-1.4703594">
        <time>2022-07-03T14:31:19Z</time>
      </trkpt>
      <trkpt lat="42.788586" lon="-1.4702461">
        <time>2022-07-03T14:31:20Z</time>
      </trkpt>
      <trkpt lat="42.78851" lon="-1.4701331">
        <time>2022-07-03T14:31:21Z</time>
      </trkpt>
      <trkpt lat="42.788433" lon="-1.4700211">
        <time>2022-07-03T14:31:22Z</time>
      </trkpt>
      <trkpt lat="42.788357" lon="-1.4699104">
        <time>2022-07-03T14:31:23Z</time>
      </trkpt>
      <trkpt lat="42.78828" lon="-1.4698014">
        <time>2022-07-03T14:31:24Z</time>
      </trkpt>
      <trkpt lat="42.788208" lon="-1.4696938">
        <time>2022-07-03T14:31:25Z</time>
      </trkpt>
      <trkpt lat="42.788136" lon="-1.4695878">
        <time>2022-07-03T14:31:26Z</time>
      </trkpt>
      <trkpt lat="42.78806" lon="-1.4694808">
        <time>2022-07-03T14:31:27Z</time>
      </trkpt>
      <trkpt lat="42.787987" lon="-1.4693737">
        <time>2022-07-03T14:31:28Z</time>
      </trkpt>
      <trkpt lat="42.787914" lon="-1.4692664">
        <time>2022-07-03T14:31:29Z</time>
      </trkpt>
      <trkpt lat="42.78784" lon="-1.4691604">
        <time>2022-07-03T14:31:30Z</time>
      </trkpt>
      <trkpt lat="42.78777" lon="-1.4690561">
        <time>2022-07-03T14:31:31Z</time>
      </trkpt>
      <trkpt lat="42.787697" lon="-1.4689528">
        <time>2022-07-03T14:31:32Z</time>
      </trkpt>
      <trkpt lat="42.78762" lon="-1.4688518">
        <time>2022-07-03T14:31:33Z</time>
      </trkpt>
      <trkpt lat="42.78755" lon="-1.468754">
        <time>2022-07-03T14:31:34Z</time>
      </trkpt>
      <trkpt lat="42.787483" lon="-1.4686575">
        <time>2022-07-03T14:31:35Z</time>
      </trkpt>
      <trkpt lat="42.787415" lon="-1.4685614">
        <time>2022-07-03T14:31:36Z</time>
      </trkpt>
      <trkpt lat="42.78735" lon="-1.4684662">
        <time>2022-07-03T14:31:37Z</time>
      </trkpt>
      <trkpt lat="42.78728" lon="-1.4683717">
        <time>2022-07-03T14:31:38Z</time>
      </trkpt>
      <trkpt lat="42.787216" lon="-1.4682782">
        <time>2022-07-03T14:31:39Z</time>
      </trkpt>
      <trkpt lat="42.787155" lon="-1.4681901">
        <time>2022-07-03T14:31:40Z</time>
      </trkpt>
      <trkpt lat="42.787094" lon="-1.4681004">
        <time>2022-07-03T14:31:41Z</time>
      </trkpt>
      <trkpt lat="42.78703" lon="-1.4680041">
        <time>2022-07-03T14:31:42Z</time>
      </trkpt>
      <trkpt lat="42.786964" lon="-1.4679105">
        <time>2022-07-03T14:31:43Z</time>
      </trkpt>
      <trkpt lat="42.786903" lon="-1.4678239">
        <time>2022-07-03T14:31:44Z</time>
      </trkpt>
      <trkpt lat="42.786842" lon="-1.4677378">
        <time>2022-07-03T14:31:45Z</time>
      </trkpt>
      <trkpt lat="42.786785" lon="-1.4676522">
        <time>2022-07-03T14:31:46Z</time>
      </trkpt>
      <trkpt lat="42.786724" lon="-1.4675668">
        <time>2022-07-03T14:31:47Z</time>
      </trkpt>
      <trkpt lat="42.786663" lon="-1.4674822">
        <time>2022-07-03T14:31:48Z</time>
      </trkpt>
      <trkpt lat="42.786606" lon="-1.4673989">
        <time>2022-07-03T14:31:49Z</time>
      </trkpt>
      <trkpt lat="42.78655" lon="-1.4673162">
        <time>2022-07-03T14:31:50Z</time>
      </trkpt>
      <trkpt lat="42.78649" lon="-1.4672345">
        <time>2022-07-03T14:31:51Z</time>
      </trkpt>
      <trkpt lat="42.786434" lon="-1.4671482">
        <time>2022-07-03T14:31:52Z</time>
      </trkpt>
      <trkpt lat="42.786377" lon="-1.4670641">
        <time>2022-07-03T14:31:53Z</time>
      </trkpt>
      <trkpt lat="42.78632" lon="-1.4669828">
        <time>2022-07-03T14:31:54Z</time>
      </trkpt>
      <trkpt lat="42.786266" lon="-1.4669038">
        <time>2022-07-03T14:31:55Z</time>
      </trkpt>
      <trkpt lat="42.786213" lon="-1.4668272">
        <time>2022-07-03T14:31:56Z</time>
      </trkpt>
      <trkpt lat="42.786163" lon="-1.4667516">
        <time>2022-07-03T14:31:57Z</time>
      </trkpt>
      <trkpt lat="42.78611" lon="-1.4666768">
        <time>2022-07-03T14:31:58Z</time>
      </trkpt>
      <trkpt lat="42.78601" lon="-1.4665356">
        <time>2022-07-03T14:32:00Z</time>
      </trkpt>
      <trkpt lat="42.785957" lon="-1.4664639">
        <time>2022-07-03T14:32:01Z</time>
      </trkpt>
      <trkpt lat="42.785904" lon="-1.466394">
        <time>2022-07-03T14:32:02Z</time>
      </trkpt>
      <trkpt lat="42.785854" lon="-1.4663259">
        <time>2022-07-03T14:32:03Z</time>
      </trkpt>
      <trkpt lat="42.7858" lon="-1.4662598">
        <time>2022-07-03T14:32:04Z</time>
      </trkpt>
      <trkpt lat="42.785748" lon="-1.4661949">
        <time>2022-07-03T14:32:05Z</time>
      </trkpt>
      <trkpt lat="42.785698" lon="-1.4661355">
        <time>2022-07-03T14:32:06Z</time>
      </trkpt>
      <trkpt lat="42.785645" lon="-1.4660769">
        <time>2022-07-03T14:32:07Z</time>
      </trkpt>
      <trkpt lat="42.785587" lon="-1.4660199">
        <time>2022-07-03T14:32:08Z</time>
      </trkpt>
      <trkpt lat="42.785534" lon="-1.4659642">
        <time>2022-07-03T14:32:09Z</time>
      </trkpt>
      <trkpt lat="42.785473" lon="-1.4659109">
        <time>2022-07-03T14:32:10Z</time>
      </trkpt>
      <trkpt lat="42.785416" lon="-1.4658602">
        <time>2022-07-03T14:32:11Z</time>
      </trkpt>
      <trkpt lat="42.785355" lon="-1.4658116">
        <time>2022-07-03T14:32:12Z</time>
      </trkpt>
      <trkpt lat="42.785294" lon="-1.4657652">
        <time>2022-07-03T14:32:13Z</time>
      </trkpt>
      <trkpt lat="42.785236" lon="-1.4657216">
        <time>2022-07-03T14:32:14Z</time>
      </trkpt>
      <trkpt lat="42.785175" lon="-1.4656799">
        <time>2022-07-03T14:32:15Z</time>
      </trkpt>
      <trkpt lat="42.785114" lon="-1.465639">
        <time>2022-07-03T14:32:16Z</time>
      </trkpt>
      <trkpt lat="42.785053" lon="-1.4656013">
        <time>2022-07-03T14:32:17Z</time>
      </trkpt>
      <trkpt lat="42.784992" lon="-1.4655663">
        <time>2022-07-03T14:32:18Z</time>
      </trkpt>
      <trkpt lat="42.784935" lon="-1.465536">
        <time>2022-07-03T14:32:19Z</time>
      </trkpt>
      <trkpt lat="42.784878" lon="-1.4655056">
        <time>2022-07-03T14:32:20Z</time>
      </trkpt>
      <trkpt lat="42.784817" lon="-1.4654737">
        <time>2022-07-03T14:32:21Z</time>
      </trkpt>
      <trkpt lat="42.78476" lon="-1.4654427">
        <time>2022-07-03T14:32:22Z</time>
      </trkpt>
      <trkpt lat="42.784702" lon="-1.465411">
        <time>2022-07-03T14:32:23Z</time>
      </trkpt>
      <trkpt lat="42.78465" lon="-1.4653836">
        <time>2022-07-03T14:32:24Z</time>
      </trkpt>
      <trkpt lat="42.7846" lon="-1.465359">
        <time>2022-07-03T14:32:25Z</time>
      </trkpt>
      <trkpt lat="42.784542" lon="-1.4653319">
        <time>2022-07-03T14:32:26Z</time>
      </trkpt>
      <trkpt lat="42.784485" lon="-1.4653046">
        <time>2022-07-03T14:32:27Z</time>
      </trkpt>
      <trkpt lat="42.784428" lon="-1.4652764">
        <time>2022-07-03T14:32:28Z</time>
      </trkpt>
      <trkpt lat="42.784378" lon="-1.4652503">
        <time>2022-07-03T14:32:29Z</time>
      </trkpt>
      <trkpt lat="42.784317" lon="-1.4652207">
        <time>2022-07-03T14:32:30Z</time>
      </trkpt>
      <trkpt lat="42.78426" lon="-1.4651903">
        <time>2022-07-03T14:32:31Z</time>
      </trkpt>
      <trkpt lat="42.784203" lon="-1.4651597">
        <time>2022-07-03T14:32:32Z</time>
      </trkpt>
      <trkpt lat="42.784145" lon="-1.46513">
        <time>2022-07-03T14:32:33Z</time>
      </trkpt>
      <trkpt lat="42.784084" lon="-1.4651">
        <time>2022-07-03T14:32:34Z</time>
      </trkpt>
      <trkpt lat="42.78403" lon="-1.465072">
        <time>2022-07-03T14:32:35Z</time>
      </trkpt>
      <trkpt lat="42.783966" lon="-1.4650403">
        <time>2022-07-03T14:32:36Z</time>
      </trkpt>
      <trkpt lat="42.783905" lon="-1.4650071">
        <time>2022-07-03T14:32:37Z</time>
      </trkpt>
      <trkpt lat="42.78384" lon="-1.464973">
        <time>2022-07-03T14:32:38Z</time>
      </trkpt>
      <trkpt lat="42.783783" lon="-1.4649403">
        <time>2022-07-03T14:32:39Z</time>
      </trkpt>
      <trkpt lat="42.783722" lon="-1.464907">
        <time>2022-07-03T14:32:40Z</time>
      </trkpt>
      <trkpt lat="42.783657" lon="-1.464871">
        <time>2022-07-03T14:32:41Z</time>
      </trkpt>
      <trkpt lat="42.783592" lon="-1.4648373">
        <time>2022-07-03T14:32:42Z</time>
      </trkpt>
      <trkpt lat="42.783527" lon="-1.4648007">
        <time>2022-07-03T14:32:43Z</time>
      </trkpt>
      <trkpt lat="42.783466" lon="-1.4647627">
        <time>2022-07-03T14:32:44Z</time>
      </trkpt>
      <trkpt lat="42.7834" lon="-1.4647247">
        <time>2022-07-03T14:32:45Z</time>
      </trkpt>
      <trkpt lat="42.783344" lon="-1.4646868">
        <time>2022-07-03T14:32:46Z</time>
      </trkpt>
      <trkpt lat="42.783287" lon="-1.4646491">
        <time>2022-07-03T14:32:47Z</time>
      </trkpt>
      <trkpt lat="42.78323" lon="-1.4646127">
        <time>2022-07-03T14:32:48Z</time>
      </trkpt>
      <trkpt lat="42.78318" lon="-1.4645771">
        <time>2022-07-03T14:32:49Z</time>
      </trkpt>
      <trkpt lat="42.783123" lon="-1.4645387">
        <time>2022-07-03T14:32:50Z</time>
      </trkpt>
      <trkpt lat="42.783066" lon="-1.4644988">
        <time>2022-07-03T14:32:51Z</time>
      </trkpt>
      <trkpt lat="42.78301" lon="-1.4644567">
        <time>2022-07-03T14:32:52Z</time>
      </trkpt>
      <trkpt lat="42.782955" lon="-1.4644147">
        <time>2022-07-03T14:32:53Z</time>
      </trkpt>
      <trkpt lat="42.782898" lon="-1.4643717">
        <time>2022-07-03T14:32:54Z</time>
      </trkpt>
      <trkpt lat="42.782845" lon="-1.4643284">
        <time>2022-07-03T14:32:55Z</time>
      </trkpt>
      <trkpt lat="42.78279" lon="-1.4642854">
        <time>2022-07-03T14:32:56Z</time>
      </trkpt>
      <trkpt lat="42.782738" lon="-1.464241">
        <time>2022-07-03T14:32:57Z</time>
      </trkpt>
      <trkpt lat="42.782684" lon="-1.4641927">
        <time>2022-07-03T14:32:58Z</time>
      </trkpt>
      <trkpt lat="42.782635" lon="-1.4641434">
        <time>2022-07-03T14:32:59Z</time>
      </trkpt>
      <trkpt lat="42.78258" lon="-1.4640931">
        <time>2022-07-03T14:33:00Z</time>
      </trkpt>
      <trkpt lat="42.78253" lon="-1.4640414">
        <time>2022-07-03T14:33:01Z</time>
      </trkpt>
      <trkpt lat="42.782486" lon="-1.4639874">
        <time>2022-07-03T14:33:02Z</time>
      </trkpt>
      <trkpt lat="42.782402" lon="-1.4638821">
        <time>2022-07-03T14:33:04Z</time>
      </trkpt>
      <trkpt lat="42.78236" lon="-1.4638288">
        <time>2022-07-03T14:33:05Z</time>
      </trkpt>
      <trkpt lat="42.78232" lon="-1.4637707">
        <time>2022-07-03T14:33:06Z</time>
      </trkpt>
      <trkpt lat="42.782276" lon="-1.4637134">
        <time>2022-07-03T14:33:07Z</time>
      </trkpt>
      <trkpt lat="42.78223" lon="-1.4636571">
        <time>2022-07-03T14:33:08Z</time>
      </trkpt>
      <trkpt lat="42.782192" lon="-1.4636061">
        <time>2022-07-03T14:33:09Z</time>
      </trkpt>
      <trkpt lat="42.782143" lon="-1.4635558">
        <time>2022-07-03T14:33:10Z</time>
      </trkpt>
      <trkpt lat="42.782093" lon="-1.4635124">
        <time>2022-07-03T14:33:11Z</time>
      </trkpt>
      <trkpt lat="42.782043" lon="-1.4634755">
        <time>2022-07-03T14:33:12Z</time>
      </trkpt>
      <trkpt lat="42.78199" lon="-1.4634464">
        <time>2022-07-03T14:33:13Z</time>
      </trkpt>
      <trkpt lat="42.781937" lon="-1.4634198">
        <time>2022-07-03T14:33:14Z</time>
      </trkpt>
      <trkpt lat="42.78188" lon="-1.4633988">
        <time>2022-07-03T14:33:15Z</time>
      </trkpt>
      <trkpt lat="42.781822" lon="-1.4633844">
        <time>2022-07-03T14:33:16Z</time>
      </trkpt>
      <trkpt lat="42.781765" lon="-1.4633771">
        <time>2022-07-03T14:33:17Z</time>
      </trkpt>
      <trkpt lat="42.781708" lon="-1.4633745">
        <time>2022-07-03T14:33:18Z</time>
      </trkpt>
      <trkpt lat="42.78165" lon="-1.4633747">
        <time>2022-07-03T14:33:19Z</time>
      </trkpt>
      <trkpt lat="42.781586" lon="-1.4633788">
        <time>2022-07-03T14:33:20Z</time>
      </trkpt>
      <trkpt lat="42.78152" lon="-1.4633842">
        <time>2022-07-03T14:33:21Z</time>
      </trkpt>
      <trkpt lat="42.781456" lon="-1.4633914">
        <time>2022-07-03T14:33:22Z</time>
      </trkpt>
      <trkpt lat="42.781395" lon="-1.4633998">
        <time>2022-07-03T14:33:23Z</time>
      </trkpt>
      <trkpt lat="42.781326" lon="-1.4634104">
        <time>2022-07-03T14:33:24Z</time>
      </trkpt>
      <trkpt lat="42.781258" lon="-1.4634217">
        <time>2022-07-03T14:33:25Z</time>
      </trkpt>
      <trkpt lat="42.781185" lon="-1.4634334">
        <time>2022-07-03T14:33:26Z</time>
      </trkpt>
      <trkpt lat="42.781116" lon="-1.4634438">
        <time>2022-07-03T14:33:27Z</time>
      </trkpt>
      <trkpt lat="42.781044" lon="-1.463453">
        <time>2022-07-03T14:33:28Z</time>
      </trkpt>
      <trkpt lat="42.780975" lon="-1.4634597">
        <time>2022-07-03T14:33:29Z</time>
      </trkpt>
      <trkpt lat="42.780907" lon="-1.4634614">
        <time>2022-07-03T14:33:30Z</time>
      </trkpt>
      <trkpt lat="42.78084" lon="-1.4634573">
        <time>2022-07-03T14:33:31Z</time>
      </trkpt>
      <trkpt lat="42.78078" lon="-1.4634491">
        <time>2022-07-03T14:33:32Z</time>
      </trkpt>
      <trkpt lat="42.780724" lon="-1.463438">
        <time>2022-07-03T14:33:33Z</time>
      </trkpt>
      <trkpt lat="42.780666" lon="-1.46342">
        <time>2022-07-03T14:33:34Z</time>
      </trkpt>
      <trkpt lat="42.780613" lon="-1.4633985">
        <time>2022-07-03T14:33:35Z</time>
      </trkpt>
      <trkpt lat="42.780563" lon="-1.4633731">
        <time>2022-07-03T14:33:36Z</time>
      </trkpt>
      <trkpt lat="42.780518" lon="-1.4633454">
        <time>2022-07-03T14:33:37Z</time>
      </trkpt>
      <trkpt lat="42.780476" lon="-1.4633174">
        <time>2022-07-03T14:33:38Z</time>
      </trkpt>
      <trkpt lat="42.780403" lon="-1.4632534">
        <time>2022-07-03T14:33:40Z</time>
      </trkpt>
      <trkpt lat="42.780342" lon="-1.4631821">
        <time>2022-07-03T14:33:42Z</time>
      </trkpt>
      <trkpt lat="42.78029" lon="-1.4631084">
        <time>2022-07-03T14:33:44Z</time>
      </trkpt>
      <trkpt lat="42.780247" lon="-1.4630381">
        <time>2022-07-03T14:33:46Z</time>
      </trkpt>
      <trkpt lat="42.780216" lon="-1.4629731">
        <time>2022-07-03T14:33:48Z</time>
      </trkpt>
      <trkpt lat="42.78019" lon="-1.4629098">
        <time>2022-07-03T14:33:50Z</time>
      </trkpt>
      <trkpt lat="42.78016" lon="-1.4628241">
        <time>2022-07-03T14:33:53Z</time>
      </trkpt>
      <trkpt lat="42.780132" lon="-1.4627391">
        <time>2022-07-03T14:33:56Z</time>
      </trkpt>
      <trkpt lat="42.78011" lon="-1.4626528">
        <time>2022-07-03T14:33:59Z</time>
      </trkpt>
      <trkpt lat="42.78009" lon="-1.4625665">
        <time>2022-07-03T14:34:02Z</time>
      </trkpt>
      <trkpt lat="42.780067" lon="-1.4624821">
        <time>2022-07-03T14:34:05Z</time>
      </trkpt>
      <trkpt lat="42.78004" lon="-1.4623678">
        <time>2022-07-03T14:34:09Z</time>
      </trkpt>
      <trkpt lat="42.78002" lon="-1.4622815">
        <time>2022-07-03T14:34:12Z</time>
      </trkpt>
      <trkpt lat="42.780003" lon="-1.4621907">
        <time>2022-07-03T14:34:15Z</time>
      </trkpt>
      <trkpt lat="42.779984" lon="-1.4621065">
        <time>2022-07-03T14:34:18Z</time>
      </trkpt>
      <trkpt lat="42.77996" lon="-1.4620168">
        <time>2022-07-03T14:34:21Z</time>
      </trkpt>
      <trkpt lat="42.779945" lon="-1.4619348">
        <time>2022-07-03T14:34:24Z</time>
      </trkpt>
      <trkpt lat="42.779934" lon="-1.4618605">
        <time>2022-07-03T14:34:27Z</time>
      </trkpt>
      <trkpt lat="42.77992" lon="-1.4617854">
        <time>2022-07-03T14:34:30Z</time>
      </trkpt>
      <trkpt lat="42.7799" lon="-1.4617118">
        <time>2022-07-03T14:34:33Z</time>
      </trkpt>
      <trkpt lat="42.77988" lon="-1.4616455">
        <time>2022-07-03T14:34:36Z</time>
      </trkpt>
      <trkpt lat="42.779858" lon="-1.4615614">
        <time>2022-07-03T14:34:40Z</time>
      </trkpt>
      <trkpt lat="42.77984" lon="-1.4614809">
        <time>2022-07-03T14:34:44Z</time>
      </trkpt>
      <trkpt lat="42.779816" lon="-1.4614085">
        <time>2022-07-03T14:34:48Z</time>
      </trkpt>
      <trkpt lat="42.779793" lon="-1.4613378">
        <time>2022-07-03T14:34:52Z</time>
      </trkpt>
      <trkpt lat="42.77977" lon="-1.4612662">
        <time>2022-07-03T14:34:56Z</time>
      </trkpt>
      <trkpt lat="42.779747" lon="-1.4611955">
        <time>2022-07-03T14:35:00Z</time>
      </trkpt>
      <trkpt lat="42.779716" lon="-1.4611312">
        <time>2022-07-03T14:35:04Z</time>
      </trkpt>
      <trkpt lat="42.779682" lon="-1.4610689">
        <time>2022-07-03T14:35:08Z</time>
      </trkpt>
      <trkpt lat="42.779633" lon="-1.4609956">
        <time>2022-07-03T14:35:13Z</time>
      </trkpt>
      <trkpt lat="42.779594" lon="-1.4609388">
        <time>2022-07-03T14:35:17Z</time>
      </trkpt>
      <trkpt lat="42.77958" lon="-1.4608705">
        <time>2022-07-03T14:35:21Z</time>
      </trkpt>
      <trkpt lat="42.77957" lon="-1.4607909">
        <time>2022-07-03T14:35:25Z</time>
      </trkpt>
      <trkpt lat="42.77954" lon="-1.4607202">
        <time>2022-07-03T14:35:29Z</time>
      </trkpt>
      <trkpt lat="42.779514" lon="-1.460648">
        <time>2022-07-03T14:35:33Z</time>
      </trkpt>
      <trkpt lat="42.779484" lon="-1.4605782">
        <time>2022-07-03T14:35:37Z</time>
      </trkpt>
      <trkpt lat="42.779446" lon="-1.4605225">
        <time>2022-07-03T14:35:41Z</time>
      </trkpt>
      <trkpt lat="42.779408" lon="-1.4604605">
        <time>2022-07-03T14:35:45Z</time>
      </trkpt>
      <trkpt lat="42.779377" lon="-1.4603863">
        <time>2022-07-03T14:35:49Z</time>
      </trkpt>
      <trkpt lat="42.779343" lon="-1.4603082">
        <time>2022-07-03T14:35:53Z</time>
      </trkpt>
      <trkpt lat="42.77931" lon="-1.4602509">
        <time>2022-07-03T14:35:56Z</time>
      </trkpt>
      <trkpt lat="42.779278" lon="-1.4601946">
        <time>2022-07-03T14:35:59Z</time>
      </trkpt>
      <trkpt lat="42.779243" lon="-1.4601166">
        <time>2022-07-03T14:36:03Z</time>
      </trkpt>
      <trkpt lat="42.779213" lon="-1.4600593">
        <time>2022-07-03T14:36:06Z</time>
      </trkpt>
      <trkpt lat="42.779167" lon="-1.4600122">
        <time>2022-07-03T14:36:09Z</time>
      </trkpt>
      <trkpt lat="42.779125" lon="-1.4599422">
        <time>2022-07-03T14:36:12Z</time>
      </trkpt>
      <trkpt lat="42.779083" lon="-1.4598699">
        <time>2022-07-03T14:36:15Z</time>
      </trkpt>
      <trkpt lat="42.779037" lon="-1.4598076">
        <time>2022-07-03T14:36:18Z</time>
      </trkpt>
      <trkpt lat="42.778984" lon="-1.4597362">
        <time>2022-07-03T14:36:21Z</time>
      </trkpt>
      <trkpt lat="42.778942" lon="-1.4596889">
        <time>2022-07-03T14:36:23Z</time>
      </trkpt>
      <trkpt lat="42.77889" lon="-1.4596466">
        <time>2022-07-03T14:36:25Z</time>
      </trkpt>
      <trkpt lat="42.778835" lon="-1.4596076">
        <time>2022-07-03T14:36:27Z</time>
      </trkpt>
      <trkpt lat="42.778793" lon="-1.4595753">
        <time>2022-07-03T14:36:29Z</time>
      </trkpt>
      <trkpt lat="42.778744" lon="-1.4595432">
        <time>2022-07-03T14:36:32Z</time>
      </trkpt>
      <trkpt lat="42.778717" lon="-1.459497">
        <time>2022-07-03T14:36:37Z</time>
      </trkpt>
      <trkpt lat="42.778732" lon="-1.4595046">
        <time>2022-07-03T14:36:44Z</time>
      </trkpt>
      <trkpt lat="42.778698" lon="-1.459559">
        <time>2022-07-03T14:36:48Z</time>
      </trkpt>
      <trkpt lat="42.77866" lon="-1.4595723">
        <time>2022-07-03T14:36:53Z</time>
      </trkpt>
      <trkpt lat="42.778717" lon="-1.4596516">
        <time>2022-07-03T14:37:31Z</time>
      </trkpt>
      <trkpt lat="42.77876" lon="-1.4596186">
        <time>2022-07-03T14:37:38Z</time>
      </trkpt>
      <trkpt lat="42.778748" lon="-1.4595723">
        <time>2022-07-03T14:37:44Z</time>
      </trkpt>
      <trkpt lat="42.778687" lon="-1.4595926">
        <time>2022-07-03T14:37:49Z</time>
      </trkpt>
      <trkpt lat="42.779346" lon="-1.4485539">
        <time>2022-07-03T14:45:17Z</time>
      </trkpt>
      <trkpt lat="42.778763" lon="-1.4589906">
        <time>2022-07-03T14:45:52Z</time>
      </trkpt>
      <trkpt lat="42.778763" lon="-1.45899">
        <time>2022-07-03T14:45:53Z</time>
      </trkpt>
      <trkpt lat="42.778625" lon="-1.4597156">
        <time>2022-07-03T14:46:19Z</time>
      </trkpt>
      <trkpt lat="42.7787" lon="-1.4598389">
        <time>2022-07-03T14:46:46Z</time>
      </trkpt>
      <trkpt lat="42.77866" lon="-1.4595612">
        <time>2022-07-03T14:46:55Z</time>
      </trkpt>
      <trkpt lat="42.77865" lon="-1.4595183">
        <time>2022-07-03T14:46:57Z</time>
      </trkpt>
      <trkpt lat="42.778614" lon="-1.4594846">
        <time>2022-07-03T14:47:01Z</time>
      </trkpt>
      <trkpt lat="42.778698" lon="-1.4598123">
        <time>2022-07-03T14:48:04Z</time>
      </trkpt>
      <trkpt lat="42.778698" lon="-1.4597969">
        <time>2022-07-03T14:48:18Z</time>
      </trkpt>
      <trkpt lat="42.778606" lon="-1.4597672">
        <time>2022-07-03T14:48:22Z</time>
      </trkpt>
      <trkpt lat="42.77856" lon="-1.4597496">
        <time>2022-07-03T14:48:25Z</time>
      </trkpt>
      <trkpt lat="42.7786" lon="-1.4597906">
        <time>2022-07-03T14:48:33Z</time>
      </trkpt>
      <trkpt lat="42.77859" lon="-1.4597869">
        <time>2022-07-03T14:48:38Z</time>
      </trkpt>
      <trkpt lat="42.778515" lon="-1.4597303">
        <time>2022-07-03T14:48:41Z</time>
      </trkpt>
      <trkpt lat="42.77848" lon="-1.4596989">
        <time>2022-07-03T14:48:43Z</time>
      </trkpt>
      <trkpt lat="42.77845" lon="-1.4596547">
        <time>2022-07-03T14:48:46Z</time>
      </trkpt>
      <trkpt lat="42.778534" lon="-1.4596117">
        <time>2022-07-03T14:49:15Z</time>
      </trkpt>
      <trkpt lat="42.778614" lon="-1.459643">
        <time>2022-07-03T14:49:18Z</time>
      </trkpt>
      <trkpt lat="42.778652" lon="-1.4596653">
        <time>2022-07-03T14:49:20Z</time>
      </trkpt>
      <trkpt lat="42.778625" lon="-1.4594513">
        <time>2022-07-03T14:49:37Z</time>
      </trkpt>
      <trkpt lat="42.77866" lon="-1.459508">
        <time>2022-07-03T14:49:40Z</time>
      </trkpt>
      <trkpt lat="42.778683" lon="-1.459561">
        <time>2022-07-03T14:49:43Z</time>
      </trkpt>
      <trkpt lat="42.778687" lon="-1.4596313">
        <time>2022-07-03T14:49:49Z</time>
      </trkpt>
      <trkpt lat="42.7787" lon="-1.4596913">
        <time>2022-07-03T14:49:54Z</time>
      </trkpt>
      <trkpt lat="42.778717" lon="-1.4596896">
        <time>2022-07-03T14:50:04Z</time>
      </trkpt>
      <trkpt lat="42.77867" lon="-1.459719">
        <time>2022-07-03T14:50:13Z</time>
      </trkpt>
      <trkpt lat="42.778687" lon="-1.459791">
        <time>2022-07-03T14:50:26Z</time>
      </trkpt>
      <trkpt lat="42.778652" lon="-1.459752">
        <time>2022-07-03T14:50:36Z</time>
      </trkpt>
      <trkpt lat="42.778175" lon="-1.4590306">
        <time>2022-07-03T14:51:33Z</time>
      </trkpt>
      <trkpt lat="42.778534" lon="-1.4594373">
        <time>2022-07-03T14:52:18Z</time>
      </trkpt>
      <trkpt lat="42.778553" lon="-1.4595026">
        <time>2022-07-03T14:52:19Z</time>
      </trkpt>
      <trkpt lat="42.778572" lon="-1.4595612">
        <time>2022-07-03T14:52:20Z</time>
      </trkpt>
      <trkpt lat="42.77858" lon="-1.459592">
        <time>2022-07-03T14:52:22Z</time>
      </trkpt>
      <trkpt lat="42.778606" lon="-1.4596839">
        <time>2022-07-03T14:52:48Z</time>
      </trkpt>
      <trkpt lat="42.778572" lon="-1.4596196">
        <time>2022-07-03T14:53:29Z</time>
      </trkpt>
      <trkpt lat="42.77857" lon="-1.4595449">
        <time>2022-07-03T14:54:36Z</time>
      </trkpt>
      <trkpt lat="42.778564" lon="-1.4595413">
        <time>2022-07-03T14:54:43Z</time>
      </trkpt>
      <trkpt lat="42.778538" lon="-1.4595447">
        <time>2022-07-03T14:54:57Z</time>
      </trkpt>
      <trkpt lat="42.77852" lon="-1.4594976">
        <time>2022-07-03T14:55:06Z</time>
      </trkpt>
      <trkpt lat="42.778584" lon="-1.4596347">
        <time>2022-07-03T14:55:31Z</time>
      </trkpt>
      <trkpt lat="42.778545" lon="-1.4595857">
        <time>2022-07-03T14:55:39Z</time>
      </trkpt>
      <trkpt lat="42.778538" lon="-1.459518">
        <time>2022-07-03T14:55:47Z</time>
      </trkpt>
      <trkpt lat="42.778625" lon="-1.4595716">
        <time>2022-07-03T14:57:03Z</time>
      </trkpt>
      <trkpt lat="42.778576" lon="-1.4594883">
        <time>2022-07-03T14:59:40Z</time>
      </trkpt>
      <trkpt lat="42.778534" lon="-1.459029">
        <time>2022-07-03T15:01:13Z</time>
      </trkpt>
      <trkpt lat="42.778393" lon="-1.4587176">
        <time>2022-07-03T15:01:51Z</time>
      </trkpt>
      <trkpt lat="42.778305" lon="-1.458709">
        <time>2022-07-03T15:01:54Z</time>
      </trkpt>
      <trkpt lat="42.77825" lon="-1.4587173">
        <time>2022-07-03T15:01:56Z</time>
      </trkpt>
      <trkpt lat="42.778187" lon="-1.4587226">
        <time>2022-07-03T15:01:59Z</time>
      </trkpt>
      <trkpt lat="42.7781" lon="-1.4586062">
        <time>2022-07-03T15:02:02Z</time>
      </trkpt>
      <trkpt lat="42.778057" lon="-1.4585342">
        <time>2022-07-03T15:02:03Z</time>
      </trkpt>
      <trkpt lat="42.778027" lon="-1.4584873">
        <time>2022-07-03T15:02:04Z</time>
      </trkpt>
      <trkpt lat="42.777992" lon="-1.458452">
        <time>2022-07-03T15:02:06Z</time>
      </trkpt>
      <trkpt lat="42.777985" lon="-1.4586207">
        <time>2022-07-03T15:02:21Z</time>
      </trkpt>
      <trkpt lat="42.777985" lon="-1.4586272">
        <time>2022-07-03T15:02:22Z</time>
      </trkpt>
      <trkpt lat="42.778023" lon="-1.4588807">
        <time>2022-07-03T15:02:34Z</time>
      </trkpt>
      <trkpt lat="42.778275" lon="-1.4591143">
        <time>2022-07-03T15:02:57Z</time>
      </trkpt>
      <trkpt lat="42.77839" lon="-1.4592743">
        <time>2022-07-03T15:03:12Z</time>
      </trkpt>
      <trkpt lat="42.778362" lon="-1.4592209">
        <time>2022-07-03T15:03:19Z</time>
      </trkpt>
      <trkpt lat="42.77849" lon="-1.4594103">
        <time>2022-07-03T15:03:37Z</time>
      </trkpt>
      <trkpt lat="42.778503" lon="-1.4593979">
        <time>2022-07-03T15:03:45Z</time>
      </trkpt>
      <trkpt lat="42.77878" lon="-1.4594886">
        <time>2022-07-03T15:05:09Z</time>
      </trkpt>
      <trkpt lat="42.778885" lon="-1.4595616">
        <time>2022-07-03T15:05:47Z</time>
      </trkpt>
      <trkpt lat="42.778908" lon="-1.4596156">
        <time>2022-07-03T15:05:53Z</time>
      </trkpt>
      <trkpt lat="42.778755" lon="-1.4595863">
        <time>2022-07-03T15:06:29Z</time>
      </trkpt>
      <trkpt lat="42.778694" lon="-1.4594222">
        <time>2022-07-03T15:06:52Z</time>
      </trkpt>
      <trkpt lat="42.778645" lon="-1.4594939">
        <time>2022-07-03T15:07:21Z</time>
      </trkpt>
      <trkpt lat="42.778652" lon="-1.4594686">
        <time>2022-07-03T15:07:30Z</time>
      </trkpt>
      <trkpt lat="42.778587" lon="-1.4594753">
        <time>2022-07-03T15:07:40Z</time>
      </trkpt>
      <trkpt lat="42.778534" lon="-1.4594703">
        <time>2022-07-03T15:07:43Z</time>
      </trkpt>
      <trkpt lat="42.77869" lon="-1.4595286">
        <time>2022-07-03T15:08:41Z</time>
      </trkpt>
      <trkpt lat="42.77875" lon="-1.4595503">
        <time>2022-07-03T15:08:45Z</time>
      </trkpt>
      <trkpt lat="42.778778" lon="-1.4595379">
        <time>2022-07-03T15:08:55Z</time>
      </trkpt>
      <trkpt lat="42.7788" lon="-1.4595573">
        <time>2022-07-03T15:09:06Z</time>
      </trkpt>
      <trkpt lat="42.778854" lon="-1.4595976">
        <time>2022-07-03T15:09:12Z</time>
      </trkpt>
      <trkpt lat="42.778957" lon="-1.4597173">
        <time>2022-07-03T15:09:35Z</time>
      </trkpt>
      <trkpt lat="42.778652" lon="-1.4595429">
        <time>2022-07-03T15:10:15Z</time>
      </trkpt>
      <trkpt lat="42.778584" lon="-1.4595866">
        <time>2022-07-03T15:10:19Z</time>
      </trkpt>
      <trkpt lat="42.778538" lon="-1.4596076">
        <time>2022-07-03T15:10:21Z</time>
      </trkpt>
      <trkpt lat="42.77847" lon="-1.4596572">
        <time>2022-07-03T15:10:24Z</time>
      </trkpt>
      <trkpt lat="42.778427" lon="-1.4596876">
        <time>2022-07-03T15:10:26Z</time>
      </trkpt>
      <trkpt lat="42.778362" lon="-1.4597253">
        <time>2022-07-03T15:10:29Z</time>
      </trkpt>
      <trkpt lat="42.7783" lon="-1.4597598">
        <time>2022-07-03T15:10:32Z</time>
      </trkpt>
      <trkpt lat="42.778233" lon="-1.4597862">
        <time>2022-07-03T15:10:35Z</time>
      </trkpt>
      <trkpt lat="42.778164" lon="-1.4598066">
        <time>2022-07-03T15:10:38Z</time>
      </trkpt>
      <trkpt lat="42.77812" lon="-1.4598225">
        <time>2022-07-03T15:10:40Z</time>
      </trkpt>
      <trkpt lat="42.778046" lon="-1.4598528">
        <time>2022-07-03T15:10:43Z</time>
      </trkpt>
      <trkpt lat="42.777992" lon="-1.4598691">
        <time>2022-07-03T15:10:45Z</time>
      </trkpt>
      <trkpt lat="42.777935" lon="-1.4598819">
        <time>2022-07-03T15:10:47Z</time>
      </trkpt>
      <trkpt lat="42.777874" lon="-1.4598778">
        <time>2022-07-03T15:10:49Z</time>
      </trkpt>
      <trkpt lat="42.777824" lon="-1.4598519">
        <time>2022-07-03T15:10:51Z</time>
      </trkpt>
      <trkpt lat="42.777782" lon="-1.4598012">
        <time>2022-07-03T15:10:53Z</time>
      </trkpt>
      <trkpt lat="42.77775" lon="-1.4597332">
        <time>2022-07-03T15:10:55Z</time>
      </trkpt>
      <trkpt lat="42.777718" lon="-1.4596646">
        <time>2022-07-03T15:10:57Z</time>
      </trkpt>
      <trkpt lat="42.777676" lon="-1.4596109">
        <time>2022-07-03T15:10:59Z</time>
      </trkpt>
      <trkpt lat="42.777615" lon="-1.4595852">
        <time>2022-07-03T15:11:02Z</time>
      </trkpt>
      <trkpt lat="42.777546" lon="-1.45958">
        <time>2022-07-03T15:11:05Z</time>
      </trkpt>
      <trkpt lat="42.77747" lon="-1.4595872">
        <time>2022-07-03T15:11:08Z</time>
      </trkpt>
      <trkpt lat="42.777405" lon="-1.4595963">
        <time>2022-07-03T15:11:10Z</time>
      </trkpt>
      <trkpt lat="42.777332" lon="-1.4596009">
        <time>2022-07-03T15:11:12Z</time>
      </trkpt>
      <trkpt lat="42.777256" lon="-1.4595913">
        <time>2022-07-03T15:11:14Z</time>
      </trkpt>
      <trkpt lat="42.777184" lon="-1.4595636">
        <time>2022-07-03T15:11:16Z</time>
      </trkpt>
      <trkpt lat="42.777115" lon="-1.4595048">
        <time>2022-07-03T15:11:18Z</time>
      </trkpt>
      <trkpt lat="42.777046" lon="-1.4594183">
        <time>2022-07-03T15:11:20Z</time>
      </trkpt>
      <trkpt lat="42.777016" lon="-1.4593639">
        <time>2022-07-03T15:11:21Z</time>
      </trkpt>
      <trkpt lat="42.776955" lon="-1.459227">
        <time>2022-07-03T15:11:23Z</time>
      </trkpt>
      <trkpt lat="42.776928" lon="-1.4591455">
        <time>2022-07-03T15:11:24Z</time>
      </trkpt>
      <trkpt lat="42.776897" lon="-1.4590576">
        <time>2022-07-03T15:11:25Z</time>
      </trkpt>
      <trkpt lat="42.77687" lon="-1.4589633">
        <time>2022-07-03T15:11:26Z</time>
      </trkpt>
      <trkpt lat="42.77684" lon="-1.4588623">
        <time>2022-07-03T15:11:27Z</time>
      </trkpt>
      <trkpt lat="42.77681" lon="-1.4587562">
        <time>2022-07-03T15:11:28Z</time>
      </trkpt>
      <trkpt lat="42.77678" lon="-1.458638">
        <time>2022-07-03T15:11:29Z</time>
      </trkpt>
      <trkpt lat="42.77675" lon="-1.4585255">
        <time>2022-07-03T15:11:30Z</time>
      </trkpt>
      <trkpt lat="42.77672" lon="-1.4584093">
        <time>2022-07-03T15:11:31Z</time>
      </trkpt>
      <trkpt lat="42.776684" lon="-1.4582789">
        <time>2022-07-03T15:11:32Z</time>
      </trkpt>
      <trkpt lat="42.776653" lon="-1.4581566">
        <time>2022-07-03T15:11:33Z</time>
      </trkpt>
      <trkpt lat="42.776615" lon="-1.45803">
        <time>2022-07-03T15:11:34Z</time>
      </trkpt>
      <trkpt lat="42.776546" lon="-1.4577669">
        <time>2022-07-03T15:11:36Z</time>
      </trkpt>
      <trkpt lat="42.776512" lon="-1.4576343">
        <time>2022-07-03T15:11:37Z</time>
      </trkpt>
      <trkpt lat="42.776474" lon="-1.4574946">
        <time>2022-07-03T15:11:38Z</time>
      </trkpt>
      <trkpt lat="42.77644" lon="-1.4573616">
        <time>2022-07-03T15:11:39Z</time>
      </trkpt>
      <trkpt lat="42.776405" lon="-1.4572409">
        <time>2022-07-03T15:11:40Z</time>
      </trkpt>
      <trkpt lat="42.776375" lon="-1.457121">
        <time>2022-07-03T15:11:41Z</time>
      </trkpt>
      <trkpt lat="42.77635" lon="-1.4570023">
        <time>2022-07-03T15:11:42Z</time>
      </trkpt>
      <trkpt lat="42.77632" lon="-1.4568826">
        <time>2022-07-03T15:11:43Z</time>
      </trkpt>
      <trkpt lat="42.776302" lon="-1.4567523">
        <time>2022-07-03T15:11:44Z</time>
      </trkpt>
      <trkpt lat="42.77629" lon="-1.4566233">
        <time>2022-07-03T15:11:45Z</time>
      </trkpt>
      <trkpt lat="42.776283" lon="-1.4565033">
        <time>2022-07-03T15:11:46Z</time>
      </trkpt>
      <trkpt lat="42.776283" lon="-1.45638">
        <time>2022-07-03T15:11:47Z</time>
      </trkpt>
      <trkpt lat="42.77629" lon="-1.456254">
        <time>2022-07-03T15:11:48Z</time>
      </trkpt>
      <trkpt lat="42.77631" lon="-1.45612">
        <time>2022-07-03T15:11:49Z</time>
      </trkpt>
      <trkpt lat="42.776333" lon="-1.4559977">
        <time>2022-07-03T15:11:50Z</time>
      </trkpt>
      <trkpt lat="42.77636" lon="-1.4558756">
        <time>2022-07-03T15:11:51Z</time>
      </trkpt>
      <trkpt lat="42.776394" lon="-1.4557467">
        <time>2022-07-03T15:11:52Z</time>
      </trkpt>
      <trkpt lat="42.77643" lon="-1.4556286">
        <time>2022-07-03T15:11:53Z</time>
      </trkpt>
      <trkpt lat="42.776463" lon="-1.455503">
        <time>2022-07-03T15:11:54Z</time>
      </trkpt>
      <trkpt lat="42.776497" lon="-1.455388">
        <time>2022-07-03T15:11:55Z</time>
      </trkpt>
      <trkpt lat="42.776535" lon="-1.455272">
        <time>2022-07-03T15:11:56Z</time>
      </trkpt>
      <trkpt lat="42.776573" lon="-1.4551474">
        <time>2022-07-03T15:11:57Z</time>
      </trkpt>
      <trkpt lat="42.776608" lon="-1.4550337">
        <time>2022-07-03T15:11:58Z</time>
      </trkpt>
      <trkpt lat="42.77664" lon="-1.45492">
        <time>2022-07-03T15:11:59Z</time>
      </trkpt>
      <trkpt lat="42.77668" lon="-1.454807">
        <time>2022-07-03T15:12:00Z</time>
      </trkpt>
      <trkpt lat="42.776714" lon="-1.454695">
        <time>2022-07-03T15:12:01Z</time>
      </trkpt>
      <trkpt lat="42.77675" lon="-1.4545914">
        <time>2022-07-03T15:12:02Z</time>
      </trkpt>
      <trkpt lat="42.776783" lon="-1.4544857">
        <time>2022-07-03T15:12:03Z</time>
      </trkpt>
      <trkpt lat="42.776817" lon="-1.4543554">
        <time>2022-07-03T15:12:04Z</time>
      </trkpt>
      <trkpt lat="42.776848" lon="-1.4542373">
        <time>2022-07-03T15:12:05Z</time>
      </trkpt>
      <trkpt lat="42.77688" lon="-1.4541264">
        <time>2022-07-03T15:12:06Z</time>
      </trkpt>
      <trkpt lat="42.7769" lon="-1.45402">
        <time>2022-07-03T15:12:07Z</time>
      </trkpt>
      <trkpt lat="42.776928" lon="-1.4539">
        <time>2022-07-03T15:12:08Z</time>
      </trkpt>
      <trkpt lat="42.77695" lon="-1.4537871">
        <time>2022-07-03T15:12:09Z</time>
      </trkpt>
      <trkpt lat="42.776974" lon="-1.4536713">
        <time>2022-07-03T15:12:10Z</time>
      </trkpt>
      <trkpt lat="42.776997" lon="-1.453554">
        <time>2022-07-03T15:12:11Z</time>
      </trkpt>
      <trkpt lat="42.77702" lon="-1.453436">
        <time>2022-07-03T15:12:12Z</time>
      </trkpt>
      <trkpt lat="42.77704" lon="-1.4533167">
        <time>2022-07-03T15:12:13Z</time>
      </trkpt>
      <trkpt lat="42.777054" lon="-1.4531968">
        <time>2022-07-03T15:12:14Z</time>
      </trkpt>
      <trkpt lat="42.777065" lon="-1.453076">
        <time>2022-07-03T15:12:15Z</time>
      </trkpt>
      <trkpt lat="42.777073" lon="-1.4529464">
        <time>2022-07-03T15:12:16Z</time>
      </trkpt>
      <trkpt lat="42.777073" lon="-1.4528197">
        <time>2022-07-03T15:12:17Z</time>
      </trkpt>
      <trkpt lat="42.77707" lon="-1.4527037">
        <time>2022-07-03T15:12:18Z</time>
      </trkpt>
      <trkpt lat="42.777058" lon="-1.4525801">
        <time>2022-07-03T15:12:19Z</time>
      </trkpt>
      <trkpt lat="42.777046" lon="-1.4524678">
        <time>2022-07-03T15:12:20Z</time>
      </trkpt>
      <trkpt lat="42.777027" lon="-1.4523567">
        <time>2022-07-03T15:12:21Z</time>
      </trkpt>
      <trkpt lat="42.777008" lon="-1.4522474">
        <time>2022-07-03T15:12:22Z</time>
      </trkpt>
      <trkpt lat="42.77699" lon="-1.4521408">
        <time>2022-07-03T15:12:23Z</time>
      </trkpt>
      <trkpt lat="42.776966" lon="-1.4520358">
        <time>2022-07-03T15:12:24Z</time>
      </trkpt>
      <trkpt lat="42.776943" lon="-1.4519334">
        <time>2022-07-03T15:12:25Z</time>
      </trkpt>
      <trkpt lat="42.77692" lon="-1.451827">
        <time>2022-07-03T15:12:26Z</time>
      </trkpt>
      <trkpt lat="42.776897" lon="-1.4517238">
        <time>2022-07-03T15:12:27Z</time>
      </trkpt>
      <trkpt lat="42.77687" lon="-1.4516238">
        <time>2022-07-03T15:12:28Z</time>
      </trkpt>
      <trkpt lat="42.776848" lon="-1.4515254">
        <time>2022-07-03T15:12:29Z</time>
      </trkpt>
      <trkpt lat="42.776825" lon="-1.4514288">
        <time>2022-07-03T15:12:30Z</time>
      </trkpt>
      <trkpt lat="42.776802" lon="-1.4513345">
        <time>2022-07-03T15:12:31Z</time>
      </trkpt>
      <trkpt lat="42.77678" lon="-1.4512415">
        <time>2022-07-03T15:12:32Z</time>
      </trkpt>
      <trkpt lat="42.776756" lon="-1.4511504">
        <time>2022-07-03T15:12:33Z</time>
      </trkpt>
      <trkpt lat="42.776733" lon="-1.4510651">
        <time>2022-07-03T15:12:34Z</time>
      </trkpt>
      <trkpt lat="42.776707" lon="-1.4509732">
        <time>2022-07-03T15:12:35Z</time>
      </trkpt>
      <trkpt lat="42.776684" lon="-1.4508821">
        <time>2022-07-03T15:12:36Z</time>
      </trkpt>
      <trkpt lat="42.77666" lon="-1.4507935">
        <time>2022-07-03T15:12:37Z</time>
      </trkpt>
      <trkpt lat="42.77661" lon="-1.4506202">
        <time>2022-07-03T15:12:39Z</time>
      </trkpt>
      <trkpt lat="42.776585" lon="-1.4505337">
        <time>2022-07-03T15:12:40Z</time>
      </trkpt>
      <trkpt lat="42.77656" lon="-1.4504488">
        <time>2022-07-03T15:12:41Z</time>
      </trkpt>
      <trkpt lat="42.77654" lon="-1.4503645">
        <time>2022-07-03T15:12:42Z</time>
      </trkpt>
      <trkpt lat="42.776516" lon="-1.4502815">
        <time>2022-07-03T15:12:43Z</time>
      </trkpt>
      <trkpt lat="42.776497" lon="-1.4501991">
        <time>2022-07-03T15:12:44Z</time>
      </trkpt>
      <trkpt lat="42.77648" lon="-1.4501175">
        <time>2022-07-03T15:12:45Z</time>
      </trkpt>
      <trkpt lat="42.776463" lon="-1.4500378">
        <time>2022-07-03T15:12:46Z</time>
      </trkpt>
      <trkpt lat="42.776447" lon="-1.4499578">
        <time>2022-07-03T15:12:47Z</time>
      </trkpt>
      <trkpt lat="42.77643" lon="-1.4498779">
        <time>2022-07-03T15:12:48Z</time>
      </trkpt>
      <trkpt lat="42.77641" lon="-1.4497979">
        <time>2022-07-03T15:12:49Z</time>
      </trkpt>
      <trkpt lat="42.77639" lon="-1.4497185">
        <time>2022-07-03T15:12:50Z</time>
      </trkpt>
      <trkpt lat="42.77637" lon="-1.4496388">
        <time>2022-07-03T15:12:51Z</time>
      </trkpt>
      <trkpt lat="42.776352" lon="-1.4495592">
        <time>2022-07-03T15:12:52Z</time>
      </trkpt>
      <trkpt lat="42.77633" lon="-1.4494789">
        <time>2022-07-03T15:12:53Z</time>
      </trkpt>
      <trkpt lat="42.77631" lon="-1.4493985">
        <time>2022-07-03T15:12:54Z</time>
      </trkpt>
      <trkpt lat="42.776287" lon="-1.4493178">
        <time>2022-07-03T15:12:55Z</time>
      </trkpt>
      <trkpt lat="42.776268" lon="-1.4492372">
        <time>2022-07-03T15:12:56Z</time>
      </trkpt>
      <trkpt lat="42.77625" lon="-1.4491569">
        <time>2022-07-03T15:12:57Z</time>
      </trkpt>
      <trkpt lat="42.77623" lon="-1.4490762">
        <time>2022-07-03T15:12:58Z</time>
      </trkpt>
      <trkpt lat="42.776207" lon="-1.4489952">
        <time>2022-07-03T15:12:59Z</time>
      </trkpt>
      <trkpt lat="42.776188" lon="-1.4489145">
        <time>2022-07-03T15:13:00Z</time>
      </trkpt>
      <trkpt lat="42.77617" lon="-1.4488329">
        <time>2022-07-03T15:13:01Z</time>
      </trkpt>
      <trkpt lat="42.776146" lon="-1.4487512">
        <time>2022-07-03T15:13:02Z</time>
      </trkpt>
      <trkpt lat="42.776127" lon="-1.4486703">
        <time>2022-07-03T15:13:03Z</time>
      </trkpt>
      <trkpt lat="42.776104" lon="-1.4485829">
        <time>2022-07-03T15:13:04Z</time>
      </trkpt>
      <trkpt lat="42.776085" lon="-1.4485025">
        <time>2022-07-03T15:13:05Z</time>
      </trkpt>
      <trkpt lat="42.77607" lon="-1.4484216">
        <time>2022-07-03T15:13:06Z</time>
      </trkpt>
      <trkpt lat="42.77605" lon="-1.4483399">
        <time>2022-07-03T15:13:07Z</time>
      </trkpt>
      <trkpt lat="42.776035" lon="-1.4482576">
        <time>2022-07-03T15:13:08Z</time>
      </trkpt>
      <trkpt lat="42.77602" lon="-1.4481755">
        <time>2022-07-03T15:13:09Z</time>
      </trkpt>
      <trkpt lat="42.776005" lon="-1.4480942">
        <time>2022-07-03T15:13:10Z</time>
      </trkpt>
      <trkpt lat="42.775986" lon="-1.4480072">
        <time>2022-07-03T15:13:11Z</time>
      </trkpt>
      <trkpt lat="42.775974" lon="-1.4479269">
        <time>2022-07-03T15:13:12Z</time>
      </trkpt>
      <trkpt lat="42.77596" lon="-1.4478409">
        <time>2022-07-03T15:13:13Z</time>
      </trkpt>
      <trkpt lat="42.775944" lon="-1.4477619">
        <time>2022-07-03T15:13:14Z</time>
      </trkpt>
      <trkpt lat="42.775932" lon="-1.4476819">
        <time>2022-07-03T15:13:15Z</time>
      </trkpt>
      <trkpt lat="42.77592" lon="-1.4476012">
        <time>2022-07-03T15:13:16Z</time>
      </trkpt>
      <trkpt lat="42.775906" lon="-1.4475212">
        <time>2022-07-03T15:13:17Z</time>
      </trkpt>
      <trkpt lat="42.775894" lon="-1.4474412">
        <time>2022-07-03T15:13:18Z</time>
      </trkpt>
      <trkpt lat="42.775883" lon="-1.447362">
        <time>2022-07-03T15:13:19Z</time>
      </trkpt>
      <trkpt lat="42.775867" lon="-1.4472816">
        <time>2022-07-03T15:13:20Z</time>
      </trkpt>
      <trkpt lat="42.775856" lon="-1.4472016">
        <time>2022-07-03T15:13:21Z</time>
      </trkpt>
      <trkpt lat="42.775845" lon="-1.4471209">
        <time>2022-07-03T15:13:22Z</time>
      </trkpt>
      <trkpt lat="42.775833" lon="-1.4470406">
        <time>2022-07-03T15:13:23Z</time>
      </trkpt>
      <trkpt lat="42.775826" lon="-1.4469602">
        <time>2022-07-03T15:13:24Z</time>
      </trkpt>
      <trkpt lat="42.775814" lon="-1.4468796">
        <time>2022-07-03T15:13:25Z</time>
      </trkpt>
      <trkpt lat="42.775806" lon="-1.4467986">
        <time>2022-07-03T15:13:26Z</time>
      </trkpt>
      <trkpt lat="42.775795" lon="-1.446718">
        <time>2022-07-03T15:13:27Z</time>
      </trkpt>
      <trkpt lat="42.775787" lon="-1.4466373">
        <time>2022-07-03T15:13:28Z</time>
      </trkpt>
      <trkpt lat="42.775776" lon="-1.4465523">
        <time>2022-07-03T15:13:29Z</time>
      </trkpt>
      <trkpt lat="42.775764" lon="-1.4464736">
        <time>2022-07-03T15:13:30Z</time>
      </trkpt>
      <trkpt lat="42.775757" lon="-1.4463946">
        <time>2022-07-03T15:13:31Z</time>
      </trkpt>
      <trkpt lat="42.775745" lon="-1.4463146">
        <time>2022-07-03T15:13:32Z</time>
      </trkpt>
      <trkpt lat="42.775734" lon="-1.4462346">
        <time>2022-07-03T15:13:33Z</time>
      </trkpt>
      <trkpt lat="42.775726" lon="-1.4461557">
        <time>2022-07-03T15:13:34Z</time>
      </trkpt>
      <trkpt lat="42.775715" lon="-1.446077">
        <time>2022-07-03T15:13:35Z</time>
      </trkpt>
      <trkpt lat="42.775707" lon="-1.4459974">
        <time>2022-07-03T15:13:36Z</time>
      </trkpt>
      <trkpt lat="42.775696" lon="-1.4459176">
        <time>2022-07-03T15:13:37Z</time>
      </trkpt>
      <trkpt lat="42.77569" lon="-1.4458373">
        <time>2022-07-03T15:13:38Z</time>
      </trkpt>
      <trkpt lat="42.77568" lon="-1.445756">
        <time>2022-07-03T15:13:39Z</time>
      </trkpt>
      <trkpt lat="42.77567" lon="-1.445675">
        <time>2022-07-03T15:13:40Z</time>
      </trkpt>
      <trkpt lat="42.77566" lon="-1.445594">
        <time>2022-07-03T15:13:41Z</time>
      </trkpt>
      <trkpt lat="42.775654" lon="-1.445513">
        <time>2022-07-03T15:13:42Z</time>
      </trkpt>
      <trkpt lat="42.775635" lon="-1.445354">
        <time>2022-07-03T15:13:44Z</time>
      </trkpt>
      <trkpt lat="42.775627" lon="-1.4452753">
        <time>2022-07-03T15:13:45Z</time>
      </trkpt>
      <trkpt lat="42.775616" lon="-1.4451963">
        <time>2022-07-03T15:13:46Z</time>
      </trkpt>
      <trkpt lat="42.775608" lon="-1.4451174">
        <time>2022-07-03T15:13:47Z</time>
      </trkpt>
      <trkpt lat="42.7756" lon="-1.4450403">
        <time>2022-07-03T15:13:48Z</time>
      </trkpt>
      <trkpt lat="42.77559" lon="-1.4449646">
        <time>2022-07-03T15:13:49Z</time>
      </trkpt>
      <trkpt lat="42.77558" lon="-1.444889">
        <time>2022-07-03T15:13:50Z</time>
      </trkpt>
      <trkpt lat="42.77557" lon="-1.4448137">
        <time>2022-07-03T15:13:51Z</time>
      </trkpt>
      <trkpt lat="42.775562" lon="-1.444739">
        <time>2022-07-03T15:13:52Z</time>
      </trkpt>
      <trkpt lat="42.77555" lon="-1.444664">
        <time>2022-07-03T15:13:53Z</time>
      </trkpt>
      <trkpt lat="42.77554" lon="-1.4445894">
        <time>2022-07-03T15:13:54Z</time>
      </trkpt>
      <trkpt lat="42.77553" lon="-1.4445144">
        <time>2022-07-03T15:13:55Z</time>
      </trkpt>
      <trkpt lat="42.77552" lon="-1.4444346">
        <time>2022-07-03T15:13:56Z</time>
      </trkpt>
      <trkpt lat="42.77551" lon="-1.444361">
        <time>2022-07-03T15:13:57Z</time>
      </trkpt>
      <trkpt lat="42.7755" lon="-1.4442877">
        <time>2022-07-03T15:13:58Z</time>
      </trkpt>
      <trkpt lat="42.775494" lon="-1.444214">
        <time>2022-07-03T15:13:59Z</time>
      </trkpt>
      <trkpt lat="42.775486" lon="-1.4441407">
        <time>2022-07-03T15:14:00Z</time>
      </trkpt>
      <trkpt lat="42.77548" lon="-1.4440677">
        <time>2022-07-03T15:14:01Z</time>
      </trkpt>
      <trkpt lat="42.775467" lon="-1.4439911">
        <time>2022-07-03T15:14:02Z</time>
      </trkpt>
      <trkpt lat="42.775455" lon="-1.4439167">
        <time>2022-07-03T15:14:03Z</time>
      </trkpt>
      <trkpt lat="42.77544" lon="-1.4438437">
        <time>2022-07-03T15:14:04Z</time>
      </trkpt>
      <trkpt lat="42.775425" lon="-1.4437724">
        <time>2022-07-03T15:14:05Z</time>
      </trkpt>
      <trkpt lat="42.77541" lon="-1.4437007">
        <time>2022-07-03T15:14:06Z</time>
      </trkpt>
      <trkpt lat="42.775394" lon="-1.4436294">
        <time>2022-07-03T15:14:07Z</time>
      </trkpt>
      <trkpt lat="42.775383" lon="-1.4435587">
        <time>2022-07-03T15:14:08Z</time>
      </trkpt>
      <trkpt lat="42.775368" lon="-1.4434934">
        <time>2022-07-03T15:14:09Z</time>
      </trkpt>
      <trkpt lat="42.775352" lon="-1.4434224">
        <time>2022-07-03T15:14:10Z</time>
      </trkpt>
      <trkpt lat="42.775337" lon="-1.4433521">
        <time>2022-07-03T15:14:11Z</time>
      </trkpt>
      <trkpt lat="42.775326" lon="-1.4432824">
        <time>2022-07-03T15:14:12Z</time>
      </trkpt>
      <trkpt lat="42.775314" lon="-1.4432174">
        <time>2022-07-03T15:14:13Z</time>
      </trkpt>
      <trkpt lat="42.775288" lon="-1.4430808">
        <time>2022-07-03T15:14:15Z</time>
      </trkpt>
      <trkpt lat="42.775276" lon="-1.4430125">
        <time>2022-07-03T15:14:16Z</time>
      </trkpt>
      <trkpt lat="42.775246" lon="-1.4428781">
        <time>2022-07-03T15:14:18Z</time>
      </trkpt>
      <trkpt lat="42.77523" lon="-1.4428115">
        <time>2022-07-03T15:14:19Z</time>
      </trkpt>
      <trkpt lat="42.775215" lon="-1.4427494">
        <time>2022-07-03T15:14:20Z</time>
      </trkpt>
      <trkpt lat="42.775185" lon="-1.4426194">
        <time>2022-07-03T15:14:22Z</time>
      </trkpt>
      <trkpt lat="42.775158" lon="-1.4424998">
        <time>2022-07-03T15:14:24Z</time>
      </trkpt>
      <trkpt lat="42.77513" lon="-1.4423851">
        <time>2022-07-03T15:14:26Z</time>
      </trkpt>
      <trkpt lat="42.77511" lon="-1.4422715">
        <time>2022-07-03T15:14:28Z</time>
      </trkpt>
      <trkpt lat="42.77509" lon="-1.4421631">
        <time>2022-07-03T15:14:30Z</time>
      </trkpt>
      <trkpt lat="42.775066" lon="-1.4420545">
        <time>2022-07-03T15:14:32Z</time>
      </trkpt>
      <trkpt lat="42.775047" lon="-1.4419488">
        <time>2022-07-03T15:14:34Z</time>
      </trkpt>
      <trkpt lat="42.775032" lon="-1.4418519">
        <time>2022-07-03T15:14:36Z</time>
      </trkpt>
      <trkpt lat="42.775017" lon="-1.4417485">
        <time>2022-07-03T15:14:38Z</time>
      </trkpt>
      <trkpt lat="42.775" lon="-1.4416509">
        <time>2022-07-03T15:14:40Z</time>
      </trkpt>
      <trkpt lat="42.774986" lon="-1.4415442">
        <time>2022-07-03T15:14:42Z</time>
      </trkpt>
      <trkpt lat="42.77497" lon="-1.4414345">
        <time>2022-07-03T15:14:44Z</time>
      </trkpt>
      <trkpt lat="42.774956" lon="-1.4413315">
        <time>2022-07-03T15:14:46Z</time>
      </trkpt>
      <trkpt lat="42.774944" lon="-1.4412185">
        <time>2022-07-03T15:14:48Z</time>
      </trkpt>
      <trkpt lat="42.77493" lon="-1.4411001">
        <time>2022-07-03T15:14:50Z</time>
      </trkpt>
      <trkpt lat="42.77492" lon="-1.4409889">
        <time>2022-07-03T15:14:52Z</time>
      </trkpt>
      <trkpt lat="42.774914" lon="-1.4408609">
        <time>2022-07-03T15:14:54Z</time>
      </trkpt>
      <trkpt lat="42.774906" lon="-1.4407355">
        <time>2022-07-03T15:14:56Z</time>
      </trkpt>
      <trkpt lat="42.774902" lon="-1.4406068">
        <time>2022-07-03T15:14:58Z</time>
      </trkpt>
      <trkpt lat="42.7749" lon="-1.4404719">
        <time>2022-07-03T15:15:00Z</time>
      </trkpt>
      <trkpt lat="42.774895" lon="-1.4403322">
        <time>2022-07-03T15:15:02Z</time>
      </trkpt>
      <trkpt lat="42.774895" lon="-1.4402609">
        <time>2022-07-03T15:15:03Z</time>
      </trkpt>
      <trkpt lat="42.77489" lon="-1.4401839">
        <time>2022-07-03T15:15:04Z</time>
      </trkpt>
      <trkpt lat="42.774887" lon="-1.4401076">
        <time>2022-07-03T15:15:05Z</time>
      </trkpt>
      <trkpt lat="42.774883" lon="-1.4400322">
        <time>2022-07-03T15:15:06Z</time>
      </trkpt>
      <trkpt lat="42.77488" lon="-1.4399621">
        <time>2022-07-03T15:15:07Z</time>
      </trkpt>
      <trkpt lat="42.77488" lon="-1.4398899">
        <time>2022-07-03T15:15:08Z</time>
      </trkpt>
      <trkpt lat="42.774876" lon="-1.4398152">
        <time>2022-07-03T15:15:09Z</time>
      </trkpt>
      <trkpt lat="42.774876" lon="-1.4397392">
        <time>2022-07-03T15:15:10Z</time>
      </trkpt>
      <trkpt lat="42.77487" lon="-1.4396615">
        <time>2022-07-03T15:15:11Z</time>
      </trkpt>
      <trkpt lat="42.77487" lon="-1.4395839">
        <time>2022-07-03T15:15:12Z</time>
      </trkpt>
      <trkpt lat="42.77487" lon="-1.4395052">
        <time>2022-07-03T15:15:13Z</time>
      </trkpt>
      <trkpt lat="42.77487" lon="-1.4394252">
        <time>2022-07-03T15:15:14Z</time>
      </trkpt>
      <trkpt lat="42.77487" lon="-1.4393445">
        <time>2022-07-03T15:15:15Z</time>
      </trkpt>
      <trkpt lat="42.77487" lon="-1.4392636">
        <time>2022-07-03T15:15:16Z</time>
      </trkpt>
      <trkpt lat="42.77487" lon="-1.4391812">
        <time>2022-07-03T15:15:17Z</time>
      </trkpt>
      <trkpt lat="42.77487" lon="-1.4390982">
        <time>2022-07-03T15:15:18Z</time>
      </trkpt>
      <trkpt lat="42.774876" lon="-1.4390146">
        <time>2022-07-03T15:15:19Z</time>
      </trkpt>
      <trkpt lat="42.77488" lon="-1.4389292">
        <time>2022-07-03T15:15:20Z</time>
      </trkpt>
      <trkpt lat="42.77488" lon="-1.4388376">
        <time>2022-07-03T15:15:21Z</time>
      </trkpt>
      <trkpt lat="42.774883" lon="-1.4387529">
        <time>2022-07-03T15:15:22Z</time>
      </trkpt>
      <trkpt lat="42.774887" lon="-1.4386669">
        <time>2022-07-03T15:15:23Z</time>
      </trkpt>
      <trkpt lat="42.774887" lon="-1.4385809">
        <time>2022-07-03T15:15:24Z</time>
      </trkpt>
      <trkpt lat="42.77489" lon="-1.438494">
        <time>2022-07-03T15:15:25Z</time>
      </trkpt>
      <trkpt lat="42.774895" lon="-1.4384003">
        <time>2022-07-03T15:15:26Z</time>
      </trkpt>
      <trkpt lat="42.774895" lon="-1.4383136">
        <time>2022-07-03T15:15:27Z</time>
      </trkpt>
      <trkpt lat="42.774895" lon="-1.438226">
        <time>2022-07-03T15:15:28Z</time>
      </trkpt>
      <trkpt lat="42.7749" lon="-1.4381369">
        <time>2022-07-03T15:15:29Z</time>
      </trkpt>
      <trkpt lat="42.774902" lon="-1.4380426">
        <time>2022-07-03T15:15:30Z</time>
      </trkpt>
      <trkpt lat="42.774902" lon="-1.4379563">
        <time>2022-07-03T15:15:31Z</time>
      </trkpt>
      <trkpt lat="42.774906" lon="-1.4378623">
        <time>2022-07-03T15:15:32Z</time>
      </trkpt>
      <trkpt lat="42.774906" lon="-1.4377689">
        <time>2022-07-03T15:15:33Z</time>
      </trkpt>
      <trkpt lat="42.774906" lon="-1.4376767">
        <time>2022-07-03T15:15:34Z</time>
      </trkpt>
      <trkpt lat="42.77491" lon="-1.4375854">
        <time>2022-07-03T15:15:35Z</time>
      </trkpt>
      <trkpt lat="42.77491" lon="-1.4374943">
        <time>2022-07-03T15:15:36Z</time>
      </trkpt>
      <trkpt lat="42.77491" lon="-1.4374043">
        <time>2022-07-03T15:15:37Z</time>
      </trkpt>
      <trkpt lat="42.77491" lon="-1.4373146">
        <time>2022-07-03T15:15:38Z</time>
      </trkpt>
      <trkpt lat="42.77491" lon="-1.4372259">
        <time>2022-07-03T15:15:39Z</time>
      </trkpt>
      <trkpt lat="42.77491" lon="-1.437138">
        <time>2022-07-03T15:15:40Z</time>
      </trkpt>
      <trkpt lat="42.774914" lon="-1.43705">
        <time>2022-07-03T15:15:41Z</time>
      </trkpt>
      <trkpt lat="42.774914" lon="-1.4369624">
        <time>2022-07-03T15:15:42Z</time>
      </trkpt>
      <trkpt lat="42.774918" lon="-1.436875">
        <time>2022-07-03T15:15:43Z</time>
      </trkpt>
      <trkpt lat="42.774918" lon="-1.436788">
        <time>2022-07-03T15:15:44Z</time>
      </trkpt>
      <trkpt lat="42.77492" lon="-1.4367007">
        <time>2022-07-03T15:15:45Z</time>
      </trkpt>
      <trkpt lat="42.77492" lon="-1.4366124">
        <time>2022-07-03T15:15:46Z</time>
      </trkpt>
      <trkpt lat="42.774925" lon="-1.436524">
        <time>2022-07-03T15:15:47Z</time>
      </trkpt>
      <trkpt lat="42.774933" lon="-1.4363477">
        <time>2022-07-03T15:15:49Z</time>
      </trkpt>
      <trkpt lat="42.774933" lon="-1.436261">
        <time>2022-07-03T15:15:50Z</time>
      </trkpt>
      <trkpt lat="42.774937" lon="-1.4361737">
        <time>2022-07-03T15:15:51Z</time>
      </trkpt>
      <trkpt lat="42.774937" lon="-1.436086">
        <time>2022-07-03T15:15:52Z</time>
      </trkpt>
      <trkpt lat="42.774937" lon="-1.4359987">
        <time>2022-07-03T15:15:53Z</time>
      </trkpt>
      <trkpt lat="42.774937" lon="-1.435911">
        <time>2022-07-03T15:15:54Z</time>
      </trkpt>
      <trkpt lat="42.774937" lon="-1.4358224">
        <time>2022-07-03T15:15:55Z</time>
      </trkpt>
      <trkpt lat="42.77494" lon="-1.4357333">
        <time>2022-07-03T15:15:56Z</time>
      </trkpt>
      <trkpt lat="42.77494" lon="-1.4356444">
        <time>2022-07-03T15:15:57Z</time>
      </trkpt>
      <trkpt lat="42.77494" lon="-1.435554">
        <time>2022-07-03T15:15:58Z</time>
      </trkpt>
      <trkpt lat="42.77494" lon="-1.4354647">
        <time>2022-07-03T15:15:59Z</time>
      </trkpt>
      <trkpt lat="42.774944" lon="-1.4353753">
        <time>2022-07-03T15:16:00Z</time>
      </trkpt>
      <trkpt lat="42.774944" lon="-1.435286">
        <time>2022-07-03T15:16:01Z</time>
      </trkpt>
      <trkpt lat="42.774944" lon="-1.435197">
        <time>2022-07-03T15:16:02Z</time>
      </trkpt>
      <trkpt lat="42.774944" lon="-1.4351077">
        <time>2022-07-03T15:16:03Z</time>
      </trkpt>
      <trkpt lat="42.774944" lon="-1.4350188">
        <time>2022-07-03T15:16:04Z</time>
      </trkpt>
      <trkpt lat="42.77494" lon="-1.4349304">
        <time>2022-07-03T15:16:05Z</time>
      </trkpt>
      <trkpt lat="42.774937" lon="-1.4348427">
        <time>2022-07-03T15:16:06Z</time>
      </trkpt>
      <trkpt lat="42.774937" lon="-1.4347554">
        <time>2022-07-03T15:16:07Z</time>
      </trkpt>
      <trkpt lat="42.774933" lon="-1.4346681">
        <time>2022-07-03T15:16:08Z</time>
      </trkpt>
      <trkpt lat="42.774925" lon="-1.4345824">
        <time>2022-07-03T15:16:09Z</time>
      </trkpt>
      <trkpt lat="42.77492" lon="-1.4344968">
        <time>2022-07-03T15:16:10Z</time>
      </trkpt>
      <trkpt lat="42.774918" lon="-1.4344114">
        <time>2022-07-03T15:16:11Z</time>
      </trkpt>
      <trkpt lat="42.77491" lon="-1.434326">
        <time>2022-07-03T15:16:12Z</time>
      </trkpt>
      <trkpt lat="42.774902" lon="-1.4342414">
        <time>2022-07-03T15:16:13Z</time>
      </trkpt>
      <trkpt lat="42.774895" lon="-1.4341584">
        <time>2022-07-03T15:16:14Z</time>
      </trkpt>
      <trkpt lat="42.774887" lon="-1.4340761">
        <time>2022-07-03T15:16:15Z</time>
      </trkpt>
      <trkpt lat="42.77488" lon="-1.4339955">
        <time>2022-07-03T15:16:16Z</time>
      </trkpt>
      <trkpt lat="42.774868" lon="-1.4339148">
        <time>2022-07-03T15:16:17Z</time>
      </trkpt>
      <trkpt lat="42.774857" lon="-1.4338348">
        <time>2022-07-03T15:16:18Z</time>
      </trkpt>
      <trkpt lat="42.77485" lon="-1.4337554">
        <time>2022-07-03T15:16:19Z</time>
      </trkpt>
      <trkpt lat="42.774837" lon="-1.4336765">
        <time>2022-07-03T15:16:20Z</time>
      </trkpt>
      <trkpt lat="42.774826" lon="-1.4335984">
        <time>2022-07-03T15:16:21Z</time>
      </trkpt>
      <trkpt lat="42.77481" lon="-1.4335201">
        <time>2022-07-03T15:16:22Z</time>
      </trkpt>
      <trkpt lat="42.7748" lon="-1.4334418">
        <time>2022-07-03T15:16:23Z</time>
      </trkpt>
      <trkpt lat="42.774784" lon="-1.4333642">
        <time>2022-07-03T15:16:24Z</time>
      </trkpt>
      <trkpt lat="42.774773" lon="-1.4332855">
        <time>2022-07-03T15:16:25Z</time>
      </trkpt>
      <trkpt lat="42.774757" lon="-1.4332072">
        <time>2022-07-03T15:16:26Z</time>
      </trkpt>
      <trkpt lat="42.774746" lon="-1.4331348">
        <time>2022-07-03T15:16:27Z</time>
      </trkpt>
      <trkpt lat="42.774734" lon="-1.4330555">
        <time>2022-07-03T15:16:28Z</time>
      </trkpt>
      <trkpt lat="42.77472" lon="-1.4329765">
        <time>2022-07-03T15:16:29Z</time>
      </trkpt>
      <trkpt lat="42.774704" lon="-1.4328982">
        <time>2022-07-03T15:16:30Z</time>
      </trkpt>
      <trkpt lat="42.77469" lon="-1.4328202">
        <time>2022-07-03T15:16:31Z</time>
      </trkpt>
      <trkpt lat="42.774673" lon="-1.4327418">
        <time>2022-07-03T15:16:32Z</time>
      </trkpt>
      <trkpt lat="42.77466" lon="-1.4326642">
        <time>2022-07-03T15:16:33Z</time>
      </trkpt>
      <trkpt lat="42.77464" lon="-1.4325862">
        <time>2022-07-03T15:16:34Z</time>
      </trkpt>
      <trkpt lat="42.774624" lon="-1.4325081">
        <time>2022-07-03T15:16:35Z</time>
      </trkpt>
      <trkpt lat="42.77461" lon="-1.4324292">
        <time>2022-07-03T15:16:36Z</time>
      </trkpt>
      <trkpt lat="42.774597" lon="-1.4323502">
        <time>2022-07-03T15:16:37Z</time>
      </trkpt>
      <trkpt lat="42.774586" lon="-1.4322702">
        <time>2022-07-03T15:16:38Z</time>
      </trkpt>
      <trkpt lat="42.77457" lon="-1.4321902">
        <time>2022-07-03T15:16:39Z</time>
      </trkpt>
      <trkpt lat="42.774555" lon="-1.4321108">
        <time>2022-07-03T15:16:40Z</time>
      </trkpt>
      <trkpt lat="42.774544" lon="-1.4320319">
        <time>2022-07-03T15:16:41Z</time>
      </trkpt>
      <trkpt lat="42.774525" lon="-1.4319528">
        <time>2022-07-03T15:16:42Z</time>
      </trkpt>
      <trkpt lat="42.77451" lon="-1.4318752">
        <time>2022-07-03T15:16:43Z</time>
      </trkpt>
      <trkpt lat="42.774494" lon="-1.4317982">
        <time>2022-07-03T15:16:44Z</time>
      </trkpt>
      <trkpt lat="42.774483" lon="-1.4317248">
        <time>2022-07-03T15:16:45Z</time>
      </trkpt>
      <trkpt lat="42.774467" lon="-1.4316498">
        <time>2022-07-03T15:16:46Z</time>
      </trkpt>
      <trkpt lat="42.774452" lon="-1.4315739">
        <time>2022-07-03T15:16:47Z</time>
      </trkpt>
      <trkpt lat="42.77444" lon="-1.4314922">
        <time>2022-07-03T15:16:48Z</time>
      </trkpt>
      <trkpt lat="42.774426" lon="-1.4314169">
        <time>2022-07-03T15:16:49Z</time>
      </trkpt>
      <trkpt lat="42.77441" lon="-1.4313408">
        <time>2022-07-03T15:16:50Z</time>
      </trkpt>
      <trkpt lat="42.7744" lon="-1.4312636">
        <time>2022-07-03T15:16:51Z</time>
      </trkpt>
      <trkpt lat="42.774364" lon="-1.4311032">
        <time>2022-07-03T15:16:53Z</time>
      </trkpt>
      <trkpt lat="42.77435" lon="-1.4310218">
        <time>2022-07-03T15:16:54Z</time>
      </trkpt>
      <trkpt lat="42.774334" lon="-1.4309462">
        <time>2022-07-03T15:16:55Z</time>
      </trkpt>
      <trkpt lat="42.774323" lon="-1.4308702">
        <time>2022-07-03T15:16:56Z</time>
      </trkpt>
      <trkpt lat="42.774307" lon="-1.4307942">
        <time>2022-07-03T15:16:57Z</time>
      </trkpt>
      <trkpt lat="42.774292" lon="-1.4307119">
        <time>2022-07-03T15:16:58Z</time>
      </trkpt>
      <trkpt lat="42.774277" lon="-1.4306312">
        <time>2022-07-03T15:16:59Z</time>
      </trkpt>
      <trkpt lat="42.77426" lon="-1.4305569">
        <time>2022-07-03T15:17:00Z</time>
      </trkpt>
      <trkpt lat="42.77425" lon="-1.4304816">
        <time>2022-07-03T15:17:01Z</time>
      </trkpt>
      <trkpt lat="42.774235" lon="-1.430399">
        <time>2022-07-03T15:17:02Z</time>
      </trkpt>
      <trkpt lat="42.77422" lon="-1.4303223">
        <time>2022-07-03T15:17:03Z</time>
      </trkpt>
      <trkpt lat="42.774204" lon="-1.4302436">
        <time>2022-07-03T15:17:04Z</time>
      </trkpt>
      <trkpt lat="42.774193" lon="-1.4301649">
        <time>2022-07-03T15:17:05Z</time>
      </trkpt>
      <trkpt lat="42.774178" lon="-1.4300846">
        <time>2022-07-03T15:17:06Z</time>
      </trkpt>
      <trkpt lat="42.774162" lon="-1.4299976">
        <time>2022-07-03T15:17:07Z</time>
      </trkpt>
      <trkpt lat="42.774147" lon="-1.429912">
        <time>2022-07-03T15:17:08Z</time>
      </trkpt>
      <trkpt lat="42.77413" lon="-1.4298319">
        <time>2022-07-03T15:17:09Z</time>
      </trkpt>
      <trkpt lat="42.774117" lon="-1.4297509">
        <time>2022-07-03T15:17:10Z</time>
      </trkpt>
      <trkpt lat="42.7741" lon="-1.4296685">
        <time>2022-07-03T15:17:11Z</time>
      </trkpt>
      <trkpt lat="42.774086" lon="-1.4295859">
        <time>2022-07-03T15:17:12Z</time>
      </trkpt>
      <trkpt lat="42.77407" lon="-1.4295019">
        <time>2022-07-03T15:17:13Z</time>
      </trkpt>
      <trkpt lat="42.774055" lon="-1.4294122">
        <time>2022-07-03T15:17:14Z</time>
      </trkpt>
      <trkpt lat="42.77404" lon="-1.4293289">
        <time>2022-07-03T15:17:15Z</time>
      </trkpt>
      <trkpt lat="42.774025" lon="-1.429245">
        <time>2022-07-03T15:17:16Z</time>
      </trkpt>
      <trkpt lat="42.77401" lon="-1.4291596">
        <time>2022-07-03T15:17:17Z</time>
      </trkpt>
      <trkpt lat="42.773994" lon="-1.4290733">
        <time>2022-07-03T15:17:18Z</time>
      </trkpt>
      <trkpt lat="42.77398" lon="-1.4289863">
        <time>2022-07-03T15:17:19Z</time>
      </trkpt>
      <trkpt lat="42.773964" lon="-1.4288989">
        <time>2022-07-03T15:17:20Z</time>
      </trkpt>
      <trkpt lat="42.77395" lon="-1.4288102">
        <time>2022-07-03T15:17:21Z</time>
      </trkpt>
      <trkpt lat="42.773933" lon="-1.4287202">
        <time>2022-07-03T15:17:22Z</time>
      </trkpt>
      <trkpt lat="42.77392" lon="-1.42863">
        <time>2022-07-03T15:17:23Z</time>
      </trkpt>
      <trkpt lat="42.773903" lon="-1.4285387">
        <time>2022-07-03T15:17:24Z</time>
      </trkpt>
      <trkpt lat="42.773884" lon="-1.4284476">
        <time>2022-07-03T15:17:25Z</time>
      </trkpt>
      <trkpt lat="42.77387" lon="-1.4283572">
        <time>2022-07-03T15:17:26Z</time>
      </trkpt>
      <trkpt lat="42.773853" lon="-1.4282663">
        <time>2022-07-03T15:17:27Z</time>
      </trkpt>
      <trkpt lat="42.773834" lon="-1.4281687">
        <time>2022-07-03T15:17:28Z</time>
      </trkpt>
      <trkpt lat="42.773815" lon="-1.4280727">
        <time>2022-07-03T15:17:29Z</time>
      </trkpt>
      <trkpt lat="42.7738" lon="-1.4279844">
        <time>2022-07-03T15:17:30Z</time>
      </trkpt>
      <trkpt lat="42.773785" lon="-1.4278944">
        <time>2022-07-03T15:17:31Z</time>
      </trkpt>
      <trkpt lat="42.77377" lon="-1.4278033">
        <time>2022-07-03T15:17:32Z</time>
      </trkpt>
      <trkpt lat="42.773754" lon="-1.427711">
        <time>2022-07-03T15:17:33Z</time>
      </trkpt>
      <trkpt lat="42.77374" lon="-1.4276177">
        <time>2022-07-03T15:17:34Z</time>
      </trkpt>
      <trkpt lat="42.77372" lon="-1.4275173">
        <time>2022-07-03T15:17:35Z</time>
      </trkpt>
      <trkpt lat="42.7737" lon="-1.4274187">
        <time>2022-07-03T15:17:36Z</time>
      </trkpt>
      <trkpt lat="42.773685" lon="-1.4273207">
        <time>2022-07-03T15:17:37Z</time>
      </trkpt>
      <trkpt lat="42.773666" lon="-1.4272237">
        <time>2022-07-03T15:17:38Z</time>
      </trkpt>
      <trkpt lat="42.77365" lon="-1.4271266">
        <time>2022-07-03T15:17:39Z</time>
      </trkpt>
      <trkpt lat="42.773632" lon="-1.4270294">
        <time>2022-07-03T15:17:40Z</time>
      </trkpt>
      <trkpt lat="42.773613" lon="-1.4269323">
        <time>2022-07-03T15:17:41Z</time>
      </trkpt>
      <trkpt lat="42.773598" lon="-1.4268353">
        <time>2022-07-03T15:17:42Z</time>
      </trkpt>
      <trkpt lat="42.77358" lon="-1.4267393">
        <time>2022-07-03T15:17:43Z</time>
      </trkpt>
      <trkpt lat="42.773563" lon="-1.426643">
        <time>2022-07-03T15:17:44Z</time>
      </trkpt>
      <trkpt lat="42.773544" lon="-1.4265467">
        <time>2022-07-03T15:17:45Z</time>
      </trkpt>
      <trkpt lat="42.77353" lon="-1.426451">
        <time>2022-07-03T15:17:46Z</time>
      </trkpt>
      <trkpt lat="42.773514" lon="-1.426356">
        <time>2022-07-03T15:17:47Z</time>
      </trkpt>
      <trkpt lat="42.7735" lon="-1.4262607">
        <time>2022-07-03T15:17:48Z</time>
      </trkpt>
      <trkpt lat="42.773483" lon="-1.4261707">
        <time>2022-07-03T15:17:49Z</time>
      </trkpt>
      <trkpt lat="42.773468" lon="-1.426079">
        <time>2022-07-03T15:17:50Z</time>
      </trkpt>
      <trkpt lat="42.77345" lon="-1.425986">
        <time>2022-07-03T15:17:51Z</time>
      </trkpt>
      <trkpt lat="42.773434" lon="-1.425892">
        <time>2022-07-03T15:17:52Z</time>
      </trkpt>
      <trkpt lat="42.773415" lon="-1.425798">
        <time>2022-07-03T15:17:53Z</time>
      </trkpt>
      <trkpt lat="42.7734" lon="-1.4257023">
        <time>2022-07-03T15:17:54Z</time>
      </trkpt>
      <trkpt lat="42.77338" lon="-1.4256064">
        <time>2022-07-03T15:17:55Z</time>
      </trkpt>
      <trkpt lat="42.773342" lon="-1.4254074">
        <time>2022-07-03T15:17:57Z</time>
      </trkpt>
      <trkpt lat="42.773327" lon="-1.425313">
        <time>2022-07-03T15:17:58Z</time>
      </trkpt>
      <trkpt lat="42.77331" lon="-1.425212">
        <time>2022-07-03T15:17:59Z</time>
      </trkpt>
      <trkpt lat="42.773293" lon="-1.425119">
        <time>2022-07-03T15:18:00Z</time>
      </trkpt>
      <trkpt lat="42.773277" lon="-1.4250257">
        <time>2022-07-03T15:18:01Z</time>
      </trkpt>
      <trkpt lat="42.77326" lon="-1.4249268">
        <time>2022-07-03T15:18:02Z</time>
      </trkpt>
      <trkpt lat="42.77324" lon="-1.4248353">
        <time>2022-07-03T15:18:03Z</time>
      </trkpt>
      <trkpt lat="42.77322" lon="-1.4247364">
        <time>2022-07-03T15:18:04Z</time>
      </trkpt>
      <trkpt lat="42.7732" lon="-1.4246444">
        <time>2022-07-03T15:18:05Z</time>
      </trkpt>
      <trkpt lat="42.773182" lon="-1.4245523">
        <time>2022-07-03T15:18:06Z</time>
      </trkpt>
      <trkpt lat="42.773163" lon="-1.424453">
        <time>2022-07-03T15:18:07Z</time>
      </trkpt>
      <trkpt lat="42.773144" lon="-1.4243554">
        <time>2022-07-03T15:18:08Z</time>
      </trkpt>
      <trkpt lat="42.77313" lon="-1.4242644">
        <time>2022-07-03T15:18:09Z</time>
      </trkpt>
      <trkpt lat="42.773113" lon="-1.4241717">
        <time>2022-07-03T15:18:10Z</time>
      </trkpt>
      <trkpt lat="42.773094" lon="-1.4240777">
        <time>2022-07-03T15:18:11Z</time>
      </trkpt>
      <trkpt lat="42.77308" lon="-1.4239827">
        <time>2022-07-03T15:18:12Z</time>
      </trkpt>
      <trkpt lat="42.77306" lon="-1.4238818">
        <time>2022-07-03T15:18:13Z</time>
      </trkpt>
      <trkpt lat="42.77304" lon="-1.4237894">
        <time>2022-07-03T15:18:14Z</time>
      </trkpt>
      <trkpt lat="42.77302" lon="-1.423696">
        <time>2022-07-03T15:18:15Z</time>
      </trkpt>
      <trkpt lat="42.773006" lon="-1.4236034">
        <time>2022-07-03T15:18:16Z</time>
      </trkpt>
      <trkpt lat="42.772987" lon="-1.4235097">
        <time>2022-07-03T15:18:17Z</time>
      </trkpt>
      <trkpt lat="42.772972" lon="-1.4234171">
        <time>2022-07-03T15:18:18Z</time>
      </trkpt>
      <trkpt lat="42.772953" lon="-1.4233234">
        <time>2022-07-03T15:18:19Z</time>
      </trkpt>
      <trkpt lat="42.772938" lon="-1.4232311">
        <time>2022-07-03T15:18:20Z</time>
      </trkpt>
      <trkpt lat="42.77292" lon="-1.4231387">
        <time>2022-07-03T15:18:21Z</time>
      </trkpt>
      <trkpt lat="42.772903" lon="-1.4230465">
        <time>2022-07-03T15:18:22Z</time>
      </trkpt>
      <trkpt lat="42.772884" lon="-1.4229541">
        <time>2022-07-03T15:18:23Z</time>
      </trkpt>
      <trkpt lat="42.77287" lon="-1.4228624">
        <time>2022-07-03T15:18:24Z</time>
      </trkpt>
      <trkpt lat="42.772854" lon="-1.4227711">
        <time>2022-07-03T15:18:25Z</time>
      </trkpt>
      <trkpt lat="42.772835" lon="-1.4226794">
        <time>2022-07-03T15:18:26Z</time>
      </trkpt>
      <trkpt lat="42.77282" lon="-1.4225878">
        <time>2022-07-03T15:18:27Z</time>
      </trkpt>
      <trkpt lat="42.772804" lon="-1.4224968">
        <time>2022-07-03T15:18:28Z</time>
      </trkpt>
      <trkpt lat="42.77279" lon="-1.4224058">
        <time>2022-07-03T15:18:29Z</time>
      </trkpt>
      <trkpt lat="42.772774" lon="-1.4223155">
        <time>2022-07-03T15:18:30Z</time>
      </trkpt>
      <trkpt lat="42.77276" lon="-1.4222258">
        <time>2022-07-03T15:18:31Z</time>
      </trkpt>
      <trkpt lat="42.772743" lon="-1.4221298">
        <time>2022-07-03T15:18:32Z</time>
      </trkpt>
      <trkpt lat="42.772728" lon="-1.4220418">
        <time>2022-07-03T15:18:33Z</time>
      </trkpt>
      <trkpt lat="42.772713" lon="-1.4219548">
        <time>2022-07-03T15:18:34Z</time>
      </trkpt>
      <trkpt lat="42.772694" lon="-1.4218681">
        <time>2022-07-03T15:18:35Z</time>
      </trkpt>
      <trkpt lat="42.77268" lon="-1.4217808">
        <time>2022-07-03T15:18:36Z</time>
      </trkpt>
      <trkpt lat="42.772663" lon="-1.4216934">
        <time>2022-07-03T15:18:37Z</time>
      </trkpt>
      <trkpt lat="42.772648" lon="-1.4216062">
        <time>2022-07-03T15:18:38Z</time>
      </trkpt>
      <trkpt lat="42.77263" lon="-1.4215182">
        <time>2022-07-03T15:18:39Z</time>
      </trkpt>
      <trkpt lat="42.772614" lon="-1.4214308">
        <time>2022-07-03T15:18:40Z</time>
      </trkpt>
      <trkpt lat="42.7726" lon="-1.4213375">
        <time>2022-07-03T15:18:41Z</time>
      </trkpt>
      <trkpt lat="42.772583" lon="-1.4212462">
        <time>2022-07-03T15:18:42Z</time>
      </trkpt>
      <trkpt lat="42.772568" lon="-1.4211562">
        <time>2022-07-03T15:18:43Z</time>
      </trkpt>
      <trkpt lat="42.772552" lon="-1.4210662">
        <time>2022-07-03T15:18:44Z</time>
      </trkpt>
      <trkpt lat="42.772537" lon="-1.4209762">
        <time>2022-07-03T15:18:45Z</time>
      </trkpt>
      <trkpt lat="42.772522" lon="-1.4208928">
        <time>2022-07-03T15:18:46Z</time>
      </trkpt>
      <trkpt lat="42.772507" lon="-1.4208012">
        <time>2022-07-03T15:18:47Z</time>
      </trkpt>
      <trkpt lat="42.77249" lon="-1.4207106">
        <time>2022-07-03T15:18:48Z</time>
      </trkpt>
      <trkpt lat="42.772476" lon="-1.4206195">
        <time>2022-07-03T15:18:49Z</time>
      </trkpt>
      <trkpt lat="42.772457" lon="-1.4205278">
        <time>2022-07-03T15:18:50Z</time>
      </trkpt>
      <trkpt lat="42.77244" lon="-1.4204361">
        <time>2022-07-03T15:18:51Z</time>
      </trkpt>
      <trkpt lat="42.772427" lon="-1.4203442">
        <time>2022-07-03T15:18:52Z</time>
      </trkpt>
      <trkpt lat="42.77241" lon="-1.4202576">
        <time>2022-07-03T15:18:53Z</time>
      </trkpt>
      <trkpt lat="42.772392" lon="-1.4201685">
        <time>2022-07-03T15:18:54Z</time>
      </trkpt>
      <trkpt lat="42.772377" lon="-1.4200785">
        <time>2022-07-03T15:18:55Z</time>
      </trkpt>
      <trkpt lat="42.77236" lon="-1.4199872">
        <time>2022-07-03T15:18:56Z</time>
      </trkpt>
      <trkpt lat="42.772327" lon="-1.4198012">
        <time>2022-07-03T15:18:58Z</time>
      </trkpt>
      <trkpt lat="42.77231" lon="-1.4197079">
        <time>2022-07-03T15:18:59Z</time>
      </trkpt>
      <trkpt lat="42.772293" lon="-1.4196135">
        <time>2022-07-03T15:19:00Z</time>
      </trkpt>
      <trkpt lat="42.772274" lon="-1.4195172">
        <time>2022-07-03T15:19:01Z</time>
      </trkpt>
      <trkpt lat="42.772255" lon="-1.4194149">
        <time>2022-07-03T15:19:02Z</time>
      </trkpt>
      <trkpt lat="42.77224" lon="-1.4193206">
        <time>2022-07-03T15:19:03Z</time>
      </trkpt>
      <trkpt lat="42.77222" lon="-1.4192252">
        <time>2022-07-03T15:19:04Z</time>
      </trkpt>
      <trkpt lat="42.772205" lon="-1.4191296">
        <time>2022-07-03T15:19:05Z</time>
      </trkpt>
      <trkpt lat="42.772186" lon="-1.4190335">
        <time>2022-07-03T15:19:06Z</time>
      </trkpt>
      <trkpt lat="42.77217" lon="-1.4189372">
        <time>2022-07-03T15:19:07Z</time>
      </trkpt>
      <trkpt lat="42.772152" lon="-1.4188342">
        <time>2022-07-03T15:19:08Z</time>
      </trkpt>
      <trkpt lat="42.772133" lon="-1.4187405">
        <time>2022-07-03T15:19:09Z</time>
      </trkpt>
      <trkpt lat="42.772114" lon="-1.4186459">
        <time>2022-07-03T15:19:10Z</time>
      </trkpt>
      <trkpt lat="42.7721" lon="-1.4185499">
        <time>2022-07-03T15:19:11Z</time>
      </trkpt>
      <trkpt lat="42.77208" lon="-1.4184532">
        <time>2022-07-03T15:19:12Z</time>
      </trkpt>
      <trkpt lat="42.77206" lon="-1.418356">
        <time>2022-07-03T15:19:13Z</time>
      </trkpt>
      <trkpt lat="42.77204" lon="-1.4182585">
        <time>2022-07-03T15:19:14Z</time>
      </trkpt>
      <trkpt lat="42.772026" lon="-1.41816">
        <time>2022-07-03T15:19:15Z</time>
      </trkpt>
      <trkpt lat="42.772007" lon="-1.4180616">
        <time>2022-07-03T15:19:16Z</time>
      </trkpt>
      <trkpt lat="42.771988" lon="-1.4179633">
        <time>2022-07-03T15:19:17Z</time>
      </trkpt>
      <trkpt lat="42.771973" lon="-1.4178649">
        <time>2022-07-03T15:19:18Z</time>
      </trkpt>
      <trkpt lat="42.771954" lon="-1.4177666">
        <time>2022-07-03T15:19:19Z</time>
      </trkpt>
      <trkpt lat="42.771935" lon="-1.4176682">
        <time>2022-07-03T15:19:20Z</time>
      </trkpt>
      <trkpt lat="42.771915" lon="-1.4175706">
        <time>2022-07-03T15:19:21Z</time>
      </trkpt>
      <trkpt lat="42.771896" lon="-1.4174726">
        <time>2022-07-03T15:19:22Z</time>
      </trkpt>
      <trkpt lat="42.77188" lon="-1.417374">
        <time>2022-07-03T15:19:23Z</time>
      </trkpt>
      <trkpt lat="42.771862" lon="-1.4172753">
        <time>2022-07-03T15:19:24Z</time>
      </trkpt>
      <trkpt lat="42.771843" lon="-1.417177">
        <time>2022-07-03T15:19:25Z</time>
      </trkpt>
      <trkpt lat="42.771828" lon="-1.4170786">
        <time>2022-07-03T15:19:26Z</time>
      </trkpt>
      <trkpt lat="42.77181" lon="-1.4169797">
        <time>2022-07-03T15:19:27Z</time>
      </trkpt>
      <trkpt lat="42.77179" lon="-1.4168737">
        <time>2022-07-03T15:19:28Z</time>
      </trkpt>
      <trkpt lat="42.77177" lon="-1.4167763">
        <time>2022-07-03T15:19:29Z</time>
      </trkpt>
      <trkpt lat="42.77175" lon="-1.416678">
        <time>2022-07-03T15:19:30Z</time>
      </trkpt>
      <trkpt lat="42.771732" lon="-1.4165783">
        <time>2022-07-03T15:19:31Z</time>
      </trkpt>
      <trkpt lat="42.771713" lon="-1.4164773">
        <time>2022-07-03T15:19:32Z</time>
      </trkpt>
      <trkpt lat="42.771694" lon="-1.416369">
        <time>2022-07-03T15:19:33Z</time>
      </trkpt>
      <trkpt lat="42.77168" lon="-1.4162633">
        <time>2022-07-03T15:19:34Z</time>
      </trkpt>
      <trkpt lat="42.77166" lon="-1.416159">
        <time>2022-07-03T15:19:35Z</time>
      </trkpt>
      <trkpt lat="42.77164" lon="-1.4160557">
        <time>2022-07-03T15:19:36Z</time>
      </trkpt>
      <trkpt lat="42.77162" lon="-1.4159534">
        <time>2022-07-03T15:19:37Z</time>
      </trkpt>
      <trkpt lat="42.771603" lon="-1.4158517">
        <time>2022-07-03T15:19:38Z</time>
      </trkpt>
      <trkpt lat="42.771584" lon="-1.4157571">
        <time>2022-07-03T15:19:39Z</time>
      </trkpt>
      <trkpt lat="42.771564" lon="-1.415661">
        <time>2022-07-03T15:19:40Z</time>
      </trkpt>
      <trkpt lat="42.77155" lon="-1.4155624">
        <time>2022-07-03T15:19:41Z</time>
      </trkpt>
      <trkpt lat="42.77153" lon="-1.4154627">
        <time>2022-07-03T15:19:42Z</time>
      </trkpt>
      <trkpt lat="42.771515" lon="-1.4153616">
        <time>2022-07-03T15:19:43Z</time>
      </trkpt>
      <trkpt lat="42.771496" lon="-1.4152614">
        <time>2022-07-03T15:19:44Z</time>
      </trkpt>
      <trkpt lat="42.771477" lon="-1.4151597">
        <time>2022-07-03T15:19:45Z</time>
      </trkpt>
      <trkpt lat="42.77146" lon="-1.4150587">
        <time>2022-07-03T15:19:46Z</time>
      </trkpt>
      <trkpt lat="42.771442" lon="-1.414958">
        <time>2022-07-03T15:19:47Z</time>
      </trkpt>
      <trkpt lat="42.771423" lon="-1.4148577">
        <time>2022-07-03T15:19:48Z</time>
      </trkpt>
      <trkpt lat="42.7714" lon="-1.4147494">
        <time>2022-07-03T15:19:49Z</time>
      </trkpt>
      <trkpt lat="42.771385" lon="-1.4146421">
        <time>2022-07-03T15:19:50Z</time>
      </trkpt>
      <trkpt lat="42.771366" lon="-1.4145354">
        <time>2022-07-03T15:19:51Z</time>
      </trkpt>
      <trkpt lat="42.771347" lon="-1.4144287">
        <time>2022-07-03T15:19:52Z</time>
      </trkpt>
      <trkpt lat="42.771328" lon="-1.4143227">
        <time>2022-07-03T15:19:53Z</time>
      </trkpt>
      <trkpt lat="42.77131" lon="-1.4142164">
        <time>2022-07-03T15:19:54Z</time>
      </trkpt>
      <trkpt lat="42.77129" lon="-1.414118">
        <time>2022-07-03T15:19:55Z</time>
      </trkpt>
      <trkpt lat="42.77127" lon="-1.4140108">
        <time>2022-07-03T15:19:56Z</time>
      </trkpt>
      <trkpt lat="42.77125" lon="-1.4139035">
        <time>2022-07-03T15:19:57Z</time>
      </trkpt>
      <trkpt lat="42.771233" lon="-1.4137968">
        <time>2022-07-03T15:19:58Z</time>
      </trkpt>
      <trkpt lat="42.77119" lon="-1.4135851">
        <time>2022-07-03T15:20:00Z</time>
      </trkpt>
      <trkpt lat="42.77117" lon="-1.4134798">
        <time>2022-07-03T15:20:01Z</time>
      </trkpt>
      <trkpt lat="42.771152" lon="-1.4133744">
        <time>2022-07-03T15:20:02Z</time>
      </trkpt>
      <trkpt lat="42.771133" lon="-1.4132692">
        <time>2022-07-03T15:20:03Z</time>
      </trkpt>
      <trkpt lat="42.771114" lon="-1.4131641">
        <time>2022-07-03T15:20:04Z</time>
      </trkpt>
      <trkpt lat="42.771095" lon="-1.4130584">
        <time>2022-07-03T15:20:05Z</time>
      </trkpt>
      <trkpt lat="42.77108" lon="-1.4129531">
        <time>2022-07-03T15:20:06Z</time>
      </trkpt>
      <trkpt lat="42.77106" lon="-1.4128472">
        <time>2022-07-03T15:20:07Z</time>
      </trkpt>
      <trkpt lat="42.771046" lon="-1.4127405">
        <time>2022-07-03T15:20:08Z</time>
      </trkpt>
      <trkpt lat="42.771034" lon="-1.4126334">
        <time>2022-07-03T15:20:09Z</time>
      </trkpt>
      <trkpt lat="42.77102" lon="-1.4125258">
        <time>2022-07-03T15:20:10Z</time>
      </trkpt>
      <trkpt lat="42.771008" lon="-1.4124178">
        <time>2022-07-03T15:20:11Z</time>
      </trkpt>
      <trkpt lat="42.770996" lon="-1.4123098">
        <time>2022-07-03T15:20:12Z</time>
      </trkpt>
      <trkpt lat="42.77099" lon="-1.4122008">
        <time>2022-07-03T15:20:13Z</time>
      </trkpt>
      <trkpt lat="42.770977" lon="-1.4120915">
        <time>2022-07-03T15:20:14Z</time>
      </trkpt>
      <trkpt lat="42.77097" lon="-1.4119828">
        <time>2022-07-03T15:20:15Z</time>
      </trkpt>
      <trkpt lat="42.77096" lon="-1.4118738">
        <time>2022-07-03T15:20:16Z</time>
      </trkpt>
      <trkpt lat="42.770958" lon="-1.4117655">
        <time>2022-07-03T15:20:17Z</time>
      </trkpt>
      <trkpt lat="42.770954" lon="-1.4116571">
        <time>2022-07-03T15:20:18Z</time>
      </trkpt>
      <trkpt lat="42.770954" lon="-1.4115485">
        <time>2022-07-03T15:20:19Z</time>
      </trkpt>
      <trkpt lat="42.770954" lon="-1.4114398">
        <time>2022-07-03T15:20:20Z</time>
      </trkpt>
      <trkpt lat="42.770954" lon="-1.4113312">
        <time>2022-07-03T15:20:21Z</time>
      </trkpt>
      <trkpt lat="42.770958" lon="-1.4112222">
        <time>2022-07-03T15:20:22Z</time>
      </trkpt>
      <trkpt lat="42.77096" lon="-1.4111131">
        <time>2022-07-03T15:20:23Z</time>
      </trkpt>
      <trkpt lat="42.77097" lon="-1.4110059">
        <time>2022-07-03T15:20:24Z</time>
      </trkpt>
      <trkpt lat="42.770973" lon="-1.4108975">
        <time>2022-07-03T15:20:25Z</time>
      </trkpt>
      <trkpt lat="42.77098" lon="-1.4107885">
        <time>2022-07-03T15:20:26Z</time>
      </trkpt>
      <trkpt lat="42.770992" lon="-1.4106792">
        <time>2022-07-03T15:20:27Z</time>
      </trkpt>
      <trkpt lat="42.771004" lon="-1.4105701">
        <time>2022-07-03T15:20:28Z</time>
      </trkpt>
      <trkpt lat="42.771015" lon="-1.4104621">
        <time>2022-07-03T15:20:29Z</time>
      </trkpt>
      <trkpt lat="42.771027" lon="-1.4103549">
        <time>2022-07-03T15:20:30Z</time>
      </trkpt>
      <trkpt lat="42.771038" lon="-1.4102492">
        <time>2022-07-03T15:20:31Z</time>
      </trkpt>
      <trkpt lat="42.77105" lon="-1.4101435">
        <time>2022-07-03T15:20:32Z</time>
      </trkpt>
      <trkpt lat="42.77106" lon="-1.4100385">
        <time>2022-07-03T15:20:33Z</time>
      </trkpt>
      <trkpt lat="42.771072" lon="-1.4099342">
        <time>2022-07-03T15:20:34Z</time>
      </trkpt>
      <trkpt lat="42.771084" lon="-1.4098309">
        <time>2022-07-03T15:20:35Z</time>
      </trkpt>
      <trkpt lat="42.771095" lon="-1.4097278">
        <time>2022-07-03T15:20:36Z</time>
      </trkpt>
      <trkpt lat="42.771107" lon="-1.4096255">
        <time>2022-07-03T15:20:37Z</time>
      </trkpt>
      <trkpt lat="42.77112" lon="-1.4095232">
        <time>2022-07-03T15:20:38Z</time>
      </trkpt>
      <trkpt lat="42.771126" lon="-1.4094219">
        <time>2022-07-03T15:20:39Z</time>
      </trkpt>
      <trkpt lat="42.771137" lon="-1.4093219">
        <time>2022-07-03T15:20:40Z</time>
      </trkpt>
      <trkpt lat="42.77115" lon="-1.4092228">
        <time>2022-07-03T15:20:41Z</time>
      </trkpt>
      <trkpt lat="42.771156" lon="-1.4091302">
        <time>2022-07-03T15:20:42Z</time>
      </trkpt>
      <trkpt lat="42.771168" lon="-1.4090369">
        <time>2022-07-03T15:20:43Z</time>
      </trkpt>
      <trkpt lat="42.77118" lon="-1.4089435">
        <time>2022-07-03T15:20:44Z</time>
      </trkpt>
      <trkpt lat="42.77119" lon="-1.4088502">
        <time>2022-07-03T15:20:45Z</time>
      </trkpt>
      <trkpt lat="42.771202" lon="-1.4087502">
        <time>2022-07-03T15:20:46Z</time>
      </trkpt>
      <trkpt lat="42.771214" lon="-1.4086579">
        <time>2022-07-03T15:20:47Z</time>
      </trkpt>
      <trkpt lat="42.77122" lon="-1.4085653">
        <time>2022-07-03T15:20:48Z</time>
      </trkpt>
      <trkpt lat="42.771233" lon="-1.408472">
        <time>2022-07-03T15:20:49Z</time>
      </trkpt>
      <trkpt lat="42.77124" lon="-1.4083803">
        <time>2022-07-03T15:20:50Z</time>
      </trkpt>
      <trkpt lat="42.77125" lon="-1.4082836">
        <time>2022-07-03T15:20:51Z</time>
      </trkpt>
      <trkpt lat="42.77126" lon="-1.4081889">
        <time>2022-07-03T15:20:52Z</time>
      </trkpt>
      <trkpt lat="42.77127" lon="-1.4081019">
        <time>2022-07-03T15:20:53Z</time>
      </trkpt>
      <trkpt lat="42.77128" lon="-1.4080153">
        <time>2022-07-03T15:20:54Z</time>
      </trkpt>
      <trkpt lat="42.77129" lon="-1.407928">
        <time>2022-07-03T15:20:55Z</time>
      </trkpt>
      <trkpt lat="42.7713" lon="-1.4078346">
        <time>2022-07-03T15:20:56Z</time>
      </trkpt>
      <trkpt lat="42.77131" lon="-1.4077502">
        <time>2022-07-03T15:20:57Z</time>
      </trkpt>
      <trkpt lat="42.771317" lon="-1.4076656">
        <time>2022-07-03T15:20:58Z</time>
      </trkpt>
      <trkpt lat="42.771324" lon="-1.4075803">
        <time>2022-07-03T15:20:59Z</time>
      </trkpt>
      <trkpt lat="42.771336" lon="-1.4074956">
        <time>2022-07-03T15:21:00Z</time>
      </trkpt>
      <trkpt lat="42.77135" lon="-1.4073226">
        <time>2022-07-03T15:21:02Z</time>
      </trkpt>
      <trkpt lat="42.77136" lon="-1.407242">
        <time>2022-07-03T15:21:03Z</time>
      </trkpt>
      <trkpt lat="42.771366" lon="-1.4071614">
        <time>2022-07-03T15:21:04Z</time>
      </trkpt>
      <trkpt lat="42.771374" lon="-1.407074">
        <time>2022-07-03T15:21:05Z</time>
      </trkpt>
      <trkpt lat="42.771385" lon="-1.406993">
        <time>2022-07-03T15:21:06Z</time>
      </trkpt>
      <trkpt lat="42.771393" lon="-1.4069114">
        <time>2022-07-03T15:21:07Z</time>
      </trkpt>
      <trkpt lat="42.771404" lon="-1.406829">
        <time>2022-07-03T15:21:08Z</time>
      </trkpt>
      <trkpt lat="42.77141" lon="-1.4067464">
        <time>2022-07-03T15:21:09Z</time>
      </trkpt>
      <trkpt lat="42.771423" lon="-1.4066586">
        <time>2022-07-03T15:21:10Z</time>
      </trkpt>
      <trkpt lat="42.77143" lon="-1.406579">
        <time>2022-07-03T15:21:11Z</time>
      </trkpt>
      <trkpt lat="42.77144" lon="-1.4064987">
        <time>2022-07-03T15:21:12Z</time>
      </trkpt>
      <trkpt lat="42.771446" lon="-1.4064183">
        <time>2022-07-03T15:21:13Z</time>
      </trkpt>
      <trkpt lat="42.771458" lon="-1.406338">
        <time>2022-07-03T15:21:14Z</time>
      </trkpt>
      <trkpt lat="42.771465" lon="-1.406258">
        <time>2022-07-03T15:21:15Z</time>
      </trkpt>
      <trkpt lat="42.771477" lon="-1.4061791">
        <time>2022-07-03T15:21:16Z</time>
      </trkpt>
      <trkpt lat="42.771484" lon="-1.4061004">
        <time>2022-07-03T15:21:17Z</time>
      </trkpt>
      <trkpt lat="42.771496" lon="-1.4060227">
        <time>2022-07-03T15:21:18Z</time>
      </trkpt>
      <trkpt lat="42.771503" lon="-1.4059454">
        <time>2022-07-03T15:21:19Z</time>
      </trkpt>
      <trkpt lat="42.77151" lon="-1.405869">
        <time>2022-07-03T15:21:20Z</time>
      </trkpt>
      <trkpt lat="42.77152" lon="-1.405794">
        <time>2022-07-03T15:21:21Z</time>
      </trkpt>
      <trkpt lat="42.771526" lon="-1.4057204">
        <time>2022-07-03T15:21:22Z</time>
      </trkpt>
      <trkpt lat="42.771534" lon="-1.4056478">
        <time>2022-07-03T15:21:23Z</time>
      </trkpt>
      <trkpt lat="42.77154" lon="-1.4055771">
        <time>2022-07-03T15:21:24Z</time>
      </trkpt>
      <trkpt lat="42.771545" lon="-1.4055037">
        <time>2022-07-03T15:21:25Z</time>
      </trkpt>
      <trkpt lat="42.77155" lon="-1.4054394">
        <time>2022-07-03T15:21:26Z</time>
      </trkpt>
      <trkpt lat="42.771557" lon="-1.4053174">
        <time>2022-07-03T15:21:28Z</time>
      </trkpt>
      <trkpt lat="42.77156" lon="-1.405202">
        <time>2022-07-03T15:21:30Z</time>
      </trkpt>
      <trkpt lat="42.77156" lon="-1.4050955">
        <time>2022-07-03T15:21:32Z</time>
      </trkpt>
      <trkpt lat="42.771564" lon="-1.405001">
        <time>2022-07-03T15:21:34Z</time>
      </trkpt>
      <trkpt lat="42.77156" lon="-1.4049118">
        <time>2022-07-03T15:21:36Z</time>
      </trkpt>
      <trkpt lat="42.771557" lon="-1.4048355">
        <time>2022-07-03T15:21:38Z</time>
      </trkpt>
      <trkpt lat="42.771553" lon="-1.404767">
        <time>2022-07-03T15:21:40Z</time>
      </trkpt>
      <trkpt lat="42.77155" lon="-1.4046998">
        <time>2022-07-03T15:21:42Z</time>
      </trkpt>
      <trkpt lat="42.77155" lon="-1.4046028">
        <time>2022-07-03T15:21:45Z</time>
      </trkpt>
      <trkpt lat="42.77155" lon="-1.4045141">
        <time>2022-07-03T15:21:48Z</time>
      </trkpt>
      <trkpt lat="42.771545" lon="-1.4044257">
        <time>2022-07-03T15:21:51Z</time>
      </trkpt>
      <trkpt lat="42.77154" lon="-1.4043411">
        <time>2022-07-03T15:21:54Z</time>
      </trkpt>
      <trkpt lat="42.771538" lon="-1.4042578">
        <time>2022-07-03T15:21:57Z</time>
      </trkpt>
      <trkpt lat="42.77153" lon="-1.4041761">
        <time>2022-07-03T15:22:00Z</time>
      </trkpt>
      <trkpt lat="42.771523" lon="-1.4040935">
        <time>2022-07-03T15:22:03Z</time>
      </trkpt>
      <trkpt lat="42.771515" lon="-1.4040148">
        <time>2022-07-03T15:22:06Z</time>
      </trkpt>
      <trkpt lat="42.771507" lon="-1.4039384">
        <time>2022-07-03T15:22:09Z</time>
      </trkpt>
      <trkpt lat="42.7715" lon="-1.4038621">
        <time>2022-07-03T15:22:12Z</time>
      </trkpt>
      <trkpt lat="42.771492" lon="-1.4037855">
        <time>2022-07-03T15:22:15Z</time>
      </trkpt>
      <trkpt lat="42.771484" lon="-1.4037101">
        <time>2022-07-03T15:22:18Z</time>
      </trkpt>
      <trkpt lat="42.771477" lon="-1.4036351">
        <time>2022-07-03T15:22:21Z</time>
      </trkpt>
      <trkpt lat="42.771473" lon="-1.4035609">
        <time>2022-07-03T15:22:24Z</time>
      </trkpt>
      <trkpt lat="42.77146" lon="-1.4034852">
        <time>2022-07-03T15:22:27Z</time>
      </trkpt>
      <trkpt lat="42.771458" lon="-1.4034098">
        <time>2022-07-03T15:22:30Z</time>
      </trkpt>
      <trkpt lat="42.77145" lon="-1.4033345">
        <time>2022-07-03T15:22:33Z</time>
      </trkpt>
      <trkpt lat="42.771442" lon="-1.4032542">
        <time>2022-07-03T15:22:36Z</time>
      </trkpt>
      <trkpt lat="42.77144" lon="-1.4031725">
        <time>2022-07-03T15:22:39Z</time>
      </trkpt>
      <trkpt lat="42.771435" lon="-1.4030935">
        <time>2022-07-03T15:22:42Z</time>
      </trkpt>
      <trkpt lat="42.77143" lon="-1.4030195">
        <time>2022-07-03T15:22:45Z</time>
      </trkpt>
      <trkpt lat="42.771423" lon="-1.4029396">
        <time>2022-07-03T15:22:49Z</time>
      </trkpt>
      <trkpt lat="42.77141" lon="-1.4028639">
        <time>2022-07-03T15:22:53Z</time>
      </trkpt>
      <trkpt lat="42.771404" lon="-1.4027861">
        <time>2022-07-03T15:22:57Z</time>
      </trkpt>
      <trkpt lat="42.7714" lon="-1.4027061">
        <time>2022-07-03T15:23:01Z</time>
      </trkpt>
      <trkpt lat="42.771393" lon="-1.4026291">
        <time>2022-07-03T15:23:05Z</time>
      </trkpt>
      <trkpt lat="42.771378" lon="-1.4025306">
        <time>2022-07-03T15:23:10Z</time>
      </trkpt>
      <trkpt lat="42.77137" lon="-1.4024462">
        <time>2022-07-03T15:23:14Z</time>
      </trkpt>
      <trkpt lat="42.771366" lon="-1.4023799">
        <time>2022-07-03T15:23:17Z</time>
      </trkpt>
      <trkpt lat="42.771362" lon="-1.4022875">
        <time>2022-07-03T15:23:21Z</time>
      </trkpt>
      <trkpt lat="42.771362" lon="-1.4022182">
        <time>2022-07-03T15:23:24Z</time>
      </trkpt>
      <trkpt lat="42.77136" lon="-1.4021292">
        <time>2022-07-03T15:23:28Z</time>
      </trkpt>
      <trkpt lat="42.771362" lon="-1.4020408">
        <time>2022-07-03T15:23:32Z</time>
      </trkpt>
      <trkpt lat="42.771366" lon="-1.4019759">
        <time>2022-07-03T15:23:35Z</time>
      </trkpt>
      <trkpt lat="42.77137" lon="-1.4018886">
        <time>2022-07-03T15:23:39Z</time>
      </trkpt>
      <trkpt lat="42.771378" lon="-1.4018012">
        <time>2022-07-03T15:23:43Z</time>
      </trkpt>
      <trkpt lat="42.77138" lon="-1.4017155">
        <time>2022-07-03T15:23:47Z</time>
      </trkpt>
      <trkpt lat="42.771393" lon="-1.4016292">
        <time>2022-07-03T15:23:51Z</time>
      </trkpt>
      <trkpt lat="42.771404" lon="-1.4015613">
        <time>2022-07-03T15:23:54Z</time>
      </trkpt>
      <trkpt lat="42.771416" lon="-1.4014733">
        <time>2022-07-03T15:23:58Z</time>
      </trkpt>
      <trkpt lat="42.771427" lon="-1.4014072">
        <time>2022-07-03T15:24:01Z</time>
      </trkpt>
      <trkpt lat="42.77145" lon="-1.4013165">
        <time>2022-07-03T15:24:05Z</time>
      </trkpt>
      <trkpt lat="42.771465" lon="-1.4012489">
        <time>2022-07-03T15:24:08Z</time>
      </trkpt>
      <trkpt lat="42.77148" lon="-1.4011803">
        <time>2022-07-03T15:24:11Z</time>
      </trkpt>
      <trkpt lat="42.7715" lon="-1.4011075">
        <time>2022-07-03T15:24:14Z</time>
      </trkpt>
      <trkpt lat="42.77152" lon="-1.401037">
        <time>2022-07-03T15:24:17Z</time>
      </trkpt>
      <trkpt lat="42.771538" lon="-1.4009722">
        <time>2022-07-03T15:24:20Z</time>
      </trkpt>
      <trkpt lat="42.771557" lon="-1.4009036">
        <time>2022-07-03T15:24:23Z</time>
      </trkpt>
      <trkpt lat="42.771576" lon="-1.400834">
        <time>2022-07-03T15:24:26Z</time>
      </trkpt>
      <trkpt lat="42.7716" lon="-1.400765">
        <time>2022-07-03T15:24:29Z</time>
      </trkpt>
      <trkpt lat="42.77162" lon="-1.4006959">
        <time>2022-07-03T15:24:32Z</time>
      </trkpt>
      <trkpt lat="42.771652" lon="-1.4006267">
        <time>2022-07-03T15:24:35Z</time>
      </trkpt>
      <trkpt lat="42.77168" lon="-1.4005597">
        <time>2022-07-03T15:24:38Z</time>
      </trkpt>
      <trkpt lat="42.771706" lon="-1.4004946">
        <time>2022-07-03T15:24:41Z</time>
      </trkpt>
      <trkpt lat="42.771736" lon="-1.4004292">
        <time>2022-07-03T15:24:44Z</time>
      </trkpt>
      <trkpt lat="42.771767" lon="-1.400363">
        <time>2022-07-03T15:24:47Z</time>
      </trkpt>
      <trkpt lat="42.771793" lon="-1.400299">
        <time>2022-07-03T15:24:50Z</time>
      </trkpt>
      <trkpt lat="42.77182" lon="-1.4002362">
        <time>2022-07-03T15:24:53Z</time>
      </trkpt>
      <trkpt lat="42.771847" lon="-1.4001733">
        <time>2022-07-03T15:24:56Z</time>
      </trkpt>
      <trkpt lat="42.77188" lon="-1.400113">
        <time>2022-07-03T15:24:59Z</time>
      </trkpt>
      <trkpt lat="42.771915" lon="-1.400054">
        <time>2022-07-03T15:25:02Z</time>
      </trkpt>
      <trkpt lat="42.771942" lon="-1.3999926">
        <time>2022-07-03T15:25:05Z</time>
      </trkpt>
      <trkpt lat="42.771984" lon="-1.3999107">
        <time>2022-07-03T15:25:09Z</time>
      </trkpt>
      <trkpt lat="42.772015" lon="-1.39985">
        <time>2022-07-03T15:25:12Z</time>
      </trkpt>
      <trkpt lat="42.772045" lon="-1.399789">
        <time>2022-07-03T15:25:15Z</time>
      </trkpt>
      <trkpt lat="42.77208" lon="-1.3997253">
        <time>2022-07-03T15:25:18Z</time>
      </trkpt>
      <trkpt lat="42.77211" lon="-1.3996617">
        <time>2022-07-03T15:25:21Z</time>
      </trkpt>
      <trkpt lat="42.772137" lon="-1.399599">
        <time>2022-07-03T15:25:24Z</time>
      </trkpt>
      <trkpt lat="42.772167" lon="-1.399535">
        <time>2022-07-03T15:25:27Z</time>
      </trkpt>
      <trkpt lat="42.772194" lon="-1.3994687">
        <time>2022-07-03T15:25:30Z</time>
      </trkpt>
      <trkpt lat="42.77222" lon="-1.399407">
        <time>2022-07-03T15:25:33Z</time>
      </trkpt>
      <trkpt lat="42.772247" lon="-1.399344">
        <time>2022-07-03T15:25:36Z</time>
      </trkpt>
      <trkpt lat="42.772278" lon="-1.3992606">
        <time>2022-07-03T15:25:40Z</time>
      </trkpt>
      <trkpt lat="42.77231" lon="-1.3991934">
        <time>2022-07-03T15:25:43Z</time>
      </trkpt>
      <trkpt lat="42.772335" lon="-1.3991257">
        <time>2022-07-03T15:25:46Z</time>
      </trkpt>
      <trkpt lat="42.77236" lon="-1.3990617">
        <time>2022-07-03T15:25:49Z</time>
      </trkpt>
      <trkpt lat="42.772385" lon="-1.398999">
        <time>2022-07-03T15:25:52Z</time>
      </trkpt>
      <trkpt lat="42.772415" lon="-1.398915">
        <time>2022-07-03T15:25:56Z</time>
      </trkpt>
      <trkpt lat="42.772438" lon="-1.3988518">
        <time>2022-07-03T15:25:59Z</time>
      </trkpt>
      <trkpt lat="42.77246" lon="-1.3987831">
        <time>2022-07-03T15:26:02Z</time>
      </trkpt>
      <trkpt lat="42.772484" lon="-1.3987087">
        <time>2022-07-03T15:26:05Z</time>
      </trkpt>
      <trkpt lat="42.772507" lon="-1.3986357">
        <time>2022-07-03T15:26:08Z</time>
      </trkpt>
      <trkpt lat="42.77253" lon="-1.3985641">
        <time>2022-07-03T15:26:11Z</time>
      </trkpt>
      <trkpt lat="42.772552" lon="-1.398494">
        <time>2022-07-03T15:26:14Z</time>
      </trkpt>
      <trkpt lat="42.77257" lon="-1.3984201">
        <time>2022-07-03T15:26:17Z</time>
      </trkpt>
      <trkpt lat="42.772594" lon="-1.398344">
        <time>2022-07-03T15:26:20Z</time>
      </trkpt>
      <trkpt lat="42.772617" lon="-1.3982624">
        <time>2022-07-03T15:26:23Z</time>
      </trkpt>
      <trkpt lat="42.77264" lon="-1.398177">
        <time>2022-07-03T15:26:26Z</time>
      </trkpt>
      <trkpt lat="42.772663" lon="-1.3980911">
        <time>2022-07-03T15:26:29Z</time>
      </trkpt>
      <trkpt lat="42.772686" lon="-1.3979927">
        <time>2022-07-03T15:26:32Z</time>
      </trkpt>
      <trkpt lat="42.7727" lon="-1.397922">
        <time>2022-07-03T15:26:34Z</time>
      </trkpt>
      <trkpt lat="42.772717" lon="-1.3978465">
        <time>2022-07-03T15:26:36Z</time>
      </trkpt>
      <trkpt lat="42.772736" lon="-1.3977667">
        <time>2022-07-03T15:26:38Z</time>
      </trkpt>
      <trkpt lat="42.77275" lon="-1.3976815">
        <time>2022-07-03T15:26:40Z</time>
      </trkpt>
      <trkpt lat="42.772766" lon="-1.3975941">
        <time>2022-07-03T15:26:42Z</time>
      </trkpt>
      <trkpt lat="42.77278" lon="-1.3975004">
        <time>2022-07-03T15:26:44Z</time>
      </trkpt>
      <trkpt lat="42.772797" lon="-1.3974018">
        <time>2022-07-03T15:26:46Z</time>
      </trkpt>
      <trkpt lat="42.77281" lon="-1.3972911">
        <time>2022-07-03T15:26:48Z</time>
      </trkpt>
      <trkpt lat="42.772827" lon="-1.3971748">
        <time>2022-07-03T15:26:50Z</time>
      </trkpt>
      <trkpt lat="42.772842" lon="-1.3970544">
        <time>2022-07-03T15:26:52Z</time>
      </trkpt>
      <trkpt lat="42.772854" lon="-1.3969208">
        <time>2022-07-03T15:26:54Z</time>
      </trkpt>
      <trkpt lat="42.77286" lon="-1.3967744">
        <time>2022-07-03T15:26:56Z</time>
      </trkpt>
      <trkpt lat="42.772865" lon="-1.3966974">
        <time>2022-07-03T15:26:57Z</time>
      </trkpt>
      <trkpt lat="42.77287" lon="-1.3966178">
        <time>2022-07-03T15:26:58Z</time>
      </trkpt>
      <trkpt lat="42.772873" lon="-1.3965352">
        <time>2022-07-03T15:26:59Z</time>
      </trkpt>
      <trkpt lat="42.772877" lon="-1.3964494">
        <time>2022-07-03T15:27:00Z</time>
      </trkpt>
      <trkpt lat="42.77288" lon="-1.3963605">
        <time>2022-07-03T15:27:01Z</time>
      </trkpt>
      <trkpt lat="42.77288" lon="-1.3962678">
        <time>2022-07-03T15:27:02Z</time>
      </trkpt>
      <trkpt lat="42.772884" lon="-1.3961709">
        <time>2022-07-03T15:27:03Z</time>
      </trkpt>
      <trkpt lat="42.772884" lon="-1.3960688">
        <time>2022-07-03T15:27:04Z</time>
      </trkpt>
      <trkpt lat="42.77288" lon="-1.3959625">
        <time>2022-07-03T15:27:05Z</time>
      </trkpt>
      <trkpt lat="42.772877" lon="-1.3958532">
        <time>2022-07-03T15:27:06Z</time>
      </trkpt>
      <trkpt lat="42.77287" lon="-1.3957465">
        <time>2022-07-03T15:27:07Z</time>
      </trkpt>
      <trkpt lat="42.77286" lon="-1.3956308">
        <time>2022-07-03T15:27:08Z</time>
      </trkpt>
      <trkpt lat="42.77285" lon="-1.3955075">
        <time>2022-07-03T15:27:09Z</time>
      </trkpt>
      <trkpt lat="42.77284" lon="-1.3953868">
        <time>2022-07-03T15:27:10Z</time>
      </trkpt>
      <trkpt lat="42.772827" lon="-1.3952575">
        <time>2022-07-03T15:27:11Z</time>
      </trkpt>
      <trkpt lat="42.772808" lon="-1.3951199">
        <time>2022-07-03T15:27:12Z</time>
      </trkpt>
      <trkpt lat="42.77279" lon="-1.3949755">
        <time>2022-07-03T15:27:13Z</time>
      </trkpt>
      <trkpt lat="42.772766" lon="-1.3948241">
        <time>2022-07-03T15:27:14Z</time>
      </trkpt>
      <trkpt lat="42.77274" lon="-1.3946669">
        <time>2022-07-03T15:27:15Z</time>
      </trkpt>
      <trkpt lat="42.77268" lon="-1.3943255">
        <time>2022-07-03T15:27:17Z</time>
      </trkpt>
      <trkpt lat="42.77265" lon="-1.3941585">
        <time>2022-07-03T15:27:18Z</time>
      </trkpt>
      <trkpt lat="42.772617" lon="-1.3939742">
        <time>2022-07-03T15:27:19Z</time>
      </trkpt>
      <trkpt lat="42.772587" lon="-1.3938019">
        <time>2022-07-03T15:27:20Z</time>
      </trkpt>
      <trkpt lat="42.772556" lon="-1.3936253">
        <time>2022-07-03T15:27:21Z</time>
      </trkpt>
      <trkpt lat="42.772526" lon="-1.3934332">
        <time>2022-07-03T15:27:22Z</time>
      </trkpt>
      <trkpt lat="42.772503" lon="-1.3932415">
        <time>2022-07-03T15:27:23Z</time>
      </trkpt>
      <trkpt lat="42.77248" lon="-1.3930513">
        <time>2022-07-03T15:27:24Z</time>
      </trkpt>
      <trkpt lat="42.772465" lon="-1.3928626">
        <time>2022-07-03T15:27:25Z</time>
      </trkpt>
      <trkpt lat="42.772457" lon="-1.3926775">
        <time>2022-07-03T15:27:26Z</time>
      </trkpt>
      <trkpt lat="42.77245" lon="-1.3924829">
        <time>2022-07-03T15:27:27Z</time>
      </trkpt>
      <trkpt lat="42.772453" lon="-1.3922943">
        <time>2022-07-03T15:27:28Z</time>
      </trkpt>
      <trkpt lat="42.772457" lon="-1.3921113">
        <time>2022-07-03T15:27:29Z</time>
      </trkpt>
      <trkpt lat="42.772472" lon="-1.3919343">
        <time>2022-07-03T15:27:30Z</time>
      </trkpt>
      <trkpt lat="42.772488" lon="-1.3917632">
        <time>2022-07-03T15:27:31Z</time>
      </trkpt>
      <trkpt lat="42.772507" lon="-1.3916082">
        <time>2022-07-03T15:27:32Z</time>
      </trkpt>
      <trkpt lat="42.772533" lon="-1.3914462">
        <time>2022-07-03T15:27:33Z</time>
      </trkpt>
      <trkpt lat="42.77256" lon="-1.3912916">
        <time>2022-07-03T15:27:34Z</time>
      </trkpt>
      <trkpt lat="42.772587" lon="-1.3911526">
        <time>2022-07-03T15:27:35Z</time>
      </trkpt>
      <trkpt lat="42.772617" lon="-1.3910176">
        <time>2022-07-03T15:27:36Z</time>
      </trkpt>
      <trkpt lat="42.77265" lon="-1.3908886">
        <time>2022-07-03T15:27:37Z</time>
      </trkpt>
      <trkpt lat="42.772686" lon="-1.3907655">
        <time>2022-07-03T15:27:38Z</time>
      </trkpt>
      <trkpt lat="42.77272" lon="-1.3906493">
        <time>2022-07-03T15:27:39Z</time>
      </trkpt>
      <trkpt lat="42.772755" lon="-1.3905399">
        <time>2022-07-03T15:27:40Z</time>
      </trkpt>
      <trkpt lat="42.772793" lon="-1.3904359">
        <time>2022-07-03T15:27:41Z</time>
      </trkpt>
      <trkpt lat="42.77283" lon="-1.3903333">
        <time>2022-07-03T15:27:42Z</time>
      </trkpt>
      <trkpt lat="42.77287" lon="-1.3902446">
        <time>2022-07-03T15:27:43Z</time>
      </trkpt>
      <trkpt lat="42.772903" lon="-1.390162">
        <time>2022-07-03T15:27:44Z</time>
      </trkpt>
      <trkpt lat="42.772938" lon="-1.3900853">
        <time>2022-07-03T15:27:45Z</time>
      </trkpt>
      <trkpt lat="42.772976" lon="-1.3900139">
        <time>2022-07-03T15:27:46Z</time>
      </trkpt>
      <trkpt lat="42.77301" lon="-1.389948">
        <time>2022-07-03T15:27:47Z</time>
      </trkpt>
      <trkpt lat="42.773045" lon="-1.3898846">
        <time>2022-07-03T15:27:48Z</time>
      </trkpt>
      <trkpt lat="42.773075" lon="-1.389831">
        <time>2022-07-03T15:27:49Z</time>
      </trkpt>
      <trkpt lat="42.773132" lon="-1.3897376">
        <time>2022-07-03T15:27:51Z</time>
      </trkpt>
      <trkpt lat="42.773182" lon="-1.3896573">
        <time>2022-07-03T15:27:53Z</time>
      </trkpt>
      <trkpt lat="42.77322" lon="-1.38959">
        <time>2022-07-03T15:27:55Z</time>
      </trkpt>
      <trkpt lat="42.77326" lon="-1.3895283">
        <time>2022-07-03T15:27:57Z</time>
      </trkpt>
      <trkpt lat="42.773293" lon="-1.389473">
        <time>2022-07-03T15:27:59Z</time>
      </trkpt>
      <trkpt lat="42.773335" lon="-1.3893983">
        <time>2022-07-03T15:28:02Z</time>
      </trkpt>
      <trkpt lat="42.773376" lon="-1.3893317">
        <time>2022-07-03T15:28:05Z</time>
      </trkpt>
      <trkpt lat="42.773422" lon="-1.389264">
        <time>2022-07-03T15:28:08Z</time>
      </trkpt>
      <trkpt lat="42.773464" lon="-1.389203">
        <time>2022-07-03T15:28:11Z</time>
      </trkpt>
      <trkpt lat="42.77351" lon="-1.389137">
        <time>2022-07-03T15:28:14Z</time>
      </trkpt>
      <trkpt lat="42.773552" lon="-1.389066">
        <time>2022-07-03T15:28:17Z</time>
      </trkpt>
      <trkpt lat="42.773594" lon="-1.3889936">
        <time>2022-07-03T15:28:20Z</time>
      </trkpt>
      <trkpt lat="42.773643" lon="-1.3889207">
        <time>2022-07-03T15:28:23Z</time>
      </trkpt>
      <trkpt lat="42.773674" lon="-1.388873">
        <time>2022-07-03T15:28:25Z</time>
      </trkpt>
      <trkpt lat="42.773735" lon="-1.3887717">
        <time>2022-07-03T15:28:29Z</time>
      </trkpt>
      <trkpt lat="42.77378" lon="-1.388695">
        <time>2022-07-03T15:28:32Z</time>
      </trkpt>
      <trkpt lat="42.773823" lon="-1.388622">
        <time>2022-07-03T15:28:35Z</time>
      </trkpt>
      <trkpt lat="42.773865" lon="-1.3885508">
        <time>2022-07-03T15:28:38Z</time>
      </trkpt>
      <trkpt lat="42.773903" lon="-1.3884804">
        <time>2022-07-03T15:28:41Z</time>
      </trkpt>
      <trkpt lat="42.77394" lon="-1.3884118">
        <time>2022-07-03T15:28:44Z</time>
      </trkpt>
      <trkpt lat="42.773983" lon="-1.3883367">
        <time>2022-07-03T15:28:47Z</time>
      </trkpt>
      <trkpt lat="42.774006" lon="-1.388286">
        <time>2022-07-03T15:28:49Z</time>
      </trkpt>
      <trkpt lat="42.774044" lon="-1.3882138">
        <time>2022-07-03T15:28:52Z</time>
      </trkpt>
      <trkpt lat="42.774082" lon="-1.3881514">
        <time>2022-07-03T15:28:55Z</time>
      </trkpt>
      <trkpt lat="42.774124" lon="-1.3880934">
        <time>2022-07-03T15:28:58Z</time>
      </trkpt>
      <trkpt lat="42.774166" lon="-1.3880367">
        <time>2022-07-03T15:29:01Z</time>
      </trkpt>
      <trkpt lat="42.774204" lon="-1.387984">
        <time>2022-07-03T15:29:04Z</time>
      </trkpt>
      <trkpt lat="42.774242" lon="-1.3879287">
        <time>2022-07-03T15:29:07Z</time>
      </trkpt>
      <trkpt lat="42.77428" lon="-1.3878741">
        <time>2022-07-03T15:29:10Z</time>
      </trkpt>
      <trkpt lat="42.774323" lon="-1.387817">
        <time>2022-07-03T15:29:13Z</time>
      </trkpt>
      <trkpt lat="42.77436" lon="-1.3877544">
        <time>2022-07-03T15:29:16Z</time>
      </trkpt>
      <trkpt lat="42.774403" lon="-1.3876731">
        <time>2022-07-03T15:29:20Z</time>
      </trkpt>
      <trkpt lat="42.774437" lon="-1.3876145">
        <time>2022-07-03T15:29:23Z</time>
      </trkpt>
      <trkpt lat="42.774475" lon="-1.3875477">
        <time>2022-07-03T15:29:26Z</time>
      </trkpt>
      <trkpt lat="42.77452" lon="-1.3874788">
        <time>2022-07-03T15:29:29Z</time>
      </trkpt>
      <trkpt lat="42.774563" lon="-1.3874121">
        <time>2022-07-03T15:29:32Z</time>
      </trkpt>
      <trkpt lat="42.774605" lon="-1.3873432">
        <time>2022-07-03T15:29:35Z</time>
      </trkpt>
      <trkpt lat="42.77465" lon="-1.3872684">
        <time>2022-07-03T15:29:38Z</time>
      </trkpt>
      <trkpt lat="42.77468" lon="-1.3872185">
        <time>2022-07-03T15:29:40Z</time>
      </trkpt>
      <trkpt lat="42.774727" lon="-1.3871408">
        <time>2022-07-03T15:29:43Z</time>
      </trkpt>
      <trkpt lat="42.774776" lon="-1.3870648">
        <time>2022-07-03T15:29:46Z</time>
      </trkpt>
      <trkpt lat="42.77481" lon="-1.3870125">
        <time>2022-07-03T15:29:48Z</time>
      </trkpt>
      <trkpt lat="42.774857" lon="-1.3869281">
        <time>2022-07-03T15:29:51Z</time>
      </trkpt>
      <trkpt lat="42.77489" lon="-1.3868688">
        <time>2022-07-03T15:29:53Z</time>
      </trkpt>
      <trkpt lat="42.774925" lon="-1.3868082">
        <time>2022-07-03T15:29:55Z</time>
      </trkpt>
      <trkpt lat="42.77496" lon="-1.3867434">
        <time>2022-07-03T15:29:57Z</time>
      </trkpt>
      <trkpt lat="42.775" lon="-1.3866762">
        <time>2022-07-03T15:29:59Z</time>
      </trkpt>
      <trkpt lat="42.775043" lon="-1.3866051">
        <time>2022-07-03T15:30:01Z</time>
      </trkpt>
      <trkpt lat="42.77509" lon="-1.3865322">
        <time>2022-07-03T15:30:03Z</time>
      </trkpt>
      <trkpt lat="42.775135" lon="-1.3864585">
        <time>2022-07-03T15:30:05Z</time>
      </trkpt>
      <trkpt lat="42.775185" lon="-1.3863858">
        <time>2022-07-03T15:30:07Z</time>
      </trkpt>
      <trkpt lat="42.775227" lon="-1.3863115">
        <time>2022-07-03T15:30:09Z</time>
      </trkpt>
      <trkpt lat="42.775272" lon="-1.3862385">
        <time>2022-07-03T15:30:11Z</time>
      </trkpt>
      <trkpt lat="42.77532" lon="-1.3861672">
        <time>2022-07-03T15:30:13Z</time>
      </trkpt>
      <trkpt lat="42.77536" lon="-1.3860961">
        <time>2022-07-03T15:30:15Z</time>
      </trkpt>
      <trkpt lat="42.775402" lon="-1.3860272">
        <time>2022-07-03T15:30:17Z</time>
      </trkpt>
      <trkpt lat="42.775444" lon="-1.3859582">
        <time>2022-07-03T15:30:19Z</time>
      </trkpt>
      <trkpt lat="42.775482" lon="-1.3858885">
        <time>2022-07-03T15:30:21Z</time>
      </trkpt>
      <trkpt lat="42.775524" lon="-1.3858212">
        <time>2022-07-03T15:30:23Z</time>
      </trkpt>
      <trkpt lat="42.775566" lon="-1.3857565">
        <time>2022-07-03T15:30:25Z</time>
      </trkpt>
      <trkpt lat="42.775608" lon="-1.3856906">
        <time>2022-07-03T15:30:27Z</time>
      </trkpt>
      <trkpt lat="42.77565" lon="-1.3856255">
        <time>2022-07-03T15:30:29Z</time>
      </trkpt>
      <trkpt lat="42.775684" lon="-1.3855635">
        <time>2022-07-03T15:30:31Z</time>
      </trkpt>
      <trkpt lat="42.775723" lon="-1.3855022">
        <time>2022-07-03T15:30:33Z</time>
      </trkpt>
      <trkpt lat="42.77576" lon="-1.3854399">
        <time>2022-07-03T15:30:35Z</time>
      </trkpt>
      <trkpt lat="42.7758" lon="-1.3853779">
        <time>2022-07-03T15:30:37Z</time>
      </trkpt>
      <trkpt lat="42.775833" lon="-1.3853178">
        <time>2022-07-03T15:30:39Z</time>
      </trkpt>
      <trkpt lat="42.77587" lon="-1.3852708">
        <time>2022-07-03T15:30:41Z</time>
      </trkpt>
      <trkpt lat="42.775932" lon="-1.3852448">
        <time>2022-07-03T15:30:44Z</time>
      </trkpt>
      <trkpt lat="42.776005" lon="-1.3852398">
        <time>2022-07-03T15:30:47Z</time>
      </trkpt>
      <trkpt lat="42.776066" lon="-1.3852335">
        <time>2022-07-03T15:30:49Z</time>
      </trkpt>
      <trkpt lat="42.776127" lon="-1.3852332">
        <time>2022-07-03T15:30:51Z</time>
      </trkpt>
      <trkpt lat="42.77618" lon="-1.3852415">
        <time>2022-07-03T15:30:53Z</time>
      </trkpt>
      <trkpt lat="42.776234" lon="-1.3852766">
        <time>2022-07-03T15:30:56Z</time>
      </trkpt>
      <trkpt lat="42.776268" lon="-1.3853269">
        <time>2022-07-03T15:30:59Z</time>
      </trkpt>
      <trkpt lat="42.776306" lon="-1.3853695">
        <time>2022-07-03T15:31:02Z</time>
      </trkpt>
      <trkpt lat="42.776257" lon="-1.3853031">
        <time>2022-07-03T15:32:31Z</time>
      </trkpt>
      <trkpt lat="42.776226" lon="-1.3852628">
        <time>2022-07-03T15:32:34Z</time>
      </trkpt>
      <trkpt lat="42.77628" lon="-1.3851985">
        <time>2022-07-03T15:33:32Z</time>
      </trkpt>
      <trkpt lat="42.77629" lon="-1.3852649">
        <time>2022-07-03T15:33:38Z</time>
      </trkpt>
      <trkpt lat="42.77626" lon="-1.3853602">
        <time>2022-07-03T15:33:57Z</time>
      </trkpt>
      <trkpt lat="42.776615" lon="-1.3852131">
        <time>2022-07-03T15:35:52Z</time>
      </trkpt>
      <trkpt lat="42.776352" lon="-1.3852109">
        <time>2022-07-03T15:36:09Z</time>
      </trkpt>
      <trkpt lat="42.776154" lon="-1.3853089">
        <time>2022-07-03T15:37:52Z</time>
      </trkpt>
      <trkpt lat="42.77609" lon="-1.3852699">
        <time>2022-07-03T15:37:55Z</time>
      </trkpt>
      <trkpt lat="42.77603" lon="-1.3852528">
        <time>2022-07-03T15:37:57Z</time>
      </trkpt>
      <trkpt lat="42.77598" lon="-1.3852355">
        <time>2022-07-03T15:37:59Z</time>
      </trkpt>
      <trkpt lat="42.77594" lon="-1.3851722">
        <time>2022-07-03T15:38:02Z</time>
      </trkpt>
      <trkpt lat="42.775955" lon="-1.3850652">
        <time>2022-07-03T15:38:05Z</time>
      </trkpt>
      <trkpt lat="42.77599" lon="-1.3849828">
        <time>2022-07-03T15:38:07Z</time>
      </trkpt>
      <trkpt lat="42.77603" lon="-1.3848943">
        <time>2022-07-03T15:38:09Z</time>
      </trkpt>
      <trkpt lat="42.776077" lon="-1.3848006">
        <time>2022-07-03T15:38:11Z</time>
      </trkpt>
      <trkpt lat="42.77612" lon="-1.3847063">
        <time>2022-07-03T15:38:13Z</time>
      </trkpt>
      <trkpt lat="42.77616" lon="-1.3846133">
        <time>2022-07-03T15:38:15Z</time>
      </trkpt>
      <trkpt lat="42.776203" lon="-1.3845179">
        <time>2022-07-03T15:38:17Z</time>
      </trkpt>
      <trkpt lat="42.77624" lon="-1.3844212">
        <time>2022-07-03T15:38:19Z</time>
      </trkpt>
      <trkpt lat="42.77628" lon="-1.3843225">
        <time>2022-07-03T15:38:21Z</time>
      </trkpt>
      <trkpt lat="42.776318" lon="-1.384221">
        <time>2022-07-03T15:38:23Z</time>
      </trkpt>
      <trkpt lat="42.776356" lon="-1.3841172">
        <time>2022-07-03T15:38:25Z</time>
      </trkpt>
      <trkpt lat="42.77639" lon="-1.3840116">
        <time>2022-07-03T15:38:27Z</time>
      </trkpt>
      <trkpt lat="42.77643" lon="-1.3839062">
        <time>2022-07-03T15:38:29Z</time>
      </trkpt>
      <trkpt lat="42.776463" lon="-1.3837996">
        <time>2022-07-03T15:38:31Z</time>
      </trkpt>
      <trkpt lat="42.776493" lon="-1.3836902">
        <time>2022-07-03T15:38:33Z</time>
      </trkpt>
      <trkpt lat="42.776527" lon="-1.3835787">
        <time>2022-07-03T15:38:35Z</time>
      </trkpt>
      <trkpt lat="42.776566" lon="-1.383466">
        <time>2022-07-03T15:38:37Z</time>
      </trkpt>
      <trkpt lat="42.7766" lon="-1.3833536">
        <time>2022-07-03T15:38:39Z</time>
      </trkpt>
      <trkpt lat="42.776634" lon="-1.3832417">
        <time>2022-07-03T15:38:41Z</time>
      </trkpt>
      <trkpt lat="42.776665" lon="-1.3831279">
        <time>2022-07-03T15:38:43Z</time>
      </trkpt>
      <trkpt lat="42.776703" lon="-1.3830153">
        <time>2022-07-03T15:38:45Z</time>
      </trkpt>
      <trkpt lat="42.776737" lon="-1.3828989">
        <time>2022-07-03T15:38:47Z</time>
      </trkpt>
      <trkpt lat="42.776752" lon="-1.3828397">
        <time>2022-07-03T15:38:48Z</time>
      </trkpt>
      <trkpt lat="42.77679" lon="-1.382722">
        <time>2022-07-03T15:38:50Z</time>
      </trkpt>
      <trkpt lat="42.77683" lon="-1.3826057">
        <time>2022-07-03T15:38:52Z</time>
      </trkpt>
      <trkpt lat="42.776848" lon="-1.3825474">
        <time>2022-07-03T15:38:53Z</time>
      </trkpt>
      <trkpt lat="42.776882" lon="-1.382431">
        <time>2022-07-03T15:38:55Z</time>
      </trkpt>
      <trkpt lat="42.77692" lon="-1.3823167">
        <time>2022-07-03T15:38:57Z</time>
      </trkpt>
      <trkpt lat="42.776955" lon="-1.3822017">
        <time>2022-07-03T15:38:59Z</time>
      </trkpt>
      <trkpt lat="42.77699" lon="-1.382086">
        <time>2022-07-03T15:39:01Z</time>
      </trkpt>
      <trkpt lat="42.777023" lon="-1.3819723">
        <time>2022-07-03T15:39:03Z</time>
      </trkpt>
      <trkpt lat="42.777058" lon="-1.3818597">
        <time>2022-07-03T15:39:05Z</time>
      </trkpt>
      <trkpt lat="42.77709" lon="-1.3817466">
        <time>2022-07-03T15:39:07Z</time>
      </trkpt>
      <trkpt lat="42.777122" lon="-1.381636">
        <time>2022-07-03T15:39:09Z</time>
      </trkpt>
      <trkpt lat="42.77716" lon="-1.3815284">
        <time>2022-07-03T15:39:11Z</time>
      </trkpt>
      <trkpt lat="42.7772" lon="-1.3814204">
        <time>2022-07-03T15:39:13Z</time>
      </trkpt>
      <trkpt lat="42.777237" lon="-1.381312">
        <time>2022-07-03T15:39:15Z</time>
      </trkpt>
      <trkpt lat="42.77728" lon="-1.3812077">
        <time>2022-07-03T15:39:17Z</time>
      </trkpt>
      <trkpt lat="42.777325" lon="-1.3811038">
        <time>2022-07-03T15:39:19Z</time>
      </trkpt>
      <trkpt lat="42.77737" lon="-1.3810017">
        <time>2022-07-03T15:39:21Z</time>
      </trkpt>
      <trkpt lat="42.777397" lon="-1.3809507">
        <time>2022-07-03T15:39:22Z</time>
      </trkpt>
      <trkpt lat="42.77745" lon="-1.3808517">
        <time>2022-07-03T15:39:24Z</time>
      </trkpt>
      <trkpt lat="42.777508" lon="-1.380754">
        <time>2022-07-03T15:39:26Z</time>
      </trkpt>
      <trkpt lat="42.777565" lon="-1.3806593">
        <time>2022-07-03T15:39:28Z</time>
      </trkpt>
      <trkpt lat="42.777634" lon="-1.3805654">
        <time>2022-07-03T15:39:30Z</time>
      </trkpt>
      <trkpt lat="42.777668" lon="-1.3805187">
        <time>2022-07-03T15:39:31Z</time>
      </trkpt>
      <trkpt lat="42.77774" lon="-1.380426">
        <time>2022-07-03T15:39:33Z</time>
      </trkpt>
      <trkpt lat="42.777775" lon="-1.3803807">
        <time>2022-07-03T15:39:34Z</time>
      </trkpt>
      <trkpt lat="42.777813" lon="-1.3803368">
        <time>2022-07-03T15:39:35Z</time>
      </trkpt>
      <trkpt lat="42.777893" lon="-1.3802514">
        <time>2022-07-03T15:39:37Z</time>
      </trkpt>
      <trkpt lat="42.777973" lon="-1.3801684">
        <time>2022-07-03T15:39:39Z</time>
      </trkpt>
      <trkpt lat="42.778015" lon="-1.3801267">
        <time>2022-07-03T15:39:40Z</time>
      </trkpt>
      <trkpt lat="42.778103" lon="-1.3800434">
        <time>2022-07-03T15:39:42Z</time>
      </trkpt>
      <trkpt lat="42.77815" lon="-1.380002">
        <time>2022-07-03T15:39:43Z</time>
      </trkpt>
      <trkpt lat="42.7782" lon="-1.3799597">
        <time>2022-07-03T15:39:44Z</time>
      </trkpt>
      <trkpt lat="42.778248" lon="-1.3799185">
        <time>2022-07-03T15:39:45Z</time>
      </trkpt>
      <trkpt lat="42.778297" lon="-1.3798774">
        <time>2022-07-03T15:39:46Z</time>
      </trkpt>
      <trkpt lat="42.778347" lon="-1.3798361">
        <time>2022-07-03T15:39:47Z</time>
      </trkpt>
      <trkpt lat="42.7784" lon="-1.3797941">
        <time>2022-07-03T15:39:48Z</time>
      </trkpt>
      <trkpt lat="42.77845" lon="-1.3797528">
        <time>2022-07-03T15:39:49Z</time>
      </trkpt>
      <trkpt lat="42.778503" lon="-1.3797121">
        <time>2022-07-03T15:39:50Z</time>
      </trkpt>
      <trkpt lat="42.778553" lon="-1.3796707">
        <time>2022-07-03T15:39:51Z</time>
      </trkpt>
      <trkpt lat="42.778606" lon="-1.3796295">
        <time>2022-07-03T15:39:52Z</time>
      </trkpt>
      <trkpt lat="42.77866" lon="-1.3795878">
        <time>2022-07-03T15:39:53Z</time>
      </trkpt>
      <trkpt lat="42.778713" lon="-1.3795451">
        <time>2022-07-03T15:39:54Z</time>
      </trkpt>
      <trkpt lat="42.778767" lon="-1.3795022">
        <time>2022-07-03T15:39:55Z</time>
      </trkpt>
      <trkpt lat="42.77882" lon="-1.3794588">
        <time>2022-07-03T15:39:56Z</time>
      </trkpt>
      <trkpt lat="42.778877" lon="-1.3794155">
        <time>2022-07-03T15:39:57Z</time>
      </trkpt>
      <trkpt lat="42.77893" lon="-1.3793714">
        <time>2022-07-03T15:39:58Z</time>
      </trkpt>
      <trkpt lat="42.778984" lon="-1.3793278">
        <time>2022-07-03T15:39:59Z</time>
      </trkpt>
      <trkpt lat="42.779037" lon="-1.3792849">
        <time>2022-07-03T15:40:00Z</time>
      </trkpt>
      <trkpt lat="42.77909" lon="-1.3792411">
        <time>2022-07-03T15:40:01Z</time>
      </trkpt>
      <trkpt lat="42.779144" lon="-1.3791975">
        <time>2022-07-03T15:40:02Z</time>
      </trkpt>
      <trkpt lat="42.779198" lon="-1.3791548">
        <time>2022-07-03T15:40:03Z</time>
      </trkpt>
      <trkpt lat="42.77925" lon="-1.3791115">
        <time>2022-07-03T15:40:04Z</time>
      </trkpt>
      <trkpt lat="42.7793" lon="-1.3790694">
        <time>2022-07-03T15:40:05Z</time>
      </trkpt>
      <trkpt lat="42.779354" lon="-1.3790275">
        <time>2022-07-03T15:40:06Z</time>
      </trkpt>
      <trkpt lat="42.779408" lon="-1.3789859">
        <time>2022-07-03T15:40:07Z</time>
      </trkpt>
      <trkpt lat="42.77946" lon="-1.3789425">
        <time>2022-07-03T15:40:08Z</time>
      </trkpt>
      <trkpt lat="42.779514" lon="-1.3788989">
        <time>2022-07-03T15:40:09Z</time>
      </trkpt>
      <trkpt lat="42.779568" lon="-1.3788555">
        <time>2022-07-03T15:40:10Z</time>
      </trkpt>
      <trkpt lat="42.779617" lon="-1.3788129">
        <time>2022-07-03T15:40:11Z</time>
      </trkpt>
      <trkpt lat="42.77967" lon="-1.3787708">
        <time>2022-07-03T15:40:12Z</time>
      </trkpt>
      <trkpt lat="42.77972" lon="-1.3787302">
        <time>2022-07-03T15:40:13Z</time>
      </trkpt>
      <trkpt lat="42.779774" lon="-1.3786892">
        <time>2022-07-03T15:40:14Z</time>
      </trkpt>
      <trkpt lat="42.779823" lon="-1.3786472">
        <time>2022-07-03T15:40:15Z</time>
      </trkpt>
      <trkpt lat="42.779873" lon="-1.3786055">
        <time>2022-07-03T15:40:16Z</time>
      </trkpt>
      <trkpt lat="42.779926" lon="-1.3785629">
        <time>2022-07-03T15:40:17Z</time>
      </trkpt>
      <trkpt lat="42.779976" lon="-1.3785199">
        <time>2022-07-03T15:40:18Z</time>
      </trkpt>
      <trkpt lat="42.78002" lon="-1.3784772">
        <time>2022-07-03T15:40:19Z</time>
      </trkpt>
      <trkpt lat="42.78007" lon="-1.3784338">
        <time>2022-07-03T15:40:20Z</time>
      </trkpt>
      <trkpt lat="42.780117" lon="-1.3783913">
        <time>2022-07-03T15:40:21Z</time>
      </trkpt>
      <trkpt lat="42.780163" lon="-1.3783482">
        <time>2022-07-03T15:40:22Z</time>
      </trkpt>
      <trkpt lat="42.78021" lon="-1.3783056">
        <time>2022-07-03T15:40:23Z</time>
      </trkpt>
      <trkpt lat="42.78025" lon="-1.3782623">
        <time>2022-07-03T15:40:24Z</time>
      </trkpt>
      <trkpt lat="42.780296" lon="-1.3782189">
        <time>2022-07-03T15:40:25Z</time>
      </trkpt>
      <trkpt lat="42.780334" lon="-1.3781745">
        <time>2022-07-03T15:40:26Z</time>
      </trkpt>
      <trkpt lat="42.780376" lon="-1.37813">
        <time>2022-07-03T15:40:27Z</time>
      </trkpt>
      <trkpt lat="42.780415" lon="-1.3780856">
        <time>2022-07-03T15:40:28Z</time>
      </trkpt>
      <trkpt lat="42.780457" lon="-1.3780419">
        <time>2022-07-03T15:40:29Z</time>
      </trkpt>
      <trkpt lat="42.78053" lon="-1.3779556">
        <time>2022-07-03T15:40:31Z</time>
      </trkpt>
      <trkpt lat="42.780598" lon="-1.3778719">
        <time>2022-07-03T15:40:33Z</time>
      </trkpt>
      <trkpt lat="42.780666" lon="-1.3777913">
        <time>2022-07-03T15:40:35Z</time>
      </trkpt>
      <trkpt lat="42.780727" lon="-1.3777146">
        <time>2022-07-03T15:40:37Z</time>
      </trkpt>
      <trkpt lat="42.78079" lon="-1.37764">
        <time>2022-07-03T15:40:39Z</time>
      </trkpt>
      <trkpt lat="42.78084" lon="-1.3775682">
        <time>2022-07-03T15:40:41Z</time>
      </trkpt>
      <trkpt lat="42.780895" lon="-1.3774996">
        <time>2022-07-03T15:40:43Z</time>
      </trkpt>
      <trkpt lat="42.78095" lon="-1.3774337">
        <time>2022-07-03T15:40:45Z</time>
      </trkpt>
      <trkpt lat="42.780994" lon="-1.3773689">
        <time>2022-07-03T15:40:47Z</time>
      </trkpt>
      <trkpt lat="42.78104" lon="-1.3773043">
        <time>2022-07-03T15:40:49Z</time>
      </trkpt>
      <trkpt lat="42.78109" lon="-1.377238">
        <time>2022-07-03T15:40:51Z</time>
      </trkpt>
      <trkpt lat="42.78114" lon="-1.3771703">
        <time>2022-07-03T15:40:53Z</time>
      </trkpt>
      <trkpt lat="42.781185" lon="-1.377103">
        <time>2022-07-03T15:40:55Z</time>
      </trkpt>
      <trkpt lat="42.781235" lon="-1.3770334">
        <time>2022-07-03T15:40:57Z</time>
      </trkpt>
      <trkpt lat="42.78129" lon="-1.376962">
        <time>2022-07-03T15:40:59Z</time>
      </trkpt>
      <trkpt lat="42.781338" lon="-1.376889">
        <time>2022-07-03T15:41:01Z</time>
      </trkpt>
      <trkpt lat="42.78139" lon="-1.376816">
        <time>2022-07-03T15:41:03Z</time>
      </trkpt>
      <trkpt lat="42.781445" lon="-1.376739">
        <time>2022-07-03T15:41:05Z</time>
      </trkpt>
      <trkpt lat="42.781506" lon="-1.3766603">
        <time>2022-07-03T15:41:07Z</time>
      </trkpt>
      <trkpt lat="42.78157" lon="-1.3765793">
        <time>2022-07-03T15:41:09Z</time>
      </trkpt>
      <trkpt lat="42.781635" lon="-1.376492">
        <time>2022-07-03T15:41:11Z</time>
      </trkpt>
      <trkpt lat="42.781666" lon="-1.376446">
        <time>2022-07-03T15:41:12Z</time>
      </trkpt>
      <trkpt lat="42.781734" lon="-1.376353">
        <time>2022-07-03T15:41:14Z</time>
      </trkpt>
      <trkpt lat="42.781773" lon="-1.3763057">
        <time>2022-07-03T15:41:15Z</time>
      </trkpt>
      <trkpt lat="42.781845" lon="-1.376209">
        <time>2022-07-03T15:41:17Z</time>
      </trkpt>
      <trkpt lat="42.78188" lon="-1.3761591">
        <time>2022-07-03T15:41:18Z</time>
      </trkpt>
      <trkpt lat="42.781956" lon="-1.3760574">
        <time>2022-07-03T15:41:20Z</time>
      </trkpt>
      <trkpt lat="42.781994" lon="-1.376006">
        <time>2022-07-03T15:41:21Z</time>
      </trkpt>
      <trkpt lat="42.782032" lon="-1.3759544">
        <time>2022-07-03T15:41:22Z</time>
      </trkpt>
      <trkpt lat="42.78207" lon="-1.3759027">
        <time>2022-07-03T15:41:23Z</time>
      </trkpt>
      <trkpt lat="42.78211" lon="-1.3758504">
        <time>2022-07-03T15:41:24Z</time>
      </trkpt>
      <trkpt lat="42.78215" lon="-1.3757981">
        <time>2022-07-03T15:41:25Z</time>
      </trkpt>
      <trkpt lat="42.78219" lon="-1.375745">
        <time>2022-07-03T15:41:26Z</time>
      </trkpt>
      <trkpt lat="42.782227" lon="-1.375692">
        <time>2022-07-03T15:41:27Z</time>
      </trkpt>
      <trkpt lat="42.78227" lon="-1.3756384">
        <time>2022-07-03T15:41:28Z</time>
      </trkpt>
      <trkpt lat="42.782307" lon="-1.3755844">
        <time>2022-07-03T15:41:29Z</time>
      </trkpt>
      <trkpt lat="42.78235" lon="-1.3755294">
        <time>2022-07-03T15:41:30Z</time>
      </trkpt>
      <trkpt lat="42.782387" lon="-1.3754741">
        <time>2022-07-03T15:41:31Z</time>
      </trkpt>
      <trkpt lat="42.78243" lon="-1.3754171">
        <time>2022-07-03T15:41:32Z</time>
      </trkpt>
      <trkpt lat="42.782467" lon="-1.37536">
        <time>2022-07-03T15:41:33Z</time>
      </trkpt>
      <trkpt lat="42.78251" lon="-1.3753034">
        <time>2022-07-03T15:41:34Z</time>
      </trkpt>
      <trkpt lat="42.78255" lon="-1.3752471">
        <time>2022-07-03T15:41:35Z</time>
      </trkpt>
      <trkpt lat="42.782635" lon="-1.3751404">
        <time>2022-07-03T15:41:37Z</time>
      </trkpt>
      <trkpt lat="42.78268" lon="-1.375089">
        <time>2022-07-03T15:41:38Z</time>
      </trkpt>
      <trkpt lat="42.782726" lon="-1.375038">
        <time>2022-07-03T15:41:39Z</time>
      </trkpt>
      <trkpt lat="42.782772" lon="-1.3749857">
        <time>2022-07-03T15:41:40Z</time>
      </trkpt>
      <trkpt lat="42.782814" lon="-1.3749298">
        <time>2022-07-03T15:41:41Z</time>
      </trkpt>
      <trkpt lat="42.78285" lon="-1.3748704">
        <time>2022-07-03T15:41:42Z</time>
      </trkpt>
      <trkpt lat="42.782883" lon="-1.3748075">
        <time>2022-07-03T15:41:43Z</time>
      </trkpt>
      <trkpt lat="42.78291" lon="-1.3747438">
        <time>2022-07-03T15:41:44Z</time>
      </trkpt>
      <trkpt lat="42.782936" lon="-1.3746821">
        <time>2022-07-03T15:41:45Z</time>
      </trkpt>
      <trkpt lat="42.78299" lon="-1.3745694">
        <time>2022-07-03T15:41:47Z</time>
      </trkpt>
      <trkpt lat="42.78306" lon="-1.3744788">
        <time>2022-07-03T15:41:49Z</time>
      </trkpt>
      <trkpt lat="42.78314" lon="-1.3744022">
        <time>2022-07-03T15:41:51Z</time>
      </trkpt>
      <trkpt lat="42.78322" lon="-1.3743161">
        <time>2022-07-03T15:41:53Z</time>
      </trkpt>
      <trkpt lat="42.78328" lon="-1.3742185">
        <time>2022-07-03T15:41:55Z</time>
      </trkpt>
      <trkpt lat="42.783325" lon="-1.3741158">
        <time>2022-07-03T15:41:57Z</time>
      </trkpt>
      <trkpt lat="42.783363" lon="-1.3740151">
        <time>2022-07-03T15:41:59Z</time>
      </trkpt>
      <trkpt lat="42.783398" lon="-1.3739138">
        <time>2022-07-03T15:42:01Z</time>
      </trkpt>
      <trkpt lat="42.783432" lon="-1.3738168">
        <time>2022-07-03T15:42:03Z</time>
      </trkpt>
      <trkpt lat="42.783463" lon="-1.3737278">
        <time>2022-07-03T15:42:05Z</time>
      </trkpt>
      <trkpt lat="42.783497" lon="-1.3736378">
        <time>2022-07-03T15:42:07Z</time>
      </trkpt>
      <trkpt lat="42.78353" lon="-1.3735569">
        <time>2022-07-03T15:42:09Z</time>
      </trkpt>
      <trkpt lat="42.78356" lon="-1.3734791">
        <time>2022-07-03T15:42:11Z</time>
      </trkpt>
      <trkpt lat="42.783592" lon="-1.3734015">
        <time>2022-07-03T15:42:13Z</time>
      </trkpt>
      <trkpt lat="42.78362" lon="-1.3733225">
        <time>2022-07-03T15:42:15Z</time>
      </trkpt>
      <trkpt lat="42.783646" lon="-1.3732488">
        <time>2022-07-03T15:42:17Z</time>
      </trkpt>
      <trkpt lat="42.783676" lon="-1.3731802">
        <time>2022-07-03T15:42:19Z</time>
      </trkpt>
      <trkpt lat="42.783714" lon="-1.3731185">
        <time>2022-07-03T15:42:21Z</time>
      </trkpt>
      <trkpt lat="42.783756" lon="-1.3730575">
        <time>2022-07-03T15:42:23Z</time>
      </trkpt>
      <trkpt lat="42.783794" lon="-1.3729962">
        <time>2022-07-03T15:42:25Z</time>
      </trkpt>
      <trkpt lat="42.78384" lon="-1.3729365">
        <time>2022-07-03T15:42:27Z</time>
      </trkpt>
      <trkpt lat="42.783886" lon="-1.3728789">
        <time>2022-07-03T15:42:29Z</time>
      </trkpt>
      <trkpt lat="42.783928" lon="-1.3728235">
        <time>2022-07-03T15:42:31Z</time>
      </trkpt>
      <trkpt lat="42.783974" lon="-1.3727695">
        <time>2022-07-03T15:42:33Z</time>
      </trkpt>
      <trkpt lat="42.78402" lon="-1.3727179">
        <time>2022-07-03T15:42:35Z</time>
      </trkpt>
      <trkpt lat="42.78406" lon="-1.3726633">
        <time>2022-07-03T15:42:37Z</time>
      </trkpt>
      <trkpt lat="42.784103" lon="-1.3726072">
        <time>2022-07-03T15:42:39Z</time>
      </trkpt>
      <trkpt lat="42.78415" lon="-1.3725482">
        <time>2022-07-03T15:42:41Z</time>
      </trkpt>
      <trkpt lat="42.7842" lon="-1.3724889">
        <time>2022-07-03T15:42:43Z</time>
      </trkpt>
      <trkpt lat="42.784252" lon="-1.3724293">
        <time>2022-07-03T15:42:45Z</time>
      </trkpt>
      <trkpt lat="42.78431" lon="-1.3723712">
        <time>2022-07-03T15:42:47Z</time>
      </trkpt>
      <trkpt lat="42.78437" lon="-1.3723109">
        <time>2022-07-03T15:42:49Z</time>
      </trkpt>
      <trkpt lat="42.784435" lon="-1.3722476">
        <time>2022-07-03T15:42:51Z</time>
      </trkpt>
      <trkpt lat="42.784504" lon="-1.3721756">
        <time>2022-07-03T15:42:53Z</time>
      </trkpt>
      <trkpt lat="42.784542" lon="-1.3721362">
        <time>2022-07-03T15:42:54Z</time>
      </trkpt>
      <trkpt lat="42.784622" lon="-1.3720516">
        <time>2022-07-03T15:42:56Z</time>
      </trkpt>
      <trkpt lat="42.784668" lon="-1.372008">
        <time>2022-07-03T15:42:57Z</time>
      </trkpt>
      <trkpt lat="42.784714" lon="-1.3719636">
        <time>2022-07-03T15:42:58Z</time>
      </trkpt>
      <trkpt lat="42.78476" lon="-1.3719176">
        <time>2022-07-03T15:42:59Z</time>
      </trkpt>
      <trkpt lat="42.78481" lon="-1.3718706">
        <time>2022-07-03T15:43:00Z</time>
      </trkpt>
      <trkpt lat="42.784863" lon="-1.3718213">
        <time>2022-07-03T15:43:01Z</time>
      </trkpt>
      <trkpt lat="42.784912" lon="-1.3717719">
        <time>2022-07-03T15:43:02Z</time>
      </trkpt>
      <trkpt lat="42.784966" lon="-1.3717216">
        <time>2022-07-03T15:43:03Z</time>
      </trkpt>
      <trkpt lat="42.785015" lon="-1.3716686">
        <time>2022-07-03T15:43:04Z</time>
      </trkpt>
      <trkpt lat="42.785065" lon="-1.3716142">
        <time>2022-07-03T15:43:05Z</time>
      </trkpt>
      <trkpt lat="42.785114" lon="-1.3715593">
        <time>2022-07-03T15:43:06Z</time>
      </trkpt>
      <trkpt lat="42.785164" lon="-1.371504">
        <time>2022-07-03T15:43:07Z</time>
      </trkpt>
      <trkpt lat="42.785213" lon="-1.371447">
        <time>2022-07-03T15:43:08Z</time>
      </trkpt>
      <trkpt lat="42.785263" lon="-1.3713893">
        <time>2022-07-03T15:43:09Z</time>
      </trkpt>
      <trkpt lat="42.785313" lon="-1.371329">
        <time>2022-07-03T15:43:10Z</time>
      </trkpt>
      <trkpt lat="42.78536" lon="-1.3712659">
        <time>2022-07-03T15:43:11Z</time>
      </trkpt>
      <trkpt lat="42.785397" lon="-1.3711987">
        <time>2022-07-03T15:43:12Z</time>
      </trkpt>
      <trkpt lat="42.78543" lon="-1.3711326">
        <time>2022-07-03T15:43:13Z</time>
      </trkpt>
      <trkpt lat="42.785454" lon="-1.3710636">
        <time>2022-07-03T15:43:14Z</time>
      </trkpt>
      <trkpt lat="42.78547" lon="-1.3709943">
        <time>2022-07-03T15:43:15Z</time>
      </trkpt>
      <trkpt lat="42.785477" lon="-1.3709273">
        <time>2022-07-03T15:43:16Z</time>
      </trkpt>
      <trkpt lat="42.785484" lon="-1.3708049">
        <time>2022-07-03T15:43:18Z</time>
      </trkpt>
      <trkpt lat="42.78548" lon="-1.3707">
        <time>2022-07-03T15:43:20Z</time>
      </trkpt>
      <trkpt lat="42.78547" lon="-1.370613">
        <time>2022-07-03T15:43:22Z</time>
      </trkpt>
      <trkpt lat="42.785458" lon="-1.3705477">
        <time>2022-07-03T15:43:24Z</time>
      </trkpt>
      <trkpt lat="42.78544" lon="-1.3704746">
        <time>2022-07-03T15:43:27Z</time>
      </trkpt>
      <trkpt lat="42.785427" lon="-1.370404">
        <time>2022-07-03T15:43:30Z</time>
      </trkpt>
      <trkpt lat="42.78541" lon="-1.370338">
        <time>2022-07-03T15:43:33Z</time>
      </trkpt>
      <trkpt lat="42.785393" lon="-1.3702526">
        <time>2022-07-03T15:43:37Z</time>
      </trkpt>
      <trkpt lat="42.785385" lon="-1.3701949">
        <time>2022-07-03T15:43:41Z</time>
      </trkpt>
      <trkpt lat="42.785454" lon="-1.3702077">
        <time>2022-07-03T15:43:47Z</time>
      </trkpt>
      <trkpt lat="42.78552" lon="-1.370227">
        <time>2022-07-03T15:43:51Z</time>
      </trkpt>
      <trkpt lat="42.785576" lon="-1.3702503">
        <time>2022-07-03T15:43:55Z</time>
      </trkpt>
      <trkpt lat="42.785583" lon="-1.3702927">
        <time>2022-07-03T15:44:01Z</time>
      </trkpt>
      <trkpt lat="42.78551" lon="-1.3702573">
        <time>2022-07-03T15:44:05Z</time>
      </trkpt>
      <trkpt lat="42.785465" lon="-1.3702372">
        <time>2022-07-03T15:44:07Z</time>
      </trkpt>
      <trkpt lat="42.78541" lon="-1.3702099">
        <time>2022-07-03T15:44:10Z</time>
      </trkpt>
      <trkpt lat="42.785366" lon="-1.3701813">
        <time>2022-07-03T15:44:13Z</time>
      </trkpt>
      <trkpt lat="42.785347" lon="-1.3701034">
        <time>2022-07-03T15:44:17Z</time>
      </trkpt>
      <trkpt lat="42.785355" lon="-1.3700383">
        <time>2022-07-03T15:44:20Z</time>
      </trkpt>
      <trkpt lat="42.785374" lon="-1.3699679">
        <time>2022-07-03T15:44:23Z</time>
      </trkpt>
      <trkpt lat="42.785404" lon="-1.3699037">
        <time>2022-07-03T15:44:26Z</time>
      </trkpt>
      <trkpt lat="42.78543" lon="-1.3698289">
        <time>2022-07-03T15:44:30Z</time>
      </trkpt>
      <trkpt lat="42.785454" lon="-1.3697406">
        <time>2022-07-03T15:44:34Z</time>
      </trkpt>
      <trkpt lat="42.785473" lon="-1.3696797">
        <time>2022-07-03T15:44:37Z</time>
      </trkpt>
      <trkpt lat="42.785503" lon="-1.3696113">
        <time>2022-07-03T15:44:41Z</time>
      </trkpt>
      <trkpt lat="42.78553" lon="-1.369541">
        <time>2022-07-03T15:44:46Z</time>
      </trkpt>
      <trkpt lat="42.785564" lon="-1.3694867">
        <time>2022-07-03T15:44:49Z</time>
      </trkpt>
      <trkpt lat="42.785614" lon="-1.36944">
        <time>2022-07-03T15:44:52Z</time>
      </trkpt>
      <trkpt lat="42.78567" lon="-1.369403">
        <time>2022-07-03T15:44:55Z</time>
      </trkpt>
      <trkpt lat="42.78573" lon="-1.36939">
        <time>2022-07-03T15:44:58Z</time>
      </trkpt>
      <trkpt lat="42.785778" lon="-1.3694206">
        <time>2022-07-03T15:45:01Z</time>
      </trkpt>
      <trkpt lat="42.785824" lon="-1.369465">
        <time>2022-07-03T15:45:04Z</time>
      </trkpt>
      <trkpt lat="42.785854" lon="-1.369535">
        <time>2022-07-03T15:45:08Z</time>
      </trkpt>
      <trkpt lat="42.785854" lon="-1.3696113">
        <time>2022-07-03T15:45:12Z</time>
      </trkpt>
      <trkpt lat="42.78586" lon="-1.369668">
        <time>2022-07-03T15:45:17Z</time>
      </trkpt>
      <trkpt lat="42.785904" lon="-1.3694856">
        <time>2022-07-03T15:46:00Z</time>
      </trkpt>
      <trkpt lat="42.763695" lon="-1.3733166">
        <time>2022-07-04T08:03:41Z</time>
      </trkpt>
      <trkpt lat="42.763695" lon="-1.3733166">
        <time>2022-07-04T08:03:42Z</time>
      </trkpt>
      <trkpt lat="42.76369" lon="-1.3733183">
        <time>2022-07-04T08:03:43Z</time>
      </trkpt>
      <trkpt lat="42.763687" lon="-1.3733233">
        <time>2022-07-04T08:03:44Z</time>
      </trkpt>
      <trkpt lat="42.763676" lon="-1.373335">
        <time>2022-07-04T08:03:45Z</time>
      </trkpt>
      <trkpt lat="42.763657" lon="-1.373355">
        <time>2022-07-04T08:03:46Z</time>
      </trkpt>
      <trkpt lat="42.763645" lon="-1.3733699">
        <time>2022-07-04T08:03:47Z</time>
      </trkpt>
      <trkpt lat="42.763622" lon="-1.3733933">
        <time>2022-07-04T08:03:48Z</time>
      </trkpt>
      <trkpt lat="42.763603" lon="-1.3734117">
        <time>2022-07-04T08:03:49Z</time>
      </trkpt>
      <trkpt lat="42.763577" lon="-1.37343">
        <time>2022-07-04T08:03:50Z</time>
      </trkpt>
      <trkpt lat="42.76355" lon="-1.3734483">
        <time>2022-07-04T08:03:51Z</time>
      </trkpt>
      <trkpt lat="42.76352" lon="-1.3734683">
        <time>2022-07-04T08:03:52Z</time>
      </trkpt>
      <trkpt lat="42.76349" lon="-1.37349">
        <time>2022-07-04T08:03:53Z</time>
      </trkpt>
      <trkpt lat="42.76346" lon="-1.3735117">
        <time>2022-07-04T08:03:54Z</time>
      </trkpt>
      <trkpt lat="42.76343" lon="-1.3735299">
        <time>2022-07-04T08:03:55Z</time>
      </trkpt>
      <trkpt lat="42.763386" lon="-1.3735583">
        <time>2022-07-04T08:03:56Z</time>
      </trkpt>
      <trkpt lat="42.763355" lon="-1.373575">
        <time>2022-07-04T08:03:57Z</time>
      </trkpt>
      <trkpt lat="42.763344" lon="-1.3735802">
        <time>2022-07-04T08:03:58Z</time>
      </trkpt>
      <trkpt lat="42.763325" lon="-1.3735915">
        <time>2022-07-04T08:03:59Z</time>
      </trkpt>
      <trkpt lat="42.763298" lon="-1.373609">
        <time>2022-07-04T08:04:00Z</time>
      </trkpt>
      <trkpt lat="42.763268" lon="-1.373627">
        <time>2022-07-04T08:04:01Z</time>
      </trkpt>
      <trkpt lat="42.7632" lon="-1.3736676">
        <time>2022-07-04T08:04:03Z</time>
      </trkpt>
      <trkpt lat="42.763126" lon="-1.3737116">
        <time>2022-07-04T08:04:05Z</time>
      </trkpt>
      <trkpt lat="42.763054" lon="-1.3737596">
        <time>2022-07-04T08:04:07Z</time>
      </trkpt>
      <trkpt lat="42.762978" lon="-1.3738122">
        <time>2022-07-04T08:04:09Z</time>
      </trkpt>
      <trkpt lat="42.7629" lon="-1.3738623">
        <time>2022-07-04T08:04:11Z</time>
      </trkpt>
      <trkpt lat="42.76283" lon="-1.3739089">
        <time>2022-07-04T08:04:13Z</time>
      </trkpt>
      <trkpt lat="42.762753" lon="-1.3739552">
        <time>2022-07-04T08:04:15Z</time>
      </trkpt>
      <trkpt lat="42.762672" lon="-1.374">
        <time>2022-07-04T08:04:17Z</time>
      </trkpt>
      <trkpt lat="42.76259" lon="-1.3740416">
        <time>2022-07-04T08:04:19Z</time>
      </trkpt>
      <trkpt lat="42.76251" lon="-1.3740892">
        <time>2022-07-04T08:04:21Z</time>
      </trkpt>
      <trkpt lat="42.76243" lon="-1.3741425">
        <time>2022-07-04T08:04:23Z</time>
      </trkpt>
      <trkpt lat="42.76235" lon="-1.3741995">
        <time>2022-07-04T08:04:25Z</time>
      </trkpt>
      <trkpt lat="42.762268" lon="-1.3742598">
        <time>2022-07-04T08:04:27Z</time>
      </trkpt>
      <trkpt lat="42.762226" lon="-1.3742902">
        <time>2022-07-04T08:04:28Z</time>
      </trkpt>
      <trkpt lat="42.76215" lon="-1.3743479">
        <time>2022-07-04T08:04:30Z</time>
      </trkpt>
      <trkpt lat="42.76207" lon="-1.3744042">
        <time>2022-07-04T08:04:32Z</time>
      </trkpt>
      <trkpt lat="42.761982" lon="-1.3744632">
        <time>2022-07-04T08:04:34Z</time>
      </trkpt>
      <trkpt lat="42.7619" lon="-1.3745172">
        <time>2022-07-04T08:04:36Z</time>
      </trkpt>
      <trkpt lat="42.761818" lon="-1.3745732">
        <time>2022-07-04T08:04:38Z</time>
      </trkpt>
      <trkpt lat="42.761734" lon="-1.3746275">
        <time>2022-07-04T08:04:40Z</time>
      </trkpt>
      <trkpt lat="42.761654" lon="-1.3746802">
        <time>2022-07-04T08:04:42Z</time>
      </trkpt>
      <trkpt lat="42.76157" lon="-1.3747338">
        <time>2022-07-04T08:04:44Z</time>
      </trkpt>
      <trkpt lat="42.761486" lon="-1.3747828">
        <time>2022-07-04T08:04:46Z</time>
      </trkpt>
      <trkpt lat="42.761406" lon="-1.3748305">
        <time>2022-07-04T08:04:48Z</time>
      </trkpt>
      <trkpt lat="42.761326" lon="-1.3748785">
        <time>2022-07-04T08:04:50Z</time>
      </trkpt>
      <trkpt lat="42.76125" lon="-1.3749275">
        <time>2022-07-04T08:04:52Z</time>
      </trkpt>
      <trkpt lat="42.76116" lon="-1.3749808">
        <time>2022-07-04T08:04:54Z</time>
      </trkpt>
      <trkpt lat="42.761124" lon="-1.3750066">
        <time>2022-07-04T08:04:55Z</time>
      </trkpt>
      <trkpt lat="42.761036" lon="-1.3750621">
        <time>2022-07-04T08:04:57Z</time>
      </trkpt>
      <trkpt lat="42.760952" lon="-1.3751189">
        <time>2022-07-04T08:04:59Z</time>
      </trkpt>
      <trkpt lat="42.760868" lon="-1.3751701">
        <time>2022-07-04T08:05:01Z</time>
      </trkpt>
      <trkpt lat="42.760784" lon="-1.3752218">
        <time>2022-07-04T08:05:03Z</time>
      </trkpt>
      <trkpt lat="42.760704" lon="-1.3752792">
        <time>2022-07-04T08:05:05Z</time>
      </trkpt>
      <trkpt lat="42.76063" lon="-1.3753375">
        <time>2022-07-04T08:05:07Z</time>
      </trkpt>
      <trkpt lat="42.76056" lon="-1.3753978">
        <time>2022-07-04T08:05:09Z</time>
      </trkpt>
      <trkpt lat="42.760487" lon="-1.3754678">
        <time>2022-07-04T08:05:11Z</time>
      </trkpt>
      <trkpt lat="42.76042" lon="-1.3755472">
        <time>2022-07-04T08:05:13Z</time>
      </trkpt>
      <trkpt lat="42.760372" lon="-1.3756368">
        <time>2022-07-04T08:05:15Z</time>
      </trkpt>
      <trkpt lat="42.760338" lon="-1.3757324">
        <time>2022-07-04T08:05:17Z</time>
      </trkpt>
      <trkpt lat="42.760315" lon="-1.3758308">
        <time>2022-07-04T08:05:19Z</time>
      </trkpt>
      <trkpt lat="42.7603" lon="-1.3759311">
        <time>2022-07-04T08:05:21Z</time>
      </trkpt>
      <trkpt lat="42.76029" lon="-1.3760331">
        <time>2022-07-04T08:05:23Z</time>
      </trkpt>
      <trkpt lat="42.760277" lon="-1.3761511">
        <time>2022-07-04T08:05:26Z</time>
      </trkpt>
      <trkpt lat="42.76027" lon="-1.3762131">
        <time>2022-07-04T08:05:27Z</time>
      </trkpt>
      <trkpt lat="42.760258" lon="-1.3763257">
        <time>2022-07-04T08:05:29Z</time>
      </trkpt>
      <trkpt lat="42.760242" lon="-1.3764304">
        <time>2022-07-04T08:05:31Z</time>
      </trkpt>
      <trkpt lat="42.76023" lon="-1.3765317">
        <time>2022-07-04T08:05:33Z</time>
      </trkpt>
      <trkpt lat="42.760216" lon="-1.3766321">
        <time>2022-07-04T08:05:35Z</time>
      </trkpt>
      <trkpt lat="42.7602" lon="-1.3767314">
        <time>2022-07-04T08:05:37Z</time>
      </trkpt>
      <trkpt lat="42.760185" lon="-1.3768324">
        <time>2022-07-04T08:05:39Z</time>
      </trkpt>
      <trkpt lat="42.760178" lon="-1.3769361">
        <time>2022-07-04T08:05:41Z</time>
      </trkpt>
      <trkpt lat="42.760166" lon="-1.3770407">
        <time>2022-07-04T08:05:43Z</time>
      </trkpt>
      <trkpt lat="42.760155" lon="-1.3771434">
        <time>2022-07-04T08:05:45Z</time>
      </trkpt>
      <trkpt lat="42.76014" lon="-1.3772458">
        <time>2022-07-04T08:05:47Z</time>
      </trkpt>
      <trkpt lat="42.76012" lon="-1.3774021">
        <time>2022-07-04T08:05:50Z</time>
      </trkpt>
      <trkpt lat="42.760105" lon="-1.377508">
        <time>2022-07-04T08:05:52Z</time>
      </trkpt>
      <trkpt lat="42.760094" lon="-1.3776151">
        <time>2022-07-04T08:05:54Z</time>
      </trkpt>
      <trkpt lat="42.76008" lon="-1.3777211">
        <time>2022-07-04T08:05:56Z</time>
      </trkpt>
      <trkpt lat="42.760067" lon="-1.377827">
        <time>2022-07-04T08:05:58Z</time>
      </trkpt>
      <trkpt lat="42.76005" lon="-1.3779347">
        <time>2022-07-04T08:06:00Z</time>
      </trkpt>
      <trkpt lat="42.76004" lon="-1.3780401">
        <time>2022-07-04T08:06:02Z</time>
      </trkpt>
      <trkpt lat="42.76003" lon="-1.3781437">
        <time>2022-07-04T08:06:04Z</time>
      </trkpt>
      <trkpt lat="42.76002" lon="-1.3782457">
        <time>2022-07-04T08:06:06Z</time>
      </trkpt>
      <trkpt lat="42.76001" lon="-1.378347">
        <time>2022-07-04T08:06:08Z</time>
      </trkpt>
      <trkpt lat="42.76" lon="-1.3784493">
        <time>2022-07-04T08:06:10Z</time>
      </trkpt>
      <trkpt lat="42.759987" lon="-1.378551">
        <time>2022-07-04T08:06:12Z</time>
      </trkpt>
      <trkpt lat="42.75998" lon="-1.3786523">
        <time>2022-07-04T08:06:14Z</time>
      </trkpt>
      <trkpt lat="42.759968" lon="-1.3787527">
        <time>2022-07-04T08:06:16Z</time>
      </trkpt>
      <trkpt lat="42.759956" lon="-1.378853">
        <time>2022-07-04T08:06:18Z</time>
      </trkpt>
      <trkpt lat="42.75994" lon="-1.3789563">
        <time>2022-07-04T08:06:20Z</time>
      </trkpt>
      <trkpt lat="42.759922" lon="-1.3790643">
        <time>2022-07-04T08:06:22Z</time>
      </trkpt>
      <trkpt lat="42.759903" lon="-1.3791784">
        <time>2022-07-04T08:06:24Z</time>
      </trkpt>
      <trkpt lat="42.759888" lon="-1.3792913">
        <time>2022-07-04T08:06:26Z</time>
      </trkpt>
      <trkpt lat="42.759876" lon="-1.379409">
        <time>2022-07-04T08:06:28Z</time>
      </trkpt>
      <trkpt lat="42.759857" lon="-1.3795257">
        <time>2022-07-04T08:06:30Z</time>
      </trkpt>
      <trkpt lat="42.759842" lon="-1.379643">
        <time>2022-07-04T08:06:32Z</time>
      </trkpt>
      <trkpt lat="42.759827" lon="-1.3797653">
        <time>2022-07-04T08:06:34Z</time>
      </trkpt>
      <trkpt lat="42.759808" lon="-1.379895">
        <time>2022-07-04T08:06:36Z</time>
      </trkpt>
      <trkpt lat="42.7598" lon="-1.3799577">
        <time>2022-07-04T08:06:37Z</time>
      </trkpt>
      <trkpt lat="42.759785" lon="-1.380103">
        <time>2022-07-04T08:06:39Z</time>
      </trkpt>
      <trkpt lat="42.759777" lon="-1.3801776">
        <time>2022-07-04T08:06:40Z</time>
      </trkpt>
      <trkpt lat="42.759766" lon="-1.38025">
        <time>2022-07-04T08:06:41Z</time>
      </trkpt>
      <trkpt lat="42.759758" lon="-1.3803246">
        <time>2022-07-04T08:06:42Z</time>
      </trkpt>
      <trkpt lat="42.759747" lon="-1.3804016">
        <time>2022-07-04T08:06:43Z</time>
      </trkpt>
      <trkpt lat="42.759735" lon="-1.3804803">
        <time>2022-07-04T08:06:44Z</time>
      </trkpt>
      <trkpt lat="42.759724" lon="-1.3805586">
        <time>2022-07-04T08:06:45Z</time>
      </trkpt>
      <trkpt lat="42.759712" lon="-1.3806376">
        <time>2022-07-04T08:06:46Z</time>
      </trkpt>
      <trkpt lat="42.7597" lon="-1.3807169">
        <time>2022-07-04T08:06:47Z</time>
      </trkpt>
      <trkpt lat="42.75969" lon="-1.3807952">
        <time>2022-07-04T08:06:48Z</time>
      </trkpt>
      <trkpt lat="42.759678" lon="-1.3808736">
        <time>2022-07-04T08:06:49Z</time>
      </trkpt>
      <trkpt lat="42.759666" lon="-1.3809522">
        <time>2022-07-04T08:06:50Z</time>
      </trkpt>
      <trkpt lat="42.759655" lon="-1.3810306">
        <time>2022-07-04T08:06:51Z</time>
      </trkpt>
      <trkpt lat="42.759644" lon="-1.3811092">
        <time>2022-07-04T08:06:52Z</time>
      </trkpt>
      <trkpt lat="42.759632" lon="-1.3811936">
        <time>2022-07-04T08:06:53Z</time>
      </trkpt>
      <trkpt lat="42.75962" lon="-1.381277">
        <time>2022-07-04T08:06:54Z</time>
      </trkpt>
      <trkpt lat="42.75961" lon="-1.3813592">
        <time>2022-07-04T08:06:55Z</time>
      </trkpt>
      <trkpt lat="42.759598" lon="-1.381442">
        <time>2022-07-04T08:06:56Z</time>
      </trkpt>
      <trkpt lat="42.759586" lon="-1.3815253">
        <time>2022-07-04T08:06:57Z</time>
      </trkpt>
      <trkpt lat="42.759575" lon="-1.3816079">
        <time>2022-07-04T08:06:58Z</time>
      </trkpt>
      <trkpt lat="42.759563" lon="-1.3816905">
        <time>2022-07-04T08:06:59Z</time>
      </trkpt>
      <trkpt lat="42.759552" lon="-1.3817732">
        <time>2022-07-04T08:07:00Z</time>
      </trkpt>
      <trkpt lat="42.759537" lon="-1.3818562">
        <time>2022-07-04T08:07:01Z</time>
      </trkpt>
      <trkpt lat="42.759525" lon="-1.3819386">
        <time>2022-07-04T08:07:02Z</time>
      </trkpt>
      <trkpt lat="42.759518" lon="-1.3820208">
        <time>2022-07-04T08:07:03Z</time>
      </trkpt>
      <trkpt lat="42.759506" lon="-1.3821028">
        <time>2022-07-04T08:07:04Z</time>
      </trkpt>
      <trkpt lat="42.759495" lon="-1.3821799">
        <time>2022-07-04T08:07:05Z</time>
      </trkpt>
      <trkpt lat="42.759483" lon="-1.3822585">
        <time>2022-07-04T08:07:06Z</time>
      </trkpt>
      <trkpt lat="42.759457" lon="-1.3824229">
        <time>2022-07-04T08:07:08Z</time>
      </trkpt>
      <trkpt lat="42.759445" lon="-1.3824965">
        <time>2022-07-04T08:07:09Z</time>
      </trkpt>
      <trkpt lat="42.75943" lon="-1.3825685">
        <time>2022-07-04T08:07:10Z</time>
      </trkpt>
      <trkpt lat="42.759403" lon="-1.3826416">
        <time>2022-07-04T08:07:11Z</time>
      </trkpt>
      <trkpt lat="42.759377" lon="-1.3827049">
        <time>2022-07-04T08:07:12Z</time>
      </trkpt>
      <trkpt lat="42.759342" lon="-1.3827581">
        <time>2022-07-04T08:07:13Z</time>
      </trkpt>
      <trkpt lat="42.759266" lon="-1.3828455">
        <time>2022-07-04T08:07:15Z</time>
      </trkpt>
      <trkpt lat="42.759193" lon="-1.3829185">
        <time>2022-07-04T08:07:17Z</time>
      </trkpt>
      <trkpt lat="42.759113" lon="-1.3829888">
        <time>2022-07-04T08:07:19Z</time>
      </trkpt>
      <trkpt lat="42.759033" lon="-1.3830512">
        <time>2022-07-04T08:07:21Z</time>
      </trkpt>
      <trkpt lat="42.758953" lon="-1.3831122">
        <time>2022-07-04T08:07:23Z</time>
      </trkpt>
      <trkpt lat="42.758877" lon="-1.3831716">
        <time>2022-07-04T08:07:25Z</time>
      </trkpt>
      <trkpt lat="42.758804" lon="-1.3832248">
        <time>2022-07-04T08:07:27Z</time>
      </trkpt>
      <trkpt lat="42.758728" lon="-1.3832811">
        <time>2022-07-04T08:07:29Z</time>
      </trkpt>
      <trkpt lat="42.758656" lon="-1.3833349">
        <time>2022-07-04T08:07:31Z</time>
      </trkpt>
      <trkpt lat="42.758575" lon="-1.3833939">
        <time>2022-07-04T08:07:33Z</time>
      </trkpt>
      <trkpt lat="42.758503" lon="-1.3834509">
        <time>2022-07-04T08:07:35Z</time>
      </trkpt>
      <trkpt lat="42.758423" lon="-1.3835112">
        <time>2022-07-04T08:07:37Z</time>
      </trkpt>
      <trkpt lat="42.758385" lon="-1.3835411">
        <time>2022-07-04T08:07:38Z</time>
      </trkpt>
      <trkpt lat="42.758305" lon="-1.3836012">
        <time>2022-07-04T08:07:40Z</time>
      </trkpt>
      <trkpt lat="42.75823" lon="-1.3836615">
        <time>2022-07-04T08:07:42Z</time>
      </trkpt>
      <trkpt lat="42.758152" lon="-1.3837188">
        <time>2022-07-04T08:07:44Z</time>
      </trkpt>
      <trkpt lat="42.75807" lon="-1.3837751">
        <time>2022-07-04T08:07:46Z</time>
      </trkpt>
      <trkpt lat="42.758" lon="-1.3838274">
        <time>2022-07-04T08:07:48Z</time>
      </trkpt>
      <trkpt lat="42.757927" lon="-1.3838828">
        <time>2022-07-04T08:07:50Z</time>
      </trkpt>
      <trkpt lat="42.757847" lon="-1.3839382">
        <time>2022-07-04T08:07:52Z</time>
      </trkpt>
      <trkpt lat="42.757774" lon="-1.3839941">
        <time>2022-07-04T08:07:54Z</time>
      </trkpt>
      <trkpt lat="42.757698" lon="-1.3840488">
        <time>2022-07-04T08:07:56Z</time>
      </trkpt>
      <trkpt lat="42.757626" lon="-1.3841032">
        <time>2022-07-04T08:07:58Z</time>
      </trkpt>
      <trkpt lat="42.757557" lon="-1.3841572">
        <time>2022-07-04T08:08:00Z</time>
      </trkpt>
      <trkpt lat="42.75749" lon="-1.3842081">
        <time>2022-07-04T08:08:02Z</time>
      </trkpt>
      <trkpt lat="42.75742" lon="-1.3842611">
        <time>2022-07-04T08:08:04Z</time>
      </trkpt>
      <trkpt lat="42.75735" lon="-1.3843161">
        <time>2022-07-04T08:08:06Z</time>
      </trkpt>
      <trkpt lat="42.757282" lon="-1.3843688">
        <time>2022-07-04T08:08:08Z</time>
      </trkpt>
      <trkpt lat="42.757217" lon="-1.3844174">
        <time>2022-07-04T08:08:10Z</time>
      </trkpt>
      <trkpt lat="42.757156" lon="-1.3844625">
        <time>2022-07-04T08:08:12Z</time>
      </trkpt>
      <trkpt lat="42.7571" lon="-1.3845068">
        <time>2022-07-04T08:08:14Z</time>
      </trkpt>
      <trkpt lat="42.757042" lon="-1.3845497">
        <time>2022-07-04T08:08:16Z</time>
      </trkpt>
      <trkpt lat="42.756992" lon="-1.3845874">
        <time>2022-07-04T08:08:18Z</time>
      </trkpt>
      <trkpt lat="42.75695" lon="-1.3846171">
        <time>2022-07-04T08:08:20Z</time>
      </trkpt>
      <trkpt lat="42.756912" lon="-1.3846685">
        <time>2022-07-04T08:08:23Z</time>
      </trkpt>
      <trkpt lat="42.756897" lon="-1.3847494">
        <time>2022-07-04T08:08:26Z</time>
      </trkpt>
      <trkpt lat="42.756897" lon="-1.38486">
        <time>2022-07-04T08:08:29Z</time>
      </trkpt>
      <trkpt lat="42.756905" lon="-1.3849545">
        <time>2022-07-04T08:08:31Z</time>
      </trkpt>
      <trkpt lat="42.75691" lon="-1.3850644">
        <time>2022-07-04T08:08:33Z</time>
      </trkpt>
      <trkpt lat="42.756916" lon="-1.3851844">
        <time>2022-07-04T08:08:35Z</time>
      </trkpt>
      <trkpt lat="42.756924" lon="-1.3853147">
        <time>2022-07-04T08:08:37Z</time>
      </trkpt>
      <trkpt lat="42.756927" lon="-1.3853841">
        <time>2022-07-04T08:08:38Z</time>
      </trkpt>
      <trkpt lat="42.75693" lon="-1.3854557">
        <time>2022-07-04T08:08:39Z</time>
      </trkpt>
      <trkpt lat="42.756947" lon="-1.3856031">
        <time>2022-07-04T08:08:41Z</time>
      </trkpt>
      <trkpt lat="42.756954" lon="-1.3856734">
        <time>2022-07-04T08:08:42Z</time>
      </trkpt>
      <trkpt lat="42.75697" lon="-1.3858244">
        <time>2022-07-04T08:08:44Z</time>
      </trkpt>
      <trkpt lat="42.756977" lon="-1.385897">
        <time>2022-07-04T08:08:45Z</time>
      </trkpt>
      <trkpt lat="42.75698" lon="-1.385967">
        <time>2022-07-04T08:08:46Z</time>
      </trkpt>
      <trkpt lat="42.75698" lon="-1.3860314">
        <time>2022-07-04T08:08:47Z</time>
      </trkpt>
      <trkpt lat="42.75697" lon="-1.3861581">
        <time>2022-07-04T08:08:49Z</time>
      </trkpt>
      <trkpt lat="42.75694" lon="-1.386275">
        <time>2022-07-04T08:08:51Z</time>
      </trkpt>
      <trkpt lat="42.75689" lon="-1.3863771">
        <time>2022-07-04T08:08:53Z</time>
      </trkpt>
      <trkpt lat="42.756813" lon="-1.3865337">
        <time>2022-07-04T08:08:56Z</time>
      </trkpt>
      <trkpt lat="42.75676" lon="-1.3866327">
        <time>2022-07-04T08:08:58Z</time>
      </trkpt>
      <trkpt lat="42.756706" lon="-1.3867377">
        <time>2022-07-04T08:09:00Z</time>
      </trkpt>
      <trkpt lat="42.756664" lon="-1.3868477">
        <time>2022-07-04T08:09:02Z</time>
      </trkpt>
      <trkpt lat="42.756626" lon="-1.3869544">
        <time>2022-07-04T08:09:04Z</time>
      </trkpt>
      <trkpt lat="42.756596" lon="-1.3870513">
        <time>2022-07-04T08:09:06Z</time>
      </trkpt>
      <trkpt lat="42.756565" lon="-1.387133">
        <time>2022-07-04T08:09:08Z</time>
      </trkpt>
      <trkpt lat="42.756535" lon="-1.3872126">
        <time>2022-07-04T08:09:10Z</time>
      </trkpt>
      <trkpt lat="42.756496" lon="-1.3872896">
        <time>2022-07-04T08:09:12Z</time>
      </trkpt>
      <trkpt lat="42.756462" lon="-1.3873564">
        <time>2022-07-04T08:09:14Z</time>
      </trkpt>
      <trkpt lat="42.75643" lon="-1.3874104">
        <time>2022-07-04T08:09:16Z</time>
      </trkpt>
      <trkpt lat="42.756405" lon="-1.3874563">
        <time>2022-07-04T08:09:19Z</time>
      </trkpt>
      <trkpt lat="42.756367" lon="-1.3875043">
        <time>2022-07-04T08:09:23Z</time>
      </trkpt>
      <trkpt lat="42.7563" lon="-1.3875134">
        <time>2022-07-04T08:09:27Z</time>
      </trkpt>
      <trkpt lat="42.756233" lon="-1.3874867">
        <time>2022-07-04T08:09:30Z</time>
      </trkpt>
      <trkpt lat="42.75618" lon="-1.387452">
        <time>2022-07-04T08:09:32Z</time>
      </trkpt>
      <trkpt lat="42.756126" lon="-1.387397">
        <time>2022-07-04T08:09:34Z</time>
      </trkpt>
      <trkpt lat="42.756073" lon="-1.3873271">
        <time>2022-07-04T08:09:36Z</time>
      </trkpt>
      <trkpt lat="42.756027" lon="-1.3872324">
        <time>2022-07-04T08:09:38Z</time>
      </trkpt>
      <trkpt lat="42.755985" lon="-1.387112">
        <time>2022-07-04T08:09:40Z</time>
      </trkpt>
      <trkpt lat="42.755966" lon="-1.3870424">
        <time>2022-07-04T08:09:41Z</time>
      </trkpt>
      <trkpt lat="42.75595" lon="-1.3869671">
        <time>2022-07-04T08:09:42Z</time>
      </trkpt>
      <trkpt lat="42.75594" lon="-1.3868864">
        <time>2022-07-04T08:09:43Z</time>
      </trkpt>
      <trkpt lat="42.75593" lon="-1.3868067">
        <time>2022-07-04T08:09:44Z</time>
      </trkpt>
      <trkpt lat="42.75592" lon="-1.3867208">
        <time>2022-07-04T08:09:45Z</time>
      </trkpt>
      <trkpt lat="42.755913" lon="-1.3866204">
        <time>2022-07-04T08:09:46Z</time>
      </trkpt>
      <trkpt lat="42.755905" lon="-1.3865161">
        <time>2022-07-04T08:09:47Z</time>
      </trkpt>
      <trkpt lat="42.755898" lon="-1.3864077">
        <time>2022-07-04T08:09:48Z</time>
      </trkpt>
      <trkpt lat="42.755894" lon="-1.386296">
        <time>2022-07-04T08:09:49Z</time>
      </trkpt>
      <trkpt lat="42.755886" lon="-1.3861808">
        <time>2022-07-04T08:09:50Z</time>
      </trkpt>
      <trkpt lat="42.75588" lon="-1.3860611">
        <time>2022-07-04T08:09:51Z</time>
      </trkpt>
      <trkpt lat="42.75587" lon="-1.385938">
        <time>2022-07-04T08:09:52Z</time>
      </trkpt>
      <trkpt lat="42.755863" lon="-1.3858128">
        <time>2022-07-04T08:09:53Z</time>
      </trkpt>
      <trkpt lat="42.75586" lon="-1.3856847">
        <time>2022-07-04T08:09:54Z</time>
      </trkpt>
      <trkpt lat="42.75585" lon="-1.3855628">
        <time>2022-07-04T08:09:55Z</time>
      </trkpt>
      <trkpt lat="42.755856" lon="-1.3852881">
        <time>2022-07-04T08:09:57Z</time>
      </trkpt>
      <trkpt lat="42.755863" lon="-1.3851475">
        <time>2022-07-04T08:09:58Z</time>
      </trkpt>
      <trkpt lat="42.755875" lon="-1.3850031">
        <time>2022-07-04T08:09:59Z</time>
      </trkpt>
      <trkpt lat="42.75589" lon="-1.3848578">
        <time>2022-07-04T08:10:00Z</time>
      </trkpt>
      <trkpt lat="42.755905" lon="-1.3847108">
        <time>2022-07-04T08:10:01Z</time>
      </trkpt>
      <trkpt lat="42.755924" lon="-1.3845731">
        <time>2022-07-04T08:10:02Z</time>
      </trkpt>
      <trkpt lat="42.755943" lon="-1.3844221">
        <time>2022-07-04T08:10:03Z</time>
      </trkpt>
      <trkpt lat="42.755962" lon="-1.3842715">
        <time>2022-07-04T08:10:04Z</time>
      </trkpt>
      <trkpt lat="42.75598" lon="-1.3841197">
        <time>2022-07-04T08:10:05Z</time>
      </trkpt>
      <trkpt lat="42.756" lon="-1.3839788">
        <time>2022-07-04T08:10:06Z</time>
      </trkpt>
      <trkpt lat="42.756016" lon="-1.3838254">
        <time>2022-07-04T08:10:07Z</time>
      </trkpt>
      <trkpt lat="42.75603" lon="-1.3836741">
        <time>2022-07-04T08:10:08Z</time>
      </trkpt>
      <trkpt lat="42.756042" lon="-1.3835264">
        <time>2022-07-04T08:10:09Z</time>
      </trkpt>
      <trkpt lat="42.75605" lon="-1.3833828">
        <time>2022-07-04T08:10:10Z</time>
      </trkpt>
      <trkpt lat="42.756054" lon="-1.3832428">
        <time>2022-07-04T08:10:11Z</time>
      </trkpt>
      <trkpt lat="42.756058" lon="-1.3831061">
        <time>2022-07-04T08:10:12Z</time>
      </trkpt>
      <trkpt lat="42.756058" lon="-1.3829721">
        <time>2022-07-04T08:10:13Z</time>
      </trkpt>
      <trkpt lat="42.756054" lon="-1.3828418">
        <time>2022-07-04T08:10:14Z</time>
      </trkpt>
      <trkpt lat="42.75605" lon="-1.3827149">
        <time>2022-07-04T08:10:15Z</time>
      </trkpt>
      <trkpt lat="42.756046" lon="-1.3825915">
        <time>2022-07-04T08:10:16Z</time>
      </trkpt>
      <trkpt lat="42.756042" lon="-1.3824705">
        <time>2022-07-04T08:10:17Z</time>
      </trkpt>
      <trkpt lat="42.756042" lon="-1.3823521">
        <time>2022-07-04T08:10:18Z</time>
      </trkpt>
      <trkpt lat="42.75604" lon="-1.3822348">
        <time>2022-07-04T08:10:19Z</time>
      </trkpt>
      <trkpt lat="42.756035" lon="-1.3821199">
        <time>2022-07-04T08:10:20Z</time>
      </trkpt>
      <trkpt lat="42.756035" lon="-1.3820071">
        <time>2022-07-04T08:10:21Z</time>
      </trkpt>
      <trkpt lat="42.756035" lon="-1.3818959">
        <time>2022-07-04T08:10:22Z</time>
      </trkpt>
      <trkpt lat="42.756035" lon="-1.3817855">
        <time>2022-07-04T08:10:23Z</time>
      </trkpt>
      <trkpt lat="42.75603" lon="-1.3816769">
        <time>2022-07-04T08:10:24Z</time>
      </trkpt>
      <trkpt lat="42.75603" lon="-1.3815689">
        <time>2022-07-04T08:10:25Z</time>
      </trkpt>
      <trkpt lat="42.756027" lon="-1.3814626">
        <time>2022-07-04T08:10:26Z</time>
      </trkpt>
      <trkpt lat="42.756027" lon="-1.3813549">
        <time>2022-07-04T08:10:27Z</time>
      </trkpt>
      <trkpt lat="42.756023" lon="-1.3812475">
        <time>2022-07-04T08:10:28Z</time>
      </trkpt>
      <trkpt lat="42.75602" lon="-1.3811432">
        <time>2022-07-04T08:10:29Z</time>
      </trkpt>
      <trkpt lat="42.756016" lon="-1.3810393">
        <time>2022-07-04T08:10:30Z</time>
      </trkpt>
      <trkpt lat="42.756016" lon="-1.3809348">
        <time>2022-07-04T08:10:31Z</time>
      </trkpt>
      <trkpt lat="42.756012" lon="-1.3808316">
        <time>2022-07-04T08:10:32Z</time>
      </trkpt>
      <trkpt lat="42.75601" lon="-1.3807286">
        <time>2022-07-04T08:10:33Z</time>
      </trkpt>
      <trkpt lat="42.756004" lon="-1.3806273">
        <time>2022-07-04T08:10:34Z</time>
      </trkpt>
      <trkpt lat="42.756" lon="-1.3805262">
        <time>2022-07-04T08:10:35Z</time>
      </trkpt>
      <trkpt lat="42.755997" lon="-1.3804262">
        <time>2022-07-04T08:10:36Z</time>
      </trkpt>
      <trkpt lat="42.755993" lon="-1.3803265">
        <time>2022-07-04T08:10:37Z</time>
      </trkpt>
      <trkpt lat="42.755993" lon="-1.3802283">
        <time>2022-07-04T08:10:38Z</time>
      </trkpt>
      <trkpt lat="42.75599" lon="-1.3801296">
        <time>2022-07-04T08:10:39Z</time>
      </trkpt>
      <trkpt lat="42.75599" lon="-1.3800305">
        <time>2022-07-04T08:10:40Z</time>
      </trkpt>
      <trkpt lat="42.75599" lon="-1.3799336">
        <time>2022-07-04T08:10:41Z</time>
      </trkpt>
      <trkpt lat="42.755985" lon="-1.3798425">
        <time>2022-07-04T08:10:42Z</time>
      </trkpt>
      <trkpt lat="42.755985" lon="-1.3797432">
        <time>2022-07-04T08:10:43Z</time>
      </trkpt>
      <trkpt lat="42.75598" lon="-1.3796446">
        <time>2022-07-04T08:10:44Z</time>
      </trkpt>
      <trkpt lat="42.755978" lon="-1.379548">
        <time>2022-07-04T08:10:45Z</time>
      </trkpt>
      <trkpt lat="42.75597" lon="-1.3794533">
        <time>2022-07-04T08:10:46Z</time>
      </trkpt>
      <trkpt lat="42.755966" lon="-1.3793589">
        <time>2022-07-04T08:10:47Z</time>
      </trkpt>
      <trkpt lat="42.75596" lon="-1.3792653">
        <time>2022-07-04T08:10:48Z</time>
      </trkpt>
      <trkpt lat="42.755947" lon="-1.3791703">
        <time>2022-07-04T08:10:49Z</time>
      </trkpt>
      <trkpt lat="42.755936" lon="-1.3790759">
        <time>2022-07-04T08:10:50Z</time>
      </trkpt>
      <trkpt lat="42.755917" lon="-1.3789849">
        <time>2022-07-04T08:10:51Z</time>
      </trkpt>
      <trkpt lat="42.755898" lon="-1.3788949">
        <time>2022-07-04T08:10:52Z</time>
      </trkpt>
      <trkpt lat="42.75587" lon="-1.3788073">
        <time>2022-07-04T08:10:53Z</time>
      </trkpt>
      <trkpt lat="42.75584" lon="-1.3787229">
        <time>2022-07-04T08:10:54Z</time>
      </trkpt>
      <trkpt lat="42.75581" lon="-1.378641">
        <time>2022-07-04T08:10:55Z</time>
      </trkpt>
      <trkpt lat="42.755775" lon="-1.3785626">
        <time>2022-07-04T08:10:56Z</time>
      </trkpt>
      <trkpt lat="42.755737" lon="-1.378488">
        <time>2022-07-04T08:10:57Z</time>
      </trkpt>
      <trkpt lat="42.7557" lon="-1.378417">
        <time>2022-07-04T08:10:58Z</time>
      </trkpt>
      <trkpt lat="42.755653" lon="-1.3783443">
        <time>2022-07-04T08:10:59Z</time>
      </trkpt>
      <trkpt lat="42.75561" lon="-1.3782806">
        <time>2022-07-04T08:11:00Z</time>
      </trkpt>
      <trkpt lat="42.755524" lon="-1.3781556">
        <time>2022-07-04T08:11:02Z</time>
      </trkpt>
      <trkpt lat="42.755474" lon="-1.378095">
        <time>2022-07-04T08:11:03Z</time>
      </trkpt>
      <trkpt lat="42.75543" lon="-1.378037">
        <time>2022-07-04T08:11:04Z</time>
      </trkpt>
      <trkpt lat="42.755383" lon="-1.3779804">
        <time>2022-07-04T08:11:05Z</time>
      </trkpt>
      <trkpt lat="42.755337" lon="-1.3779253">
        <time>2022-07-04T08:11:06Z</time>
      </trkpt>
      <trkpt lat="42.75529" lon="-1.3778703">
        <time>2022-07-04T08:11:07Z</time>
      </trkpt>
      <trkpt lat="42.755245" lon="-1.377816">
        <time>2022-07-04T08:11:08Z</time>
      </trkpt>
      <trkpt lat="42.7552" lon="-1.377761">
        <time>2022-07-04T08:11:09Z</time>
      </trkpt>
      <trkpt lat="42.755154" lon="-1.377708">
        <time>2022-07-04T08:11:10Z</time>
      </trkpt>
      <trkpt lat="42.75511" lon="-1.3776569">
        <time>2022-07-04T08:11:11Z</time>
      </trkpt>
      <trkpt lat="42.75507" lon="-1.3776087">
        <time>2022-07-04T08:11:12Z</time>
      </trkpt>
      <trkpt lat="42.755028" lon="-1.3775593">
        <time>2022-07-04T08:11:13Z</time>
      </trkpt>
      <trkpt lat="42.75499" lon="-1.3775144">
        <time>2022-07-04T08:11:14Z</time>
      </trkpt>
      <trkpt lat="42.754948" lon="-1.377469">
        <time>2022-07-04T08:11:15Z</time>
      </trkpt>
      <trkpt lat="42.75487" lon="-1.3773824">
        <time>2022-07-04T08:11:17Z</time>
      </trkpt>
      <trkpt lat="42.7548" lon="-1.377297">
        <time>2022-07-04T08:11:19Z</time>
      </trkpt>
      <trkpt lat="42.754726" lon="-1.37721">
        <time>2022-07-04T08:11:21Z</time>
      </trkpt>
      <trkpt lat="42.754654" lon="-1.377124">
        <time>2022-07-04T08:11:23Z</time>
      </trkpt>
      <trkpt lat="42.754585" lon="-1.3770397">
        <time>2022-07-04T08:11:25Z</time>
      </trkpt>
      <trkpt lat="42.754517" lon="-1.3769541">
        <time>2022-07-04T08:11:27Z</time>
      </trkpt>
      <trkpt lat="42.754448" lon="-1.37687">
        <time>2022-07-04T08:11:29Z</time>
      </trkpt>
      <trkpt lat="42.75438" lon="-1.3767871">
        <time>2022-07-04T08:11:31Z</time>
      </trkpt>
      <trkpt lat="42.754307" lon="-1.3767064">
        <time>2022-07-04T08:11:33Z</time>
      </trkpt>
      <trkpt lat="42.754234" lon="-1.3766247">
        <time>2022-07-04T08:11:35Z</time>
      </trkpt>
      <trkpt lat="42.75416" lon="-1.376541">
        <time>2022-07-04T08:11:37Z</time>
      </trkpt>
      <trkpt lat="42.75409" lon="-1.3764571">
        <time>2022-07-04T08:11:39Z</time>
      </trkpt>
      <trkpt lat="42.754055" lon="-1.3764141">
        <time>2022-07-04T08:11:40Z</time>
      </trkpt>
      <trkpt lat="42.753986" lon="-1.3763274">
        <time>2022-07-04T08:11:42Z</time>
      </trkpt>
      <trkpt lat="42.753925" lon="-1.376235">
        <time>2022-07-04T08:11:44Z</time>
      </trkpt>
      <trkpt lat="42.75387" lon="-1.3761353">
        <time>2022-07-04T08:11:46Z</time>
      </trkpt>
      <trkpt lat="42.75381" lon="-1.3760334">
        <time>2022-07-04T08:11:48Z</time>
      </trkpt>
      <trkpt lat="42.753757" lon="-1.3759277">
        <time>2022-07-04T08:11:50Z</time>
      </trkpt>
      <trkpt lat="42.75373" lon="-1.3758731">
        <time>2022-07-04T08:11:51Z</time>
      </trkpt>
      <trkpt lat="42.75368" lon="-1.3757621">
        <time>2022-07-04T08:11:53Z</time>
      </trkpt>
      <trkpt lat="42.753654" lon="-1.3757068">
        <time>2022-07-04T08:11:54Z</time>
      </trkpt>
      <trkpt lat="42.753605" lon="-1.3755947">
        <time>2022-07-04T08:11:56Z</time>
      </trkpt>
      <trkpt lat="42.753582" lon="-1.3755385">
        <time>2022-07-04T08:11:57Z</time>
      </trkpt>
      <trkpt lat="42.753532" lon="-1.3754247">
        <time>2022-07-04T08:11:59Z</time>
      </trkpt>
      <trkpt lat="42.753506" lon="-1.3753674">
        <time>2022-07-04T08:12:00Z</time>
      </trkpt>
      <trkpt lat="42.75346" lon="-1.3752531">
        <time>2022-07-04T08:12:02Z</time>
      </trkpt>
      <trkpt lat="42.753384" lon="-1.3750811">
        <time>2022-07-04T08:12:05Z</time>
      </trkpt>
      <trkpt lat="42.753334" lon="-1.3749645">
        <time>2022-07-04T08:12:07Z</time>
      </trkpt>
      <trkpt lat="42.753307" lon="-1.3749055">
        <time>2022-07-04T08:12:08Z</time>
      </trkpt>
      <trkpt lat="42.753258" lon="-1.3747864">
        <time>2022-07-04T08:12:10Z</time>
      </trkpt>
      <trkpt lat="42.753212" lon="-1.3746685">
        <time>2022-07-04T08:12:12Z</time>
      </trkpt>
      <trkpt lat="42.753162" lon="-1.3745544">
        <time>2022-07-04T08:12:14Z</time>
      </trkpt>
      <trkpt lat="42.75311" lon="-1.3744341">
        <time>2022-07-04T08:12:16Z</time>
      </trkpt>
      <trkpt lat="42.75306" lon="-1.3743178">
        <time>2022-07-04T08:12:18Z</time>
      </trkpt>
      <trkpt lat="42.753033" lon="-1.3742621">
        <time>2022-07-04T08:12:19Z</time>
      </trkpt>
      <trkpt lat="42.75298" lon="-1.3741415">
        <time>2022-07-04T08:12:21Z</time>
      </trkpt>
      <trkpt lat="42.752926" lon="-1.3740238">
        <time>2022-07-04T08:12:23Z</time>
      </trkpt>
      <trkpt lat="42.7529" lon="-1.3739628">
        <time>2022-07-04T08:12:24Z</time>
      </trkpt>
      <trkpt lat="42.752872" lon="-1.3739032">
        <time>2022-07-04T08:12:25Z</time>
      </trkpt>
      <trkpt lat="42.75282" lon="-1.3737859">
        <time>2022-07-04T08:12:27Z</time>
      </trkpt>
      <trkpt lat="42.752773" lon="-1.3736721">
        <time>2022-07-04T08:12:29Z</time>
      </trkpt>
      <trkpt lat="42.752728" lon="-1.3735602">
        <time>2022-07-04T08:12:31Z</time>
      </trkpt>
      <trkpt lat="42.752678" lon="-1.3734425">
        <time>2022-07-04T08:12:33Z</time>
      </trkpt>
      <trkpt lat="42.752655" lon="-1.3733875">
        <time>2022-07-04T08:12:34Z</time>
      </trkpt>
      <trkpt lat="42.75261" lon="-1.3732718">
        <time>2022-07-04T08:12:36Z</time>
      </trkpt>
      <trkpt lat="42.752586" lon="-1.3732148">
        <time>2022-07-04T08:12:37Z</time>
      </trkpt>
      <trkpt lat="42.75254" lon="-1.3731002">
        <time>2022-07-04T08:12:39Z</time>
      </trkpt>
      <trkpt lat="42.752514" lon="-1.3730382">
        <time>2022-07-04T08:12:40Z</time>
      </trkpt>
      <trkpt lat="42.752464" lon="-1.3729198">
        <time>2022-07-04T08:12:42Z</time>
      </trkpt>
      <trkpt lat="42.75244" lon="-1.3728625">
        <time>2022-07-04T08:12:43Z</time>
      </trkpt>
      <trkpt lat="42.752388" lon="-1.3727405">
        <time>2022-07-04T08:12:45Z</time>
      </trkpt>
      <trkpt lat="42.752342" lon="-1.3726295">
        <time>2022-07-04T08:12:47Z</time>
      </trkpt>
      <trkpt lat="42.752296" lon="-1.3725219">
        <time>2022-07-04T08:12:49Z</time>
      </trkpt>
      <trkpt lat="42.752247" lon="-1.3724158">
        <time>2022-07-04T08:12:51Z</time>
      </trkpt>
      <trkpt lat="42.7522" lon="-1.3723211">
        <time>2022-07-04T08:12:53Z</time>
      </trkpt>
      <trkpt lat="42.75216" lon="-1.3722355">
        <time>2022-07-04T08:12:55Z</time>
      </trkpt>
      <trkpt lat="42.75213" lon="-1.3721592">
        <time>2022-07-04T08:12:57Z</time>
      </trkpt>
      <trkpt lat="42.752098" lon="-1.3720886">
        <time>2022-07-04T08:12:59Z</time>
      </trkpt>
      <trkpt lat="42.752068" lon="-1.3720219">
        <time>2022-07-04T08:13:01Z</time>
      </trkpt>
      <trkpt lat="42.75204" lon="-1.3719589">
        <time>2022-07-04T08:13:03Z</time>
      </trkpt>
      <trkpt lat="42.752014" lon="-1.3718965">
        <time>2022-07-04T08:13:05Z</time>
      </trkpt>
      <trkpt lat="42.751987" lon="-1.3718362">
        <time>2022-07-04T08:13:07Z</time>
      </trkpt>
      <trkpt lat="42.75196" lon="-1.3717753">
        <time>2022-07-04T08:13:09Z</time>
      </trkpt>
      <trkpt lat="42.751923" lon="-1.3716846">
        <time>2022-07-04T08:13:12Z</time>
      </trkpt>
      <trkpt lat="42.751896" lon="-1.3716265">
        <time>2022-07-04T08:13:14Z</time>
      </trkpt>
      <trkpt lat="42.75186" lon="-1.3715432">
        <time>2022-07-04T08:13:17Z</time>
      </trkpt>
      <trkpt lat="42.751827" lon="-1.3714582">
        <time>2022-07-04T08:13:20Z</time>
      </trkpt>
      <trkpt lat="42.751793" lon="-1.3713709">
        <time>2022-07-04T08:13:23Z</time>
      </trkpt>
      <trkpt lat="42.75176" lon="-1.3712802">
        <time>2022-07-04T08:13:26Z</time>
      </trkpt>
      <trkpt lat="42.75173" lon="-1.3712199">
        <time>2022-07-04T08:13:28Z</time>
      </trkpt>
      <trkpt lat="42.751705" lon="-1.3711592">
        <time>2022-07-04T08:13:30Z</time>
      </trkpt>
      <trkpt lat="42.75166" lon="-1.3710632">
        <time>2022-07-04T08:13:33Z</time>
      </trkpt>
      <trkpt lat="42.75163" lon="-1.3709939">
        <time>2022-07-04T08:13:35Z</time>
      </trkpt>
      <trkpt lat="42.751595" lon="-1.3709213">
        <time>2022-07-04T08:13:37Z</time>
      </trkpt>
      <trkpt lat="42.751564" lon="-1.3708466">
        <time>2022-07-04T08:13:39Z</time>
      </trkpt>
      <trkpt lat="42.751534" lon="-1.370768">
        <time>2022-07-04T08:13:41Z</time>
      </trkpt>
      <trkpt lat="42.7515" lon="-1.3706863">
        <time>2022-07-04T08:13:43Z</time>
      </trkpt>
      <trkpt lat="42.75146" lon="-1.3706026">
        <time>2022-07-04T08:13:45Z</time>
      </trkpt>
      <trkpt lat="42.751423" lon="-1.370521">
        <time>2022-07-04T08:13:47Z</time>
      </trkpt>
      <trkpt lat="42.751385" lon="-1.370433">
        <time>2022-07-04T08:13:49Z</time>
      </trkpt>
      <trkpt lat="42.751347" lon="-1.3703419">
        <time>2022-07-04T08:13:51Z</time>
      </trkpt>
      <trkpt lat="42.751305" lon="-1.3702489">
        <time>2022-07-04T08:13:53Z</time>
      </trkpt>
      <trkpt lat="42.751266" lon="-1.3701513">
        <time>2022-07-04T08:13:55Z</time>
      </trkpt>
      <trkpt lat="42.75123" lon="-1.3700557">
        <time>2022-07-04T08:13:57Z</time>
      </trkpt>
      <trkpt lat="42.751186" lon="-1.3699557">
        <time>2022-07-04T08:13:59Z</time>
      </trkpt>
      <trkpt lat="42.75114" lon="-1.3698593">
        <time>2022-07-04T08:14:01Z</time>
      </trkpt>
      <trkpt lat="42.7511" lon="-1.3697603">
        <time>2022-07-04T08:14:03Z</time>
      </trkpt>
      <trkpt lat="42.751057" lon="-1.3696656">
        <time>2022-07-04T08:14:05Z</time>
      </trkpt>
      <trkpt lat="42.75102" lon="-1.3695697">
        <time>2022-07-04T08:14:07Z</time>
      </trkpt>
      <trkpt lat="42.750977" lon="-1.36947">
        <time>2022-07-04T08:14:09Z</time>
      </trkpt>
      <trkpt lat="42.75094" lon="-1.3693693">
        <time>2022-07-04T08:14:11Z</time>
      </trkpt>
      <trkpt lat="42.750874" lon="-1.369215">
        <time>2022-07-04T08:14:14Z</time>
      </trkpt>
      <trkpt lat="42.750828" lon="-1.369118">
        <time>2022-07-04T08:14:16Z</time>
      </trkpt>
      <trkpt lat="42.750786" lon="-1.3690237">
        <time>2022-07-04T08:14:18Z</time>
      </trkpt>
      <trkpt lat="42.750744" lon="-1.368928">
        <time>2022-07-04T08:14:20Z</time>
      </trkpt>
      <trkpt lat="42.750706" lon="-1.3688357">
        <time>2022-07-04T08:14:22Z</time>
      </trkpt>
      <trkpt lat="42.750664" lon="-1.3687377">
        <time>2022-07-04T08:14:24Z</time>
      </trkpt>
      <trkpt lat="42.750626" lon="-1.3686453">
        <time>2022-07-04T08:14:26Z</time>
      </trkpt>
      <trkpt lat="42.750584" lon="-1.3685501">
        <time>2022-07-04T08:14:28Z</time>
      </trkpt>
      <trkpt lat="42.75054" lon="-1.368455">
        <time>2022-07-04T08:14:30Z</time>
      </trkpt>
      <trkpt lat="42.750504" lon="-1.3683614">
        <time>2022-07-04T08:14:32Z</time>
      </trkpt>
      <trkpt lat="42.75046" lon="-1.3682684">
        <time>2022-07-04T08:14:34Z</time>
      </trkpt>
      <trkpt lat="42.750423" lon="-1.368175">
        <time>2022-07-04T08:14:36Z</time>
      </trkpt>
      <trkpt lat="42.750385" lon="-1.3680826">
        <time>2022-07-04T08:14:38Z</time>
      </trkpt>
      <trkpt lat="42.750347" lon="-1.367992">
        <time>2022-07-04T08:14:40Z</time>
      </trkpt>
      <trkpt lat="42.75031" lon="-1.367903">
        <time>2022-07-04T08:14:42Z</time>
      </trkpt>
      <trkpt lat="42.750267" lon="-1.3678087">
        <time>2022-07-04T08:14:44Z</time>
      </trkpt>
      <trkpt lat="42.75023" lon="-1.3677194">
        <time>2022-07-04T08:14:46Z</time>
      </trkpt>
      <trkpt lat="42.75019" lon="-1.367629">
        <time>2022-07-04T08:14:48Z</time>
      </trkpt>
      <trkpt lat="42.750153" lon="-1.3675427">
        <time>2022-07-04T08:14:50Z</time>
      </trkpt>
      <trkpt lat="42.75011" lon="-1.3674537">
        <time>2022-07-04T08:14:52Z</time>
      </trkpt>
      <trkpt lat="42.75007" lon="-1.3673637">
        <time>2022-07-04T08:14:54Z</time>
      </trkpt>
      <trkpt lat="42.75003" lon="-1.3672711">
        <time>2022-07-04T08:14:56Z</time>
      </trkpt>
      <trkpt lat="42.749992" lon="-1.3671801">
        <time>2022-07-04T08:14:58Z</time>
      </trkpt>
      <trkpt lat="42.749954" lon="-1.3670894">
        <time>2022-07-04T08:15:00Z</time>
      </trkpt>
      <trkpt lat="42.749916" lon="-1.3669977">
        <time>2022-07-04T08:15:02Z</time>
      </trkpt>
      <trkpt lat="42.749874" lon="-1.3669055">
        <time>2022-07-04T08:15:04Z</time>
      </trkpt>
      <trkpt lat="42.749836" lon="-1.3668123">
        <time>2022-07-04T08:15:06Z</time>
      </trkpt>
      <trkpt lat="42.749794" lon="-1.3667184">
        <time>2022-07-04T08:15:08Z</time>
      </trkpt>
      <trkpt lat="42.749756" lon="-1.3666224">
        <time>2022-07-04T08:15:10Z</time>
      </trkpt>
      <trkpt lat="42.74972" lon="-1.3665293">
        <time>2022-07-04T08:15:12Z</time>
      </trkpt>
      <trkpt lat="42.749664" lon="-1.3664014">
        <time>2022-07-04T08:15:15Z</time>
      </trkpt>
      <trkpt lat="42.74963" lon="-1.3663234">
        <time>2022-07-04T08:15:17Z</time>
      </trkpt>
      <trkpt lat="42.7496" lon="-1.3662491">
        <time>2022-07-04T08:15:19Z</time>
      </trkpt>
      <trkpt lat="42.749565" lon="-1.3661797">
        <time>2022-07-04T08:15:21Z</time>
      </trkpt>
      <trkpt lat="42.74954" lon="-1.3661157">
        <time>2022-07-04T08:15:23Z</time>
      </trkpt>
      <trkpt lat="42.74951" lon="-1.3660551">
        <time>2022-07-04T08:15:25Z</time>
      </trkpt>
      <trkpt lat="42.749474" lon="-1.3659678">
        <time>2022-07-04T08:15:28Z</time>
      </trkpt>
      <trkpt lat="42.74945" lon="-1.3659091">
        <time>2022-07-04T08:15:30Z</time>
      </trkpt>
      <trkpt lat="42.74944" lon="-1.3658215">
        <time>2022-07-04T08:15:33Z</time>
      </trkpt>
      <trkpt lat="42.74944" lon="-1.3657671">
        <time>2022-07-04T08:16:31Z</time>
      </trkpt>
      <trkpt lat="42.749382" lon="-1.3656964">
        <time>2022-07-04T08:17:42Z</time>
      </trkpt>
      <trkpt lat="42.749332" lon="-1.365614">
        <time>2022-07-04T08:17:45Z</time>
      </trkpt>
      <trkpt lat="42.749302" lon="-1.3655541">
        <time>2022-07-04T08:17:47Z</time>
      </trkpt>
      <trkpt lat="42.74927" lon="-1.3654915">
        <time>2022-07-04T08:17:49Z</time>
      </trkpt>
      <trkpt lat="42.749245" lon="-1.3654268">
        <time>2022-07-04T08:17:51Z</time>
      </trkpt>
      <trkpt lat="42.749214" lon="-1.3653598">
        <time>2022-07-04T08:17:53Z</time>
      </trkpt>
      <trkpt lat="42.749187" lon="-1.3652924">
        <time>2022-07-04T08:17:55Z</time>
      </trkpt>
      <trkpt lat="42.749157" lon="-1.3652211">
        <time>2022-07-04T08:17:57Z</time>
      </trkpt>
      <trkpt lat="42.74913" lon="-1.3651495">
        <time>2022-07-04T08:17:59Z</time>
      </trkpt>
      <trkpt lat="42.7491" lon="-1.3650805">
        <time>2022-07-04T08:18:01Z</time>
      </trkpt>
      <trkpt lat="42.749073" lon="-1.3650144">
        <time>2022-07-04T08:18:03Z</time>
      </trkpt>
      <trkpt lat="42.749046" lon="-1.3649538">
        <time>2022-07-04T08:18:05Z</time>
      </trkpt>
      <trkpt lat="42.74902" lon="-1.3648975">
        <time>2022-07-04T08:18:07Z</time>
      </trkpt>
      <trkpt lat="42.74899" lon="-1.3648179">
        <time>2022-07-04T08:18:10Z</time>
      </trkpt>
      <trkpt lat="42.748966" lon="-1.3647635">
        <time>2022-07-04T08:18:12Z</time>
      </trkpt>
      <trkpt lat="42.748936" lon="-1.3646858">
        <time>2022-07-04T08:18:15Z</time>
      </trkpt>
      <trkpt lat="42.7489" lon="-1.3646125">
        <time>2022-07-04T08:18:18Z</time>
      </trkpt>
      <trkpt lat="42.748867" lon="-1.3645375">
        <time>2022-07-04T08:18:21Z</time>
      </trkpt>
      <trkpt lat="42.74882" lon="-1.3644395">
        <time>2022-07-04T08:18:25Z</time>
      </trkpt>
      <trkpt lat="42.748783" lon="-1.3643652">
        <time>2022-07-04T08:18:28Z</time>
      </trkpt>
      <trkpt lat="42.748753" lon="-1.3642929">
        <time>2022-07-04T08:18:31Z</time>
      </trkpt>
      <trkpt lat="42.74872" lon="-1.3642201">
        <time>2022-07-04T08:18:34Z</time>
      </trkpt>
      <trkpt lat="42.74869" lon="-1.3641448">
        <time>2022-07-04T08:18:37Z</time>
      </trkpt>
      <trkpt lat="42.748665" lon="-1.3640692">
        <time>2022-07-04T08:18:40Z</time>
      </trkpt>
      <trkpt lat="42.74864" lon="-1.3639895">
        <time>2022-07-04T08:18:43Z</time>
      </trkpt>
      <trkpt lat="42.748623" lon="-1.3639035">
        <time>2022-07-04T08:18:46Z</time>
      </trkpt>
      <trkpt lat="42.74862" lon="-1.3638198">
        <time>2022-07-04T08:18:49Z</time>
      </trkpt>
      <trkpt lat="42.748623" lon="-1.3637382">
        <time>2022-07-04T08:18:52Z</time>
      </trkpt>
      <trkpt lat="42.74864" lon="-1.3636582">
        <time>2022-07-04T08:18:55Z</time>
      </trkpt>
      <trkpt lat="42.74867" lon="-1.3635736">
        <time>2022-07-04T08:18:58Z</time>
      </trkpt>
      <trkpt lat="42.748722" lon="-1.3634682">
        <time>2022-07-04T08:19:01Z</time>
      </trkpt>
      <trkpt lat="42.748783" lon="-1.3633829">
        <time>2022-07-04T08:19:03Z</time>
      </trkpt>
      <trkpt lat="42.748856" lon="-1.3632802">
        <time>2022-07-04T08:19:05Z</time>
      </trkpt>
      <trkpt lat="42.748898" lon="-1.3632222">
        <time>2022-07-04T08:19:06Z</time>
      </trkpt>
      <trkpt lat="42.748943" lon="-1.3631592">
        <time>2022-07-04T08:19:07Z</time>
      </trkpt>
      <trkpt lat="42.748997" lon="-1.3630912">
        <time>2022-07-04T08:19:08Z</time>
      </trkpt>
      <trkpt lat="42.749046" lon="-1.3630185">
        <time>2022-07-04T08:19:09Z</time>
      </trkpt>
      <trkpt lat="42.7491" lon="-1.3629433">
        <time>2022-07-04T08:19:10Z</time>
      </trkpt>
      <trkpt lat="42.749153" lon="-1.3628665">
        <time>2022-07-04T08:19:11Z</time>
      </trkpt>
      <trkpt lat="42.749207" lon="-1.362791">
        <time>2022-07-04T08:19:12Z</time>
      </trkpt>
      <trkpt lat="42.74926" lon="-1.3627163">
        <time>2022-07-04T08:19:13Z</time>
      </trkpt>
      <trkpt lat="42.749313" lon="-1.3626432">
        <time>2022-07-04T08:19:14Z</time>
      </trkpt>
      <trkpt lat="42.74937" lon="-1.3625653">
        <time>2022-07-04T08:19:15Z</time>
      </trkpt>
      <trkpt lat="42.749428" lon="-1.3624922">
        <time>2022-07-04T08:19:16Z</time>
      </trkpt>
      <trkpt lat="42.74949" lon="-1.3624129">
        <time>2022-07-04T08:19:17Z</time>
      </trkpt>
      <trkpt lat="42.749546" lon="-1.3623383">
        <time>2022-07-04T08:19:18Z</time>
      </trkpt>
      <trkpt lat="42.749603" lon="-1.3622606">
        <time>2022-07-04T08:19:19Z</time>
      </trkpt>
      <trkpt lat="42.74966" lon="-1.3621789">
        <time>2022-07-04T08:19:20Z</time>
      </trkpt>
      <trkpt lat="42.749718" lon="-1.3620867">
        <time>2022-07-04T08:19:21Z</time>
      </trkpt>
      <trkpt lat="42.749763" lon="-1.3619953">
        <time>2022-07-04T08:19:22Z</time>
      </trkpt>
      <trkpt lat="42.749798" lon="-1.3618963">
        <time>2022-07-04T08:19:23Z</time>
      </trkpt>
      <trkpt lat="42.74982" lon="-1.361784">
        <time>2022-07-04T08:19:24Z</time>
      </trkpt>
      <trkpt lat="42.749825" lon="-1.3616713">
        <time>2022-07-04T08:19:25Z</time>
      </trkpt>
      <trkpt lat="42.74982" lon="-1.3615603">
        <time>2022-07-04T08:19:26Z</time>
      </trkpt>
      <trkpt lat="42.74978" lon="-1.3613503">
        <time>2022-07-04T08:19:28Z</time>
      </trkpt>
      <trkpt lat="42.74975" lon="-1.3612523">
        <time>2022-07-04T08:19:29Z</time>
      </trkpt>
      <trkpt lat="42.74972" lon="-1.3611593">
        <time>2022-07-04T08:19:30Z</time>
      </trkpt>
      <trkpt lat="42.74969" lon="-1.3610706">
        <time>2022-07-04T08:19:31Z</time>
      </trkpt>
      <trkpt lat="42.749657" lon="-1.3609864">
        <time>2022-07-04T08:19:32Z</time>
      </trkpt>
      <trkpt lat="42.74959" lon="-1.3608283">
        <time>2022-07-04T08:19:34Z</time>
      </trkpt>
      <trkpt lat="42.74956" lon="-1.360754">
        <time>2022-07-04T08:19:35Z</time>
      </trkpt>
      <trkpt lat="42.749527" lon="-1.3606817">
        <time>2022-07-04T08:19:36Z</time>
      </trkpt>
      <trkpt lat="42.749496" lon="-1.3606123">
        <time>2022-07-04T08:19:37Z</time>
      </trkpt>
      <trkpt lat="42.74947" lon="-1.360545">
        <time>2022-07-04T08:19:38Z</time>
      </trkpt>
      <trkpt lat="42.74944" lon="-1.360479">
        <time>2022-07-04T08:19:39Z</time>
      </trkpt>
      <trkpt lat="42.749413" lon="-1.3604144">
        <time>2022-07-04T08:19:40Z</time>
      </trkpt>
      <trkpt lat="42.749386" lon="-1.3603507">
        <time>2022-07-04T08:19:41Z</time>
      </trkpt>
      <trkpt lat="42.749363" lon="-1.3602877">
        <time>2022-07-04T08:19:42Z</time>
      </trkpt>
      <trkpt lat="42.749313" lon="-1.3601643">
        <time>2022-07-04T08:19:44Z</time>
      </trkpt>
      <trkpt lat="42.74929" lon="-1.3601023">
        <time>2022-07-04T08:19:45Z</time>
      </trkpt>
      <trkpt lat="42.749264" lon="-1.360043">
        <time>2022-07-04T08:19:46Z</time>
      </trkpt>
      <trkpt lat="42.749214" lon="-1.359904">
        <time>2022-07-04T08:19:48Z</time>
      </trkpt>
      <trkpt lat="42.749187" lon="-1.359831">
        <time>2022-07-04T08:19:49Z</time>
      </trkpt>
      <trkpt lat="42.749157" lon="-1.3597554">
        <time>2022-07-04T08:19:50Z</time>
      </trkpt>
      <trkpt lat="42.74913" lon="-1.3596756">
        <time>2022-07-04T08:19:51Z</time>
      </trkpt>
      <trkpt lat="42.7491" lon="-1.3595914">
        <time>2022-07-04T08:19:52Z</time>
      </trkpt>
      <trkpt lat="42.74907" lon="-1.3595014">
        <time>2022-07-04T08:19:53Z</time>
      </trkpt>
      <trkpt lat="42.749043" lon="-1.359413">
        <time>2022-07-04T08:19:54Z</time>
      </trkpt>
      <trkpt lat="42.749016" lon="-1.3593113">
        <time>2022-07-04T08:19:55Z</time>
      </trkpt>
      <trkpt lat="42.74899" lon="-1.3592083">
        <time>2022-07-04T08:19:56Z</time>
      </trkpt>
      <trkpt lat="42.748962" lon="-1.3591031">
        <time>2022-07-04T08:19:57Z</time>
      </trkpt>
      <trkpt lat="42.748936" lon="-1.358996">
        <time>2022-07-04T08:19:58Z</time>
      </trkpt>
      <trkpt lat="42.74891" lon="-1.3588887">
        <time>2022-07-04T08:19:59Z</time>
      </trkpt>
      <trkpt lat="42.748886" lon="-1.3587813">
        <time>2022-07-04T08:20:00Z</time>
      </trkpt>
      <trkpt lat="42.74886" lon="-1.358674">
        <time>2022-07-04T08:20:01Z</time>
      </trkpt>
      <trkpt lat="42.748833" lon="-1.3585668">
        <time>2022-07-04T08:20:02Z</time>
      </trkpt>
      <trkpt lat="42.748806" lon="-1.3584597">
        <time>2022-07-04T08:20:03Z</time>
      </trkpt>
      <trkpt lat="42.74878" lon="-1.3583537">
        <time>2022-07-04T08:20:04Z</time>
      </trkpt>
      <trkpt lat="42.748756" lon="-1.3582547">
        <time>2022-07-04T08:20:05Z</time>
      </trkpt>
      <trkpt lat="42.748726" lon="-1.358149">
        <time>2022-07-04T08:20:06Z</time>
      </trkpt>
      <trkpt lat="42.7487" lon="-1.3580455">
        <time>2022-07-04T08:20:07Z</time>
      </trkpt>
      <trkpt lat="42.748672" lon="-1.357946">
        <time>2022-07-04T08:20:08Z</time>
      </trkpt>
      <trkpt lat="42.74865" lon="-1.3578501">
        <time>2022-07-04T08:20:09Z</time>
      </trkpt>
      <trkpt lat="42.748623" lon="-1.3577567">
        <time>2022-07-04T08:20:10Z</time>
      </trkpt>
      <trkpt lat="42.7486" lon="-1.3576664">
        <time>2022-07-04T08:20:11Z</time>
      </trkpt>
      <trkpt lat="42.748577" lon="-1.3575797">
        <time>2022-07-04T08:20:12Z</time>
      </trkpt>
      <trkpt lat="42.748554" lon="-1.3574958">
        <time>2022-07-04T08:20:13Z</time>
      </trkpt>
      <trkpt lat="42.748528" lon="-1.357413">
        <time>2022-07-04T08:20:14Z</time>
      </trkpt>
      <trkpt lat="42.748497" lon="-1.3573314">
        <time>2022-07-04T08:20:15Z</time>
      </trkpt>
      <trkpt lat="42.748466" lon="-1.3572491">
        <time>2022-07-04T08:20:16Z</time>
      </trkpt>
      <trkpt lat="42.748436" lon="-1.3571718">
        <time>2022-07-04T08:20:17Z</time>
      </trkpt>
      <trkpt lat="42.748398" lon="-1.3570924">
        <time>2022-07-04T08:20:18Z</time>
      </trkpt>
      <trkpt lat="42.748356" lon="-1.3570131">
        <time>2022-07-04T08:20:19Z</time>
      </trkpt>
      <trkpt lat="42.748306" lon="-1.3569291">
        <time>2022-07-04T08:20:20Z</time>
      </trkpt>
      <trkpt lat="42.748257" lon="-1.3568474">
        <time>2022-07-04T08:20:21Z</time>
      </trkpt>
      <trkpt lat="42.748203" lon="-1.3567748">
        <time>2022-07-04T08:20:22Z</time>
      </trkpt>
      <trkpt lat="42.748146" lon="-1.3567054">
        <time>2022-07-04T08:20:23Z</time>
      </trkpt>
      <trkpt lat="42.748085" lon="-1.3566408">
        <time>2022-07-04T08:20:24Z</time>
      </trkpt>
      <trkpt lat="42.748016" lon="-1.3565785">
        <time>2022-07-04T08:20:25Z</time>
      </trkpt>
      <trkpt lat="42.74795" lon="-1.3565248">
        <time>2022-07-04T08:20:26Z</time>
      </trkpt>
      <trkpt lat="42.747887" lon="-1.3564764">
        <time>2022-07-04T08:20:27Z</time>
      </trkpt>
      <trkpt lat="42.747814" lon="-1.3564308">
        <time>2022-07-04T08:20:28Z</time>
      </trkpt>
      <trkpt lat="42.747746" lon="-1.3563879">
        <time>2022-07-04T08:20:29Z</time>
      </trkpt>
      <trkpt lat="42.747673" lon="-1.3563445">
        <time>2022-07-04T08:20:30Z</time>
      </trkpt>
      <trkpt lat="42.747604" lon="-1.3563032">
        <time>2022-07-04T08:20:31Z</time>
      </trkpt>
      <trkpt lat="42.747536" lon="-1.3562635">
        <time>2022-07-04T08:20:32Z</time>
      </trkpt>
      <trkpt lat="42.74741" lon="-1.3561889">
        <time>2022-07-04T08:20:34Z</time>
      </trkpt>
      <trkpt lat="42.74734" lon="-1.3561505">
        <time>2022-07-04T08:20:35Z</time>
      </trkpt>
      <trkpt lat="42.747276" lon="-1.3561128">
        <time>2022-07-04T08:20:36Z</time>
      </trkpt>
      <trkpt lat="42.74721" lon="-1.3560765">
        <time>2022-07-04T08:20:37Z</time>
      </trkpt>
      <trkpt lat="42.747147" lon="-1.3560405">
        <time>2022-07-04T08:20:38Z</time>
      </trkpt>
      <trkpt lat="42.74708" lon="-1.3560039">
        <time>2022-07-04T08:20:39Z</time>
      </trkpt>
      <trkpt lat="42.74702" lon="-1.3559672">
        <time>2022-07-04T08:20:40Z</time>
      </trkpt>
      <trkpt lat="42.74696" lon="-1.3559299">
        <time>2022-07-04T08:20:41Z</time>
      </trkpt>
      <trkpt lat="42.7469" lon="-1.3558918">
        <time>2022-07-04T08:20:42Z</time>
      </trkpt>
      <trkpt lat="42.746838" lon="-1.3558536">
        <time>2022-07-04T08:20:43Z</time>
      </trkpt>
      <trkpt lat="42.746777" lon="-1.3558165">
        <time>2022-07-04T08:20:44Z</time>
      </trkpt>
      <trkpt lat="42.746716" lon="-1.3557805">
        <time>2022-07-04T08:20:45Z</time>
      </trkpt>
      <trkpt lat="42.74666" lon="-1.3557479">
        <time>2022-07-04T08:20:46Z</time>
      </trkpt>
      <trkpt lat="42.746597" lon="-1.3557142">
        <time>2022-07-04T08:20:47Z</time>
      </trkpt>
      <trkpt lat="42.746536" lon="-1.3556795">
        <time>2022-07-04T08:20:48Z</time>
      </trkpt>
      <trkpt lat="42.746475" lon="-1.3556442">
        <time>2022-07-04T08:20:49Z</time>
      </trkpt>
      <trkpt lat="42.746414" lon="-1.3556092">
        <time>2022-07-04T08:20:50Z</time>
      </trkpt>
      <trkpt lat="42.746353" lon="-1.3555739">
        <time>2022-07-04T08:20:51Z</time>
      </trkpt>
      <trkpt lat="42.746292" lon="-1.3555399">
        <time>2022-07-04T08:20:52Z</time>
      </trkpt>
      <trkpt lat="42.74623" lon="-1.3555062">
        <time>2022-07-04T08:20:53Z</time>
      </trkpt>
      <trkpt lat="42.74617" lon="-1.3554726">
        <time>2022-07-04T08:20:54Z</time>
      </trkpt>
      <trkpt lat="42.74611" lon="-1.3554386">
        <time>2022-07-04T08:20:55Z</time>
      </trkpt>
      <trkpt lat="42.746048" lon="-1.3554052">
        <time>2022-07-04T08:20:56Z</time>
      </trkpt>
      <trkpt lat="42.745987" lon="-1.3553736">
        <time>2022-07-04T08:20:57Z</time>
      </trkpt>
      <trkpt lat="42.745926" lon="-1.355343">
        <time>2022-07-04T08:20:58Z</time>
      </trkpt>
      <trkpt lat="42.74586" lon="-1.3553139">
        <time>2022-07-04T08:20:59Z</time>
      </trkpt>
      <trkpt lat="42.7458" lon="-1.3552853">
        <time>2022-07-04T08:21:00Z</time>
      </trkpt>
      <trkpt lat="42.74574" lon="-1.355258">
        <time>2022-07-04T08:21:01Z</time>
      </trkpt>
      <trkpt lat="42.74568" lon="-1.3552309">
        <time>2022-07-04T08:21:02Z</time>
      </trkpt>
      <trkpt lat="42.74562" lon="-1.3552036">
        <time>2022-07-04T08:21:03Z</time>
      </trkpt>
      <trkpt lat="42.74556" lon="-1.3551753">
        <time>2022-07-04T08:21:04Z</time>
      </trkpt>
      <trkpt lat="42.7455" lon="-1.3551506">
        <time>2022-07-04T08:21:05Z</time>
      </trkpt>
      <trkpt lat="42.745438" lon="-1.355124">
        <time>2022-07-04T08:21:06Z</time>
      </trkpt>
      <trkpt lat="42.74538" lon="-1.3550969">
        <time>2022-07-04T08:21:07Z</time>
      </trkpt>
      <trkpt lat="42.74532" lon="-1.355071">
        <time>2022-07-04T08:21:08Z</time>
      </trkpt>
      <trkpt lat="42.745262" lon="-1.3550457">
        <time>2022-07-04T08:21:09Z</time>
      </trkpt>
      <trkpt lat="42.74521" lon="-1.355022">
        <time>2022-07-04T08:21:10Z</time>
      </trkpt>
      <trkpt lat="42.74515" lon="-1.3549976">
        <time>2022-07-04T08:21:11Z</time>
      </trkpt>
      <trkpt lat="42.745094" lon="-1.3549733">
        <time>2022-07-04T08:21:12Z</time>
      </trkpt>
      <trkpt lat="42.74504" lon="-1.35495">
        <time>2022-07-04T08:21:13Z</time>
      </trkpt>
      <trkpt lat="42.744984" lon="-1.3549277">
        <time>2022-07-04T08:21:14Z</time>
      </trkpt>
      <trkpt lat="42.74493" lon="-1.3549056">
        <time>2022-07-04T08:21:15Z</time>
      </trkpt>
      <trkpt lat="42.744873" lon="-1.3548853">
        <time>2022-07-04T08:21:16Z</time>
      </trkpt>
      <trkpt lat="42.74482" lon="-1.3548663">
        <time>2022-07-04T08:21:17Z</time>
      </trkpt>
      <trkpt lat="42.744762" lon="-1.354848">
        <time>2022-07-04T08:21:18Z</time>
      </trkpt>
      <trkpt lat="42.74471" lon="-1.3548313">
        <time>2022-07-04T08:21:19Z</time>
      </trkpt>
      <trkpt lat="42.744648" lon="-1.3548197">
        <time>2022-07-04T08:21:20Z</time>
      </trkpt>
      <trkpt lat="42.74459" lon="-1.3548096">
        <time>2022-07-04T08:21:21Z</time>
      </trkpt>
      <trkpt lat="42.744534" lon="-1.354801">
        <time>2022-07-04T08:21:22Z</time>
      </trkpt>
      <trkpt lat="42.744476" lon="-1.3547966">
        <time>2022-07-04T08:21:23Z</time>
      </trkpt>
      <trkpt lat="42.74442" lon="-1.3547963">
        <time>2022-07-04T08:21:24Z</time>
      </trkpt>
      <trkpt lat="42.744366" lon="-1.3547987">
        <time>2022-07-04T08:21:25Z</time>
      </trkpt>
      <trkpt lat="42.744312" lon="-1.3548044">
        <time>2022-07-04T08:21:26Z</time>
      </trkpt>
      <trkpt lat="42.744255" lon="-1.3548117">
        <time>2022-07-04T08:21:27Z</time>
      </trkpt>
      <trkpt lat="42.744194" lon="-1.3548197">
        <time>2022-07-04T08:21:28Z</time>
      </trkpt>
      <trkpt lat="42.744137" lon="-1.3548273">
        <time>2022-07-04T08:21:29Z</time>
      </trkpt>
      <trkpt lat="42.74408" lon="-1.3548356">
        <time>2022-07-04T08:21:30Z</time>
      </trkpt>
      <trkpt lat="42.744026" lon="-1.3548436">
        <time>2022-07-04T08:21:31Z</time>
      </trkpt>
      <trkpt lat="42.743973" lon="-1.354852">
        <time>2022-07-04T08:21:32Z</time>
      </trkpt>
      <trkpt lat="42.74392" lon="-1.3548603">
        <time>2022-07-04T08:21:33Z</time>
      </trkpt>
      <trkpt lat="42.743866" lon="-1.354869">
        <time>2022-07-04T08:21:34Z</time>
      </trkpt>
      <trkpt lat="42.743813" lon="-1.3548776">
        <time>2022-07-04T08:21:35Z</time>
      </trkpt>
      <trkpt lat="42.74366" lon="-1.3549039">
        <time>2022-07-04T08:21:38Z</time>
      </trkpt>
      <trkpt lat="42.743607" lon="-1.3549123">
        <time>2022-07-04T08:21:39Z</time>
      </trkpt>
      <trkpt lat="42.743557" lon="-1.3549186">
        <time>2022-07-04T08:21:40Z</time>
      </trkpt>
      <trkpt lat="42.743454" lon="-1.3549329">
        <time>2022-07-04T08:21:42Z</time>
      </trkpt>
      <trkpt lat="42.743404" lon="-1.3549416">
        <time>2022-07-04T08:21:43Z</time>
      </trkpt>
      <trkpt lat="42.7433" lon="-1.3549576">
        <time>2022-07-04T08:21:45Z</time>
      </trkpt>
      <trkpt lat="42.74325" lon="-1.3549656">
        <time>2022-07-04T08:21:46Z</time>
      </trkpt>
      <trkpt lat="42.74315" lon="-1.3549819">
        <time>2022-07-04T08:21:48Z</time>
      </trkpt>
      <trkpt lat="42.743095" lon="-1.3549889">
        <time>2022-07-04T08:21:49Z</time>
      </trkpt>
      <trkpt lat="42.743046" lon="-1.3549973">
        <time>2022-07-04T08:21:50Z</time>
      </trkpt>
      <trkpt lat="42.742943" lon="-1.3550153">
        <time>2022-07-04T08:21:52Z</time>
      </trkpt>
      <trkpt lat="42.742893" lon="-1.3550246">
        <time>2022-07-04T08:21:53Z</time>
      </trkpt>
      <trkpt lat="42.742794" lon="-1.355042">
        <time>2022-07-04T08:21:55Z</time>
      </trkpt>
      <trkpt lat="42.742695" lon="-1.3550589">
        <time>2022-07-04T08:21:57Z</time>
      </trkpt>
      <trkpt lat="42.742645" lon="-1.3550693">
        <time>2022-07-04T08:21:58Z</time>
      </trkpt>
      <trkpt lat="42.742542" lon="-1.3550899">
        <time>2022-07-04T08:22:00Z</time>
      </trkpt>
      <trkpt lat="42.742493" lon="-1.3551025">
        <time>2022-07-04T08:22:01Z</time>
      </trkpt>
      <trkpt lat="42.742393" lon="-1.355125">
        <time>2022-07-04T08:22:03Z</time>
      </trkpt>
      <trkpt lat="42.742344" lon="-1.3551376">
        <time>2022-07-04T08:22:04Z</time>
      </trkpt>
      <trkpt lat="42.74224" lon="-1.3551666">
        <time>2022-07-04T08:22:06Z</time>
      </trkpt>
      <trkpt lat="42.74219" lon="-1.3551819">
        <time>2022-07-04T08:22:07Z</time>
      </trkpt>
      <trkpt lat="42.742092" lon="-1.3552119">
        <time>2022-07-04T08:22:09Z</time>
      </trkpt>
      <trkpt lat="42.742043" lon="-1.3552272">
        <time>2022-07-04T08:22:10Z</time>
      </trkpt>
      <trkpt lat="42.74194" lon="-1.3552603">
        <time>2022-07-04T08:22:12Z</time>
      </trkpt>
      <trkpt lat="42.74189" lon="-1.3552746">
        <time>2022-07-04T08:22:13Z</time>
      </trkpt>
      <trkpt lat="42.741844" lon="-1.3552905">
        <time>2022-07-04T08:22:14Z</time>
      </trkpt>
      <trkpt lat="42.741756" lon="-1.3553243">
        <time>2022-07-04T08:22:16Z</time>
      </trkpt>
      <trkpt lat="42.74167" lon="-1.3553549">
        <time>2022-07-04T08:22:18Z</time>
      </trkpt>
      <trkpt lat="42.741577" lon="-1.3553926">
        <time>2022-07-04T08:22:20Z</time>
      </trkpt>
      <trkpt lat="42.741535" lon="-1.3554099">
        <time>2022-07-04T08:22:21Z</time>
      </trkpt>
      <trkpt lat="42.741447" lon="-1.3554469">
        <time>2022-07-04T08:22:23Z</time>
      </trkpt>
      <trkpt lat="42.74136" lon="-1.3554859">
        <time>2022-07-04T08:22:25Z</time>
      </trkpt>
      <trkpt lat="42.74127" lon="-1.3555279">
        <time>2022-07-04T08:22:27Z</time>
      </trkpt>
      <trkpt lat="42.74122" lon="-1.3555483">
        <time>2022-07-04T08:22:28Z</time>
      </trkpt>
      <trkpt lat="42.741127" lon="-1.3555899">
        <time>2022-07-04T08:22:30Z</time>
      </trkpt>
      <trkpt lat="42.741035" lon="-1.3556342">
        <time>2022-07-04T08:22:32Z</time>
      </trkpt>
      <trkpt lat="42.740944" lon="-1.3556786">
        <time>2022-07-04T08:22:34Z</time>
      </trkpt>
      <trkpt lat="42.740902" lon="-1.3556999">
        <time>2022-07-04T08:22:35Z</time>
      </trkpt>
      <trkpt lat="42.74081" lon="-1.3557432">
        <time>2022-07-04T08:22:37Z</time>
      </trkpt>
      <trkpt lat="42.740765" lon="-1.3557658">
        <time>2022-07-04T08:22:38Z</time>
      </trkpt>
      <trkpt lat="42.74068" lon="-1.3558072">
        <time>2022-07-04T08:22:40Z</time>
      </trkpt>
      <trkpt lat="42.740604" lon="-1.3558478">
        <time>2022-07-04T08:22:42Z</time>
      </trkpt>
      <trkpt lat="42.740532" lon="-1.3558838">
        <time>2022-07-04T08:22:44Z</time>
      </trkpt>
      <trkpt lat="42.740467" lon="-1.3559155">
        <time>2022-07-04T08:22:46Z</time>
      </trkpt>
      <trkpt lat="42.740402" lon="-1.3559418">
        <time>2022-07-04T08:22:48Z</time>
      </trkpt>
      <trkpt lat="42.740337" lon="-1.3559638">
        <time>2022-07-04T08:22:50Z</time>
      </trkpt>
      <trkpt lat="42.740276" lon="-1.3559855">
        <time>2022-07-04T08:22:52Z</time>
      </trkpt>
      <trkpt lat="42.740215" lon="-1.3560104">
        <time>2022-07-04T08:22:54Z</time>
      </trkpt>
      <trkpt lat="42.740158" lon="-1.3560342">
        <time>2022-07-04T08:22:56Z</time>
      </trkpt>
      <trkpt lat="42.740097" lon="-1.3560505">
        <time>2022-07-04T08:22:58Z</time>
      </trkpt>
      <trkpt lat="42.740036" lon="-1.3560625">
        <time>2022-07-04T08:23:00Z</time>
      </trkpt>
      <trkpt lat="42.739975" lon="-1.3560724">
        <time>2022-07-04T08:23:02Z</time>
      </trkpt>
      <trkpt lat="42.739914" lon="-1.3560811">
        <time>2022-07-04T08:23:04Z</time>
      </trkpt>
      <trkpt lat="42.73985" lon="-1.3560895">
        <time>2022-07-04T08:23:06Z</time>
      </trkpt>
      <trkpt lat="42.739784" lon="-1.3560965">
        <time>2022-07-04T08:23:08Z</time>
      </trkpt>
      <trkpt lat="42.739723" lon="-1.3560991">
        <time>2022-07-04T08:23:10Z</time>
      </trkpt>
      <trkpt lat="42.739662" lon="-1.3560995">
        <time>2022-07-04T08:23:12Z</time>
      </trkpt>
      <trkpt lat="42.739597" lon="-1.3560965">
        <time>2022-07-04T08:23:14Z</time>
      </trkpt>
      <trkpt lat="42.739536" lon="-1.3560919">
        <time>2022-07-04T08:23:16Z</time>
      </trkpt>
      <trkpt lat="42.739475" lon="-1.3560841">
        <time>2022-07-04T08:23:18Z</time>
      </trkpt>
      <trkpt lat="42.73941" lon="-1.3560724">
        <time>2022-07-04T08:23:20Z</time>
      </trkpt>
      <trkpt lat="42.73935" lon="-1.3560598">
        <time>2022-07-04T08:23:22Z</time>
      </trkpt>
      <trkpt lat="42.73929" lon="-1.3560458">
        <time>2022-07-04T08:23:24Z</time>
      </trkpt>
      <trkpt lat="42.739223" lon="-1.3560308">
        <time>2022-07-04T08:23:26Z</time>
      </trkpt>
      <trkpt lat="42.739166" lon="-1.3560141">
        <time>2022-07-04T08:23:28Z</time>
      </trkpt>
      <trkpt lat="42.73911" lon="-1.3559939">
        <time>2022-07-04T08:23:30Z</time>
      </trkpt>
      <trkpt lat="42.73905" lon="-1.3559705">
        <time>2022-07-04T08:23:32Z</time>
      </trkpt>
      <trkpt lat="42.738995" lon="-1.3559452">
        <time>2022-07-04T08:23:34Z</time>
      </trkpt>
      <trkpt lat="42.73894" lon="-1.3559178">
        <time>2022-07-04T08:23:36Z</time>
      </trkpt>
      <trkpt lat="42.738888" lon="-1.3558898">
        <time>2022-07-04T08:23:38Z</time>
      </trkpt>
      <trkpt lat="42.738834" lon="-1.3558632">
        <time>2022-07-04T08:23:40Z</time>
      </trkpt>
      <trkpt lat="42.73878" lon="-1.3558309">
        <time>2022-07-04T08:23:42Z</time>
      </trkpt>
      <trkpt lat="42.738724" lon="-1.3557975">
        <time>2022-07-04T08:23:44Z</time>
      </trkpt>
      <trkpt lat="42.73867" lon="-1.3557619">
        <time>2022-07-04T08:23:46Z</time>
      </trkpt>
      <trkpt lat="42.738613" lon="-1.3557229">
        <time>2022-07-04T08:23:48Z</time>
      </trkpt>
      <trkpt lat="42.73856" lon="-1.3556823">
        <time>2022-07-04T08:23:50Z</time>
      </trkpt>
      <trkpt lat="42.738506" lon="-1.3556432">
        <time>2022-07-04T08:23:52Z</time>
      </trkpt>
      <trkpt lat="42.738453" lon="-1.3556045">
        <time>2022-07-04T08:23:54Z</time>
      </trkpt>
      <trkpt lat="42.7384" lon="-1.3555655">
        <time>2022-07-04T08:23:56Z</time>
      </trkpt>
      <trkpt lat="42.738346" lon="-1.3555255">
        <time>2022-07-04T08:23:58Z</time>
      </trkpt>
      <trkpt lat="42.738293" lon="-1.3554829">
        <time>2022-07-04T08:24:00Z</time>
      </trkpt>
      <trkpt lat="42.738235" lon="-1.3554403">
        <time>2022-07-04T08:24:02Z</time>
      </trkpt>
      <trkpt lat="42.73818" lon="-1.3553972">
        <time>2022-07-04T08:24:04Z</time>
      </trkpt>
      <trkpt lat="42.73812" lon="-1.3553559">
        <time>2022-07-04T08:24:06Z</time>
      </trkpt>
      <trkpt lat="42.73806" lon="-1.3553139">
        <time>2022-07-04T08:24:08Z</time>
      </trkpt>
      <trkpt lat="42.738003" lon="-1.3552653">
        <time>2022-07-04T08:24:10Z</time>
      </trkpt>
      <trkpt lat="42.73794" lon="-1.3552122">
        <time>2022-07-04T08:24:12Z</time>
      </trkpt>
      <trkpt lat="42.737877" lon="-1.3551586">
        <time>2022-07-04T08:24:14Z</time>
      </trkpt>
      <trkpt lat="42.737812" lon="-1.3550999">
        <time>2022-07-04T08:24:16Z</time>
      </trkpt>
      <trkpt lat="42.737747" lon="-1.3550363">
        <time>2022-07-04T08:24:18Z</time>
      </trkpt>
      <trkpt lat="42.73768" lon="-1.354968">
        <time>2022-07-04T08:24:20Z</time>
      </trkpt>
      <trkpt lat="42.737606" lon="-1.3548939">
        <time>2022-07-04T08:24:22Z</time>
      </trkpt>
      <trkpt lat="42.737537" lon="-1.354811">
        <time>2022-07-04T08:24:24Z</time>
      </trkpt>
      <trkpt lat="42.73747" lon="-1.3547173">
        <time>2022-07-04T08:24:26Z</time>
      </trkpt>
      <trkpt lat="42.73743" lon="-1.3546675">
        <time>2022-07-04T08:24:27Z</time>
      </trkpt>
      <trkpt lat="42.73736" lon="-1.3545599">
        <time>2022-07-04T08:24:29Z</time>
      </trkpt>
      <trkpt lat="42.737324" lon="-1.3545026">
        <time>2022-07-04T08:24:30Z</time>
      </trkpt>
      <trkpt lat="42.737286" lon="-1.354443">
        <time>2022-07-04T08:24:31Z</time>
      </trkpt>
      <trkpt lat="42.73725" lon="-1.354381">
        <time>2022-07-04T08:24:32Z</time>
      </trkpt>
      <trkpt lat="42.737217" lon="-1.3543206">
        <time>2022-07-04T08:24:33Z</time>
      </trkpt>
      <trkpt lat="42.73718" lon="-1.3542516">
        <time>2022-07-04T08:24:34Z</time>
      </trkpt>
      <trkpt lat="42.73714" lon="-1.354182">
        <time>2022-07-04T08:24:35Z</time>
      </trkpt>
      <trkpt lat="42.737103" lon="-1.354111">
        <time>2022-07-04T08:24:36Z</time>
      </trkpt>
      <trkpt lat="42.737064" lon="-1.354038">
        <time>2022-07-04T08:24:37Z</time>
      </trkpt>
      <trkpt lat="42.737026" lon="-1.3539633">
        <time>2022-07-04T08:24:38Z</time>
      </trkpt>
      <trkpt lat="42.736984" lon="-1.3538877">
        <time>2022-07-04T08:24:39Z</time>
      </trkpt>
      <trkpt lat="42.736946" lon="-1.353811">
        <time>2022-07-04T08:24:40Z</time>
      </trkpt>
      <trkpt lat="42.736904" lon="-1.3537327">
        <time>2022-07-04T08:24:41Z</time>
      </trkpt>
      <trkpt lat="42.736862" lon="-1.3536533">
        <time>2022-07-04T08:24:42Z</time>
      </trkpt>
      <trkpt lat="42.73682" lon="-1.3535726">
        <time>2022-07-04T08:24:43Z</time>
      </trkpt>
      <trkpt lat="42.736782" lon="-1.353492">
        <time>2022-07-04T08:24:44Z</time>
      </trkpt>
      <trkpt lat="42.73674" lon="-1.3534107">
        <time>2022-07-04T08:24:45Z</time>
      </trkpt>
      <trkpt lat="42.736656" lon="-1.3532447">
        <time>2022-07-04T08:24:47Z</time>
      </trkpt>
      <trkpt lat="42.736614" lon="-1.3531606">
        <time>2022-07-04T08:24:48Z</time>
      </trkpt>
      <trkpt lat="42.736572" lon="-1.3530767">
        <time>2022-07-04T08:24:49Z</time>
      </trkpt>
      <trkpt lat="42.73653" lon="-1.352992">
        <time>2022-07-04T08:24:50Z</time>
      </trkpt>
      <trkpt lat="42.73649" lon="-1.3529084">
        <time>2022-07-04T08:24:51Z</time>
      </trkpt>
      <trkpt lat="42.736443" lon="-1.352825">
        <time>2022-07-04T08:24:52Z</time>
      </trkpt>
      <trkpt lat="42.7364" lon="-1.3527427">
        <time>2022-07-04T08:24:53Z</time>
      </trkpt>
      <trkpt lat="42.73636" lon="-1.3526601">
        <time>2022-07-04T08:24:54Z</time>
      </trkpt>
      <trkpt lat="42.736313" lon="-1.352578">
        <time>2022-07-04T08:24:55Z</time>
      </trkpt>
      <trkpt lat="42.73627" lon="-1.352496">
        <time>2022-07-04T08:24:56Z</time>
      </trkpt>
      <trkpt lat="42.73623" lon="-1.3524137">
        <time>2022-07-04T08:24:57Z</time>
      </trkpt>
      <trkpt lat="42.736187" lon="-1.3523324">
        <time>2022-07-04T08:24:58Z</time>
      </trkpt>
      <trkpt lat="42.736145" lon="-1.3522503">
        <time>2022-07-04T08:24:59Z</time>
      </trkpt>
      <trkpt lat="42.7361" lon="-1.3521683">
        <time>2022-07-04T08:25:00Z</time>
      </trkpt>
      <trkpt lat="42.736057" lon="-1.3520883">
        <time>2022-07-04T08:25:01Z</time>
      </trkpt>
      <trkpt lat="42.736015" lon="-1.3520077">
        <time>2022-07-04T08:25:02Z</time>
      </trkpt>
      <trkpt lat="42.735973" lon="-1.3519278">
        <time>2022-07-04T08:25:03Z</time>
      </trkpt>
      <trkpt lat="42.735928" lon="-1.3518478">
        <time>2022-07-04T08:25:04Z</time>
      </trkpt>
      <trkpt lat="42.735886" lon="-1.3517684">
        <time>2022-07-04T08:25:05Z</time>
      </trkpt>
      <trkpt lat="42.735844" lon="-1.3516897">
        <time>2022-07-04T08:25:06Z</time>
      </trkpt>
      <trkpt lat="42.7358" lon="-1.3516114">
        <time>2022-07-04T08:25:07Z</time>
      </trkpt>
      <trkpt lat="42.73576" lon="-1.3515323">
        <time>2022-07-04T08:25:08Z</time>
      </trkpt>
      <trkpt lat="42.735718" lon="-1.3514547">
        <time>2022-07-04T08:25:09Z</time>
      </trkpt>
      <trkpt lat="42.73568" lon="-1.3513768">
        <time>2022-07-04T08:25:10Z</time>
      </trkpt>
      <trkpt lat="42.735638" lon="-1.3512994">
        <time>2022-07-04T08:25:11Z</time>
      </trkpt>
      <trkpt lat="42.735596" lon="-1.3512211">
        <time>2022-07-04T08:25:12Z</time>
      </trkpt>
      <trkpt lat="42.735558" lon="-1.3511434">
        <time>2022-07-04T08:25:13Z</time>
      </trkpt>
      <trkpt lat="42.735516" lon="-1.3510671">
        <time>2022-07-04T08:25:14Z</time>
      </trkpt>
      <trkpt lat="42.735477" lon="-1.35099">
        <time>2022-07-04T08:25:15Z</time>
      </trkpt>
      <trkpt lat="42.73544" lon="-1.3509138">
        <time>2022-07-04T08:25:16Z</time>
      </trkpt>
      <trkpt lat="42.7354" lon="-1.3508377">
        <time>2022-07-04T08:25:17Z</time>
      </trkpt>
      <trkpt lat="42.735363" lon="-1.3507634">
        <time>2022-07-04T08:25:18Z</time>
      </trkpt>
      <trkpt lat="42.735325" lon="-1.350689">
        <time>2022-07-04T08:25:19Z</time>
      </trkpt>
      <trkpt lat="42.735287" lon="-1.3506154">
        <time>2022-07-04T08:25:20Z</time>
      </trkpt>
      <trkpt lat="42.73525" lon="-1.3505421">
        <time>2022-07-04T08:25:21Z</time>
      </trkpt>
      <trkpt lat="42.73521" lon="-1.3504701">
        <time>2022-07-04T08:25:22Z</time>
      </trkpt>
      <trkpt lat="42.735172" lon="-1.3503981">
        <time>2022-07-04T08:25:23Z</time>
      </trkpt>
      <trkpt lat="42.735138" lon="-1.3503268">
        <time>2022-07-04T08:25:24Z</time>
      </trkpt>
      <trkpt lat="42.7351" lon="-1.3502557">
        <time>2022-07-04T08:25:25Z</time>
      </trkpt>
      <trkpt lat="42.735065" lon="-1.3501858">
        <time>2022-07-04T08:25:26Z</time>
      </trkpt>
      <trkpt lat="42.73503" lon="-1.3501151">
        <time>2022-07-04T08:25:27Z</time>
      </trkpt>
      <trkpt lat="42.734997" lon="-1.3500447">
        <time>2022-07-04T08:25:28Z</time>
      </trkpt>
      <trkpt lat="42.734962" lon="-1.3499758">
        <time>2022-07-04T08:25:29Z</time>
      </trkpt>
      <trkpt lat="42.73493" lon="-1.3499078">
        <time>2022-07-04T08:25:30Z</time>
      </trkpt>
      <trkpt lat="42.734894" lon="-1.3498411">
        <time>2022-07-04T08:25:31Z</time>
      </trkpt>
      <trkpt lat="42.73486" lon="-1.3497748">
        <time>2022-07-04T08:25:32Z</time>
      </trkpt>
      <trkpt lat="42.734825" lon="-1.3497088">
        <time>2022-07-04T08:25:33Z</time>
      </trkpt>
      <trkpt lat="42.734795" lon="-1.3496435">
        <time>2022-07-04T08:25:34Z</time>
      </trkpt>
      <trkpt lat="42.73476" lon="-1.3495785">
        <time>2022-07-04T08:25:35Z</time>
      </trkpt>
      <trkpt lat="42.734726" lon="-1.3495141">
        <time>2022-07-04T08:25:36Z</time>
      </trkpt>
      <trkpt lat="42.734695" lon="-1.3494495">
        <time>2022-07-04T08:25:37Z</time>
      </trkpt>
      <trkpt lat="42.73466" lon="-1.3493861">
        <time>2022-07-04T08:25:38Z</time>
      </trkpt>
      <trkpt lat="42.73463" lon="-1.3493215">
        <time>2022-07-04T08:25:39Z</time>
      </trkpt>
      <trkpt lat="42.7346" lon="-1.3492562">
        <time>2022-07-04T08:25:40Z</time>
      </trkpt>
      <trkpt lat="42.73457" lon="-1.3491915">
        <time>2022-07-04T08:25:41Z</time>
      </trkpt>
      <trkpt lat="42.73454" lon="-1.3491279">
        <time>2022-07-04T08:25:42Z</time>
      </trkpt>
      <trkpt lat="42.734512" lon="-1.3490632">
        <time>2022-07-04T08:25:43Z</time>
      </trkpt>
      <trkpt lat="42.734486" lon="-1.3489988">
        <time>2022-07-04T08:25:44Z</time>
      </trkpt>
      <trkpt lat="42.73446" lon="-1.3489345">
        <time>2022-07-04T08:25:45Z</time>
      </trkpt>
      <trkpt lat="42.734436" lon="-1.3488692">
        <time>2022-07-04T08:25:46Z</time>
      </trkpt>
      <trkpt lat="42.734413" lon="-1.3488048">
        <time>2022-07-04T08:25:47Z</time>
      </trkpt>
      <trkpt lat="42.73439" lon="-1.3487406">
        <time>2022-07-04T08:25:48Z</time>
      </trkpt>
      <trkpt lat="42.734367" lon="-1.3486772">
        <time>2022-07-04T08:25:49Z</time>
      </trkpt>
      <trkpt lat="42.734344" lon="-1.3486146">
        <time>2022-07-04T08:25:50Z</time>
      </trkpt>
      <trkpt lat="42.73431" lon="-1.3484889">
        <time>2022-07-04T08:25:52Z</time>
      </trkpt>
      <trkpt lat="42.734283" lon="-1.3483655">
        <time>2022-07-04T08:25:54Z</time>
      </trkpt>
      <trkpt lat="42.73426" lon="-1.3482485">
        <time>2022-07-04T08:25:56Z</time>
      </trkpt>
      <trkpt lat="42.73424" lon="-1.3481486">
        <time>2022-07-04T08:25:58Z</time>
      </trkpt>
      <trkpt lat="42.734222" lon="-1.3480725">
        <time>2022-07-04T08:26:00Z</time>
      </trkpt>
      <trkpt lat="42.73421" lon="-1.3480176">
        <time>2022-07-04T08:26:03Z</time>
      </trkpt>
      <trkpt lat="42.734203" lon="-1.3479213">
        <time>2022-07-04T08:26:20Z</time>
      </trkpt>
      <trkpt lat="42.7342" lon="-1.3478522">
        <time>2022-07-04T08:26:23Z</time>
      </trkpt>
      <trkpt lat="42.734188" lon="-1.3477542">
        <time>2022-07-04T08:26:26Z</time>
      </trkpt>
      <trkpt lat="42.73418" lon="-1.3476778">
        <time>2022-07-04T08:26:28Z</time>
      </trkpt>
      <trkpt lat="42.734173" lon="-1.3475952">
        <time>2022-07-04T08:26:30Z</time>
      </trkpt>
      <trkpt lat="42.734165" lon="-1.3475046">
        <time>2022-07-04T08:26:32Z</time>
      </trkpt>
      <trkpt lat="42.734154" lon="-1.3474076">
        <time>2022-07-04T08:26:34Z</time>
      </trkpt>
      <trkpt lat="42.734142" lon="-1.3473052">
        <time>2022-07-04T08:26:36Z</time>
      </trkpt>
      <trkpt lat="42.734135" lon="-1.3472012">
        <time>2022-07-04T08:26:38Z</time>
      </trkpt>
      <trkpt lat="42.734123" lon="-1.3470992">
        <time>2022-07-04T08:26:40Z</time>
      </trkpt>
      <trkpt lat="42.73411" lon="-1.3469945">
        <time>2022-07-04T08:26:42Z</time>
      </trkpt>
      <trkpt lat="42.7341" lon="-1.3468813">
        <time>2022-07-04T08:26:44Z</time>
      </trkpt>
      <trkpt lat="42.73409" lon="-1.3467699">
        <time>2022-07-04T08:26:46Z</time>
      </trkpt>
      <trkpt lat="42.73408" lon="-1.3466625">
        <time>2022-07-04T08:26:48Z</time>
      </trkpt>
      <trkpt lat="42.73407" lon="-1.3465496">
        <time>2022-07-04T08:26:50Z</time>
      </trkpt>
      <trkpt lat="42.734062" lon="-1.3464303">
        <time>2022-07-04T08:26:52Z</time>
      </trkpt>
      <trkpt lat="42.734055" lon="-1.3463045">
        <time>2022-07-04T08:26:54Z</time>
      </trkpt>
      <trkpt lat="42.73405" lon="-1.3461736">
        <time>2022-07-04T08:26:56Z</time>
      </trkpt>
      <trkpt lat="42.734043" lon="-1.3459675">
        <time>2022-07-04T08:26:59Z</time>
      </trkpt>
      <trkpt lat="42.73404" lon="-1.3458976">
        <time>2022-07-04T08:27:00Z</time>
      </trkpt>
      <trkpt lat="42.734035" lon="-1.3458276">
        <time>2022-07-04T08:27:01Z</time>
      </trkpt>
      <trkpt lat="42.73403" lon="-1.3456882">
        <time>2022-07-04T08:27:03Z</time>
      </trkpt>
      <trkpt lat="42.734028" lon="-1.3456179">
        <time>2022-07-04T08:27:04Z</time>
      </trkpt>
      <trkpt lat="42.734028" lon="-1.3455456">
        <time>2022-07-04T08:27:05Z</time>
      </trkpt>
      <trkpt lat="42.734024" lon="-1.3454726">
        <time>2022-07-04T08:27:06Z</time>
      </trkpt>
      <trkpt lat="42.734024" lon="-1.3453983">
        <time>2022-07-04T08:27:07Z</time>
      </trkpt>
      <trkpt lat="42.73402" lon="-1.345323">
        <time>2022-07-04T08:27:08Z</time>
      </trkpt>
      <trkpt lat="42.734016" lon="-1.3452456">
        <time>2022-07-04T08:27:09Z</time>
      </trkpt>
      <trkpt lat="42.734013" lon="-1.3451682">
        <time>2022-07-04T08:27:10Z</time>
      </trkpt>
      <trkpt lat="42.73401" lon="-1.3450843">
        <time>2022-07-04T08:27:11Z</time>
      </trkpt>
      <trkpt lat="42.734005" lon="-1.345006">
        <time>2022-07-04T08:27:12Z</time>
      </trkpt>
      <trkpt lat="42.734" lon="-1.3449262">
        <time>2022-07-04T08:27:13Z</time>
      </trkpt>
      <trkpt lat="42.734" lon="-1.3448393">
        <time>2022-07-04T08:27:14Z</time>
      </trkpt>
      <trkpt lat="42.733997" lon="-1.3447529">
        <time>2022-07-04T08:27:15Z</time>
      </trkpt>
      <trkpt lat="42.733997" lon="-1.3446729">
        <time>2022-07-04T08:27:16Z</time>
      </trkpt>
      <trkpt lat="42.733994" lon="-1.3445913">
        <time>2022-07-04T08:27:17Z</time>
      </trkpt>
      <trkpt lat="42.733994" lon="-1.3445086">
        <time>2022-07-04T08:27:18Z</time>
      </trkpt>
      <trkpt lat="42.73399" lon="-1.344424">
        <time>2022-07-04T08:27:19Z</time>
      </trkpt>
      <trkpt lat="42.73399" lon="-1.344339">
        <time>2022-07-04T08:27:20Z</time>
      </trkpt>
      <trkpt lat="42.733986" lon="-1.344246">
        <time>2022-07-04T08:27:21Z</time>
      </trkpt>
      <trkpt lat="42.733986" lon="-1.3441603">
        <time>2022-07-04T08:27:22Z</time>
      </trkpt>
      <trkpt lat="42.733986" lon="-1.3440729">
        <time>2022-07-04T08:27:23Z</time>
      </trkpt>
      <trkpt lat="42.733982" lon="-1.3439783">
        <time>2022-07-04T08:27:24Z</time>
      </trkpt>
      <trkpt lat="42.73398" lon="-1.343885">
        <time>2022-07-04T08:27:25Z</time>
      </trkpt>
      <trkpt lat="42.733974" lon="-1.3437923">
        <time>2022-07-04T08:27:26Z</time>
      </trkpt>
      <trkpt lat="42.733974" lon="-1.3437057">
        <time>2022-07-04T08:27:27Z</time>
      </trkpt>
      <trkpt lat="42.73397" lon="-1.343617">
        <time>2022-07-04T08:27:28Z</time>
      </trkpt>
      <trkpt lat="42.733967" lon="-1.3435271">
        <time>2022-07-04T08:27:29Z</time>
      </trkpt>
      <trkpt lat="42.733967" lon="-1.34343">
        <time>2022-07-04T08:27:30Z</time>
      </trkpt>
      <trkpt lat="42.733963" lon="-1.3433347">
        <time>2022-07-04T08:27:31Z</time>
      </trkpt>
      <trkpt lat="42.733963" lon="-1.343247">
        <time>2022-07-04T08:27:32Z</time>
      </trkpt>
      <trkpt lat="42.733963" lon="-1.3431587">
        <time>2022-07-04T08:27:33Z</time>
      </trkpt>
      <trkpt lat="42.73396" lon="-1.3430687">
        <time>2022-07-04T08:27:34Z</time>
      </trkpt>
      <trkpt lat="42.733955" lon="-1.342978">
        <time>2022-07-04T08:27:35Z</time>
      </trkpt>
      <trkpt lat="42.733955" lon="-1.3428861">
        <time>2022-07-04T08:27:36Z</time>
      </trkpt>
      <trkpt lat="42.73395" lon="-1.3427944">
        <time>2022-07-04T08:27:37Z</time>
      </trkpt>
      <trkpt lat="42.733948" lon="-1.3427017">
        <time>2022-07-04T08:27:38Z</time>
      </trkpt>
      <trkpt lat="42.73394" lon="-1.3426098">
        <time>2022-07-04T08:27:39Z</time>
      </trkpt>
      <trkpt lat="42.733932" lon="-1.3425177">
        <time>2022-07-04T08:27:40Z</time>
      </trkpt>
      <trkpt lat="42.733925" lon="-1.3424257">
        <time>2022-07-04T08:27:41Z</time>
      </trkpt>
      <trkpt lat="42.733917" lon="-1.3423347">
        <time>2022-07-04T08:27:42Z</time>
      </trkpt>
      <trkpt lat="42.733906" lon="-1.3422377">
        <time>2022-07-04T08:27:43Z</time>
      </trkpt>
      <trkpt lat="42.733894" lon="-1.3421487">
        <time>2022-07-04T08:27:44Z</time>
      </trkpt>
      <trkpt lat="42.73388" lon="-1.3420597">
        <time>2022-07-04T08:27:45Z</time>
      </trkpt>
      <trkpt lat="42.73386" lon="-1.3419727">
        <time>2022-07-04T08:27:46Z</time>
      </trkpt>
      <trkpt lat="42.73384" lon="-1.3418864">
        <time>2022-07-04T08:27:47Z</time>
      </trkpt>
      <trkpt lat="42.733818" lon="-1.3417947">
        <time>2022-07-04T08:27:48Z</time>
      </trkpt>
      <trkpt lat="42.733795" lon="-1.3417121">
        <time>2022-07-04T08:27:49Z</time>
      </trkpt>
      <trkpt lat="42.73377" lon="-1.3416297">
        <time>2022-07-04T08:27:50Z</time>
      </trkpt>
      <trkpt lat="42.73374" lon="-1.3415481">
        <time>2022-07-04T08:27:51Z</time>
      </trkpt>
      <trkpt lat="42.73371" lon="-1.3414681">
        <time>2022-07-04T08:27:52Z</time>
      </trkpt>
      <trkpt lat="42.73368" lon="-1.3413894">
        <time>2022-07-04T08:27:53Z</time>
      </trkpt>
      <trkpt lat="42.73365" lon="-1.341312">
        <time>2022-07-04T08:27:54Z</time>
      </trkpt>
      <trkpt lat="42.733616" lon="-1.3412337">
        <time>2022-07-04T08:27:55Z</time>
      </trkpt>
      <trkpt lat="42.73358" lon="-1.34116">
        <time>2022-07-04T08:27:56Z</time>
      </trkpt>
      <trkpt lat="42.733547" lon="-1.3410897">
        <time>2022-07-04T08:27:57Z</time>
      </trkpt>
      <trkpt lat="42.733513" lon="-1.3410234">
        <time>2022-07-04T08:27:58Z</time>
      </trkpt>
      <trkpt lat="42.73348" lon="-1.3409598">
        <time>2022-07-04T08:27:59Z</time>
      </trkpt>
      <trkpt lat="42.733444" lon="-1.3408995">
        <time>2022-07-04T08:28:00Z</time>
      </trkpt>
      <trkpt lat="42.733406" lon="-1.3408421">
        <time>2022-07-04T08:28:01Z</time>
      </trkpt>
      <trkpt lat="42.733368" lon="-1.3407874">
        <time>2022-07-04T08:28:02Z</time>
      </trkpt>
      <trkpt lat="42.733295" lon="-1.3406851">
        <time>2022-07-04T08:28:04Z</time>
      </trkpt>
      <trkpt lat="42.73326" lon="-1.3406361">
        <time>2022-07-04T08:28:05Z</time>
      </trkpt>
      <trkpt lat="42.733223" lon="-1.3405875">
        <time>2022-07-04T08:28:06Z</time>
      </trkpt>
      <trkpt lat="42.733154" lon="-1.3404925">
        <time>2022-07-04T08:28:08Z</time>
      </trkpt>
      <trkpt lat="42.73309" lon="-1.3404028">
        <time>2022-07-04T08:28:10Z</time>
      </trkpt>
      <trkpt lat="42.733055" lon="-1.3403594">
        <time>2022-07-04T08:28:11Z</time>
      </trkpt>
      <trkpt lat="42.73299" lon="-1.3402765">
        <time>2022-07-04T08:28:13Z</time>
      </trkpt>
      <trkpt lat="42.73293" lon="-1.3401945">
        <time>2022-07-04T08:28:15Z</time>
      </trkpt>
      <trkpt lat="42.73286" lon="-1.3401122">
        <time>2022-07-04T08:28:17Z</time>
      </trkpt>
      <trkpt lat="42.732796" lon="-1.3400341">
        <time>2022-07-04T08:28:19Z</time>
      </trkpt>
      <trkpt lat="42.73273" lon="-1.3399595">
        <time>2022-07-04T08:28:21Z</time>
      </trkpt>
      <trkpt lat="42.732662" lon="-1.3398895">
        <time>2022-07-04T08:28:23Z</time>
      </trkpt>
      <trkpt lat="42.73259" lon="-1.3398259">
        <time>2022-07-04T08:28:25Z</time>
      </trkpt>
      <trkpt lat="42.732517" lon="-1.3397689">
        <time>2022-07-04T08:28:27Z</time>
      </trkpt>
      <trkpt lat="42.732445" lon="-1.3397115">
        <time>2022-07-04T08:28:29Z</time>
      </trkpt>
      <trkpt lat="42.732376" lon="-1.3396531">
        <time>2022-07-04T08:28:31Z</time>
      </trkpt>
      <trkpt lat="42.73231" lon="-1.3395982">
        <time>2022-07-04T08:28:33Z</time>
      </trkpt>
      <trkpt lat="42.73225" lon="-1.3395518">
        <time>2022-07-04T08:28:35Z</time>
      </trkpt>
      <trkpt lat="42.73219" lon="-1.3395122">
        <time>2022-07-04T08:28:37Z</time>
      </trkpt>
      <trkpt lat="42.73213" lon="-1.3394789">
        <time>2022-07-04T08:28:39Z</time>
      </trkpt>
      <trkpt lat="42.73207" lon="-1.3394516">
        <time>2022-07-04T08:28:41Z</time>
      </trkpt>
      <trkpt lat="42.73201" lon="-1.3394248">
        <time>2022-07-04T08:28:43Z</time>
      </trkpt>
      <trkpt lat="42.731953" lon="-1.3394039">
        <time>2022-07-04T08:28:45Z</time>
      </trkpt>
      <trkpt lat="42.7319" lon="-1.3393852">
        <time>2022-07-04T08:28:47Z</time>
      </trkpt>
      <trkpt lat="42.73183" lon="-1.3393575">
        <time>2022-07-04T08:28:50Z</time>
      </trkpt>
      <trkpt lat="42.731762" lon="-1.3393329">
        <time>2022-07-04T08:28:53Z</time>
      </trkpt>
      <trkpt lat="42.731697" lon="-1.3393092">
        <time>2022-07-04T08:28:56Z</time>
      </trkpt>
      <trkpt lat="42.731632" lon="-1.3392832">
        <time>2022-07-04T08:28:59Z</time>
      </trkpt>
      <trkpt lat="42.731567" lon="-1.3392612">
        <time>2022-07-04T08:29:02Z</time>
      </trkpt>
      <trkpt lat="42.731503" lon="-1.3392396">
        <time>2022-07-04T08:29:05Z</time>
      </trkpt>
      <trkpt lat="42.73142" lon="-1.3392103">
        <time>2022-07-04T08:29:09Z</time>
      </trkpt>
      <trkpt lat="42.731373" lon="-1.3391929">
        <time>2022-07-04T08:29:11Z</time>
      </trkpt>
      <trkpt lat="42.7313" lon="-1.3391602">
        <time>2022-07-04T08:29:14Z</time>
      </trkpt>
      <trkpt lat="42.73125" lon="-1.3391342">
        <time>2022-07-04T08:29:16Z</time>
      </trkpt>
      <trkpt lat="42.731197" lon="-1.3391069">
        <time>2022-07-04T08:29:18Z</time>
      </trkpt>
      <trkpt lat="42.731144" lon="-1.3390733">
        <time>2022-07-04T08:29:20Z</time>
      </trkpt>
      <trkpt lat="42.731083" lon="-1.3390392">
        <time>2022-07-04T08:29:22Z</time>
      </trkpt>
      <trkpt lat="42.73102" lon="-1.3390015">
        <time>2022-07-04T08:29:24Z</time>
      </trkpt>
      <trkpt lat="42.73096" lon="-1.3389592">
        <time>2022-07-04T08:29:26Z</time>
      </trkpt>
      <trkpt lat="42.7309" lon="-1.3389122">
        <time>2022-07-04T08:29:28Z</time>
      </trkpt>
      <trkpt lat="42.730835" lon="-1.3388603">
        <time>2022-07-04T08:29:30Z</time>
      </trkpt>
      <trkpt lat="42.730766" lon="-1.3388005">
        <time>2022-07-04T08:29:32Z</time>
      </trkpt>
      <trkpt lat="42.73069" lon="-1.3387359">
        <time>2022-07-04T08:29:34Z</time>
      </trkpt>
      <trkpt lat="42.73061" lon="-1.3386669">
        <time>2022-07-04T08:29:36Z</time>
      </trkpt>
      <trkpt lat="42.730534" lon="-1.3385973">
        <time>2022-07-04T08:29:38Z</time>
      </trkpt>
      <trkpt lat="42.73049" lon="-1.3385613">
        <time>2022-07-04T08:29:39Z</time>
      </trkpt>
      <trkpt lat="42.730408" lon="-1.3384846">
        <time>2022-07-04T08:29:41Z</time>
      </trkpt>
      <trkpt lat="42.730316" lon="-1.3384036">
        <time>2022-07-04T08:29:43Z</time>
      </trkpt>
      <trkpt lat="42.730267" lon="-1.3383623">
        <time>2022-07-04T08:29:44Z</time>
      </trkpt>
      <trkpt lat="42.730217" lon="-1.33832">
        <time>2022-07-04T08:29:45Z</time>
      </trkpt>
      <trkpt lat="42.730167" lon="-1.338275">
        <time>2022-07-04T08:29:46Z</time>
      </trkpt>
      <trkpt lat="42.730114" lon="-1.3382246">
        <time>2022-07-04T08:29:47Z</time>
      </trkpt>
      <trkpt lat="42.73006" lon="-1.3381729">
        <time>2022-07-04T08:29:48Z</time>
      </trkpt>
      <trkpt lat="42.730003" lon="-1.3381217">
        <time>2022-07-04T08:29:49Z</time>
      </trkpt>
      <trkpt lat="42.729954" lon="-1.3380716">
        <time>2022-07-04T08:29:50Z</time>
      </trkpt>
      <trkpt lat="42.729897" lon="-1.3380153">
        <time>2022-07-04T08:29:51Z</time>
      </trkpt>
      <trkpt lat="42.729843" lon="-1.3379583">
        <time>2022-07-04T08:29:52Z</time>
      </trkpt>
      <trkpt lat="42.729786" lon="-1.3379006">
        <time>2022-07-04T08:29:53Z</time>
      </trkpt>
      <trkpt lat="42.72973" lon="-1.3378416">
        <time>2022-07-04T08:29:54Z</time>
      </trkpt>
      <trkpt lat="42.729675" lon="-1.33778">
        <time>2022-07-04T08:29:55Z</time>
      </trkpt>
      <trkpt lat="42.729618" lon="-1.3377147">
        <time>2022-07-04T08:29:56Z</time>
      </trkpt>
      <trkpt lat="42.72956" lon="-1.3376473">
        <time>2022-07-04T08:29:57Z</time>
      </trkpt>
      <trkpt lat="42.729504" lon="-1.337578">
        <time>2022-07-04T08:29:58Z</time>
      </trkpt>
      <trkpt lat="42.72945" lon="-1.3375053">
        <time>2022-07-04T08:29:59Z</time>
      </trkpt>
      <trkpt lat="42.729393" lon="-1.337429">
        <time>2022-07-04T08:30:00Z</time>
      </trkpt>
      <trkpt lat="42.72934" lon="-1.337349">
        <time>2022-07-04T08:30:01Z</time>
      </trkpt>
      <trkpt lat="42.72929" lon="-1.337265">
        <time>2022-07-04T08:30:02Z</time>
      </trkpt>
      <trkpt lat="42.729244" lon="-1.3371791">
        <time>2022-07-04T08:30:03Z</time>
      </trkpt>
      <trkpt lat="42.7292" lon="-1.337091">
        <time>2022-07-04T08:30:04Z</time>
      </trkpt>
      <trkpt lat="42.729153" lon="-1.3370004">
        <time>2022-07-04T08:30:05Z</time>
      </trkpt>
      <trkpt lat="42.72911" lon="-1.3369093">
        <time>2022-07-04T08:30:06Z</time>
      </trkpt>
      <trkpt lat="42.729073" lon="-1.336818">
        <time>2022-07-04T08:30:07Z</time>
      </trkpt>
      <trkpt lat="42.729034" lon="-1.3367267">
        <time>2022-07-04T08:30:08Z</time>
      </trkpt>
      <trkpt lat="42.729" lon="-1.3366354">
        <time>2022-07-04T08:30:09Z</time>
      </trkpt>
      <trkpt lat="42.72897" lon="-1.3365433">
        <time>2022-07-04T08:30:10Z</time>
      </trkpt>
      <trkpt lat="42.72894" lon="-1.3364507">
        <time>2022-07-04T08:30:11Z</time>
      </trkpt>
      <trkpt lat="42.728897" lon="-1.3362653">
        <time>2022-07-04T08:30:13Z</time>
      </trkpt>
      <trkpt lat="42.728878" lon="-1.3361727">
        <time>2022-07-04T08:30:14Z</time>
      </trkpt>
      <trkpt lat="42.728844" lon="-1.3359884">
        <time>2022-07-04T08:30:16Z</time>
      </trkpt>
      <trkpt lat="42.72883" lon="-1.3358971">
        <time>2022-07-04T08:30:17Z</time>
      </trkpt>
      <trkpt lat="42.728817" lon="-1.3358047">
        <time>2022-07-04T08:30:18Z</time>
      </trkpt>
      <trkpt lat="42.72881" lon="-1.3357134">
        <time>2022-07-04T08:30:19Z</time>
      </trkpt>
      <trkpt lat="42.728798" lon="-1.3356228">
        <time>2022-07-04T08:30:20Z</time>
      </trkpt>
      <trkpt lat="42.72879" lon="-1.3355324">
        <time>2022-07-04T08:30:21Z</time>
      </trkpt>
      <trkpt lat="42.728786" lon="-1.335443">
        <time>2022-07-04T08:30:22Z</time>
      </trkpt>
      <trkpt lat="42.728783" lon="-1.3353537">
        <time>2022-07-04T08:30:23Z</time>
      </trkpt>
      <trkpt lat="42.728775" lon="-1.3352644">
        <time>2022-07-04T08:30:24Z</time>
      </trkpt>
      <trkpt lat="42.72877" lon="-1.3351754">
        <time>2022-07-04T08:30:25Z</time>
      </trkpt>
      <trkpt lat="42.728767" lon="-1.3350861">
        <time>2022-07-04T08:30:26Z</time>
      </trkpt>
      <trkpt lat="42.72876" lon="-1.3349965">
        <time>2022-07-04T08:30:27Z</time>
      </trkpt>
      <trkpt lat="42.728756" lon="-1.3349074">
        <time>2022-07-04T08:30:28Z</time>
      </trkpt>
      <trkpt lat="42.72875" lon="-1.3348178">
        <time>2022-07-04T08:30:29Z</time>
      </trkpt>
      <trkpt lat="42.728745" lon="-1.3347294">
        <time>2022-07-04T08:30:30Z</time>
      </trkpt>
      <trkpt lat="42.72874" lon="-1.3346407">
        <time>2022-07-04T08:30:31Z</time>
      </trkpt>
      <trkpt lat="42.728733" lon="-1.3345531">
        <time>2022-07-04T08:30:32Z</time>
      </trkpt>
      <trkpt lat="42.72873" lon="-1.3344655">
        <time>2022-07-04T08:30:33Z</time>
      </trkpt>
      <trkpt lat="42.72872" lon="-1.3343785">
        <time>2022-07-04T08:30:34Z</time>
      </trkpt>
      <trkpt lat="42.728714" lon="-1.3342915">
        <time>2022-07-04T08:30:35Z</time>
      </trkpt>
      <trkpt lat="42.728706" lon="-1.3342044">
        <time>2022-07-04T08:30:36Z</time>
      </trkpt>
      <trkpt lat="42.7287" lon="-1.3341181">
        <time>2022-07-04T08:30:37Z</time>
      </trkpt>
      <trkpt lat="42.72869" lon="-1.3340318">
        <time>2022-07-04T08:30:38Z</time>
      </trkpt>
      <trkpt lat="42.728683" lon="-1.3339468">
        <time>2022-07-04T08:30:39Z</time>
      </trkpt>
      <trkpt lat="42.728676" lon="-1.3338622">
        <time>2022-07-04T08:30:40Z</time>
      </trkpt>
      <trkpt lat="42.728672" lon="-1.3337772">
        <time>2022-07-04T08:30:41Z</time>
      </trkpt>
      <trkpt lat="42.728664" lon="-1.3336921">
        <time>2022-07-04T08:30:42Z</time>
      </trkpt>
      <trkpt lat="42.728657" lon="-1.3336071">
        <time>2022-07-04T08:30:43Z</time>
      </trkpt>
      <trkpt lat="42.72865" lon="-1.3335215">
        <time>2022-07-04T08:30:44Z</time>
      </trkpt>
      <trkpt lat="42.72864" lon="-1.3334361">
        <time>2022-07-04T08:30:45Z</time>
      </trkpt>
      <trkpt lat="42.728634" lon="-1.3333515">
        <time>2022-07-04T08:30:46Z</time>
      </trkpt>
      <trkpt lat="42.728626" lon="-1.3332671">
        <time>2022-07-04T08:30:47Z</time>
      </trkpt>
      <trkpt lat="42.72862" lon="-1.3331845">
        <time>2022-07-04T08:30:48Z</time>
      </trkpt>
      <trkpt lat="42.72861" lon="-1.3331025">
        <time>2022-07-04T08:30:49Z</time>
      </trkpt>
      <trkpt lat="42.728603" lon="-1.3330219">
        <time>2022-07-04T08:30:50Z</time>
      </trkpt>
      <trkpt lat="42.728592" lon="-1.3329412">
        <time>2022-07-04T08:30:51Z</time>
      </trkpt>
      <trkpt lat="42.728584" lon="-1.3328615">
        <time>2022-07-04T08:30:52Z</time>
      </trkpt>
      <trkpt lat="42.72858" lon="-1.3327821">
        <time>2022-07-04T08:30:53Z</time>
      </trkpt>
      <trkpt lat="42.728573" lon="-1.3327042">
        <time>2022-07-04T08:30:54Z</time>
      </trkpt>
      <trkpt lat="42.728565" lon="-1.3326275">
        <time>2022-07-04T08:30:55Z</time>
      </trkpt>
      <trkpt lat="42.728558" lon="-1.3325515">
        <time>2022-07-04T08:30:56Z</time>
      </trkpt>
      <trkpt lat="42.72855" lon="-1.3324772">
        <time>2022-07-04T08:30:57Z</time>
      </trkpt>
      <trkpt lat="42.728542" lon="-1.3324039">
        <time>2022-07-04T08:30:58Z</time>
      </trkpt>
      <trkpt lat="42.728535" lon="-1.3323308">
        <time>2022-07-04T08:30:59Z</time>
      </trkpt>
      <trkpt lat="42.728527" lon="-1.3322579">
        <time>2022-07-04T08:31:00Z</time>
      </trkpt>
      <trkpt lat="42.728523" lon="-1.3321851">
        <time>2022-07-04T08:31:01Z</time>
      </trkpt>
      <trkpt lat="42.728516" lon="-1.3321135">
        <time>2022-07-04T08:31:02Z</time>
      </trkpt>
      <trkpt lat="42.728504" lon="-1.3319728">
        <time>2022-07-04T08:31:04Z</time>
      </trkpt>
      <trkpt lat="42.7285" lon="-1.3319052">
        <time>2022-07-04T08:31:05Z</time>
      </trkpt>
      <trkpt lat="42.728493" lon="-1.3318383">
        <time>2022-07-04T08:31:06Z</time>
      </trkpt>
      <trkpt lat="42.728485" lon="-1.3317065">
        <time>2022-07-04T08:31:08Z</time>
      </trkpt>
      <trkpt lat="42.72848" lon="-1.3316406">
        <time>2022-07-04T08:31:09Z</time>
      </trkpt>
      <trkpt lat="42.72847" lon="-1.3315085">
        <time>2022-07-04T08:31:11Z</time>
      </trkpt>
      <trkpt lat="42.72846" lon="-1.3313799">
        <time>2022-07-04T08:31:13Z</time>
      </trkpt>
      <trkpt lat="42.728447" lon="-1.3312526">
        <time>2022-07-04T08:31:15Z</time>
      </trkpt>
      <trkpt lat="42.728436" lon="-1.3311262">
        <time>2022-07-04T08:31:17Z</time>
      </trkpt>
      <trkpt lat="42.728428" lon="-1.3310016">
        <time>2022-07-04T08:31:19Z</time>
      </trkpt>
      <trkpt lat="42.728416" lon="-1.3308799">
        <time>2022-07-04T08:31:21Z</time>
      </trkpt>
      <trkpt lat="42.72841" lon="-1.3307593">
        <time>2022-07-04T08:31:23Z</time>
      </trkpt>
      <trkpt lat="42.728397" lon="-1.3306403">
        <time>2022-07-04T08:31:25Z</time>
      </trkpt>
      <trkpt lat="42.72839" lon="-1.3305196">
        <time>2022-07-04T08:31:27Z</time>
      </trkpt>
      <trkpt lat="42.72838" lon="-1.3303943">
        <time>2022-07-04T08:31:29Z</time>
      </trkpt>
      <trkpt lat="42.728374" lon="-1.3302683">
        <time>2022-07-04T08:31:31Z</time>
      </trkpt>
      <trkpt lat="42.728374" lon="-1.3301423">
        <time>2022-07-04T08:31:33Z</time>
      </trkpt>
      <trkpt lat="42.728374" lon="-1.3300129">
        <time>2022-07-04T08:31:35Z</time>
      </trkpt>
      <trkpt lat="42.72838" lon="-1.3298866">
        <time>2022-07-04T08:31:37Z</time>
      </trkpt>
      <trkpt lat="42.728382" lon="-1.329754">
        <time>2022-07-04T08:31:39Z</time>
      </trkpt>
      <trkpt lat="42.728386" lon="-1.3296793">
        <time>2022-07-04T08:31:40Z</time>
      </trkpt>
      <trkpt lat="42.728394" lon="-1.3296039">
        <time>2022-07-04T08:31:41Z</time>
      </trkpt>
      <trkpt lat="42.728397" lon="-1.3295333">
        <time>2022-07-04T08:31:42Z</time>
      </trkpt>
      <trkpt lat="42.7284" lon="-1.32946">
        <time>2022-07-04T08:31:43Z</time>
      </trkpt>
      <trkpt lat="42.72841" lon="-1.3293849">
        <time>2022-07-04T08:31:44Z</time>
      </trkpt>
      <trkpt lat="42.728416" lon="-1.329309">
        <time>2022-07-04T08:31:45Z</time>
      </trkpt>
      <trkpt lat="42.728424" lon="-1.3292263">
        <time>2022-07-04T08:31:46Z</time>
      </trkpt>
      <trkpt lat="42.72843" lon="-1.3291427">
        <time>2022-07-04T08:31:47Z</time>
      </trkpt>
      <trkpt lat="42.72844" lon="-1.329064">
        <time>2022-07-04T08:31:48Z</time>
      </trkpt>
      <trkpt lat="42.728447" lon="-1.3289833">
        <time>2022-07-04T08:31:49Z</time>
      </trkpt>
      <trkpt lat="42.72846" lon="-1.328902">
        <time>2022-07-04T08:31:50Z</time>
      </trkpt>
      <trkpt lat="42.728466" lon="-1.3288187">
        <time>2022-07-04T08:31:51Z</time>
      </trkpt>
      <trkpt lat="42.728477" lon="-1.3287337">
        <time>2022-07-04T08:31:52Z</time>
      </trkpt>
      <trkpt lat="42.728493" lon="-1.3286433">
        <time>2022-07-04T08:31:53Z</time>
      </trkpt>
      <trkpt lat="42.728504" lon="-1.3285546">
        <time>2022-07-04T08:31:54Z</time>
      </trkpt>
      <trkpt lat="42.728523" lon="-1.3284674">
        <time>2022-07-04T08:31:55Z</time>
      </trkpt>
      <trkpt lat="42.72854" lon="-1.3283807">
        <time>2022-07-04T08:31:56Z</time>
      </trkpt>
      <trkpt lat="42.728558" lon="-1.3282937">
        <time>2022-07-04T08:31:57Z</time>
      </trkpt>
      <trkpt lat="42.728577" lon="-1.3282067">
        <time>2022-07-04T08:31:58Z</time>
      </trkpt>
      <trkpt lat="42.7286" lon="-1.3281207">
        <time>2022-07-04T08:31:59Z</time>
      </trkpt>
      <trkpt lat="42.728622" lon="-1.328035">
        <time>2022-07-04T08:32:00Z</time>
      </trkpt>
      <trkpt lat="42.72865" lon="-1.3279504">
        <time>2022-07-04T08:32:01Z</time>
      </trkpt>
      <trkpt lat="42.728676" lon="-1.3278677">
        <time>2022-07-04T08:32:02Z</time>
      </trkpt>
      <trkpt lat="42.728703" lon="-1.3277863">
        <time>2022-07-04T08:32:03Z</time>
      </trkpt>
      <trkpt lat="42.72873" lon="-1.3277084">
        <time>2022-07-04T08:32:04Z</time>
      </trkpt>
      <trkpt lat="42.72876" lon="-1.3276324">
        <time>2022-07-04T08:32:05Z</time>
      </trkpt>
      <trkpt lat="42.728786" lon="-1.3275601">
        <time>2022-07-04T08:32:06Z</time>
      </trkpt>
      <trkpt lat="42.728817" lon="-1.327492">
        <time>2022-07-04T08:32:07Z</time>
      </trkpt>
      <trkpt lat="42.728844" lon="-1.3274283">
        <time>2022-07-04T08:32:08Z</time>
      </trkpt>
      <trkpt lat="42.72887" lon="-1.3273674">
        <time>2022-07-04T08:32:09Z</time>
      </trkpt>
      <trkpt lat="42.7289" lon="-1.3273107">
        <time>2022-07-04T08:32:10Z</time>
      </trkpt>
      <trkpt lat="42.728966" lon="-1.3272043">
        <time>2022-07-04T08:32:12Z</time>
      </trkpt>
      <trkpt lat="42.728992" lon="-1.3271561">
        <time>2022-07-04T08:32:13Z</time>
      </trkpt>
      <trkpt lat="42.72905" lon="-1.327067">
        <time>2022-07-04T08:32:15Z</time>
      </trkpt>
      <trkpt lat="42.729103" lon="-1.3269854">
        <time>2022-07-04T08:32:17Z</time>
      </trkpt>
      <trkpt lat="42.729156" lon="-1.3269085">
        <time>2022-07-04T08:32:19Z</time>
      </trkpt>
      <trkpt lat="42.72921" lon="-1.3268358">
        <time>2022-07-04T08:32:21Z</time>
      </trkpt>
      <trkpt lat="42.72926" lon="-1.3267684">
        <time>2022-07-04T08:32:23Z</time>
      </trkpt>
      <trkpt lat="42.729305" lon="-1.3267068">
        <time>2022-07-04T08:32:25Z</time>
      </trkpt>
      <trkpt lat="42.729347" lon="-1.3266498">
        <time>2022-07-04T08:32:27Z</time>
      </trkpt>
      <trkpt lat="42.72939" lon="-1.3266008">
        <time>2022-07-04T08:32:29Z</time>
      </trkpt>
      <trkpt lat="42.729427" lon="-1.3265548">
        <time>2022-07-04T08:32:31Z</time>
      </trkpt>
      <trkpt lat="42.729465" lon="-1.3265095">
        <time>2022-07-04T08:32:33Z</time>
      </trkpt>
      <trkpt lat="42.729504" lon="-1.3264477">
        <time>2022-07-04T08:32:36Z</time>
      </trkpt>
      <trkpt lat="42.72954" lon="-1.3263878">
        <time>2022-07-04T08:32:39Z</time>
      </trkpt>
      <trkpt lat="42.72958" lon="-1.3263298">
        <time>2022-07-04T08:32:42Z</time>
      </trkpt>
      <trkpt lat="42.72961" lon="-1.3262821">
        <time>2022-07-04T08:32:45Z</time>
      </trkpt>
      <trkpt lat="42.729656" lon="-1.3262081">
        <time>2022-07-04T08:33:12Z</time>
      </trkpt>
      <trkpt lat="42.729687" lon="-1.3261495">
        <time>2022-07-04T08:33:15Z</time>
      </trkpt>
      <trkpt lat="42.729713" lon="-1.3260851">
        <time>2022-07-04T08:33:18Z</time>
      </trkpt>
      <trkpt lat="42.729736" lon="-1.3260198">
        <time>2022-07-04T08:33:21Z</time>
      </trkpt>
      <trkpt lat="42.72976" lon="-1.3259535">
        <time>2022-07-04T08:33:24Z</time>
      </trkpt>
      <trkpt lat="42.729782" lon="-1.3258624">
        <time>2022-07-04T08:33:28Z</time>
      </trkpt>
      <trkpt lat="42.7298" lon="-1.3257937">
        <time>2022-07-04T08:33:31Z</time>
      </trkpt>
      <trkpt lat="42.729824" lon="-1.3257252">
        <time>2022-07-04T08:33:34Z</time>
      </trkpt>
      <trkpt lat="42.729843" lon="-1.3256571">
        <time>2022-07-04T08:33:37Z</time>
      </trkpt>
      <trkpt lat="42.72986" lon="-1.3255851">
        <time>2022-07-04T08:33:40Z</time>
      </trkpt>
      <trkpt lat="42.729877" lon="-1.3255128">
        <time>2022-07-04T08:33:43Z</time>
      </trkpt>
      <trkpt lat="42.72989" lon="-1.3254431">
        <time>2022-07-04T08:33:46Z</time>
      </trkpt>
      <trkpt lat="42.7299" lon="-1.3253804">
        <time>2022-07-04T08:33:49Z</time>
      </trkpt>
      <trkpt lat="42.72991" lon="-1.3252941">
        <time>2022-07-04T08:33:53Z</time>
      </trkpt>
      <trkpt lat="42.729923" lon="-1.3252008">
        <time>2022-07-04T08:33:57Z</time>
      </trkpt>
      <trkpt lat="42.729923" lon="-1.3251365">
        <time>2022-07-04T08:34:00Z</time>
      </trkpt>
      <trkpt lat="42.729923" lon="-1.3250469">
        <time>2022-07-04T08:34:04Z</time>
      </trkpt>
      <trkpt lat="42.729927" lon="-1.3249592">
        <time>2022-07-04T08:34:08Z</time>
      </trkpt>
      <trkpt lat="42.729923" lon="-1.3248888">
        <time>2022-07-04T08:34:11Z</time>
      </trkpt>
      <trkpt lat="42.729916" lon="-1.3248188">
        <time>2022-07-04T08:34:14Z</time>
      </trkpt>
      <trkpt lat="42.72991" lon="-1.3247346">
        <time>2022-07-04T08:34:18Z</time>
      </trkpt>
      <trkpt lat="42.729908" lon="-1.3246565">
        <time>2022-07-04T08:34:22Z</time>
      </trkpt>
      <trkpt lat="42.729904" lon="-1.3245822">
        <time>2022-07-04T08:34:26Z</time>
      </trkpt>
      <trkpt lat="42.729893" lon="-1.3244998">
        <time>2022-07-04T08:34:30Z</time>
      </trkpt>
      <trkpt lat="42.729885" lon="-1.3244236">
        <time>2022-07-04T08:34:34Z</time>
      </trkpt>
      <trkpt lat="42.729874" lon="-1.3243465">
        <time>2022-07-04T08:34:38Z</time>
      </trkpt>
      <trkpt lat="42.729855" lon="-1.3242645">
        <time>2022-07-04T08:34:42Z</time>
      </trkpt>
      <trkpt lat="42.72983" lon="-1.3241879">
        <time>2022-07-04T08:34:46Z</time>
      </trkpt>
      <trkpt lat="42.72981" lon="-1.3241155">
        <time>2022-07-04T08:34:50Z</time>
      </trkpt>
      <trkpt lat="42.72978" lon="-1.3240422">
        <time>2022-07-04T08:34:54Z</time>
      </trkpt>
      <trkpt lat="42.729744" lon="-1.3239728">
        <time>2022-07-04T08:34:58Z</time>
      </trkpt>
      <trkpt lat="42.729717" lon="-1.3239075">
        <time>2022-07-04T08:35:02Z</time>
      </trkpt>
      <trkpt lat="42.729687" lon="-1.3238409">
        <time>2022-07-04T08:35:06Z</time>
      </trkpt>
      <trkpt lat="42.729656" lon="-1.3237749">
        <time>2022-07-04T08:35:10Z</time>
      </trkpt>
      <trkpt lat="42.729614" lon="-1.3237089">
        <time>2022-07-04T08:35:14Z</time>
      </trkpt>
      <trkpt lat="42.729572" lon="-1.3236436">
        <time>2022-07-04T08:35:18Z</time>
      </trkpt>
      <trkpt lat="42.72953" lon="-1.3235832">
        <time>2022-07-04T08:35:22Z</time>
      </trkpt>
      <trkpt lat="42.7295" lon="-1.3235359">
        <time>2022-07-04T08:35:25Z</time>
      </trkpt>
      <trkpt lat="42.729458" lon="-1.3234799">
        <time>2022-07-04T08:35:29Z</time>
      </trkpt>
      <trkpt lat="42.729412" lon="-1.3234305">
        <time>2022-07-04T08:35:33Z</time>
      </trkpt>
      <trkpt lat="42.729355" lon="-1.3233732">
        <time>2022-07-04T08:35:38Z</time>
      </trkpt>
      <trkpt lat="42.7293" lon="-1.3233416">
        <time>2022-07-04T08:35:42Z</time>
      </trkpt>
      <trkpt lat="42.72925" lon="-1.3233095">
        <time>2022-07-04T08:35:46Z</time>
      </trkpt>
      <trkpt lat="42.729202" lon="-1.3232666">
        <time>2022-07-04T08:35:50Z</time>
      </trkpt>
      <trkpt lat="42.729153" lon="-1.3232249">
        <time>2022-07-04T08:35:54Z</time>
      </trkpt>
      <trkpt lat="42.729107" lon="-1.3231826">
        <time>2022-07-04T08:35:58Z</time>
      </trkpt>
      <trkpt lat="42.729065" lon="-1.3231406">
        <time>2022-07-04T08:36:02Z</time>
      </trkpt>
      <trkpt lat="42.72902" lon="-1.3230935">
        <time>2022-07-04T08:36:06Z</time>
      </trkpt>
      <trkpt lat="42.728966" lon="-1.3230582">
        <time>2022-07-04T08:36:10Z</time>
      </trkpt>
      <trkpt lat="42.728912" lon="-1.3230343">
        <time>2022-07-04T08:36:14Z</time>
      </trkpt>
      <trkpt lat="42.72886" lon="-1.3230119">
        <time>2022-07-04T08:36:18Z</time>
      </trkpt>
      <trkpt lat="42.728806" lon="-1.3229896">
        <time>2022-07-04T08:36:22Z</time>
      </trkpt>
      <trkpt lat="42.728752" lon="-1.3229686">
        <time>2022-07-04T08:36:26Z</time>
      </trkpt>
      <trkpt lat="42.728703" lon="-1.3229502">
        <time>2022-07-04T08:36:30Z</time>
      </trkpt>
      <trkpt lat="42.728645" lon="-1.3229322">
        <time>2022-07-04T08:36:34Z</time>
      </trkpt>
      <trkpt lat="42.72858" lon="-1.322915">
        <time>2022-07-04T08:36:38Z</time>
      </trkpt>
      <trkpt lat="42.728523" lon="-1.3228979">
        <time>2022-07-04T08:36:42Z</time>
      </trkpt>
      <trkpt lat="42.72847" lon="-1.3228816">
        <time>2022-07-04T08:36:46Z</time>
      </trkpt>
      <trkpt lat="42.728413" lon="-1.3228673">
        <time>2022-07-04T08:36:50Z</time>
      </trkpt>
      <trkpt lat="42.728355" lon="-1.3228506">
        <time>2022-07-04T08:36:54Z</time>
      </trkpt>
      <trkpt lat="42.7283" lon="-1.3228353">
        <time>2022-07-04T08:36:58Z</time>
      </trkpt>
      <trkpt lat="42.72824" lon="-1.3228253">
        <time>2022-07-04T08:37:02Z</time>
      </trkpt>
      <trkpt lat="42.72818" lon="-1.3228186">
        <time>2022-07-04T08:37:06Z</time>
      </trkpt>
      <trkpt lat="42.72812" lon="-1.3228047">
        <time>2022-07-04T08:37:10Z</time>
      </trkpt>
      <trkpt lat="42.728058" lon="-1.322786">
        <time>2022-07-04T08:37:14Z</time>
      </trkpt>
      <trkpt lat="42.728" lon="-1.3227704">
        <time>2022-07-04T08:37:18Z</time>
      </trkpt>
      <trkpt lat="42.72794" lon="-1.3227587">
        <time>2022-07-04T08:37:22Z</time>
      </trkpt>
      <trkpt lat="42.727882" lon="-1.322745">
        <time>2022-07-04T08:37:26Z</time>
      </trkpt>
      <trkpt lat="42.72782" lon="-1.3227303">
        <time>2022-07-04T08:37:30Z</time>
      </trkpt>
      <trkpt lat="42.727768" lon="-1.3227214">
        <time>2022-07-04T08:37:33Z</time>
      </trkpt>
      <trkpt lat="42.72772" lon="-1.3227136">
        <time>2022-07-04T08:37:36Z</time>
      </trkpt>
      <trkpt lat="42.727665" lon="-1.3227">
        <time>2022-07-04T08:37:39Z</time>
      </trkpt>
      <trkpt lat="42.727585" lon="-1.3226837">
        <time>2022-07-04T08:37:44Z</time>
      </trkpt>
      <trkpt lat="42.72753" lon="-1.322678">
        <time>2022-07-04T08:37:47Z</time>
      </trkpt>
      <trkpt lat="42.72747" lon="-1.3226657">
        <time>2022-07-04T08:37:51Z</time>
      </trkpt>
      <trkpt lat="42.72742" lon="-1.3226497">
        <time>2022-07-04T08:37:54Z</time>
      </trkpt>
      <trkpt lat="42.727352" lon="-1.3226293">
        <time>2022-07-04T08:37:58Z</time>
      </trkpt>
      <trkpt lat="42.727303" lon="-1.3226224">
        <time>2022-07-04T08:38:01Z</time>
      </trkpt>
      <trkpt lat="42.727253" lon="-1.3226147">
        <time>2022-07-04T08:38:04Z</time>
      </trkpt>
      <trkpt lat="42.727192" lon="-1.322602">
        <time>2022-07-04T08:38:08Z</time>
      </trkpt>
      <trkpt lat="42.727127" lon="-1.3225877">
        <time>2022-07-04T08:38:12Z</time>
      </trkpt>
      <trkpt lat="42.727077" lon="-1.3225827">
        <time>2022-07-04T08:38:15Z</time>
      </trkpt>
      <trkpt lat="42.72702" lon="-1.3225687">
        <time>2022-07-04T08:38:18Z</time>
      </trkpt>
      <trkpt lat="42.72697" lon="-1.3225538">
        <time>2022-07-04T08:38:21Z</time>
      </trkpt>
      <trkpt lat="42.726917" lon="-1.3225387">
        <time>2022-07-04T08:38:24Z</time>
      </trkpt>
      <trkpt lat="42.72686" lon="-1.3225291">
        <time>2022-07-04T08:38:27Z</time>
      </trkpt>
      <trkpt lat="42.726807" lon="-1.3225214">
        <time>2022-07-04T08:38:30Z</time>
      </trkpt>
      <trkpt lat="42.726746" lon="-1.3225133">
        <time>2022-07-04T08:38:33Z</time>
      </trkpt>
      <trkpt lat="42.72668" lon="-1.3225074">
        <time>2022-07-04T08:38:36Z</time>
      </trkpt>
      <trkpt lat="42.726616" lon="-1.3224984">
        <time>2022-07-04T08:38:39Z</time>
      </trkpt>
      <trkpt lat="42.72655" lon="-1.3224881">
        <time>2022-07-04T08:38:42Z</time>
      </trkpt>
      <trkpt lat="42.726482" lon="-1.3224784">
        <time>2022-07-04T08:38:45Z</time>
      </trkpt>
      <trkpt lat="42.72641" lon="-1.3224697">
        <time>2022-07-04T08:38:48Z</time>
      </trkpt>
      <trkpt lat="42.72636" lon="-1.3224658">
        <time>2022-07-04T08:38:50Z</time>
      </trkpt>
      <trkpt lat="42.726307" lon="-1.3224621">
        <time>2022-07-04T08:38:52Z</time>
      </trkpt>
      <trkpt lat="42.726257" lon="-1.3224578">
        <time>2022-07-04T08:38:54Z</time>
      </trkpt>
      <trkpt lat="42.72617" lon="-1.3224481">
        <time>2022-07-04T08:38:57Z</time>
      </trkpt>
      <trkpt lat="42.726112" lon="-1.3224424">
        <time>2022-07-04T08:38:59Z</time>
      </trkpt>
      <trkpt lat="42.72605" lon="-1.3224374">
        <time>2022-07-04T08:39:01Z</time>
      </trkpt>
      <trkpt lat="42.725986" lon="-1.3224335">
        <time>2022-07-04T08:39:03Z</time>
      </trkpt>
      <trkpt lat="42.72592" lon="-1.3224298">
        <time>2022-07-04T08:39:05Z</time>
      </trkpt>
      <trkpt lat="42.725853" lon="-1.3224248">
        <time>2022-07-04T08:39:07Z</time>
      </trkpt>
      <trkpt lat="42.725784" lon="-1.3224181">
        <time>2022-07-04T08:39:09Z</time>
      </trkpt>
      <trkpt lat="42.725704" lon="-1.3224108">
        <time>2022-07-04T08:39:11Z</time>
      </trkpt>
      <trkpt lat="42.725628" lon="-1.3224047">
        <time>2022-07-04T08:39:13Z</time>
      </trkpt>
      <trkpt lat="42.725544" lon="-1.3223984">
        <time>2022-07-04T08:39:15Z</time>
      </trkpt>
      <trkpt lat="42.72546" lon="-1.3223914">
        <time>2022-07-04T08:39:17Z</time>
      </trkpt>
      <trkpt lat="42.725376" lon="-1.3223834">
        <time>2022-07-04T08:39:19Z</time>
      </trkpt>
      <trkpt lat="42.72528" lon="-1.3223761">
        <time>2022-07-04T08:39:21Z</time>
      </trkpt>
      <trkpt lat="42.725235" lon="-1.3223732">
        <time>2022-07-04T08:39:22Z</time>
      </trkpt>
      <trkpt lat="42.72514" lon="-1.3223665">
        <time>2022-07-04T08:39:24Z</time>
      </trkpt>
      <trkpt lat="42.72509" lon="-1.3223618">
        <time>2022-07-04T08:39:25Z</time>
      </trkpt>
      <trkpt lat="42.724995" lon="-1.3223494">
        <time>2022-07-04T08:39:27Z</time>
      </trkpt>
      <trkpt lat="42.72494" lon="-1.3223431">
        <time>2022-07-04T08:39:28Z</time>
      </trkpt>
      <trkpt lat="42.72489" lon="-1.3223375">
        <time>2022-07-04T08:39:29Z</time>
      </trkpt>
      <trkpt lat="42.7248" lon="-1.3223284">
        <time>2022-07-04T08:39:31Z</time>
      </trkpt>
      <trkpt lat="42.724747" lon="-1.3223242">
        <time>2022-07-04T08:39:32Z</time>
      </trkpt>
      <trkpt lat="42.724644" lon="-1.3223149">
        <time>2022-07-04T08:39:34Z</time>
      </trkpt>
      <trkpt lat="42.724594" lon="-1.3223071">
        <time>2022-07-04T08:39:35Z</time>
      </trkpt>
      <trkpt lat="42.7245" lon="-1.3222922">
        <time>2022-07-04T08:39:37Z</time>
      </trkpt>
      <trkpt lat="42.724403" lon="-1.3222759">
        <time>2022-07-04T08:39:39Z</time>
      </trkpt>
      <trkpt lat="42.724354" lon="-1.3222698">
        <time>2022-07-04T08:39:40Z</time>
      </trkpt>
      <trkpt lat="42.724262" lon="-1.3222572">
        <time>2022-07-04T08:39:42Z</time>
      </trkpt>
      <trkpt lat="42.72421" lon="-1.3222512">
        <time>2022-07-04T08:39:43Z</time>
      </trkpt>
      <trkpt lat="42.724113" lon="-1.3222408">
        <time>2022-07-04T08:39:45Z</time>
      </trkpt>
      <trkpt lat="42.72401" lon="-1.3222321">
        <time>2022-07-04T08:39:47Z</time>
      </trkpt>
      <trkpt lat="42.72391" lon="-1.3222202">
        <time>2022-07-04T08:39:49Z</time>
      </trkpt>
      <trkpt lat="42.723858" lon="-1.3222132">
        <time>2022-07-04T08:39:50Z</time>
      </trkpt>
      <trkpt lat="42.723686" lon="-1.3222048">
        <time>2022-07-04T08:39:53Z</time>
      </trkpt>
      <trkpt lat="42.723633" lon="-1.3222061">
        <time>2022-07-04T08:39:54Z</time>
      </trkpt>
      <trkpt lat="42.723576" lon="-1.3222059">
        <time>2022-07-04T08:39:55Z</time>
      </trkpt>
      <trkpt lat="42.723515" lon="-1.3222026">
        <time>2022-07-04T08:39:56Z</time>
      </trkpt>
      <trkpt lat="42.723454" lon="-1.3221968">
        <time>2022-07-04T08:39:57Z</time>
      </trkpt>
      <trkpt lat="42.723392" lon="-1.3221885">
        <time>2022-07-04T08:39:58Z</time>
      </trkpt>
      <trkpt lat="42.723328" lon="-1.3221805">
        <time>2022-07-04T08:39:59Z</time>
      </trkpt>
      <trkpt lat="42.723255" lon="-1.3221719">
        <time>2022-07-04T08:40:00Z</time>
      </trkpt>
      <trkpt lat="42.72318" lon="-1.3221658">
        <time>2022-07-04T08:40:01Z</time>
      </trkpt>
      <trkpt lat="42.723106" lon="-1.3221612">
        <time>2022-07-04T08:40:02Z</time>
      </trkpt>
      <trkpt lat="42.72303" lon="-1.3221606">
        <time>2022-07-04T08:40:03Z</time>
      </trkpt>
      <trkpt lat="42.722954" lon="-1.3221606">
        <time>2022-07-04T08:40:04Z</time>
      </trkpt>
      <trkpt lat="42.72288" lon="-1.3221592">
        <time>2022-07-04T08:40:05Z</time>
      </trkpt>
      <trkpt lat="42.722797" lon="-1.3221586">
        <time>2022-07-04T08:40:06Z</time>
      </trkpt>
      <trkpt lat="42.722713" lon="-1.3221592">
        <time>2022-07-04T08:40:07Z</time>
      </trkpt>
      <trkpt lat="42.722626" lon="-1.3221623">
        <time>2022-07-04T08:40:08Z</time>
      </trkpt>
      <trkpt lat="42.722546" lon="-1.3221673">
        <time>2022-07-04T08:40:09Z</time>
      </trkpt>
      <trkpt lat="42.722458" lon="-1.3221742">
        <time>2022-07-04T08:40:10Z</time>
      </trkpt>
      <trkpt lat="42.72237" lon="-1.3221833">
        <time>2022-07-04T08:40:11Z</time>
      </trkpt>
      <trkpt lat="42.722286" lon="-1.3221933">
        <time>2022-07-04T08:40:12Z</time>
      </trkpt>
      <trkpt lat="42.722202" lon="-1.3222055">
        <time>2022-07-04T08:40:13Z</time>
      </trkpt>
      <trkpt lat="42.722115" lon="-1.3222202">
        <time>2022-07-04T08:40:14Z</time>
      </trkpt>
      <trkpt lat="42.722023" lon="-1.3222365">
        <time>2022-07-04T08:40:15Z</time>
      </trkpt>
      <trkpt lat="42.721935" lon="-1.3222582">
        <time>2022-07-04T08:40:16Z</time>
      </trkpt>
      <trkpt lat="42.721836" lon="-1.3222862">
        <time>2022-07-04T08:40:17Z</time>
      </trkpt>
      <trkpt lat="42.721745" lon="-1.3223132">
        <time>2022-07-04T08:40:18Z</time>
      </trkpt>
      <trkpt lat="42.72165" lon="-1.3223429">
        <time>2022-07-04T08:40:19Z</time>
      </trkpt>
      <trkpt lat="42.721554" lon="-1.3223739">
        <time>2022-07-04T08:40:20Z</time>
      </trkpt>
      <trkpt lat="42.72146" lon="-1.3224058">
        <time>2022-07-04T08:40:21Z</time>
      </trkpt>
      <trkpt lat="42.721363" lon="-1.3224401">
        <time>2022-07-04T08:40:22Z</time>
      </trkpt>
      <trkpt lat="42.72126" lon="-1.3224776">
        <time>2022-07-04T08:40:23Z</time>
      </trkpt>
      <trkpt lat="42.72116" lon="-1.3225155">
        <time>2022-07-04T08:40:24Z</time>
      </trkpt>
      <trkpt lat="42.72106" lon="-1.3225548">
        <time>2022-07-04T08:40:25Z</time>
      </trkpt>
      <trkpt lat="42.720966" lon="-1.3225945">
        <time>2022-07-04T08:40:26Z</time>
      </trkpt>
      <trkpt lat="42.720867" lon="-1.3226345">
        <time>2022-07-04T08:40:27Z</time>
      </trkpt>
      <trkpt lat="42.720768" lon="-1.3226742">
        <time>2022-07-04T08:40:28Z</time>
      </trkpt>
      <trkpt lat="42.72067" lon="-1.3227102">
        <time>2022-07-04T08:40:29Z</time>
      </trkpt>
      <trkpt lat="42.720566" lon="-1.3227428">
        <time>2022-07-04T08:40:30Z</time>
      </trkpt>
      <trkpt lat="42.720467" lon="-1.3227715">
        <time>2022-07-04T08:40:31Z</time>
      </trkpt>
      <trkpt lat="42.72036" lon="-1.3227975">
        <time>2022-07-04T08:40:32Z</time>
      </trkpt>
      <trkpt lat="42.720257" lon="-1.3228191">
        <time>2022-07-04T08:40:33Z</time>
      </trkpt>
      <trkpt lat="42.720158" lon="-1.3228358">
        <time>2022-07-04T08:40:34Z</time>
      </trkpt>
      <trkpt lat="42.72005" lon="-1.3228505">
        <time>2022-07-04T08:40:35Z</time>
      </trkpt>
      <trkpt lat="42.719944" lon="-1.3228614">
        <time>2022-07-04T08:40:36Z</time>
      </trkpt>
      <trkpt lat="42.719837" lon="-1.3228698">
        <time>2022-07-04T08:40:37Z</time>
      </trkpt>
      <trkpt lat="42.719734" lon="-1.3228781">
        <time>2022-07-04T08:40:38Z</time>
      </trkpt>
      <trkpt lat="42.719624" lon="-1.3228828">
        <time>2022-07-04T08:40:39Z</time>
      </trkpt>
      <trkpt lat="42.719513" lon="-1.3228868">
        <time>2022-07-04T08:40:40Z</time>
      </trkpt>
      <trkpt lat="42.719406" lon="-1.3228918">
        <time>2022-07-04T08:40:41Z</time>
      </trkpt>
      <trkpt lat="42.7193" lon="-1.3228961">
        <time>2022-07-04T08:40:42Z</time>
      </trkpt>
      <trkpt lat="42.719193" lon="-1.3229017">
        <time>2022-07-04T08:40:43Z</time>
      </trkpt>
      <trkpt lat="42.71909" lon="-1.3229074">
        <time>2022-07-04T08:40:44Z</time>
      </trkpt>
      <trkpt lat="42.718987" lon="-1.3229145">
        <time>2022-07-04T08:40:45Z</time>
      </trkpt>
      <trkpt lat="42.718887" lon="-1.3229245">
        <time>2022-07-04T08:40:46Z</time>
      </trkpt>
      <trkpt lat="42.71879" lon="-1.3229375">
        <time>2022-07-04T08:40:47Z</time>
      </trkpt>
      <trkpt lat="42.71869" lon="-1.3229531">
        <time>2022-07-04T08:40:48Z</time>
      </trkpt>
      <trkpt lat="42.718594" lon="-1.3229724">
        <time>2022-07-04T08:40:49Z</time>
      </trkpt>
      <trkpt lat="42.718494" lon="-1.3229947">
        <time>2022-07-04T08:40:50Z</time>
      </trkpt>
      <trkpt lat="42.718395" lon="-1.3230184">
        <time>2022-07-04T08:40:51Z</time>
      </trkpt>
      <trkpt lat="42.7183" lon="-1.3230431">
        <time>2022-07-04T08:40:52Z</time>
      </trkpt>
      <trkpt lat="42.718193" lon="-1.3230711">
        <time>2022-07-04T08:40:53Z</time>
      </trkpt>
      <trkpt lat="42.71809" lon="-1.3230991">
        <time>2022-07-04T08:40:54Z</time>
      </trkpt>
      <trkpt lat="42.717987" lon="-1.3231281">
        <time>2022-07-04T08:40:55Z</time>
      </trkpt>
      <trkpt lat="42.717884" lon="-1.3231571">
        <time>2022-07-04T08:40:56Z</time>
      </trkpt>
      <trkpt lat="42.717785" lon="-1.3231871">
        <time>2022-07-04T08:40:57Z</time>
      </trkpt>
      <trkpt lat="42.717686" lon="-1.3232164">
        <time>2022-07-04T08:40:58Z</time>
      </trkpt>
      <trkpt lat="42.717487" lon="-1.3232725">
        <time>2022-07-04T08:41:00Z</time>
      </trkpt>
      <trkpt lat="42.71739" lon="-1.3232998">
        <time>2022-07-04T08:41:01Z</time>
      </trkpt>
      <trkpt lat="42.71729" lon="-1.3233261">
        <time>2022-07-04T08:41:02Z</time>
      </trkpt>
      <trkpt lat="42.71719" lon="-1.323353">
        <time>2022-07-04T08:41:03Z</time>
      </trkpt>
      <trkpt lat="42.71709" lon="-1.3233794">
        <time>2022-07-04T08:41:04Z</time>
      </trkpt>
      <trkpt lat="42.717" lon="-1.3234061">
        <time>2022-07-04T08:41:05Z</time>
      </trkpt>
      <trkpt lat="42.716908" lon="-1.3234308">
        <time>2022-07-04T08:41:06Z</time>
      </trkpt>
      <trkpt lat="42.716827" lon="-1.323454">
        <time>2022-07-04T08:41:07Z</time>
      </trkpt>
      <trkpt lat="42.716743" lon="-1.3234783">
        <time>2022-07-04T08:41:08Z</time>
      </trkpt>
      <trkpt lat="42.716667" lon="-1.323503">
        <time>2022-07-04T08:41:09Z</time>
      </trkpt>
      <trkpt lat="42.71659" lon="-1.3235273">
        <time>2022-07-04T08:41:10Z</time>
      </trkpt>
      <trkpt lat="42.716515" lon="-1.32355">
        <time>2022-07-04T08:41:11Z</time>
      </trkpt>
      <trkpt lat="42.716446" lon="-1.3235711">
        <time>2022-07-04T08:41:12Z</time>
      </trkpt>
      <trkpt lat="42.716377" lon="-1.3235914">
        <time>2022-07-04T08:41:13Z</time>
      </trkpt>
      <trkpt lat="42.716312" lon="-1.3236107">
        <time>2022-07-04T08:41:14Z</time>
      </trkpt>
      <trkpt lat="42.716248" lon="-1.3236297">
        <time>2022-07-04T08:41:15Z</time>
      </trkpt>
      <trkpt lat="42.716187" lon="-1.3236474">
        <time>2022-07-04T08:41:16Z</time>
      </trkpt>
      <trkpt lat="42.71613" lon="-1.3236637">
        <time>2022-07-04T08:41:17Z</time>
      </trkpt>
      <trkpt lat="42.716076" lon="-1.3236784">
        <time>2022-07-04T08:41:18Z</time>
      </trkpt>
      <trkpt lat="42.716026" lon="-1.323693">
        <time>2022-07-04T08:41:19Z</time>
      </trkpt>
      <trkpt lat="42.715973" lon="-1.323707">
        <time>2022-07-04T08:41:20Z</time>
      </trkpt>
      <trkpt lat="42.715923" lon="-1.3237216">
        <time>2022-07-04T08:41:21Z</time>
      </trkpt>
      <trkpt lat="42.715828" lon="-1.32375">
        <time>2022-07-04T08:41:23Z</time>
      </trkpt>
      <trkpt lat="42.71574" lon="-1.3237766">
        <time>2022-07-04T08:41:25Z</time>
      </trkpt>
      <trkpt lat="42.715652" lon="-1.3238053">
        <time>2022-07-04T08:41:27Z</time>
      </trkpt>
      <trkpt lat="42.71556" lon="-1.3238319">
        <time>2022-07-04T08:41:29Z</time>
      </trkpt>
      <trkpt lat="42.715477" lon="-1.3238506">
        <time>2022-07-04T08:41:31Z</time>
      </trkpt>
      <trkpt lat="42.715393" lon="-1.323859">
        <time>2022-07-04T08:41:33Z</time>
      </trkpt>
      <trkpt lat="42.715313" lon="-1.3238627">
        <time>2022-07-04T08:41:35Z</time>
      </trkpt>
      <trkpt lat="42.71523" lon="-1.323864">
        <time>2022-07-04T08:41:37Z</time>
      </trkpt>
      <trkpt lat="42.71514" lon="-1.3238659">
        <time>2022-07-04T08:41:39Z</time>
      </trkpt>
      <trkpt lat="42.71506" lon="-1.323864">
        <time>2022-07-04T08:41:41Z</time>
      </trkpt>
      <trkpt lat="42.714977" lon="-1.3238549">
        <time>2022-07-04T08:41:43Z</time>
      </trkpt>
      <trkpt lat="42.714893" lon="-1.3238366">
        <time>2022-07-04T08:41:45Z</time>
      </trkpt>
      <trkpt lat="42.714806" lon="-1.3238133">
        <time>2022-07-04T08:41:47Z</time>
      </trkpt>
      <trkpt lat="42.714725" lon="-1.3237836">
        <time>2022-07-04T08:41:49Z</time>
      </trkpt>
      <trkpt lat="42.714638" lon="-1.3237443">
        <time>2022-07-04T08:41:51Z</time>
      </trkpt>
      <trkpt lat="42.71455" lon="-1.3237033">
        <time>2022-07-04T08:41:53Z</time>
      </trkpt>
      <trkpt lat="42.714455" lon="-1.3236556">
        <time>2022-07-04T08:41:55Z</time>
      </trkpt>
      <trkpt lat="42.714405" lon="-1.323628">
        <time>2022-07-04T08:41:56Z</time>
      </trkpt>
      <trkpt lat="42.714355" lon="-1.3236027">
        <time>2022-07-04T08:41:57Z</time>
      </trkpt>
      <trkpt lat="42.714306" lon="-1.3235776">
        <time>2022-07-04T08:41:58Z</time>
      </trkpt>
      <trkpt lat="42.714256" lon="-1.323554">
        <time>2022-07-04T08:41:59Z</time>
      </trkpt>
      <trkpt lat="42.714207" lon="-1.323531">
        <time>2022-07-04T08:42:00Z</time>
      </trkpt>
      <trkpt lat="42.714157" lon="-1.3235084">
        <time>2022-07-04T08:42:01Z</time>
      </trkpt>
      <trkpt lat="42.714058" lon="-1.3234633">
        <time>2022-07-04T08:42:03Z</time>
      </trkpt>
      <trkpt lat="42.71395" lon="-1.3234134">
        <time>2022-07-04T08:42:05Z</time>
      </trkpt>
      <trkpt lat="42.713894" lon="-1.3233867">
        <time>2022-07-04T08:42:06Z</time>
      </trkpt>
      <trkpt lat="42.713844" lon="-1.3233594">
        <time>2022-07-04T08:42:07Z</time>
      </trkpt>
      <trkpt lat="42.713787" lon="-1.3233306">
        <time>2022-07-04T08:42:08Z</time>
      </trkpt>
      <trkpt lat="42.713734" lon="-1.3233026">
        <time>2022-07-04T08:42:09Z</time>
      </trkpt>
      <trkpt lat="42.713673" lon="-1.3232744">
        <time>2022-07-04T08:42:10Z</time>
      </trkpt>
      <trkpt lat="42.713615" lon="-1.3232456">
        <time>2022-07-04T08:42:11Z</time>
      </trkpt>
      <trkpt lat="42.713554" lon="-1.3232154">
        <time>2022-07-04T08:42:12Z</time>
      </trkpt>
      <trkpt lat="42.713493" lon="-1.3231847">
        <time>2022-07-04T08:42:13Z</time>
      </trkpt>
      <trkpt lat="42.71343" lon="-1.3231521">
        <time>2022-07-04T08:42:14Z</time>
      </trkpt>
      <trkpt lat="42.713367" lon="-1.323122">
        <time>2022-07-04T08:42:15Z</time>
      </trkpt>
      <trkpt lat="42.713303" lon="-1.323092">
        <time>2022-07-04T08:42:16Z</time>
      </trkpt>
      <trkpt lat="42.71324" lon="-1.3230624">
        <time>2022-07-04T08:42:17Z</time>
      </trkpt>
      <trkpt lat="42.713177" lon="-1.3230333">
        <time>2022-07-04T08:42:18Z</time>
      </trkpt>
      <trkpt lat="42.713116" lon="-1.3230034">
        <time>2022-07-04T08:42:19Z</time>
      </trkpt>
      <trkpt lat="42.71305" lon="-1.3229743">
        <time>2022-07-04T08:42:20Z</time>
      </trkpt>
      <trkpt lat="42.712986" lon="-1.3229448">
        <time>2022-07-04T08:42:21Z</time>
      </trkpt>
      <trkpt lat="42.712917" lon="-1.3229157">
        <time>2022-07-04T08:42:22Z</time>
      </trkpt>
      <trkpt lat="42.712856" lon="-1.3228878">
        <time>2022-07-04T08:42:23Z</time>
      </trkpt>
      <trkpt lat="42.7128" lon="-1.3228617">
        <time>2022-07-04T08:42:24Z</time>
      </trkpt>
      <trkpt lat="42.71274" lon="-1.322836">
        <time>2022-07-04T08:42:25Z</time>
      </trkpt>
      <trkpt lat="42.712685" lon="-1.3228108">
        <time>2022-07-04T08:42:26Z</time>
      </trkpt>
      <trkpt lat="42.712627" lon="-1.3227861">
        <time>2022-07-04T08:42:27Z</time>
      </trkpt>
      <trkpt lat="42.71257" lon="-1.3227607">
        <time>2022-07-04T08:42:28Z</time>
      </trkpt>
      <trkpt lat="42.712517" lon="-1.3227354">
        <time>2022-07-04T08:42:29Z</time>
      </trkpt>
      <trkpt lat="42.712463" lon="-1.3227108">
        <time>2022-07-04T08:42:30Z</time>
      </trkpt>
      <trkpt lat="42.71241" lon="-1.3226871">
        <time>2022-07-04T08:42:31Z</time>
      </trkpt>
      <trkpt lat="42.712357" lon="-1.3226641">
        <time>2022-07-04T08:42:32Z</time>
      </trkpt>
      <trkpt lat="42.712303" lon="-1.3226414">
        <time>2022-07-04T08:42:33Z</time>
      </trkpt>
      <trkpt lat="42.712254" lon="-1.3226187">
        <time>2022-07-04T08:42:34Z</time>
      </trkpt>
      <trkpt lat="42.712204" lon="-1.3225951">
        <time>2022-07-04T08:42:35Z</time>
      </trkpt>
      <trkpt lat="42.71215" lon="-1.3225721">
        <time>2022-07-04T08:42:36Z</time>
      </trkpt>
      <trkpt lat="42.712097" lon="-1.3225471">
        <time>2022-07-04T08:42:37Z</time>
      </trkpt>
      <trkpt lat="42.712048" lon="-1.3225235">
        <time>2022-07-04T08:42:38Z</time>
      </trkpt>
      <trkpt lat="42.711994" lon="-1.3224988">
        <time>2022-07-04T08:42:39Z</time>
      </trkpt>
      <trkpt lat="42.711937" lon="-1.3224721">
        <time>2022-07-04T08:42:40Z</time>
      </trkpt>
      <trkpt lat="42.711887" lon="-1.3224468">
        <time>2022-07-04T08:42:41Z</time>
      </trkpt>
      <trkpt lat="42.71183" lon="-1.3224208">
        <time>2022-07-04T08:42:42Z</time>
      </trkpt>
      <trkpt lat="42.711777" lon="-1.3223932">
        <time>2022-07-04T08:42:43Z</time>
      </trkpt>
      <trkpt lat="42.71172" lon="-1.3223644">
        <time>2022-07-04T08:42:44Z</time>
      </trkpt>
      <trkpt lat="42.71166" lon="-1.3223358">
        <time>2022-07-04T08:42:45Z</time>
      </trkpt>
      <trkpt lat="42.711597" lon="-1.3223062">
        <time>2022-07-04T08:42:46Z</time>
      </trkpt>
      <trkpt lat="42.711533" lon="-1.3222759">
        <time>2022-07-04T08:42:47Z</time>
      </trkpt>
      <trkpt lat="42.71147" lon="-1.3222445">
        <time>2022-07-04T08:42:48Z</time>
      </trkpt>
      <trkpt lat="42.711403" lon="-1.3222125">
        <time>2022-07-04T08:42:49Z</time>
      </trkpt>
      <trkpt lat="42.71133" lon="-1.3221796">
        <time>2022-07-04T08:42:50Z</time>
      </trkpt>
      <trkpt lat="42.711258" lon="-1.3221449">
        <time>2022-07-04T08:42:51Z</time>
      </trkpt>
      <trkpt lat="42.711185" lon="-1.3221095">
        <time>2022-07-04T08:42:52Z</time>
      </trkpt>
      <trkpt lat="42.711105" lon="-1.3220708">
        <time>2022-07-04T08:42:53Z</time>
      </trkpt>
      <trkpt lat="42.71103" lon="-1.3220348">
        <time>2022-07-04T08:42:54Z</time>
      </trkpt>
      <trkpt lat="42.710953" lon="-1.3219979">
        <time>2022-07-04T08:42:55Z</time>
      </trkpt>
      <trkpt lat="42.710876" lon="-1.3219608">
        <time>2022-07-04T08:42:56Z</time>
      </trkpt>
      <trkpt lat="42.7108" lon="-1.3219252">
        <time>2022-07-04T08:42:57Z</time>
      </trkpt>
      <trkpt lat="42.71072" lon="-1.3218899">
        <time>2022-07-04T08:42:58Z</time>
      </trkpt>
      <trkpt lat="42.710644" lon="-1.3218545">
        <time>2022-07-04T08:42:59Z</time>
      </trkpt>
      <trkpt lat="42.710567" lon="-1.3218199">
        <time>2022-07-04T08:43:00Z</time>
      </trkpt>
      <trkpt lat="42.71049" lon="-1.3217865">
        <time>2022-07-04T08:43:01Z</time>
      </trkpt>
      <trkpt lat="42.710415" lon="-1.3217539">
        <time>2022-07-04T08:43:02Z</time>
      </trkpt>
      <trkpt lat="42.710342" lon="-1.3217223">
        <time>2022-07-04T08:43:03Z</time>
      </trkpt>
      <trkpt lat="42.710274" lon="-1.3216898">
        <time>2022-07-04T08:43:04Z</time>
      </trkpt>
      <trkpt lat="42.7102" lon="-1.3216583">
        <time>2022-07-04T08:43:05Z</time>
      </trkpt>
      <trkpt lat="42.710133" lon="-1.3216269">
        <time>2022-07-04T08:43:06Z</time>
      </trkpt>
      <trkpt lat="42.710068" lon="-1.3215952">
        <time>2022-07-04T08:43:07Z</time>
      </trkpt>
      <trkpt lat="42.71" lon="-1.3215642">
        <time>2022-07-04T08:43:08Z</time>
      </trkpt>
      <trkpt lat="42.709934" lon="-1.3215332">
        <time>2022-07-04T08:43:09Z</time>
      </trkpt>
      <trkpt lat="42.70981" lon="-1.3214712">
        <time>2022-07-04T08:43:11Z</time>
      </trkpt>
      <trkpt lat="42.709747" lon="-1.3214419">
        <time>2022-07-04T08:43:12Z</time>
      </trkpt>
      <trkpt lat="42.709686" lon="-1.3214129">
        <time>2022-07-04T08:43:13Z</time>
      </trkpt>
      <trkpt lat="42.709625" lon="-1.3213842">
        <time>2022-07-04T08:43:14Z</time>
      </trkpt>
      <trkpt lat="42.709564" lon="-1.3213552">
        <time>2022-07-04T08:43:15Z</time>
      </trkpt>
      <trkpt lat="42.709507" lon="-1.321327">
        <time>2022-07-04T08:43:16Z</time>
      </trkpt>
      <trkpt lat="42.709446" lon="-1.321299">
        <time>2022-07-04T08:43:17Z</time>
      </trkpt>
      <trkpt lat="42.70939" lon="-1.3212706">
        <time>2022-07-04T08:43:18Z</time>
      </trkpt>
      <trkpt lat="42.70933" lon="-1.3212433">
        <time>2022-07-04T08:43:19Z</time>
      </trkpt>
      <trkpt lat="42.70927" lon="-1.3212143">
        <time>2022-07-04T08:43:20Z</time>
      </trkpt>
      <trkpt lat="42.70921" lon="-1.3211852">
        <time>2022-07-04T08:43:21Z</time>
      </trkpt>
      <trkpt lat="42.709152" lon="-1.3211563">
        <time>2022-07-04T08:43:22Z</time>
      </trkpt>
      <trkpt lat="42.7091" lon="-1.3211286">
        <time>2022-07-04T08:43:23Z</time>
      </trkpt>
      <trkpt lat="42.70904" lon="-1.321101">
        <time>2022-07-04T08:43:24Z</time>
      </trkpt>
      <trkpt lat="42.708984" lon="-1.3210729">
        <time>2022-07-04T08:43:25Z</time>
      </trkpt>
      <trkpt lat="42.708927" lon="-1.3210446">
        <time>2022-07-04T08:43:26Z</time>
      </trkpt>
      <trkpt lat="42.70887" lon="-1.3210169">
        <time>2022-07-04T08:43:27Z</time>
      </trkpt>
      <trkpt lat="42.708813" lon="-1.3209896">
        <time>2022-07-04T08:43:28Z</time>
      </trkpt>
      <trkpt lat="42.70875" lon="-1.3209616">
        <time>2022-07-04T08:43:29Z</time>
      </trkpt>
      <trkpt lat="42.708694" lon="-1.3209343">
        <time>2022-07-04T08:43:30Z</time>
      </trkpt>
      <trkpt lat="42.708637" lon="-1.320907">
        <time>2022-07-04T08:43:31Z</time>
      </trkpt>
      <trkpt lat="42.708576" lon="-1.3208779">
        <time>2022-07-04T08:43:32Z</time>
      </trkpt>
      <trkpt lat="42.70852" lon="-1.3208486">
        <time>2022-07-04T08:43:33Z</time>
      </trkpt>
      <trkpt lat="42.708454" lon="-1.3208187">
        <time>2022-07-04T08:43:34Z</time>
      </trkpt>
      <trkpt lat="42.708393" lon="-1.3207883">
        <time>2022-07-04T08:43:35Z</time>
      </trkpt>
      <trkpt lat="42.708332" lon="-1.3207576">
        <time>2022-07-04T08:43:36Z</time>
      </trkpt>
      <trkpt lat="42.70827" lon="-1.320727">
        <time>2022-07-04T08:43:37Z</time>
      </trkpt>
      <trkpt lat="42.708206" lon="-1.3206964">
        <time>2022-07-04T08:43:38Z</time>
      </trkpt>
      <trkpt lat="42.708145" lon="-1.3206667">
        <time>2022-07-04T08:43:39Z</time>
      </trkpt>
      <trkpt lat="42.70808" lon="-1.3206373">
        <time>2022-07-04T08:43:40Z</time>
      </trkpt>
      <trkpt lat="42.708015" lon="-1.3206077">
        <time>2022-07-04T08:43:41Z</time>
      </trkpt>
      <trkpt lat="42.70795" lon="-1.3205774">
        <time>2022-07-04T08:43:42Z</time>
      </trkpt>
      <trkpt lat="42.707886" lon="-1.320545">
        <time>2022-07-04T08:43:43Z</time>
      </trkpt>
      <trkpt lat="42.70782" lon="-1.3205137">
        <time>2022-07-04T08:43:44Z</time>
      </trkpt>
      <trkpt lat="42.707756" lon="-1.320483">
        <time>2022-07-04T08:43:45Z</time>
      </trkpt>
      <trkpt lat="42.70769" lon="-1.3204536">
        <time>2022-07-04T08:43:46Z</time>
      </trkpt>
      <trkpt lat="42.707626" lon="-1.3204237">
        <time>2022-07-04T08:43:47Z</time>
      </trkpt>
      <trkpt lat="42.707558" lon="-1.3203903">
        <time>2022-07-04T08:43:48Z</time>
      </trkpt>
      <trkpt lat="42.707497" lon="-1.3203601">
        <time>2022-07-04T08:43:49Z</time>
      </trkpt>
      <trkpt lat="42.707428" lon="-1.3203274">
        <time>2022-07-04T08:43:50Z</time>
      </trkpt>
      <trkpt lat="42.707367" lon="-1.3202983">
        <time>2022-07-04T08:43:51Z</time>
      </trkpt>
      <trkpt lat="42.707306" lon="-1.3202693">
        <time>2022-07-04T08:43:52Z</time>
      </trkpt>
      <trkpt lat="42.707245" lon="-1.3202404">
        <time>2022-07-04T08:43:53Z</time>
      </trkpt>
      <trkpt lat="42.707184" lon="-1.320211">
        <time>2022-07-04T08:43:54Z</time>
      </trkpt>
      <trkpt lat="42.707123" lon="-1.3201814">
        <time>2022-07-04T08:43:55Z</time>
      </trkpt>
      <trkpt lat="42.707054" lon="-1.3201504">
        <time>2022-07-04T08:43:56Z</time>
      </trkpt>
      <trkpt lat="42.70699" lon="-1.320121">
        <time>2022-07-04T08:43:57Z</time>
      </trkpt>
      <trkpt lat="42.706932" lon="-1.3200947">
        <time>2022-07-04T08:43:58Z</time>
      </trkpt>
      <trkpt lat="42.70687" lon="-1.320068">
        <time>2022-07-04T08:43:59Z</time>
      </trkpt>
      <trkpt lat="42.706814" lon="-1.320042">
        <time>2022-07-04T08:44:00Z</time>
      </trkpt>
      <trkpt lat="42.70675" lon="-1.3200144">
        <time>2022-07-04T08:44:01Z</time>
      </trkpt>
      <trkpt lat="42.70669" lon="-1.3199884">
        <time>2022-07-04T08:44:02Z</time>
      </trkpt>
      <trkpt lat="42.706635" lon="-1.3199607">
        <time>2022-07-04T08:44:03Z</time>
      </trkpt>
      <trkpt lat="42.706577" lon="-1.319931">
        <time>2022-07-04T08:44:04Z</time>
      </trkpt>
      <trkpt lat="42.706516" lon="-1.3199015">
        <time>2022-07-04T08:44:05Z</time>
      </trkpt>
      <trkpt lat="42.70645" lon="-1.3198705">
        <time>2022-07-04T08:44:06Z</time>
      </trkpt>
      <trkpt lat="42.706394" lon="-1.3198434">
        <time>2022-07-04T08:44:07Z</time>
      </trkpt>
      <trkpt lat="42.706333" lon="-1.3198178">
        <time>2022-07-04T08:44:08Z</time>
      </trkpt>
      <trkpt lat="42.706272" lon="-1.3197931">
        <time>2022-07-04T08:44:09Z</time>
      </trkpt>
      <trkpt lat="42.70621" lon="-1.3197677">
        <time>2022-07-04T08:44:10Z</time>
      </trkpt>
      <trkpt lat="42.70615" lon="-1.3197415">
        <time>2022-07-04T08:44:11Z</time>
      </trkpt>
      <trkpt lat="42.70609" lon="-1.3197138">
        <time>2022-07-04T08:44:12Z</time>
      </trkpt>
      <trkpt lat="42.706024" lon="-1.3196858">
        <time>2022-07-04T08:44:13Z</time>
      </trkpt>
      <trkpt lat="42.705963" lon="-1.3196584">
        <time>2022-07-04T08:44:14Z</time>
      </trkpt>
      <trkpt lat="42.705837" lon="-1.3196014">
        <time>2022-07-04T08:44:16Z</time>
      </trkpt>
      <trkpt lat="42.705772" lon="-1.3195721">
        <time>2022-07-04T08:44:17Z</time>
      </trkpt>
      <trkpt lat="42.705708" lon="-1.3195422">
        <time>2022-07-04T08:44:18Z</time>
      </trkpt>
      <trkpt lat="42.705647" lon="-1.3195114">
        <time>2022-07-04T08:44:19Z</time>
      </trkpt>
      <trkpt lat="42.705578" lon="-1.3194791">
        <time>2022-07-04T08:44:20Z</time>
      </trkpt>
      <trkpt lat="42.70551" lon="-1.3194478">
        <time>2022-07-04T08:44:21Z</time>
      </trkpt>
      <trkpt lat="42.70545" lon="-1.3194182">
        <time>2022-07-04T08:44:22Z</time>
      </trkpt>
      <trkpt lat="42.705383" lon="-1.3193861">
        <time>2022-07-04T08:44:23Z</time>
      </trkpt>
      <trkpt lat="42.705315" lon="-1.3193512">
        <time>2022-07-04T08:44:24Z</time>
      </trkpt>
      <trkpt lat="42.705246" lon="-1.3193175">
        <time>2022-07-04T08:44:25Z</time>
      </trkpt>
      <trkpt lat="42.705177" lon="-1.3192859">
        <time>2022-07-04T08:44:26Z</time>
      </trkpt>
      <trkpt lat="42.705116" lon="-1.3192575">
        <time>2022-07-04T08:44:27Z</time>
      </trkpt>
      <trkpt lat="42.70505" lon="-1.3192302">
        <time>2022-07-04T08:44:28Z</time>
      </trkpt>
      <trkpt lat="42.704987" lon="-1.3192018">
        <time>2022-07-04T08:44:29Z</time>
      </trkpt>
      <trkpt lat="42.704918" lon="-1.3191725">
        <time>2022-07-04T08:44:30Z</time>
      </trkpt>
      <trkpt lat="42.704853" lon="-1.3191425">
        <time>2022-07-04T08:44:31Z</time>
      </trkpt>
      <trkpt lat="42.70479" lon="-1.3191112">
        <time>2022-07-04T08:44:32Z</time>
      </trkpt>
      <trkpt lat="42.704723" lon="-1.3190792">
        <time>2022-07-04T08:44:33Z</time>
      </trkpt>
      <trkpt lat="42.70466" lon="-1.3190469">
        <time>2022-07-04T08:44:34Z</time>
      </trkpt>
      <trkpt lat="42.704594" lon="-1.3190142">
        <time>2022-07-04T08:44:35Z</time>
      </trkpt>
      <trkpt lat="42.70453" lon="-1.3189819">
        <time>2022-07-04T08:44:36Z</time>
      </trkpt>
      <trkpt lat="42.704464" lon="-1.3189498">
        <time>2022-07-04T08:44:37Z</time>
      </trkpt>
      <trkpt lat="42.70439" lon="-1.3189158">
        <time>2022-07-04T08:44:38Z</time>
      </trkpt>
      <trkpt lat="42.704327" lon="-1.3188845">
        <time>2022-07-04T08:44:39Z</time>
      </trkpt>
      <trkpt lat="42.70426" lon="-1.3188531">
        <time>2022-07-04T08:44:40Z</time>
      </trkpt>
      <trkpt lat="42.704193" lon="-1.3188221">
        <time>2022-07-04T08:44:41Z</time>
      </trkpt>
      <trkpt lat="42.70413" lon="-1.3187912">
        <time>2022-07-04T08:44:42Z</time>
      </trkpt>
      <trkpt lat="42.70406" lon="-1.3187605">
        <time>2022-07-04T08:44:43Z</time>
      </trkpt>
      <trkpt lat="42.70399" lon="-1.3187292">
        <time>2022-07-04T08:44:44Z</time>
      </trkpt>
      <trkpt lat="42.703922" lon="-1.3186985">
        <time>2022-07-04T08:44:45Z</time>
      </trkpt>
      <trkpt lat="42.703854" lon="-1.3186675">
        <time>2022-07-04T08:44:46Z</time>
      </trkpt>
      <trkpt lat="42.70379" lon="-1.3186358">
        <time>2022-07-04T08:44:47Z</time>
      </trkpt>
      <trkpt lat="42.703716" lon="-1.3186018">
        <time>2022-07-04T08:44:48Z</time>
      </trkpt>
      <trkpt lat="42.703648" lon="-1.3185709">
        <time>2022-07-04T08:44:49Z</time>
      </trkpt>
      <trkpt lat="42.70358" lon="-1.3185393">
        <time>2022-07-04T08:44:50Z</time>
      </trkpt>
      <trkpt lat="42.703514" lon="-1.3185062">
        <time>2022-07-04T08:44:51Z</time>
      </trkpt>
      <trkpt lat="42.703445" lon="-1.3184732">
        <time>2022-07-04T08:44:52Z</time>
      </trkpt>
      <trkpt lat="42.703373" lon="-1.3184396">
        <time>2022-07-04T08:44:53Z</time>
      </trkpt>
      <trkpt lat="42.70331" lon="-1.3184096">
        <time>2022-07-04T08:44:54Z</time>
      </trkpt>
      <trkpt lat="42.70324" lon="-1.3183786">
        <time>2022-07-04T08:44:55Z</time>
      </trkpt>
      <trkpt lat="42.703175" lon="-1.3183472">
        <time>2022-07-04T08:44:56Z</time>
      </trkpt>
      <trkpt lat="42.703106" lon="-1.3183149">
        <time>2022-07-04T08:44:57Z</time>
      </trkpt>
      <trkpt lat="42.70304" lon="-1.3182826">
        <time>2022-07-04T08:44:58Z</time>
      </trkpt>
      <trkpt lat="42.702972" lon="-1.3182496">
        <time>2022-07-04T08:44:59Z</time>
      </trkpt>
      <trkpt lat="42.702904" lon="-1.3182166">
        <time>2022-07-04T08:45:00Z</time>
      </trkpt>
      <trkpt lat="42.70284" lon="-1.3181843">
        <time>2022-07-04T08:45:01Z</time>
      </trkpt>
      <trkpt lat="42.70277" lon="-1.3181512">
        <time>2022-07-04T08:45:02Z</time>
      </trkpt>
      <trkpt lat="42.7027" lon="-1.3181182">
        <time>2022-07-04T08:45:03Z</time>
      </trkpt>
      <trkpt lat="42.702637" lon="-1.3180852">
        <time>2022-07-04T08:45:04Z</time>
      </trkpt>
      <trkpt lat="42.702568" lon="-1.3180532">
        <time>2022-07-04T08:45:05Z</time>
      </trkpt>
      <trkpt lat="42.7025" lon="-1.3180219">
        <time>2022-07-04T08:45:06Z</time>
      </trkpt>
      <trkpt lat="42.702435" lon="-1.3179909">
        <time>2022-07-04T08:45:07Z</time>
      </trkpt>
      <trkpt lat="42.702366" lon="-1.3179595">
        <time>2022-07-04T08:45:08Z</time>
      </trkpt>
      <trkpt lat="42.7023" lon="-1.3179282">
        <time>2022-07-04T08:45:09Z</time>
      </trkpt>
      <trkpt lat="42.702236" lon="-1.3178972">
        <time>2022-07-04T08:45:10Z</time>
      </trkpt>
      <trkpt lat="42.702168" lon="-1.3178669">
        <time>2022-07-04T08:45:11Z</time>
      </trkpt>
      <trkpt lat="42.702103" lon="-1.3178359">
        <time>2022-07-04T08:45:12Z</time>
      </trkpt>
      <trkpt lat="42.702038" lon="-1.3178042">
        <time>2022-07-04T08:45:13Z</time>
      </trkpt>
      <trkpt lat="42.701973" lon="-1.3177723">
        <time>2022-07-04T08:45:14Z</time>
      </trkpt>
      <trkpt lat="42.701904" lon="-1.3177387">
        <time>2022-07-04T08:45:15Z</time>
      </trkpt>
      <trkpt lat="42.70184" lon="-1.3177077">
        <time>2022-07-04T08:45:16Z</time>
      </trkpt>
      <trkpt lat="42.701775" lon="-1.3176763">
        <time>2022-07-04T08:45:17Z</time>
      </trkpt>
      <trkpt lat="42.70171" lon="-1.317645">
        <time>2022-07-04T08:45:18Z</time>
      </trkpt>
      <trkpt lat="42.701645" lon="-1.3176146">
        <time>2022-07-04T08:45:19Z</time>
      </trkpt>
      <trkpt lat="42.70158" lon="-1.3175839">
        <time>2022-07-04T08:45:20Z</time>
      </trkpt>
      <trkpt lat="42.701515" lon="-1.317554">
        <time>2022-07-04T08:45:21Z</time>
      </trkpt>
      <trkpt lat="42.70145" lon="-1.3175232">
        <time>2022-07-04T08:45:22Z</time>
      </trkpt>
      <trkpt lat="42.70132" lon="-1.3174627">
        <time>2022-07-04T08:45:24Z</time>
      </trkpt>
      <trkpt lat="42.701256" lon="-1.3174334">
        <time>2022-07-04T08:45:25Z</time>
      </trkpt>
      <trkpt lat="42.701195" lon="-1.3174039">
        <time>2022-07-04T08:45:26Z</time>
      </trkpt>
      <trkpt lat="42.70113" lon="-1.317375">
        <time>2022-07-04T08:45:27Z</time>
      </trkpt>
      <trkpt lat="42.701065" lon="-1.3173463">
        <time>2022-07-04T08:45:28Z</time>
      </trkpt>
      <trkpt lat="42.701004" lon="-1.3173176">
        <time>2022-07-04T08:45:29Z</time>
      </trkpt>
      <trkpt lat="42.70094" lon="-1.317287">
        <time>2022-07-04T08:45:30Z</time>
      </trkpt>
      <trkpt lat="42.70088" lon="-1.317257">
        <time>2022-07-04T08:45:31Z</time>
      </trkpt>
      <trkpt lat="42.700813" lon="-1.3172276">
        <time>2022-07-04T08:45:32Z</time>
      </trkpt>
      <trkpt lat="42.70076" lon="-1.317201">
        <time>2022-07-04T08:45:33Z</time>
      </trkpt>
      <trkpt lat="42.7007" lon="-1.3171737">
        <time>2022-07-04T08:45:34Z</time>
      </trkpt>
      <trkpt lat="42.700638" lon="-1.3171444">
        <time>2022-07-04T08:45:35Z</time>
      </trkpt>
      <trkpt lat="42.700577" lon="-1.3171157">
        <time>2022-07-04T08:45:36Z</time>
      </trkpt>
      <trkpt lat="42.700523" lon="-1.3170897">
        <time>2022-07-04T08:45:37Z</time>
      </trkpt>
      <trkpt lat="42.700466" lon="-1.3170633">
        <time>2022-07-04T08:45:38Z</time>
      </trkpt>
      <trkpt lat="42.700405" lon="-1.3170357">
        <time>2022-07-04T08:45:39Z</time>
      </trkpt>
      <trkpt lat="42.700348" lon="-1.3170106">
        <time>2022-07-04T08:45:40Z</time>
      </trkpt>
      <trkpt lat="42.700294" lon="-1.316985">
        <time>2022-07-04T08:45:41Z</time>
      </trkpt>
      <trkpt lat="42.700237" lon="-1.316959">
        <time>2022-07-04T08:45:42Z</time>
      </trkpt>
      <trkpt lat="42.70018" lon="-1.3169327">
        <time>2022-07-04T08:45:43Z</time>
      </trkpt>
      <trkpt lat="42.700127" lon="-1.3169063">
        <time>2022-07-04T08:45:44Z</time>
      </trkpt>
      <trkpt lat="42.70007" lon="-1.3168807">
        <time>2022-07-04T08:45:45Z</time>
      </trkpt>
      <trkpt lat="42.700016" lon="-1.3168551">
        <time>2022-07-04T08:45:46Z</time>
      </trkpt>
      <trkpt lat="42.699955" lon="-1.316828">
        <time>2022-07-04T08:45:47Z</time>
      </trkpt>
      <trkpt lat="42.699898" lon="-1.3168017">
        <time>2022-07-04T08:45:48Z</time>
      </trkpt>
      <trkpt lat="42.699844" lon="-1.3167757">
        <time>2022-07-04T08:45:49Z</time>
      </trkpt>
      <trkpt lat="42.69979" lon="-1.316751">
        <time>2022-07-04T08:45:50Z</time>
      </trkpt>
      <trkpt lat="42.699738" lon="-1.3167248">
        <time>2022-07-04T08:45:51Z</time>
      </trkpt>
      <trkpt lat="42.69968" lon="-1.3166984">
        <time>2022-07-04T08:45:52Z</time>
      </trkpt>
      <trkpt lat="42.69963" lon="-1.3166747">
        <time>2022-07-04T08:45:53Z</time>
      </trkpt>
      <trkpt lat="42.69958" lon="-1.3166515">
        <time>2022-07-04T08:45:54Z</time>
      </trkpt>
      <trkpt lat="42.699528" lon="-1.3166285">
        <time>2022-07-04T08:45:55Z</time>
      </trkpt>
      <trkpt lat="42.699474" lon="-1.3166025">
        <time>2022-07-04T08:45:56Z</time>
      </trkpt>
      <trkpt lat="42.699417" lon="-1.3165767">
        <time>2022-07-04T08:45:57Z</time>
      </trkpt>
      <trkpt lat="42.699368" lon="-1.3165531">
        <time>2022-07-04T08:45:58Z</time>
      </trkpt>
      <trkpt lat="42.699318" lon="-1.3165288">
        <time>2022-07-04T08:45:59Z</time>
      </trkpt>
      <trkpt lat="42.699265" lon="-1.3165038">
        <time>2022-07-04T08:46:00Z</time>
      </trkpt>
      <trkpt lat="42.69921" lon="-1.3164767">
        <time>2022-07-04T08:46:01Z</time>
      </trkpt>
      <trkpt lat="42.699158" lon="-1.3164507">
        <time>2022-07-04T08:46:02Z</time>
      </trkpt>
      <trkpt lat="42.699104" lon="-1.3164268">
        <time>2022-07-04T08:46:03Z</time>
      </trkpt>
      <trkpt lat="42.699055" lon="-1.3164032">
        <time>2022-07-04T08:46:04Z</time>
      </trkpt>
      <trkpt lat="42.699" lon="-1.3163778">
        <time>2022-07-04T08:46:05Z</time>
      </trkpt>
      <trkpt lat="42.69895" lon="-1.3163525">
        <time>2022-07-04T08:46:06Z</time>
      </trkpt>
      <trkpt lat="42.6989" lon="-1.3163258">
        <time>2022-07-04T08:46:07Z</time>
      </trkpt>
      <trkpt lat="42.69884" lon="-1.3163002">
        <time>2022-07-04T08:46:08Z</time>
      </trkpt>
      <trkpt lat="42.698795" lon="-1.3162764">
        <time>2022-07-04T08:46:09Z</time>
      </trkpt>
      <trkpt lat="42.698692" lon="-1.3162258">
        <time>2022-07-04T08:46:11Z</time>
      </trkpt>
      <trkpt lat="42.69864" lon="-1.3162009">
        <time>2022-07-04T08:46:12Z</time>
      </trkpt>
      <trkpt lat="42.698586" lon="-1.3161755">
        <time>2022-07-04T08:46:13Z</time>
      </trkpt>
      <trkpt lat="42.698536" lon="-1.3161521">
        <time>2022-07-04T08:46:14Z</time>
      </trkpt>
      <trkpt lat="42.69849" lon="-1.3161278">
        <time>2022-07-04T08:46:15Z</time>
      </trkpt>
      <trkpt lat="42.69839" lon="-1.3160788">
        <time>2022-07-04T08:46:17Z</time>
      </trkpt>
      <trkpt lat="42.69834" lon="-1.3160545">
        <time>2022-07-04T08:46:18Z</time>
      </trkpt>
      <trkpt lat="42.69829" lon="-1.3160315">
        <time>2022-07-04T08:46:19Z</time>
      </trkpt>
      <trkpt lat="42.69824" lon="-1.3160084">
        <time>2022-07-04T08:46:20Z</time>
      </trkpt>
      <trkpt lat="42.69819" lon="-1.3159852">
        <time>2022-07-04T08:46:21Z</time>
      </trkpt>
      <trkpt lat="42.698143" lon="-1.3159624">
        <time>2022-07-04T08:46:22Z</time>
      </trkpt>
      <trkpt lat="42.698048" lon="-1.3159175">
        <time>2022-07-04T08:46:24Z</time>
      </trkpt>
      <trkpt lat="42.698" lon="-1.3158975">
        <time>2022-07-04T08:46:25Z</time>
      </trkpt>
      <trkpt lat="42.697914" lon="-1.3158572">
        <time>2022-07-04T08:46:27Z</time>
      </trkpt>
      <trkpt lat="42.697826" lon="-1.3158171">
        <time>2022-07-04T08:46:29Z</time>
      </trkpt>
      <trkpt lat="42.697704" lon="-1.3157592">
        <time>2022-07-04T08:46:32Z</time>
      </trkpt>
      <trkpt lat="42.697628" lon="-1.3157225">
        <time>2022-07-04T08:46:34Z</time>
      </trkpt>
      <trkpt lat="42.69755" lon="-1.3156879">
        <time>2022-07-04T08:46:36Z</time>
      </trkpt>
      <trkpt lat="42.697483" lon="-1.3156571">
        <time>2022-07-04T08:46:38Z</time>
      </trkpt>
      <trkpt lat="42.69743" lon="-1.3156382">
        <time>2022-07-04T08:46:40Z</time>
      </trkpt>
      <trkpt lat="42.69736" lon="-1.3156195">
        <time>2022-07-04T08:51:02Z</time>
      </trkpt>
      <trkpt lat="42.69729" lon="-1.3155892">
        <time>2022-07-04T08:51:05Z</time>
      </trkpt>
      <trkpt lat="42.69723" lon="-1.3155669">
        <time>2022-07-04T08:51:07Z</time>
      </trkpt>
      <trkpt lat="42.697174" lon="-1.3155419">
        <time>2022-07-04T08:51:09Z</time>
      </trkpt>
      <trkpt lat="42.697117" lon="-1.3155122">
        <time>2022-07-04T08:51:11Z</time>
      </trkpt>
      <trkpt lat="42.697063" lon="-1.3154812">
        <time>2022-07-04T08:51:13Z</time>
      </trkpt>
      <trkpt lat="42.69701" lon="-1.3154526">
        <time>2022-07-04T08:51:15Z</time>
      </trkpt>
      <trkpt lat="42.696953" lon="-1.3154212">
        <time>2022-07-04T08:51:17Z</time>
      </trkpt>
      <trkpt lat="42.69689" lon="-1.3153923">
        <time>2022-07-04T08:51:19Z</time>
      </trkpt>
      <trkpt lat="42.69683" lon="-1.3153576">
        <time>2022-07-04T08:51:21Z</time>
      </trkpt>
      <trkpt lat="42.696766" lon="-1.3153229">
        <time>2022-07-04T08:51:23Z</time>
      </trkpt>
      <trkpt lat="42.696697" lon="-1.3152913">
        <time>2022-07-04T08:51:25Z</time>
      </trkpt>
      <trkpt lat="42.69663" lon="-1.3152609">
        <time>2022-07-04T08:51:27Z</time>
      </trkpt>
      <trkpt lat="42.69656" lon="-1.3152308">
        <time>2022-07-04T08:51:29Z</time>
      </trkpt>
      <trkpt lat="42.69649" lon="-1.3151989">
        <time>2022-07-04T08:51:31Z</time>
      </trkpt>
      <trkpt lat="42.69642" lon="-1.3151659">
        <time>2022-07-04T08:51:33Z</time>
      </trkpt>
      <trkpt lat="42.696346" lon="-1.3151293">
        <time>2022-07-04T08:51:35Z</time>
      </trkpt>
      <trkpt lat="42.696274" lon="-1.3150892">
        <time>2022-07-04T08:51:37Z</time>
      </trkpt>
      <trkpt lat="42.6962" lon="-1.3150489">
        <time>2022-07-04T08:51:39Z</time>
      </trkpt>
      <trkpt lat="42.696125" lon="-1.3150042">
        <time>2022-07-04T08:51:41Z</time>
      </trkpt>
      <trkpt lat="42.69605" lon="-1.314958">
        <time>2022-07-04T08:51:43Z</time>
      </trkpt>
      <trkpt lat="42.695976" lon="-1.3149105">
        <time>2022-07-04T08:51:45Z</time>
      </trkpt>
      <trkpt lat="42.695892" lon="-1.3148589">
        <time>2022-07-04T08:51:47Z</time>
      </trkpt>
      <trkpt lat="42.695816" lon="-1.3148066">
        <time>2022-07-04T08:51:49Z</time>
      </trkpt>
      <trkpt lat="42.69574" lon="-1.3147509">
        <time>2022-07-04T08:51:51Z</time>
      </trkpt>
      <trkpt lat="42.69566" lon="-1.3146917">
        <time>2022-07-04T08:51:53Z</time>
      </trkpt>
      <trkpt lat="42.695587" lon="-1.3146373">
        <time>2022-07-04T08:51:55Z</time>
      </trkpt>
      <trkpt lat="42.695507" lon="-1.3145816">
        <time>2022-07-04T08:51:57Z</time>
      </trkpt>
      <trkpt lat="42.695435" lon="-1.3145297">
        <time>2022-07-04T08:51:59Z</time>
      </trkpt>
      <trkpt lat="42.695362" lon="-1.3144776">
        <time>2022-07-04T08:52:01Z</time>
      </trkpt>
      <trkpt lat="42.695286" lon="-1.3144263">
        <time>2022-07-04T08:52:03Z</time>
      </trkpt>
      <trkpt lat="42.695213" lon="-1.3143743">
        <time>2022-07-04T08:52:05Z</time>
      </trkpt>
      <trkpt lat="42.695137" lon="-1.3143203">
        <time>2022-07-04T08:52:07Z</time>
      </trkpt>
      <trkpt lat="42.69506" lon="-1.3142639">
        <time>2022-07-04T08:52:09Z</time>
      </trkpt>
      <trkpt lat="42.69499" lon="-1.3142086">
        <time>2022-07-04T08:52:11Z</time>
      </trkpt>
      <trkpt lat="42.694904" lon="-1.3141537">
        <time>2022-07-04T08:52:13Z</time>
      </trkpt>
      <trkpt lat="42.694828" lon="-1.3141023">
        <time>2022-07-04T08:52:15Z</time>
      </trkpt>
      <trkpt lat="42.694748" lon="-1.3140477">
        <time>2022-07-04T08:52:17Z</time>
      </trkpt>
      <trkpt lat="42.69467" lon="-1.313993">
        <time>2022-07-04T08:52:19Z</time>
      </trkpt>
      <trkpt lat="42.69459" lon="-1.3139384">
        <time>2022-07-04T08:52:21Z</time>
      </trkpt>
      <trkpt lat="42.69451" lon="-1.3138846">
        <time>2022-07-04T08:52:23Z</time>
      </trkpt>
      <trkpt lat="42.69443" lon="-1.3138317">
        <time>2022-07-04T08:52:25Z</time>
      </trkpt>
      <trkpt lat="42.69435" lon="-1.3137797">
        <time>2022-07-04T08:52:27Z</time>
      </trkpt>
      <trkpt lat="42.69427" lon="-1.313727">
        <time>2022-07-04T08:52:29Z</time>
      </trkpt>
      <trkpt lat="42.69419" lon="-1.313673">
        <time>2022-07-04T08:52:31Z</time>
      </trkpt>
      <trkpt lat="42.69411" lon="-1.31362">
        <time>2022-07-04T08:52:33Z</time>
      </trkpt>
      <trkpt lat="42.69403" lon="-1.313567">
        <time>2022-07-04T08:52:35Z</time>
      </trkpt>
      <trkpt lat="42.69395" lon="-1.3135134">
        <time>2022-07-04T08:52:37Z</time>
      </trkpt>
      <trkpt lat="42.693867" lon="-1.313459">
        <time>2022-07-04T08:52:39Z</time>
      </trkpt>
      <trkpt lat="42.693787" lon="-1.3134054">
        <time>2022-07-04T08:52:41Z</time>
      </trkpt>
      <trkpt lat="42.69367" lon="-1.3133264">
        <time>2022-07-04T08:52:44Z</time>
      </trkpt>
      <trkpt lat="42.69359" lon="-1.3132737">
        <time>2022-07-04T08:52:46Z</time>
      </trkpt>
      <trkpt lat="42.693512" lon="-1.3132226">
        <time>2022-07-04T08:52:48Z</time>
      </trkpt>
      <trkpt lat="42.693428" lon="-1.313171">
        <time>2022-07-04T08:52:50Z</time>
      </trkpt>
      <trkpt lat="42.69335" lon="-1.3131204">
        <time>2022-07-04T08:52:52Z</time>
      </trkpt>
      <trkpt lat="42.69327" lon="-1.3130673">
        <time>2022-07-04T08:52:54Z</time>
      </trkpt>
      <trkpt lat="42.6932" lon="-1.3130127">
        <time>2022-07-04T08:52:56Z</time>
      </trkpt>
      <trkpt lat="42.69312" lon="-1.3129567">
        <time>2022-07-04T08:52:58Z</time>
      </trkpt>
      <trkpt lat="42.693043" lon="-1.3129001">
        <time>2022-07-04T08:53:00Z</time>
      </trkpt>
      <trkpt lat="42.692966" lon="-1.3128394">
        <time>2022-07-04T08:53:02Z</time>
      </trkpt>
      <trkpt lat="42.692886" lon="-1.3127704">
        <time>2022-07-04T08:53:04Z</time>
      </trkpt>
      <trkpt lat="42.69281" lon="-1.3126978">
        <time>2022-07-04T08:53:06Z</time>
      </trkpt>
      <trkpt lat="42.692772" lon="-1.312661">
        <time>2022-07-04T08:53:07Z</time>
      </trkpt>
      <trkpt lat="42.692696" lon="-1.3125901">
        <time>2022-07-04T08:53:09Z</time>
      </trkpt>
      <trkpt lat="42.692616" lon="-1.3125124">
        <time>2022-07-04T08:53:11Z</time>
      </trkpt>
      <trkpt lat="42.69253" lon="-1.3124281">
        <time>2022-07-04T08:53:13Z</time>
      </trkpt>
      <trkpt lat="42.69245" lon="-1.31234">
        <time>2022-07-04T08:53:15Z</time>
      </trkpt>
      <trkpt lat="42.69241" lon="-1.3122951">
        <time>2022-07-04T08:53:16Z</time>
      </trkpt>
      <trkpt lat="42.692368" lon="-1.3122485">
        <time>2022-07-04T08:53:17Z</time>
      </trkpt>
      <trkpt lat="42.692326" lon="-1.3122008">
        <time>2022-07-04T08:53:18Z</time>
      </trkpt>
      <trkpt lat="42.692284" lon="-1.3121518">
        <time>2022-07-04T08:53:19Z</time>
      </trkpt>
      <trkpt lat="42.69224" lon="-1.3121032">
        <time>2022-07-04T08:53:20Z</time>
      </trkpt>
      <trkpt lat="42.6922" lon="-1.3120544">
        <time>2022-07-04T08:53:21Z</time>
      </trkpt>
      <trkpt lat="42.692154" lon="-1.3120058">
        <time>2022-07-04T08:53:22Z</time>
      </trkpt>
      <trkpt lat="42.69211" lon="-1.3119578">
        <time>2022-07-04T08:53:23Z</time>
      </trkpt>
      <trkpt lat="42.692062" lon="-1.3119098">
        <time>2022-07-04T08:53:24Z</time>
      </trkpt>
      <trkpt lat="42.692017" lon="-1.3118604">
        <time>2022-07-04T08:53:25Z</time>
      </trkpt>
      <trkpt lat="42.69197" lon="-1.3118111">
        <time>2022-07-04T08:53:26Z</time>
      </trkpt>
      <trkpt lat="42.691925" lon="-1.3117615">
        <time>2022-07-04T08:53:27Z</time>
      </trkpt>
      <trkpt lat="42.691875" lon="-1.3117118">
        <time>2022-07-04T08:53:28Z</time>
      </trkpt>
      <trkpt lat="42.69183" lon="-1.3116628">
        <time>2022-07-04T08:53:29Z</time>
      </trkpt>
      <trkpt lat="42.69178" lon="-1.3116142">
        <time>2022-07-04T08:53:30Z</time>
      </trkpt>
      <trkpt lat="42.691734" lon="-1.3115648">
        <time>2022-07-04T08:53:31Z</time>
      </trkpt>
      <trkpt lat="42.691685" lon="-1.3115145">
        <time>2022-07-04T08:53:32Z</time>
      </trkpt>
      <trkpt lat="42.69164" lon="-1.3114642">
        <time>2022-07-04T08:53:33Z</time>
      </trkpt>
      <trkpt lat="42.69159" lon="-1.3114141">
        <time>2022-07-04T08:53:34Z</time>
      </trkpt>
      <trkpt lat="42.691544" lon="-1.3113635">
        <time>2022-07-04T08:53:35Z</time>
      </trkpt>
      <trkpt lat="42.691498" lon="-1.3113135">
        <time>2022-07-04T08:53:36Z</time>
      </trkpt>
      <trkpt lat="42.691452" lon="-1.3112632">
        <time>2022-07-04T08:53:37Z</time>
      </trkpt>
      <trkpt lat="42.691402" lon="-1.3112128">
        <time>2022-07-04T08:53:38Z</time>
      </trkpt>
      <trkpt lat="42.691357" lon="-1.3111621">
        <time>2022-07-04T08:53:39Z</time>
      </trkpt>
      <trkpt lat="42.69131" lon="-1.3111122">
        <time>2022-07-04T08:53:40Z</time>
      </trkpt>
      <trkpt lat="42.691265" lon="-1.3110625">
        <time>2022-07-04T08:53:41Z</time>
      </trkpt>
      <trkpt lat="42.69122" lon="-1.3110132">
        <time>2022-07-04T08:53:42Z</time>
      </trkpt>
      <trkpt lat="42.691174" lon="-1.3109639">
        <time>2022-07-04T08:53:43Z</time>
      </trkpt>
      <trkpt lat="42.691128" lon="-1.3109155">
        <time>2022-07-04T08:53:44Z</time>
      </trkpt>
      <trkpt lat="42.691086" lon="-1.3108675">
        <time>2022-07-04T08:53:45Z</time>
      </trkpt>
      <trkpt lat="42.69104" lon="-1.3108199">
        <time>2022-07-04T08:53:46Z</time>
      </trkpt>
      <trkpt lat="42.690994" lon="-1.3107729">
        <time>2022-07-04T08:53:47Z</time>
      </trkpt>
      <trkpt lat="42.69095" lon="-1.3107269">
        <time>2022-07-04T08:53:48Z</time>
      </trkpt>
      <trkpt lat="42.690907" lon="-1.3106812">
        <time>2022-07-04T08:53:49Z</time>
      </trkpt>
      <trkpt lat="42.69086" lon="-1.3106365">
        <time>2022-07-04T08:53:50Z</time>
      </trkpt>
      <trkpt lat="42.690777" lon="-1.3105476">
        <time>2022-07-04T08:53:52Z</time>
      </trkpt>
      <trkpt lat="42.69073" lon="-1.3105025">
        <time>2022-07-04T08:53:53Z</time>
      </trkpt>
      <trkpt lat="42.69069" lon="-1.3104572">
        <time>2022-07-04T08:53:54Z</time>
      </trkpt>
      <trkpt lat="42.690647" lon="-1.3104125">
        <time>2022-07-04T08:53:55Z</time>
      </trkpt>
      <trkpt lat="42.6906" lon="-1.3103693">
        <time>2022-07-04T08:53:56Z</time>
      </trkpt>
      <trkpt lat="42.69056" lon="-1.3103255">
        <time>2022-07-04T08:53:57Z</time>
      </trkpt>
      <trkpt lat="42.690517" lon="-1.3102822">
        <time>2022-07-04T08:53:58Z</time>
      </trkpt>
      <trkpt lat="42.69048" lon="-1.3102382">
        <time>2022-07-04T08:53:59Z</time>
      </trkpt>
      <trkpt lat="42.690437" lon="-1.3101959">
        <time>2022-07-04T08:54:00Z</time>
      </trkpt>
      <trkpt lat="42.690353" lon="-1.3101139">
        <time>2022-07-04T08:54:02Z</time>
      </trkpt>
      <trkpt lat="42.690315" lon="-1.3100725">
        <time>2022-07-04T08:54:03Z</time>
      </trkpt>
      <trkpt lat="42.690235" lon="-1.3099916">
        <time>2022-07-04T08:54:05Z</time>
      </trkpt>
      <trkpt lat="42.69016" lon="-1.3099133">
        <time>2022-07-04T08:54:07Z</time>
      </trkpt>
      <trkpt lat="42.69009" lon="-1.3098413">
        <time>2022-07-04T08:54:09Z</time>
      </trkpt>
      <trkpt lat="42.690014" lon="-1.3097643">
        <time>2022-07-04T08:54:11Z</time>
      </trkpt>
      <trkpt lat="42.689938" lon="-1.3096876">
        <time>2022-07-04T08:54:13Z</time>
      </trkpt>
      <trkpt lat="42.689865" lon="-1.3096136">
        <time>2022-07-04T08:54:15Z</time>
      </trkpt>
      <trkpt lat="42.68979" lon="-1.3095386">
        <time>2022-07-04T08:54:17Z</time>
      </trkpt>
      <trkpt lat="42.689713" lon="-1.3094625">
        <time>2022-07-04T08:54:19Z</time>
      </trkpt>
      <trkpt lat="42.689674" lon="-1.3094232">
        <time>2022-07-04T08:54:20Z</time>
      </trkpt>
      <trkpt lat="42.689594" lon="-1.3093432">
        <time>2022-07-04T08:54:22Z</time>
      </trkpt>
      <trkpt lat="42.689556" lon="-1.3093022">
        <time>2022-07-04T08:54:23Z</time>
      </trkpt>
      <trkpt lat="42.68948" lon="-1.3092196">
        <time>2022-07-04T08:54:25Z</time>
      </trkpt>
      <trkpt lat="42.689404" lon="-1.3091342">
        <time>2022-07-04T08:54:27Z</time>
      </trkpt>
      <trkpt lat="42.689327" lon="-1.3090483">
        <time>2022-07-04T08:54:29Z</time>
      </trkpt>
      <trkpt lat="42.689247" lon="-1.3089626">
        <time>2022-07-04T08:54:31Z</time>
      </trkpt>
      <trkpt lat="42.689205" lon="-1.3089203">
        <time>2022-07-04T08:54:32Z</time>
      </trkpt>
      <trkpt lat="42.68912" lon="-1.3088343">
        <time>2022-07-04T08:54:34Z</time>
      </trkpt>
      <trkpt lat="42.689075" lon="-1.3087903">
        <time>2022-07-04T08:54:35Z</time>
      </trkpt>
      <trkpt lat="42.689034" lon="-1.3087456">
        <time>2022-07-04T08:54:36Z</time>
      </trkpt>
      <trkpt lat="42.688988" lon="-1.3087013">
        <time>2022-07-04T08:54:37Z</time>
      </trkpt>
      <trkpt lat="42.688942" lon="-1.3086543">
        <time>2022-07-04T08:54:38Z</time>
      </trkpt>
      <trkpt lat="42.688896" lon="-1.3086053">
        <time>2022-07-04T08:54:39Z</time>
      </trkpt>
      <trkpt lat="42.68885" lon="-1.3085543">
        <time>2022-07-04T08:54:40Z</time>
      </trkpt>
      <trkpt lat="42.6888" lon="-1.3085027">
        <time>2022-07-04T08:54:41Z</time>
      </trkpt>
      <trkpt lat="42.688755" lon="-1.3084496">
        <time>2022-07-04T08:54:42Z</time>
      </trkpt>
      <trkpt lat="42.68871" lon="-1.308393">
        <time>2022-07-04T08:54:43Z</time>
      </trkpt>
      <trkpt lat="42.688656" lon="-1.3083394">
        <time>2022-07-04T08:54:44Z</time>
      </trkpt>
      <trkpt lat="42.688606" lon="-1.308286">
        <time>2022-07-04T08:54:45Z</time>
      </trkpt>
      <trkpt lat="42.68856" lon="-1.3082286">
        <time>2022-07-04T08:54:46Z</time>
      </trkpt>
      <trkpt lat="42.688515" lon="-1.3081713">
        <time>2022-07-04T08:54:47Z</time>
      </trkpt>
      <trkpt lat="42.688465" lon="-1.3081057">
        <time>2022-07-04T08:54:48Z</time>
      </trkpt>
      <trkpt lat="42.688416" lon="-1.3080384">
        <time>2022-07-04T08:54:49Z</time>
      </trkpt>
      <trkpt lat="42.688366" lon="-1.3079747">
        <time>2022-07-04T08:54:50Z</time>
      </trkpt>
      <trkpt lat="42.68832" lon="-1.3079094">
        <time>2022-07-04T08:54:51Z</time>
      </trkpt>
      <trkpt lat="42.688267" lon="-1.3078357">
        <time>2022-07-04T08:54:52Z</time>
      </trkpt>
      <trkpt lat="42.688213" lon="-1.3077617">
        <time>2022-07-04T08:54:53Z</time>
      </trkpt>
      <trkpt lat="42.688164" lon="-1.3076856">
        <time>2022-07-04T08:54:54Z</time>
      </trkpt>
      <trkpt lat="42.688114" lon="-1.3076077">
        <time>2022-07-04T08:54:55Z</time>
      </trkpt>
      <trkpt lat="42.688065" lon="-1.3075286">
        <time>2022-07-04T08:54:56Z</time>
      </trkpt>
      <trkpt lat="42.687973" lon="-1.3073684">
        <time>2022-07-04T08:54:58Z</time>
      </trkpt>
      <trkpt lat="42.687927" lon="-1.3072864">
        <time>2022-07-04T08:54:59Z</time>
      </trkpt>
      <trkpt lat="42.68788" lon="-1.3072081">
        <time>2022-07-04T08:55:00Z</time>
      </trkpt>
      <trkpt lat="42.687836" lon="-1.3071216">
        <time>2022-07-04T08:55:01Z</time>
      </trkpt>
      <trkpt lat="42.68779" lon="-1.307042">
        <time>2022-07-04T08:55:02Z</time>
      </trkpt>
      <trkpt lat="42.687744" lon="-1.3069594">
        <time>2022-07-04T08:55:03Z</time>
      </trkpt>
      <trkpt lat="42.6877" lon="-1.3068763">
        <time>2022-07-04T08:55:04Z</time>
      </trkpt>
      <trkpt lat="42.687653" lon="-1.3067927">
        <time>2022-07-04T08:55:05Z</time>
      </trkpt>
      <trkpt lat="42.687607" lon="-1.3067094">
        <time>2022-07-04T08:55:06Z</time>
      </trkpt>
      <trkpt lat="42.687557" lon="-1.3066211">
        <time>2022-07-04T08:55:07Z</time>
      </trkpt>
      <trkpt lat="42.687508" lon="-1.3065354">
        <time>2022-07-04T08:55:08Z</time>
      </trkpt>
      <trkpt lat="42.68746" lon="-1.3064517">
        <time>2022-07-04T08:55:09Z</time>
      </trkpt>
      <trkpt lat="42.687416" lon="-1.3063728">
        <time>2022-07-04T08:55:10Z</time>
      </trkpt>
      <trkpt lat="42.687374" lon="-1.3062944">
        <time>2022-07-04T08:55:11Z</time>
      </trkpt>
      <trkpt lat="42.687332" lon="-1.3062147">
        <time>2022-07-04T08:55:12Z</time>
      </trkpt>
      <trkpt lat="42.687286" lon="-1.306136">
        <time>2022-07-04T08:55:13Z</time>
      </trkpt>
      <trkpt lat="42.687244" lon="-1.3060588">
        <time>2022-07-04T08:55:14Z</time>
      </trkpt>
      <trkpt lat="42.6872" lon="-1.3059838">
        <time>2022-07-04T08:55:15Z</time>
      </trkpt>
      <trkpt lat="42.687157" lon="-1.3059098">
        <time>2022-07-04T08:55:16Z</time>
      </trkpt>
      <trkpt lat="42.687115" lon="-1.305837">
        <time>2022-07-04T08:55:17Z</time>
      </trkpt>
      <trkpt lat="42.687073" lon="-1.305762">
        <time>2022-07-04T08:55:18Z</time>
      </trkpt>
      <trkpt lat="42.687027" lon="-1.3056914">
        <time>2022-07-04T08:55:19Z</time>
      </trkpt>
      <trkpt lat="42.686985" lon="-1.3056291">
        <time>2022-07-04T08:55:20Z</time>
      </trkpt>
      <trkpt lat="42.686943" lon="-1.3055688">
        <time>2022-07-04T08:55:21Z</time>
      </trkpt>
      <trkpt lat="42.6869" lon="-1.3055094">
        <time>2022-07-04T08:55:22Z</time>
      </trkpt>
      <trkpt lat="42.686855" lon="-1.3054495">
        <time>2022-07-04T08:55:23Z</time>
      </trkpt>
      <trkpt lat="42.68681" lon="-1.3053918">
        <time>2022-07-04T08:55:24Z</time>
      </trkpt>
      <trkpt lat="42.686764" lon="-1.3053337">
        <time>2022-07-04T08:55:25Z</time>
      </trkpt>
      <trkpt lat="42.686718" lon="-1.3052775">
        <time>2022-07-04T08:55:26Z</time>
      </trkpt>
      <trkpt lat="42.686676" lon="-1.3052251">
        <time>2022-07-04T08:55:27Z</time>
      </trkpt>
      <trkpt lat="42.686634" lon="-1.3051738">
        <time>2022-07-04T08:55:28Z</time>
      </trkpt>
      <trkpt lat="42.68659" lon="-1.3051227">
        <time>2022-07-04T08:55:29Z</time>
      </trkpt>
      <trkpt lat="42.686546" lon="-1.3050758">
        <time>2022-07-04T08:55:30Z</time>
      </trkpt>
      <trkpt lat="42.6865" lon="-1.3050292">
        <time>2022-07-04T08:55:31Z</time>
      </trkpt>
      <trkpt lat="42.686455" lon="-1.3049802">
        <time>2022-07-04T08:55:32Z</time>
      </trkpt>
      <trkpt lat="42.68641" lon="-1.3049288">
        <time>2022-07-04T08:55:33Z</time>
      </trkpt>
      <trkpt lat="42.686363" lon="-1.3048822">
        <time>2022-07-04T08:55:34Z</time>
      </trkpt>
      <trkpt lat="42.68632" lon="-1.3048351">
        <time>2022-07-04T08:55:35Z</time>
      </trkpt>
      <trkpt lat="42.686275" lon="-1.3047881">
        <time>2022-07-04T08:55:36Z</time>
      </trkpt>
      <trkpt lat="42.68623" lon="-1.3047415">
        <time>2022-07-04T08:55:37Z</time>
      </trkpt>
      <trkpt lat="42.686188" lon="-1.3046961">
        <time>2022-07-04T08:55:38Z</time>
      </trkpt>
      <trkpt lat="42.686142" lon="-1.3046511">
        <time>2022-07-04T08:55:39Z</time>
      </trkpt>
      <trkpt lat="42.686092" lon="-1.3046021">
        <time>2022-07-04T08:55:40Z</time>
      </trkpt>
      <trkpt lat="42.686047" lon="-1.3045545">
        <time>2022-07-04T08:55:41Z</time>
      </trkpt>
      <trkpt lat="42.686" lon="-1.3045075">
        <time>2022-07-04T08:55:42Z</time>
      </trkpt>
      <trkpt lat="42.685955" lon="-1.3044615">
        <time>2022-07-04T08:55:43Z</time>
      </trkpt>
      <trkpt lat="42.68591" lon="-1.3044162">
        <time>2022-07-04T08:55:44Z</time>
      </trkpt>
      <trkpt lat="42.685863" lon="-1.3043722">
        <time>2022-07-04T08:55:45Z</time>
      </trkpt>
      <trkpt lat="42.685825" lon="-1.3043308">
        <time>2022-07-04T08:55:46Z</time>
      </trkpt>
      <trkpt lat="42.68578" lon="-1.3042868">
        <time>2022-07-04T08:55:47Z</time>
      </trkpt>
      <trkpt lat="42.685734" lon="-1.3042442">
        <time>2022-07-04T08:55:48Z</time>
      </trkpt>
      <trkpt lat="42.68569" lon="-1.3042018">
        <time>2022-07-04T08:55:49Z</time>
      </trkpt>
      <trkpt lat="42.685646" lon="-1.3041582">
        <time>2022-07-04T08:55:50Z</time>
      </trkpt>
      <trkpt lat="42.685604" lon="-1.3041148">
        <time>2022-07-04T08:55:51Z</time>
      </trkpt>
      <trkpt lat="42.685562" lon="-1.3040738">
        <time>2022-07-04T08:55:52Z</time>
      </trkpt>
      <trkpt lat="42.68552" lon="-1.3040339">
        <time>2022-07-04T08:55:53Z</time>
      </trkpt>
      <trkpt lat="42.685474" lon="-1.3039949">
        <time>2022-07-04T08:55:54Z</time>
      </trkpt>
      <trkpt lat="42.68543" lon="-1.3039545">
        <time>2022-07-04T08:55:55Z</time>
      </trkpt>
      <trkpt lat="42.68535" lon="-1.3038715">
        <time>2022-07-04T08:55:57Z</time>
      </trkpt>
      <trkpt lat="42.68531" lon="-1.3038305">
        <time>2022-07-04T08:55:58Z</time>
      </trkpt>
      <trkpt lat="42.68523" lon="-1.3037481">
        <time>2022-07-04T08:56:00Z</time>
      </trkpt>
      <trkpt lat="42.685154" lon="-1.3036681">
        <time>2022-07-04T08:56:02Z</time>
      </trkpt>
      <trkpt lat="42.68509" lon="-1.3035935">
        <time>2022-07-04T08:56:04Z</time>
      </trkpt>
      <trkpt lat="42.685062" lon="-1.3035245">
        <time>2022-07-04T08:56:06Z</time>
      </trkpt>
      <trkpt lat="42.685085" lon="-1.3034692">
        <time>2022-07-04T08:56:09Z</time>
      </trkpt>
      <trkpt lat="42.68514" lon="-1.3034419">
        <time>2022-07-04T08:56:13Z</time>
      </trkpt>
      <trkpt lat="42.684998" lon="-1.3035358">
        <time>2022-07-04T08:57:31Z</time>
      </trkpt>
      <trkpt lat="42.684933" lon="-1.3034849">
        <time>2022-07-04T08:57:35Z</time>
      </trkpt>
      <trkpt lat="42.68488" lon="-1.3034222">
        <time>2022-07-04T08:57:38Z</time>
      </trkpt>
      <trkpt lat="42.684822" lon="-1.3033565">
        <time>2022-07-04T08:57:41Z</time>
      </trkpt>
      <trkpt lat="42.684784" lon="-1.3033099">
        <time>2022-07-04T08:57:43Z</time>
      </trkpt>
      <trkpt lat="42.68473" lon="-1.3032339">
        <time>2022-07-04T08:57:46Z</time>
      </trkpt>
      <trkpt lat="42.684692" lon="-1.3031819">
        <time>2022-07-04T08:57:48Z</time>
      </trkpt>
      <trkpt lat="42.684654" lon="-1.3031322">
        <time>2022-07-04T08:57:50Z</time>
      </trkpt>
      <trkpt lat="42.684612" lon="-1.3030835">
        <time>2022-07-04T08:57:52Z</time>
      </trkpt>
      <trkpt lat="42.684566" lon="-1.3030359">
        <time>2022-07-04T08:57:54Z</time>
      </trkpt>
      <trkpt lat="42.684517" lon="-1.3029906">
        <time>2022-07-04T08:57:56Z</time>
      </trkpt>
      <trkpt lat="42.68447" lon="-1.302949">
        <time>2022-07-04T08:57:58Z</time>
      </trkpt>
      <trkpt lat="42.68442" lon="-1.3029052">
        <time>2022-07-04T08:58:00Z</time>
      </trkpt>
      <trkpt lat="42.68438" lon="-1.3028586">
        <time>2022-07-04T08:58:02Z</time>
      </trkpt>
      <trkpt lat="42.684338" lon="-1.3028116">
        <time>2022-07-04T08:58:04Z</time>
      </trkpt>
      <trkpt lat="42.684296" lon="-1.3027679">
        <time>2022-07-04T08:58:06Z</time>
      </trkpt>
      <trkpt lat="42.684254" lon="-1.3027216">
        <time>2022-07-04T08:58:08Z</time>
      </trkpt>
      <trkpt lat="42.684216" lon="-1.3026739">
        <time>2022-07-04T08:58:10Z</time>
      </trkpt>
      <trkpt lat="42.684174" lon="-1.30263">
        <time>2022-07-04T08:58:12Z</time>
      </trkpt>
      <trkpt lat="42.684116" lon="-1.3025686">
        <time>2022-07-04T08:58:15Z</time>
      </trkpt>
      <trkpt lat="42.684055" lon="-1.3025069">
        <time>2022-07-04T08:58:18Z</time>
      </trkpt>
      <trkpt lat="42.684013" lon="-1.3024629">
        <time>2022-07-04T08:58:20Z</time>
      </trkpt>
      <trkpt lat="42.68397" lon="-1.3024203">
        <time>2022-07-04T08:58:22Z</time>
      </trkpt>
      <trkpt lat="42.683914" lon="-1.3023529">
        <time>2022-07-04T08:58:25Z</time>
      </trkpt>
      <trkpt lat="42.683876" lon="-1.302312">
        <time>2022-07-04T08:58:27Z</time>
      </trkpt>
      <trkpt lat="42.68382" lon="-1.3022516">
        <time>2022-07-04T08:58:30Z</time>
      </trkpt>
      <trkpt lat="42.68376" lon="-1.3021916">
        <time>2022-07-04T08:58:33Z</time>
      </trkpt>
      <trkpt lat="42.68371" lon="-1.302136">
        <time>2022-07-04T08:58:36Z</time>
      </trkpt>
      <trkpt lat="42.68365" lon="-1.3020797">
        <time>2022-07-04T08:58:39Z</time>
      </trkpt>
      <trkpt lat="42.683594" lon="-1.3020229">
        <time>2022-07-04T08:58:42Z</time>
      </trkpt>
      <trkpt lat="42.68354" lon="-1.3019637">
        <time>2022-07-04T08:58:45Z</time>
      </trkpt>
      <trkpt lat="42.68349" lon="-1.3019077">
        <time>2022-07-04T08:58:48Z</time>
      </trkpt>
      <trkpt lat="42.683445" lon="-1.30186">
        <time>2022-07-04T08:58:51Z</time>
      </trkpt>
      <trkpt lat="42.6834" lon="-1.3018093">
        <time>2022-07-04T08:58:54Z</time>
      </trkpt>
      <trkpt lat="42.68335" lon="-1.3017616">
        <time>2022-07-04T08:58:57Z</time>
      </trkpt>
      <trkpt lat="42.6833" lon="-1.3017133">
        <time>2022-07-04T08:59:00Z</time>
      </trkpt>
      <trkpt lat="42.68325" lon="-1.301666">
        <time>2022-07-04T08:59:03Z</time>
      </trkpt>
      <trkpt lat="42.683205" lon="-1.3016176">
        <time>2022-07-04T08:59:06Z</time>
      </trkpt>
      <trkpt lat="42.683155" lon="-1.3015684">
        <time>2022-07-04T08:59:09Z</time>
      </trkpt>
      <trkpt lat="42.683105" lon="-1.30152">
        <time>2022-07-04T08:59:12Z</time>
      </trkpt>
      <trkpt lat="42.683056" lon="-1.3014723">
        <time>2022-07-04T08:59:15Z</time>
      </trkpt>
      <trkpt lat="42.683006" lon="-1.3014233">
        <time>2022-07-04T08:59:18Z</time>
      </trkpt>
      <trkpt lat="42.682953" lon="-1.3013754">
        <time>2022-07-04T08:59:21Z</time>
      </trkpt>
      <trkpt lat="42.682903" lon="-1.3013287">
        <time>2022-07-04T08:59:24Z</time>
      </trkpt>
      <trkpt lat="42.682854" lon="-1.3012847">
        <time>2022-07-04T08:59:27Z</time>
      </trkpt>
      <trkpt lat="42.682808" lon="-1.3012414">
        <time>2022-07-04T08:59:30Z</time>
      </trkpt>
      <trkpt lat="42.682755" lon="-1.3011957">
        <time>2022-07-04T08:59:33Z</time>
      </trkpt>
      <trkpt lat="42.682705" lon="-1.3011534">
        <time>2022-07-04T08:59:36Z</time>
      </trkpt>
      <trkpt lat="42.68266" lon="-1.3011087">
        <time>2022-07-04T08:59:39Z</time>
      </trkpt>
      <trkpt lat="42.68261" lon="-1.3010634">
        <time>2022-07-04T08:59:42Z</time>
      </trkpt>
      <trkpt lat="42.682556" lon="-1.3010191">
        <time>2022-07-04T08:59:45Z</time>
      </trkpt>
      <trkpt lat="42.682503" lon="-1.3009727">
        <time>2022-07-04T08:59:48Z</time>
      </trkpt>
      <trkpt lat="42.682453" lon="-1.300932">
        <time>2022-07-04T08:59:51Z</time>
      </trkpt>
      <trkpt lat="42.6824" lon="-1.3008884">
        <time>2022-07-04T08:59:54Z</time>
      </trkpt>
      <trkpt lat="42.682343" lon="-1.3008467">
        <time>2022-07-04T08:59:57Z</time>
      </trkpt>
      <trkpt lat="42.68229" lon="-1.3008051">
        <time>2022-07-04T09:00:00Z</time>
      </trkpt>
      <trkpt lat="42.68224" lon="-1.3007607">
        <time>2022-07-04T09:00:03Z</time>
      </trkpt>
      <trkpt lat="42.682186" lon="-1.3007144">
        <time>2022-07-04T09:00:06Z</time>
      </trkpt>
      <trkpt lat="42.68213" lon="-1.3006687">
        <time>2022-07-04T09:00:09Z</time>
      </trkpt>
      <trkpt lat="42.682068" lon="-1.3006197">
        <time>2022-07-04T09:00:12Z</time>
      </trkpt>
      <trkpt lat="42.68201" lon="-1.300569">
        <time>2022-07-04T09:00:15Z</time>
      </trkpt>
      <trkpt lat="42.681927" lon="-1.3005085">
        <time>2022-07-04T09:00:19Z</time>
      </trkpt>
      <trkpt lat="42.681866" lon="-1.3004644">
        <time>2022-07-04T09:00:22Z</time>
      </trkpt>
      <trkpt lat="42.681805" lon="-1.3004168">
        <time>2022-07-04T09:00:25Z</time>
      </trkpt>
      <trkpt lat="42.681744" lon="-1.3003671">
        <time>2022-07-04T09:00:28Z</time>
      </trkpt>
      <trkpt lat="42.681686" lon="-1.3003185">
        <time>2022-07-04T09:00:31Z</time>
      </trkpt>
      <trkpt lat="42.68162" lon="-1.3002721">
        <time>2022-07-04T09:00:34Z</time>
      </trkpt>
      <trkpt lat="42.68156" lon="-1.3002222">
        <time>2022-07-04T09:00:37Z</time>
      </trkpt>
      <trkpt lat="42.681496" lon="-1.3001719">
        <time>2022-07-04T09:00:40Z</time>
      </trkpt>
      <trkpt lat="42.681435" lon="-1.3001262">
        <time>2022-07-04T09:00:43Z</time>
      </trkpt>
      <trkpt lat="42.681374" lon="-1.3000828">
        <time>2022-07-04T09:00:46Z</time>
      </trkpt>
      <trkpt lat="42.681316" lon="-1.3000362">
        <time>2022-07-04T09:00:49Z</time>
      </trkpt>
      <trkpt lat="42.681255" lon="-1.2999859">
        <time>2022-07-04T09:00:52Z</time>
      </trkpt>
      <trkpt lat="42.681217" lon="-1.2999529">
        <time>2022-07-04T09:00:54Z</time>
      </trkpt>
      <trkpt lat="42.681156" lon="-1.2999035">
        <time>2022-07-04T09:00:57Z</time>
      </trkpt>
      <trkpt lat="42.681114" lon="-1.2998701">
        <time>2022-07-04T09:00:59Z</time>
      </trkpt>
      <trkpt lat="42.681053" lon="-1.2998248">
        <time>2022-07-04T09:01:02Z</time>
      </trkpt>
      <trkpt lat="42.68101" lon="-1.2997955">
        <time>2022-07-04T09:01:04Z</time>
      </trkpt>
      <trkpt lat="42.68095" lon="-1.2997512">
        <time>2022-07-04T09:01:07Z</time>
      </trkpt>
      <trkpt lat="42.680885" lon="-1.2997068">
        <time>2022-07-04T09:01:10Z</time>
      </trkpt>
      <trkpt lat="42.680843" lon="-1.2996765">
        <time>2022-07-04T09:01:12Z</time>
      </trkpt>
      <trkpt lat="42.680782" lon="-1.2996285">
        <time>2022-07-04T09:01:15Z</time>
      </trkpt>
      <trkpt lat="42.68072" lon="-1.2995808">
        <time>2022-07-04T09:01:18Z</time>
      </trkpt>
      <trkpt lat="42.680683" lon="-1.2995492">
        <time>2022-07-04T09:01:20Z</time>
      </trkpt>
      <trkpt lat="42.680603" lon="-1.2994869">
        <time>2022-07-04T09:01:24Z</time>
      </trkpt>
      <trkpt lat="42.680542" lon="-1.2994412">
        <time>2022-07-04T09:01:27Z</time>
      </trkpt>
      <trkpt lat="42.68048" lon="-1.2993959">
        <time>2022-07-04T09:01:30Z</time>
      </trkpt>
      <trkpt lat="42.680416" lon="-1.2993503">
        <time>2022-07-04T09:01:33Z</time>
      </trkpt>
      <trkpt lat="42.68036" lon="-1.2993022">
        <time>2022-07-04T09:01:36Z</time>
      </trkpt>
      <trkpt lat="42.680298" lon="-1.2992569">
        <time>2022-07-04T09:01:39Z</time>
      </trkpt>
      <trkpt lat="42.680256" lon="-1.2992243">
        <time>2022-07-04T09:01:41Z</time>
      </trkpt>
      <trkpt lat="42.6802" lon="-1.2991766">
        <time>2022-07-04T09:01:44Z</time>
      </trkpt>
      <trkpt lat="42.680138" lon="-1.2991279">
        <time>2022-07-04T09:01:47Z</time>
      </trkpt>
      <trkpt lat="42.68008" lon="-1.2990819">
        <time>2022-07-04T09:01:50Z</time>
      </trkpt>
      <trkpt lat="42.68002" lon="-1.2990402">
        <time>2022-07-04T09:01:53Z</time>
      </trkpt>
      <trkpt lat="42.679962" lon="-1.2989945">
        <time>2022-07-04T09:01:56Z</time>
      </trkpt>
      <trkpt lat="42.6799" lon="-1.2989489">
        <time>2022-07-04T09:01:59Z</time>
      </trkpt>
      <trkpt lat="42.679844" lon="-1.2989053">
        <time>2022-07-04T09:02:02Z</time>
      </trkpt>
      <trkpt lat="42.679787" lon="-1.2988666">
        <time>2022-07-04T09:02:05Z</time>
      </trkpt>
      <trkpt lat="42.679733" lon="-1.2988263">
        <time>2022-07-04T09:02:08Z</time>
      </trkpt>
      <trkpt lat="42.679676" lon="-1.2987903">
        <time>2022-07-04T09:02:11Z</time>
      </trkpt>
      <trkpt lat="42.679623" lon="-1.2987493">
        <time>2022-07-04T09:02:14Z</time>
      </trkpt>
      <trkpt lat="42.679565" lon="-1.2987016">
        <time>2022-07-04T09:02:17Z</time>
      </trkpt>
      <trkpt lat="42.679512" lon="-1.2986566">
        <time>2022-07-04T09:02:20Z</time>
      </trkpt>
      <trkpt lat="42.679455" lon="-1.2986159">
        <time>2022-07-04T09:02:23Z</time>
      </trkpt>
      <trkpt lat="42.679398" lon="-1.298573">
        <time>2022-07-04T09:02:26Z</time>
      </trkpt>
      <trkpt lat="42.67934" lon="-1.2985259">
        <time>2022-07-04T09:02:29Z</time>
      </trkpt>
      <trkpt lat="42.679283" lon="-1.298481">
        <time>2022-07-04T09:02:32Z</time>
      </trkpt>
      <trkpt lat="42.679226" lon="-1.298438">
        <time>2022-07-04T09:02:35Z</time>
      </trkpt>
      <trkpt lat="42.679165" lon="-1.2983923">
        <time>2022-07-04T09:02:38Z</time>
      </trkpt>
      <trkpt lat="42.679108" lon="-1.2983476">
        <time>2022-07-04T09:02:41Z</time>
      </trkpt>
      <trkpt lat="42.679047" lon="-1.2983017">
        <time>2022-07-04T09:02:44Z</time>
      </trkpt>
      <trkpt lat="42.678986" lon="-1.2982513">
        <time>2022-07-04T09:02:47Z</time>
      </trkpt>
      <trkpt lat="42.678947" lon="-1.2982206">
        <time>2022-07-04T09:02:49Z</time>
      </trkpt>
      <trkpt lat="42.678886" lon="-1.2981757">
        <time>2022-07-04T09:02:52Z</time>
      </trkpt>
      <trkpt lat="42.678825" lon="-1.29813">
        <time>2022-07-04T09:02:55Z</time>
      </trkpt>
      <trkpt lat="42.67877" lon="-1.2980807">
        <time>2022-07-04T09:02:58Z</time>
      </trkpt>
      <trkpt lat="42.678707" lon="-1.2980326">
        <time>2022-07-04T09:03:01Z</time>
      </trkpt>
      <trkpt lat="42.67865" lon="-1.297982">
        <time>2022-07-04T09:03:04Z</time>
      </trkpt>
      <trkpt lat="42.67859" lon="-1.2979324">
        <time>2022-07-04T09:03:07Z</time>
      </trkpt>
      <trkpt lat="42.67852" lon="-1.2978851">
        <time>2022-07-04T09:03:10Z</time>
      </trkpt>
      <trkpt lat="42.678474" lon="-1.297851">
        <time>2022-07-04T09:03:12Z</time>
      </trkpt>
      <trkpt lat="42.67841" lon="-1.297801">
        <time>2022-07-04T09:03:15Z</time>
      </trkpt>
      <trkpt lat="42.678368" lon="-1.2977684">
        <time>2022-07-04T09:03:17Z</time>
      </trkpt>
      <trkpt lat="42.678295" lon="-1.297716">
        <time>2022-07-04T09:03:20Z</time>
      </trkpt>
      <trkpt lat="42.67825" lon="-1.2976807">
        <time>2022-07-04T09:03:22Z</time>
      </trkpt>
      <trkpt lat="42.678207" lon="-1.2976437">
        <time>2022-07-04T09:03:24Z</time>
      </trkpt>
      <trkpt lat="42.67816" lon="-1.2976063">
        <time>2022-07-04T09:03:26Z</time>
      </trkpt>
      <trkpt lat="42.678093" lon="-1.2975527">
        <time>2022-07-04T09:03:29Z</time>
      </trkpt>
      <trkpt lat="42.67805" lon="-1.2975167">
        <time>2022-07-04T09:03:31Z</time>
      </trkpt>
      <trkpt lat="42.67801" lon="-1.297484">
        <time>2022-07-04T09:03:33Z</time>
      </trkpt>
      <trkpt lat="42.67794" lon="-1.297435">
        <time>2022-07-04T09:03:36Z</time>
      </trkpt>
      <trkpt lat="42.677895" lon="-1.2974027">
        <time>2022-07-04T09:03:38Z</time>
      </trkpt>
      <trkpt lat="42.67783" lon="-1.2973493">
        <time>2022-07-04T09:03:41Z</time>
      </trkpt>
      <trkpt lat="42.677784" lon="-1.2973154">
        <time>2022-07-04T09:03:43Z</time>
      </trkpt>
      <trkpt lat="42.67774" lon="-1.297283">
        <time>2022-07-04T09:03:45Z</time>
      </trkpt>
      <trkpt lat="42.677692" lon="-1.2972478">
        <time>2022-07-04T09:03:47Z</time>
      </trkpt>
      <trkpt lat="42.677643" lon="-1.2972114">
        <time>2022-07-04T09:03:49Z</time>
      </trkpt>
      <trkpt lat="42.677593" lon="-1.2971747">
        <time>2022-07-04T09:03:51Z</time>
      </trkpt>
      <trkpt lat="42.677544" lon="-1.297137">
        <time>2022-07-04T09:03:53Z</time>
      </trkpt>
      <trkpt lat="42.677498" lon="-1.2970991">
        <time>2022-07-04T09:03:55Z</time>
      </trkpt>
      <trkpt lat="42.677452" lon="-1.2970611">
        <time>2022-07-04T09:03:57Z</time>
      </trkpt>
      <trkpt lat="42.677406" lon="-1.2970247">
        <time>2022-07-04T09:03:59Z</time>
      </trkpt>
      <trkpt lat="42.677357" lon="-1.296987">
        <time>2022-07-04T09:04:01Z</time>
      </trkpt>
      <trkpt lat="42.677307" lon="-1.2969475">
        <time>2022-07-04T09:04:03Z</time>
      </trkpt>
      <trkpt lat="42.67725" lon="-1.2969024">
        <time>2022-07-04T09:04:05Z</time>
      </trkpt>
      <trkpt lat="42.6772" lon="-1.2968614">
        <time>2022-07-04T09:04:07Z</time>
      </trkpt>
      <trkpt lat="42.677143" lon="-1.2968198">
        <time>2022-07-04T09:04:09Z</time>
      </trkpt>
      <trkpt lat="42.677086" lon="-1.2967818">
        <time>2022-07-04T09:04:11Z</time>
      </trkpt>
      <trkpt lat="42.67703" lon="-1.2967438">
        <time>2022-07-04T09:04:13Z</time>
      </trkpt>
      <trkpt lat="42.67697" lon="-1.2967081">
        <time>2022-07-04T09:04:15Z</time>
      </trkpt>
      <trkpt lat="42.67691" lon="-1.2966754">
        <time>2022-07-04T09:04:17Z</time>
      </trkpt>
      <trkpt lat="42.67684" lon="-1.2966418">
        <time>2022-07-04T09:04:19Z</time>
      </trkpt>
      <trkpt lat="42.67678" lon="-1.2966101">
        <time>2022-07-04T09:04:21Z</time>
      </trkpt>
      <trkpt lat="42.676712" lon="-1.2965791">
        <time>2022-07-04T09:04:23Z</time>
      </trkpt>
      <trkpt lat="42.676647" lon="-1.2965524">
        <time>2022-07-04T09:04:25Z</time>
      </trkpt>
      <trkpt lat="42.676582" lon="-1.2965242">
        <time>2022-07-04T09:04:27Z</time>
      </trkpt>
      <trkpt lat="42.676514" lon="-1.2964975">
        <time>2022-07-04T09:04:29Z</time>
      </trkpt>
      <trkpt lat="42.676453" lon="-1.2964802">
        <time>2022-07-04T09:04:31Z</time>
      </trkpt>
      <trkpt lat="42.676388" lon="-1.2964672">
        <time>2022-07-04T09:04:33Z</time>
      </trkpt>
      <trkpt lat="42.676323" lon="-1.2964568">
        <time>2022-07-04T09:04:35Z</time>
      </trkpt>
      <trkpt lat="42.676254" lon="-1.2964462">
        <time>2022-07-04T09:04:37Z</time>
      </trkpt>
      <trkpt lat="42.67618" lon="-1.2964362">
        <time>2022-07-04T09:04:39Z</time>
      </trkpt>
      <trkpt lat="42.67611" lon="-1.2964275">
        <time>2022-07-04T09:04:41Z</time>
      </trkpt>
      <trkpt lat="42.676025" lon="-1.2964215">
        <time>2022-07-04T09:04:43Z</time>
      </trkpt>
      <trkpt lat="42.675945" lon="-1.2964182">
        <time>2022-07-04T09:04:45Z</time>
      </trkpt>
      <trkpt lat="42.67586" lon="-1.2964182">
        <time>2022-07-04T09:04:47Z</time>
      </trkpt>
      <trkpt lat="42.675774" lon="-1.2964191">
        <time>2022-07-04T09:04:49Z</time>
      </trkpt>
      <trkpt lat="42.675686" lon="-1.2964191">
        <time>2022-07-04T09:04:51Z</time>
      </trkpt>
      <trkpt lat="42.675602" lon="-1.2964221">
        <time>2022-07-04T09:04:53Z</time>
      </trkpt>
      <trkpt lat="42.675518" lon="-1.2964251">
        <time>2022-07-04T09:04:55Z</time>
      </trkpt>
      <trkpt lat="42.675426" lon="-1.2964282">
        <time>2022-07-04T09:04:57Z</time>
      </trkpt>
      <trkpt lat="42.67534" lon="-1.2964318">
        <time>2022-07-04T09:04:59Z</time>
      </trkpt>
      <trkpt lat="42.675243" lon="-1.2964385">
        <time>2022-07-04T09:05:01Z</time>
      </trkpt>
      <trkpt lat="42.675144" lon="-1.2964451">
        <time>2022-07-04T09:05:03Z</time>
      </trkpt>
      <trkpt lat="42.67509" lon="-1.2964488">
        <time>2022-07-04T09:05:04Z</time>
      </trkpt>
      <trkpt lat="42.67504" lon="-1.2964509">
        <time>2022-07-04T09:05:05Z</time>
      </trkpt>
      <trkpt lat="42.674934" lon="-1.2964561">
        <time>2022-07-04T09:05:07Z</time>
      </trkpt>
      <trkpt lat="42.67488" lon="-1.2964588">
        <time>2022-07-04T09:05:08Z</time>
      </trkpt>
      <trkpt lat="42.674828" lon="-1.2964615">
        <time>2022-07-04T09:05:09Z</time>
      </trkpt>
      <trkpt lat="42.67477" lon="-1.2964644">
        <time>2022-07-04T09:05:10Z</time>
      </trkpt>
      <trkpt lat="42.674717" lon="-1.2964681">
        <time>2022-07-04T09:05:11Z</time>
      </trkpt>
      <trkpt lat="42.67466" lon="-1.2964721">
        <time>2022-07-04T09:05:12Z</time>
      </trkpt>
      <trkpt lat="42.674606" lon="-1.2964765">
        <time>2022-07-04T09:05:13Z</time>
      </trkpt>
      <trkpt lat="42.67455" lon="-1.2964808">
        <time>2022-07-04T09:05:14Z</time>
      </trkpt>
      <trkpt lat="42.67449" lon="-1.2964838">
        <time>2022-07-04T09:05:15Z</time>
      </trkpt>
      <trkpt lat="42.67443" lon="-1.2964878">
        <time>2022-07-04T09:05:16Z</time>
      </trkpt>
      <trkpt lat="42.67437" lon="-1.296493">
        <time>2022-07-04T09:05:17Z</time>
      </trkpt>
      <trkpt lat="42.674316" lon="-1.2964988">
        <time>2022-07-04T09:05:18Z</time>
      </trkpt>
      <trkpt lat="42.67425" lon="-1.2965038">
        <time>2022-07-04T09:05:19Z</time>
      </trkpt>
      <trkpt lat="42.67419" lon="-1.2965081">
        <time>2022-07-04T09:05:20Z</time>
      </trkpt>
      <trkpt lat="42.674126" lon="-1.2965121">
        <time>2022-07-04T09:05:21Z</time>
      </trkpt>
      <trkpt lat="42.67406" lon="-1.2965168">
        <time>2022-07-04T09:05:22Z</time>
      </trkpt>
      <trkpt lat="42.673992" lon="-1.2965201">
        <time>2022-07-04T09:05:23Z</time>
      </trkpt>
      <trkpt lat="42.673927" lon="-1.2965231">
        <time>2022-07-04T09:05:24Z</time>
      </trkpt>
      <trkpt lat="42.67386" lon="-1.2965254">
        <time>2022-07-04T09:05:25Z</time>
      </trkpt>
      <trkpt lat="42.67379" lon="-1.2965281">
        <time>2022-07-04T09:05:26Z</time>
      </trkpt>
      <trkpt lat="42.67372" lon="-1.2965294">
        <time>2022-07-04T09:05:27Z</time>
      </trkpt>
      <trkpt lat="42.67365" lon="-1.2965311">
        <time>2022-07-04T09:05:28Z</time>
      </trkpt>
      <trkpt lat="42.673576" lon="-1.2965331">
        <time>2022-07-04T09:05:29Z</time>
      </trkpt>
      <trkpt lat="42.67351" lon="-1.2965361">
        <time>2022-07-04T09:05:30Z</time>
      </trkpt>
      <trkpt lat="42.673443" lon="-1.2965397">
        <time>2022-07-04T09:05:31Z</time>
      </trkpt>
      <trkpt lat="42.67337" lon="-1.2965428">
        <time>2022-07-04T09:05:32Z</time>
      </trkpt>
      <trkpt lat="42.6733" lon="-1.2965447">
        <time>2022-07-04T09:05:33Z</time>
      </trkpt>
      <trkpt lat="42.673225" lon="-1.2965467">
        <time>2022-07-04T09:05:34Z</time>
      </trkpt>
      <trkpt lat="42.67315" lon="-1.296548">
        <time>2022-07-04T09:05:35Z</time>
      </trkpt>
      <trkpt lat="42.673073" lon="-1.2965494">
        <time>2022-07-04T09:05:36Z</time>
      </trkpt>
      <trkpt lat="42.673" lon="-1.2965497">
        <time>2022-07-04T09:05:37Z</time>
      </trkpt>
      <trkpt lat="42.672924" lon="-1.2965504">
        <time>2022-07-04T09:05:38Z</time>
      </trkpt>
      <trkpt lat="42.672848" lon="-1.2965517">
        <time>2022-07-04T09:05:39Z</time>
      </trkpt>
      <trkpt lat="42.672775" lon="-1.2965541">
        <time>2022-07-04T09:05:40Z</time>
      </trkpt>
      <trkpt lat="42.672703" lon="-1.2965577">
        <time>2022-07-04T09:05:41Z</time>
      </trkpt>
      <trkpt lat="42.672626" lon="-1.2965621">
        <time>2022-07-04T09:05:42Z</time>
      </trkpt>
      <trkpt lat="42.67255" lon="-1.2965664">
        <time>2022-07-04T09:05:43Z</time>
      </trkpt>
      <trkpt lat="42.672478" lon="-1.2965717">
        <time>2022-07-04T09:05:44Z</time>
      </trkpt>
      <trkpt lat="42.672405" lon="-1.2965773">
        <time>2022-07-04T09:05:45Z</time>
      </trkpt>
      <trkpt lat="42.67233" lon="-1.2965827">
        <time>2022-07-04T09:05:46Z</time>
      </trkpt>
      <trkpt lat="42.672256" lon="-1.296588">
        <time>2022-07-04T09:05:47Z</time>
      </trkpt>
      <trkpt lat="42.672184" lon="-1.2965937">
        <time>2022-07-04T09:05:48Z</time>
      </trkpt>
      <trkpt lat="42.67211" lon="-1.2965987">
        <time>2022-07-04T09:05:49Z</time>
      </trkpt>
      <trkpt lat="42.67204" lon="-1.2966026">
        <time>2022-07-04T09:05:50Z</time>
      </trkpt>
      <trkpt lat="42.671967" lon="-1.2966063">
        <time>2022-07-04T09:05:51Z</time>
      </trkpt>
      <trkpt lat="42.671894" lon="-1.2966104">
        <time>2022-07-04T09:05:52Z</time>
      </trkpt>
      <trkpt lat="42.671825" lon="-1.2966146">
        <time>2022-07-04T09:05:53Z</time>
      </trkpt>
      <trkpt lat="42.671753" lon="-1.2966183">
        <time>2022-07-04T09:05:54Z</time>
      </trkpt>
      <trkpt lat="42.671684" lon="-1.2966217">
        <time>2022-07-04T09:05:55Z</time>
      </trkpt>
      <trkpt lat="42.671616" lon="-1.2966256">
        <time>2022-07-04T09:05:56Z</time>
      </trkpt>
      <trkpt lat="42.671543" lon="-1.2966306">
        <time>2022-07-04T09:05:57Z</time>
      </trkpt>
      <trkpt lat="42.671474" lon="-1.2966353">
        <time>2022-07-04T09:05:58Z</time>
      </trkpt>
      <trkpt lat="42.671406" lon="-1.2966393">
        <time>2022-07-04T09:05:59Z</time>
      </trkpt>
      <trkpt lat="42.671337" lon="-1.2966423">
        <time>2022-07-04T09:06:00Z</time>
      </trkpt>
      <trkpt lat="42.67127" lon="-1.2966464">
        <time>2022-07-04T09:06:01Z</time>
      </trkpt>
      <trkpt lat="42.6712" lon="-1.2966503">
        <time>2022-07-04T09:06:02Z</time>
      </trkpt>
      <trkpt lat="42.67113" lon="-1.2966543">
        <time>2022-07-04T09:06:03Z</time>
      </trkpt>
      <trkpt lat="42.671066" lon="-1.2966583">
        <time>2022-07-04T09:06:04Z</time>
      </trkpt>
      <trkpt lat="42.670998" lon="-1.2966629">
        <time>2022-07-04T09:06:05Z</time>
      </trkpt>
      <trkpt lat="42.670933" lon="-1.2966686">
        <time>2022-07-04T09:06:06Z</time>
      </trkpt>
      <trkpt lat="42.670864" lon="-1.2966743">
        <time>2022-07-04T09:06:07Z</time>
      </trkpt>
      <trkpt lat="42.6708" lon="-1.2966789">
        <time>2022-07-04T09:06:08Z</time>
      </trkpt>
      <trkpt lat="42.67073" lon="-1.2966826">
        <time>2022-07-04T09:06:09Z</time>
      </trkpt>
      <trkpt lat="42.670662" lon="-1.2966869">
        <time>2022-07-04T09:06:10Z</time>
      </trkpt>
      <trkpt lat="42.670593" lon="-1.2966913">
        <time>2022-07-04T09:06:11Z</time>
      </trkpt>
      <trkpt lat="42.670525" lon="-1.2966949">
        <time>2022-07-04T09:06:12Z</time>
      </trkpt>
      <trkpt lat="42.670456" lon="-1.2966989">
        <time>2022-07-04T09:06:13Z</time>
      </trkpt>
      <trkpt lat="42.670383" lon="-1.2967032">
        <time>2022-07-04T09:06:14Z</time>
      </trkpt>
      <trkpt lat="42.670315" lon="-1.2967066">
        <time>2022-07-04T09:06:15Z</time>
      </trkpt>
      <trkpt lat="42.670242" lon="-1.2967099">
        <time>2022-07-04T09:06:16Z</time>
      </trkpt>
      <trkpt lat="42.67017" lon="-1.2967136">
        <time>2022-07-04T09:06:17Z</time>
      </trkpt>
      <trkpt lat="42.6701" lon="-1.2967162">
        <time>2022-07-04T09:06:18Z</time>
      </trkpt>
      <trkpt lat="42.67003" lon="-1.2967199">
        <time>2022-07-04T09:06:19Z</time>
      </trkpt>
      <trkpt lat="42.669888" lon="-1.2967246">
        <time>2022-07-04T09:06:21Z</time>
      </trkpt>
      <trkpt lat="42.66982" lon="-1.2967272">
        <time>2022-07-04T09:06:22Z</time>
      </trkpt>
      <trkpt lat="42.66975" lon="-1.2967302">
        <time>2022-07-04T09:06:23Z</time>
      </trkpt>
      <trkpt lat="42.669678" lon="-1.2967342">
        <time>2022-07-04T09:06:24Z</time>
      </trkpt>
      <trkpt lat="42.669605" lon="-1.2967379">
        <time>2022-07-04T09:06:25Z</time>
      </trkpt>
      <trkpt lat="42.669533" lon="-1.2967418">
        <time>2022-07-04T09:06:26Z</time>
      </trkpt>
      <trkpt lat="42.66946" lon="-1.2967463">
        <time>2022-07-04T09:06:27Z</time>
      </trkpt>
      <trkpt lat="42.669388" lon="-1.2967505">
        <time>2022-07-04T09:06:28Z</time>
      </trkpt>
      <trkpt lat="42.669315" lon="-1.2967542">
        <time>2022-07-04T09:06:29Z</time>
      </trkpt>
      <trkpt lat="42.669247" lon="-1.2967585">
        <time>2022-07-04T09:06:30Z</time>
      </trkpt>
      <trkpt lat="42.669174" lon="-1.2967628">
        <time>2022-07-04T09:06:31Z</time>
      </trkpt>
      <trkpt lat="42.6691" lon="-1.2967675">
        <time>2022-07-04T09:06:32Z</time>
      </trkpt>
      <trkpt lat="42.66903" lon="-1.2967721">
        <time>2022-07-04T09:06:33Z</time>
      </trkpt>
      <trkpt lat="42.668957" lon="-1.2967775">
        <time>2022-07-04T09:06:34Z</time>
      </trkpt>
      <trkpt lat="42.668884" lon="-1.2967829">
        <time>2022-07-04T09:06:35Z</time>
      </trkpt>
      <trkpt lat="42.66881" lon="-1.2967875">
        <time>2022-07-04T09:06:36Z</time>
      </trkpt>
      <trkpt lat="42.66874" lon="-1.2967912">
        <time>2022-07-04T09:06:37Z</time>
      </trkpt>
      <trkpt lat="42.66867" lon="-1.2967948">
        <time>2022-07-04T09:06:38Z</time>
      </trkpt>
      <trkpt lat="42.668602" lon="-1.2967981">
        <time>2022-07-04T09:06:39Z</time>
      </trkpt>
      <trkpt lat="42.668533" lon="-1.2968014">
        <time>2022-07-04T09:06:40Z</time>
      </trkpt>
      <trkpt lat="42.668465" lon="-1.2968038">
        <time>2022-07-04T09:06:41Z</time>
      </trkpt>
      <trkpt lat="42.668396" lon="-1.2968055">
        <time>2022-07-04T09:06:42Z</time>
      </trkpt>
      <trkpt lat="42.66833" lon="-1.2968072">
        <time>2022-07-04T09:06:43Z</time>
      </trkpt>
      <trkpt lat="42.668262" lon="-1.2968091">
        <time>2022-07-04T09:06:44Z</time>
      </trkpt>
      <trkpt lat="42.668198" lon="-1.2968111">
        <time>2022-07-04T09:06:45Z</time>
      </trkpt>
      <trkpt lat="42.668133" lon="-1.2968131">
        <time>2022-07-04T09:06:46Z</time>
      </trkpt>
      <trkpt lat="42.66807" lon="-1.2968161">
        <time>2022-07-04T09:06:47Z</time>
      </trkpt>
      <trkpt lat="42.668007" lon="-1.2968194">
        <time>2022-07-04T09:06:48Z</time>
      </trkpt>
      <trkpt lat="42.667942" lon="-1.2968241">
        <time>2022-07-04T09:06:49Z</time>
      </trkpt>
      <trkpt lat="42.667877" lon="-1.2968295">
        <time>2022-07-04T09:06:50Z</time>
      </trkpt>
      <trkpt lat="42.667812" lon="-1.2968341">
        <time>2022-07-04T09:06:51Z</time>
      </trkpt>
      <trkpt lat="42.667747" lon="-1.2968384">
        <time>2022-07-04T09:06:52Z</time>
      </trkpt>
      <trkpt lat="42.667683" lon="-1.2968428">
        <time>2022-07-04T09:06:53Z</time>
      </trkpt>
      <trkpt lat="42.667618" lon="-1.2968464">
        <time>2022-07-04T09:06:54Z</time>
      </trkpt>
      <trkpt lat="42.667553" lon="-1.2968504">
        <time>2022-07-04T09:06:55Z</time>
      </trkpt>
      <trkpt lat="42.66749" lon="-1.2968541">
        <time>2022-07-04T09:06:56Z</time>
      </trkpt>
      <trkpt lat="42.667427" lon="-1.2968584">
        <time>2022-07-04T09:06:57Z</time>
      </trkpt>
      <trkpt lat="42.667362" lon="-1.2968627">
        <time>2022-07-04T09:06:58Z</time>
      </trkpt>
      <trkpt lat="42.667297" lon="-1.2968664">
        <time>2022-07-04T09:06:59Z</time>
      </trkpt>
      <trkpt lat="42.667236" lon="-1.2968698">
        <time>2022-07-04T09:07:00Z</time>
      </trkpt>
      <trkpt lat="42.66717" lon="-1.2968737">
        <time>2022-07-04T09:07:01Z</time>
      </trkpt>
      <trkpt lat="42.66711" lon="-1.2968774">
        <time>2022-07-04T09:07:02Z</time>
      </trkpt>
      <trkpt lat="42.66705" lon="-1.2968811">
        <time>2022-07-04T09:07:03Z</time>
      </trkpt>
      <trkpt lat="42.666985" lon="-1.2968847">
        <time>2022-07-04T09:07:04Z</time>
      </trkpt>
      <trkpt lat="42.666924" lon="-1.296888">
        <time>2022-07-04T09:07:05Z</time>
      </trkpt>
      <trkpt lat="42.666866" lon="-1.2968913">
        <time>2022-07-04T09:07:06Z</time>
      </trkpt>
      <trkpt lat="42.666805" lon="-1.296895">
        <time>2022-07-04T09:07:07Z</time>
      </trkpt>
      <trkpt lat="42.666748" lon="-1.2968987">
        <time>2022-07-04T09:07:08Z</time>
      </trkpt>
      <trkpt lat="42.666687" lon="-1.2969027">
        <time>2022-07-04T09:07:09Z</time>
      </trkpt>
      <trkpt lat="42.66663" lon="-1.2969067">
        <time>2022-07-04T09:07:10Z</time>
      </trkpt>
      <trkpt lat="42.666576" lon="-1.296911">
        <time>2022-07-04T09:07:11Z</time>
      </trkpt>
      <trkpt lat="42.66652" lon="-1.296914">
        <time>2022-07-04T09:07:12Z</time>
      </trkpt>
      <trkpt lat="42.666466" lon="-1.2969157">
        <time>2022-07-04T09:07:13Z</time>
      </trkpt>
      <trkpt lat="42.666412" lon="-1.2969177">
        <time>2022-07-04T09:07:14Z</time>
      </trkpt>
      <trkpt lat="42.66636" lon="-1.2969197">
        <time>2022-07-04T09:07:15Z</time>
      </trkpt>
      <trkpt lat="42.666306" lon="-1.2969223">
        <time>2022-07-04T09:07:16Z</time>
      </trkpt>
      <trkpt lat="42.666252" lon="-1.296926">
        <time>2022-07-04T09:07:17Z</time>
      </trkpt>
      <trkpt lat="42.666203" lon="-1.296929">
        <time>2022-07-04T09:07:18Z</time>
      </trkpt>
      <trkpt lat="42.666103" lon="-1.2969337">
        <time>2022-07-04T09:07:20Z</time>
      </trkpt>
      <trkpt lat="42.666004" lon="-1.296939">
        <time>2022-07-04T09:07:22Z</time>
      </trkpt>
      <trkpt lat="42.66591" lon="-1.296942">
        <time>2022-07-04T09:07:24Z</time>
      </trkpt>
      <trkpt lat="42.66582" lon="-1.2969433">
        <time>2022-07-04T09:07:26Z</time>
      </trkpt>
      <trkpt lat="42.66573" lon="-1.296947">
        <time>2022-07-04T09:07:28Z</time>
      </trkpt>
      <trkpt lat="42.66564" lon="-1.296952">
        <time>2022-07-04T09:07:30Z</time>
      </trkpt>
      <trkpt lat="42.66556" lon="-1.2969587">
        <time>2022-07-04T09:07:32Z</time>
      </trkpt>
      <trkpt lat="42.665485" lon="-1.296963">
        <time>2022-07-04T09:07:34Z</time>
      </trkpt>
      <trkpt lat="42.665413" lon="-1.2969667">
        <time>2022-07-04T09:07:36Z</time>
      </trkpt>
      <trkpt lat="42.66534" lon="-1.2969693">
        <time>2022-07-04T09:07:38Z</time>
      </trkpt>
      <trkpt lat="42.66527" lon="-1.2969693">
        <time>2022-07-04T09:07:40Z</time>
      </trkpt>
      <trkpt lat="42.6652" lon="-1.2969689">
        <time>2022-07-04T09:07:42Z</time>
      </trkpt>
      <trkpt lat="42.665127" lon="-1.2969726">
        <time>2022-07-04T09:07:44Z</time>
      </trkpt>
      <trkpt lat="42.665054" lon="-1.2969769">
        <time>2022-07-04T09:07:46Z</time>
      </trkpt>
      <trkpt lat="42.664978" lon="-1.2969799">
        <time>2022-07-04T09:07:48Z</time>
      </trkpt>
      <trkpt lat="42.66491" lon="-1.2969823">
        <time>2022-07-04T09:07:50Z</time>
      </trkpt>
      <trkpt lat="42.66484" lon="-1.2969869">
        <time>2022-07-04T09:07:52Z</time>
      </trkpt>
      <trkpt lat="42.664772" lon="-1.296992">
        <time>2022-07-04T09:07:54Z</time>
      </trkpt>
      <trkpt lat="42.664703" lon="-1.2969986">
        <time>2022-07-04T09:07:56Z</time>
      </trkpt>
      <trkpt lat="42.664635" lon="-1.2970059">
        <time>2022-07-04T09:07:58Z</time>
      </trkpt>
      <trkpt lat="42.664566" lon="-1.2970133">
        <time>2022-07-04T09:08:00Z</time>
      </trkpt>
      <trkpt lat="42.6645" lon="-1.2970235">
        <time>2022-07-04T09:08:02Z</time>
      </trkpt>
      <trkpt lat="42.66444" lon="-1.2970335">
        <time>2022-07-04T09:08:04Z</time>
      </trkpt>
      <trkpt lat="42.664375" lon="-1.2970452">
        <time>2022-07-04T09:08:06Z</time>
      </trkpt>
      <trkpt lat="42.66431" lon="-1.2970582">
        <time>2022-07-04T09:08:08Z</time>
      </trkpt>
      <trkpt lat="42.66425" lon="-1.2970736">
        <time>2022-07-04T09:08:10Z</time>
      </trkpt>
      <trkpt lat="42.66418" lon="-1.2970899">
        <time>2022-07-04T09:08:12Z</time>
      </trkpt>
      <trkpt lat="42.66412" lon="-1.2971059">
        <time>2022-07-04T09:08:14Z</time>
      </trkpt>
      <trkpt lat="42.664055" lon="-1.2971263">
        <time>2022-07-04T09:08:16Z</time>
      </trkpt>
      <trkpt lat="42.663998" lon="-1.2971449">
        <time>2022-07-04T09:08:18Z</time>
      </trkpt>
      <trkpt lat="42.663937" lon="-1.2971662">
        <time>2022-07-04T09:08:20Z</time>
      </trkpt>
      <trkpt lat="42.663876" lon="-1.2971919">
        <time>2022-07-04T09:08:22Z</time>
      </trkpt>
      <trkpt lat="42.663815" lon="-1.2972172">
        <time>2022-07-04T09:08:24Z</time>
      </trkpt>
      <trkpt lat="42.663746" lon="-1.2972492">
        <time>2022-07-04T09:08:26Z</time>
      </trkpt>
      <trkpt lat="42.66368" lon="-1.2972846">
        <time>2022-07-04T09:08:28Z</time>
      </trkpt>
      <trkpt lat="42.663616" lon="-1.2973206">
        <time>2022-07-04T09:08:30Z</time>
      </trkpt>
      <trkpt lat="42.663548" lon="-1.2973605">
        <time>2022-07-04T09:08:32Z</time>
      </trkpt>
      <trkpt lat="42.66348" lon="-1.2973999">
        <time>2022-07-04T09:08:34Z</time>
      </trkpt>
      <trkpt lat="42.66341" lon="-1.2974389">
        <time>2022-07-04T09:08:36Z</time>
      </trkpt>
      <trkpt lat="42.663338" lon="-1.2974756">
        <time>2022-07-04T09:08:38Z</time>
      </trkpt>
      <trkpt lat="42.66326" lon="-1.2975146">
        <time>2022-07-04T09:08:40Z</time>
      </trkpt>
      <trkpt lat="42.66319" lon="-1.2975543">
        <time>2022-07-04T09:08:42Z</time>
      </trkpt>
      <trkpt lat="42.663113" lon="-1.2975949">
        <time>2022-07-04T09:08:44Z</time>
      </trkpt>
      <trkpt lat="42.66304" lon="-1.2976326">
        <time>2022-07-04T09:08:46Z</time>
      </trkpt>
      <trkpt lat="42.66297" lon="-1.2976662">
        <time>2022-07-04T09:08:48Z</time>
      </trkpt>
      <trkpt lat="42.662895" lon="-1.2977035">
        <time>2022-07-04T09:08:50Z</time>
      </trkpt>
      <trkpt lat="42.662815" lon="-1.2977436">
        <time>2022-07-04T09:08:52Z</time>
      </trkpt>
      <trkpt lat="42.66273" lon="-1.2977872">
        <time>2022-07-04T09:08:54Z</time>
      </trkpt>
      <trkpt lat="42.662605" lon="-1.2978572">
        <time>2022-07-04T09:08:57Z</time>
      </trkpt>
      <trkpt lat="42.66252" lon="-1.2979045">
        <time>2022-07-04T09:08:59Z</time>
      </trkpt>
      <trkpt lat="42.662434" lon="-1.2979511">
        <time>2022-07-04T09:09:01Z</time>
      </trkpt>
      <trkpt lat="42.662357" lon="-1.2979928">
        <time>2022-07-04T09:09:03Z</time>
      </trkpt>
      <trkpt lat="42.662273" lon="-1.2980361">
        <time>2022-07-04T09:09:05Z</time>
      </trkpt>
      <trkpt lat="42.662193" lon="-1.2980791">
        <time>2022-07-04T09:09:07Z</time>
      </trkpt>
      <trkpt lat="42.662117" lon="-1.2981209">
        <time>2022-07-04T09:09:09Z</time>
      </trkpt>
      <trkpt lat="42.662037" lon="-1.2981688">
        <time>2022-07-04T09:09:11Z</time>
      </trkpt>
      <trkpt lat="42.661957" lon="-1.2982185">
        <time>2022-07-04T09:09:13Z</time>
      </trkpt>
      <trkpt lat="42.661873" lon="-1.2982684">
        <time>2022-07-04T09:09:15Z</time>
      </trkpt>
      <trkpt lat="42.661797" lon="-1.2983191">
        <time>2022-07-04T09:09:17Z</time>
      </trkpt>
      <trkpt lat="42.661724" lon="-1.2983714">
        <time>2022-07-04T09:09:19Z</time>
      </trkpt>
      <trkpt lat="42.66165" lon="-1.2984238">
        <time>2022-07-04T09:09:21Z</time>
      </trkpt>
      <trkpt lat="42.66158" lon="-1.2984748">
        <time>2022-07-04T09:09:23Z</time>
      </trkpt>
      <trkpt lat="42.661507" lon="-1.2985245">
        <time>2022-07-04T09:09:25Z</time>
      </trkpt>
      <trkpt lat="42.661438" lon="-1.2985752">
        <time>2022-07-04T09:09:27Z</time>
      </trkpt>
      <trkpt lat="42.661366" lon="-1.2986314">
        <time>2022-07-04T09:09:29Z</time>
      </trkpt>
      <trkpt lat="42.661293" lon="-1.2986904">
        <time>2022-07-04T09:09:31Z</time>
      </trkpt>
      <trkpt lat="42.661217" lon="-1.2987517">
        <time>2022-07-04T09:09:33Z</time>
      </trkpt>
      <trkpt lat="42.661133" lon="-1.2988151">
        <time>2022-07-04T09:09:35Z</time>
      </trkpt>
      <trkpt lat="42.66105" lon="-1.2988821">
        <time>2022-07-04T09:09:37Z</time>
      </trkpt>
      <trkpt lat="42.661003" lon="-1.2989174">
        <time>2022-07-04T09:09:38Z</time>
      </trkpt>
      <trkpt lat="42.660908" lon="-1.2989954">
        <time>2022-07-04T09:09:40Z</time>
      </trkpt>
      <trkpt lat="42.660862" lon="-1.2990317">
        <time>2022-07-04T09:09:41Z</time>
      </trkpt>
      <trkpt lat="42.66082" lon="-1.2990694">
        <time>2022-07-04T09:09:42Z</time>
      </trkpt>
      <trkpt lat="42.660774" lon="-1.2991074">
        <time>2022-07-04T09:09:43Z</time>
      </trkpt>
      <trkpt lat="42.66068" lon="-1.2991881">
        <time>2022-07-04T09:09:45Z</time>
      </trkpt>
      <trkpt lat="42.660633" lon="-1.2992264">
        <time>2022-07-04T09:09:46Z</time>
      </trkpt>
      <trkpt lat="42.660587" lon="-1.2992648">
        <time>2022-07-04T09:09:47Z</time>
      </trkpt>
      <trkpt lat="42.66054" lon="-1.2993021">
        <time>2022-07-04T09:09:48Z</time>
      </trkpt>
      <trkpt lat="42.660492" lon="-1.299339">
        <time>2022-07-04T09:09:49Z</time>
      </trkpt>
      <trkpt lat="42.66044" lon="-1.2993791">
        <time>2022-07-04T09:09:50Z</time>
      </trkpt>
      <trkpt lat="42.660393" lon="-1.2994168">
        <time>2022-07-04T09:09:51Z</time>
      </trkpt>
      <trkpt lat="42.660343" lon="-1.2994537">
        <time>2022-07-04T09:09:52Z</time>
      </trkpt>
      <trkpt lat="42.660294" lon="-1.299494">
        <time>2022-07-04T09:09:53Z</time>
      </trkpt>
      <trkpt lat="42.66024" lon="-1.2995347">
        <time>2022-07-04T09:09:54Z</time>
      </trkpt>
      <trkpt lat="42.66019" lon="-1.2995731">
        <time>2022-07-04T09:09:55Z</time>
      </trkpt>
      <trkpt lat="42.66014" lon="-1.2996124">
        <time>2022-07-04T09:09:56Z</time>
      </trkpt>
      <trkpt lat="42.66009" lon="-1.299653">
        <time>2022-07-04T09:09:57Z</time>
      </trkpt>
      <trkpt lat="42.66004" lon="-1.2996937">
        <time>2022-07-04T09:09:58Z</time>
      </trkpt>
      <trkpt lat="42.659992" lon="-1.2997351">
        <time>2022-07-04T09:09:59Z</time>
      </trkpt>
      <trkpt lat="42.65994" lon="-1.299777">
        <time>2022-07-04T09:10:00Z</time>
      </trkpt>
      <trkpt lat="42.65989" lon="-1.2998207">
        <time>2022-07-04T09:10:01Z</time>
      </trkpt>
      <trkpt lat="42.65984" lon="-1.299864">
        <time>2022-07-04T09:10:02Z</time>
      </trkpt>
      <trkpt lat="42.659786" lon="-1.299908">
        <time>2022-07-04T09:10:03Z</time>
      </trkpt>
      <trkpt lat="42.659737" lon="-1.2999517">
        <time>2022-07-04T09:10:04Z</time>
      </trkpt>
      <trkpt lat="42.659687" lon="-1.2999951">
        <time>2022-07-04T09:10:05Z</time>
      </trkpt>
      <trkpt lat="42.659634" lon="-1.300037">
        <time>2022-07-04T09:10:06Z</time>
      </trkpt>
      <trkpt lat="42.659584" lon="-1.300079">
        <time>2022-07-04T09:10:07Z</time>
      </trkpt>
      <trkpt lat="42.659534" lon="-1.3001207">
        <time>2022-07-04T09:10:08Z</time>
      </trkpt>
      <trkpt lat="42.65949" lon="-1.300163">
        <time>2022-07-04T09:10:09Z</time>
      </trkpt>
      <trkpt lat="42.65944" lon="-1.3002063">
        <time>2022-07-04T09:10:10Z</time>
      </trkpt>
      <trkpt lat="42.65939" lon="-1.3002497">
        <time>2022-07-04T09:10:11Z</time>
      </trkpt>
      <trkpt lat="42.65929" lon="-1.3003327">
        <time>2022-07-04T09:10:13Z</time>
      </trkpt>
      <trkpt lat="42.659245" lon="-1.300372">
        <time>2022-07-04T09:10:14Z</time>
      </trkpt>
      <trkpt lat="42.65919" lon="-1.300414">
        <time>2022-07-04T09:10:15Z</time>
      </trkpt>
      <trkpt lat="42.659145" lon="-1.3004553">
        <time>2022-07-04T09:10:16Z</time>
      </trkpt>
      <trkpt lat="42.659096" lon="-1.300495">
        <time>2022-07-04T09:10:17Z</time>
      </trkpt>
      <trkpt lat="42.659054" lon="-1.3005316">
        <time>2022-07-04T09:10:18Z</time>
      </trkpt>
      <trkpt lat="42.65901" lon="-1.3005686">
        <time>2022-07-04T09:10:19Z</time>
      </trkpt>
      <trkpt lat="42.658962" lon="-1.3006079">
        <time>2022-07-04T09:10:20Z</time>
      </trkpt>
      <trkpt lat="42.65892" lon="-1.300643">
        <time>2022-07-04T09:10:21Z</time>
      </trkpt>
      <trkpt lat="42.658875" lon="-1.3006803">
        <time>2022-07-04T09:10:22Z</time>
      </trkpt>
      <trkpt lat="42.658833" lon="-1.300715">
        <time>2022-07-04T09:10:23Z</time>
      </trkpt>
      <trkpt lat="42.65875" lon="-1.3007866">
        <time>2022-07-04T09:10:25Z</time>
      </trkpt>
      <trkpt lat="42.658707" lon="-1.30082">
        <time>2022-07-04T09:10:26Z</time>
      </trkpt>
      <trkpt lat="42.658627" lon="-1.3008856">
        <time>2022-07-04T09:10:28Z</time>
      </trkpt>
      <trkpt lat="42.65859" lon="-1.3009186">
        <time>2022-07-04T09:10:29Z</time>
      </trkpt>
      <trkpt lat="42.65851" lon="-1.3009826">
        <time>2022-07-04T09:10:31Z</time>
      </trkpt>
      <trkpt lat="42.65843" lon="-1.3010433">
        <time>2022-07-04T09:10:33Z</time>
      </trkpt>
      <trkpt lat="42.65835" lon="-1.3011023">
        <time>2022-07-04T09:10:35Z</time>
      </trkpt>
      <trkpt lat="42.658276" lon="-1.301163">
        <time>2022-07-04T09:10:37Z</time>
      </trkpt>
      <trkpt lat="42.658203" lon="-1.3012246">
        <time>2022-07-04T09:10:39Z</time>
      </trkpt>
      <trkpt lat="42.65813" lon="-1.3012846">
        <time>2022-07-04T09:10:41Z</time>
      </trkpt>
      <trkpt lat="42.65806" lon="-1.301343">
        <time>2022-07-04T09:10:43Z</time>
      </trkpt>
      <trkpt lat="42.657986" lon="-1.3014003">
        <time>2022-07-04T09:10:45Z</time>
      </trkpt>
      <trkpt lat="42.657917" lon="-1.3014612">
        <time>2022-07-04T09:10:47Z</time>
      </trkpt>
      <trkpt lat="42.657845" lon="-1.3015182">
        <time>2022-07-04T09:10:49Z</time>
      </trkpt>
      <trkpt lat="42.657776" lon="-1.3015689">
        <time>2022-07-04T09:10:51Z</time>
      </trkpt>
      <trkpt lat="42.65771" lon="-1.3016216">
        <time>2022-07-04T09:10:53Z</time>
      </trkpt>
      <trkpt lat="42.657646" lon="-1.3016759">
        <time>2022-07-04T09:10:55Z</time>
      </trkpt>
      <trkpt lat="42.65758" lon="-1.3017325">
        <time>2022-07-04T09:10:57Z</time>
      </trkpt>
      <trkpt lat="42.65752" lon="-1.3017932">
        <time>2022-07-04T09:10:59Z</time>
      </trkpt>
      <trkpt lat="42.65746" lon="-1.3018565">
        <time>2022-07-04T09:11:01Z</time>
      </trkpt>
      <trkpt lat="42.6574" lon="-1.3019248">
        <time>2022-07-04T09:11:03Z</time>
      </trkpt>
      <trkpt lat="42.65734" lon="-1.3019916">
        <time>2022-07-04T09:11:05Z</time>
      </trkpt>
      <trkpt lat="42.657284" lon="-1.3020602">
        <time>2022-07-04T09:11:07Z</time>
      </trkpt>
      <trkpt lat="42.657223" lon="-1.3021349">
        <time>2022-07-04T09:11:09Z</time>
      </trkpt>
      <trkpt lat="42.65716" lon="-1.3022221">
        <time>2022-07-04T09:11:11Z</time>
      </trkpt>
      <trkpt lat="42.6571" lon="-1.3023006">
        <time>2022-07-04T09:11:13Z</time>
      </trkpt>
      <trkpt lat="42.657036" lon="-1.3023839">
        <time>2022-07-04T09:11:15Z</time>
      </trkpt>
      <trkpt lat="42.656963" lon="-1.3024728">
        <time>2022-07-04T09:11:17Z</time>
      </trkpt>
      <trkpt lat="42.656925" lon="-1.3025198">
        <time>2022-07-04T09:11:18Z</time>
      </trkpt>
      <trkpt lat="42.65685" lon="-1.3026175">
        <time>2022-07-04T09:11:20Z</time>
      </trkpt>
      <trkpt lat="42.65681" lon="-1.3026668">
        <time>2022-07-04T09:11:21Z</time>
      </trkpt>
      <trkpt lat="42.656773" lon="-1.3027185">
        <time>2022-07-04T09:11:22Z</time>
      </trkpt>
      <trkpt lat="42.65674" lon="-1.3027709">
        <time>2022-07-04T09:11:23Z</time>
      </trkpt>
      <trkpt lat="42.6567" lon="-1.3028245">
        <time>2022-07-04T09:11:24Z</time>
      </trkpt>
      <trkpt lat="42.656662" lon="-1.3028759">
        <time>2022-07-04T09:11:25Z</time>
      </trkpt>
      <trkpt lat="42.656624" lon="-1.3029258">
        <time>2022-07-04T09:11:26Z</time>
      </trkpt>
      <trkpt lat="42.656586" lon="-1.3029752">
        <time>2022-07-04T09:11:27Z</time>
      </trkpt>
      <trkpt lat="42.656544" lon="-1.3030248">
        <time>2022-07-04T09:11:28Z</time>
      </trkpt>
      <trkpt lat="42.6565" lon="-1.3030754">
        <time>2022-07-04T09:11:29Z</time>
      </trkpt>
      <trkpt lat="42.656418" lon="-1.3031788">
        <time>2022-07-04T09:11:31Z</time>
      </trkpt>
      <trkpt lat="42.656376" lon="-1.3032315">
        <time>2022-07-04T09:11:32Z</time>
      </trkpt>
      <trkpt lat="42.65633" lon="-1.3032844">
        <time>2022-07-04T09:11:33Z</time>
      </trkpt>
      <trkpt lat="42.65629" lon="-1.3033382">
        <time>2022-07-04T09:11:34Z</time>
      </trkpt>
      <trkpt lat="42.656242" lon="-1.3033922">
        <time>2022-07-04T09:11:35Z</time>
      </trkpt>
      <trkpt lat="42.656197" lon="-1.3034464">
        <time>2022-07-04T09:11:36Z</time>
      </trkpt>
      <trkpt lat="42.656155" lon="-1.3035004">
        <time>2022-07-04T09:11:37Z</time>
      </trkpt>
      <trkpt lat="42.65611" lon="-1.3035548">
        <time>2022-07-04T09:11:38Z</time>
      </trkpt>
      <trkpt lat="42.656067" lon="-1.3036088">
        <time>2022-07-04T09:11:39Z</time>
      </trkpt>
      <trkpt lat="42.65602" lon="-1.3036628">
        <time>2022-07-04T09:11:40Z</time>
      </trkpt>
      <trkpt lat="42.65598" lon="-1.3037168">
        <time>2022-07-04T09:11:41Z</time>
      </trkpt>
      <trkpt lat="42.655937" lon="-1.3037708">
        <time>2022-07-04T09:11:42Z</time>
      </trkpt>
      <trkpt lat="42.655895" lon="-1.3038261">
        <time>2022-07-04T09:11:43Z</time>
      </trkpt>
      <trkpt lat="42.655853" lon="-1.3038818">
        <time>2022-07-04T09:11:44Z</time>
      </trkpt>
      <trkpt lat="42.65581" lon="-1.3039408">
        <time>2022-07-04T09:11:45Z</time>
      </trkpt>
      <trkpt lat="42.655773" lon="-1.3039968">
        <time>2022-07-04T09:11:46Z</time>
      </trkpt>
      <trkpt lat="42.655735" lon="-1.3040468">
        <time>2022-07-04T09:11:47Z</time>
      </trkpt>
      <trkpt lat="42.65566" lon="-1.3041381">
        <time>2022-07-04T09:11:49Z</time>
      </trkpt>
      <trkpt lat="42.65562" lon="-1.3041791">
        <time>2022-07-04T09:11:50Z</time>
      </trkpt>
      <trkpt lat="42.65554" lon="-1.3042574">
        <time>2022-07-04T09:11:52Z</time>
      </trkpt>
      <trkpt lat="42.655464" lon="-1.3043281">
        <time>2022-07-04T09:11:54Z</time>
      </trkpt>
      <trkpt lat="42.65539" lon="-1.3044014">
        <time>2022-07-04T09:11:56Z</time>
      </trkpt>
      <trkpt lat="42.655327" lon="-1.304478">
        <time>2022-07-04T09:11:58Z</time>
      </trkpt>
      <trkpt lat="42.65527" lon="-1.3045567">
        <time>2022-07-04T09:12:00Z</time>
      </trkpt>
      <trkpt lat="42.655224" lon="-1.3046345">
        <time>2022-07-04T09:12:02Z</time>
      </trkpt>
      <trkpt lat="42.655178" lon="-1.304712">
        <time>2022-07-04T09:12:04Z</time>
      </trkpt>
      <trkpt lat="42.655136" lon="-1.3047867">
        <time>2022-07-04T09:12:06Z</time>
      </trkpt>
      <trkpt lat="42.65509" lon="-1.3048577">
        <time>2022-07-04T09:12:08Z</time>
      </trkpt>
      <trkpt lat="42.65505" lon="-1.3049334">
        <time>2022-07-04T09:12:10Z</time>
      </trkpt>
      <trkpt lat="42.655006" lon="-1.3050067">
        <time>2022-07-04T09:12:12Z</time>
      </trkpt>
      <trkpt lat="42.654964" lon="-1.3050834">
        <time>2022-07-04T09:12:14Z</time>
      </trkpt>
      <trkpt lat="42.65493" lon="-1.3051621">
        <time>2022-07-04T09:12:16Z</time>
      </trkpt>
      <trkpt lat="42.654892" lon="-1.305238">
        <time>2022-07-04T09:12:18Z</time>
      </trkpt>
      <trkpt lat="42.654858" lon="-1.3053174">
        <time>2022-07-04T09:12:20Z</time>
      </trkpt>
      <trkpt lat="42.654827" lon="-1.3054004">
        <time>2022-07-04T09:12:22Z</time>
      </trkpt>
      <trkpt lat="42.6548" lon="-1.3054857">
        <time>2022-07-04T09:12:24Z</time>
      </trkpt>
      <trkpt lat="42.65477" lon="-1.3055693">
        <time>2022-07-04T09:12:26Z</time>
      </trkpt>
      <trkpt lat="42.654747" lon="-1.3056511">
        <time>2022-07-04T09:12:28Z</time>
      </trkpt>
      <trkpt lat="42.654728" lon="-1.30573">
        <time>2022-07-04T09:12:30Z</time>
      </trkpt>
      <trkpt lat="42.654713" lon="-1.3058033">
        <time>2022-07-04T09:12:32Z</time>
      </trkpt>
      <trkpt lat="42.6547" lon="-1.305874">
        <time>2022-07-04T09:12:34Z</time>
      </trkpt>
      <trkpt lat="42.65469" lon="-1.3059323">
        <time>2022-07-04T09:12:37Z</time>
      </trkpt>
      <trkpt lat="42.654682" lon="-1.3058693">
        <time>2022-07-04T09:14:41Z</time>
      </trkpt>
      <trkpt lat="42.65468" lon="-1.305794">
        <time>2022-07-04T09:14:44Z</time>
      </trkpt>
      <trkpt lat="42.654686" lon="-1.305693">
        <time>2022-07-04T09:14:47Z</time>
      </trkpt>
      <trkpt lat="42.6547" lon="-1.305617">
        <time>2022-07-04T09:14:49Z</time>
      </trkpt>
      <trkpt lat="42.654716" lon="-1.30554">
        <time>2022-07-04T09:14:51Z</time>
      </trkpt>
      <trkpt lat="42.654736" lon="-1.305466">
        <time>2022-07-04T09:14:53Z</time>
      </trkpt>
      <trkpt lat="42.654762" lon="-1.305392">
        <time>2022-07-04T09:14:55Z</time>
      </trkpt>
      <trkpt lat="42.65478" lon="-1.3053167">
        <time>2022-07-04T09:14:57Z</time>
      </trkpt>
      <trkpt lat="42.65479" lon="-1.305244">
        <time>2022-07-04T09:14:59Z</time>
      </trkpt>
      <trkpt lat="42.654778" lon="-1.3051797">
        <time>2022-07-04T09:15:01Z</time>
      </trkpt>
      <trkpt lat="42.654766" lon="-1.305089">
        <time>2022-07-04T09:15:04Z</time>
      </trkpt>
      <trkpt lat="42.654797" lon="-1.304999">
        <time>2022-07-04T09:15:07Z</time>
      </trkpt>
      <trkpt lat="42.654823" lon="-1.304937">
        <time>2022-07-04T09:15:09Z</time>
      </trkpt>
      <trkpt lat="42.654842" lon="-1.3048667">
        <time>2022-07-04T09:15:11Z</time>
      </trkpt>
      <trkpt lat="42.654854" lon="-1.3047893">
        <time>2022-07-04T09:15:13Z</time>
      </trkpt>
      <trkpt lat="42.654858" lon="-1.3047113">
        <time>2022-07-04T09:15:15Z</time>
      </trkpt>
      <trkpt lat="42.65486" lon="-1.304633">
        <time>2022-07-04T09:15:17Z</time>
      </trkpt>
      <trkpt lat="42.65486" lon="-1.3045228">
        <time>2022-07-04T09:15:20Z</time>
      </trkpt>
      <trkpt lat="42.65486" lon="-1.3044524">
        <time>2022-07-04T09:15:22Z</time>
      </trkpt>
      <trkpt lat="42.65486" lon="-1.3043877">
        <time>2022-07-04T09:15:24Z</time>
      </trkpt>
      <trkpt lat="42.654854" lon="-1.3043023">
        <time>2022-07-04T09:15:27Z</time>
      </trkpt>
      <trkpt lat="42.654827" lon="-1.3042483">
        <time>2022-07-04T09:15:30Z</time>
      </trkpt>
      <trkpt lat="42.654774" lon="-1.304226">
        <time>2022-07-04T09:15:34Z</time>
      </trkpt>
      <trkpt lat="42.65472" lon="-1.3042251">
        <time>2022-07-04T09:15:38Z</time>
      </trkpt>
      <trkpt lat="42.65466" lon="-1.304234">
        <time>2022-07-04T09:15:42Z</time>
      </trkpt>
      <trkpt lat="42.654606" lon="-1.3042287">
        <time>2022-07-04T09:15:46Z</time>
      </trkpt>
      <trkpt lat="42.654552" lon="-1.3042151">
        <time>2022-07-04T09:15:50Z</time>
      </trkpt>
      <trkpt lat="42.654488" lon="-1.3042027">
        <time>2022-07-04T09:15:55Z</time>
      </trkpt>
      <trkpt lat="42.65443" lon="-1.3042034">
        <time>2022-07-04T09:15:59Z</time>
      </trkpt>
      <trkpt lat="42.654377" lon="-1.3042138">
        <time>2022-07-04T09:16:03Z</time>
      </trkpt>
      <trkpt lat="42.654324" lon="-1.3042091">
        <time>2022-07-04T09:16:07Z</time>
      </trkpt>
      <trkpt lat="42.65427" lon="-1.3041924">
        <time>2022-07-04T09:16:11Z</time>
      </trkpt>
      <trkpt lat="42.654213" lon="-1.3041757">
        <time>2022-07-04T09:16:15Z</time>
      </trkpt>
      <trkpt lat="42.654156" lon="-1.3041598">
        <time>2022-07-04T09:16:19Z</time>
      </trkpt>
      <trkpt lat="42.654102" lon="-1.3041681">
        <time>2022-07-04T09:16:23Z</time>
      </trkpt>
      <trkpt lat="42.65405" lon="-1.3041854">
        <time>2022-07-04T09:16:27Z</time>
      </trkpt>
      <trkpt lat="42.65399" lon="-1.3042047">
        <time>2022-07-04T09:16:31Z</time>
      </trkpt>
      <trkpt lat="42.653934" lon="-1.3042307">
        <time>2022-07-04T09:16:35Z</time>
      </trkpt>
      <trkpt lat="42.65388" lon="-1.3042557">
        <time>2022-07-04T09:16:39Z</time>
      </trkpt>
      <trkpt lat="42.653828" lon="-1.3042854">
        <time>2022-07-04T09:16:43Z</time>
      </trkpt>
      <trkpt lat="42.653778" lon="-1.3043138">
        <time>2022-07-04T09:16:47Z</time>
      </trkpt>
      <trkpt lat="42.653725" lon="-1.3043344">
        <time>2022-07-04T09:16:51Z</time>
      </trkpt>
      <trkpt lat="42.653667" lon="-1.304355">
        <time>2022-07-04T09:16:55Z</time>
      </trkpt>
      <trkpt lat="42.653606" lon="-1.3043787">
        <time>2022-07-04T09:16:59Z</time>
      </trkpt>
      <trkpt lat="42.653564" lon="-1.3044083">
        <time>2022-07-04T09:17:02Z</time>
      </trkpt>
      <trkpt lat="42.65351" lon="-1.304453">
        <time>2022-07-04T09:17:06Z</time>
      </trkpt>
      <trkpt lat="42.653454" lon="-1.3044937">
        <time>2022-07-04T09:17:10Z</time>
      </trkpt>
      <trkpt lat="42.653397" lon="-1.3045197">
        <time>2022-07-04T09:17:14Z</time>
      </trkpt>
      <trkpt lat="42.65335" lon="-1.304569">
        <time>2022-07-04T09:17:18Z</time>
      </trkpt>
      <trkpt lat="42.65331" lon="-1.3046386">
        <time>2022-07-04T09:17:22Z</time>
      </trkpt>
      <trkpt lat="42.653282" lon="-1.3046937">
        <time>2022-07-04T09:17:25Z</time>
      </trkpt>
      <trkpt lat="42.65324" lon="-1.3047646">
        <time>2022-07-04T09:17:29Z</time>
      </trkpt>
      <trkpt lat="42.6532" lon="-1.3048203">
        <time>2022-07-04T09:17:33Z</time>
      </trkpt>
      <trkpt lat="42.65315" lon="-1.3048713">
        <time>2022-07-04T09:17:37Z</time>
      </trkpt>
      <trkpt lat="42.65312" lon="-1.304943">
        <time>2022-07-04T09:17:41Z</time>
      </trkpt>
      <trkpt lat="42.653095" lon="-1.305019">
        <time>2022-07-04T09:17:45Z</time>
      </trkpt>
      <trkpt lat="42.65308" lon="-1.305103">
        <time>2022-07-04T09:17:49Z</time>
      </trkpt>
      <trkpt lat="42.653072" lon="-1.3051656">
        <time>2022-07-04T09:17:52Z</time>
      </trkpt>
      <trkpt lat="42.653046" lon="-1.30523">
        <time>2022-07-04T09:17:56Z</time>
      </trkpt>
      <trkpt lat="42.653023" lon="-1.3052996">
        <time>2022-07-04T09:18:00Z</time>
      </trkpt>
      <trkpt lat="42.653008" lon="-1.305374">
        <time>2022-07-04T09:18:04Z</time>
      </trkpt>
      <trkpt lat="42.65299" lon="-1.305446">
        <time>2022-07-04T09:18:08Z</time>
      </trkpt>
      <trkpt lat="42.652973" lon="-1.3055173">
        <time>2022-07-04T09:18:12Z</time>
      </trkpt>
      <trkpt lat="42.652943" lon="-1.305571">
        <time>2022-07-04T09:18:16Z</time>
      </trkpt>
      <trkpt lat="42.65289" lon="-1.305548">
        <time>2022-07-04T09:18:21Z</time>
      </trkpt>
      <trkpt lat="42.652832" lon="-1.305534">
        <time>2022-07-04T09:18:25Z</time>
      </trkpt>
      <trkpt lat="42.652786" lon="-1.3055233">
        <time>2022-07-04T09:18:31Z</time>
      </trkpt>
      <trkpt lat="42.652836" lon="-1.3055823">
        <time>2022-07-04T09:20:25Z</time>
      </trkpt>
      <trkpt lat="42.652878" lon="-1.3055563">
        <time>2022-07-04T09:20:31Z</time>
      </trkpt>
      <trkpt lat="42.65291" lon="-1.3053956">
        <time>2022-07-04T09:20:34Z</time>
      </trkpt>
      <trkpt lat="42.652943" lon="-1.3052746">
        <time>2022-07-04T09:20:36Z</time>
      </trkpt>
      <trkpt lat="42.652973" lon="-1.3051733">
        <time>2022-07-04T09:20:38Z</time>
      </trkpt>
      <trkpt lat="42.653008" lon="-1.3050873">
        <time>2022-07-04T09:20:40Z</time>
      </trkpt>
      <trkpt lat="42.65305" lon="-1.3050157">
        <time>2022-07-04T09:20:42Z</time>
      </trkpt>
      <trkpt lat="42.653095" lon="-1.3049526">
        <time>2022-07-04T09:20:44Z</time>
      </trkpt>
      <trkpt lat="42.653145" lon="-1.304892">
        <time>2022-07-04T09:20:46Z</time>
      </trkpt>
      <trkpt lat="42.653187" lon="-1.3048323">
        <time>2022-07-04T09:20:48Z</time>
      </trkpt>
      <trkpt lat="42.65323" lon="-1.304778">
        <time>2022-07-04T09:20:50Z</time>
      </trkpt>
      <trkpt lat="42.653267" lon="-1.3047416">
        <time>2022-07-04T09:20:52Z</time>
      </trkpt>
      <trkpt lat="42.653297" lon="-1.3047123">
        <time>2022-07-04T09:21:01Z</time>
      </trkpt>
      <trkpt lat="42.65326" lon="-1.3047184">
        <time>2022-07-04T09:22:12Z</time>
      </trkpt>
      <trkpt lat="42.65322" lon="-1.304778">
        <time>2022-07-04T09:22:17Z</time>
      </trkpt>
      <trkpt lat="42.653183" lon="-1.3048407">
        <time>2022-07-04T09:22:21Z</time>
      </trkpt>
      <trkpt lat="42.653152" lon="-1.3049053">
        <time>2022-07-04T09:22:25Z</time>
      </trkpt>
      <trkpt lat="42.65312" lon="-1.3049587">
        <time>2022-07-04T09:22:29Z</time>
      </trkpt>
      <trkpt lat="42.653088" lon="-1.3050267">
        <time>2022-07-04T09:22:33Z</time>
      </trkpt>
      <trkpt lat="42.653065" lon="-1.305109">
        <time>2022-07-04T09:22:37Z</time>
      </trkpt>
      <trkpt lat="42.653046" lon="-1.305168">
        <time>2022-07-04T09:22:40Z</time>
      </trkpt>
      <trkpt lat="42.653034" lon="-1.305235">
        <time>2022-07-04T09:22:44Z</time>
      </trkpt>
      <trkpt lat="42.65301" lon="-1.3053136">
        <time>2022-07-04T09:22:49Z</time>
      </trkpt>
      <trkpt lat="42.65296" lon="-1.3053737">
        <time>2022-07-04T09:22:54Z</time>
      </trkpt>
      <trkpt lat="42.65294" lon="-1.3054423">
        <time>2022-07-04T09:22:58Z</time>
      </trkpt>
      <trkpt lat="42.652927" lon="-1.3055053">
        <time>2022-07-04T09:23:02Z</time>
      </trkpt>
      <trkpt lat="42.65292" lon="-1.3055856">
        <time>2022-07-04T09:23:07Z</time>
      </trkpt>
      <trkpt lat="42.652912" lon="-1.3056699">
        <time>2022-07-04T09:23:11Z</time>
      </trkpt>
      <trkpt lat="42.652905" lon="-1.3057879">
        <time>2022-07-04T09:23:15Z</time>
      </trkpt>
      <trkpt lat="42.652893" lon="-1.305857">
        <time>2022-07-04T09:23:18Z</time>
      </trkpt>
      <trkpt lat="42.652863" lon="-1.3059446">
        <time>2022-07-04T09:23:21Z</time>
      </trkpt>
      <trkpt lat="42.652847" lon="-1.3060123">
        <time>2022-07-04T09:23:23Z</time>
      </trkpt>
      <trkpt lat="42.65283" lon="-1.3060817">
        <time>2022-07-04T09:23:25Z</time>
      </trkpt>
      <trkpt lat="42.65281" lon="-1.3061503">
        <time>2022-07-04T09:23:27Z</time>
      </trkpt>
      <trkpt lat="42.65279" lon="-1.306217">
        <time>2022-07-04T09:23:29Z</time>
      </trkpt>
      <trkpt lat="42.65277" lon="-1.3062843">
        <time>2022-07-04T09:23:31Z</time>
      </trkpt>
      <trkpt lat="42.652752" lon="-1.3063563">
        <time>2022-07-04T09:23:33Z</time>
      </trkpt>
      <trkpt lat="42.652733" lon="-1.3064272">
        <time>2022-07-04T09:23:35Z</time>
      </trkpt>
      <trkpt lat="42.652718" lon="-1.3064966">
        <time>2022-07-04T09:23:37Z</time>
      </trkpt>
      <trkpt lat="42.6527" lon="-1.3065596">
        <time>2022-07-04T09:23:39Z</time>
      </trkpt>
      <trkpt lat="42.65268" lon="-1.3066442">
        <time>2022-07-04T09:23:42Z</time>
      </trkpt>
      <trkpt lat="42.65266" lon="-1.3067173">
        <time>2022-07-04T09:23:45Z</time>
      </trkpt>
      <trkpt lat="42.652645" lon="-1.3067793">
        <time>2022-07-04T09:23:48Z</time>
      </trkpt>
      <trkpt lat="42.652637" lon="-1.3068489">
        <time>2022-07-04T09:23:52Z</time>
      </trkpt>
      <trkpt lat="42.652615" lon="-1.3069203">
        <time>2022-07-04T09:23:57Z</time>
      </trkpt>
      <trkpt lat="42.652596" lon="-1.3070005">
        <time>2022-07-04T09:24:01Z</time>
      </trkpt>
      <trkpt lat="42.652573" lon="-1.3070639">
        <time>2022-07-04T09:24:04Z</time>
      </trkpt>
      <trkpt lat="42.652546" lon="-1.3071289">
        <time>2022-07-04T09:24:07Z</time>
      </trkpt>
      <trkpt lat="42.652523" lon="-1.3071955">
        <time>2022-07-04T09:24:10Z</time>
      </trkpt>
      <trkpt lat="42.652493" lon="-1.3072559">
        <time>2022-07-04T09:24:13Z</time>
      </trkpt>
      <trkpt lat="42.652462" lon="-1.3073366">
        <time>2022-07-04T09:24:16Z</time>
      </trkpt>
      <trkpt lat="42.652435" lon="-1.3074166">
        <time>2022-07-04T09:24:19Z</time>
      </trkpt>
      <trkpt lat="42.652416" lon="-1.3074826">
        <time>2022-07-04T09:24:23Z</time>
      </trkpt>
      <trkpt lat="42.652504" lon="-1.3075662">
        <time>2022-07-04T09:25:01Z</time>
      </trkpt>
      <trkpt lat="42.652653" lon="-1.3075205">
        <time>2022-07-04T09:25:08Z</time>
      </trkpt>
      <trkpt lat="42.652596" lon="-1.3074859">
        <time>2022-07-04T09:25:14Z</time>
      </trkpt>
      <trkpt lat="42.652542" lon="-1.3074806">
        <time>2022-07-04T09:25:20Z</time>
      </trkpt>
      <trkpt lat="42.652496" lon="-1.3074509">
        <time>2022-07-04T09:25:25Z</time>
      </trkpt>
      <trkpt lat="42.65266" lon="-1.3072213">
        <time>2022-07-04T09:26:33Z</time>
      </trkpt>
      <trkpt lat="42.652637" lon="-1.3070859">
        <time>2022-07-04T09:26:49Z</time>
      </trkpt>
      <trkpt lat="42.65242" lon="-1.3077279">
        <time>2022-07-04T09:30:40Z</time>
      </trkpt>
      <trkpt lat="42.65268" lon="-1.3072459">
        <time>2022-07-04T09:30:56Z</time>
      </trkpt>
      <trkpt lat="42.652737" lon="-1.307187">
        <time>2022-07-04T09:31:04Z</time>
      </trkpt>
      <trkpt lat="42.6528" lon="-1.3071473">
        <time>2022-07-04T09:31:07Z</time>
      </trkpt>
      <trkpt lat="42.652843" lon="-1.3070389">
        <time>2022-07-04T09:33:07Z</time>
      </trkpt>
      <trkpt lat="42.652485" lon="-1.3072796">
        <time>2022-07-04T09:42:05Z</time>
      </trkpt>
      <trkpt lat="42.652523" lon="-1.3072232">
        <time>2022-07-04T09:42:08Z</time>
      </trkpt>
      <trkpt lat="42.65257" lon="-1.307208">
        <time>2022-07-04T09:42:13Z</time>
      </trkpt>
      <trkpt lat="42.652702" lon="-1.3072299">
        <time>2022-07-04T09:43:02Z</time>
      </trkpt>
      <trkpt lat="42.65271" lon="-1.3072673">
        <time>2022-07-04T09:43:12Z</time>
      </trkpt>
      <trkpt lat="42.65257" lon="-1.3072063">
        <time>2022-07-04T09:44:44Z</time>
      </trkpt>
      <trkpt lat="42.65094" lon="-1.3074063">
        <time>2022-07-04T09:46:23Z</time>
      </trkpt>
      <trkpt lat="42.651676" lon="-1.3073826">
        <time>2022-07-04T09:47:09Z</time>
      </trkpt>
      <trkpt lat="42.651783" lon="-1.3073453">
        <time>2022-07-04T09:47:11Z</time>
      </trkpt>
      <trkpt lat="42.65183" lon="-1.3073263">
        <time>2022-07-04T09:47:12Z</time>
      </trkpt>
      <trkpt lat="42.651867" lon="-1.30731">
        <time>2022-07-04T09:47:13Z</time>
      </trkpt>
      <trkpt lat="42.65192" lon="-1.3072933">
        <time>2022-07-04T09:47:15Z</time>
      </trkpt>
      <trkpt lat="42.65196" lon="-1.3073117">
        <time>2022-07-04T09:47:19Z</time>
      </trkpt>
      <trkpt lat="42.65199" lon="-1.3074099">
        <time>2022-07-04T09:47:23Z</time>
      </trkpt>
      <trkpt lat="42.65202" lon="-1.3075039">
        <time>2022-07-04T09:47:26Z</time>
      </trkpt>
      <trkpt lat="42.65206" lon="-1.3075693">
        <time>2022-07-04T09:47:28Z</time>
      </trkpt>
      <trkpt lat="42.65211" lon="-1.3076409">
        <time>2022-07-04T09:47:30Z</time>
      </trkpt>
      <trkpt lat="42.652164" lon="-1.3077203">
        <time>2022-07-04T09:47:32Z</time>
      </trkpt>
      <trkpt lat="42.652203" lon="-1.3078109">
        <time>2022-07-04T09:47:34Z</time>
      </trkpt>
      <trkpt lat="42.652218" lon="-1.3079059">
        <time>2022-07-04T09:47:36Z</time>
      </trkpt>
      <trkpt lat="42.652233" lon="-1.3079922">
        <time>2022-07-04T09:47:38Z</time>
      </trkpt>
      <trkpt lat="42.652245" lon="-1.3080666">
        <time>2022-07-04T09:47:40Z</time>
      </trkpt>
      <trkpt lat="42.65225" lon="-1.3081356">
        <time>2022-07-04T09:47:42Z</time>
      </trkpt>
      <trkpt lat="42.652245" lon="-1.3082069">
        <time>2022-07-04T09:47:44Z</time>
      </trkpt>
      <trkpt lat="42.652233" lon="-1.3082916">
        <time>2022-07-04T09:47:46Z</time>
      </trkpt>
      <trkpt lat="42.652214" lon="-1.3083723">
        <time>2022-07-04T09:47:48Z</time>
      </trkpt>
      <trkpt lat="42.652203" lon="-1.3084495">
        <time>2022-07-04T09:47:50Z</time>
      </trkpt>
      <trkpt lat="42.6522" lon="-1.3085295">
        <time>2022-07-04T09:47:52Z</time>
      </trkpt>
      <trkpt lat="42.652206" lon="-1.3086135">
        <time>2022-07-04T09:47:54Z</time>
      </trkpt>
      <trkpt lat="42.652237" lon="-1.3086892">
        <time>2022-07-04T09:47:56Z</time>
      </trkpt>
      <trkpt lat="42.652294" lon="-1.3087482">
        <time>2022-07-04T09:47:58Z</time>
      </trkpt>
      <trkpt lat="42.65237" lon="-1.3087835">
        <time>2022-07-04T09:48:00Z</time>
      </trkpt>
      <trkpt lat="42.65246" lon="-1.3088115">
        <time>2022-07-04T09:48:02Z</time>
      </trkpt>
      <trkpt lat="42.65255" lon="-1.3088385">
        <time>2022-07-04T09:48:04Z</time>
      </trkpt>
      <trkpt lat="42.652596" lon="-1.3088466">
        <time>2022-07-04T09:48:05Z</time>
      </trkpt>
      <trkpt lat="42.652676" lon="-1.3088559">
        <time>2022-07-04T09:48:07Z</time>
      </trkpt>
      <trkpt lat="42.652767" lon="-1.3088552">
        <time>2022-07-04T09:48:09Z</time>
      </trkpt>
      <trkpt lat="42.652855" lon="-1.3088568">
        <time>2022-07-04T09:48:11Z</time>
      </trkpt>
      <trkpt lat="42.652916" lon="-1.3088622">
        <time>2022-07-04T09:48:13Z</time>
      </trkpt>
      <trkpt lat="42.652927" lon="-1.3089808">
        <time>2022-07-04T09:48:50Z</time>
      </trkpt>
      <trkpt lat="42.652874" lon="-1.3090432">
        <time>2022-07-04T09:48:52Z</time>
      </trkpt>
      <trkpt lat="42.652786" lon="-1.3091098">
        <time>2022-07-04T09:48:54Z</time>
      </trkpt>
      <trkpt lat="42.652737" lon="-1.3091419">
        <time>2022-07-04T09:48:55Z</time>
      </trkpt>
      <trkpt lat="42.65268" lon="-1.3091749">
        <time>2022-07-04T09:48:56Z</time>
      </trkpt>
      <trkpt lat="42.652626" lon="-1.3092076">
        <time>2022-07-04T09:48:57Z</time>
      </trkpt>
      <trkpt lat="42.65257" lon="-1.3092432">
        <time>2022-07-04T09:48:58Z</time>
      </trkpt>
      <trkpt lat="42.652508" lon="-1.3092802">
        <time>2022-07-04T09:48:59Z</time>
      </trkpt>
      <trkpt lat="42.652447" lon="-1.3093215">
        <time>2022-07-04T09:49:00Z</time>
      </trkpt>
      <trkpt lat="42.652386" lon="-1.3093605">
        <time>2022-07-04T09:49:01Z</time>
      </trkpt>
      <trkpt lat="42.65233" lon="-1.3094006">
        <time>2022-07-04T09:49:02Z</time>
      </trkpt>
      <trkpt lat="42.652267" lon="-1.3094412">
        <time>2022-07-04T09:49:03Z</time>
      </trkpt>
      <trkpt lat="42.652203" lon="-1.3094848">
        <time>2022-07-04T09:49:04Z</time>
      </trkpt>
      <trkpt lat="42.65214" lon="-1.3095251">
        <time>2022-07-04T09:49:05Z</time>
      </trkpt>
      <trkpt lat="42.65208" lon="-1.3095648">
        <time>2022-07-04T09:49:06Z</time>
      </trkpt>
      <trkpt lat="42.65202" lon="-1.3096045">
        <time>2022-07-04T09:49:07Z</time>
      </trkpt>
      <trkpt lat="42.65196" lon="-1.3096445">
        <time>2022-07-04T09:49:08Z</time>
      </trkpt>
      <trkpt lat="42.6519" lon="-1.3096825">
        <time>2022-07-04T09:49:09Z</time>
      </trkpt>
      <trkpt lat="42.651844" lon="-1.3097198">
        <time>2022-07-04T09:49:10Z</time>
      </trkpt>
      <trkpt lat="42.651787" lon="-1.3097568">
        <time>2022-07-04T09:49:11Z</time>
      </trkpt>
      <trkpt lat="42.651733" lon="-1.3097942">
        <time>2022-07-04T09:49:12Z</time>
      </trkpt>
      <trkpt lat="42.651676" lon="-1.3098308">
        <time>2022-07-04T09:49:13Z</time>
      </trkpt>
      <trkpt lat="42.651623" lon="-1.3098655">
        <time>2022-07-04T09:49:14Z</time>
      </trkpt>
      <trkpt lat="42.65157" lon="-1.3098985">
        <time>2022-07-04T09:49:15Z</time>
      </trkpt>
      <trkpt lat="42.65152" lon="-1.3099314">
        <time>2022-07-04T09:49:16Z</time>
      </trkpt>
      <trkpt lat="42.651466" lon="-1.3099668">
        <time>2022-07-04T09:49:17Z</time>
      </trkpt>
      <trkpt lat="42.651413" lon="-1.3099998">
        <time>2022-07-04T09:49:18Z</time>
      </trkpt>
      <trkpt lat="42.651363" lon="-1.3100301">
        <time>2022-07-04T09:49:19Z</time>
      </trkpt>
      <trkpt lat="42.651318" lon="-1.3100568">
        <time>2022-07-04T09:49:20Z</time>
      </trkpt>
      <trkpt lat="42.651234" lon="-1.3101034">
        <time>2022-07-04T09:49:22Z</time>
      </trkpt>
      <trkpt lat="42.65115" lon="-1.3101581">
        <time>2022-07-04T09:49:24Z</time>
      </trkpt>
      <trkpt lat="42.651066" lon="-1.3102254">
        <time>2022-07-04T09:49:26Z</time>
      </trkpt>
      <trkpt lat="42.65102" lon="-1.3102641">
        <time>2022-07-04T09:49:27Z</time>
      </trkpt>
      <trkpt lat="42.650967" lon="-1.3103044">
        <time>2022-07-04T09:49:28Z</time>
      </trkpt>
      <trkpt lat="42.650913" lon="-1.3103428">
        <time>2022-07-04T09:49:29Z</time>
      </trkpt>
      <trkpt lat="42.65086" lon="-1.3103797">
        <time>2022-07-04T09:49:30Z</time>
      </trkpt>
      <trkpt lat="42.650803" lon="-1.3104174">
        <time>2022-07-04T09:49:31Z</time>
      </trkpt>
      <trkpt lat="42.650745" lon="-1.3104557">
        <time>2022-07-04T09:49:32Z</time>
      </trkpt>
      <trkpt lat="42.650692" lon="-1.3104941">
        <time>2022-07-04T09:49:33Z</time>
      </trkpt>
      <trkpt lat="42.65064" lon="-1.3105297">
        <time>2022-07-04T09:49:34Z</time>
      </trkpt>
      <trkpt lat="42.65058" lon="-1.3105661">
        <time>2022-07-04T09:49:35Z</time>
      </trkpt>
      <trkpt lat="42.65053" lon="-1.3106004">
        <time>2022-07-04T09:49:36Z</time>
      </trkpt>
      <trkpt lat="42.650482" lon="-1.3106351">
        <time>2022-07-04T09:49:37Z</time>
      </trkpt>
      <trkpt lat="42.650436" lon="-1.310673">
        <time>2022-07-04T09:49:38Z</time>
      </trkpt>
      <trkpt lat="42.650368" lon="-1.31075">
        <time>2022-07-04T09:49:40Z</time>
      </trkpt>
      <trkpt lat="42.65032" lon="-1.310839">
        <time>2022-07-04T09:49:42Z</time>
      </trkpt>
      <trkpt lat="42.650265" lon="-1.3109196">
        <time>2022-07-04T09:49:44Z</time>
      </trkpt>
      <trkpt lat="42.6502" lon="-1.3109697">
        <time>2022-07-04T09:49:46Z</time>
      </trkpt>
      <trkpt lat="42.65012" lon="-1.3109894">
        <time>2022-07-04T09:49:48Z</time>
      </trkpt>
      <trkpt lat="42.65004" lon="-1.3109864">
        <time>2022-07-04T09:49:50Z</time>
      </trkpt>
      <trkpt lat="42.64994" lon="-1.3109787">
        <time>2022-07-04T09:49:52Z</time>
      </trkpt>
      <trkpt lat="42.649837" lon="-1.3109734">
        <time>2022-07-04T09:49:54Z</time>
      </trkpt>
      <trkpt lat="42.649788" lon="-1.310968">
        <time>2022-07-04T09:49:55Z</time>
      </trkpt>
      <trkpt lat="42.649734" lon="-1.310958">
        <time>2022-07-04T09:49:56Z</time>
      </trkpt>
      <trkpt lat="42.64968" lon="-1.3109454">
        <time>2022-07-04T09:49:57Z</time>
      </trkpt>
      <trkpt lat="42.649628" lon="-1.3109291">
        <time>2022-07-04T09:49:58Z</time>
      </trkpt>
      <trkpt lat="42.64958" lon="-1.3109101">
        <time>2022-07-04T09:49:59Z</time>
      </trkpt>
      <trkpt lat="42.64953" lon="-1.3108907">
        <time>2022-07-04T09:50:00Z</time>
      </trkpt>
      <trkpt lat="42.64942" lon="-1.3108467">
        <time>2022-07-04T09:50:02Z</time>
      </trkpt>
      <trkpt lat="42.649372" lon="-1.3108218">
        <time>2022-07-04T09:50:03Z</time>
      </trkpt>
      <trkpt lat="42.649326" lon="-1.3107964">
        <time>2022-07-04T09:50:04Z</time>
      </trkpt>
      <trkpt lat="42.649227" lon="-1.3107357">
        <time>2022-07-04T09:50:06Z</time>
      </trkpt>
      <trkpt lat="42.64918" lon="-1.3107017">
        <time>2022-07-04T09:50:07Z</time>
      </trkpt>
      <trkpt lat="42.649136" lon="-1.3106654">
        <time>2022-07-04T09:50:08Z</time>
      </trkpt>
      <trkpt lat="42.64909" lon="-1.3106267">
        <time>2022-07-04T09:50:09Z</time>
      </trkpt>
      <trkpt lat="42.649048" lon="-1.3105854">
        <time>2022-07-04T09:50:10Z</time>
      </trkpt>
      <trkpt lat="42.648968" lon="-1.3104961">
        <time>2022-07-04T09:50:12Z</time>
      </trkpt>
      <trkpt lat="42.648926" lon="-1.3104491">
        <time>2022-07-04T09:50:13Z</time>
      </trkpt>
      <trkpt lat="42.648884" lon="-1.3104018">
        <time>2022-07-04T09:50:14Z</time>
      </trkpt>
      <trkpt lat="42.648846" lon="-1.3103545">
        <time>2022-07-04T09:50:15Z</time>
      </trkpt>
      <trkpt lat="42.648808" lon="-1.3103074">
        <time>2022-07-04T09:50:16Z</time>
      </trkpt>
      <trkpt lat="42.64877" lon="-1.3102604">
        <time>2022-07-04T09:50:17Z</time>
      </trkpt>
      <trkpt lat="42.648693" lon="-1.3101684">
        <time>2022-07-04T09:50:19Z</time>
      </trkpt>
      <trkpt lat="42.648624" lon="-1.3100834">
        <time>2022-07-04T09:50:21Z</time>
      </trkpt>
      <trkpt lat="42.648556" lon="-1.3099995">
        <time>2022-07-04T09:50:23Z</time>
      </trkpt>
      <trkpt lat="42.648483" lon="-1.3099178">
        <time>2022-07-04T09:50:25Z</time>
      </trkpt>
      <trkpt lat="42.648445" lon="-1.3098744">
        <time>2022-07-04T09:50:26Z</time>
      </trkpt>
      <trkpt lat="42.64837" lon="-1.3097951">
        <time>2022-07-04T09:50:28Z</time>
      </trkpt>
      <trkpt lat="42.648285" lon="-1.3097194">
        <time>2022-07-04T09:50:30Z</time>
      </trkpt>
      <trkpt lat="42.648243" lon="-1.309681">
        <time>2022-07-04T09:50:31Z</time>
      </trkpt>
      <trkpt lat="42.6482" lon="-1.3096461">
        <time>2022-07-04T09:50:32Z</time>
      </trkpt>
      <trkpt lat="42.64813" lon="-1.3095901">
        <time>2022-07-04T09:50:34Z</time>
      </trkpt>
      <trkpt lat="42.648052" lon="-1.3095474">
        <time>2022-07-04T09:50:36Z</time>
      </trkpt>
      <trkpt lat="42.647984" lon="-1.3095205">
        <time>2022-07-04T09:50:38Z</time>
      </trkpt>
      <trkpt lat="42.647915" lon="-1.3094981">
        <time>2022-07-04T09:50:40Z</time>
      </trkpt>
      <trkpt lat="42.647846" lon="-1.3094782">
        <time>2022-07-04T09:50:42Z</time>
      </trkpt>
      <trkpt lat="42.64777" lon="-1.3094637">
        <time>2022-07-04T09:50:44Z</time>
      </trkpt>
      <trkpt lat="42.647694" lon="-1.3094528">
        <time>2022-07-04T09:50:46Z</time>
      </trkpt>
      <trkpt lat="42.647617" lon="-1.3094468">
        <time>2022-07-04T09:50:48Z</time>
      </trkpt>
      <trkpt lat="42.647537" lon="-1.3094478">
        <time>2022-07-04T09:50:50Z</time>
      </trkpt>
      <trkpt lat="42.647457" lon="-1.3094544">
        <time>2022-07-04T09:50:52Z</time>
      </trkpt>
      <trkpt lat="42.64738" lon="-1.3094648">
        <time>2022-07-04T09:50:54Z</time>
      </trkpt>
      <trkpt lat="42.6473" lon="-1.3094788">
        <time>2022-07-04T09:50:56Z</time>
      </trkpt>
      <trkpt lat="42.64722" lon="-1.3095014">
        <time>2022-07-04T09:50:58Z</time>
      </trkpt>
      <trkpt lat="42.647144" lon="-1.3095337">
        <time>2022-07-04T09:51:00Z</time>
      </trkpt>
      <trkpt lat="42.647022" lon="-1.3095981">
        <time>2022-07-04T09:51:03Z</time>
      </trkpt>
      <trkpt lat="42.646946" lon="-1.3096488">
        <time>2022-07-04T09:51:05Z</time>
      </trkpt>
      <trkpt lat="42.646866" lon="-1.3097035">
        <time>2022-07-04T09:51:07Z</time>
      </trkpt>
      <trkpt lat="42.646786" lon="-1.3097564">
        <time>2022-07-04T09:51:09Z</time>
      </trkpt>
      <trkpt lat="42.646713" lon="-1.3098067">
        <time>2022-07-04T09:51:11Z</time>
      </trkpt>
      <trkpt lat="42.64664" lon="-1.3098538">
        <time>2022-07-04T09:51:13Z</time>
      </trkpt>
      <trkpt lat="42.646576" lon="-1.3098994">
        <time>2022-07-04T09:51:15Z</time>
      </trkpt>
      <trkpt lat="42.64651" lon="-1.3099424">
        <time>2022-07-04T09:51:17Z</time>
      </trkpt>
      <trkpt lat="42.646442" lon="-1.3099781">
        <time>2022-07-04T09:51:19Z</time>
      </trkpt>
      <trkpt lat="42.64638" lon="-1.3100097">
        <time>2022-07-04T09:51:21Z</time>
      </trkpt>
      <trkpt lat="42.64632" lon="-1.310039">
        <time>2022-07-04T09:51:23Z</time>
      </trkpt>
      <trkpt lat="42.646263" lon="-1.3100624">
        <time>2022-07-04T09:51:25Z</time>
      </trkpt>
      <trkpt lat="42.646202" lon="-1.3100784">
        <time>2022-07-04T09:51:27Z</time>
      </trkpt>
      <trkpt lat="42.64614" lon="-1.3100927">
        <time>2022-07-04T09:51:29Z</time>
      </trkpt>
      <trkpt lat="42.64608" lon="-1.3101047">
        <time>2022-07-04T09:51:31Z</time>
      </trkpt>
      <trkpt lat="42.64601" lon="-1.3101157">
        <time>2022-07-04T09:51:33Z</time>
      </trkpt>
      <trkpt lat="42.64594" lon="-1.3101274">
        <time>2022-07-04T09:51:35Z</time>
      </trkpt>
      <trkpt lat="42.645863" lon="-1.3101383">
        <time>2022-07-04T09:51:37Z</time>
      </trkpt>
      <trkpt lat="42.645775" lon="-1.3101497">
        <time>2022-07-04T09:51:39Z</time>
      </trkpt>
      <trkpt lat="42.645683" lon="-1.3101608">
        <time>2022-07-04T09:51:41Z</time>
      </trkpt>
      <trkpt lat="42.645588" lon="-1.3101754">
        <time>2022-07-04T09:51:43Z</time>
      </trkpt>
      <trkpt lat="42.64554" lon="-1.3101834">
        <time>2022-07-04T09:51:44Z</time>
      </trkpt>
      <trkpt lat="42.645447" lon="-1.3101964">
        <time>2022-07-04T09:51:46Z</time>
      </trkpt>
      <trkpt lat="42.645355" lon="-1.3102053">
        <time>2022-07-04T09:51:48Z</time>
      </trkpt>
      <trkpt lat="42.645264" lon="-1.310222">
        <time>2022-07-04T09:51:50Z</time>
      </trkpt>
      <trkpt lat="42.645176" lon="-1.3102384">
        <time>2022-07-04T09:51:52Z</time>
      </trkpt>
      <trkpt lat="42.645092" lon="-1.3102514">
        <time>2022-07-04T09:51:54Z</time>
      </trkpt>
      <trkpt lat="42.645" lon="-1.3102634">
        <time>2022-07-04T09:51:56Z</time>
      </trkpt>
      <trkpt lat="42.644913" lon="-1.3102764">
        <time>2022-07-04T09:51:58Z</time>
      </trkpt>
      <trkpt lat="42.64482" lon="-1.31029">
        <time>2022-07-04T09:52:00Z</time>
      </trkpt>
      <trkpt lat="42.644726" lon="-1.3103017">
        <time>2022-07-04T09:52:02Z</time>
      </trkpt>
      <trkpt lat="42.64463" lon="-1.3103143">
        <time>2022-07-04T09:52:04Z</time>
      </trkpt>
      <trkpt lat="42.644535" lon="-1.3103254">
        <time>2022-07-04T09:52:06Z</time>
      </trkpt>
      <trkpt lat="42.644447" lon="-1.310333">
        <time>2022-07-04T09:52:08Z</time>
      </trkpt>
      <trkpt lat="42.64436" lon="-1.3103393">
        <time>2022-07-04T09:52:10Z</time>
      </trkpt>
      <trkpt lat="42.644276" lon="-1.3103449">
        <time>2022-07-04T09:52:12Z</time>
      </trkpt>
      <trkpt lat="42.64419" lon="-1.3103497">
        <time>2022-07-04T09:52:14Z</time>
      </trkpt>
      <trkpt lat="42.64411" lon="-1.310356">
        <time>2022-07-04T09:52:16Z</time>
      </trkpt>
      <trkpt lat="42.644028" lon="-1.31036">
        <time>2022-07-04T09:52:18Z</time>
      </trkpt>
      <trkpt lat="42.643944" lon="-1.3103633">
        <time>2022-07-04T09:52:20Z</time>
      </trkpt>
      <trkpt lat="42.643856" lon="-1.3103663">
        <time>2022-07-04T09:52:22Z</time>
      </trkpt>
      <trkpt lat="42.643772" lon="-1.3103693">
        <time>2022-07-04T09:52:24Z</time>
      </trkpt>
      <trkpt lat="42.643684" lon="-1.310375">
        <time>2022-07-04T09:52:26Z</time>
      </trkpt>
      <trkpt lat="42.643597" lon="-1.310382">
        <time>2022-07-04T09:52:28Z</time>
      </trkpt>
      <trkpt lat="42.64351" lon="-1.310385">
        <time>2022-07-04T09:52:30Z</time>
      </trkpt>
      <trkpt lat="42.64342" lon="-1.3103904">
        <time>2022-07-04T09:52:32Z</time>
      </trkpt>
      <trkpt lat="42.643333" lon="-1.3103973">
        <time>2022-07-04T09:52:34Z</time>
      </trkpt>
      <trkpt lat="42.643253" lon="-1.3104002">
        <time>2022-07-04T09:52:36Z</time>
      </trkpt>
      <trkpt lat="42.64317" lon="-1.3104019">
        <time>2022-07-04T09:52:38Z</time>
      </trkpt>
      <trkpt lat="42.64309" lon="-1.310405">
        <time>2022-07-04T09:52:40Z</time>
      </trkpt>
      <trkpt lat="42.643013" lon="-1.3104033">
        <time>2022-07-04T09:52:42Z</time>
      </trkpt>
      <trkpt lat="42.642933" lon="-1.3104002">
        <time>2022-07-04T09:52:44Z</time>
      </trkpt>
      <trkpt lat="42.642853" lon="-1.310392">
        <time>2022-07-04T09:52:46Z</time>
      </trkpt>
      <trkpt lat="42.642773" lon="-1.3103807">
        <time>2022-07-04T09:52:48Z</time>
      </trkpt>
      <trkpt lat="42.64269" lon="-1.310369">
        <time>2022-07-04T09:52:50Z</time>
      </trkpt>
      <trkpt lat="42.642605" lon="-1.310356">
        <time>2022-07-04T09:52:52Z</time>
      </trkpt>
      <trkpt lat="42.642525" lon="-1.3103423">
        <time>2022-07-04T09:52:54Z</time>
      </trkpt>
      <trkpt lat="42.642445" lon="-1.3103276">
        <time>2022-07-04T09:52:56Z</time>
      </trkpt>
      <trkpt lat="42.642365" lon="-1.3103106">
        <time>2022-07-04T09:52:58Z</time>
      </trkpt>
      <trkpt lat="42.64228" lon="-1.310293">
        <time>2022-07-04T09:53:00Z</time>
      </trkpt>
      <trkpt lat="42.642197" lon="-1.310277">
        <time>2022-07-04T09:53:02Z</time>
      </trkpt>
      <trkpt lat="42.642117" lon="-1.3102586">
        <time>2022-07-04T09:53:04Z</time>
      </trkpt>
      <trkpt lat="42.64204" lon="-1.310241">
        <time>2022-07-04T09:53:06Z</time>
      </trkpt>
      <trkpt lat="42.641964" lon="-1.3102254">
        <time>2022-07-04T09:53:08Z</time>
      </trkpt>
      <trkpt lat="42.64189" lon="-1.3102133">
        <time>2022-07-04T09:53:10Z</time>
      </trkpt>
      <trkpt lat="42.64182" lon="-1.3102014">
        <time>2022-07-04T09:53:12Z</time>
      </trkpt>
      <trkpt lat="42.64175" lon="-1.3101903">
        <time>2022-07-04T09:53:14Z</time>
      </trkpt>
      <trkpt lat="42.641685" lon="-1.3101794">
        <time>2022-07-04T09:53:16Z</time>
      </trkpt>
      <trkpt lat="42.641617" lon="-1.310166">
        <time>2022-07-04T09:53:18Z</time>
      </trkpt>
      <trkpt lat="42.641552" lon="-1.3101517">
        <time>2022-07-04T09:53:20Z</time>
      </trkpt>
      <trkpt lat="42.64148" lon="-1.3101383">
        <time>2022-07-04T09:53:22Z</time>
      </trkpt>
      <trkpt lat="42.64141" lon="-1.310125">
        <time>2022-07-04T09:53:24Z</time>
      </trkpt>
      <trkpt lat="42.641335" lon="-1.3101137">
        <time>2022-07-04T09:53:26Z</time>
      </trkpt>
      <trkpt lat="42.64126" lon="-1.3101014">
        <time>2022-07-04T09:53:28Z</time>
      </trkpt>
      <trkpt lat="42.641182" lon="-1.3100877">
        <time>2022-07-04T09:53:30Z</time>
      </trkpt>
      <trkpt lat="42.64111" lon="-1.31007">
        <time>2022-07-04T09:53:32Z</time>
      </trkpt>
      <trkpt lat="42.641033" lon="-1.3100528">
        <time>2022-07-04T09:53:34Z</time>
      </trkpt>
      <trkpt lat="42.640957" lon="-1.3100353">
        <time>2022-07-04T09:53:36Z</time>
      </trkpt>
      <trkpt lat="42.64088" lon="-1.3100173">
        <time>2022-07-04T09:53:38Z</time>
      </trkpt>
      <trkpt lat="42.6408" lon="-1.309998">
        <time>2022-07-04T09:53:40Z</time>
      </trkpt>
      <trkpt lat="42.64072" lon="-1.3099774">
        <time>2022-07-04T09:53:42Z</time>
      </trkpt>
      <trkpt lat="42.640644" lon="-1.3099564">
        <time>2022-07-04T09:53:44Z</time>
      </trkpt>
      <trkpt lat="42.64056" lon="-1.3099355">
        <time>2022-07-04T09:53:46Z</time>
      </trkpt>
      <trkpt lat="42.64048" lon="-1.30991">
        <time>2022-07-04T09:53:48Z</time>
      </trkpt>
      <trkpt lat="42.6404" lon="-1.3098804">
        <time>2022-07-04T09:53:50Z</time>
      </trkpt>
      <trkpt lat="42.640324" lon="-1.3098484">
        <time>2022-07-04T09:53:52Z</time>
      </trkpt>
      <trkpt lat="42.640247" lon="-1.3098094">
        <time>2022-07-04T09:53:54Z</time>
      </trkpt>
      <trkpt lat="42.64017" lon="-1.3097688">
        <time>2022-07-04T09:53:56Z</time>
      </trkpt>
      <trkpt lat="42.64009" lon="-1.3097278">
        <time>2022-07-04T09:53:58Z</time>
      </trkpt>
      <trkpt lat="42.64002" lon="-1.3096784">
        <time>2022-07-04T09:54:00Z</time>
      </trkpt>
      <trkpt lat="42.639942" lon="-1.309627">
        <time>2022-07-04T09:54:02Z</time>
      </trkpt>
      <trkpt lat="42.639866" lon="-1.3095728">
        <time>2022-07-04T09:54:04Z</time>
      </trkpt>
      <trkpt lat="42.639793" lon="-1.3095148">
        <time>2022-07-04T09:54:06Z</time>
      </trkpt>
      <trkpt lat="42.639725" lon="-1.309452">
        <time>2022-07-04T09:54:08Z</time>
      </trkpt>
      <trkpt lat="42.639656" lon="-1.3093861">
        <time>2022-07-04T09:54:10Z</time>
      </trkpt>
      <trkpt lat="42.63959" lon="-1.3093145">
        <time>2022-07-04T09:54:12Z</time>
      </trkpt>
      <trkpt lat="42.639526" lon="-1.3092444">
        <time>2022-07-04T09:54:14Z</time>
      </trkpt>
      <trkpt lat="42.63946" lon="-1.3091735">
        <time>2022-07-04T09:54:16Z</time>
      </trkpt>
      <trkpt lat="42.639393" lon="-1.3090985">
        <time>2022-07-04T09:54:18Z</time>
      </trkpt>
      <trkpt lat="42.639324" lon="-1.3090204">
        <time>2022-07-04T09:54:20Z</time>
      </trkpt>
      <trkpt lat="42.63926" lon="-1.3089395">
        <time>2022-07-04T09:54:22Z</time>
      </trkpt>
      <trkpt lat="42.63919" lon="-1.3088578">
        <time>2022-07-04T09:54:24Z</time>
      </trkpt>
      <trkpt lat="42.639122" lon="-1.3087767">
        <time>2022-07-04T09:54:26Z</time>
      </trkpt>
      <trkpt lat="42.639053" lon="-1.3086951">
        <time>2022-07-04T09:54:28Z</time>
      </trkpt>
      <trkpt lat="42.639015" lon="-1.3086535">
        <time>2022-07-04T09:54:29Z</time>
      </trkpt>
      <trkpt lat="42.638943" lon="-1.3085707">
        <time>2022-07-04T09:54:31Z</time>
      </trkpt>
      <trkpt lat="42.638866" lon="-1.3084911">
        <time>2022-07-04T09:54:33Z</time>
      </trkpt>
      <trkpt lat="42.63879" lon="-1.3084141">
        <time>2022-07-04T09:54:35Z</time>
      </trkpt>
      <trkpt lat="42.63875" lon="-1.3083742">
        <time>2022-07-04T09:54:36Z</time>
      </trkpt>
      <trkpt lat="42.638676" lon="-1.3083011">
        <time>2022-07-04T09:54:38Z</time>
      </trkpt>
      <trkpt lat="42.6386" lon="-1.3082278">
        <time>2022-07-04T09:54:40Z</time>
      </trkpt>
      <trkpt lat="42.638535" lon="-1.3081539">
        <time>2022-07-04T09:54:42Z</time>
      </trkpt>
      <trkpt lat="42.63847" lon="-1.3080808">
        <time>2022-07-04T09:54:44Z</time>
      </trkpt>
      <trkpt lat="42.638412" lon="-1.3080051">
        <time>2022-07-04T09:54:46Z</time>
      </trkpt>
      <trkpt lat="42.63835" lon="-1.3079325">
        <time>2022-07-04T09:54:48Z</time>
      </trkpt>
      <trkpt lat="42.638287" lon="-1.3078618">
        <time>2022-07-04T09:54:50Z</time>
      </trkpt>
      <trkpt lat="42.63822" lon="-1.3077925">
        <time>2022-07-04T09:54:52Z</time>
      </trkpt>
      <trkpt lat="42.638157" lon="-1.3077235">
        <time>2022-07-04T09:54:54Z</time>
      </trkpt>
      <trkpt lat="42.63809" lon="-1.3076525">
        <time>2022-07-04T09:54:56Z</time>
      </trkpt>
      <trkpt lat="42.638027" lon="-1.3075812">
        <time>2022-07-04T09:54:58Z</time>
      </trkpt>
      <trkpt lat="42.63797" lon="-1.3075159">
        <time>2022-07-04T09:55:00Z</time>
      </trkpt>
      <trkpt lat="42.637928" lon="-1.3074669">
        <time>2022-07-04T09:55:02Z</time>
      </trkpt>
      <trkpt lat="42.637882" lon="-1.3074155">
        <time>2022-07-04T09:55:05Z</time>
      </trkpt>
      <trkpt lat="42.63785" lon="-1.3073682">
        <time>2022-07-04T09:55:09Z</time>
      </trkpt>
      <trkpt lat="42.63779" lon="-1.3073078">
        <time>2022-07-04T09:55:15Z</time>
      </trkpt>
      <trkpt lat="42.637737" lon="-1.3072509">
        <time>2022-07-04T09:55:18Z</time>
      </trkpt>
      <trkpt lat="42.637672" lon="-1.3071815">
        <time>2022-07-04T09:55:21Z</time>
      </trkpt>
      <trkpt lat="42.637623" lon="-1.3071262">
        <time>2022-07-04T09:55:23Z</time>
      </trkpt>
      <trkpt lat="42.63757" lon="-1.3070662">
        <time>2022-07-04T09:55:25Z</time>
      </trkpt>
      <trkpt lat="42.637516" lon="-1.3070025">
        <time>2022-07-04T09:55:27Z</time>
      </trkpt>
      <trkpt lat="42.63746" lon="-1.3069355">
        <time>2022-07-04T09:55:29Z</time>
      </trkpt>
      <trkpt lat="42.6374" lon="-1.3068672">
        <time>2022-07-04T09:55:31Z</time>
      </trkpt>
      <trkpt lat="42.63734" lon="-1.3067975">
        <time>2022-07-04T09:55:33Z</time>
      </trkpt>
      <trkpt lat="42.637276" lon="-1.3067269">
        <time>2022-07-04T09:55:35Z</time>
      </trkpt>
      <trkpt lat="42.63721" lon="-1.3066562">
        <time>2022-07-04T09:55:37Z</time>
      </trkpt>
      <trkpt lat="42.637142" lon="-1.3065839">
        <time>2022-07-04T09:55:39Z</time>
      </trkpt>
      <trkpt lat="42.637077" lon="-1.3065096">
        <time>2022-07-04T09:55:41Z</time>
      </trkpt>
      <trkpt lat="42.637005" lon="-1.3064349">
        <time>2022-07-04T09:55:43Z</time>
      </trkpt>
      <trkpt lat="42.636936" lon="-1.3063589">
        <time>2022-07-04T09:55:45Z</time>
      </trkpt>
      <trkpt lat="42.636868" lon="-1.3062758">
        <time>2022-07-04T09:55:47Z</time>
      </trkpt>
      <trkpt lat="42.6368" lon="-1.3061953">
        <time>2022-07-04T09:55:49Z</time>
      </trkpt>
      <trkpt lat="42.636726" lon="-1.3061175">
        <time>2022-07-04T09:55:51Z</time>
      </trkpt>
      <trkpt lat="42.636654" lon="-1.3060479">
        <time>2022-07-04T09:55:53Z</time>
      </trkpt>
      <trkpt lat="42.63658" lon="-1.3059822">
        <time>2022-07-04T09:55:55Z</time>
      </trkpt>
      <trkpt lat="42.63651" lon="-1.3059186">
        <time>2022-07-04T09:55:57Z</time>
      </trkpt>
      <trkpt lat="42.636444" lon="-1.3058623">
        <time>2022-07-04T09:55:59Z</time>
      </trkpt>
      <trkpt lat="42.63637" lon="-1.3058136">
        <time>2022-07-04T09:56:01Z</time>
      </trkpt>
      <trkpt lat="42.63629" lon="-1.3057716">
        <time>2022-07-04T09:56:03Z</time>
      </trkpt>
      <trkpt lat="42.636208" lon="-1.30573">
        <time>2022-07-04T09:56:05Z</time>
      </trkpt>
      <trkpt lat="42.636124" lon="-1.305692">
        <time>2022-07-04T09:56:07Z</time>
      </trkpt>
      <trkpt lat="42.636047" lon="-1.3056619">
        <time>2022-07-04T09:56:09Z</time>
      </trkpt>
      <trkpt lat="42.63598" lon="-1.3056339">
        <time>2022-07-04T09:56:11Z</time>
      </trkpt>
      <trkpt lat="42.635914" lon="-1.3056077">
        <time>2022-07-04T09:56:13Z</time>
      </trkpt>
      <trkpt lat="42.635853" lon="-1.305583">
        <time>2022-07-04T09:56:15Z</time>
      </trkpt>
      <trkpt lat="42.6358" lon="-1.30556">
        <time>2022-07-04T09:56:17Z</time>
      </trkpt>
      <trkpt lat="42.635757" lon="-1.3055403">
        <time>2022-07-04T09:56:19Z</time>
      </trkpt>
      <trkpt lat="42.635693" lon="-1.305511">
        <time>2022-07-04T09:56:22Z</time>
      </trkpt>
      <trkpt lat="42.635643" lon="-1.3054826">
        <time>2022-07-04T09:56:25Z</time>
      </trkpt>
      <trkpt lat="42.635582" lon="-1.3054423">
        <time>2022-07-04T09:56:28Z</time>
      </trkpt>
      <trkpt lat="42.635517" lon="-1.305387">
        <time>2022-07-04T09:56:31Z</time>
      </trkpt>
      <trkpt lat="42.635475" lon="-1.3053393">
        <time>2022-07-04T09:56:33Z</time>
      </trkpt>
      <trkpt lat="42.63543" lon="-1.30529">
        <time>2022-07-04T09:56:35Z</time>
      </trkpt>
      <trkpt lat="42.635387" lon="-1.3052386">
        <time>2022-07-04T09:56:37Z</time>
      </trkpt>
      <trkpt lat="42.63534" lon="-1.3051924">
        <time>2022-07-04T09:56:39Z</time>
      </trkpt>
      <trkpt lat="42.635296" lon="-1.305137">
        <time>2022-07-04T09:56:41Z</time>
      </trkpt>
      <trkpt lat="42.634045" lon="-1.3038263">
        <time>2022-07-04T09:57:35Z</time>
      </trkpt>
      <trkpt lat="42.634014" lon="-1.3038603">
        <time>2022-07-04T09:57:52Z</time>
      </trkpt>
      <trkpt lat="42.634018" lon="-1.3038837">
        <time>2022-07-04T09:58:29Z</time>
      </trkpt>
      <trkpt lat="42.63403" lon="-1.3039436">
        <time>2022-07-04T09:58:34Z</time>
      </trkpt>
      <trkpt lat="42.633915" lon="-1.3039863">
        <time>2022-07-04T09:59:43Z</time>
      </trkpt>
      <trkpt lat="42.633865" lon="-1.3039173">
        <time>2022-07-04T09:59:46Z</time>
      </trkpt>
      <trkpt lat="42.63383" lon="-1.303868">
        <time>2022-07-04T09:59:48Z</time>
      </trkpt>
      <trkpt lat="42.633793" lon="-1.303816">
        <time>2022-07-04T09:59:50Z</time>
      </trkpt>
      <trkpt lat="42.633736" lon="-1.303735">
        <time>2022-07-04T09:59:53Z</time>
      </trkpt>
      <trkpt lat="42.633694" lon="-1.3036703">
        <time>2022-07-04T09:59:55Z</time>
      </trkpt>
      <trkpt lat="42.63366" lon="-1.3035986">
        <time>2022-07-04T09:59:57Z</time>
      </trkpt>
      <trkpt lat="42.63364" lon="-1.303493">
        <time>2022-07-04T09:59:59Z</time>
      </trkpt>
      <trkpt lat="42.633625" lon="-1.3033913">
        <time>2022-07-04T10:00:01Z</time>
      </trkpt>
      <trkpt lat="42.633617" lon="-1.3032941">
        <time>2022-07-04T10:00:03Z</time>
      </trkpt>
      <trkpt lat="42.63361" lon="-1.3032084">
        <time>2022-07-04T10:00:05Z</time>
      </trkpt>
      <trkpt lat="42.633595" lon="-1.303132">
        <time>2022-07-04T10:00:07Z</time>
      </trkpt>
      <trkpt lat="42.633583" lon="-1.3030508">
        <time>2022-07-04T10:00:09Z</time>
      </trkpt>
      <trkpt lat="42.633556" lon="-1.3029747">
        <time>2022-07-04T10:00:11Z</time>
      </trkpt>
      <trkpt lat="42.633526" lon="-1.3029027">
        <time>2022-07-04T10:00:13Z</time>
      </trkpt>
      <trkpt lat="42.63349" lon="-1.302824">
        <time>2022-07-04T10:00:15Z</time>
      </trkpt>
      <trkpt lat="42.633465" lon="-1.30275">
        <time>2022-07-04T10:00:17Z</time>
      </trkpt>
      <trkpt lat="42.63344" lon="-1.3026791">
        <time>2022-07-04T10:00:19Z</time>
      </trkpt>
      <trkpt lat="42.633415" lon="-1.3026187">
        <time>2022-07-04T10:00:21Z</time>
      </trkpt>
      <trkpt lat="42.63338" lon="-1.3024567">
        <time>2022-07-04T10:00:48Z</time>
      </trkpt>
      <trkpt lat="42.633358" lon="-1.302412">
        <time>2022-07-04T10:00:53Z</time>
      </trkpt>
      <trkpt lat="42.633343" lon="-1.3023871">
        <time>2022-07-04T10:01:17Z</time>
      </trkpt>
      <trkpt lat="42.63338" lon="-1.3024387">
        <time>2022-07-04T10:01:21Z</time>
      </trkpt>
      <trkpt lat="42.63342" lon="-1.302489">
        <time>2022-07-04T10:01:26Z</time>
      </trkpt>
      <trkpt lat="42.633354" lon="-1.3024334">
        <time>2022-07-04T10:01:43Z</time>
      </trkpt>
      <trkpt lat="42.633312" lon="-1.3023777">
        <time>2022-07-04T10:01:46Z</time>
      </trkpt>
      <trkpt lat="42.633266" lon="-1.302319">
        <time>2022-07-04T10:01:49Z</time>
      </trkpt>
      <trkpt lat="42.63321" lon="-1.3022617">
        <time>2022-07-04T10:01:52Z</time>
      </trkpt>
      <trkpt lat="42.633163" lon="-1.3022181">
        <time>2022-07-04T10:01:54Z</time>
      </trkpt>
      <trkpt lat="42.633118" lon="-1.3021704">
        <time>2022-07-04T10:01:56Z</time>
      </trkpt>
      <trkpt lat="42.633068" lon="-1.3021138">
        <time>2022-07-04T10:01:58Z</time>
      </trkpt>
      <trkpt lat="42.63302" lon="-1.3020548">
        <time>2022-07-04T10:02:00Z</time>
      </trkpt>
      <trkpt lat="42.632973" lon="-1.3019967">
        <time>2022-07-04T10:02:02Z</time>
      </trkpt>
      <trkpt lat="42.632927" lon="-1.3019347">
        <time>2022-07-04T10:02:04Z</time>
      </trkpt>
      <trkpt lat="42.63288" lon="-1.3018744">
        <time>2022-07-04T10:02:06Z</time>
      </trkpt>
      <trkpt lat="42.63283" lon="-1.3018148">
        <time>2022-07-04T10:02:08Z</time>
      </trkpt>
      <trkpt lat="42.632786" lon="-1.3017521">
        <time>2022-07-04T10:02:10Z</time>
      </trkpt>
      <trkpt lat="42.632736" lon="-1.3016845">
        <time>2022-07-04T10:02:12Z</time>
      </trkpt>
      <trkpt lat="42.632687" lon="-1.3016205">
        <time>2022-07-04T10:02:14Z</time>
      </trkpt>
      <trkpt lat="42.63261" lon="-1.3015311">
        <time>2022-07-04T10:02:17Z</time>
      </trkpt>
      <trkpt lat="42.63255" lon="-1.3014728">
        <time>2022-07-04T10:02:19Z</time>
      </trkpt>
      <trkpt lat="42.632484" lon="-1.3014214">
        <time>2022-07-04T10:02:21Z</time>
      </trkpt>
      <trkpt lat="42.63242" lon="-1.3013811">
        <time>2022-07-04T10:02:23Z</time>
      </trkpt>
      <trkpt lat="42.632366" lon="-1.3013388">
        <time>2022-07-04T10:02:25Z</time>
      </trkpt>
      <trkpt lat="42.63231" lon="-1.3012952">
        <time>2022-07-04T10:02:27Z</time>
      </trkpt>
      <trkpt lat="42.63226" lon="-1.3012482">
        <time>2022-07-04T10:02:29Z</time>
      </trkpt>
      <trkpt lat="42.63221" lon="-1.3011994">
        <time>2022-07-04T10:02:31Z</time>
      </trkpt>
      <trkpt lat="42.632164" lon="-1.3011651">
        <time>2022-07-04T10:02:33Z</time>
      </trkpt>
      <trkpt lat="42.632114" lon="-1.3011402">
        <time>2022-07-04T10:02:35Z</time>
      </trkpt>
      <trkpt lat="42.63206" lon="-1.3011061">
        <time>2022-07-04T10:02:37Z</time>
      </trkpt>
      <trkpt lat="42.632" lon="-1.3010871">
        <time>2022-07-04T10:02:39Z</time>
      </trkpt>
      <trkpt lat="42.63193" lon="-1.3010738">
        <time>2022-07-04T10:02:41Z</time>
      </trkpt>
      <trkpt lat="42.631874" lon="-1.3010561">
        <time>2022-07-04T10:02:43Z</time>
      </trkpt>
      <trkpt lat="42.631817" lon="-1.3010302">
        <time>2022-07-04T10:02:45Z</time>
      </trkpt>
      <trkpt lat="42.631767" lon="-1.3010045">
        <time>2022-07-04T10:02:47Z</time>
      </trkpt>
      <trkpt lat="42.631702" lon="-1.3009665">
        <time>2022-07-04T10:02:50Z</time>
      </trkpt>
      <trkpt lat="42.63165" lon="-1.3009455">
        <time>2022-07-04T10:02:53Z</time>
      </trkpt>
      <trkpt lat="42.63161" lon="-1.3009455">
        <time>2022-07-04T10:02:58Z</time>
      </trkpt>
      <trkpt lat="42.63154" lon="-1.3008895">
        <time>2022-07-04T10:05:32Z</time>
      </trkpt>
      <trkpt lat="42.63147" lon="-1.3008405">
        <time>2022-07-04T10:05:35Z</time>
      </trkpt>
      <trkpt lat="42.63142" lon="-1.3008052">
        <time>2022-07-04T10:05:37Z</time>
      </trkpt>
      <trkpt lat="42.631363" lon="-1.3007722">
        <time>2022-07-04T10:05:39Z</time>
      </trkpt>
      <trkpt lat="42.631306" lon="-1.3007336">
        <time>2022-07-04T10:05:41Z</time>
      </trkpt>
      <trkpt lat="42.631252" lon="-1.3006892">
        <time>2022-07-04T10:05:43Z</time>
      </trkpt>
      <trkpt lat="42.631195" lon="-1.3006421">
        <time>2022-07-04T10:05:45Z</time>
      </trkpt>
      <trkpt lat="42.631138" lon="-1.3006045">
        <time>2022-07-04T10:05:47Z</time>
      </trkpt>
      <trkpt lat="42.631077" lon="-1.3005672">
        <time>2022-07-04T10:05:49Z</time>
      </trkpt>
      <trkpt lat="42.63102" lon="-1.3005362">
        <time>2022-07-04T10:05:51Z</time>
      </trkpt>
      <trkpt lat="42.630962" lon="-1.3005122">
        <time>2022-07-04T10:05:53Z</time>
      </trkpt>
      <trkpt lat="42.6309" lon="-1.3004979">
        <time>2022-07-04T10:05:55Z</time>
      </trkpt>
      <trkpt lat="42.63084" lon="-1.3004901">
        <time>2022-07-04T10:05:57Z</time>
      </trkpt>
      <trkpt lat="42.630775" lon="-1.3004962">
        <time>2022-07-04T10:05:59Z</time>
      </trkpt>
      <trkpt lat="42.63071" lon="-1.3004942">
        <time>2022-07-04T10:06:01Z</time>
      </trkpt>
      <trkpt lat="42.630646" lon="-1.3004922">
        <time>2022-07-04T10:06:03Z</time>
      </trkpt>
      <trkpt lat="42.63058" lon="-1.3004905">
        <time>2022-07-04T10:06:05Z</time>
      </trkpt>
      <trkpt lat="42.630516" lon="-1.3004982">
        <time>2022-07-04T10:06:07Z</time>
      </trkpt>
      <trkpt lat="42.630447" lon="-1.3005172">
        <time>2022-07-04T10:06:09Z</time>
      </trkpt>
      <trkpt lat="42.630375" lon="-1.3005369">
        <time>2022-07-04T10:06:11Z</time>
      </trkpt>
      <trkpt lat="42.630302" lon="-1.3005642">
        <time>2022-07-04T10:06:13Z</time>
      </trkpt>
      <trkpt lat="42.63023" lon="-1.3005992">
        <time>2022-07-04T10:06:15Z</time>
      </trkpt>
      <trkpt lat="42.630157" lon="-1.3006425">
        <time>2022-07-04T10:06:17Z</time>
      </trkpt>
      <trkpt lat="42.63009" lon="-1.3006818">
        <time>2022-07-04T10:06:19Z</time>
      </trkpt>
      <trkpt lat="42.63002" lon="-1.3007145">
        <time>2022-07-04T10:06:21Z</time>
      </trkpt>
      <trkpt lat="42.62996" lon="-1.3007425">
        <time>2022-07-04T10:06:23Z</time>
      </trkpt>
      <trkpt lat="42.629894" lon="-1.3007748">
        <time>2022-07-04T10:06:25Z</time>
      </trkpt>
      <trkpt lat="42.62983" lon="-1.3007991">
        <time>2022-07-04T10:06:27Z</time>
      </trkpt>
      <trkpt lat="42.62977" lon="-1.3008265">
        <time>2022-07-04T10:06:29Z</time>
      </trkpt>
      <trkpt lat="42.629704" lon="-1.3008589">
        <time>2022-07-04T10:06:31Z</time>
      </trkpt>
      <trkpt lat="42.629646" lon="-1.3008878">
        <time>2022-07-04T10:06:33Z</time>
      </trkpt>
      <trkpt lat="42.62959" lon="-1.3009185">
        <time>2022-07-04T10:06:35Z</time>
      </trkpt>
      <trkpt lat="42.629536" lon="-1.3009511">
        <time>2022-07-04T10:06:37Z</time>
      </trkpt>
      <trkpt lat="42.629486" lon="-1.3009762">
        <time>2022-07-04T10:06:39Z</time>
      </trkpt>
      <trkpt lat="42.629436" lon="-1.3010001">
        <time>2022-07-04T10:06:41Z</time>
      </trkpt>
      <trkpt lat="42.629383" lon="-1.3010259">
        <time>2022-07-04T10:06:43Z</time>
      </trkpt>
      <trkpt lat="42.62933" lon="-1.3010538">
        <time>2022-07-04T10:06:45Z</time>
      </trkpt>
      <trkpt lat="42.629272" lon="-1.3010851">
        <time>2022-07-04T10:06:47Z</time>
      </trkpt>
      <trkpt lat="42.62921" lon="-1.3011258">
        <time>2022-07-04T10:06:49Z</time>
      </trkpt>
      <trkpt lat="42.629147" lon="-1.3011684">
        <time>2022-07-04T10:06:51Z</time>
      </trkpt>
      <trkpt lat="42.62908" lon="-1.3012065">
        <time>2022-07-04T10:06:53Z</time>
      </trkpt>
      <trkpt lat="42.62901" lon="-1.3012428">
        <time>2022-07-04T10:06:55Z</time>
      </trkpt>
      <trkpt lat="42.628937" lon="-1.3012768">
        <time>2022-07-04T10:06:57Z</time>
      </trkpt>
      <trkpt lat="42.628864" lon="-1.3013134">
        <time>2022-07-04T10:06:59Z</time>
      </trkpt>
      <trkpt lat="42.62879" lon="-1.3013518">
        <time>2022-07-04T10:07:01Z</time>
      </trkpt>
      <trkpt lat="42.62871" lon="-1.3013895">
        <time>2022-07-04T10:07:03Z</time>
      </trkpt>
      <trkpt lat="42.628635" lon="-1.3014264">
        <time>2022-07-04T10:07:05Z</time>
      </trkpt>
      <trkpt lat="42.628563" lon="-1.3014488">
        <time>2022-07-04T10:07:07Z</time>
      </trkpt>
      <trkpt lat="42.62849" lon="-1.3014678">
        <time>2022-07-04T10:07:09Z</time>
      </trkpt>
      <trkpt lat="42.62842" lon="-1.3014928">
        <time>2022-07-04T10:07:11Z</time>
      </trkpt>
      <trkpt lat="42.62835" lon="-1.301524">
        <time>2022-07-04T10:07:13Z</time>
      </trkpt>
      <trkpt lat="42.628277" lon="-1.3015524">
        <time>2022-07-04T10:07:15Z</time>
      </trkpt>
      <trkpt lat="42.628204" lon="-1.3015804">
        <time>2022-07-04T10:07:17Z</time>
      </trkpt>
      <trkpt lat="42.628136" lon="-1.3016107">
        <time>2022-07-04T10:07:19Z</time>
      </trkpt>
      <trkpt lat="42.628067" lon="-1.30164">
        <time>2022-07-04T10:07:21Z</time>
      </trkpt>
      <trkpt lat="42.628" lon="-1.301663">
        <time>2022-07-04T10:07:23Z</time>
      </trkpt>
      <trkpt lat="42.627934" lon="-1.3016864">
        <time>2022-07-04T10:07:25Z</time>
      </trkpt>
      <trkpt lat="42.62787" lon="-1.3017035">
        <time>2022-07-04T10:07:27Z</time>
      </trkpt>
      <trkpt lat="42.627804" lon="-1.3017317">
        <time>2022-07-04T10:07:29Z</time>
      </trkpt>
      <trkpt lat="42.627747" lon="-1.3017714">
        <time>2022-07-04T10:07:31Z</time>
      </trkpt>
      <trkpt lat="42.62771" lon="-1.3018131">
        <time>2022-07-04T10:07:33Z</time>
      </trkpt>
      <trkpt lat="42.62768" lon="-1.3018574">
        <time>2022-07-04T10:07:36Z</time>
      </trkpt>
      <trkpt lat="42.627586" lon="-1.3018444">
        <time>2022-07-04T10:07:45Z</time>
      </trkpt>
      <trkpt lat="42.627525" lon="-1.3018624">
        <time>2022-07-04T10:07:48Z</time>
      </trkpt>
      <trkpt lat="42.627453" lon="-1.3018867">
        <time>2022-07-04T10:07:51Z</time>
      </trkpt>
      <trkpt lat="42.627377" lon="-1.3019121">
        <time>2022-07-04T10:07:54Z</time>
      </trkpt>
      <trkpt lat="42.627327" lon="-1.3019421">
        <time>2022-07-04T10:07:56Z</time>
      </trkpt>
      <trkpt lat="42.62727" lon="-1.3019911">
        <time>2022-07-04T10:07:58Z</time>
      </trkpt>
      <trkpt lat="42.627213" lon="-1.3020387">
        <time>2022-07-04T10:08:00Z</time>
      </trkpt>
      <trkpt lat="42.627163" lon="-1.302075">
        <time>2022-07-04T10:08:02Z</time>
      </trkpt>
      <trkpt lat="42.627113" lon="-1.3021088">
        <time>2022-07-04T10:08:04Z</time>
      </trkpt>
      <trkpt lat="42.627064" lon="-1.3021764">
        <time>2022-07-04T10:08:07Z</time>
      </trkpt>
      <trkpt lat="42.62704" lon="-1.3022264">
        <time>2022-07-04T10:08:10Z</time>
      </trkpt>
      <trkpt lat="42.626938" lon="-1.3024753">
        <time>2022-07-04T10:09:44Z</time>
      </trkpt>
      <trkpt lat="42.62688" lon="-1.3025013">
        <time>2022-07-04T10:09:47Z</time>
      </trkpt>
      <trkpt lat="42.624638" lon="-1.3015181">
        <time>2022-07-04T10:11:16Z</time>
      </trkpt>
      <trkpt lat="42.624577" lon="-1.300869">
        <time>2022-07-04T10:11:32Z</time>
      </trkpt>
      <trkpt lat="42.6246" lon="-1.3007534">
        <time>2022-07-04T10:11:35Z</time>
      </trkpt>
      <trkpt lat="42.624626" lon="-1.3006517">
        <time>2022-07-04T10:11:37Z</time>
      </trkpt>
      <trkpt lat="42.624645" lon="-1.3005444">
        <time>2022-07-04T10:11:39Z</time>
      </trkpt>
      <trkpt lat="42.624653" lon="-1.3004358">
        <time>2022-07-04T10:11:41Z</time>
      </trkpt>
      <trkpt lat="42.624657" lon="-1.3003261">
        <time>2022-07-04T10:11:43Z</time>
      </trkpt>
      <trkpt lat="42.62466" lon="-1.3002127">
        <time>2022-07-04T10:11:45Z</time>
      </trkpt>
      <trkpt lat="42.62466" lon="-1.3000927">
        <time>2022-07-04T10:11:47Z</time>
      </trkpt>
      <trkpt lat="42.624657" lon="-1.2999728">
        <time>2022-07-04T10:11:49Z</time>
      </trkpt>
      <trkpt lat="42.62464" lon="-1.2998521">
        <time>2022-07-04T10:11:51Z</time>
      </trkpt>
      <trkpt lat="42.62462" lon="-1.2997338">
        <time>2022-07-04T10:11:53Z</time>
      </trkpt>
      <trkpt lat="42.624596" lon="-1.2996135">
        <time>2022-07-04T10:11:55Z</time>
      </trkpt>
      <trkpt lat="42.624573" lon="-1.2994914">
        <time>2022-07-04T10:11:57Z</time>
      </trkpt>
      <trkpt lat="42.62454" lon="-1.2993091">
        <time>2022-07-04T10:12:00Z</time>
      </trkpt>
      <trkpt lat="42.62452" lon="-1.2991887">
        <time>2022-07-04T10:12:02Z</time>
      </trkpt>
      <trkpt lat="42.6245" lon="-1.2990674">
        <time>2022-07-04T10:12:04Z</time>
      </trkpt>
      <trkpt lat="42.62448" lon="-1.2989467">
        <time>2022-07-04T10:12:06Z</time>
      </trkpt>
      <trkpt lat="42.624466" lon="-1.2988251">
        <time>2022-07-04T10:12:08Z</time>
      </trkpt>
      <trkpt lat="42.62445" lon="-1.2987025">
        <time>2022-07-04T10:12:10Z</time>
      </trkpt>
      <trkpt lat="42.624435" lon="-1.2985781">
        <time>2022-07-04T10:12:12Z</time>
      </trkpt>
      <trkpt lat="42.62442" lon="-1.2984535">
        <time>2022-07-04T10:12:14Z</time>
      </trkpt>
      <trkpt lat="42.624405" lon="-1.2983302">
        <time>2022-07-04T10:12:16Z</time>
      </trkpt>
      <trkpt lat="42.62439" lon="-1.2982059">
        <time>2022-07-04T10:12:18Z</time>
      </trkpt>
      <trkpt lat="42.62438" lon="-1.2980838">
        <time>2022-07-04T10:12:20Z</time>
      </trkpt>
      <trkpt lat="42.62437" lon="-1.2980201">
        <time>2022-07-04T10:12:21Z</time>
      </trkpt>
      <trkpt lat="42.62436" lon="-1.2978932">
        <time>2022-07-04T10:12:23Z</time>
      </trkpt>
      <trkpt lat="42.624344" lon="-1.2977678">
        <time>2022-07-04T10:12:25Z</time>
      </trkpt>
      <trkpt lat="42.624332" lon="-1.2976328">
        <time>2022-07-04T10:12:27Z</time>
      </trkpt>
      <trkpt lat="42.62433" lon="-1.2975662">
        <time>2022-07-04T10:12:28Z</time>
      </trkpt>
      <trkpt lat="42.62432" lon="-1.2974344">
        <time>2022-07-04T10:12:30Z</time>
      </trkpt>
      <trkpt lat="42.624317" lon="-1.2973055">
        <time>2022-07-04T10:12:32Z</time>
      </trkpt>
      <trkpt lat="42.624313" lon="-1.2971822">
        <time>2022-07-04T10:12:34Z</time>
      </trkpt>
      <trkpt lat="42.624313" lon="-1.2970545">
        <time>2022-07-04T10:12:36Z</time>
      </trkpt>
      <trkpt lat="42.624306" lon="-1.2969252">
        <time>2022-07-04T10:12:38Z</time>
      </trkpt>
      <trkpt lat="42.624294" lon="-1.2967949">
        <time>2022-07-04T10:12:40Z</time>
      </trkpt>
      <trkpt lat="42.62429" lon="-1.2967345">
        <time>2022-07-04T10:12:41Z</time>
      </trkpt>
      <trkpt lat="42.624283" lon="-1.2966125">
        <time>2022-07-04T10:12:43Z</time>
      </trkpt>
      <trkpt lat="42.624275" lon="-1.2964889">
        <time>2022-07-04T10:12:45Z</time>
      </trkpt>
      <trkpt lat="42.624268" lon="-1.2963605">
        <time>2022-07-04T10:12:47Z</time>
      </trkpt>
      <trkpt lat="42.624264" lon="-1.2962952">
        <time>2022-07-04T10:12:48Z</time>
      </trkpt>
      <trkpt lat="42.62426" lon="-1.2961736">
        <time>2022-07-04T10:12:50Z</time>
      </trkpt>
      <trkpt lat="42.624252" lon="-1.2960479">
        <time>2022-07-04T10:12:52Z</time>
      </trkpt>
      <trkpt lat="42.624245" lon="-1.2959172">
        <time>2022-07-04T10:12:54Z</time>
      </trkpt>
      <trkpt lat="42.624233" lon="-1.2957896">
        <time>2022-07-04T10:12:56Z</time>
      </trkpt>
      <trkpt lat="42.62423" lon="-1.2957289">
        <time>2022-07-04T10:12:57Z</time>
      </trkpt>
      <trkpt lat="42.624218" lon="-1.2955976">
        <time>2022-07-04T10:12:59Z</time>
      </trkpt>
      <trkpt lat="42.624207" lon="-1.2954652">
        <time>2022-07-04T10:13:01Z</time>
      </trkpt>
      <trkpt lat="42.6242" lon="-1.2953366">
        <time>2022-07-04T10:13:03Z</time>
      </trkpt>
      <trkpt lat="42.62419" lon="-1.2952026">
        <time>2022-07-04T10:13:05Z</time>
      </trkpt>
      <trkpt lat="42.624187" lon="-1.2951373">
        <time>2022-07-04T10:13:06Z</time>
      </trkpt>
      <trkpt lat="42.624176" lon="-1.2950139">
        <time>2022-07-04T10:13:08Z</time>
      </trkpt>
      <trkpt lat="42.624165" lon="-1.2948786">
        <time>2022-07-04T10:13:10Z</time>
      </trkpt>
      <trkpt lat="42.624157" lon="-1.2948105">
        <time>2022-07-04T10:13:11Z</time>
      </trkpt>
      <trkpt lat="42.624146" lon="-1.2946819">
        <time>2022-07-04T10:13:13Z</time>
      </trkpt>
      <trkpt lat="42.624126" lon="-1.2945516">
        <time>2022-07-04T10:13:15Z</time>
      </trkpt>
      <trkpt lat="42.62412" lon="-1.2944866">
        <time>2022-07-04T10:13:16Z</time>
      </trkpt>
      <trkpt lat="42.624104" lon="-1.2943566">
        <time>2022-07-04T10:13:18Z</time>
      </trkpt>
      <trkpt lat="42.62409" lon="-1.294225">
        <time>2022-07-04T10:13:20Z</time>
      </trkpt>
      <trkpt lat="42.62408" lon="-1.2941539">
        <time>2022-07-04T10:13:21Z</time>
      </trkpt>
      <trkpt lat="42.624073" lon="-1.2940886">
        <time>2022-07-04T10:13:22Z</time>
      </trkpt>
      <trkpt lat="42.62406" lon="-1.2939576">
        <time>2022-07-04T10:13:24Z</time>
      </trkpt>
      <trkpt lat="42.624046" lon="-1.2938256">
        <time>2022-07-04T10:13:26Z</time>
      </trkpt>
      <trkpt lat="42.624027" lon="-1.2936933">
        <time>2022-07-04T10:13:28Z</time>
      </trkpt>
      <trkpt lat="42.624016" lon="-1.2935623">
        <time>2022-07-04T10:13:30Z</time>
      </trkpt>
      <trkpt lat="42.624004" lon="-1.2934963">
        <time>2022-07-04T10:13:31Z</time>
      </trkpt>
      <trkpt lat="42.623993" lon="-1.2933649">
        <time>2022-07-04T10:13:33Z</time>
      </trkpt>
      <trkpt lat="42.623978" lon="-1.2932326">
        <time>2022-07-04T10:13:35Z</time>
      </trkpt>
      <trkpt lat="42.623966" lon="-1.2930993">
        <time>2022-07-04T10:13:37Z</time>
      </trkpt>
      <trkpt lat="42.62395" lon="-1.2929666">
        <time>2022-07-04T10:13:39Z</time>
      </trkpt>
      <trkpt lat="42.623936" lon="-1.292832">
        <time>2022-07-04T10:13:41Z</time>
      </trkpt>
      <trkpt lat="42.62392" lon="-1.2926947">
        <time>2022-07-04T10:13:43Z</time>
      </trkpt>
      <trkpt lat="42.623913" lon="-1.2926286">
        <time>2022-07-04T10:13:44Z</time>
      </trkpt>
      <trkpt lat="42.623898" lon="-1.2924963">
        <time>2022-07-04T10:13:46Z</time>
      </trkpt>
      <trkpt lat="42.62388" lon="-1.2923594">
        <time>2022-07-04T10:13:48Z</time>
      </trkpt>
      <trkpt lat="42.623867" lon="-1.2922926">
        <time>2022-07-04T10:13:49Z</time>
      </trkpt>
      <trkpt lat="42.62385" lon="-1.2921569">
        <time>2022-07-04T10:13:51Z</time>
      </trkpt>
      <trkpt lat="42.623844" lon="-1.2920843">
        <time>2022-07-04T10:13:52Z</time>
      </trkpt>
      <trkpt lat="42.623833" lon="-1.2920183">
        <time>2022-07-04T10:13:53Z</time>
      </trkpt>
      <trkpt lat="42.623806" lon="-1.291888">
        <time>2022-07-04T10:13:55Z</time>
      </trkpt>
      <trkpt lat="42.623775" lon="-1.2917603">
        <time>2022-07-04T10:13:57Z</time>
      </trkpt>
      <trkpt lat="42.623745" lon="-1.291633">
        <time>2022-07-04T10:13:59Z</time>
      </trkpt>
      <trkpt lat="42.623714" lon="-1.2915074">
        <time>2022-07-04T10:14:01Z</time>
      </trkpt>
      <trkpt lat="42.62368" lon="-1.291385">
        <time>2022-07-04T10:14:03Z</time>
      </trkpt>
      <trkpt lat="42.623646" lon="-1.291266">
        <time>2022-07-04T10:14:05Z</time>
      </trkpt>
      <trkpt lat="42.62361" lon="-1.291155">
        <time>2022-07-04T10:14:07Z</time>
      </trkpt>
      <trkpt lat="42.623577" lon="-1.291044">
        <time>2022-07-04T10:14:09Z</time>
      </trkpt>
      <trkpt lat="42.623543" lon="-1.2909347">
        <time>2022-07-04T10:14:11Z</time>
      </trkpt>
      <trkpt lat="42.623505" lon="-1.2908247">
        <time>2022-07-04T10:14:13Z</time>
      </trkpt>
      <trkpt lat="42.623466" lon="-1.2907153">
        <time>2022-07-04T10:14:15Z</time>
      </trkpt>
      <trkpt lat="42.623425" lon="-1.2906077">
        <time>2022-07-04T10:14:17Z</time>
      </trkpt>
      <trkpt lat="42.623383" lon="-1.2905034">
        <time>2022-07-04T10:14:19Z</time>
      </trkpt>
      <trkpt lat="42.623333" lon="-1.2903997">
        <time>2022-07-04T10:14:21Z</time>
      </trkpt>
      <trkpt lat="42.623283" lon="-1.2902944">
        <time>2022-07-04T10:14:23Z</time>
      </trkpt>
      <trkpt lat="42.623222" lon="-1.2901837">
        <time>2022-07-04T10:14:25Z</time>
      </trkpt>
      <trkpt lat="42.623196" lon="-1.2901311">
        <time>2022-07-04T10:14:26Z</time>
      </trkpt>
      <trkpt lat="42.623135" lon="-1.2900218">
        <time>2022-07-04T10:14:28Z</time>
      </trkpt>
      <trkpt lat="42.623074" lon="-1.2899134">
        <time>2022-07-04T10:14:30Z</time>
      </trkpt>
      <trkpt lat="42.623043" lon="-1.2898607">
        <time>2022-07-04T10:14:31Z</time>
      </trkpt>
      <trkpt lat="42.62298" lon="-1.2897581">
        <time>2022-07-04T10:14:33Z</time>
      </trkpt>
      <trkpt lat="42.622913" lon="-1.2896557">
        <time>2022-07-04T10:14:35Z</time>
      </trkpt>
      <trkpt lat="42.622845" lon="-1.289556">
        <time>2022-07-04T10:14:37Z</time>
      </trkpt>
      <trkpt lat="42.622814" lon="-1.2895118">
        <time>2022-07-04T10:14:38Z</time>
      </trkpt>
      <trkpt lat="42.622746" lon="-1.2894207">
        <time>2022-07-04T10:14:40Z</time>
      </trkpt>
      <trkpt lat="42.62267" lon="-1.2893298">
        <time>2022-07-04T10:14:42Z</time>
      </trkpt>
      <trkpt lat="42.6226" lon="-1.2892468">
        <time>2022-07-04T10:14:44Z</time>
      </trkpt>
      <trkpt lat="42.622562" lon="-1.289203">
        <time>2022-07-04T10:14:45Z</time>
      </trkpt>
      <trkpt lat="42.622486" lon="-1.2891204">
        <time>2022-07-04T10:14:47Z</time>
      </trkpt>
      <trkpt lat="42.62241" lon="-1.2890441">
        <time>2022-07-04T10:14:49Z</time>
      </trkpt>
      <trkpt lat="42.622334" lon="-1.2889727">
        <time>2022-07-04T10:14:51Z</time>
      </trkpt>
      <trkpt lat="42.622253" lon="-1.2889065">
        <time>2022-07-04T10:14:53Z</time>
      </trkpt>
      <trkpt lat="42.62218" lon="-1.2888495">
        <time>2022-07-04T10:14:55Z</time>
      </trkpt>
      <trkpt lat="42.622097" lon="-1.2887998">
        <time>2022-07-04T10:14:57Z</time>
      </trkpt>
      <trkpt lat="42.622017" lon="-1.2887554">
        <time>2022-07-04T10:14:59Z</time>
      </trkpt>
      <trkpt lat="42.621933" lon="-1.2887192">
        <time>2022-07-04T10:15:01Z</time>
      </trkpt>
      <trkpt lat="42.62185" lon="-1.2886928">
        <time>2022-07-04T10:15:03Z</time>
      </trkpt>
      <trkpt lat="42.62176" lon="-1.2886782">
        <time>2022-07-04T10:15:05Z</time>
      </trkpt>
      <trkpt lat="42.621677" lon="-1.2886782">
        <time>2022-07-04T10:15:07Z</time>
      </trkpt>
      <trkpt lat="42.621597" lon="-1.2886925">
        <time>2022-07-04T10:15:09Z</time>
      </trkpt>
      <trkpt lat="42.621513" lon="-1.2887164">
        <time>2022-07-04T10:15:11Z</time>
      </trkpt>
      <trkpt lat="42.621433" lon="-1.2887508">
        <time>2022-07-04T10:15:13Z</time>
      </trkpt>
      <trkpt lat="42.621353" lon="-1.2887918">
        <time>2022-07-04T10:15:15Z</time>
      </trkpt>
      <trkpt lat="42.621273" lon="-1.2888361">
        <time>2022-07-04T10:15:17Z</time>
      </trkpt>
      <trkpt lat="42.621193" lon="-1.2888814">
        <time>2022-07-04T10:15:19Z</time>
      </trkpt>
      <trkpt lat="42.62111" lon="-1.2889265">
        <time>2022-07-04T10:15:21Z</time>
      </trkpt>
      <trkpt lat="42.621025" lon="-1.2889621">
        <time>2022-07-04T10:15:23Z</time>
      </trkpt>
      <trkpt lat="42.62094" lon="-1.2889848">
        <time>2022-07-04T10:15:25Z</time>
      </trkpt>
      <trkpt lat="42.62086" lon="-1.2889911">
        <time>2022-07-04T10:15:27Z</time>
      </trkpt>
      <trkpt lat="42.62078" lon="-1.2889888">
        <time>2022-07-04T10:15:29Z</time>
      </trkpt>
      <trkpt lat="42.62066" lon="-1.2889661">
        <time>2022-07-04T10:15:32Z</time>
      </trkpt>
      <trkpt lat="42.620575" lon="-1.2889398">
        <time>2022-07-04T10:15:34Z</time>
      </trkpt>
      <trkpt lat="42.62049" lon="-1.2889074">
        <time>2022-07-04T10:15:36Z</time>
      </trkpt>
      <trkpt lat="42.620407" lon="-1.2888664">
        <time>2022-07-04T10:15:38Z</time>
      </trkpt>
      <trkpt lat="42.620327" lon="-1.2888174">
        <time>2022-07-04T10:15:40Z</time>
      </trkpt>
      <trkpt lat="42.62025" lon="-1.2887628">
        <time>2022-07-04T10:15:42Z</time>
      </trkpt>
      <trkpt lat="42.620174" lon="-1.2886997">
        <time>2022-07-04T10:15:44Z</time>
      </trkpt>
      <trkpt lat="42.620102" lon="-1.2886268">
        <time>2022-07-04T10:15:46Z</time>
      </trkpt>
      <trkpt lat="42.62004" lon="-1.2885498">
        <time>2022-07-04T10:15:48Z</time>
      </trkpt>
      <trkpt lat="42.619976" lon="-1.2884572">
        <time>2022-07-04T10:15:50Z</time>
      </trkpt>
      <trkpt lat="42.619915" lon="-1.2883584">
        <time>2022-07-04T10:15:52Z</time>
      </trkpt>
      <trkpt lat="42.619858" lon="-1.2882478">
        <time>2022-07-04T10:15:54Z</time>
      </trkpt>
      <trkpt lat="42.61983" lon="-1.2881905">
        <time>2022-07-04T10:15:55Z</time>
      </trkpt>
      <trkpt lat="42.6198" lon="-1.2881324">
        <time>2022-07-04T10:15:56Z</time>
      </trkpt>
      <trkpt lat="42.619747" lon="-1.2880145">
        <time>2022-07-04T10:15:58Z</time>
      </trkpt>
      <trkpt lat="42.61972" lon="-1.2879552">
        <time>2022-07-04T10:15:59Z</time>
      </trkpt>
      <trkpt lat="42.619667" lon="-1.2878392">
        <time>2022-07-04T10:16:01Z</time>
      </trkpt>
      <trkpt lat="42.619617" lon="-1.2877305">
        <time>2022-07-04T10:16:03Z</time>
      </trkpt>
      <trkpt lat="42.619568" lon="-1.2876115">
        <time>2022-07-04T10:16:05Z</time>
      </trkpt>
      <trkpt lat="42.619514" lon="-1.2874964">
        <time>2022-07-04T10:16:07Z</time>
      </trkpt>
      <trkpt lat="42.619465" lon="-1.2873795">
        <time>2022-07-04T10:16:09Z</time>
      </trkpt>
      <trkpt lat="42.61941" lon="-1.2872608">
        <time>2022-07-04T10:16:11Z</time>
      </trkpt>
      <trkpt lat="42.619385" lon="-1.2872015">
        <time>2022-07-04T10:16:12Z</time>
      </trkpt>
      <trkpt lat="42.61934" lon="-1.2870892">
        <time>2022-07-04T10:16:14Z</time>
      </trkpt>
      <trkpt lat="42.61928" lon="-1.2869681">
        <time>2022-07-04T10:16:16Z</time>
      </trkpt>
      <trkpt lat="42.619255" lon="-1.2869081">
        <time>2022-07-04T10:16:17Z</time>
      </trkpt>
      <trkpt lat="42.619205" lon="-1.2867955">
        <time>2022-07-04T10:16:19Z</time>
      </trkpt>
      <trkpt lat="42.619152" lon="-1.2866702">
        <time>2022-07-04T10:16:21Z</time>
      </trkpt>
      <trkpt lat="42.619125" lon="-1.2866079">
        <time>2022-07-04T10:16:22Z</time>
      </trkpt>
      <trkpt lat="42.6191" lon="-1.2865496">
        <time>2022-07-04T10:16:23Z</time>
      </trkpt>
      <trkpt lat="42.619072" lon="-1.2864895">
        <time>2022-07-04T10:16:24Z</time>
      </trkpt>
      <trkpt lat="42.61902" lon="-1.2863638">
        <time>2022-07-04T10:16:26Z</time>
      </trkpt>
      <trkpt lat="42.618988" lon="-1.2862998">
        <time>2022-07-04T10:16:27Z</time>
      </trkpt>
      <trkpt lat="42.618965" lon="-1.2862402">
        <time>2022-07-04T10:16:28Z</time>
      </trkpt>
      <trkpt lat="42.61894" lon="-1.2861805">
        <time>2022-07-04T10:16:29Z</time>
      </trkpt>
      <trkpt lat="42.61891" lon="-1.2861199">
        <time>2022-07-04T10:16:30Z</time>
      </trkpt>
      <trkpt lat="42.61888" lon="-1.2860559">
        <time>2022-07-04T10:16:31Z</time>
      </trkpt>
      <trkpt lat="42.61885" lon="-1.2859945">
        <time>2022-07-04T10:16:32Z</time>
      </trkpt>
      <trkpt lat="42.618824" lon="-1.2859339">
        <time>2022-07-04T10:16:33Z</time>
      </trkpt>
      <trkpt lat="42.618797" lon="-1.285878">
        <time>2022-07-04T10:16:34Z</time>
      </trkpt>
      <trkpt lat="42.618744" lon="-1.2857592">
        <time>2022-07-04T10:16:36Z</time>
      </trkpt>
      <trkpt lat="42.618717" lon="-1.2856989">
        <time>2022-07-04T10:16:37Z</time>
      </trkpt>
      <trkpt lat="42.61867" lon="-1.2855853">
        <time>2022-07-04T10:16:39Z</time>
      </trkpt>
      <trkpt lat="42.618603" lon="-1.28542">
        <time>2022-07-04T10:16:42Z</time>
      </trkpt>
      <trkpt lat="42.61856" lon="-1.2853146">
        <time>2022-07-04T10:16:44Z</time>
      </trkpt>
      <trkpt lat="42.618523" lon="-1.2852136">
        <time>2022-07-04T10:16:46Z</time>
      </trkpt>
      <trkpt lat="42.618492" lon="-1.2851099">
        <time>2022-07-04T10:16:48Z</time>
      </trkpt>
      <trkpt lat="42.618465" lon="-1.2850186">
        <time>2022-07-04T10:16:50Z</time>
      </trkpt>
      <trkpt lat="42.618443" lon="-1.2849389">
        <time>2022-07-04T10:16:52Z</time>
      </trkpt>
      <trkpt lat="42.618416" lon="-1.2848673">
        <time>2022-07-04T10:16:54Z</time>
      </trkpt>
      <trkpt lat="42.61839" lon="-1.2847953">
        <time>2022-07-04T10:16:56Z</time>
      </trkpt>
      <trkpt lat="42.618366" lon="-1.2847142">
        <time>2022-07-04T10:16:58Z</time>
      </trkpt>
      <trkpt lat="42.618347" lon="-1.284632">
        <time>2022-07-04T10:17:00Z</time>
      </trkpt>
      <trkpt lat="42.61833" lon="-1.2845426">
        <time>2022-07-04T10:17:02Z</time>
      </trkpt>
      <trkpt lat="42.61832" lon="-1.2844503">
        <time>2022-07-04T10:17:04Z</time>
      </trkpt>
      <trkpt lat="42.618332" lon="-1.2843566">
        <time>2022-07-04T10:17:06Z</time>
      </trkpt>
      <trkpt lat="42.618355" lon="-1.2842616">
        <time>2022-07-04T10:17:08Z</time>
      </trkpt>
      <trkpt lat="42.61838" lon="-1.2841716">
        <time>2022-07-04T10:17:10Z</time>
      </trkpt>
      <trkpt lat="42.618412" lon="-1.2840836">
        <time>2022-07-04T10:17:12Z</time>
      </trkpt>
      <trkpt lat="42.61845" lon="-1.2839969">
        <time>2022-07-04T10:17:14Z</time>
      </trkpt>
      <trkpt lat="42.61849" lon="-1.283908">
        <time>2022-07-04T10:17:16Z</time>
      </trkpt>
      <trkpt lat="42.618526" lon="-1.2838153">
        <time>2022-07-04T10:17:18Z</time>
      </trkpt>
      <trkpt lat="42.618565" lon="-1.283725">
        <time>2022-07-04T10:17:20Z</time>
      </trkpt>
      <trkpt lat="42.6186" lon="-1.2836413">
        <time>2022-07-04T10:17:22Z</time>
      </trkpt>
      <trkpt lat="42.618637" lon="-1.2835586">
        <time>2022-07-04T10:17:24Z</time>
      </trkpt>
      <trkpt lat="42.61867" lon="-1.2834823">
        <time>2022-07-04T10:17:26Z</time>
      </trkpt>
      <trkpt lat="42.618706" lon="-1.2834103">
        <time>2022-07-04T10:17:28Z</time>
      </trkpt>
      <trkpt lat="42.618736" lon="-1.2833463">
        <time>2022-07-04T10:17:30Z</time>
      </trkpt>
      <trkpt lat="42.61878" lon="-1.2832674">
        <time>2022-07-04T10:17:33Z</time>
      </trkpt>
      <trkpt lat="42.618813" lon="-1.2831947">
        <time>2022-07-04T10:17:36Z</time>
      </trkpt>
      <trkpt lat="42.618847" lon="-1.28313">
        <time>2022-07-04T10:17:39Z</time>
      </trkpt>
      <trkpt lat="42.618877" lon="-1.283064">
        <time>2022-07-04T10:17:42Z</time>
      </trkpt>
      <trkpt lat="42.618908" lon="-1.283009">
        <time>2022-07-04T10:17:45Z</time>
      </trkpt>
      <trkpt lat="42.61888" lon="-1.28304">
        <time>2022-07-04T10:19:32Z</time>
      </trkpt>
      <trkpt lat="42.61882" lon="-1.2831366">
        <time>2022-07-04T10:19:35Z</time>
      </trkpt>
      <trkpt lat="42.61877" lon="-1.283227">
        <time>2022-07-04T10:19:37Z</time>
      </trkpt>
      <trkpt lat="42.618717" lon="-1.2833303">
        <time>2022-07-04T10:19:39Z</time>
      </trkpt>
      <trkpt lat="42.618664" lon="-1.2834456">
        <time>2022-07-04T10:19:41Z</time>
      </trkpt>
      <trkpt lat="42.61861" lon="-1.2835703">
        <time>2022-07-04T10:19:43Z</time>
      </trkpt>
      <trkpt lat="42.618553" lon="-1.2837063">
        <time>2022-07-04T10:19:44Z</time>
      </trkpt>
      <trkpt lat="42.618523" lon="-1.283777">
        <time>2022-07-04T10:19:45Z</time>
      </trkpt>
      <trkpt lat="42.618492" lon="-1.2838479">
        <time>2022-07-04T10:19:46Z</time>
      </trkpt>
      <trkpt lat="42.618465" lon="-1.2839186">
        <time>2022-07-04T10:19:47Z</time>
      </trkpt>
      <trkpt lat="42.618435" lon="-1.283993">
        <time>2022-07-04T10:19:48Z</time>
      </trkpt>
      <trkpt lat="42.61841" lon="-1.2840602">
        <time>2022-07-04T10:19:49Z</time>
      </trkpt>
      <trkpt lat="42.61838" lon="-1.2841287">
        <time>2022-07-04T10:19:50Z</time>
      </trkpt>
      <trkpt lat="42.61836" lon="-1.2841957">
        <time>2022-07-04T10:19:51Z</time>
      </trkpt>
      <trkpt lat="42.618336" lon="-1.2842666">
        <time>2022-07-04T10:19:52Z</time>
      </trkpt>
      <trkpt lat="42.618313" lon="-1.2843297">
        <time>2022-07-04T10:19:53Z</time>
      </trkpt>
      <trkpt lat="42.618294" lon="-1.28439">
        <time>2022-07-04T10:19:54Z</time>
      </trkpt>
      <trkpt lat="42.61825" lon="-1.2845066">
        <time>2022-07-04T10:19:56Z</time>
      </trkpt>
      <trkpt lat="42.618187" lon="-1.284676">
        <time>2022-07-04T10:19:59Z</time>
      </trkpt>
      <trkpt lat="42.618168" lon="-1.2847342">
        <time>2022-07-04T10:20:00Z</time>
      </trkpt>
      <trkpt lat="42.61813" lon="-1.2848549">
        <time>2022-07-04T10:20:02Z</time>
      </trkpt>
      <trkpt lat="42.618114" lon="-1.284915">
        <time>2022-07-04T10:20:03Z</time>
      </trkpt>
      <trkpt lat="42.61808" lon="-1.2850345">
        <time>2022-07-04T10:20:05Z</time>
      </trkpt>
      <trkpt lat="42.618046" lon="-1.2851499">
        <time>2022-07-04T10:20:07Z</time>
      </trkpt>
      <trkpt lat="42.61801" lon="-1.2852613">
        <time>2022-07-04T10:20:09Z</time>
      </trkpt>
      <trkpt lat="42.617977" lon="-1.2853686">
        <time>2022-07-04T10:20:11Z</time>
      </trkpt>
      <trkpt lat="42.617947" lon="-1.2854782">
        <time>2022-07-04T10:20:13Z</time>
      </trkpt>
      <trkpt lat="42.617916" lon="-1.2855883">
        <time>2022-07-04T10:20:15Z</time>
      </trkpt>
      <trkpt lat="42.61789" lon="-1.2856972">
        <time>2022-07-04T10:20:17Z</time>
      </trkpt>
      <trkpt lat="42.61786" lon="-1.2858069">
        <time>2022-07-04T10:20:19Z</time>
      </trkpt>
      <trkpt lat="42.617832" lon="-1.2859156">
        <time>2022-07-04T10:20:21Z</time>
      </trkpt>
      <trkpt lat="42.617805" lon="-1.2860239">
        <time>2022-07-04T10:20:23Z</time>
      </trkpt>
      <trkpt lat="42.61778" lon="-1.2861359">
        <time>2022-07-04T10:20:25Z</time>
      </trkpt>
      <trkpt lat="42.617752" lon="-1.2862452">
        <time>2022-07-04T10:20:27Z</time>
      </trkpt>
      <trkpt lat="42.617725" lon="-1.2863559">
        <time>2022-07-04T10:20:29Z</time>
      </trkpt>
      <trkpt lat="42.617702" lon="-1.2864659">
        <time>2022-07-04T10:20:31Z</time>
      </trkpt>
      <trkpt lat="42.617676" lon="-1.2865785">
        <time>2022-07-04T10:20:33Z</time>
      </trkpt>
      <trkpt lat="42.617657" lon="-1.2866925">
        <time>2022-07-04T10:20:35Z</time>
      </trkpt>
      <trkpt lat="42.617634" lon="-1.2868083">
        <time>2022-07-04T10:20:37Z</time>
      </trkpt>
      <trkpt lat="42.617615" lon="-1.2869259">
        <time>2022-07-04T10:20:39Z</time>
      </trkpt>
      <trkpt lat="42.617596" lon="-1.2870466">
        <time>2022-07-04T10:20:41Z</time>
      </trkpt>
      <trkpt lat="42.617573" lon="-1.2871681">
        <time>2022-07-04T10:20:43Z</time>
      </trkpt>
      <trkpt lat="42.61756" lon="-1.2872295">
        <time>2022-07-04T10:20:44Z</time>
      </trkpt>
      <trkpt lat="42.617542" lon="-1.2873526">
        <time>2022-07-04T10:20:46Z</time>
      </trkpt>
      <trkpt lat="42.617527" lon="-1.2874742">
        <time>2022-07-04T10:20:48Z</time>
      </trkpt>
      <trkpt lat="42.61751" lon="-1.2875922">
        <time>2022-07-04T10:20:50Z</time>
      </trkpt>
      <trkpt lat="42.6175" lon="-1.2877108">
        <time>2022-07-04T10:20:52Z</time>
      </trkpt>
      <trkpt lat="42.617493" lon="-1.2878312">
        <time>2022-07-04T10:20:54Z</time>
      </trkpt>
      <trkpt lat="42.617477" lon="-1.2879522">
        <time>2022-07-04T10:20:56Z</time>
      </trkpt>
      <trkpt lat="42.617466" lon="-1.2880725">
        <time>2022-07-04T10:20:58Z</time>
      </trkpt>
      <trkpt lat="42.617455" lon="-1.2881948">
        <time>2022-07-04T10:21:00Z</time>
      </trkpt>
      <trkpt lat="42.617416" lon="-1.2883698">
        <time>2022-07-04T10:21:03Z</time>
      </trkpt>
      <trkpt lat="42.617363" lon="-1.2884585">
        <time>2022-07-04T10:21:05Z</time>
      </trkpt>
      <trkpt lat="42.617287" lon="-1.2885104">
        <time>2022-07-04T10:21:07Z</time>
      </trkpt>
      <trkpt lat="42.61719" lon="-1.2885292">
        <time>2022-07-04T10:21:09Z</time>
      </trkpt>
      <trkpt lat="42.61714" lon="-1.2885271">
        <time>2022-07-04T10:21:10Z</time>
      </trkpt>
      <trkpt lat="42.617035" lon="-1.2885015">
        <time>2022-07-04T10:21:12Z</time>
      </trkpt>
      <trkpt lat="42.616978" lon="-1.2884774">
        <time>2022-07-04T10:21:13Z</time>
      </trkpt>
      <trkpt lat="42.616924" lon="-1.2884421">
        <time>2022-07-04T10:21:14Z</time>
      </trkpt>
      <trkpt lat="42.616875" lon="-1.2883955">
        <time>2022-07-04T10:21:15Z</time>
      </trkpt>
      <trkpt lat="42.616833" lon="-1.2883445">
        <time>2022-07-04T10:21:16Z</time>
      </trkpt>
      <trkpt lat="42.6168" lon="-1.2882845">
        <time>2022-07-04T10:21:17Z</time>
      </trkpt>
      <trkpt lat="42.616776" lon="-1.2882159">
        <time>2022-07-04T10:21:18Z</time>
      </trkpt>
      <trkpt lat="42.61676" lon="-1.2881478">
        <time>2022-07-04T10:21:19Z</time>
      </trkpt>
      <trkpt lat="42.616756" lon="-1.2880858">
        <time>2022-07-04T10:21:20Z</time>
      </trkpt>
      <trkpt lat="42.61676" lon="-1.2879575">
        <time>2022-07-04T10:21:22Z</time>
      </trkpt>
      <trkpt lat="42.616776" lon="-1.2878282">
        <time>2022-07-04T10:21:24Z</time>
      </trkpt>
      <trkpt lat="42.6168" lon="-1.2877011">
        <time>2022-07-04T10:21:26Z</time>
      </trkpt>
      <trkpt lat="42.616814" lon="-1.2876385">
        <time>2022-07-04T10:21:27Z</time>
      </trkpt>
      <trkpt lat="42.61684" lon="-1.2875165">
        <time>2022-07-04T10:21:29Z</time>
      </trkpt>
      <trkpt lat="42.616856" lon="-1.2874539">
        <time>2022-07-04T10:21:30Z</time>
      </trkpt>
      <trkpt lat="42.616882" lon="-1.2873435">
        <time>2022-07-04T10:21:32Z</time>
      </trkpt>
      <trkpt lat="42.61691" lon="-1.2872335">
        <time>2022-07-04T10:21:34Z</time>
      </trkpt>
      <trkpt lat="42.616932" lon="-1.2871336">
        <time>2022-07-04T10:21:36Z</time>
      </trkpt>
      <trkpt lat="42.616955" lon="-1.2870392">
        <time>2022-07-04T10:21:38Z</time>
      </trkpt>
      <trkpt lat="42.616974" lon="-1.2869492">
        <time>2022-07-04T10:21:40Z</time>
      </trkpt>
      <trkpt lat="42.616997" lon="-1.2868636">
        <time>2022-07-04T10:21:42Z</time>
      </trkpt>
      <trkpt lat="42.61702" lon="-1.2867799">
        <time>2022-07-04T10:21:44Z</time>
      </trkpt>
      <trkpt lat="42.61704" lon="-1.2866942">
        <time>2022-07-04T10:21:46Z</time>
      </trkpt>
      <trkpt lat="42.617058" lon="-1.2866089">
        <time>2022-07-04T10:21:48Z</time>
      </trkpt>
      <trkpt lat="42.61708" lon="-1.2865252">
        <time>2022-07-04T10:21:50Z</time>
      </trkpt>
      <trkpt lat="42.6171" lon="-1.2864419">
        <time>2022-07-04T10:21:52Z</time>
      </trkpt>
      <trkpt lat="42.617123" lon="-1.2863586">
        <time>2022-07-04T10:21:54Z</time>
      </trkpt>
      <trkpt lat="42.61714" lon="-1.2862729">
        <time>2022-07-04T10:21:56Z</time>
      </trkpt>
      <trkpt lat="42.61716" lon="-1.2861845">
        <time>2022-07-04T10:21:58Z</time>
      </trkpt>
      <trkpt lat="42.617188" lon="-1.2860945">
        <time>2022-07-04T10:22:00Z</time>
      </trkpt>
      <trkpt lat="42.61721" lon="-1.2859993">
        <time>2022-07-04T10:22:02Z</time>
      </trkpt>
      <trkpt lat="42.617233" lon="-1.2858993">
        <time>2022-07-04T10:22:04Z</time>
      </trkpt>
      <trkpt lat="42.61726" lon="-1.2857969">
        <time>2022-07-04T10:22:06Z</time>
      </trkpt>
      <trkpt lat="42.617283" lon="-1.2856929">
        <time>2022-07-04T10:22:08Z</time>
      </trkpt>
      <trkpt lat="42.61731" lon="-1.2855896">
        <time>2022-07-04T10:22:10Z</time>
      </trkpt>
      <trkpt lat="42.61734" lon="-1.2854853">
        <time>2022-07-04T10:22:12Z</time>
      </trkpt>
      <trkpt lat="42.617367" lon="-1.2853802">
        <time>2022-07-04T10:22:14Z</time>
      </trkpt>
      <trkpt lat="42.617393" lon="-1.2852772">
        <time>2022-07-04T10:22:16Z</time>
      </trkpt>
      <trkpt lat="42.617424" lon="-1.2851689">
        <time>2022-07-04T10:22:18Z</time>
      </trkpt>
      <trkpt lat="42.61746" lon="-1.2850649">
        <time>2022-07-04T10:22:20Z</time>
      </trkpt>
      <trkpt lat="42.617493" lon="-1.2849599">
        <time>2022-07-04T10:22:22Z</time>
      </trkpt>
      <trkpt lat="42.617523" lon="-1.2848499">
        <time>2022-07-04T10:22:24Z</time>
      </trkpt>
      <trkpt lat="42.617558" lon="-1.2847372">
        <time>2022-07-04T10:22:26Z</time>
      </trkpt>
      <trkpt lat="42.61759" lon="-1.2846266">
        <time>2022-07-04T10:22:28Z</time>
      </trkpt>
      <trkpt lat="42.617626" lon="-1.2845143">
        <time>2022-07-04T10:22:30Z</time>
      </trkpt>
      <trkpt lat="42.61766" lon="-1.2844017">
        <time>2022-07-04T10:22:32Z</time>
      </trkpt>
      <trkpt lat="42.6177" lon="-1.2842873">
        <time>2022-07-04T10:22:34Z</time>
      </trkpt>
      <trkpt lat="42.617718" lon="-1.2842306">
        <time>2022-07-04T10:22:35Z</time>
      </trkpt>
      <trkpt lat="42.617756" lon="-1.2841209">
        <time>2022-07-04T10:22:37Z</time>
      </trkpt>
      <trkpt lat="42.617798" lon="-1.2840136">
        <time>2022-07-04T10:22:39Z</time>
      </trkpt>
      <trkpt lat="42.61784" lon="-1.2839047">
        <time>2022-07-04T10:22:41Z</time>
      </trkpt>
      <trkpt lat="42.61788" lon="-1.2837956">
        <time>2022-07-04T10:22:43Z</time>
      </trkpt>
      <trkpt lat="42.617924" lon="-1.2836883">
        <time>2022-07-04T10:22:45Z</time>
      </trkpt>
      <trkpt lat="42.617966" lon="-1.283582">
        <time>2022-07-04T10:22:47Z</time>
      </trkpt>
      <trkpt lat="42.617996" lon="-1.2834716">
        <time>2022-07-04T10:22:49Z</time>
      </trkpt>
      <trkpt lat="42.618015" lon="-1.2833523">
        <time>2022-07-04T10:22:51Z</time>
      </trkpt>
      <trkpt lat="42.618015" lon="-1.283227">
        <time>2022-07-04T10:22:53Z</time>
      </trkpt>
      <trkpt lat="42.61801" lon="-1.283163">
        <time>2022-07-04T10:22:54Z</time>
      </trkpt>
      <trkpt lat="42.617996" lon="-1.2830377">
        <time>2022-07-04T10:22:56Z</time>
      </trkpt>
      <trkpt lat="42.61797" lon="-1.2828866">
        <time>2022-07-04T10:22:59Z</time>
      </trkpt>
      <trkpt lat="42.617958" lon="-1.2828163">
        <time>2022-07-04T10:23:00Z</time>
      </trkpt>
      <trkpt lat="42.617943" lon="-1.2827504">
        <time>2022-07-04T10:23:01Z</time>
      </trkpt>
      <trkpt lat="42.617935" lon="-1.282687">
        <time>2022-07-04T10:23:02Z</time>
      </trkpt>
      <trkpt lat="42.617912" lon="-1.282566">
        <time>2022-07-04T10:23:04Z</time>
      </trkpt>
      <trkpt lat="42.61789" lon="-1.2824466">
        <time>2022-07-04T10:23:06Z</time>
      </trkpt>
      <trkpt lat="42.617867" lon="-1.2823256">
        <time>2022-07-04T10:23:08Z</time>
      </trkpt>
      <trkpt lat="42.617844" lon="-1.2822007">
        <time>2022-07-04T10:23:10Z</time>
      </trkpt>
      <trkpt lat="42.617817" lon="-1.282076">
        <time>2022-07-04T10:23:12Z</time>
      </trkpt>
      <trkpt lat="42.617805" lon="-1.282013">
        <time>2022-07-04T10:23:13Z</time>
      </trkpt>
      <trkpt lat="42.617783" lon="-1.281888">
        <time>2022-07-04T10:23:15Z</time>
      </trkpt>
      <trkpt lat="42.617767" lon="-1.2818214">
        <time>2022-07-04T10:23:16Z</time>
      </trkpt>
      <trkpt lat="42.61775" lon="-1.281685">
        <time>2022-07-04T10:23:18Z</time>
      </trkpt>
      <trkpt lat="42.617737" lon="-1.2816167">
        <time>2022-07-04T10:23:19Z</time>
      </trkpt>
      <trkpt lat="42.61771" lon="-1.2814773">
        <time>2022-07-04T10:23:21Z</time>
      </trkpt>
      <trkpt lat="42.617695" lon="-1.2814066">
        <time>2022-07-04T10:23:22Z</time>
      </trkpt>
      <trkpt lat="42.617683" lon="-1.2813357">
        <time>2022-07-04T10:23:23Z</time>
      </trkpt>
      <trkpt lat="42.61767" lon="-1.281265">
        <time>2022-07-04T10:23:24Z</time>
      </trkpt>
      <trkpt lat="42.617653" lon="-1.2811934">
        <time>2022-07-04T10:23:25Z</time>
      </trkpt>
      <trkpt lat="42.617638" lon="-1.2811207">
        <time>2022-07-04T10:23:26Z</time>
      </trkpt>
      <trkpt lat="42.617626" lon="-1.2810473">
        <time>2022-07-04T10:23:27Z</time>
      </trkpt>
      <trkpt lat="42.61761" lon="-1.2809751">
        <time>2022-07-04T10:23:28Z</time>
      </trkpt>
      <trkpt lat="42.6176" lon="-1.2809024">
        <time>2022-07-04T10:23:29Z</time>
      </trkpt>
      <trkpt lat="42.617584" lon="-1.2808311">
        <time>2022-07-04T10:23:30Z</time>
      </trkpt>
      <trkpt lat="42.617573" lon="-1.2807621">
        <time>2022-07-04T10:23:31Z</time>
      </trkpt>
      <trkpt lat="42.617558" lon="-1.2806927">
        <time>2022-07-04T10:23:32Z</time>
      </trkpt>
      <trkpt lat="42.617546" lon="-1.2806247">
        <time>2022-07-04T10:23:33Z</time>
      </trkpt>
      <trkpt lat="42.61753" lon="-1.280557">
        <time>2022-07-04T10:23:34Z</time>
      </trkpt>
      <trkpt lat="42.617508" lon="-1.280423">
        <time>2022-07-04T10:23:36Z</time>
      </trkpt>
      <trkpt lat="42.617496" lon="-1.280356">
        <time>2022-07-04T10:23:37Z</time>
      </trkpt>
      <trkpt lat="42.617474" lon="-1.2802265">
        <time>2022-07-04T10:23:39Z</time>
      </trkpt>
      <trkpt lat="42.617447" lon="-1.2801024">
        <time>2022-07-04T10:23:41Z</time>
      </trkpt>
      <trkpt lat="42.617435" lon="-1.2800461">
        <time>2022-07-04T10:23:42Z</time>
      </trkpt>
      <trkpt lat="42.61741" lon="-1.2799231">
        <time>2022-07-04T10:23:44Z</time>
      </trkpt>
      <trkpt lat="42.617382" lon="-1.2798067">
        <time>2022-07-04T10:23:46Z</time>
      </trkpt>
      <trkpt lat="42.617355" lon="-1.2796948">
        <time>2022-07-04T10:23:48Z</time>
      </trkpt>
      <trkpt lat="42.617336" lon="-1.2795848">
        <time>2022-07-04T10:23:50Z</time>
      </trkpt>
      <trkpt lat="42.617317" lon="-1.2794781">
        <time>2022-07-04T10:23:52Z</time>
      </trkpt>
      <trkpt lat="42.617302" lon="-1.2793758">
        <time>2022-07-04T10:23:54Z</time>
      </trkpt>
      <trkpt lat="42.617287" lon="-1.2792795">
        <time>2022-07-04T10:23:56Z</time>
      </trkpt>
      <trkpt lat="42.617268" lon="-1.2791867">
        <time>2022-07-04T10:23:58Z</time>
      </trkpt>
      <trkpt lat="42.61725" lon="-1.2790852">
        <time>2022-07-04T10:24:00Z</time>
      </trkpt>
      <trkpt lat="42.61723" lon="-1.2789901">
        <time>2022-07-04T10:24:02Z</time>
      </trkpt>
      <trkpt lat="42.61721" lon="-1.2788888">
        <time>2022-07-04T10:24:04Z</time>
      </trkpt>
      <trkpt lat="42.617195" lon="-1.2787877">
        <time>2022-07-04T10:24:06Z</time>
      </trkpt>
      <trkpt lat="42.617176" lon="-1.2786884">
        <time>2022-07-04T10:24:08Z</time>
      </trkpt>
      <trkpt lat="42.61716" lon="-1.2785898">
        <time>2022-07-04T10:24:10Z</time>
      </trkpt>
      <trkpt lat="42.617138" lon="-1.2784938">
        <time>2022-07-04T10:24:12Z</time>
      </trkpt>
      <trkpt lat="42.61711" lon="-1.2783481">
        <time>2022-07-04T10:24:15Z</time>
      </trkpt>
      <trkpt lat="42.617092" lon="-1.2782528">
        <time>2022-07-04T10:24:17Z</time>
      </trkpt>
      <trkpt lat="42.617077" lon="-1.2781575">
        <time>2022-07-04T10:24:19Z</time>
      </trkpt>
      <trkpt lat="42.617054" lon="-1.2780628">
        <time>2022-07-04T10:24:21Z</time>
      </trkpt>
      <trkpt lat="42.617035" lon="-1.2779691">
        <time>2022-07-04T10:24:23Z</time>
      </trkpt>
      <trkpt lat="42.617016" lon="-1.2778752">
        <time>2022-07-04T10:24:25Z</time>
      </trkpt>
      <trkpt lat="42.616997" lon="-1.2777795">
        <time>2022-07-04T10:24:27Z</time>
      </trkpt>
      <trkpt lat="42.616978" lon="-1.2776852">
        <time>2022-07-04T10:24:29Z</time>
      </trkpt>
      <trkpt lat="42.616962" lon="-1.2775918">
        <time>2022-07-04T10:24:31Z</time>
      </trkpt>
      <trkpt lat="42.616943" lon="-1.2775044">
        <time>2022-07-04T10:24:33Z</time>
      </trkpt>
      <trkpt lat="42.616924" lon="-1.2774211">
        <time>2022-07-04T10:24:35Z</time>
      </trkpt>
      <trkpt lat="42.61691" lon="-1.2773381">
        <time>2022-07-04T10:24:37Z</time>
      </trkpt>
      <trkpt lat="42.616894" lon="-1.2772535">
        <time>2022-07-04T10:24:39Z</time>
      </trkpt>
      <trkpt lat="42.616882" lon="-1.2771659">
        <time>2022-07-04T10:24:41Z</time>
      </trkpt>
      <trkpt lat="42.61687" lon="-1.2770768">
        <time>2022-07-04T10:24:43Z</time>
      </trkpt>
      <trkpt lat="42.616863" lon="-1.2769896">
        <time>2022-07-04T10:24:45Z</time>
      </trkpt>
      <trkpt lat="42.616875" lon="-1.2769082">
        <time>2022-07-04T10:24:47Z</time>
      </trkpt>
      <trkpt lat="42.616898" lon="-1.2768425">
        <time>2022-07-04T10:24:49Z</time>
      </trkpt>
      <trkpt lat="42.61693" lon="-1.2767909">
        <time>2022-07-04T10:24:51Z</time>
      </trkpt>
      <trkpt lat="42.61696" lon="-1.2767282">
        <time>2022-07-04T10:24:54Z</time>
      </trkpt>
      <trkpt lat="42.61698" lon="-1.2766635">
        <time>2022-07-04T10:24:57Z</time>
      </trkpt>
      <trkpt lat="42.616985" lon="-1.2765743">
        <time>2022-07-04T10:25:00Z</time>
      </trkpt>
      <trkpt lat="42.61697" lon="-1.2764969">
        <time>2022-07-04T10:25:02Z</time>
      </trkpt>
      <trkpt lat="42.616932" lon="-1.2764143">
        <time>2022-07-04T10:25:04Z</time>
      </trkpt>
      <trkpt lat="42.616886" lon="-1.2763228">
        <time>2022-07-04T10:25:06Z</time>
      </trkpt>
      <trkpt lat="42.61682" lon="-1.2762213">
        <time>2022-07-04T10:25:08Z</time>
      </trkpt>
      <trkpt lat="42.616787" lon="-1.2761686">
        <time>2022-07-04T10:25:09Z</time>
      </trkpt>
      <trkpt lat="42.616726" lon="-1.2760632">
        <time>2022-07-04T10:25:11Z</time>
      </trkpt>
      <trkpt lat="42.61668" lon="-1.2759513">
        <time>2022-07-04T10:25:13Z</time>
      </trkpt>
      <trkpt lat="42.616653" lon="-1.2758563">
        <time>2022-07-04T10:25:15Z</time>
      </trkpt>
      <trkpt lat="42.616646" lon="-1.2757932">
        <time>2022-07-04T10:25:17Z</time>
      </trkpt>
      <trkpt lat="42.616596" lon="-1.2757986">
        <time>2022-07-04T10:33:09Z</time>
      </trkpt>
      <trkpt lat="42.616547" lon="-1.2758219">
        <time>2022-07-04T10:33:12Z</time>
      </trkpt>
      <trkpt lat="42.616493" lon="-1.2758433">
        <time>2022-07-04T10:33:15Z</time>
      </trkpt>
      <trkpt lat="42.616432" lon="-1.2758895">
        <time>2022-07-04T10:33:18Z</time>
      </trkpt>
      <trkpt lat="42.616383" lon="-1.2759326">
        <time>2022-07-04T10:33:20Z</time>
      </trkpt>
      <trkpt lat="42.616325" lon="-1.2759823">
        <time>2022-07-04T10:33:22Z</time>
      </trkpt>
      <trkpt lat="42.61627" lon="-1.2760372">
        <time>2022-07-04T10:33:24Z</time>
      </trkpt>
      <trkpt lat="42.616203" lon="-1.2760975">
        <time>2022-07-04T10:33:26Z</time>
      </trkpt>
      <trkpt lat="42.616142" lon="-1.2761612">
        <time>2022-07-04T10:33:28Z</time>
      </trkpt>
      <trkpt lat="42.616074" lon="-1.2762226">
        <time>2022-07-04T10:33:30Z</time>
      </trkpt>
      <trkpt lat="42.61601" lon="-1.2762849">
        <time>2022-07-04T10:33:32Z</time>
      </trkpt>
      <trkpt lat="42.615944" lon="-1.2763486">
        <time>2022-07-04T10:33:34Z</time>
      </trkpt>
      <trkpt lat="42.61588" lon="-1.2764115">
        <time>2022-07-04T10:33:36Z</time>
      </trkpt>
      <trkpt lat="42.615814" lon="-1.2764746">
        <time>2022-07-04T10:33:38Z</time>
      </trkpt>
      <trkpt lat="42.61575" lon="-1.2765355">
        <time>2022-07-04T10:33:40Z</time>
      </trkpt>
      <trkpt lat="42.61568" lon="-1.2765929">
        <time>2022-07-04T10:33:42Z</time>
      </trkpt>
      <trkpt lat="42.61561" lon="-1.2766426">
        <time>2022-07-04T10:33:44Z</time>
      </trkpt>
      <trkpt lat="42.615536" lon="-1.2766799">
        <time>2022-07-04T10:33:46Z</time>
      </trkpt>
      <trkpt lat="42.61546" lon="-1.2767105">
        <time>2022-07-04T10:33:48Z</time>
      </trkpt>
      <trkpt lat="42.615383" lon="-1.2767365">
        <time>2022-07-04T10:33:50Z</time>
      </trkpt>
      <trkpt lat="42.615314" lon="-1.2767582">
        <time>2022-07-04T10:33:52Z</time>
      </trkpt>
      <trkpt lat="42.61525" lon="-1.2767749">
        <time>2022-07-04T10:33:54Z</time>
      </trkpt>
      <trkpt lat="42.61521" lon="-1.2767875">
        <time>2022-07-04T10:33:56Z</time>
      </trkpt>
      <trkpt lat="42.615086" lon="-1.2768195">
        <time>2022-07-04T10:34:42Z</time>
      </trkpt>
      <trkpt lat="42.61501" lon="-1.2768404">
        <time>2022-07-04T10:34:45Z</time>
      </trkpt>
      <trkpt lat="42.614944" lon="-1.2768551">
        <time>2022-07-04T10:34:47Z</time>
      </trkpt>
      <trkpt lat="42.61488" lon="-1.2768731">
        <time>2022-07-04T10:34:49Z</time>
      </trkpt>
      <trkpt lat="42.614815" lon="-1.2768995">
        <time>2022-07-04T10:34:51Z</time>
      </trkpt>
      <trkpt lat="42.614754" lon="-1.2769355">
        <time>2022-07-04T10:34:53Z</time>
      </trkpt>
      <trkpt lat="42.614693" lon="-1.2769841">
        <time>2022-07-04T10:34:55Z</time>
      </trkpt>
      <trkpt lat="42.61463" lon="-1.2770464">
        <time>2022-07-04T10:34:57Z</time>
      </trkpt>
      <trkpt lat="42.614582" lon="-1.2771121">
        <time>2022-07-04T10:34:59Z</time>
      </trkpt>
      <trkpt lat="42.61454" lon="-1.2771802">
        <time>2022-07-04T10:35:01Z</time>
      </trkpt>
      <trkpt lat="42.614494" lon="-1.2772511">
        <time>2022-07-04T10:35:03Z</time>
      </trkpt>
      <trkpt lat="42.614452" lon="-1.2773201">
        <time>2022-07-04T10:35:05Z</time>
      </trkpt>
      <trkpt lat="42.61441" lon="-1.2773871">
        <time>2022-07-04T10:35:07Z</time>
      </trkpt>
      <trkpt lat="42.614372" lon="-1.2774538">
        <time>2022-07-04T10:35:09Z</time>
      </trkpt>
      <trkpt lat="42.614326" lon="-1.2775221">
        <time>2022-07-04T10:35:11Z</time>
      </trkpt>
      <trkpt lat="42.61428" lon="-1.2775861">
        <time>2022-07-04T10:35:13Z</time>
      </trkpt>
      <trkpt lat="42.614235" lon="-1.2776434">
        <time>2022-07-04T10:35:15Z</time>
      </trkpt>
      <trkpt lat="42.614185" lon="-1.2776865">
        <time>2022-07-04T10:35:17Z</time>
      </trkpt>
      <trkpt lat="42.614105" lon="-1.2777271">
        <time>2022-07-04T10:35:20Z</time>
      </trkpt>
      <trkpt lat="42.614048" lon="-1.2777557">
        <time>2022-07-04T10:35:22Z</time>
      </trkpt>
      <trkpt lat="42.61399" lon="-1.2777858">
        <time>2022-07-04T10:35:24Z</time>
      </trkpt>
      <trkpt lat="42.613937" lon="-1.2778147">
        <time>2022-07-04T10:35:26Z</time>
      </trkpt>
      <trkpt lat="42.613876" lon="-1.2778372">
        <time>2022-07-04T10:35:28Z</time>
      </trkpt>
      <trkpt lat="42.613815" lon="-1.2778531">
        <time>2022-07-04T10:35:30Z</time>
      </trkpt>
      <trkpt lat="42.613754" lon="-1.2778661">
        <time>2022-07-04T10:35:32Z</time>
      </trkpt>
      <trkpt lat="42.61369" lon="-1.2778767">
        <time>2022-07-04T10:35:34Z</time>
      </trkpt>
      <trkpt lat="42.61362" lon="-1.2778881">
        <time>2022-07-04T10:35:36Z</time>
      </trkpt>
      <trkpt lat="42.613556" lon="-1.2778997">
        <time>2022-07-04T10:35:38Z</time>
      </trkpt>
      <trkpt lat="42.61349" lon="-1.2779107">
        <time>2022-07-04T10:35:40Z</time>
      </trkpt>
      <trkpt lat="42.613426" lon="-1.2779268">
        <time>2022-07-04T10:35:42Z</time>
      </trkpt>
      <trkpt lat="42.613365" lon="-1.2779471">
        <time>2022-07-04T10:35:44Z</time>
      </trkpt>
      <trkpt lat="42.613304" lon="-1.277968">
        <time>2022-07-04T10:35:46Z</time>
      </trkpt>
      <trkpt lat="42.613247" lon="-1.2779855">
        <time>2022-07-04T10:35:48Z</time>
      </trkpt>
      <trkpt lat="42.613194" lon="-1.2779914">
        <time>2022-07-04T10:35:50Z</time>
      </trkpt>
      <trkpt lat="42.61314" lon="-1.2779834">
        <time>2022-07-04T10:35:52Z</time>
      </trkpt>
      <trkpt lat="42.613087" lon="-1.2779675">
        <time>2022-07-04T10:35:54Z</time>
      </trkpt>
      <trkpt lat="42.613033" lon="-1.2779474">
        <time>2022-07-04T10:35:56Z</time>
      </trkpt>
      <trkpt lat="42.612976" lon="-1.2779368">
        <time>2022-07-04T10:35:58Z</time>
      </trkpt>
      <trkpt lat="42.61291" lon="-1.2779434">
        <time>2022-07-04T10:36:00Z</time>
      </trkpt>
      <trkpt lat="42.612843" lon="-1.2779528">
        <time>2022-07-04T10:36:02Z</time>
      </trkpt>
      <trkpt lat="42.612762" lon="-1.2779444">
        <time>2022-07-04T10:36:04Z</time>
      </trkpt>
      <trkpt lat="42.612682" lon="-1.2779174">
        <time>2022-07-04T10:36:06Z</time>
      </trkpt>
      <trkpt lat="42.612587" lon="-1.2778767">
        <time>2022-07-04T10:36:08Z</time>
      </trkpt>
      <trkpt lat="42.612537" lon="-1.2778537">
        <time>2022-07-04T10:36:09Z</time>
      </trkpt>
      <trkpt lat="42.612488" lon="-1.277829">
        <time>2022-07-04T10:36:10Z</time>
      </trkpt>
      <trkpt lat="42.61244" lon="-1.2778038">
        <time>2022-07-04T10:36:11Z</time>
      </trkpt>
      <trkpt lat="42.612385" lon="-1.2777754">
        <time>2022-07-04T10:36:12Z</time>
      </trkpt>
      <trkpt lat="42.61233" lon="-1.2777474">
        <time>2022-07-04T10:36:13Z</time>
      </trkpt>
      <trkpt lat="42.612278" lon="-1.2777212">
        <time>2022-07-04T10:36:14Z</time>
      </trkpt>
      <trkpt lat="42.612225" lon="-1.2776934">
        <time>2022-07-04T10:36:15Z</time>
      </trkpt>
      <trkpt lat="42.612167" lon="-1.2776661">
        <time>2022-07-04T10:36:16Z</time>
      </trkpt>
      <trkpt lat="42.612106" lon="-1.2776375">
        <time>2022-07-04T10:36:17Z</time>
      </trkpt>
      <trkpt lat="42.61204" lon="-1.2776102">
        <time>2022-07-04T10:36:18Z</time>
      </trkpt>
      <trkpt lat="42.61198" lon="-1.2775844">
        <time>2022-07-04T10:36:19Z</time>
      </trkpt>
      <trkpt lat="42.611923" lon="-1.2775621">
        <time>2022-07-04T10:36:20Z</time>
      </trkpt>
      <trkpt lat="42.611862" lon="-1.2775425">
        <time>2022-07-04T10:36:21Z</time>
      </trkpt>
      <trkpt lat="42.6118" lon="-1.2775254">
        <time>2022-07-04T10:36:22Z</time>
      </trkpt>
      <trkpt lat="42.611736" lon="-1.2775105">
        <time>2022-07-04T10:36:23Z</time>
      </trkpt>
      <trkpt lat="42.611675" lon="-1.2774992">
        <time>2022-07-04T10:36:24Z</time>
      </trkpt>
      <trkpt lat="42.61155" lon="-1.2774879">
        <time>2022-07-04T10:36:26Z</time>
      </trkpt>
      <trkpt lat="42.611485" lon="-1.2774892">
        <time>2022-07-04T10:36:27Z</time>
      </trkpt>
      <trkpt lat="42.611423" lon="-1.2774931">
        <time>2022-07-04T10:36:28Z</time>
      </trkpt>
      <trkpt lat="42.611362" lon="-1.2775002">
        <time>2022-07-04T10:36:29Z</time>
      </trkpt>
      <trkpt lat="42.6113" lon="-1.2775089">
        <time>2022-07-04T10:36:30Z</time>
      </trkpt>
      <trkpt lat="42.61124" lon="-1.2775191">
        <time>2022-07-04T10:36:31Z</time>
      </trkpt>
      <trkpt lat="42.61118" lon="-1.2775311">
        <time>2022-07-04T10:36:32Z</time>
      </trkpt>
      <trkpt lat="42.611115" lon="-1.2775421">
        <time>2022-07-04T10:36:33Z</time>
      </trkpt>
      <trkpt lat="42.611053" lon="-1.2775534">
        <time>2022-07-04T10:36:34Z</time>
      </trkpt>
      <trkpt lat="42.61099" lon="-1.2775651">
        <time>2022-07-04T10:36:35Z</time>
      </trkpt>
      <trkpt lat="42.610924" lon="-1.2775772">
        <time>2022-07-04T10:36:36Z</time>
      </trkpt>
      <trkpt lat="42.610863" lon="-1.2775898">
        <time>2022-07-04T10:36:37Z</time>
      </trkpt>
      <trkpt lat="42.610798" lon="-1.2776024">
        <time>2022-07-04T10:36:38Z</time>
      </trkpt>
      <trkpt lat="42.610737" lon="-1.2776158">
        <time>2022-07-04T10:36:39Z</time>
      </trkpt>
      <trkpt lat="42.610672" lon="-1.2776304">
        <time>2022-07-04T10:36:40Z</time>
      </trkpt>
      <trkpt lat="42.61061" lon="-1.2776451">
        <time>2022-07-04T10:36:41Z</time>
      </trkpt>
      <trkpt lat="42.61055" lon="-1.2776601">
        <time>2022-07-04T10:36:42Z</time>
      </trkpt>
      <trkpt lat="42.61049" lon="-1.2776748">
        <time>2022-07-04T10:36:43Z</time>
      </trkpt>
      <trkpt lat="42.610428" lon="-1.2776891">
        <time>2022-07-04T10:36:44Z</time>
      </trkpt>
      <trkpt lat="42.610363" lon="-1.2777045">
        <time>2022-07-04T10:36:45Z</time>
      </trkpt>
      <trkpt lat="42.6103" lon="-1.2777177">
        <time>2022-07-04T10:36:46Z</time>
      </trkpt>
      <trkpt lat="42.610233" lon="-1.2777305">
        <time>2022-07-04T10:36:47Z</time>
      </trkpt>
      <trkpt lat="42.610172" lon="-1.2777435">
        <time>2022-07-04T10:36:48Z</time>
      </trkpt>
      <trkpt lat="42.61011" lon="-1.2777578">
        <time>2022-07-04T10:36:49Z</time>
      </trkpt>
      <trkpt lat="42.61005" lon="-1.2777724">
        <time>2022-07-04T10:36:50Z</time>
      </trkpt>
      <trkpt lat="42.60999" lon="-1.2777867">
        <time>2022-07-04T10:36:51Z</time>
      </trkpt>
      <trkpt lat="42.60993" lon="-1.2778018">
        <time>2022-07-04T10:36:52Z</time>
      </trkpt>
      <trkpt lat="42.609867" lon="-1.2778164">
        <time>2022-07-04T10:36:53Z</time>
      </trkpt>
      <trkpt lat="42.609806" lon="-1.2778314">
        <time>2022-07-04T10:36:54Z</time>
      </trkpt>
      <trkpt lat="42.609745" lon="-1.2778447">
        <time>2022-07-04T10:36:55Z</time>
      </trkpt>
      <trkpt lat="42.609688" lon="-1.2778567">
        <time>2022-07-04T10:36:56Z</time>
      </trkpt>
      <trkpt lat="42.609627" lon="-1.2778704">
        <time>2022-07-04T10:36:57Z</time>
      </trkpt>
      <trkpt lat="42.609566" lon="-1.2778847">
        <time>2022-07-04T10:36:58Z</time>
      </trkpt>
      <trkpt lat="42.60951" lon="-1.2778981">
        <time>2022-07-04T10:36:59Z</time>
      </trkpt>
      <trkpt lat="42.609447" lon="-1.2779131">
        <time>2022-07-04T10:37:00Z</time>
      </trkpt>
      <trkpt lat="42.609386" lon="-1.2779263">
        <time>2022-07-04T10:37:01Z</time>
      </trkpt>
      <trkpt lat="42.609325" lon="-1.2779397">
        <time>2022-07-04T10:37:02Z</time>
      </trkpt>
      <trkpt lat="42.609264" lon="-1.2779517">
        <time>2022-07-04T10:37:03Z</time>
      </trkpt>
      <trkpt lat="42.609203" lon="-1.2779651">
        <time>2022-07-04T10:37:04Z</time>
      </trkpt>
      <trkpt lat="42.609142" lon="-1.2779787">
        <time>2022-07-04T10:37:05Z</time>
      </trkpt>
      <trkpt lat="42.609085" lon="-1.2779933">
        <time>2022-07-04T10:37:06Z</time>
      </trkpt>
      <trkpt lat="42.609028" lon="-1.278007">
        <time>2022-07-04T10:37:07Z</time>
      </trkpt>
      <trkpt lat="42.608967" lon="-1.2780213">
        <time>2022-07-04T10:37:08Z</time>
      </trkpt>
      <trkpt lat="42.608906" lon="-1.2780334">
        <time>2022-07-04T10:37:09Z</time>
      </trkpt>
      <trkpt lat="42.608845" lon="-1.278044">
        <time>2022-07-04T10:37:10Z</time>
      </trkpt>
      <trkpt lat="42.608784" lon="-1.2780547">
        <time>2022-07-04T10:37:11Z</time>
      </trkpt>
      <trkpt lat="42.608727" lon="-1.2780663">
        <time>2022-07-04T10:37:12Z</time>
      </trkpt>
      <trkpt lat="42.60867" lon="-1.2780774">
        <time>2022-07-04T10:37:13Z</time>
      </trkpt>
      <trkpt lat="42.608612" lon="-1.2780896">
        <time>2022-07-04T10:37:14Z</time>
      </trkpt>
      <trkpt lat="42.608555" lon="-1.2781019">
        <time>2022-07-04T10:37:15Z</time>
      </trkpt>
      <trkpt lat="42.608498" lon="-1.2781143">
        <time>2022-07-04T10:37:16Z</time>
      </trkpt>
      <trkpt lat="42.608444" lon="-1.2781264">
        <time>2022-07-04T10:37:17Z</time>
      </trkpt>
      <trkpt lat="42.608387" lon="-1.2781383">
        <time>2022-07-04T10:37:18Z</time>
      </trkpt>
      <trkpt lat="42.60833" lon="-1.2781503">
        <time>2022-07-04T10:37:19Z</time>
      </trkpt>
      <trkpt lat="42.608273" lon="-1.2781633">
        <time>2022-07-04T10:37:20Z</time>
      </trkpt>
      <trkpt lat="42.60822" lon="-1.2781767">
        <time>2022-07-04T10:37:21Z</time>
      </trkpt>
      <trkpt lat="42.608162" lon="-1.2781897">
        <time>2022-07-04T10:37:22Z</time>
      </trkpt>
      <trkpt lat="42.60811" lon="-1.2782023">
        <time>2022-07-04T10:37:23Z</time>
      </trkpt>
      <trkpt lat="42.60805" lon="-1.278216">
        <time>2022-07-04T10:37:24Z</time>
      </trkpt>
      <trkpt lat="42.607998" lon="-1.2782286">
        <time>2022-07-04T10:37:25Z</time>
      </trkpt>
      <trkpt lat="42.60795" lon="-1.2782416">
        <time>2022-07-04T10:37:26Z</time>
      </trkpt>
      <trkpt lat="42.607895" lon="-1.278255">
        <time>2022-07-04T10:37:27Z</time>
      </trkpt>
      <trkpt lat="42.607838" lon="-1.2782686">
        <time>2022-07-04T10:37:28Z</time>
      </trkpt>
      <trkpt lat="42.607784" lon="-1.2782826">
        <time>2022-07-04T10:37:29Z</time>
      </trkpt>
      <trkpt lat="42.607674" lon="-1.2783116">
        <time>2022-07-04T10:37:31Z</time>
      </trkpt>
      <trkpt lat="42.60762" lon="-1.278325">
        <time>2022-07-04T10:37:32Z</time>
      </trkpt>
      <trkpt lat="42.607563" lon="-1.2783376">
        <time>2022-07-04T10:37:33Z</time>
      </trkpt>
      <trkpt lat="42.60751" lon="-1.2783493">
        <time>2022-07-04T10:37:34Z</time>
      </trkpt>
      <trkpt lat="42.607456" lon="-1.278361">
        <time>2022-07-04T10:37:35Z</time>
      </trkpt>
      <trkpt lat="42.607403" lon="-1.2783706">
        <time>2022-07-04T10:37:36Z</time>
      </trkpt>
      <trkpt lat="42.607353" lon="-1.2783803">
        <time>2022-07-04T10:37:37Z</time>
      </trkpt>
      <trkpt lat="42.6073" lon="-1.2783889">
        <time>2022-07-04T10:37:38Z</time>
      </trkpt>
      <trkpt lat="42.607243" lon="-1.2783976">
        <time>2022-07-04T10:37:39Z</time>
      </trkpt>
      <trkpt lat="42.607185" lon="-1.2784039">
        <time>2022-07-04T10:37:40Z</time>
      </trkpt>
      <trkpt lat="42.607132" lon="-1.2784079">
        <time>2022-07-04T10:37:41Z</time>
      </trkpt>
      <trkpt lat="42.60708" lon="-1.2784098">
        <time>2022-07-04T10:37:42Z</time>
      </trkpt>
      <trkpt lat="42.60697" lon="-1.2784063">
        <time>2022-07-04T10:37:44Z</time>
      </trkpt>
      <trkpt lat="42.606915" lon="-1.2784022">
        <time>2022-07-04T10:37:45Z</time>
      </trkpt>
      <trkpt lat="42.60686" lon="-1.2783983">
        <time>2022-07-04T10:37:46Z</time>
      </trkpt>
      <trkpt lat="42.606808" lon="-1.2783942">
        <time>2022-07-04T10:37:47Z</time>
      </trkpt>
      <trkpt lat="42.606754" lon="-1.2783909">
        <time>2022-07-04T10:37:48Z</time>
      </trkpt>
      <trkpt lat="42.60665" lon="-1.2783829">
        <time>2022-07-04T10:37:50Z</time>
      </trkpt>
      <trkpt lat="42.606598" lon="-1.2783792">
        <time>2022-07-04T10:37:51Z</time>
      </trkpt>
      <trkpt lat="42.606552" lon="-1.2783756">
        <time>2022-07-04T10:37:52Z</time>
      </trkpt>
      <trkpt lat="42.60645" lon="-1.2783662">
        <time>2022-07-04T10:37:54Z</time>
      </trkpt>
      <trkpt lat="42.606354" lon="-1.2783526">
        <time>2022-07-04T10:37:56Z</time>
      </trkpt>
      <trkpt lat="42.60626" lon="-1.2783422">
        <time>2022-07-04T10:37:58Z</time>
      </trkpt>
      <trkpt lat="42.60621" lon="-1.2783366">
        <time>2022-07-04T10:37:59Z</time>
      </trkpt>
      <trkpt lat="42.606113" lon="-1.2783259">
        <time>2022-07-04T10:38:01Z</time>
      </trkpt>
      <trkpt lat="42.606026" lon="-1.2783133">
        <time>2022-07-04T10:38:03Z</time>
      </trkpt>
      <trkpt lat="42.605938" lon="-1.2782993">
        <time>2022-07-04T10:38:05Z</time>
      </trkpt>
      <trkpt lat="42.605854" lon="-1.2782847">
        <time>2022-07-04T10:38:07Z</time>
      </trkpt>
      <trkpt lat="42.605774" lon="-1.2782676">
        <time>2022-07-04T10:38:09Z</time>
      </trkpt>
      <trkpt lat="42.605694" lon="-1.2782496">
        <time>2022-07-04T10:38:11Z</time>
      </trkpt>
      <trkpt lat="42.605614" lon="-1.2782303">
        <time>2022-07-04T10:38:13Z</time>
      </trkpt>
      <trkpt lat="42.605534" lon="-1.2782097">
        <time>2022-07-04T10:38:15Z</time>
      </trkpt>
      <trkpt lat="42.605453" lon="-1.2781897">
        <time>2022-07-04T10:38:17Z</time>
      </trkpt>
      <trkpt lat="42.605377" lon="-1.2781676">
        <time>2022-07-04T10:38:19Z</time>
      </trkpt>
      <trkpt lat="42.605297" lon="-1.2781436">
        <time>2022-07-04T10:38:21Z</time>
      </trkpt>
      <trkpt lat="42.60522" lon="-1.2781183">
        <time>2022-07-04T10:38:23Z</time>
      </trkpt>
      <trkpt lat="42.60515" lon="-1.2780943">
        <time>2022-07-04T10:38:25Z</time>
      </trkpt>
      <trkpt lat="42.60507" lon="-1.2780626">
        <time>2022-07-04T10:38:27Z</time>
      </trkpt>
      <trkpt lat="42.604992" lon="-1.2780234">
        <time>2022-07-04T10:38:29Z</time>
      </trkpt>
      <trkpt lat="42.60491" lon="-1.2779793">
        <time>2022-07-04T10:38:31Z</time>
      </trkpt>
      <trkpt lat="42.604836" lon="-1.2779356">
        <time>2022-07-04T10:38:33Z</time>
      </trkpt>
      <trkpt lat="42.60475" lon="-1.27789">
        <time>2022-07-04T10:38:35Z</time>
      </trkpt>
      <trkpt lat="42.604675" lon="-1.277846">
        <time>2022-07-04T10:38:37Z</time>
      </trkpt>
      <trkpt lat="42.604595" lon="-1.2778044">
        <time>2022-07-04T10:38:39Z</time>
      </trkpt>
      <trkpt lat="42.60451" lon="-1.27776">
        <time>2022-07-04T10:38:41Z</time>
      </trkpt>
      <trkpt lat="42.60443" lon="-1.2777166">
        <time>2022-07-04T10:38:43Z</time>
      </trkpt>
      <trkpt lat="42.60435" lon="-1.2776717">
        <time>2022-07-04T10:38:45Z</time>
      </trkpt>
      <trkpt lat="42.604267" lon="-1.2776253">
        <time>2022-07-04T10:38:47Z</time>
      </trkpt>
      <trkpt lat="42.604187" lon="-1.2775793">
        <time>2022-07-04T10:38:49Z</time>
      </trkpt>
      <trkpt lat="42.6041" lon="-1.277529">
        <time>2022-07-04T10:38:51Z</time>
      </trkpt>
      <trkpt lat="42.604015" lon="-1.27748">
        <time>2022-07-04T10:38:53Z</time>
      </trkpt>
      <trkpt lat="42.60393" lon="-1.2774303">
        <time>2022-07-04T10:38:55Z</time>
      </trkpt>
      <trkpt lat="42.603844" lon="-1.2773774">
        <time>2022-07-04T10:38:57Z</time>
      </trkpt>
      <trkpt lat="42.603756" lon="-1.2773254">
        <time>2022-07-04T10:38:59Z</time>
      </trkpt>
      <trkpt lat="42.603664" lon="-1.2772697">
        <time>2022-07-04T10:39:01Z</time>
      </trkpt>
      <trkpt lat="42.603615" lon="-1.2772421">
        <time>2022-07-04T10:39:02Z</time>
      </trkpt>
      <trkpt lat="42.60357" lon="-1.2772146">
        <time>2022-07-04T10:39:03Z</time>
      </trkpt>
      <trkpt lat="42.60347" lon="-1.2771584">
        <time>2022-07-04T10:39:05Z</time>
      </trkpt>
      <trkpt lat="42.60342" lon="-1.2771283">
        <time>2022-07-04T10:39:06Z</time>
      </trkpt>
      <trkpt lat="42.603367" lon="-1.2770973">
        <time>2022-07-04T10:39:07Z</time>
      </trkpt>
      <trkpt lat="42.603313" lon="-1.277066">
        <time>2022-07-04T10:39:08Z</time>
      </trkpt>
      <trkpt lat="42.60326" lon="-1.2770364">
        <time>2022-07-04T10:39:09Z</time>
      </trkpt>
      <trkpt lat="42.603207" lon="-1.2770054">
        <time>2022-07-04T10:39:10Z</time>
      </trkpt>
      <trkpt lat="42.603153" lon="-1.2769754">
        <time>2022-07-04T10:39:11Z</time>
      </trkpt>
      <trkpt lat="42.6031" lon="-1.276945">
        <time>2022-07-04T10:39:12Z</time>
      </trkpt>
      <trkpt lat="42.603046" lon="-1.2769151">
        <time>2022-07-04T10:39:13Z</time>
      </trkpt>
      <trkpt lat="42.602997" lon="-1.2768867">
        <time>2022-07-04T10:39:14Z</time>
      </trkpt>
      <trkpt lat="42.60294" lon="-1.2768544">
        <time>2022-07-04T10:39:15Z</time>
      </trkpt>
      <trkpt lat="42.602886" lon="-1.2768224">
        <time>2022-07-04T10:39:16Z</time>
      </trkpt>
      <trkpt lat="42.60283" lon="-1.27679">
        <time>2022-07-04T10:39:17Z</time>
      </trkpt>
      <trkpt lat="42.60277" lon="-1.2767568">
        <time>2022-07-04T10:39:18Z</time>
      </trkpt>
      <trkpt lat="42.60272" lon="-1.2767234">
        <time>2022-07-04T10:39:19Z</time>
      </trkpt>
      <trkpt lat="42.60266" lon="-1.2766901">
        <time>2022-07-04T10:39:20Z</time>
      </trkpt>
      <trkpt lat="42.602604" lon="-1.2766567">
        <time>2022-07-04T10:39:21Z</time>
      </trkpt>
      <trkpt lat="42.60255" lon="-1.2766234">
        <time>2022-07-04T10:39:22Z</time>
      </trkpt>
      <trkpt lat="42.602493" lon="-1.2765898">
        <time>2022-07-04T10:39:23Z</time>
      </trkpt>
      <trkpt lat="42.602436" lon="-1.2765547">
        <time>2022-07-04T10:39:24Z</time>
      </trkpt>
      <trkpt lat="42.602375" lon="-1.2765201">
        <time>2022-07-04T10:39:25Z</time>
      </trkpt>
      <trkpt lat="42.602318" lon="-1.2764845">
        <time>2022-07-04T10:39:26Z</time>
      </trkpt>
      <trkpt lat="42.60226" lon="-1.2764481">
        <time>2022-07-04T10:39:27Z</time>
      </trkpt>
      <trkpt lat="42.6022" lon="-1.2764121">
        <time>2022-07-04T10:39:28Z</time>
      </trkpt>
      <trkpt lat="42.60214" lon="-1.2763767">
        <time>2022-07-04T10:39:29Z</time>
      </trkpt>
      <trkpt lat="42.602077" lon="-1.2763401">
        <time>2022-07-04T10:39:30Z</time>
      </trkpt>
      <trkpt lat="42.602013" lon="-1.2763047">
        <time>2022-07-04T10:39:31Z</time>
      </trkpt>
      <trkpt lat="42.601948" lon="-1.2762694">
        <time>2022-07-04T10:39:32Z</time>
      </trkpt>
      <trkpt lat="42.601883" lon="-1.2762351">
        <time>2022-07-04T10:39:33Z</time>
      </trkpt>
      <trkpt lat="42.601818" lon="-1.2762024">
        <time>2022-07-04T10:39:34Z</time>
      </trkpt>
      <trkpt lat="42.60175" lon="-1.2761701">
        <time>2022-07-04T10:39:35Z</time>
      </trkpt>
      <trkpt lat="42.60168" lon="-1.2761395">
        <time>2022-07-04T10:39:36Z</time>
      </trkpt>
      <trkpt lat="42.601612" lon="-1.2761108">
        <time>2022-07-04T10:39:37Z</time>
      </trkpt>
      <trkpt lat="42.60154" lon="-1.2760844">
        <time>2022-07-04T10:39:38Z</time>
      </trkpt>
      <trkpt lat="42.60147" lon="-1.2760595">
        <time>2022-07-04T10:39:39Z</time>
      </trkpt>
      <trkpt lat="42.60133" lon="-1.2760174">
        <time>2022-07-04T10:39:41Z</time>
      </trkpt>
      <trkpt lat="42.60126" lon="-1.2759998">
        <time>2022-07-04T10:39:42Z</time>
      </trkpt>
      <trkpt lat="42.601196" lon="-1.2759858">
        <time>2022-07-04T10:39:43Z</time>
      </trkpt>
      <trkpt lat="42.601124" lon="-1.2759732">
        <time>2022-07-04T10:39:44Z</time>
      </trkpt>
      <trkpt lat="42.601055" lon="-1.2759635">
        <time>2022-07-04T10:39:45Z</time>
      </trkpt>
      <trkpt lat="42.600986" lon="-1.2759569">
        <time>2022-07-04T10:39:46Z</time>
      </trkpt>
      <trkpt lat="42.600918" lon="-1.2759522">
        <time>2022-07-04T10:39:47Z</time>
      </trkpt>
      <trkpt lat="42.600853" lon="-1.2759489">
        <time>2022-07-04T10:39:48Z</time>
      </trkpt>
      <trkpt lat="42.600792" lon="-1.2759476">
        <time>2022-07-04T10:39:49Z</time>
      </trkpt>
      <trkpt lat="42.600727" lon="-1.2759478">
        <time>2022-07-04T10:39:50Z</time>
      </trkpt>
      <trkpt lat="42.600662" lon="-1.2759482">
        <time>2022-07-04T10:39:51Z</time>
      </trkpt>
      <trkpt lat="42.600605" lon="-1.2759485">
        <time>2022-07-04T10:39:52Z</time>
      </trkpt>
      <trkpt lat="42.600544" lon="-1.2759495">
        <time>2022-07-04T10:39:53Z</time>
      </trkpt>
      <trkpt lat="42.600487" lon="-1.2759525">
        <time>2022-07-04T10:39:54Z</time>
      </trkpt>
      <trkpt lat="42.60043" lon="-1.2759572">
        <time>2022-07-04T10:39:55Z</time>
      </trkpt>
      <trkpt lat="42.600376" lon="-1.2759632">
        <time>2022-07-04T10:39:56Z</time>
      </trkpt>
      <trkpt lat="42.600315" lon="-1.2759732">
        <time>2022-07-04T10:39:57Z</time>
      </trkpt>
      <trkpt lat="42.60026" lon="-1.2759892">
        <time>2022-07-04T10:39:58Z</time>
      </trkpt>
      <trkpt lat="42.60021" lon="-1.2760072">
        <time>2022-07-04T10:39:59Z</time>
      </trkpt>
      <trkpt lat="42.600155" lon="-1.2760272">
        <time>2022-07-04T10:40:00Z</time>
      </trkpt>
      <trkpt lat="42.600105" lon="-1.2760485">
        <time>2022-07-04T10:40:01Z</time>
      </trkpt>
      <trkpt lat="42.60006" lon="-1.2760708">
        <time>2022-07-04T10:40:02Z</time>
      </trkpt>
      <trkpt lat="42.59997" lon="-1.2761185">
        <time>2022-07-04T10:40:04Z</time>
      </trkpt>
      <trkpt lat="42.59988" lon="-1.2761695">
        <time>2022-07-04T10:40:06Z</time>
      </trkpt>
      <trkpt lat="42.59984" lon="-1.2761961">
        <time>2022-07-04T10:40:07Z</time>
      </trkpt>
      <trkpt lat="42.599754" lon="-1.2762462">
        <time>2022-07-04T10:40:09Z</time>
      </trkpt>
      <trkpt lat="42.59967" lon="-1.2762985">
        <time>2022-07-04T10:40:11Z</time>
      </trkpt>
      <trkpt lat="42.59963" lon="-1.2763242">
        <time>2022-07-04T10:40:12Z</time>
      </trkpt>
      <trkpt lat="42.59955" lon="-1.2763737">
        <time>2022-07-04T10:40:14Z</time>
      </trkpt>
      <trkpt lat="42.59947" lon="-1.2764261">
        <time>2022-07-04T10:40:16Z</time>
      </trkpt>
      <trkpt lat="42.599392" lon="-1.2764775">
        <time>2022-07-04T10:40:18Z</time>
      </trkpt>
      <trkpt lat="42.599316" lon="-1.2765301">
        <time>2022-07-04T10:40:20Z</time>
      </trkpt>
      <trkpt lat="42.599236" lon="-1.2765818">
        <time>2022-07-04T10:40:22Z</time>
      </trkpt>
      <trkpt lat="42.59915" lon="-1.2766308">
        <time>2022-07-04T10:40:24Z</time>
      </trkpt>
      <trkpt lat="42.59907" lon="-1.2766805">
        <time>2022-07-04T10:40:26Z</time>
      </trkpt>
      <trkpt lat="42.598988" lon="-1.2767334">
        <time>2022-07-04T10:40:28Z</time>
      </trkpt>
      <trkpt lat="42.5989" lon="-1.2767874">
        <time>2022-07-04T10:40:30Z</time>
      </trkpt>
      <trkpt lat="42.598812" lon="-1.2768425">
        <time>2022-07-04T10:40:32Z</time>
      </trkpt>
      <trkpt lat="42.59877" lon="-1.2768698">
        <time>2022-07-04T10:40:33Z</time>
      </trkpt>
      <trkpt lat="42.598682" lon="-1.2769254">
        <time>2022-07-04T10:40:35Z</time>
      </trkpt>
      <trkpt lat="42.598637" lon="-1.2769544">
        <time>2022-07-04T10:40:36Z</time>
      </trkpt>
      <trkpt lat="42.59855" lon="-1.2770121">
        <time>2022-07-04T10:40:38Z</time>
      </trkpt>
      <trkpt lat="42.598457" lon="-1.2770681">
        <time>2022-07-04T10:40:40Z</time>
      </trkpt>
      <trkpt lat="42.598362" lon="-1.2771231">
        <time>2022-07-04T10:40:42Z</time>
      </trkpt>
      <trkpt lat="42.598316" lon="-1.2771517">
        <time>2022-07-04T10:40:43Z</time>
      </trkpt>
      <trkpt lat="42.598183" lon="-1.2772381">
        <time>2022-07-04T10:40:46Z</time>
      </trkpt>
      <trkpt lat="42.598137" lon="-1.277266">
        <time>2022-07-04T10:40:47Z</time>
      </trkpt>
      <trkpt lat="42.598087" lon="-1.2772948">
        <time>2022-07-04T10:40:48Z</time>
      </trkpt>
      <trkpt lat="42.59799" lon="-1.2773547">
        <time>2022-07-04T10:40:50Z</time>
      </trkpt>
      <trkpt lat="42.597942" lon="-1.2773854">
        <time>2022-07-04T10:40:51Z</time>
      </trkpt>
      <trkpt lat="42.597893" lon="-1.2774154">
        <time>2022-07-04T10:40:52Z</time>
      </trkpt>
      <trkpt lat="42.597843" lon="-1.277446">
        <time>2022-07-04T10:40:53Z</time>
      </trkpt>
      <trkpt lat="42.597794" lon="-1.2774774">
        <time>2022-07-04T10:40:54Z</time>
      </trkpt>
      <trkpt lat="42.597748" lon="-1.2775077">
        <time>2022-07-04T10:40:55Z</time>
      </trkpt>
      <trkpt lat="42.597702" lon="-1.2775377">
        <time>2022-07-04T10:40:56Z</time>
      </trkpt>
      <trkpt lat="42.597656" lon="-1.2775681">
        <time>2022-07-04T10:40:57Z</time>
      </trkpt>
      <trkpt lat="42.597565" lon="-1.2776318">
        <time>2022-07-04T10:40:59Z</time>
      </trkpt>
      <trkpt lat="42.597523" lon="-1.2776663">
        <time>2022-07-04T10:41:00Z</time>
      </trkpt>
      <trkpt lat="42.597446" lon="-1.2777404">
        <time>2022-07-04T10:41:02Z</time>
      </trkpt>
      <trkpt lat="42.597412" lon="-1.2777823">
        <time>2022-07-04T10:41:03Z</time>
      </trkpt>
      <trkpt lat="42.59735" lon="-1.2778757">
        <time>2022-07-04T10:41:05Z</time>
      </trkpt>
      <trkpt lat="42.597298" lon="-1.2779737">
        <time>2022-07-04T10:41:07Z</time>
      </trkpt>
      <trkpt lat="42.597237" lon="-1.2780623">
        <time>2022-07-04T10:41:09Z</time>
      </trkpt>
      <trkpt lat="42.597164" lon="-1.2781273">
        <time>2022-07-04T10:41:11Z</time>
      </trkpt>
      <trkpt lat="42.597076" lon="-1.2781531">
        <time>2022-07-04T10:41:13Z</time>
      </trkpt>
      <trkpt lat="42.59703" lon="-1.2781527">
        <time>2022-07-04T10:41:14Z</time>
      </trkpt>
      <trkpt lat="42.596928" lon="-1.278144">
        <time>2022-07-04T10:41:16Z</time>
      </trkpt>
      <trkpt lat="42.59687" lon="-1.2781487">
        <time>2022-07-04T10:41:17Z</time>
      </trkpt>
      <trkpt lat="42.59682" lon="-1.27816">
        <time>2022-07-04T10:41:18Z</time>
      </trkpt>
      <trkpt lat="42.596767" lon="-1.2781787">
        <time>2022-07-04T10:41:19Z</time>
      </trkpt>
      <trkpt lat="42.596714" lon="-1.278202">
        <time>2022-07-04T10:41:20Z</time>
      </trkpt>
      <trkpt lat="42.596664" lon="-1.27823">
        <time>2022-07-04T10:41:21Z</time>
      </trkpt>
      <trkpt lat="42.59661" lon="-1.27826">
        <time>2022-07-04T10:41:22Z</time>
      </trkpt>
      <trkpt lat="42.596558" lon="-1.2782917">
        <time>2022-07-04T10:41:23Z</time>
      </trkpt>
      <trkpt lat="42.596504" lon="-1.2783237">
        <time>2022-07-04T10:41:24Z</time>
      </trkpt>
      <trkpt lat="42.59645" lon="-1.2783563">
        <time>2022-07-04T10:41:25Z</time>
      </trkpt>
      <trkpt lat="42.596397" lon="-1.2783893">
        <time>2022-07-04T10:41:26Z</time>
      </trkpt>
      <trkpt lat="42.596348" lon="-1.2784224">
        <time>2022-07-04T10:41:27Z</time>
      </trkpt>
      <trkpt lat="42.596294" lon="-1.278456">
        <time>2022-07-04T10:41:28Z</time>
      </trkpt>
      <trkpt lat="42.59624" lon="-1.2784903">
        <time>2022-07-04T10:41:29Z</time>
      </trkpt>
      <trkpt lat="42.596188" lon="-1.2785237">
        <time>2022-07-04T10:41:30Z</time>
      </trkpt>
      <trkpt lat="42.596134" lon="-1.278557">
        <time>2022-07-04T10:41:31Z</time>
      </trkpt>
      <trkpt lat="42.59608" lon="-1.2785903">
        <time>2022-07-04T10:41:32Z</time>
      </trkpt>
      <trkpt lat="42.59603" lon="-1.2786239">
        <time>2022-07-04T10:41:33Z</time>
      </trkpt>
      <trkpt lat="42.595978" lon="-1.2786577">
        <time>2022-07-04T10:41:34Z</time>
      </trkpt>
      <trkpt lat="42.595924" lon="-1.2786906">
        <time>2022-07-04T10:41:35Z</time>
      </trkpt>
      <trkpt lat="42.595875" lon="-1.2787243">
        <time>2022-07-04T10:41:36Z</time>
      </trkpt>
      <trkpt lat="42.595825" lon="-1.278759">
        <time>2022-07-04T10:41:37Z</time>
      </trkpt>
      <trkpt lat="42.595776" lon="-1.2787939">
        <time>2022-07-04T10:41:38Z</time>
      </trkpt>
      <trkpt lat="42.595722" lon="-1.2788299">
        <time>2022-07-04T10:41:39Z</time>
      </trkpt>
      <trkpt lat="42.59567" lon="-1.278865">
        <time>2022-07-04T10:41:40Z</time>
      </trkpt>
      <trkpt lat="42.595615" lon="-1.2788993">
        <time>2022-07-04T10:41:41Z</time>
      </trkpt>
      <trkpt lat="42.595566" lon="-1.2789346">
        <time>2022-07-04T10:41:42Z</time>
      </trkpt>
      <trkpt lat="42.595512" lon="-1.2789693">
        <time>2022-07-04T10:41:43Z</time>
      </trkpt>
      <trkpt lat="42.595463" lon="-1.2790012">
        <time>2022-07-04T10:41:44Z</time>
      </trkpt>
      <trkpt lat="42.59541" lon="-1.2790359">
        <time>2022-07-04T10:41:45Z</time>
      </trkpt>
      <trkpt lat="42.595356" lon="-1.2790673">
        <time>2022-07-04T10:41:46Z</time>
      </trkpt>
      <trkpt lat="42.5953" lon="-1.2791016">
        <time>2022-07-04T10:41:47Z</time>
      </trkpt>
      <trkpt lat="42.59525" lon="-1.2791332">
        <time>2022-07-04T10:41:48Z</time>
      </trkpt>
      <trkpt lat="42.595192" lon="-1.2791662">
        <time>2022-07-04T10:41:49Z</time>
      </trkpt>
      <trkpt lat="42.595135" lon="-1.2792009">
        <time>2022-07-04T10:41:50Z</time>
      </trkpt>
      <trkpt lat="42.595078" lon="-1.279236">
        <time>2022-07-04T10:41:51Z</time>
      </trkpt>
      <trkpt lat="42.59497" lon="-1.2793006">
        <time>2022-07-04T10:41:53Z</time>
      </trkpt>
      <trkpt lat="42.59486" lon="-1.2793692">
        <time>2022-07-04T10:41:55Z</time>
      </trkpt>
      <trkpt lat="42.594803" lon="-1.2794045">
        <time>2022-07-04T10:41:56Z</time>
      </trkpt>
      <trkpt lat="42.594746" lon="-1.2794392">
        <time>2022-07-04T10:41:57Z</time>
      </trkpt>
      <trkpt lat="42.594692" lon="-1.2794713">
        <time>2022-07-04T10:41:58Z</time>
      </trkpt>
      <trkpt lat="42.59464" lon="-1.2795042">
        <time>2022-07-04T10:41:59Z</time>
      </trkpt>
      <trkpt lat="42.59459" lon="-1.2795379">
        <time>2022-07-04T10:42:00Z</time>
      </trkpt>
      <trkpt lat="42.594532" lon="-1.2795725">
        <time>2022-07-04T10:42:01Z</time>
      </trkpt>
      <trkpt lat="42.59448" lon="-1.2796022">
        <time>2022-07-04T10:42:02Z</time>
      </trkpt>
      <trkpt lat="42.594425" lon="-1.2796322">
        <time>2022-07-04T10:42:03Z</time>
      </trkpt>
      <trkpt lat="42.594376" lon="-1.2796625">
        <time>2022-07-04T10:42:04Z</time>
      </trkpt>
      <trkpt lat="42.594326" lon="-1.2796935">
        <time>2022-07-04T10:42:05Z</time>
      </trkpt>
      <trkpt lat="42.594276" lon="-1.2797226">
        <time>2022-07-04T10:42:06Z</time>
      </trkpt>
      <trkpt lat="42.594227" lon="-1.2797512">
        <time>2022-07-04T10:42:07Z</time>
      </trkpt>
      <trkpt lat="42.59418" lon="-1.2797809">
        <time>2022-07-04T10:42:08Z</time>
      </trkpt>
      <trkpt lat="42.594135" lon="-1.2798105">
        <time>2022-07-04T10:42:09Z</time>
      </trkpt>
      <trkpt lat="42.594086" lon="-1.2798399">
        <time>2022-07-04T10:42:10Z</time>
      </trkpt>
      <trkpt lat="42.593994" lon="-1.2798982">
        <time>2022-07-04T10:42:12Z</time>
      </trkpt>
      <trkpt lat="42.59395" lon="-1.2799282">
        <time>2022-07-04T10:42:13Z</time>
      </trkpt>
      <trkpt lat="42.593857" lon="-1.2799925">
        <time>2022-07-04T10:42:15Z</time>
      </trkpt>
      <trkpt lat="42.59381" lon="-1.2800229">
        <time>2022-07-04T10:42:16Z</time>
      </trkpt>
      <trkpt lat="42.59376" lon="-1.2800525">
        <time>2022-07-04T10:42:17Z</time>
      </trkpt>
      <trkpt lat="42.59371" lon="-1.2800835">
        <time>2022-07-04T10:42:18Z</time>
      </trkpt>
      <trkpt lat="42.593616" lon="-1.2801465">
        <time>2022-07-04T10:42:20Z</time>
      </trkpt>
      <trkpt lat="42.593567" lon="-1.2801788">
        <time>2022-07-04T10:42:21Z</time>
      </trkpt>
      <trkpt lat="42.59352" lon="-1.2802109">
        <time>2022-07-04T10:42:22Z</time>
      </trkpt>
      <trkpt lat="42.59347" lon="-1.2802418">
        <time>2022-07-04T10:42:23Z</time>
      </trkpt>
      <trkpt lat="42.593422" lon="-1.2802734">
        <time>2022-07-04T10:42:24Z</time>
      </trkpt>
      <trkpt lat="42.59337" lon="-1.2803044">
        <time>2022-07-04T10:42:25Z</time>
      </trkpt>
      <trkpt lat="42.59332" lon="-1.2803352">
        <time>2022-07-04T10:42:26Z</time>
      </trkpt>
      <trkpt lat="42.593266" lon="-1.2803668">
        <time>2022-07-04T10:42:27Z</time>
      </trkpt>
      <trkpt lat="42.593216" lon="-1.2803991">
        <time>2022-07-04T10:42:28Z</time>
      </trkpt>
      <trkpt lat="42.593163" lon="-1.2804312">
        <time>2022-07-04T10:42:29Z</time>
      </trkpt>
      <trkpt lat="42.59311" lon="-1.2804635">
        <time>2022-07-04T10:42:30Z</time>
      </trkpt>
      <trkpt lat="42.59306" lon="-1.2804961">
        <time>2022-07-04T10:42:31Z</time>
      </trkpt>
      <trkpt lat="42.593006" lon="-1.2805297">
        <time>2022-07-04T10:42:32Z</time>
      </trkpt>
      <trkpt lat="42.592957" lon="-1.2805648">
        <time>2022-07-04T10:42:33Z</time>
      </trkpt>
      <trkpt lat="42.592903" lon="-1.2805998">
        <time>2022-07-04T10:42:34Z</time>
      </trkpt>
      <trkpt lat="42.592854" lon="-1.2806342">
        <time>2022-07-04T10:42:35Z</time>
      </trkpt>
      <trkpt lat="42.5928" lon="-1.2806678">
        <time>2022-07-04T10:42:36Z</time>
      </trkpt>
      <trkpt lat="42.59275" lon="-1.2807014">
        <time>2022-07-04T10:42:37Z</time>
      </trkpt>
      <trkpt lat="42.592697" lon="-1.2807354">
        <time>2022-07-04T10:42:38Z</time>
      </trkpt>
      <trkpt lat="42.592644" lon="-1.2807697">
        <time>2022-07-04T10:42:39Z</time>
      </trkpt>
      <trkpt lat="42.59259" lon="-1.2808031">
        <time>2022-07-04T10:42:40Z</time>
      </trkpt>
      <trkpt lat="42.592537" lon="-1.2808357">
        <time>2022-07-04T10:42:41Z</time>
      </trkpt>
      <trkpt lat="42.592484" lon="-1.2808701">
        <time>2022-07-04T10:42:42Z</time>
      </trkpt>
      <trkpt lat="42.59243" lon="-1.2809035">
        <time>2022-07-04T10:42:43Z</time>
      </trkpt>
      <trkpt lat="42.592377" lon="-1.2809354">
        <time>2022-07-04T10:42:44Z</time>
      </trkpt>
      <trkpt lat="42.592323" lon="-1.2809664">
        <time>2022-07-04T10:42:45Z</time>
      </trkpt>
      <trkpt lat="42.59227" lon="-1.2809961">
        <time>2022-07-04T10:42:46Z</time>
      </trkpt>
      <trkpt lat="42.592216" lon="-1.2810264">
        <time>2022-07-04T10:42:47Z</time>
      </trkpt>
      <trkpt lat="42.59216" lon="-1.2810605">
        <time>2022-07-04T10:42:48Z</time>
      </trkpt>
      <trkpt lat="42.592106" lon="-1.2810915">
        <time>2022-07-04T10:42:49Z</time>
      </trkpt>
      <trkpt lat="42.592052" lon="-1.2811254">
        <time>2022-07-04T10:42:50Z</time>
      </trkpt>
      <trkpt lat="42.592" lon="-1.2811618">
        <time>2022-07-04T10:42:51Z</time>
      </trkpt>
      <trkpt lat="42.591946" lon="-1.2811993">
        <time>2022-07-04T10:42:52Z</time>
      </trkpt>
      <trkpt lat="42.591896" lon="-1.281242">
        <time>2022-07-04T10:42:53Z</time>
      </trkpt>
      <trkpt lat="42.59185" lon="-1.2812884">
        <time>2022-07-04T10:42:54Z</time>
      </trkpt>
      <trkpt lat="42.59181" lon="-1.2813404">
        <time>2022-07-04T10:42:55Z</time>
      </trkpt>
      <trkpt lat="42.591732" lon="-1.2814554">
        <time>2022-07-04T10:42:57Z</time>
      </trkpt>
      <trkpt lat="42.591698" lon="-1.2815137">
        <time>2022-07-04T10:42:58Z</time>
      </trkpt>
      <trkpt lat="42.59166" lon="-1.281568">
        <time>2022-07-04T10:42:59Z</time>
      </trkpt>
      <trkpt lat="42.591614" lon="-1.281615">
        <time>2022-07-04T10:43:00Z</time>
      </trkpt>
      <trkpt lat="42.59157" lon="-1.2816523">
        <time>2022-07-04T10:43:01Z</time>
      </trkpt>
      <trkpt lat="42.591522" lon="-1.2816783">
        <time>2022-07-04T10:43:02Z</time>
      </trkpt>
      <trkpt lat="42.59147" lon="-1.281692">
        <time>2022-07-04T10:43:03Z</time>
      </trkpt>
      <trkpt lat="42.59142" lon="-1.2816967">
        <time>2022-07-04T10:43:04Z</time>
      </trkpt>
      <trkpt lat="42.591366" lon="-1.281697">
        <time>2022-07-04T10:43:05Z</time>
      </trkpt>
      <trkpt lat="42.591316" lon="-1.281696">
        <time>2022-07-04T10:43:06Z</time>
      </trkpt>
      <trkpt lat="42.591213" lon="-1.2817043">
        <time>2022-07-04T10:43:08Z</time>
      </trkpt>
      <trkpt lat="42.591118" lon="-1.2817303">
        <time>2022-07-04T10:43:10Z</time>
      </trkpt>
      <trkpt lat="42.591072" lon="-1.281747">
        <time>2022-07-04T10:43:11Z</time>
      </trkpt>
      <trkpt lat="42.59098" lon="-1.281785">
        <time>2022-07-04T10:43:13Z</time>
      </trkpt>
      <trkpt lat="42.590893" lon="-1.2818294">
        <time>2022-07-04T10:43:15Z</time>
      </trkpt>
      <trkpt lat="42.590805" lon="-1.2818817">
        <time>2022-07-04T10:43:17Z</time>
      </trkpt>
      <trkpt lat="42.59072" lon="-1.2819396">
        <time>2022-07-04T10:43:19Z</time>
      </trkpt>
      <trkpt lat="42.590675" lon="-1.281965">
        <time>2022-07-04T10:43:20Z</time>
      </trkpt>
      <trkpt lat="42.59059" lon="-1.2820166">
        <time>2022-07-04T10:43:22Z</time>
      </trkpt>
      <trkpt lat="42.590546" lon="-1.2820446">
        <time>2022-07-04T10:43:23Z</time>
      </trkpt>
      <trkpt lat="42.590458" lon="-1.282108">
        <time>2022-07-04T10:43:25Z</time>
      </trkpt>
      <trkpt lat="42.590416" lon="-1.282138">
        <time>2022-07-04T10:43:26Z</time>
      </trkpt>
      <trkpt lat="42.59032" lon="-1.2822">
        <time>2022-07-04T10:43:28Z</time>
      </trkpt>
      <trkpt lat="42.59027" lon="-1.282232">
        <time>2022-07-04T10:43:29Z</time>
      </trkpt>
      <trkpt lat="42.590225" lon="-1.2822627">
        <time>2022-07-04T10:43:30Z</time>
      </trkpt>
      <trkpt lat="42.59018" lon="-1.282294">
        <time>2022-07-04T10:43:31Z</time>
      </trkpt>
      <trkpt lat="42.590134" lon="-1.2823253">
        <time>2022-07-04T10:43:32Z</time>
      </trkpt>
      <trkpt lat="42.59003" lon="-1.2823883">
        <time>2022-07-04T10:43:34Z</time>
      </trkpt>
      <trkpt lat="42.589985" lon="-1.2824173">
        <time>2022-07-04T10:43:35Z</time>
      </trkpt>
      <trkpt lat="42.58989" lon="-1.2824793">
        <time>2022-07-04T10:43:37Z</time>
      </trkpt>
      <trkpt lat="42.58984" lon="-1.282514">
        <time>2022-07-04T10:43:38Z</time>
      </trkpt>
      <trkpt lat="42.589787" lon="-1.282548">
        <time>2022-07-04T10:43:39Z</time>
      </trkpt>
      <trkpt lat="42.58974" lon="-1.2825797">
        <time>2022-07-04T10:43:40Z</time>
      </trkpt>
      <trkpt lat="42.589687" lon="-1.2826136">
        <time>2022-07-04T10:43:41Z</time>
      </trkpt>
      <trkpt lat="42.58964" lon="-1.2826446">
        <time>2022-07-04T10:43:42Z</time>
      </trkpt>
      <trkpt lat="42.58959" lon="-1.282679">
        <time>2022-07-04T10:43:43Z</time>
      </trkpt>
      <trkpt lat="42.589535" lon="-1.2827123">
        <time>2022-07-04T10:43:44Z</time>
      </trkpt>
      <trkpt lat="42.589485" lon="-1.282743">
        <time>2022-07-04T10:43:45Z</time>
      </trkpt>
      <trkpt lat="42.589436" lon="-1.2827746">
        <time>2022-07-04T10:43:46Z</time>
      </trkpt>
      <trkpt lat="42.589386" lon="-1.2828066">
        <time>2022-07-04T10:43:47Z</time>
      </trkpt>
      <trkpt lat="42.58933" lon="-1.2828403">
        <time>2022-07-04T10:43:48Z</time>
      </trkpt>
      <trkpt lat="42.589275" lon="-1.282874">
        <time>2022-07-04T10:43:49Z</time>
      </trkpt>
      <trkpt lat="42.589222" lon="-1.2829076">
        <time>2022-07-04T10:43:50Z</time>
      </trkpt>
      <trkpt lat="42.589172" lon="-1.2829396">
        <time>2022-07-04T10:43:51Z</time>
      </trkpt>
      <trkpt lat="42.589123" lon="-1.2829705">
        <time>2022-07-04T10:43:52Z</time>
      </trkpt>
      <trkpt lat="42.58907" lon="-1.2830032">
        <time>2022-07-04T10:43:53Z</time>
      </trkpt>
      <trkpt lat="42.589016" lon="-1.2830366">
        <time>2022-07-04T10:43:54Z</time>
      </trkpt>
      <trkpt lat="42.588963" lon="-1.28307">
        <time>2022-07-04T10:43:55Z</time>
      </trkpt>
      <trkpt lat="42.588917" lon="-1.2831002">
        <time>2022-07-04T10:43:56Z</time>
      </trkpt>
      <trkpt lat="42.588867" lon="-1.2831309">
        <time>2022-07-04T10:43:57Z</time>
      </trkpt>
      <trkpt lat="42.588814" lon="-1.2831626">
        <time>2022-07-04T10:43:58Z</time>
      </trkpt>
      <trkpt lat="42.588764" lon="-1.2831929">
        <time>2022-07-04T10:43:59Z</time>
      </trkpt>
      <trkpt lat="42.58871" lon="-1.2832212">
        <time>2022-07-04T10:44:00Z</time>
      </trkpt>
      <trkpt lat="42.58866" lon="-1.2832476">
        <time>2022-07-04T10:44:01Z</time>
      </trkpt>
      <trkpt lat="42.58856" lon="-1.2832996">
        <time>2022-07-04T10:44:03Z</time>
      </trkpt>
      <trkpt lat="42.58851" lon="-1.2833259">
        <time>2022-07-04T10:44:04Z</time>
      </trkpt>
      <trkpt lat="42.588455" lon="-1.2833512">
        <time>2022-07-04T10:44:05Z</time>
      </trkpt>
      <trkpt lat="42.5884" lon="-1.2833736">
        <time>2022-07-04T10:44:06Z</time>
      </trkpt>
      <trkpt lat="42.58835" lon="-1.2833948">
        <time>2022-07-04T10:44:07Z</time>
      </trkpt>
      <trkpt lat="42.588295" lon="-1.2834162">
        <time>2022-07-04T10:44:08Z</time>
      </trkpt>
      <trkpt lat="42.588238" lon="-1.2834369">
        <time>2022-07-04T10:44:09Z</time>
      </trkpt>
      <trkpt lat="42.588184" lon="-1.2834575">
        <time>2022-07-04T10:44:10Z</time>
      </trkpt>
      <trkpt lat="42.58813" lon="-1.2834779">
        <time>2022-07-04T10:44:11Z</time>
      </trkpt>
      <trkpt lat="42.588078" lon="-1.2834972">
        <time>2022-07-04T10:44:12Z</time>
      </trkpt>
      <trkpt lat="42.58802" lon="-1.2835182">
        <time>2022-07-04T10:44:13Z</time>
      </trkpt>
      <trkpt lat="42.587967" lon="-1.2835388">
        <time>2022-07-04T10:44:14Z</time>
      </trkpt>
      <trkpt lat="42.587914" lon="-1.2835598">
        <time>2022-07-04T10:44:15Z</time>
      </trkpt>
      <trkpt lat="42.587864" lon="-1.2835785">
        <time>2022-07-04T10:44:16Z</time>
      </trkpt>
      <trkpt lat="42.58781" lon="-1.2835991">
        <time>2022-07-04T10:44:17Z</time>
      </trkpt>
      <trkpt lat="42.58776" lon="-1.2836185">
        <time>2022-07-04T10:44:18Z</time>
      </trkpt>
      <trkpt lat="42.58771" lon="-1.2836378">
        <time>2022-07-04T10:44:19Z</time>
      </trkpt>
      <trkpt lat="42.587658" lon="-1.2836581">
        <time>2022-07-04T10:44:20Z</time>
      </trkpt>
      <trkpt lat="42.587612" lon="-1.2836771">
        <time>2022-07-04T10:44:21Z</time>
      </trkpt>
      <trkpt lat="42.58752" lon="-1.2837148">
        <time>2022-07-04T10:44:23Z</time>
      </trkpt>
      <trkpt lat="42.587467" lon="-1.2837352">
        <time>2022-07-04T10:44:24Z</time>
      </trkpt>
      <trkpt lat="42.587418" lon="-1.2837535">
        <time>2022-07-04T10:44:25Z</time>
      </trkpt>
      <trkpt lat="42.58737" lon="-1.2837698">
        <time>2022-07-04T10:44:26Z</time>
      </trkpt>
      <trkpt lat="42.58728" lon="-1.2838018">
        <time>2022-07-04T10:44:28Z</time>
      </trkpt>
      <trkpt lat="42.58719" lon="-1.2838311">
        <time>2022-07-04T10:44:30Z</time>
      </trkpt>
      <trkpt lat="42.587143" lon="-1.2838432">
        <time>2022-07-04T10:44:31Z</time>
      </trkpt>
      <trkpt lat="42.587048" lon="-1.2838684">
        <time>2022-07-04T10:44:33Z</time>
      </trkpt>
      <trkpt lat="42.586998" lon="-1.2838842">
        <time>2022-07-04T10:44:34Z</time>
      </trkpt>
      <trkpt lat="42.586906" lon="-1.2839118">
        <time>2022-07-04T10:44:36Z</time>
      </trkpt>
      <trkpt lat="42.586807" lon="-1.2839438">
        <time>2022-07-04T10:44:38Z</time>
      </trkpt>
      <trkpt lat="42.586758" lon="-1.2839614">
        <time>2022-07-04T10:44:39Z</time>
      </trkpt>
      <trkpt lat="42.586708" lon="-1.2839785">
        <time>2022-07-04T10:44:40Z</time>
      </trkpt>
      <trkpt lat="42.58666" lon="-1.2839941">
        <time>2022-07-04T10:44:41Z</time>
      </trkpt>
      <trkpt lat="42.586555" lon="-1.2840284">
        <time>2022-07-04T10:44:43Z</time>
      </trkpt>
      <trkpt lat="42.586506" lon="-1.2840468">
        <time>2022-07-04T10:44:44Z</time>
      </trkpt>
      <trkpt lat="42.586452" lon="-1.284064">
        <time>2022-07-04T10:44:45Z</time>
      </trkpt>
      <trkpt lat="42.586403" lon="-1.2840801">
        <time>2022-07-04T10:44:46Z</time>
      </trkpt>
      <trkpt lat="42.586296" lon="-1.2841144">
        <time>2022-07-04T10:44:48Z</time>
      </trkpt>
      <trkpt lat="42.586243" lon="-1.2841324">
        <time>2022-07-04T10:44:49Z</time>
      </trkpt>
      <trkpt lat="42.586185" lon="-1.2841511">
        <time>2022-07-04T10:44:50Z</time>
      </trkpt>
      <trkpt lat="42.586136" lon="-1.2841687">
        <time>2022-07-04T10:44:51Z</time>
      </trkpt>
      <trkpt lat="42.586082" lon="-1.2841864">
        <time>2022-07-04T10:44:52Z</time>
      </trkpt>
      <trkpt lat="42.58603" lon="-1.2842051">
        <time>2022-07-04T10:44:53Z</time>
      </trkpt>
      <trkpt lat="42.585968" lon="-1.2842244">
        <time>2022-07-04T10:44:54Z</time>
      </trkpt>
      <trkpt lat="42.58591" lon="-1.2842441">
        <time>2022-07-04T10:44:55Z</time>
      </trkpt>
      <trkpt lat="42.585854" lon="-1.2842641">
        <time>2022-07-04T10:44:56Z</time>
      </trkpt>
      <trkpt lat="42.585796" lon="-1.2842844">
        <time>2022-07-04T10:44:57Z</time>
      </trkpt>
      <trkpt lat="42.58574" lon="-1.284304">
        <time>2022-07-04T10:44:58Z</time>
      </trkpt>
      <trkpt lat="42.585682" lon="-1.284324">
        <time>2022-07-04T10:44:59Z</time>
      </trkpt>
      <trkpt lat="42.585625" lon="-1.2843437">
        <time>2022-07-04T10:45:00Z</time>
      </trkpt>
      <trkpt lat="42.585567" lon="-1.2843637">
        <time>2022-07-04T10:45:01Z</time>
      </trkpt>
      <trkpt lat="42.585514" lon="-1.2843837">
        <time>2022-07-04T10:45:02Z</time>
      </trkpt>
      <trkpt lat="42.585457" lon="-1.284404">
        <time>2022-07-04T10:45:03Z</time>
      </trkpt>
      <trkpt lat="42.585403" lon="-1.2844241">
        <time>2022-07-04T10:45:04Z</time>
      </trkpt>
      <trkpt lat="42.58535" lon="-1.2844437">
        <time>2022-07-04T10:45:05Z</time>
      </trkpt>
      <trkpt lat="42.585297" lon="-1.2844647">
        <time>2022-07-04T10:45:06Z</time>
      </trkpt>
      <trkpt lat="42.585243" lon="-1.2844853">
        <time>2022-07-04T10:45:07Z</time>
      </trkpt>
      <trkpt lat="42.585194" lon="-1.2845054">
        <time>2022-07-04T10:45:08Z</time>
      </trkpt>
      <trkpt lat="42.585094" lon="-1.2845434">
        <time>2022-07-04T10:45:10Z</time>
      </trkpt>
      <trkpt lat="42.585045" lon="-1.284561">
        <time>2022-07-04T10:45:11Z</time>
      </trkpt>
      <trkpt lat="42.58495" lon="-1.2845957">
        <time>2022-07-04T10:45:13Z</time>
      </trkpt>
      <trkpt lat="42.584854" lon="-1.284632">
        <time>2022-07-04T10:45:15Z</time>
      </trkpt>
      <trkpt lat="42.584755" lon="-1.2846707">
        <time>2022-07-04T10:45:17Z</time>
      </trkpt>
      <trkpt lat="42.584705" lon="-1.284691">
        <time>2022-07-04T10:45:18Z</time>
      </trkpt>
      <trkpt lat="42.584652" lon="-1.2847103">
        <time>2022-07-04T10:45:19Z</time>
      </trkpt>
      <trkpt lat="42.58455" lon="-1.2847463">
        <time>2022-07-04T10:45:21Z</time>
      </trkpt>
      <trkpt lat="42.584496" lon="-1.2847637">
        <time>2022-07-04T10:45:22Z</time>
      </trkpt>
      <trkpt lat="42.584442" lon="-1.2847819">
        <time>2022-07-04T10:45:23Z</time>
      </trkpt>
      <trkpt lat="42.58439" lon="-1.2848014">
        <time>2022-07-04T10:45:24Z</time>
      </trkpt>
      <trkpt lat="42.584335" lon="-1.284822">
        <time>2022-07-04T10:45:25Z</time>
      </trkpt>
      <trkpt lat="42.584282" lon="-1.2848413">
        <time>2022-07-04T10:45:26Z</time>
      </trkpt>
      <trkpt lat="42.58423" lon="-1.28486">
        <time>2022-07-04T10:45:27Z</time>
      </trkpt>
      <trkpt lat="42.584175" lon="-1.2848773">
        <time>2022-07-04T10:45:28Z</time>
      </trkpt>
      <trkpt lat="42.584118" lon="-1.284894">
        <time>2022-07-04T10:45:29Z</time>
      </trkpt>
      <trkpt lat="42.58406" lon="-1.2849116">
        <time>2022-07-04T10:45:30Z</time>
      </trkpt>
      <trkpt lat="42.584007" lon="-1.2849306">
        <time>2022-07-04T10:45:31Z</time>
      </trkpt>
      <trkpt lat="42.58395" lon="-1.2849503">
        <time>2022-07-04T10:45:32Z</time>
      </trkpt>
      <trkpt lat="42.583893" lon="-1.2849703">
        <time>2022-07-04T10:45:33Z</time>
      </trkpt>
      <trkpt lat="42.583836" lon="-1.2849896">
        <time>2022-07-04T10:45:34Z</time>
      </trkpt>
      <trkpt lat="42.58378" lon="-1.2850083">
        <time>2022-07-04T10:45:35Z</time>
      </trkpt>
      <trkpt lat="42.58372" lon="-1.2850273">
        <time>2022-07-04T10:45:36Z</time>
      </trkpt>
      <trkpt lat="42.58366" lon="-1.2850469">
        <time>2022-07-04T10:45:37Z</time>
      </trkpt>
      <trkpt lat="42.583603" lon="-1.2850676">
        <time>2022-07-04T10:45:38Z</time>
      </trkpt>
      <trkpt lat="42.583546" lon="-1.2850889">
        <time>2022-07-04T10:45:39Z</time>
      </trkpt>
      <trkpt lat="42.58349" lon="-1.2851102">
        <time>2022-07-04T10:45:40Z</time>
      </trkpt>
      <trkpt lat="42.58343" lon="-1.2851312">
        <time>2022-07-04T10:45:41Z</time>
      </trkpt>
      <trkpt lat="42.58337" lon="-1.285152">
        <time>2022-07-04T10:45:42Z</time>
      </trkpt>
      <trkpt lat="42.583313" lon="-1.2851726">
        <time>2022-07-04T10:45:43Z</time>
      </trkpt>
      <trkpt lat="42.583252" lon="-1.2851928">
        <time>2022-07-04T10:45:44Z</time>
      </trkpt>
      <trkpt lat="42.583195" lon="-1.2852136">
        <time>2022-07-04T10:45:45Z</time>
      </trkpt>
      <trkpt lat="42.583134" lon="-1.2852339">
        <time>2022-07-04T10:45:46Z</time>
      </trkpt>
      <trkpt lat="42.583076" lon="-1.2852548">
        <time>2022-07-04T10:45:47Z</time>
      </trkpt>
      <trkpt lat="42.583015" lon="-1.2852756">
        <time>2022-07-04T10:45:48Z</time>
      </trkpt>
      <trkpt lat="42.58296" lon="-1.2852958">
        <time>2022-07-04T10:45:49Z</time>
      </trkpt>
      <trkpt lat="42.5829" lon="-1.2853168">
        <time>2022-07-04T10:45:50Z</time>
      </trkpt>
      <trkpt lat="42.582844" lon="-1.2853369">
        <time>2022-07-04T10:45:51Z</time>
      </trkpt>
      <trkpt lat="42.582787" lon="-1.2853562">
        <time>2022-07-04T10:45:52Z</time>
      </trkpt>
      <trkpt lat="42.58273" lon="-1.2853749">
        <time>2022-07-04T10:45:53Z</time>
      </trkpt>
      <trkpt lat="42.582672" lon="-1.2853922">
        <time>2022-07-04T10:45:54Z</time>
      </trkpt>
      <trkpt lat="42.58262" lon="-1.2854102">
        <time>2022-07-04T10:45:55Z</time>
      </trkpt>
      <trkpt lat="42.582565" lon="-1.2854285">
        <time>2022-07-04T10:45:56Z</time>
      </trkpt>
      <trkpt lat="42.582516" lon="-1.2854462">
        <time>2022-07-04T10:45:57Z</time>
      </trkpt>
      <trkpt lat="42.582462" lon="-1.2854638">
        <time>2022-07-04T10:45:58Z</time>
      </trkpt>
      <trkpt lat="42.582413" lon="-1.2854809">
        <time>2022-07-04T10:45:59Z</time>
      </trkpt>
      <trkpt lat="42.582363" lon="-1.2854978">
        <time>2022-07-04T10:46:00Z</time>
      </trkpt>
      <trkpt lat="42.58227" lon="-1.2855295">
        <time>2022-07-04T10:46:02Z</time>
      </trkpt>
      <trkpt lat="42.582172" lon="-1.2855581">
        <time>2022-07-04T10:46:04Z</time>
      </trkpt>
      <trkpt lat="42.58208" lon="-1.2855908">
        <time>2022-07-04T10:46:06Z</time>
      </trkpt>
      <trkpt lat="42.582035" lon="-1.2856088">
        <time>2022-07-04T10:46:07Z</time>
      </trkpt>
      <trkpt lat="42.581944" lon="-1.2856448">
        <time>2022-07-04T10:46:09Z</time>
      </trkpt>
      <trkpt lat="42.581856" lon="-1.2856768">
        <time>2022-07-04T10:46:11Z</time>
      </trkpt>
      <trkpt lat="42.581764" lon="-1.2857078">
        <time>2022-07-04T10:46:13Z</time>
      </trkpt>
      <trkpt lat="42.581673" lon="-1.2857401">
        <time>2022-07-04T10:46:15Z</time>
      </trkpt>
      <trkpt lat="42.58158" lon="-1.2857722">
        <time>2022-07-04T10:46:17Z</time>
      </trkpt>
      <trkpt lat="42.58149" lon="-1.2858018">
        <time>2022-07-04T10:46:19Z</time>
      </trkpt>
      <trkpt lat="42.5814" lon="-1.2858318">
        <time>2022-07-04T10:46:21Z</time>
      </trkpt>
      <trkpt lat="42.581318" lon="-1.2858632">
        <time>2022-07-04T10:46:23Z</time>
      </trkpt>
      <trkpt lat="42.581226" lon="-1.2858958">
        <time>2022-07-04T10:46:25Z</time>
      </trkpt>
      <trkpt lat="42.581135" lon="-1.2859255">
        <time>2022-07-04T10:46:27Z</time>
      </trkpt>
      <trkpt lat="42.581043" lon="-1.2859554">
        <time>2022-07-04T10:46:29Z</time>
      </trkpt>
      <trkpt lat="42.58095" lon="-1.2859871">
        <time>2022-07-04T10:46:31Z</time>
      </trkpt>
      <trkpt lat="42.580902" lon="-1.2860031">
        <time>2022-07-04T10:46:32Z</time>
      </trkpt>
      <trkpt lat="42.580803" lon="-1.2860374">
        <time>2022-07-04T10:46:34Z</time>
      </trkpt>
      <trkpt lat="42.580704" lon="-1.2860718">
        <time>2022-07-04T10:46:36Z</time>
      </trkpt>
      <trkpt lat="42.58065" lon="-1.2860885">
        <time>2022-07-04T10:46:37Z</time>
      </trkpt>
      <trkpt lat="42.5806" lon="-1.2861058">
        <time>2022-07-04T10:46:38Z</time>
      </trkpt>
      <trkpt lat="42.580547" lon="-1.2861215">
        <time>2022-07-04T10:46:39Z</time>
      </trkpt>
      <trkpt lat="42.580444" lon="-1.2861571">
        <time>2022-07-04T10:46:41Z</time>
      </trkpt>
      <trkpt lat="42.58039" lon="-1.2861757">
        <time>2022-07-04T10:46:42Z</time>
      </trkpt>
      <trkpt lat="42.580338" lon="-1.2861954">
        <time>2022-07-04T10:46:43Z</time>
      </trkpt>
      <trkpt lat="42.580284" lon="-1.2862154">
        <time>2022-07-04T10:46:44Z</time>
      </trkpt>
      <trkpt lat="42.580235" lon="-1.2862351">
        <time>2022-07-04T10:46:45Z</time>
      </trkpt>
      <trkpt lat="42.58018" lon="-1.2862557">
        <time>2022-07-04T10:46:46Z</time>
      </trkpt>
      <trkpt lat="42.580128" lon="-1.2862754">
        <time>2022-07-04T10:46:47Z</time>
      </trkpt>
      <trkpt lat="42.580074" lon="-1.2862941">
        <time>2022-07-04T10:46:48Z</time>
      </trkpt>
      <trkpt lat="42.58002" lon="-1.286311">
        <time>2022-07-04T10:46:49Z</time>
      </trkpt>
      <trkpt lat="42.579967" lon="-1.2863284">
        <time>2022-07-04T10:46:50Z</time>
      </trkpt>
      <trkpt lat="42.579914" lon="-1.286345">
        <time>2022-07-04T10:46:51Z</time>
      </trkpt>
      <trkpt lat="42.579865" lon="-1.2863626">
        <time>2022-07-04T10:46:52Z</time>
      </trkpt>
      <trkpt lat="42.57981" lon="-1.2863804">
        <time>2022-07-04T10:46:53Z</time>
      </trkpt>
      <trkpt lat="42.57976" lon="-1.2863973">
        <time>2022-07-04T10:46:54Z</time>
      </trkpt>
      <trkpt lat="42.579712" lon="-1.2864137">
        <time>2022-07-04T10:46:55Z</time>
      </trkpt>
      <trkpt lat="42.57961" lon="-1.2864476">
        <time>2022-07-04T10:46:57Z</time>
      </trkpt>
      <trkpt lat="42.57956" lon="-1.2864656">
        <time>2022-07-04T10:46:58Z</time>
      </trkpt>
      <trkpt lat="42.579506" lon="-1.2864844">
        <time>2022-07-04T10:46:59Z</time>
      </trkpt>
      <trkpt lat="42.579453" lon="-1.2865024">
        <time>2022-07-04T10:47:00Z</time>
      </trkpt>
      <trkpt lat="42.5794" lon="-1.2865187">
        <time>2022-07-04T10:47:01Z</time>
      </trkpt>
      <trkpt lat="42.579346" lon="-1.2865343">
        <time>2022-07-04T10:47:02Z</time>
      </trkpt>
      <trkpt lat="42.579292" lon="-1.2865484">
        <time>2022-07-04T10:47:03Z</time>
      </trkpt>
      <trkpt lat="42.57924" lon="-1.286565">
        <time>2022-07-04T10:47:04Z</time>
      </trkpt>
      <trkpt lat="42.57918" lon="-1.2865816">
        <time>2022-07-04T10:47:05Z</time>
      </trkpt>
      <trkpt lat="42.57913" lon="-1.2866">
        <time>2022-07-04T10:47:06Z</time>
      </trkpt>
      <trkpt lat="42.579075" lon="-1.2866167">
        <time>2022-07-04T10:47:07Z</time>
      </trkpt>
      <trkpt lat="42.57902" lon="-1.2866343">
        <time>2022-07-04T10:47:08Z</time>
      </trkpt>
      <trkpt lat="42.578964" lon="-1.286654">
        <time>2022-07-04T10:47:09Z</time>
      </trkpt>
      <trkpt lat="42.578907" lon="-1.286675">
        <time>2022-07-04T10:47:10Z</time>
      </trkpt>
      <trkpt lat="42.57885" lon="-1.2866952">
        <time>2022-07-04T10:47:11Z</time>
      </trkpt>
      <trkpt lat="42.57879" lon="-1.2867169">
        <time>2022-07-04T10:47:12Z</time>
      </trkpt>
      <trkpt lat="42.57873" lon="-1.28674">
        <time>2022-07-04T10:47:13Z</time>
      </trkpt>
      <trkpt lat="42.578674" lon="-1.286762">
        <time>2022-07-04T10:47:14Z</time>
      </trkpt>
      <trkpt lat="42.578613" lon="-1.2867846">
        <time>2022-07-04T10:47:15Z</time>
      </trkpt>
      <trkpt lat="42.57856" lon="-1.2868047">
        <time>2022-07-04T10:47:16Z</time>
      </trkpt>
      <trkpt lat="42.5785" lon="-1.286827">
        <time>2022-07-04T10:47:17Z</time>
      </trkpt>
      <trkpt lat="42.578438" lon="-1.2868496">
        <time>2022-07-04T10:47:18Z</time>
      </trkpt>
      <trkpt lat="42.578316" lon="-1.2868903">
        <time>2022-07-04T10:47:20Z</time>
      </trkpt>
      <trkpt lat="42.578255" lon="-1.2869096">
        <time>2022-07-04T10:47:21Z</time>
      </trkpt>
      <trkpt lat="42.578197" lon="-1.2869296">
        <time>2022-07-04T10:47:22Z</time>
      </trkpt>
      <trkpt lat="42.578136" lon="-1.2869493">
        <time>2022-07-04T10:47:23Z</time>
      </trkpt>
      <trkpt lat="42.578083" lon="-1.2869699">
        <time>2022-07-04T10:47:24Z</time>
      </trkpt>
      <trkpt lat="42.578026" lon="-1.2869909">
        <time>2022-07-04T10:47:25Z</time>
      </trkpt>
      <trkpt lat="42.577972" lon="-1.2870106">
        <time>2022-07-04T10:47:26Z</time>
      </trkpt>
      <trkpt lat="42.57792" lon="-1.2870293">
        <time>2022-07-04T10:47:27Z</time>
      </trkpt>
      <trkpt lat="42.57787" lon="-1.2870456">
        <time>2022-07-04T10:47:28Z</time>
      </trkpt>
      <trkpt lat="42.57777" lon="-1.2870725">
        <time>2022-07-04T10:47:30Z</time>
      </trkpt>
      <trkpt lat="42.57768" lon="-1.2870872">
        <time>2022-07-04T10:47:32Z</time>
      </trkpt>
      <trkpt lat="42.57759" lon="-1.2870868">
        <time>2022-07-04T10:47:34Z</time>
      </trkpt>
      <trkpt lat="42.57751" lon="-1.2870736">
        <time>2022-07-04T10:47:36Z</time>
      </trkpt>
      <trkpt lat="42.57744" lon="-1.2870489">
        <time>2022-07-04T10:47:38Z</time>
      </trkpt>
      <trkpt lat="42.57738" lon="-1.2870076">
        <time>2022-07-04T10:47:40Z</time>
      </trkpt>
      <trkpt lat="42.57733" lon="-1.2869456">
        <time>2022-07-04T10:47:42Z</time>
      </trkpt>
      <trkpt lat="42.577293" lon="-1.2868706">
        <time>2022-07-04T10:47:44Z</time>
      </trkpt>
      <trkpt lat="42.577263" lon="-1.2867882">
        <time>2022-07-04T10:47:46Z</time>
      </trkpt>
      <trkpt lat="42.577236" lon="-1.2866989">
        <time>2022-07-04T10:47:48Z</time>
      </trkpt>
      <trkpt lat="42.577217" lon="-1.2866039">
        <time>2022-07-04T10:47:50Z</time>
      </trkpt>
      <trkpt lat="42.5772" lon="-1.2865065">
        <time>2022-07-04T10:47:52Z</time>
      </trkpt>
      <trkpt lat="42.577183" lon="-1.2864066">
        <time>2022-07-04T10:47:54Z</time>
      </trkpt>
      <trkpt lat="42.577168" lon="-1.2863059">
        <time>2022-07-04T10:47:56Z</time>
      </trkpt>
      <trkpt lat="42.577152" lon="-1.2862025">
        <time>2022-07-04T10:47:58Z</time>
      </trkpt>
      <trkpt lat="42.577137" lon="-1.2860993">
        <time>2022-07-04T10:48:00Z</time>
      </trkpt>
      <trkpt lat="42.577118" lon="-1.2859993">
        <time>2022-07-04T10:48:02Z</time>
      </trkpt>
      <trkpt lat="42.5771" lon="-1.2859026">
        <time>2022-07-04T10:48:04Z</time>
      </trkpt>
      <trkpt lat="42.577072" lon="-1.2858046">
        <time>2022-07-04T10:48:06Z</time>
      </trkpt>
      <trkpt lat="42.57705" lon="-1.2857072">
        <time>2022-07-04T10:48:08Z</time>
      </trkpt>
      <trkpt lat="42.577023" lon="-1.2856116">
        <time>2022-07-04T10:48:10Z</time>
      </trkpt>
      <trkpt lat="42.577007" lon="-1.2855163">
        <time>2022-07-04T10:48:12Z</time>
      </trkpt>
      <trkpt lat="42.57699" lon="-1.285421">
        <time>2022-07-04T10:48:14Z</time>
      </trkpt>
      <trkpt lat="42.57697" lon="-1.2853249">
        <time>2022-07-04T10:48:16Z</time>
      </trkpt>
      <trkpt lat="42.576954" lon="-1.2852213">
        <time>2022-07-04T10:48:18Z</time>
      </trkpt>
      <trkpt lat="42.57694" lon="-1.285128">
        <time>2022-07-04T10:48:20Z</time>
      </trkpt>
      <trkpt lat="42.576923" lon="-1.2850436">
        <time>2022-07-04T10:48:22Z</time>
      </trkpt>
      <trkpt lat="42.576912" lon="-1.2849706">
        <time>2022-07-04T10:48:24Z</time>
      </trkpt>
      <trkpt lat="42.576904" lon="-1.284915">
        <time>2022-07-04T10:48:26Z</time>
      </trkpt>
      <trkpt lat="42.576897" lon="-1.2848413">
        <time>2022-07-04T10:48:30Z</time>
      </trkpt>
      <trkpt lat="42.576866" lon="-1.284774">
        <time>2022-07-04T10:48:34Z</time>
      </trkpt>
      <trkpt lat="42.576836" lon="-1.284708">
        <time>2022-07-04T10:48:41Z</time>
      </trkpt>
      <trkpt lat="42.576828" lon="-1.2846357">
        <time>2022-07-04T10:48:46Z</time>
      </trkpt>
      <trkpt lat="42.576782" lon="-1.284592">
        <time>2022-07-04T10:48:50Z</time>
      </trkpt>
      <trkpt lat="42.57676" lon="-1.2845223">
        <time>2022-07-04T10:48:55Z</time>
      </trkpt>
      <trkpt lat="42.576733" lon="-1.2844573">
        <time>2022-07-04T10:49:00Z</time>
      </trkpt>
      <trkpt lat="42.57669" lon="-1.284398">
        <time>2022-07-04T10:49:05Z</time>
      </trkpt>
      <trkpt lat="42.576668" lon="-1.284321">
        <time>2022-07-04T10:49:10Z</time>
      </trkpt>
      <trkpt lat="42.57665" lon="-1.284246">
        <time>2022-07-04T10:49:14Z</time>
      </trkpt>
      <trkpt lat="42.576622" lon="-1.2841626">
        <time>2022-07-04T10:49:18Z</time>
      </trkpt>
      <trkpt lat="42.576626" lon="-1.284091">
        <time>2022-07-04T10:49:21Z</time>
      </trkpt>
      <trkpt lat="42.57663" lon="-1.28401">
        <time>2022-07-04T10:49:24Z</time>
      </trkpt>
      <trkpt lat="42.57661" lon="-1.2838984">
        <time>2022-07-04T10:49:28Z</time>
      </trkpt>
      <trkpt lat="42.576603" lon="-1.2838271">
        <time>2022-07-04T10:49:31Z</time>
      </trkpt>
      <trkpt lat="42.576584" lon="-1.283764">
        <time>2022-07-04T10:49:34Z</time>
      </trkpt>
      <trkpt lat="42.57656" lon="-1.283678">
        <time>2022-07-04T10:49:38Z</time>
      </trkpt>
      <trkpt lat="42.576546" lon="-1.2836131">
        <time>2022-07-04T10:49:41Z</time>
      </trkpt>
      <trkpt lat="42.576527" lon="-1.283547">
        <time>2022-07-04T10:49:44Z</time>
      </trkpt>
      <trkpt lat="42.576492" lon="-1.283467">
        <time>2022-07-04T10:49:48Z</time>
      </trkpt>
      <trkpt lat="42.576473" lon="-1.2834067">
        <time>2022-07-04T10:49:51Z</time>
      </trkpt>
      <trkpt lat="42.576458" lon="-1.2833194">
        <time>2022-07-04T10:49:55Z</time>
      </trkpt>
      <trkpt lat="42.57645" lon="-1.2832464">
        <time>2022-07-04T10:49:58Z</time>
      </trkpt>
      <trkpt lat="42.57644" lon="-1.2831783">
        <time>2022-07-04T10:50:01Z</time>
      </trkpt>
      <trkpt lat="42.57642" lon="-1.283097">
        <time>2022-07-04T10:50:05Z</time>
      </trkpt>
      <trkpt lat="42.576393" lon="-1.283028">
        <time>2022-07-04T10:50:09Z</time>
      </trkpt>
      <trkpt lat="42.576378" lon="-1.2829667">
        <time>2022-07-04T10:50:13Z</time>
      </trkpt>
      <trkpt lat="42.57637" lon="-1.2828884">
        <time>2022-07-04T10:50:18Z</time>
      </trkpt>
      <trkpt lat="42.576366" lon="-1.2828244">
        <time>2022-07-04T10:50:22Z</time>
      </trkpt>
      <trkpt lat="42.576355" lon="-1.2827487">
        <time>2022-07-04T10:50:27Z</time>
      </trkpt>
      <trkpt lat="42.57631" lon="-1.2826374">
        <time>2022-07-04T10:50:38Z</time>
      </trkpt>
      <trkpt lat="42.57627" lon="-1.2825991">
        <time>2022-07-04T10:50:43Z</time>
      </trkpt>
      <trkpt lat="42.57625" lon="-1.2824984">
        <time>2022-07-04T10:50:50Z</time>
      </trkpt>
      <trkpt lat="42.57623" lon="-1.2824297">
        <time>2022-07-04T10:50:52Z</time>
      </trkpt>
      <trkpt lat="42.576195" lon="-1.2823461">
        <time>2022-07-04T10:50:54Z</time>
      </trkpt>
      <trkpt lat="42.576195" lon="-1.2823174">
        <time>2022-07-04T10:50:56Z</time>
      </trkpt>
      <trkpt lat="42.575836" lon="-1.2819527">
        <time>2022-07-04T10:56:28Z</time>
      </trkpt>
      <trkpt lat="42.576153" lon="-1.282716">
        <time>2022-07-04T10:56:46Z</time>
      </trkpt>
      <trkpt lat="42.5762" lon="-1.282798">
        <time>2022-07-04T10:56:50Z</time>
      </trkpt>
      <trkpt lat="42.576225" lon="-1.2828717">
        <time>2022-07-04T10:56:53Z</time>
      </trkpt>
      <trkpt lat="42.576202" lon="-1.2829088">
        <time>2022-07-04T10:56:57Z</time>
      </trkpt>
      <trkpt lat="42.57615" lon="-1.2828894">
        <time>2022-07-04T10:57:00Z</time>
      </trkpt>
      <trkpt lat="42.576073" lon="-1.2829005">
        <time>2022-07-04T10:57:03Z</time>
      </trkpt>
      <trkpt lat="42.576027" lon="-1.2829177">
        <time>2022-07-04T10:57:05Z</time>
      </trkpt>
      <trkpt lat="42.575977" lon="-1.2829341">
        <time>2022-07-04T10:57:08Z</time>
      </trkpt>
      <trkpt lat="42.575974" lon="-1.283112">
        <time>2022-07-04T10:58:00Z</time>
      </trkpt>
      <trkpt lat="42.575993" lon="-1.2831458">
        <time>2022-07-04T10:58:03Z</time>
      </trkpt>
      <trkpt lat="42.575974" lon="-1.2831064">
        <time>2022-07-04T10:58:19Z</time>
      </trkpt>
      <trkpt lat="42.57589" lon="-1.2829344">
        <time>2022-07-04T11:00:37Z</time>
      </trkpt>
      <trkpt lat="42.57586" lon="-1.2828771">
        <time>2022-07-04T11:07:26Z</time>
      </trkpt>
      <trkpt lat="42.57591" lon="-1.2830627">
        <time>2022-07-04T11:07:47Z</time>
      </trkpt>
      <trkpt lat="42.575825" lon="-1.2830781">
        <time>2022-07-04T11:12:04Z</time>
      </trkpt>
      <trkpt lat="42.57581" lon="-1.282989">
        <time>2022-07-04T11:12:46Z</time>
      </trkpt>
      <trkpt lat="42.575844" lon="-1.2829441">
        <time>2022-07-04T11:12:50Z</time>
      </trkpt>
      <trkpt lat="42.57578" lon="-1.2831007">
        <time>2022-07-04T11:15:04Z</time>
      </trkpt>
      <trkpt lat="42.57579" lon="-1.2831471">
        <time>2022-07-04T11:15:10Z</time>
      </trkpt>
      <trkpt lat="42.57581" lon="-1.2832243">
        <time>2022-07-04T11:15:16Z</time>
      </trkpt>
      <trkpt lat="42.575806" lon="-1.2829237">
        <time>2022-07-04T11:19:58Z</time>
      </trkpt>
      <trkpt lat="42.575798" lon="-1.2830313">
        <time>2022-07-04T11:24:24Z</time>
      </trkpt>
      <trkpt lat="42.575775" lon="-1.2831041">
        <time>2022-07-04T11:24:27Z</time>
      </trkpt>
      <trkpt lat="42.57576" lon="-1.2831697">
        <time>2022-07-04T11:24:31Z</time>
      </trkpt>
      <trkpt lat="42.575893" lon="-1.2829337">
        <time>2022-07-04T11:30:04Z</time>
      </trkpt>
      <trkpt lat="42.57558" lon="-1.2829874">
        <time>2022-07-04T11:30:19Z</time>
      </trkpt>
      <trkpt lat="42.57553" lon="-1.2829974">
        <time>2022-07-04T11:30:20Z</time>
      </trkpt>
      <trkpt lat="42.575485" lon="-1.2830077">
        <time>2022-07-04T11:30:21Z</time>
      </trkpt>
      <trkpt lat="42.575405" lon="-1.2830243">
        <time>2022-07-04T11:30:23Z</time>
      </trkpt>
      <trkpt lat="42.57534" lon="-1.283036">
        <time>2022-07-04T11:30:25Z</time>
      </trkpt>
      <trkpt lat="42.57527" lon="-1.2830447">
        <time>2022-07-04T11:30:27Z</time>
      </trkpt>
      <trkpt lat="42.5752" lon="-1.283054">
        <time>2022-07-04T11:30:30Z</time>
      </trkpt>
      <trkpt lat="42.575756" lon="-1.28289">
        <time>2022-07-04T11:35:08Z</time>
      </trkpt>
      <trkpt lat="42.575756" lon="-1.2830354">
        <time>2022-07-04T11:35:38Z</time>
      </trkpt>
      <trkpt lat="42.575794" lon="-1.2829927">
        <time>2022-07-04T11:35:47Z</time>
      </trkpt>
      <trkpt lat="42.575794" lon="-1.2830573">
        <time>2022-07-04T11:35:54Z</time>
      </trkpt>
      <trkpt lat="42.57576" lon="-1.2830343">
        <time>2022-07-04T11:36:17Z</time>
      </trkpt>
      <trkpt lat="42.57589" lon="-1.282806">
        <time>2022-07-04T11:37:35Z</time>
      </trkpt>
      <trkpt lat="42.575775" lon="-1.2830076">
        <time>2022-07-04T11:39:00Z</time>
      </trkpt>
      <trkpt lat="42.5758" lon="-1.2830087">
        <time>2022-07-04T11:39:05Z</time>
      </trkpt>
      <trkpt lat="42.575794" lon="-1.2830143">
        <time>2022-07-04T11:40:03Z</time>
      </trkpt>
      <trkpt lat="42.575798" lon="-1.2829844">
        <time>2022-07-04T11:40:19Z</time>
      </trkpt>
      <trkpt lat="42.575756" lon="-1.2829959">
        <time>2022-07-04T11:40:33Z</time>
      </trkpt>
      <trkpt lat="42.57581" lon="-1.2830176">
        <time>2022-07-04T11:41:24Z</time>
      </trkpt>
      <trkpt lat="42.57574" lon="-1.2830089">
        <time>2022-07-04T11:41:29Z</time>
      </trkpt>
      <trkpt lat="42.575836" lon="-1.2829746">
        <time>2022-07-04T11:41:47Z</time>
      </trkpt>
      <trkpt lat="42.575764" lon="-1.283086">
        <time>2022-07-04T11:42:55Z</time>
      </trkpt>
      <trkpt lat="42.575897" lon="-1.283001">
        <time>2022-07-04T11:43:46Z</time>
      </trkpt>
      <trkpt lat="42.575844" lon="-1.283032">
        <time>2022-07-04T11:44:20Z</time>
      </trkpt>
      <trkpt lat="42.575912" lon="-1.282964">
        <time>2022-07-04T11:46:15Z</time>
      </trkpt>
      <trkpt lat="42.575783" lon="-1.2829413">
        <time>2022-07-04T11:49:05Z</time>
      </trkpt>
      <trkpt lat="42.575794" lon="-1.2829603">
        <time>2022-07-04T11:49:20Z</time>
      </trkpt>
      <trkpt lat="42.575886" lon="-1.2829473">
        <time>2022-07-04T11:52:39Z</time>
      </trkpt>
      <trkpt lat="42.57585" lon="-1.282975">
        <time>2022-07-04T11:52:48Z</time>
      </trkpt>
      <trkpt lat="42.575905" lon="-1.2829657">
        <time>2022-07-04T11:53:09Z</time>
      </trkpt>
      <trkpt lat="42.57597" lon="-1.282943">
        <time>2022-07-04T11:53:14Z</time>
      </trkpt>
      <trkpt lat="42.575962" lon="-1.2829753">
        <time>2022-07-04T11:53:23Z</time>
      </trkpt>
      <trkpt lat="42.57593" lon="-1.2829907">
        <time>2022-07-04T11:53:50Z</time>
      </trkpt>
      <trkpt lat="42.575935" lon="-1.282983">
        <time>2022-07-04T11:54:20Z</time>
      </trkpt>
      <trkpt lat="42.575836" lon="-1.2829547">
        <time>2022-07-04T11:55:40Z</time>
      </trkpt>
      <trkpt lat="42.575794" lon="-1.2829291">
        <time>2022-07-04T11:55:59Z</time>
      </trkpt>
      <trkpt lat="42.575737" lon="-1.2828914">
        <time>2022-07-04T11:56:02Z</time>
      </trkpt>
      <trkpt lat="42.57575" lon="-1.2829634">
        <time>2022-07-04T11:56:07Z</time>
      </trkpt>
      <trkpt lat="42.575806" lon="-1.282981">
        <time>2022-07-04T11:56:13Z</time>
      </trkpt>
      <trkpt lat="42.57585" lon="-1.282998">
        <time>2022-07-04T11:56:16Z</time>
      </trkpt>
      <trkpt lat="42.575897" lon="-1.2830293">
        <time>2022-07-04T11:56:26Z</time>
      </trkpt>
      <trkpt lat="42.575768" lon="-1.282978">
        <time>2022-07-04T11:58:13Z</time>
      </trkpt>
      <trkpt lat="42.57582" lon="-1.282976">
        <time>2022-07-04T11:58:18Z</time>
      </trkpt>
      <trkpt lat="42.575817" lon="-1.2831091">
        <time>2022-07-04T12:00:03Z</time>
      </trkpt>
      <trkpt lat="42.575817" lon="-1.2831466">
        <time>2022-07-04T12:00:06Z</time>
      </trkpt>
      <trkpt lat="42.575916" lon="-1.2828643">
        <time>2022-07-04T12:01:16Z</time>
      </trkpt>
      <trkpt lat="42.57591" lon="-1.282981">
        <time>2022-07-04T12:01:58Z</time>
      </trkpt>
      <trkpt lat="42.575954" lon="-1.282991">
        <time>2022-07-04T12:02:06Z</time>
      </trkpt>
      <trkpt lat="42.57593" lon="-1.282961">
        <time>2022-07-04T12:04:10Z</time>
      </trkpt>
      <trkpt lat="42.575893" lon="-1.2829213">
        <time>2022-07-04T12:04:25Z</time>
      </trkpt>
      <trkpt lat="42.575844" lon="-1.2828707">
        <time>2022-07-04T12:04:31Z</time>
      </trkpt>
      <trkpt lat="42.575764" lon="-1.28283">
        <time>2022-07-04T12:04:34Z</time>
      </trkpt>
      <trkpt lat="42.575745" lon="-1.2828304">
        <time>2022-07-04T12:04:39Z</time>
      </trkpt>
      <trkpt lat="42.5759" lon="-1.283026">
        <time>2022-07-04T12:06:01Z</time>
      </trkpt>
      <trkpt lat="42.5759" lon="-1.28303">
        <time>2022-07-04T12:06:04Z</time>
      </trkpt>
      <trkpt lat="42.575897" lon="-1.2829224">
        <time>2022-07-04T12:06:15Z</time>
      </trkpt>
      <trkpt lat="42.576096" lon="-1.2830976">
        <time>2022-07-04T12:06:24Z</time>
      </trkpt>
      <trkpt lat="42.57609" lon="-1.2830937">
        <time>2022-07-04T12:06:26Z</time>
      </trkpt>
      <trkpt lat="42.576084" lon="-1.2830417">
        <time>2022-07-04T12:06:32Z</time>
      </trkpt>
      <trkpt lat="42.5761" lon="-1.2830544">
        <time>2022-07-04T12:06:55Z</time>
      </trkpt>
      <trkpt lat="42.576073" lon="-1.283007">
        <time>2022-07-04T12:07:04Z</time>
      </trkpt>
      <trkpt lat="42.576027" lon="-1.282982">
        <time>2022-07-04T12:07:06Z</time>
      </trkpt>
      <trkpt lat="42.576004" lon="-1.282949">
        <time>2022-07-04T12:07:10Z</time>
      </trkpt>
      <trkpt lat="42.57598" lon="-1.282899">
        <time>2022-07-04T12:07:17Z</time>
      </trkpt>
      <trkpt lat="42.575928" lon="-1.2828753">
        <time>2022-07-04T12:07:20Z</time>
      </trkpt>
      <trkpt lat="42.57591" lon="-1.2828977">
        <time>2022-07-04T12:07:25Z</time>
      </trkpt>
      <trkpt lat="42.575836" lon="-1.2828673">
        <time>2022-07-04T12:07:30Z</time>
      </trkpt>
      <trkpt lat="42.575798" lon="-1.282835">
        <time>2022-07-04T12:07:33Z</time>
      </trkpt>
      <trkpt lat="42.575756" lon="-1.2827936">
        <time>2022-07-04T12:07:37Z</time>
      </trkpt>
      <trkpt lat="42.57576" lon="-1.282802">
        <time>2022-07-04T12:07:42Z</time>
      </trkpt>
      <trkpt lat="42.5758" lon="-1.2828476">
        <time>2022-07-04T12:07:55Z</time>
      </trkpt>
      <trkpt lat="42.57583" lon="-1.282859">
        <time>2022-07-04T12:07:59Z</time>
      </trkpt>
      <trkpt lat="42.57585" lon="-1.2828526">
        <time>2022-07-04T12:08:30Z</time>
      </trkpt>
      <trkpt lat="42.57584" lon="-1.2828007">
        <time>2022-07-04T12:08:40Z</time>
      </trkpt>
      <trkpt lat="42.57587" lon="-1.2828263">
        <time>2022-07-04T12:09:10Z</time>
      </trkpt>
      <trkpt lat="42.575867" lon="-1.2828261">
        <time>2022-07-04T12:09:31Z</time>
      </trkpt>
      <trkpt lat="42.575893" lon="-1.2829083">
        <time>2022-07-04T12:10:13Z</time>
      </trkpt>
      <trkpt lat="42.575836" lon="-1.2829393">
        <time>2022-07-04T12:11:26Z</time>
      </trkpt>
      <trkpt lat="42.575825" lon="-1.2829233">
        <time>2022-07-04T12:11:43Z</time>
      </trkpt>
      <trkpt lat="42.575806" lon="-1.2829193">
        <time>2022-07-04T12:11:49Z</time>
      </trkpt>
      <trkpt lat="42.575813" lon="-1.2828927">
        <time>2022-07-04T12:11:54Z</time>
      </trkpt>
      <trkpt lat="42.57581" lon="-1.282903">
        <time>2022-07-04T12:12:04Z</time>
      </trkpt>
      <trkpt lat="42.575916" lon="-1.2829586">
        <time>2022-07-04T12:12:25Z</time>
      </trkpt>
      <trkpt lat="42.575943" lon="-1.2829493">
        <time>2022-07-04T12:12:34Z</time>
      </trkpt>
      <trkpt lat="42.57597" lon="-1.2829844">
        <time>2022-07-04T12:12:43Z</time>
      </trkpt>
      <trkpt lat="42.576134" lon="-1.2829694">
        <time>2022-07-04T12:13:03Z</time>
      </trkpt>
      <trkpt lat="42.57614" lon="-1.2829564">
        <time>2022-07-04T12:13:04Z</time>
      </trkpt>
      <trkpt lat="42.576" lon="-1.282856">
        <time>2022-07-04T12:13:29Z</time>
      </trkpt>
      <trkpt lat="42.575638" lon="-1.2832726">
        <time>2022-07-04T12:13:34Z</time>
      </trkpt>
      <trkpt lat="42.57602" lon="-1.283063">
        <time>2022-07-04T12:13:55Z</time>
      </trkpt>
      <trkpt lat="42.576054" lon="-1.2830356">
        <time>2022-07-04T12:14:02Z</time>
      </trkpt>
      <trkpt lat="42.576115" lon="-1.2830011">
        <time>2022-07-04T12:14:14Z</time>
      </trkpt>
      <trkpt lat="42.576035" lon="-1.2829803">
        <time>2022-07-04T12:14:26Z</time>
      </trkpt>
      <trkpt lat="42.575993" lon="-1.2829787">
        <time>2022-07-04T12:14:31Z</time>
      </trkpt>
      <trkpt lat="42.57596" lon="-1.2829508">
        <time>2022-07-04T12:14:40Z</time>
      </trkpt>
      <trkpt lat="42.575947" lon="-1.2829866">
        <time>2022-07-04T12:14:58Z</time>
      </trkpt>
      <trkpt lat="42.575905" lon="-1.282932">
        <time>2022-07-04T12:15:05Z</time>
      </trkpt>
      <trkpt lat="42.575954" lon="-1.2829736">
        <time>2022-07-04T12:15:13Z</time>
      </trkpt>
      <trkpt lat="42.575752" lon="-1.2829441">
        <time>2022-07-04T12:15:34Z</time>
      </trkpt>
      <trkpt lat="42.57564" lon="-1.2828411">
        <time>2022-07-04T12:15:39Z</time>
      </trkpt>
      <trkpt lat="42.575733" lon="-1.2829994">
        <time>2022-07-04T12:15:48Z</time>
      </trkpt>
      <trkpt lat="42.57576" lon="-1.283018">
        <time>2022-07-04T12:15:49Z</time>
      </trkpt>
      <trkpt lat="42.575844" lon="-1.283054">
        <time>2022-07-04T12:15:51Z</time>
      </trkpt>
      <trkpt lat="42.575886" lon="-1.2830684">
        <time>2022-07-04T12:15:54Z</time>
      </trkpt>
      <trkpt lat="42.575874" lon="-1.283103">
        <time>2022-07-04T12:15:59Z</time>
      </trkpt>
      <trkpt lat="42.57593" lon="-1.283157">
        <time>2022-07-04T12:16:03Z</time>
      </trkpt>
      <trkpt lat="42.575943" lon="-1.283201">
        <time>2022-07-04T12:16:06Z</time>
      </trkpt>
      <trkpt lat="42.575996" lon="-1.283265">
        <time>2022-07-04T12:16:13Z</time>
      </trkpt>
      <trkpt lat="42.576153" lon="-1.2833927">
        <time>2022-07-04T12:16:22Z</time>
      </trkpt>
      <trkpt lat="42.576153" lon="-1.2833904">
        <time>2022-07-04T12:16:23Z</time>
      </trkpt>
      <trkpt lat="42.57607" lon="-1.2830104">
        <time>2022-07-04T12:16:39Z</time>
      </trkpt>
      <trkpt lat="42.57604" lon="-1.2829527">
        <time>2022-07-04T12:16:43Z</time>
      </trkpt>
      <trkpt lat="42.575874" lon="-1.2829261">
        <time>2022-07-04T12:16:55Z</time>
      </trkpt>
      <trkpt lat="42.575874" lon="-1.2829267">
        <time>2022-07-04T12:16:56Z</time>
      </trkpt>
      <trkpt lat="42.575756" lon="-1.282773">
        <time>2022-07-04T12:17:17Z</time>
      </trkpt>
      <trkpt lat="42.57572" lon="-1.282768">
        <time>2022-07-04T12:17:22Z</time>
      </trkpt>
      <trkpt lat="42.57577" lon="-1.2827903">
        <time>2022-07-04T12:17:32Z</time>
      </trkpt>
      <trkpt lat="42.57599" lon="-1.2829651">
        <time>2022-07-04T12:18:07Z</time>
      </trkpt>
      <trkpt lat="42.575962" lon="-1.282971">
        <time>2022-07-04T12:18:15Z</time>
      </trkpt>
      <trkpt lat="42.575916" lon="-1.282909">
        <time>2022-07-04T12:18:19Z</time>
      </trkpt>
      <trkpt lat="42.575874" lon="-1.2828497">
        <time>2022-07-04T12:18:23Z</time>
      </trkpt>
      <trkpt lat="42.575848" lon="-1.2828074">
        <time>2022-07-04T12:18:26Z</time>
      </trkpt>
      <trkpt lat="42.575874" lon="-1.2828797">
        <time>2022-07-04T12:18:30Z</time>
      </trkpt>
      <trkpt lat="42.575897" lon="-1.2829363">
        <time>2022-07-04T12:18:33Z</time>
      </trkpt>
      <trkpt lat="42.575947" lon="-1.282957">
        <time>2022-07-04T12:18:37Z</time>
      </trkpt>
      <trkpt lat="42.576035" lon="-1.2829916">
        <time>2022-07-04T12:18:43Z</time>
      </trkpt>
      <trkpt lat="42.57607" lon="-1.2830213">
        <time>2022-07-04T12:18:45Z</time>
      </trkpt>
      <trkpt lat="42.57605" lon="-1.283052">
        <time>2022-07-04T12:18:54Z</time>
      </trkpt>
      <trkpt lat="42.57602" lon="-1.2830787">
        <time>2022-07-04T12:19:00Z</time>
      </trkpt>
      <trkpt lat="42.576233" lon="-1.2831513">
        <time>2022-07-04T12:19:07Z</time>
      </trkpt>
      <trkpt lat="42.57636" lon="-1.2831923">
        <time>2022-07-04T12:19:08Z</time>
      </trkpt>
      <trkpt lat="42.57648" lon="-1.2832279">
        <time>2022-07-04T12:19:09Z</time>
      </trkpt>
      <trkpt lat="42.57658" lon="-1.2832446">
        <time>2022-07-04T12:19:10Z</time>
      </trkpt>
      <trkpt lat="42.576717" lon="-1.28325">
        <time>2022-07-04T12:19:13Z</time>
      </trkpt>
      <trkpt lat="42.576775" lon="-1.2832246">
        <time>2022-07-04T12:19:14Z</time>
      </trkpt>
      <trkpt lat="42.576725" lon="-1.2831756">
        <time>2022-07-04T12:19:16Z</time>
      </trkpt>
      <trkpt lat="42.57666" lon="-1.2831243">
        <time>2022-07-04T12:19:17Z</time>
      </trkpt>
      <trkpt lat="42.576588" lon="-1.283079">
        <time>2022-07-04T12:19:18Z</time>
      </trkpt>
      <trkpt lat="42.576534" lon="-1.2830523">
        <time>2022-07-04T12:19:20Z</time>
      </trkpt>
      <trkpt lat="42.57648" lon="-1.2830317">
        <time>2022-07-04T12:19:21Z</time>
      </trkpt>
      <trkpt lat="42.576447" lon="-1.283016">
        <time>2022-07-04T12:19:22Z</time>
      </trkpt>
      <trkpt lat="42.576363" lon="-1.2829937">
        <time>2022-07-04T12:19:24Z</time>
      </trkpt>
      <trkpt lat="42.576324" lon="-1.282988">
        <time>2022-07-04T12:19:26Z</time>
      </trkpt>
      <trkpt lat="42.575783" lon="-1.282877">
        <time>2022-07-04T12:19:59Z</time>
      </trkpt>
      <trkpt lat="42.57573" lon="-1.282891">
        <time>2022-07-04T12:20:02Z</time>
      </trkpt>
      <trkpt lat="42.575684" lon="-1.2828916">
        <time>2022-07-04T12:20:06Z</time>
      </trkpt>
      <trkpt lat="42.575882" lon="-1.2829744">
        <time>2022-07-04T12:21:08Z</time>
      </trkpt>
      <trkpt lat="42.575798" lon="-1.282965">
        <time>2022-07-04T12:21:28Z</time>
      </trkpt>
      <trkpt lat="42.57575" lon="-1.2829267">
        <time>2022-07-04T12:21:31Z</time>
      </trkpt>
      <trkpt lat="42.575718" lon="-1.282892">
        <time>2022-07-04T12:21:36Z</time>
      </trkpt>
      <trkpt lat="42.57572" lon="-1.282907">
        <time>2022-07-04T12:21:59Z</time>
      </trkpt>
      <trkpt lat="42.57576" lon="-1.282923">
        <time>2022-07-04T12:22:16Z</time>
      </trkpt>
      <trkpt lat="42.574192" lon="-1.2845826">
        <time>2022-07-04T12:24:09Z</time>
      </trkpt>
      <trkpt lat="42.575546" lon="-1.283416">
        <time>2022-07-04T12:24:49Z</time>
      </trkpt>
      <trkpt lat="42.576145" lon="-1.282721">
        <time>2022-07-04T12:25:15Z</time>
      </trkpt>
      <trkpt lat="42.576164" lon="-1.2826984">
        <time>2022-07-04T12:25:18Z</time>
      </trkpt>
      <trkpt lat="42.57624" lon="-1.2827153">
        <time>2022-07-04T12:25:22Z</time>
      </trkpt>
      <trkpt lat="42.57629" lon="-1.2827287">
        <time>2022-07-04T12:25:24Z</time>
      </trkpt>
      <trkpt lat="42.57633" lon="-1.2827246">
        <time>2022-07-04T12:25:28Z</time>
      </trkpt>
      <trkpt lat="42.576305" lon="-1.2826834">
        <time>2022-07-04T12:25:38Z</time>
      </trkpt>
      <trkpt lat="42.57627" lon="-1.2826626">
        <time>2022-07-04T12:25:40Z</time>
      </trkpt>
      <trkpt lat="42.576122" lon="-1.282569">
        <time>2022-07-04T12:25:48Z</time>
      </trkpt>
      <trkpt lat="42.576015" lon="-1.2826676">
        <time>2022-07-04T12:26:03Z</time>
      </trkpt>
      <trkpt lat="42.576096" lon="-1.2827637">
        <time>2022-07-04T12:26:09Z</time>
      </trkpt>
      <trkpt lat="42.576096" lon="-1.282798">
        <time>2022-07-04T12:26:10Z</time>
      </trkpt>
      <trkpt lat="42.576237" lon="-1.2827743">
        <time>2022-07-04T12:26:28Z</time>
      </trkpt>
      <trkpt lat="42.576336" lon="-1.2827327">
        <time>2022-07-04T12:26:41Z</time>
      </trkpt>
      <trkpt lat="42.576115" lon="-1.2829117">
        <time>2022-07-04T12:26:51Z</time>
      </trkpt>
      <trkpt lat="42.5761" lon="-1.282969">
        <time>2022-07-04T12:26:53Z</time>
      </trkpt>
      <trkpt lat="42.576126" lon="-1.282986">
        <time>2022-07-04T12:26:58Z</time>
      </trkpt>
      <trkpt lat="42.576195" lon="-1.2829803">
        <time>2022-07-04T12:27:01Z</time>
      </trkpt>
      <trkpt lat="42.576256" lon="-1.2829764">
        <time>2022-07-04T12:27:04Z</time>
      </trkpt>
      <trkpt lat="42.576336" lon="-1.282932">
        <time>2022-07-04T12:27:07Z</time>
      </trkpt>
      <trkpt lat="42.576385" lon="-1.282889">
        <time>2022-07-04T12:27:09Z</time>
      </trkpt>
      <trkpt lat="42.576416" lon="-1.282846">
        <time>2022-07-04T12:27:11Z</time>
      </trkpt>
      <trkpt lat="42.57642" lon="-1.2827771">
        <time>2022-07-04T12:27:14Z</time>
      </trkpt>
      <trkpt lat="42.576393" lon="-1.2827027">
        <time>2022-07-04T12:27:17Z</time>
      </trkpt>
      <trkpt lat="42.576363" lon="-1.282614">
        <time>2022-07-04T12:27:20Z</time>
      </trkpt>
      <trkpt lat="42.576344" lon="-1.2825507">
        <time>2022-07-04T12:27:22Z</time>
      </trkpt>
      <trkpt lat="42.576313" lon="-1.2824627">
        <time>2022-07-04T12:27:25Z</time>
      </trkpt>
      <trkpt lat="42.576294" lon="-1.282364">
        <time>2022-07-04T12:27:28Z</time>
      </trkpt>
      <trkpt lat="42.576286" lon="-1.2822918">
        <time>2022-07-04T12:27:30Z</time>
      </trkpt>
      <trkpt lat="42.576275" lon="-1.2822237">
        <time>2022-07-04T12:27:32Z</time>
      </trkpt>
      <trkpt lat="42.576252" lon="-1.2821608">
        <time>2022-07-04T12:27:34Z</time>
      </trkpt>
      <trkpt lat="42.576218" lon="-1.282065">
        <time>2022-07-04T12:27:37Z</time>
      </trkpt>
      <trkpt lat="42.5762" lon="-1.2819988">
        <time>2022-07-04T12:27:39Z</time>
      </trkpt>
      <trkpt lat="42.57618" lon="-1.2819324">
        <time>2022-07-04T12:27:41Z</time>
      </trkpt>
      <trkpt lat="42.576157" lon="-1.2818614">
        <time>2022-07-04T12:27:43Z</time>
      </trkpt>
      <trkpt lat="42.576126" lon="-1.2817864">
        <time>2022-07-04T12:27:45Z</time>
      </trkpt>
      <trkpt lat="42.57609" lon="-1.2817197">
        <time>2022-07-04T12:27:47Z</time>
      </trkpt>
      <trkpt lat="42.576065" lon="-1.2816625">
        <time>2022-07-04T12:27:49Z</time>
      </trkpt>
      <trkpt lat="42.57603" lon="-1.281581">
        <time>2022-07-04T12:27:52Z</time>
      </trkpt>
      <trkpt lat="42.57601" lon="-1.2814944">
        <time>2022-07-04T12:27:55Z</time>
      </trkpt>
      <trkpt lat="42.575974" lon="-1.2814174">
        <time>2022-07-04T12:27:58Z</time>
      </trkpt>
      <trkpt lat="42.57593" lon="-1.2813494">
        <time>2022-07-04T12:28:01Z</time>
      </trkpt>
      <trkpt lat="42.575893" lon="-1.2812804">
        <time>2022-07-04T12:28:04Z</time>
      </trkpt>
      <trkpt lat="42.575855" lon="-1.2812091">
        <time>2022-07-04T12:28:07Z</time>
      </trkpt>
      <trkpt lat="42.575817" lon="-1.2811404">
        <time>2022-07-04T12:28:10Z</time>
      </trkpt>
      <trkpt lat="42.575783" lon="-1.2810708">
        <time>2022-07-04T12:28:13Z</time>
      </trkpt>
      <trkpt lat="42.57574" lon="-1.2810087">
        <time>2022-07-04T12:28:16Z</time>
      </trkpt>
      <trkpt lat="42.57569" lon="-1.2809601">
        <time>2022-07-04T12:28:19Z</time>
      </trkpt>
      <trkpt lat="42.575634" lon="-1.2809194">
        <time>2022-07-04T12:28:22Z</time>
      </trkpt>
      <trkpt lat="42.575577" lon="-1.2808998">
        <time>2022-07-04T12:28:25Z</time>
      </trkpt>
      <trkpt lat="42.575523" lon="-1.2808151">
        <time>2022-07-04T12:31:24Z</time>
      </trkpt>
      <trkpt lat="42.57546" lon="-1.2807854">
        <time>2022-07-04T12:31:27Z</time>
      </trkpt>
      <trkpt lat="42.5754" lon="-1.2807738">
        <time>2022-07-04T12:31:29Z</time>
      </trkpt>
      <trkpt lat="42.57534" lon="-1.2807691">
        <time>2022-07-04T12:31:31Z</time>
      </trkpt>
      <trkpt lat="42.57528" lon="-1.2807605">
        <time>2022-07-04T12:31:33Z</time>
      </trkpt>
      <trkpt lat="42.57521" lon="-1.2807515">
        <time>2022-07-04T12:31:35Z</time>
      </trkpt>
      <trkpt lat="42.575134" lon="-1.2807415">
        <time>2022-07-04T12:31:37Z</time>
      </trkpt>
      <trkpt lat="42.575066" lon="-1.2807262">
        <time>2022-07-04T12:31:39Z</time>
      </trkpt>
      <trkpt lat="42.57499" lon="-1.2807055">
        <time>2022-07-04T12:31:41Z</time>
      </trkpt>
      <trkpt lat="42.574905" lon="-1.2806865">
        <time>2022-07-04T12:31:43Z</time>
      </trkpt>
      <trkpt lat="42.574814" lon="-1.2806822">
        <time>2022-07-04T12:31:45Z</time>
      </trkpt>
      <trkpt lat="42.57472" lon="-1.2806835">
        <time>2022-07-04T12:31:47Z</time>
      </trkpt>
      <trkpt lat="42.574665" lon="-1.2806841">
        <time>2022-07-04T12:31:48Z</time>
      </trkpt>
      <trkpt lat="42.574562" lon="-1.2806882">
        <time>2022-07-04T12:31:50Z</time>
      </trkpt>
      <trkpt lat="42.57451" lon="-1.2806891">
        <time>2022-07-04T12:31:51Z</time>
      </trkpt>
      <trkpt lat="42.574455" lon="-1.2806885">
        <time>2022-07-04T12:31:52Z</time>
      </trkpt>
      <trkpt lat="42.574337" lon="-1.2806962">
        <time>2022-07-04T12:31:54Z</time>
      </trkpt>
      <trkpt lat="42.574287" lon="-1.2806952">
        <time>2022-07-04T12:31:55Z</time>
      </trkpt>
      <trkpt lat="42.574238" lon="-1.2806932">
        <time>2022-07-04T12:31:56Z</time>
      </trkpt>
      <trkpt lat="42.57414" lon="-1.2806802">
        <time>2022-07-04T12:31:58Z</time>
      </trkpt>
      <trkpt lat="42.574085" lon="-1.2806722">
        <time>2022-07-04T12:31:59Z</time>
      </trkpt>
      <trkpt lat="42.57403" lon="-1.2806702">
        <time>2022-07-04T12:32:00Z</time>
      </trkpt>
      <trkpt lat="42.573982" lon="-1.2806681">
        <time>2022-07-04T12:32:01Z</time>
      </trkpt>
      <trkpt lat="42.57393" lon="-1.2806668">
        <time>2022-07-04T12:32:02Z</time>
      </trkpt>
      <trkpt lat="42.573826" lon="-1.2806724">
        <time>2022-07-04T12:32:04Z</time>
      </trkpt>
      <trkpt lat="42.573776" lon="-1.2806741">
        <time>2022-07-04T12:32:05Z</time>
      </trkpt>
      <trkpt lat="42.57368" lon="-1.2806741">
        <time>2022-07-04T12:32:07Z</time>
      </trkpt>
      <trkpt lat="42.57358" lon="-1.2806722">
        <time>2022-07-04T12:32:09Z</time>
      </trkpt>
      <trkpt lat="42.573532" lon="-1.2806708">
        <time>2022-07-04T12:32:10Z</time>
      </trkpt>
      <trkpt lat="42.57343" lon="-1.2806648">
        <time>2022-07-04T12:32:12Z</time>
      </trkpt>
      <trkpt lat="42.573376" lon="-1.2806635">
        <time>2022-07-04T12:32:13Z</time>
      </trkpt>
      <trkpt lat="42.573322" lon="-1.2806648">
        <time>2022-07-04T12:32:14Z</time>
      </trkpt>
      <trkpt lat="42.573273" lon="-1.2806648">
        <time>2022-07-04T12:32:15Z</time>
      </trkpt>
      <trkpt lat="42.57317" lon="-1.2806609">
        <time>2022-07-04T12:32:17Z</time>
      </trkpt>
      <trkpt lat="42.57312" lon="-1.2806588">
        <time>2022-07-04T12:32:18Z</time>
      </trkpt>
      <trkpt lat="42.57302" lon="-1.2806545">
        <time>2022-07-04T12:32:20Z</time>
      </trkpt>
      <trkpt lat="42.572914" lon="-1.2806522">
        <time>2022-07-04T12:32:22Z</time>
      </trkpt>
      <trkpt lat="42.57286" lon="-1.2806488">
        <time>2022-07-04T12:32:23Z</time>
      </trkpt>
      <trkpt lat="42.57281" lon="-1.2806458">
        <time>2022-07-04T12:32:24Z</time>
      </trkpt>
      <trkpt lat="42.57271" lon="-1.2806399">
        <time>2022-07-04T12:32:26Z</time>
      </trkpt>
      <trkpt lat="42.57266" lon="-1.2806385">
        <time>2022-07-04T12:32:27Z</time>
      </trkpt>
      <trkpt lat="42.57256" lon="-1.2806362">
        <time>2022-07-04T12:32:29Z</time>
      </trkpt>
      <trkpt lat="42.57246" lon="-1.2806375">
        <time>2022-07-04T12:32:31Z</time>
      </trkpt>
      <trkpt lat="42.57236" lon="-1.2806318">
        <time>2022-07-04T12:32:33Z</time>
      </trkpt>
      <trkpt lat="42.57227" lon="-1.2806228">
        <time>2022-07-04T12:32:35Z</time>
      </trkpt>
      <trkpt lat="42.572224" lon="-1.2806195">
        <time>2022-07-04T12:32:36Z</time>
      </trkpt>
      <trkpt lat="42.572132" lon="-1.2806162">
        <time>2022-07-04T12:32:38Z</time>
      </trkpt>
      <trkpt lat="42.572052" lon="-1.2806091">
        <time>2022-07-04T12:32:40Z</time>
      </trkpt>
      <trkpt lat="42.57197" lon="-1.2806015">
        <time>2022-07-04T12:32:42Z</time>
      </trkpt>
      <trkpt lat="42.571896" lon="-1.2805985">
        <time>2022-07-04T12:32:44Z</time>
      </trkpt>
      <trkpt lat="42.571823" lon="-1.2805961">
        <time>2022-07-04T12:32:46Z</time>
      </trkpt>
      <trkpt lat="42.57175" lon="-1.2805922">
        <time>2022-07-04T12:32:49Z</time>
      </trkpt>
      <trkpt lat="42.571682" lon="-1.2805889">
        <time>2022-07-04T12:32:51Z</time>
      </trkpt>
      <trkpt lat="42.57162" lon="-1.2805855">
        <time>2022-07-04T12:32:53Z</time>
      </trkpt>
      <trkpt lat="42.571564" lon="-1.2805859">
        <time>2022-07-04T12:32:55Z</time>
      </trkpt>
      <trkpt lat="42.571503" lon="-1.2805935">
        <time>2022-07-04T12:32:57Z</time>
      </trkpt>
      <trkpt lat="42.571445" lon="-1.2806011">
        <time>2022-07-04T12:32:59Z</time>
      </trkpt>
      <trkpt lat="42.571392" lon="-1.2806115">
        <time>2022-07-04T12:33:01Z</time>
      </trkpt>
      <trkpt lat="42.571346" lon="-1.2806236">
        <time>2022-07-04T12:33:03Z</time>
      </trkpt>
      <trkpt lat="42.571274" lon="-1.2806399">
        <time>2022-07-04T12:33:06Z</time>
      </trkpt>
      <trkpt lat="42.57122" lon="-1.2806479">
        <time>2022-07-04T12:33:08Z</time>
      </trkpt>
      <trkpt lat="42.571148" lon="-1.2806598">
        <time>2022-07-04T12:33:11Z</time>
      </trkpt>
      <trkpt lat="42.57108" lon="-1.2806705">
        <time>2022-07-04T12:33:14Z</time>
      </trkpt>
      <trkpt lat="42.57102" lon="-1.2806845">
        <time>2022-07-04T12:33:17Z</time>
      </trkpt>
      <trkpt lat="42.57097" lon="-1.2806985">
        <time>2022-07-04T12:33:20Z</time>
      </trkpt>
      <trkpt lat="42.571003" lon="-1.2806839">
        <time>2022-07-04T12:34:13Z</time>
      </trkpt>
      <trkpt lat="42.57107" lon="-1.2806755">
        <time>2022-07-04T12:34:17Z</time>
      </trkpt>
      <trkpt lat="42.57113" lon="-1.2806702">
        <time>2022-07-04T12:34:20Z</time>
      </trkpt>
      <trkpt lat="42.571186" lon="-1.2806631">
        <time>2022-07-04T12:34:23Z</time>
      </trkpt>
      <trkpt lat="42.571243" lon="-1.2806518">
        <time>2022-07-04T12:34:26Z</time>
      </trkpt>
      <trkpt lat="42.571293" lon="-1.2805998">
        <time>2022-07-04T12:34:30Z</time>
      </trkpt>
      <trkpt lat="42.57132" lon="-1.2805319">
        <time>2022-07-04T12:34:33Z</time>
      </trkpt>
      <trkpt lat="42.571323" lon="-1.2804439">
        <time>2022-07-04T12:34:36Z</time>
      </trkpt>
      <trkpt lat="42.571297" lon="-1.2803532">
        <time>2022-07-04T12:34:39Z</time>
      </trkpt>
      <trkpt lat="42.57126" lon="-1.2802732">
        <time>2022-07-04T12:34:42Z</time>
      </trkpt>
      <trkpt lat="42.571217" lon="-1.2801852">
        <time>2022-07-04T12:34:45Z</time>
      </trkpt>
      <trkpt lat="42.571194" lon="-1.2801282">
        <time>2022-07-04T12:34:47Z</time>
      </trkpt>
      <trkpt lat="42.571148" lon="-1.2800385">
        <time>2022-07-04T12:34:50Z</time>
      </trkpt>
      <trkpt lat="42.571117" lon="-1.2799739">
        <time>2022-07-04T12:34:52Z</time>
      </trkpt>
      <trkpt lat="42.571095" lon="-1.2799159">
        <time>2022-07-04T12:34:54Z</time>
      </trkpt>
      <trkpt lat="42.571064" lon="-1.2798586">
        <time>2022-07-04T12:34:56Z</time>
      </trkpt>
      <trkpt lat="42.571022" lon="-1.2797703">
        <time>2022-07-04T12:34:59Z</time>
      </trkpt>
      <trkpt lat="42.570995" lon="-1.2797112">
        <time>2022-07-04T12:35:01Z</time>
      </trkpt>
      <trkpt lat="42.570972" lon="-1.2796539">
        <time>2022-07-04T12:35:03Z</time>
      </trkpt>
      <trkpt lat="42.570934" lon="-1.2795709">
        <time>2022-07-04T12:35:06Z</time>
      </trkpt>
      <trkpt lat="42.570904" lon="-1.2794999">
        <time>2022-07-04T12:35:09Z</time>
      </trkpt>
      <trkpt lat="42.570873" lon="-1.2794299">
        <time>2022-07-04T12:35:12Z</time>
      </trkpt>
      <trkpt lat="42.57084" lon="-1.2793579">
        <time>2022-07-04T12:35:15Z</time>
      </trkpt>
      <trkpt lat="42.57081" lon="-1.2792865">
        <time>2022-07-04T12:35:18Z</time>
      </trkpt>
      <trkpt lat="42.57079" lon="-1.2792122">
        <time>2022-07-04T12:35:21Z</time>
      </trkpt>
      <trkpt lat="42.57077" lon="-1.2791369">
        <time>2022-07-04T12:35:24Z</time>
      </trkpt>
      <trkpt lat="42.570755" lon="-1.2790586">
        <time>2022-07-04T12:35:27Z</time>
      </trkpt>
      <trkpt lat="42.570744" lon="-1.2789825">
        <time>2022-07-04T12:35:30Z</time>
      </trkpt>
      <trkpt lat="42.570724" lon="-1.2789103">
        <time>2022-07-04T12:35:33Z</time>
      </trkpt>
      <trkpt lat="42.570698" lon="-1.2788439">
        <time>2022-07-04T12:35:36Z</time>
      </trkpt>
      <trkpt lat="42.57068" lon="-1.2787765">
        <time>2022-07-04T12:35:39Z</time>
      </trkpt>
      <trkpt lat="42.57066" lon="-1.2787073">
        <time>2022-07-04T12:35:42Z</time>
      </trkpt>
      <trkpt lat="42.570637" lon="-1.2786292">
        <time>2022-07-04T12:35:46Z</time>
      </trkpt>
      <trkpt lat="42.570614" lon="-1.2785475">
        <time>2022-07-04T12:35:50Z</time>
      </trkpt>
      <trkpt lat="42.570606" lon="-1.2784799">
        <time>2022-07-04T12:35:53Z</time>
      </trkpt>
      <trkpt lat="42.570595" lon="-1.2783992">
        <time>2022-07-04T12:35:57Z</time>
      </trkpt>
      <trkpt lat="42.570583" lon="-1.2783393">
        <time>2022-07-04T12:36:00Z</time>
      </trkpt>
      <trkpt lat="42.570564" lon="-1.2782563">
        <time>2022-07-04T12:36:04Z</time>
      </trkpt>
      <trkpt lat="42.570545" lon="-1.278176">
        <time>2022-07-04T12:36:08Z</time>
      </trkpt>
      <trkpt lat="42.570526" lon="-1.278117">
        <time>2022-07-04T12:36:11Z</time>
      </trkpt>
      <trkpt lat="42.570503" lon="-1.2780333">
        <time>2022-07-04T12:36:15Z</time>
      </trkpt>
      <trkpt lat="42.57048" lon="-1.2779453">
        <time>2022-07-04T12:36:19Z</time>
      </trkpt>
      <trkpt lat="42.57047" lon="-1.2778786">
        <time>2022-07-04T12:36:22Z</time>
      </trkpt>
      <trkpt lat="42.570454" lon="-1.2778063">
        <time>2022-07-04T12:36:25Z</time>
      </trkpt>
      <trkpt lat="42.570435" lon="-1.2777389">
        <time>2022-07-04T12:36:28Z</time>
      </trkpt>
      <trkpt lat="42.570423" lon="-1.2776693">
        <time>2022-07-04T12:36:31Z</time>
      </trkpt>
      <trkpt lat="42.57041" lon="-1.2776036">
        <time>2022-07-04T12:36:34Z</time>
      </trkpt>
      <trkpt lat="42.570393" lon="-1.2775173">
        <time>2022-07-04T12:36:38Z</time>
      </trkpt>
      <trkpt lat="42.57038" lon="-1.277449">
        <time>2022-07-04T12:36:41Z</time>
      </trkpt>
      <trkpt lat="42.570354" lon="-1.2773643">
        <time>2022-07-04T12:36:45Z</time>
      </trkpt>
      <trkpt lat="42.57033" lon="-1.2773006">
        <time>2022-07-04T12:36:48Z</time>
      </trkpt>
      <trkpt lat="42.57032" lon="-1.2772326">
        <time>2022-07-04T12:36:51Z</time>
      </trkpt>
      <trkpt lat="42.57031" lon="-1.277162">
        <time>2022-07-04T12:36:54Z</time>
      </trkpt>
      <trkpt lat="42.570305" lon="-1.277066">
        <time>2022-07-04T12:36:58Z</time>
      </trkpt>
      <trkpt lat="42.5703" lon="-1.276994">
        <time>2022-07-04T12:37:01Z</time>
      </trkpt>
      <trkpt lat="42.570286" lon="-1.2769257">
        <time>2022-07-04T12:37:04Z</time>
      </trkpt>
      <trkpt lat="42.57028" lon="-1.2768533">
        <time>2022-07-04T12:37:07Z</time>
      </trkpt>
      <trkpt lat="42.570274" lon="-1.2767793">
        <time>2022-07-04T12:37:10Z</time>
      </trkpt>
      <trkpt lat="42.57027" lon="-1.2767056">
        <time>2022-07-04T12:37:13Z</time>
      </trkpt>
      <trkpt lat="42.57026" lon="-1.2766336">
        <time>2022-07-04T12:37:16Z</time>
      </trkpt>
      <trkpt lat="42.570255" lon="-1.2765601">
        <time>2022-07-04T12:37:19Z</time>
      </trkpt>
      <trkpt lat="42.570255" lon="-1.2764866">
        <time>2022-07-04T12:37:22Z</time>
      </trkpt>
      <trkpt lat="42.570244" lon="-1.2764174">
        <time>2022-07-04T12:37:25Z</time>
      </trkpt>
      <trkpt lat="42.570236" lon="-1.27635">
        <time>2022-07-04T12:37:28Z</time>
      </trkpt>
      <trkpt lat="42.570225" lon="-1.2762784">
        <time>2022-07-04T12:37:31Z</time>
      </trkpt>
      <trkpt lat="42.57021" lon="-1.2762103">
        <time>2022-07-04T12:37:34Z</time>
      </trkpt>
      <trkpt lat="42.57019" lon="-1.2761184">
        <time>2022-07-04T12:37:38Z</time>
      </trkpt>
      <trkpt lat="42.57018" lon="-1.2760483">
        <time>2022-07-04T12:37:41Z</time>
      </trkpt>
      <trkpt lat="42.570168" lon="-1.2759767">
        <time>2022-07-04T12:37:44Z</time>
      </trkpt>
      <trkpt lat="42.570164" lon="-1.2759027">
        <time>2022-07-04T12:37:47Z</time>
      </trkpt>
      <trkpt lat="42.570156" lon="-1.275827">
        <time>2022-07-04T12:37:50Z</time>
      </trkpt>
      <trkpt lat="42.570152" lon="-1.275755">
        <time>2022-07-04T12:37:53Z</time>
      </trkpt>
      <trkpt lat="42.57015" lon="-1.2756801">
        <time>2022-07-04T12:37:56Z</time>
      </trkpt>
      <trkpt lat="42.57015" lon="-1.2756034">
        <time>2022-07-04T12:37:59Z</time>
      </trkpt>
      <trkpt lat="42.57016" lon="-1.2755251">
        <time>2022-07-04T12:38:02Z</time>
      </trkpt>
      <trkpt lat="42.57017" lon="-1.2754468">
        <time>2022-07-04T12:38:05Z</time>
      </trkpt>
      <trkpt lat="42.570187" lon="-1.2753748">
        <time>2022-07-04T12:38:08Z</time>
      </trkpt>
      <trkpt lat="42.5702" lon="-1.2753011">
        <time>2022-07-04T12:38:11Z</time>
      </trkpt>
      <trkpt lat="42.570213" lon="-1.2752278">
        <time>2022-07-04T12:38:14Z</time>
      </trkpt>
      <trkpt lat="42.57022" lon="-1.275153">
        <time>2022-07-04T12:38:17Z</time>
      </trkpt>
      <trkpt lat="42.570225" lon="-1.2750771">
        <time>2022-07-04T12:38:20Z</time>
      </trkpt>
      <trkpt lat="42.57023" lon="-1.2749984">
        <time>2022-07-04T12:38:23Z</time>
      </trkpt>
      <trkpt lat="42.570236" lon="-1.2749227">
        <time>2022-07-04T12:38:26Z</time>
      </trkpt>
      <trkpt lat="42.570255" lon="-1.2748544">
        <time>2022-07-04T12:38:29Z</time>
      </trkpt>
      <trkpt lat="42.57027" lon="-1.2747871">
        <time>2022-07-04T12:38:32Z</time>
      </trkpt>
      <trkpt lat="42.570267" lon="-1.2746931">
        <time>2022-07-04T12:38:36Z</time>
      </trkpt>
      <trkpt lat="42.570263" lon="-1.2746204">
        <time>2022-07-04T12:38:39Z</time>
      </trkpt>
      <trkpt lat="42.570263" lon="-1.2745445">
        <time>2022-07-04T12:38:42Z</time>
      </trkpt>
      <trkpt lat="42.570263" lon="-1.2744595">
        <time>2022-07-04T12:38:45Z</time>
      </trkpt>
      <trkpt lat="42.570255" lon="-1.2743741">
        <time>2022-07-04T12:38:48Z</time>
      </trkpt>
      <trkpt lat="42.570244" lon="-1.2742914">
        <time>2022-07-04T12:38:51Z</time>
      </trkpt>
      <trkpt lat="42.570232" lon="-1.2742078">
        <time>2022-07-04T12:38:54Z</time>
      </trkpt>
      <trkpt lat="42.57022" lon="-1.2741238">
        <time>2022-07-04T12:38:57Z</time>
      </trkpt>
      <trkpt lat="42.570217" lon="-1.2740375">
        <time>2022-07-04T12:39:00Z</time>
      </trkpt>
      <trkpt lat="42.57021" lon="-1.2739508">
        <time>2022-07-04T12:39:03Z</time>
      </trkpt>
      <trkpt lat="42.57019" lon="-1.2738621">
        <time>2022-07-04T12:39:06Z</time>
      </trkpt>
      <trkpt lat="42.570175" lon="-1.2737762">
        <time>2022-07-04T12:39:09Z</time>
      </trkpt>
      <trkpt lat="42.570156" lon="-1.2736892">
        <time>2022-07-04T12:39:12Z</time>
      </trkpt>
      <trkpt lat="42.57013" lon="-1.2736058">
        <time>2022-07-04T12:39:15Z</time>
      </trkpt>
      <trkpt lat="42.570103" lon="-1.2735181">
        <time>2022-07-04T12:39:18Z</time>
      </trkpt>
      <trkpt lat="42.570084" lon="-1.2734575">
        <time>2022-07-04T12:39:20Z</time>
      </trkpt>
      <trkpt lat="42.570053" lon="-1.2733688">
        <time>2022-07-04T12:39:23Z</time>
      </trkpt>
      <trkpt lat="42.570023" lon="-1.2732764">
        <time>2022-07-04T12:39:26Z</time>
      </trkpt>
      <trkpt lat="42.57" lon="-1.2732128">
        <time>2022-07-04T12:39:28Z</time>
      </trkpt>
      <trkpt lat="42.569977" lon="-1.2731482">
        <time>2022-07-04T12:39:30Z</time>
      </trkpt>
      <trkpt lat="42.569946" lon="-1.2730525">
        <time>2022-07-04T12:39:33Z</time>
      </trkpt>
      <trkpt lat="42.56992" lon="-1.2729725">
        <time>2022-07-04T12:39:36Z</time>
      </trkpt>
      <trkpt lat="42.5699" lon="-1.2728925">
        <time>2022-07-04T12:39:39Z</time>
      </trkpt>
      <trkpt lat="42.569874" lon="-1.2727985">
        <time>2022-07-04T12:39:42Z</time>
      </trkpt>
      <trkpt lat="42.56985" lon="-1.2727286">
        <time>2022-07-04T12:39:44Z</time>
      </trkpt>
      <trkpt lat="42.569828" lon="-1.2726592">
        <time>2022-07-04T12:39:46Z</time>
      </trkpt>
      <trkpt lat="42.569805" lon="-1.2725868">
        <time>2022-07-04T12:39:48Z</time>
      </trkpt>
      <trkpt lat="42.569786" lon="-1.2725155">
        <time>2022-07-04T12:39:50Z</time>
      </trkpt>
      <trkpt lat="42.569767" lon="-1.2724382">
        <time>2022-07-04T12:39:52Z</time>
      </trkpt>
      <trkpt lat="42.569744" lon="-1.2723622">
        <time>2022-07-04T12:39:54Z</time>
      </trkpt>
      <trkpt lat="42.56972" lon="-1.2722882">
        <time>2022-07-04T12:39:56Z</time>
      </trkpt>
      <trkpt lat="42.5697" lon="-1.2722112">
        <time>2022-07-04T12:39:58Z</time>
      </trkpt>
      <trkpt lat="42.56967" lon="-1.2721322">
        <time>2022-07-04T12:40:00Z</time>
      </trkpt>
      <trkpt lat="42.56964" lon="-1.2720509">
        <time>2022-07-04T12:40:02Z</time>
      </trkpt>
      <trkpt lat="42.569614" lon="-1.2719679">
        <time>2022-07-04T12:40:04Z</time>
      </trkpt>
      <trkpt lat="42.56958" lon="-1.2718849">
        <time>2022-07-04T12:40:06Z</time>
      </trkpt>
      <trkpt lat="42.56955" lon="-1.2718031">
        <time>2022-07-04T12:40:08Z</time>
      </trkpt>
      <trkpt lat="42.569515" lon="-1.2717198">
        <time>2022-07-04T12:40:10Z</time>
      </trkpt>
      <trkpt lat="42.569477" lon="-1.2716359">
        <time>2022-07-04T12:40:12Z</time>
      </trkpt>
      <trkpt lat="42.56944" lon="-1.2715522">
        <time>2022-07-04T12:40:14Z</time>
      </trkpt>
      <trkpt lat="42.5694" lon="-1.2714672">
        <time>2022-07-04T12:40:16Z</time>
      </trkpt>
      <trkpt lat="42.569363" lon="-1.2713842">
        <time>2022-07-04T12:40:18Z</time>
      </trkpt>
      <trkpt lat="42.569324" lon="-1.2713048">
        <time>2022-07-04T12:40:20Z</time>
      </trkpt>
      <trkpt lat="42.56928" lon="-1.2712256">
        <time>2022-07-04T12:40:22Z</time>
      </trkpt>
      <trkpt lat="42.569237" lon="-1.2711486">
        <time>2022-07-04T12:40:24Z</time>
      </trkpt>
      <trkpt lat="42.569195" lon="-1.2710712">
        <time>2022-07-04T12:40:26Z</time>
      </trkpt>
      <trkpt lat="42.569153" lon="-1.2709929">
        <time>2022-07-04T12:40:28Z</time>
      </trkpt>
      <trkpt lat="42.569107" lon="-1.2709169">
        <time>2022-07-04T12:40:30Z</time>
      </trkpt>
      <trkpt lat="42.569065" lon="-1.2708409">
        <time>2022-07-04T12:40:32Z</time>
      </trkpt>
      <trkpt lat="42.56902" lon="-1.2707666">
        <time>2022-07-04T12:40:34Z</time>
      </trkpt>
      <trkpt lat="42.568974" lon="-1.2706943">
        <time>2022-07-04T12:40:36Z</time>
      </trkpt>
      <trkpt lat="42.568913" lon="-1.2705829">
        <time>2022-07-04T12:40:39Z</time>
      </trkpt>
      <trkpt lat="42.568867" lon="-1.2705046">
        <time>2022-07-04T12:40:41Z</time>
      </trkpt>
      <trkpt lat="42.568817" lon="-1.270425">
        <time>2022-07-04T12:40:43Z</time>
      </trkpt>
      <trkpt lat="42.568764" lon="-1.2703449">
        <time>2022-07-04T12:40:45Z</time>
      </trkpt>
      <trkpt lat="42.568714" lon="-1.2702636">
        <time>2022-07-04T12:40:47Z</time>
      </trkpt>
      <trkpt lat="42.568657" lon="-1.2701836">
        <time>2022-07-04T12:40:49Z</time>
      </trkpt>
      <trkpt lat="42.568604" lon="-1.2701026">
        <time>2022-07-04T12:40:51Z</time>
      </trkpt>
      <trkpt lat="42.56855" lon="-1.2700186">
        <time>2022-07-04T12:40:53Z</time>
      </trkpt>
      <trkpt lat="42.568497" lon="-1.2699319">
        <time>2022-07-04T12:40:55Z</time>
      </trkpt>
      <trkpt lat="42.568443" lon="-1.2698452">
        <time>2022-07-04T12:40:57Z</time>
      </trkpt>
      <trkpt lat="42.56839" lon="-1.2697589">
        <time>2022-07-04T12:40:59Z</time>
      </trkpt>
      <trkpt lat="42.568333" lon="-1.2696713">
        <time>2022-07-04T12:41:01Z</time>
      </trkpt>
      <trkpt lat="42.568275" lon="-1.2695843">
        <time>2022-07-04T12:41:03Z</time>
      </trkpt>
      <trkpt lat="42.568222" lon="-1.2694982">
        <time>2022-07-04T12:41:05Z</time>
      </trkpt>
      <trkpt lat="42.568165" lon="-1.2694099">
        <time>2022-07-04T12:41:07Z</time>
      </trkpt>
      <trkpt lat="42.568108" lon="-1.2693297">
        <time>2022-07-04T12:41:09Z</time>
      </trkpt>
      <trkpt lat="42.568043" lon="-1.2692543">
        <time>2022-07-04T12:41:11Z</time>
      </trkpt>
      <trkpt lat="42.56798" lon="-1.2691773">
        <time>2022-07-04T12:41:13Z</time>
      </trkpt>
      <trkpt lat="42.56792" lon="-1.2690959">
        <time>2022-07-04T12:41:15Z</time>
      </trkpt>
      <trkpt lat="42.567863" lon="-1.2690107">
        <time>2022-07-04T12:41:17Z</time>
      </trkpt>
      <trkpt lat="42.567806" lon="-1.2689242">
        <time>2022-07-04T12:41:19Z</time>
      </trkpt>
      <trkpt lat="42.567745" lon="-1.26884">
        <time>2022-07-04T12:41:21Z</time>
      </trkpt>
      <trkpt lat="42.567688" lon="-1.268752">
        <time>2022-07-04T12:41:23Z</time>
      </trkpt>
      <trkpt lat="42.567627" lon="-1.26866">
        <time>2022-07-04T12:41:25Z</time>
      </trkpt>
      <trkpt lat="42.56757" lon="-1.2685673">
        <time>2022-07-04T12:41:27Z</time>
      </trkpt>
      <trkpt lat="42.567516" lon="-1.2684712">
        <time>2022-07-04T12:41:29Z</time>
      </trkpt>
      <trkpt lat="42.56746" lon="-1.2683764">
        <time>2022-07-04T12:41:31Z</time>
      </trkpt>
      <trkpt lat="42.56741" lon="-1.268293">
        <time>2022-07-04T12:41:33Z</time>
      </trkpt>
      <trkpt lat="42.567368" lon="-1.268224">
        <time>2022-07-04T12:41:35Z</time>
      </trkpt>
      <trkpt lat="42.56733" lon="-1.268166">
        <time>2022-07-04T12:41:37Z</time>
      </trkpt>
      <trkpt lat="42.567284" lon="-1.2680919">
        <time>2022-07-04T12:41:40Z</time>
      </trkpt>
      <trkpt lat="42.567257" lon="-1.2680249">
        <time>2022-07-04T12:41:43Z</time>
      </trkpt>
      <trkpt lat="42.56723" lon="-1.2679616">
        <time>2022-07-04T12:41:46Z</time>
      </trkpt>
      <trkpt lat="42.567196" lon="-1.2679054">
        <time>2022-07-04T12:41:50Z</time>
      </trkpt>
      <trkpt lat="42.567215" lon="-1.2679703">
        <time>2022-07-04T12:42:45Z</time>
      </trkpt>
      <trkpt lat="42.56727" lon="-1.2680563">
        <time>2022-07-04T12:42:48Z</time>
      </trkpt>
      <trkpt lat="42.567307" lon="-1.2681214">
        <time>2022-07-04T12:42:50Z</time>
      </trkpt>
      <trkpt lat="42.567345" lon="-1.268188">
        <time>2022-07-04T12:42:52Z</time>
      </trkpt>
      <trkpt lat="42.567387" lon="-1.2682563">
        <time>2022-07-04T12:42:54Z</time>
      </trkpt>
      <trkpt lat="42.56743" lon="-1.268324">
        <time>2022-07-04T12:42:56Z</time>
      </trkpt>
      <trkpt lat="42.56747" lon="-1.2683899">
        <time>2022-07-04T12:42:58Z</time>
      </trkpt>
      <trkpt lat="42.567516" lon="-1.268451">
        <time>2022-07-04T12:43:00Z</time>
      </trkpt>
      <trkpt lat="42.567554" lon="-1.2685126">
        <time>2022-07-04T12:43:02Z</time>
      </trkpt>
      <trkpt lat="42.567596" lon="-1.268577">
        <time>2022-07-04T12:43:04Z</time>
      </trkpt>
      <trkpt lat="42.56764" lon="-1.2686412">
        <time>2022-07-04T12:43:06Z</time>
      </trkpt>
      <trkpt lat="42.567684" lon="-1.2687073">
        <time>2022-07-04T12:43:08Z</time>
      </trkpt>
      <trkpt lat="42.567726" lon="-1.2687743">
        <time>2022-07-04T12:43:10Z</time>
      </trkpt>
      <trkpt lat="42.567772" lon="-1.2688392">
        <time>2022-07-04T12:43:12Z</time>
      </trkpt>
      <trkpt lat="42.567818" lon="-1.268907">
        <time>2022-07-04T12:43:14Z</time>
      </trkpt>
      <trkpt lat="42.567863" lon="-1.2689795">
        <time>2022-07-04T12:43:16Z</time>
      </trkpt>
      <trkpt lat="42.567913" lon="-1.2690523">
        <time>2022-07-04T12:43:18Z</time>
      </trkpt>
      <trkpt lat="42.567963" lon="-1.2691236">
        <time>2022-07-04T12:43:20Z</time>
      </trkpt>
      <trkpt lat="42.568012" lon="-1.269195">
        <time>2022-07-04T12:43:22Z</time>
      </trkpt>
      <trkpt lat="42.56806" lon="-1.2692679">
        <time>2022-07-04T12:43:24Z</time>
      </trkpt>
      <trkpt lat="42.568115" lon="-1.269342">
        <time>2022-07-04T12:43:26Z</time>
      </trkpt>
      <trkpt lat="42.568165" lon="-1.2694182">
        <time>2022-07-04T12:43:28Z</time>
      </trkpt>
      <trkpt lat="42.56822" lon="-1.2694966">
        <time>2022-07-04T12:43:30Z</time>
      </trkpt>
      <trkpt lat="42.56827" lon="-1.2695752">
        <time>2022-07-04T12:43:32Z</time>
      </trkpt>
      <trkpt lat="42.568325" lon="-1.2696543">
        <time>2022-07-04T12:43:34Z</time>
      </trkpt>
      <trkpt lat="42.56838" lon="-1.2697349">
        <time>2022-07-04T12:43:36Z</time>
      </trkpt>
      <trkpt lat="42.568428" lon="-1.2698165">
        <time>2022-07-04T12:43:38Z</time>
      </trkpt>
      <trkpt lat="42.568478" lon="-1.2698976">
        <time>2022-07-04T12:43:40Z</time>
      </trkpt>
      <trkpt lat="42.56853" lon="-1.2699792">
        <time>2022-07-04T12:43:42Z</time>
      </trkpt>
      <trkpt lat="42.56858" lon="-1.2700579">
        <time>2022-07-04T12:43:44Z</time>
      </trkpt>
      <trkpt lat="42.568634" lon="-1.2701372">
        <time>2022-07-04T12:43:46Z</time>
      </trkpt>
      <trkpt lat="42.568684" lon="-1.2702168">
        <time>2022-07-04T12:43:48Z</time>
      </trkpt>
      <trkpt lat="42.56876" lon="-1.2703365">
        <time>2022-07-04T12:43:51Z</time>
      </trkpt>
      <trkpt lat="42.56881" lon="-1.2704142">
        <time>2022-07-04T12:43:53Z</time>
      </trkpt>
      <trkpt lat="42.568863" lon="-1.2704892">
        <time>2022-07-04T12:43:55Z</time>
      </trkpt>
      <trkpt lat="42.568916" lon="-1.2705638">
        <time>2022-07-04T12:43:57Z</time>
      </trkpt>
      <trkpt lat="42.56897" lon="-1.2706385">
        <time>2022-07-04T12:43:59Z</time>
      </trkpt>
      <trkpt lat="42.569023" lon="-1.2707168">
        <time>2022-07-04T12:44:01Z</time>
      </trkpt>
      <trkpt lat="42.569077" lon="-1.2707978">
        <time>2022-07-04T12:44:03Z</time>
      </trkpt>
      <trkpt lat="42.56913" lon="-1.2708799">
        <time>2022-07-04T12:44:05Z</time>
      </trkpt>
      <trkpt lat="42.569183" lon="-1.2709665">
        <time>2022-07-04T12:44:07Z</time>
      </trkpt>
      <trkpt lat="42.569233" lon="-1.2710502">
        <time>2022-07-04T12:44:09Z</time>
      </trkpt>
      <trkpt lat="42.569283" lon="-1.2711368">
        <time>2022-07-04T12:44:11Z</time>
      </trkpt>
      <trkpt lat="42.569336" lon="-1.2712299">
        <time>2022-07-04T12:44:13Z</time>
      </trkpt>
      <trkpt lat="42.569386" lon="-1.2713281">
        <time>2022-07-04T12:44:15Z</time>
      </trkpt>
      <trkpt lat="42.569435" lon="-1.2714281">
        <time>2022-07-04T12:44:17Z</time>
      </trkpt>
      <trkpt lat="42.56948" lon="-1.2715268">
        <time>2022-07-04T12:44:19Z</time>
      </trkpt>
      <trkpt lat="42.569523" lon="-1.2716241">
        <time>2022-07-04T12:44:21Z</time>
      </trkpt>
      <trkpt lat="42.56957" lon="-1.2717252">
        <time>2022-07-04T12:44:23Z</time>
      </trkpt>
      <trkpt lat="42.569607" lon="-1.2718238">
        <time>2022-07-04T12:44:25Z</time>
      </trkpt>
      <trkpt lat="42.569645" lon="-1.2719171">
        <time>2022-07-04T12:44:27Z</time>
      </trkpt>
      <trkpt lat="42.569675" lon="-1.2720068">
        <time>2022-07-04T12:44:29Z</time>
      </trkpt>
      <trkpt lat="42.569706" lon="-1.2720938">
        <time>2022-07-04T12:44:31Z</time>
      </trkpt>
      <trkpt lat="42.569733" lon="-1.2721812">
        <time>2022-07-04T12:44:33Z</time>
      </trkpt>
      <trkpt lat="42.56976" lon="-1.2722695">
        <time>2022-07-04T12:44:35Z</time>
      </trkpt>
      <trkpt lat="42.569786" lon="-1.2723584">
        <time>2022-07-04T12:44:37Z</time>
      </trkpt>
      <trkpt lat="42.569813" lon="-1.2724531">
        <time>2022-07-04T12:44:39Z</time>
      </trkpt>
      <trkpt lat="42.569836" lon="-1.2725464">
        <time>2022-07-04T12:44:41Z</time>
      </trkpt>
      <trkpt lat="42.569855" lon="-1.2726377">
        <time>2022-07-04T12:44:43Z</time>
      </trkpt>
      <trkpt lat="42.569874" lon="-1.2727258">
        <time>2022-07-04T12:44:45Z</time>
      </trkpt>
      <trkpt lat="42.569904" lon="-1.2728001">
        <time>2022-07-04T12:44:47Z</time>
      </trkpt>
      <trkpt lat="42.569946" lon="-1.2728314">
        <time>2022-07-04T12:44:49Z</time>
      </trkpt>
      <trkpt lat="42.569992" lon="-1.2727811">
        <time>2022-07-04T12:44:52Z</time>
      </trkpt>
      <trkpt lat="42.570023" lon="-1.2726291">
        <time>2022-07-04T12:44:56Z</time>
      </trkpt>
      <trkpt lat="42.570026" lon="-1.2725431">
        <time>2022-07-04T12:44:58Z</time>
      </trkpt>
      <trkpt lat="42.570023" lon="-1.2724471">
        <time>2022-07-04T12:45:00Z</time>
      </trkpt>
      <trkpt lat="42.57002" lon="-1.2723484">
        <time>2022-07-04T12:45:02Z</time>
      </trkpt>
      <trkpt lat="42.570007" lon="-1.27225">
        <time>2022-07-04T12:45:04Z</time>
      </trkpt>
      <trkpt lat="42.569996" lon="-1.2721511">
        <time>2022-07-04T12:45:06Z</time>
      </trkpt>
      <trkpt lat="42.569984" lon="-1.2720491">
        <time>2022-07-04T12:45:08Z</time>
      </trkpt>
      <trkpt lat="42.569977" lon="-1.2719438">
        <time>2022-07-04T12:45:10Z</time>
      </trkpt>
      <trkpt lat="42.56997" lon="-1.2718362">
        <time>2022-07-04T12:45:12Z</time>
      </trkpt>
      <trkpt lat="42.569958" lon="-1.2717317">
        <time>2022-07-04T12:45:14Z</time>
      </trkpt>
      <trkpt lat="42.569954" lon="-1.2716311">
        <time>2022-07-04T12:45:16Z</time>
      </trkpt>
      <trkpt lat="42.56995" lon="-1.2715307">
        <time>2022-07-04T12:45:18Z</time>
      </trkpt>
      <trkpt lat="42.569946" lon="-1.2714342">
        <time>2022-07-04T12:45:20Z</time>
      </trkpt>
      <trkpt lat="42.569946" lon="-1.2713395">
        <time>2022-07-04T12:45:22Z</time>
      </trkpt>
      <trkpt lat="42.569946" lon="-1.2712525">
        <time>2022-07-04T12:45:24Z</time>
      </trkpt>
      <trkpt lat="42.569942" lon="-1.2711685">
        <time>2022-07-04T12:45:26Z</time>
      </trkpt>
      <trkpt lat="42.569942" lon="-1.2710928">
        <time>2022-07-04T12:45:28Z</time>
      </trkpt>
      <trkpt lat="42.56994" lon="-1.2710291">
        <time>2022-07-04T12:45:30Z</time>
      </trkpt>
      <trkpt lat="42.569935" lon="-1.2709535">
        <time>2022-07-04T12:45:33Z</time>
      </trkpt>
      <trkpt lat="42.569984" lon="-1.2709695">
        <time>2022-07-04T12:46:01Z</time>
      </trkpt>
      <trkpt lat="42.57005" lon="-1.2710295">
        <time>2022-07-04T12:46:04Z</time>
      </trkpt>
      <trkpt lat="42.570103" lon="-1.2710748">
        <time>2022-07-04T12:46:06Z</time>
      </trkpt>
      <trkpt lat="42.570152" lon="-1.2711202">
        <time>2022-07-04T12:46:08Z</time>
      </trkpt>
      <trkpt lat="42.570206" lon="-1.2711645">
        <time>2022-07-04T12:46:10Z</time>
      </trkpt>
      <trkpt lat="42.570263" lon="-1.2712078">
        <time>2022-07-04T12:46:12Z</time>
      </trkpt>
      <trkpt lat="42.570316" lon="-1.2712471">
        <time>2022-07-04T12:46:14Z</time>
      </trkpt>
      <trkpt lat="42.570374" lon="-1.2712811">
        <time>2022-07-04T12:46:16Z</time>
      </trkpt>
      <trkpt lat="42.57043" lon="-1.2713171">
        <time>2022-07-04T12:46:18Z</time>
      </trkpt>
      <trkpt lat="42.570484" lon="-1.2713618">
        <time>2022-07-04T12:46:20Z</time>
      </trkpt>
      <trkpt lat="42.570538" lon="-1.2714162">
        <time>2022-07-04T12:46:22Z</time>
      </trkpt>
      <trkpt lat="42.570587" lon="-1.2714765">
        <time>2022-07-04T12:46:24Z</time>
      </trkpt>
      <trkpt lat="42.570644" lon="-1.2715335">
        <time>2022-07-04T12:46:26Z</time>
      </trkpt>
      <trkpt lat="42.5707" lon="-1.2715851">
        <time>2022-07-04T12:46:28Z</time>
      </trkpt>
      <trkpt lat="42.570763" lon="-1.2716352">
        <time>2022-07-04T12:46:30Z</time>
      </trkpt>
      <trkpt lat="42.570827" lon="-1.2716858">
        <time>2022-07-04T12:46:32Z</time>
      </trkpt>
      <trkpt lat="42.57089" lon="-1.2717382">
        <time>2022-07-04T12:46:34Z</time>
      </trkpt>
      <trkpt lat="42.57095" lon="-1.2717898">
        <time>2022-07-04T12:46:36Z</time>
      </trkpt>
      <trkpt lat="42.57101" lon="-1.2718418">
        <time>2022-07-04T12:46:38Z</time>
      </trkpt>
      <trkpt lat="42.571068" lon="-1.2718971">
        <time>2022-07-04T12:46:40Z</time>
      </trkpt>
      <trkpt lat="42.57113" lon="-1.271954">
        <time>2022-07-04T12:46:42Z</time>
      </trkpt>
      <trkpt lat="42.571186" lon="-1.2720118">
        <time>2022-07-04T12:46:44Z</time>
      </trkpt>
      <trkpt lat="42.571243" lon="-1.2720691">
        <time>2022-07-04T12:46:46Z</time>
      </trkpt>
      <trkpt lat="42.5713" lon="-1.2721244">
        <time>2022-07-04T12:46:48Z</time>
      </trkpt>
      <trkpt lat="42.571354" lon="-1.2721834">
        <time>2022-07-04T12:46:50Z</time>
      </trkpt>
      <trkpt lat="42.571404" lon="-1.2722411">
        <time>2022-07-04T12:46:52Z</time>
      </trkpt>
      <trkpt lat="42.571453" lon="-1.272299">
        <time>2022-07-04T12:46:54Z</time>
      </trkpt>
      <trkpt lat="42.5715" lon="-1.2723544">
        <time>2022-07-04T12:46:56Z</time>
      </trkpt>
      <trkpt lat="42.57155" lon="-1.2724098">
        <time>2022-07-04T12:46:58Z</time>
      </trkpt>
      <trkpt lat="42.571594" lon="-1.272459">
        <time>2022-07-04T12:47:00Z</time>
      </trkpt>
      <trkpt lat="42.571663" lon="-1.2725294">
        <time>2022-07-04T12:47:03Z</time>
      </trkpt>
      <trkpt lat="42.571712" lon="-1.2725731">
        <time>2022-07-04T12:47:05Z</time>
      </trkpt>
      <trkpt lat="42.571762" lon="-1.2726188">
        <time>2022-07-04T12:47:07Z</time>
      </trkpt>
      <trkpt lat="42.57181" lon="-1.272667">
        <time>2022-07-04T12:47:09Z</time>
      </trkpt>
      <trkpt lat="42.57186" lon="-1.2727151">
        <time>2022-07-04T12:47:11Z</time>
      </trkpt>
      <trkpt lat="42.571915" lon="-1.2727607">
        <time>2022-07-04T12:47:13Z</time>
      </trkpt>
      <trkpt lat="42.571964" lon="-1.2728097">
        <time>2022-07-04T12:47:15Z</time>
      </trkpt>
      <trkpt lat="42.572014" lon="-1.2728654">
        <time>2022-07-04T12:47:17Z</time>
      </trkpt>
      <trkpt lat="42.572063" lon="-1.2729263">
        <time>2022-07-04T12:47:19Z</time>
      </trkpt>
      <trkpt lat="42.57211" lon="-1.2729887">
        <time>2022-07-04T12:47:21Z</time>
      </trkpt>
      <trkpt lat="42.57215" lon="-1.2730538">
        <time>2022-07-04T12:47:23Z</time>
      </trkpt>
      <trkpt lat="42.572193" lon="-1.2731241">
        <time>2022-07-04T12:47:25Z</time>
      </trkpt>
      <trkpt lat="42.57223" lon="-1.273198">
        <time>2022-07-04T12:47:27Z</time>
      </trkpt>
      <trkpt lat="42.572273" lon="-1.2732711">
        <time>2022-07-04T12:47:29Z</time>
      </trkpt>
      <trkpt lat="42.572308" lon="-1.273344">
        <time>2022-07-04T12:47:31Z</time>
      </trkpt>
      <trkpt lat="42.57235" lon="-1.273416">
        <time>2022-07-04T12:47:33Z</time>
      </trkpt>
      <trkpt lat="42.572388" lon="-1.2734877">
        <time>2022-07-04T12:47:35Z</time>
      </trkpt>
      <trkpt lat="42.572433" lon="-1.27356">
        <time>2022-07-04T12:47:37Z</time>
      </trkpt>
      <trkpt lat="42.572487" lon="-1.273627">
        <time>2022-07-04T12:47:39Z</time>
      </trkpt>
      <trkpt lat="42.57254" lon="-1.273689">
        <time>2022-07-04T12:47:41Z</time>
      </trkpt>
      <trkpt lat="42.572598" lon="-1.2737534">
        <time>2022-07-04T12:47:43Z</time>
      </trkpt>
      <trkpt lat="42.572655" lon="-1.27382">
        <time>2022-07-04T12:47:45Z</time>
      </trkpt>
      <trkpt lat="42.572712" lon="-1.2738876">
        <time>2022-07-04T12:47:47Z</time>
      </trkpt>
      <trkpt lat="42.57277" lon="-1.2739553">
        <time>2022-07-04T12:47:49Z</time>
      </trkpt>
      <trkpt lat="42.57283" lon="-1.27402">
        <time>2022-07-04T12:47:51Z</time>
      </trkpt>
      <trkpt lat="42.572887" lon="-1.274086">
        <time>2022-07-04T12:47:53Z</time>
      </trkpt>
      <trkpt lat="42.572945" lon="-1.2741504">
        <time>2022-07-04T12:47:55Z</time>
      </trkpt>
      <trkpt lat="42.572998" lon="-1.2742196">
        <time>2022-07-04T12:47:57Z</time>
      </trkpt>
      <trkpt lat="42.57305" lon="-1.274295">
        <time>2022-07-04T12:47:59Z</time>
      </trkpt>
      <trkpt lat="42.5731" lon="-1.2743723">
        <time>2022-07-04T12:48:01Z</time>
      </trkpt>
      <trkpt lat="42.573154" lon="-1.274452">
        <time>2022-07-04T12:48:03Z</time>
      </trkpt>
      <trkpt lat="42.57321" lon="-1.2745353">
        <time>2022-07-04T12:48:05Z</time>
      </trkpt>
      <trkpt lat="42.573265" lon="-1.274624">
        <time>2022-07-04T12:48:07Z</time>
      </trkpt>
      <trkpt lat="42.573322" lon="-1.2747113">
        <time>2022-07-04T12:48:09Z</time>
      </trkpt>
      <trkpt lat="42.573383" lon="-1.2747883">
        <time>2022-07-04T12:48:11Z</time>
      </trkpt>
      <trkpt lat="42.573444" lon="-1.2748563">
        <time>2022-07-04T12:48:13Z</time>
      </trkpt>
      <trkpt lat="42.57351" lon="-1.274921">
        <time>2022-07-04T12:48:15Z</time>
      </trkpt>
      <trkpt lat="42.573578" lon="-1.2749803">
        <time>2022-07-04T12:48:17Z</time>
      </trkpt>
      <trkpt lat="42.573647" lon="-1.275031">
        <time>2022-07-04T12:48:19Z</time>
      </trkpt>
      <trkpt lat="42.57372" lon="-1.2750789">
        <time>2022-07-04T12:48:21Z</time>
      </trkpt>
      <trkpt lat="42.573795" lon="-1.2751223">
        <time>2022-07-04T12:48:23Z</time>
      </trkpt>
      <trkpt lat="42.573868" lon="-1.2751629">
        <time>2022-07-04T12:48:25Z</time>
      </trkpt>
      <trkpt lat="42.57394" lon="-1.2752047">
        <time>2022-07-04T12:48:27Z</time>
      </trkpt>
      <trkpt lat="42.574013" lon="-1.2752459">
        <time>2022-07-04T12:48:29Z</time>
      </trkpt>
      <trkpt lat="42.574085" lon="-1.2752869">
        <time>2022-07-04T12:48:31Z</time>
      </trkpt>
      <trkpt lat="42.574158" lon="-1.2753305">
        <time>2022-07-04T12:48:33Z</time>
      </trkpt>
      <trkpt lat="42.574226" lon="-1.2753769">
        <time>2022-07-04T12:48:35Z</time>
      </trkpt>
      <trkpt lat="42.5743" lon="-1.2754229">
        <time>2022-07-04T12:48:37Z</time>
      </trkpt>
      <trkpt lat="42.574375" lon="-1.275466">
        <time>2022-07-04T12:48:39Z</time>
      </trkpt>
      <trkpt lat="42.57445" lon="-1.2755066">
        <time>2022-07-04T12:48:41Z</time>
      </trkpt>
      <trkpt lat="42.574528" lon="-1.2755436">
        <time>2022-07-04T12:48:43Z</time>
      </trkpt>
      <trkpt lat="42.574604" lon="-1.2755812">
        <time>2022-07-04T12:48:45Z</time>
      </trkpt>
      <trkpt lat="42.574677" lon="-1.2756219">
        <time>2022-07-04T12:48:47Z</time>
      </trkpt>
      <trkpt lat="42.574753" lon="-1.2756605">
        <time>2022-07-04T12:48:49Z</time>
      </trkpt>
      <trkpt lat="42.574825" lon="-1.2757002">
        <time>2022-07-04T12:48:51Z</time>
      </trkpt>
      <trkpt lat="42.574898" lon="-1.2757446">
        <time>2022-07-04T12:48:53Z</time>
      </trkpt>
      <trkpt lat="42.574966" lon="-1.2757936">
        <time>2022-07-04T12:48:55Z</time>
      </trkpt>
      <trkpt lat="42.575035" lon="-1.2758435">
        <time>2022-07-04T12:48:57Z</time>
      </trkpt>
      <trkpt lat="42.575104" lon="-1.2758849">
        <time>2022-07-04T12:48:59Z</time>
      </trkpt>
      <trkpt lat="42.575176" lon="-1.2759058">
        <time>2022-07-04T12:49:01Z</time>
      </trkpt>
      <trkpt lat="42.575245" lon="-1.2759069">
        <time>2022-07-04T12:49:03Z</time>
      </trkpt>
      <trkpt lat="42.575317" lon="-1.2758969">
        <time>2022-07-04T12:49:05Z</time>
      </trkpt>
      <trkpt lat="42.575382" lon="-1.2758806">
        <time>2022-07-04T12:49:07Z</time>
      </trkpt>
      <trkpt lat="42.57545" lon="-1.2758589">
        <time>2022-07-04T12:49:09Z</time>
      </trkpt>
      <trkpt lat="42.57551" lon="-1.2758238">
        <time>2022-07-04T12:49:11Z</time>
      </trkpt>
      <trkpt lat="42.575558" lon="-1.2757329">
        <time>2022-07-04T12:49:14Z</time>
      </trkpt>
      <trkpt lat="42.575577" lon="-1.2756592">
        <time>2022-07-04T12:49:16Z</time>
      </trkpt>
      <trkpt lat="42.575592" lon="-1.2755799">
        <time>2022-07-04T12:49:18Z</time>
      </trkpt>
      <trkpt lat="42.575607" lon="-1.2754979">
        <time>2022-07-04T12:49:20Z</time>
      </trkpt>
      <trkpt lat="42.575607" lon="-1.2754163">
        <time>2022-07-04T12:49:22Z</time>
      </trkpt>
      <trkpt lat="42.575592" lon="-1.2753369">
        <time>2022-07-04T12:49:24Z</time>
      </trkpt>
      <trkpt lat="42.575573" lon="-1.2752563">
        <time>2022-07-04T12:49:26Z</time>
      </trkpt>
      <trkpt lat="42.57555" lon="-1.2751713">
        <time>2022-07-04T12:49:28Z</time>
      </trkpt>
      <trkpt lat="42.575523" lon="-1.2750816">
        <time>2022-07-04T12:49:30Z</time>
      </trkpt>
      <trkpt lat="42.57549" lon="-1.2749926">
        <time>2022-07-04T12:49:32Z</time>
      </trkpt>
      <trkpt lat="42.575455" lon="-1.2749043">
        <time>2022-07-04T12:49:34Z</time>
      </trkpt>
      <trkpt lat="42.575424" lon="-1.2748172">
        <time>2022-07-04T12:49:36Z</time>
      </trkpt>
      <trkpt lat="42.575394" lon="-1.2747302">
        <time>2022-07-04T12:49:38Z</time>
      </trkpt>
      <trkpt lat="42.575363" lon="-1.274643">
        <time>2022-07-04T12:49:40Z</time>
      </trkpt>
      <trkpt lat="42.575333" lon="-1.2745559">
        <time>2022-07-04T12:49:42Z</time>
      </trkpt>
      <trkpt lat="42.575306" lon="-1.2744716">
        <time>2022-07-04T12:49:44Z</time>
      </trkpt>
      <trkpt lat="42.57528" lon="-1.2743852">
        <time>2022-07-04T12:49:46Z</time>
      </trkpt>
      <trkpt lat="42.57525" lon="-1.2742989">
        <time>2022-07-04T12:49:48Z</time>
      </trkpt>
      <trkpt lat="42.575222" lon="-1.2742103">
        <time>2022-07-04T12:49:50Z</time>
      </trkpt>
      <trkpt lat="42.575195" lon="-1.2741146">
        <time>2022-07-04T12:49:52Z</time>
      </trkpt>
      <trkpt lat="42.57517" lon="-1.274027">
        <time>2022-07-04T12:49:54Z</time>
      </trkpt>
      <trkpt lat="42.57515" lon="-1.2739476">
        <time>2022-07-04T12:49:56Z</time>
      </trkpt>
      <trkpt lat="42.575123" lon="-1.2738659">
        <time>2022-07-04T12:49:58Z</time>
      </trkpt>
      <trkpt lat="42.5751" lon="-1.273785">
        <time>2022-07-04T12:50:00Z</time>
      </trkpt>
      <trkpt lat="42.575077" lon="-1.2737033">
        <time>2022-07-04T12:50:02Z</time>
      </trkpt>
      <trkpt lat="42.57505" lon="-1.2736313">
        <time>2022-07-04T12:50:04Z</time>
      </trkpt>
      <trkpt lat="42.57503" lon="-1.2735603">
        <time>2022-07-04T12:50:06Z</time>
      </trkpt>
      <trkpt lat="42.575012" lon="-1.2734896">
        <time>2022-07-04T12:50:08Z</time>
      </trkpt>
      <trkpt lat="42.574993" lon="-1.2734224">
        <time>2022-07-04T12:50:10Z</time>
      </trkpt>
      <trkpt lat="42.57497" lon="-1.273353">
        <time>2022-07-04T12:50:12Z</time>
      </trkpt>
      <trkpt lat="42.57495" lon="-1.2732869">
        <time>2022-07-04T12:50:14Z</time>
      </trkpt>
      <trkpt lat="42.57492" lon="-1.2731887">
        <time>2022-07-04T12:50:17Z</time>
      </trkpt>
      <trkpt lat="42.574898" lon="-1.2731264">
        <time>2022-07-04T12:50:19Z</time>
      </trkpt>
      <trkpt lat="42.57488" lon="-1.273063">
        <time>2022-07-04T12:50:21Z</time>
      </trkpt>
      <trkpt lat="42.574852" lon="-1.272967">
        <time>2022-07-04T12:50:24Z</time>
      </trkpt>
      <trkpt lat="42.574833" lon="-1.2729037">
        <time>2022-07-04T12:50:26Z</time>
      </trkpt>
      <trkpt lat="42.574814" lon="-1.2728363">
        <time>2022-07-04T12:50:28Z</time>
      </trkpt>
      <trkpt lat="42.574787" lon="-1.2727393">
        <time>2022-07-04T12:50:31Z</time>
      </trkpt>
      <trkpt lat="42.574768" lon="-1.2726743">
        <time>2022-07-04T12:50:33Z</time>
      </trkpt>
      <trkpt lat="42.574745" lon="-1.272609">
        <time>2022-07-04T12:50:35Z</time>
      </trkpt>
      <trkpt lat="42.574722" lon="-1.2725381">
        <time>2022-07-04T12:50:37Z</time>
      </trkpt>
      <trkpt lat="42.5747" lon="-1.272464">
        <time>2022-07-04T12:50:39Z</time>
      </trkpt>
      <trkpt lat="42.574677" lon="-1.2723893">
        <time>2022-07-04T12:50:41Z</time>
      </trkpt>
      <trkpt lat="42.574646" lon="-1.272311">
        <time>2022-07-04T12:50:43Z</time>
      </trkpt>
      <trkpt lat="42.57462" lon="-1.272228">
        <time>2022-07-04T12:50:45Z</time>
      </trkpt>
      <trkpt lat="42.57459" lon="-1.2721407">
        <time>2022-07-04T12:50:47Z</time>
      </trkpt>
      <trkpt lat="42.57456" lon="-1.2720487">
        <time>2022-07-04T12:50:49Z</time>
      </trkpt>
      <trkpt lat="42.574528" lon="-1.2719533">
        <time>2022-07-04T12:50:51Z</time>
      </trkpt>
      <trkpt lat="42.574493" lon="-1.2718561">
        <time>2022-07-04T12:50:53Z</time>
      </trkpt>
      <trkpt lat="42.574463" lon="-1.2717574">
        <time>2022-07-04T12:50:55Z</time>
      </trkpt>
      <trkpt lat="42.574425" lon="-1.2716577">
        <time>2022-07-04T12:50:57Z</time>
      </trkpt>
      <trkpt lat="42.57439" lon="-1.2715544">
        <time>2022-07-04T12:50:59Z</time>
      </trkpt>
      <trkpt lat="42.574356" lon="-1.2714493">
        <time>2022-07-04T12:51:01Z</time>
      </trkpt>
      <trkpt lat="42.574318" lon="-1.2713428">
        <time>2022-07-04T12:51:03Z</time>
      </trkpt>
      <trkpt lat="42.574284" lon="-1.2712348">
        <time>2022-07-04T12:51:05Z</time>
      </trkpt>
      <trkpt lat="42.57425" lon="-1.2711247">
        <time>2022-07-04T12:51:07Z</time>
      </trkpt>
      <trkpt lat="42.574215" lon="-1.2710177">
        <time>2022-07-04T12:51:09Z</time>
      </trkpt>
      <trkpt lat="42.574177" lon="-1.2709117">
        <time>2022-07-04T12:51:11Z</time>
      </trkpt>
      <trkpt lat="42.574142" lon="-1.2708037">
        <time>2022-07-04T12:51:13Z</time>
      </trkpt>
      <trkpt lat="42.57411" lon="-1.2706918">
        <time>2022-07-04T12:51:15Z</time>
      </trkpt>
      <trkpt lat="42.574074" lon="-1.2705767">
        <time>2022-07-04T12:51:17Z</time>
      </trkpt>
      <trkpt lat="42.57404" lon="-1.27046">
        <time>2022-07-04T12:51:19Z</time>
      </trkpt>
      <trkpt lat="42.57402" lon="-1.2704014">
        <time>2022-07-04T12:51:20Z</time>
      </trkpt>
      <trkpt lat="42.573986" lon="-1.2702824">
        <time>2022-07-04T12:51:22Z</time>
      </trkpt>
      <trkpt lat="42.57395" lon="-1.2701614">
        <time>2022-07-04T12:51:24Z</time>
      </trkpt>
      <trkpt lat="42.5739" lon="-1.2699838">
        <time>2022-07-04T12:51:27Z</time>
      </trkpt>
      <trkpt lat="42.57386" lon="-1.2698674">
        <time>2022-07-04T12:51:29Z</time>
      </trkpt>
      <trkpt lat="42.573826" lon="-1.2697498">
        <time>2022-07-04T12:51:31Z</time>
      </trkpt>
      <trkpt lat="42.573807" lon="-1.2696891">
        <time>2022-07-04T12:51:32Z</time>
      </trkpt>
      <trkpt lat="42.57377" lon="-1.2695627">
        <time>2022-07-04T12:51:34Z</time>
      </trkpt>
      <trkpt lat="42.57375" lon="-1.2694985">
        <time>2022-07-04T12:51:35Z</time>
      </trkpt>
      <trkpt lat="42.57373" lon="-1.2694328">
        <time>2022-07-04T12:51:36Z</time>
      </trkpt>
      <trkpt lat="42.57371" lon="-1.2693671">
        <time>2022-07-04T12:51:37Z</time>
      </trkpt>
      <trkpt lat="42.57367" lon="-1.2692348">
        <time>2022-07-04T12:51:39Z</time>
      </trkpt>
      <trkpt lat="42.57365" lon="-1.2691668">
        <time>2022-07-04T12:51:40Z</time>
      </trkpt>
      <trkpt lat="42.573627" lon="-1.2690978">
        <time>2022-07-04T12:51:41Z</time>
      </trkpt>
      <trkpt lat="42.57361" lon="-1.2690284">
        <time>2022-07-04T12:51:42Z</time>
      </trkpt>
      <trkpt lat="42.573586" lon="-1.2689584">
        <time>2022-07-04T12:51:43Z</time>
      </trkpt>
      <trkpt lat="42.573563" lon="-1.2688872">
        <time>2022-07-04T12:51:44Z</time>
      </trkpt>
      <trkpt lat="42.573544" lon="-1.2688152">
        <time>2022-07-04T12:51:45Z</time>
      </trkpt>
      <trkpt lat="42.57352" lon="-1.2687374">
        <time>2022-07-04T12:51:46Z</time>
      </trkpt>
      <trkpt lat="42.573498" lon="-1.2686621">
        <time>2022-07-04T12:51:47Z</time>
      </trkpt>
      <trkpt lat="42.573475" lon="-1.2685888">
        <time>2022-07-04T12:51:48Z</time>
      </trkpt>
      <trkpt lat="42.57345" lon="-1.2685168">
        <time>2022-07-04T12:51:49Z</time>
      </trkpt>
      <trkpt lat="42.573425" lon="-1.2684511">
        <time>2022-07-04T12:51:50Z</time>
      </trkpt>
      <trkpt lat="42.5734" lon="-1.2683808">
        <time>2022-07-04T12:51:51Z</time>
      </trkpt>
      <trkpt lat="42.573376" lon="-1.2683121">
        <time>2022-07-04T12:51:52Z</time>
      </trkpt>
      <trkpt lat="42.57335" lon="-1.2682445">
        <time>2022-07-04T12:51:53Z</time>
      </trkpt>
      <trkpt lat="42.573322" lon="-1.2681779">
        <time>2022-07-04T12:51:54Z</time>
      </trkpt>
      <trkpt lat="42.5733" lon="-1.2681161">
        <time>2022-07-04T12:51:55Z</time>
      </trkpt>
      <trkpt lat="42.573273" lon="-1.2680495">
        <time>2022-07-04T12:51:56Z</time>
      </trkpt>
      <trkpt lat="42.573246" lon="-1.2679845">
        <time>2022-07-04T12:51:57Z</time>
      </trkpt>
      <trkpt lat="42.57322" lon="-1.2679201">
        <time>2022-07-04T12:51:58Z</time>
      </trkpt>
      <trkpt lat="42.573193" lon="-1.2678565">
        <time>2022-07-04T12:51:59Z</time>
      </trkpt>
      <trkpt lat="42.573166" lon="-1.2677935">
        <time>2022-07-04T12:52:00Z</time>
      </trkpt>
      <trkpt lat="42.573143" lon="-1.2677305">
        <time>2022-07-04T12:52:01Z</time>
      </trkpt>
      <trkpt lat="42.573116" lon="-1.2676675">
        <time>2022-07-04T12:52:02Z</time>
      </trkpt>
      <trkpt lat="42.57309" lon="-1.2676052">
        <time>2022-07-04T12:52:03Z</time>
      </trkpt>
      <trkpt lat="42.573067" lon="-1.2675436">
        <time>2022-07-04T12:52:04Z</time>
      </trkpt>
      <trkpt lat="42.573017" lon="-1.2674212">
        <time>2022-07-04T12:52:06Z</time>
      </trkpt>
      <trkpt lat="42.572994" lon="-1.2673606">
        <time>2022-07-04T12:52:07Z</time>
      </trkpt>
      <trkpt lat="42.57295" lon="-1.2672389">
        <time>2022-07-04T12:52:09Z</time>
      </trkpt>
      <trkpt lat="42.572926" lon="-1.2671793">
        <time>2022-07-04T12:52:10Z</time>
      </trkpt>
      <trkpt lat="42.572876" lon="-1.2670612">
        <time>2022-07-04T12:52:12Z</time>
      </trkpt>
      <trkpt lat="42.572826" lon="-1.2669415">
        <time>2022-07-04T12:52:14Z</time>
      </trkpt>
      <trkpt lat="42.572803" lon="-1.2668812">
        <time>2022-07-04T12:52:15Z</time>
      </trkpt>
      <trkpt lat="42.572754" lon="-1.2667612">
        <time>2022-07-04T12:52:17Z</time>
      </trkpt>
      <trkpt lat="42.572704" lon="-1.2666433">
        <time>2022-07-04T12:52:19Z</time>
      </trkpt>
      <trkpt lat="42.57268" lon="-1.2665852">
        <time>2022-07-04T12:52:20Z</time>
      </trkpt>
      <trkpt lat="42.57263" lon="-1.26647">
        <time>2022-07-04T12:52:22Z</time>
      </trkpt>
      <trkpt lat="42.57261" lon="-1.2664126">
        <time>2022-07-04T12:52:23Z</time>
      </trkpt>
      <trkpt lat="42.57256" lon="-1.2662996">
        <time>2022-07-04T12:52:25Z</time>
      </trkpt>
      <trkpt lat="42.572517" lon="-1.2661892">
        <time>2022-07-04T12:52:27Z</time>
      </trkpt>
      <trkpt lat="42.57248" lon="-1.2660795">
        <time>2022-07-04T12:52:29Z</time>
      </trkpt>
      <trkpt lat="42.57244" lon="-1.2659723">
        <time>2022-07-04T12:52:31Z</time>
      </trkpt>
      <trkpt lat="42.572407" lon="-1.2658672">
        <time>2022-07-04T12:52:33Z</time>
      </trkpt>
      <trkpt lat="42.572376" lon="-1.2657603">
        <time>2022-07-04T12:52:35Z</time>
      </trkpt>
      <trkpt lat="42.572342" lon="-1.2656473">
        <time>2022-07-04T12:52:37Z</time>
      </trkpt>
      <trkpt lat="42.57231" lon="-1.2655315">
        <time>2022-07-04T12:52:39Z</time>
      </trkpt>
      <trkpt lat="42.572277" lon="-1.2654183">
        <time>2022-07-04T12:52:41Z</time>
      </trkpt>
      <trkpt lat="42.572247" lon="-1.2653036">
        <time>2022-07-04T12:52:43Z</time>
      </trkpt>
      <trkpt lat="42.572216" lon="-1.2651902">
        <time>2022-07-04T12:52:45Z</time>
      </trkpt>
      <trkpt lat="42.572186" lon="-1.2650772">
        <time>2022-07-04T12:52:47Z</time>
      </trkpt>
      <trkpt lat="42.57216" lon="-1.2649646">
        <time>2022-07-04T12:52:49Z</time>
      </trkpt>
      <trkpt lat="42.572132" lon="-1.2648497">
        <time>2022-07-04T12:52:51Z</time>
      </trkpt>
      <trkpt lat="42.57211" lon="-1.2647356">
        <time>2022-07-04T12:52:53Z</time>
      </trkpt>
      <trkpt lat="42.572086" lon="-1.2646233">
        <time>2022-07-04T12:52:55Z</time>
      </trkpt>
      <trkpt lat="42.572063" lon="-1.2645129">
        <time>2022-07-04T12:52:57Z</time>
      </trkpt>
      <trkpt lat="42.57204" lon="-1.2644047">
        <time>2022-07-04T12:52:59Z</time>
      </trkpt>
      <trkpt lat="42.572018" lon="-1.2642987">
        <time>2022-07-04T12:53:01Z</time>
      </trkpt>
      <trkpt lat="42.571995" lon="-1.2641926">
        <time>2022-07-04T12:53:03Z</time>
      </trkpt>
      <trkpt lat="42.57197" lon="-1.2640877">
        <time>2022-07-04T12:53:05Z</time>
      </trkpt>
      <trkpt lat="42.57195" lon="-1.2639819">
        <time>2022-07-04T12:53:07Z</time>
      </trkpt>
      <trkpt lat="42.571926" lon="-1.263876">
        <time>2022-07-04T12:53:09Z</time>
      </trkpt>
      <trkpt lat="42.5719" lon="-1.2637739">
        <time>2022-07-04T12:53:11Z</time>
      </trkpt>
      <trkpt lat="42.57187" lon="-1.263673">
        <time>2022-07-04T12:53:13Z</time>
      </trkpt>
      <trkpt lat="42.571835" lon="-1.2635726">
        <time>2022-07-04T12:53:15Z</time>
      </trkpt>
      <trkpt lat="42.571796" lon="-1.2634723">
        <time>2022-07-04T12:53:17Z</time>
      </trkpt>
      <trkpt lat="42.57176" lon="-1.2633733">
        <time>2022-07-04T12:53:19Z</time>
      </trkpt>
      <trkpt lat="42.57172" lon="-1.2632747">
        <time>2022-07-04T12:53:21Z</time>
      </trkpt>
      <trkpt lat="42.57168" lon="-1.263176">
        <time>2022-07-04T12:53:23Z</time>
      </trkpt>
      <trkpt lat="42.57164" lon="-1.2630789">
        <time>2022-07-04T12:53:25Z</time>
      </trkpt>
      <trkpt lat="42.571598" lon="-1.2629826">
        <time>2022-07-04T12:53:27Z</time>
      </trkpt>
      <trkpt lat="42.57156" lon="-1.2628857">
        <time>2022-07-04T12:53:29Z</time>
      </trkpt>
      <trkpt lat="42.571518" lon="-1.2627873">
        <time>2022-07-04T12:53:31Z</time>
      </trkpt>
      <trkpt lat="42.57148" lon="-1.2626886">
        <time>2022-07-04T12:53:33Z</time>
      </trkpt>
      <trkpt lat="42.57144" lon="-1.262591">
        <time>2022-07-04T12:53:35Z</time>
      </trkpt>
      <trkpt lat="42.571404" lon="-1.2624934">
        <time>2022-07-04T12:53:37Z</time>
      </trkpt>
      <trkpt lat="42.571365" lon="-1.262396">
        <time>2022-07-04T12:53:39Z</time>
      </trkpt>
      <trkpt lat="42.571323" lon="-1.2622987">
        <time>2022-07-04T12:53:41Z</time>
      </trkpt>
      <trkpt lat="42.571285" lon="-1.2621996">
        <time>2022-07-04T12:53:43Z</time>
      </trkpt>
      <trkpt lat="42.571243" lon="-1.2621024">
        <time>2022-07-04T12:53:45Z</time>
      </trkpt>
      <trkpt lat="42.5712" lon="-1.262006">
        <time>2022-07-04T12:53:47Z</time>
      </trkpt>
      <trkpt lat="42.571163" lon="-1.2619077">
        <time>2022-07-04T12:53:49Z</time>
      </trkpt>
      <trkpt lat="42.571125" lon="-1.261809">
        <time>2022-07-04T12:53:51Z</time>
      </trkpt>
      <trkpt lat="42.571087" lon="-1.2617127">
        <time>2022-07-04T12:53:53Z</time>
      </trkpt>
      <trkpt lat="42.571045" lon="-1.2616107">
        <time>2022-07-04T12:53:55Z</time>
      </trkpt>
      <trkpt lat="42.571003" lon="-1.2615077">
        <time>2022-07-04T12:53:57Z</time>
      </trkpt>
      <trkpt lat="42.570965" lon="-1.2614027">
        <time>2022-07-04T12:53:59Z</time>
      </trkpt>
      <trkpt lat="42.570923" lon="-1.2612977">
        <time>2022-07-04T12:54:01Z</time>
      </trkpt>
      <trkpt lat="42.57088" lon="-1.2611923">
        <time>2022-07-04T12:54:03Z</time>
      </trkpt>
      <trkpt lat="42.57084" lon="-1.2610867">
        <time>2022-07-04T12:54:05Z</time>
      </trkpt>
      <trkpt lat="42.5708" lon="-1.260979">
        <time>2022-07-04T12:54:07Z</time>
      </trkpt>
      <trkpt lat="42.57076" lon="-1.2608707">
        <time>2022-07-04T12:54:09Z</time>
      </trkpt>
      <trkpt lat="42.570713" lon="-1.2607621">
        <time>2022-07-04T12:54:11Z</time>
      </trkpt>
      <trkpt lat="42.57067" lon="-1.2606547">
        <time>2022-07-04T12:54:13Z</time>
      </trkpt>
      <trkpt lat="42.570625" lon="-1.2605484">
        <time>2022-07-04T12:54:15Z</time>
      </trkpt>
      <trkpt lat="42.570587" lon="-1.2604411">
        <time>2022-07-04T12:54:17Z</time>
      </trkpt>
      <trkpt lat="42.570545" lon="-1.2603354">
        <time>2022-07-04T12:54:19Z</time>
      </trkpt>
      <trkpt lat="42.570503" lon="-1.2602295">
        <time>2022-07-04T12:54:21Z</time>
      </trkpt>
      <trkpt lat="42.570465" lon="-1.2601231">
        <time>2022-07-04T12:54:23Z</time>
      </trkpt>
      <trkpt lat="42.570427" lon="-1.2600154">
        <time>2022-07-04T12:54:25Z</time>
      </trkpt>
      <trkpt lat="42.57039" lon="-1.2599068">
        <time>2022-07-04T12:54:27Z</time>
      </trkpt>
      <trkpt lat="42.57036" lon="-1.2597947">
        <time>2022-07-04T12:54:29Z</time>
      </trkpt>
      <trkpt lat="42.57033" lon="-1.2596824">
        <time>2022-07-04T12:54:31Z</time>
      </trkpt>
      <trkpt lat="42.570305" lon="-1.2595681">
        <time>2022-07-04T12:54:33Z</time>
      </trkpt>
      <trkpt lat="42.57028" lon="-1.2594547">
        <time>2022-07-04T12:54:35Z</time>
      </trkpt>
      <trkpt lat="42.570255" lon="-1.2593417">
        <time>2022-07-04T12:54:37Z</time>
      </trkpt>
      <trkpt lat="42.570236" lon="-1.2592274">
        <time>2022-07-04T12:54:39Z</time>
      </trkpt>
      <trkpt lat="42.57022" lon="-1.2591114">
        <time>2022-07-04T12:54:41Z</time>
      </trkpt>
      <trkpt lat="42.570206" lon="-1.258995">
        <time>2022-07-04T12:54:43Z</time>
      </trkpt>
      <trkpt lat="42.57019" lon="-1.2588781">
        <time>2022-07-04T12:54:45Z</time>
      </trkpt>
      <trkpt lat="42.570175" lon="-1.2587608">
        <time>2022-07-04T12:54:47Z</time>
      </trkpt>
      <trkpt lat="42.57016" lon="-1.2586418">
        <time>2022-07-04T12:54:49Z</time>
      </trkpt>
      <trkpt lat="42.57015" lon="-1.2585235">
        <time>2022-07-04T12:54:51Z</time>
      </trkpt>
      <trkpt lat="42.570137" lon="-1.2583998">
        <time>2022-07-04T12:54:53Z</time>
      </trkpt>
      <trkpt lat="42.57012" lon="-1.2582774">
        <time>2022-07-04T12:54:55Z</time>
      </trkpt>
      <trkpt lat="42.570118" lon="-1.2582158">
        <time>2022-07-04T12:54:56Z</time>
      </trkpt>
      <trkpt lat="42.570103" lon="-1.2580938">
        <time>2022-07-04T12:54:58Z</time>
      </trkpt>
      <trkpt lat="42.57009" lon="-1.2579708">
        <time>2022-07-04T12:55:00Z</time>
      </trkpt>
      <trkpt lat="42.570076" lon="-1.2578478">
        <time>2022-07-04T12:55:02Z</time>
      </trkpt>
      <trkpt lat="42.570065" lon="-1.2577248">
        <time>2022-07-04T12:55:04Z</time>
      </trkpt>
      <trkpt lat="42.57005" lon="-1.2576004">
        <time>2022-07-04T12:55:06Z</time>
      </trkpt>
      <trkpt lat="42.570034" lon="-1.2574768">
        <time>2022-07-04T12:55:08Z</time>
      </trkpt>
      <trkpt lat="42.570023" lon="-1.2573541">
        <time>2022-07-04T12:55:10Z</time>
      </trkpt>
      <trkpt lat="42.570007" lon="-1.2572311">
        <time>2022-07-04T12:55:12Z</time>
      </trkpt>
      <trkpt lat="42.569996" lon="-1.2571065">
        <time>2022-07-04T12:55:14Z</time>
      </trkpt>
      <trkpt lat="42.56999" lon="-1.2569832">
        <time>2022-07-04T12:55:16Z</time>
      </trkpt>
      <trkpt lat="42.569977" lon="-1.2568598">
        <time>2022-07-04T12:55:18Z</time>
      </trkpt>
      <trkpt lat="42.56997" lon="-1.2567365">
        <time>2022-07-04T12:55:20Z</time>
      </trkpt>
      <trkpt lat="42.569965" lon="-1.2566125">
        <time>2022-07-04T12:55:22Z</time>
      </trkpt>
      <trkpt lat="42.56997" lon="-1.2564865">
        <time>2022-07-04T12:55:24Z</time>
      </trkpt>
      <trkpt lat="42.569977" lon="-1.2563598">
        <time>2022-07-04T12:55:26Z</time>
      </trkpt>
      <trkpt lat="42.569984" lon="-1.2562362">
        <time>2022-07-04T12:55:28Z</time>
      </trkpt>
      <trkpt lat="42.569996" lon="-1.2561126">
        <time>2022-07-04T12:55:30Z</time>
      </trkpt>
      <trkpt lat="42.570007" lon="-1.2559838">
        <time>2022-07-04T12:55:32Z</time>
      </trkpt>
      <trkpt lat="42.57002" lon="-1.2558552">
        <time>2022-07-04T12:55:34Z</time>
      </trkpt>
      <trkpt lat="42.57003" lon="-1.2557279">
        <time>2022-07-04T12:55:36Z</time>
      </trkpt>
      <trkpt lat="42.570045" lon="-1.2556009">
        <time>2022-07-04T12:55:38Z</time>
      </trkpt>
      <trkpt lat="42.570057" lon="-1.2554735">
        <time>2022-07-04T12:55:40Z</time>
      </trkpt>
      <trkpt lat="42.570065" lon="-1.2554102">
        <time>2022-07-04T12:55:41Z</time>
      </trkpt>
      <trkpt lat="42.570076" lon="-1.2552905">
        <time>2022-07-04T12:55:43Z</time>
      </trkpt>
      <trkpt lat="42.570087" lon="-1.2551665">
        <time>2022-07-04T12:55:45Z</time>
      </trkpt>
      <trkpt lat="42.5701" lon="-1.2550485">
        <time>2022-07-04T12:55:47Z</time>
      </trkpt>
      <trkpt lat="42.57011" lon="-1.2549359">
        <time>2022-07-04T12:55:49Z</time>
      </trkpt>
      <trkpt lat="42.570126" lon="-1.2547662">
        <time>2022-07-04T12:55:52Z</time>
      </trkpt>
      <trkpt lat="42.570137" lon="-1.2546602">
        <time>2022-07-04T12:55:54Z</time>
      </trkpt>
      <trkpt lat="42.570145" lon="-1.2545602">
        <time>2022-07-04T12:55:56Z</time>
      </trkpt>
      <trkpt lat="42.570152" lon="-1.2544622">
        <time>2022-07-04T12:55:58Z</time>
      </trkpt>
      <trkpt lat="42.57016" lon="-1.2543648">
        <time>2022-07-04T12:56:00Z</time>
      </trkpt>
      <trkpt lat="42.57017" lon="-1.2542692">
        <time>2022-07-04T12:56:02Z</time>
      </trkpt>
      <trkpt lat="42.57018" lon="-1.2541742">
        <time>2022-07-04T12:56:04Z</time>
      </trkpt>
      <trkpt lat="42.57019" lon="-1.2540812">
        <time>2022-07-04T12:56:06Z</time>
      </trkpt>
      <trkpt lat="42.570198" lon="-1.2539905">
        <time>2022-07-04T12:56:08Z</time>
      </trkpt>
      <trkpt lat="42.57021" lon="-1.2539033">
        <time>2022-07-04T12:56:10Z</time>
      </trkpt>
      <trkpt lat="42.570217" lon="-1.2538109">
        <time>2022-07-04T12:56:12Z</time>
      </trkpt>
      <trkpt lat="42.57023" lon="-1.2537199">
        <time>2022-07-04T12:56:14Z</time>
      </trkpt>
      <trkpt lat="42.57024" lon="-1.2536312">
        <time>2022-07-04T12:56:16Z</time>
      </trkpt>
      <trkpt lat="42.57025" lon="-1.2535386">
        <time>2022-07-04T12:56:18Z</time>
      </trkpt>
      <trkpt lat="42.570263" lon="-1.2534456">
        <time>2022-07-04T12:56:20Z</time>
      </trkpt>
      <trkpt lat="42.570274" lon="-1.2533512">
        <time>2022-07-04T12:56:22Z</time>
      </trkpt>
      <trkpt lat="42.570282" lon="-1.253261">
        <time>2022-07-04T12:56:24Z</time>
      </trkpt>
      <trkpt lat="42.57029" lon="-1.2531669">
        <time>2022-07-04T12:56:26Z</time>
      </trkpt>
      <trkpt lat="42.570297" lon="-1.2530723">
        <time>2022-07-04T12:56:28Z</time>
      </trkpt>
      <trkpt lat="42.57031" lon="-1.2529776">
        <time>2022-07-04T12:56:30Z</time>
      </trkpt>
      <trkpt lat="42.57032" lon="-1.2528833">
        <time>2022-07-04T12:56:32Z</time>
      </trkpt>
      <trkpt lat="42.57033" lon="-1.2527889">
        <time>2022-07-04T12:56:34Z</time>
      </trkpt>
      <trkpt lat="42.570343" lon="-1.2526993">
        <time>2022-07-04T12:56:36Z</time>
      </trkpt>
      <trkpt lat="42.57036" lon="-1.2526093">
        <time>2022-07-04T12:56:38Z</time>
      </trkpt>
      <trkpt lat="42.570374" lon="-1.2525176">
        <time>2022-07-04T12:56:40Z</time>
      </trkpt>
      <trkpt lat="42.57038" lon="-1.252426">
        <time>2022-07-04T12:56:42Z</time>
      </trkpt>
      <trkpt lat="42.57039" lon="-1.252334">
        <time>2022-07-04T12:56:44Z</time>
      </trkpt>
      <trkpt lat="42.5704" lon="-1.2522397">
        <time>2022-07-04T12:56:46Z</time>
      </trkpt>
      <trkpt lat="42.570408" lon="-1.2521433">
        <time>2022-07-04T12:56:48Z</time>
      </trkpt>
      <trkpt lat="42.57041" lon="-1.2520443">
        <time>2022-07-04T12:56:50Z</time>
      </trkpt>
      <trkpt lat="42.57042" lon="-1.251953">
        <time>2022-07-04T12:56:52Z</time>
      </trkpt>
      <trkpt lat="42.57043" lon="-1.251862">
        <time>2022-07-04T12:56:54Z</time>
      </trkpt>
      <trkpt lat="42.57044" lon="-1.251768">
        <time>2022-07-04T12:56:56Z</time>
      </trkpt>
      <trkpt lat="42.570446" lon="-1.2516733">
        <time>2022-07-04T12:56:58Z</time>
      </trkpt>
      <trkpt lat="42.570454" lon="-1.251581">
        <time>2022-07-04T12:57:00Z</time>
      </trkpt>
      <trkpt lat="42.570457" lon="-1.2514893">
        <time>2022-07-04T12:57:02Z</time>
      </trkpt>
      <trkpt lat="42.570465" lon="-1.2513961">
        <time>2022-07-04T12:57:04Z</time>
      </trkpt>
      <trkpt lat="42.570473" lon="-1.251307">
        <time>2022-07-04T12:57:06Z</time>
      </trkpt>
      <trkpt lat="42.570484" lon="-1.2512174">
        <time>2022-07-04T12:57:08Z</time>
      </trkpt>
      <trkpt lat="42.570496" lon="-1.2511287">
        <time>2022-07-04T12:57:10Z</time>
      </trkpt>
      <trkpt lat="42.570507" lon="-1.2510464">
        <time>2022-07-04T12:57:12Z</time>
      </trkpt>
      <trkpt lat="42.570515" lon="-1.250977">
        <time>2022-07-04T12:57:14Z</time>
      </trkpt>
      <trkpt lat="42.570522" lon="-1.2508957">
        <time>2022-07-04T12:57:17Z</time>
      </trkpt>
      <trkpt lat="42.570568" lon="-1.250807">
        <time>2022-07-04T13:01:39Z</time>
      </trkpt>
      <trkpt lat="42.570576" lon="-1.2507167">
        <time>2022-07-04T13:01:42Z</time>
      </trkpt>
      <trkpt lat="42.570583" lon="-1.2506107">
        <time>2022-07-04T13:01:45Z</time>
      </trkpt>
      <trkpt lat="42.57059" lon="-1.2505391">
        <time>2022-07-04T13:01:47Z</time>
      </trkpt>
      <trkpt lat="42.570602" lon="-1.2504264">
        <time>2022-07-04T13:01:50Z</time>
      </trkpt>
      <trkpt lat="42.570614" lon="-1.2503487">
        <time>2022-07-04T13:01:52Z</time>
      </trkpt>
      <trkpt lat="42.570618" lon="-1.2502687">
        <time>2022-07-04T13:01:54Z</time>
      </trkpt>
      <trkpt lat="42.570625" lon="-1.2501898">
        <time>2022-07-04T13:01:56Z</time>
      </trkpt>
      <trkpt lat="42.570633" lon="-1.2501107">
        <time>2022-07-04T13:01:58Z</time>
      </trkpt>
      <trkpt lat="42.57064" lon="-1.2500311">
        <time>2022-07-04T13:02:00Z</time>
      </trkpt>
      <trkpt lat="42.57065" lon="-1.2499508">
        <time>2022-07-04T13:02:02Z</time>
      </trkpt>
      <trkpt lat="42.570656" lon="-1.2498697">
        <time>2022-07-04T13:02:04Z</time>
      </trkpt>
      <trkpt lat="42.57066" lon="-1.2497891">
        <time>2022-07-04T13:02:06Z</time>
      </trkpt>
      <trkpt lat="42.57067" lon="-1.2497071">
        <time>2022-07-04T13:02:08Z</time>
      </trkpt>
      <trkpt lat="42.57068" lon="-1.2496234">
        <time>2022-07-04T13:02:10Z</time>
      </trkpt>
      <trkpt lat="42.57069" lon="-1.2495394">
        <time>2022-07-04T13:02:12Z</time>
      </trkpt>
      <trkpt lat="42.570694" lon="-1.2494568">
        <time>2022-07-04T13:02:14Z</time>
      </trkpt>
      <trkpt lat="42.570705" lon="-1.2493714">
        <time>2022-07-04T13:02:16Z</time>
      </trkpt>
      <trkpt lat="42.570713" lon="-1.2492847">
        <time>2022-07-04T13:02:18Z</time>
      </trkpt>
      <trkpt lat="42.57072" lon="-1.2491981">
        <time>2022-07-04T13:02:20Z</time>
      </trkpt>
      <trkpt lat="42.570732" lon="-1.2491105">
        <time>2022-07-04T13:02:22Z</time>
      </trkpt>
      <trkpt lat="42.57074" lon="-1.2490238">
        <time>2022-07-04T13:02:24Z</time>
      </trkpt>
      <trkpt lat="42.570747" lon="-1.2489388">
        <time>2022-07-04T13:02:26Z</time>
      </trkpt>
      <trkpt lat="42.57076" lon="-1.2488528">
        <time>2022-07-04T13:02:28Z</time>
      </trkpt>
      <trkpt lat="42.570766" lon="-1.2487681">
        <time>2022-07-04T13:02:30Z</time>
      </trkpt>
      <trkpt lat="42.570778" lon="-1.2486825">
        <time>2022-07-04T13:02:32Z</time>
      </trkpt>
      <trkpt lat="42.57079" lon="-1.2485962">
        <time>2022-07-04T13:02:34Z</time>
      </trkpt>
      <trkpt lat="42.570797" lon="-1.2485092">
        <time>2022-07-04T13:02:36Z</time>
      </trkpt>
      <trkpt lat="42.570805" lon="-1.2484255">
        <time>2022-07-04T13:02:38Z</time>
      </trkpt>
      <trkpt lat="42.570816" lon="-1.2483422">
        <time>2022-07-04T13:02:40Z</time>
      </trkpt>
      <trkpt lat="42.570824" lon="-1.2482605">
        <time>2022-07-04T13:02:42Z</time>
      </trkpt>
      <trkpt lat="42.570827" lon="-1.2481781">
        <time>2022-07-04T13:02:44Z</time>
      </trkpt>
      <trkpt lat="42.57083" lon="-1.2480942">
        <time>2022-07-04T13:02:46Z</time>
      </trkpt>
      <trkpt lat="42.57084" lon="-1.2480109">
        <time>2022-07-04T13:02:48Z</time>
      </trkpt>
      <trkpt lat="42.57085" lon="-1.2479298">
        <time>2022-07-04T13:02:50Z</time>
      </trkpt>
      <trkpt lat="42.570858" lon="-1.2478445">
        <time>2022-07-04T13:02:52Z</time>
      </trkpt>
      <trkpt lat="42.570866" lon="-1.2477572">
        <time>2022-07-04T13:02:54Z</time>
      </trkpt>
      <trkpt lat="42.570877" lon="-1.2476722">
        <time>2022-07-04T13:02:56Z</time>
      </trkpt>
      <trkpt lat="42.570885" lon="-1.2475915">
        <time>2022-07-04T13:02:58Z</time>
      </trkpt>
      <trkpt lat="42.570892" lon="-1.2475082">
        <time>2022-07-04T13:03:00Z</time>
      </trkpt>
      <trkpt lat="42.570904" lon="-1.2474215">
        <time>2022-07-04T13:03:02Z</time>
      </trkpt>
      <trkpt lat="42.57091" lon="-1.2473382">
        <time>2022-07-04T13:03:04Z</time>
      </trkpt>
      <trkpt lat="42.57092" lon="-1.2472526">
        <time>2022-07-04T13:03:06Z</time>
      </trkpt>
      <trkpt lat="42.570927" lon="-1.2471699">
        <time>2022-07-04T13:03:08Z</time>
      </trkpt>
      <trkpt lat="42.570934" lon="-1.2470878">
        <time>2022-07-04T13:03:10Z</time>
      </trkpt>
      <trkpt lat="42.570942" lon="-1.2470039">
        <time>2022-07-04T13:03:12Z</time>
      </trkpt>
      <trkpt lat="42.57095" lon="-1.2469208">
        <time>2022-07-04T13:03:14Z</time>
      </trkpt>
      <trkpt lat="42.57096" lon="-1.2468382">
        <time>2022-07-04T13:03:16Z</time>
      </trkpt>
      <trkpt lat="42.57097" lon="-1.2467556">
        <time>2022-07-04T13:03:18Z</time>
      </trkpt>
      <trkpt lat="42.570976" lon="-1.2466719">
        <time>2022-07-04T13:03:20Z</time>
      </trkpt>
      <trkpt lat="42.570984" lon="-1.2465879">
        <time>2022-07-04T13:03:22Z</time>
      </trkpt>
      <trkpt lat="42.570995" lon="-1.2465042">
        <time>2022-07-04T13:03:24Z</time>
      </trkpt>
      <trkpt lat="42.571003" lon="-1.2464225">
        <time>2022-07-04T13:03:26Z</time>
      </trkpt>
      <trkpt lat="42.57101" lon="-1.2463382">
        <time>2022-07-04T13:03:28Z</time>
      </trkpt>
      <trkpt lat="42.571022" lon="-1.2462546">
        <time>2022-07-04T13:03:30Z</time>
      </trkpt>
      <trkpt lat="42.57103" lon="-1.2461736">
        <time>2022-07-04T13:03:32Z</time>
      </trkpt>
      <trkpt lat="42.571037" lon="-1.2460912">
        <time>2022-07-04T13:03:34Z</time>
      </trkpt>
      <trkpt lat="42.571045" lon="-1.2460113">
        <time>2022-07-04T13:03:36Z</time>
      </trkpt>
      <trkpt lat="42.571053" lon="-1.2459276">
        <time>2022-07-04T13:03:38Z</time>
      </trkpt>
      <trkpt lat="42.571064" lon="-1.2458466">
        <time>2022-07-04T13:03:40Z</time>
      </trkpt>
      <trkpt lat="42.571075" lon="-1.2457643">
        <time>2022-07-04T13:03:42Z</time>
      </trkpt>
      <trkpt lat="42.571087" lon="-1.2456772">
        <time>2022-07-04T13:03:44Z</time>
      </trkpt>
      <trkpt lat="42.571102" lon="-1.2455933">
        <time>2022-07-04T13:03:46Z</time>
      </trkpt>
      <trkpt lat="42.571114" lon="-1.2455096">
        <time>2022-07-04T13:03:48Z</time>
      </trkpt>
      <trkpt lat="42.57113" lon="-1.2454239">
        <time>2022-07-04T13:03:50Z</time>
      </trkpt>
      <trkpt lat="42.57115" lon="-1.2453376">
        <time>2022-07-04T13:03:52Z</time>
      </trkpt>
      <trkpt lat="42.57118" lon="-1.2452517">
        <time>2022-07-04T13:03:54Z</time>
      </trkpt>
      <trkpt lat="42.571205" lon="-1.2451652">
        <time>2022-07-04T13:03:56Z</time>
      </trkpt>
      <trkpt lat="42.57123" lon="-1.2450793">
        <time>2022-07-04T13:03:58Z</time>
      </trkpt>
      <trkpt lat="42.571262" lon="-1.2449876">
        <time>2022-07-04T13:04:00Z</time>
      </trkpt>
      <trkpt lat="42.571293" lon="-1.2448987">
        <time>2022-07-04T13:04:02Z</time>
      </trkpt>
      <trkpt lat="42.57132" lon="-1.2448136">
        <time>2022-07-04T13:04:04Z</time>
      </trkpt>
      <trkpt lat="42.571346" lon="-1.2447296">
        <time>2022-07-04T13:04:06Z</time>
      </trkpt>
      <trkpt lat="42.571377" lon="-1.2446452">
        <time>2022-07-04T13:04:08Z</time>
      </trkpt>
      <trkpt lat="42.571407" lon="-1.2445593">
        <time>2022-07-04T13:04:10Z</time>
      </trkpt>
      <trkpt lat="42.571438" lon="-1.2444713">
        <time>2022-07-04T13:04:12Z</time>
      </trkpt>
      <trkpt lat="42.571472" lon="-1.2443823">
        <time>2022-07-04T13:04:14Z</time>
      </trkpt>
      <trkpt lat="42.571503" lon="-1.2442963">
        <time>2022-07-04T13:04:16Z</time>
      </trkpt>
      <trkpt lat="42.571533" lon="-1.24421">
        <time>2022-07-04T13:04:18Z</time>
      </trkpt>
      <trkpt lat="42.571564" lon="-1.2441196">
        <time>2022-07-04T13:04:20Z</time>
      </trkpt>
      <trkpt lat="42.571598" lon="-1.2440293">
        <time>2022-07-04T13:04:22Z</time>
      </trkpt>
      <trkpt lat="42.57163" lon="-1.2439387">
        <time>2022-07-04T13:04:24Z</time>
      </trkpt>
      <trkpt lat="42.57166" lon="-1.2438476">
        <time>2022-07-04T13:04:26Z</time>
      </trkpt>
      <trkpt lat="42.57169" lon="-1.2437567">
        <time>2022-07-04T13:04:28Z</time>
      </trkpt>
      <trkpt lat="42.57172" lon="-1.243665">
        <time>2022-07-04T13:04:30Z</time>
      </trkpt>
      <trkpt lat="42.571754" lon="-1.2435733">
        <time>2022-07-04T13:04:32Z</time>
      </trkpt>
      <trkpt lat="42.571785" lon="-1.243483">
        <time>2022-07-04T13:04:34Z</time>
      </trkpt>
      <trkpt lat="42.57182" lon="-1.2433944">
        <time>2022-07-04T13:04:36Z</time>
      </trkpt>
      <trkpt lat="42.571854" lon="-1.2433044">
        <time>2022-07-04T13:04:38Z</time>
      </trkpt>
      <trkpt lat="42.571888" lon="-1.243214">
        <time>2022-07-04T13:04:40Z</time>
      </trkpt>
      <trkpt lat="42.571922" lon="-1.2431223">
        <time>2022-07-04T13:04:42Z</time>
      </trkpt>
      <trkpt lat="42.57196" lon="-1.2430283">
        <time>2022-07-04T13:04:44Z</time>
      </trkpt>
      <trkpt lat="42.571995" lon="-1.2429314">
        <time>2022-07-04T13:04:46Z</time>
      </trkpt>
      <trkpt lat="42.572033" lon="-1.2428321">
        <time>2022-07-04T13:04:48Z</time>
      </trkpt>
      <trkpt lat="42.572063" lon="-1.242733">
        <time>2022-07-04T13:04:50Z</time>
      </trkpt>
      <trkpt lat="42.5721" lon="-1.2426354">
        <time>2022-07-04T13:04:52Z</time>
      </trkpt>
      <trkpt lat="42.572132" lon="-1.2425367">
        <time>2022-07-04T13:04:54Z</time>
      </trkpt>
      <trkpt lat="42.572166" lon="-1.2424307">
        <time>2022-07-04T13:04:56Z</time>
      </trkpt>
      <trkpt lat="42.572197" lon="-1.2423377">
        <time>2022-07-04T13:04:58Z</time>
      </trkpt>
      <trkpt lat="42.572227" lon="-1.2422444">
        <time>2022-07-04T13:05:00Z</time>
      </trkpt>
      <trkpt lat="42.57226" lon="-1.2421484">
        <time>2022-07-04T13:05:02Z</time>
      </trkpt>
      <trkpt lat="42.572296" lon="-1.2420504">
        <time>2022-07-04T13:05:04Z</time>
      </trkpt>
      <trkpt lat="42.572334" lon="-1.2419504">
        <time>2022-07-04T13:05:06Z</time>
      </trkpt>
      <trkpt lat="42.572376" lon="-1.2418491">
        <time>2022-07-04T13:05:08Z</time>
      </trkpt>
      <trkpt lat="42.57241" lon="-1.241748">
        <time>2022-07-04T13:05:10Z</time>
      </trkpt>
      <trkpt lat="42.57244" lon="-1.2416497">
        <time>2022-07-04T13:05:12Z</time>
      </trkpt>
      <trkpt lat="42.572468" lon="-1.2415507">
        <time>2022-07-04T13:05:14Z</time>
      </trkpt>
      <trkpt lat="42.5725" lon="-1.2414521">
        <time>2022-07-04T13:05:16Z</time>
      </trkpt>
      <trkpt lat="42.572525" lon="-1.2413571">
        <time>2022-07-04T13:05:18Z</time>
      </trkpt>
      <trkpt lat="42.572556" lon="-1.2412637">
        <time>2022-07-04T13:05:20Z</time>
      </trkpt>
      <trkpt lat="42.572586" lon="-1.2411734">
        <time>2022-07-04T13:05:22Z</time>
      </trkpt>
      <trkpt lat="42.572617" lon="-1.2410874">
        <time>2022-07-04T13:05:24Z</time>
      </trkpt>
      <trkpt lat="42.572643" lon="-1.2410058">
        <time>2022-07-04T13:05:26Z</time>
      </trkpt>
      <trkpt lat="42.572666" lon="-1.2409264">
        <time>2022-07-04T13:05:28Z</time>
      </trkpt>
      <trkpt lat="42.572693" lon="-1.2408488">
        <time>2022-07-04T13:05:30Z</time>
      </trkpt>
      <trkpt lat="42.572723" lon="-1.2407718">
        <time>2022-07-04T13:05:32Z</time>
      </trkpt>
      <trkpt lat="42.57275" lon="-1.2406961">
        <time>2022-07-04T13:05:34Z</time>
      </trkpt>
      <trkpt lat="42.57278" lon="-1.2406181">
        <time>2022-07-04T13:05:36Z</time>
      </trkpt>
      <trkpt lat="42.5728" lon="-1.2405467">
        <time>2022-07-04T13:05:38Z</time>
      </trkpt>
      <trkpt lat="42.572826" lon="-1.2404745">
        <time>2022-07-04T13:05:40Z</time>
      </trkpt>
      <trkpt lat="42.57285" lon="-1.2404051">
        <time>2022-07-04T13:05:42Z</time>
      </trkpt>
      <trkpt lat="42.572872" lon="-1.2403388">
        <time>2022-07-04T13:05:44Z</time>
      </trkpt>
      <trkpt lat="42.572895" lon="-1.240272">
        <time>2022-07-04T13:05:46Z</time>
      </trkpt>
      <trkpt lat="42.572918" lon="-1.2402048">
        <time>2022-07-04T13:05:48Z</time>
      </trkpt>
      <trkpt lat="42.57294" lon="-1.2401391">
        <time>2022-07-04T13:05:50Z</time>
      </trkpt>
      <trkpt lat="42.572964" lon="-1.2400705">
        <time>2022-07-04T13:05:52Z</time>
      </trkpt>
      <trkpt lat="42.572987" lon="-1.2400031">
        <time>2022-07-04T13:05:54Z</time>
      </trkpt>
      <trkpt lat="42.57301" lon="-1.2399374">
        <time>2022-07-04T13:05:56Z</time>
      </trkpt>
      <trkpt lat="42.573032" lon="-1.2398667">
        <time>2022-07-04T13:05:58Z</time>
      </trkpt>
      <trkpt lat="42.573055" lon="-1.2398025">
        <time>2022-07-04T13:06:00Z</time>
      </trkpt>
      <trkpt lat="42.573074" lon="-1.2397444">
        <time>2022-07-04T13:06:02Z</time>
      </trkpt>
      <trkpt lat="42.57311" lon="-1.2396624">
        <time>2022-07-04T13:06:05Z</time>
      </trkpt>
      <trkpt lat="42.573128" lon="-1.2396054">
        <time>2022-07-04T13:06:07Z</time>
      </trkpt>
      <trkpt lat="42.573154" lon="-1.2395215">
        <time>2022-07-04T13:06:10Z</time>
      </trkpt>
      <trkpt lat="42.573185" lon="-1.2394338">
        <time>2022-07-04T13:06:13Z</time>
      </trkpt>
      <trkpt lat="42.57321" lon="-1.2393508">
        <time>2022-07-04T13:06:16Z</time>
      </trkpt>
      <trkpt lat="42.573242" lon="-1.2392654">
        <time>2022-07-04T13:06:19Z</time>
      </trkpt>
      <trkpt lat="42.573273" lon="-1.2391828">
        <time>2022-07-04T13:06:22Z</time>
      </trkpt>
      <trkpt lat="42.5733" lon="-1.2391038">
        <time>2022-07-04T13:06:25Z</time>
      </trkpt>
      <trkpt lat="42.573326" lon="-1.2390285">
        <time>2022-07-04T13:06:28Z</time>
      </trkpt>
      <trkpt lat="42.573353" lon="-1.2389544">
        <time>2022-07-04T13:06:31Z</time>
      </trkpt>
      <trkpt lat="42.573383" lon="-1.2388785">
        <time>2022-07-04T13:06:34Z</time>
      </trkpt>
      <trkpt lat="42.57341" lon="-1.2388065">
        <time>2022-07-04T13:06:37Z</time>
      </trkpt>
      <trkpt lat="42.573433" lon="-1.2387328">
        <time>2022-07-04T13:06:40Z</time>
      </trkpt>
      <trkpt lat="42.573463" lon="-1.2386558">
        <time>2022-07-04T13:06:43Z</time>
      </trkpt>
      <trkpt lat="42.573486" lon="-1.2385834">
        <time>2022-07-04T13:06:46Z</time>
      </trkpt>
      <trkpt lat="42.573517" lon="-1.2385032">
        <time>2022-07-04T13:06:49Z</time>
      </trkpt>
      <trkpt lat="42.573547" lon="-1.2384242">
        <time>2022-07-04T13:06:52Z</time>
      </trkpt>
      <trkpt lat="42.573574" lon="-1.2383468">
        <time>2022-07-04T13:06:55Z</time>
      </trkpt>
      <trkpt lat="42.573597" lon="-1.2382742">
        <time>2022-07-04T13:06:58Z</time>
      </trkpt>
      <trkpt lat="42.573624" lon="-1.2381998">
        <time>2022-07-04T13:07:01Z</time>
      </trkpt>
      <trkpt lat="42.573647" lon="-1.2381269">
        <time>2022-07-04T13:07:04Z</time>
      </trkpt>
      <trkpt lat="42.57367" lon="-1.2380512">
        <time>2022-07-04T13:07:07Z</time>
      </trkpt>
      <trkpt lat="42.573704" lon="-1.2379498">
        <time>2022-07-04T13:07:11Z</time>
      </trkpt>
      <trkpt lat="42.573727" lon="-1.2378755">
        <time>2022-07-04T13:07:14Z</time>
      </trkpt>
      <trkpt lat="42.573753" lon="-1.2377999">
        <time>2022-07-04T13:07:17Z</time>
      </trkpt>
      <trkpt lat="42.573776" lon="-1.2377225">
        <time>2022-07-04T13:07:20Z</time>
      </trkpt>
      <trkpt lat="42.573807" lon="-1.2376325">
        <time>2022-07-04T13:07:23Z</time>
      </trkpt>
      <trkpt lat="42.57383" lon="-1.2375479">
        <time>2022-07-04T13:07:26Z</time>
      </trkpt>
      <trkpt lat="42.573856" lon="-1.2374636">
        <time>2022-07-04T13:07:29Z</time>
      </trkpt>
      <trkpt lat="42.57387" lon="-1.2374046">
        <time>2022-07-04T13:07:31Z</time>
      </trkpt>
      <trkpt lat="42.5739" lon="-1.2373159">
        <time>2022-07-04T13:07:34Z</time>
      </trkpt>
      <trkpt lat="42.57393" lon="-1.2372235">
        <time>2022-07-04T13:07:37Z</time>
      </trkpt>
      <trkpt lat="42.573944" lon="-1.2371643">
        <time>2022-07-04T13:07:39Z</time>
      </trkpt>
      <trkpt lat="42.573975" lon="-1.2370778">
        <time>2022-07-04T13:07:42Z</time>
      </trkpt>
      <trkpt lat="42.573994" lon="-1.237019">
        <time>2022-07-04T13:07:44Z</time>
      </trkpt>
      <trkpt lat="42.57402" lon="-1.2369303">
        <time>2022-07-04T13:07:47Z</time>
      </trkpt>
      <trkpt lat="42.574036" lon="-1.2368722">
        <time>2022-07-04T13:07:49Z</time>
      </trkpt>
      <trkpt lat="42.574062" lon="-1.2367846">
        <time>2022-07-04T13:07:52Z</time>
      </trkpt>
      <trkpt lat="42.574074" lon="-1.2367272">
        <time>2022-07-04T13:07:54Z</time>
      </trkpt>
      <trkpt lat="42.574097" lon="-1.2366422">
        <time>2022-07-04T13:07:57Z</time>
      </trkpt>
      <trkpt lat="42.574123" lon="-1.2365522">
        <time>2022-07-04T13:08:00Z</time>
      </trkpt>
      <trkpt lat="42.57415" lon="-1.2364702">
        <time>2022-07-04T13:08:03Z</time>
      </trkpt>
      <trkpt lat="42.574177" lon="-1.2363802">
        <time>2022-07-04T13:08:06Z</time>
      </trkpt>
      <trkpt lat="42.574203" lon="-1.2362896">
        <time>2022-07-04T13:08:09Z</time>
      </trkpt>
      <trkpt lat="42.574226" lon="-1.2361996">
        <time>2022-07-04T13:08:12Z</time>
      </trkpt>
      <trkpt lat="42.574253" lon="-1.2361089">
        <time>2022-07-04T13:08:15Z</time>
      </trkpt>
      <trkpt lat="42.57428" lon="-1.2360216">
        <time>2022-07-04T13:08:18Z</time>
      </trkpt>
      <trkpt lat="42.57431" lon="-1.23593">
        <time>2022-07-04T13:08:21Z</time>
      </trkpt>
      <trkpt lat="42.574333" lon="-1.2358376">
        <time>2022-07-04T13:08:24Z</time>
      </trkpt>
      <trkpt lat="42.574352" lon="-1.2357602">
        <time>2022-07-04T13:08:27Z</time>
      </trkpt>
      <trkpt lat="42.57438" lon="-1.2356906">
        <time>2022-07-04T13:08:31Z</time>
      </trkpt>
      <trkpt lat="42.574394" lon="-1.2356216">
        <time>2022-07-04T13:08:35Z</time>
      </trkpt>
      <trkpt lat="42.57442" lon="-1.2355326">
        <time>2022-07-04T13:08:39Z</time>
      </trkpt>
      <trkpt lat="42.574444" lon="-1.2354612">
        <time>2022-07-04T13:08:42Z</time>
      </trkpt>
      <trkpt lat="42.57447" lon="-1.2353816">
        <time>2022-07-04T13:08:45Z</time>
      </trkpt>
      <trkpt lat="42.5745" lon="-1.2352976">
        <time>2022-07-04T13:08:48Z</time>
      </trkpt>
      <trkpt lat="42.574528" lon="-1.2352166">
        <time>2022-07-04T13:08:51Z</time>
      </trkpt>
      <trkpt lat="42.57455" lon="-1.2351366">
        <time>2022-07-04T13:08:54Z</time>
      </trkpt>
      <trkpt lat="42.57457" lon="-1.235065">
        <time>2022-07-04T13:08:57Z</time>
      </trkpt>
      <trkpt lat="42.57459" lon="-1.234995">
        <time>2022-07-04T13:09:00Z</time>
      </trkpt>
      <trkpt lat="42.574615" lon="-1.234918">
        <time>2022-07-04T13:09:03Z</time>
      </trkpt>
      <trkpt lat="42.574642" lon="-1.2348343">
        <time>2022-07-04T13:09:06Z</time>
      </trkpt>
      <trkpt lat="42.57467" lon="-1.2347543">
        <time>2022-07-04T13:09:09Z</time>
      </trkpt>
      <trkpt lat="42.574696" lon="-1.2346777">
        <time>2022-07-04T13:09:12Z</time>
      </trkpt>
      <trkpt lat="42.57472" lon="-1.2345977">
        <time>2022-07-04T13:09:15Z</time>
      </trkpt>
      <trkpt lat="42.574745" lon="-1.2345173">
        <time>2022-07-04T13:09:18Z</time>
      </trkpt>
      <trkpt lat="42.57477" lon="-1.2344353">
        <time>2022-07-04T13:09:21Z</time>
      </trkpt>
      <trkpt lat="42.5748" lon="-1.2343537">
        <time>2022-07-04T13:09:24Z</time>
      </trkpt>
      <trkpt lat="42.574825" lon="-1.2342703">
        <time>2022-07-04T13:09:27Z</time>
      </trkpt>
      <trkpt lat="42.574856" lon="-1.23419">
        <time>2022-07-04T13:09:30Z</time>
      </trkpt>
      <trkpt lat="42.574886" lon="-1.2341087">
        <time>2022-07-04T13:09:33Z</time>
      </trkpt>
      <trkpt lat="42.57492" lon="-1.2340243">
        <time>2022-07-04T13:09:36Z</time>
      </trkpt>
      <trkpt lat="42.574955" lon="-1.233942">
        <time>2022-07-04T13:09:39Z</time>
      </trkpt>
      <trkpt lat="42.574978" lon="-1.2338827">
        <time>2022-07-04T13:09:41Z</time>
      </trkpt>
      <trkpt lat="42.57501" lon="-1.2338017">
        <time>2022-07-04T13:09:44Z</time>
      </trkpt>
      <trkpt lat="42.57504" lon="-1.233721">
        <time>2022-07-04T13:09:47Z</time>
      </trkpt>
      <trkpt lat="42.575073" lon="-1.2336257">
        <time>2022-07-04T13:09:51Z</time>
      </trkpt>
      <trkpt lat="42.5751" lon="-1.233551">
        <time>2022-07-04T13:09:54Z</time>
      </trkpt>
      <trkpt lat="42.575127" lon="-1.233475">
        <time>2022-07-04T13:09:57Z</time>
      </trkpt>
      <trkpt lat="42.57516" lon="-1.2334054">
        <time>2022-07-04T13:10:00Z</time>
      </trkpt>
      <trkpt lat="42.575188" lon="-1.2333313">
        <time>2022-07-04T13:10:03Z</time>
      </trkpt>
      <trkpt lat="42.57521" lon="-1.233256">
        <time>2022-07-04T13:10:06Z</time>
      </trkpt>
      <trkpt lat="42.575233" lon="-1.2331873">
        <time>2022-07-04T13:10:09Z</time>
      </trkpt>
      <trkpt lat="42.57526" lon="-1.2331173">
        <time>2022-07-04T13:10:12Z</time>
      </trkpt>
      <trkpt lat="42.575287" lon="-1.2330427">
        <time>2022-07-04T13:10:15Z</time>
      </trkpt>
      <trkpt lat="42.575314" lon="-1.2329681">
        <time>2022-07-04T13:10:18Z</time>
      </trkpt>
      <trkpt lat="42.57534" lon="-1.2328907">
        <time>2022-07-04T13:10:21Z</time>
      </trkpt>
      <trkpt lat="42.575367" lon="-1.2328154">
        <time>2022-07-04T13:10:24Z</time>
      </trkpt>
      <trkpt lat="42.57539" lon="-1.2327437">
        <time>2022-07-04T13:10:27Z</time>
      </trkpt>
      <trkpt lat="42.57542" lon="-1.2326714">
        <time>2022-07-04T13:10:30Z</time>
      </trkpt>
      <trkpt lat="42.575443" lon="-1.2326018">
        <time>2022-07-04T13:10:33Z</time>
      </trkpt>
      <trkpt lat="42.57547" lon="-1.2325304">
        <time>2022-07-04T13:10:36Z</time>
      </trkpt>
      <trkpt lat="42.575497" lon="-1.2324554">
        <time>2022-07-04T13:10:39Z</time>
      </trkpt>
      <trkpt lat="42.575527" lon="-1.232382">
        <time>2022-07-04T13:10:42Z</time>
      </trkpt>
      <trkpt lat="42.575554" lon="-1.2323111">
        <time>2022-07-04T13:10:45Z</time>
      </trkpt>
      <trkpt lat="42.57558" lon="-1.2322394">
        <time>2022-07-04T13:10:48Z</time>
      </trkpt>
      <trkpt lat="42.57561" lon="-1.2321671">
        <time>2022-07-04T13:10:51Z</time>
      </trkpt>
      <trkpt lat="42.575638" lon="-1.2320981">
        <time>2022-07-04T13:10:54Z</time>
      </trkpt>
      <trkpt lat="42.575665" lon="-1.232027">
        <time>2022-07-04T13:10:57Z</time>
      </trkpt>
      <trkpt lat="42.575695" lon="-1.2319537">
        <time>2022-07-04T13:11:00Z</time>
      </trkpt>
      <trkpt lat="42.57572" lon="-1.231883">
        <time>2022-07-04T13:11:03Z</time>
      </trkpt>
      <trkpt lat="42.575752" lon="-1.2318134">
        <time>2022-07-04T13:11:06Z</time>
      </trkpt>
      <trkpt lat="42.575787" lon="-1.2317221">
        <time>2022-07-04T13:11:10Z</time>
      </trkpt>
      <trkpt lat="42.575813" lon="-1.2316558">
        <time>2022-07-04T13:11:13Z</time>
      </trkpt>
      <trkpt lat="42.57584" lon="-1.2315878">
        <time>2022-07-04T13:11:16Z</time>
      </trkpt>
      <trkpt lat="42.57586" lon="-1.2315181">
        <time>2022-07-04T13:11:19Z</time>
      </trkpt>
      <trkpt lat="42.575886" lon="-1.2314454">
        <time>2022-07-04T13:11:22Z</time>
      </trkpt>
      <trkpt lat="42.575912" lon="-1.2313721">
        <time>2022-07-04T13:11:25Z</time>
      </trkpt>
      <trkpt lat="42.575943" lon="-1.2313005">
        <time>2022-07-04T13:11:28Z</time>
      </trkpt>
      <trkpt lat="42.57597" lon="-1.2312301">
        <time>2022-07-04T13:11:31Z</time>
      </trkpt>
      <trkpt lat="42.575996" lon="-1.2311572">
        <time>2022-07-04T13:11:34Z</time>
      </trkpt>
      <trkpt lat="42.576023" lon="-1.2310861">
        <time>2022-07-04T13:11:37Z</time>
      </trkpt>
      <trkpt lat="42.576046" lon="-1.2310145">
        <time>2022-07-04T13:11:40Z</time>
      </trkpt>
      <trkpt lat="42.576073" lon="-1.2309425">
        <time>2022-07-04T13:11:43Z</time>
      </trkpt>
      <trkpt lat="42.5761" lon="-1.2308722">
        <time>2022-07-04T13:11:46Z</time>
      </trkpt>
      <trkpt lat="42.57613" lon="-1.2308028">
        <time>2022-07-04T13:11:49Z</time>
      </trkpt>
      <trkpt lat="42.576157" lon="-1.2307335">
        <time>2022-07-04T13:11:52Z</time>
      </trkpt>
      <trkpt lat="42.576187" lon="-1.2306635">
        <time>2022-07-04T13:11:55Z</time>
      </trkpt>
      <trkpt lat="42.576214" lon="-1.2305915">
        <time>2022-07-04T13:11:58Z</time>
      </trkpt>
      <trkpt lat="42.576237" lon="-1.2305275">
        <time>2022-07-04T13:12:01Z</time>
      </trkpt>
      <trkpt lat="42.576263" lon="-1.2304645">
        <time>2022-07-04T13:12:04Z</time>
      </trkpt>
      <trkpt lat="42.576286" lon="-1.2303988">
        <time>2022-07-04T13:12:07Z</time>
      </trkpt>
      <trkpt lat="42.576317" lon="-1.2303312">
        <time>2022-07-04T13:12:10Z</time>
      </trkpt>
      <trkpt lat="42.576347" lon="-1.2302645">
        <time>2022-07-04T13:12:13Z</time>
      </trkpt>
      <trkpt lat="42.57638" lon="-1.2301968">
        <time>2022-07-04T13:12:16Z</time>
      </trkpt>
      <trkpt lat="42.576416" lon="-1.2301298">
        <time>2022-07-04T13:12:19Z</time>
      </trkpt>
      <trkpt lat="42.576454" lon="-1.2300625">
        <time>2022-07-04T13:12:22Z</time>
      </trkpt>
      <trkpt lat="42.576492" lon="-1.2300001">
        <time>2022-07-04T13:12:25Z</time>
      </trkpt>
      <trkpt lat="42.576534" lon="-1.2299402">
        <time>2022-07-04T13:12:28Z</time>
      </trkpt>
      <trkpt lat="42.576576" lon="-1.2298828">
        <time>2022-07-04T13:12:31Z</time>
      </trkpt>
      <trkpt lat="42.576614" lon="-1.2298272">
        <time>2022-07-04T13:12:34Z</time>
      </trkpt>
      <trkpt lat="42.57666" lon="-1.2297702">
        <time>2022-07-04T13:12:37Z</time>
      </trkpt>
      <trkpt lat="42.576706" lon="-1.2297165">
        <time>2022-07-04T13:12:40Z</time>
      </trkpt>
      <trkpt lat="42.57675" lon="-1.2296646">
        <time>2022-07-04T13:12:43Z</time>
      </trkpt>
      <trkpt lat="42.576797" lon="-1.2296199">
        <time>2022-07-04T13:12:46Z</time>
      </trkpt>
      <trkpt lat="42.57685" lon="-1.2295742">
        <time>2022-07-04T13:12:49Z</time>
      </trkpt>
      <trkpt lat="42.576904" lon="-1.2295315">
        <time>2022-07-04T13:12:52Z</time>
      </trkpt>
      <trkpt lat="42.576954" lon="-1.2294896">
        <time>2022-07-04T13:12:55Z</time>
      </trkpt>
      <trkpt lat="42.577003" lon="-1.2294482">
        <time>2022-07-04T13:12:58Z</time>
      </trkpt>
      <trkpt lat="42.57705" lon="-1.2294079">
        <time>2022-07-04T13:13:01Z</time>
      </trkpt>
      <trkpt lat="42.5771" lon="-1.229371">
        <time>2022-07-04T13:13:04Z</time>
      </trkpt>
      <trkpt lat="42.577152" lon="-1.2293376">
        <time>2022-07-04T13:13:07Z</time>
      </trkpt>
      <trkpt lat="42.577206" lon="-1.2293056">
        <time>2022-07-04T13:13:10Z</time>
      </trkpt>
      <trkpt lat="42.577267" lon="-1.2292745">
        <time>2022-07-04T13:13:13Z</time>
      </trkpt>
      <trkpt lat="42.577324" lon="-1.2292455">
        <time>2022-07-04T13:13:16Z</time>
      </trkpt>
      <trkpt lat="42.577362" lon="-1.229227">
        <time>2022-07-04T13:13:19Z</time>
      </trkpt>
      <trkpt lat="42.57734" lon="-1.2292283">
        <time>2022-07-04T13:19:26Z</time>
      </trkpt>
      <trkpt lat="42.5774" lon="-1.2292129">
        <time>2022-07-04T13:19:29Z</time>
      </trkpt>
      <trkpt lat="42.577465" lon="-1.2291962">
        <time>2022-07-04T13:19:32Z</time>
      </trkpt>
      <trkpt lat="42.577522" lon="-1.2291802">
        <time>2022-07-04T13:19:35Z</time>
      </trkpt>
      <trkpt lat="42.57758" lon="-1.2291642">
        <time>2022-07-04T13:19:38Z</time>
      </trkpt>
      <trkpt lat="42.577637" lon="-1.229162">
        <time>2022-07-04T13:19:41Z</time>
      </trkpt>
      <trkpt lat="42.57769" lon="-1.2291616">
        <time>2022-07-04T13:19:44Z</time>
      </trkpt>
      <trkpt lat="42.577744" lon="-1.2291646">
        <time>2022-07-04T13:19:47Z</time>
      </trkpt>
      <trkpt lat="42.577805" lon="-1.2291613">
        <time>2022-07-04T13:19:50Z</time>
      </trkpt>
      <trkpt lat="42.577866" lon="-1.2291542">
        <time>2022-07-04T13:19:53Z</time>
      </trkpt>
      <trkpt lat="42.577927" lon="-1.229152">
        <time>2022-07-04T13:19:56Z</time>
      </trkpt>
      <trkpt lat="42.57799" lon="-1.2291503">
        <time>2022-07-04T13:19:59Z</time>
      </trkpt>
      <trkpt lat="42.578056" lon="-1.229149">
        <time>2022-07-04T13:20:02Z</time>
      </trkpt>
      <trkpt lat="42.57812" lon="-1.2291483">
        <time>2022-07-04T13:20:05Z</time>
      </trkpt>
      <trkpt lat="42.578182" lon="-1.2291512">
        <time>2022-07-04T13:20:08Z</time>
      </trkpt>
      <trkpt lat="42.578247" lon="-1.2291559">
        <time>2022-07-04T13:20:11Z</time>
      </trkpt>
      <trkpt lat="42.578304" lon="-1.2291573">
        <time>2022-07-04T13:20:14Z</time>
      </trkpt>
      <trkpt lat="42.578365" lon="-1.2291583">
        <time>2022-07-04T13:20:17Z</time>
      </trkpt>
      <trkpt lat="42.578423" lon="-1.22916">
        <time>2022-07-04T13:20:20Z</time>
      </trkpt>
      <trkpt lat="42.57848" lon="-1.2291613">
        <time>2022-07-04T13:20:23Z</time>
      </trkpt>
      <trkpt lat="42.57854" lon="-1.2291583">
        <time>2022-07-04T13:20:26Z</time>
      </trkpt>
      <trkpt lat="42.5786" lon="-1.2291559">
        <time>2022-07-04T13:20:29Z</time>
      </trkpt>
      <trkpt lat="42.57866" lon="-1.2291539">
        <time>2022-07-04T13:20:32Z</time>
      </trkpt>
      <trkpt lat="42.57872" lon="-1.2291553">
        <time>2022-07-04T13:20:35Z</time>
      </trkpt>
      <trkpt lat="42.57878" lon="-1.2291579">
        <time>2022-07-04T13:20:38Z</time>
      </trkpt>
      <trkpt lat="42.57884" lon="-1.2291603">
        <time>2022-07-04T13:20:41Z</time>
      </trkpt>
      <trkpt lat="42.5789" lon="-1.2291572">
        <time>2022-07-04T13:20:44Z</time>
      </trkpt>
      <trkpt lat="42.578957" lon="-1.2291559">
        <time>2022-07-04T13:20:47Z</time>
      </trkpt>
      <trkpt lat="42.579018" lon="-1.22916">
        <time>2022-07-04T13:20:50Z</time>
      </trkpt>
      <trkpt lat="42.579075" lon="-1.229162">
        <time>2022-07-04T13:20:53Z</time>
      </trkpt>
      <trkpt lat="42.579132" lon="-1.2291635">
        <time>2022-07-04T13:20:56Z</time>
      </trkpt>
      <trkpt lat="42.57918" lon="-1.2291652">
        <time>2022-07-04T13:20:59Z</time>
      </trkpt>
      <trkpt lat="42.57925" lon="-1.2291666">
        <time>2022-07-04T13:21:03Z</time>
      </trkpt>
      <trkpt lat="42.579308" lon="-1.2291679">
        <time>2022-07-04T13:21:06Z</time>
      </trkpt>
      <trkpt lat="42.579365" lon="-1.2291722">
        <time>2022-07-04T13:21:09Z</time>
      </trkpt>
      <trkpt lat="42.579426" lon="-1.2291778">
        <time>2022-07-04T13:21:12Z</time>
      </trkpt>
      <trkpt lat="42.579483" lon="-1.2291772">
        <time>2022-07-04T13:21:15Z</time>
      </trkpt>
      <trkpt lat="42.57954" lon="-1.2291765">
        <time>2022-07-04T13:21:18Z</time>
      </trkpt>
      <trkpt lat="42.579594" lon="-1.2291759">
        <time>2022-07-04T13:21:21Z</time>
      </trkpt>
      <trkpt lat="42.57965" lon="-1.2291772">
        <time>2022-07-04T13:21:24Z</time>
      </trkpt>
      <trkpt lat="42.57971" lon="-1.2291785">
        <time>2022-07-04T13:21:27Z</time>
      </trkpt>
      <trkpt lat="42.57976" lon="-1.2291812">
        <time>2022-07-04T13:21:30Z</time>
      </trkpt>
      <trkpt lat="42.579815" lon="-1.2291856">
        <time>2022-07-04T13:21:33Z</time>
      </trkpt>
      <trkpt lat="42.579872" lon="-1.2291923">
        <time>2022-07-04T13:21:36Z</time>
      </trkpt>
      <trkpt lat="42.57993" lon="-1.2291939">
        <time>2022-07-04T13:21:39Z</time>
      </trkpt>
      <trkpt lat="42.579983" lon="-1.2291925">
        <time>2022-07-04T13:21:42Z</time>
      </trkpt>
      <trkpt lat="42.580036" lon="-1.2291902">
        <time>2022-07-04T13:21:45Z</time>
      </trkpt>
      <trkpt lat="42.58009" lon="-1.2291869">
        <time>2022-07-04T13:21:48Z</time>
      </trkpt>
      <trkpt lat="42.580154" lon="-1.2291876">
        <time>2022-07-04T13:21:52Z</time>
      </trkpt>
      <trkpt lat="42.5802" lon="-1.2291886">
        <time>2022-07-04T13:21:55Z</time>
      </trkpt>
      <trkpt lat="42.58027" lon="-1.2291843">
        <time>2022-07-04T13:21:59Z</time>
      </trkpt>
      <trkpt lat="42.58033" lon="-1.2291782">
        <time>2022-07-04T13:22:03Z</time>
      </trkpt>
      <trkpt lat="42.58039" lon="-1.2291845">
        <time>2022-07-04T13:22:07Z</time>
      </trkpt>
      <trkpt lat="42.580452" lon="-1.2291886">
        <time>2022-07-04T13:22:11Z</time>
      </trkpt>
      <trkpt lat="42.580517" lon="-1.2291895">
        <time>2022-07-04T13:22:15Z</time>
      </trkpt>
      <trkpt lat="42.58058" lon="-1.2291949">
        <time>2022-07-04T13:22:19Z</time>
      </trkpt>
      <trkpt lat="42.58063" lon="-1.2291965">
        <time>2022-07-04T13:22:22Z</time>
      </trkpt>
      <trkpt lat="42.580692" lon="-1.2292008">
        <time>2022-07-04T13:22:26Z</time>
      </trkpt>
      <trkpt lat="42.58074" lon="-1.2292038">
        <time>2022-07-04T13:22:29Z</time>
      </trkpt>
      <trkpt lat="42.580807" lon="-1.2291982">
        <time>2022-07-04T13:22:33Z</time>
      </trkpt>
      <trkpt lat="42.58086" lon="-1.2291906">
        <time>2022-07-04T13:22:36Z</time>
      </trkpt>
      <trkpt lat="42.58092" lon="-1.2291719">
        <time>2022-07-04T13:22:40Z</time>
      </trkpt>
      <trkpt lat="42.58097" lon="-1.2291509">
        <time>2022-07-04T13:22:43Z</time>
      </trkpt>
      <trkpt lat="42.58103" lon="-1.2291136">
        <time>2022-07-04T13:22:47Z</time>
      </trkpt>
      <trkpt lat="42.581074" lon="-1.2290813">
        <time>2022-07-04T13:22:50Z</time>
      </trkpt>
      <trkpt lat="42.58113" lon="-1.2290342">
        <time>2022-07-04T13:22:54Z</time>
      </trkpt>
      <trkpt lat="42.581173" lon="-1.2289939">
        <time>2022-07-04T13:22:57Z</time>
      </trkpt>
      <trkpt lat="42.581226" lon="-1.2289329">
        <time>2022-07-04T13:23:01Z</time>
      </trkpt>
      <trkpt lat="42.58126" lon="-1.2288879">
        <time>2022-07-04T13:23:04Z</time>
      </trkpt>
      <trkpt lat="42.581303" lon="-1.2288516">
        <time>2022-07-04T13:23:07Z</time>
      </trkpt>
      <trkpt lat="42.581356" lon="-1.2288013">
        <time>2022-07-04T13:23:11Z</time>
      </trkpt>
      <trkpt lat="42.58141" lon="-1.2287519">
        <time>2022-07-04T13:23:15Z</time>
      </trkpt>
      <trkpt lat="42.58146" lon="-1.2287039">
        <time>2022-07-04T13:23:19Z</time>
      </trkpt>
      <trkpt lat="42.581516" lon="-1.2286589">
        <time>2022-07-04T13:23:23Z</time>
      </trkpt>
      <trkpt lat="42.581562" lon="-1.2286305">
        <time>2022-07-04T13:23:26Z</time>
      </trkpt>
      <trkpt lat="42.581615" lon="-1.2286016">
        <time>2022-07-04T13:23:29Z</time>
      </trkpt>
      <trkpt lat="42.581665" lon="-1.2285749">
        <time>2022-07-04T13:23:32Z</time>
      </trkpt>
      <trkpt lat="42.58172" lon="-1.2285522">
        <time>2022-07-04T13:23:35Z</time>
      </trkpt>
      <trkpt lat="42.581776" lon="-1.228534">
        <time>2022-07-04T13:23:38Z</time>
      </trkpt>
      <trkpt lat="42.581833" lon="-1.2285212">
        <time>2022-07-04T13:23:41Z</time>
      </trkpt>
      <trkpt lat="42.581886" lon="-1.2285156">
        <time>2022-07-04T13:23:44Z</time>
      </trkpt>
      <trkpt lat="42.581936" lon="-1.2285132">
        <time>2022-07-04T13:23:47Z</time>
      </trkpt>
      <trkpt lat="42.582" lon="-1.2285146">
        <time>2022-07-04T13:23:51Z</time>
      </trkpt>
      <trkpt lat="42.582047" lon="-1.2285299">
        <time>2022-07-04T13:23:54Z</time>
      </trkpt>
      <trkpt lat="42.582108" lon="-1.22857">
        <time>2022-07-04T13:23:58Z</time>
      </trkpt>
      <trkpt lat="42.582153" lon="-1.2286016">
        <time>2022-07-04T13:24:01Z</time>
      </trkpt>
      <trkpt lat="42.582203" lon="-1.2286483">
        <time>2022-07-04T13:24:05Z</time>
      </trkpt>
      <trkpt lat="42.582233" lon="-1.2286953">
        <time>2022-07-04T13:24:08Z</time>
      </trkpt>
      <trkpt lat="42.58227" lon="-1.228771">
        <time>2022-07-04T13:24:12Z</time>
      </trkpt>
      <trkpt lat="42.582302" lon="-1.2288469">
        <time>2022-07-04T13:24:16Z</time>
      </trkpt>
      <trkpt lat="42.582333" lon="-1.2288989">
        <time>2022-07-04T13:24:19Z</time>
      </trkpt>
      <trkpt lat="42.58237" lon="-1.2289692">
        <time>2022-07-04T13:24:23Z</time>
      </trkpt>
      <trkpt lat="42.582405" lon="-1.2290459">
        <time>2022-07-04T13:24:27Z</time>
      </trkpt>
      <trkpt lat="42.58243" lon="-1.2291023">
        <time>2022-07-04T13:24:30Z</time>
      </trkpt>
      <trkpt lat="42.582466" lon="-1.2291735">
        <time>2022-07-04T13:24:34Z</time>
      </trkpt>
      <trkpt lat="42.582508" lon="-1.2292455">
        <time>2022-07-04T13:24:38Z</time>
      </trkpt>
      <trkpt lat="42.58254" lon="-1.2292975">
        <time>2022-07-04T13:24:41Z</time>
      </trkpt>
      <trkpt lat="42.58258" lon="-1.2293552">
        <time>2022-07-04T13:24:45Z</time>
      </trkpt>
      <trkpt lat="42.58262" lon="-1.2293946">
        <time>2022-07-04T13:24:48Z</time>
      </trkpt>
      <trkpt lat="42.582664" lon="-1.2294493">
        <time>2022-07-04T13:24:52Z</time>
      </trkpt>
      <trkpt lat="42.58271" lon="-1.2295029">
        <time>2022-07-04T13:24:56Z</time>
      </trkpt>
      <trkpt lat="42.582756" lon="-1.2295549">
        <time>2022-07-04T13:25:00Z</time>
      </trkpt>
      <trkpt lat="42.582798" lon="-1.2296078">
        <time>2022-07-04T13:25:04Z</time>
      </trkpt>
      <trkpt lat="42.582848" lon="-1.2296596">
        <time>2022-07-04T13:25:08Z</time>
      </trkpt>
      <trkpt lat="42.582897" lon="-1.2297078">
        <time>2022-07-04T13:25:12Z</time>
      </trkpt>
      <trkpt lat="42.582947" lon="-1.2297509">
        <time>2022-07-04T13:25:16Z</time>
      </trkpt>
      <trkpt lat="42.583008" lon="-1.2297826">
        <time>2022-07-04T13:25:20Z</time>
      </trkpt>
      <trkpt lat="42.58307" lon="-1.2297856">
        <time>2022-07-04T13:25:24Z</time>
      </trkpt>
      <trkpt lat="42.583126" lon="-1.2297542">
        <time>2022-07-04T13:25:28Z</time>
      </trkpt>
      <trkpt lat="42.583176" lon="-1.2297006">
        <time>2022-07-04T13:25:32Z</time>
      </trkpt>
      <trkpt lat="42.583218" lon="-1.2296286">
        <time>2022-07-04T13:25:36Z</time>
      </trkpt>
      <trkpt lat="42.583244" lon="-1.2295692">
        <time>2022-07-04T13:25:39Z</time>
      </trkpt>
      <trkpt lat="42.58327" lon="-1.2295072">
        <time>2022-07-04T13:25:42Z</time>
      </trkpt>
      <trkpt lat="42.583294" lon="-1.2294289">
        <time>2022-07-04T13:25:46Z</time>
      </trkpt>
      <trkpt lat="42.58331" lon="-1.2293499">
        <time>2022-07-04T13:25:50Z</time>
      </trkpt>
      <trkpt lat="42.583324" lon="-1.2292732">
        <time>2022-07-04T13:25:54Z</time>
      </trkpt>
      <trkpt lat="42.583344" lon="-1.2291969">
        <time>2022-07-04T13:25:58Z</time>
      </trkpt>
      <trkpt lat="42.583366" lon="-1.2291236">
        <time>2022-07-04T13:26:02Z</time>
      </trkpt>
      <trkpt lat="42.58338" lon="-1.2290442">
        <time>2022-07-04T13:26:06Z</time>
      </trkpt>
      <trkpt lat="42.583405" lon="-1.2289649">
        <time>2022-07-04T13:26:10Z</time>
      </trkpt>
      <trkpt lat="42.583424" lon="-1.2288862">
        <time>2022-07-04T13:26:14Z</time>
      </trkpt>
      <trkpt lat="42.58344" lon="-1.2288079">
        <time>2022-07-04T13:26:18Z</time>
      </trkpt>
      <trkpt lat="42.583458" lon="-1.2287335">
        <time>2022-07-04T13:26:22Z</time>
      </trkpt>
      <trkpt lat="42.583477" lon="-1.2286569">
        <time>2022-07-04T13:26:26Z</time>
      </trkpt>
      <trkpt lat="42.583496" lon="-1.228578">
        <time>2022-07-04T13:26:30Z</time>
      </trkpt>
      <trkpt lat="42.58352" lon="-1.2284995">
        <time>2022-07-04T13:26:34Z</time>
      </trkpt>
      <trkpt lat="42.58354" lon="-1.2284229">
        <time>2022-07-04T13:26:38Z</time>
      </trkpt>
      <trkpt lat="42.583565" lon="-1.228344">
        <time>2022-07-04T13:26:42Z</time>
      </trkpt>
      <trkpt lat="42.58359" lon="-1.2282436">
        <time>2022-07-04T13:26:47Z</time>
      </trkpt>
      <trkpt lat="42.583614" lon="-1.2281606">
        <time>2022-07-04T13:26:51Z</time>
      </trkpt>
      <trkpt lat="42.58363" lon="-1.2280916">
        <time>2022-07-04T13:26:54Z</time>
      </trkpt>
      <trkpt lat="42.58364" lon="-1.2280236">
        <time>2022-07-04T13:26:57Z</time>
      </trkpt>
      <trkpt lat="42.583656" lon="-1.2279472">
        <time>2022-07-04T13:27:00Z</time>
      </trkpt>
      <trkpt lat="42.583675" lon="-1.2278637">
        <time>2022-07-04T13:27:03Z</time>
      </trkpt>
      <trkpt lat="42.5837" lon="-1.227777">
        <time>2022-07-04T13:27:06Z</time>
      </trkpt>
      <trkpt lat="42.583725" lon="-1.227687">
        <time>2022-07-04T13:27:09Z</time>
      </trkpt>
      <trkpt lat="42.58375" lon="-1.2275943">
        <time>2022-07-04T13:27:12Z</time>
      </trkpt>
      <trkpt lat="42.583775" lon="-1.2275323">
        <time>2022-07-04T13:27:14Z</time>
      </trkpt>
      <trkpt lat="42.583797" lon="-1.2274393">
        <time>2022-07-04T13:27:17Z</time>
      </trkpt>
      <trkpt lat="42.583817" lon="-1.227343">
        <time>2022-07-04T13:27:20Z</time>
      </trkpt>
      <trkpt lat="42.583828" lon="-1.227278">
        <time>2022-07-04T13:27:22Z</time>
      </trkpt>
      <trkpt lat="42.583855" lon="-1.227178">
        <time>2022-07-04T13:27:25Z</time>
      </trkpt>
      <trkpt lat="42.58387" lon="-1.2271193">
        <time>2022-07-04T13:27:27Z</time>
      </trkpt>
      <trkpt lat="42.583897" lon="-1.2270226">
        <time>2022-07-04T13:27:30Z</time>
      </trkpt>
      <trkpt lat="42.583923" lon="-1.2269297">
        <time>2022-07-04T13:27:33Z</time>
      </trkpt>
      <trkpt lat="42.583942" lon="-1.2268656">
        <time>2022-07-04T13:27:35Z</time>
      </trkpt>
      <trkpt lat="42.58397" lon="-1.226767">
        <time>2022-07-04T13:27:38Z</time>
      </trkpt>
      <trkpt lat="42.58399" lon="-1.226696">
        <time>2022-07-04T13:27:40Z</time>
      </trkpt>
      <trkpt lat="42.584007" lon="-1.226628">
        <time>2022-07-04T13:27:42Z</time>
      </trkpt>
      <trkpt lat="42.584026" lon="-1.2265617">
        <time>2022-07-04T13:27:44Z</time>
      </trkpt>
      <trkpt lat="42.58405" lon="-1.2264936">
        <time>2022-07-04T13:27:46Z</time>
      </trkpt>
      <trkpt lat="42.584076" lon="-1.2264299">
        <time>2022-07-04T13:27:48Z</time>
      </trkpt>
      <trkpt lat="42.584106" lon="-1.2263707">
        <time>2022-07-04T13:27:50Z</time>
      </trkpt>
      <trkpt lat="42.584133" lon="-1.22631">
        <time>2022-07-04T13:27:52Z</time>
      </trkpt>
      <trkpt lat="42.584156" lon="-1.226256">
        <time>2022-07-04T13:27:54Z</time>
      </trkpt>
      <trkpt lat="42.584198" lon="-1.226196">
        <time>2022-07-04T13:27:57Z</time>
      </trkpt>
      <trkpt lat="42.5843" lon="-1.2261107">
        <time>2022-07-04T13:30:07Z</time>
      </trkpt>
      <trkpt lat="42.584373" lon="-1.226075">
        <time>2022-07-04T13:30:10Z</time>
      </trkpt>
      <trkpt lat="42.58444" lon="-1.226048">
        <time>2022-07-04T13:30:12Z</time>
      </trkpt>
      <trkpt lat="42.58451" lon="-1.2260246">
        <time>2022-07-04T13:30:14Z</time>
      </trkpt>
      <trkpt lat="42.584595" lon="-1.2260053">
        <time>2022-07-04T13:30:16Z</time>
      </trkpt>
      <trkpt lat="42.58469" lon="-1.225986">
        <time>2022-07-04T13:30:18Z</time>
      </trkpt>
      <trkpt lat="42.584793" lon="-1.2259624">
        <time>2022-07-04T13:30:20Z</time>
      </trkpt>
      <trkpt lat="42.584846" lon="-1.2259483">
        <time>2022-07-04T13:30:21Z</time>
      </trkpt>
      <trkpt lat="42.584904" lon="-1.2259331">
        <time>2022-07-04T13:30:22Z</time>
      </trkpt>
      <trkpt lat="42.584965" lon="-1.225916">
        <time>2022-07-04T13:30:23Z</time>
      </trkpt>
      <trkpt lat="42.585026" lon="-1.2258964">
        <time>2022-07-04T13:30:24Z</time>
      </trkpt>
      <trkpt lat="42.58509" lon="-1.2258707">
        <time>2022-07-04T13:30:25Z</time>
      </trkpt>
      <trkpt lat="42.585155" lon="-1.225837">
        <time>2022-07-04T13:30:26Z</time>
      </trkpt>
      <trkpt lat="42.58522" lon="-1.2257941">
        <time>2022-07-04T13:30:27Z</time>
      </trkpt>
      <trkpt lat="42.58528" lon="-1.2257427">
        <time>2022-07-04T13:30:28Z</time>
      </trkpt>
      <trkpt lat="42.585342" lon="-1.2256844">
        <time>2022-07-04T13:30:29Z</time>
      </trkpt>
      <trkpt lat="42.585407" lon="-1.22562">
        <time>2022-07-04T13:30:30Z</time>
      </trkpt>
      <trkpt lat="42.585464" lon="-1.225551">
        <time>2022-07-04T13:30:31Z</time>
      </trkpt>
      <trkpt lat="42.585526" lon="-1.2254794">
        <time>2022-07-04T13:30:32Z</time>
      </trkpt>
      <trkpt lat="42.585583" lon="-1.2254057">
        <time>2022-07-04T13:30:33Z</time>
      </trkpt>
      <trkpt lat="42.585632" lon="-1.2253287">
        <time>2022-07-04T13:30:34Z</time>
      </trkpt>
      <trkpt lat="42.58568" lon="-1.2252464">
        <time>2022-07-04T13:30:35Z</time>
      </trkpt>
      <trkpt lat="42.585716" lon="-1.2251574">
        <time>2022-07-04T13:30:36Z</time>
      </trkpt>
      <trkpt lat="42.585747" lon="-1.2250607">
        <time>2022-07-04T13:30:37Z</time>
      </trkpt>
      <trkpt lat="42.585762" lon="-1.2249564">
        <time>2022-07-04T13:30:38Z</time>
      </trkpt>
      <trkpt lat="42.58577" lon="-1.2248478">
        <time>2022-07-04T13:30:39Z</time>
      </trkpt>
      <trkpt lat="42.585766" lon="-1.2246192">
        <time>2022-07-04T13:30:41Z</time>
      </trkpt>
      <trkpt lat="42.585754" lon="-1.2245008">
        <time>2022-07-04T13:30:42Z</time>
      </trkpt>
      <trkpt lat="42.585747" lon="-1.2243818">
        <time>2022-07-04T13:30:43Z</time>
      </trkpt>
      <trkpt lat="42.58574" lon="-1.2242608">
        <time>2022-07-04T13:30:44Z</time>
      </trkpt>
      <trkpt lat="42.585735" lon="-1.2241391">
        <time>2022-07-04T13:30:45Z</time>
      </trkpt>
      <trkpt lat="42.585735" lon="-1.2240151">
        <time>2022-07-04T13:30:46Z</time>
      </trkpt>
      <trkpt lat="42.58574" lon="-1.2238898">
        <time>2022-07-04T13:30:47Z</time>
      </trkpt>
      <trkpt lat="42.585743" lon="-1.2237631">
        <time>2022-07-04T13:30:48Z</time>
      </trkpt>
      <trkpt lat="42.585747" lon="-1.2236345">
        <time>2022-07-04T13:30:49Z</time>
      </trkpt>
      <trkpt lat="42.585754" lon="-1.2235051">
        <time>2022-07-04T13:30:50Z</time>
      </trkpt>
      <trkpt lat="42.58577" lon="-1.2233741">
        <time>2022-07-04T13:30:51Z</time>
      </trkpt>
      <trkpt lat="42.58578" lon="-1.2232431">
        <time>2022-07-04T13:30:52Z</time>
      </trkpt>
      <trkpt lat="42.5858" lon="-1.2231121">
        <time>2022-07-04T13:30:53Z</time>
      </trkpt>
      <trkpt lat="42.585827" lon="-1.2229811">
        <time>2022-07-04T13:30:54Z</time>
      </trkpt>
      <trkpt lat="42.585854" lon="-1.2228518">
        <time>2022-07-04T13:30:55Z</time>
      </trkpt>
      <trkpt lat="42.585888" lon="-1.2227248">
        <time>2022-07-04T13:30:56Z</time>
      </trkpt>
      <trkpt lat="42.585922" lon="-1.2226012">
        <time>2022-07-04T13:30:57Z</time>
      </trkpt>
      <trkpt lat="42.58596" lon="-1.2224805">
        <time>2022-07-04T13:30:58Z</time>
      </trkpt>
      <trkpt lat="42.586002" lon="-1.2223629">
        <time>2022-07-04T13:30:59Z</time>
      </trkpt>
      <trkpt lat="42.58605" lon="-1.2222468">
        <time>2022-07-04T13:31:00Z</time>
      </trkpt>
      <trkpt lat="42.586098" lon="-1.2221318">
        <time>2022-07-04T13:31:01Z</time>
      </trkpt>
      <trkpt lat="42.586143" lon="-1.2220168">
        <time>2022-07-04T13:31:02Z</time>
      </trkpt>
      <trkpt lat="42.586193" lon="-1.2219018">
        <time>2022-07-04T13:31:03Z</time>
      </trkpt>
      <trkpt lat="42.586246" lon="-1.2217882">
        <time>2022-07-04T13:31:04Z</time>
      </trkpt>
      <trkpt lat="42.586296" lon="-1.2216761">
        <time>2022-07-04T13:31:05Z</time>
      </trkpt>
      <trkpt lat="42.586346" lon="-1.2215651">
        <time>2022-07-04T13:31:06Z</time>
      </trkpt>
      <trkpt lat="42.5864" lon="-1.2214558">
        <time>2022-07-04T13:31:07Z</time>
      </trkpt>
      <trkpt lat="42.586452" lon="-1.2213465">
        <time>2022-07-04T13:31:08Z</time>
      </trkpt>
      <trkpt lat="42.586506" lon="-1.2212379">
        <time>2022-07-04T13:31:09Z</time>
      </trkpt>
      <trkpt lat="42.58656" lon="-1.2211301">
        <time>2022-07-04T13:31:10Z</time>
      </trkpt>
      <trkpt lat="42.586617" lon="-1.2210245">
        <time>2022-07-04T13:31:11Z</time>
      </trkpt>
      <trkpt lat="42.586674" lon="-1.2209225">
        <time>2022-07-04T13:31:12Z</time>
      </trkpt>
      <trkpt lat="42.586735" lon="-1.2208252">
        <time>2022-07-04T13:31:13Z</time>
      </trkpt>
      <trkpt lat="42.5868" lon="-1.2207322">
        <time>2022-07-04T13:31:14Z</time>
      </trkpt>
      <trkpt lat="42.586864" lon="-1.2206435">
        <time>2022-07-04T13:31:15Z</time>
      </trkpt>
      <trkpt lat="42.586933" lon="-1.2205576">
        <time>2022-07-04T13:31:16Z</time>
      </trkpt>
      <trkpt lat="42.587006" lon="-1.2204742">
        <time>2022-07-04T13:31:17Z</time>
      </trkpt>
      <trkpt lat="42.58708" lon="-1.2203939">
        <time>2022-07-04T13:31:18Z</time>
      </trkpt>
      <trkpt lat="42.587154" lon="-1.2203158">
        <time>2022-07-04T13:31:19Z</time>
      </trkpt>
      <trkpt lat="42.587227" lon="-1.2202402">
        <time>2022-07-04T13:31:20Z</time>
      </trkpt>
      <trkpt lat="42.5873" lon="-1.2201669">
        <time>2022-07-04T13:31:21Z</time>
      </trkpt>
      <trkpt lat="42.587368" lon="-1.2200983">
        <time>2022-07-04T13:31:22Z</time>
      </trkpt>
      <trkpt lat="42.58744" lon="-1.2200342">
        <time>2022-07-04T13:31:23Z</time>
      </trkpt>
      <trkpt lat="42.58751" lon="-1.2199749">
        <time>2022-07-04T13:31:24Z</time>
      </trkpt>
      <trkpt lat="42.587574" lon="-1.2199229">
        <time>2022-07-04T13:31:25Z</time>
      </trkpt>
      <trkpt lat="42.587646" lon="-1.2198828">
        <time>2022-07-04T13:31:26Z</time>
      </trkpt>
      <trkpt lat="42.58772" lon="-1.2198596">
        <time>2022-07-04T13:31:27Z</time>
      </trkpt>
      <trkpt lat="42.587795" lon="-1.2198535">
        <time>2022-07-04T13:31:28Z</time>
      </trkpt>
      <trkpt lat="42.587868" lon="-1.2198648">
        <time>2022-07-04T13:31:29Z</time>
      </trkpt>
      <trkpt lat="42.587948" lon="-1.2198899">
        <time>2022-07-04T13:31:30Z</time>
      </trkpt>
      <trkpt lat="42.588024" lon="-1.2199283">
        <time>2022-07-04T13:31:31Z</time>
      </trkpt>
      <trkpt lat="42.5881" lon="-1.2199786">
        <time>2022-07-04T13:31:32Z</time>
      </trkpt>
      <trkpt lat="42.588177" lon="-1.2200372">
        <time>2022-07-04T13:31:33Z</time>
      </trkpt>
      <trkpt lat="42.588253" lon="-1.2201005">
        <time>2022-07-04T13:31:34Z</time>
      </trkpt>
      <trkpt lat="42.58833" lon="-1.2201636">
        <time>2022-07-04T13:31:35Z</time>
      </trkpt>
      <trkpt lat="42.588413" lon="-1.2202219">
        <time>2022-07-04T13:31:36Z</time>
      </trkpt>
      <trkpt lat="42.588493" lon="-1.2202725">
        <time>2022-07-04T13:31:37Z</time>
      </trkpt>
      <trkpt lat="42.58858" lon="-1.2203122">
        <time>2022-07-04T13:31:38Z</time>
      </trkpt>
      <trkpt lat="42.58867" lon="-1.2203382">
        <time>2022-07-04T13:31:39Z</time>
      </trkpt>
      <trkpt lat="42.588757" lon="-1.2203479">
        <time>2022-07-04T13:31:40Z</time>
      </trkpt>
      <trkpt lat="42.58885" lon="-1.2203399">
        <time>2022-07-04T13:31:41Z</time>
      </trkpt>
      <trkpt lat="42.588936" lon="-1.2203145">
        <time>2022-07-04T13:31:42Z</time>
      </trkpt>
      <trkpt lat="42.58902" lon="-1.2202725">
        <time>2022-07-04T13:31:43Z</time>
      </trkpt>
      <trkpt lat="42.5891" lon="-1.2202115">
        <time>2022-07-04T13:31:44Z</time>
      </trkpt>
      <trkpt lat="42.58917" lon="-1.2201322">
        <time>2022-07-04T13:31:45Z</time>
      </trkpt>
      <trkpt lat="42.589226" lon="-1.2200359">
        <time>2022-07-04T13:31:46Z</time>
      </trkpt>
      <trkpt lat="42.58927" lon="-1.2199262">
        <time>2022-07-04T13:31:47Z</time>
      </trkpt>
      <trkpt lat="42.589306" lon="-1.2198086">
        <time>2022-07-04T13:31:48Z</time>
      </trkpt>
      <trkpt lat="42.589336" lon="-1.2196872">
        <time>2022-07-04T13:31:49Z</time>
      </trkpt>
      <trkpt lat="42.589363" lon="-1.2195632">
        <time>2022-07-04T13:31:50Z</time>
      </trkpt>
      <trkpt lat="42.58939" lon="-1.2194382">
        <time>2022-07-04T13:31:51Z</time>
      </trkpt>
      <trkpt lat="42.58942" lon="-1.2193135">
        <time>2022-07-04T13:31:52Z</time>
      </trkpt>
      <trkpt lat="42.58945" lon="-1.2191949">
        <time>2022-07-04T13:31:53Z</time>
      </trkpt>
      <trkpt lat="42.589493" lon="-1.2190826">
        <time>2022-07-04T13:31:54Z</time>
      </trkpt>
      <trkpt lat="42.589542" lon="-1.2189822">
        <time>2022-07-04T13:31:55Z</time>
      </trkpt>
      <trkpt lat="42.5896" lon="-1.2188939">
        <time>2022-07-04T13:31:56Z</time>
      </trkpt>
      <trkpt lat="42.589664" lon="-1.2188189">
        <time>2022-07-04T13:31:57Z</time>
      </trkpt>
      <trkpt lat="42.58981" lon="-1.2187063">
        <time>2022-07-04T13:31:59Z</time>
      </trkpt>
      <trkpt lat="42.589886" lon="-1.2186669">
        <time>2022-07-04T13:32:00Z</time>
      </trkpt>
      <trkpt lat="42.589966" lon="-1.2186369">
        <time>2022-07-04T13:32:01Z</time>
      </trkpt>
      <trkpt lat="42.590046" lon="-1.2186136">
        <time>2022-07-04T13:32:02Z</time>
      </trkpt>
      <trkpt lat="42.590126" lon="-1.2185959">
        <time>2022-07-04T13:32:03Z</time>
      </trkpt>
      <trkpt lat="42.59021" lon="-1.2185829">
        <time>2022-07-04T13:32:04Z</time>
      </trkpt>
      <trkpt lat="42.59029" lon="-1.2185752">
        <time>2022-07-04T13:32:05Z</time>
      </trkpt>
      <trkpt lat="42.59037" lon="-1.2185763">
        <time>2022-07-04T13:32:06Z</time>
      </trkpt>
      <trkpt lat="42.59045" lon="-1.218589">
        <time>2022-07-04T13:32:07Z</time>
      </trkpt>
      <trkpt lat="42.59053" lon="-1.2186142">
        <time>2022-07-04T13:32:08Z</time>
      </trkpt>
      <trkpt lat="42.590607" lon="-1.2186515">
        <time>2022-07-04T13:32:09Z</time>
      </trkpt>
      <trkpt lat="42.59068" lon="-1.2187003">
        <time>2022-07-04T13:32:10Z</time>
      </trkpt>
      <trkpt lat="42.590748" lon="-1.2187595">
        <time>2022-07-04T13:32:11Z</time>
      </trkpt>
      <trkpt lat="42.590813" lon="-1.2188289">
        <time>2022-07-04T13:32:12Z</time>
      </trkpt>
      <trkpt lat="42.590874" lon="-1.2189059">
        <time>2022-07-04T13:32:13Z</time>
      </trkpt>
      <trkpt lat="42.590935" lon="-1.2189885">
        <time>2022-07-04T13:32:14Z</time>
      </trkpt>
      <trkpt lat="42.590992" lon="-1.2190698">
        <time>2022-07-04T13:32:15Z</time>
      </trkpt>
      <trkpt lat="42.591057" lon="-1.2191609">
        <time>2022-07-04T13:32:16Z</time>
      </trkpt>
      <trkpt lat="42.59112" lon="-1.219253">
        <time>2022-07-04T13:32:17Z</time>
      </trkpt>
      <trkpt lat="42.591187" lon="-1.2193465">
        <time>2022-07-04T13:32:18Z</time>
      </trkpt>
      <trkpt lat="42.591244" lon="-1.2194365">
        <time>2022-07-04T13:32:19Z</time>
      </trkpt>
      <trkpt lat="42.5913" lon="-1.2195323">
        <time>2022-07-04T13:32:20Z</time>
      </trkpt>
      <trkpt lat="42.59136" lon="-1.2196405">
        <time>2022-07-04T13:32:21Z</time>
      </trkpt>
      <trkpt lat="42.59141" lon="-1.2197512">
        <time>2022-07-04T13:32:22Z</time>
      </trkpt>
      <trkpt lat="42.59146" lon="-1.2198648">
        <time>2022-07-04T13:32:23Z</time>
      </trkpt>
      <trkpt lat="42.591503" lon="-1.2199742">
        <time>2022-07-04T13:32:24Z</time>
      </trkpt>
      <trkpt lat="42.591545" lon="-1.2200885">
        <time>2022-07-04T13:32:25Z</time>
      </trkpt>
      <trkpt lat="42.591583" lon="-1.2202126">
        <time>2022-07-04T13:32:26Z</time>
      </trkpt>
      <trkpt lat="42.591625" lon="-1.2203336">
        <time>2022-07-04T13:32:27Z</time>
      </trkpt>
      <trkpt lat="42.591667" lon="-1.2204518">
        <time>2022-07-04T13:32:28Z</time>
      </trkpt>
      <trkpt lat="42.591713" lon="-1.2205656">
        <time>2022-07-04T13:32:29Z</time>
      </trkpt>
      <trkpt lat="42.591763" lon="-1.2206745">
        <time>2022-07-04T13:32:30Z</time>
      </trkpt>
      <trkpt lat="42.591816" lon="-1.2207785">
        <time>2022-07-04T13:32:31Z</time>
      </trkpt>
      <trkpt lat="42.591873" lon="-1.2208745">
        <time>2022-07-04T13:32:32Z</time>
      </trkpt>
      <trkpt lat="42.591938" lon="-1.2209592">
        <time>2022-07-04T13:32:33Z</time>
      </trkpt>
      <trkpt lat="42.592003" lon="-1.2210249">
        <time>2022-07-04T13:32:34Z</time>
      </trkpt>
      <trkpt lat="42.592083" lon="-1.2210711">
        <time>2022-07-04T13:32:35Z</time>
      </trkpt>
      <trkpt lat="42.592167" lon="-1.2210921">
        <time>2022-07-04T13:32:36Z</time>
      </trkpt>
      <trkpt lat="42.592247" lon="-1.2210875">
        <time>2022-07-04T13:32:37Z</time>
      </trkpt>
      <trkpt lat="42.592327" lon="-1.2210598">
        <time>2022-07-04T13:32:38Z</time>
      </trkpt>
      <trkpt lat="42.592403" lon="-1.2210145">
        <time>2022-07-04T13:32:39Z</time>
      </trkpt>
      <trkpt lat="42.592476" lon="-1.2209532">
        <time>2022-07-04T13:32:40Z</time>
      </trkpt>
      <trkpt lat="42.592552" lon="-1.2208751">
        <time>2022-07-04T13:32:41Z</time>
      </trkpt>
      <trkpt lat="42.592625" lon="-1.2207892">
        <time>2022-07-04T13:32:42Z</time>
      </trkpt>
      <trkpt lat="42.592693" lon="-1.2206975">
        <time>2022-07-04T13:32:43Z</time>
      </trkpt>
      <trkpt lat="42.59276" lon="-1.2206025">
        <time>2022-07-04T13:32:44Z</time>
      </trkpt>
      <trkpt lat="42.592815" lon="-1.2205049">
        <time>2022-07-04T13:32:45Z</time>
      </trkpt>
      <trkpt lat="42.592873" lon="-1.2204032">
        <time>2022-07-04T13:32:46Z</time>
      </trkpt>
      <trkpt lat="42.592926" lon="-1.2203009">
        <time>2022-07-04T13:32:47Z</time>
      </trkpt>
      <trkpt lat="42.592983" lon="-1.2201989">
        <time>2022-07-04T13:32:48Z</time>
      </trkpt>
      <trkpt lat="42.593033" lon="-1.2200949">
        <time>2022-07-04T13:32:49Z</time>
      </trkpt>
      <trkpt lat="42.593082" lon="-1.2199875">
        <time>2022-07-04T13:32:50Z</time>
      </trkpt>
      <trkpt lat="42.59313" lon="-1.2198772">
        <time>2022-07-04T13:32:51Z</time>
      </trkpt>
      <trkpt lat="42.59317" lon="-1.2197639">
        <time>2022-07-04T13:32:52Z</time>
      </trkpt>
      <trkpt lat="42.593204" lon="-1.2196479">
        <time>2022-07-04T13:32:53Z</time>
      </trkpt>
      <trkpt lat="42.59323" lon="-1.2195308">
        <time>2022-07-04T13:32:54Z</time>
      </trkpt>
      <trkpt lat="42.593254" lon="-1.2194135">
        <time>2022-07-04T13:32:55Z</time>
      </trkpt>
      <trkpt lat="42.59326" lon="-1.2192959">
        <time>2022-07-04T13:32:56Z</time>
      </trkpt>
      <trkpt lat="42.59326" lon="-1.2191786">
        <time>2022-07-04T13:32:57Z</time>
      </trkpt>
      <trkpt lat="42.593243" lon="-1.2190633">
        <time>2022-07-04T13:32:58Z</time>
      </trkpt>
      <trkpt lat="42.593216" lon="-1.2189592">
        <time>2022-07-04T13:32:59Z</time>
      </trkpt>
      <trkpt lat="42.593174" lon="-1.2188609">
        <time>2022-07-04T13:33:00Z</time>
      </trkpt>
      <trkpt lat="42.593113" lon="-1.2187656">
        <time>2022-07-04T13:33:01Z</time>
      </trkpt>
      <trkpt lat="42.59305" lon="-1.2186795">
        <time>2022-07-04T13:33:02Z</time>
      </trkpt>
      <trkpt lat="42.592976" lon="-1.2186025">
        <time>2022-07-04T13:33:03Z</time>
      </trkpt>
      <trkpt lat="42.5929" lon="-1.2185305">
        <time>2022-07-04T13:33:04Z</time>
      </trkpt>
      <trkpt lat="42.592827" lon="-1.2184669">
        <time>2022-07-04T13:33:05Z</time>
      </trkpt>
      <trkpt lat="42.592743" lon="-1.2184029">
        <time>2022-07-04T13:33:06Z</time>
      </trkpt>
      <trkpt lat="42.59266" lon="-1.2183429">
        <time>2022-07-04T13:33:07Z</time>
      </trkpt>
      <trkpt lat="42.59258" lon="-1.2182866">
        <time>2022-07-04T13:33:08Z</time>
      </trkpt>
      <trkpt lat="42.592503" lon="-1.2182336">
        <time>2022-07-04T13:33:09Z</time>
      </trkpt>
      <trkpt lat="42.59243" lon="-1.2181853">
        <time>2022-07-04T13:33:10Z</time>
      </trkpt>
      <trkpt lat="42.592354" lon="-1.2181323">
        <time>2022-07-04T13:33:11Z</time>
      </trkpt>
      <trkpt lat="42.592285" lon="-1.2180766">
        <time>2022-07-04T13:33:12Z</time>
      </trkpt>
      <trkpt lat="42.59222" lon="-1.2180183">
        <time>2022-07-04T13:33:13Z</time>
      </trkpt>
      <trkpt lat="42.592163" lon="-1.2179543">
        <time>2022-07-04T13:33:14Z</time>
      </trkpt>
      <trkpt lat="42.59212" lon="-1.217884">
        <time>2022-07-04T13:33:15Z</time>
      </trkpt>
      <trkpt lat="42.592087" lon="-1.2178082">
        <time>2022-07-04T13:33:16Z</time>
      </trkpt>
      <trkpt lat="42.592068" lon="-1.2177273">
        <time>2022-07-04T13:33:17Z</time>
      </trkpt>
      <trkpt lat="42.592064" lon="-1.2176423">
        <time>2022-07-04T13:33:18Z</time>
      </trkpt>
      <trkpt lat="42.592075" lon="-1.2175546">
        <time>2022-07-04T13:33:19Z</time>
      </trkpt>
      <trkpt lat="42.592094" lon="-1.2174656">
        <time>2022-07-04T13:33:20Z</time>
      </trkpt>
      <trkpt lat="42.592125" lon="-1.2173766">
        <time>2022-07-04T13:33:21Z</time>
      </trkpt>
      <trkpt lat="42.592205" lon="-1.2172012">
        <time>2022-07-04T13:33:23Z</time>
      </trkpt>
      <trkpt lat="42.592247" lon="-1.2171177">
        <time>2022-07-04T13:33:24Z</time>
      </trkpt>
      <trkpt lat="42.592293" lon="-1.2170386">
        <time>2022-07-04T13:33:25Z</time>
      </trkpt>
      <trkpt lat="42.59234" lon="-1.216964">
        <time>2022-07-04T13:33:26Z</time>
      </trkpt>
      <trkpt lat="42.592384" lon="-1.2168943">
        <time>2022-07-04T13:33:27Z</time>
      </trkpt>
      <trkpt lat="42.592434" lon="-1.216829">
        <time>2022-07-04T13:33:28Z</time>
      </trkpt>
      <trkpt lat="42.59248" lon="-1.216766">
        <time>2022-07-04T13:33:29Z</time>
      </trkpt>
      <trkpt lat="42.59252" lon="-1.2167053">
        <time>2022-07-04T13:33:30Z</time>
      </trkpt>
      <trkpt lat="42.59256" lon="-1.2166473">
        <time>2022-07-04T13:33:31Z</time>
      </trkpt>
      <trkpt lat="42.59259" lon="-1.216593">
        <time>2022-07-04T13:33:32Z</time>
      </trkpt>
      <trkpt lat="42.592617" lon="-1.2165416">
        <time>2022-07-04T13:33:33Z</time>
      </trkpt>
      <trkpt lat="42.59266" lon="-1.2164507">
        <time>2022-07-04T13:33:35Z</time>
      </trkpt>
      <trkpt lat="42.592686" lon="-1.21637">
        <time>2022-07-04T13:33:37Z</time>
      </trkpt>
      <trkpt lat="42.59271" lon="-1.2162957">
        <time>2022-07-04T13:33:39Z</time>
      </trkpt>
      <trkpt lat="42.592724" lon="-1.216226">
        <time>2022-07-04T13:33:41Z</time>
      </trkpt>
      <trkpt lat="42.592735" lon="-1.2161247">
        <time>2022-07-04T13:33:44Z</time>
      </trkpt>
      <trkpt lat="42.592735" lon="-1.2160603">
        <time>2022-07-04T13:33:46Z</time>
      </trkpt>
      <trkpt lat="42.59274" lon="-1.21596">
        <time>2022-07-04T13:33:49Z</time>
      </trkpt>
      <trkpt lat="42.592743" lon="-1.2158737">
        <time>2022-07-04T13:33:52Z</time>
      </trkpt>
      <trkpt lat="42.592766" lon="-1.215837">
        <time>2022-07-04T13:33:55Z</time>
      </trkpt>
      <trkpt lat="42.592785" lon="-1.215927">
        <time>2022-07-04T13:34:07Z</time>
      </trkpt>
      <trkpt lat="42.59278" lon="-1.2160114">
        <time>2022-07-04T13:34:10Z</time>
      </trkpt>
      <trkpt lat="42.59277" lon="-1.216112">
        <time>2022-07-04T13:34:13Z</time>
      </trkpt>
      <trkpt lat="42.59276" lon="-1.2161937">
        <time>2022-07-04T13:34:15Z</time>
      </trkpt>
      <trkpt lat="42.592747" lon="-1.216285">
        <time>2022-07-04T13:34:17Z</time>
      </trkpt>
      <trkpt lat="42.59273" lon="-1.2163937">
        <time>2022-07-04T13:34:19Z</time>
      </trkpt>
      <trkpt lat="42.592705" lon="-1.2165049">
        <time>2022-07-04T13:34:21Z</time>
      </trkpt>
      <trkpt lat="42.59267" lon="-1.2166303">
        <time>2022-07-04T13:34:23Z</time>
      </trkpt>
      <trkpt lat="42.592655" lon="-1.2166946">
        <time>2022-07-04T13:34:24Z</time>
      </trkpt>
      <trkpt lat="42.592644" lon="-1.216813">
        <time>2022-07-04T13:34:26Z</time>
      </trkpt>
      <trkpt lat="42.592655" lon="-1.2169213">
        <time>2022-07-04T13:34:28Z</time>
      </trkpt>
      <trkpt lat="42.592674" lon="-1.2170036">
        <time>2022-07-04T13:34:30Z</time>
      </trkpt>
      <trkpt lat="42.592716" lon="-1.217046">
        <time>2022-07-04T13:34:32Z</time>
      </trkpt>
      <trkpt lat="42.592773" lon="-1.217026">
        <time>2022-07-04T13:34:34Z</time>
      </trkpt>
      <trkpt lat="42.59284" lon="-1.2169466">
        <time>2022-07-04T13:34:36Z</time>
      </trkpt>
      <trkpt lat="42.59289" lon="-1.216839">
        <time>2022-07-04T13:34:38Z</time>
      </trkpt>
      <trkpt lat="42.59294" lon="-1.2167163">
        <time>2022-07-04T13:34:40Z</time>
      </trkpt>
      <trkpt lat="42.592987" lon="-1.2165893">
        <time>2022-07-04T13:34:42Z</time>
      </trkpt>
      <trkpt lat="42.593006" lon="-1.216524">
        <time>2022-07-04T13:34:43Z</time>
      </trkpt>
      <trkpt lat="42.593025" lon="-1.2164587">
        <time>2022-07-04T13:34:44Z</time>
      </trkpt>
      <trkpt lat="42.593044" lon="-1.216393">
        <time>2022-07-04T13:34:45Z</time>
      </trkpt>
      <trkpt lat="42.59308" lon="-1.2162616">
        <time>2022-07-04T13:34:47Z</time>
      </trkpt>
      <trkpt lat="42.593094" lon="-1.2161977">
        <time>2022-07-04T13:34:48Z</time>
      </trkpt>
      <trkpt lat="42.59312" lon="-1.2160757">
        <time>2022-07-04T13:34:50Z</time>
      </trkpt>
      <trkpt lat="42.59315" lon="-1.2159634">
        <time>2022-07-04T13:34:52Z</time>
      </trkpt>
      <trkpt lat="42.593185" lon="-1.2158767">
        <time>2022-07-04T13:34:54Z</time>
      </trkpt>
      <trkpt lat="42.59322" lon="-1.2158287">
        <time>2022-07-04T13:34:56Z</time>
      </trkpt>
      <trkpt lat="42.593258" lon="-1.2158027">
        <time>2022-07-04T13:34:59Z</time>
      </trkpt>
      <trkpt lat="42.59326" lon="-1.2157323">
        <time>2022-07-04T13:37:50Z</time>
      </trkpt>
      <trkpt lat="42.593254" lon="-1.2156514">
        <time>2022-07-04T13:37:53Z</time>
      </trkpt>
      <trkpt lat="42.593246" lon="-1.215545">
        <time>2022-07-04T13:37:56Z</time>
      </trkpt>
      <trkpt lat="42.593243" lon="-1.2154734">
        <time>2022-07-04T13:37:58Z</time>
      </trkpt>
      <trkpt lat="42.593243" lon="-1.2153933">
        <time>2022-07-04T13:38:00Z</time>
      </trkpt>
      <trkpt lat="42.593235" lon="-1.2153107">
        <time>2022-07-04T13:38:02Z</time>
      </trkpt>
      <trkpt lat="42.593224" lon="-1.2152314">
        <time>2022-07-04T13:38:04Z</time>
      </trkpt>
      <trkpt lat="42.593204" lon="-1.2151611">
        <time>2022-07-04T13:38:06Z</time>
      </trkpt>
      <trkpt lat="42.593174" lon="-1.2150863">
        <time>2022-07-04T13:38:09Z</time>
      </trkpt>
      <trkpt lat="42.593143" lon="-1.2150477">
        <time>2022-07-04T13:38:13Z</time>
      </trkpt>
      <trkpt lat="42.592693" lon="-1.2152333">
        <time>2022-07-04T13:39:29Z</time>
      </trkpt>
      <trkpt lat="42.59314" lon="-1.2150527">
        <time>2022-07-04T14:05:16Z</time>
      </trkpt>
      <trkpt lat="42.593174" lon="-1.215047">
        <time>2022-07-04T14:05:47Z</time>
      </trkpt>
      <trkpt lat="42.593212" lon="-1.215028">
        <time>2022-07-04T14:05:54Z</time>
      </trkpt>
      <trkpt lat="42.59312" lon="-1.2149874">
        <time>2022-07-04T14:06:23Z</time>
      </trkpt>
      <trkpt lat="42.59308" lon="-1.2150561">
        <time>2022-07-04T14:06:28Z</time>
      </trkpt>
      <trkpt lat="42.59308" lon="-1.2151091">
        <time>2022-07-04T14:06:33Z</time>
      </trkpt>
      <trkpt lat="42.593273" lon="-1.2150267">
        <time>2022-07-04T14:11:41Z</time>
      </trkpt>
      <trkpt lat="42.593155" lon="-1.2149367">
        <time>2022-07-04T14:12:37Z</time>
      </trkpt>
      <trkpt lat="42.593105" lon="-1.2148707">
        <time>2022-07-04T14:12:40Z</time>
      </trkpt>
      <trkpt lat="42.593067" lon="-1.2148207">
        <time>2022-07-04T14:12:42Z</time>
      </trkpt>
      <trkpt lat="42.593025" lon="-1.214766">
        <time>2022-07-04T14:12:44Z</time>
      </trkpt>
      <trkpt lat="42.592976" lon="-1.2147185">
        <time>2022-07-04T14:12:46Z</time>
      </trkpt>
      <trkpt lat="42.592926" lon="-1.2146684">
        <time>2022-07-04T14:12:48Z</time>
      </trkpt>
      <trkpt lat="42.592876" lon="-1.2146188">
        <time>2022-07-04T14:12:50Z</time>
      </trkpt>
      <trkpt lat="42.592827" lon="-1.2145728">
        <time>2022-07-04T14:12:52Z</time>
      </trkpt>
      <trkpt lat="42.592777" lon="-1.214526">
        <time>2022-07-04T14:12:54Z</time>
      </trkpt>
      <trkpt lat="42.59273" lon="-1.2144808">
        <time>2022-07-04T14:12:56Z</time>
      </trkpt>
      <trkpt lat="42.59268" lon="-1.2144281">
        <time>2022-07-04T14:12:58Z</time>
      </trkpt>
      <trkpt lat="42.592636" lon="-1.2143718">
        <time>2022-07-04T14:13:00Z</time>
      </trkpt>
      <trkpt lat="42.592587" lon="-1.2143131">
        <time>2022-07-04T14:13:02Z</time>
      </trkpt>
      <trkpt lat="42.592537" lon="-1.2142558">
        <time>2022-07-04T14:13:04Z</time>
      </trkpt>
      <trkpt lat="42.59249" lon="-1.2141988">
        <time>2022-07-04T14:13:06Z</time>
      </trkpt>
      <trkpt lat="42.592445" lon="-1.2141358">
        <time>2022-07-04T14:13:08Z</time>
      </trkpt>
      <trkpt lat="42.592403" lon="-1.2140741">
        <time>2022-07-04T14:13:10Z</time>
      </trkpt>
      <trkpt lat="42.59236" lon="-1.2140127">
        <time>2022-07-04T14:13:12Z</time>
      </trkpt>
      <trkpt lat="42.592316" lon="-1.2139491">
        <time>2022-07-04T14:13:14Z</time>
      </trkpt>
      <trkpt lat="42.59227" lon="-1.2138854">
        <time>2022-07-04T14:13:16Z</time>
      </trkpt>
      <trkpt lat="42.592228" lon="-1.2138171">
        <time>2022-07-04T14:13:18Z</time>
      </trkpt>
      <trkpt lat="42.59219" lon="-1.2137388">
        <time>2022-07-04T14:13:20Z</time>
      </trkpt>
      <trkpt lat="42.59216" lon="-1.2136658">
        <time>2022-07-04T14:13:22Z</time>
      </trkpt>
      <trkpt lat="42.592133" lon="-1.2135911">
        <time>2022-07-04T14:13:24Z</time>
      </trkpt>
      <trkpt lat="42.592102" lon="-1.2135165">
        <time>2022-07-04T14:13:26Z</time>
      </trkpt>
      <trkpt lat="42.59207" lon="-1.2134398">
        <time>2022-07-04T14:13:28Z</time>
      </trkpt>
      <trkpt lat="42.592045" lon="-1.2133635">
        <time>2022-07-04T14:13:30Z</time>
      </trkpt>
      <trkpt lat="42.59202" lon="-1.2132869">
        <time>2022-07-04T14:13:32Z</time>
      </trkpt>
      <trkpt lat="42.59199" lon="-1.2132041">
        <time>2022-07-04T14:13:34Z</time>
      </trkpt>
      <trkpt lat="42.591972" lon="-1.2131265">
        <time>2022-07-04T14:13:36Z</time>
      </trkpt>
      <trkpt lat="42.59194" lon="-1.2130458">
        <time>2022-07-04T14:13:38Z</time>
      </trkpt>
      <trkpt lat="42.5919" lon="-1.2129738">
        <time>2022-07-04T14:13:40Z</time>
      </trkpt>
      <trkpt lat="42.591858" lon="-1.2129122">
        <time>2022-07-04T14:13:42Z</time>
      </trkpt>
      <trkpt lat="42.59181" lon="-1.2128636">
        <time>2022-07-04T14:13:44Z</time>
      </trkpt>
      <trkpt lat="42.591763" lon="-1.2128332">
        <time>2022-07-04T14:13:46Z</time>
      </trkpt>
      <trkpt lat="42.5917" lon="-1.2128146">
        <time>2022-07-04T14:13:49Z</time>
      </trkpt>
      <trkpt lat="42.591656" lon="-1.2128116">
        <time>2022-07-04T14:13:52Z</time>
      </trkpt>
      <trkpt lat="42.591606" lon="-1.2128083">
        <time>2022-07-04T14:13:56Z</time>
      </trkpt>
      <trkpt lat="42.591537" lon="-1.2128036">
        <time>2022-07-04T14:14:01Z</time>
      </trkpt>
      <trkpt lat="42.591488" lon="-1.2127825">
        <time>2022-07-04T14:14:05Z</time>
      </trkpt>
      <trkpt lat="42.59144" lon="-1.212732">
        <time>2022-07-04T14:14:09Z</time>
      </trkpt>
      <trkpt lat="42.591393" lon="-1.2126709">
        <time>2022-07-04T14:14:12Z</time>
      </trkpt>
      <trkpt lat="42.59135" lon="-1.2126132">
        <time>2022-07-04T14:14:14Z</time>
      </trkpt>
      <trkpt lat="42.5913" lon="-1.2125489">
        <time>2022-07-04T14:14:16Z</time>
      </trkpt>
      <trkpt lat="42.591232" lon="-1.2124789">
        <time>2022-07-04T14:14:18Z</time>
      </trkpt>
      <trkpt lat="42.591156" lon="-1.2123959">
        <time>2022-07-04T14:14:20Z</time>
      </trkpt>
      <trkpt lat="42.59107" lon="-1.2122996">
        <time>2022-07-04T14:14:22Z</time>
      </trkpt>
      <trkpt lat="42.591022" lon="-1.2122506">
        <time>2022-07-04T14:14:23Z</time>
      </trkpt>
      <trkpt lat="42.59098" lon="-1.2122036">
        <time>2022-07-04T14:14:24Z</time>
      </trkpt>
      <trkpt lat="42.590935" lon="-1.2121582">
        <time>2022-07-04T14:14:25Z</time>
      </trkpt>
      <trkpt lat="42.59089" lon="-1.2121146">
        <time>2022-07-04T14:14:26Z</time>
      </trkpt>
      <trkpt lat="42.590847" lon="-1.2120732">
        <time>2022-07-04T14:14:27Z</time>
      </trkpt>
      <trkpt lat="42.590805" lon="-1.212034">
        <time>2022-07-04T14:14:28Z</time>
      </trkpt>
      <trkpt lat="42.59073" lon="-1.2119596">
        <time>2022-07-04T14:14:30Z</time>
      </trkpt>
      <trkpt lat="42.59066" lon="-1.2118856">
        <time>2022-07-04T14:14:32Z</time>
      </trkpt>
      <trkpt lat="42.59061" lon="-1.2118115">
        <time>2022-07-04T14:14:34Z</time>
      </trkpt>
      <trkpt lat="42.590572" lon="-1.2117369">
        <time>2022-07-04T14:14:36Z</time>
      </trkpt>
      <trkpt lat="42.59055" lon="-1.2116649">
        <time>2022-07-04T14:14:38Z</time>
      </trkpt>
      <trkpt lat="42.590538" lon="-1.2116013">
        <time>2022-07-04T14:14:40Z</time>
      </trkpt>
      <trkpt lat="42.59053" lon="-1.2115109">
        <time>2022-07-04T14:14:43Z</time>
      </trkpt>
      <trkpt lat="42.590523" lon="-1.2114106">
        <time>2022-07-04T14:14:47Z</time>
      </trkpt>
      <trkpt lat="42.59051" lon="-1.2113363">
        <time>2022-07-04T14:14:50Z</time>
      </trkpt>
      <trkpt lat="42.590496" lon="-1.2112579">
        <time>2022-07-04T14:14:53Z</time>
      </trkpt>
      <trkpt lat="42.59049" lon="-1.2111803">
        <time>2022-07-04T14:14:56Z</time>
      </trkpt>
      <trkpt lat="42.59048" lon="-1.2111026">
        <time>2022-07-04T14:14:59Z</time>
      </trkpt>
      <trkpt lat="42.59047" lon="-1.2110239">
        <time>2022-07-04T14:15:02Z</time>
      </trkpt>
      <trkpt lat="42.590454" lon="-1.2109396">
        <time>2022-07-04T14:15:05Z</time>
      </trkpt>
      <trkpt lat="42.590435" lon="-1.2108396">
        <time>2022-07-04T14:15:08Z</time>
      </trkpt>
      <trkpt lat="42.590416" lon="-1.210765">
        <time>2022-07-04T14:15:10Z</time>
      </trkpt>
      <trkpt lat="42.590397" lon="-1.2106873">
        <time>2022-07-04T14:15:12Z</time>
      </trkpt>
      <trkpt lat="42.590374" lon="-1.2106">
        <time>2022-07-04T14:15:14Z</time>
      </trkpt>
      <trkpt lat="42.590343" lon="-1.2105076">
        <time>2022-07-04T14:15:16Z</time>
      </trkpt>
      <trkpt lat="42.590313" lon="-1.2104163">
        <time>2022-07-04T14:15:18Z</time>
      </trkpt>
      <trkpt lat="42.590275" lon="-1.210318">
        <time>2022-07-04T14:15:20Z</time>
      </trkpt>
      <trkpt lat="42.590233" lon="-1.210219">
        <time>2022-07-04T14:15:22Z</time>
      </trkpt>
      <trkpt lat="42.590183" lon="-1.2101177">
        <time>2022-07-04T14:15:24Z</time>
      </trkpt>
      <trkpt lat="42.590126" lon="-1.2100164">
        <time>2022-07-04T14:15:26Z</time>
      </trkpt>
      <trkpt lat="42.590065" lon="-1.209916">
        <time>2022-07-04T14:15:28Z</time>
      </trkpt>
      <trkpt lat="42.59" lon="-1.209818">
        <time>2022-07-04T14:15:30Z</time>
      </trkpt>
      <trkpt lat="42.589928" lon="-1.2097237">
        <time>2022-07-04T14:15:32Z</time>
      </trkpt>
      <trkpt lat="42.58985" lon="-1.2096326">
        <time>2022-07-04T14:15:34Z</time>
      </trkpt>
      <trkpt lat="42.58977" lon="-1.2095474">
        <time>2022-07-04T14:15:36Z</time>
      </trkpt>
      <trkpt lat="42.589733" lon="-1.2095068">
        <time>2022-07-04T14:15:37Z</time>
      </trkpt>
      <trkpt lat="42.58965" lon="-1.2094277">
        <time>2022-07-04T14:15:39Z</time>
      </trkpt>
      <trkpt lat="42.589607" lon="-1.209388">
        <time>2022-07-04T14:15:40Z</time>
      </trkpt>
      <trkpt lat="42.589523" lon="-1.2093077">
        <time>2022-07-04T14:15:42Z</time>
      </trkpt>
      <trkpt lat="42.589443" lon="-1.2092257">
        <time>2022-07-04T14:15:44Z</time>
      </trkpt>
      <trkpt lat="42.5894" lon="-1.2091833">
        <time>2022-07-04T14:15:45Z</time>
      </trkpt>
      <trkpt lat="42.58936" lon="-1.2091408">
        <time>2022-07-04T14:15:46Z</time>
      </trkpt>
      <trkpt lat="42.589283" lon="-1.2090541">
        <time>2022-07-04T14:15:48Z</time>
      </trkpt>
      <trkpt lat="42.589245" lon="-1.2090098">
        <time>2022-07-04T14:15:49Z</time>
      </trkpt>
      <trkpt lat="42.589172" lon="-1.2089144">
        <time>2022-07-04T14:15:51Z</time>
      </trkpt>
      <trkpt lat="42.589108" lon="-1.2088127">
        <time>2022-07-04T14:15:53Z</time>
      </trkpt>
      <trkpt lat="42.589046" lon="-1.2087024">
        <time>2022-07-04T14:15:55Z</time>
      </trkpt>
      <trkpt lat="42.58902" lon="-1.2086434">
        <time>2022-07-04T14:15:56Z</time>
      </trkpt>
      <trkpt lat="42.588966" lon="-1.2085147">
        <time>2022-07-04T14:15:58Z</time>
      </trkpt>
      <trkpt lat="42.588943" lon="-1.2084501">
        <time>2022-07-04T14:15:59Z</time>
      </trkpt>
      <trkpt lat="42.58892" lon="-1.2083784">
        <time>2022-07-04T14:16:00Z</time>
      </trkpt>
      <trkpt lat="42.5889" lon="-1.2083081">
        <time>2022-07-04T14:16:01Z</time>
      </trkpt>
      <trkpt lat="42.588882" lon="-1.2082378">
        <time>2022-07-04T14:16:02Z</time>
      </trkpt>
      <trkpt lat="42.588867" lon="-1.2081671">
        <time>2022-07-04T14:16:03Z</time>
      </trkpt>
      <trkpt lat="42.588856" lon="-1.2080948">
        <time>2022-07-04T14:16:04Z</time>
      </trkpt>
      <trkpt lat="42.588837" lon="-1.2079558">
        <time>2022-07-04T14:16:06Z</time>
      </trkpt>
      <trkpt lat="42.58883" lon="-1.2078828">
        <time>2022-07-04T14:16:07Z</time>
      </trkpt>
      <trkpt lat="42.58883" lon="-1.2078022">
        <time>2022-07-04T14:16:08Z</time>
      </trkpt>
      <trkpt lat="42.58883" lon="-1.2077258">
        <time>2022-07-04T14:16:09Z</time>
      </trkpt>
      <trkpt lat="42.588833" lon="-1.2076461">
        <time>2022-07-04T14:16:10Z</time>
      </trkpt>
      <trkpt lat="42.588844" lon="-1.2075585">
        <time>2022-07-04T14:16:11Z</time>
      </trkpt>
      <trkpt lat="42.58886" lon="-1.2074704">
        <time>2022-07-04T14:16:12Z</time>
      </trkpt>
      <trkpt lat="42.588875" lon="-1.2073818">
        <time>2022-07-04T14:16:13Z</time>
      </trkpt>
      <trkpt lat="42.58889" lon="-1.2072935">
        <time>2022-07-04T14:16:14Z</time>
      </trkpt>
      <trkpt lat="42.58891" lon="-1.2072048">
        <time>2022-07-04T14:16:15Z</time>
      </trkpt>
      <trkpt lat="42.58893" lon="-1.2071222">
        <time>2022-07-04T14:16:16Z</time>
      </trkpt>
      <trkpt lat="42.588947" lon="-1.2070372">
        <time>2022-07-04T14:16:17Z</time>
      </trkpt>
      <trkpt lat="42.588966" lon="-1.2069515">
        <time>2022-07-04T14:16:18Z</time>
      </trkpt>
      <trkpt lat="42.58899" lon="-1.2068648">
        <time>2022-07-04T14:16:19Z</time>
      </trkpt>
      <trkpt lat="42.58901" lon="-1.2067726">
        <time>2022-07-04T14:16:20Z</time>
      </trkpt>
      <trkpt lat="42.589027" lon="-1.2066875">
        <time>2022-07-04T14:16:21Z</time>
      </trkpt>
      <trkpt lat="42.589043" lon="-1.2066005">
        <time>2022-07-04T14:16:22Z</time>
      </trkpt>
      <trkpt lat="42.58905" lon="-1.2065125">
        <time>2022-07-04T14:16:23Z</time>
      </trkpt>
      <trkpt lat="42.58905" lon="-1.2064242">
        <time>2022-07-04T14:16:24Z</time>
      </trkpt>
      <trkpt lat="42.589046" lon="-1.2063318">
        <time>2022-07-04T14:16:25Z</time>
      </trkpt>
      <trkpt lat="42.58904" lon="-1.2062439">
        <time>2022-07-04T14:16:26Z</time>
      </trkpt>
      <trkpt lat="42.589027" lon="-1.2061652">
        <time>2022-07-04T14:16:27Z</time>
      </trkpt>
      <trkpt lat="42.589012" lon="-1.2060856">
        <time>2022-07-04T14:16:28Z</time>
      </trkpt>
      <trkpt lat="42.588997" lon="-1.2060115">
        <time>2022-07-04T14:16:29Z</time>
      </trkpt>
      <trkpt lat="42.588978" lon="-1.2059436">
        <time>2022-07-04T14:16:30Z</time>
      </trkpt>
      <trkpt lat="42.588955" lon="-1.2058818">
        <time>2022-07-04T14:16:31Z</time>
      </trkpt>
      <trkpt lat="42.588932" lon="-1.2058299">
        <time>2022-07-04T14:16:32Z</time>
      </trkpt>
      <trkpt lat="42.588882" lon="-1.2057385">
        <time>2022-07-04T14:16:34Z</time>
      </trkpt>
      <trkpt lat="42.588825" lon="-1.2056632">
        <time>2022-07-04T14:16:36Z</time>
      </trkpt>
      <trkpt lat="42.588764" lon="-1.2056019">
        <time>2022-07-04T14:16:38Z</time>
      </trkpt>
      <trkpt lat="42.5887" lon="-1.2055513">
        <time>2022-07-04T14:16:40Z</time>
      </trkpt>
      <trkpt lat="42.588634" lon="-1.2055142">
        <time>2022-07-04T14:16:42Z</time>
      </trkpt>
      <trkpt lat="42.588566" lon="-1.2054856">
        <time>2022-07-04T14:16:44Z</time>
      </trkpt>
      <trkpt lat="42.5885" lon="-1.205465">
        <time>2022-07-04T14:16:46Z</time>
      </trkpt>
      <trkpt lat="42.588436" lon="-1.205447">
        <time>2022-07-04T14:16:48Z</time>
      </trkpt>
      <trkpt lat="42.58837" lon="-1.2054312">
        <time>2022-07-04T14:16:50Z</time>
      </trkpt>
      <trkpt lat="42.588303" lon="-1.2054166">
        <time>2022-07-04T14:16:52Z</time>
      </trkpt>
      <trkpt lat="42.588238" lon="-1.2054013">
        <time>2022-07-04T14:16:54Z</time>
      </trkpt>
      <trkpt lat="42.588173" lon="-1.2053843">
        <time>2022-07-04T14:16:56Z</time>
      </trkpt>
      <trkpt lat="42.588104" lon="-1.2053676">
        <time>2022-07-04T14:16:58Z</time>
      </trkpt>
      <trkpt lat="42.58804" lon="-1.2053509">
        <time>2022-07-04T14:17:00Z</time>
      </trkpt>
      <trkpt lat="42.58797" lon="-1.2053349">
        <time>2022-07-04T14:17:02Z</time>
      </trkpt>
      <trkpt lat="42.58791" lon="-1.205318">
        <time>2022-07-04T14:17:04Z</time>
      </trkpt>
      <trkpt lat="42.587845" lon="-1.205298">
        <time>2022-07-04T14:17:06Z</time>
      </trkpt>
      <trkpt lat="42.587784" lon="-1.2052803">
        <time>2022-07-04T14:17:08Z</time>
      </trkpt>
      <trkpt lat="42.587723" lon="-1.205262">
        <time>2022-07-04T14:17:10Z</time>
      </trkpt>
      <trkpt lat="42.587666" lon="-1.2052436">
        <time>2022-07-04T14:17:12Z</time>
      </trkpt>
      <trkpt lat="42.587605" lon="-1.205225">
        <time>2022-07-04T14:17:14Z</time>
      </trkpt>
      <trkpt lat="42.587547" lon="-1.2052039">
        <time>2022-07-04T14:17:16Z</time>
      </trkpt>
      <trkpt lat="42.587494" lon="-1.2051812">
        <time>2022-07-04T14:17:18Z</time>
      </trkpt>
      <trkpt lat="42.58744" lon="-1.2051599">
        <time>2022-07-04T14:17:20Z</time>
      </trkpt>
      <trkpt lat="42.58739" lon="-1.20514">
        <time>2022-07-04T14:17:22Z</time>
      </trkpt>
      <trkpt lat="42.587337" lon="-1.2051196">
        <time>2022-07-04T14:17:24Z</time>
      </trkpt>
      <trkpt lat="42.587288" lon="-1.205104">
        <time>2022-07-04T14:17:26Z</time>
      </trkpt>
      <trkpt lat="42.587215" lon="-1.2050883">
        <time>2022-07-04T14:17:29Z</time>
      </trkpt>
      <trkpt lat="42.587166" lon="-1.20508">
        <time>2022-07-04T14:17:31Z</time>
      </trkpt>
      <trkpt lat="42.587097" lon="-1.205066">
        <time>2022-07-04T14:17:34Z</time>
      </trkpt>
      <trkpt lat="42.587048" lon="-1.2050567">
        <time>2022-07-04T14:17:36Z</time>
      </trkpt>
      <trkpt lat="42.586975" lon="-1.205043">
        <time>2022-07-04T14:17:39Z</time>
      </trkpt>
      <trkpt lat="42.586906" lon="-1.205031">
        <time>2022-07-04T14:17:42Z</time>
      </trkpt>
      <trkpt lat="42.586834" lon="-1.2050207">
        <time>2022-07-04T14:17:45Z</time>
      </trkpt>
      <trkpt lat="42.58676" lon="-1.205008">
        <time>2022-07-04T14:17:48Z</time>
      </trkpt>
      <trkpt lat="42.58669" lon="-1.2049977">
        <time>2022-07-04T14:17:51Z</time>
      </trkpt>
      <trkpt lat="42.58662" lon="-1.2049847">
        <time>2022-07-04T14:17:54Z</time>
      </trkpt>
      <trkpt lat="42.586555" lon="-1.2049657">
        <time>2022-07-04T14:17:57Z</time>
      </trkpt>
      <trkpt lat="42.586494" lon="-1.2049487">
        <time>2022-07-04T14:18:00Z</time>
      </trkpt>
      <trkpt lat="42.58643" lon="-1.204947">
        <time>2022-07-04T14:18:03Z</time>
      </trkpt>
      <trkpt lat="42.586372" lon="-1.2049577">
        <time>2022-07-04T14:18:06Z</time>
      </trkpt>
      <trkpt lat="42.58631" lon="-1.204966">
        <time>2022-07-04T14:18:09Z</time>
      </trkpt>
      <trkpt lat="42.586254" lon="-1.2049724">
        <time>2022-07-04T14:18:12Z</time>
      </trkpt>
      <trkpt lat="42.586193" lon="-1.2049806">
        <time>2022-07-04T14:18:15Z</time>
      </trkpt>
      <trkpt lat="42.586132" lon="-1.204996">
        <time>2022-07-04T14:18:18Z</time>
      </trkpt>
      <trkpt lat="42.58607" lon="-1.205007">
        <time>2022-07-04T14:18:21Z</time>
      </trkpt>
      <trkpt lat="42.58601" lon="-1.2050136">
        <time>2022-07-04T14:18:24Z</time>
      </trkpt>
      <trkpt lat="42.58595" lon="-1.205016">
        <time>2022-07-04T14:18:27Z</time>
      </trkpt>
      <trkpt lat="42.58589" lon="-1.2050183">
        <time>2022-07-04T14:18:30Z</time>
      </trkpt>
      <trkpt lat="42.585827" lon="-1.205015">
        <time>2022-07-04T14:18:33Z</time>
      </trkpt>
      <trkpt lat="42.585766" lon="-1.2050049">
        <time>2022-07-04T14:18:36Z</time>
      </trkpt>
      <trkpt lat="42.5857" lon="-1.2049867">
        <time>2022-07-04T14:18:39Z</time>
      </trkpt>
      <trkpt lat="42.58564" lon="-1.2049704">
        <time>2022-07-04T14:18:42Z</time>
      </trkpt>
      <trkpt lat="42.58558" lon="-1.2049527">
        <time>2022-07-04T14:18:45Z</time>
      </trkpt>
      <trkpt lat="42.58552" lon="-1.204934">
        <time>2022-07-04T14:18:48Z</time>
      </trkpt>
      <trkpt lat="42.58547" lon="-1.2049156">
        <time>2022-07-04T14:18:51Z</time>
      </trkpt>
      <trkpt lat="42.585415" lon="-1.204893">
        <time>2022-07-04T14:18:54Z</time>
      </trkpt>
      <trkpt lat="42.58535" lon="-1.204865">
        <time>2022-07-04T14:18:58Z</time>
      </trkpt>
      <trkpt lat="42.585304" lon="-1.204848">
        <time>2022-07-04T14:19:01Z</time>
      </trkpt>
      <trkpt lat="42.58524" lon="-1.2048234">
        <time>2022-07-04T14:19:05Z</time>
      </trkpt>
      <trkpt lat="42.585182" lon="-1.2048004">
        <time>2022-07-04T14:19:09Z</time>
      </trkpt>
      <trkpt lat="42.58512" lon="-1.2047733">
        <time>2022-07-04T14:19:13Z</time>
      </trkpt>
      <trkpt lat="42.585056" lon="-1.2047557">
        <time>2022-07-04T14:19:17Z</time>
      </trkpt>
      <trkpt lat="42.585007" lon="-1.204744">
        <time>2022-07-04T14:19:20Z</time>
      </trkpt>
      <trkpt lat="42.584946" lon="-1.2047313">
        <time>2022-07-04T14:19:24Z</time>
      </trkpt>
      <trkpt lat="42.58488" lon="-1.2047297">
        <time>2022-07-04T14:19:28Z</time>
      </trkpt>
      <trkpt lat="42.584816" lon="-1.204743">
        <time>2022-07-04T14:19:32Z</time>
      </trkpt>
      <trkpt lat="42.584755" lon="-1.2047681">
        <time>2022-07-04T14:19:36Z</time>
      </trkpt>
      <trkpt lat="42.584694" lon="-1.2047894">
        <time>2022-07-04T14:19:40Z</time>
      </trkpt>
      <trkpt lat="42.58465" lon="-1.204812">
        <time>2022-07-04T14:19:43Z</time>
      </trkpt>
      <trkpt lat="42.584583" lon="-1.204847">
        <time>2022-07-04T14:19:47Z</time>
      </trkpt>
      <trkpt lat="42.584538" lon="-1.2048724">
        <time>2022-07-04T14:19:50Z</time>
      </trkpt>
      <trkpt lat="42.58447" lon="-1.2049004">
        <time>2022-07-04T14:19:54Z</time>
      </trkpt>
      <trkpt lat="42.584427" lon="-1.204923">
        <time>2022-07-04T14:19:57Z</time>
      </trkpt>
      <trkpt lat="42.584373" lon="-1.2049711">
        <time>2022-07-04T14:20:01Z</time>
      </trkpt>
      <trkpt lat="42.584328" lon="-1.2050247">
        <time>2022-07-04T14:20:05Z</time>
      </trkpt>
      <trkpt lat="42.584293" lon="-1.2050923">
        <time>2022-07-04T14:20:09Z</time>
      </trkpt>
      <trkpt lat="42.584274" lon="-1.2051706">
        <time>2022-07-04T14:20:13Z</time>
      </trkpt>
      <trkpt lat="42.58426" lon="-1.205247">
        <time>2022-07-04T14:20:17Z</time>
      </trkpt>
      <trkpt lat="42.584244" lon="-1.205332">
        <time>2022-07-04T14:20:21Z</time>
      </trkpt>
      <trkpt lat="42.584225" lon="-1.2054107">
        <time>2022-07-04T14:20:25Z</time>
      </trkpt>
      <trkpt lat="42.5842" lon="-1.20549">
        <time>2022-07-04T14:20:29Z</time>
      </trkpt>
      <trkpt lat="42.58418" lon="-1.2055693">
        <time>2022-07-04T14:20:33Z</time>
      </trkpt>
      <trkpt lat="42.584156" lon="-1.205648">
        <time>2022-07-04T14:20:37Z</time>
      </trkpt>
      <trkpt lat="42.584133" lon="-1.2057263">
        <time>2022-07-04T14:20:41Z</time>
      </trkpt>
      <trkpt lat="42.584114" lon="-1.2057856">
        <time>2022-07-04T14:20:44Z</time>
      </trkpt>
      <trkpt lat="42.58408" lon="-1.2058656">
        <time>2022-07-04T14:20:48Z</time>
      </trkpt>
      <trkpt lat="42.584053" lon="-1.205918">
        <time>2022-07-04T14:20:51Z</time>
      </trkpt>
      <trkpt lat="42.58401" lon="-1.2059857">
        <time>2022-07-04T14:20:55Z</time>
      </trkpt>
      <trkpt lat="42.58397" lon="-1.2060506">
        <time>2022-07-04T14:20:59Z</time>
      </trkpt>
      <trkpt lat="42.583923" lon="-1.206115">
        <time>2022-07-04T14:21:03Z</time>
      </trkpt>
      <trkpt lat="42.58389" lon="-1.2061603">
        <time>2022-07-04T14:21:06Z</time>
      </trkpt>
      <trkpt lat="42.58384" lon="-1.2062229">
        <time>2022-07-04T14:21:10Z</time>
      </trkpt>
      <trkpt lat="42.58379" lon="-1.2062823">
        <time>2022-07-04T14:21:14Z</time>
      </trkpt>
      <trkpt lat="42.58375" lon="-1.2063223">
        <time>2022-07-04T14:21:17Z</time>
      </trkpt>
      <trkpt lat="42.5837" lon="-1.2063749">
        <time>2022-07-04T14:21:21Z</time>
      </trkpt>
      <trkpt lat="42.58365" lon="-1.2064192">
        <time>2022-07-04T14:21:24Z</time>
      </trkpt>
      <trkpt lat="42.583595" lon="-1.2064676">
        <time>2022-07-04T14:21:27Z</time>
      </trkpt>
      <trkpt lat="42.583534" lon="-1.206522">
        <time>2022-07-04T14:21:30Z</time>
      </trkpt>
      <trkpt lat="42.58349" lon="-1.206561">
        <time>2022-07-04T14:21:32Z</time>
      </trkpt>
      <trkpt lat="42.583443" lon="-1.2065996">
        <time>2022-07-04T14:21:34Z</time>
      </trkpt>
      <trkpt lat="42.583393" lon="-1.2066426">
        <time>2022-07-04T14:21:36Z</time>
      </trkpt>
      <trkpt lat="42.583344" lon="-1.206687">
        <time>2022-07-04T14:21:38Z</time>
      </trkpt>
      <trkpt lat="42.583286" lon="-1.2067343">
        <time>2022-07-04T14:21:40Z</time>
      </trkpt>
      <trkpt lat="42.583233" lon="-1.2067842">
        <time>2022-07-04T14:21:42Z</time>
      </trkpt>
      <trkpt lat="42.58317" lon="-1.2068383">
        <time>2022-07-04T14:21:44Z</time>
      </trkpt>
      <trkpt lat="42.583115" lon="-1.2069012">
        <time>2022-07-04T14:21:46Z</time>
      </trkpt>
      <trkpt lat="42.583065" lon="-1.2069713">
        <time>2022-07-04T14:21:48Z</time>
      </trkpt>
      <trkpt lat="42.58302" lon="-1.2070433">
        <time>2022-07-04T14:21:50Z</time>
      </trkpt>
      <trkpt lat="42.58298" lon="-1.2071103">
        <time>2022-07-04T14:21:52Z</time>
      </trkpt>
      <trkpt lat="42.582943" lon="-1.2071782">
        <time>2022-07-04T14:21:54Z</time>
      </trkpt>
      <trkpt lat="42.582905" lon="-1.2072469">
        <time>2022-07-04T14:21:56Z</time>
      </trkpt>
      <trkpt lat="42.582867" lon="-1.207315">
        <time>2022-07-04T14:21:58Z</time>
      </trkpt>
      <trkpt lat="42.582832" lon="-1.2073786">
        <time>2022-07-04T14:22:00Z</time>
      </trkpt>
      <trkpt lat="42.582794" lon="-1.2074358">
        <time>2022-07-04T14:22:02Z</time>
      </trkpt>
      <trkpt lat="42.582756" lon="-1.2074932">
        <time>2022-07-04T14:22:04Z</time>
      </trkpt>
      <trkpt lat="42.582718" lon="-1.207547">
        <time>2022-07-04T14:22:06Z</time>
      </trkpt>
      <trkpt lat="42.582676" lon="-1.2075936">
        <time>2022-07-04T14:22:08Z</time>
      </trkpt>
      <trkpt lat="42.582615" lon="-1.2076468">
        <time>2022-07-04T14:22:11Z</time>
      </trkpt>
      <trkpt lat="42.582573" lon="-1.2076782">
        <time>2022-07-04T14:22:13Z</time>
      </trkpt>
      <trkpt lat="42.58251" lon="-1.2077229">
        <time>2022-07-04T14:22:16Z</time>
      </trkpt>
      <trkpt lat="42.58245" lon="-1.2077628">
        <time>2022-07-04T14:22:19Z</time>
      </trkpt>
      <trkpt lat="42.582397" lon="-1.2078009">
        <time>2022-07-04T14:22:22Z</time>
      </trkpt>
      <trkpt lat="42.582344" lon="-1.2078362">
        <time>2022-07-04T14:22:25Z</time>
      </trkpt>
      <trkpt lat="42.582294" lon="-1.2078655">
        <time>2022-07-04T14:22:28Z</time>
      </trkpt>
      <trkpt lat="42.582245" lon="-1.2078866">
        <time>2022-07-04T14:22:31Z</time>
      </trkpt>
      <trkpt lat="42.58218" lon="-1.2079211">
        <time>2022-07-04T14:22:35Z</time>
      </trkpt>
      <trkpt lat="42.58213" lon="-1.2079495">
        <time>2022-07-04T14:22:38Z</time>
      </trkpt>
      <trkpt lat="42.582085" lon="-1.2079792">
        <time>2022-07-04T14:22:41Z</time>
      </trkpt>
      <trkpt lat="42.58202" lon="-1.2080222">
        <time>2022-07-04T14:22:45Z</time>
      </trkpt>
      <trkpt lat="42.581974" lon="-1.2080585">
        <time>2022-07-04T14:22:48Z</time>
      </trkpt>
      <trkpt lat="42.58193" lon="-1.2080948">
        <time>2022-07-04T14:22:51Z</time>
      </trkpt>
      <trkpt lat="42.58188" lon="-1.2081268">
        <time>2022-07-04T14:22:54Z</time>
      </trkpt>
      <trkpt lat="42.58182" lon="-1.2081791">
        <time>2022-07-04T14:22:58Z</time>
      </trkpt>
      <trkpt lat="42.58179" lon="-1.2082355">
        <time>2022-07-04T14:23:01Z</time>
      </trkpt>
      <trkpt lat="42.581768" lon="-1.2083029">
        <time>2022-07-04T14:23:04Z</time>
      </trkpt>
      <trkpt lat="42.581745" lon="-1.2083741">
        <time>2022-07-04T14:23:07Z</time>
      </trkpt>
      <trkpt lat="42.58172" lon="-1.2084475">
        <time>2022-07-04T14:23:10Z</time>
      </trkpt>
      <trkpt lat="42.58169" lon="-1.2085241">
        <time>2022-07-04T14:23:13Z</time>
      </trkpt>
      <trkpt lat="42.581657" lon="-1.2085952">
        <time>2022-07-04T14:23:16Z</time>
      </trkpt>
      <trkpt lat="42.581623" lon="-1.2086629">
        <time>2022-07-04T14:23:19Z</time>
      </trkpt>
      <trkpt lat="42.58158" lon="-1.2087282">
        <time>2022-07-04T14:23:22Z</time>
      </trkpt>
      <trkpt lat="42.58153" lon="-1.2087904">
        <time>2022-07-04T14:23:25Z</time>
      </trkpt>
      <trkpt lat="42.581486" lon="-1.2088368">
        <time>2022-07-04T14:23:27Z</time>
      </trkpt>
      <trkpt lat="42.581444" lon="-1.2088802">
        <time>2022-07-04T14:23:29Z</time>
      </trkpt>
      <trkpt lat="42.581394" lon="-1.2089251">
        <time>2022-07-04T14:23:31Z</time>
      </trkpt>
      <trkpt lat="42.58134" lon="-1.2089695">
        <time>2022-07-04T14:23:33Z</time>
      </trkpt>
      <trkpt lat="42.58128" lon="-1.2090068">
        <time>2022-07-04T14:23:35Z</time>
      </trkpt>
      <trkpt lat="42.581215" lon="-1.2090368">
        <time>2022-07-04T14:23:37Z</time>
      </trkpt>
      <trkpt lat="42.581158" lon="-1.2090638">
        <time>2022-07-04T14:23:39Z</time>
      </trkpt>
      <trkpt lat="42.581097" lon="-1.2090892">
        <time>2022-07-04T14:23:41Z</time>
      </trkpt>
      <trkpt lat="42.581036" lon="-1.2091074">
        <time>2022-07-04T14:23:43Z</time>
      </trkpt>
      <trkpt lat="42.58098" lon="-1.2091231">
        <time>2022-07-04T14:23:45Z</time>
      </trkpt>
      <trkpt lat="42.580925" lon="-1.2091408">
        <time>2022-07-04T14:23:47Z</time>
      </trkpt>
      <trkpt lat="42.580875" lon="-1.2091614">
        <time>2022-07-04T14:23:49Z</time>
      </trkpt>
      <trkpt lat="42.580803" lon="-1.2091898">
        <time>2022-07-04T14:23:52Z</time>
      </trkpt>
      <trkpt lat="42.580753" lon="-1.2092057">
        <time>2022-07-04T14:23:54Z</time>
      </trkpt>
      <trkpt lat="42.580696" lon="-1.2092254">
        <time>2022-07-04T14:23:56Z</time>
      </trkpt>
      <trkpt lat="42.580643" lon="-1.2092477">
        <time>2022-07-04T14:23:58Z</time>
      </trkpt>
      <trkpt lat="42.580585" lon="-1.2092688">
        <time>2022-07-04T14:24:00Z</time>
      </trkpt>
      <trkpt lat="42.580505" lon="-1.2092828">
        <time>2022-07-04T14:24:03Z</time>
      </trkpt>
      <trkpt lat="42.580437" lon="-1.209274">
        <time>2022-07-04T14:24:06Z</time>
      </trkpt>
      <trkpt lat="42.58038" lon="-1.2092367">
        <time>2022-07-04T14:24:09Z</time>
      </trkpt>
      <trkpt lat="42.580345" lon="-1.2091835">
        <time>2022-07-04T14:24:12Z</time>
      </trkpt>
      <trkpt lat="42.58032" lon="-1.2091144">
        <time>2022-07-04T14:24:15Z</time>
      </trkpt>
      <trkpt lat="42.580315" lon="-1.2090287">
        <time>2022-07-04T14:24:18Z</time>
      </trkpt>
      <trkpt lat="42.58032" lon="-1.2089322">
        <time>2022-07-04T14:24:21Z</time>
      </trkpt>
      <trkpt lat="42.580322" lon="-1.2088208">
        <time>2022-07-04T14:24:24Z</time>
      </trkpt>
      <trkpt lat="42.580322" lon="-1.2087394">
        <time>2022-07-04T14:24:26Z</time>
      </trkpt>
      <trkpt lat="42.580322" lon="-1.2086542">
        <time>2022-07-04T14:24:28Z</time>
      </trkpt>
      <trkpt lat="42.580322" lon="-1.2085661">
        <time>2022-07-04T14:24:30Z</time>
      </trkpt>
      <trkpt lat="42.580322" lon="-1.2084788">
        <time>2022-07-04T14:24:32Z</time>
      </trkpt>
      <trkpt lat="42.580322" lon="-1.2083927">
        <time>2022-07-04T14:24:34Z</time>
      </trkpt>
      <trkpt lat="42.580322" lon="-1.2083061">
        <time>2022-07-04T14:24:36Z</time>
      </trkpt>
      <trkpt lat="42.580322" lon="-1.2082148">
        <time>2022-07-04T14:24:38Z</time>
      </trkpt>
      <trkpt lat="42.580322" lon="-1.2081221">
        <time>2022-07-04T14:24:40Z</time>
      </trkpt>
      <trkpt lat="42.58032" lon="-1.2080271">
        <time>2022-07-04T14:24:42Z</time>
      </trkpt>
      <trkpt lat="42.580307" lon="-1.2079291">
        <time>2022-07-04T14:24:44Z</time>
      </trkpt>
      <trkpt lat="42.58029" lon="-1.2078319">
        <time>2022-07-04T14:24:46Z</time>
      </trkpt>
      <trkpt lat="42.580265" lon="-1.2077352">
        <time>2022-07-04T14:24:48Z</time>
      </trkpt>
      <trkpt lat="42.580235" lon="-1.2076415">
        <time>2022-07-04T14:24:50Z</time>
      </trkpt>
      <trkpt lat="42.580196" lon="-1.2075485">
        <time>2022-07-04T14:24:52Z</time>
      </trkpt>
      <trkpt lat="42.58016" lon="-1.2074565">
        <time>2022-07-04T14:24:54Z</time>
      </trkpt>
      <trkpt lat="42.58012" lon="-1.2073659">
        <time>2022-07-04T14:24:56Z</time>
      </trkpt>
      <trkpt lat="42.58008" lon="-1.2072692">
        <time>2022-07-04T14:24:58Z</time>
      </trkpt>
      <trkpt lat="42.580032" lon="-1.2071745">
        <time>2022-07-04T14:25:00Z</time>
      </trkpt>
      <trkpt lat="42.57999" lon="-1.2070765">
        <time>2022-07-04T14:25:02Z</time>
      </trkpt>
      <trkpt lat="42.579952" lon="-1.2069771">
        <time>2022-07-04T14:25:04Z</time>
      </trkpt>
      <trkpt lat="42.579914" lon="-1.2068769">
        <time>2022-07-04T14:25:06Z</time>
      </trkpt>
      <trkpt lat="42.57988" lon="-1.2067705">
        <time>2022-07-04T14:25:08Z</time>
      </trkpt>
      <trkpt lat="42.57985" lon="-1.2066629">
        <time>2022-07-04T14:25:10Z</time>
      </trkpt>
      <trkpt lat="42.579815" lon="-1.2065579">
        <time>2022-07-04T14:25:12Z</time>
      </trkpt>
      <trkpt lat="42.57979" lon="-1.2064556">
        <time>2022-07-04T14:25:14Z</time>
      </trkpt>
      <trkpt lat="42.579758" lon="-1.2063532">
        <time>2022-07-04T14:25:16Z</time>
      </trkpt>
      <trkpt lat="42.579727" lon="-1.2062522">
        <time>2022-07-04T14:25:18Z</time>
      </trkpt>
      <trkpt lat="42.5797" lon="-1.2061565">
        <time>2022-07-04T14:25:20Z</time>
      </trkpt>
      <trkpt lat="42.579678" lon="-1.2060655">
        <time>2022-07-04T14:25:22Z</time>
      </trkpt>
      <trkpt lat="42.57965" lon="-1.2059716">
        <time>2022-07-04T14:25:24Z</time>
      </trkpt>
      <trkpt lat="42.57962" lon="-1.2058516">
        <time>2022-07-04T14:25:26Z</time>
      </trkpt>
      <trkpt lat="42.579586" lon="-1.2057072">
        <time>2022-07-04T14:25:28Z</time>
      </trkpt>
      <trkpt lat="42.57957" lon="-1.2056268">
        <time>2022-07-04T14:25:29Z</time>
      </trkpt>
      <trkpt lat="42.57956" lon="-1.2055409">
        <time>2022-07-04T14:25:30Z</time>
      </trkpt>
      <trkpt lat="42.57955" lon="-1.2054518">
        <time>2022-07-04T14:25:31Z</time>
      </trkpt>
      <trkpt lat="42.579544" lon="-1.2053616">
        <time>2022-07-04T14:25:32Z</time>
      </trkpt>
      <trkpt lat="42.579533" lon="-1.2052712">
        <time>2022-07-04T14:25:33Z</time>
      </trkpt>
      <trkpt lat="42.57952" lon="-1.2051835">
        <time>2022-07-04T14:25:34Z</time>
      </trkpt>
      <trkpt lat="42.579502" lon="-1.2050999">
        <time>2022-07-04T14:25:35Z</time>
      </trkpt>
      <trkpt lat="42.579483" lon="-1.2050252">
        <time>2022-07-04T14:25:36Z</time>
      </trkpt>
      <trkpt lat="42.579456" lon="-1.2049626">
        <time>2022-07-04T14:25:37Z</time>
      </trkpt>
      <trkpt lat="42.579433" lon="-1.2049133">
        <time>2022-07-04T14:25:38Z</time>
      </trkpt>
      <trkpt lat="42.579388" lon="-1.2048416">
        <time>2022-07-04T14:25:40Z</time>
      </trkpt>
      <trkpt lat="42.579353" lon="-1.2047946">
        <time>2022-07-04T14:25:42Z</time>
      </trkpt>
      <trkpt lat="42.579315" lon="-1.2047462">
        <time>2022-07-04T14:25:45Z</time>
      </trkpt>
      <trkpt lat="42.579266" lon="-1.2046933">
        <time>2022-07-04T14:25:49Z</time>
      </trkpt>
      <trkpt lat="42.57922" lon="-1.2046326">
        <time>2022-07-04T14:25:53Z</time>
      </trkpt>
      <trkpt lat="42.579174" lon="-1.2045696">
        <time>2022-07-04T14:25:57Z</time>
      </trkpt>
      <trkpt lat="42.57914" lon="-1.204521">
        <time>2022-07-04T14:26:00Z</time>
      </trkpt>
      <trkpt lat="42.5791" lon="-1.2044573">
        <time>2022-07-04T14:26:04Z</time>
      </trkpt>
      <trkpt lat="42.579067" lon="-1.2043873">
        <time>2022-07-04T14:26:08Z</time>
      </trkpt>
      <trkpt lat="42.57905" lon="-1.2043272">
        <time>2022-07-04T14:26:11Z</time>
      </trkpt>
      <trkpt lat="42.57902" lon="-1.20425">
        <time>2022-07-04T14:26:15Z</time>
      </trkpt>
      <trkpt lat="42.578995" lon="-1.2041806">
        <time>2022-07-04T14:26:19Z</time>
      </trkpt>
      <trkpt lat="42.578968" lon="-1.2041066">
        <time>2022-07-04T14:26:23Z</time>
      </trkpt>
      <trkpt lat="42.578934" lon="-1.204031">
        <time>2022-07-04T14:26:27Z</time>
      </trkpt>
      <trkpt lat="42.5789" lon="-1.2039679">
        <time>2022-07-04T14:26:30Z</time>
      </trkpt>
      <trkpt lat="42.578865" lon="-1.203903">
        <time>2022-07-04T14:26:33Z</time>
      </trkpt>
      <trkpt lat="42.57883" lon="-1.2038434">
        <time>2022-07-04T14:26:36Z</time>
      </trkpt>
      <trkpt lat="42.578796" lon="-1.2037863">
        <time>2022-07-04T14:26:39Z</time>
      </trkpt>
      <trkpt lat="42.57876" lon="-1.2037263">
        <time>2022-07-04T14:26:42Z</time>
      </trkpt>
      <trkpt lat="42.578724" lon="-1.2036706">
        <time>2022-07-04T14:26:45Z</time>
      </trkpt>
      <trkpt lat="42.578693" lon="-1.2036077">
        <time>2022-07-04T14:26:48Z</time>
      </trkpt>
      <trkpt lat="42.578667" lon="-1.2035413">
        <time>2022-07-04T14:26:51Z</time>
      </trkpt>
      <trkpt lat="42.578636" lon="-1.2034763">
        <time>2022-07-04T14:26:54Z</time>
      </trkpt>
      <trkpt lat="42.578606" lon="-1.2033997">
        <time>2022-07-04T14:26:57Z</time>
      </trkpt>
      <trkpt lat="42.57857" lon="-1.2033147">
        <time>2022-07-04T14:27:00Z</time>
      </trkpt>
      <trkpt lat="42.57855" lon="-1.2032466">
        <time>2022-07-04T14:27:02Z</time>
      </trkpt>
      <trkpt lat="42.578514" lon="-1.2031733">
        <time>2022-07-04T14:27:04Z</time>
      </trkpt>
      <trkpt lat="42.57848" lon="-1.203102">
        <time>2022-07-04T14:27:06Z</time>
      </trkpt>
      <trkpt lat="42.57844" lon="-1.203033">
        <time>2022-07-04T14:27:08Z</time>
      </trkpt>
      <trkpt lat="42.578407" lon="-1.2029663">
        <time>2022-07-04T14:27:10Z</time>
      </trkpt>
      <trkpt lat="42.578377" lon="-1.202905">
        <time>2022-07-04T14:27:12Z</time>
      </trkpt>
      <trkpt lat="42.578342" lon="-1.202851">
        <time>2022-07-04T14:27:14Z</time>
      </trkpt>
      <trkpt lat="42.578316" lon="-1.202802">
        <time>2022-07-04T14:27:16Z</time>
      </trkpt>
      <trkpt lat="42.57827" lon="-1.202732">
        <time>2022-07-04T14:27:19Z</time>
      </trkpt>
      <trkpt lat="42.57822" lon="-1.2026737">
        <time>2022-07-04T14:27:22Z</time>
      </trkpt>
      <trkpt lat="42.578163" lon="-1.2026184">
        <time>2022-07-04T14:27:25Z</time>
      </trkpt>
      <trkpt lat="42.5781" lon="-1.2025547">
        <time>2022-07-04T14:27:28Z</time>
      </trkpt>
      <trkpt lat="42.578045" lon="-1.2025044">
        <time>2022-07-04T14:27:30Z</time>
      </trkpt>
      <trkpt lat="42.577984" lon="-1.2024447">
        <time>2022-07-04T14:27:32Z</time>
      </trkpt>
      <trkpt lat="42.577908" lon="-1.202363">
        <time>2022-07-04T14:27:34Z</time>
      </trkpt>
      <trkpt lat="42.577866" lon="-1.202312">
        <time>2022-07-04T14:27:35Z</time>
      </trkpt>
      <trkpt lat="42.577824" lon="-1.2022557">
        <time>2022-07-04T14:27:36Z</time>
      </trkpt>
      <trkpt lat="42.57778" lon="-1.202196">
        <time>2022-07-04T14:27:37Z</time>
      </trkpt>
      <trkpt lat="42.577744" lon="-1.2021353">
        <time>2022-07-04T14:27:38Z</time>
      </trkpt>
      <trkpt lat="42.57771" lon="-1.2020737">
        <time>2022-07-04T14:27:39Z</time>
      </trkpt>
      <trkpt lat="42.577675" lon="-1.2020141">
        <time>2022-07-04T14:27:40Z</time>
      </trkpt>
      <trkpt lat="42.577644" lon="-1.2019584">
        <time>2022-07-04T14:27:41Z</time>
      </trkpt>
      <trkpt lat="42.577583" lon="-1.2018654">
        <time>2022-07-04T14:27:43Z</time>
      </trkpt>
      <trkpt lat="42.577538" lon="-1.2018001">
        <time>2022-07-04T14:27:45Z</time>
      </trkpt>
      <trkpt lat="42.5775" lon="-1.2017597">
        <time>2022-07-04T14:27:47Z</time>
      </trkpt>
      <trkpt lat="42.57745" lon="-1.2017277">
        <time>2022-07-04T14:27:50Z</time>
      </trkpt>
      <trkpt lat="42.577408" lon="-1.201719">
        <time>2022-07-04T14:27:53Z</time>
      </trkpt>
      <trkpt lat="42.57735" lon="-1.2017188">
        <time>2022-07-04T14:27:57Z</time>
      </trkpt>
      <trkpt lat="42.577293" lon="-1.2017218">
        <time>2022-07-04T14:28:01Z</time>
      </trkpt>
      <trkpt lat="42.577236" lon="-1.201719">
        <time>2022-07-04T14:28:05Z</time>
      </trkpt>
      <trkpt lat="42.57718" lon="-1.2017105">
        <time>2022-07-04T14:28:09Z</time>
      </trkpt>
      <trkpt lat="42.57712" lon="-1.2017064">
        <time>2022-07-04T14:28:13Z</time>
      </trkpt>
      <trkpt lat="42.57706" lon="-1.2017008">
        <time>2022-07-04T14:28:17Z</time>
      </trkpt>
      <trkpt lat="42.577003" lon="-1.201688">
        <time>2022-07-04T14:28:21Z</time>
      </trkpt>
      <trkpt lat="42.576942" lon="-1.2016581">
        <time>2022-07-04T14:28:25Z</time>
      </trkpt>
      <trkpt lat="42.576897" lon="-1.2016271">
        <time>2022-07-04T14:28:28Z</time>
      </trkpt>
      <trkpt lat="42.57685" lon="-1.2015917">
        <time>2022-07-04T14:28:31Z</time>
      </trkpt>
      <trkpt lat="42.57681" lon="-1.2015524">
        <time>2022-07-04T14:28:34Z</time>
      </trkpt>
      <trkpt lat="42.576748" lon="-1.2014974">
        <time>2022-07-04T14:28:38Z</time>
      </trkpt>
      <trkpt lat="42.5767" lon="-1.2014421">
        <time>2022-07-04T14:28:41Z</time>
      </trkpt>
      <trkpt lat="42.57665" lon="-1.2013718">
        <time>2022-07-04T14:28:44Z</time>
      </trkpt>
      <trkpt lat="42.576614" lon="-1.2013181">
        <time>2022-07-04T14:28:46Z</time>
      </trkpt>
      <trkpt lat="42.57658" lon="-1.2012612">
        <time>2022-07-04T14:28:48Z</time>
      </trkpt>
      <trkpt lat="42.576546" lon="-1.2011994">
        <time>2022-07-04T14:28:50Z</time>
      </trkpt>
      <trkpt lat="42.57651" lon="-1.2011348">
        <time>2022-07-04T14:28:52Z</time>
      </trkpt>
      <trkpt lat="42.576477" lon="-1.2010685">
        <time>2022-07-04T14:28:54Z</time>
      </trkpt>
      <trkpt lat="42.576443" lon="-1.2010015">
        <time>2022-07-04T14:28:56Z</time>
      </trkpt>
      <trkpt lat="42.576412" lon="-1.2009312">
        <time>2022-07-04T14:28:58Z</time>
      </trkpt>
      <trkpt lat="42.57638" lon="-1.2008605">
        <time>2022-07-04T14:29:00Z</time>
      </trkpt>
      <trkpt lat="42.576355" lon="-1.2007911">
        <time>2022-07-04T14:29:02Z</time>
      </trkpt>
      <trkpt lat="42.576332" lon="-1.2007258">
        <time>2022-07-04T14:29:04Z</time>
      </trkpt>
      <trkpt lat="42.576305" lon="-1.2006308">
        <time>2022-07-04T14:29:07Z</time>
      </trkpt>
      <trkpt lat="42.57628" lon="-1.2005595">
        <time>2022-07-04T14:29:10Z</time>
      </trkpt>
      <trkpt lat="42.57625" lon="-1.2004511">
        <time>2022-07-04T14:30:34Z</time>
      </trkpt>
      <trkpt lat="42.576225" lon="-1.2003086">
        <time>2022-07-04T14:30:38Z</time>
      </trkpt>
      <trkpt lat="42.57621" lon="-1.2002252">
        <time>2022-07-04T14:30:40Z</time>
      </trkpt>
      <trkpt lat="42.576187" lon="-1.2001338">
        <time>2022-07-04T14:30:42Z</time>
      </trkpt>
      <trkpt lat="42.576168" lon="-1.2000388">
        <time>2022-07-04T14:30:44Z</time>
      </trkpt>
      <trkpt lat="42.576145" lon="-1.1999345">
        <time>2022-07-04T14:30:46Z</time>
      </trkpt>
      <trkpt lat="42.57612" lon="-1.1998326">
        <time>2022-07-04T14:30:48Z</time>
      </trkpt>
      <trkpt lat="42.57609" lon="-1.1997255">
        <time>2022-07-04T14:30:50Z</time>
      </trkpt>
      <trkpt lat="42.576065" lon="-1.1996121">
        <time>2022-07-04T14:30:52Z</time>
      </trkpt>
      <trkpt lat="42.57604" lon="-1.1994852">
        <time>2022-07-04T14:30:54Z</time>
      </trkpt>
      <trkpt lat="42.576023" lon="-1.1994212">
        <time>2022-07-04T14:30:55Z</time>
      </trkpt>
      <trkpt lat="42.576" lon="-1.1992832">
        <time>2022-07-04T14:30:57Z</time>
      </trkpt>
      <trkpt lat="42.575985" lon="-1.1992115">
        <time>2022-07-04T14:30:58Z</time>
      </trkpt>
      <trkpt lat="42.57597" lon="-1.1991395">
        <time>2022-07-04T14:30:59Z</time>
      </trkpt>
      <trkpt lat="42.57596" lon="-1.1990712">
        <time>2022-07-04T14:31:00Z</time>
      </trkpt>
      <trkpt lat="42.575943" lon="-1.1989999">
        <time>2022-07-04T14:31:01Z</time>
      </trkpt>
      <trkpt lat="42.575924" lon="-1.1989192">
        <time>2022-07-04T14:31:02Z</time>
      </trkpt>
      <trkpt lat="42.57591" lon="-1.1988432">
        <time>2022-07-04T14:31:03Z</time>
      </trkpt>
      <trkpt lat="42.57589" lon="-1.1987649">
        <time>2022-07-04T14:31:04Z</time>
      </trkpt>
      <trkpt lat="42.575874" lon="-1.1986842">
        <time>2022-07-04T14:31:05Z</time>
      </trkpt>
      <trkpt lat="42.575855" lon="-1.1986012">
        <time>2022-07-04T14:31:06Z</time>
      </trkpt>
      <trkpt lat="42.57584" lon="-1.1985162">
        <time>2022-07-04T14:31:07Z</time>
      </trkpt>
      <trkpt lat="42.57582" lon="-1.19843">
        <time>2022-07-04T14:31:08Z</time>
      </trkpt>
      <trkpt lat="42.5758" lon="-1.1983416">
        <time>2022-07-04T14:31:09Z</time>
      </trkpt>
      <trkpt lat="42.575783" lon="-1.1982522">
        <time>2022-07-04T14:31:10Z</time>
      </trkpt>
      <trkpt lat="42.57576" lon="-1.1981609">
        <time>2022-07-04T14:31:11Z</time>
      </trkpt>
      <trkpt lat="42.57574" lon="-1.1980686">
        <time>2022-07-04T14:31:12Z</time>
      </trkpt>
      <trkpt lat="42.575718" lon="-1.1979692">
        <time>2022-07-04T14:31:13Z</time>
      </trkpt>
      <trkpt lat="42.575695" lon="-1.1978703">
        <time>2022-07-04T14:31:14Z</time>
      </trkpt>
      <trkpt lat="42.575672" lon="-1.1977779">
        <time>2022-07-04T14:31:15Z</time>
      </trkpt>
      <trkpt lat="42.57565" lon="-1.1976849">
        <time>2022-07-04T14:31:16Z</time>
      </trkpt>
      <trkpt lat="42.575626" lon="-1.1975929">
        <time>2022-07-04T14:31:17Z</time>
      </trkpt>
      <trkpt lat="42.5756" lon="-1.1974993">
        <time>2022-07-04T14:31:18Z</time>
      </trkpt>
      <trkpt lat="42.57557" lon="-1.197398">
        <time>2022-07-04T14:31:19Z</time>
      </trkpt>
      <trkpt lat="42.57554" lon="-1.1972979">
        <time>2022-07-04T14:31:20Z</time>
      </trkpt>
      <trkpt lat="42.575512" lon="-1.1972053">
        <time>2022-07-04T14:31:21Z</time>
      </trkpt>
      <trkpt lat="42.575485" lon="-1.1971126">
        <time>2022-07-04T14:31:22Z</time>
      </trkpt>
      <trkpt lat="42.575455" lon="-1.1970176">
        <time>2022-07-04T14:31:23Z</time>
      </trkpt>
      <trkpt lat="42.575428" lon="-1.1969206">
        <time>2022-07-04T14:31:24Z</time>
      </trkpt>
      <trkpt lat="42.575394" lon="-1.1968163">
        <time>2022-07-04T14:31:25Z</time>
      </trkpt>
      <trkpt lat="42.575363" lon="-1.1967139">
        <time>2022-07-04T14:31:26Z</time>
      </trkpt>
      <trkpt lat="42.575336" lon="-1.1966196">
        <time>2022-07-04T14:31:27Z</time>
      </trkpt>
      <trkpt lat="42.57531" lon="-1.1965237">
        <time>2022-07-04T14:31:28Z</time>
      </trkpt>
      <trkpt lat="42.57528" lon="-1.196427">
        <time>2022-07-04T14:31:29Z</time>
      </trkpt>
      <trkpt lat="42.575253" lon="-1.19633">
        <time>2022-07-04T14:31:30Z</time>
      </trkpt>
      <trkpt lat="42.575222" lon="-1.1962323">
        <time>2022-07-04T14:31:31Z</time>
      </trkpt>
      <trkpt lat="42.57519" lon="-1.1961347">
        <time>2022-07-04T14:31:32Z</time>
      </trkpt>
      <trkpt lat="42.575165" lon="-1.1960366">
        <time>2022-07-04T14:31:33Z</time>
      </trkpt>
      <trkpt lat="42.575138" lon="-1.1959386">
        <time>2022-07-04T14:31:34Z</time>
      </trkpt>
      <trkpt lat="42.57511" lon="-1.1958396">
        <time>2022-07-04T14:31:35Z</time>
      </trkpt>
      <trkpt lat="42.575085" lon="-1.1957417">
        <time>2022-07-04T14:31:36Z</time>
      </trkpt>
      <trkpt lat="42.575058" lon="-1.1956443">
        <time>2022-07-04T14:31:37Z</time>
      </trkpt>
      <trkpt lat="42.57503" lon="-1.195547">
        <time>2022-07-04T14:31:38Z</time>
      </trkpt>
      <trkpt lat="42.575005" lon="-1.1954503">
        <time>2022-07-04T14:31:39Z</time>
      </trkpt>
      <trkpt lat="42.574978" lon="-1.1953533">
        <time>2022-07-04T14:31:40Z</time>
      </trkpt>
      <trkpt lat="42.57495" lon="-1.1952549">
        <time>2022-07-04T14:31:41Z</time>
      </trkpt>
      <trkpt lat="42.574924" lon="-1.1951569">
        <time>2022-07-04T14:31:42Z</time>
      </trkpt>
      <trkpt lat="42.574898" lon="-1.1950593">
        <time>2022-07-04T14:31:43Z</time>
      </trkpt>
      <trkpt lat="42.574875" lon="-1.1949637">
        <time>2022-07-04T14:31:44Z</time>
      </trkpt>
      <trkpt lat="42.574852" lon="-1.1948687">
        <time>2022-07-04T14:31:45Z</time>
      </trkpt>
      <trkpt lat="42.574825" lon="-1.194775">
        <time>2022-07-04T14:31:46Z</time>
      </trkpt>
      <trkpt lat="42.574802" lon="-1.1946824">
        <time>2022-07-04T14:31:47Z</time>
      </trkpt>
      <trkpt lat="42.57478" lon="-1.1945927">
        <time>2022-07-04T14:31:48Z</time>
      </trkpt>
      <trkpt lat="42.574757" lon="-1.1945053">
        <time>2022-07-04T14:31:49Z</time>
      </trkpt>
      <trkpt lat="42.574734" lon="-1.194419">
        <time>2022-07-04T14:31:50Z</time>
      </trkpt>
      <trkpt lat="42.574715" lon="-1.194336">
        <time>2022-07-04T14:31:51Z</time>
      </trkpt>
      <trkpt lat="42.57469" lon="-1.194255">
        <time>2022-07-04T14:31:52Z</time>
      </trkpt>
      <trkpt lat="42.57467" lon="-1.194175">
        <time>2022-07-04T14:31:53Z</time>
      </trkpt>
      <trkpt lat="42.57465" lon="-1.194097">
        <time>2022-07-04T14:31:54Z</time>
      </trkpt>
      <trkpt lat="42.57463" lon="-1.1940217">
        <time>2022-07-04T14:31:55Z</time>
      </trkpt>
      <trkpt lat="42.574608" lon="-1.1939477">
        <time>2022-07-04T14:31:56Z</time>
      </trkpt>
      <trkpt lat="42.57459" lon="-1.1938707">
        <time>2022-07-04T14:31:57Z</time>
      </trkpt>
      <trkpt lat="42.574574" lon="-1.1938007">
        <time>2022-07-04T14:31:58Z</time>
      </trkpt>
      <trkpt lat="42.57456" lon="-1.1937324">
        <time>2022-07-04T14:31:59Z</time>
      </trkpt>
      <trkpt lat="42.57454" lon="-1.1936641">
        <time>2022-07-04T14:32:00Z</time>
      </trkpt>
      <trkpt lat="42.574524" lon="-1.1935956">
        <time>2022-07-04T14:32:01Z</time>
      </trkpt>
      <trkpt lat="42.574486" lon="-1.1934603">
        <time>2022-07-04T14:32:03Z</time>
      </trkpt>
      <trkpt lat="42.57445" lon="-1.1933274">
        <time>2022-07-04T14:32:05Z</time>
      </trkpt>
      <trkpt lat="42.574436" lon="-1.193262">
        <time>2022-07-04T14:32:06Z</time>
      </trkpt>
      <trkpt lat="42.574417" lon="-1.1931977">
        <time>2022-07-04T14:32:07Z</time>
      </trkpt>
      <trkpt lat="42.574383" lon="-1.1930671">
        <time>2022-07-04T14:32:09Z</time>
      </trkpt>
      <trkpt lat="42.574368" lon="-1.1930023">
        <time>2022-07-04T14:32:10Z</time>
      </trkpt>
      <trkpt lat="42.574337" lon="-1.1928704">
        <time>2022-07-04T14:32:12Z</time>
      </trkpt>
      <trkpt lat="42.57432" lon="-1.1928037">
        <time>2022-07-04T14:32:13Z</time>
      </trkpt>
      <trkpt lat="42.574287" lon="-1.1926687">
        <time>2022-07-04T14:32:15Z</time>
      </trkpt>
      <trkpt lat="42.574272" lon="-1.192602">
        <time>2022-07-04T14:32:16Z</time>
      </trkpt>
      <trkpt lat="42.57426" lon="-1.1925358">
        <time>2022-07-04T14:32:17Z</time>
      </trkpt>
      <trkpt lat="42.574226" lon="-1.1924024">
        <time>2022-07-04T14:32:19Z</time>
      </trkpt>
      <trkpt lat="42.574215" lon="-1.1923348">
        <time>2022-07-04T14:32:20Z</time>
      </trkpt>
      <trkpt lat="42.5742" lon="-1.1922667">
        <time>2022-07-04T14:32:21Z</time>
      </trkpt>
      <trkpt lat="42.57417" lon="-1.1921284">
        <time>2022-07-04T14:32:23Z</time>
      </trkpt>
      <trkpt lat="42.574158" lon="-1.1920588">
        <time>2022-07-04T14:32:24Z</time>
      </trkpt>
      <trkpt lat="42.574142" lon="-1.1919891">
        <time>2022-07-04T14:32:25Z</time>
      </trkpt>
      <trkpt lat="42.574127" lon="-1.1919187">
        <time>2022-07-04T14:32:26Z</time>
      </trkpt>
      <trkpt lat="42.574116" lon="-1.1918478">
        <time>2022-07-04T14:32:27Z</time>
      </trkpt>
      <trkpt lat="42.5741" lon="-1.1917771">
        <time>2022-07-04T14:32:28Z</time>
      </trkpt>
      <trkpt lat="42.574085" lon="-1.1917014">
        <time>2022-07-04T14:32:29Z</time>
      </trkpt>
      <trkpt lat="42.574074" lon="-1.1916314">
        <time>2022-07-04T14:32:30Z</time>
      </trkpt>
      <trkpt lat="42.574043" lon="-1.1914878">
        <time>2022-07-04T14:32:32Z</time>
      </trkpt>
      <trkpt lat="42.574028" lon="-1.1914095">
        <time>2022-07-04T14:32:33Z</time>
      </trkpt>
      <trkpt lat="42.574013" lon="-1.1913362">
        <time>2022-07-04T14:32:34Z</time>
      </trkpt>
      <trkpt lat="42.574" lon="-1.1912618">
        <time>2022-07-04T14:32:35Z</time>
      </trkpt>
      <trkpt lat="42.573986" lon="-1.1911862">
        <time>2022-07-04T14:32:36Z</time>
      </trkpt>
      <trkpt lat="42.57397" lon="-1.1911092">
        <time>2022-07-04T14:32:37Z</time>
      </trkpt>
      <trkpt lat="42.573956" lon="-1.1910322">
        <time>2022-07-04T14:32:38Z</time>
      </trkpt>
      <trkpt lat="42.573936" lon="-1.1909544">
        <time>2022-07-04T14:32:39Z</time>
      </trkpt>
      <trkpt lat="42.57392" lon="-1.1908715">
        <time>2022-07-04T14:32:40Z</time>
      </trkpt>
      <trkpt lat="42.573906" lon="-1.1907954">
        <time>2022-07-04T14:32:41Z</time>
      </trkpt>
      <trkpt lat="42.57389" lon="-1.1907185">
        <time>2022-07-04T14:32:42Z</time>
      </trkpt>
      <trkpt lat="42.573875" lon="-1.1906412">
        <time>2022-07-04T14:32:43Z</time>
      </trkpt>
      <trkpt lat="42.57386" lon="-1.1905628">
        <time>2022-07-04T14:32:44Z</time>
      </trkpt>
      <trkpt lat="42.573845" lon="-1.1904864">
        <time>2022-07-04T14:32:45Z</time>
      </trkpt>
      <trkpt lat="42.57383" lon="-1.1904114">
        <time>2022-07-04T14:32:46Z</time>
      </trkpt>
      <trkpt lat="42.573814" lon="-1.1903381">
        <time>2022-07-04T14:32:47Z</time>
      </trkpt>
      <trkpt lat="42.5738" lon="-1.1902645">
        <time>2022-07-04T14:32:48Z</time>
      </trkpt>
      <trkpt lat="42.573784" lon="-1.1901911">
        <time>2022-07-04T14:32:49Z</time>
      </trkpt>
      <trkpt lat="42.57377" lon="-1.1901195">
        <time>2022-07-04T14:32:50Z</time>
      </trkpt>
      <trkpt lat="42.573753" lon="-1.1900479">
        <time>2022-07-04T14:32:51Z</time>
      </trkpt>
      <trkpt lat="42.573742" lon="-1.1899762">
        <time>2022-07-04T14:32:52Z</time>
      </trkpt>
      <trkpt lat="42.573727" lon="-1.1899052">
        <time>2022-07-04T14:32:53Z</time>
      </trkpt>
      <trkpt lat="42.57371" lon="-1.1898348">
        <time>2022-07-04T14:32:54Z</time>
      </trkpt>
      <trkpt lat="42.5737" lon="-1.1897652">
        <time>2022-07-04T14:32:55Z</time>
      </trkpt>
      <trkpt lat="42.57369" lon="-1.1896962">
        <time>2022-07-04T14:32:56Z</time>
      </trkpt>
      <trkpt lat="42.573673" lon="-1.1896279">
        <time>2022-07-04T14:32:57Z</time>
      </trkpt>
      <trkpt lat="42.57366" lon="-1.1895598">
        <time>2022-07-04T14:32:58Z</time>
      </trkpt>
      <trkpt lat="42.573647" lon="-1.1894935">
        <time>2022-07-04T14:32:59Z</time>
      </trkpt>
      <trkpt lat="42.57362" lon="-1.1893622">
        <time>2022-07-04T14:33:01Z</time>
      </trkpt>
      <trkpt lat="42.573593" lon="-1.1892298">
        <time>2022-07-04T14:33:03Z</time>
      </trkpt>
      <trkpt lat="42.573578" lon="-1.1891636">
        <time>2022-07-04T14:33:04Z</time>
      </trkpt>
      <trkpt lat="42.573555" lon="-1.1890352">
        <time>2022-07-04T14:33:06Z</time>
      </trkpt>
      <trkpt lat="42.57353" lon="-1.1889099">
        <time>2022-07-04T14:33:08Z</time>
      </trkpt>
      <trkpt lat="42.5735" lon="-1.1887842">
        <time>2022-07-04T14:33:10Z</time>
      </trkpt>
      <trkpt lat="42.573486" lon="-1.1887212">
        <time>2022-07-04T14:33:11Z</time>
      </trkpt>
      <trkpt lat="42.573456" lon="-1.1885966">
        <time>2022-07-04T14:33:13Z</time>
      </trkpt>
      <trkpt lat="42.57344" lon="-1.1885346">
        <time>2022-07-04T14:33:14Z</time>
      </trkpt>
      <trkpt lat="42.57341" lon="-1.188412">
        <time>2022-07-04T14:33:16Z</time>
      </trkpt>
      <trkpt lat="42.573395" lon="-1.1883506">
        <time>2022-07-04T14:33:17Z</time>
      </trkpt>
      <trkpt lat="42.573364" lon="-1.1882269">
        <time>2022-07-04T14:33:19Z</time>
      </trkpt>
      <trkpt lat="42.57333" lon="-1.1881063">
        <time>2022-07-04T14:33:21Z</time>
      </trkpt>
      <trkpt lat="42.57329" lon="-1.1879876">
        <time>2022-07-04T14:33:23Z</time>
      </trkpt>
      <trkpt lat="42.573254" lon="-1.187869">
        <time>2022-07-04T14:33:25Z</time>
      </trkpt>
      <trkpt lat="42.573235" lon="-1.1878113">
        <time>2022-07-04T14:33:26Z</time>
      </trkpt>
      <trkpt lat="42.573193" lon="-1.187693">
        <time>2022-07-04T14:33:28Z</time>
      </trkpt>
      <trkpt lat="42.573174" lon="-1.187639">
        <time>2022-07-04T14:33:29Z</time>
      </trkpt>
      <trkpt lat="42.57313" lon="-1.187531">
        <time>2022-07-04T14:33:31Z</time>
      </trkpt>
      <trkpt lat="42.57309" lon="-1.1874269">
        <time>2022-07-04T14:33:33Z</time>
      </trkpt>
      <trkpt lat="42.573048" lon="-1.1873289">
        <time>2022-07-04T14:33:35Z</time>
      </trkpt>
      <trkpt lat="42.573006" lon="-1.187235">
        <time>2022-07-04T14:33:37Z</time>
      </trkpt>
      <trkpt lat="42.572964" lon="-1.1871436">
        <time>2022-07-04T14:33:39Z</time>
      </trkpt>
      <trkpt lat="42.57292" lon="-1.1870543">
        <time>2022-07-04T14:33:41Z</time>
      </trkpt>
      <trkpt lat="42.57288" lon="-1.1869673">
        <time>2022-07-04T14:33:43Z</time>
      </trkpt>
      <trkpt lat="42.572834" lon="-1.1868826">
        <time>2022-07-04T14:33:45Z</time>
      </trkpt>
      <trkpt lat="42.572792" lon="-1.1868036">
        <time>2022-07-04T14:33:47Z</time>
      </trkpt>
      <trkpt lat="42.572746" lon="-1.1867269">
        <time>2022-07-04T14:33:49Z</time>
      </trkpt>
      <trkpt lat="42.572704" lon="-1.1866533">
        <time>2022-07-04T14:33:51Z</time>
      </trkpt>
      <trkpt lat="42.572662" lon="-1.1865836">
        <time>2022-07-04T14:33:53Z</time>
      </trkpt>
      <trkpt lat="42.57262" lon="-1.1865163">
        <time>2022-07-04T14:33:55Z</time>
      </trkpt>
      <trkpt lat="42.572582" lon="-1.1864506">
        <time>2022-07-04T14:33:57Z</time>
      </trkpt>
      <trkpt lat="42.572544" lon="-1.186389">
        <time>2022-07-04T14:33:59Z</time>
      </trkpt>
      <trkpt lat="42.572506" lon="-1.1863283">
        <time>2022-07-04T14:34:01Z</time>
      </trkpt>
      <trkpt lat="42.572468" lon="-1.1862713">
        <time>2022-07-04T14:34:03Z</time>
      </trkpt>
      <trkpt lat="42.572426" lon="-1.186217">
        <time>2022-07-04T14:34:05Z</time>
      </trkpt>
      <trkpt lat="42.572388" lon="-1.186164">
        <time>2022-07-04T14:34:07Z</time>
      </trkpt>
      <trkpt lat="42.572353" lon="-1.186117">
        <time>2022-07-04T14:34:09Z</time>
      </trkpt>
      <trkpt lat="42.572304" lon="-1.1860527">
        <time>2022-07-04T14:34:12Z</time>
      </trkpt>
      <trkpt lat="42.572254" lon="-1.1859914">
        <time>2022-07-04T14:34:15Z</time>
      </trkpt>
      <trkpt lat="42.572205" lon="-1.185931">
        <time>2022-07-04T14:34:18Z</time>
      </trkpt>
      <trkpt lat="42.572155" lon="-1.1858704">
        <time>2022-07-04T14:34:21Z</time>
      </trkpt>
      <trkpt lat="42.572105" lon="-1.1858124">
        <time>2022-07-04T14:34:24Z</time>
      </trkpt>
      <trkpt lat="42.572056" lon="-1.185755">
        <time>2022-07-04T14:34:27Z</time>
      </trkpt>
      <trkpt lat="42.572006" lon="-1.1856971">
        <time>2022-07-04T14:34:30Z</time>
      </trkpt>
      <trkpt lat="42.571957" lon="-1.1856368">
        <time>2022-07-04T14:34:33Z</time>
      </trkpt>
      <trkpt lat="42.57191" lon="-1.1855774">
        <time>2022-07-04T14:34:36Z</time>
      </trkpt>
      <trkpt lat="42.571857" lon="-1.1855173">
        <time>2022-07-04T14:34:39Z</time>
      </trkpt>
      <trkpt lat="42.5718" lon="-1.1854557">
        <time>2022-07-04T14:34:42Z</time>
      </trkpt>
      <trkpt lat="42.57175" lon="-1.1853948">
        <time>2022-07-04T14:34:45Z</time>
      </trkpt>
      <trkpt lat="42.5717" lon="-1.1853347">
        <time>2022-07-04T14:34:48Z</time>
      </trkpt>
      <trkpt lat="42.571655" lon="-1.1852754">
        <time>2022-07-04T14:34:51Z</time>
      </trkpt>
      <trkpt lat="42.571606" lon="-1.1852174">
        <time>2022-07-04T14:34:54Z</time>
      </trkpt>
      <trkpt lat="42.57156" lon="-1.1851608">
        <time>2022-07-04T14:34:57Z</time>
      </trkpt>
      <trkpt lat="42.57151" lon="-1.1851027">
        <time>2022-07-04T14:35:00Z</time>
      </trkpt>
      <trkpt lat="42.571465" lon="-1.1850431">
        <time>2022-07-04T14:35:03Z</time>
      </trkpt>
      <trkpt lat="42.571423" lon="-1.1849828">
        <time>2022-07-04T14:35:06Z</time>
      </trkpt>
      <trkpt lat="42.57138" lon="-1.1849225">
        <time>2022-07-04T14:35:09Z</time>
      </trkpt>
      <trkpt lat="42.57134" lon="-1.1848651">
        <time>2022-07-04T14:35:12Z</time>
      </trkpt>
      <trkpt lat="42.571293" lon="-1.1848094">
        <time>2022-07-04T14:35:15Z</time>
      </trkpt>
      <trkpt lat="42.571247" lon="-1.1847574">
        <time>2022-07-04T14:35:18Z</time>
      </trkpt>
      <trkpt lat="42.571205" lon="-1.1847044">
        <time>2022-07-04T14:35:21Z</time>
      </trkpt>
      <trkpt lat="42.571167" lon="-1.184645">
        <time>2022-07-04T14:35:24Z</time>
      </trkpt>
      <trkpt lat="42.571133" lon="-1.1845827">
        <time>2022-07-04T14:35:27Z</time>
      </trkpt>
      <trkpt lat="42.5711" lon="-1.1845161">
        <time>2022-07-04T14:35:30Z</time>
      </trkpt>
      <trkpt lat="42.57106" lon="-1.1844565">
        <time>2022-07-04T14:35:33Z</time>
      </trkpt>
      <trkpt lat="42.571014" lon="-1.1844071">
        <time>2022-07-04T14:35:36Z</time>
      </trkpt>
      <trkpt lat="42.57098" lon="-1.1843581">
        <time>2022-07-04T14:35:39Z</time>
      </trkpt>
      <trkpt lat="42.570946" lon="-1.18429">
        <time>2022-07-04T14:35:43Z</time>
      </trkpt>
      <trkpt lat="42.57091" lon="-1.1842197">
        <time>2022-07-04T14:35:47Z</time>
      </trkpt>
      <trkpt lat="42.570866" lon="-1.1841518">
        <time>2022-07-04T14:35:51Z</time>
      </trkpt>
      <trkpt lat="42.57082" lon="-1.1840924">
        <time>2022-07-04T14:35:55Z</time>
      </trkpt>
      <trkpt lat="42.57079" lon="-1.1840384">
        <time>2022-07-04T14:35:58Z</time>
      </trkpt>
      <trkpt lat="42.57076" lon="-1.1839604">
        <time>2022-07-04T14:36:02Z</time>
      </trkpt>
      <trkpt lat="42.57073" lon="-1.183904">
        <time>2022-07-04T14:36:05Z</time>
      </trkpt>
      <trkpt lat="42.570686" lon="-1.1838307">
        <time>2022-07-04T14:36:09Z</time>
      </trkpt>
      <trkpt lat="42.570656" lon="-1.1837798">
        <time>2022-07-04T14:36:12Z</time>
      </trkpt>
      <trkpt lat="42.570618" lon="-1.1837142">
        <time>2022-07-04T14:36:16Z</time>
      </trkpt>
      <trkpt lat="42.570587" lon="-1.1836394">
        <time>2022-07-04T14:36:20Z</time>
      </trkpt>
      <trkpt lat="42.570545" lon="-1.1835707">
        <time>2022-07-04T14:36:24Z</time>
      </trkpt>
      <trkpt lat="42.570515" lon="-1.1834911">
        <time>2022-07-04T14:36:28Z</time>
      </trkpt>
      <trkpt lat="42.570488" lon="-1.1834304">
        <time>2022-07-04T14:36:31Z</time>
      </trkpt>
      <trkpt lat="42.570454" lon="-1.1833515">
        <time>2022-07-04T14:36:35Z</time>
      </trkpt>
      <trkpt lat="42.570427" lon="-1.1832925">
        <time>2022-07-04T14:36:38Z</time>
      </trkpt>
      <trkpt lat="42.5704" lon="-1.1832352">
        <time>2022-07-04T14:36:41Z</time>
      </trkpt>
      <trkpt lat="42.57037" lon="-1.1831539">
        <time>2022-07-04T14:36:45Z</time>
      </trkpt>
      <trkpt lat="42.57034" lon="-1.1830695">
        <time>2022-07-04T14:36:49Z</time>
      </trkpt>
      <trkpt lat="42.57031" lon="-1.1829889">
        <time>2022-07-04T14:36:53Z</time>
      </trkpt>
      <trkpt lat="42.570286" lon="-1.1829258">
        <time>2022-07-04T14:36:56Z</time>
      </trkpt>
      <trkpt lat="42.570263" lon="-1.1828635">
        <time>2022-07-04T14:36:59Z</time>
      </trkpt>
      <trkpt lat="42.570225" lon="-1.1827859">
        <time>2022-07-04T14:37:03Z</time>
      </trkpt>
      <trkpt lat="42.570194" lon="-1.1827265">
        <time>2022-07-04T14:37:06Z</time>
      </trkpt>
      <trkpt lat="42.570175" lon="-1.1826645">
        <time>2022-07-04T14:37:09Z</time>
      </trkpt>
      <trkpt lat="42.57015" lon="-1.1825825">
        <time>2022-07-04T14:37:13Z</time>
      </trkpt>
      <trkpt lat="42.570126" lon="-1.1825202">
        <time>2022-07-04T14:37:16Z</time>
      </trkpt>
      <trkpt lat="42.5701" lon="-1.1824381">
        <time>2022-07-04T14:37:20Z</time>
      </trkpt>
      <trkpt lat="42.570084" lon="-1.1823711">
        <time>2022-07-04T14:37:23Z</time>
      </trkpt>
      <trkpt lat="42.570057" lon="-1.1822835">
        <time>2022-07-04T14:37:27Z</time>
      </trkpt>
      <trkpt lat="42.570038" lon="-1.1822202">
        <time>2022-07-04T14:37:30Z</time>
      </trkpt>
      <trkpt lat="42.570023" lon="-1.1821566">
        <time>2022-07-04T14:37:33Z</time>
      </trkpt>
      <trkpt lat="42.57" lon="-1.1820712">
        <time>2022-07-04T14:37:37Z</time>
      </trkpt>
      <trkpt lat="42.569984" lon="-1.1820029">
        <time>2022-07-04T14:37:40Z</time>
      </trkpt>
      <trkpt lat="42.56996" lon="-1.1819332">
        <time>2022-07-04T14:37:43Z</time>
      </trkpt>
      <trkpt lat="42.56994" lon="-1.1818652">
        <time>2022-07-04T14:37:46Z</time>
      </trkpt>
      <trkpt lat="42.569927" lon="-1.1817979">
        <time>2022-07-04T14:37:49Z</time>
      </trkpt>
      <trkpt lat="42.569916" lon="-1.1817275">
        <time>2022-07-04T14:37:52Z</time>
      </trkpt>
      <trkpt lat="42.569904" lon="-1.1816535">
        <time>2022-07-04T14:37:55Z</time>
      </trkpt>
      <trkpt lat="42.569893" lon="-1.1815783">
        <time>2022-07-04T14:37:58Z</time>
      </trkpt>
      <trkpt lat="42.569874" lon="-1.1815069">
        <time>2022-07-04T14:38:01Z</time>
      </trkpt>
      <trkpt lat="42.569855" lon="-1.1814389">
        <time>2022-07-04T14:38:04Z</time>
      </trkpt>
      <trkpt lat="42.569843" lon="-1.1813656">
        <time>2022-07-04T14:38:07Z</time>
      </trkpt>
      <trkpt lat="42.569828" lon="-1.1812896">
        <time>2022-07-04T14:38:10Z</time>
      </trkpt>
      <trkpt lat="42.569813" lon="-1.1812125">
        <time>2022-07-04T14:38:13Z</time>
      </trkpt>
      <trkpt lat="42.569794" lon="-1.1811368">
        <time>2022-07-04T14:38:16Z</time>
      </trkpt>
      <trkpt lat="42.56978" lon="-1.1810613">
        <time>2022-07-04T14:38:19Z</time>
      </trkpt>
      <trkpt lat="42.569763" lon="-1.1809869">
        <time>2022-07-04T14:38:22Z</time>
      </trkpt>
      <trkpt lat="42.569756" lon="-1.1809096">
        <time>2022-07-04T14:38:25Z</time>
      </trkpt>
      <trkpt lat="42.56975" lon="-1.1808306">
        <time>2022-07-04T14:38:28Z</time>
      </trkpt>
      <trkpt lat="42.569744" lon="-1.1807512">
        <time>2022-07-04T14:38:31Z</time>
      </trkpt>
      <trkpt lat="42.56973" lon="-1.1806732">
        <time>2022-07-04T14:38:34Z</time>
      </trkpt>
      <trkpt lat="42.569714" lon="-1.1805986">
        <time>2022-07-04T14:38:37Z</time>
      </trkpt>
      <trkpt lat="42.5697" lon="-1.180522">
        <time>2022-07-04T14:38:40Z</time>
      </trkpt>
      <trkpt lat="42.569683" lon="-1.180447">
        <time>2022-07-04T14:38:43Z</time>
      </trkpt>
      <trkpt lat="42.569668" lon="-1.1803733">
        <time>2022-07-04T14:38:46Z</time>
      </trkpt>
      <trkpt lat="42.56965" lon="-1.1802976">
        <time>2022-07-04T14:38:49Z</time>
      </trkpt>
      <trkpt lat="42.569637" lon="-1.1802223">
        <time>2022-07-04T14:38:52Z</time>
      </trkpt>
      <trkpt lat="42.569622" lon="-1.1801456">
        <time>2022-07-04T14:38:55Z</time>
      </trkpt>
      <trkpt lat="42.569603" lon="-1.1800706">
        <time>2022-07-04T14:38:58Z</time>
      </trkpt>
      <trkpt lat="42.569584" lon="-1.1799933">
        <time>2022-07-04T14:39:01Z</time>
      </trkpt>
      <trkpt lat="42.56957" lon="-1.179919">
        <time>2022-07-04T14:39:04Z</time>
      </trkpt>
      <trkpt lat="42.56955" lon="-1.1798459">
        <time>2022-07-04T14:39:07Z</time>
      </trkpt>
      <trkpt lat="42.56953" lon="-1.1797717">
        <time>2022-07-04T14:39:10Z</time>
      </trkpt>
      <trkpt lat="42.569508" lon="-1.179699">
        <time>2022-07-04T14:39:13Z</time>
      </trkpt>
      <trkpt lat="42.56948" lon="-1.1796316">
        <time>2022-07-04T14:39:16Z</time>
      </trkpt>
      <trkpt lat="42.56945" lon="-1.1795646">
        <time>2022-07-04T14:39:19Z</time>
      </trkpt>
      <trkpt lat="42.569424" lon="-1.1794957">
        <time>2022-07-04T14:39:22Z</time>
      </trkpt>
      <trkpt lat="42.569393" lon="-1.179422">
        <time>2022-07-04T14:39:25Z</time>
      </trkpt>
      <trkpt lat="42.569363" lon="-1.1793517">
        <time>2022-07-04T14:39:28Z</time>
      </trkpt>
      <trkpt lat="42.569336" lon="-1.1792866">
        <time>2022-07-04T14:39:31Z</time>
      </trkpt>
      <trkpt lat="42.5693" lon="-1.179222">
        <time>2022-07-04T14:39:34Z</time>
      </trkpt>
      <trkpt lat="42.569263" lon="-1.179157">
        <time>2022-07-04T14:39:37Z</time>
      </trkpt>
      <trkpt lat="42.56923" lon="-1.1790954">
        <time>2022-07-04T14:39:40Z</time>
      </trkpt>
      <trkpt lat="42.56919" lon="-1.179032">
        <time>2022-07-04T14:39:43Z</time>
      </trkpt>
      <trkpt lat="42.569153" lon="-1.1789657">
        <time>2022-07-04T14:39:46Z</time>
      </trkpt>
      <trkpt lat="42.569115" lon="-1.1788967">
        <time>2022-07-04T14:39:49Z</time>
      </trkpt>
      <trkpt lat="42.569077" lon="-1.1788293">
        <time>2022-07-04T14:39:52Z</time>
      </trkpt>
      <trkpt lat="42.569035" lon="-1.1787593">
        <time>2022-07-04T14:39:55Z</time>
      </trkpt>
      <trkpt lat="42.568993" lon="-1.1786886">
        <time>2022-07-04T14:39:58Z</time>
      </trkpt>
      <trkpt lat="42.56895" lon="-1.1786164">
        <time>2022-07-04T14:40:01Z</time>
      </trkpt>
      <trkpt lat="42.56892" lon="-1.178566">
        <time>2022-07-04T14:40:03Z</time>
      </trkpt>
      <trkpt lat="42.568874" lon="-1.178493">
        <time>2022-07-04T14:40:06Z</time>
      </trkpt>
      <trkpt lat="42.568832" lon="-1.1784203">
        <time>2022-07-04T14:40:09Z</time>
      </trkpt>
      <trkpt lat="42.568798" lon="-1.1783434">
        <time>2022-07-04T14:40:12Z</time>
      </trkpt>
      <trkpt lat="42.568756" lon="-1.1782697">
        <time>2022-07-04T14:40:15Z</time>
      </trkpt>
      <trkpt lat="42.568714" lon="-1.1781967">
        <time>2022-07-04T14:40:18Z</time>
      </trkpt>
      <trkpt lat="42.568672" lon="-1.1781224">
        <time>2022-07-04T14:40:21Z</time>
      </trkpt>
      <trkpt lat="42.568634" lon="-1.178042">
        <time>2022-07-04T14:40:24Z</time>
      </trkpt>
      <trkpt lat="42.5686" lon="-1.1779617">
        <time>2022-07-04T14:40:27Z</time>
      </trkpt>
      <trkpt lat="42.568565" lon="-1.1778791">
        <time>2022-07-04T14:40:30Z</time>
      </trkpt>
      <trkpt lat="42.568535" lon="-1.1777941">
        <time>2022-07-04T14:40:33Z</time>
      </trkpt>
      <trkpt lat="42.568504" lon="-1.1777074">
        <time>2022-07-04T14:40:36Z</time>
      </trkpt>
      <trkpt lat="42.568485" lon="-1.1776214">
        <time>2022-07-04T14:40:39Z</time>
      </trkpt>
      <trkpt lat="42.568466" lon="-1.1775347">
        <time>2022-07-04T14:40:42Z</time>
      </trkpt>
      <trkpt lat="42.568447" lon="-1.177453">
        <time>2022-07-04T14:40:45Z</time>
      </trkpt>
      <trkpt lat="42.568436" lon="-1.1773747">
        <time>2022-07-04T14:40:48Z</time>
      </trkpt>
      <trkpt lat="42.56842" lon="-1.1772977">
        <time>2022-07-04T14:40:51Z</time>
      </trkpt>
      <trkpt lat="42.5684" lon="-1.1772218">
        <time>2022-07-04T14:40:54Z</time>
      </trkpt>
      <trkpt lat="42.568382" lon="-1.1771451">
        <time>2022-07-04T14:40:57Z</time>
      </trkpt>
      <trkpt lat="42.568367" lon="-1.1770668">
        <time>2022-07-04T14:41:00Z</time>
      </trkpt>
      <trkpt lat="42.568356" lon="-1.1769884">
        <time>2022-07-04T14:41:03Z</time>
      </trkpt>
      <trkpt lat="42.568344" lon="-1.1769124">
        <time>2022-07-04T14:41:06Z</time>
      </trkpt>
      <trkpt lat="42.56833" lon="-1.1768354">
        <time>2022-07-04T14:41:09Z</time>
      </trkpt>
      <trkpt lat="42.568314" lon="-1.1767608">
        <time>2022-07-04T14:41:12Z</time>
      </trkpt>
      <trkpt lat="42.5683" lon="-1.1766855">
        <time>2022-07-04T14:41:15Z</time>
      </trkpt>
      <trkpt lat="42.568283" lon="-1.1766144">
        <time>2022-07-04T14:41:18Z</time>
      </trkpt>
      <trkpt lat="42.56826" lon="-1.1765144">
        <time>2022-07-04T14:41:23Z</time>
      </trkpt>
      <trkpt lat="42.568245" lon="-1.1764455">
        <time>2022-07-04T14:41:26Z</time>
      </trkpt>
      <trkpt lat="42.56823" lon="-1.1763798">
        <time>2022-07-04T14:41:29Z</time>
      </trkpt>
      <trkpt lat="42.568203" lon="-1.1762928">
        <time>2022-07-04T14:41:33Z</time>
      </trkpt>
      <trkpt lat="42.568184" lon="-1.1762284">
        <time>2022-07-04T14:41:36Z</time>
      </trkpt>
      <trkpt lat="42.568165" lon="-1.1761512">
        <time>2022-07-04T14:41:40Z</time>
      </trkpt>
      <trkpt lat="42.56814" lon="-1.1760781">
        <time>2022-07-04T14:41:44Z</time>
      </trkpt>
      <trkpt lat="42.5681" lon="-1.1760122">
        <time>2022-07-04T14:41:48Z</time>
      </trkpt>
      <trkpt lat="42.568073" lon="-1.1759567">
        <time>2022-07-04T14:41:51Z</time>
      </trkpt>
      <trkpt lat="42.56804" lon="-1.1758845">
        <time>2022-07-04T14:41:55Z</time>
      </trkpt>
      <trkpt lat="42.568005" lon="-1.1758108">
        <time>2022-07-04T14:41:59Z</time>
      </trkpt>
      <trkpt lat="42.56797" lon="-1.1757588">
        <time>2022-07-04T14:42:02Z</time>
      </trkpt>
      <trkpt lat="42.56793" lon="-1.1756935">
        <time>2022-07-04T14:42:06Z</time>
      </trkpt>
      <trkpt lat="42.567883" lon="-1.1756301">
        <time>2022-07-04T14:42:10Z</time>
      </trkpt>
      <trkpt lat="42.56782" lon="-1.1755525">
        <time>2022-07-04T14:42:15Z</time>
      </trkpt>
      <trkpt lat="42.567783" lon="-1.1755065">
        <time>2022-07-04T14:42:18Z</time>
      </trkpt>
      <trkpt lat="42.567738" lon="-1.1754458">
        <time>2022-07-04T14:42:22Z</time>
      </trkpt>
      <trkpt lat="42.567688" lon="-1.1753845">
        <time>2022-07-04T14:42:26Z</time>
      </trkpt>
      <trkpt lat="42.567646" lon="-1.1753454">
        <time>2022-07-04T14:42:29Z</time>
      </trkpt>
      <trkpt lat="42.567604" lon="-1.1753109">
        <time>2022-07-04T14:42:32Z</time>
      </trkpt>
      <trkpt lat="42.56755" lon="-1.1752638">
        <time>2022-07-04T14:42:36Z</time>
      </trkpt>
      <trkpt lat="42.567513" lon="-1.1752259">
        <time>2022-07-04T14:42:39Z</time>
      </trkpt>
      <trkpt lat="42.56746" lon="-1.1751788">
        <time>2022-07-04T14:42:43Z</time>
      </trkpt>
      <trkpt lat="42.5674" lon="-1.1751364">
        <time>2022-07-04T14:42:47Z</time>
      </trkpt>
      <trkpt lat="42.567345" lon="-1.1750925">
        <time>2022-07-04T14:42:51Z</time>
      </trkpt>
      <trkpt lat="42.5673" lon="-1.1750602">
        <time>2022-07-04T14:42:54Z</time>
      </trkpt>
      <trkpt lat="42.56725" lon="-1.1750219">
        <time>2022-07-04T14:42:58Z</time>
      </trkpt>
      <trkpt lat="42.567196" lon="-1.1749818">
        <time>2022-07-04T14:43:02Z</time>
      </trkpt>
      <trkpt lat="42.56715" lon="-1.1749555">
        <time>2022-07-04T14:43:05Z</time>
      </trkpt>
      <trkpt lat="42.567085" lon="-1.1749235">
        <time>2022-07-04T14:43:47Z</time>
      </trkpt>
      <trkpt lat="42.567024" lon="-1.1748781">
        <time>2022-07-04T14:43:51Z</time>
      </trkpt>
      <trkpt lat="42.56698" lon="-1.1748421">
        <time>2022-07-04T14:43:54Z</time>
      </trkpt>
      <trkpt lat="42.56693" lon="-1.1748035">
        <time>2022-07-04T14:43:57Z</time>
      </trkpt>
      <trkpt lat="42.56688" lon="-1.1747732">
        <time>2022-07-04T14:44:00Z</time>
      </trkpt>
      <trkpt lat="42.566833" lon="-1.1747435">
        <time>2022-07-04T14:44:03Z</time>
      </trkpt>
      <trkpt lat="42.566788" lon="-1.1747118">
        <time>2022-07-04T14:44:06Z</time>
      </trkpt>
      <trkpt lat="42.566734" lon="-1.1746682">
        <time>2022-07-04T14:44:10Z</time>
      </trkpt>
      <trkpt lat="42.56668" lon="-1.1746252">
        <time>2022-07-04T14:44:14Z</time>
      </trkpt>
      <trkpt lat="42.566624" lon="-1.1745869">
        <time>2022-07-04T14:44:18Z</time>
      </trkpt>
      <trkpt lat="42.566566" lon="-1.1745483">
        <time>2022-07-04T14:44:22Z</time>
      </trkpt>
      <trkpt lat="42.566513" lon="-1.1745069">
        <time>2022-07-04T14:44:26Z</time>
      </trkpt>
      <trkpt lat="42.56646" lon="-1.1744759">
        <time>2022-07-04T14:44:30Z</time>
      </trkpt>
      <trkpt lat="42.566406" lon="-1.1744503">
        <time>2022-07-04T14:44:34Z</time>
      </trkpt>
      <trkpt lat="42.566357" lon="-1.1744165">
        <time>2022-07-04T14:44:38Z</time>
      </trkpt>
      <trkpt lat="42.566303" lon="-1.1743809">
        <time>2022-07-04T14:44:42Z</time>
      </trkpt>
      <trkpt lat="42.566257" lon="-1.1743386">
        <time>2022-07-04T14:44:46Z</time>
      </trkpt>
      <trkpt lat="42.566216" lon="-1.1742989">
        <time>2022-07-04T14:44:50Z</time>
      </trkpt>
      <trkpt lat="42.56616" lon="-1.1742716">
        <time>2022-07-04T14:44:55Z</time>
      </trkpt>
      <trkpt lat="42.566113" lon="-1.1742272">
        <time>2022-07-04T14:44:59Z</time>
      </trkpt>
      <trkpt lat="42.56606" lon="-1.1741962">
        <time>2022-07-04T14:45:03Z</time>
      </trkpt>
      <trkpt lat="42.566013" lon="-1.1741452">
        <time>2022-07-04T14:45:08Z</time>
      </trkpt>
      <trkpt lat="42.565968" lon="-1.1741076">
        <time>2022-07-04T14:45:12Z</time>
      </trkpt>
      <trkpt lat="42.565918" lon="-1.1740752">
        <time>2022-07-04T14:45:16Z</time>
      </trkpt>
      <trkpt lat="42.56588" lon="-1.1740226">
        <time>2022-07-04T14:45:20Z</time>
      </trkpt>
      <trkpt lat="42.56584" lon="-1.173968">
        <time>2022-07-04T14:45:24Z</time>
      </trkpt>
      <trkpt lat="42.565792" lon="-1.1739203">
        <time>2022-07-04T14:45:29Z</time>
      </trkpt>
      <trkpt lat="42.56575" lon="-1.1738633">
        <time>2022-07-04T14:45:33Z</time>
      </trkpt>
      <trkpt lat="42.565712" lon="-1.1738026">
        <time>2022-07-04T14:45:37Z</time>
      </trkpt>
      <trkpt lat="42.565678" lon="-1.1737456">
        <time>2022-07-04T14:45:41Z</time>
      </trkpt>
      <trkpt lat="42.565643" lon="-1.1736859">
        <time>2022-07-04T14:45:45Z</time>
      </trkpt>
      <trkpt lat="42.56561" lon="-1.1736283">
        <time>2022-07-04T14:45:49Z</time>
      </trkpt>
      <trkpt lat="42.565582" lon="-1.1735623">
        <time>2022-07-04T14:45:53Z</time>
      </trkpt>
      <trkpt lat="42.565548" lon="-1.1735016">
        <time>2022-07-04T14:45:57Z</time>
      </trkpt>
      <trkpt lat="42.565517" lon="-1.173443">
        <time>2022-07-04T14:46:01Z</time>
      </trkpt>
      <trkpt lat="42.565495" lon="-1.1733763">
        <time>2022-07-04T14:46:05Z</time>
      </trkpt>
      <trkpt lat="42.56547" lon="-1.173309">
        <time>2022-07-04T14:46:09Z</time>
      </trkpt>
      <trkpt lat="42.56545" lon="-1.1732377">
        <time>2022-07-04T14:46:13Z</time>
      </trkpt>
      <trkpt lat="42.565434" lon="-1.1731663">
        <time>2022-07-04T14:46:17Z</time>
      </trkpt>
      <trkpt lat="42.565414" lon="-1.1730927">
        <time>2022-07-04T14:46:21Z</time>
      </trkpt>
      <trkpt lat="42.565403" lon="-1.1730217">
        <time>2022-07-04T14:46:25Z</time>
      </trkpt>
      <trkpt lat="42.56539" lon="-1.172951">
        <time>2022-07-04T14:46:29Z</time>
      </trkpt>
      <trkpt lat="42.565388" lon="-1.172897">
        <time>2022-07-04T14:46:35Z</time>
      </trkpt>
      <trkpt lat="42.565388" lon="-1.1728166">
        <time>2022-07-04T14:46:58Z</time>
      </trkpt>
      <trkpt lat="42.565365" lon="-1.1727477">
        <time>2022-07-04T14:47:02Z</time>
      </trkpt>
      <trkpt lat="42.56534" lon="-1.1726804">
        <time>2022-07-04T14:47:06Z</time>
      </trkpt>
      <trkpt lat="42.56532" lon="-1.1726114">
        <time>2022-07-04T14:47:10Z</time>
      </trkpt>
      <trkpt lat="42.565304" lon="-1.1725384">
        <time>2022-07-04T14:47:14Z</time>
      </trkpt>
      <trkpt lat="42.565277" lon="-1.172467">
        <time>2022-07-04T14:47:18Z</time>
      </trkpt>
      <trkpt lat="42.565243" lon="-1.1723977">
        <time>2022-07-04T14:47:22Z</time>
      </trkpt>
      <trkpt lat="42.565212" lon="-1.172328">
        <time>2022-07-04T14:47:26Z</time>
      </trkpt>
      <trkpt lat="42.565178" lon="-1.172258">
        <time>2022-07-04T14:47:30Z</time>
      </trkpt>
      <trkpt lat="42.56515" lon="-1.1721877">
        <time>2022-07-04T14:47:34Z</time>
      </trkpt>
      <trkpt lat="42.565125" lon="-1.1721224">
        <time>2022-07-04T14:47:38Z</time>
      </trkpt>
      <trkpt lat="42.565086" lon="-1.1720554">
        <time>2022-07-04T14:47:42Z</time>
      </trkpt>
      <trkpt lat="42.565044" lon="-1.1719927">
        <time>2022-07-04T14:47:46Z</time>
      </trkpt>
      <trkpt lat="42.565006" lon="-1.171933">
        <time>2022-07-04T14:47:50Z</time>
      </trkpt>
      <trkpt lat="42.56497" lon="-1.1718717">
        <time>2022-07-04T14:47:54Z</time>
      </trkpt>
      <trkpt lat="42.56493" lon="-1.1718134">
        <time>2022-07-04T14:47:58Z</time>
      </trkpt>
      <trkpt lat="42.56489" lon="-1.1717584">
        <time>2022-07-04T14:48:02Z</time>
      </trkpt>
      <trkpt lat="42.56486" lon="-1.1716951">
        <time>2022-07-04T14:48:06Z</time>
      </trkpt>
      <trkpt lat="42.56482" lon="-1.1716464">
        <time>2022-07-04T14:48:10Z</time>
      </trkpt>
      <trkpt lat="42.564766" lon="-1.1716087">
        <time>2022-07-04T14:48:14Z</time>
      </trkpt>
      <trkpt lat="42.564724" lon="-1.171558">
        <time>2022-07-04T14:48:18Z</time>
      </trkpt>
      <trkpt lat="42.564686" lon="-1.1714991">
        <time>2022-07-04T14:48:22Z</time>
      </trkpt>
      <trkpt lat="42.564644" lon="-1.1714478">
        <time>2022-07-04T14:48:26Z</time>
      </trkpt>
      <trkpt lat="42.56459" lon="-1.1714064">
        <time>2022-07-04T14:48:30Z</time>
      </trkpt>
      <trkpt lat="42.564545" lon="-1.1713554">
        <time>2022-07-04T14:48:34Z</time>
      </trkpt>
      <trkpt lat="42.564507" lon="-1.1712804">
        <time>2022-07-04T14:48:39Z</time>
      </trkpt>
      <trkpt lat="42.56446" lon="-1.171228">
        <time>2022-07-04T14:48:43Z</time>
      </trkpt>
      <trkpt lat="42.564423" lon="-1.1711534">
        <time>2022-07-04T14:48:48Z</time>
      </trkpt>
      <trkpt lat="42.564396" lon="-1.1710938">
        <time>2022-07-04T14:48:52Z</time>
      </trkpt>
      <trkpt lat="42.56437" lon="-1.1710298">
        <time>2022-07-04T14:48:56Z</time>
      </trkpt>
      <trkpt lat="42.564354" lon="-1.1709571">
        <time>2022-07-04T14:49:00Z</time>
      </trkpt>
      <trkpt lat="42.564335" lon="-1.1708878">
        <time>2022-07-04T14:49:04Z</time>
      </trkpt>
      <trkpt lat="42.564327" lon="-1.1708144">
        <time>2022-07-04T14:49:08Z</time>
      </trkpt>
      <trkpt lat="42.564323" lon="-1.1707351">
        <time>2022-07-04T14:49:12Z</time>
      </trkpt>
      <trkpt lat="42.564323" lon="-1.1706525">
        <time>2022-07-04T14:49:16Z</time>
      </trkpt>
      <trkpt lat="42.56433" lon="-1.1705728">
        <time>2022-07-04T14:49:20Z</time>
      </trkpt>
      <trkpt lat="42.56434" lon="-1.1704957">
        <time>2022-07-04T14:49:24Z</time>
      </trkpt>
      <trkpt lat="42.56436" lon="-1.1704254">
        <time>2022-07-04T14:49:28Z</time>
      </trkpt>
      <trkpt lat="42.564396" lon="-1.1703625">
        <time>2022-07-04T14:49:32Z</time>
      </trkpt>
      <trkpt lat="42.56443" lon="-1.1703014">
        <time>2022-07-04T14:49:36Z</time>
      </trkpt>
      <trkpt lat="42.56447" lon="-1.1702378">
        <time>2022-07-04T14:49:41Z</time>
      </trkpt>
      <trkpt lat="42.564507" lon="-1.1701965">
        <time>2022-07-04T14:49:45Z</time>
      </trkpt>
      <trkpt lat="42.564552" lon="-1.1701589">
        <time>2022-07-04T14:49:49Z</time>
      </trkpt>
      <trkpt lat="42.564598" lon="-1.1701195">
        <time>2022-07-04T14:49:53Z</time>
      </trkpt>
      <trkpt lat="42.56465" lon="-1.1700941">
        <time>2022-07-04T14:49:57Z</time>
      </trkpt>
      <trkpt lat="42.5647" lon="-1.1700722">
        <time>2022-07-04T14:50:01Z</time>
      </trkpt>
      <trkpt lat="42.56476" lon="-1.1700531">
        <time>2022-07-04T14:50:06Z</time>
      </trkpt>
      <trkpt lat="42.56481" lon="-1.1700495">
        <time>2022-07-04T14:50:10Z</time>
      </trkpt>
      <trkpt lat="42.564865" lon="-1.1700525">
        <time>2022-07-04T14:50:14Z</time>
      </trkpt>
      <trkpt lat="42.56493" lon="-1.1700618">
        <time>2022-07-04T14:50:19Z</time>
      </trkpt>
      <trkpt lat="42.564983" lon="-1.1700518">
        <time>2022-07-04T14:50:23Z</time>
      </trkpt>
      <trkpt lat="42.565037" lon="-1.1700321">
        <time>2022-07-04T14:50:27Z</time>
      </trkpt>
      <trkpt lat="42.56509" lon="-1.1700008">
        <time>2022-07-04T14:50:31Z</time>
      </trkpt>
      <trkpt lat="42.565144" lon="-1.1699718">
        <time>2022-07-04T14:50:35Z</time>
      </trkpt>
      <trkpt lat="42.565186" lon="-1.1699291">
        <time>2022-07-04T14:50:39Z</time>
      </trkpt>
      <trkpt lat="42.56523" lon="-1.1698898">
        <time>2022-07-04T14:50:43Z</time>
      </trkpt>
      <trkpt lat="42.565304" lon="-1.1698889">
        <time>2022-07-04T14:50:47Z</time>
      </trkpt>
      <trkpt lat="42.56537" lon="-1.1698872">
        <time>2022-07-04T14:50:50Z</time>
      </trkpt>
      <trkpt lat="42.565437" lon="-1.1698898">
        <time>2022-07-04T14:50:53Z</time>
      </trkpt>
      <trkpt lat="42.565502" lon="-1.1698818">
        <time>2022-07-04T14:50:56Z</time>
      </trkpt>
      <trkpt lat="42.56557" lon="-1.1698666">
        <time>2022-07-04T14:50:59Z</time>
      </trkpt>
      <trkpt lat="42.565636" lon="-1.1698425">
        <time>2022-07-04T14:51:02Z</time>
      </trkpt>
      <trkpt lat="42.565697" lon="-1.1697968">
        <time>2022-07-04T14:51:05Z</time>
      </trkpt>
      <trkpt lat="42.565754" lon="-1.1697512">
        <time>2022-07-04T14:51:08Z</time>
      </trkpt>
      <trkpt lat="42.565804" lon="-1.1697162">
        <time>2022-07-04T14:51:11Z</time>
      </trkpt>
      <trkpt lat="42.565937" lon="-1.1697749">
        <time>2022-07-04T14:53:05Z</time>
      </trkpt>
      <trkpt lat="42.566" lon="-1.1697899">
        <time>2022-07-04T14:53:07Z</time>
      </trkpt>
      <trkpt lat="42.566067" lon="-1.1698118">
        <time>2022-07-04T14:53:09Z</time>
      </trkpt>
      <trkpt lat="42.566135" lon="-1.1698226">
        <time>2022-07-04T14:53:11Z</time>
      </trkpt>
      <trkpt lat="42.566193" lon="-1.1698345">
        <time>2022-07-04T14:53:13Z</time>
      </trkpt>
      <trkpt lat="42.56623" lon="-1.1698505">
        <time>2022-07-04T14:53:15Z</time>
      </trkpt>
      <trkpt lat="42.566288" lon="-1.1698699">
        <time>2022-07-04T14:53:19Z</time>
      </trkpt>
      <trkpt lat="42.56627" lon="-1.1699141">
        <time>2022-07-04T14:54:05Z</time>
      </trkpt>
      <trkpt lat="42.566216" lon="-1.1698929">
        <time>2022-07-04T14:54:09Z</time>
      </trkpt>
      <trkpt lat="42.56615" lon="-1.1698582">
        <time>2022-07-04T14:54:13Z</time>
      </trkpt>
      <trkpt lat="42.566097" lon="-1.1698315">
        <time>2022-07-04T14:54:16Z</time>
      </trkpt>
      <trkpt lat="42.566055" lon="-1.1698219">
        <time>2022-07-04T14:54:19Z</time>
      </trkpt>
      <trkpt lat="42.565998" lon="-1.1698235">
        <time>2022-07-04T14:54:23Z</time>
      </trkpt>
      <trkpt lat="42.565937" lon="-1.1698309">
        <time>2022-07-04T14:54:28Z</time>
      </trkpt>
      <trkpt lat="42.565876" lon="-1.1698242">
        <time>2022-07-04T14:54:33Z</time>
      </trkpt>
      <trkpt lat="42.56583" lon="-1.1698059">
        <time>2022-07-04T14:54:37Z</time>
      </trkpt>
      <trkpt lat="42.565773" lon="-1.1698065">
        <time>2022-07-04T14:54:43Z</time>
      </trkpt>
      <trkpt lat="42.565716" lon="-1.1698239">
        <time>2022-07-04T14:54:48Z</time>
      </trkpt>
      <trkpt lat="42.565662" lon="-1.1698538">
        <time>2022-07-04T14:54:54Z</time>
      </trkpt>
      <trkpt lat="42.56572" lon="-1.1698042">
        <time>2022-07-04T14:55:13Z</time>
      </trkpt>
      <trkpt lat="42.565773" lon="-1.1697729">
        <time>2022-07-04T14:55:17Z</time>
      </trkpt>
      <trkpt lat="42.565807" lon="-1.1697205">
        <time>2022-07-04T14:55:22Z</time>
      </trkpt>
      <trkpt lat="42.565792" lon="-1.1696652">
        <time>2022-07-04T14:55:27Z</time>
      </trkpt>
      <trkpt lat="42.56575" lon="-1.1696159">
        <time>2022-07-04T14:55:32Z</time>
      </trkpt>
      <trkpt lat="42.565704" lon="-1.1695559">
        <time>2022-07-04T14:55:37Z</time>
      </trkpt>
      <trkpt lat="42.565666" lon="-1.1695012">
        <time>2022-07-04T14:55:42Z</time>
      </trkpt>
      <trkpt lat="42.565613" lon="-1.1694922">
        <time>2022-07-04T14:55:47Z</time>
      </trkpt>
      <trkpt lat="42.56556" lon="-1.1694732">
        <time>2022-07-04T14:55:51Z</time>
      </trkpt>
      <trkpt lat="42.56551" lon="-1.1694592">
        <time>2022-07-04T14:55:55Z</time>
      </trkpt>
      <trkpt lat="42.565453" lon="-1.1694589">
        <time>2022-07-04T14:56:00Z</time>
      </trkpt>
      <trkpt lat="42.5654" lon="-1.1694549">
        <time>2022-07-04T14:56:05Z</time>
      </trkpt>
      <trkpt lat="42.56534" lon="-1.1694409">
        <time>2022-07-04T14:56:10Z</time>
      </trkpt>
      <trkpt lat="42.565273" lon="-1.1694229">
        <time>2022-07-04T14:56:15Z</time>
      </trkpt>
      <trkpt lat="42.565212" lon="-1.1694078">
        <time>2022-07-04T14:56:20Z</time>
      </trkpt>
      <trkpt lat="42.565163" lon="-1.1693892">
        <time>2022-07-04T14:56:24Z</time>
      </trkpt>
      <trkpt lat="42.565105" lon="-1.1693716">
        <time>2022-07-04T14:56:29Z</time>
      </trkpt>
      <trkpt lat="42.565056" lon="-1.1693343">
        <time>2022-07-04T14:56:34Z</time>
      </trkpt>
      <trkpt lat="42.565025" lon="-1.1692933">
        <time>2022-07-04T14:56:39Z</time>
      </trkpt>
      <trkpt lat="42.565" lon="-1.1691356">
        <time>2022-07-04T15:09:53Z</time>
      </trkpt>
      <trkpt lat="42.565025" lon="-1.1691163">
        <time>2022-07-04T15:42:22Z</time>
      </trkpt>
      <trkpt lat="42.565063" lon="-1.1690899">
        <time>2022-07-04T15:42:25Z</time>
      </trkpt>
      <trkpt lat="42.565098" lon="-1.1690546">
        <time>2022-07-04T15:42:30Z</time>
      </trkpt>
      <trkpt lat="42.565033" lon="-1.1690749">
        <time>2022-07-04T15:42:38Z</time>
      </trkpt>
      <trkpt lat="42.565" lon="-1.1691155">
        <time>2022-07-04T15:42:46Z</time>
      </trkpt>
      <trkpt lat="42.564926" lon="-1.1690686">
        <time>2022-07-04T15:45:00Z</time>
      </trkpt>
      <trkpt lat="42.564884" lon="-1.1690233">
        <time>2022-07-04T15:45:04Z</time>
      </trkpt>
      <trkpt lat="42.56484" lon="-1.1689906">
        <time>2022-07-04T15:45:08Z</time>
      </trkpt>
      <trkpt lat="42.56478" lon="-1.1689453">
        <time>2022-07-04T15:45:13Z</time>
      </trkpt>
      <trkpt lat="42.564724" lon="-1.1689066">
        <time>2022-07-04T15:45:16Z</time>
      </trkpt>
      <trkpt lat="42.56467" lon="-1.1688702">
        <time>2022-07-04T15:45:18Z</time>
      </trkpt>
      <trkpt lat="42.564617" lon="-1.168842">
        <time>2022-07-04T15:45:20Z</time>
      </trkpt>
      <trkpt lat="42.564564" lon="-1.1688273">
        <time>2022-07-04T15:45:22Z</time>
      </trkpt>
      <trkpt lat="42.56452" lon="-1.168826">
        <time>2022-07-04T15:45:27Z</time>
      </trkpt>
      <trkpt lat="42.564476" lon="-1.1687946">
        <time>2022-07-04T15:45:57Z</time>
      </trkpt>
      <trkpt lat="42.56441" lon="-1.1687486">
        <time>2022-07-04T15:46:01Z</time>
      </trkpt>
      <trkpt lat="42.564358" lon="-1.1687213">
        <time>2022-07-04T15:46:04Z</time>
      </trkpt>
      <trkpt lat="42.564312" lon="-1.1686913">
        <time>2022-07-04T15:46:07Z</time>
      </trkpt>
      <trkpt lat="42.564262" lon="-1.1686656">
        <time>2022-07-04T15:46:10Z</time>
      </trkpt>
      <trkpt lat="42.564213" lon="-1.1686413">
        <time>2022-07-04T15:46:13Z</time>
      </trkpt>
      <trkpt lat="42.564148" lon="-1.1686233">
        <time>2022-07-04T15:46:17Z</time>
      </trkpt>
      <trkpt lat="42.5641" lon="-1.16861">
        <time>2022-07-04T15:46:20Z</time>
      </trkpt>
      <trkpt lat="42.564034" lon="-1.1685853">
        <time>2022-07-04T15:46:24Z</time>
      </trkpt>
      <trkpt lat="42.563988" lon="-1.1685697">
        <time>2022-07-04T15:46:27Z</time>
      </trkpt>
      <trkpt lat="42.563934" lon="-1.1685346">
        <time>2022-07-04T15:46:31Z</time>
      </trkpt>
      <trkpt lat="42.56389" lon="-1.1685057">
        <time>2022-07-04T15:46:34Z</time>
      </trkpt>
      <trkpt lat="42.56383" lon="-1.168469">
        <time>2022-07-04T15:46:38Z</time>
      </trkpt>
      <trkpt lat="42.563774" lon="-1.168429">
        <time>2022-07-04T15:46:42Z</time>
      </trkpt>
      <trkpt lat="42.563713" lon="-1.1683884">
        <time>2022-07-04T15:46:46Z</time>
      </trkpt>
      <trkpt lat="42.563663" lon="-1.1683527">
        <time>2022-07-04T15:46:49Z</time>
      </trkpt>
      <trkpt lat="42.563614" lon="-1.1683127">
        <time>2022-07-04T15:46:52Z</time>
      </trkpt>
      <trkpt lat="42.563564" lon="-1.1682683">
        <time>2022-07-04T15:46:55Z</time>
      </trkpt>
      <trkpt lat="42.56351" lon="-1.1682223">
        <time>2022-07-04T15:46:58Z</time>
      </trkpt>
      <trkpt lat="42.563446" lon="-1.1681716">
        <time>2022-07-04T15:47:01Z</time>
      </trkpt>
      <trkpt lat="42.5634" lon="-1.1681356">
        <time>2022-07-04T15:47:03Z</time>
      </trkpt>
      <trkpt lat="42.56334" lon="-1.1680794">
        <time>2022-07-04T15:47:06Z</time>
      </trkpt>
      <trkpt lat="42.563274" lon="-1.1680254">
        <time>2022-07-04T15:47:09Z</time>
      </trkpt>
      <trkpt lat="42.56323" lon="-1.1679924">
        <time>2022-07-04T15:47:11Z</time>
      </trkpt>
      <trkpt lat="42.563187" lon="-1.16796">
        <time>2022-07-04T15:47:13Z</time>
      </trkpt>
      <trkpt lat="42.56312" lon="-1.1679124">
        <time>2022-07-04T15:47:16Z</time>
      </trkpt>
      <trkpt lat="42.56307" lon="-1.1678654">
        <time>2022-07-04T15:47:19Z</time>
      </trkpt>
      <trkpt lat="42.563015" lon="-1.1678107">
        <time>2022-07-04T15:47:22Z</time>
      </trkpt>
      <trkpt lat="42.562965" lon="-1.167753">
        <time>2022-07-04T15:47:25Z</time>
      </trkpt>
      <trkpt lat="42.56293" lon="-1.167713">
        <time>2022-07-04T15:47:27Z</time>
      </trkpt>
      <trkpt lat="42.562885" lon="-1.1676544">
        <time>2022-07-04T15:47:30Z</time>
      </trkpt>
      <trkpt lat="42.56283" lon="-1.1675957">
        <time>2022-07-04T15:47:33Z</time>
      </trkpt>
      <trkpt lat="42.562782" lon="-1.1675404">
        <time>2022-07-04T15:47:36Z</time>
      </trkpt>
      <trkpt lat="42.56273" lon="-1.1674851">
        <time>2022-07-04T15:47:39Z</time>
      </trkpt>
      <trkpt lat="42.56268" lon="-1.1674341">
        <time>2022-07-04T15:47:42Z</time>
      </trkpt>
      <trkpt lat="42.56263" lon="-1.1673844">
        <time>2022-07-04T15:47:45Z</time>
      </trkpt>
      <trkpt lat="42.56258" lon="-1.16734">
        <time>2022-07-04T15:47:48Z</time>
      </trkpt>
      <trkpt lat="42.562527" lon="-1.167299">
        <time>2022-07-04T15:47:51Z</time>
      </trkpt>
      <trkpt lat="42.562473" lon="-1.1672611">
        <time>2022-07-04T15:47:54Z</time>
      </trkpt>
      <trkpt lat="42.562416" lon="-1.1672248">
        <time>2022-07-04T15:47:57Z</time>
      </trkpt>
      <trkpt lat="42.562363" lon="-1.1671901">
        <time>2022-07-04T15:48:00Z</time>
      </trkpt>
      <trkpt lat="42.56231" lon="-1.1671557">
        <time>2022-07-04T15:48:03Z</time>
      </trkpt>
      <trkpt lat="42.562256" lon="-1.1671227">
        <time>2022-07-04T15:48:06Z</time>
      </trkpt>
      <trkpt lat="42.5622" lon="-1.1670858">
        <time>2022-07-04T15:48:09Z</time>
      </trkpt>
      <trkpt lat="42.562145" lon="-1.1670448">
        <time>2022-07-04T15:48:12Z</time>
      </trkpt>
      <trkpt lat="42.56209" lon="-1.1669978">
        <time>2022-07-04T15:48:15Z</time>
      </trkpt>
      <trkpt lat="42.562042" lon="-1.1669534">
        <time>2022-07-04T15:48:18Z</time>
      </trkpt>
      <trkpt lat="42.561985" lon="-1.16691">
        <time>2022-07-04T15:48:21Z</time>
      </trkpt>
      <trkpt lat="42.56193" lon="-1.1668748">
        <time>2022-07-04T15:48:24Z</time>
      </trkpt>
      <trkpt lat="42.561874" lon="-1.1668458">
        <time>2022-07-04T15:48:27Z</time>
      </trkpt>
      <trkpt lat="42.561817" lon="-1.1668174">
        <time>2022-07-04T15:48:30Z</time>
      </trkpt>
      <trkpt lat="42.56176" lon="-1.1667851">
        <time>2022-07-04T15:48:33Z</time>
      </trkpt>
      <trkpt lat="42.561707" lon="-1.1667445">
        <time>2022-07-04T15:48:36Z</time>
      </trkpt>
      <trkpt lat="42.561646" lon="-1.1666981">
        <time>2022-07-04T15:48:39Z</time>
      </trkpt>
      <trkpt lat="42.56159" lon="-1.1666511">
        <time>2022-07-04T15:48:42Z</time>
      </trkpt>
      <trkpt lat="42.561535" lon="-1.1666042">
        <time>2022-07-04T15:48:45Z</time>
      </trkpt>
      <trkpt lat="42.561478" lon="-1.1665558">
        <time>2022-07-04T15:48:48Z</time>
      </trkpt>
      <trkpt lat="42.561424" lon="-1.1665184">
        <time>2022-07-04T15:48:51Z</time>
      </trkpt>
      <trkpt lat="42.561363" lon="-1.1664928">
        <time>2022-07-04T15:48:54Z</time>
      </trkpt>
      <trkpt lat="42.56131" lon="-1.1664685">
        <time>2022-07-04T15:48:57Z</time>
      </trkpt>
      <trkpt lat="42.561256" lon="-1.1664498">
        <time>2022-07-04T15:49:00Z</time>
      </trkpt>
      <trkpt lat="42.561203" lon="-1.1664377">
        <time>2022-07-04T15:49:03Z</time>
      </trkpt>
      <trkpt lat="42.56115" lon="-1.1664262">
        <time>2022-07-04T15:49:06Z</time>
      </trkpt>
      <trkpt lat="42.5611" lon="-1.1664151">
        <time>2022-07-04T15:49:09Z</time>
      </trkpt>
      <trkpt lat="42.561043" lon="-1.1664011">
        <time>2022-07-04T15:49:13Z</time>
      </trkpt>
      <trkpt lat="42.56097" lon="-1.1664015">
        <time>2022-07-04T15:49:18Z</time>
      </trkpt>
      <trkpt lat="42.560917" lon="-1.1664128">
        <time>2022-07-04T15:49:22Z</time>
      </trkpt>
      <trkpt lat="42.56086" lon="-1.1664214">
        <time>2022-07-04T15:49:26Z</time>
      </trkpt>
      <trkpt lat="42.5608" lon="-1.1664344">
        <time>2022-07-04T15:49:30Z</time>
      </trkpt>
      <trkpt lat="42.560745" lon="-1.1664428">
        <time>2022-07-04T15:49:34Z</time>
      </trkpt>
      <trkpt lat="42.56069" lon="-1.1664505">
        <time>2022-07-04T15:49:38Z</time>
      </trkpt>
      <trkpt lat="42.560635" lon="-1.1664621">
        <time>2022-07-04T15:49:42Z</time>
      </trkpt>
      <trkpt lat="42.560577" lon="-1.1664801">
        <time>2022-07-04T15:49:46Z</time>
      </trkpt>
      <trkpt lat="42.560516" lon="-1.1665012">
        <time>2022-07-04T15:49:50Z</time>
      </trkpt>
      <trkpt lat="42.560467" lon="-1.1665238">
        <time>2022-07-04T15:49:53Z</time>
      </trkpt>
      <trkpt lat="42.56041" lon="-1.1665548">
        <time>2022-07-04T15:49:56Z</time>
      </trkpt>
      <trkpt lat="42.560352" lon="-1.1665918">
        <time>2022-07-04T15:49:59Z</time>
      </trkpt>
      <trkpt lat="42.560287" lon="-1.1666437">
        <time>2022-07-04T15:50:02Z</time>
      </trkpt>
      <trkpt lat="42.560246" lon="-1.1667118">
        <time>2022-07-04T15:50:04Z</time>
      </trkpt>
      <trkpt lat="42.560207" lon="-1.1668044">
        <time>2022-07-04T15:50:06Z</time>
      </trkpt>
      <trkpt lat="42.56016" lon="-1.1669178">
        <time>2022-07-04T15:50:08Z</time>
      </trkpt>
      <trkpt lat="42.560116" lon="-1.1670355">
        <time>2022-07-04T15:50:10Z</time>
      </trkpt>
      <trkpt lat="42.560093" lon="-1.1670934">
        <time>2022-07-04T15:50:11Z</time>
      </trkpt>
      <trkpt lat="42.56005" lon="-1.1672055">
        <time>2022-07-04T15:50:13Z</time>
      </trkpt>
      <trkpt lat="42.56001" lon="-1.1672971">
        <time>2022-07-04T15:50:15Z</time>
      </trkpt>
      <trkpt lat="42.559956" lon="-1.1673667">
        <time>2022-07-04T15:50:17Z</time>
      </trkpt>
      <trkpt lat="42.5599" lon="-1.1673974">
        <time>2022-07-04T15:50:19Z</time>
      </trkpt>
      <trkpt lat="42.559845" lon="-1.1673931">
        <time>2022-07-04T15:50:21Z</time>
      </trkpt>
      <trkpt lat="42.5598" lon="-1.1673675">
        <time>2022-07-04T15:50:23Z</time>
      </trkpt>
      <trkpt lat="42.559757" lon="-1.167335">
        <time>2022-07-04T15:50:25Z</time>
      </trkpt>
      <trkpt lat="42.559708" lon="-1.1672814">
        <time>2022-07-04T15:50:28Z</time>
      </trkpt>
      <trkpt lat="42.559658" lon="-1.1672311">
        <time>2022-07-04T15:50:31Z</time>
      </trkpt>
      <trkpt lat="42.55961" lon="-1.1671888">
        <time>2022-07-04T15:50:34Z</time>
      </trkpt>
      <trkpt lat="42.55956" lon="-1.1671515">
        <time>2022-07-04T15:50:37Z</time>
      </trkpt>
      <trkpt lat="42.559505" lon="-1.1671144">
        <time>2022-07-04T15:50:40Z</time>
      </trkpt>
      <trkpt lat="42.559456" lon="-1.1670804">
        <time>2022-07-04T15:50:43Z</time>
      </trkpt>
      <trkpt lat="42.559406" lon="-1.1670511">
        <time>2022-07-04T15:50:46Z</time>
      </trkpt>
      <trkpt lat="42.559357" lon="-1.1670228">
        <time>2022-07-04T15:50:49Z</time>
      </trkpt>
      <trkpt lat="42.5593" lon="-1.1669948">
        <time>2022-07-04T15:50:52Z</time>
      </trkpt>
      <trkpt lat="42.55925" lon="-1.1669685">
        <time>2022-07-04T15:50:55Z</time>
      </trkpt>
      <trkpt lat="42.559196" lon="-1.1669434">
        <time>2022-07-04T15:50:58Z</time>
      </trkpt>
      <trkpt lat="42.559143" lon="-1.1669174">
        <time>2022-07-04T15:51:01Z</time>
      </trkpt>
      <trkpt lat="42.559093" lon="-1.1668941">
        <time>2022-07-04T15:51:04Z</time>
      </trkpt>
      <trkpt lat="42.559036" lon="-1.166874">
        <time>2022-07-04T15:51:07Z</time>
      </trkpt>
      <trkpt lat="42.558983" lon="-1.1668584">
        <time>2022-07-04T15:51:10Z</time>
      </trkpt>
      <trkpt lat="42.558937" lon="-1.1668454">
        <time>2022-07-04T15:51:13Z</time>
      </trkpt>
      <trkpt lat="42.558872" lon="-1.1668268">
        <time>2022-07-04T15:51:17Z</time>
      </trkpt>
      <trkpt lat="42.55881" lon="-1.1668041">
        <time>2022-07-04T15:51:21Z</time>
      </trkpt>
      <trkpt lat="42.558746" lon="-1.1667911">
        <time>2022-07-04T15:51:25Z</time>
      </trkpt>
      <trkpt lat="42.558685" lon="-1.1667829">
        <time>2022-07-04T15:51:29Z</time>
      </trkpt>
      <trkpt lat="42.558613" lon="-1.1667725">
        <time>2022-07-04T15:51:34Z</time>
      </trkpt>
      <trkpt lat="42.558556" lon="-1.1667734">
        <time>2022-07-04T15:51:38Z</time>
      </trkpt>
      <trkpt lat="42.5585" lon="-1.1667658">
        <time>2022-07-04T15:51:42Z</time>
      </trkpt>
      <trkpt lat="42.55844" lon="-1.1667538">
        <time>2022-07-04T15:51:46Z</time>
      </trkpt>
      <trkpt lat="42.558388" lon="-1.1667482">
        <time>2022-07-04T15:51:50Z</time>
      </trkpt>
      <trkpt lat="42.558334" lon="-1.1667439">
        <time>2022-07-04T15:51:54Z</time>
      </trkpt>
      <trkpt lat="42.55827" lon="-1.1667411">
        <time>2022-07-04T15:51:59Z</time>
      </trkpt>
      <trkpt lat="42.558212" lon="-1.1667378">
        <time>2022-07-04T15:52:03Z</time>
      </trkpt>
      <trkpt lat="42.55816" lon="-1.1667278">
        <time>2022-07-04T15:52:07Z</time>
      </trkpt>
      <trkpt lat="42.558105" lon="-1.1667272">
        <time>2022-07-04T15:52:11Z</time>
      </trkpt>
      <trkpt lat="42.558052" lon="-1.1667109">
        <time>2022-07-04T15:52:15Z</time>
      </trkpt>
      <trkpt lat="42.558" lon="-1.1666888">
        <time>2022-07-04T15:52:19Z</time>
      </trkpt>
      <trkpt lat="42.557938" lon="-1.1666745">
        <time>2022-07-04T15:52:23Z</time>
      </trkpt>
      <trkpt lat="42.557877" lon="-1.1666652">
        <time>2022-07-04T15:52:27Z</time>
      </trkpt>
      <trkpt lat="42.557808" lon="-1.1666619">
        <time>2022-07-04T15:52:32Z</time>
      </trkpt>
      <trkpt lat="42.557755" lon="-1.1666472">
        <time>2022-07-04T15:52:36Z</time>
      </trkpt>
      <trkpt lat="42.557697" lon="-1.1666296">
        <time>2022-07-04T15:52:40Z</time>
      </trkpt>
      <trkpt lat="42.55764" lon="-1.1666062">
        <time>2022-07-04T15:52:44Z</time>
      </trkpt>
      <trkpt lat="42.557587" lon="-1.1665865">
        <time>2022-07-04T15:52:48Z</time>
      </trkpt>
      <trkpt lat="42.557533" lon="-1.1665639">
        <time>2022-07-04T15:52:52Z</time>
      </trkpt>
      <trkpt lat="42.55748" lon="-1.1665372">
        <time>2022-07-04T15:52:56Z</time>
      </trkpt>
      <trkpt lat="42.55743" lon="-1.1665035">
        <time>2022-07-04T15:53:00Z</time>
      </trkpt>
      <trkpt lat="42.557377" lon="-1.1664705">
        <time>2022-07-04T15:53:04Z</time>
      </trkpt>
      <trkpt lat="42.557327" lon="-1.1664389">
        <time>2022-07-04T15:53:08Z</time>
      </trkpt>
      <trkpt lat="42.557278" lon="-1.1664016">
        <time>2022-07-04T15:53:12Z</time>
      </trkpt>
      <trkpt lat="42.557224" lon="-1.1663649">
        <time>2022-07-04T15:53:16Z</time>
      </trkpt>
      <trkpt lat="42.557175" lon="-1.1663185">
        <time>2022-07-04T15:53:20Z</time>
      </trkpt>
      <trkpt lat="42.557133" lon="-1.1662706">
        <time>2022-07-04T15:53:24Z</time>
      </trkpt>
      <trkpt lat="42.557083" lon="-1.1662302">
        <time>2022-07-04T15:53:28Z</time>
      </trkpt>
      <trkpt lat="42.557037" lon="-1.1661869">
        <time>2022-07-04T15:53:32Z</time>
      </trkpt>
      <trkpt lat="42.55699" lon="-1.1661379">
        <time>2022-07-04T15:53:36Z</time>
      </trkpt>
      <trkpt lat="42.556946" lon="-1.166083">
        <time>2022-07-04T15:53:40Z</time>
      </trkpt>
      <trkpt lat="42.556904" lon="-1.1660273">
        <time>2022-07-04T15:53:44Z</time>
      </trkpt>
      <trkpt lat="42.55686" lon="-1.1659709">
        <time>2022-07-04T15:53:48Z</time>
      </trkpt>
      <trkpt lat="42.55682" lon="-1.1659156">
        <time>2022-07-04T15:53:52Z</time>
      </trkpt>
      <trkpt lat="42.55677" lon="-1.1658607">
        <time>2022-07-04T15:53:56Z</time>
      </trkpt>
      <trkpt lat="42.55673" lon="-1.1658072">
        <time>2022-07-04T15:54:00Z</time>
      </trkpt>
      <trkpt lat="42.556683" lon="-1.1657579">
        <time>2022-07-04T15:54:04Z</time>
      </trkpt>
      <trkpt lat="42.556633" lon="-1.1657126">
        <time>2022-07-04T15:54:08Z</time>
      </trkpt>
      <trkpt lat="42.556595" lon="-1.1656556">
        <time>2022-07-04T15:54:12Z</time>
      </trkpt>
      <trkpt lat="42.55655" lon="-1.165599">
        <time>2022-07-04T15:54:16Z</time>
      </trkpt>
      <trkpt lat="42.5565" lon="-1.1655502">
        <time>2022-07-04T15:54:20Z</time>
      </trkpt>
      <trkpt lat="42.556458" lon="-1.1655012">
        <time>2022-07-04T15:54:24Z</time>
      </trkpt>
      <trkpt lat="42.556423" lon="-1.1654453">
        <time>2022-07-04T15:54:28Z</time>
      </trkpt>
      <trkpt lat="42.556385" lon="-1.1653852">
        <time>2022-07-04T15:54:32Z</time>
      </trkpt>
      <trkpt lat="42.556347" lon="-1.165324">
        <time>2022-07-04T15:54:36Z</time>
      </trkpt>
      <trkpt lat="42.55631" lon="-1.1652713">
        <time>2022-07-04T15:54:40Z</time>
      </trkpt>
      <trkpt lat="42.556274" lon="-1.1652093">
        <time>2022-07-04T15:54:44Z</time>
      </trkpt>
      <trkpt lat="42.556236" lon="-1.1651447">
        <time>2022-07-04T15:54:48Z</time>
      </trkpt>
      <trkpt lat="42.556194" lon="-1.1650863">
        <time>2022-07-04T15:54:52Z</time>
      </trkpt>
      <trkpt lat="42.556156" lon="-1.165026">
        <time>2022-07-04T15:54:56Z</time>
      </trkpt>
      <trkpt lat="42.556118" lon="-1.1649647">
        <time>2022-07-04T15:55:00Z</time>
      </trkpt>
      <trkpt lat="42.556084" lon="-1.1649023">
        <time>2022-07-04T15:55:04Z</time>
      </trkpt>
      <trkpt lat="42.556046" lon="-1.1648393">
        <time>2022-07-04T15:55:08Z</time>
      </trkpt>
      <trkpt lat="42.556007" lon="-1.1647756">
        <time>2022-07-04T15:55:12Z</time>
      </trkpt>
      <trkpt lat="42.555965" lon="-1.164719">
        <time>2022-07-04T15:55:16Z</time>
      </trkpt>
      <trkpt lat="42.555923" lon="-1.164659">
        <time>2022-07-04T15:55:20Z</time>
      </trkpt>
      <trkpt lat="42.555893" lon="-1.1645904">
        <time>2022-07-04T15:55:24Z</time>
      </trkpt>
      <trkpt lat="42.555862" lon="-1.1645223">
        <time>2022-07-04T15:55:28Z</time>
      </trkpt>
      <trkpt lat="42.555832" lon="-1.1644607">
        <time>2022-07-04T15:55:32Z</time>
      </trkpt>
      <trkpt lat="42.555794" lon="-1.1643994">
        <time>2022-07-04T15:55:36Z</time>
      </trkpt>
      <trkpt lat="42.55576" lon="-1.1643327">
        <time>2022-07-04T15:55:40Z</time>
      </trkpt>
      <trkpt lat="42.555733" lon="-1.1642634">
        <time>2022-07-04T15:55:44Z</time>
      </trkpt>
      <trkpt lat="42.5557" lon="-1.1641988">
        <time>2022-07-04T15:55:48Z</time>
      </trkpt>
      <trkpt lat="42.55567" lon="-1.164131">
        <time>2022-07-04T15:55:52Z</time>
      </trkpt>
      <trkpt lat="42.55565" lon="-1.1640581">
        <time>2022-07-04T15:55:56Z</time>
      </trkpt>
      <trkpt lat="42.555622" lon="-1.1639897">
        <time>2022-07-04T15:56:00Z</time>
      </trkpt>
      <trkpt lat="42.5556" lon="-1.1639224">
        <time>2022-07-04T15:56:04Z</time>
      </trkpt>
      <trkpt lat="42.555573" lon="-1.1638504">
        <time>2022-07-04T15:56:08Z</time>
      </trkpt>
      <trkpt lat="42.555546" lon="-1.1637777">
        <time>2022-07-04T15:56:12Z</time>
      </trkpt>
      <trkpt lat="42.55553" lon="-1.1636987">
        <time>2022-07-04T15:56:16Z</time>
      </trkpt>
      <trkpt lat="42.555508" lon="-1.16363">
        <time>2022-07-04T15:56:20Z</time>
      </trkpt>
      <trkpt lat="42.555492" lon="-1.1635544">
        <time>2022-07-04T15:56:24Z</time>
      </trkpt>
      <trkpt lat="42.55548" lon="-1.1634778">
        <time>2022-07-04T15:56:28Z</time>
      </trkpt>
      <trkpt lat="42.55547" lon="-1.1634028">
        <time>2022-07-04T15:56:32Z</time>
      </trkpt>
      <trkpt lat="42.555454" lon="-1.163328">
        <time>2022-07-04T15:56:36Z</time>
      </trkpt>
      <trkpt lat="42.555443" lon="-1.1632508">
        <time>2022-07-04T15:56:40Z</time>
      </trkpt>
      <trkpt lat="42.555428" lon="-1.1631608">
        <time>2022-07-04T15:56:45Z</time>
      </trkpt>
      <trkpt lat="42.55542" lon="-1.1630831">
        <time>2022-07-04T15:56:49Z</time>
      </trkpt>
      <trkpt lat="42.555412" lon="-1.1630031">
        <time>2022-07-04T15:56:53Z</time>
      </trkpt>
      <trkpt lat="42.55541" lon="-1.1629214">
        <time>2022-07-04T15:56:57Z</time>
      </trkpt>
      <trkpt lat="42.5554" lon="-1.1628411">
        <time>2022-07-04T15:57:01Z</time>
      </trkpt>
      <trkpt lat="42.555397" lon="-1.1627607">
        <time>2022-07-04T15:57:05Z</time>
      </trkpt>
      <trkpt lat="42.555393" lon="-1.1626831">
        <time>2022-07-04T15:57:09Z</time>
      </trkpt>
      <trkpt lat="42.55539" lon="-1.1626011">
        <time>2022-07-04T15:57:13Z</time>
      </trkpt>
      <trkpt lat="42.55539" lon="-1.1625204">
        <time>2022-07-04T15:57:17Z</time>
      </trkpt>
      <trkpt lat="42.55538" lon="-1.1624384">
        <time>2022-07-04T15:57:21Z</time>
      </trkpt>
      <trkpt lat="42.555374" lon="-1.1623582">
        <time>2022-07-04T15:57:25Z</time>
      </trkpt>
      <trkpt lat="42.55537" lon="-1.1622971">
        <time>2022-07-04T15:57:28Z</time>
      </trkpt>
      <trkpt lat="42.555363" lon="-1.1622198">
        <time>2022-07-04T15:57:32Z</time>
      </trkpt>
      <trkpt lat="42.555355" lon="-1.1621435">
        <time>2022-07-04T15:57:36Z</time>
      </trkpt>
      <trkpt lat="42.555344" lon="-1.1620628">
        <time>2022-07-04T15:57:40Z</time>
      </trkpt>
      <trkpt lat="42.55533" lon="-1.1619824">
        <time>2022-07-04T15:57:44Z</time>
      </trkpt>
      <trkpt lat="42.555317" lon="-1.1618772">
        <time>2022-07-04T15:57:49Z</time>
      </trkpt>
      <trkpt lat="42.5553" lon="-1.1618165">
        <time>2022-07-04T15:57:52Z</time>
      </trkpt>
      <trkpt lat="42.55528" lon="-1.1617341">
        <time>2022-07-04T15:57:56Z</time>
      </trkpt>
      <trkpt lat="42.55526" lon="-1.1616524">
        <time>2022-07-04T15:58:00Z</time>
      </trkpt>
      <trkpt lat="42.55524" lon="-1.1615715">
        <time>2022-07-04T15:58:04Z</time>
      </trkpt>
      <trkpt lat="42.555218" lon="-1.1614949">
        <time>2022-07-04T15:58:08Z</time>
      </trkpt>
      <trkpt lat="42.5552" lon="-1.1614171">
        <time>2022-07-04T15:58:12Z</time>
      </trkpt>
      <trkpt lat="42.555172" lon="-1.1613432">
        <time>2022-07-04T15:58:16Z</time>
      </trkpt>
      <trkpt lat="42.55515" lon="-1.1612731">
        <time>2022-07-04T15:58:20Z</time>
      </trkpt>
      <trkpt lat="42.555122" lon="-1.1611968">
        <time>2022-07-04T15:58:24Z</time>
      </trkpt>
      <trkpt lat="42.5551" lon="-1.1611255">
        <time>2022-07-04T15:58:28Z</time>
      </trkpt>
      <trkpt lat="42.55507" lon="-1.1610548">
        <time>2022-07-04T15:58:32Z</time>
      </trkpt>
      <trkpt lat="42.555042" lon="-1.1609842">
        <time>2022-07-04T15:58:36Z</time>
      </trkpt>
      <trkpt lat="42.555008" lon="-1.1609168">
        <time>2022-07-04T15:58:40Z</time>
      </trkpt>
      <trkpt lat="42.55498" lon="-1.1608676">
        <time>2022-07-04T15:58:43Z</time>
      </trkpt>
      <trkpt lat="42.554947" lon="-1.1608022">
        <time>2022-07-04T15:58:47Z</time>
      </trkpt>
      <trkpt lat="42.554916" lon="-1.1607388">
        <time>2022-07-04T15:58:51Z</time>
      </trkpt>
      <trkpt lat="42.55488" lon="-1.1606746">
        <time>2022-07-04T15:58:55Z</time>
      </trkpt>
      <trkpt lat="42.55484" lon="-1.1606102">
        <time>2022-07-04T15:58:59Z</time>
      </trkpt>
      <trkpt lat="42.554802" lon="-1.1605492">
        <time>2022-07-04T15:59:03Z</time>
      </trkpt>
      <trkpt lat="42.55476" lon="-1.1604933">
        <time>2022-07-04T15:59:07Z</time>
      </trkpt>
      <trkpt lat="42.554718" lon="-1.1604376">
        <time>2022-07-04T15:59:11Z</time>
      </trkpt>
      <trkpt lat="42.554676" lon="-1.1603808">
        <time>2022-07-04T15:59:15Z</time>
      </trkpt>
      <trkpt lat="42.554634" lon="-1.1603262">
        <time>2022-07-04T15:59:19Z</time>
      </trkpt>
      <trkpt lat="42.554592" lon="-1.1602699">
        <time>2022-07-04T15:59:23Z</time>
      </trkpt>
      <trkpt lat="42.554543" lon="-1.1602196">
        <time>2022-07-04T15:59:27Z</time>
      </trkpt>
      <trkpt lat="42.5545" lon="-1.1601706">
        <time>2022-07-04T15:59:31Z</time>
      </trkpt>
      <trkpt lat="42.55446" lon="-1.1601199">
        <time>2022-07-04T15:59:35Z</time>
      </trkpt>
      <trkpt lat="42.554417" lon="-1.1600713">
        <time>2022-07-04T15:59:39Z</time>
      </trkpt>
      <trkpt lat="42.554356" lon="-1.1600215">
        <time>2022-07-04T15:59:44Z</time>
      </trkpt>
      <trkpt lat="42.55431" lon="-1.1599729">
        <time>2022-07-04T15:59:48Z</time>
      </trkpt>
      <trkpt lat="42.554268" lon="-1.15992">
        <time>2022-07-04T15:59:52Z</time>
      </trkpt>
      <trkpt lat="42.554222" lon="-1.159869">
        <time>2022-07-04T15:59:56Z</time>
      </trkpt>
      <trkpt lat="42.554173" lon="-1.1598259">
        <time>2022-07-04T16:00:00Z</time>
      </trkpt>
      <trkpt lat="42.554127" lon="-1.159784">
        <time>2022-07-04T16:00:04Z</time>
      </trkpt>
      <trkpt lat="42.55408" lon="-1.159738">
        <time>2022-07-04T16:00:08Z</time>
      </trkpt>
      <trkpt lat="42.554035" lon="-1.1596853">
        <time>2022-07-04T16:00:12Z</time>
      </trkpt>
      <trkpt lat="42.55399" lon="-1.1596307">
        <time>2022-07-04T16:00:16Z</time>
      </trkpt>
      <trkpt lat="42.55395" lon="-1.1595769">
        <time>2022-07-04T16:00:20Z</time>
      </trkpt>
      <trkpt lat="42.553905" lon="-1.1595303">
        <time>2022-07-04T16:00:24Z</time>
      </trkpt>
      <trkpt lat="42.553864" lon="-1.1594766">
        <time>2022-07-04T16:00:28Z</time>
      </trkpt>
      <trkpt lat="42.553814" lon="-1.1594197">
        <time>2022-07-04T16:00:32Z</time>
      </trkpt>
      <trkpt lat="42.553776" lon="-1.1593603">
        <time>2022-07-04T16:00:36Z</time>
      </trkpt>
      <trkpt lat="42.553734" lon="-1.1593037">
        <time>2022-07-04T16:00:40Z</time>
      </trkpt>
      <trkpt lat="42.55369" lon="-1.1592536">
        <time>2022-07-04T16:00:44Z</time>
      </trkpt>
      <trkpt lat="42.55365" lon="-1.1591977">
        <time>2022-07-04T16:00:48Z</time>
      </trkpt>
      <trkpt lat="42.553608" lon="-1.159132">
        <time>2022-07-04T16:00:52Z</time>
      </trkpt>
      <trkpt lat="42.553566" lon="-1.15908">
        <time>2022-07-04T16:00:56Z</time>
      </trkpt>
      <trkpt lat="42.553528" lon="-1.1590223">
        <time>2022-07-04T16:01:00Z</time>
      </trkpt>
      <trkpt lat="42.55349" lon="-1.158963">
        <time>2022-07-04T16:01:04Z</time>
      </trkpt>
      <trkpt lat="42.55345" lon="-1.1589034">
        <time>2022-07-04T16:01:08Z</time>
      </trkpt>
      <trkpt lat="42.55342" lon="-1.1588383">
        <time>2022-07-04T16:01:12Z</time>
      </trkpt>
      <trkpt lat="42.55339" lon="-1.1587683">
        <time>2022-07-04T16:01:16Z</time>
      </trkpt>
      <trkpt lat="42.55336" lon="-1.1587013">
        <time>2022-07-04T16:01:20Z</time>
      </trkpt>
      <trkpt lat="42.553318" lon="-1.1586373">
        <time>2022-07-04T16:01:24Z</time>
      </trkpt>
      <trkpt lat="42.553276" lon="-1.1585677">
        <time>2022-07-04T16:01:28Z</time>
      </trkpt>
      <trkpt lat="42.553246" lon="-1.1584944">
        <time>2022-07-04T16:01:32Z</time>
      </trkpt>
      <trkpt lat="42.55321" lon="-1.1584214">
        <time>2022-07-04T16:01:36Z</time>
      </trkpt>
      <trkpt lat="42.553173" lon="-1.1583507">
        <time>2022-07-04T16:01:40Z</time>
      </trkpt>
      <trkpt lat="42.553143" lon="-1.158277">
        <time>2022-07-04T16:01:44Z</time>
      </trkpt>
      <trkpt lat="42.55312" lon="-1.1581967">
        <time>2022-07-04T16:01:48Z</time>
      </trkpt>
      <trkpt lat="42.553093" lon="-1.1581401">
        <time>2022-07-04T16:01:51Z</time>
      </trkpt>
      <trkpt lat="42.55306" lon="-1.1580627">
        <time>2022-07-04T16:01:55Z</time>
      </trkpt>
      <trkpt lat="42.553032" lon="-1.1580031">
        <time>2022-07-04T16:01:58Z</time>
      </trkpt>
      <trkpt lat="42.553" lon="-1.1579227">
        <time>2022-07-04T16:02:02Z</time>
      </trkpt>
      <trkpt lat="42.552982" lon="-1.1578574">
        <time>2022-07-04T16:02:05Z</time>
      </trkpt>
      <trkpt lat="42.552967" lon="-1.1577697">
        <time>2022-07-04T16:02:09Z</time>
      </trkpt>
      <trkpt lat="42.55295" lon="-1.1577001">
        <time>2022-07-04T16:02:12Z</time>
      </trkpt>
      <trkpt lat="42.552933" lon="-1.1576377">
        <time>2022-07-04T16:02:15Z</time>
      </trkpt>
      <trkpt lat="42.55291" lon="-1.1575488">
        <time>2022-07-04T16:02:19Z</time>
      </trkpt>
      <trkpt lat="42.5529" lon="-1.1574801">
        <time>2022-07-04T16:02:22Z</time>
      </trkpt>
      <trkpt lat="42.55288" lon="-1.1574134">
        <time>2022-07-04T16:02:25Z</time>
      </trkpt>
      <trkpt lat="42.552856" lon="-1.1573521">
        <time>2022-07-04T16:02:28Z</time>
      </trkpt>
      <trkpt lat="42.552837" lon="-1.1572658">
        <time>2022-07-04T16:02:32Z</time>
      </trkpt>
      <trkpt lat="42.55283" lon="-1.1571984">
        <time>2022-07-04T16:02:35Z</time>
      </trkpt>
      <trkpt lat="42.55282" lon="-1.1571108">
        <time>2022-07-04T16:02:39Z</time>
      </trkpt>
      <trkpt lat="42.552795" lon="-1.1570284">
        <time>2022-07-04T16:02:43Z</time>
      </trkpt>
      <trkpt lat="42.552776" lon="-1.156972">
        <time>2022-07-04T16:02:46Z</time>
      </trkpt>
      <trkpt lat="42.552753" lon="-1.1569295">
        <time>2022-07-04T16:05:31Z</time>
      </trkpt>
      <trkpt lat="42.552746" lon="-1.1568462">
        <time>2022-07-04T16:05:34Z</time>
      </trkpt>
      <trkpt lat="42.552734" lon="-1.1567525">
        <time>2022-07-04T16:05:37Z</time>
      </trkpt>
      <trkpt lat="42.552723" lon="-1.1566738">
        <time>2022-07-04T16:05:40Z</time>
      </trkpt>
      <trkpt lat="42.55271" lon="-1.1566021">
        <time>2022-07-04T16:05:43Z</time>
      </trkpt>
      <trkpt lat="42.552692" lon="-1.1565372">
        <time>2022-07-04T16:05:46Z</time>
      </trkpt>
      <trkpt lat="42.55268" lon="-1.1564498">
        <time>2022-07-04T16:05:50Z</time>
      </trkpt>
      <trkpt lat="42.552673" lon="-1.1563795">
        <time>2022-07-04T16:05:53Z</time>
      </trkpt>
      <trkpt lat="42.552666" lon="-1.1563118">
        <time>2022-07-04T16:05:56Z</time>
      </trkpt>
      <trkpt lat="42.55265" lon="-1.1562252">
        <time>2022-07-04T16:06:00Z</time>
      </trkpt>
      <trkpt lat="42.55263" lon="-1.1561408">
        <time>2022-07-04T16:06:04Z</time>
      </trkpt>
      <trkpt lat="42.55261" lon="-1.1560595">
        <time>2022-07-04T16:06:08Z</time>
      </trkpt>
      <trkpt lat="42.552593" lon="-1.1559945">
        <time>2022-07-04T16:06:11Z</time>
      </trkpt>
      <trkpt lat="42.552574" lon="-1.1559064">
        <time>2022-07-04T16:06:15Z</time>
      </trkpt>
      <trkpt lat="42.55256" lon="-1.1558431">
        <time>2022-07-04T16:06:18Z</time>
      </trkpt>
      <trkpt lat="42.55254" lon="-1.1557575">
        <time>2022-07-04T16:06:22Z</time>
      </trkpt>
      <trkpt lat="42.552517" lon="-1.1556731">
        <time>2022-07-04T16:06:26Z</time>
      </trkpt>
      <trkpt lat="42.5525" lon="-1.1556108">
        <time>2022-07-04T16:06:29Z</time>
      </trkpt>
      <trkpt lat="42.55248" lon="-1.1555468">
        <time>2022-07-04T16:06:32Z</time>
      </trkpt>
      <trkpt lat="42.552452" lon="-1.1554615">
        <time>2022-07-04T16:06:36Z</time>
      </trkpt>
      <trkpt lat="42.552425" lon="-1.1553795">
        <time>2022-07-04T16:06:40Z</time>
      </trkpt>
      <trkpt lat="42.552406" lon="-1.1553192">
        <time>2022-07-04T16:06:43Z</time>
      </trkpt>
      <trkpt lat="42.552387" lon="-1.1552552">
        <time>2022-07-04T16:06:46Z</time>
      </trkpt>
      <trkpt lat="42.552357" lon="-1.1551715">
        <time>2022-07-04T16:06:50Z</time>
      </trkpt>
      <trkpt lat="42.55233" lon="-1.1551086">
        <time>2022-07-04T16:06:53Z</time>
      </trkpt>
      <trkpt lat="42.552307" lon="-1.1550472">
        <time>2022-07-04T16:06:56Z</time>
      </trkpt>
      <trkpt lat="42.55228" lon="-1.1549646">
        <time>2022-07-04T16:07:00Z</time>
      </trkpt>
      <trkpt lat="42.552258" lon="-1.1549042">
        <time>2022-07-04T16:07:03Z</time>
      </trkpt>
      <trkpt lat="42.552223" lon="-1.1548252">
        <time>2022-07-04T16:07:07Z</time>
      </trkpt>
      <trkpt lat="42.5522" lon="-1.1547692">
        <time>2022-07-04T16:07:10Z</time>
      </trkpt>
      <trkpt lat="42.55217" lon="-1.1546922">
        <time>2022-07-04T16:07:14Z</time>
      </trkpt>
      <trkpt lat="42.55214" lon="-1.1546125">
        <time>2022-07-04T16:07:18Z</time>
      </trkpt>
      <trkpt lat="42.552116" lon="-1.1545496">
        <time>2022-07-04T16:07:21Z</time>
      </trkpt>
      <trkpt lat="42.552082" lon="-1.1544659">
        <time>2022-07-04T16:07:25Z</time>
      </trkpt>
      <trkpt lat="42.552055" lon="-1.1544032">
        <time>2022-07-04T16:07:28Z</time>
      </trkpt>
      <trkpt lat="42.552032" lon="-1.1543409">
        <time>2022-07-04T16:07:31Z</time>
      </trkpt>
      <trkpt lat="42.55201" lon="-1.1542766">
        <time>2022-07-04T16:07:34Z</time>
      </trkpt>
      <trkpt lat="42.551987" lon="-1.1542082">
        <time>2022-07-04T16:07:37Z</time>
      </trkpt>
      <trkpt lat="42.551964" lon="-1.1541429">
        <time>2022-07-04T16:07:40Z</time>
      </trkpt>
      <trkpt lat="42.55194" lon="-1.1540775">
        <time>2022-07-04T16:07:43Z</time>
      </trkpt>
      <trkpt lat="42.55192" lon="-1.154012">
        <time>2022-07-04T16:07:46Z</time>
      </trkpt>
      <trkpt lat="42.551907" lon="-1.1539456">
        <time>2022-07-04T16:07:49Z</time>
      </trkpt>
      <trkpt lat="42.55188" lon="-1.1538593">
        <time>2022-07-04T16:07:53Z</time>
      </trkpt>
      <trkpt lat="42.551857" lon="-1.1537989">
        <time>2022-07-04T16:07:56Z</time>
      </trkpt>
      <trkpt lat="42.551834" lon="-1.1537129">
        <time>2022-07-04T16:08:00Z</time>
      </trkpt>
      <trkpt lat="42.55181" lon="-1.1536525">
        <time>2022-07-04T16:08:03Z</time>
      </trkpt>
      <trkpt lat="42.551796" lon="-1.1535809">
        <time>2022-07-04T16:08:07Z</time>
      </trkpt>
      <trkpt lat="42.55179" lon="-1.1535076">
        <time>2022-07-04T16:08:11Z</time>
      </trkpt>
      <trkpt lat="42.551773" lon="-1.1534333">
        <time>2022-07-04T16:08:15Z</time>
      </trkpt>
      <trkpt lat="42.551758" lon="-1.1533576">
        <time>2022-07-04T16:08:19Z</time>
      </trkpt>
      <trkpt lat="42.55174" lon="-1.1532813">
        <time>2022-07-04T16:08:23Z</time>
      </trkpt>
      <trkpt lat="42.551727" lon="-1.1532012">
        <time>2022-07-04T16:08:27Z</time>
      </trkpt>
      <trkpt lat="42.551712" lon="-1.1531249">
        <time>2022-07-04T16:08:31Z</time>
      </trkpt>
      <trkpt lat="42.551697" lon="-1.1530449">
        <time>2022-07-04T16:08:35Z</time>
      </trkpt>
      <trkpt lat="42.55169" lon="-1.1529613">
        <time>2022-07-04T16:08:39Z</time>
      </trkpt>
      <trkpt lat="42.551678" lon="-1.1528833">
        <time>2022-07-04T16:08:43Z</time>
      </trkpt>
      <trkpt lat="42.55166" lon="-1.1528003">
        <time>2022-07-04T16:08:47Z</time>
      </trkpt>
      <trkpt lat="42.55165" lon="-1.1527209">
        <time>2022-07-04T16:08:51Z</time>
      </trkpt>
      <trkpt lat="42.551643" lon="-1.15266">
        <time>2022-07-04T16:08:54Z</time>
      </trkpt>
      <trkpt lat="42.55164" lon="-1.152586">
        <time>2022-07-04T16:08:58Z</time>
      </trkpt>
      <trkpt lat="42.551624" lon="-1.1525116">
        <time>2022-07-04T16:09:02Z</time>
      </trkpt>
      <trkpt lat="42.55161" lon="-1.1524316">
        <time>2022-07-04T16:09:06Z</time>
      </trkpt>
      <trkpt lat="42.551605" lon="-1.1523516">
        <time>2022-07-04T16:09:10Z</time>
      </trkpt>
      <trkpt lat="42.551598" lon="-1.1522709">
        <time>2022-07-04T16:09:14Z</time>
      </trkpt>
      <trkpt lat="42.551598" lon="-1.152189">
        <time>2022-07-04T16:09:18Z</time>
      </trkpt>
      <trkpt lat="42.5516" lon="-1.1521">
        <time>2022-07-04T16:09:22Z</time>
      </trkpt>
      <trkpt lat="42.551598" lon="-1.1520163">
        <time>2022-07-04T16:09:26Z</time>
      </trkpt>
      <trkpt lat="42.55159" lon="-1.151933">
        <time>2022-07-04T16:09:30Z</time>
      </trkpt>
      <trkpt lat="42.551586" lon="-1.1518533">
        <time>2022-07-04T16:09:34Z</time>
      </trkpt>
      <trkpt lat="42.551582" lon="-1.1517713">
        <time>2022-07-04T16:09:38Z</time>
      </trkpt>
      <trkpt lat="42.551586" lon="-1.1516926">
        <time>2022-07-04T16:09:42Z</time>
      </trkpt>
      <trkpt lat="42.551598" lon="-1.1516123">
        <time>2022-07-04T16:09:46Z</time>
      </trkpt>
      <trkpt lat="42.551605" lon="-1.151531">
        <time>2022-07-04T16:09:50Z</time>
      </trkpt>
      <trkpt lat="42.551605" lon="-1.151446">
        <time>2022-07-04T16:09:54Z</time>
      </trkpt>
      <trkpt lat="42.5516" lon="-1.151358">
        <time>2022-07-04T16:09:58Z</time>
      </trkpt>
      <trkpt lat="42.5516" lon="-1.1512693">
        <time>2022-07-04T16:10:02Z</time>
      </trkpt>
      <trkpt lat="42.55161" lon="-1.151203">
        <time>2022-07-04T16:10:05Z</time>
      </trkpt>
      <trkpt lat="42.55162" lon="-1.151112">
        <time>2022-07-04T16:10:09Z</time>
      </trkpt>
      <trkpt lat="42.551624" lon="-1.151044">
        <time>2022-07-04T16:10:12Z</time>
      </trkpt>
      <trkpt lat="42.551624" lon="-1.150956">
        <time>2022-07-04T16:10:16Z</time>
      </trkpt>
      <trkpt lat="42.55163" lon="-1.1508846">
        <time>2022-07-04T16:10:19Z</time>
      </trkpt>
      <trkpt lat="42.551632" lon="-1.1508117">
        <time>2022-07-04T16:10:22Z</time>
      </trkpt>
      <trkpt lat="42.551643" lon="-1.150741">
        <time>2022-07-04T16:10:25Z</time>
      </trkpt>
      <trkpt lat="42.551655" lon="-1.1506721">
        <time>2022-07-04T16:10:28Z</time>
      </trkpt>
      <trkpt lat="42.55167" lon="-1.150576">
        <time>2022-07-04T16:10:32Z</time>
      </trkpt>
      <trkpt lat="42.55168" lon="-1.1505057">
        <time>2022-07-04T16:10:35Z</time>
      </trkpt>
      <trkpt lat="42.5517" lon="-1.150416">
        <time>2022-07-04T16:10:39Z</time>
      </trkpt>
      <trkpt lat="42.55171" lon="-1.1503468">
        <time>2022-07-04T16:10:42Z</time>
      </trkpt>
      <trkpt lat="42.551716" lon="-1.1502796">
        <time>2022-07-04T16:10:45Z</time>
      </trkpt>
      <trkpt lat="42.551727" lon="-1.1501967">
        <time>2022-07-04T16:10:49Z</time>
      </trkpt>
      <trkpt lat="42.551746" lon="-1.1501137">
        <time>2022-07-04T16:10:53Z</time>
      </trkpt>
      <trkpt lat="42.551765" lon="-1.1500334">
        <time>2022-07-04T16:10:57Z</time>
      </trkpt>
      <trkpt lat="42.551792" lon="-1.1499493">
        <time>2022-07-04T16:11:01Z</time>
      </trkpt>
      <trkpt lat="42.551807" lon="-1.149885">
        <time>2022-07-04T16:11:04Z</time>
      </trkpt>
      <trkpt lat="42.551823" lon="-1.1497988">
        <time>2022-07-04T16:11:08Z</time>
      </trkpt>
      <trkpt lat="42.551834" lon="-1.1497324">
        <time>2022-07-04T16:11:11Z</time>
      </trkpt>
      <trkpt lat="42.55185" lon="-1.149646">
        <time>2022-07-04T16:11:15Z</time>
      </trkpt>
      <trkpt lat="42.55187" lon="-1.1495634">
        <time>2022-07-04T16:11:19Z</time>
      </trkpt>
      <trkpt lat="42.551884" lon="-1.1495">
        <time>2022-07-04T16:11:22Z</time>
      </trkpt>
      <trkpt lat="42.551907" lon="-1.1493907">
        <time>2022-07-04T16:11:27Z</time>
      </trkpt>
      <trkpt lat="42.55192" lon="-1.149304">
        <time>2022-07-04T16:11:31Z</time>
      </trkpt>
      <trkpt lat="42.55193" lon="-1.14924">
        <time>2022-07-04T16:11:34Z</time>
      </trkpt>
      <trkpt lat="42.55194" lon="-1.1491517">
        <time>2022-07-04T16:11:38Z</time>
      </trkpt>
      <trkpt lat="42.551956" lon="-1.149085">
        <time>2022-07-04T16:11:41Z</time>
      </trkpt>
      <trkpt lat="42.551975" lon="-1.1489948">
        <time>2022-07-04T16:11:45Z</time>
      </trkpt>
      <trkpt lat="42.551987" lon="-1.1489291">
        <time>2022-07-04T16:11:48Z</time>
      </trkpt>
      <trkpt lat="42.552006" lon="-1.1488454">
        <time>2022-07-04T16:11:52Z</time>
      </trkpt>
      <trkpt lat="42.55202" lon="-1.1487617">
        <time>2022-07-04T16:11:56Z</time>
      </trkpt>
      <trkpt lat="42.552032" lon="-1.1486975">
        <time>2022-07-04T16:11:59Z</time>
      </trkpt>
      <trkpt lat="42.55205" lon="-1.1486094">
        <time>2022-07-04T16:12:03Z</time>
      </trkpt>
      <trkpt lat="42.552067" lon="-1.1485415">
        <time>2022-07-04T16:12:06Z</time>
      </trkpt>
      <trkpt lat="42.552082" lon="-1.1484741">
        <time>2022-07-04T16:12:09Z</time>
      </trkpt>
      <trkpt lat="42.552097" lon="-1.1483871">
        <time>2022-07-04T16:12:13Z</time>
      </trkpt>
      <trkpt lat="42.552105" lon="-1.1483165">
        <time>2022-07-04T16:12:16Z</time>
      </trkpt>
      <trkpt lat="42.55212" lon="-1.1482261">
        <time>2022-07-04T16:12:20Z</time>
      </trkpt>
      <trkpt lat="42.552135" lon="-1.1481638">
        <time>2022-07-04T16:12:23Z</time>
      </trkpt>
      <trkpt lat="42.552155" lon="-1.1480771">
        <time>2022-07-04T16:12:27Z</time>
      </trkpt>
      <trkpt lat="42.552166" lon="-1.1480098">
        <time>2022-07-04T16:12:30Z</time>
      </trkpt>
      <trkpt lat="42.552177" lon="-1.1479445">
        <time>2022-07-04T16:12:33Z</time>
      </trkpt>
      <trkpt lat="42.552193" lon="-1.1478624">
        <time>2022-07-04T16:12:37Z</time>
      </trkpt>
      <trkpt lat="42.552204" lon="-1.1477811">
        <time>2022-07-04T16:12:41Z</time>
      </trkpt>
      <trkpt lat="42.552216" lon="-1.1477201">
        <time>2022-07-04T16:12:44Z</time>
      </trkpt>
      <trkpt lat="42.552223" lon="-1.1476388">
        <time>2022-07-04T16:12:48Z</time>
      </trkpt>
      <trkpt lat="42.55223" lon="-1.1475581">
        <time>2022-07-04T16:12:52Z</time>
      </trkpt>
      <trkpt lat="42.552235" lon="-1.1474779">
        <time>2022-07-04T16:12:56Z</time>
      </trkpt>
      <trkpt lat="42.55224" lon="-1.1473975">
        <time>2022-07-04T16:13:00Z</time>
      </trkpt>
      <trkpt lat="42.55225" lon="-1.1473165">
        <time>2022-07-04T16:13:04Z</time>
      </trkpt>
      <trkpt lat="42.55225" lon="-1.1472359">
        <time>2022-07-04T16:13:08Z</time>
      </trkpt>
      <trkpt lat="42.55225" lon="-1.1471741">
        <time>2022-07-04T16:13:11Z</time>
      </trkpt>
      <trkpt lat="42.552254" lon="-1.1470882">
        <time>2022-07-04T16:13:15Z</time>
      </trkpt>
      <trkpt lat="42.552258" lon="-1.1470056">
        <time>2022-07-04T16:13:19Z</time>
      </trkpt>
      <trkpt lat="42.552258" lon="-1.1469312">
        <time>2022-07-04T16:13:23Z</time>
      </trkpt>
      <trkpt lat="42.552265" lon="-1.1468508">
        <time>2022-07-04T16:13:27Z</time>
      </trkpt>
      <trkpt lat="42.552265" lon="-1.1467652">
        <time>2022-07-04T16:13:31Z</time>
      </trkpt>
      <trkpt lat="42.55227" lon="-1.1466608">
        <time>2022-07-04T16:13:36Z</time>
      </trkpt>
      <trkpt lat="42.552265" lon="-1.1465799">
        <time>2022-07-04T16:13:40Z</time>
      </trkpt>
      <trkpt lat="42.55226" lon="-1.1465023">
        <time>2022-07-04T16:13:44Z</time>
      </trkpt>
      <trkpt lat="42.552258" lon="-1.1464266">
        <time>2022-07-04T16:13:48Z</time>
      </trkpt>
      <trkpt lat="42.55225" lon="-1.1463482">
        <time>2022-07-04T16:13:52Z</time>
      </trkpt>
      <trkpt lat="42.55225" lon="-1.1462686">
        <time>2022-07-04T16:13:56Z</time>
      </trkpt>
      <trkpt lat="42.552242" lon="-1.1461929">
        <time>2022-07-04T16:14:00Z</time>
      </trkpt>
      <trkpt lat="42.55223" lon="-1.1461176">
        <time>2022-07-04T16:14:04Z</time>
      </trkpt>
      <trkpt lat="42.552223" lon="-1.1460396">
        <time>2022-07-04T16:14:08Z</time>
      </trkpt>
      <trkpt lat="42.55221" lon="-1.1459619">
        <time>2022-07-04T16:14:12Z</time>
      </trkpt>
      <trkpt lat="42.552204" lon="-1.1458819">
        <time>2022-07-04T16:14:16Z</time>
      </trkpt>
      <trkpt lat="42.552197" lon="-1.145806">
        <time>2022-07-04T16:14:20Z</time>
      </trkpt>
      <trkpt lat="42.552177" lon="-1.1457266">
        <time>2022-07-04T16:14:24Z</time>
      </trkpt>
      <trkpt lat="42.552166" lon="-1.1456529">
        <time>2022-07-04T16:14:28Z</time>
      </trkpt>
      <trkpt lat="42.552147" lon="-1.1455789">
        <time>2022-07-04T16:14:32Z</time>
      </trkpt>
      <trkpt lat="42.552128" lon="-1.1455009">
        <time>2022-07-04T16:14:36Z</time>
      </trkpt>
      <trkpt lat="42.552105" lon="-1.1454196">
        <time>2022-07-04T16:14:40Z</time>
      </trkpt>
      <trkpt lat="42.552082" lon="-1.1453452">
        <time>2022-07-04T16:14:44Z</time>
      </trkpt>
      <trkpt lat="42.552067" lon="-1.145273">
        <time>2022-07-04T16:14:48Z</time>
      </trkpt>
      <trkpt lat="42.552044" lon="-1.1451976">
        <time>2022-07-04T16:14:52Z</time>
      </trkpt>
      <trkpt lat="42.552025" lon="-1.1451199">
        <time>2022-07-04T16:14:56Z</time>
      </trkpt>
      <trkpt lat="42.552002" lon="-1.1450456">
        <time>2022-07-04T16:15:00Z</time>
      </trkpt>
      <trkpt lat="42.55198" lon="-1.1449742">
        <time>2022-07-04T16:15:04Z</time>
      </trkpt>
      <trkpt lat="42.55196" lon="-1.1449026">
        <time>2022-07-04T16:15:08Z</time>
      </trkpt>
      <trkpt lat="42.55194" lon="-1.1448276">
        <time>2022-07-04T16:15:12Z</time>
      </trkpt>
      <trkpt lat="42.55192" lon="-1.144769">
        <time>2022-07-04T16:15:15Z</time>
      </trkpt>
      <trkpt lat="42.551888" lon="-1.1446973">
        <time>2022-07-04T16:15:19Z</time>
      </trkpt>
      <trkpt lat="42.55186" lon="-1.1446203">
        <time>2022-07-04T16:15:23Z</time>
      </trkpt>
      <trkpt lat="42.55183" lon="-1.1445426">
        <time>2022-07-04T16:15:27Z</time>
      </trkpt>
      <trkpt lat="42.551807" lon="-1.144459">
        <time>2022-07-04T16:15:31Z</time>
      </trkpt>
      <trkpt lat="42.551785" lon="-1.1443954">
        <time>2022-07-04T16:15:34Z</time>
      </trkpt>
      <trkpt lat="42.55176" lon="-1.14432">
        <time>2022-07-04T16:15:38Z</time>
      </trkpt>
      <trkpt lat="42.551743" lon="-1.1442549">
        <time>2022-07-04T16:15:42Z</time>
      </trkpt>
      <trkpt lat="42.551716" lon="-1.1441716">
        <time>2022-07-04T16:15:47Z</time>
      </trkpt>
      <trkpt lat="42.55169" lon="-1.1441029">
        <time>2022-07-04T16:15:51Z</time>
      </trkpt>
      <trkpt lat="42.551666" lon="-1.1440333">
        <time>2022-07-04T16:15:55Z</time>
      </trkpt>
      <trkpt lat="42.551655" lon="-1.1439574">
        <time>2022-07-04T16:15:59Z</time>
      </trkpt>
      <trkpt lat="42.55163" lon="-1.1438867">
        <time>2022-07-04T16:16:03Z</time>
      </trkpt>
      <trkpt lat="42.55161" lon="-1.1438217">
        <time>2022-07-04T16:16:07Z</time>
      </trkpt>
      <trkpt lat="42.5516" lon="-1.1437457">
        <time>2022-07-04T16:16:11Z</time>
      </trkpt>
      <trkpt lat="42.551575" lon="-1.1436824">
        <time>2022-07-04T16:16:15Z</time>
      </trkpt>
      <trkpt lat="42.55155" lon="-1.1436143">
        <time>2022-07-04T16:16:19Z</time>
      </trkpt>
      <trkpt lat="42.551533" lon="-1.1435354">
        <time>2022-07-04T16:16:23Z</time>
      </trkpt>
      <trkpt lat="42.551514" lon="-1.1434597">
        <time>2022-07-04T16:16:27Z</time>
      </trkpt>
      <trkpt lat="42.551502" lon="-1.143381">
        <time>2022-07-04T16:16:31Z</time>
      </trkpt>
      <trkpt lat="42.551495" lon="-1.1432984">
        <time>2022-07-04T16:16:35Z</time>
      </trkpt>
      <trkpt lat="42.55148" lon="-1.1432207">
        <time>2022-07-04T16:16:39Z</time>
      </trkpt>
      <trkpt lat="42.551453" lon="-1.1431551">
        <time>2022-07-04T16:16:43Z</time>
      </trkpt>
      <trkpt lat="42.551437" lon="-1.143097">
        <time>2022-07-04T16:16:47Z</time>
      </trkpt>
      <trkpt lat="42.551426" lon="-1.1430337">
        <time>2022-07-04T16:18:20Z</time>
      </trkpt>
      <trkpt lat="42.55142" lon="-1.1429404">
        <time>2022-07-04T16:18:24Z</time>
      </trkpt>
      <trkpt lat="42.551414" lon="-1.1428684">
        <time>2022-07-04T16:18:27Z</time>
      </trkpt>
      <trkpt lat="42.551403" lon="-1.142801">
        <time>2022-07-04T16:18:30Z</time>
      </trkpt>
      <trkpt lat="42.55139" lon="-1.142712">
        <time>2022-07-04T16:18:34Z</time>
      </trkpt>
      <trkpt lat="42.551384" lon="-1.1426457">
        <time>2022-07-04T16:18:37Z</time>
      </trkpt>
      <trkpt lat="42.55138" lon="-1.1425557">
        <time>2022-07-04T16:18:41Z</time>
      </trkpt>
      <trkpt lat="42.551376" lon="-1.142488">
        <time>2022-07-04T16:18:44Z</time>
      </trkpt>
      <trkpt lat="42.55136" lon="-1.1424121">
        <time>2022-07-04T16:18:48Z</time>
      </trkpt>
      <trkpt lat="42.551357" lon="-1.1423477">
        <time>2022-07-04T16:18:51Z</time>
      </trkpt>
      <trkpt lat="42.551357" lon="-1.1422614">
        <time>2022-07-04T16:18:55Z</time>
      </trkpt>
      <trkpt lat="42.551342" lon="-1.1421794">
        <time>2022-07-04T16:18:59Z</time>
      </trkpt>
      <trkpt lat="42.55134" lon="-1.1420968">
        <time>2022-07-04T16:19:03Z</time>
      </trkpt>
      <trkpt lat="42.55133" lon="-1.1420331">
        <time>2022-07-04T16:19:06Z</time>
      </trkpt>
      <trkpt lat="42.551327" lon="-1.1419514">
        <time>2022-07-04T16:19:10Z</time>
      </trkpt>
      <trkpt lat="42.551327" lon="-1.1418694">
        <time>2022-07-04T16:19:14Z</time>
      </trkpt>
      <trkpt lat="42.55133" lon="-1.1417865">
        <time>2022-07-04T16:19:18Z</time>
      </trkpt>
      <trkpt lat="42.551334" lon="-1.1417018">
        <time>2022-07-04T16:19:22Z</time>
      </trkpt>
      <trkpt lat="42.55133" lon="-1.1416152">
        <time>2022-07-04T16:19:26Z</time>
      </trkpt>
      <trkpt lat="42.551323" lon="-1.1415321">
        <time>2022-07-04T16:19:30Z</time>
      </trkpt>
      <trkpt lat="42.551323" lon="-1.1414508">
        <time>2022-07-04T16:19:34Z</time>
      </trkpt>
      <trkpt lat="42.551327" lon="-1.1413691">
        <time>2022-07-04T16:19:38Z</time>
      </trkpt>
      <trkpt lat="42.551327" lon="-1.1412854">
        <time>2022-07-04T16:19:42Z</time>
      </trkpt>
      <trkpt lat="42.55133" lon="-1.1412054">
        <time>2022-07-04T16:19:46Z</time>
      </trkpt>
      <trkpt lat="42.551346" lon="-1.1411308">
        <time>2022-07-04T16:19:50Z</time>
      </trkpt>
      <trkpt lat="42.55136" lon="-1.1410304">
        <time>2022-07-04T16:19:55Z</time>
      </trkpt>
      <trkpt lat="42.551357" lon="-1.1409655">
        <time>2022-07-04T16:19:58Z</time>
      </trkpt>
      <trkpt lat="42.55136" lon="-1.1408771">
        <time>2022-07-04T16:20:02Z</time>
      </trkpt>
      <trkpt lat="42.551373" lon="-1.1407868">
        <time>2022-07-04T16:20:06Z</time>
      </trkpt>
      <trkpt lat="42.551376" lon="-1.1407162">
        <time>2022-07-04T16:20:09Z</time>
      </trkpt>
      <trkpt lat="42.551376" lon="-1.1406455">
        <time>2022-07-04T16:20:12Z</time>
      </trkpt>
      <trkpt lat="42.551376" lon="-1.1405791">
        <time>2022-07-04T16:20:15Z</time>
      </trkpt>
      <trkpt lat="42.551384" lon="-1.1404885">
        <time>2022-07-04T16:20:19Z</time>
      </trkpt>
      <trkpt lat="42.551395" lon="-1.1403981">
        <time>2022-07-04T16:20:23Z</time>
      </trkpt>
      <trkpt lat="42.5514" lon="-1.1403289">
        <time>2022-07-04T16:20:26Z</time>
      </trkpt>
      <trkpt lat="42.5514" lon="-1.1402595">
        <time>2022-07-04T16:20:29Z</time>
      </trkpt>
      <trkpt lat="42.551407" lon="-1.1401678">
        <time>2022-07-04T16:20:33Z</time>
      </trkpt>
      <trkpt lat="42.551414" lon="-1.1400985">
        <time>2022-07-04T16:20:36Z</time>
      </trkpt>
      <trkpt lat="42.551426" lon="-1.1400301">
        <time>2022-07-04T16:20:39Z</time>
      </trkpt>
      <trkpt lat="42.551437" lon="-1.1399605">
        <time>2022-07-04T16:20:42Z</time>
      </trkpt>
      <trkpt lat="42.551445" lon="-1.1398715">
        <time>2022-07-04T16:20:46Z</time>
      </trkpt>
      <trkpt lat="42.551445" lon="-1.1398035">
        <time>2022-07-04T16:20:49Z</time>
      </trkpt>
      <trkpt lat="42.55145" lon="-1.1397135">
        <time>2022-07-04T16:20:53Z</time>
      </trkpt>
      <trkpt lat="42.551453" lon="-1.1396235">
        <time>2022-07-04T16:20:57Z</time>
      </trkpt>
      <trkpt lat="42.551464" lon="-1.1395311">
        <time>2022-07-04T16:21:01Z</time>
      </trkpt>
      <trkpt lat="42.551476" lon="-1.1394662">
        <time>2022-07-04T16:21:04Z</time>
      </trkpt>
      <trkpt lat="42.55148" lon="-1.1393706">
        <time>2022-07-04T16:21:08Z</time>
      </trkpt>
      <trkpt lat="42.551483" lon="-1.1393023">
        <time>2022-07-04T16:21:11Z</time>
      </trkpt>
      <trkpt lat="42.55149" lon="-1.1392336">
        <time>2022-07-04T16:21:14Z</time>
      </trkpt>
      <trkpt lat="42.551495" lon="-1.1391425">
        <time>2022-07-04T16:21:18Z</time>
      </trkpt>
      <trkpt lat="42.551495" lon="-1.1390755">
        <time>2022-07-04T16:21:21Z</time>
      </trkpt>
      <trkpt lat="42.551502" lon="-1.1389852">
        <time>2022-07-04T16:21:25Z</time>
      </trkpt>
      <trkpt lat="42.551514" lon="-1.1389179">
        <time>2022-07-04T16:21:28Z</time>
      </trkpt>
      <trkpt lat="42.551517" lon="-1.1388352">
        <time>2022-07-04T16:21:32Z</time>
      </trkpt>
      <trkpt lat="42.551525" lon="-1.1387479">
        <time>2022-07-04T16:21:36Z</time>
      </trkpt>
      <trkpt lat="42.55153" lon="-1.1386613">
        <time>2022-07-04T16:21:40Z</time>
      </trkpt>
      <trkpt lat="42.551533" lon="-1.1385922">
        <time>2022-07-04T16:21:43Z</time>
      </trkpt>
      <trkpt lat="42.551544" lon="-1.1385022">
        <time>2022-07-04T16:21:47Z</time>
      </trkpt>
      <trkpt lat="42.551548" lon="-1.1384349">
        <time>2022-07-04T16:21:50Z</time>
      </trkpt>
      <trkpt lat="42.551556" lon="-1.138346">
        <time>2022-07-04T16:21:54Z</time>
      </trkpt>
      <trkpt lat="42.551563" lon="-1.1382823">
        <time>2022-07-04T16:21:57Z</time>
      </trkpt>
      <trkpt lat="42.55157" lon="-1.1381979">
        <time>2022-07-04T16:22:01Z</time>
      </trkpt>
      <trkpt lat="42.55158" lon="-1.1381296">
        <time>2022-07-04T16:22:04Z</time>
      </trkpt>
      <trkpt lat="42.551586" lon="-1.1380613">
        <time>2022-07-04T16:22:07Z</time>
      </trkpt>
      <trkpt lat="42.5516" lon="-1.1379696">
        <time>2022-07-04T16:22:11Z</time>
      </trkpt>
      <trkpt lat="42.551605" lon="-1.137903">
        <time>2022-07-04T16:22:14Z</time>
      </trkpt>
      <trkpt lat="42.55161" lon="-1.1378353">
        <time>2022-07-04T16:22:17Z</time>
      </trkpt>
      <trkpt lat="42.55162" lon="-1.1377436">
        <time>2022-07-04T16:22:21Z</time>
      </trkpt>
      <trkpt lat="42.551624" lon="-1.1376756">
        <time>2022-07-04T16:22:24Z</time>
      </trkpt>
      <trkpt lat="42.55163" lon="-1.1375883">
        <time>2022-07-04T16:22:28Z</time>
      </trkpt>
      <trkpt lat="42.551636" lon="-1.137502">
        <time>2022-07-04T16:22:32Z</time>
      </trkpt>
      <trkpt lat="42.551643" lon="-1.1374156">
        <time>2022-07-04T16:22:36Z</time>
      </trkpt>
      <trkpt lat="42.55165" lon="-1.1373346">
        <time>2022-07-04T16:22:40Z</time>
      </trkpt>
      <trkpt lat="42.551655" lon="-1.1372507">
        <time>2022-07-04T16:22:44Z</time>
      </trkpt>
      <trkpt lat="42.551662" lon="-1.137167">
        <time>2022-07-04T16:22:48Z</time>
      </trkpt>
      <trkpt lat="42.55167" lon="-1.13708">
        <time>2022-07-04T16:22:52Z</time>
      </trkpt>
      <trkpt lat="42.551674" lon="-1.1369933">
        <time>2022-07-04T16:22:56Z</time>
      </trkpt>
      <trkpt lat="42.551678" lon="-1.1369057">
        <time>2022-07-04T16:23:00Z</time>
      </trkpt>
      <trkpt lat="42.551685" lon="-1.1368393">
        <time>2022-07-04T16:23:03Z</time>
      </trkpt>
      <trkpt lat="42.551693" lon="-1.1367487">
        <time>2022-07-04T16:23:07Z</time>
      </trkpt>
      <trkpt lat="42.551693" lon="-1.136682">
        <time>2022-07-04T16:23:10Z</time>
      </trkpt>
      <trkpt lat="42.551697" lon="-1.1365896">
        <time>2022-07-04T16:23:14Z</time>
      </trkpt>
      <trkpt lat="42.551697" lon="-1.1365217">
        <time>2022-07-04T16:23:17Z</time>
      </trkpt>
      <trkpt lat="42.5517" lon="-1.136435">
        <time>2022-07-04T16:23:21Z</time>
      </trkpt>
      <trkpt lat="42.551704" lon="-1.1363523">
        <time>2022-07-04T16:23:25Z</time>
      </trkpt>
      <trkpt lat="42.55171" lon="-1.136263">
        <time>2022-07-04T16:23:29Z</time>
      </trkpt>
      <trkpt lat="42.55171" lon="-1.1361767">
        <time>2022-07-04T16:23:33Z</time>
      </trkpt>
      <trkpt lat="42.55171" lon="-1.1360887">
        <time>2022-07-04T16:23:37Z</time>
      </trkpt>
      <trkpt lat="42.55171" lon="-1.1360214">
        <time>2022-07-04T16:23:40Z</time>
      </trkpt>
      <trkpt lat="42.551712" lon="-1.135932">
        <time>2022-07-04T16:23:44Z</time>
      </trkpt>
      <trkpt lat="42.551712" lon="-1.1358687">
        <time>2022-07-04T16:23:47Z</time>
      </trkpt>
      <trkpt lat="42.55171" lon="-1.1357827">
        <time>2022-07-04T16:23:51Z</time>
      </trkpt>
      <trkpt lat="42.55171" lon="-1.1357174">
        <time>2022-07-04T16:23:54Z</time>
      </trkpt>
      <trkpt lat="42.551704" lon="-1.1356287">
        <time>2022-07-04T16:23:58Z</time>
      </trkpt>
      <trkpt lat="42.5517" lon="-1.1355641">
        <time>2022-07-04T16:24:01Z</time>
      </trkpt>
      <trkpt lat="42.551693" lon="-1.1354774">
        <time>2022-07-04T16:24:05Z</time>
      </trkpt>
      <trkpt lat="42.551685" lon="-1.135391">
        <time>2022-07-04T16:24:09Z</time>
      </trkpt>
      <trkpt lat="42.55168" lon="-1.1353021">
        <time>2022-07-04T16:24:13Z</time>
      </trkpt>
      <trkpt lat="42.551674" lon="-1.1352364">
        <time>2022-07-04T16:24:16Z</time>
      </trkpt>
      <trkpt lat="42.55167" lon="-1.135146">
        <time>2022-07-04T16:24:20Z</time>
      </trkpt>
      <trkpt lat="42.551655" lon="-1.1350601">
        <time>2022-07-04T16:24:24Z</time>
      </trkpt>
      <trkpt lat="42.551643" lon="-1.1349818">
        <time>2022-07-04T16:24:28Z</time>
      </trkpt>
      <trkpt lat="42.551636" lon="-1.1348997">
        <time>2022-07-04T16:24:32Z</time>
      </trkpt>
      <trkpt lat="42.55162" lon="-1.1348134">
        <time>2022-07-04T16:24:36Z</time>
      </trkpt>
      <trkpt lat="42.55161" lon="-1.1347277">
        <time>2022-07-04T16:24:40Z</time>
      </trkpt>
      <trkpt lat="42.551598" lon="-1.1346457">
        <time>2022-07-04T16:24:44Z</time>
      </trkpt>
      <trkpt lat="42.551582" lon="-1.134559">
        <time>2022-07-04T16:24:48Z</time>
      </trkpt>
      <trkpt lat="42.551567" lon="-1.134497">
        <time>2022-07-04T16:24:51Z</time>
      </trkpt>
      <trkpt lat="42.551556" lon="-1.1344117">
        <time>2022-07-04T16:24:55Z</time>
      </trkpt>
      <trkpt lat="42.55154" lon="-1.1343235">
        <time>2022-07-04T16:24:59Z</time>
      </trkpt>
      <trkpt lat="42.551525" lon="-1.1342587">
        <time>2022-07-04T16:25:02Z</time>
      </trkpt>
      <trkpt lat="42.551506" lon="-1.1341751">
        <time>2022-07-04T16:25:06Z</time>
      </trkpt>
      <trkpt lat="42.551487" lon="-1.1340925">
        <time>2022-07-04T16:25:10Z</time>
      </trkpt>
      <trkpt lat="42.551464" lon="-1.1340071">
        <time>2022-07-04T16:25:14Z</time>
      </trkpt>
      <trkpt lat="42.551445" lon="-1.1339225">
        <time>2022-07-04T16:25:18Z</time>
      </trkpt>
      <trkpt lat="42.551426" lon="-1.1338551">
        <time>2022-07-04T16:25:21Z</time>
      </trkpt>
      <trkpt lat="42.55141" lon="-1.1337885">
        <time>2022-07-04T16:25:24Z</time>
      </trkpt>
      <trkpt lat="42.55139" lon="-1.1337248">
        <time>2022-07-04T16:25:27Z</time>
      </trkpt>
      <trkpt lat="42.55136" lon="-1.1336395">
        <time>2022-07-04T16:25:31Z</time>
      </trkpt>
      <trkpt lat="42.551334" lon="-1.1335669">
        <time>2022-07-04T16:25:34Z</time>
      </trkpt>
      <trkpt lat="42.55131" lon="-1.1334938">
        <time>2022-07-04T16:25:37Z</time>
      </trkpt>
      <trkpt lat="42.55129" lon="-1.1334214">
        <time>2022-07-04T16:25:40Z</time>
      </trkpt>
      <trkpt lat="42.551266" lon="-1.1333398">
        <time>2022-07-04T16:25:43Z</time>
      </trkpt>
      <trkpt lat="42.55124" lon="-1.1332592">
        <time>2022-07-04T16:25:46Z</time>
      </trkpt>
      <trkpt lat="42.551205" lon="-1.1331801">
        <time>2022-07-04T16:25:49Z</time>
      </trkpt>
      <trkpt lat="42.551174" lon="-1.1331078">
        <time>2022-07-04T16:25:52Z</time>
      </trkpt>
      <trkpt lat="42.551144" lon="-1.1330315">
        <time>2022-07-04T16:25:55Z</time>
      </trkpt>
      <trkpt lat="42.551113" lon="-1.1329565">
        <time>2022-07-04T16:25:58Z</time>
      </trkpt>
      <trkpt lat="42.55108" lon="-1.1328795">
        <time>2022-07-04T16:26:01Z</time>
      </trkpt>
      <trkpt lat="42.55104" lon="-1.1327986">
        <time>2022-07-04T16:26:04Z</time>
      </trkpt>
      <trkpt lat="42.551014" lon="-1.1327435">
        <time>2022-07-04T16:26:06Z</time>
      </trkpt>
      <trkpt lat="42.550976" lon="-1.1326625">
        <time>2022-07-04T16:26:09Z</time>
      </trkpt>
      <trkpt lat="42.550934" lon="-1.1325831">
        <time>2022-07-04T16:26:12Z</time>
      </trkpt>
      <trkpt lat="42.550907" lon="-1.1325282">
        <time>2022-07-04T16:26:14Z</time>
      </trkpt>
      <trkpt lat="42.55086" lon="-1.1324438">
        <time>2022-07-04T16:26:17Z</time>
      </trkpt>
      <trkpt lat="42.550816" lon="-1.1323595">
        <time>2022-07-04T16:26:20Z</time>
      </trkpt>
      <trkpt lat="42.550785" lon="-1.1323032">
        <time>2022-07-04T16:26:22Z</time>
      </trkpt>
      <trkpt lat="42.55075" lon="-1.1322426">
        <time>2022-07-04T16:26:24Z</time>
      </trkpt>
      <trkpt lat="42.550716" lon="-1.1321756">
        <time>2022-07-04T16:26:26Z</time>
      </trkpt>
      <trkpt lat="42.550674" lon="-1.1321042">
        <time>2022-07-04T16:26:28Z</time>
      </trkpt>
      <trkpt lat="42.550632" lon="-1.1320359">
        <time>2022-07-04T16:26:30Z</time>
      </trkpt>
      <trkpt lat="42.55059" lon="-1.1319698">
        <time>2022-07-04T16:26:32Z</time>
      </trkpt>
      <trkpt lat="42.550552" lon="-1.1319039">
        <time>2022-07-04T16:26:34Z</time>
      </trkpt>
      <trkpt lat="42.550514" lon="-1.1318423">
        <time>2022-07-04T16:26:36Z</time>
      </trkpt>
      <trkpt lat="42.55048" lon="-1.1317909">
        <time>2022-07-04T16:26:38Z</time>
      </trkpt>
      <trkpt lat="42.55043" lon="-1.1317209">
        <time>2022-07-04T16:26:41Z</time>
      </trkpt>
      <trkpt lat="42.55038" lon="-1.1316469">
        <time>2022-07-04T16:26:44Z</time>
      </trkpt>
      <trkpt lat="42.550346" lon="-1.1315949">
        <time>2022-07-04T16:26:46Z</time>
      </trkpt>
      <trkpt lat="42.5503" lon="-1.1315122">
        <time>2022-07-04T16:26:49Z</time>
      </trkpt>
      <trkpt lat="42.550266" lon="-1.1314542">
        <time>2022-07-04T16:26:51Z</time>
      </trkpt>
      <trkpt lat="42.55023" lon="-1.1313962">
        <time>2022-07-04T16:26:53Z</time>
      </trkpt>
      <trkpt lat="42.550194" lon="-1.1313366">
        <time>2022-07-04T16:26:55Z</time>
      </trkpt>
      <trkpt lat="42.55016" lon="-1.1312755">
        <time>2022-07-04T16:26:57Z</time>
      </trkpt>
      <trkpt lat="42.550117" lon="-1.1312156">
        <time>2022-07-04T16:26:59Z</time>
      </trkpt>
      <trkpt lat="42.55008" lon="-1.1311525">
        <time>2022-07-04T16:27:01Z</time>
      </trkpt>
      <trkpt lat="42.55004" lon="-1.1310885">
        <time>2022-07-04T16:27:03Z</time>
      </trkpt>
      <trkpt lat="42.550003" lon="-1.1310256">
        <time>2022-07-04T16:27:05Z</time>
      </trkpt>
      <trkpt lat="42.549965" lon="-1.1309628">
        <time>2022-07-04T16:27:07Z</time>
      </trkpt>
      <trkpt lat="42.549923" lon="-1.1309003">
        <time>2022-07-04T16:27:09Z</time>
      </trkpt>
      <trkpt lat="42.549885" lon="-1.1308339">
        <time>2022-07-04T16:27:11Z</time>
      </trkpt>
      <trkpt lat="42.549843" lon="-1.1307683">
        <time>2022-07-04T16:27:13Z</time>
      </trkpt>
      <trkpt lat="42.549805" lon="-1.1307036">
        <time>2022-07-04T16:27:15Z</time>
      </trkpt>
      <trkpt lat="42.549767" lon="-1.1306409">
        <time>2022-07-04T16:27:17Z</time>
      </trkpt>
      <trkpt lat="42.54973" lon="-1.1305789">
        <time>2022-07-04T16:27:19Z</time>
      </trkpt>
      <trkpt lat="42.54969" lon="-1.1305169">
        <time>2022-07-04T16:27:21Z</time>
      </trkpt>
      <trkpt lat="42.549652" lon="-1.1304556">
        <time>2022-07-04T16:27:23Z</time>
      </trkpt>
      <trkpt lat="42.5496" lon="-1.1303645">
        <time>2022-07-04T16:27:26Z</time>
      </trkpt>
      <trkpt lat="42.549564" lon="-1.1303053">
        <time>2022-07-04T16:27:28Z</time>
      </trkpt>
      <trkpt lat="42.54953" lon="-1.1302493">
        <time>2022-07-04T16:27:30Z</time>
      </trkpt>
      <trkpt lat="42.549496" lon="-1.1301962">
        <time>2022-07-04T16:27:32Z</time>
      </trkpt>
      <trkpt lat="42.549465" lon="-1.1301422">
        <time>2022-07-04T16:27:34Z</time>
      </trkpt>
      <trkpt lat="42.549423" lon="-1.1300766">
        <time>2022-07-04T16:27:37Z</time>
      </trkpt>
      <trkpt lat="42.549385" lon="-1.1300212">
        <time>2022-07-04T16:27:40Z</time>
      </trkpt>
      <trkpt lat="42.549347" lon="-1.1299629">
        <time>2022-07-04T16:27:43Z</time>
      </trkpt>
      <trkpt lat="42.549305" lon="-1.129893">
        <time>2022-07-04T16:27:46Z</time>
      </trkpt>
      <trkpt lat="42.549255" lon="-1.1298122">
        <time>2022-07-04T16:27:49Z</time>
      </trkpt>
      <trkpt lat="42.549217" lon="-1.1297549">
        <time>2022-07-04T16:27:51Z</time>
      </trkpt>
      <trkpt lat="42.549183" lon="-1.1296962">
        <time>2022-07-04T16:27:53Z</time>
      </trkpt>
      <trkpt lat="42.549145" lon="-1.1296366">
        <time>2022-07-04T16:27:55Z</time>
      </trkpt>
      <trkpt lat="42.549107" lon="-1.129579">
        <time>2022-07-04T16:27:57Z</time>
      </trkpt>
      <trkpt lat="42.549072" lon="-1.1295227">
        <time>2022-07-04T16:27:59Z</time>
      </trkpt>
      <trkpt lat="42.549038" lon="-1.1294653">
        <time>2022-07-04T16:28:01Z</time>
      </trkpt>
      <trkpt lat="42.549004" lon="-1.129406">
        <time>2022-07-04T16:28:03Z</time>
      </trkpt>
      <trkpt lat="42.548965" lon="-1.1293447">
        <time>2022-07-04T16:28:05Z</time>
      </trkpt>
      <trkpt lat="42.548927" lon="-1.1292837">
        <time>2022-07-04T16:28:07Z</time>
      </trkpt>
      <trkpt lat="42.548893" lon="-1.1292243">
        <time>2022-07-04T16:28:09Z</time>
      </trkpt>
      <trkpt lat="42.548862" lon="-1.1291673">
        <time>2022-07-04T16:28:11Z</time>
      </trkpt>
      <trkpt lat="42.548836" lon="-1.1291143">
        <time>2022-07-04T16:28:13Z</time>
      </trkpt>
      <trkpt lat="42.5488" lon="-1.1290317">
        <time>2022-07-04T16:28:16Z</time>
      </trkpt>
      <trkpt lat="42.54877" lon="-1.1289474">
        <time>2022-07-04T16:28:19Z</time>
      </trkpt>
      <trkpt lat="42.548737" lon="-1.1288646">
        <time>2022-07-04T16:28:22Z</time>
      </trkpt>
      <trkpt lat="42.5487" lon="-1.1287967">
        <time>2022-07-04T16:28:25Z</time>
      </trkpt>
      <trkpt lat="42.548664" lon="-1.1287353">
        <time>2022-07-04T16:28:28Z</time>
      </trkpt>
      <trkpt lat="42.548634" lon="-1.1286737">
        <time>2022-07-04T16:28:31Z</time>
      </trkpt>
      <trkpt lat="42.548607" lon="-1.128602">
        <time>2022-07-04T16:28:34Z</time>
      </trkpt>
      <trkpt lat="42.54857" lon="-1.128531">
        <time>2022-07-04T16:28:37Z</time>
      </trkpt>
      <trkpt lat="42.54853" lon="-1.128469">
        <time>2022-07-04T16:28:40Z</time>
      </trkpt>
      <trkpt lat="42.548508" lon="-1.128415">
        <time>2022-07-04T16:28:44Z</time>
      </trkpt>
      <trkpt lat="42.548485" lon="-1.1283187">
        <time>2022-07-04T16:30:54Z</time>
      </trkpt>
      <trkpt lat="42.54845" lon="-1.1282136">
        <time>2022-07-04T16:30:57Z</time>
      </trkpt>
      <trkpt lat="42.548424" lon="-1.1281334">
        <time>2022-07-04T16:30:59Z</time>
      </trkpt>
      <trkpt lat="42.5484" lon="-1.1280477">
        <time>2022-07-04T16:31:01Z</time>
      </trkpt>
      <trkpt lat="42.548374" lon="-1.127954">
        <time>2022-07-04T16:31:03Z</time>
      </trkpt>
      <trkpt lat="42.54835" lon="-1.1278534">
        <time>2022-07-04T16:31:05Z</time>
      </trkpt>
      <trkpt lat="42.548325" lon="-1.1277428">
        <time>2022-07-04T16:31:07Z</time>
      </trkpt>
      <trkpt lat="42.548294" lon="-1.127619">
        <time>2022-07-04T16:31:09Z</time>
      </trkpt>
      <trkpt lat="42.54828" lon="-1.1275524">
        <time>2022-07-04T16:31:10Z</time>
      </trkpt>
      <trkpt lat="42.548252" lon="-1.1273978">
        <time>2022-07-04T16:31:12Z</time>
      </trkpt>
      <trkpt lat="42.548237" lon="-1.1273221">
        <time>2022-07-04T16:31:13Z</time>
      </trkpt>
      <trkpt lat="42.548225" lon="-1.1272438">
        <time>2022-07-04T16:31:14Z</time>
      </trkpt>
      <trkpt lat="42.548214" lon="-1.1271608">
        <time>2022-07-04T16:31:15Z</time>
      </trkpt>
      <trkpt lat="42.548203" lon="-1.1270734">
        <time>2022-07-04T16:31:16Z</time>
      </trkpt>
      <trkpt lat="42.54819" lon="-1.1269845">
        <time>2022-07-04T16:31:17Z</time>
      </trkpt>
      <trkpt lat="42.54818" lon="-1.1268945">
        <time>2022-07-04T16:31:18Z</time>
      </trkpt>
      <trkpt lat="42.54817" lon="-1.1268024">
        <time>2022-07-04T16:31:19Z</time>
      </trkpt>
      <trkpt lat="42.54816" lon="-1.1267091">
        <time>2022-07-04T16:31:20Z</time>
      </trkpt>
      <trkpt lat="42.54815" lon="-1.1266131">
        <time>2022-07-04T16:31:21Z</time>
      </trkpt>
      <trkpt lat="42.548138" lon="-1.1265144">
        <time>2022-07-04T16:31:22Z</time>
      </trkpt>
      <trkpt lat="42.54813" lon="-1.1264144">
        <time>2022-07-04T16:31:23Z</time>
      </trkpt>
      <trkpt lat="42.548122" lon="-1.1263131">
        <time>2022-07-04T16:31:24Z</time>
      </trkpt>
      <trkpt lat="42.54812" lon="-1.1262097">
        <time>2022-07-04T16:31:25Z</time>
      </trkpt>
      <trkpt lat="42.54811" lon="-1.1261041">
        <time>2022-07-04T16:31:26Z</time>
      </trkpt>
      <trkpt lat="42.548103" lon="-1.1259961">
        <time>2022-07-04T16:31:27Z</time>
      </trkpt>
      <trkpt lat="42.5481" lon="-1.1258851">
        <time>2022-07-04T16:31:28Z</time>
      </trkpt>
      <trkpt lat="42.548088" lon="-1.1257634">
        <time>2022-07-04T16:31:29Z</time>
      </trkpt>
      <trkpt lat="42.548073" lon="-1.1256415">
        <time>2022-07-04T16:31:30Z</time>
      </trkpt>
      <trkpt lat="42.54806" lon="-1.1255255">
        <time>2022-07-04T16:31:31Z</time>
      </trkpt>
      <trkpt lat="42.548027" lon="-1.1252794">
        <time>2022-07-04T16:31:33Z</time>
      </trkpt>
      <trkpt lat="42.548008" lon="-1.1251528">
        <time>2022-07-04T16:31:34Z</time>
      </trkpt>
      <trkpt lat="42.547985" lon="-1.1250248">
        <time>2022-07-04T16:31:35Z</time>
      </trkpt>
      <trkpt lat="42.54795" lon="-1.1248884">
        <time>2022-07-04T16:31:36Z</time>
      </trkpt>
      <trkpt lat="42.547916" lon="-1.1247548">
        <time>2022-07-04T16:31:37Z</time>
      </trkpt>
      <trkpt lat="42.547874" lon="-1.1246241">
        <time>2022-07-04T16:31:38Z</time>
      </trkpt>
      <trkpt lat="42.54783" lon="-1.1244944">
        <time>2022-07-04T16:31:39Z</time>
      </trkpt>
      <trkpt lat="42.54778" lon="-1.1243682">
        <time>2022-07-04T16:31:40Z</time>
      </trkpt>
      <trkpt lat="42.547726" lon="-1.1242445">
        <time>2022-07-04T16:31:41Z</time>
      </trkpt>
      <trkpt lat="42.54767" lon="-1.1241249">
        <time>2022-07-04T16:31:42Z</time>
      </trkpt>
      <trkpt lat="42.547607" lon="-1.1240091">
        <time>2022-07-04T16:31:43Z</time>
      </trkpt>
      <trkpt lat="42.54754" lon="-1.1238985">
        <time>2022-07-04T16:31:44Z</time>
      </trkpt>
      <trkpt lat="42.547474" lon="-1.1237972">
        <time>2022-07-04T16:31:45Z</time>
      </trkpt>
      <trkpt lat="42.5474" lon="-1.1236908">
        <time>2022-07-04T16:31:46Z</time>
      </trkpt>
      <trkpt lat="42.547325" lon="-1.1235858">
        <time>2022-07-04T16:31:47Z</time>
      </trkpt>
      <trkpt lat="42.54726" lon="-1.1234869">
        <time>2022-07-04T16:31:48Z</time>
      </trkpt>
      <trkpt lat="42.5472" lon="-1.1233819">
        <time>2022-07-04T16:31:49Z</time>
      </trkpt>
      <trkpt lat="42.54714" lon="-1.1232646">
        <time>2022-07-04T16:31:50Z</time>
      </trkpt>
      <trkpt lat="42.547092" lon="-1.1231452">
        <time>2022-07-04T16:31:51Z</time>
      </trkpt>
      <trkpt lat="42.547054" lon="-1.1230242">
        <time>2022-07-04T16:31:52Z</time>
      </trkpt>
      <trkpt lat="42.547024" lon="-1.1229012">
        <time>2022-07-04T16:31:53Z</time>
      </trkpt>
      <trkpt lat="42.546997" lon="-1.1227756">
        <time>2022-07-04T16:31:54Z</time>
      </trkpt>
      <trkpt lat="42.546978" lon="-1.1226532">
        <time>2022-07-04T16:31:55Z</time>
      </trkpt>
      <trkpt lat="42.54696" lon="-1.1225365">
        <time>2022-07-04T16:31:56Z</time>
      </trkpt>
      <trkpt lat="42.546944" lon="-1.1224245">
        <time>2022-07-04T16:31:57Z</time>
      </trkpt>
      <trkpt lat="42.546936" lon="-1.1223196">
        <time>2022-07-04T16:31:58Z</time>
      </trkpt>
      <trkpt lat="42.546932" lon="-1.1222283">
        <time>2022-07-04T16:31:59Z</time>
      </trkpt>
      <trkpt lat="42.54694" lon="-1.1221379">
        <time>2022-07-04T16:32:00Z</time>
      </trkpt>
      <trkpt lat="42.54695" lon="-1.1220613">
        <time>2022-07-04T16:32:01Z</time>
      </trkpt>
      <trkpt lat="42.546967" lon="-1.1219896">
        <time>2022-07-04T16:32:02Z</time>
      </trkpt>
      <trkpt lat="42.54697" lon="-1.1219245">
        <time>2022-07-04T16:32:03Z</time>
      </trkpt>
      <trkpt lat="42.54696" lon="-1.1218202">
        <time>2022-07-04T16:32:05Z</time>
      </trkpt>
      <trkpt lat="42.546932" lon="-1.121756">
        <time>2022-07-04T16:32:07Z</time>
      </trkpt>
      <trkpt lat="42.546886" lon="-1.1216925">
        <time>2022-07-04T16:32:10Z</time>
      </trkpt>
      <trkpt lat="42.546844" lon="-1.121643">
        <time>2022-07-04T16:32:13Z</time>
      </trkpt>
      <trkpt lat="42.546803" lon="-1.1216139">
        <time>2022-07-04T16:32:16Z</time>
      </trkpt>
      <trkpt lat="42.546738" lon="-1.1215795">
        <time>2022-07-04T16:32:20Z</time>
      </trkpt>
      <trkpt lat="42.54669" lon="-1.1215485">
        <time>2022-07-04T16:32:23Z</time>
      </trkpt>
      <trkpt lat="42.546646" lon="-1.1215212">
        <time>2022-07-04T16:32:26Z</time>
      </trkpt>
      <trkpt lat="42.546593" lon="-1.1214899">
        <time>2022-07-04T16:32:30Z</time>
      </trkpt>
      <trkpt lat="42.546535" lon="-1.1214572">
        <time>2022-07-04T16:32:34Z</time>
      </trkpt>
      <trkpt lat="42.54649" lon="-1.1214292">
        <time>2022-07-04T16:32:37Z</time>
      </trkpt>
      <trkpt lat="42.546432" lon="-1.1213846">
        <time>2022-07-04T16:32:41Z</time>
      </trkpt>
      <trkpt lat="42.54638" lon="-1.1213396">
        <time>2022-07-04T16:32:45Z</time>
      </trkpt>
      <trkpt lat="42.546326" lon="-1.1212903">
        <time>2022-07-04T16:32:49Z</time>
      </trkpt>
      <trkpt lat="42.546272" lon="-1.1212447">
        <time>2022-07-04T16:32:53Z</time>
      </trkpt>
      <trkpt lat="42.546227" lon="-1.1211896">
        <time>2022-07-04T16:32:57Z</time>
      </trkpt>
      <trkpt lat="42.546177" lon="-1.1211272">
        <time>2022-07-04T16:33:01Z</time>
      </trkpt>
      <trkpt lat="42.546143" lon="-1.1210836">
        <time>2022-07-04T16:33:04Z</time>
      </trkpt>
      <trkpt lat="42.546104" lon="-1.1210209">
        <time>2022-07-04T16:33:08Z</time>
      </trkpt>
      <trkpt lat="42.546074" lon="-1.1209483">
        <time>2022-07-04T16:33:12Z</time>
      </trkpt>
      <trkpt lat="42.54605" lon="-1.1208706">
        <time>2022-07-04T16:33:16Z</time>
      </trkpt>
      <trkpt lat="42.546024" lon="-1.1207906">
        <time>2022-07-04T16:33:20Z</time>
      </trkpt>
      <trkpt lat="42.546" lon="-1.1207113">
        <time>2022-07-04T16:33:24Z</time>
      </trkpt>
      <trkpt lat="42.545986" lon="-1.1206326">
        <time>2022-07-04T16:33:28Z</time>
      </trkpt>
      <trkpt lat="42.545986" lon="-1.1205469">
        <time>2022-07-04T16:33:32Z</time>
      </trkpt>
      <trkpt lat="42.545986" lon="-1.1204593">
        <time>2022-07-04T16:33:36Z</time>
      </trkpt>
      <trkpt lat="42.54599" lon="-1.1203667">
        <time>2022-07-04T16:33:40Z</time>
      </trkpt>
      <trkpt lat="42.545998" lon="-1.120298">
        <time>2022-07-04T16:33:43Z</time>
      </trkpt>
      <trkpt lat="42.546005" lon="-1.1202286">
        <time>2022-07-04T16:33:46Z</time>
      </trkpt>
      <trkpt lat="42.546013" lon="-1.1201617">
        <time>2022-07-04T16:33:49Z</time>
      </trkpt>
      <trkpt lat="42.546036" lon="-1.1200774">
        <time>2022-07-04T16:33:53Z</time>
      </trkpt>
      <trkpt lat="42.546066" lon="-1.1199977">
        <time>2022-07-04T16:33:57Z</time>
      </trkpt>
      <trkpt lat="42.546093" lon="-1.119941">
        <time>2022-07-04T16:34:00Z</time>
      </trkpt>
      <trkpt lat="42.546127" lon="-1.1198567">
        <time>2022-07-04T16:34:04Z</time>
      </trkpt>
      <trkpt lat="42.546154" lon="-1.1197867">
        <time>2022-07-04T16:34:07Z</time>
      </trkpt>
      <trkpt lat="42.54618" lon="-1.119717">
        <time>2022-07-04T16:34:10Z</time>
      </trkpt>
      <trkpt lat="42.546215" lon="-1.1196448">
        <time>2022-07-04T16:34:13Z</time>
      </trkpt>
      <trkpt lat="42.54625" lon="-1.1195681">
        <time>2022-07-04T16:34:16Z</time>
      </trkpt>
      <trkpt lat="42.54628" lon="-1.119488">
        <time>2022-07-04T16:34:19Z</time>
      </trkpt>
      <trkpt lat="42.546318" lon="-1.1194074">
        <time>2022-07-04T16:34:22Z</time>
      </trkpt>
      <trkpt lat="42.546337" lon="-1.119351">
        <time>2022-07-04T16:34:24Z</time>
      </trkpt>
      <trkpt lat="42.546375" lon="-1.1192601">
        <time>2022-07-04T16:34:27Z</time>
      </trkpt>
      <trkpt lat="42.5464" lon="-1.119197">
        <time>2022-07-04T16:34:29Z</time>
      </trkpt>
      <trkpt lat="42.54643" lon="-1.1190897">
        <time>2022-07-04T16:34:32Z</time>
      </trkpt>
      <trkpt lat="42.546444" lon="-1.1190073">
        <time>2022-07-04T16:34:34Z</time>
      </trkpt>
      <trkpt lat="42.546455" lon="-1.1189255">
        <time>2022-07-04T16:34:36Z</time>
      </trkpt>
      <trkpt lat="42.546463" lon="-1.1188434">
        <time>2022-07-04T16:34:38Z</time>
      </trkpt>
      <trkpt lat="42.546463" lon="-1.1187584">
        <time>2022-07-04T16:34:40Z</time>
      </trkpt>
      <trkpt lat="42.54646" lon="-1.1186638">
        <time>2022-07-04T16:34:42Z</time>
      </trkpt>
      <trkpt lat="42.54645" lon="-1.1185601">
        <time>2022-07-04T16:34:44Z</time>
      </trkpt>
      <trkpt lat="42.54644" lon="-1.1184494">
        <time>2022-07-04T16:34:46Z</time>
      </trkpt>
      <trkpt lat="42.546425" lon="-1.1183318">
        <time>2022-07-04T16:34:48Z</time>
      </trkpt>
      <trkpt lat="42.546413" lon="-1.1182088">
        <time>2022-07-04T16:34:50Z</time>
      </trkpt>
      <trkpt lat="42.546394" lon="-1.1180801">
        <time>2022-07-04T16:34:52Z</time>
      </trkpt>
      <trkpt lat="42.546387" lon="-1.1180198">
        <time>2022-07-04T16:34:53Z</time>
      </trkpt>
      <trkpt lat="42.546368" lon="-1.1179231">
        <time>2022-07-04T16:34:55Z</time>
      </trkpt>
      <trkpt lat="42.546352" lon="-1.1178662">
        <time>2022-07-04T16:34:57Z</time>
      </trkpt>
      <trkpt lat="42.54635" lon="-1.1177658">
        <time>2022-07-04T16:36:19Z</time>
      </trkpt>
      <trkpt lat="42.546333" lon="-1.1176791">
        <time>2022-07-04T16:36:21Z</time>
      </trkpt>
      <trkpt lat="42.546314" lon="-1.1175721">
        <time>2022-07-04T16:36:23Z</time>
      </trkpt>
      <trkpt lat="42.546295" lon="-1.1174564">
        <time>2022-07-04T16:36:25Z</time>
      </trkpt>
      <trkpt lat="42.546276" lon="-1.1173269">
        <time>2022-07-04T16:36:27Z</time>
      </trkpt>
      <trkpt lat="42.546253" lon="-1.1171831">
        <time>2022-07-04T16:36:29Z</time>
      </trkpt>
      <trkpt lat="42.54624" lon="-1.1171051">
        <time>2022-07-04T16:36:30Z</time>
      </trkpt>
      <trkpt lat="42.546227" lon="-1.1170175">
        <time>2022-07-04T16:36:31Z</time>
      </trkpt>
      <trkpt lat="42.546215" lon="-1.1169358">
        <time>2022-07-04T16:36:32Z</time>
      </trkpt>
      <trkpt lat="42.5462" lon="-1.1168522">
        <time>2022-07-04T16:36:33Z</time>
      </trkpt>
      <trkpt lat="42.546185" lon="-1.1167655">
        <time>2022-07-04T16:36:34Z</time>
      </trkpt>
      <trkpt lat="42.546173" lon="-1.1166762">
        <time>2022-07-04T16:36:35Z</time>
      </trkpt>
      <trkpt lat="42.546158" lon="-1.1165835">
        <time>2022-07-04T16:36:36Z</time>
      </trkpt>
      <trkpt lat="42.54614" lon="-1.1164812">
        <time>2022-07-04T16:36:37Z</time>
      </trkpt>
      <trkpt lat="42.54612" lon="-1.1163845">
        <time>2022-07-04T16:36:38Z</time>
      </trkpt>
      <trkpt lat="42.546104" lon="-1.1162839">
        <time>2022-07-04T16:36:39Z</time>
      </trkpt>
      <trkpt lat="42.54608" lon="-1.1161742">
        <time>2022-07-04T16:36:40Z</time>
      </trkpt>
      <trkpt lat="42.546062" lon="-1.1160651">
        <time>2022-07-04T16:36:41Z</time>
      </trkpt>
      <trkpt lat="42.54604" lon="-1.1159552">
        <time>2022-07-04T16:36:42Z</time>
      </trkpt>
      <trkpt lat="42.54602" lon="-1.1158445">
        <time>2022-07-04T16:36:43Z</time>
      </trkpt>
      <trkpt lat="42.546" lon="-1.1157385">
        <time>2022-07-04T16:36:44Z</time>
      </trkpt>
      <trkpt lat="42.545986" lon="-1.1156285">
        <time>2022-07-04T16:36:45Z</time>
      </trkpt>
      <trkpt lat="42.545963" lon="-1.1155102">
        <time>2022-07-04T16:36:46Z</time>
      </trkpt>
      <trkpt lat="42.545944" lon="-1.1154029">
        <time>2022-07-04T16:36:47Z</time>
      </trkpt>
      <trkpt lat="42.545918" lon="-1.1152942">
        <time>2022-07-04T16:36:48Z</time>
      </trkpt>
      <trkpt lat="42.545887" lon="-1.1151786">
        <time>2022-07-04T16:36:49Z</time>
      </trkpt>
      <trkpt lat="42.545853" lon="-1.1150662">
        <time>2022-07-04T16:36:50Z</time>
      </trkpt>
      <trkpt lat="42.545815" lon="-1.1149585">
        <time>2022-07-04T16:36:51Z</time>
      </trkpt>
      <trkpt lat="42.545628" lon="-1.1145432">
        <time>2022-07-04T16:36:53Z</time>
      </trkpt>
      <trkpt lat="42.545616" lon="-1.1145269">
        <time>2022-07-04T16:36:54Z</time>
      </trkpt>
      <trkpt lat="42.54556" lon="-1.1144476">
        <time>2022-07-04T16:36:56Z</time>
      </trkpt>
      <trkpt lat="42.545467" lon="-1.1143366">
        <time>2022-07-04T16:36:58Z</time>
      </trkpt>
      <trkpt lat="42.54542" lon="-1.1142813">
        <time>2022-07-04T16:36:59Z</time>
      </trkpt>
      <trkpt lat="42.545376" lon="-1.1142273">
        <time>2022-07-04T16:37:00Z</time>
      </trkpt>
      <trkpt lat="42.545334" lon="-1.1141756">
        <time>2022-07-04T16:37:01Z</time>
      </trkpt>
      <trkpt lat="42.545288" lon="-1.1141273">
        <time>2022-07-04T16:37:02Z</time>
      </trkpt>
      <trkpt lat="42.545246" lon="-1.1140813">
        <time>2022-07-04T16:37:03Z</time>
      </trkpt>
      <trkpt lat="42.54517" lon="-1.1139913">
        <time>2022-07-04T16:37:05Z</time>
      </trkpt>
      <trkpt lat="42.54513" lon="-1.1139482">
        <time>2022-07-04T16:37:06Z</time>
      </trkpt>
      <trkpt lat="42.545063" lon="-1.1138666">
        <time>2022-07-04T16:37:08Z</time>
      </trkpt>
      <trkpt lat="42.545025" lon="-1.113825">
        <time>2022-07-04T16:37:09Z</time>
      </trkpt>
      <trkpt lat="42.544956" lon="-1.1137416">
        <time>2022-07-04T16:37:11Z</time>
      </trkpt>
      <trkpt lat="42.544884" lon="-1.1136589">
        <time>2022-07-04T16:37:13Z</time>
      </trkpt>
      <trkpt lat="42.544846" lon="-1.113616">
        <time>2022-07-04T16:37:14Z</time>
      </trkpt>
      <trkpt lat="42.54477" lon="-1.1135279">
        <time>2022-07-04T16:37:16Z</time>
      </trkpt>
      <trkpt lat="42.544685" lon="-1.1134356">
        <time>2022-07-04T16:37:18Z</time>
      </trkpt>
      <trkpt lat="42.54464" lon="-1.1133866">
        <time>2022-07-04T16:37:19Z</time>
      </trkpt>
      <trkpt lat="42.544594" lon="-1.1133353">
        <time>2022-07-04T16:37:20Z</time>
      </trkpt>
      <trkpt lat="42.544544" lon="-1.113281">
        <time>2022-07-04T16:37:21Z</time>
      </trkpt>
      <trkpt lat="42.544495" lon="-1.1132253">
        <time>2022-07-04T16:37:22Z</time>
      </trkpt>
      <trkpt lat="42.54444" lon="-1.1131684">
        <time>2022-07-04T16:37:23Z</time>
      </trkpt>
      <trkpt lat="42.544388" lon="-1.1131094">
        <time>2022-07-04T16:37:24Z</time>
      </trkpt>
      <trkpt lat="42.544334" lon="-1.1130483">
        <time>2022-07-04T16:37:25Z</time>
      </trkpt>
      <trkpt lat="42.544277" lon="-1.112986">
        <time>2022-07-04T16:37:26Z</time>
      </trkpt>
      <trkpt lat="42.544224" lon="-1.1129216">
        <time>2022-07-04T16:37:27Z</time>
      </trkpt>
      <trkpt lat="42.544167" lon="-1.112856">
        <time>2022-07-04T16:37:28Z</time>
      </trkpt>
      <trkpt lat="42.54411" lon="-1.1127893">
        <time>2022-07-04T16:37:29Z</time>
      </trkpt>
      <trkpt lat="42.54405" lon="-1.1127213">
        <time>2022-07-04T16:37:30Z</time>
      </trkpt>
      <trkpt lat="42.54399" lon="-1.1126523">
        <time>2022-07-04T16:37:31Z</time>
      </trkpt>
      <trkpt lat="42.54393" lon="-1.112584">
        <time>2022-07-04T16:37:32Z</time>
      </trkpt>
      <trkpt lat="42.54387" lon="-1.1125153">
        <time>2022-07-04T16:37:33Z</time>
      </trkpt>
      <trkpt lat="42.543804" lon="-1.1124463">
        <time>2022-07-04T16:37:34Z</time>
      </trkpt>
      <trkpt lat="42.543747" lon="-1.112377">
        <time>2022-07-04T16:37:35Z</time>
      </trkpt>
      <trkpt lat="42.543686" lon="-1.112309">
        <time>2022-07-04T16:37:36Z</time>
      </trkpt>
      <trkpt lat="42.54363" lon="-1.1122427">
        <time>2022-07-04T16:37:37Z</time>
      </trkpt>
      <trkpt lat="42.54357" lon="-1.112179">
        <time>2022-07-04T16:37:38Z</time>
      </trkpt>
      <trkpt lat="42.543514" lon="-1.112117">
        <time>2022-07-04T16:37:39Z</time>
      </trkpt>
      <trkpt lat="42.54346" lon="-1.1120567">
        <time>2022-07-04T16:37:40Z</time>
      </trkpt>
      <trkpt lat="42.54341" lon="-1.1119987">
        <time>2022-07-04T16:37:41Z</time>
      </trkpt>
      <trkpt lat="42.543358" lon="-1.1119441">
        <time>2022-07-04T16:37:42Z</time>
      </trkpt>
      <trkpt lat="42.543312" lon="-1.1118917">
        <time>2022-07-04T16:37:43Z</time>
      </trkpt>
      <trkpt lat="42.543262" lon="-1.111842">
        <time>2022-07-04T16:37:44Z</time>
      </trkpt>
      <trkpt lat="42.54322" lon="-1.1117938">
        <time>2022-07-04T16:37:45Z</time>
      </trkpt>
      <trkpt lat="42.54318" lon="-1.1117477">
        <time>2022-07-04T16:37:46Z</time>
      </trkpt>
      <trkpt lat="42.543137" lon="-1.1117047">
        <time>2022-07-04T16:37:47Z</time>
      </trkpt>
      <trkpt lat="42.543064" lon="-1.1116277">
        <time>2022-07-04T16:37:49Z</time>
      </trkpt>
      <trkpt lat="42.543007" lon="-1.1115611">
        <time>2022-07-04T16:37:51Z</time>
      </trkpt>
      <trkpt lat="42.542957" lon="-1.111502">
        <time>2022-07-04T16:37:53Z</time>
      </trkpt>
      <trkpt lat="42.542915" lon="-1.1114523">
        <time>2022-07-04T16:37:55Z</time>
      </trkpt>
      <trkpt lat="42.542847" lon="-1.111371">
        <time>2022-07-04T16:37:59Z</time>
      </trkpt>
      <trkpt lat="42.54281" lon="-1.1113114">
        <time>2022-07-04T16:38:02Z</time>
      </trkpt>
      <trkpt lat="42.542774" lon="-1.1112604">
        <time>2022-07-04T16:38:05Z</time>
      </trkpt>
      <trkpt lat="42.542732" lon="-1.1112204">
        <time>2022-07-04T16:38:08Z</time>
      </trkpt>
      <trkpt lat="42.542683" lon="-1.1111634">
        <time>2022-07-04T16:38:12Z</time>
      </trkpt>
      <trkpt lat="42.542633" lon="-1.1111071">
        <time>2022-07-04T16:38:16Z</time>
      </trkpt>
      <trkpt lat="42.54259" lon="-1.1110548">
        <time>2022-07-04T16:38:20Z</time>
      </trkpt>
      <trkpt lat="42.54255" lon="-1.1109991">
        <time>2022-07-04T16:38:24Z</time>
      </trkpt>
      <trkpt lat="42.542507" lon="-1.1109438">
        <time>2022-07-04T16:38:28Z</time>
      </trkpt>
      <trkpt lat="42.542465" lon="-1.1108878">
        <time>2022-07-04T16:38:32Z</time>
      </trkpt>
      <trkpt lat="42.542423" lon="-1.1108277">
        <time>2022-07-04T16:38:36Z</time>
      </trkpt>
      <trkpt lat="42.54238" lon="-1.1107647">
        <time>2022-07-04T16:38:40Z</time>
      </trkpt>
      <trkpt lat="42.542336" lon="-1.1107124">
        <time>2022-07-04T16:38:44Z</time>
      </trkpt>
      <trkpt lat="42.542297" lon="-1.1106501">
        <time>2022-07-04T16:38:48Z</time>
      </trkpt>
      <trkpt lat="42.54226" lon="-1.1105831">
        <time>2022-07-04T16:38:52Z</time>
      </trkpt>
      <trkpt lat="42.542225" lon="-1.1105231">
        <time>2022-07-04T16:38:56Z</time>
      </trkpt>
      <trkpt lat="42.54219" lon="-1.1104621">
        <time>2022-07-04T16:39:00Z</time>
      </trkpt>
      <trkpt lat="42.542164" lon="-1.1103964">
        <time>2022-07-04T16:39:04Z</time>
      </trkpt>
      <trkpt lat="42.542133" lon="-1.1103361">
        <time>2022-07-04T16:39:08Z</time>
      </trkpt>
      <trkpt lat="42.542107" lon="-1.1102711">
        <time>2022-07-04T16:39:12Z</time>
      </trkpt>
      <trkpt lat="42.542084" lon="-1.1101735">
        <time>2022-07-04T16:39:40Z</time>
      </trkpt>
      <trkpt lat="42.542065" lon="-1.1101081">
        <time>2022-07-04T16:39:43Z</time>
      </trkpt>
      <trkpt lat="42.54204" lon="-1.1100397">
        <time>2022-07-04T16:39:46Z</time>
      </trkpt>
      <trkpt lat="42.54201" lon="-1.1099628">
        <time>2022-07-04T16:39:50Z</time>
      </trkpt>
      <trkpt lat="42.541985" lon="-1.1098918">
        <time>2022-07-04T16:39:54Z</time>
      </trkpt>
      <trkpt lat="42.54196" lon="-1.1098135">
        <time>2022-07-04T16:39:58Z</time>
      </trkpt>
      <trkpt lat="42.54194" lon="-1.1097357">
        <time>2022-07-04T16:40:02Z</time>
      </trkpt>
      <trkpt lat="42.54192" lon="-1.1096574">
        <time>2022-07-04T16:40:06Z</time>
      </trkpt>
      <trkpt lat="42.541904" lon="-1.1095724">
        <time>2022-07-04T16:40:10Z</time>
      </trkpt>
      <trkpt lat="42.541885" lon="-1.1095104">
        <time>2022-07-04T16:40:13Z</time>
      </trkpt>
      <trkpt lat="42.541862" lon="-1.1094301">
        <time>2022-07-04T16:40:17Z</time>
      </trkpt>
      <trkpt lat="42.541843" lon="-1.1093445">
        <time>2022-07-04T16:40:21Z</time>
      </trkpt>
      <trkpt lat="42.541824" lon="-1.1092795">
        <time>2022-07-04T16:40:24Z</time>
      </trkpt>
      <trkpt lat="42.541805" lon="-1.1091994">
        <time>2022-07-04T16:40:28Z</time>
      </trkpt>
      <trkpt lat="42.541794" lon="-1.1091158">
        <time>2022-07-04T16:40:32Z</time>
      </trkpt>
      <trkpt lat="42.541782" lon="-1.1090381">
        <time>2022-07-04T16:40:36Z</time>
      </trkpt>
      <trkpt lat="42.541763" lon="-1.1089594">
        <time>2022-07-04T16:40:40Z</time>
      </trkpt>
      <trkpt lat="42.541748" lon="-1.1088878">
        <time>2022-07-04T16:40:44Z</time>
      </trkpt>
      <trkpt lat="42.54173" lon="-1.1088098">
        <time>2022-07-04T16:40:48Z</time>
      </trkpt>
      <trkpt lat="42.541714" lon="-1.1087278">
        <time>2022-07-04T16:40:52Z</time>
      </trkpt>
      <trkpt lat="42.541702" lon="-1.1086488">
        <time>2022-07-04T16:40:56Z</time>
      </trkpt>
      <trkpt lat="42.54168" lon="-1.1085702">
        <time>2022-07-04T16:41:00Z</time>
      </trkpt>
      <trkpt lat="42.541656" lon="-1.1085098">
        <time>2022-07-04T16:41:03Z</time>
      </trkpt>
      <trkpt lat="42.54163" lon="-1.1084298">
        <time>2022-07-04T16:41:07Z</time>
      </trkpt>
      <trkpt lat="42.541607" lon="-1.1083502">
        <time>2022-07-04T16:41:11Z</time>
      </trkpt>
      <trkpt lat="42.54158" lon="-1.1082715">
        <time>2022-07-04T16:41:15Z</time>
      </trkpt>
      <trkpt lat="42.541557" lon="-1.1082106">
        <time>2022-07-04T16:41:18Z</time>
      </trkpt>
      <trkpt lat="42.54153" lon="-1.1081312">
        <time>2022-07-04T16:41:22Z</time>
      </trkpt>
      <trkpt lat="42.541504" lon="-1.1080569">
        <time>2022-07-04T16:41:26Z</time>
      </trkpt>
      <trkpt lat="42.541473" lon="-1.1079792">
        <time>2022-07-04T16:41:30Z</time>
      </trkpt>
      <trkpt lat="42.541443" lon="-1.1079051">
        <time>2022-07-04T16:41:34Z</time>
      </trkpt>
      <trkpt lat="42.541412" lon="-1.1078392">
        <time>2022-07-04T16:41:38Z</time>
      </trkpt>
      <trkpt lat="42.541386" lon="-1.1077772">
        <time>2022-07-04T16:41:42Z</time>
      </trkpt>
      <trkpt lat="42.541348" lon="-1.1077055">
        <time>2022-07-04T16:41:47Z</time>
      </trkpt>
      <trkpt lat="42.541313" lon="-1.1076449">
        <time>2022-07-04T16:41:51Z</time>
      </trkpt>
      <trkpt lat="42.541283" lon="-1.1075702">
        <time>2022-07-04T16:41:56Z</time>
      </trkpt>
      <trkpt lat="42.541252" lon="-1.1075102">
        <time>2022-07-04T16:42:00Z</time>
      </trkpt>
      <trkpt lat="42.541214" lon="-1.1074495">
        <time>2022-07-04T16:42:04Z</time>
      </trkpt>
      <trkpt lat="42.541172" lon="-1.1073899">
        <time>2022-07-04T16:42:08Z</time>
      </trkpt>
      <trkpt lat="42.541134" lon="-1.107333">
        <time>2022-07-04T16:42:12Z</time>
      </trkpt>
      <trkpt lat="42.541096" lon="-1.1072782">
        <time>2022-07-04T16:42:16Z</time>
      </trkpt>
      <trkpt lat="42.541058" lon="-1.1072192">
        <time>2022-07-04T16:42:20Z</time>
      </trkpt>
      <trkpt lat="42.54102" lon="-1.1071656">
        <time>2022-07-04T16:42:24Z</time>
      </trkpt>
      <trkpt lat="42.540977" lon="-1.107109">
        <time>2022-07-04T16:42:28Z</time>
      </trkpt>
      <trkpt lat="42.54094" lon="-1.1070513">
        <time>2022-07-04T16:42:32Z</time>
      </trkpt>
      <trkpt lat="42.540897" lon="-1.1069976">
        <time>2022-07-04T16:42:36Z</time>
      </trkpt>
      <trkpt lat="42.540855" lon="-1.106939">
        <time>2022-07-04T16:42:40Z</time>
      </trkpt>
      <trkpt lat="42.54081" lon="-1.1068889">
        <time>2022-07-04T16:42:44Z</time>
      </trkpt>
      <trkpt lat="42.540768" lon="-1.1068339">
        <time>2022-07-04T16:42:48Z</time>
      </trkpt>
      <trkpt lat="42.540718" lon="-1.1067693">
        <time>2022-07-04T16:42:52Z</time>
      </trkpt>
      <trkpt lat="42.540676" lon="-1.1067183">
        <time>2022-07-04T16:42:55Z</time>
      </trkpt>
      <trkpt lat="42.540634" lon="-1.1066669">
        <time>2022-07-04T16:42:58Z</time>
      </trkpt>
      <trkpt lat="42.54058" lon="-1.1066012">
        <time>2022-07-04T16:43:02Z</time>
      </trkpt>
      <trkpt lat="42.54054" lon="-1.1065533">
        <time>2022-07-04T16:43:05Z</time>
      </trkpt>
      <trkpt lat="42.540493" lon="-1.1065019">
        <time>2022-07-04T16:43:08Z</time>
      </trkpt>
      <trkpt lat="42.540447" lon="-1.1064453">
        <time>2022-07-04T16:43:11Z</time>
      </trkpt>
      <trkpt lat="42.540398" lon="-1.1063876">
        <time>2022-07-04T16:43:14Z</time>
      </trkpt>
      <trkpt lat="42.540348" lon="-1.1063269">
        <time>2022-07-04T16:43:17Z</time>
      </trkpt>
      <trkpt lat="42.540306" lon="-1.1062694">
        <time>2022-07-04T16:43:20Z</time>
      </trkpt>
      <trkpt lat="42.540264" lon="-1.1062">
        <time>2022-07-04T16:43:23Z</time>
      </trkpt>
      <trkpt lat="42.540215" lon="-1.1061326">
        <time>2022-07-04T16:43:26Z</time>
      </trkpt>
      <trkpt lat="42.54017" lon="-1.1060627">
        <time>2022-07-04T16:43:29Z</time>
      </trkpt>
      <trkpt lat="42.540127" lon="-1.1059949">
        <time>2022-07-04T16:43:32Z</time>
      </trkpt>
      <trkpt lat="42.540092" lon="-1.1059374">
        <time>2022-07-04T16:43:35Z</time>
      </trkpt>
      <trkpt lat="42.540062" lon="-1.1059027">
        <time>2022-07-04T16:43:40Z</time>
      </trkpt>
      <trkpt lat="42.540016" lon="-1.1058863">
        <time>2022-07-04T16:45:03Z</time>
      </trkpt>
      <trkpt lat="42.53998" lon="-1.1058136">
        <time>2022-07-04T16:45:06Z</time>
      </trkpt>
      <trkpt lat="42.53995" lon="-1.1057267">
        <time>2022-07-04T16:45:09Z</time>
      </trkpt>
      <trkpt lat="42.539932" lon="-1.1056687">
        <time>2022-07-04T16:45:11Z</time>
      </trkpt>
      <trkpt lat="42.539906" lon="-1.1055824">
        <time>2022-07-04T16:45:14Z</time>
      </trkpt>
      <trkpt lat="42.539875" lon="-1.105496">
        <time>2022-07-04T16:45:17Z</time>
      </trkpt>
      <trkpt lat="42.53984" lon="-1.1054044">
        <time>2022-07-04T16:45:20Z</time>
      </trkpt>
      <trkpt lat="42.53982" lon="-1.105339">
        <time>2022-07-04T16:45:22Z</time>
      </trkpt>
      <trkpt lat="42.5398" lon="-1.105271">
        <time>2022-07-04T16:45:24Z</time>
      </trkpt>
      <trkpt lat="42.53978" lon="-1.1052047">
        <time>2022-07-04T16:45:26Z</time>
      </trkpt>
      <trkpt lat="42.53976" lon="-1.1051384">
        <time>2022-07-04T16:45:28Z</time>
      </trkpt>
      <trkpt lat="42.53974" lon="-1.1050707">
        <time>2022-07-04T16:45:30Z</time>
      </trkpt>
      <trkpt lat="42.53972" lon="-1.1049687">
        <time>2022-07-04T16:45:33Z</time>
      </trkpt>
      <trkpt lat="42.539703" lon="-1.1048948">
        <time>2022-07-04T16:45:35Z</time>
      </trkpt>
      <trkpt lat="42.53969" lon="-1.1048174">
        <time>2022-07-04T16:45:37Z</time>
      </trkpt>
      <trkpt lat="42.539673" lon="-1.1047391">
        <time>2022-07-04T16:45:39Z</time>
      </trkpt>
      <trkpt lat="42.539658" lon="-1.1046574">
        <time>2022-07-04T16:45:41Z</time>
      </trkpt>
      <trkpt lat="42.539646" lon="-1.1045737">
        <time>2022-07-04T16:45:43Z</time>
      </trkpt>
      <trkpt lat="42.53964" lon="-1.1044878">
        <time>2022-07-04T16:45:45Z</time>
      </trkpt>
      <trkpt lat="42.539627" lon="-1.1044028">
        <time>2022-07-04T16:45:47Z</time>
      </trkpt>
      <trkpt lat="42.53962" lon="-1.1043167">
        <time>2022-07-04T16:45:49Z</time>
      </trkpt>
      <trkpt lat="42.53961" lon="-1.1042291">
        <time>2022-07-04T16:45:51Z</time>
      </trkpt>
      <trkpt lat="42.539604" lon="-1.1041428">
        <time>2022-07-04T16:45:53Z</time>
      </trkpt>
      <trkpt lat="42.5396" lon="-1.1040587">
        <time>2022-07-04T16:45:55Z</time>
      </trkpt>
      <trkpt lat="42.5396" lon="-1.1039747">
        <time>2022-07-04T16:45:57Z</time>
      </trkpt>
      <trkpt lat="42.5396" lon="-1.1038878">
        <time>2022-07-04T16:45:59Z</time>
      </trkpt>
      <trkpt lat="42.539604" lon="-1.1038014">
        <time>2022-07-04T16:46:01Z</time>
      </trkpt>
      <trkpt lat="42.539604" lon="-1.1037194">
        <time>2022-07-04T16:46:03Z</time>
      </trkpt>
      <trkpt lat="42.5396" lon="-1.1036341">
        <time>2022-07-04T16:46:05Z</time>
      </trkpt>
      <trkpt lat="42.539593" lon="-1.103551">
        <time>2022-07-04T16:46:07Z</time>
      </trkpt>
      <trkpt lat="42.53959" lon="-1.1034647">
        <time>2022-07-04T16:46:09Z</time>
      </trkpt>
      <trkpt lat="42.539585" lon="-1.1033814">
        <time>2022-07-04T16:46:11Z</time>
      </trkpt>
      <trkpt lat="42.53958" lon="-1.1032934">
        <time>2022-07-04T16:46:13Z</time>
      </trkpt>
      <trkpt lat="42.53958" lon="-1.1032064">
        <time>2022-07-04T16:46:15Z</time>
      </trkpt>
      <trkpt lat="42.539577" lon="-1.1031238">
        <time>2022-07-04T16:46:17Z</time>
      </trkpt>
      <trkpt lat="42.539577" lon="-1.1030344">
        <time>2022-07-04T16:46:19Z</time>
      </trkpt>
      <trkpt lat="42.539574" lon="-1.1029484">
        <time>2022-07-04T16:46:21Z</time>
      </trkpt>
      <trkpt lat="42.539574" lon="-1.1028627">
        <time>2022-07-04T16:46:23Z</time>
      </trkpt>
      <trkpt lat="42.539574" lon="-1.1027788">
        <time>2022-07-04T16:46:25Z</time>
      </trkpt>
      <trkpt lat="42.53957" lon="-1.1026931">
        <time>2022-07-04T16:46:27Z</time>
      </trkpt>
      <trkpt lat="42.53957" lon="-1.102606">
        <time>2022-07-04T16:46:29Z</time>
      </trkpt>
      <trkpt lat="42.539566" lon="-1.1024815">
        <time>2022-07-04T16:46:32Z</time>
      </trkpt>
      <trkpt lat="42.539566" lon="-1.1023935">
        <time>2022-07-04T16:46:34Z</time>
      </trkpt>
      <trkpt lat="42.53956" lon="-1.1023024">
        <time>2022-07-04T16:46:36Z</time>
      </trkpt>
      <trkpt lat="42.539547" lon="-1.1022115">
        <time>2022-07-04T16:46:38Z</time>
      </trkpt>
      <trkpt lat="42.53954" lon="-1.1021261">
        <time>2022-07-04T16:46:40Z</time>
      </trkpt>
      <trkpt lat="42.53953" lon="-1.1020374">
        <time>2022-07-04T16:46:42Z</time>
      </trkpt>
      <trkpt lat="42.539528" lon="-1.1019502">
        <time>2022-07-04T16:46:44Z</time>
      </trkpt>
      <trkpt lat="42.539528" lon="-1.1018641">
        <time>2022-07-04T16:46:46Z</time>
      </trkpt>
      <trkpt lat="42.539528" lon="-1.1017705">
        <time>2022-07-04T16:46:48Z</time>
      </trkpt>
      <trkpt lat="42.539524" lon="-1.1016752">
        <time>2022-07-04T16:46:50Z</time>
      </trkpt>
      <trkpt lat="42.539516" lon="-1.1015838">
        <time>2022-07-04T16:46:52Z</time>
      </trkpt>
      <trkpt lat="42.53951" lon="-1.1014965">
        <time>2022-07-04T16:46:54Z</time>
      </trkpt>
      <trkpt lat="42.539505" lon="-1.1014094">
        <time>2022-07-04T16:46:56Z</time>
      </trkpt>
      <trkpt lat="42.5395" lon="-1.1013238">
        <time>2022-07-04T16:46:58Z</time>
      </trkpt>
      <trkpt lat="42.539494" lon="-1.1012398">
        <time>2022-07-04T16:47:00Z</time>
      </trkpt>
      <trkpt lat="42.53949" lon="-1.1011565">
        <time>2022-07-04T16:47:02Z</time>
      </trkpt>
      <trkpt lat="42.539486" lon="-1.1010722">
        <time>2022-07-04T16:47:04Z</time>
      </trkpt>
      <trkpt lat="42.53948" lon="-1.1009891">
        <time>2022-07-04T16:47:06Z</time>
      </trkpt>
      <trkpt lat="42.539474" lon="-1.1009132">
        <time>2022-07-04T16:47:08Z</time>
      </trkpt>
      <trkpt lat="42.539467" lon="-1.1008428">
        <time>2022-07-04T16:47:10Z</time>
      </trkpt>
      <trkpt lat="42.53946" lon="-1.1007715">
        <time>2022-07-04T16:47:12Z</time>
      </trkpt>
      <trkpt lat="42.539455" lon="-1.1007005">
        <time>2022-07-04T16:47:14Z</time>
      </trkpt>
      <trkpt lat="42.539448" lon="-1.1005942">
        <time>2022-07-04T16:47:17Z</time>
      </trkpt>
      <trkpt lat="42.539444" lon="-1.1005225">
        <time>2022-07-04T16:47:19Z</time>
      </trkpt>
      <trkpt lat="42.53944" lon="-1.1004512">
        <time>2022-07-04T16:47:21Z</time>
      </trkpt>
      <trkpt lat="42.539433" lon="-1.1003815">
        <time>2022-07-04T16:47:23Z</time>
      </trkpt>
      <trkpt lat="42.53943" lon="-1.1003135">
        <time>2022-07-04T16:47:25Z</time>
      </trkpt>
      <trkpt lat="42.539417" lon="-1.1002061">
        <time>2022-07-04T16:47:28Z</time>
      </trkpt>
      <trkpt lat="42.53941" lon="-1.1001339">
        <time>2022-07-04T16:47:30Z</time>
      </trkpt>
      <trkpt lat="42.5394" lon="-1.1000608">
        <time>2022-07-04T16:47:32Z</time>
      </trkpt>
      <trkpt lat="42.53939" lon="-1.0999871">
        <time>2022-07-04T16:47:34Z</time>
      </trkpt>
      <trkpt lat="42.53938" lon="-1.0999119">
        <time>2022-07-04T16:47:36Z</time>
      </trkpt>
      <trkpt lat="42.539356" lon="-1.0997975">
        <time>2022-07-04T16:47:39Z</time>
      </trkpt>
      <trkpt lat="42.539337" lon="-1.0997165">
        <time>2022-07-04T16:47:41Z</time>
      </trkpt>
      <trkpt lat="42.539318" lon="-1.0996302">
        <time>2022-07-04T16:47:43Z</time>
      </trkpt>
      <trkpt lat="42.539295" lon="-1.0995392">
        <time>2022-07-04T16:47:45Z</time>
      </trkpt>
      <trkpt lat="42.539265" lon="-1.0994439">
        <time>2022-07-04T16:47:47Z</time>
      </trkpt>
      <trkpt lat="42.539234" lon="-1.0993385">
        <time>2022-07-04T16:47:49Z</time>
      </trkpt>
      <trkpt lat="42.539204" lon="-1.0992252">
        <time>2022-07-04T16:47:51Z</time>
      </trkpt>
      <trkpt lat="42.53916" lon="-1.0991082">
        <time>2022-07-04T16:47:53Z</time>
      </trkpt>
      <trkpt lat="42.539116" lon="-1.0989879">
        <time>2022-07-04T16:47:55Z</time>
      </trkpt>
      <trkpt lat="42.53906" lon="-1.0988649">
        <time>2022-07-04T16:47:57Z</time>
      </trkpt>
      <trkpt lat="42.53903" lon="-1.0988026">
        <time>2022-07-04T16:47:58Z</time>
      </trkpt>
      <trkpt lat="42.538998" lon="-1.0987409">
        <time>2022-07-04T16:47:59Z</time>
      </trkpt>
      <trkpt lat="42.538967" lon="-1.0986795">
        <time>2022-07-04T16:48:00Z</time>
      </trkpt>
      <trkpt lat="42.538937" lon="-1.0986196">
        <time>2022-07-04T16:48:01Z</time>
      </trkpt>
      <trkpt lat="42.538902" lon="-1.0985626">
        <time>2022-07-04T16:48:02Z</time>
      </trkpt>
      <trkpt lat="42.538868" lon="-1.0985073">
        <time>2022-07-04T16:48:03Z</time>
      </trkpt>
      <trkpt lat="42.538803" lon="-1.0984023">
        <time>2022-07-04T16:48:05Z</time>
      </trkpt>
      <trkpt lat="42.538773" lon="-1.0983529">
        <time>2022-07-04T16:48:06Z</time>
      </trkpt>
      <trkpt lat="42.53871" lon="-1.0982609">
        <time>2022-07-04T16:48:08Z</time>
      </trkpt>
      <trkpt lat="42.53865" lon="-1.0981762">
        <time>2022-07-04T16:48:10Z</time>
      </trkpt>
      <trkpt lat="42.538597" lon="-1.0981">
        <time>2022-07-04T16:48:12Z</time>
      </trkpt>
      <trkpt lat="42.538544" lon="-1.098033">
        <time>2022-07-04T16:48:14Z</time>
      </trkpt>
      <trkpt lat="42.538494" lon="-1.097976">
        <time>2022-07-04T16:48:16Z</time>
      </trkpt>
      <trkpt lat="42.538445" lon="-1.0979233">
        <time>2022-07-04T16:48:18Z</time>
      </trkpt>
      <trkpt lat="42.5384" lon="-1.0978752">
        <time>2022-07-04T16:48:20Z</time>
      </trkpt>
      <trkpt lat="42.538357" lon="-1.0978312">
        <time>2022-07-04T16:48:22Z</time>
      </trkpt>
      <trkpt lat="42.53832" lon="-1.0977899">
        <time>2022-07-04T16:48:24Z</time>
      </trkpt>
      <trkpt lat="42.53826" lon="-1.0977296">
        <time>2022-07-04T16:48:27Z</time>
      </trkpt>
      <trkpt lat="42.53821" lon="-1.0976689">
        <time>2022-07-04T16:48:30Z</time>
      </trkpt>
      <trkpt lat="42.538162" lon="-1.0976176">
        <time>2022-07-04T16:48:33Z</time>
      </trkpt>
      <trkpt lat="42.538116" lon="-1.09757">
        <time>2022-07-04T16:48:36Z</time>
      </trkpt>
      <trkpt lat="42.538082" lon="-1.0975293">
        <time>2022-07-04T16:48:39Z</time>
      </trkpt>
      <trkpt lat="42.538036" lon="-1.097502">
        <time>2022-07-04T16:48:43Z</time>
      </trkpt>
      <trkpt lat="42.537956" lon="-1.0974753">
        <time>2022-07-04T16:53:03Z</time>
      </trkpt>
      <trkpt lat="42.53791" lon="-1.0974239">
        <time>2022-07-04T16:53:06Z</time>
      </trkpt>
      <trkpt lat="42.53786" lon="-1.097358">
        <time>2022-07-04T16:53:09Z</time>
      </trkpt>
      <trkpt lat="42.537807" lon="-1.097283">
        <time>2022-07-04T16:53:12Z</time>
      </trkpt>
      <trkpt lat="42.53777" lon="-1.0972337">
        <time>2022-07-04T16:53:14Z</time>
      </trkpt>
      <trkpt lat="42.53771" lon="-1.0971613">
        <time>2022-07-04T16:53:17Z</time>
      </trkpt>
      <trkpt lat="42.537663" lon="-1.097105">
        <time>2022-07-04T16:53:19Z</time>
      </trkpt>
      <trkpt lat="42.537617" lon="-1.0970407">
        <time>2022-07-04T16:53:21Z</time>
      </trkpt>
      <trkpt lat="42.537563" lon="-1.0969673">
        <time>2022-07-04T16:53:23Z</time>
      </trkpt>
      <trkpt lat="42.5375" lon="-1.0968866">
        <time>2022-07-04T16:53:25Z</time>
      </trkpt>
      <trkpt lat="42.53743" lon="-1.096808">
        <time>2022-07-04T16:53:27Z</time>
      </trkpt>
      <trkpt lat="42.53735" lon="-1.096716">
        <time>2022-07-04T16:53:29Z</time>
      </trkpt>
      <trkpt lat="42.537304" lon="-1.0966667">
        <time>2022-07-04T16:53:30Z</time>
      </trkpt>
      <trkpt lat="42.53726" lon="-1.096616">
        <time>2022-07-04T16:53:31Z</time>
      </trkpt>
      <trkpt lat="42.537212" lon="-1.096564">
        <time>2022-07-04T16:53:32Z</time>
      </trkpt>
      <trkpt lat="42.537167" lon="-1.0965097">
        <time>2022-07-04T16:53:33Z</time>
      </trkpt>
      <trkpt lat="42.537117" lon="-1.0964547">
        <time>2022-07-04T16:53:34Z</time>
      </trkpt>
      <trkpt lat="42.537014" lon="-1.096343">
        <time>2022-07-04T16:53:36Z</time>
      </trkpt>
      <trkpt lat="42.536957" lon="-1.0962847">
        <time>2022-07-04T16:53:37Z</time>
      </trkpt>
      <trkpt lat="42.5369" lon="-1.0962254">
        <time>2022-07-04T16:53:38Z</time>
      </trkpt>
      <trkpt lat="42.536842" lon="-1.0961643">
        <time>2022-07-04T16:53:39Z</time>
      </trkpt>
      <trkpt lat="42.53678" lon="-1.0960997">
        <time>2022-07-04T16:53:40Z</time>
      </trkpt>
      <trkpt lat="42.536716" lon="-1.0960317">
        <time>2022-07-04T16:53:41Z</time>
      </trkpt>
      <trkpt lat="42.536655" lon="-1.0959613">
        <time>2022-07-04T16:53:42Z</time>
      </trkpt>
      <trkpt lat="42.536587" lon="-1.095891">
        <time>2022-07-04T16:53:43Z</time>
      </trkpt>
      <trkpt lat="42.53652" lon="-1.0958194">
        <time>2022-07-04T16:53:44Z</time>
      </trkpt>
      <trkpt lat="42.53645" lon="-1.0957464">
        <time>2022-07-04T16:53:45Z</time>
      </trkpt>
      <trkpt lat="42.53638" lon="-1.0956724">
        <time>2022-07-04T16:53:46Z</time>
      </trkpt>
      <trkpt lat="42.536312" lon="-1.0955974">
        <time>2022-07-04T16:53:47Z</time>
      </trkpt>
      <trkpt lat="42.536243" lon="-1.0955224">
        <time>2022-07-04T16:53:48Z</time>
      </trkpt>
      <trkpt lat="42.536175" lon="-1.095448">
        <time>2022-07-04T16:53:49Z</time>
      </trkpt>
      <trkpt lat="42.53611" lon="-1.0953734">
        <time>2022-07-04T16:53:50Z</time>
      </trkpt>
      <trkpt lat="42.53604" lon="-1.095298">
        <time>2022-07-04T16:53:51Z</time>
      </trkpt>
      <trkpt lat="42.535973" lon="-1.0952214">
        <time>2022-07-04T16:53:52Z</time>
      </trkpt>
      <trkpt lat="42.5359" lon="-1.0951434">
        <time>2022-07-04T16:53:53Z</time>
      </trkpt>
      <trkpt lat="42.53583" lon="-1.0950644">
        <time>2022-07-04T16:53:54Z</time>
      </trkpt>
      <trkpt lat="42.53576" lon="-1.0949827">
        <time>2022-07-04T16:53:55Z</time>
      </trkpt>
      <trkpt lat="42.53569" lon="-1.0948977">
        <time>2022-07-04T16:53:56Z</time>
      </trkpt>
      <trkpt lat="42.53562" lon="-1.0948074">
        <time>2022-07-04T16:53:57Z</time>
      </trkpt>
      <trkpt lat="42.535557" lon="-1.0947124">
        <time>2022-07-04T16:53:58Z</time>
      </trkpt>
      <trkpt lat="42.5355" lon="-1.0946124">
        <time>2022-07-04T16:53:59Z</time>
      </trkpt>
      <trkpt lat="42.535442" lon="-1.0945058">
        <time>2022-07-04T16:54:00Z</time>
      </trkpt>
      <trkpt lat="42.53539" lon="-1.0943931">
        <time>2022-07-04T16:54:01Z</time>
      </trkpt>
      <trkpt lat="42.53534" lon="-1.0942764">
        <time>2022-07-04T16:54:02Z</time>
      </trkpt>
      <trkpt lat="42.535294" lon="-1.0941564">
        <time>2022-07-04T16:54:03Z</time>
      </trkpt>
      <trkpt lat="42.53525" lon="-1.0940328">
        <time>2022-07-04T16:54:04Z</time>
      </trkpt>
      <trkpt lat="42.535213" lon="-1.0939051">
        <time>2022-07-04T16:54:05Z</time>
      </trkpt>
      <trkpt lat="42.535183" lon="-1.0937757">
        <time>2022-07-04T16:54:06Z</time>
      </trkpt>
      <trkpt lat="42.535152" lon="-1.0936441">
        <time>2022-07-04T16:54:07Z</time>
      </trkpt>
      <trkpt lat="42.535133" lon="-1.0935111">
        <time>2022-07-04T16:54:08Z</time>
      </trkpt>
      <trkpt lat="42.53512" lon="-1.0933778">
        <time>2022-07-04T16:54:09Z</time>
      </trkpt>
      <trkpt lat="42.535103" lon="-1.0932438">
        <time>2022-07-04T16:54:10Z</time>
      </trkpt>
      <trkpt lat="42.535095" lon="-1.0931104">
        <time>2022-07-04T16:54:11Z</time>
      </trkpt>
      <trkpt lat="42.535084" lon="-1.0929788">
        <time>2022-07-04T16:54:12Z</time>
      </trkpt>
      <trkpt lat="42.535076" lon="-1.0928465">
        <time>2022-07-04T16:54:13Z</time>
      </trkpt>
      <trkpt lat="42.53507" lon="-1.0927151">
        <time>2022-07-04T16:54:14Z</time>
      </trkpt>
      <trkpt lat="42.535057" lon="-1.0925832">
        <time>2022-07-04T16:54:15Z</time>
      </trkpt>
      <trkpt lat="42.535046" lon="-1.0924515">
        <time>2022-07-04T16:54:16Z</time>
      </trkpt>
      <trkpt lat="42.535034" lon="-1.0923212">
        <time>2022-07-04T16:54:17Z</time>
      </trkpt>
      <trkpt lat="42.535015" lon="-1.0921915">
        <time>2022-07-04T16:54:18Z</time>
      </trkpt>
      <trkpt lat="42.534992" lon="-1.0920638">
        <time>2022-07-04T16:54:19Z</time>
      </trkpt>
      <trkpt lat="42.534966" lon="-1.0919378">
        <time>2022-07-04T16:54:20Z</time>
      </trkpt>
      <trkpt lat="42.53493" lon="-1.0918128">
        <time>2022-07-04T16:54:21Z</time>
      </trkpt>
      <trkpt lat="42.534893" lon="-1.0916898">
        <time>2022-07-04T16:54:22Z</time>
      </trkpt>
      <trkpt lat="42.534847" lon="-1.0915705">
        <time>2022-07-04T16:54:23Z</time>
      </trkpt>
      <trkpt lat="42.534798" lon="-1.0914541">
        <time>2022-07-04T16:54:24Z</time>
      </trkpt>
      <trkpt lat="42.53474" lon="-1.0913415">
        <time>2022-07-04T16:54:25Z</time>
      </trkpt>
      <trkpt lat="42.53468" lon="-1.0912318">
        <time>2022-07-04T16:54:26Z</time>
      </trkpt>
      <trkpt lat="42.534615" lon="-1.0911266">
        <time>2022-07-04T16:54:27Z</time>
      </trkpt>
      <trkpt lat="42.53454" lon="-1.0910258">
        <time>2022-07-04T16:54:28Z</time>
      </trkpt>
      <trkpt lat="42.534462" lon="-1.0909295">
        <time>2022-07-04T16:54:29Z</time>
      </trkpt>
      <trkpt lat="42.53438" lon="-1.0908352">
        <time>2022-07-04T16:54:30Z</time>
      </trkpt>
      <trkpt lat="42.534298" lon="-1.0907415">
        <time>2022-07-04T16:54:31Z</time>
      </trkpt>
      <trkpt lat="42.534214" lon="-1.0906463">
        <time>2022-07-04T16:54:32Z</time>
      </trkpt>
      <trkpt lat="42.534134" lon="-1.0905559">
        <time>2022-07-04T16:54:33Z</time>
      </trkpt>
      <trkpt lat="42.53405" lon="-1.0904619">
        <time>2022-07-04T16:54:34Z</time>
      </trkpt>
      <trkpt lat="42.533962" lon="-1.0903662">
        <time>2022-07-04T16:54:35Z</time>
      </trkpt>
      <trkpt lat="42.533875" lon="-1.0902716">
        <time>2022-07-04T16:54:36Z</time>
      </trkpt>
      <trkpt lat="42.533783" lon="-1.0901769">
        <time>2022-07-04T16:54:37Z</time>
      </trkpt>
      <trkpt lat="42.53369" lon="-1.0900812">
        <time>2022-07-04T16:54:38Z</time>
      </trkpt>
      <trkpt lat="42.533596" lon="-1.0899839">
        <time>2022-07-04T16:54:39Z</time>
      </trkpt>
      <trkpt lat="42.533497" lon="-1.0898786">
        <time>2022-07-04T16:54:40Z</time>
      </trkpt>
      <trkpt lat="42.5333" lon="-1.089672">
        <time>2022-07-04T16:54:42Z</time>
      </trkpt>
      <trkpt lat="42.5332" lon="-1.0895686">
        <time>2022-07-04T16:54:43Z</time>
      </trkpt>
      <trkpt lat="42.5331" lon="-1.0894656">
        <time>2022-07-04T16:54:44Z</time>
      </trkpt>
      <trkpt lat="42.533" lon="-1.0893623">
        <time>2022-07-04T16:54:45Z</time>
      </trkpt>
      <trkpt lat="42.532906" lon="-1.0892586">
        <time>2022-07-04T16:54:46Z</time>
      </trkpt>
      <trkpt lat="42.532806" lon="-1.089155">
        <time>2022-07-04T16:54:47Z</time>
      </trkpt>
      <trkpt lat="42.53271" lon="-1.089052">
        <time>2022-07-04T16:54:48Z</time>
      </trkpt>
      <trkpt lat="42.532616" lon="-1.0889493">
        <time>2022-07-04T16:54:49Z</time>
      </trkpt>
      <trkpt lat="42.532516" lon="-1.0888466">
        <time>2022-07-04T16:54:50Z</time>
      </trkpt>
      <trkpt lat="42.53242" lon="-1.0887446">
        <time>2022-07-04T16:54:51Z</time>
      </trkpt>
      <trkpt lat="42.532322" lon="-1.0886439">
        <time>2022-07-04T16:54:52Z</time>
      </trkpt>
      <trkpt lat="42.532223" lon="-1.088545">
        <time>2022-07-04T16:54:53Z</time>
      </trkpt>
      <trkpt lat="42.532127" lon="-1.088447">
        <time>2022-07-04T16:54:54Z</time>
      </trkpt>
      <trkpt lat="42.532032" lon="-1.0883493">
        <time>2022-07-04T16:54:55Z</time>
      </trkpt>
      <trkpt lat="42.531937" lon="-1.088253">
        <time>2022-07-04T16:54:56Z</time>
      </trkpt>
      <trkpt lat="42.531845" lon="-1.0881566">
        <time>2022-07-04T16:54:57Z</time>
      </trkpt>
      <trkpt lat="42.531754" lon="-1.0880597">
        <time>2022-07-04T16:54:58Z</time>
      </trkpt>
      <trkpt lat="42.531662" lon="-1.087961">
        <time>2022-07-04T16:54:59Z</time>
      </trkpt>
      <trkpt lat="42.53157" lon="-1.087861">
        <time>2022-07-04T16:55:00Z</time>
      </trkpt>
      <trkpt lat="42.53148" lon="-1.0877587">
        <time>2022-07-04T16:55:01Z</time>
      </trkpt>
      <trkpt lat="42.531395" lon="-1.087654">
        <time>2022-07-04T16:55:02Z</time>
      </trkpt>
      <trkpt lat="42.53131" lon="-1.0875453">
        <time>2022-07-04T16:55:03Z</time>
      </trkpt>
      <trkpt lat="42.53123" lon="-1.0874313">
        <time>2022-07-04T16:55:04Z</time>
      </trkpt>
      <trkpt lat="42.531155" lon="-1.0873114">
        <time>2022-07-04T16:55:05Z</time>
      </trkpt>
      <trkpt lat="42.531082" lon="-1.087187">
        <time>2022-07-04T16:55:06Z</time>
      </trkpt>
      <trkpt lat="42.531017" lon="-1.0870574">
        <time>2022-07-04T16:55:07Z</time>
      </trkpt>
      <trkpt lat="42.530956" lon="-1.0869223">
        <time>2022-07-04T16:55:08Z</time>
      </trkpt>
      <trkpt lat="42.530895" lon="-1.0867823">
        <time>2022-07-04T16:55:09Z</time>
      </trkpt>
      <trkpt lat="42.53084" lon="-1.086637">
        <time>2022-07-04T16:55:10Z</time>
      </trkpt>
      <trkpt lat="42.530796" lon="-1.0864873">
        <time>2022-07-04T16:55:11Z</time>
      </trkpt>
      <trkpt lat="42.530758" lon="-1.0863343">
        <time>2022-07-04T16:55:12Z</time>
      </trkpt>
      <trkpt lat="42.53072" lon="-1.0861787">
        <time>2022-07-04T16:55:13Z</time>
      </trkpt>
      <trkpt lat="42.530693" lon="-1.0860196">
        <time>2022-07-04T16:55:14Z</time>
      </trkpt>
      <trkpt lat="42.53067" lon="-1.0858591">
        <time>2022-07-04T16:55:15Z</time>
      </trkpt>
      <trkpt lat="42.530655" lon="-1.0856967">
        <time>2022-07-04T16:55:16Z</time>
      </trkpt>
      <trkpt lat="42.53064" lon="-1.0855337">
        <time>2022-07-04T16:55:17Z</time>
      </trkpt>
      <trkpt lat="42.530632" lon="-1.0853693">
        <time>2022-07-04T16:55:18Z</time>
      </trkpt>
      <trkpt lat="42.53063" lon="-1.0852053">
        <time>2022-07-04T16:55:19Z</time>
      </trkpt>
      <trkpt lat="42.53063" lon="-1.0850414">
        <time>2022-07-04T16:55:20Z</time>
      </trkpt>
      <trkpt lat="42.530632" lon="-1.0848767">
        <time>2022-07-04T16:55:21Z</time>
      </trkpt>
      <trkpt lat="42.530636" lon="-1.084712">
        <time>2022-07-04T16:55:22Z</time>
      </trkpt>
      <trkpt lat="42.530643" lon="-1.084547">
        <time>2022-07-04T16:55:23Z</time>
      </trkpt>
      <trkpt lat="42.53065" lon="-1.0843828">
        <time>2022-07-04T16:55:24Z</time>
      </trkpt>
      <trkpt lat="42.530655" lon="-1.0842164">
        <time>2022-07-04T16:55:25Z</time>
      </trkpt>
      <trkpt lat="42.53066" lon="-1.0840497">
        <time>2022-07-04T16:55:26Z</time>
      </trkpt>
      <trkpt lat="42.530655" lon="-1.0838817">
        <time>2022-07-04T16:55:27Z</time>
      </trkpt>
      <trkpt lat="42.53065" lon="-1.0837138">
        <time>2022-07-04T16:55:28Z</time>
      </trkpt>
      <trkpt lat="42.53064" lon="-1.083546">
        <time>2022-07-04T16:55:29Z</time>
      </trkpt>
      <trkpt lat="42.530624" lon="-1.0833777">
        <time>2022-07-04T16:55:30Z</time>
      </trkpt>
      <trkpt lat="42.5306" lon="-1.0832098">
        <time>2022-07-04T16:55:31Z</time>
      </trkpt>
      <trkpt lat="42.53058" lon="-1.0830431">
        <time>2022-07-04T16:55:32Z</time>
      </trkpt>
      <trkpt lat="42.53055" lon="-1.0828785">
        <time>2022-07-04T16:55:33Z</time>
      </trkpt>
      <trkpt lat="42.530514" lon="-1.0827267">
        <time>2022-07-04T16:55:34Z</time>
      </trkpt>
      <trkpt lat="42.53047" lon="-1.0825751">
        <time>2022-07-04T16:55:35Z</time>
      </trkpt>
      <trkpt lat="42.530426" lon="-1.082424">
        <time>2022-07-04T16:55:36Z</time>
      </trkpt>
      <trkpt lat="42.530365" lon="-1.0822655">
        <time>2022-07-04T16:55:37Z</time>
      </trkpt>
      <trkpt lat="42.530304" lon="-1.0821128">
        <time>2022-07-04T16:55:38Z</time>
      </trkpt>
      <trkpt lat="42.53024" lon="-1.0819651">
        <time>2022-07-04T16:55:39Z</time>
      </trkpt>
      <trkpt lat="42.530174" lon="-1.0818305">
        <time>2022-07-04T16:55:40Z</time>
      </trkpt>
      <trkpt lat="42.530106" lon="-1.0816962">
        <time>2022-07-04T16:55:41Z</time>
      </trkpt>
      <trkpt lat="42.53003" lon="-1.0815628">
        <time>2022-07-04T16:55:42Z</time>
      </trkpt>
      <trkpt lat="42.52995" lon="-1.0814298">
        <time>2022-07-04T16:55:43Z</time>
      </trkpt>
      <trkpt lat="42.529865" lon="-1.0812985">
        <time>2022-07-04T16:55:44Z</time>
      </trkpt>
      <trkpt lat="42.529694" lon="-1.0810411">
        <time>2022-07-04T16:55:46Z</time>
      </trkpt>
      <trkpt lat="42.529606" lon="-1.0809141">
        <time>2022-07-04T16:55:47Z</time>
      </trkpt>
      <trkpt lat="42.52951" lon="-1.0807792">
        <time>2022-07-04T16:55:48Z</time>
      </trkpt>
      <trkpt lat="42.52942" lon="-1.0806465">
        <time>2022-07-04T16:55:49Z</time>
      </trkpt>
      <trkpt lat="42.529335" lon="-1.0805128">
        <time>2022-07-04T16:55:50Z</time>
      </trkpt>
      <trkpt lat="42.529255" lon="-1.0803871">
        <time>2022-07-04T16:55:51Z</time>
      </trkpt>
      <trkpt lat="42.52918" lon="-1.0802552">
        <time>2022-07-04T16:55:52Z</time>
      </trkpt>
      <trkpt lat="42.529102" lon="-1.0801095">
        <time>2022-07-04T16:55:53Z</time>
      </trkpt>
      <trkpt lat="42.52903" lon="-1.0799628">
        <time>2022-07-04T16:55:54Z</time>
      </trkpt>
      <trkpt lat="42.528965" lon="-1.0798252">
        <time>2022-07-04T16:55:55Z</time>
      </trkpt>
      <trkpt lat="42.528904" lon="-1.0796819">
        <time>2022-07-04T16:55:56Z</time>
      </trkpt>
      <trkpt lat="42.52885" lon="-1.0795338">
        <time>2022-07-04T16:55:57Z</time>
      </trkpt>
      <trkpt lat="42.5288" lon="-1.0793822">
        <time>2022-07-04T16:55:58Z</time>
      </trkpt>
      <trkpt lat="42.52875" lon="-1.0792155">
        <time>2022-07-04T16:55:59Z</time>
      </trkpt>
      <trkpt lat="42.528713" lon="-1.0790492">
        <time>2022-07-04T16:56:00Z</time>
      </trkpt>
      <trkpt lat="42.52868" lon="-1.0788819">
        <time>2022-07-04T16:56:01Z</time>
      </trkpt>
      <trkpt lat="42.528656" lon="-1.0787145">
        <time>2022-07-04T16:56:02Z</time>
      </trkpt>
      <trkpt lat="42.528637" lon="-1.0785462">
        <time>2022-07-04T16:56:03Z</time>
      </trkpt>
      <trkpt lat="42.52862" lon="-1.0783772">
        <time>2022-07-04T16:56:04Z</time>
      </trkpt>
      <trkpt lat="42.528614" lon="-1.0782075">
        <time>2022-07-04T16:56:05Z</time>
      </trkpt>
      <trkpt lat="42.52861" lon="-1.0780382">
        <time>2022-07-04T16:56:06Z</time>
      </trkpt>
      <trkpt lat="42.52861" lon="-1.0778706">
        <time>2022-07-04T16:56:07Z</time>
      </trkpt>
      <trkpt lat="42.528614" lon="-1.0777036">
        <time>2022-07-04T16:56:08Z</time>
      </trkpt>
      <trkpt lat="42.528625" lon="-1.0775375">
        <time>2022-07-04T16:56:09Z</time>
      </trkpt>
      <trkpt lat="42.52864" lon="-1.0773752">
        <time>2022-07-04T16:56:10Z</time>
      </trkpt>
      <trkpt lat="42.52866" lon="-1.0772156">
        <time>2022-07-04T16:56:11Z</time>
      </trkpt>
      <trkpt lat="42.52868" lon="-1.0770576">
        <time>2022-07-04T16:56:12Z</time>
      </trkpt>
      <trkpt lat="42.5287" lon="-1.0769016">
        <time>2022-07-04T16:56:13Z</time>
      </trkpt>
      <trkpt lat="42.528725" lon="-1.0767462">
        <time>2022-07-04T16:56:14Z</time>
      </trkpt>
      <trkpt lat="42.52875" lon="-1.0765902">
        <time>2022-07-04T16:56:15Z</time>
      </trkpt>
      <trkpt lat="42.528778" lon="-1.0764369">
        <time>2022-07-04T16:56:16Z</time>
      </trkpt>
      <trkpt lat="42.528805" lon="-1.0762852">
        <time>2022-07-04T16:56:17Z</time>
      </trkpt>
      <trkpt lat="42.52883" lon="-1.0761346">
        <time>2022-07-04T16:56:18Z</time>
      </trkpt>
      <trkpt lat="42.52886" lon="-1.0759842">
        <time>2022-07-04T16:56:19Z</time>
      </trkpt>
      <trkpt lat="42.528885" lon="-1.0758352">
        <time>2022-07-04T16:56:20Z</time>
      </trkpt>
      <trkpt lat="42.528908" lon="-1.0756869">
        <time>2022-07-04T16:56:21Z</time>
      </trkpt>
      <trkpt lat="42.52893" lon="-1.0755396">
        <time>2022-07-04T16:56:22Z</time>
      </trkpt>
      <trkpt lat="42.528954" lon="-1.0753926">
        <time>2022-07-04T16:56:23Z</time>
      </trkpt>
      <trkpt lat="42.528976" lon="-1.0752466">
        <time>2022-07-04T16:56:24Z</time>
      </trkpt>
      <trkpt lat="42.529" lon="-1.07511">
        <time>2022-07-04T16:56:25Z</time>
      </trkpt>
      <trkpt lat="42.529026" lon="-1.0749686">
        <time>2022-07-04T16:56:26Z</time>
      </trkpt>
      <trkpt lat="42.529053" lon="-1.0748256">
        <time>2022-07-04T16:56:27Z</time>
      </trkpt>
      <trkpt lat="42.52908" lon="-1.0746809">
        <time>2022-07-04T16:56:28Z</time>
      </trkpt>
      <trkpt lat="42.529102" lon="-1.0745347">
        <time>2022-07-04T16:56:29Z</time>
      </trkpt>
      <trkpt lat="42.52913" lon="-1.0743879">
        <time>2022-07-04T16:56:30Z</time>
      </trkpt>
      <trkpt lat="42.529156" lon="-1.0742393">
        <time>2022-07-04T16:56:31Z</time>
      </trkpt>
      <trkpt lat="42.529186" lon="-1.0740793">
        <time>2022-07-04T16:56:32Z</time>
      </trkpt>
      <trkpt lat="42.529213" lon="-1.0739219">
        <time>2022-07-04T16:56:33Z</time>
      </trkpt>
      <trkpt lat="42.529243" lon="-1.073767">
        <time>2022-07-04T16:56:34Z</time>
      </trkpt>
      <trkpt lat="42.52927" lon="-1.0736129">
        <time>2022-07-04T16:56:35Z</time>
      </trkpt>
      <trkpt lat="42.5293" lon="-1.0734593">
        <time>2022-07-04T16:56:36Z</time>
      </trkpt>
      <trkpt lat="42.529327" lon="-1.0733017">
        <time>2022-07-04T16:56:37Z</time>
      </trkpt>
      <trkpt lat="42.529358" lon="-1.0731403">
        <time>2022-07-04T16:56:38Z</time>
      </trkpt>
      <trkpt lat="42.52939" lon="-1.0729777">
        <time>2022-07-04T16:56:39Z</time>
      </trkpt>
      <trkpt lat="42.52942" lon="-1.0728136">
        <time>2022-07-04T16:56:40Z</time>
      </trkpt>
      <trkpt lat="42.529446" lon="-1.0726466">
        <time>2022-07-04T16:56:41Z</time>
      </trkpt>
      <trkpt lat="42.52947" lon="-1.0724753">
        <time>2022-07-04T16:56:42Z</time>
      </trkpt>
      <trkpt lat="42.529488" lon="-1.0723014">
        <time>2022-07-04T16:56:43Z</time>
      </trkpt>
      <trkpt lat="42.52952" lon="-1.0719466">
        <time>2022-07-04T16:56:45Z</time>
      </trkpt>
      <trkpt lat="42.529522" lon="-1.0717677">
        <time>2022-07-04T16:56:46Z</time>
      </trkpt>
      <trkpt lat="42.529526" lon="-1.0715884">
        <time>2022-07-04T16:56:47Z</time>
      </trkpt>
      <trkpt lat="42.529522" lon="-1.0714107">
        <time>2022-07-04T16:56:48Z</time>
      </trkpt>
      <trkpt lat="42.529514" lon="-1.0712327">
        <time>2022-07-04T16:56:49Z</time>
      </trkpt>
      <trkpt lat="42.529503" lon="-1.0710547">
        <time>2022-07-04T16:56:50Z</time>
      </trkpt>
      <trkpt lat="42.52949" lon="-1.0708771">
        <time>2022-07-04T16:56:51Z</time>
      </trkpt>
      <trkpt lat="42.52948" lon="-1.070699">
        <time>2022-07-04T16:56:52Z</time>
      </trkpt>
      <trkpt lat="42.52947" lon="-1.0705221">
        <time>2022-07-04T16:56:53Z</time>
      </trkpt>
      <trkpt lat="42.529465" lon="-1.0703454">
        <time>2022-07-04T16:56:54Z</time>
      </trkpt>
      <trkpt lat="42.52946" lon="-1.070169">
        <time>2022-07-04T16:56:55Z</time>
      </trkpt>
      <trkpt lat="42.52946" lon="-1.0699927">
        <time>2022-07-04T16:56:56Z</time>
      </trkpt>
      <trkpt lat="42.52947" lon="-1.0698167">
        <time>2022-07-04T16:56:57Z</time>
      </trkpt>
      <trkpt lat="42.529476" lon="-1.0696424">
        <time>2022-07-04T16:56:58Z</time>
      </trkpt>
      <trkpt lat="42.529495" lon="-1.0694704">
        <time>2022-07-04T16:56:59Z</time>
      </trkpt>
      <trkpt lat="42.52952" lon="-1.0693023">
        <time>2022-07-04T16:57:00Z</time>
      </trkpt>
      <trkpt lat="42.529545" lon="-1.0691367">
        <time>2022-07-04T16:57:01Z</time>
      </trkpt>
      <trkpt lat="42.529583" lon="-1.0689744">
        <time>2022-07-04T16:57:02Z</time>
      </trkpt>
      <trkpt lat="42.52962" lon="-1.0688161">
        <time>2022-07-04T16:57:03Z</time>
      </trkpt>
      <trkpt lat="42.529667" lon="-1.068662">
        <time>2022-07-04T16:57:04Z</time>
      </trkpt>
      <trkpt lat="42.529713" lon="-1.0685108">
        <time>2022-07-04T16:57:05Z</time>
      </trkpt>
      <trkpt lat="42.529762" lon="-1.0683651">
        <time>2022-07-04T16:57:06Z</time>
      </trkpt>
      <trkpt lat="42.529816" lon="-1.0682237">
        <time>2022-07-04T16:57:07Z</time>
      </trkpt>
      <trkpt lat="42.529873" lon="-1.0680864">
        <time>2022-07-04T16:57:08Z</time>
      </trkpt>
      <trkpt lat="42.52993" lon="-1.0679524">
        <time>2022-07-04T16:57:09Z</time>
      </trkpt>
      <trkpt lat="42.529987" lon="-1.0678221">
        <time>2022-07-04T16:57:10Z</time>
      </trkpt>
      <trkpt lat="42.530045" lon="-1.067702">
        <time>2022-07-04T16:57:11Z</time>
      </trkpt>
      <trkpt lat="42.5301" lon="-1.0675738">
        <time>2022-07-04T16:57:12Z</time>
      </trkpt>
      <trkpt lat="42.53016" lon="-1.0674474">
        <time>2022-07-04T16:57:13Z</time>
      </trkpt>
      <trkpt lat="42.530212" lon="-1.0673234">
        <time>2022-07-04T16:57:14Z</time>
      </trkpt>
      <trkpt lat="42.53027" lon="-1.0672014">
        <time>2022-07-04T16:57:15Z</time>
      </trkpt>
      <trkpt lat="42.530323" lon="-1.0670791">
        <time>2022-07-04T16:57:16Z</time>
      </trkpt>
      <trkpt lat="42.530376" lon="-1.0669575">
        <time>2022-07-04T16:57:17Z</time>
      </trkpt>
      <trkpt lat="42.530434" lon="-1.066835">
        <time>2022-07-04T16:57:18Z</time>
      </trkpt>
      <trkpt lat="42.53049" lon="-1.0667135">
        <time>2022-07-04T16:57:19Z</time>
      </trkpt>
      <trkpt lat="42.53054" lon="-1.0665997">
        <time>2022-07-04T16:57:20Z</time>
      </trkpt>
      <trkpt lat="42.530594" lon="-1.0664811">
        <time>2022-07-04T16:57:21Z</time>
      </trkpt>
      <trkpt lat="42.530647" lon="-1.0663581">
        <time>2022-07-04T16:57:22Z</time>
      </trkpt>
      <trkpt lat="42.5307" lon="-1.0662324">
        <time>2022-07-04T16:57:23Z</time>
      </trkpt>
      <trkpt lat="42.530758" lon="-1.0661031">
        <time>2022-07-04T16:57:24Z</time>
      </trkpt>
      <trkpt lat="42.53082" lon="-1.0659701">
        <time>2022-07-04T16:57:25Z</time>
      </trkpt>
      <trkpt lat="42.530876" lon="-1.0658344">
        <time>2022-07-04T16:57:26Z</time>
      </trkpt>
      <trkpt lat="42.530937" lon="-1.0656968">
        <time>2022-07-04T16:57:27Z</time>
      </trkpt>
      <trkpt lat="42.531" lon="-1.0655495">
        <time>2022-07-04T16:57:28Z</time>
      </trkpt>
      <trkpt lat="42.531063" lon="-1.0654058">
        <time>2022-07-04T16:57:29Z</time>
      </trkpt>
      <trkpt lat="42.531124" lon="-1.0652639">
        <time>2022-07-04T16:57:30Z</time>
      </trkpt>
      <trkpt lat="42.53118" lon="-1.0651242">
        <time>2022-07-04T16:57:31Z</time>
      </trkpt>
      <trkpt lat="42.531242" lon="-1.0649868">
        <time>2022-07-04T16:57:32Z</time>
      </trkpt>
      <trkpt lat="42.5313" lon="-1.0648521">
        <time>2022-07-04T16:57:33Z</time>
      </trkpt>
      <trkpt lat="42.531357" lon="-1.0647209">
        <time>2022-07-04T16:57:34Z</time>
      </trkpt>
      <trkpt lat="42.531414" lon="-1.0645915">
        <time>2022-07-04T16:57:35Z</time>
      </trkpt>
      <trkpt lat="42.53147" lon="-1.0644642">
        <time>2022-07-04T16:57:36Z</time>
      </trkpt>
      <trkpt lat="42.53153" lon="-1.0643375">
        <time>2022-07-04T16:57:37Z</time>
      </trkpt>
      <trkpt lat="42.531586" lon="-1.0642109">
        <time>2022-07-04T16:57:38Z</time>
      </trkpt>
      <trkpt lat="42.531643" lon="-1.0640825">
        <time>2022-07-04T16:57:39Z</time>
      </trkpt>
      <trkpt lat="42.531704" lon="-1.0639526">
        <time>2022-07-04T16:57:40Z</time>
      </trkpt>
      <trkpt lat="42.53176" lon="-1.0638216">
        <time>2022-07-04T16:57:41Z</time>
      </trkpt>
      <trkpt lat="42.53182" lon="-1.0636898">
        <time>2022-07-04T16:57:42Z</time>
      </trkpt>
      <trkpt lat="42.531876" lon="-1.0635586">
        <time>2022-07-04T16:57:43Z</time>
      </trkpt>
      <trkpt lat="42.531933" lon="-1.0634279">
        <time>2022-07-04T16:57:44Z</time>
      </trkpt>
      <trkpt lat="42.531986" lon="-1.0632972">
        <time>2022-07-04T16:57:45Z</time>
      </trkpt>
      <trkpt lat="42.532043" lon="-1.0631679">
        <time>2022-07-04T16:57:46Z</time>
      </trkpt>
      <trkpt lat="42.5321" lon="-1.0630412">
        <time>2022-07-04T16:57:47Z</time>
      </trkpt>
      <trkpt lat="42.532227" lon="-1.0627952">
        <time>2022-07-04T16:57:49Z</time>
      </trkpt>
      <trkpt lat="42.532295" lon="-1.0626769">
        <time>2022-07-04T16:57:50Z</time>
      </trkpt>
      <trkpt lat="42.532368" lon="-1.0625626">
        <time>2022-07-04T16:57:51Z</time>
      </trkpt>
      <trkpt lat="42.532448" lon="-1.0624529">
        <time>2022-07-04T16:57:52Z</time>
      </trkpt>
      <trkpt lat="42.532528" lon="-1.0623486">
        <time>2022-07-04T16:57:53Z</time>
      </trkpt>
      <trkpt lat="42.532616" lon="-1.0622512">
        <time>2022-07-04T16:57:54Z</time>
      </trkpt>
      <trkpt lat="42.532703" lon="-1.0621623">
        <time>2022-07-04T16:57:55Z</time>
      </trkpt>
      <trkpt lat="42.532795" lon="-1.0620816">
        <time>2022-07-04T16:57:56Z</time>
      </trkpt>
      <trkpt lat="42.532887" lon="-1.0620092">
        <time>2022-07-04T16:57:57Z</time>
      </trkpt>
      <trkpt lat="42.532974" lon="-1.0619493">
        <time>2022-07-04T16:57:58Z</time>
      </trkpt>
      <trkpt lat="42.533066" lon="-1.0618966">
        <time>2022-07-04T16:57:59Z</time>
      </trkpt>
      <trkpt lat="42.533165" lon="-1.0618516">
        <time>2022-07-04T16:58:00Z</time>
      </trkpt>
      <trkpt lat="42.53327" lon="-1.0618156">
        <time>2022-07-04T16:58:01Z</time>
      </trkpt>
      <trkpt lat="42.533375" lon="-1.0617913">
        <time>2022-07-04T16:58:02Z</time>
      </trkpt>
      <trkpt lat="42.533478" lon="-1.061775">
        <time>2022-07-04T16:58:03Z</time>
      </trkpt>
      <trkpt lat="42.53358" lon="-1.0617666">
        <time>2022-07-04T16:58:04Z</time>
      </trkpt>
      <trkpt lat="42.533684" lon="-1.0617672">
        <time>2022-07-04T16:58:05Z</time>
      </trkpt>
      <trkpt lat="42.533787" lon="-1.0617766">
        <time>2022-07-04T16:58:06Z</time>
      </trkpt>
      <trkpt lat="42.53389" lon="-1.0617946">
        <time>2022-07-04T16:58:07Z</time>
      </trkpt>
      <trkpt lat="42.533997" lon="-1.0618216">
        <time>2022-07-04T16:58:08Z</time>
      </trkpt>
      <trkpt lat="42.534107" lon="-1.0618526">
        <time>2022-07-04T16:58:09Z</time>
      </trkpt>
      <trkpt lat="42.534214" lon="-1.0618856">
        <time>2022-07-04T16:58:10Z</time>
      </trkpt>
      <trkpt lat="42.534317" lon="-1.0619209">
        <time>2022-07-04T16:58:11Z</time>
      </trkpt>
      <trkpt lat="42.534412" lon="-1.061955">
        <time>2022-07-04T16:58:12Z</time>
      </trkpt>
      <trkpt lat="42.53451" lon="-1.0619886">
        <time>2022-07-04T16:58:13Z</time>
      </trkpt>
      <trkpt lat="42.534615" lon="-1.0620196">
        <time>2022-07-04T16:58:14Z</time>
      </trkpt>
      <trkpt lat="42.534718" lon="-1.0620435">
        <time>2022-07-04T16:58:15Z</time>
      </trkpt>
      <trkpt lat="42.534817" lon="-1.0620582">
        <time>2022-07-04T16:58:16Z</time>
      </trkpt>
      <trkpt lat="42.53492" lon="-1.0620632">
        <time>2022-07-04T16:58:17Z</time>
      </trkpt>
      <trkpt lat="42.53502" lon="-1.0620576">
        <time>2022-07-04T16:58:18Z</time>
      </trkpt>
      <trkpt lat="42.535122" lon="-1.0620426">
        <time>2022-07-04T16:58:19Z</time>
      </trkpt>
      <trkpt lat="42.53522" lon="-1.0620183">
        <time>2022-07-04T16:58:20Z</time>
      </trkpt>
      <trkpt lat="42.53532" lon="-1.0619836">
        <time>2022-07-04T16:58:21Z</time>
      </trkpt>
      <trkpt lat="42.535416" lon="-1.0619359">
        <time>2022-07-04T16:58:22Z</time>
      </trkpt>
      <trkpt lat="42.535503" lon="-1.0618759">
        <time>2022-07-04T16:58:23Z</time>
      </trkpt>
      <trkpt lat="42.535587" lon="-1.0618047">
        <time>2022-07-04T16:58:24Z</time>
      </trkpt>
      <trkpt lat="42.535667" lon="-1.0617236">
        <time>2022-07-04T16:58:25Z</time>
      </trkpt>
      <trkpt lat="42.53574" lon="-1.0616343">
        <time>2022-07-04T16:58:26Z</time>
      </trkpt>
      <trkpt lat="42.535812" lon="-1.0615366">
        <time>2022-07-04T16:58:27Z</time>
      </trkpt>
      <trkpt lat="42.535873" lon="-1.0614333">
        <time>2022-07-04T16:58:28Z</time>
      </trkpt>
      <trkpt lat="42.535927" lon="-1.0613273">
        <time>2022-07-04T16:58:29Z</time>
      </trkpt>
      <trkpt lat="42.53597" lon="-1.061221">
        <time>2022-07-04T16:58:30Z</time>
      </trkpt>
      <trkpt lat="42.536003" lon="-1.0611173">
        <time>2022-07-04T16:58:31Z</time>
      </trkpt>
      <trkpt lat="42.53603" lon="-1.061021">
        <time>2022-07-04T16:58:32Z</time>
      </trkpt>
      <trkpt lat="42.536053" lon="-1.060933">
        <time>2022-07-04T16:58:33Z</time>
      </trkpt>
      <trkpt lat="42.53607" lon="-1.060854">
        <time>2022-07-04T16:58:34Z</time>
      </trkpt>
      <trkpt lat="42.53609" lon="-1.0607827">
        <time>2022-07-04T16:58:35Z</time>
      </trkpt>
      <trkpt lat="42.536106" lon="-1.0607193">
        <time>2022-07-04T16:58:36Z</time>
      </trkpt>
      <trkpt lat="42.536118" lon="-1.0606652">
        <time>2022-07-04T16:58:37Z</time>
      </trkpt>
      <trkpt lat="42.53613" lon="-1.060579">
        <time>2022-07-04T16:58:39Z</time>
      </trkpt>
      <trkpt lat="42.536133" lon="-1.0605236">
        <time>2022-07-04T16:58:41Z</time>
      </trkpt>
      <trkpt lat="42.536106" lon="-1.0603817">
        <time>2022-07-04T16:59:20Z</time>
      </trkpt>
      <trkpt lat="42.536087" lon="-1.0603106">
        <time>2022-07-04T16:59:23Z</time>
      </trkpt>
      <trkpt lat="42.536068" lon="-1.0602436">
        <time>2022-07-04T16:59:27Z</time>
      </trkpt>
      <trkpt lat="42.536053" lon="-1.0601827">
        <time>2022-07-04T16:59:32Z</time>
      </trkpt>
      <trkpt lat="42.536007" lon="-1.060029">
        <time>2022-07-04T17:00:18Z</time>
      </trkpt>
      <trkpt lat="42.53595" lon="-1.0599196">
        <time>2022-07-04T17:00:20Z</time>
      </trkpt>
      <trkpt lat="42.535915" lon="-1.0598563">
        <time>2022-07-04T17:00:21Z</time>
      </trkpt>
      <trkpt lat="42.535877" lon="-1.0597863">
        <time>2022-07-04T17:00:22Z</time>
      </trkpt>
      <trkpt lat="42.53584" lon="-1.05971">
        <time>2022-07-04T17:00:23Z</time>
      </trkpt>
      <trkpt lat="42.535805" lon="-1.0596317">
        <time>2022-07-04T17:00:24Z</time>
      </trkpt>
      <trkpt lat="42.535774" lon="-1.0595547">
        <time>2022-07-04T17:00:25Z</time>
      </trkpt>
      <trkpt lat="42.53575" lon="-1.0594803">
        <time>2022-07-04T17:00:26Z</time>
      </trkpt>
      <trkpt lat="42.53573" lon="-1.059408">
        <time>2022-07-04T17:00:27Z</time>
      </trkpt>
      <trkpt lat="42.53571" lon="-1.0593344">
        <time>2022-07-04T17:00:28Z</time>
      </trkpt>
      <trkpt lat="42.535698" lon="-1.059259">
        <time>2022-07-04T17:00:29Z</time>
      </trkpt>
      <trkpt lat="42.535686" lon="-1.059181">
        <time>2022-07-04T17:00:30Z</time>
      </trkpt>
      <trkpt lat="42.53568" lon="-1.0591004">
        <time>2022-07-04T17:00:31Z</time>
      </trkpt>
      <trkpt lat="42.53567" lon="-1.059015">
        <time>2022-07-04T17:00:32Z</time>
      </trkpt>
      <trkpt lat="42.535667" lon="-1.0589237">
        <time>2022-07-04T17:00:33Z</time>
      </trkpt>
      <trkpt lat="42.535664" lon="-1.058825">
        <time>2022-07-04T17:00:34Z</time>
      </trkpt>
      <trkpt lat="42.53566" lon="-1.058719">
        <time>2022-07-04T17:00:35Z</time>
      </trkpt>
      <trkpt lat="42.535652" lon="-1.0586094">
        <time>2022-07-04T17:00:36Z</time>
      </trkpt>
      <trkpt lat="42.53564" lon="-1.0584977">
        <time>2022-07-04T17:00:37Z</time>
      </trkpt>
      <trkpt lat="42.535625" lon="-1.0583833">
        <time>2022-07-04T17:00:38Z</time>
      </trkpt>
      <trkpt lat="42.535618" lon="-1.0582747">
        <time>2022-07-04T17:00:39Z</time>
      </trkpt>
      <trkpt lat="42.535618" lon="-1.0581627">
        <time>2022-07-04T17:00:40Z</time>
      </trkpt>
      <trkpt lat="42.53563" lon="-1.0580491">
        <time>2022-07-04T17:00:41Z</time>
      </trkpt>
      <trkpt lat="42.53565" lon="-1.057934">
        <time>2022-07-04T17:00:42Z</time>
      </trkpt>
      <trkpt lat="42.53567" lon="-1.0578175">
        <time>2022-07-04T17:00:43Z</time>
      </trkpt>
      <trkpt lat="42.535694" lon="-1.0577">
        <time>2022-07-04T17:00:44Z</time>
      </trkpt>
      <trkpt lat="42.53572" lon="-1.0575738">
        <time>2022-07-04T17:00:45Z</time>
      </trkpt>
      <trkpt lat="42.53574" lon="-1.0574474">
        <time>2022-07-04T17:00:46Z</time>
      </trkpt>
      <trkpt lat="42.53575" lon="-1.0573214">
        <time>2022-07-04T17:00:47Z</time>
      </trkpt>
      <trkpt lat="42.535748" lon="-1.0571975">
        <time>2022-07-04T17:00:48Z</time>
      </trkpt>
      <trkpt lat="42.53574" lon="-1.0570767">
        <time>2022-07-04T17:00:49Z</time>
      </trkpt>
      <trkpt lat="42.53573" lon="-1.0569594">
        <time>2022-07-04T17:00:50Z</time>
      </trkpt>
      <trkpt lat="42.53572" lon="-1.0568441">
        <time>2022-07-04T17:00:51Z</time>
      </trkpt>
      <trkpt lat="42.535717" lon="-1.0567317">
        <time>2022-07-04T17:00:52Z</time>
      </trkpt>
      <trkpt lat="42.535713" lon="-1.0566198">
        <time>2022-07-04T17:00:53Z</time>
      </trkpt>
      <trkpt lat="42.53571" lon="-1.0565155">
        <time>2022-07-04T17:00:54Z</time>
      </trkpt>
      <trkpt lat="42.535698" lon="-1.0564104">
        <time>2022-07-04T17:00:55Z</time>
      </trkpt>
      <trkpt lat="42.535633" lon="-1.0562087">
        <time>2022-07-04T17:00:57Z</time>
      </trkpt>
      <trkpt lat="42.53558" lon="-1.0561267">
        <time>2022-07-04T17:00:58Z</time>
      </trkpt>
      <trkpt lat="42.53552" lon="-1.0560621">
        <time>2022-07-04T17:00:59Z</time>
      </trkpt>
      <trkpt lat="42.535446" lon="-1.0560127">
        <time>2022-07-04T17:01:00Z</time>
      </trkpt>
      <trkpt lat="42.535362" lon="-1.0559834">
        <time>2022-07-04T17:01:01Z</time>
      </trkpt>
      <trkpt lat="42.535275" lon="-1.0559767">
        <time>2022-07-04T17:01:02Z</time>
      </trkpt>
      <trkpt lat="42.535187" lon="-1.0559938">
        <time>2022-07-04T17:01:03Z</time>
      </trkpt>
      <trkpt lat="42.535103" lon="-1.0560344">
        <time>2022-07-04T17:01:04Z</time>
      </trkpt>
      <trkpt lat="42.53502" lon="-1.0560938">
        <time>2022-07-04T17:01:05Z</time>
      </trkpt>
      <trkpt lat="42.53494" lon="-1.0561631">
        <time>2022-07-04T17:01:06Z</time>
      </trkpt>
      <trkpt lat="42.53486" lon="-1.0562351">
        <time>2022-07-04T17:01:07Z</time>
      </trkpt>
      <trkpt lat="42.53478" lon="-1.0563087">
        <time>2022-07-04T17:01:08Z</time>
      </trkpt>
      <trkpt lat="42.534702" lon="-1.0563848">
        <time>2022-07-04T17:01:09Z</time>
      </trkpt>
      <trkpt lat="42.53463" lon="-1.0564601">
        <time>2022-07-04T17:01:10Z</time>
      </trkpt>
      <trkpt lat="42.53456" lon="-1.0565335">
        <time>2022-07-04T17:01:11Z</time>
      </trkpt>
      <trkpt lat="42.5345" lon="-1.056601">
        <time>2022-07-04T17:01:12Z</time>
      </trkpt>
      <trkpt lat="42.534443" lon="-1.0566587">
        <time>2022-07-04T17:01:13Z</time>
      </trkpt>
      <trkpt lat="42.53439" lon="-1.0567005">
        <time>2022-07-04T17:01:14Z</time>
      </trkpt>
      <trkpt lat="42.534336" lon="-1.0567237">
        <time>2022-07-04T17:01:15Z</time>
      </trkpt>
      <trkpt lat="42.534252" lon="-1.056709">
        <time>2022-07-04T17:01:17Z</time>
      </trkpt>
      <trkpt lat="42.534214" lon="-1.0566365">
        <time>2022-07-04T17:01:19Z</time>
      </trkpt>
      <trkpt lat="42.534233" lon="-1.0565311">
        <time>2022-07-04T17:01:21Z</time>
      </trkpt>
      <trkpt lat="42.534298" lon="-1.0564067">
        <time>2022-07-04T17:01:23Z</time>
      </trkpt>
      <trkpt lat="42.534344" lon="-1.0563375">
        <time>2022-07-04T17:01:24Z</time>
      </trkpt>
      <trkpt lat="42.534397" lon="-1.0562644">
        <time>2022-07-04T17:01:25Z</time>
      </trkpt>
      <trkpt lat="42.534454" lon="-1.0561888">
        <time>2022-07-04T17:01:26Z</time>
      </trkpt>
      <trkpt lat="42.534515" lon="-1.0561107">
        <time>2022-07-04T17:01:27Z</time>
      </trkpt>
      <trkpt lat="42.534584" lon="-1.0560291">
        <time>2022-07-04T17:01:28Z</time>
      </trkpt>
      <trkpt lat="42.534653" lon="-1.0559381">
        <time>2022-07-04T17:01:29Z</time>
      </trkpt>
      <trkpt lat="42.534725" lon="-1.0558457">
        <time>2022-07-04T17:01:30Z</time>
      </trkpt>
      <trkpt lat="42.534794" lon="-1.0557514">
        <time>2022-07-04T17:01:31Z</time>
      </trkpt>
      <trkpt lat="42.53487" lon="-1.0556558">
        <time>2022-07-04T17:01:32Z</time>
      </trkpt>
      <trkpt lat="42.534943" lon="-1.0555595">
        <time>2022-07-04T17:01:33Z</time>
      </trkpt>
      <trkpt lat="42.535023" lon="-1.0554612">
        <time>2022-07-04T17:01:34Z</time>
      </trkpt>
      <trkpt lat="42.5351" lon="-1.0553615">
        <time>2022-07-04T17:01:35Z</time>
      </trkpt>
      <trkpt lat="42.535183" lon="-1.0552598">
        <time>2022-07-04T17:01:36Z</time>
      </trkpt>
      <trkpt lat="42.53526" lon="-1.0551624">
        <time>2022-07-04T17:01:37Z</time>
      </trkpt>
      <trkpt lat="42.535343" lon="-1.0550588">
        <time>2022-07-04T17:01:38Z</time>
      </trkpt>
      <trkpt lat="42.53543" lon="-1.0549445">
        <time>2022-07-04T17:01:39Z</time>
      </trkpt>
      <trkpt lat="42.53552" lon="-1.0548298">
        <time>2022-07-04T17:01:40Z</time>
      </trkpt>
      <trkpt lat="42.535606" lon="-1.0547144">
        <time>2022-07-04T17:01:41Z</time>
      </trkpt>
      <trkpt lat="42.535698" lon="-1.0545988">
        <time>2022-07-04T17:01:42Z</time>
      </trkpt>
      <trkpt lat="42.535786" lon="-1.0544811">
        <time>2022-07-04T17:01:43Z</time>
      </trkpt>
      <trkpt lat="42.535877" lon="-1.0543615">
        <time>2022-07-04T17:01:44Z</time>
      </trkpt>
      <trkpt lat="42.535965" lon="-1.0542402">
        <time>2022-07-04T17:01:45Z</time>
      </trkpt>
      <trkpt lat="42.536053" lon="-1.0541168">
        <time>2022-07-04T17:01:46Z</time>
      </trkpt>
      <trkpt lat="42.536137" lon="-1.0539899">
        <time>2022-07-04T17:01:47Z</time>
      </trkpt>
      <trkpt lat="42.53621" lon="-1.0538685">
        <time>2022-07-04T17:01:48Z</time>
      </trkpt>
      <trkpt lat="42.536278" lon="-1.0537312">
        <time>2022-07-04T17:01:49Z</time>
      </trkpt>
      <trkpt lat="42.536343" lon="-1.0535932">
        <time>2022-07-04T17:01:50Z</time>
      </trkpt>
      <trkpt lat="42.536404" lon="-1.0534556">
        <time>2022-07-04T17:01:51Z</time>
      </trkpt>
      <trkpt lat="42.536457" lon="-1.0533189">
        <time>2022-07-04T17:01:52Z</time>
      </trkpt>
      <trkpt lat="42.536503" lon="-1.0531923">
        <time>2022-07-04T17:01:53Z</time>
      </trkpt>
      <trkpt lat="42.53655" lon="-1.0530566">
        <time>2022-07-04T17:01:54Z</time>
      </trkpt>
      <trkpt lat="42.53659" lon="-1.0529239">
        <time>2022-07-04T17:01:55Z</time>
      </trkpt>
      <trkpt lat="42.536633" lon="-1.0527946">
        <time>2022-07-04T17:01:56Z</time>
      </trkpt>
      <trkpt lat="42.53667" lon="-1.0526712">
        <time>2022-07-04T17:01:57Z</time>
      </trkpt>
      <trkpt lat="42.536713" lon="-1.0525546">
        <time>2022-07-04T17:01:58Z</time>
      </trkpt>
      <trkpt lat="42.536755" lon="-1.0524433">
        <time>2022-07-04T17:01:59Z</time>
      </trkpt>
      <trkpt lat="42.536797" lon="-1.0523379">
        <time>2022-07-04T17:02:00Z</time>
      </trkpt>
      <trkpt lat="42.536835" lon="-1.0522376">
        <time>2022-07-04T17:02:01Z</time>
      </trkpt>
      <trkpt lat="42.53692" lon="-1.0520532">
        <time>2022-07-04T17:02:03Z</time>
      </trkpt>
      <trkpt lat="42.53696" lon="-1.051968">
        <time>2022-07-04T17:02:04Z</time>
      </trkpt>
      <trkpt lat="42.537003" lon="-1.0518873">
        <time>2022-07-04T17:02:05Z</time>
      </trkpt>
      <trkpt lat="42.53704" lon="-1.0518099">
        <time>2022-07-04T17:02:06Z</time>
      </trkpt>
      <trkpt lat="42.537083" lon="-1.0517343">
        <time>2022-07-04T17:02:07Z</time>
      </trkpt>
      <trkpt lat="42.53712" lon="-1.0516607">
        <time>2022-07-04T17:02:08Z</time>
      </trkpt>
      <trkpt lat="42.537155" lon="-1.051594">
        <time>2022-07-04T17:02:09Z</time>
      </trkpt>
      <trkpt lat="42.53719" lon="-1.051526">
        <time>2022-07-04T17:02:10Z</time>
      </trkpt>
      <trkpt lat="42.537224" lon="-1.0514547">
        <time>2022-07-04T17:02:11Z</time>
      </trkpt>
      <trkpt lat="42.53726" lon="-1.051386">
        <time>2022-07-04T17:02:12Z</time>
      </trkpt>
      <trkpt lat="42.53729" lon="-1.051324">
        <time>2022-07-04T17:02:13Z</time>
      </trkpt>
      <trkpt lat="42.537323" lon="-1.0512626">
        <time>2022-07-04T17:02:14Z</time>
      </trkpt>
      <trkpt lat="42.537354" lon="-1.0511984">
        <time>2022-07-04T17:02:15Z</time>
      </trkpt>
      <trkpt lat="42.53738" lon="-1.051136">
        <time>2022-07-04T17:02:16Z</time>
      </trkpt>
      <trkpt lat="42.537407" lon="-1.0510757">
        <time>2022-07-04T17:02:17Z</time>
      </trkpt>
      <trkpt lat="42.537434" lon="-1.051016">
        <time>2022-07-04T17:02:18Z</time>
      </trkpt>
      <trkpt lat="42.537457" lon="-1.0509573">
        <time>2022-07-04T17:02:19Z</time>
      </trkpt>
      <trkpt lat="42.537502" lon="-1.0508454">
        <time>2022-07-04T17:02:21Z</time>
      </trkpt>
      <trkpt lat="42.53752" lon="-1.050789">
        <time>2022-07-04T17:02:22Z</time>
      </trkpt>
      <trkpt lat="42.53756" lon="-1.0506806">
        <time>2022-07-04T17:02:24Z</time>
      </trkpt>
      <trkpt lat="42.53759" lon="-1.0505674">
        <time>2022-07-04T17:02:26Z</time>
      </trkpt>
      <trkpt lat="42.537617" lon="-1.0504596">
        <time>2022-07-04T17:02:28Z</time>
      </trkpt>
      <trkpt lat="42.53764" lon="-1.0503583">
        <time>2022-07-04T17:02:30Z</time>
      </trkpt>
      <trkpt lat="42.53766" lon="-1.0502543">
        <time>2022-07-04T17:02:32Z</time>
      </trkpt>
      <trkpt lat="42.537674" lon="-1.0501584">
        <time>2022-07-04T17:02:34Z</time>
      </trkpt>
      <trkpt lat="42.537685" lon="-1.0500604">
        <time>2022-07-04T17:02:36Z</time>
      </trkpt>
      <trkpt lat="42.537693" lon="-1.0499576">
        <time>2022-07-04T17:02:38Z</time>
      </trkpt>
      <trkpt lat="42.5377" lon="-1.049863">
        <time>2022-07-04T17:02:40Z</time>
      </trkpt>
      <trkpt lat="42.5377" lon="-1.0497733">
        <time>2022-07-04T17:02:42Z</time>
      </trkpt>
      <trkpt lat="42.537704" lon="-1.0496824">
        <time>2022-07-04T17:02:44Z</time>
      </trkpt>
      <trkpt lat="42.5377" lon="-1.0495954">
        <time>2022-07-04T17:02:46Z</time>
      </trkpt>
      <trkpt lat="42.5377" lon="-1.0495081">
        <time>2022-07-04T17:02:48Z</time>
      </trkpt>
      <trkpt lat="42.5377" lon="-1.04942">
        <time>2022-07-04T17:02:50Z</time>
      </trkpt>
      <trkpt lat="42.537693" lon="-1.0493333">
        <time>2022-07-04T17:02:52Z</time>
      </trkpt>
      <trkpt lat="42.537685" lon="-1.04925">
        <time>2022-07-04T17:02:54Z</time>
      </trkpt>
      <trkpt lat="42.537678" lon="-1.0491717">
        <time>2022-07-04T17:02:56Z</time>
      </trkpt>
      <trkpt lat="42.537666" lon="-1.049093">
        <time>2022-07-04T17:02:58Z</time>
      </trkpt>
      <trkpt lat="42.53766" lon="-1.0490117">
        <time>2022-07-04T17:03:00Z</time>
      </trkpt>
      <trkpt lat="42.537647" lon="-1.0489311">
        <time>2022-07-04T17:03:02Z</time>
      </trkpt>
      <trkpt lat="42.537632" lon="-1.048853">
        <time>2022-07-04T17:03:04Z</time>
      </trkpt>
      <trkpt lat="42.537617" lon="-1.0487797">
        <time>2022-07-04T17:03:06Z</time>
      </trkpt>
      <trkpt lat="42.537598" lon="-1.048701">
        <time>2022-07-04T17:03:08Z</time>
      </trkpt>
      <trkpt lat="42.537582" lon="-1.0486227">
        <time>2022-07-04T17:03:10Z</time>
      </trkpt>
      <trkpt lat="42.537563" lon="-1.0485471">
        <time>2022-07-04T17:03:12Z</time>
      </trkpt>
      <trkpt lat="42.537544" lon="-1.0484701">
        <time>2022-07-04T17:03:14Z</time>
      </trkpt>
      <trkpt lat="42.53752" lon="-1.048395">
        <time>2022-07-04T17:03:16Z</time>
      </trkpt>
      <trkpt lat="42.537502" lon="-1.0483215">
        <time>2022-07-04T17:03:18Z</time>
      </trkpt>
      <trkpt lat="42.537483" lon="-1.0482461">
        <time>2022-07-04T17:03:20Z</time>
      </trkpt>
      <trkpt lat="42.53746" lon="-1.0481747">
        <time>2022-07-04T17:03:22Z</time>
      </trkpt>
      <trkpt lat="42.537434" lon="-1.0480975">
        <time>2022-07-04T17:03:24Z</time>
      </trkpt>
      <trkpt lat="42.537407" lon="-1.0480235">
        <time>2022-07-04T17:03:26Z</time>
      </trkpt>
      <trkpt lat="42.537384" lon="-1.0479498">
        <time>2022-07-04T17:03:28Z</time>
      </trkpt>
      <trkpt lat="42.53736" lon="-1.0478752">
        <time>2022-07-04T17:03:30Z</time>
      </trkpt>
      <trkpt lat="42.537334" lon="-1.0478075">
        <time>2022-07-04T17:03:32Z</time>
      </trkpt>
      <trkpt lat="42.537308" lon="-1.0477362">
        <time>2022-07-04T17:03:34Z</time>
      </trkpt>
      <trkpt lat="42.53728" lon="-1.0476651">
        <time>2022-07-04T17:03:36Z</time>
      </trkpt>
      <trkpt lat="42.53726" lon="-1.0475975">
        <time>2022-07-04T17:03:38Z</time>
      </trkpt>
      <trkpt lat="42.53723" lon="-1.0475324">
        <time>2022-07-04T17:03:40Z</time>
      </trkpt>
      <trkpt lat="42.537205" lon="-1.0474448">
        <time>2022-07-04T17:03:43Z</time>
      </trkpt>
      <trkpt lat="42.537174" lon="-1.0473602">
        <time>2022-07-04T17:03:46Z</time>
      </trkpt>
      <trkpt lat="42.537148" lon="-1.0472798">
        <time>2022-07-04T17:03:49Z</time>
      </trkpt>
      <trkpt lat="42.537117" lon="-1.0472002">
        <time>2022-07-04T17:03:52Z</time>
      </trkpt>
      <trkpt lat="42.537086" lon="-1.0471251">
        <time>2022-07-04T17:03:55Z</time>
      </trkpt>
      <trkpt lat="42.537056" lon="-1.0470521">
        <time>2022-07-04T17:03:58Z</time>
      </trkpt>
      <trkpt lat="42.537025" lon="-1.0469738">
        <time>2022-07-04T17:04:01Z</time>
      </trkpt>
      <trkpt lat="42.536995" lon="-1.0468962">
        <time>2022-07-04T17:04:04Z</time>
      </trkpt>
      <trkpt lat="42.53696" lon="-1.0468138">
        <time>2022-07-04T17:04:07Z</time>
      </trkpt>
      <trkpt lat="42.53692" lon="-1.0467068">
        <time>2022-07-04T17:04:11Z</time>
      </trkpt>
      <trkpt lat="42.536892" lon="-1.0466331">
        <time>2022-07-04T17:04:14Z</time>
      </trkpt>
      <trkpt lat="42.536896" lon="-1.0465639">
        <time>2022-07-04T17:04:17Z</time>
      </trkpt>
      <trkpt lat="42.536915" lon="-1.0464898">
        <time>2022-07-04T17:04:21Z</time>
      </trkpt>
      <trkpt lat="42.536884" lon="-1.0464295">
        <time>2022-07-04T17:06:06Z</time>
      </trkpt>
      <trkpt lat="42.53684" lon="-1.0463892">
        <time>2022-07-04T17:06:09Z</time>
      </trkpt>
      <trkpt lat="42.536797" lon="-1.0463265">
        <time>2022-07-04T17:06:12Z</time>
      </trkpt>
      <trkpt lat="42.536755" lon="-1.0462512">
        <time>2022-07-04T17:06:15Z</time>
      </trkpt>
      <trkpt lat="42.53672" lon="-1.0461686">
        <time>2022-07-04T17:06:18Z</time>
      </trkpt>
      <trkpt lat="42.53669" lon="-1.0460812">
        <time>2022-07-04T17:06:21Z</time>
      </trkpt>
      <trkpt lat="42.536667" lon="-1.0459982">
        <time>2022-07-04T17:06:24Z</time>
      </trkpt>
      <trkpt lat="42.536636" lon="-1.0459175">
        <time>2022-07-04T17:06:27Z</time>
      </trkpt>
      <trkpt lat="42.536602" lon="-1.0458289">
        <time>2022-07-04T17:06:30Z</time>
      </trkpt>
      <trkpt lat="42.536575" lon="-1.0457416">
        <time>2022-07-04T17:06:33Z</time>
      </trkpt>
      <trkpt lat="42.536552" lon="-1.0456566">
        <time>2022-07-04T17:06:36Z</time>
      </trkpt>
      <trkpt lat="42.536526" lon="-1.0455599">
        <time>2022-07-04T17:06:39Z</time>
      </trkpt>
      <trkpt lat="42.536507" lon="-1.0454953">
        <time>2022-07-04T17:06:41Z</time>
      </trkpt>
      <trkpt lat="42.53648" lon="-1.0454292">
        <time>2022-07-04T17:06:43Z</time>
      </trkpt>
      <trkpt lat="42.53646" lon="-1.0453602">
        <time>2022-07-04T17:06:45Z</time>
      </trkpt>
      <trkpt lat="42.53644" lon="-1.045291">
        <time>2022-07-04T17:06:47Z</time>
      </trkpt>
      <trkpt lat="42.536423" lon="-1.0452223">
        <time>2022-07-04T17:06:49Z</time>
      </trkpt>
      <trkpt lat="42.5364" lon="-1.0451583">
        <time>2022-07-04T17:06:51Z</time>
      </trkpt>
      <trkpt lat="42.536377" lon="-1.0450943">
        <time>2022-07-04T17:06:53Z</time>
      </trkpt>
      <trkpt lat="42.536343" lon="-1.0450042">
        <time>2022-07-04T17:06:56Z</time>
      </trkpt>
      <trkpt lat="42.53632" lon="-1.0449399">
        <time>2022-07-04T17:06:58Z</time>
      </trkpt>
      <trkpt lat="42.536293" lon="-1.0448712">
        <time>2022-07-04T17:07:00Z</time>
      </trkpt>
      <trkpt lat="42.536274" lon="-1.0448036">
        <time>2022-07-04T17:07:02Z</time>
      </trkpt>
      <trkpt lat="42.53626" lon="-1.0447359">
        <time>2022-07-04T17:07:04Z</time>
      </trkpt>
      <trkpt lat="42.536243" lon="-1.0446743">
        <time>2022-07-04T17:07:06Z</time>
      </trkpt>
      <trkpt lat="42.536217" lon="-1.0445706">
        <time>2022-07-04T17:07:09Z</time>
      </trkpt>
      <trkpt lat="42.536194" lon="-1.0445013">
        <time>2022-07-04T17:07:11Z</time>
      </trkpt>
      <trkpt lat="42.53617" lon="-1.044436">
        <time>2022-07-04T17:07:13Z</time>
      </trkpt>
      <trkpt lat="42.536148" lon="-1.0443699">
        <time>2022-07-04T17:07:15Z</time>
      </trkpt>
      <trkpt lat="42.536106" lon="-1.0442356">
        <time>2022-07-04T17:07:19Z</time>
      </trkpt>
      <trkpt lat="42.536083" lon="-1.0441716">
        <time>2022-07-04T17:07:21Z</time>
      </trkpt>
      <trkpt lat="42.536045" lon="-1.0440767">
        <time>2022-07-04T17:07:24Z</time>
      </trkpt>
      <trkpt lat="42.536022" lon="-1.0440136">
        <time>2022-07-04T17:07:26Z</time>
      </trkpt>
      <trkpt lat="42.536003" lon="-1.0439503">
        <time>2022-07-04T17:07:28Z</time>
      </trkpt>
      <trkpt lat="42.535976" lon="-1.043883">
        <time>2022-07-04T17:07:30Z</time>
      </trkpt>
      <trkpt lat="42.535957" lon="-1.0438213">
        <time>2022-07-04T17:07:32Z</time>
      </trkpt>
      <trkpt lat="42.535923" lon="-1.0437267">
        <time>2022-07-04T17:07:35Z</time>
      </trkpt>
      <trkpt lat="42.535896" lon="-1.043662">
        <time>2022-07-04T17:07:37Z</time>
      </trkpt>
      <trkpt lat="42.535873" lon="-1.0435973">
        <time>2022-07-04T17:07:39Z</time>
      </trkpt>
      <trkpt lat="42.535854" lon="-1.0435317">
        <time>2022-07-04T17:07:41Z</time>
      </trkpt>
      <trkpt lat="42.535835" lon="-1.043468">
        <time>2022-07-04T17:07:43Z</time>
      </trkpt>
      <trkpt lat="42.5358" lon="-1.043372">
        <time>2022-07-04T17:07:46Z</time>
      </trkpt>
      <trkpt lat="42.53578" lon="-1.0433104">
        <time>2022-07-04T17:07:48Z</time>
      </trkpt>
      <trkpt lat="42.53575" lon="-1.04321">
        <time>2022-07-04T17:07:51Z</time>
      </trkpt>
      <trkpt lat="42.53573" lon="-1.0431437">
        <time>2022-07-04T17:07:53Z</time>
      </trkpt>
      <trkpt lat="42.53571" lon="-1.0430744">
        <time>2022-07-04T17:07:55Z</time>
      </trkpt>
      <trkpt lat="42.53569" lon="-1.0430057">
        <time>2022-07-04T17:07:57Z</time>
      </trkpt>
      <trkpt lat="42.535675" lon="-1.0429374">
        <time>2022-07-04T17:07:59Z</time>
      </trkpt>
      <trkpt lat="42.53566" lon="-1.0428697">
        <time>2022-07-04T17:08:01Z</time>
      </trkpt>
      <trkpt lat="42.53565" lon="-1.0427997">
        <time>2022-07-04T17:08:03Z</time>
      </trkpt>
      <trkpt lat="42.535637" lon="-1.042731">
        <time>2022-07-04T17:08:05Z</time>
      </trkpt>
      <trkpt lat="42.535625" lon="-1.0426581">
        <time>2022-07-04T17:08:07Z</time>
      </trkpt>
      <trkpt lat="42.535618" lon="-1.0425874">
        <time>2022-07-04T17:08:09Z</time>
      </trkpt>
      <trkpt lat="42.535614" lon="-1.0425161">
        <time>2022-07-04T17:08:11Z</time>
      </trkpt>
      <trkpt lat="42.53561" lon="-1.0424421">
        <time>2022-07-04T17:08:13Z</time>
      </trkpt>
      <trkpt lat="42.535606" lon="-1.0423634">
        <time>2022-07-04T17:08:15Z</time>
      </trkpt>
      <trkpt lat="42.535603" lon="-1.042283">
        <time>2022-07-04T17:08:17Z</time>
      </trkpt>
      <trkpt lat="42.5356" lon="-1.0422007">
        <time>2022-07-04T17:08:19Z</time>
      </trkpt>
      <trkpt lat="42.5356" lon="-1.0421171">
        <time>2022-07-04T17:08:21Z</time>
      </trkpt>
      <trkpt lat="42.5356" lon="-1.0419874">
        <time>2022-07-04T17:08:24Z</time>
      </trkpt>
      <trkpt lat="42.535603" lon="-1.0419008">
        <time>2022-07-04T17:08:26Z</time>
      </trkpt>
      <trkpt lat="42.535606" lon="-1.0418141">
        <time>2022-07-04T17:08:28Z</time>
      </trkpt>
      <trkpt lat="42.53561" lon="-1.0417261">
        <time>2022-07-04T17:08:30Z</time>
      </trkpt>
      <trkpt lat="42.535618" lon="-1.0416378">
        <time>2022-07-04T17:08:32Z</time>
      </trkpt>
      <trkpt lat="42.535625" lon="-1.0415491">
        <time>2022-07-04T17:08:34Z</time>
      </trkpt>
      <trkpt lat="42.535633" lon="-1.0414578">
        <time>2022-07-04T17:08:36Z</time>
      </trkpt>
      <trkpt lat="42.53565" lon="-1.0413638">
        <time>2022-07-04T17:08:38Z</time>
      </trkpt>
      <trkpt lat="42.53566" lon="-1.0412664">
        <time>2022-07-04T17:08:40Z</time>
      </trkpt>
      <trkpt lat="42.535675" lon="-1.0411675">
        <time>2022-07-04T17:08:42Z</time>
      </trkpt>
      <trkpt lat="42.535694" lon="-1.0410688">
        <time>2022-07-04T17:08:44Z</time>
      </trkpt>
      <trkpt lat="42.535713" lon="-1.0409671">
        <time>2022-07-04T17:08:46Z</time>
      </trkpt>
      <trkpt lat="42.53573" lon="-1.0408645">
        <time>2022-07-04T17:08:48Z</time>
      </trkpt>
      <trkpt lat="42.535744" lon="-1.0407615">
        <time>2022-07-04T17:08:50Z</time>
      </trkpt>
      <trkpt lat="42.535755" lon="-1.0406568">
        <time>2022-07-04T17:08:52Z</time>
      </trkpt>
      <trkpt lat="42.535767" lon="-1.0405471">
        <time>2022-07-04T17:08:54Z</time>
      </trkpt>
      <trkpt lat="42.535778" lon="-1.0404358">
        <time>2022-07-04T17:08:56Z</time>
      </trkpt>
      <trkpt lat="42.535786" lon="-1.0403311">
        <time>2022-07-04T17:08:58Z</time>
      </trkpt>
      <trkpt lat="42.53579" lon="-1.0402209">
        <time>2022-07-04T17:09:00Z</time>
      </trkpt>
      <trkpt lat="42.53579" lon="-1.0400995">
        <time>2022-07-04T17:09:02Z</time>
      </trkpt>
      <trkpt lat="42.535786" lon="-1.0399911">
        <time>2022-07-04T17:09:04Z</time>
      </trkpt>
      <trkpt lat="42.535778" lon="-1.0398762">
        <time>2022-07-04T17:09:06Z</time>
      </trkpt>
      <trkpt lat="42.53577" lon="-1.0397645">
        <time>2022-07-04T17:09:08Z</time>
      </trkpt>
      <trkpt lat="42.535763" lon="-1.0396506">
        <time>2022-07-04T17:09:10Z</time>
      </trkpt>
      <trkpt lat="42.535744" lon="-1.0395305">
        <time>2022-07-04T17:09:12Z</time>
      </trkpt>
      <trkpt lat="42.53573" lon="-1.0394201">
        <time>2022-07-04T17:09:14Z</time>
      </trkpt>
      <trkpt lat="42.535706" lon="-1.0393045">
        <time>2022-07-04T17:09:16Z</time>
      </trkpt>
      <trkpt lat="42.535683" lon="-1.0391932">
        <time>2022-07-04T17:09:18Z</time>
      </trkpt>
      <trkpt lat="42.535656" lon="-1.0390825">
        <time>2022-07-04T17:09:20Z</time>
      </trkpt>
      <trkpt lat="42.535625" lon="-1.0389669">
        <time>2022-07-04T17:09:22Z</time>
      </trkpt>
      <trkpt lat="42.535587" lon="-1.0388592">
        <time>2022-07-04T17:09:24Z</time>
      </trkpt>
      <trkpt lat="42.53555" lon="-1.0387548">
        <time>2022-07-04T17:09:26Z</time>
      </trkpt>
      <trkpt lat="42.535503" lon="-1.0386522">
        <time>2022-07-04T17:09:28Z</time>
      </trkpt>
      <trkpt lat="42.535454" lon="-1.0385503">
        <time>2022-07-04T17:09:30Z</time>
      </trkpt>
      <trkpt lat="42.535408" lon="-1.0384492">
        <time>2022-07-04T17:09:32Z</time>
      </trkpt>
      <trkpt lat="42.53534" lon="-1.0383219">
        <time>2022-07-04T17:09:35Z</time>
      </trkpt>
      <trkpt lat="42.535305" lon="-1.0382679">
        <time>2022-07-04T17:09:36Z</time>
      </trkpt>
      <trkpt lat="42.535275" lon="-1.0382142">
        <time>2022-07-04T17:09:37Z</time>
      </trkpt>
      <trkpt lat="42.535213" lon="-1.0381219">
        <time>2022-07-04T17:09:39Z</time>
      </trkpt>
      <trkpt lat="42.535156" lon="-1.0380359">
        <time>2022-07-04T17:09:41Z</time>
      </trkpt>
      <trkpt lat="42.53509" lon="-1.0379496">
        <time>2022-07-04T17:09:43Z</time>
      </trkpt>
      <trkpt lat="42.53503" lon="-1.0378705">
        <time>2022-07-04T17:09:45Z</time>
      </trkpt>
      <trkpt lat="42.53497" lon="-1.0377969">
        <time>2022-07-04T17:09:47Z</time>
      </trkpt>
      <trkpt lat="42.53491" lon="-1.0377269">
        <time>2022-07-04T17:09:49Z</time>
      </trkpt>
      <trkpt lat="42.53485" lon="-1.0376645">
        <time>2022-07-04T17:09:51Z</time>
      </trkpt>
      <trkpt lat="42.534798" lon="-1.0376086">
        <time>2022-07-04T17:09:53Z</time>
      </trkpt>
      <trkpt lat="42.53475" lon="-1.0375582">
        <time>2022-07-04T17:09:55Z</time>
      </trkpt>
      <trkpt lat="42.534702" lon="-1.0375116">
        <time>2022-07-04T17:09:57Z</time>
      </trkpt>
      <trkpt lat="42.534664" lon="-1.0374693">
        <time>2022-07-04T17:09:59Z</time>
      </trkpt>
      <trkpt lat="42.534626" lon="-1.0374309">
        <time>2022-07-04T17:10:01Z</time>
      </trkpt>
      <trkpt lat="42.534573" lon="-1.037375">
        <time>2022-07-04T17:10:04Z</time>
      </trkpt>
      <trkpt lat="42.534523" lon="-1.0373223">
        <time>2022-07-04T17:10:07Z</time>
      </trkpt>
      <trkpt lat="42.534473" lon="-1.037264">
        <time>2022-07-04T17:10:10Z</time>
      </trkpt>
      <trkpt lat="42.534424" lon="-1.037208">
        <time>2022-07-04T17:10:13Z</time>
      </trkpt>
      <trkpt lat="42.534378" lon="-1.0371493">
        <time>2022-07-04T17:10:16Z</time>
      </trkpt>
      <trkpt lat="42.534332" lon="-1.0370859">
        <time>2022-07-04T17:10:19Z</time>
      </trkpt>
      <trkpt lat="42.534286" lon="-1.0370283">
        <time>2022-07-04T17:10:22Z</time>
      </trkpt>
      <trkpt lat="42.53425" lon="-1.036974">
        <time>2022-07-04T17:10:25Z</time>
      </trkpt>
      <trkpt lat="42.53421" lon="-1.036915">
        <time>2022-07-04T17:10:28Z</time>
      </trkpt>
      <trkpt lat="42.534172" lon="-1.0368583">
        <time>2022-07-04T17:10:31Z</time>
      </trkpt>
      <trkpt lat="42.534126" lon="-1.0367973">
        <time>2022-07-04T17:10:35Z</time>
      </trkpt>
      <trkpt lat="42.534084" lon="-1.0367346">
        <time>2022-07-04T17:10:39Z</time>
      </trkpt>
      <trkpt lat="42.534058" lon="-1.0366846">
        <time>2022-07-04T17:10:42Z</time>
      </trkpt>
      <trkpt lat="42.53402" lon="-1.036623">
        <time>2022-07-04T17:10:46Z</time>
      </trkpt>
      <trkpt lat="42.53398" lon="-1.0365599">
        <time>2022-07-04T17:10:50Z</time>
      </trkpt>
      <trkpt lat="42.533947" lon="-1.0364946">
        <time>2022-07-04T17:10:54Z</time>
      </trkpt>
      <trkpt lat="42.53391" lon="-1.0364267">
        <time>2022-07-04T17:10:58Z</time>
      </trkpt>
      <trkpt lat="42.533875" lon="-1.036358">
        <time>2022-07-04T17:11:02Z</time>
      </trkpt>
      <trkpt lat="42.53384" lon="-1.0362936">
        <time>2022-07-04T17:11:06Z</time>
      </trkpt>
      <trkpt lat="42.533813" lon="-1.036251">
        <time>2022-07-04T17:11:11Z</time>
      </trkpt>
      <trkpt lat="42.53381" lon="-1.0362084">
        <time>2022-07-04T17:12:51Z</time>
      </trkpt>
      <trkpt lat="42.53379" lon="-1.0361333">
        <time>2022-07-04T17:12:54Z</time>
      </trkpt>
      <trkpt lat="42.533768" lon="-1.0360514">
        <time>2022-07-04T17:12:57Z</time>
      </trkpt>
      <trkpt lat="42.533745" lon="-1.0359807">
        <time>2022-07-04T17:13:00Z</time>
      </trkpt>
      <trkpt lat="42.533726" lon="-1.0359204">
        <time>2022-07-04T17:13:03Z</time>
      </trkpt>
      <trkpt lat="42.5337" lon="-1.03584">
        <time>2022-07-04T17:13:07Z</time>
      </trkpt>
      <trkpt lat="42.53367" lon="-1.03576">
        <time>2022-07-04T17:13:11Z</time>
      </trkpt>
      <trkpt lat="42.533653" lon="-1.0356951">
        <time>2022-07-04T17:13:14Z</time>
      </trkpt>
      <trkpt lat="42.53363" lon="-1.035629">
        <time>2022-07-04T17:13:17Z</time>
      </trkpt>
      <trkpt lat="42.53361" lon="-1.0355663">
        <time>2022-07-04T17:13:20Z</time>
      </trkpt>
      <trkpt lat="42.533592" lon="-1.03548">
        <time>2022-07-04T17:13:24Z</time>
      </trkpt>
      <trkpt lat="42.533573" lon="-1.0354171">
        <time>2022-07-04T17:13:27Z</time>
      </trkpt>
      <trkpt lat="42.533554" lon="-1.035333">
        <time>2022-07-04T17:13:31Z</time>
      </trkpt>
      <trkpt lat="42.53354" lon="-1.035243">
        <time>2022-07-04T17:13:35Z</time>
      </trkpt>
      <trkpt lat="42.533516" lon="-1.035179">
        <time>2022-07-04T17:13:38Z</time>
      </trkpt>
      <trkpt lat="42.533497" lon="-1.035118">
        <time>2022-07-04T17:13:41Z</time>
      </trkpt>
      <trkpt lat="42.533478" lon="-1.0350313">
        <time>2022-07-04T17:13:45Z</time>
      </trkpt>
      <trkpt lat="42.533466" lon="-1.0349637">
        <time>2022-07-04T17:13:48Z</time>
      </trkpt>
      <trkpt lat="42.53345" lon="-1.0348957">
        <time>2022-07-04T17:13:51Z</time>
      </trkpt>
      <trkpt lat="42.53343" lon="-1.0348144">
        <time>2022-07-04T17:13:55Z</time>
      </trkpt>
      <trkpt lat="42.5334" lon="-1.0347294">
        <time>2022-07-04T17:13:59Z</time>
      </trkpt>
      <trkpt lat="42.533382" lon="-1.0346607">
        <time>2022-07-04T17:14:02Z</time>
      </trkpt>
      <trkpt lat="42.53337" lon="-1.0345948">
        <time>2022-07-04T17:14:05Z</time>
      </trkpt>
      <trkpt lat="42.533348" lon="-1.0345031">
        <time>2022-07-04T17:14:09Z</time>
      </trkpt>
      <trkpt lat="42.533333" lon="-1.0344384">
        <time>2022-07-04T17:14:12Z</time>
      </trkpt>
      <trkpt lat="42.53332" lon="-1.0343584">
        <time>2022-07-04T17:14:16Z</time>
      </trkpt>
      <trkpt lat="42.53331" lon="-1.0342717">
        <time>2022-07-04T17:14:20Z</time>
      </trkpt>
      <trkpt lat="42.5333" lon="-1.0341871">
        <time>2022-07-04T17:14:24Z</time>
      </trkpt>
      <trkpt lat="42.533287" lon="-1.0341227">
        <time>2022-07-04T17:14:27Z</time>
      </trkpt>
      <trkpt lat="42.533276" lon="-1.0340321">
        <time>2022-07-04T17:14:31Z</time>
      </trkpt>
      <trkpt lat="42.533264" lon="-1.033964">
        <time>2022-07-04T17:14:34Z</time>
      </trkpt>
      <trkpt lat="42.533257" lon="-1.0338968">
        <time>2022-07-04T17:14:37Z</time>
      </trkpt>
      <trkpt lat="42.533245" lon="-1.0338094">
        <time>2022-07-04T17:14:41Z</time>
      </trkpt>
      <trkpt lat="42.533237" lon="-1.0337185">
        <time>2022-07-04T17:14:45Z</time>
      </trkpt>
      <trkpt lat="42.53323" lon="-1.0336528">
        <time>2022-07-04T17:14:48Z</time>
      </trkpt>
      <trkpt lat="42.533222" lon="-1.0335661">
        <time>2022-07-04T17:14:52Z</time>
      </trkpt>
      <trkpt lat="42.53322" lon="-1.0334785">
        <time>2022-07-04T17:14:56Z</time>
      </trkpt>
      <trkpt lat="42.53322" lon="-1.0334115">
        <time>2022-07-04T17:14:59Z</time>
      </trkpt>
      <trkpt lat="42.533222" lon="-1.0333191">
        <time>2022-07-04T17:15:03Z</time>
      </trkpt>
      <trkpt lat="42.533222" lon="-1.0332505">
        <time>2022-07-04T17:15:06Z</time>
      </trkpt>
      <trkpt lat="42.533207" lon="-1.0331681">
        <time>2022-07-04T17:15:10Z</time>
      </trkpt>
      <trkpt lat="42.53319" lon="-1.0330831">
        <time>2022-07-04T17:15:14Z</time>
      </trkpt>
      <trkpt lat="42.533195" lon="-1.0329938">
        <time>2022-07-04T17:15:18Z</time>
      </trkpt>
      <trkpt lat="42.5332" lon="-1.0329248">
        <time>2022-07-04T17:15:21Z</time>
      </trkpt>
      <trkpt lat="42.533203" lon="-1.0328364">
        <time>2022-07-04T17:15:25Z</time>
      </trkpt>
      <trkpt lat="42.533203" lon="-1.0327678">
        <time>2022-07-04T17:15:28Z</time>
      </trkpt>
      <trkpt lat="42.53321" lon="-1.0326995">
        <time>2022-07-04T17:15:31Z</time>
      </trkpt>
      <trkpt lat="42.533222" lon="-1.0326124">
        <time>2022-07-04T17:15:35Z</time>
      </trkpt>
      <trkpt lat="42.533222" lon="-1.0325215">
        <time>2022-07-04T17:15:39Z</time>
      </trkpt>
      <trkpt lat="42.533222" lon="-1.0324504">
        <time>2022-07-04T17:15:42Z</time>
      </trkpt>
      <trkpt lat="42.533226" lon="-1.0323801">
        <time>2022-07-04T17:15:45Z</time>
      </trkpt>
      <trkpt lat="42.533237" lon="-1.0322945">
        <time>2022-07-04T17:15:49Z</time>
      </trkpt>
      <trkpt lat="42.53325" lon="-1.0322301">
        <time>2022-07-04T17:15:52Z</time>
      </trkpt>
      <trkpt lat="42.533253" lon="-1.0321405">
        <time>2022-07-04T17:15:56Z</time>
      </trkpt>
      <trkpt lat="42.533257" lon="-1.0320508">
        <time>2022-07-04T17:16:00Z</time>
      </trkpt>
      <trkpt lat="42.533257" lon="-1.0319846">
        <time>2022-07-04T17:16:03Z</time>
      </trkpt>
      <trkpt lat="42.533264" lon="-1.0319015">
        <time>2022-07-04T17:16:07Z</time>
      </trkpt>
      <trkpt lat="42.533276" lon="-1.0318092">
        <time>2022-07-04T17:16:11Z</time>
      </trkpt>
      <trkpt lat="42.533283" lon="-1.0317332">
        <time>2022-07-04T17:16:14Z</time>
      </trkpt>
      <trkpt lat="42.533295" lon="-1.0316565">
        <time>2022-07-04T17:16:17Z</time>
      </trkpt>
      <trkpt lat="42.533306" lon="-1.0315526">
        <time>2022-07-04T17:16:21Z</time>
      </trkpt>
      <trkpt lat="42.533302" lon="-1.0314709">
        <time>2022-07-04T17:16:24Z</time>
      </trkpt>
      <trkpt lat="42.533306" lon="-1.0313962">
        <time>2022-07-04T17:16:27Z</time>
      </trkpt>
      <trkpt lat="42.533318" lon="-1.0313245">
        <time>2022-07-04T17:16:30Z</time>
      </trkpt>
      <trkpt lat="42.533325" lon="-1.0312512">
        <time>2022-07-04T17:16:33Z</time>
      </trkpt>
      <trkpt lat="42.53332" lon="-1.0311753">
        <time>2022-07-04T17:16:36Z</time>
      </trkpt>
      <trkpt lat="42.533318" lon="-1.0311025">
        <time>2022-07-04T17:16:39Z</time>
      </trkpt>
      <trkpt lat="42.533306" lon="-1.0310099">
        <time>2022-07-04T17:16:43Z</time>
      </trkpt>
      <trkpt lat="42.5333" lon="-1.0309383">
        <time>2022-07-04T17:16:46Z</time>
      </trkpt>
      <trkpt lat="42.533295" lon="-1.0308722">
        <time>2022-07-04T17:16:49Z</time>
      </trkpt>
      <trkpt lat="42.533295" lon="-1.0307813">
        <time>2022-07-04T17:16:53Z</time>
      </trkpt>
      <trkpt lat="42.533295" lon="-1.0307109">
        <time>2022-07-04T17:16:56Z</time>
      </trkpt>
      <trkpt lat="42.5333" lon="-1.0306416">
        <time>2022-07-04T17:16:59Z</time>
      </trkpt>
      <trkpt lat="42.5333" lon="-1.0305679">
        <time>2022-07-04T17:17:02Z</time>
      </trkpt>
      <trkpt lat="42.5333" lon="-1.0304866">
        <time>2022-07-04T17:17:06Z</time>
      </trkpt>
      <trkpt lat="42.53328" lon="-1.0304586">
        <time>2022-07-04T17:21:12Z</time>
      </trkpt>
      <trkpt lat="42.533276" lon="-1.030371">
        <time>2022-07-04T17:21:15Z</time>
      </trkpt>
      <trkpt lat="42.53327" lon="-1.0302746">
        <time>2022-07-04T17:21:18Z</time>
      </trkpt>
      <trkpt lat="42.533268" lon="-1.0301919">
        <time>2022-07-04T17:21:21Z</time>
      </trkpt>
      <trkpt lat="42.533268" lon="-1.0301169">
        <time>2022-07-04T17:21:24Z</time>
      </trkpt>
      <trkpt lat="42.533264" lon="-1.0300379">
        <time>2022-07-04T17:21:27Z</time>
      </trkpt>
      <trkpt lat="42.533268" lon="-1.029956">
        <time>2022-07-04T17:21:30Z</time>
      </trkpt>
      <trkpt lat="42.533268" lon="-1.0298806">
        <time>2022-07-04T17:21:33Z</time>
      </trkpt>
      <trkpt lat="42.533264" lon="-1.0298105">
        <time>2022-07-04T17:21:36Z</time>
      </trkpt>
      <trkpt lat="42.533257" lon="-1.0297389">
        <time>2022-07-04T17:21:39Z</time>
      </trkpt>
      <trkpt lat="42.533253" lon="-1.0296652">
        <time>2022-07-04T17:21:42Z</time>
      </trkpt>
      <trkpt lat="42.533257" lon="-1.029588">
        <time>2022-07-04T17:21:45Z</time>
      </trkpt>
      <trkpt lat="42.533253" lon="-1.0295086">
        <time>2022-07-04T17:21:48Z</time>
      </trkpt>
      <trkpt lat="42.533253" lon="-1.0294356">
        <time>2022-07-04T17:21:51Z</time>
      </trkpt>
      <trkpt lat="42.533253" lon="-1.0293616">
        <time>2022-07-04T17:21:54Z</time>
      </trkpt>
      <trkpt lat="42.533257" lon="-1.029289">
        <time>2022-07-04T17:21:57Z</time>
      </trkpt>
      <trkpt lat="42.533253" lon="-1.0292189">
        <time>2022-07-04T17:22:00Z</time>
      </trkpt>
      <trkpt lat="42.53325" lon="-1.0291253">
        <time>2022-07-04T17:22:04Z</time>
      </trkpt>
      <trkpt lat="42.533245" lon="-1.029056">
        <time>2022-07-04T17:22:07Z</time>
      </trkpt>
      <trkpt lat="42.53325" lon="-1.0289663">
        <time>2022-07-04T17:22:11Z</time>
      </trkpt>
      <trkpt lat="42.53325" lon="-1.0289">
        <time>2022-07-04T17:22:14Z</time>
      </trkpt>
      <trkpt lat="42.533245" lon="-1.028816">
        <time>2022-07-04T17:22:18Z</time>
      </trkpt>
      <trkpt lat="42.533245" lon="-1.0287336">
        <time>2022-07-04T17:22:22Z</time>
      </trkpt>
      <trkpt lat="42.533245" lon="-1.0286516">
        <time>2022-07-04T17:22:26Z</time>
      </trkpt>
      <trkpt lat="42.533245" lon="-1.028586">
        <time>2022-07-04T17:22:29Z</time>
      </trkpt>
      <trkpt lat="42.53324" lon="-1.028482">
        <time>2022-07-04T17:22:34Z</time>
      </trkpt>
      <trkpt lat="42.533234" lon="-1.0284">
        <time>2022-07-04T17:22:38Z</time>
      </trkpt>
      <trkpt lat="42.533237" lon="-1.0283194">
        <time>2022-07-04T17:22:42Z</time>
      </trkpt>
      <trkpt lat="42.533234" lon="-1.0282403">
        <time>2022-07-04T17:22:46Z</time>
      </trkpt>
      <trkpt lat="42.533234" lon="-1.028155">
        <time>2022-07-04T17:22:50Z</time>
      </trkpt>
      <trkpt lat="42.533226" lon="-1.0280746">
        <time>2022-07-04T17:22:54Z</time>
      </trkpt>
      <trkpt lat="42.533222" lon="-1.0279976">
        <time>2022-07-04T17:22:58Z</time>
      </trkpt>
      <trkpt lat="42.533215" lon="-1.0279154">
        <time>2022-07-04T17:23:02Z</time>
      </trkpt>
      <trkpt lat="42.53321" lon="-1.0278513">
        <time>2022-07-04T17:23:06Z</time>
      </trkpt>
      <trkpt lat="42.5332" lon="-1.02777">
        <time>2022-07-04T17:23:11Z</time>
      </trkpt>
      <trkpt lat="42.533188" lon="-1.0276986">
        <time>2022-07-04T17:23:15Z</time>
      </trkpt>
      <trkpt lat="42.533176" lon="-1.0276277">
        <time>2022-07-04T17:23:19Z</time>
      </trkpt>
      <trkpt lat="42.53317" lon="-1.0275596">
        <time>2022-07-04T17:23:23Z</time>
      </trkpt>
      <trkpt lat="42.53316" lon="-1.02749">
        <time>2022-07-04T17:23:27Z</time>
      </trkpt>
      <trkpt lat="42.53314" lon="-1.0274167">
        <time>2022-07-04T17:23:31Z</time>
      </trkpt>
      <trkpt lat="42.533123" lon="-1.0273464">
        <time>2022-07-04T17:23:35Z</time>
      </trkpt>
      <trkpt lat="42.533104" lon="-1.0272543">
        <time>2022-07-04T17:23:40Z</time>
      </trkpt>
      <trkpt lat="42.53308" lon="-1.0271881">
        <time>2022-07-04T17:23:44Z</time>
      </trkpt>
      <trkpt lat="42.53306" lon="-1.0271224">
        <time>2022-07-04T17:23:48Z</time>
      </trkpt>
      <trkpt lat="42.53303" lon="-1.0270578">
        <time>2022-07-04T17:23:52Z</time>
      </trkpt>
      <trkpt lat="42.53301" lon="-1.026988">
        <time>2022-07-04T17:23:56Z</time>
      </trkpt>
      <trkpt lat="42.53298" lon="-1.026926">
        <time>2022-07-04T17:24:00Z</time>
      </trkpt>
      <trkpt lat="42.53296" lon="-1.0268584">
        <time>2022-07-04T17:24:04Z</time>
      </trkpt>
      <trkpt lat="42.532932" lon="-1.0267963">
        <time>2022-07-04T17:24:08Z</time>
      </trkpt>
      <trkpt lat="42.53291" lon="-1.0267371">
        <time>2022-07-04T17:24:12Z</time>
      </trkpt>
      <trkpt lat="42.53288" lon="-1.0266727">
        <time>2022-07-04T17:24:16Z</time>
      </trkpt>
      <trkpt lat="42.53284" lon="-1.0266124">
        <time>2022-07-04T17:24:20Z</time>
      </trkpt>
      <trkpt lat="42.532803" lon="-1.0265508">
        <time>2022-07-04T17:24:24Z</time>
      </trkpt>
      <trkpt lat="42.532776" lon="-1.0264881">
        <time>2022-07-04T17:24:28Z</time>
      </trkpt>
      <trkpt lat="42.532745" lon="-1.0264268">
        <time>2022-07-04T17:24:32Z</time>
      </trkpt>
      <trkpt lat="42.532707" lon="-1.0263671">
        <time>2022-07-04T17:24:36Z</time>
      </trkpt>
      <trkpt lat="42.532673" lon="-1.0263077">
        <time>2022-07-04T17:24:40Z</time>
      </trkpt>
      <trkpt lat="42.532627" lon="-1.0262392">
        <time>2022-07-04T17:24:45Z</time>
      </trkpt>
      <trkpt lat="42.532585" lon="-1.0261828">
        <time>2022-07-04T17:24:49Z</time>
      </trkpt>
      <trkpt lat="42.532543" lon="-1.0261317">
        <time>2022-07-04T17:24:53Z</time>
      </trkpt>
      <trkpt lat="42.5325" lon="-1.0260831">
        <time>2022-07-04T17:24:57Z</time>
      </trkpt>
      <trkpt lat="42.53245" lon="-1.0260371">
        <time>2022-07-04T17:25:01Z</time>
      </trkpt>
      <trkpt lat="42.53241" lon="-1.0259928">
        <time>2022-07-04T17:25:05Z</time>
      </trkpt>
      <trkpt lat="42.53237" lon="-1.0259484">
        <time>2022-07-04T17:25:09Z</time>
      </trkpt>
      <trkpt lat="42.532322" lon="-1.0258977">
        <time>2022-07-04T17:25:14Z</time>
      </trkpt>
      <trkpt lat="42.532272" lon="-1.0258541">
        <time>2022-07-04T17:25:19Z</time>
      </trkpt>
      <trkpt lat="42.53223" lon="-1.0258181">
        <time>2022-07-04T17:25:23Z</time>
      </trkpt>
      <trkpt lat="42.532177" lon="-1.0257767">
        <time>2022-07-04T17:25:28Z</time>
      </trkpt>
      <trkpt lat="42.53213" lon="-1.0257498">
        <time>2022-07-04T17:25:32Z</time>
      </trkpt>
      <trkpt lat="42.532078" lon="-1.0257128">
        <time>2022-07-04T17:25:37Z</time>
      </trkpt>
      <trkpt lat="42.532032" lon="-1.0256838">
        <time>2022-07-04T17:25:41Z</time>
      </trkpt>
      <trkpt lat="42.53198" lon="-1.0256548">
        <time>2022-07-04T17:25:45Z</time>
      </trkpt>
      <trkpt lat="42.53193" lon="-1.0256301">
        <time>2022-07-04T17:25:49Z</time>
      </trkpt>
      <trkpt lat="42.531864" lon="-1.0256051">
        <time>2022-07-04T17:25:54Z</time>
      </trkpt>
      <trkpt lat="42.531803" lon="-1.0255785">
        <time>2022-07-04T17:25:59Z</time>
      </trkpt>
      <trkpt lat="42.531754" lon="-1.0255588">
        <time>2022-07-04T17:26:03Z</time>
      </trkpt>
      <trkpt lat="42.531685" lon="-1.0255392">
        <time>2022-07-04T17:26:08Z</time>
      </trkpt>
      <trkpt lat="42.531635" lon="-1.0255262">
        <time>2022-07-04T17:26:12Z</time>
      </trkpt>
      <trkpt lat="42.53155" lon="-1.0255102">
        <time>2022-07-04T17:26:49Z</time>
      </trkpt>
      <trkpt lat="42.531487" lon="-1.0254982">
        <time>2022-07-04T17:26:53Z</time>
      </trkpt>
      <trkpt lat="42.53142" lon="-1.0254848">
        <time>2022-07-04T17:26:57Z</time>
      </trkpt>
      <trkpt lat="42.531364" lon="-1.0254688">
        <time>2022-07-04T17:27:01Z</time>
      </trkpt>
      <trkpt lat="42.531303" lon="-1.0254551">
        <time>2022-07-04T17:27:05Z</time>
      </trkpt>
      <trkpt lat="42.531246" lon="-1.0254452">
        <time>2022-07-04T17:27:09Z</time>
      </trkpt>
      <trkpt lat="42.53119" lon="-1.0254371">
        <time>2022-07-04T17:27:13Z</time>
      </trkpt>
      <trkpt lat="42.531136" lon="-1.0254302">
        <time>2022-07-04T17:27:17Z</time>
      </trkpt>
      <trkpt lat="42.53108" lon="-1.0254245">
        <time>2022-07-04T17:27:21Z</time>
      </trkpt>
      <trkpt lat="42.531013" lon="-1.0254128">
        <time>2022-07-04T17:27:26Z</time>
      </trkpt>
      <trkpt lat="42.53096" lon="-1.0254076">
        <time>2022-07-04T17:27:30Z</time>
      </trkpt>
      <trkpt lat="42.530907" lon="-1.0254025">
        <time>2022-07-04T17:27:34Z</time>
      </trkpt>
      <trkpt lat="42.53085" lon="-1.0253959">
        <time>2022-07-04T17:27:38Z</time>
      </trkpt>
      <trkpt lat="42.530785" lon="-1.0253749">
        <time>2022-07-04T17:27:43Z</time>
      </trkpt>
      <trkpt lat="42.530727" lon="-1.0253582">
        <time>2022-07-04T17:27:47Z</time>
      </trkpt>
      <trkpt lat="42.53068" lon="-1.0253422">
        <time>2022-07-04T17:27:51Z</time>
      </trkpt>
      <trkpt lat="42.53062" lon="-1.0253032">
        <time>2022-07-04T17:27:56Z</time>
      </trkpt>
      <trkpt lat="42.530567" lon="-1.0252712">
        <time>2022-07-04T17:28:00Z</time>
      </trkpt>
      <trkpt lat="42.530518" lon="-1.0252379">
        <time>2022-07-04T17:28:04Z</time>
      </trkpt>
      <trkpt lat="42.530464" lon="-1.0251966">
        <time>2022-07-04T17:28:08Z</time>
      </trkpt>
      <trkpt lat="42.530422" lon="-1.0251602">
        <time>2022-07-04T17:28:11Z</time>
      </trkpt>
      <trkpt lat="42.530357" lon="-1.0251142">
        <time>2022-07-04T17:28:15Z</time>
      </trkpt>
      <trkpt lat="42.53032" lon="-1.0250852">
        <time>2022-07-04T17:28:18Z</time>
      </trkpt>
      <trkpt lat="42.53027" lon="-1.0250522">
        <time>2022-07-04T17:28:22Z</time>
      </trkpt>
      <trkpt lat="42.53022" lon="-1.0250149">
        <time>2022-07-04T17:28:26Z</time>
      </trkpt>
      <trkpt lat="42.53017" lon="-1.0249789">
        <time>2022-07-04T17:28:30Z</time>
      </trkpt>
      <trkpt lat="42.53012" lon="-1.0249403">
        <time>2022-07-04T17:28:34Z</time>
      </trkpt>
      <trkpt lat="42.530067" lon="-1.0249009">
        <time>2022-07-04T17:28:38Z</time>
      </trkpt>
      <trkpt lat="42.530014" lon="-1.0248629">
        <time>2022-07-04T17:28:42Z</time>
      </trkpt>
      <trkpt lat="42.52997" lon="-1.0248232">
        <time>2022-07-04T17:28:46Z</time>
      </trkpt>
      <trkpt lat="42.529915" lon="-1.0247756">
        <time>2022-07-04T17:28:50Z</time>
      </trkpt>
      <trkpt lat="42.529858" lon="-1.0247356">
        <time>2022-07-04T17:28:54Z</time>
      </trkpt>
      <trkpt lat="42.529816" lon="-1.0247039">
        <time>2022-07-04T17:28:57Z</time>
      </trkpt>
      <trkpt lat="42.52975" lon="-1.0246463">
        <time>2022-07-04T17:29:02Z</time>
      </trkpt>
      <trkpt lat="42.529697" lon="-1.024599">
        <time>2022-07-04T17:29:06Z</time>
      </trkpt>
      <trkpt lat="42.529648" lon="-1.0245503">
        <time>2022-07-04T17:29:10Z</time>
      </trkpt>
      <trkpt lat="42.529602" lon="-1.0244889">
        <time>2022-07-04T17:29:14Z</time>
      </trkpt>
      <trkpt lat="42.52956" lon="-1.0244212">
        <time>2022-07-04T17:29:18Z</time>
      </trkpt>
      <trkpt lat="42.52953" lon="-1.0243689">
        <time>2022-07-04T17:29:21Z</time>
      </trkpt>
      <trkpt lat="42.529488" lon="-1.0243067">
        <time>2022-07-04T17:29:25Z</time>
      </trkpt>
      <trkpt lat="42.52945" lon="-1.024246">
        <time>2022-07-04T17:29:29Z</time>
      </trkpt>
      <trkpt lat="42.529415" lon="-1.024177">
        <time>2022-07-04T17:29:33Z</time>
      </trkpt>
      <trkpt lat="42.529385" lon="-1.0241029">
        <time>2022-07-04T17:29:37Z</time>
      </trkpt>
      <trkpt lat="42.529346" lon="-1.0240322">
        <time>2022-07-04T17:29:41Z</time>
      </trkpt>
      <trkpt lat="42.52932" lon="-1.0239756">
        <time>2022-07-04T17:29:44Z</time>
      </trkpt>
      <trkpt lat="42.529285" lon="-1.0239027">
        <time>2022-07-04T17:29:48Z</time>
      </trkpt>
      <trkpt lat="42.52926" lon="-1.023831">
        <time>2022-07-04T17:29:52Z</time>
      </trkpt>
      <trkpt lat="42.529232" lon="-1.0237753">
        <time>2022-07-04T17:29:55Z</time>
      </trkpt>
      <trkpt lat="42.529205" lon="-1.02372">
        <time>2022-07-04T17:29:59Z</time>
      </trkpt>
      <trkpt lat="42.529125" lon="-1.0235883">
        <time>2022-07-04T17:30:13Z</time>
      </trkpt>
      <trkpt lat="42.529076" lon="-1.0235237">
        <time>2022-07-04T17:30:18Z</time>
      </trkpt>
      <trkpt lat="42.529034" lon="-1.0234753">
        <time>2022-07-04T17:30:22Z</time>
      </trkpt>
      <trkpt lat="42.528988" lon="-1.0234326">
        <time>2022-07-04T17:30:26Z</time>
      </trkpt>
      <trkpt lat="42.52895" lon="-1.0233884">
        <time>2022-07-04T17:30:30Z</time>
      </trkpt>
      <trkpt lat="42.5289" lon="-1.0233417">
        <time>2022-07-04T17:30:35Z</time>
      </trkpt>
      <trkpt lat="42.528854" lon="-1.023296">
        <time>2022-07-04T17:30:39Z</time>
      </trkpt>
      <trkpt lat="42.528805" lon="-1.0232537">
        <time>2022-07-04T17:30:43Z</time>
      </trkpt>
      <trkpt lat="42.528763" lon="-1.0232173">
        <time>2022-07-04T17:30:47Z</time>
      </trkpt>
      <trkpt lat="42.528717" lon="-1.0231817">
        <time>2022-07-04T17:30:51Z</time>
      </trkpt>
      <trkpt lat="42.528667" lon="-1.0231421">
        <time>2022-07-04T17:30:56Z</time>
      </trkpt>
      <trkpt lat="42.52861" lon="-1.0231047">
        <time>2022-07-04T17:31:01Z</time>
      </trkpt>
      <trkpt lat="42.52856" lon="-1.023069">
        <time>2022-07-04T17:31:05Z</time>
      </trkpt>
      <trkpt lat="42.52852" lon="-1.0230284">
        <time>2022-07-04T17:31:09Z</time>
      </trkpt>
      <trkpt lat="42.528458" lon="-1.022969">
        <time>2022-07-04T17:31:14Z</time>
      </trkpt>
      <trkpt lat="42.52842" lon="-1.0229274">
        <time>2022-07-04T17:31:17Z</time>
      </trkpt>
      <trkpt lat="42.528366" lon="-1.0228764">
        <time>2022-07-04T17:31:21Z</time>
      </trkpt>
      <trkpt lat="42.528328" lon="-1.0228294">
        <time>2022-07-04T17:31:25Z</time>
      </trkpt>
      <trkpt lat="42.528286" lon="-1.0227791">
        <time>2022-07-04T17:31:29Z</time>
      </trkpt>
      <trkpt lat="42.528244" lon="-1.0227274">
        <time>2022-07-04T17:31:33Z</time>
      </trkpt>
      <trkpt lat="42.52821" lon="-1.0226758">
        <time>2022-07-04T17:31:37Z</time>
      </trkpt>
      <trkpt lat="42.528175" lon="-1.0226191">
        <time>2022-07-04T17:31:41Z</time>
      </trkpt>
      <trkpt lat="42.52815" lon="-1.0225618">
        <time>2022-07-04T17:31:45Z</time>
      </trkpt>
      <trkpt lat="42.528114" lon="-1.022497">
        <time>2022-07-04T17:31:49Z</time>
      </trkpt>
      <trkpt lat="42.5281" lon="-1.0224271">
        <time>2022-07-04T17:31:53Z</time>
      </trkpt>
      <trkpt lat="42.528072" lon="-1.0223571">
        <time>2022-07-04T17:31:57Z</time>
      </trkpt>
      <trkpt lat="42.528057" lon="-1.0222875">
        <time>2022-07-04T17:32:01Z</time>
      </trkpt>
      <trkpt lat="42.52805" lon="-1.0221975">
        <time>2022-07-04T17:32:06Z</time>
      </trkpt>
      <trkpt lat="42.528046" lon="-1.0221277">
        <time>2022-07-04T17:32:10Z</time>
      </trkpt>
      <trkpt lat="42.528057" lon="-1.0220505">
        <time>2022-07-04T17:32:14Z</time>
      </trkpt>
      <trkpt lat="42.52807" lon="-1.0219754">
        <time>2022-07-04T17:32:18Z</time>
      </trkpt>
      <trkpt lat="42.528084" lon="-1.0219021">
        <time>2022-07-04T17:32:22Z</time>
      </trkpt>
      <trkpt lat="42.528103" lon="-1.0218321">
        <time>2022-07-04T17:32:26Z</time>
      </trkpt>
      <trkpt lat="42.52813" lon="-1.0217575">
        <time>2022-07-04T17:32:30Z</time>
      </trkpt>
      <trkpt lat="42.528152" lon="-1.0216842">
        <time>2022-07-04T17:32:34Z</time>
      </trkpt>
      <trkpt lat="42.52818" lon="-1.0216157">
        <time>2022-07-04T17:32:38Z</time>
      </trkpt>
      <trkpt lat="42.528202" lon="-1.0215458">
        <time>2022-07-04T17:32:42Z</time>
      </trkpt>
      <trkpt lat="42.52822" lon="-1.0214771">
        <time>2022-07-04T17:32:46Z</time>
      </trkpt>
      <trkpt lat="42.528244" lon="-1.0214092">
        <time>2022-07-04T17:32:50Z</time>
      </trkpt>
      <trkpt lat="42.528267" lon="-1.0213411">
        <time>2022-07-04T17:32:54Z</time>
      </trkpt>
      <trkpt lat="42.528297" lon="-1.0212758">
        <time>2022-07-04T17:32:58Z</time>
      </trkpt>
      <trkpt lat="42.528324" lon="-1.0212221">
        <time>2022-07-04T17:33:01Z</time>
      </trkpt>
      <trkpt lat="42.528355" lon="-1.0211495">
        <time>2022-07-04T17:33:05Z</time>
      </trkpt>
      <trkpt lat="42.528374" lon="-1.0210792">
        <time>2022-07-04T17:33:09Z</time>
      </trkpt>
      <trkpt lat="42.52839" lon="-1.0210111">
        <time>2022-07-04T17:33:13Z</time>
      </trkpt>
      <trkpt lat="42.528404" lon="-1.0209395">
        <time>2022-07-04T17:33:17Z</time>
      </trkpt>
      <trkpt lat="42.528416" lon="-1.0208691">
        <time>2022-07-04T17:33:21Z</time>
      </trkpt>
      <trkpt lat="42.52844" lon="-1.0207938">
        <time>2022-07-04T17:33:25Z</time>
      </trkpt>
      <trkpt lat="42.52846" lon="-1.0207225">
        <time>2022-07-04T17:33:29Z</time>
      </trkpt>
      <trkpt lat="42.528473" lon="-1.0206518">
        <time>2022-07-04T17:33:33Z</time>
      </trkpt>
      <trkpt lat="42.52848" lon="-1.0205828">
        <time>2022-07-04T17:33:37Z</time>
      </trkpt>
      <trkpt lat="42.528492" lon="-1.0205042">
        <time>2022-07-04T17:33:41Z</time>
      </trkpt>
      <trkpt lat="42.5285" lon="-1.0204276">
        <time>2022-07-04T17:33:45Z</time>
      </trkpt>
      <trkpt lat="42.52851" lon="-1.0203539">
        <time>2022-07-04T17:33:49Z</time>
      </trkpt>
      <trkpt lat="42.528522" lon="-1.0202879">
        <time>2022-07-04T17:33:53Z</time>
      </trkpt>
      <trkpt lat="42.52855" lon="-1.0202359">
        <time>2022-07-04T17:33:59Z</time>
      </trkpt>
      <trkpt lat="42.528584" lon="-1.0203059">
        <time>2022-07-04T17:35:01Z</time>
      </trkpt>
      <trkpt lat="42.5286" lon="-1.0203968">
        <time>2022-07-04T17:35:05Z</time>
      </trkpt>
      <trkpt lat="42.528603" lon="-1.0204625">
        <time>2022-07-04T17:35:08Z</time>
      </trkpt>
      <trkpt lat="42.52861" lon="-1.0205469">
        <time>2022-07-04T17:35:12Z</time>
      </trkpt>
      <trkpt lat="42.528618" lon="-1.0206205">
        <time>2022-07-04T17:35:16Z</time>
      </trkpt>
      <trkpt lat="42.528625" lon="-1.0206982">
        <time>2022-07-04T17:35:20Z</time>
      </trkpt>
      <trkpt lat="42.528625" lon="-1.0207785">
        <time>2022-07-04T17:35:24Z</time>
      </trkpt>
      <trkpt lat="42.528625" lon="-1.0208422">
        <time>2022-07-04T17:35:27Z</time>
      </trkpt>
      <trkpt lat="42.528625" lon="-1.0209255">
        <time>2022-07-04T17:35:31Z</time>
      </trkpt>
      <trkpt lat="42.528614" lon="-1.0209929">
        <time>2022-07-04T17:35:34Z</time>
      </trkpt>
      <trkpt lat="42.52861" lon="-1.0210629">
        <time>2022-07-04T17:35:37Z</time>
      </trkpt>
      <trkpt lat="42.528603" lon="-1.0211501">
        <time>2022-07-04T17:35:41Z</time>
      </trkpt>
      <trkpt lat="42.5286" lon="-1.0212375">
        <time>2022-07-04T17:35:45Z</time>
      </trkpt>
      <trkpt lat="42.528603" lon="-1.0213069">
        <time>2022-07-04T17:35:48Z</time>
      </trkpt>
      <trkpt lat="42.528606" lon="-1.0213871">
        <time>2022-07-04T17:35:52Z</time>
      </trkpt>
      <trkpt lat="42.528603" lon="-1.0214682">
        <time>2022-07-04T17:35:56Z</time>
      </trkpt>
      <trkpt lat="42.5286" lon="-1.0215435">
        <time>2022-07-04T17:36:00Z</time>
      </trkpt>
      <trkpt lat="42.528595" lon="-1.0216202">
        <time>2022-07-04T17:36:04Z</time>
      </trkpt>
      <trkpt lat="42.528595" lon="-1.0216864">
        <time>2022-07-04T17:36:08Z</time>
      </trkpt>
      <trkpt lat="42.528587" lon="-1.0217618">
        <time>2022-07-04T17:36:12Z</time>
      </trkpt>
      <trkpt lat="42.528576" lon="-1.0218368">
        <time>2022-07-04T17:36:16Z</time>
      </trkpt>
      <trkpt lat="42.52857" lon="-1.0219035">
        <time>2022-07-04T17:36:20Z</time>
      </trkpt>
      <trkpt lat="42.52856" lon="-1.0219738">
        <time>2022-07-04T17:36:25Z</time>
      </trkpt>
      <trkpt lat="42.52858" lon="-1.0220491">
        <time>2022-07-04T17:36:30Z</time>
      </trkpt>
      <trkpt lat="42.5286" lon="-1.0221205">
        <time>2022-07-04T17:36:35Z</time>
      </trkpt>
      <trkpt lat="42.52861" lon="-1.0222008">
        <time>2022-07-04T17:36:41Z</time>
      </trkpt>
      <trkpt lat="42.528625" lon="-1.0222548">
        <time>2022-07-04T17:36:46Z</time>
      </trkpt>
      <trkpt lat="42.528675" lon="-1.0223604">
        <time>2022-07-04T17:37:02Z</time>
      </trkpt>
      <trkpt lat="42.52872" lon="-1.0223941">
        <time>2022-07-04T17:37:07Z</time>
      </trkpt>
      <trkpt lat="42.528786" lon="-1.0224171">
        <time>2022-07-04T17:37:12Z</time>
      </trkpt>
      <trkpt lat="42.52884" lon="-1.0224391">
        <time>2022-07-04T17:37:16Z</time>
      </trkpt>
      <trkpt lat="42.528893" lon="-1.0224681">
        <time>2022-07-04T17:37:20Z</time>
      </trkpt>
      <trkpt lat="42.52895" lon="-1.022492">
        <time>2022-07-04T17:37:24Z</time>
      </trkpt>
      <trkpt lat="42.529003" lon="-1.0225117">
        <time>2022-07-04T17:37:28Z</time>
      </trkpt>
      <trkpt lat="42.52906" lon="-1.0225297">
        <time>2022-07-04T17:37:32Z</time>
      </trkpt>
      <trkpt lat="42.529114" lon="-1.0225648">
        <time>2022-07-04T17:37:36Z</time>
      </trkpt>
      <trkpt lat="42.529167" lon="-1.0226028">
        <time>2022-07-04T17:37:40Z</time>
      </trkpt>
      <trkpt lat="42.529224" lon="-1.0226268">
        <time>2022-07-04T17:37:44Z</time>
      </trkpt>
      <trkpt lat="42.529278" lon="-1.0226551">
        <time>2022-07-04T17:37:48Z</time>
      </trkpt>
      <trkpt lat="42.529327" lon="-1.0226897">
        <time>2022-07-04T17:37:52Z</time>
      </trkpt>
      <trkpt lat="42.529373" lon="-1.0227201">
        <time>2022-07-04T17:37:56Z</time>
      </trkpt>
      <trkpt lat="42.52942" lon="-1.0227478">
        <time>2022-07-04T17:38:00Z</time>
      </trkpt>
      <trkpt lat="42.529465" lon="-1.0227984">
        <time>2022-07-04T17:38:05Z</time>
      </trkpt>
      <trkpt lat="42.529514" lon="-1.0228384">
        <time>2022-07-04T17:38:10Z</time>
      </trkpt>
      <trkpt lat="42.529568" lon="-1.022873">
        <time>2022-07-04T17:38:15Z</time>
      </trkpt>
      <trkpt lat="42.529625" lon="-1.0229181">
        <time>2022-07-04T17:38:20Z</time>
      </trkpt>
      <trkpt lat="42.52968" lon="-1.0229427">
        <time>2022-07-04T17:38:24Z</time>
      </trkpt>
      <trkpt lat="42.52973" lon="-1.0229731">
        <time>2022-07-04T17:38:28Z</time>
      </trkpt>
      <trkpt lat="42.529774" lon="-1.0229964">
        <time>2022-07-04T17:38:31Z</time>
      </trkpt>
      <trkpt lat="42.52983" lon="-1.023007">
        <time>2022-07-04T17:38:35Z</time>
      </trkpt>
      <trkpt lat="42.52988" lon="-1.022989">
        <time>2022-07-04T17:38:38Z</time>
      </trkpt>
      <trkpt lat="42.529938" lon="-1.0229363">
        <time>2022-07-04T17:38:42Z</time>
      </trkpt>
      <trkpt lat="42.529972" lon="-1.0228834">
        <time>2022-07-04T17:38:45Z</time>
      </trkpt>
      <trkpt lat="42.529995" lon="-1.0228311">
        <time>2022-07-04T17:38:48Z</time>
      </trkpt>
      <trkpt lat="42.530006" lon="-1.022758">
        <time>2022-07-04T17:38:52Z</time>
      </trkpt>
      <trkpt lat="42.530006" lon="-1.0227621">
        <time>2022-07-04T17:39:36Z</time>
      </trkpt>
      <trkpt lat="42.529976" lon="-1.022847">
        <time>2022-07-04T17:39:41Z</time>
      </trkpt>
      <trkpt lat="42.52994" lon="-1.022892">
        <time>2022-07-04T17:39:44Z</time>
      </trkpt>
      <trkpt lat="42.529892" lon="-1.022937">
        <time>2022-07-04T17:39:48Z</time>
      </trkpt>
      <trkpt lat="42.52984" lon="-1.0229707">
        <time>2022-07-04T17:39:52Z</time>
      </trkpt>
      <trkpt lat="42.52978" lon="-1.022974">
        <time>2022-07-04T17:39:56Z</time>
      </trkpt>
      <trkpt lat="42.52973" lon="-1.0229588">
        <time>2022-07-04T17:39:59Z</time>
      </trkpt>
      <trkpt lat="42.52967" lon="-1.0229181">
        <time>2022-07-04T17:40:03Z</time>
      </trkpt>
      <trkpt lat="42.52962" lon="-1.022863">
        <time>2022-07-04T17:40:07Z</time>
      </trkpt>
      <trkpt lat="42.52959" lon="-1.0228184">
        <time>2022-07-04T17:40:10Z</time>
      </trkpt>
      <trkpt lat="42.529545" lon="-1.0227644">
        <time>2022-07-04T17:40:14Z</time>
      </trkpt>
      <trkpt lat="42.52951" lon="-1.0227301">
        <time>2022-07-04T17:40:18Z</time>
      </trkpt>
      <trkpt lat="42.52947" lon="-1.0226678">
        <time>2022-07-04T17:40:24Z</time>
      </trkpt>
      <trkpt lat="42.529434" lon="-1.0226043">
        <time>2022-07-04T17:40:29Z</time>
      </trkpt>
      <trkpt lat="42.529385" lon="-1.0225514">
        <time>2022-07-04T17:40:35Z</time>
      </trkpt>
      <trkpt lat="42.529343" lon="-1.0224948">
        <time>2022-07-04T17:40:40Z</time>
      </trkpt>
      <trkpt lat="42.529293" lon="-1.0224624">
        <time>2022-07-04T17:40:44Z</time>
      </trkpt>
      <trkpt lat="42.52925" lon="-1.0224091">
        <time>2022-07-04T17:40:48Z</time>
      </trkpt>
      <trkpt lat="42.529213" lon="-1.0223631">
        <time>2022-07-04T17:40:52Z</time>
      </trkpt>
      <trkpt lat="42.52917" lon="-1.0223181">
        <time>2022-07-04T17:40:56Z</time>
      </trkpt>
      <trkpt lat="42.529312" lon="-1.0223541">
        <time>2022-07-04T17:41:42Z</time>
      </trkpt>
      <trkpt lat="42.52936" lon="-1.022374">
        <time>2022-07-04T17:41:46Z</time>
      </trkpt>
      <trkpt lat="42.52941" lon="-1.0223935">
        <time>2022-07-04T17:41:50Z</time>
      </trkpt>
      <trkpt lat="42.52947" lon="-1.0224384">
        <time>2022-07-04T17:41:55Z</time>
      </trkpt>
      <trkpt lat="42.529526" lon="-1.022451">
        <time>2022-07-04T17:41:59Z</time>
      </trkpt>
      <trkpt lat="42.529564" lon="-1.0224451">
        <time>2022-07-04T17:42:06Z</time>
      </trkpt>
      <trkpt lat="42.528637" lon="-1.0181034">
        <time>2022-07-05T07:31:48Z</time>
      </trkpt>
      <trkpt lat="42.528637" lon="-1.0181034">
        <time>2022-07-05T07:31:48Z</time>
      </trkpt>
      <trkpt lat="42.528534" lon="-1.01799">
        <time>2022-07-05T07:31:49Z</time>
      </trkpt>
      <trkpt lat="42.528526" lon="-1.0179716">
        <time>2022-07-05T07:31:50Z</time>
      </trkpt>
      <trkpt lat="42.52856" lon="-1.0178167">
        <time>2022-07-05T07:31:56Z</time>
      </trkpt>
      <trkpt lat="42.52859" lon="-1.0177343">
        <time>2022-07-05T07:31:59Z</time>
      </trkpt>
      <trkpt lat="42.528614" lon="-1.0176693">
        <time>2022-07-05T07:32:01Z</time>
      </trkpt>
      <trkpt lat="42.528645" lon="-1.0175906">
        <time>2022-07-05T07:32:03Z</time>
      </trkpt>
      <trkpt lat="42.52868" lon="-1.0174927">
        <time>2022-07-05T07:32:05Z</time>
      </trkpt>
      <trkpt lat="42.528706" lon="-1.0173683">
        <time>2022-07-05T07:32:07Z</time>
      </trkpt>
      <trkpt lat="42.528725" lon="-1.0172184">
        <time>2022-07-05T07:32:09Z</time>
      </trkpt>
      <trkpt lat="42.528732" lon="-1.0171384">
        <time>2022-07-05T07:32:10Z</time>
      </trkpt>
      <trkpt lat="42.528732" lon="-1.0170563">
        <time>2022-07-05T07:32:11Z</time>
      </trkpt>
      <trkpt lat="42.528732" lon="-1.0169717">
        <time>2022-07-05T07:32:12Z</time>
      </trkpt>
      <trkpt lat="42.528732" lon="-1.0168854">
        <time>2022-07-05T07:32:13Z</time>
      </trkpt>
      <trkpt lat="42.528732" lon="-1.0167977">
        <time>2022-07-05T07:32:14Z</time>
      </trkpt>
      <trkpt lat="42.528736" lon="-1.0167087">
        <time>2022-07-05T07:32:15Z</time>
      </trkpt>
      <trkpt lat="42.528744" lon="-1.0166184">
        <time>2022-07-05T07:32:16Z</time>
      </trkpt>
      <trkpt lat="42.52875" lon="-1.0165263">
        <time>2022-07-05T07:32:17Z</time>
      </trkpt>
      <trkpt lat="42.528763" lon="-1.016433">
        <time>2022-07-05T07:32:18Z</time>
      </trkpt>
      <trkpt lat="42.52877" lon="-1.016338">
        <time>2022-07-05T07:32:19Z</time>
      </trkpt>
      <trkpt lat="42.528793" lon="-1.0161381">
        <time>2022-07-05T07:32:21Z</time>
      </trkpt>
      <trkpt lat="42.528812" lon="-1.016042">
        <time>2022-07-05T07:32:22Z</time>
      </trkpt>
      <trkpt lat="42.528835" lon="-1.015951">
        <time>2022-07-05T07:32:23Z</time>
      </trkpt>
      <trkpt lat="42.528862" lon="-1.0158681">
        <time>2022-07-05T07:32:24Z</time>
      </trkpt>
      <trkpt lat="42.528896" lon="-1.0157927">
        <time>2022-07-05T07:32:25Z</time>
      </trkpt>
      <trkpt lat="42.528934" lon="-1.0157257">
        <time>2022-07-05T07:32:26Z</time>
      </trkpt>
      <trkpt lat="42.529015" lon="-1.0156151">
        <time>2022-07-05T07:32:28Z</time>
      </trkpt>
      <trkpt lat="42.529057" lon="-1.0155691">
        <time>2022-07-05T07:32:29Z</time>
      </trkpt>
      <trkpt lat="42.529095" lon="-1.0155284">
        <time>2022-07-05T07:32:30Z</time>
      </trkpt>
      <trkpt lat="42.529133" lon="-1.0154924">
        <time>2022-07-05T07:32:31Z</time>
      </trkpt>
      <trkpt lat="42.529198" lon="-1.0154281">
        <time>2022-07-05T07:32:33Z</time>
      </trkpt>
      <trkpt lat="42.529255" lon="-1.015372">
        <time>2022-07-05T07:32:35Z</time>
      </trkpt>
      <trkpt lat="42.529305" lon="-1.015321">
        <time>2022-07-05T07:32:37Z</time>
      </trkpt>
      <trkpt lat="42.529346" lon="-1.0152737">
        <time>2022-07-05T07:32:39Z</time>
      </trkpt>
      <trkpt lat="42.52939" lon="-1.0152297">
        <time>2022-07-05T07:32:41Z</time>
      </trkpt>
      <trkpt lat="42.52944" lon="-1.0151671">
        <time>2022-07-05T07:32:44Z</time>
      </trkpt>
      <trkpt lat="42.529495" lon="-1.0151054">
        <time>2022-07-05T07:32:47Z</time>
      </trkpt>
      <trkpt lat="42.529545" lon="-1.0150437">
        <time>2022-07-05T07:32:50Z</time>
      </trkpt>
      <trkpt lat="42.529594" lon="-1.0149791">
        <time>2022-07-05T07:32:53Z</time>
      </trkpt>
      <trkpt lat="42.529648" lon="-1.0149151">
        <time>2022-07-05T07:32:56Z</time>
      </trkpt>
      <trkpt lat="42.5297" lon="-1.0148515">
        <time>2022-07-05T07:32:59Z</time>
      </trkpt>
      <trkpt lat="42.52976" lon="-1.0147891">
        <time>2022-07-05T07:33:02Z</time>
      </trkpt>
      <trkpt lat="42.529816" lon="-1.0147271">
        <time>2022-07-05T07:33:05Z</time>
      </trkpt>
      <trkpt lat="42.52986" lon="-1.0146624">
        <time>2022-07-05T07:33:08Z</time>
      </trkpt>
      <trkpt lat="42.52989" lon="-1.0146167">
        <time>2022-07-05T07:33:10Z</time>
      </trkpt>
      <trkpt lat="42.529922" lon="-1.0145404">
        <time>2022-07-05T07:33:13Z</time>
      </trkpt>
      <trkpt lat="42.529957" lon="-1.0144582">
        <time>2022-07-05T07:33:16Z</time>
      </trkpt>
      <trkpt lat="42.529984" lon="-1.0144018">
        <time>2022-07-05T07:33:18Z</time>
      </trkpt>
      <trkpt lat="42.530025" lon="-1.0143175">
        <time>2022-07-05T07:33:21Z</time>
      </trkpt>
      <trkpt lat="42.530052" lon="-1.0142635">
        <time>2022-07-05T07:33:23Z</time>
      </trkpt>
      <trkpt lat="42.530106" lon="-1.0141494">
        <time>2022-07-05T07:33:27Z</time>
      </trkpt>
      <trkpt lat="42.530132" lon="-1.0140815">
        <time>2022-07-05T07:33:29Z</time>
      </trkpt>
      <trkpt lat="42.53016" lon="-1.0140082">
        <time>2022-07-05T07:33:31Z</time>
      </trkpt>
      <trkpt lat="42.53018" lon="-1.0139251">
        <time>2022-07-05T07:33:33Z</time>
      </trkpt>
      <trkpt lat="42.53021" lon="-1.0138401">
        <time>2022-07-05T07:33:35Z</time>
      </trkpt>
      <trkpt lat="42.530235" lon="-1.0137501">
        <time>2022-07-05T07:33:37Z</time>
      </trkpt>
      <trkpt lat="42.530262" lon="-1.0136441">
        <time>2022-07-05T07:33:39Z</time>
      </trkpt>
      <trkpt lat="42.53029" lon="-1.0135298">
        <time>2022-07-05T07:33:41Z</time>
      </trkpt>
      <trkpt lat="42.530315" lon="-1.0134041">
        <time>2022-07-05T07:33:43Z</time>
      </trkpt>
      <trkpt lat="42.530327" lon="-1.0133338">
        <time>2022-07-05T07:33:44Z</time>
      </trkpt>
      <trkpt lat="42.53034" lon="-1.0132681">
        <time>2022-07-05T07:33:45Z</time>
      </trkpt>
      <trkpt lat="42.530357" lon="-1.0131295">
        <time>2022-07-05T07:33:47Z</time>
      </trkpt>
      <trkpt lat="42.530365" lon="-1.0130591">
        <time>2022-07-05T07:33:48Z</time>
      </trkpt>
      <trkpt lat="42.530373" lon="-1.0129895">
        <time>2022-07-05T07:33:49Z</time>
      </trkpt>
      <trkpt lat="42.53038" lon="-1.0129218">
        <time>2022-07-05T07:33:50Z</time>
      </trkpt>
      <trkpt lat="42.530388" lon="-1.0127915">
        <time>2022-07-05T07:33:52Z</time>
      </trkpt>
      <trkpt lat="42.530396" lon="-1.0126688">
        <time>2022-07-05T07:33:54Z</time>
      </trkpt>
      <trkpt lat="42.530407" lon="-1.0125521">
        <time>2022-07-05T07:33:56Z</time>
      </trkpt>
      <trkpt lat="42.530422" lon="-1.0124402">
        <time>2022-07-05T07:33:58Z</time>
      </trkpt>
      <trkpt lat="42.530445" lon="-1.0123315">
        <time>2022-07-05T07:34:00Z</time>
      </trkpt>
      <trkpt lat="42.530476" lon="-1.0122325">
        <time>2022-07-05T07:34:02Z</time>
      </trkpt>
      <trkpt lat="42.53051" lon="-1.0121435">
        <time>2022-07-05T07:34:04Z</time>
      </trkpt>
      <trkpt lat="42.530544" lon="-1.0120631">
        <time>2022-07-05T07:34:06Z</time>
      </trkpt>
      <trkpt lat="42.53058" lon="-1.0119892">
        <time>2022-07-05T07:34:08Z</time>
      </trkpt>
      <trkpt lat="42.530617" lon="-1.0119209">
        <time>2022-07-05T07:34:10Z</time>
      </trkpt>
      <trkpt lat="42.53065" lon="-1.0118542">
        <time>2022-07-05T07:34:12Z</time>
      </trkpt>
      <trkpt lat="42.53069" lon="-1.0117888">
        <time>2022-07-05T07:34:14Z</time>
      </trkpt>
      <trkpt lat="42.53072" lon="-1.0117242">
        <time>2022-07-05T07:34:16Z</time>
      </trkpt>
      <trkpt lat="42.530754" lon="-1.0116626">
        <time>2022-07-05T07:34:18Z</time>
      </trkpt>
      <trkpt lat="42.530785" lon="-1.011599">
        <time>2022-07-05T07:34:20Z</time>
      </trkpt>
      <trkpt lat="42.530815" lon="-1.0115399">
        <time>2022-07-05T07:34:22Z</time>
      </trkpt>
      <trkpt lat="42.53085" lon="-1.0114789">
        <time>2022-07-05T07:34:24Z</time>
      </trkpt>
      <trkpt lat="42.530884" lon="-1.0114216">
        <time>2022-07-05T07:34:26Z</time>
      </trkpt>
      <trkpt lat="42.530922" lon="-1.0113649">
        <time>2022-07-05T07:34:28Z</time>
      </trkpt>
      <trkpt lat="42.530956" lon="-1.0113065">
        <time>2022-07-05T07:34:30Z</time>
      </trkpt>
      <trkpt lat="42.53099" lon="-1.011251">
        <time>2022-07-05T07:34:32Z</time>
      </trkpt>
      <trkpt lat="42.531048" lon="-1.0111723">
        <time>2022-07-05T07:34:35Z</time>
      </trkpt>
      <trkpt lat="42.531094" lon="-1.0111196">
        <time>2022-07-05T07:34:37Z</time>
      </trkpt>
      <trkpt lat="42.531147" lon="-1.0110673">
        <time>2022-07-05T07:34:39Z</time>
      </trkpt>
      <trkpt lat="42.531204" lon="-1.0110133">
        <time>2022-07-05T07:34:41Z</time>
      </trkpt>
      <trkpt lat="42.531265" lon="-1.0109572">
        <time>2022-07-05T07:34:43Z</time>
      </trkpt>
      <trkpt lat="42.531334" lon="-1.0108953">
        <time>2022-07-05T07:34:45Z</time>
      </trkpt>
      <trkpt lat="42.531403" lon="-1.0108279">
        <time>2022-07-05T07:34:47Z</time>
      </trkpt>
      <trkpt lat="42.531475" lon="-1.0107526">
        <time>2022-07-05T07:34:49Z</time>
      </trkpt>
      <trkpt lat="42.53155" lon="-1.0106636">
        <time>2022-07-05T07:34:51Z</time>
      </trkpt>
      <trkpt lat="42.53163" lon="-1.0105289">
        <time>2022-07-05T07:34:54Z</time>
      </trkpt>
      <trkpt lat="42.531662" lon="-1.010466">
        <time>2022-07-05T07:34:55Z</time>
      </trkpt>
      <trkpt lat="42.53169" lon="-1.010404">
        <time>2022-07-05T07:34:56Z</time>
      </trkpt>
      <trkpt lat="42.531715" lon="-1.010342">
        <time>2022-07-05T07:34:57Z</time>
      </trkpt>
      <trkpt lat="42.53174" lon="-1.0102803">
        <time>2022-07-05T07:34:58Z</time>
      </trkpt>
      <trkpt lat="42.53178" lon="-1.0101573">
        <time>2022-07-05T07:35:00Z</time>
      </trkpt>
      <trkpt lat="42.5318" lon="-1.010096">
        <time>2022-07-05T07:35:01Z</time>
      </trkpt>
      <trkpt lat="42.531837" lon="-1.009975">
        <time>2022-07-05T07:35:03Z</time>
      </trkpt>
      <trkpt lat="42.531853" lon="-1.0099137">
        <time>2022-07-05T07:35:04Z</time>
      </trkpt>
      <trkpt lat="42.53189" lon="-1.0097957">
        <time>2022-07-05T07:35:06Z</time>
      </trkpt>
      <trkpt lat="42.53191" lon="-1.0097353">
        <time>2022-07-05T07:35:07Z</time>
      </trkpt>
      <trkpt lat="42.531944" lon="-1.0096179">
        <time>2022-07-05T07:35:09Z</time>
      </trkpt>
      <trkpt lat="42.53198" lon="-1.0095043">
        <time>2022-07-05T07:35:11Z</time>
      </trkpt>
      <trkpt lat="42.532013" lon="-1.0093946">
        <time>2022-07-05T07:35:13Z</time>
      </trkpt>
      <trkpt lat="42.532043" lon="-1.009292">
        <time>2022-07-05T07:35:15Z</time>
      </trkpt>
      <trkpt lat="42.532074" lon="-1.0091933">
        <time>2022-07-05T07:35:17Z</time>
      </trkpt>
      <trkpt lat="42.5321" lon="-1.0091007">
        <time>2022-07-05T07:35:19Z</time>
      </trkpt>
      <trkpt lat="42.532124" lon="-1.009011">
        <time>2022-07-05T07:35:21Z</time>
      </trkpt>
      <trkpt lat="42.53215" lon="-1.008924">
        <time>2022-07-05T07:35:23Z</time>
      </trkpt>
      <trkpt lat="42.53217" lon="-1.0088366">
        <time>2022-07-05T07:35:25Z</time>
      </trkpt>
      <trkpt lat="42.532185" lon="-1.008743">
        <time>2022-07-05T07:35:27Z</time>
      </trkpt>
      <trkpt lat="42.532192" lon="-1.008635">
        <time>2022-07-05T07:35:29Z</time>
      </trkpt>
      <trkpt lat="42.532192" lon="-1.0085161">
        <time>2022-07-05T07:35:31Z</time>
      </trkpt>
      <trkpt lat="42.532192" lon="-1.0083706">
        <time>2022-07-05T07:35:33Z</time>
      </trkpt>
      <trkpt lat="42.53219" lon="-1.0082937">
        <time>2022-07-05T07:35:34Z</time>
      </trkpt>
      <trkpt lat="42.53219" lon="-1.0082134">
        <time>2022-07-05T07:35:35Z</time>
      </trkpt>
      <trkpt lat="42.532192" lon="-1.0081303">
        <time>2022-07-05T07:35:36Z</time>
      </trkpt>
      <trkpt lat="42.532192" lon="-1.0080451">
        <time>2022-07-05T07:35:37Z</time>
      </trkpt>
      <trkpt lat="42.5322" lon="-1.0079577">
        <time>2022-07-05T07:35:38Z</time>
      </trkpt>
      <trkpt lat="42.53221" lon="-1.0078684">
        <time>2022-07-05T07:35:39Z</time>
      </trkpt>
      <trkpt lat="42.532227" lon="-1.007778">
        <time>2022-07-05T07:35:40Z</time>
      </trkpt>
      <trkpt lat="42.53225" lon="-1.007686">
        <time>2022-07-05T07:35:41Z</time>
      </trkpt>
      <trkpt lat="42.532272" lon="-1.0075934">
        <time>2022-07-05T07:35:42Z</time>
      </trkpt>
      <trkpt lat="42.532303" lon="-1.007501">
        <time>2022-07-05T07:35:43Z</time>
      </trkpt>
      <trkpt lat="42.532337" lon="-1.0074093">
        <time>2022-07-05T07:35:44Z</time>
      </trkpt>
      <trkpt lat="42.532375" lon="-1.0073197">
        <time>2022-07-05T07:35:45Z</time>
      </trkpt>
      <trkpt lat="42.53242" lon="-1.0072314">
        <time>2022-07-05T07:35:46Z</time>
      </trkpt>
      <trkpt lat="42.53247" lon="-1.0071461">
        <time>2022-07-05T07:35:47Z</time>
      </trkpt>
      <trkpt lat="42.532524" lon="-1.0070654">
        <time>2022-07-05T07:35:48Z</time>
      </trkpt>
      <trkpt lat="42.532585" lon="-1.0069877">
        <time>2022-07-05T07:35:49Z</time>
      </trkpt>
      <trkpt lat="42.532642" lon="-1.0069114">
        <time>2022-07-05T07:35:50Z</time>
      </trkpt>
      <trkpt lat="42.5327" lon="-1.0068411">
        <time>2022-07-05T07:35:51Z</time>
      </trkpt>
      <trkpt lat="42.53276" lon="-1.0067704">
        <time>2022-07-05T07:35:52Z</time>
      </trkpt>
      <trkpt lat="42.532818" lon="-1.0067015">
        <time>2022-07-05T07:35:53Z</time>
      </trkpt>
      <trkpt lat="42.532883" lon="-1.0066338">
        <time>2022-07-05T07:35:54Z</time>
      </trkpt>
      <trkpt lat="42.532948" lon="-1.0065647">
        <time>2022-07-05T07:35:55Z</time>
      </trkpt>
      <trkpt lat="42.533012" lon="-1.0065001">
        <time>2022-07-05T07:35:56Z</time>
      </trkpt>
      <trkpt lat="42.533073" lon="-1.0064378">
        <time>2022-07-05T07:35:57Z</time>
      </trkpt>
      <trkpt lat="42.53313" lon="-1.0063825">
        <time>2022-07-05T07:35:58Z</time>
      </trkpt>
      <trkpt lat="42.533188" lon="-1.0063281">
        <time>2022-07-05T07:35:59Z</time>
      </trkpt>
      <trkpt lat="42.53325" lon="-1.0062724">
        <time>2022-07-05T07:36:00Z</time>
      </trkpt>
      <trkpt lat="42.533306" lon="-1.0062197">
        <time>2022-07-05T07:36:01Z</time>
      </trkpt>
      <trkpt lat="42.533363" lon="-1.0061702">
        <time>2022-07-05T07:36:02Z</time>
      </trkpt>
      <trkpt lat="42.53342" lon="-1.0061218">
        <time>2022-07-05T07:36:03Z</time>
      </trkpt>
      <trkpt lat="42.533474" lon="-1.0060748">
        <time>2022-07-05T07:36:04Z</time>
      </trkpt>
      <trkpt lat="42.533527" lon="-1.0060291">
        <time>2022-07-05T07:36:05Z</time>
      </trkpt>
      <trkpt lat="42.533577" lon="-1.0059835">
        <time>2022-07-05T07:36:06Z</time>
      </trkpt>
      <trkpt lat="42.533627" lon="-1.0059404">
        <time>2022-07-05T07:36:07Z</time>
      </trkpt>
      <trkpt lat="42.533676" lon="-1.0058988">
        <time>2022-07-05T07:36:08Z</time>
      </trkpt>
      <trkpt lat="42.53373" lon="-1.0058585">
        <time>2022-07-05T07:36:09Z</time>
      </trkpt>
      <trkpt lat="42.53378" lon="-1.0058181">
        <time>2022-07-05T07:36:10Z</time>
      </trkpt>
      <trkpt lat="42.533825" lon="-1.0057771">
        <time>2022-07-05T07:36:11Z</time>
      </trkpt>
      <trkpt lat="42.53387" lon="-1.0057368">
        <time>2022-07-05T07:36:12Z</time>
      </trkpt>
      <trkpt lat="42.533916" lon="-1.0056965">
        <time>2022-07-05T07:36:13Z</time>
      </trkpt>
      <trkpt lat="42.533962" lon="-1.0056578">
        <time>2022-07-05T07:36:14Z</time>
      </trkpt>
      <trkpt lat="42.534" lon="-1.0056218">
        <time>2022-07-05T07:36:15Z</time>
      </trkpt>
      <trkpt lat="42.534077" lon="-1.0055592">
        <time>2022-07-05T07:36:17Z</time>
      </trkpt>
      <trkpt lat="42.534145" lon="-1.0055009">
        <time>2022-07-05T07:36:19Z</time>
      </trkpt>
      <trkpt lat="42.534206" lon="-1.0054502">
        <time>2022-07-05T07:36:21Z</time>
      </trkpt>
      <trkpt lat="42.53426" lon="-1.0054048">
        <time>2022-07-05T07:36:23Z</time>
      </trkpt>
      <trkpt lat="42.53431" lon="-1.0053605">
        <time>2022-07-05T07:36:25Z</time>
      </trkpt>
      <trkpt lat="42.534355" lon="-1.0053129">
        <time>2022-07-05T07:36:27Z</time>
      </trkpt>
      <trkpt lat="42.534393" lon="-1.0052645">
        <time>2022-07-05T07:36:29Z</time>
      </trkpt>
      <trkpt lat="42.534447" lon="-1.0051922">
        <time>2022-07-05T07:36:32Z</time>
      </trkpt>
      <trkpt lat="42.534496" lon="-1.0051192">
        <time>2022-07-05T07:36:35Z</time>
      </trkpt>
      <trkpt lat="42.534527" lon="-1.005068">
        <time>2022-07-05T07:36:37Z</time>
      </trkpt>
      <trkpt lat="42.53456" lon="-1.0050149">
        <time>2022-07-05T07:36:39Z</time>
      </trkpt>
      <trkpt lat="42.53461" lon="-1.0049338">
        <time>2022-07-05T07:36:42Z</time>
      </trkpt>
      <trkpt lat="42.534637" lon="-1.0048802">
        <time>2022-07-05T07:36:44Z</time>
      </trkpt>
      <trkpt lat="42.534683" lon="-1.0048002">
        <time>2022-07-05T07:36:47Z</time>
      </trkpt>
      <trkpt lat="42.534725" lon="-1.0047193">
        <time>2022-07-05T07:36:50Z</time>
      </trkpt>
      <trkpt lat="42.53475" lon="-1.0046632">
        <time>2022-07-05T07:36:52Z</time>
      </trkpt>
      <trkpt lat="42.534798" lon="-1.004579">
        <time>2022-07-05T07:36:55Z</time>
      </trkpt>
      <trkpt lat="42.534824" lon="-1.0045176">
        <time>2022-07-05T07:36:57Z</time>
      </trkpt>
      <trkpt lat="42.53485" lon="-1.0044539">
        <time>2022-07-05T07:36:59Z</time>
      </trkpt>
      <trkpt lat="42.534878" lon="-1.004386">
        <time>2022-07-05T07:37:01Z</time>
      </trkpt>
      <trkpt lat="42.53491" lon="-1.0043093">
        <time>2022-07-05T07:37:03Z</time>
      </trkpt>
      <trkpt lat="42.534935" lon="-1.0042295">
        <time>2022-07-05T07:37:05Z</time>
      </trkpt>
      <trkpt lat="42.53496" lon="-1.0041479">
        <time>2022-07-05T07:37:07Z</time>
      </trkpt>
      <trkpt lat="42.53499" lon="-1.0040646">
        <time>2022-07-05T07:37:09Z</time>
      </trkpt>
      <trkpt lat="42.53501" lon="-1.003981">
        <time>2022-07-05T07:37:11Z</time>
      </trkpt>
      <trkpt lat="42.535038" lon="-1.0038896">
        <time>2022-07-05T07:37:13Z</time>
      </trkpt>
      <trkpt lat="42.535057" lon="-1.0037899">
        <time>2022-07-05T07:37:15Z</time>
      </trkpt>
      <trkpt lat="42.53507" lon="-1.003688">
        <time>2022-07-05T07:37:17Z</time>
      </trkpt>
      <trkpt lat="42.535076" lon="-1.0035876">
        <time>2022-07-05T07:37:19Z</time>
      </trkpt>
      <trkpt lat="42.535076" lon="-1.0034829">
        <time>2022-07-05T07:37:21Z</time>
      </trkpt>
      <trkpt lat="42.53508" lon="-1.0033807">
        <time>2022-07-05T07:37:23Z</time>
      </trkpt>
      <trkpt lat="42.53508" lon="-1.003273">
        <time>2022-07-05T07:37:25Z</time>
      </trkpt>
      <trkpt lat="42.535084" lon="-1.003165">
        <time>2022-07-05T07:37:27Z</time>
      </trkpt>
      <trkpt lat="42.53509" lon="-1.0030583">
        <time>2022-07-05T07:37:29Z</time>
      </trkpt>
      <trkpt lat="42.5351" lon="-1.0029536">
        <time>2022-07-05T07:37:31Z</time>
      </trkpt>
      <trkpt lat="42.535114" lon="-1.0028503">
        <time>2022-07-05T07:37:33Z</time>
      </trkpt>
      <trkpt lat="42.53513" lon="-1.002751">
        <time>2022-07-05T07:37:35Z</time>
      </trkpt>
      <trkpt lat="42.53515" lon="-1.0026484">
        <time>2022-07-05T07:37:37Z</time>
      </trkpt>
      <trkpt lat="42.535175" lon="-1.0025513">
        <time>2022-07-05T07:37:39Z</time>
      </trkpt>
      <trkpt lat="42.5352" lon="-1.002455">
        <time>2022-07-05T07:37:41Z</time>
      </trkpt>
      <trkpt lat="42.535217" lon="-1.0023557">
        <time>2022-07-05T07:37:43Z</time>
      </trkpt>
      <trkpt lat="42.535236" lon="-1.0022577">
        <time>2022-07-05T07:37:45Z</time>
      </trkpt>
      <trkpt lat="42.53526" lon="-1.002161">
        <time>2022-07-05T07:37:47Z</time>
      </trkpt>
      <trkpt lat="42.535286" lon="-1.0020636">
        <time>2022-07-05T07:37:49Z</time>
      </trkpt>
      <trkpt lat="42.53531" lon="-1.001968">
        <time>2022-07-05T07:37:51Z</time>
      </trkpt>
      <trkpt lat="42.53533" lon="-1.001875">
        <time>2022-07-05T07:37:53Z</time>
      </trkpt>
      <trkpt lat="42.535355" lon="-1.0017843">
        <time>2022-07-05T07:37:55Z</time>
      </trkpt>
      <trkpt lat="42.535374" lon="-1.0016958">
        <time>2022-07-05T07:37:57Z</time>
      </trkpt>
      <trkpt lat="42.535397" lon="-1.0016074">
        <time>2022-07-05T07:37:59Z</time>
      </trkpt>
      <trkpt lat="42.535416" lon="-1.0015197">
        <time>2022-07-05T07:38:01Z</time>
      </trkpt>
      <trkpt lat="42.53544" lon="-1.0014343">
        <time>2022-07-05T07:38:03Z</time>
      </trkpt>
      <trkpt lat="42.535458" lon="-1.0013477">
        <time>2022-07-05T07:38:05Z</time>
      </trkpt>
      <trkpt lat="42.53548" lon="-1.0012624">
        <time>2022-07-05T07:38:07Z</time>
      </trkpt>
      <trkpt lat="42.535503" lon="-1.0011804">
        <time>2022-07-05T07:38:09Z</time>
      </trkpt>
      <trkpt lat="42.535522" lon="-1.0010991">
        <time>2022-07-05T07:38:11Z</time>
      </trkpt>
      <trkpt lat="42.535545" lon="-1.0010188">
        <time>2022-07-05T07:38:13Z</time>
      </trkpt>
      <trkpt lat="42.53557" lon="-1.0009404">
        <time>2022-07-05T07:38:15Z</time>
      </trkpt>
      <trkpt lat="42.535595" lon="-1.0008631">
        <time>2022-07-05T07:38:17Z</time>
      </trkpt>
      <trkpt lat="42.53563" lon="-1.0007874">
        <time>2022-07-05T07:38:19Z</time>
      </trkpt>
      <trkpt lat="42.535664" lon="-1.0007124">
        <time>2022-07-05T07:38:21Z</time>
      </trkpt>
      <trkpt lat="42.535698" lon="-1.0006391">
        <time>2022-07-05T07:38:23Z</time>
      </trkpt>
      <trkpt lat="42.535732" lon="-1.0005671">
        <time>2022-07-05T07:38:25Z</time>
      </trkpt>
      <trkpt lat="42.53577" lon="-1.0004921">
        <time>2022-07-05T07:38:27Z</time>
      </trkpt>
      <trkpt lat="42.53581" lon="-1.0004194">
        <time>2022-07-05T07:38:29Z</time>
      </trkpt>
      <trkpt lat="42.535847" lon="-1.0003511">
        <time>2022-07-05T07:38:31Z</time>
      </trkpt>
      <trkpt lat="42.535885" lon="-1.0002831">
        <time>2022-07-05T07:38:33Z</time>
      </trkpt>
      <trkpt lat="42.535923" lon="-1.0002111">
        <time>2022-07-05T07:38:35Z</time>
      </trkpt>
      <trkpt lat="42.53598" lon="-1.0001037">
        <time>2022-07-05T07:38:38Z</time>
      </trkpt>
      <trkpt lat="42.53602" lon="-1.0000331">
        <time>2022-07-05T07:38:40Z</time>
      </trkpt>
      <trkpt lat="42.53606" lon="-0.9999601">
        <time>2022-07-05T07:38:42Z</time>
      </trkpt>
      <trkpt lat="42.5361" lon="-0.9998888">
        <time>2022-07-05T07:38:44Z</time>
      </trkpt>
      <trkpt lat="42.53614" lon="-0.9998164">
        <time>2022-07-05T07:38:46Z</time>
      </trkpt>
      <trkpt lat="42.53618" lon="-0.99974847">
        <time>2022-07-05T07:38:48Z</time>
      </trkpt>
      <trkpt lat="42.536224" lon="-0.9996824">
        <time>2022-07-05T07:38:50Z</time>
      </trkpt>
      <trkpt lat="42.53627" lon="-0.9996161">
        <time>2022-07-05T07:38:52Z</time>
      </trkpt>
      <trkpt lat="42.536312" lon="-0.99955076">
        <time>2022-07-05T07:38:54Z</time>
      </trkpt>
      <trkpt lat="42.536358" lon="-0.99948543">
        <time>2022-07-05T07:38:56Z</time>
      </trkpt>
      <trkpt lat="42.5364" lon="-0.9994174">
        <time>2022-07-05T07:38:58Z</time>
      </trkpt>
      <trkpt lat="42.53644" lon="-0.9993478">
        <time>2022-07-05T07:39:00Z</time>
      </trkpt>
      <trkpt lat="42.53648" lon="-0.99927443">
        <time>2022-07-05T07:39:02Z</time>
      </trkpt>
      <trkpt lat="42.536514" lon="-0.99919844">
        <time>2022-07-05T07:39:04Z</time>
      </trkpt>
      <trkpt lat="42.53654" lon="-0.9991168">
        <time>2022-07-05T07:39:06Z</time>
      </trkpt>
      <trkpt lat="42.536552" lon="-0.99903846">
        <time>2022-07-05T07:39:08Z</time>
      </trkpt>
      <trkpt lat="42.536552" lon="-0.9989555">
        <time>2022-07-05T07:39:10Z</time>
      </trkpt>
      <trkpt lat="42.536545" lon="-0.9988705">
        <time>2022-07-05T07:39:12Z</time>
      </trkpt>
      <trkpt lat="42.536537" lon="-0.99878615">
        <time>2022-07-05T07:39:14Z</time>
      </trkpt>
      <trkpt lat="42.536533" lon="-0.9987028">
        <time>2022-07-05T07:39:16Z</time>
      </trkpt>
      <trkpt lat="42.536533" lon="-0.9986108">
        <time>2022-07-05T07:39:18Z</time>
      </trkpt>
      <trkpt lat="42.536545" lon="-0.99851847">
        <time>2022-07-05T07:39:20Z</time>
      </trkpt>
      <trkpt lat="42.53658" lon="-0.9984268">
        <time>2022-07-05T07:39:22Z</time>
      </trkpt>
      <trkpt lat="42.536625" lon="-0.9983395">
        <time>2022-07-05T07:39:24Z</time>
      </trkpt>
      <trkpt lat="42.53668" lon="-0.99825585">
        <time>2022-07-05T07:39:26Z</time>
      </trkpt>
      <trkpt lat="42.536736" lon="-0.99817985">
        <time>2022-07-05T07:39:28Z</time>
      </trkpt>
      <trkpt lat="42.536793" lon="-0.9981048">
        <time>2022-07-05T07:39:30Z</time>
      </trkpt>
      <trkpt lat="42.53685" lon="-0.9980292">
        <time>2022-07-05T07:39:32Z</time>
      </trkpt>
      <trkpt lat="42.536903" lon="-0.9979528">
        <time>2022-07-05T07:39:34Z</time>
      </trkpt>
      <trkpt lat="42.536964" lon="-0.9978765">
        <time>2022-07-05T07:39:36Z</time>
      </trkpt>
      <trkpt lat="42.53702" lon="-0.99780387">
        <time>2022-07-05T07:39:38Z</time>
      </trkpt>
      <trkpt lat="42.53708" lon="-0.9977365">
        <time>2022-07-05T07:39:40Z</time>
      </trkpt>
      <trkpt lat="42.537132" lon="-0.99767685">
        <time>2022-07-05T07:39:42Z</time>
      </trkpt>
      <trkpt lat="42.53719" lon="-0.9976282">
        <time>2022-07-05T07:39:44Z</time>
      </trkpt>
      <trkpt lat="42.53725" lon="-0.9975885">
        <time>2022-07-05T07:39:46Z</time>
      </trkpt>
      <trkpt lat="42.53731" lon="-0.9975502">
        <time>2022-07-05T07:39:48Z</time>
      </trkpt>
      <trkpt lat="42.537373" lon="-0.9975129">
        <time>2022-07-05T07:39:50Z</time>
      </trkpt>
      <trkpt lat="42.537434" lon="-0.99747455">
        <time>2022-07-05T07:39:52Z</time>
      </trkpt>
      <trkpt lat="42.537495" lon="-0.99743325">
        <time>2022-07-05T07:39:54Z</time>
      </trkpt>
      <trkpt lat="42.53755" lon="-0.99738824">
        <time>2022-07-05T07:39:56Z</time>
      </trkpt>
      <trkpt lat="42.5376" lon="-0.9973349">
        <time>2022-07-05T07:39:58Z</time>
      </trkpt>
      <trkpt lat="42.537643" lon="-0.9972732">
        <time>2022-07-05T07:40:00Z</time>
      </trkpt>
      <trkpt lat="42.53768" lon="-0.9972089">
        <time>2022-07-05T07:40:02Z</time>
      </trkpt>
      <trkpt lat="42.537712" lon="-0.9971399">
        <time>2022-07-05T07:40:04Z</time>
      </trkpt>
      <trkpt lat="42.537735" lon="-0.99707323">
        <time>2022-07-05T07:40:06Z</time>
      </trkpt>
      <trkpt lat="42.537758" lon="-0.9970069">
        <time>2022-07-05T07:40:08Z</time>
      </trkpt>
      <trkpt lat="42.537777" lon="-0.9969436">
        <time>2022-07-05T07:40:10Z</time>
      </trkpt>
      <trkpt lat="42.5378" lon="-0.9968819">
        <time>2022-07-05T07:40:12Z</time>
      </trkpt>
      <trkpt lat="42.537827" lon="-0.99679226">
        <time>2022-07-05T07:40:15Z</time>
      </trkpt>
      <trkpt lat="42.537853" lon="-0.99670494">
        <time>2022-07-05T07:40:18Z</time>
      </trkpt>
      <trkpt lat="42.53788" lon="-0.9966139">
        <time>2022-07-05T07:40:21Z</time>
      </trkpt>
      <trkpt lat="42.537903" lon="-0.99652225">
        <time>2022-07-05T07:40:24Z</time>
      </trkpt>
      <trkpt lat="42.53793" lon="-0.99643826">
        <time>2022-07-05T07:40:27Z</time>
      </trkpt>
      <trkpt lat="42.537964" lon="-0.9963516">
        <time>2022-07-05T07:40:30Z</time>
      </trkpt>
      <trkpt lat="42.537987" lon="-0.99626863">
        <time>2022-07-05T07:40:33Z</time>
      </trkpt>
      <trkpt lat="42.538017" lon="-0.99615395">
        <time>2022-07-05T07:40:37Z</time>
      </trkpt>
      <trkpt lat="42.53804" lon="-0.99607193">
        <time>2022-07-05T07:40:40Z</time>
      </trkpt>
      <trkpt lat="42.538067" lon="-0.9959896">
        <time>2022-07-05T07:40:43Z</time>
      </trkpt>
      <trkpt lat="42.538097" lon="-0.9959123">
        <time>2022-07-05T07:40:46Z</time>
      </trkpt>
      <trkpt lat="42.538128" lon="-0.9958186">
        <time>2022-07-05T07:40:50Z</time>
      </trkpt>
      <trkpt lat="42.53815" lon="-0.9957493">
        <time>2022-07-05T07:40:53Z</time>
      </trkpt>
      <trkpt lat="42.538174" lon="-0.99568">
        <time>2022-07-05T07:40:56Z</time>
      </trkpt>
      <trkpt lat="42.5382" lon="-0.99561465">
        <time>2022-07-05T07:40:59Z</time>
      </trkpt>
      <trkpt lat="42.538227" lon="-0.99555296">
        <time>2022-07-05T07:41:02Z</time>
      </trkpt>
      <trkpt lat="42.53826" lon="-0.9954943">
        <time>2022-07-05T07:41:05Z</time>
      </trkpt>
      <trkpt lat="42.5383" lon="-0.9954363">
        <time>2022-07-05T07:41:08Z</time>
      </trkpt>
      <trkpt lat="42.538338" lon="-0.995381">
        <time>2022-07-05T07:41:11Z</time>
      </trkpt>
      <trkpt lat="42.53838" lon="-0.9953293">
        <time>2022-07-05T07:41:14Z</time>
      </trkpt>
      <trkpt lat="42.538425" lon="-0.9952803">
        <time>2022-07-05T07:41:17Z</time>
      </trkpt>
      <trkpt lat="42.538475" lon="-0.995238">
        <time>2022-07-05T07:41:20Z</time>
      </trkpt>
      <trkpt lat="42.538525" lon="-0.9951957">
        <time>2022-07-05T07:41:23Z</time>
      </trkpt>
      <trkpt lat="42.538574" lon="-0.99515736">
        <time>2022-07-05T07:41:26Z</time>
      </trkpt>
      <trkpt lat="42.53862" lon="-0.9951117">
        <time>2022-07-05T07:41:29Z</time>
      </trkpt>
      <trkpt lat="42.538666" lon="-0.99506336">
        <time>2022-07-05T07:41:32Z</time>
      </trkpt>
      <trkpt lat="42.53871" lon="-0.99500936">
        <time>2022-07-05T07:41:35Z</time>
      </trkpt>
      <trkpt lat="42.538773" lon="-0.99492437">
        <time>2022-07-05T07:41:39Z</time>
      </trkpt>
      <trkpt lat="42.5388" lon="-0.9948714">
        <time>2022-07-05T07:41:41Z</time>
      </trkpt>
      <trkpt lat="42.538837" lon="-0.994777">
        <time>2022-07-05T07:41:44Z</time>
      </trkpt>
      <trkpt lat="42.538868" lon="-0.994712">
        <time>2022-07-05T07:41:46Z</time>
      </trkpt>
      <trkpt lat="42.538895" lon="-0.9946477">
        <time>2022-07-05T07:41:48Z</time>
      </trkpt>
      <trkpt lat="42.538925" lon="-0.9945844">
        <time>2022-07-05T07:41:50Z</time>
      </trkpt>
      <trkpt lat="42.53896" lon="-0.99452233">
        <time>2022-07-05T07:41:52Z</time>
      </trkpt>
      <trkpt lat="42.538998" lon="-0.99446404">
        <time>2022-07-05T07:41:54Z</time>
      </trkpt>
      <trkpt lat="42.539047" lon="-0.99441534">
        <time>2022-07-05T07:41:56Z</time>
      </trkpt>
      <trkpt lat="42.539104" lon="-0.994381">
        <time>2022-07-05T07:41:58Z</time>
      </trkpt>
      <trkpt lat="42.539158" lon="-0.99436235">
        <time>2022-07-05T07:42:00Z</time>
      </trkpt>
      <trkpt lat="42.539215" lon="-0.9943627">
        <time>2022-07-05T07:42:02Z</time>
      </trkpt>
      <trkpt lat="42.539265" lon="-0.9943774">
        <time>2022-07-05T07:42:04Z</time>
      </trkpt>
      <trkpt lat="42.539333" lon="-0.9944134">
        <time>2022-07-05T07:42:07Z</time>
      </trkpt>
      <trkpt lat="42.539394" lon="-0.9944577">
        <time>2022-07-05T07:42:10Z</time>
      </trkpt>
      <trkpt lat="42.539448" lon="-0.9945047">
        <time>2022-07-05T07:42:13Z</time>
      </trkpt>
      <trkpt lat="42.539497" lon="-0.99454933">
        <time>2022-07-05T07:42:16Z</time>
      </trkpt>
      <trkpt lat="42.539547" lon="-0.9945907">
        <time>2022-07-05T07:42:19Z</time>
      </trkpt>
      <trkpt lat="42.539597" lon="-0.9946257">
        <time>2022-07-05T07:42:22Z</time>
      </trkpt>
      <trkpt lat="42.539646" lon="-0.99466133">
        <time>2022-07-05T07:42:25Z</time>
      </trkpt>
      <trkpt lat="42.5397" lon="-0.994694">
        <time>2022-07-05T07:42:28Z</time>
      </trkpt>
      <trkpt lat="42.539753" lon="-0.99471235">
        <time>2022-07-05T07:42:31Z</time>
      </trkpt>
      <trkpt lat="42.539803" lon="-0.99471635">
        <time>2022-07-05T07:42:34Z</time>
      </trkpt>
      <trkpt lat="42.539864" lon="-0.9947027">
        <time>2022-07-05T07:42:38Z</time>
      </trkpt>
      <trkpt lat="42.539917" lon="-0.99466836">
        <time>2022-07-05T07:42:42Z</time>
      </trkpt>
      <trkpt lat="42.539967" lon="-0.99460536">
        <time>2022-07-05T07:42:47Z</time>
      </trkpt>
      <trkpt lat="42.53999" lon="-0.99454767">
        <time>2022-07-05T07:42:50Z</time>
      </trkpt>
      <trkpt lat="42.540016" lon="-0.994467">
        <time>2022-07-05T07:42:54Z</time>
      </trkpt>
      <trkpt lat="42.540035" lon="-0.9944054">
        <time>2022-07-05T07:42:57Z</time>
      </trkpt>
      <trkpt lat="42.54006" lon="-0.99432236">
        <time>2022-07-05T07:43:01Z</time>
      </trkpt>
      <trkpt lat="42.540077" lon="-0.99424005">
        <time>2022-07-05T07:43:05Z</time>
      </trkpt>
      <trkpt lat="42.540092" lon="-0.9941777">
        <time>2022-07-05T07:43:08Z</time>
      </trkpt>
      <trkpt lat="42.540108" lon="-0.99409205">
        <time>2022-07-05T07:43:12Z</time>
      </trkpt>
      <trkpt lat="42.540127" lon="-0.99400604">
        <time>2022-07-05T07:43:16Z</time>
      </trkpt>
      <trkpt lat="42.540134" lon="-0.99394274">
        <time>2022-07-05T07:43:19Z</time>
      </trkpt>
      <trkpt lat="42.540142" lon="-0.99385804">
        <time>2022-07-05T07:43:23Z</time>
      </trkpt>
      <trkpt lat="42.540142" lon="-0.99379206">
        <time>2022-07-05T07:43:26Z</time>
      </trkpt>
      <trkpt lat="42.54014" lon="-0.99370706">
        <time>2022-07-05T07:43:30Z</time>
      </trkpt>
      <trkpt lat="42.540142" lon="-0.99362004">
        <time>2022-07-05T07:43:34Z</time>
      </trkpt>
      <trkpt lat="42.540142" lon="-0.9935327">
        <time>2022-07-05T07:43:38Z</time>
      </trkpt>
      <trkpt lat="42.540142" lon="-0.9934494">
        <time>2022-07-05T07:43:42Z</time>
      </trkpt>
      <trkpt lat="42.540146" lon="-0.99336904">
        <time>2022-07-05T07:43:46Z</time>
      </trkpt>
      <trkpt lat="42.540154" lon="-0.99329406">
        <time>2022-07-05T07:43:50Z</time>
      </trkpt>
      <trkpt lat="42.54017" lon="-0.9932241">
        <time>2022-07-05T07:43:54Z</time>
      </trkpt>
      <trkpt lat="42.54019" lon="-0.9931584">
        <time>2022-07-05T07:43:58Z</time>
      </trkpt>
      <trkpt lat="42.54022" lon="-0.9930924">
        <time>2022-07-05T07:44:02Z</time>
      </trkpt>
      <trkpt lat="42.54025" lon="-0.9930261">
        <time>2022-07-05T07:44:06Z</time>
      </trkpt>
      <trkpt lat="42.540276" lon="-0.99295676">
        <time>2022-07-05T07:44:10Z</time>
      </trkpt>
      <trkpt lat="42.540306" lon="-0.9928871">
        <time>2022-07-05T07:44:14Z</time>
      </trkpt>
      <trkpt lat="42.54034" lon="-0.9928238">
        <time>2022-07-05T07:44:18Z</time>
      </trkpt>
      <trkpt lat="42.540367" lon="-0.9927551">
        <time>2022-07-05T07:44:22Z</time>
      </trkpt>
      <trkpt lat="42.540398" lon="-0.9926771">
        <time>2022-07-05T07:44:27Z</time>
      </trkpt>
      <trkpt lat="42.540424" lon="-0.99261546">
        <time>2022-07-05T07:44:30Z</time>
      </trkpt>
      <trkpt lat="42.540447" lon="-0.99256045">
        <time>2022-07-05T07:44:33Z</time>
      </trkpt>
      <trkpt lat="42.540474" lon="-0.99249244">
        <time>2022-07-05T07:44:37Z</time>
      </trkpt>
      <trkpt lat="42.540493" lon="-0.99241644">
        <time>2022-07-05T07:44:41Z</time>
      </trkpt>
      <trkpt lat="42.540516" lon="-0.9923438">
        <time>2022-07-05T07:44:45Z</time>
      </trkpt>
      <trkpt lat="42.540543" lon="-0.9922711">
        <time>2022-07-05T07:44:49Z</time>
      </trkpt>
      <trkpt lat="42.54056" lon="-0.99219847">
        <time>2022-07-05T07:44:53Z</time>
      </trkpt>
      <trkpt lat="42.54059" lon="-0.9921238">
        <time>2022-07-05T07:44:57Z</time>
      </trkpt>
      <trkpt lat="42.540607" lon="-0.9920461">
        <time>2022-07-05T07:45:01Z</time>
      </trkpt>
      <trkpt lat="42.54062" lon="-0.9919665">
        <time>2022-07-05T07:45:05Z</time>
      </trkpt>
      <trkpt lat="42.540615" lon="-0.99188715">
        <time>2022-07-05T07:45:09Z</time>
      </trkpt>
      <trkpt lat="42.540604" lon="-0.9918115">
        <time>2022-07-05T07:45:13Z</time>
      </trkpt>
      <trkpt lat="42.54057" lon="-0.99175614">
        <time>2022-07-05T07:45:17Z</time>
      </trkpt>
      <trkpt lat="42.540527" lon="-0.99170613">
        <time>2022-07-05T07:45:21Z</time>
      </trkpt>
      <trkpt lat="42.54048" lon="-0.99166214">
        <time>2022-07-05T07:45:25Z</time>
      </trkpt>
      <trkpt lat="42.540436" lon="-0.9916205">
        <time>2022-07-05T07:45:29Z</time>
      </trkpt>
      <trkpt lat="42.54039" lon="-0.9915762">
        <time>2022-07-05T07:45:33Z</time>
      </trkpt>
      <trkpt lat="42.540356" lon="-0.99151784">
        <time>2022-07-05T07:45:37Z</time>
      </trkpt>
      <trkpt lat="42.540337" lon="-0.9914505">
        <time>2022-07-05T07:45:41Z</time>
      </trkpt>
      <trkpt lat="42.540333" lon="-0.9913782">
        <time>2022-07-05T07:45:45Z</time>
      </trkpt>
      <trkpt lat="42.540348" lon="-0.9913098">
        <time>2022-07-05T07:45:49Z</time>
      </trkpt>
      <trkpt lat="42.54037" lon="-0.99124086">
        <time>2022-07-05T07:45:53Z</time>
      </trkpt>
      <trkpt lat="42.540386" lon="-0.9911655">
        <time>2022-07-05T07:45:57Z</time>
      </trkpt>
      <trkpt lat="42.540405" lon="-0.9910895">
        <time>2022-07-05T07:46:01Z</time>
      </trkpt>
      <trkpt lat="42.54043" lon="-0.99101686">
        <time>2022-07-05T07:46:05Z</time>
      </trkpt>
      <trkpt lat="42.540455" lon="-0.99094754">
        <time>2022-07-05T07:46:09Z</time>
      </trkpt>
      <trkpt lat="42.540478" lon="-0.9908789">
        <time>2022-07-05T07:46:13Z</time>
      </trkpt>
      <trkpt lat="42.540497" lon="-0.9908079">
        <time>2022-07-05T07:46:17Z</time>
      </trkpt>
      <trkpt lat="42.540516" lon="-0.99073523">
        <time>2022-07-05T07:46:21Z</time>
      </trkpt>
      <trkpt lat="42.540535" lon="-0.9906629">
        <time>2022-07-05T07:46:25Z</time>
      </trkpt>
      <trkpt lat="42.540558" lon="-0.99059254">
        <time>2022-07-05T07:46:29Z</time>
      </trkpt>
      <trkpt lat="42.540585" lon="-0.9905236">
        <time>2022-07-05T07:46:33Z</time>
      </trkpt>
      <trkpt lat="42.540604" lon="-0.9904472">
        <time>2022-07-05T07:46:37Z</time>
      </trkpt>
      <trkpt lat="42.540623" lon="-0.99035454">
        <time>2022-07-05T07:46:42Z</time>
      </trkpt>
      <trkpt lat="42.540638" lon="-0.99027824">
        <time>2022-07-05T07:46:46Z</time>
      </trkpt>
      <trkpt lat="42.540657" lon="-0.9902046">
        <time>2022-07-05T07:46:50Z</time>
      </trkpt>
      <trkpt lat="42.540676" lon="-0.9901336">
        <time>2022-07-05T07:46:54Z</time>
      </trkpt>
      <trkpt lat="42.5407" lon="-0.9900626">
        <time>2022-07-05T07:46:58Z</time>
      </trkpt>
      <trkpt lat="42.540726" lon="-0.98999155">
        <time>2022-07-05T07:47:02Z</time>
      </trkpt>
      <trkpt lat="42.540768" lon="-0.9899326">
        <time>2022-07-05T07:47:06Z</time>
      </trkpt>
      <trkpt lat="42.54081" lon="-0.98987526">
        <time>2022-07-05T07:47:10Z</time>
      </trkpt>
      <trkpt lat="42.54086" lon="-0.98982793">
        <time>2022-07-05T07:47:14Z</time>
      </trkpt>
      <trkpt lat="42.540916" lon="-0.98979324">
        <time>2022-07-05T07:47:18Z</time>
      </trkpt>
      <trkpt lat="42.540974" lon="-0.9897646">
        <time>2022-07-05T07:47:22Z</time>
      </trkpt>
      <trkpt lat="42.541035" lon="-0.9897346">
        <time>2022-07-05T07:47:26Z</time>
      </trkpt>
      <trkpt lat="42.541096" lon="-0.9897076">
        <time>2022-07-05T07:47:30Z</time>
      </trkpt>
      <trkpt lat="42.541145" lon="-0.98968595">
        <time>2022-07-05T07:47:33Z</time>
      </trkpt>
      <trkpt lat="42.54119" lon="-0.9896583">
        <time>2022-07-05T07:47:36Z</time>
      </trkpt>
      <trkpt lat="42.541252" lon="-0.9896176">
        <time>2022-07-05T07:47:40Z</time>
      </trkpt>
      <trkpt lat="42.541294" lon="-0.9895809">
        <time>2022-07-05T07:47:43Z</time>
      </trkpt>
      <trkpt lat="42.541348" lon="-0.98952264">
        <time>2022-07-05T07:47:47Z</time>
      </trkpt>
      <trkpt lat="42.541378" lon="-0.989472">
        <time>2022-07-05T07:47:50Z</time>
      </trkpt>
      <trkpt lat="42.541405" lon="-0.9893913">
        <time>2022-07-05T07:47:54Z</time>
      </trkpt>
      <trkpt lat="42.541416" lon="-0.98930997">
        <time>2022-07-05T07:47:58Z</time>
      </trkpt>
      <trkpt lat="42.54142" lon="-0.98922294">
        <time>2022-07-05T07:48:02Z</time>
      </trkpt>
      <trkpt lat="42.54142" lon="-0.98915595">
        <time>2022-07-05T07:48:05Z</time>
      </trkpt>
      <trkpt lat="42.541412" lon="-0.9890673">
        <time>2022-07-05T07:48:09Z</time>
      </trkpt>
      <trkpt lat="42.54141" lon="-0.98898333">
        <time>2022-07-05T07:48:13Z</time>
      </trkpt>
      <trkpt lat="42.541412" lon="-0.9888976">
        <time>2022-07-05T07:48:17Z</time>
      </trkpt>
      <trkpt lat="42.541405" lon="-0.9888113">
        <time>2022-07-05T07:48:21Z</time>
      </trkpt>
      <trkpt lat="42.541397" lon="-0.98872966">
        <time>2022-07-05T07:48:25Z</time>
      </trkpt>
      <trkpt lat="42.54139" lon="-0.9886503">
        <time>2022-07-05T07:48:29Z</time>
      </trkpt>
      <trkpt lat="42.54138" lon="-0.98857236">
        <time>2022-07-05T07:48:33Z</time>
      </trkpt>
      <trkpt lat="42.54136" lon="-0.98849666">
        <time>2022-07-05T07:48:37Z</time>
      </trkpt>
      <trkpt lat="42.541355" lon="-0.988416">
        <time>2022-07-05T07:48:41Z</time>
      </trkpt>
      <trkpt lat="42.541355" lon="-0.98833436">
        <time>2022-07-05T07:48:45Z</time>
      </trkpt>
      <trkpt lat="42.54136" lon="-0.98825836">
        <time>2022-07-05T07:48:49Z</time>
      </trkpt>
      <trkpt lat="42.541378" lon="-0.988187">
        <time>2022-07-05T07:48:53Z</time>
      </trkpt>
      <trkpt lat="42.541412" lon="-0.9881187">
        <time>2022-07-05T07:48:57Z</time>
      </trkpt>
      <trkpt lat="42.541462" lon="-0.9880574">
        <time>2022-07-05T07:49:01Z</time>
      </trkpt>
      <trkpt lat="42.5415" lon="-0.98801833">
        <time>2022-07-05T07:49:04Z</time>
      </trkpt>
      <trkpt lat="42.541553" lon="-0.987971">
        <time>2022-07-05T07:49:08Z</time>
      </trkpt>
      <trkpt lat="42.541607" lon="-0.98792803">
        <time>2022-07-05T07:49:12Z</time>
      </trkpt>
      <trkpt lat="42.54166" lon="-0.987887">
        <time>2022-07-05T07:49:16Z</time>
      </trkpt>
      <trkpt lat="42.541714" lon="-0.9878507">
        <time>2022-07-05T07:49:20Z</time>
      </trkpt>
      <trkpt lat="42.541763" lon="-0.987811">
        <time>2022-07-05T07:49:24Z</time>
      </trkpt>
      <trkpt lat="42.541805" lon="-0.98775804">
        <time>2022-07-05T07:49:28Z</time>
      </trkpt>
      <trkpt lat="42.541843" lon="-0.9877147">
        <time>2022-07-05T07:49:31Z</time>
      </trkpt>
      <trkpt lat="42.54189" lon="-0.9876594">
        <time>2022-07-05T07:49:35Z</time>
      </trkpt>
      <trkpt lat="42.541935" lon="-0.98760474">
        <time>2022-07-05T07:49:39Z</time>
      </trkpt>
      <trkpt lat="42.541977" lon="-0.98755306">
        <time>2022-07-05T07:49:43Z</time>
      </trkpt>
      <trkpt lat="42.542023" lon="-0.98749804">
        <time>2022-07-05T07:49:47Z</time>
      </trkpt>
      <trkpt lat="42.542072" lon="-0.9874464">
        <time>2022-07-05T07:49:51Z</time>
      </trkpt>
      <trkpt lat="42.54211" lon="-0.98740375">
        <time>2022-07-05T07:49:55Z</time>
      </trkpt>
      <trkpt lat="42.54215" lon="-0.9873571">
        <time>2022-07-05T07:49:58Z</time>
      </trkpt>
      <trkpt lat="42.542194" lon="-0.98730475">
        <time>2022-07-05T07:50:02Z</time>
      </trkpt>
      <trkpt lat="42.54224" lon="-0.9872521">
        <time>2022-07-05T07:50:06Z</time>
      </trkpt>
      <trkpt lat="42.542282" lon="-0.98720074">
        <time>2022-07-05T07:50:10Z</time>
      </trkpt>
      <trkpt lat="42.542328" lon="-0.9871444">
        <time>2022-07-05T07:50:14Z</time>
      </trkpt>
      <trkpt lat="42.542374" lon="-0.9870918">
        <time>2022-07-05T07:50:18Z</time>
      </trkpt>
      <trkpt lat="42.54242" lon="-0.98704046">
        <time>2022-07-05T07:50:22Z</time>
      </trkpt>
      <trkpt lat="42.542465" lon="-0.9869881">
        <time>2022-07-05T07:50:26Z</time>
      </trkpt>
      <trkpt lat="42.542507" lon="-0.98695546">
        <time>2022-07-05T07:50:29Z</time>
      </trkpt>
      <trkpt lat="42.542564" lon="-0.98692244">
        <time>2022-07-05T07:50:33Z</time>
      </trkpt>
      <trkpt lat="42.542606" lon="-0.98690444">
        <time>2022-07-05T07:50:36Z</time>
      </trkpt>
      <trkpt lat="42.542667" lon="-0.9868944">
        <time>2022-07-05T07:50:40Z</time>
      </trkpt>
      <trkpt lat="42.542725" lon="-0.98689014">
        <time>2022-07-05T07:50:44Z</time>
      </trkpt>
      <trkpt lat="42.542786" lon="-0.98689944">
        <time>2022-07-05T07:50:48Z</time>
      </trkpt>
      <trkpt lat="42.542847" lon="-0.9869191">
        <time>2022-07-05T07:50:52Z</time>
      </trkpt>
      <trkpt lat="42.542908" lon="-0.98693746">
        <time>2022-07-05T07:50:56Z</time>
      </trkpt>
      <trkpt lat="42.54297" lon="-0.98695576">
        <time>2022-07-05T07:51:00Z</time>
      </trkpt>
      <trkpt lat="42.543015" lon="-0.98696977">
        <time>2022-07-05T07:51:03Z</time>
      </trkpt>
      <trkpt lat="42.54307" lon="-0.9869781">
        <time>2022-07-05T07:51:07Z</time>
      </trkpt>
      <trkpt lat="42.54313" lon="-0.9869821">
        <time>2022-07-05T07:51:11Z</time>
      </trkpt>
      <trkpt lat="42.54319" lon="-0.9869914">
        <time>2022-07-05T07:51:15Z</time>
      </trkpt>
      <trkpt lat="42.543255" lon="-0.9869961">
        <time>2022-07-05T07:51:19Z</time>
      </trkpt>
      <trkpt lat="42.54332" lon="-0.98700243">
        <time>2022-07-05T07:51:23Z</time>
      </trkpt>
      <trkpt lat="42.54338" lon="-0.98700374">
        <time>2022-07-05T07:51:27Z</time>
      </trkpt>
      <trkpt lat="42.54344" lon="-0.98698306">
        <time>2022-07-05T07:51:31Z</time>
      </trkpt>
      <trkpt lat="42.543484" lon="-0.9869571">
        <time>2022-07-05T07:51:34Z</time>
      </trkpt>
      <trkpt lat="42.543537" lon="-0.98691475">
        <time>2022-07-05T07:51:38Z</time>
      </trkpt>
      <trkpt lat="42.54358" lon="-0.98685473">
        <time>2022-07-05T07:51:42Z</time>
      </trkpt>
      <trkpt lat="42.543633" lon="-0.9867778">
        <time>2022-07-05T07:51:47Z</time>
      </trkpt>
      <trkpt lat="42.543667" lon="-0.9867321">
        <time>2022-07-05T07:51:50Z</time>
      </trkpt>
      <trkpt lat="42.54371" lon="-0.98666775">
        <time>2022-07-05T07:51:54Z</time>
      </trkpt>
      <trkpt lat="42.54375" lon="-0.98660713">
        <time>2022-07-05T07:51:58Z</time>
      </trkpt>
      <trkpt lat="42.543793" lon="-0.98655045">
        <time>2022-07-05T07:52:02Z</time>
      </trkpt>
      <trkpt lat="42.543835" lon="-0.9864958">
        <time>2022-07-05T07:52:06Z</time>
      </trkpt>
      <trkpt lat="42.54388" lon="-0.9864408">
        <time>2022-07-05T07:52:10Z</time>
      </trkpt>
      <trkpt lat="42.543915" lon="-0.9864005">
        <time>2022-07-05T07:52:13Z</time>
      </trkpt>
      <trkpt lat="42.543957" lon="-0.9863461">
        <time>2022-07-05T07:52:17Z</time>
      </trkpt>
      <trkpt lat="42.544003" lon="-0.9862921">
        <time>2022-07-05T07:52:21Z</time>
      </trkpt>
      <trkpt lat="42.544052" lon="-0.98623514">
        <time>2022-07-05T07:52:25Z</time>
      </trkpt>
      <trkpt lat="42.544094" lon="-0.98618346">
        <time>2022-07-05T07:52:29Z</time>
      </trkpt>
      <trkpt lat="42.54414" lon="-0.98611915">
        <time>2022-07-05T07:52:34Z</time>
      </trkpt>
      <trkpt lat="42.54417" lon="-0.9860565">
        <time>2022-07-05T07:52:38Z</time>
      </trkpt>
      <trkpt lat="42.54421" lon="-0.98599017">
        <time>2022-07-05T07:52:42Z</time>
      </trkpt>
      <trkpt lat="42.544247" lon="-0.98592484">
        <time>2022-07-05T07:52:46Z</time>
      </trkpt>
      <trkpt lat="42.544273" lon="-0.9858565">
        <time>2022-07-05T07:52:50Z</time>
      </trkpt>
      <trkpt lat="42.5443" lon="-0.9857815">
        <time>2022-07-05T07:52:54Z</time>
      </trkpt>
      <trkpt lat="42.54431" lon="-0.98570216">
        <time>2022-07-05T07:52:58Z</time>
      </trkpt>
      <trkpt lat="42.544327" lon="-0.9856188">
        <time>2022-07-05T07:53:02Z</time>
      </trkpt>
      <trkpt lat="42.544334" lon="-0.9855558">
        <time>2022-07-05T07:53:05Z</time>
      </trkpt>
      <trkpt lat="42.544346" lon="-0.9854712">
        <time>2022-07-05T07:53:09Z</time>
      </trkpt>
      <trkpt lat="42.54435" lon="-0.98538786">
        <time>2022-07-05T07:53:13Z</time>
      </trkpt>
      <trkpt lat="42.54435" lon="-0.9853075">
        <time>2022-07-05T07:53:17Z</time>
      </trkpt>
      <trkpt lat="42.544346" lon="-0.98522687">
        <time>2022-07-05T07:53:21Z</time>
      </trkpt>
      <trkpt lat="42.54434" lon="-0.9851492">
        <time>2022-07-05T07:53:25Z</time>
      </trkpt>
      <trkpt lat="42.54433" lon="-0.98506755">
        <time>2022-07-05T07:53:29Z</time>
      </trkpt>
      <trkpt lat="42.54432" lon="-0.9849845">
        <time>2022-07-05T07:53:33Z</time>
      </trkpt>
      <trkpt lat="42.544304" lon="-0.98490787">
        <time>2022-07-05T07:53:37Z</time>
      </trkpt>
      <trkpt lat="42.544296" lon="-0.9848212">
        <time>2022-07-05T07:53:42Z</time>
      </trkpt>
      <trkpt lat="42.544296" lon="-0.9847439">
        <time>2022-07-05T07:53:46Z</time>
      </trkpt>
      <trkpt lat="42.54431" lon="-0.9846485">
        <time>2022-07-05T07:53:51Z</time>
      </trkpt>
      <trkpt lat="42.544323" lon="-0.98457325">
        <time>2022-07-05T07:53:55Z</time>
      </trkpt>
      <trkpt lat="42.544346" lon="-0.9845032">
        <time>2022-07-05T07:53:59Z</time>
      </trkpt>
      <trkpt lat="42.544376" lon="-0.9844372">
        <time>2022-07-05T07:54:03Z</time>
      </trkpt>
      <trkpt lat="42.54441" lon="-0.9843722">
        <time>2022-07-05T07:54:07Z</time>
      </trkpt>
      <trkpt lat="42.544453" lon="-0.9843072">
        <time>2022-07-05T07:54:11Z</time>
      </trkpt>
      <trkpt lat="42.544487" lon="-0.9842352">
        <time>2022-07-05T07:54:15Z</time>
      </trkpt>
      <trkpt lat="42.544518" lon="-0.9841546">
        <time>2022-07-05T07:54:19Z</time>
      </trkpt>
      <trkpt lat="42.544533" lon="-0.98408824">
        <time>2022-07-05T07:54:22Z</time>
      </trkpt>
      <trkpt lat="42.54455" lon="-0.9840196">
        <time>2022-07-05T07:54:25Z</time>
      </trkpt>
      <trkpt lat="42.544567" lon="-0.98395324">
        <time>2022-07-05T07:54:28Z</time>
      </trkpt>
      <trkpt lat="42.544582" lon="-0.98386526">
        <time>2022-07-05T07:54:32Z</time>
      </trkpt>
      <trkpt lat="42.544594" lon="-0.98377424">
        <time>2022-07-05T07:54:36Z</time>
      </trkpt>
      <trkpt lat="42.544594" lon="-0.9837052">
        <time>2022-07-05T07:54:39Z</time>
      </trkpt>
      <trkpt lat="42.544598" lon="-0.98364055">
        <time>2022-07-05T07:54:42Z</time>
      </trkpt>
      <trkpt lat="42.54461" lon="-0.98355657">
        <time>2022-07-05T07:54:46Z</time>
      </trkpt>
      <trkpt lat="42.54462" lon="-0.98346657">
        <time>2022-07-05T07:54:50Z</time>
      </trkpt>
      <trkpt lat="42.54462" lon="-0.98337626">
        <time>2022-07-05T07:54:54Z</time>
      </trkpt>
      <trkpt lat="42.544636" lon="-0.9833089">
        <time>2022-07-05T07:54:57Z</time>
      </trkpt>
      <trkpt lat="42.544647" lon="-0.9832409">
        <time>2022-07-05T07:55:00Z</time>
      </trkpt>
      <trkpt lat="42.544655" lon="-0.9831709">
        <time>2022-07-05T07:55:03Z</time>
      </trkpt>
      <trkpt lat="42.54465" lon="-0.9830763">
        <time>2022-07-05T07:55:07Z</time>
      </trkpt>
      <trkpt lat="42.54465" lon="-0.9830106">
        <time>2022-07-05T07:55:10Z</time>
      </trkpt>
      <trkpt lat="42.54466" lon="-0.98292625">
        <time>2022-07-05T07:55:14Z</time>
      </trkpt>
      <trkpt lat="42.544678" lon="-0.98284096">
        <time>2022-07-05T07:55:18Z</time>
      </trkpt>
      <trkpt lat="42.544697" lon="-0.9827816">
        <time>2022-07-05T07:55:21Z</time>
      </trkpt>
      <trkpt lat="42.544724" lon="-0.9827003">
        <time>2022-07-05T07:55:25Z</time>
      </trkpt>
      <trkpt lat="42.54475" lon="-0.9826183">
        <time>2022-07-05T07:55:29Z</time>
      </trkpt>
      <trkpt lat="42.544773" lon="-0.9825393">
        <time>2022-07-05T07:55:33Z</time>
      </trkpt>
      <trkpt lat="42.544792" lon="-0.98247826">
        <time>2022-07-05T07:55:36Z</time>
      </trkpt>
      <trkpt lat="42.544815" lon="-0.98239094">
        <time>2022-07-05T07:55:40Z</time>
      </trkpt>
      <trkpt lat="42.544834" lon="-0.9823286">
        <time>2022-07-05T07:55:43Z</time>
      </trkpt>
      <trkpt lat="42.544857" lon="-0.98224527">
        <time>2022-07-05T07:55:47Z</time>
      </trkpt>
      <trkpt lat="42.544876" lon="-0.98218197">
        <time>2022-07-05T07:55:50Z</time>
      </trkpt>
      <trkpt lat="42.544903" lon="-0.98209864">
        <time>2022-07-05T07:55:54Z</time>
      </trkpt>
      <trkpt lat="42.544926" lon="-0.9820346">
        <time>2022-07-05T07:55:57Z</time>
      </trkpt>
      <trkpt lat="42.544945" lon="-0.98197097">
        <time>2022-07-05T07:56:00Z</time>
      </trkpt>
      <trkpt lat="42.544964" lon="-0.9818833">
        <time>2022-07-05T07:56:04Z</time>
      </trkpt>
      <trkpt lat="42.544975" lon="-0.9818203">
        <time>2022-07-05T07:56:07Z</time>
      </trkpt>
      <trkpt lat="42.545006" lon="-0.98173565">
        <time>2022-07-05T07:56:11Z</time>
      </trkpt>
      <trkpt lat="42.54503" lon="-0.98167634">
        <time>2022-07-05T07:56:14Z</time>
      </trkpt>
      <trkpt lat="42.545063" lon="-0.9816">
        <time>2022-07-05T07:56:18Z</time>
      </trkpt>
      <trkpt lat="42.545094" lon="-0.981547">
        <time>2022-07-05T07:56:21Z</time>
      </trkpt>
      <trkpt lat="42.545143" lon="-0.98148435">
        <time>2022-07-05T07:56:25Z</time>
      </trkpt>
      <trkpt lat="42.545185" lon="-0.98145264">
        <time>2022-07-05T07:56:28Z</time>
      </trkpt>
      <trkpt lat="42.54525" lon="-0.98142767">
        <time>2022-07-05T07:56:32Z</time>
      </trkpt>
      <trkpt lat="42.545315" lon="-0.9814143">
        <time>2022-07-05T07:56:36Z</time>
      </trkpt>
      <trkpt lat="42.545364" lon="-0.98140967">
        <time>2022-07-05T07:56:39Z</time>
      </trkpt>
      <trkpt lat="42.54543" lon="-0.98140866">
        <time>2022-07-05T07:56:43Z</time>
      </trkpt>
      <trkpt lat="42.54548" lon="-0.98140466">
        <time>2022-07-05T07:56:46Z</time>
      </trkpt>
      <trkpt lat="42.545532" lon="-0.9813947">
        <time>2022-07-05T07:56:49Z</time>
      </trkpt>
      <trkpt lat="42.545586" lon="-0.98138535">
        <time>2022-07-05T07:56:52Z</time>
      </trkpt>
      <trkpt lat="42.54565" lon="-0.981378">
        <time>2022-07-05T07:56:56Z</time>
      </trkpt>
      <trkpt lat="42.5457" lon="-0.98136634">
        <time>2022-07-05T07:56:59Z</time>
      </trkpt>
      <trkpt lat="42.545765" lon="-0.9813367">
        <time>2022-07-05T07:57:03Z</time>
      </trkpt>
      <trkpt lat="42.54583" lon="-0.98131305">
        <time>2022-07-05T07:57:07Z</time>
      </trkpt>
      <trkpt lat="42.545887" lon="-0.98126674">
        <time>2022-07-05T07:57:11Z</time>
      </trkpt>
      <trkpt lat="42.54593" lon="-0.98122936">
        <time>2022-07-05T07:57:14Z</time>
      </trkpt>
      <trkpt lat="42.545982" lon="-0.98117405">
        <time>2022-07-05T07:57:18Z</time>
      </trkpt>
      <trkpt lat="42.54602" lon="-0.98113275">
        <time>2022-07-05T07:57:21Z</time>
      </trkpt>
      <trkpt lat="42.546074" lon="-0.9810744">
        <time>2022-07-05T07:57:25Z</time>
      </trkpt>
      <trkpt lat="42.546112" lon="-0.98102707">
        <time>2022-07-05T07:57:28Z</time>
      </trkpt>
      <trkpt lat="42.546154" lon="-0.98096275">
        <time>2022-07-05T07:57:32Z</time>
      </trkpt>
      <trkpt lat="42.546192" lon="-0.9808904">
        <time>2022-07-05T07:57:36Z</time>
      </trkpt>
      <trkpt lat="42.546223" lon="-0.9808374">
        <time>2022-07-05T07:57:39Z</time>
      </trkpt>
      <trkpt lat="42.54626" lon="-0.9807654">
        <time>2022-07-05T07:57:43Z</time>
      </trkpt>
      <trkpt lat="42.54629" lon="-0.9807127">
        <time>2022-07-05T07:57:46Z</time>
      </trkpt>
      <trkpt lat="42.546333" lon="-0.9806414">
        <time>2022-07-05T07:57:50Z</time>
      </trkpt>
      <trkpt lat="42.546364" lon="-0.9805811">
        <time>2022-07-05T07:57:53Z</time>
      </trkpt>
      <trkpt lat="42.5464" lon="-0.98051906">
        <time>2022-07-05T07:57:56Z</time>
      </trkpt>
      <trkpt lat="42.546436" lon="-0.9804531">
        <time>2022-07-05T07:57:59Z</time>
      </trkpt>
      <trkpt lat="42.546474" lon="-0.98038375">
        <time>2022-07-05T07:58:02Z</time>
      </trkpt>
      <trkpt lat="42.5465" lon="-0.98029876">
        <time>2022-07-05T07:58:05Z</time>
      </trkpt>
      <trkpt lat="42.54652" lon="-0.98023975">
        <time>2022-07-05T07:58:07Z</time>
      </trkpt>
      <trkpt lat="42.546543" lon="-0.9801531">
        <time>2022-07-05T07:58:10Z</time>
      </trkpt>
      <trkpt lat="42.546562" lon="-0.9800701">
        <time>2022-07-05T07:58:13Z</time>
      </trkpt>
      <trkpt lat="42.546577" lon="-0.97998774">
        <time>2022-07-05T07:58:16Z</time>
      </trkpt>
      <trkpt lat="42.54659" lon="-0.9799041">
        <time>2022-07-05T07:58:19Z</time>
      </trkpt>
      <trkpt lat="42.546597" lon="-0.97980875">
        <time>2022-07-05T07:58:22Z</time>
      </trkpt>
      <trkpt lat="42.5466" lon="-0.97973746">
        <time>2022-07-05T07:58:24Z</time>
      </trkpt>
      <trkpt lat="42.546604" lon="-0.9796561">
        <time>2022-07-05T07:58:26Z</time>
      </trkpt>
      <trkpt lat="42.5466" lon="-0.9795594">
        <time>2022-07-05T07:58:28Z</time>
      </trkpt>
      <trkpt lat="42.546593" lon="-0.9794401">
        <time>2022-07-05T07:58:30Z</time>
      </trkpt>
      <trkpt lat="42.546574" lon="-0.9792958">
        <time>2022-07-05T07:58:32Z</time>
      </trkpt>
      <trkpt lat="42.54656" lon="-0.9792158">
        <time>2022-07-05T07:58:33Z</time>
      </trkpt>
      <trkpt lat="42.54654" lon="-0.9791318">
        <time>2022-07-05T07:58:34Z</time>
      </trkpt>
      <trkpt lat="42.546516" lon="-0.97904646">
        <time>2022-07-05T07:58:35Z</time>
      </trkpt>
      <trkpt lat="42.54649" lon="-0.9789611">
        <time>2022-07-05T07:58:36Z</time>
      </trkpt>
      <trkpt lat="42.546467" lon="-0.9788778">
        <time>2022-07-05T07:58:37Z</time>
      </trkpt>
      <trkpt lat="42.546448" lon="-0.9787965">
        <time>2022-07-05T07:58:38Z</time>
      </trkpt>
      <trkpt lat="42.54643" lon="-0.9787188">
        <time>2022-07-05T07:58:39Z</time>
      </trkpt>
      <trkpt lat="42.546417" lon="-0.9786448">
        <time>2022-07-05T07:58:40Z</time>
      </trkpt>
      <trkpt lat="42.54641" lon="-0.97857815">
        <time>2022-07-05T07:58:41Z</time>
      </trkpt>
      <trkpt lat="42.546406" lon="-0.9785131">
        <time>2022-07-05T07:58:42Z</time>
      </trkpt>
      <trkpt lat="42.54643" lon="-0.9783908">
        <time>2022-07-05T07:58:44Z</time>
      </trkpt>
      <trkpt lat="42.54649" lon="-0.9782918">
        <time>2022-07-05T07:58:46Z</time>
      </trkpt>
      <trkpt lat="42.546585" lon="-0.97821516">
        <time>2022-07-05T07:58:48Z</time>
      </trkpt>
      <trkpt lat="42.54664" lon="-0.9781902">
        <time>2022-07-05T07:58:49Z</time>
      </trkpt>
      <trkpt lat="42.54669" lon="-0.9781758">
        <time>2022-07-05T07:58:50Z</time>
      </trkpt>
      <trkpt lat="42.546745" lon="-0.9781745">
        <time>2022-07-05T07:58:51Z</time>
      </trkpt>
      <trkpt lat="42.546803" lon="-0.97818786">
        <time>2022-07-05T07:58:52Z</time>
      </trkpt>
      <trkpt lat="42.546852" lon="-0.97821814">
        <time>2022-07-05T07:58:53Z</time>
      </trkpt>
      <trkpt lat="42.546894" lon="-0.9782645">
        <time>2022-07-05T07:58:54Z</time>
      </trkpt>
      <trkpt lat="42.54693" lon="-0.9783318">
        <time>2022-07-05T07:58:55Z</time>
      </trkpt>
      <trkpt lat="42.546967" lon="-0.9785005">
        <time>2022-07-05T07:58:57Z</time>
      </trkpt>
      <trkpt lat="42.546974" lon="-0.9785968">
        <time>2022-07-05T07:58:58Z</time>
      </trkpt>
      <trkpt lat="42.546978" lon="-0.9786968">
        <time>2022-07-05T07:58:59Z</time>
      </trkpt>
      <trkpt lat="42.546986" lon="-0.9787978">
        <time>2022-07-05T07:59:00Z</time>
      </trkpt>
      <trkpt lat="42.547" lon="-0.9789018">
        <time>2022-07-05T07:59:01Z</time>
      </trkpt>
      <trkpt lat="42.547024" lon="-0.97900116">
        <time>2022-07-05T07:59:02Z</time>
      </trkpt>
      <trkpt lat="42.54706" lon="-0.9790938">
        <time>2022-07-05T07:59:03Z</time>
      </trkpt>
      <trkpt lat="42.547104" lon="-0.97917116">
        <time>2022-07-05T07:59:04Z</time>
      </trkpt>
      <trkpt lat="42.547157" lon="-0.9792248">
        <time>2022-07-05T07:59:05Z</time>
      </trkpt>
      <trkpt lat="42.547222" lon="-0.97925115">
        <time>2022-07-05T07:59:06Z</time>
      </trkpt>
      <trkpt lat="42.54729" lon="-0.97925144">
        <time>2022-07-05T07:59:07Z</time>
      </trkpt>
      <trkpt lat="42.54736" lon="-0.9792318">
        <time>2022-07-05T07:59:08Z</time>
      </trkpt>
      <trkpt lat="42.54743" lon="-0.97919613">
        <time>2022-07-05T07:59:09Z</time>
      </trkpt>
      <trkpt lat="42.547497" lon="-0.9791498">
        <time>2022-07-05T07:59:10Z</time>
      </trkpt>
      <trkpt lat="42.547565" lon="-0.9790948">
        <time>2022-07-05T07:59:11Z</time>
      </trkpt>
      <trkpt lat="42.54763" lon="-0.9790348">
        <time>2022-07-05T07:59:12Z</time>
      </trkpt>
      <trkpt lat="42.547695" lon="-0.9789758">
        <time>2022-07-05T07:59:13Z</time>
      </trkpt>
      <trkpt lat="42.547764" lon="-0.9789225">
        <time>2022-07-05T07:59:14Z</time>
      </trkpt>
      <trkpt lat="42.547832" lon="-0.9788811">
        <time>2022-07-05T07:59:15Z</time>
      </trkpt>
      <trkpt lat="42.547897" lon="-0.9788588">
        <time>2022-07-05T07:59:16Z</time>
      </trkpt>
      <trkpt lat="42.547962" lon="-0.9788565">
        <time>2022-07-05T07:59:17Z</time>
      </trkpt>
      <trkpt lat="42.54802" lon="-0.97887146">
        <time>2022-07-05T07:59:18Z</time>
      </trkpt>
      <trkpt lat="42.548077" lon="-0.97889984">
        <time>2022-07-05T07:59:19Z</time>
      </trkpt>
      <trkpt lat="42.54813" lon="-0.9789338">
        <time>2022-07-05T07:59:20Z</time>
      </trkpt>
      <trkpt lat="42.548183" lon="-0.9789701">
        <time>2022-07-05T07:59:21Z</time>
      </trkpt>
      <trkpt lat="42.548225" lon="-0.97900015">
        <time>2022-07-05T07:59:22Z</time>
      </trkpt>
      <trkpt lat="42.5483" lon="-0.9790488">
        <time>2022-07-05T07:59:24Z</time>
      </trkpt>
      <trkpt lat="42.54836" lon="-0.9790838">
        <time>2022-07-05T07:59:26Z</time>
      </trkpt>
      <trkpt lat="42.54841" lon="-0.97911215">
        <time>2022-07-05T07:59:28Z</time>
      </trkpt>
      <trkpt lat="42.548473" lon="-0.97914714">
        <time>2022-07-05T07:59:31Z</time>
      </trkpt>
      <trkpt lat="42.548534" lon="-0.9791761">
        <time>2022-07-05T07:59:34Z</time>
      </trkpt>
      <trkpt lat="42.548588" lon="-0.9791991">
        <time>2022-07-05T07:59:37Z</time>
      </trkpt>
      <trkpt lat="42.548645" lon="-0.9792078">
        <time>2022-07-05T07:59:40Z</time>
      </trkpt>
      <trkpt lat="42.548695" lon="-0.97920245">
        <time>2022-07-05T07:59:43Z</time>
      </trkpt>
      <trkpt lat="42.54875" lon="-0.9791608">
        <time>2022-07-05T07:59:47Z</time>
      </trkpt>
      <trkpt lat="42.548786" lon="-0.9790875">
        <time>2022-07-05T07:59:51Z</time>
      </trkpt>
      <trkpt lat="42.548794" lon="-0.9790228">
        <time>2022-07-05T07:59:54Z</time>
      </trkpt>
      <trkpt lat="42.54878" lon="-0.9789405">
        <time>2022-07-05T07:59:58Z</time>
      </trkpt>
      <trkpt lat="42.548737" lon="-0.9788745">
        <time>2022-07-05T08:00:02Z</time>
      </trkpt>
      <trkpt lat="42.54868" lon="-0.9788275">
        <time>2022-07-05T08:00:06Z</time>
      </trkpt>
      <trkpt lat="42.548634" lon="-0.97879815">
        <time>2022-07-05T08:00:09Z</time>
      </trkpt>
      <trkpt lat="42.548584" lon="-0.97876316">
        <time>2022-07-05T08:00:13Z</time>
      </trkpt>
      <trkpt lat="42.54853" lon="-0.9787218">
        <time>2022-07-05T08:00:17Z</time>
      </trkpt>
      <trkpt lat="42.54848" lon="-0.9786652">
        <time>2022-07-05T08:00:21Z</time>
      </trkpt>
      <trkpt lat="42.548447" lon="-0.9786175">
        <time>2022-07-05T08:00:24Z</time>
      </trkpt>
      <trkpt lat="42.548416" lon="-0.9785395">
        <time>2022-07-05T08:00:28Z</time>
      </trkpt>
      <trkpt lat="42.548412" lon="-0.9784542">
        <time>2022-07-05T08:00:32Z</time>
      </trkpt>
      <trkpt lat="42.548424" lon="-0.97836685">
        <time>2022-07-05T08:00:36Z</time>
      </trkpt>
      <trkpt lat="42.54844" lon="-0.97829986">
        <time>2022-07-05T08:00:39Z</time>
      </trkpt>
      <trkpt lat="42.548454" lon="-0.97821486">
        <time>2022-07-05T08:00:43Z</time>
      </trkpt>
      <trkpt lat="42.54847" lon="-0.9781492">
        <time>2022-07-05T08:00:46Z</time>
      </trkpt>
      <trkpt lat="42.548496" lon="-0.9780598">
        <time>2022-07-05T08:00:50Z</time>
      </trkpt>
      <trkpt lat="42.548515" lon="-0.9779959">
        <time>2022-07-05T08:00:53Z</time>
      </trkpt>
      <trkpt lat="42.548534" lon="-0.9779292">
        <time>2022-07-05T08:00:56Z</time>
      </trkpt>
      <trkpt lat="42.54855" lon="-0.9778605">
        <time>2022-07-05T08:00:59Z</time>
      </trkpt>
      <trkpt lat="42.54856" lon="-0.97779185">
        <time>2022-07-05T08:01:02Z</time>
      </trkpt>
      <trkpt lat="42.548576" lon="-0.9777229">
        <time>2022-07-05T08:01:05Z</time>
      </trkpt>
      <trkpt lat="42.548588" lon="-0.9776302">
        <time>2022-07-05T08:01:09Z</time>
      </trkpt>
      <trkpt lat="42.54859" lon="-0.9775565">
        <time>2022-07-05T08:01:12Z</time>
      </trkpt>
      <trkpt lat="42.54859" lon="-0.9774862">
        <time>2022-07-05T08:01:15Z</time>
      </trkpt>
      <trkpt lat="42.548584" lon="-0.97741956">
        <time>2022-07-05T08:01:18Z</time>
      </trkpt>
      <trkpt lat="42.548565" lon="-0.97732854">
        <time>2022-07-05T08:01:22Z</time>
      </trkpt>
      <trkpt lat="42.54855" lon="-0.9772649">
        <time>2022-07-05T08:01:25Z</time>
      </trkpt>
      <trkpt lat="42.548527" lon="-0.9771999">
        <time>2022-07-05T08:01:28Z</time>
      </trkpt>
      <trkpt lat="42.5485" lon="-0.97714055">
        <time>2022-07-05T08:01:31Z</time>
      </trkpt>
      <trkpt lat="42.548466" lon="-0.97706425">
        <time>2022-07-05T08:01:35Z</time>
      </trkpt>
      <trkpt lat="42.548443" lon="-0.9769866">
        <time>2022-07-05T08:01:39Z</time>
      </trkpt>
      <trkpt lat="42.54842" lon="-0.9769016">
        <time>2022-07-05T08:01:43Z</time>
      </trkpt>
      <trkpt lat="42.54841" lon="-0.9768346">
        <time>2022-07-05T08:01:46Z</time>
      </trkpt>
      <trkpt lat="42.548405" lon="-0.9767469">
        <time>2022-07-05T08:01:50Z</time>
      </trkpt>
      <trkpt lat="42.548412" lon="-0.9766609">
        <time>2022-07-05T08:01:54Z</time>
      </trkpt>
      <trkpt lat="42.548416" lon="-0.97659594">
        <time>2022-07-05T08:01:57Z</time>
      </trkpt>
      <trkpt lat="42.548435" lon="-0.9764999">
        <time>2022-07-05T08:02:02Z</time>
      </trkpt>
      <trkpt lat="42.548466" lon="-0.9764136">
        <time>2022-07-05T08:02:06Z</time>
      </trkpt>
      <trkpt lat="42.548492" lon="-0.97635293">
        <time>2022-07-05T08:02:09Z</time>
      </trkpt>
      <trkpt lat="42.548515" lon="-0.9762913">
        <time>2022-07-05T08:02:12Z</time>
      </trkpt>
      <trkpt lat="42.54855" lon="-0.97622293">
        <time>2022-07-05T08:02:16Z</time>
      </trkpt>
      <trkpt lat="42.548584" lon="-0.9761693">
        <time>2022-07-05T08:02:20Z</time>
      </trkpt>
      <trkpt lat="42.54862" lon="-0.9761143">
        <time>2022-07-05T08:02:24Z</time>
      </trkpt>
      <trkpt lat="42.54866" lon="-0.9760673">
        <time>2022-07-05T08:02:28Z</time>
      </trkpt>
      <trkpt lat="42.548702" lon="-0.976029">
        <time>2022-07-05T08:02:32Z</time>
      </trkpt>
      <trkpt lat="42.548756" lon="-0.975993">
        <time>2022-07-05T08:02:36Z</time>
      </trkpt>
      <trkpt lat="42.548813" lon="-0.9759646">
        <time>2022-07-05T08:02:40Z</time>
      </trkpt>
      <trkpt lat="42.54887" lon="-0.97594064">
        <time>2022-07-05T08:02:44Z</time>
      </trkpt>
      <trkpt lat="42.548923" lon="-0.9759113">
        <time>2022-07-05T08:02:48Z</time>
      </trkpt>
      <trkpt lat="42.548973" lon="-0.97586966">
        <time>2022-07-05T08:02:52Z</time>
      </trkpt>
      <trkpt lat="42.549015" lon="-0.97581065">
        <time>2022-07-05T08:02:56Z</time>
      </trkpt>
      <trkpt lat="42.54904" lon="-0.97574264">
        <time>2022-07-05T08:03:00Z</time>
      </trkpt>
      <trkpt lat="42.549065" lon="-0.97566694">
        <time>2022-07-05T08:03:04Z</time>
      </trkpt>
      <trkpt lat="42.549072" lon="-0.97559994">
        <time>2022-07-05T08:03:07Z</time>
      </trkpt>
      <trkpt lat="42.54908" lon="-0.975514">
        <time>2022-07-05T08:03:11Z</time>
      </trkpt>
      <trkpt lat="42.54908" lon="-0.9754356">
        <time>2022-07-05T08:03:15Z</time>
      </trkpt>
      <trkpt lat="42.549076" lon="-0.975357">
        <time>2022-07-05T08:03:19Z</time>
      </trkpt>
      <trkpt lat="42.54907" lon="-0.9752796">
        <time>2022-07-05T08:03:23Z</time>
      </trkpt>
      <trkpt lat="42.549053" lon="-0.97520065">
        <time>2022-07-05T08:03:27Z</time>
      </trkpt>
      <trkpt lat="42.549038" lon="-0.9751213">
        <time>2022-07-05T08:03:31Z</time>
      </trkpt>
      <trkpt lat="42.54903" lon="-0.975039">
        <time>2022-07-05T08:03:35Z</time>
      </trkpt>
      <trkpt lat="42.549015" lon="-0.974959">
        <time>2022-07-05T08:03:39Z</time>
      </trkpt>
      <trkpt lat="42.549" lon="-0.97488034">
        <time>2022-07-05T08:03:43Z</time>
      </trkpt>
      <trkpt lat="42.548992" lon="-0.9747987">
        <time>2022-07-05T08:03:47Z</time>
      </trkpt>
      <trkpt lat="42.548965" lon="-0.97472566">
        <time>2022-07-05T08:03:51Z</time>
      </trkpt>
      <trkpt lat="42.548954" lon="-0.97464937">
        <time>2022-07-05T08:03:55Z</time>
      </trkpt>
      <trkpt lat="42.548935" lon="-0.97457236">
        <time>2022-07-05T08:03:59Z</time>
      </trkpt>
      <trkpt lat="42.54891" lon="-0.974505">
        <time>2022-07-05T08:04:03Z</time>
      </trkpt>
      <trkpt lat="42.54888" lon="-0.97441936">
        <time>2022-07-05T08:04:08Z</time>
      </trkpt>
      <trkpt lat="42.548862" lon="-0.97434837">
        <time>2022-07-05T08:04:12Z</time>
      </trkpt>
      <trkpt lat="42.548843" lon="-0.9742787">
        <time>2022-07-05T08:04:16Z</time>
      </trkpt>
      <trkpt lat="42.548832" lon="-0.974201">
        <time>2022-07-05T08:04:20Z</time>
      </trkpt>
      <trkpt lat="42.548832" lon="-0.9741247">
        <time>2022-07-05T08:04:24Z</time>
      </trkpt>
      <trkpt lat="42.548843" lon="-0.974048">
        <time>2022-07-05T08:04:28Z</time>
      </trkpt>
      <trkpt lat="42.548862" lon="-0.97397935">
        <time>2022-07-05T08:04:32Z</time>
      </trkpt>
      <trkpt lat="42.548897" lon="-0.9739194">
        <time>2022-07-05T08:04:36Z</time>
      </trkpt>
      <trkpt lat="42.548935" lon="-0.9738574">
        <time>2022-07-05T08:04:40Z</time>
      </trkpt>
      <trkpt lat="42.54898" lon="-0.9738124">
        <time>2022-07-05T08:04:44Z</time>
      </trkpt>
      <trkpt lat="42.549034" lon="-0.97377706">
        <time>2022-07-05T08:04:48Z</time>
      </trkpt>
      <trkpt lat="42.549076" lon="-0.9737497">
        <time>2022-07-05T08:04:51Z</time>
      </trkpt>
      <trkpt lat="42.54913" lon="-0.97371304">
        <time>2022-07-05T08:04:55Z</time>
      </trkpt>
      <trkpt lat="42.549187" lon="-0.97368103">
        <time>2022-07-05T08:04:59Z</time>
      </trkpt>
      <trkpt lat="42.54924" lon="-0.97364575">
        <time>2022-07-05T08:05:03Z</time>
      </trkpt>
      <trkpt lat="42.549294" lon="-0.9736081">
        <time>2022-07-05T08:05:07Z</time>
      </trkpt>
      <trkpt lat="42.549347" lon="-0.9735587">
        <time>2022-07-05T08:05:11Z</time>
      </trkpt>
      <trkpt lat="42.54939" lon="-0.9734931">
        <time>2022-07-05T08:05:15Z</time>
      </trkpt>
      <trkpt lat="42.549416" lon="-0.97342074">
        <time>2022-07-05T08:05:19Z</time>
      </trkpt>
      <trkpt lat="42.54943" lon="-0.9733454">
        <time>2022-07-05T08:05:23Z</time>
      </trkpt>
      <trkpt lat="42.54943" lon="-0.9732664">
        <time>2022-07-05T08:05:27Z</time>
      </trkpt>
      <trkpt lat="42.54941" lon="-0.9731858">
        <time>2022-07-05T08:05:31Z</time>
      </trkpt>
      <trkpt lat="42.549397" lon="-0.9731111">
        <time>2022-07-05T08:05:35Z</time>
      </trkpt>
      <trkpt lat="42.549385" lon="-0.97303647">
        <time>2022-07-05T08:05:39Z</time>
      </trkpt>
      <trkpt lat="42.549374" lon="-0.97296345">
        <time>2022-07-05T08:05:43Z</time>
      </trkpt>
      <trkpt lat="42.54936" lon="-0.97288775">
        <time>2022-07-05T08:05:47Z</time>
      </trkpt>
      <trkpt lat="42.549347" lon="-0.9728151">
        <time>2022-07-05T08:05:51Z</time>
      </trkpt>
      <trkpt lat="42.549335" lon="-0.9727401">
        <time>2022-07-05T08:05:55Z</time>
      </trkpt>
      <trkpt lat="42.549328" lon="-0.9726668">
        <time>2022-07-05T08:05:59Z</time>
      </trkpt>
      <trkpt lat="42.549328" lon="-0.9725848">
        <time>2022-07-05T08:06:03Z</time>
      </trkpt>
      <trkpt lat="42.549335" lon="-0.97250146">
        <time>2022-07-05T08:06:07Z</time>
      </trkpt>
      <trkpt lat="42.549343" lon="-0.9723991">
        <time>2022-07-05T08:06:12Z</time>
      </trkpt>
      <trkpt lat="42.549347" lon="-0.97231513">
        <time>2022-07-05T08:06:16Z</time>
      </trkpt>
      <trkpt lat="42.549355" lon="-0.9722328">
        <time>2022-07-05T08:06:20Z</time>
      </trkpt>
      <trkpt lat="42.54936" lon="-0.97215617">
        <time>2022-07-05T08:06:24Z</time>
      </trkpt>
      <trkpt lat="42.549374" lon="-0.97207814">
        <time>2022-07-05T08:06:28Z</time>
      </trkpt>
      <trkpt lat="42.549385" lon="-0.9719978">
        <time>2022-07-05T08:06:32Z</time>
      </trkpt>
      <trkpt lat="42.5494" lon="-0.9719188">
        <time>2022-07-05T08:06:36Z</time>
      </trkpt>
      <trkpt lat="42.54941" lon="-0.9718395">
        <time>2022-07-05T08:06:40Z</time>
      </trkpt>
      <trkpt lat="42.549423" lon="-0.9717585">
        <time>2022-07-05T08:06:44Z</time>
      </trkpt>
      <trkpt lat="42.549442" lon="-0.9716808">
        <time>2022-07-05T08:06:48Z</time>
      </trkpt>
      <trkpt lat="42.54946" lon="-0.97160584">
        <time>2022-07-05T08:06:52Z</time>
      </trkpt>
      <trkpt lat="42.54947" lon="-0.9715275">
        <time>2022-07-05T08:06:56Z</time>
      </trkpt>
      <trkpt lat="42.549484" lon="-0.97145146">
        <time>2022-07-05T08:07:00Z</time>
      </trkpt>
      <trkpt lat="42.54949" lon="-0.9713765">
        <time>2022-07-05T08:07:04Z</time>
      </trkpt>
      <trkpt lat="42.549496" lon="-0.97129816">
        <time>2022-07-05T08:07:08Z</time>
      </trkpt>
      <trkpt lat="42.549496" lon="-0.97122586">
        <time>2022-07-05T08:07:12Z</time>
      </trkpt>
      <trkpt lat="42.549503" lon="-0.97114784">
        <time>2022-07-05T08:07:16Z</time>
      </trkpt>
      <trkpt lat="42.54949" lon="-0.97106916">
        <time>2022-07-05T08:07:20Z</time>
      </trkpt>
      <trkpt lat="42.549477" lon="-0.9709942">
        <time>2022-07-05T08:07:24Z</time>
      </trkpt>
      <trkpt lat="42.549473" lon="-0.9709242">
        <time>2022-07-05T08:07:28Z</time>
      </trkpt>
      <trkpt lat="42.54947" lon="-0.97084916">
        <time>2022-07-05T08:07:32Z</time>
      </trkpt>
      <trkpt lat="42.549465" lon="-0.9707662">
        <time>2022-07-05T08:07:36Z</time>
      </trkpt>
      <trkpt lat="42.54946" lon="-0.9706848">
        <time>2022-07-05T08:07:40Z</time>
      </trkpt>
      <trkpt lat="42.54946" lon="-0.97060716">
        <time>2022-07-05T08:07:44Z</time>
      </trkpt>
      <trkpt lat="42.549454" lon="-0.9705282">
        <time>2022-07-05T08:07:48Z</time>
      </trkpt>
      <trkpt lat="42.54945" lon="-0.97044784">
        <time>2022-07-05T08:07:52Z</time>
      </trkpt>
      <trkpt lat="42.54945" lon="-0.97037053">
        <time>2022-07-05T08:07:56Z</time>
      </trkpt>
      <trkpt lat="42.549454" lon="-0.9702915">
        <time>2022-07-05T08:08:00Z</time>
      </trkpt>
      <trkpt lat="42.54945" lon="-0.9702162">
        <time>2022-07-05T08:08:04Z</time>
      </trkpt>
      <trkpt lat="42.549454" lon="-0.9701445">
        <time>2022-07-05T08:08:08Z</time>
      </trkpt>
      <trkpt lat="42.54945" lon="-0.9700702">
        <time>2022-07-05T08:08:12Z</time>
      </trkpt>
      <trkpt lat="42.54946" lon="-0.9699939">
        <time>2022-07-05T08:08:16Z</time>
      </trkpt>
      <trkpt lat="42.54947" lon="-0.9699165">
        <time>2022-07-05T08:08:20Z</time>
      </trkpt>
      <trkpt lat="42.54948" lon="-0.9698329">
        <time>2022-07-05T08:08:24Z</time>
      </trkpt>
      <trkpt lat="42.549488" lon="-0.96974486">
        <time>2022-07-05T08:08:28Z</time>
      </trkpt>
      <trkpt lat="42.549488" lon="-0.9696609">
        <time>2022-07-05T08:08:32Z</time>
      </trkpt>
      <trkpt lat="42.549484" lon="-0.9695796">
        <time>2022-07-05T08:08:36Z</time>
      </trkpt>
      <trkpt lat="42.549488" lon="-0.9695189">
        <time>2022-07-05T08:08:39Z</time>
      </trkpt>
      <trkpt lat="42.54949" lon="-0.9694369">
        <time>2022-07-05T08:08:43Z</time>
      </trkpt>
      <trkpt lat="42.549484" lon="-0.9693569">
        <time>2022-07-05T08:08:47Z</time>
      </trkpt>
      <trkpt lat="42.54947" lon="-0.96928257">
        <time>2022-07-05T08:08:51Z</time>
      </trkpt>
      <trkpt lat="42.54945" lon="-0.9692102">
        <time>2022-07-05T08:08:55Z</time>
      </trkpt>
      <trkpt lat="42.54943" lon="-0.96913326">
        <time>2022-07-05T08:08:59Z</time>
      </trkpt>
      <trkpt lat="42.549408" lon="-0.96906257">
        <time>2022-07-05T08:09:03Z</time>
      </trkpt>
      <trkpt lat="42.549393" lon="-0.96898824">
        <time>2022-07-05T08:09:07Z</time>
      </trkpt>
      <trkpt lat="42.549374" lon="-0.96890956">
        <time>2022-07-05T08:09:11Z</time>
      </trkpt>
      <trkpt lat="42.54936" lon="-0.9688496">
        <time>2022-07-05T08:09:14Z</time>
      </trkpt>
      <trkpt lat="42.549343" lon="-0.96876925">
        <time>2022-07-05T08:09:18Z</time>
      </trkpt>
      <trkpt lat="42.54933" lon="-0.9687096">
        <time>2022-07-05T08:09:21Z</time>
      </trkpt>
      <trkpt lat="42.549313" lon="-0.9686319">
        <time>2022-07-05T08:09:25Z</time>
      </trkpt>
      <trkpt lat="42.549286" lon="-0.9685573">
        <time>2022-07-05T08:09:29Z</time>
      </trkpt>
      <trkpt lat="42.54927" lon="-0.96847993">
        <time>2022-07-05T08:09:33Z</time>
      </trkpt>
      <trkpt lat="42.54925" lon="-0.96840125">
        <time>2022-07-05T08:09:37Z</time>
      </trkpt>
      <trkpt lat="42.549236" lon="-0.96834093">
        <time>2022-07-05T08:09:40Z</time>
      </trkpt>
      <trkpt lat="42.549206" lon="-0.968268">
        <time>2022-07-05T08:09:44Z</time>
      </trkpt>
      <trkpt lat="42.54917" lon="-0.9681916">
        <time>2022-07-05T08:09:48Z</time>
      </trkpt>
      <trkpt lat="42.549137" lon="-0.9681356">
        <time>2022-07-05T08:09:51Z</time>
      </trkpt>
      <trkpt lat="42.549095" lon="-0.96808064">
        <time>2022-07-05T08:09:54Z</time>
      </trkpt>
      <trkpt lat="42.54906" lon="-0.96802264">
        <time>2022-07-05T08:09:57Z</time>
      </trkpt>
      <trkpt lat="42.549038" lon="-0.9679573">
        <time>2022-07-05T08:10:00Z</time>
      </trkpt>
      <trkpt lat="42.54902" lon="-0.967896">
        <time>2022-07-05T08:10:03Z</time>
      </trkpt>
      <trkpt lat="42.548992" lon="-0.96781796">
        <time>2022-07-05T08:10:07Z</time>
      </trkpt>
      <trkpt lat="42.54897" lon="-0.96774095">
        <time>2022-07-05T08:10:11Z</time>
      </trkpt>
      <trkpt lat="42.548965" lon="-0.9676553">
        <time>2022-07-05T08:10:15Z</time>
      </trkpt>
      <trkpt lat="42.54897" lon="-0.9675873">
        <time>2022-07-05T08:10:18Z</time>
      </trkpt>
      <trkpt lat="42.54897" lon="-0.967519">
        <time>2022-07-05T08:10:21Z</time>
      </trkpt>
      <trkpt lat="42.548977" lon="-0.967429">
        <time>2022-07-05T08:10:25Z</time>
      </trkpt>
      <trkpt lat="42.548985" lon="-0.96735567">
        <time>2022-07-05T08:10:28Z</time>
      </trkpt>
      <trkpt lat="42.54899" lon="-0.96727365">
        <time>2022-07-05T08:10:31Z</time>
      </trkpt>
      <trkpt lat="42.548992" lon="-0.96715933">
        <time>2022-07-05T08:10:35Z</time>
      </trkpt>
      <trkpt lat="42.54901" lon="-0.967053">
        <time>2022-07-05T08:10:38Z</time>
      </trkpt>
      <trkpt lat="42.54902" lon="-0.966971">
        <time>2022-07-05T08:10:40Z</time>
      </trkpt>
      <trkpt lat="42.549015" lon="-0.966874">
        <time>2022-07-05T08:10:42Z</time>
      </trkpt>
      <trkpt lat="42.549004" lon="-0.96676433">
        <time>2022-07-05T08:10:44Z</time>
      </trkpt>
      <trkpt lat="42.548985" lon="-0.966644">
        <time>2022-07-05T08:10:46Z</time>
      </trkpt>
      <trkpt lat="42.548965" lon="-0.96651196">
        <time>2022-07-05T08:10:48Z</time>
      </trkpt>
      <trkpt lat="42.548954" lon="-0.9664443">
        <time>2022-07-05T08:10:49Z</time>
      </trkpt>
      <trkpt lat="42.54894" lon="-0.9663747">
        <time>2022-07-05T08:10:50Z</time>
      </trkpt>
      <trkpt lat="42.548923" lon="-0.966303">
        <time>2022-07-05T08:10:51Z</time>
      </trkpt>
      <trkpt lat="42.548904" lon="-0.966229">
        <time>2022-07-05T08:10:52Z</time>
      </trkpt>
      <trkpt lat="42.54889" lon="-0.9661533">
        <time>2022-07-05T08:10:53Z</time>
      </trkpt>
      <trkpt lat="42.54887" lon="-0.966076">
        <time>2022-07-05T08:10:54Z</time>
      </trkpt>
      <trkpt lat="42.54885" lon="-0.96599704">
        <time>2022-07-05T08:10:55Z</time>
      </trkpt>
      <trkpt lat="42.54883" lon="-0.96591836">
        <time>2022-07-05T08:10:56Z</time>
      </trkpt>
      <trkpt lat="42.548805" lon="-0.96584105">
        <time>2022-07-05T08:10:57Z</time>
      </trkpt>
      <trkpt lat="42.548782" lon="-0.96576536">
        <time>2022-07-05T08:10:58Z</time>
      </trkpt>
      <trkpt lat="42.548756" lon="-0.96569103">
        <time>2022-07-05T08:10:59Z</time>
      </trkpt>
      <trkpt lat="42.548725" lon="-0.9656187">
        <time>2022-07-05T08:11:00Z</time>
      </trkpt>
      <trkpt lat="42.5487" lon="-0.96555036">
        <time>2022-07-05T08:11:01Z</time>
      </trkpt>
      <trkpt lat="42.548676" lon="-0.96548706">
        <time>2022-07-05T08:11:02Z</time>
      </trkpt>
      <trkpt lat="42.54863" lon="-0.9653784">
        <time>2022-07-05T08:11:04Z</time>
      </trkpt>
      <trkpt lat="42.548595" lon="-0.9652947">
        <time>2022-07-05T08:11:06Z</time>
      </trkpt>
      <trkpt lat="42.548573" lon="-0.9652407">
        <time>2022-07-05T08:11:08Z</time>
      </trkpt>
      <trkpt lat="42.54854" lon="-0.96518475">
        <time>2022-07-05T08:11:11Z</time>
      </trkpt>
      <trkpt lat="42.548504" lon="-0.96513075">
        <time>2022-07-05T08:11:14Z</time>
      </trkpt>
      <trkpt lat="42.548393" lon="-0.9650964">
        <time>2022-07-05T08:16:57Z</time>
      </trkpt>
      <trkpt lat="42.548344" lon="-0.9650427">
        <time>2022-07-05T08:16:59Z</time>
      </trkpt>
      <trkpt lat="42.548294" lon="-0.9649581">
        <time>2022-07-05T08:17:01Z</time>
      </trkpt>
      <trkpt lat="42.54825" lon="-0.9648431">
        <time>2022-07-05T08:17:03Z</time>
      </trkpt>
      <trkpt lat="42.548206" lon="-0.96470577">
        <time>2022-07-05T08:17:05Z</time>
      </trkpt>
      <trkpt lat="42.54819" lon="-0.9646291">
        <time>2022-07-05T08:17:06Z</time>
      </trkpt>
      <trkpt lat="42.548176" lon="-0.96454775">
        <time>2022-07-05T08:17:07Z</time>
      </trkpt>
      <trkpt lat="42.548164" lon="-0.96446174">
        <time>2022-07-05T08:17:08Z</time>
      </trkpt>
      <trkpt lat="42.54815" lon="-0.96437275">
        <time>2022-07-05T08:17:09Z</time>
      </trkpt>
      <trkpt lat="42.548134" lon="-0.96428144">
        <time>2022-07-05T08:17:10Z</time>
      </trkpt>
      <trkpt lat="42.54812" lon="-0.96418774">
        <time>2022-07-05T08:17:11Z</time>
      </trkpt>
      <trkpt lat="42.5481" lon="-0.96409076">
        <time>2022-07-05T08:17:12Z</time>
      </trkpt>
      <trkpt lat="42.548084" lon="-0.96399075">
        <time>2022-07-05T08:17:13Z</time>
      </trkpt>
      <trkpt lat="42.548065" lon="-0.96388847">
        <time>2022-07-05T08:17:14Z</time>
      </trkpt>
      <trkpt lat="42.548042" lon="-0.96378547">
        <time>2022-07-05T08:17:15Z</time>
      </trkpt>
      <trkpt lat="42.54802" lon="-0.96367943">
        <time>2022-07-05T08:17:16Z</time>
      </trkpt>
      <trkpt lat="42.547993" lon="-0.9635731">
        <time>2022-07-05T08:17:17Z</time>
      </trkpt>
      <trkpt lat="42.54796" lon="-0.9634691">
        <time>2022-07-05T08:17:18Z</time>
      </trkpt>
      <trkpt lat="42.547913" lon="-0.9633694">
        <time>2022-07-05T08:17:19Z</time>
      </trkpt>
      <trkpt lat="42.54786" lon="-0.9632788">
        <time>2022-07-05T08:17:20Z</time>
      </trkpt>
      <trkpt lat="42.54779" lon="-0.96320015">
        <time>2022-07-05T08:17:21Z</time>
      </trkpt>
      <trkpt lat="42.54772" lon="-0.9631368">
        <time>2022-07-05T08:17:22Z</time>
      </trkpt>
      <trkpt lat="42.54764" lon="-0.96308345">
        <time>2022-07-05T08:17:23Z</time>
      </trkpt>
      <trkpt lat="42.547554" lon="-0.96303713">
        <time>2022-07-05T08:17:24Z</time>
      </trkpt>
      <trkpt lat="42.547455" lon="-0.9629898">
        <time>2022-07-05T08:17:25Z</time>
      </trkpt>
      <trkpt lat="42.547356" lon="-0.9629425">
        <time>2022-07-05T08:17:26Z</time>
      </trkpt>
      <trkpt lat="42.54726" lon="-0.9628998">
        <time>2022-07-05T08:17:27Z</time>
      </trkpt>
      <trkpt lat="42.547165" lon="-0.9628548">
        <time>2022-07-05T08:17:28Z</time>
      </trkpt>
      <trkpt lat="42.547066" lon="-0.9628125">
        <time>2022-07-05T08:17:29Z</time>
      </trkpt>
      <trkpt lat="42.546967" lon="-0.96277416">
        <time>2022-07-05T08:17:30Z</time>
      </trkpt>
      <trkpt lat="42.54676" lon="-0.9627005">
        <time>2022-07-05T08:17:32Z</time>
      </trkpt>
      <trkpt lat="42.54666" lon="-0.96265787">
        <time>2022-07-05T08:17:33Z</time>
      </trkpt>
      <trkpt lat="42.546566" lon="-0.9626092">
        <time>2022-07-05T08:17:34Z</time>
      </trkpt>
      <trkpt lat="42.54647" lon="-0.9625532">
        <time>2022-07-05T08:17:35Z</time>
      </trkpt>
      <trkpt lat="42.54638" lon="-0.96249115">
        <time>2022-07-05T08:17:36Z</time>
      </trkpt>
      <trkpt lat="42.54629" lon="-0.96242285">
        <time>2022-07-05T08:17:37Z</time>
      </trkpt>
      <trkpt lat="42.546204" lon="-0.96234816">
        <time>2022-07-05T08:17:38Z</time>
      </trkpt>
      <trkpt lat="42.546116" lon="-0.96227056">
        <time>2022-07-05T08:17:39Z</time>
      </trkpt>
      <trkpt lat="42.54603" lon="-0.9621902">
        <time>2022-07-05T08:17:40Z</time>
      </trkpt>
      <trkpt lat="42.545944" lon="-0.9621072">
        <time>2022-07-05T08:17:41Z</time>
      </trkpt>
      <trkpt lat="42.545856" lon="-0.96202254">
        <time>2022-07-05T08:17:42Z</time>
      </trkpt>
      <trkpt lat="42.54577" lon="-0.9619369">
        <time>2022-07-05T08:17:43Z</time>
      </trkpt>
      <trkpt lat="42.54568" lon="-0.9618496">
        <time>2022-07-05T08:17:44Z</time>
      </trkpt>
      <trkpt lat="42.545593" lon="-0.9617592">
        <time>2022-07-05T08:17:45Z</time>
      </trkpt>
      <trkpt lat="42.545498" lon="-0.9616602">
        <time>2022-07-05T08:17:46Z</time>
      </trkpt>
      <trkpt lat="42.545403" lon="-0.96156025">
        <time>2022-07-05T08:17:47Z</time>
      </trkpt>
      <trkpt lat="42.54531" lon="-0.9614572">
        <time>2022-07-05T08:17:48Z</time>
      </trkpt>
      <trkpt lat="42.54523" lon="-0.9613562">
        <time>2022-07-05T08:17:49Z</time>
      </trkpt>
      <trkpt lat="42.545147" lon="-0.9612379">
        <time>2022-07-05T08:17:50Z</time>
      </trkpt>
      <trkpt lat="42.545074" lon="-0.9611109">
        <time>2022-07-05T08:17:51Z</time>
      </trkpt>
      <trkpt lat="42.545013" lon="-0.9609759">
        <time>2022-07-05T08:17:52Z</time>
      </trkpt>
      <trkpt lat="42.54496" lon="-0.9608352">
        <time>2022-07-05T08:17:53Z</time>
      </trkpt>
      <trkpt lat="42.54491" lon="-0.9606929">
        <time>2022-07-05T08:17:54Z</time>
      </trkpt>
      <trkpt lat="42.54486" lon="-0.9605486">
        <time>2022-07-05T08:17:55Z</time>
      </trkpt>
      <trkpt lat="42.54481" lon="-0.96040225">
        <time>2022-07-05T08:17:56Z</time>
      </trkpt>
      <trkpt lat="42.544758" lon="-0.9602546">
        <time>2022-07-05T08:17:57Z</time>
      </trkpt>
      <trkpt lat="42.544704" lon="-0.9601096">
        <time>2022-07-05T08:17:58Z</time>
      </trkpt>
      <trkpt lat="42.544647" lon="-0.9599706">
        <time>2022-07-05T08:17:59Z</time>
      </trkpt>
      <trkpt lat="42.54459" lon="-0.9598389">
        <time>2022-07-05T08:18:00Z</time>
      </trkpt>
      <trkpt lat="42.544533" lon="-0.95971227">
        <time>2022-07-05T08:18:01Z</time>
      </trkpt>
      <trkpt lat="42.544476" lon="-0.9595926">
        <time>2022-07-05T08:18:02Z</time>
      </trkpt>
      <trkpt lat="42.54441" lon="-0.9594799">
        <time>2022-07-05T08:18:03Z</time>
      </trkpt>
      <trkpt lat="42.544342" lon="-0.9593746">
        <time>2022-07-05T08:18:04Z</time>
      </trkpt>
      <trkpt lat="42.544266" lon="-0.95927393">
        <time>2022-07-05T08:18:05Z</time>
      </trkpt>
      <trkpt lat="42.544186" lon="-0.95917463">
        <time>2022-07-05T08:18:06Z</time>
      </trkpt>
      <trkpt lat="42.54411" lon="-0.95908093">
        <time>2022-07-05T08:18:07Z</time>
      </trkpt>
      <trkpt lat="42.544037" lon="-0.95899665">
        <time>2022-07-05T08:18:08Z</time>
      </trkpt>
      <trkpt lat="42.54397" lon="-0.9589216">
        <time>2022-07-05T08:18:09Z</time>
      </trkpt>
      <trkpt lat="42.543915" lon="-0.95886296">
        <time>2022-07-05T08:18:10Z</time>
      </trkpt>
      <trkpt lat="42.543877" lon="-0.95882">
        <time>2022-07-05T08:18:11Z</time>
      </trkpt>
      <trkpt lat="42.543827" lon="-0.95876265">
        <time>2022-07-05T08:18:13Z</time>
      </trkpt>
      <trkpt lat="42.543808" lon="-0.9587233">
        <time>2022-07-05T08:18:21Z</time>
      </trkpt>
      <trkpt lat="42.543804" lon="-0.95870364">
        <time>2022-07-05T08:30:54Z</time>
      </trkpt>
      <trkpt lat="42.543755" lon="-0.9586626">
        <time>2022-07-05T08:30:56Z</time>
      </trkpt>
      <trkpt lat="42.543705" lon="-0.95862">
        <time>2022-07-05T08:30:58Z</time>
      </trkpt>
      <trkpt lat="42.54367" lon="-0.95859164">
        <time>2022-07-05T08:31:00Z</time>
      </trkpt>
      <trkpt lat="42.54358" lon="-0.95849335">
        <time>2022-07-05T08:31:11Z</time>
      </trkpt>
      <trkpt lat="42.54353" lon="-0.95843536">
        <time>2022-07-05T08:31:13Z</time>
      </trkpt>
      <trkpt lat="42.543472" lon="-0.9583503">
        <time>2022-07-05T08:31:15Z</time>
      </trkpt>
      <trkpt lat="42.543404" lon="-0.958237">
        <time>2022-07-05T08:31:17Z</time>
      </trkpt>
      <trkpt lat="42.543365" lon="-0.958174">
        <time>2022-07-05T08:31:18Z</time>
      </trkpt>
      <trkpt lat="42.543327" lon="-0.95810765">
        <time>2022-07-05T08:31:19Z</time>
      </trkpt>
      <trkpt lat="42.54328" lon="-0.95804">
        <time>2022-07-05T08:31:20Z</time>
      </trkpt>
      <trkpt lat="42.543236" lon="-0.9579707">
        <time>2022-07-05T08:31:21Z</time>
      </trkpt>
      <trkpt lat="42.543186" lon="-0.957902">
        <time>2022-07-05T08:31:22Z</time>
      </trkpt>
      <trkpt lat="42.543133" lon="-0.95783603">
        <time>2022-07-05T08:31:23Z</time>
      </trkpt>
      <trkpt lat="42.54307" lon="-0.95777434">
        <time>2022-07-05T08:31:24Z</time>
      </trkpt>
      <trkpt lat="42.543007" lon="-0.9577184">
        <time>2022-07-05T08:31:25Z</time>
      </trkpt>
      <trkpt lat="42.542934" lon="-0.95767003">
        <time>2022-07-05T08:31:26Z</time>
      </trkpt>
      <trkpt lat="42.54286" lon="-0.95762837">
        <time>2022-07-05T08:31:27Z</time>
      </trkpt>
      <trkpt lat="42.542778" lon="-0.957592">
        <time>2022-07-05T08:31:28Z</time>
      </trkpt>
      <trkpt lat="42.542694" lon="-0.957566">
        <time>2022-07-05T08:31:29Z</time>
      </trkpt>
      <trkpt lat="42.542614" lon="-0.957543">
        <time>2022-07-05T08:31:30Z</time>
      </trkpt>
      <trkpt lat="42.54253" lon="-0.95752436">
        <time>2022-07-05T08:31:31Z</time>
      </trkpt>
      <trkpt lat="42.542442" lon="-0.95751005">
        <time>2022-07-05T08:31:32Z</time>
      </trkpt>
      <trkpt lat="42.542347" lon="-0.9574987">
        <time>2022-07-05T08:31:33Z</time>
      </trkpt>
      <trkpt lat="42.542263" lon="-0.9574924">
        <time>2022-07-05T08:31:34Z</time>
      </trkpt>
      <trkpt lat="42.54217" lon="-0.9574897">
        <time>2022-07-05T08:31:35Z</time>
      </trkpt>
      <trkpt lat="42.542084" lon="-0.9574944">
        <time>2022-07-05T08:31:36Z</time>
      </trkpt>
      <trkpt lat="42.541985" lon="-0.9575107">
        <time>2022-07-05T08:31:37Z</time>
      </trkpt>
      <trkpt lat="42.541885" lon="-0.95753473">
        <time>2022-07-05T08:31:38Z</time>
      </trkpt>
      <trkpt lat="42.54179" lon="-0.9575647">
        <time>2022-07-05T08:31:39Z</time>
      </trkpt>
      <trkpt lat="42.5416" lon="-0.9576227">
        <time>2022-07-05T08:31:41Z</time>
      </trkpt>
      <trkpt lat="42.541504" lon="-0.95764905">
        <time>2022-07-05T08:31:42Z</time>
      </trkpt>
      <trkpt lat="42.541405" lon="-0.95767236">
        <time>2022-07-05T08:31:43Z</time>
      </trkpt>
      <trkpt lat="42.541306" lon="-0.957692">
        <time>2022-07-05T08:31:44Z</time>
      </trkpt>
      <trkpt lat="42.54121" lon="-0.9577087">
        <time>2022-07-05T08:31:45Z</time>
      </trkpt>
      <trkpt lat="42.54111" lon="-0.957723">
        <time>2022-07-05T08:31:46Z</time>
      </trkpt>
      <trkpt lat="42.541016" lon="-0.957736">
        <time>2022-07-05T08:31:47Z</time>
      </trkpt>
      <trkpt lat="42.540924" lon="-0.9577447">
        <time>2022-07-05T08:31:48Z</time>
      </trkpt>
      <trkpt lat="42.540836" lon="-0.95774734">
        <time>2022-07-05T08:31:49Z</time>
      </trkpt>
      <trkpt lat="42.540756" lon="-0.95773804">
        <time>2022-07-05T08:31:50Z</time>
      </trkpt>
      <trkpt lat="42.540684" lon="-0.95771337">
        <time>2022-07-05T08:31:51Z</time>
      </trkpt>
      <trkpt lat="42.54062" lon="-0.9576727">
        <time>2022-07-05T08:31:52Z</time>
      </trkpt>
      <trkpt lat="42.54056" lon="-0.9576214">
        <time>2022-07-05T08:31:53Z</time>
      </trkpt>
      <trkpt lat="42.54051" lon="-0.95756036">
        <time>2022-07-05T08:31:54Z</time>
      </trkpt>
      <trkpt lat="42.540466" lon="-0.95749235">
        <time>2022-07-05T08:31:55Z</time>
      </trkpt>
      <trkpt lat="42.540432" lon="-0.9574257">
        <time>2022-07-05T08:31:56Z</time>
      </trkpt>
      <trkpt lat="42.540413" lon="-0.9573487">
        <time>2022-07-05T08:31:57Z</time>
      </trkpt>
      <trkpt lat="42.5404" lon="-0.9572717">
        <time>2022-07-05T08:31:58Z</time>
      </trkpt>
      <trkpt lat="42.540405" lon="-0.95719707">
        <time>2022-07-05T08:31:59Z</time>
      </trkpt>
      <trkpt lat="42.540413" lon="-0.957131">
        <time>2022-07-05T08:32:00Z</time>
      </trkpt>
      <trkpt lat="42.54043" lon="-0.95706874">
        <time>2022-07-05T08:32:01Z</time>
      </trkpt>
      <trkpt lat="42.540485" lon="-0.9569494">
        <time>2022-07-05T08:32:03Z</time>
      </trkpt>
      <trkpt lat="42.540524" lon="-0.9568957">
        <time>2022-07-05T08:32:04Z</time>
      </trkpt>
      <trkpt lat="42.540565" lon="-0.9568427">
        <time>2022-07-05T08:32:05Z</time>
      </trkpt>
      <trkpt lat="42.54061" lon="-0.95678973">
        <time>2022-07-05T08:32:06Z</time>
      </trkpt>
      <trkpt lat="42.540657" lon="-0.9567361">
        <time>2022-07-05T08:32:07Z</time>
      </trkpt>
      <trkpt lat="42.540707" lon="-0.9566824">
        <time>2022-07-05T08:32:08Z</time>
      </trkpt>
      <trkpt lat="42.540752" lon="-0.9566251">
        <time>2022-07-05T08:32:09Z</time>
      </trkpt>
      <trkpt lat="42.540802" lon="-0.9565621">
        <time>2022-07-05T08:32:10Z</time>
      </trkpt>
      <trkpt lat="42.54085" lon="-0.95649344">
        <time>2022-07-05T08:32:11Z</time>
      </trkpt>
      <trkpt lat="42.540897" lon="-0.9564171">
        <time>2022-07-05T08:32:12Z</time>
      </trkpt>
      <trkpt lat="42.540943" lon="-0.95633745">
        <time>2022-07-05T08:32:13Z</time>
      </trkpt>
      <trkpt lat="42.540985" lon="-0.9562544">
        <time>2022-07-05T08:32:14Z</time>
      </trkpt>
      <trkpt lat="42.54103" lon="-0.9561698">
        <time>2022-07-05T08:32:15Z</time>
      </trkpt>
      <trkpt lat="42.541077" lon="-0.9560838">
        <time>2022-07-05T08:32:16Z</time>
      </trkpt>
      <trkpt lat="42.541122" lon="-0.9559988">
        <time>2022-07-05T08:32:17Z</time>
      </trkpt>
      <trkpt lat="42.541176" lon="-0.9559211">
        <time>2022-07-05T08:32:18Z</time>
      </trkpt>
      <trkpt lat="42.54124" lon="-0.9558528">
        <time>2022-07-05T08:32:19Z</time>
      </trkpt>
      <trkpt lat="42.541313" lon="-0.9557915">
        <time>2022-07-05T08:32:20Z</time>
      </trkpt>
      <trkpt lat="42.541386" lon="-0.9557384">
        <time>2022-07-05T08:32:21Z</time>
      </trkpt>
      <trkpt lat="42.541466" lon="-0.95569444">
        <time>2022-07-05T08:32:22Z</time>
      </trkpt>
      <trkpt lat="42.54155" lon="-0.95566046">
        <time>2022-07-05T08:32:23Z</time>
      </trkpt>
      <trkpt lat="42.541634" lon="-0.9556328">
        <time>2022-07-05T08:32:24Z</time>
      </trkpt>
      <trkpt lat="42.541725" lon="-0.95561045">
        <time>2022-07-05T08:32:25Z</time>
      </trkpt>
      <trkpt lat="42.541817" lon="-0.9555908">
        <time>2022-07-05T08:32:26Z</time>
      </trkpt>
      <trkpt lat="42.54191" lon="-0.9555735">
        <time>2022-07-05T08:32:27Z</time>
      </trkpt>
      <trkpt lat="42.542" lon="-0.9555568">
        <time>2022-07-05T08:32:28Z</time>
      </trkpt>
      <trkpt lat="42.5421" lon="-0.95553917">
        <time>2022-07-05T08:32:29Z</time>
      </trkpt>
      <trkpt lat="42.54219" lon="-0.95552385">
        <time>2022-07-05T08:32:30Z</time>
      </trkpt>
      <trkpt lat="42.542286" lon="-0.9555092">
        <time>2022-07-05T08:32:31Z</time>
      </trkpt>
      <trkpt lat="42.542393" lon="-0.9554938">
        <time>2022-07-05T08:32:32Z</time>
      </trkpt>
      <trkpt lat="42.542496" lon="-0.9554782">
        <time>2022-07-05T08:32:33Z</time>
      </trkpt>
      <trkpt lat="42.5426" lon="-0.9554615">
        <time>2022-07-05T08:32:34Z</time>
      </trkpt>
      <trkpt lat="42.5427" lon="-0.9554422">
        <time>2022-07-05T08:32:35Z</time>
      </trkpt>
      <trkpt lat="42.542805" lon="-0.9554185">
        <time>2022-07-05T08:32:36Z</time>
      </trkpt>
      <trkpt lat="42.542904" lon="-0.9553842">
        <time>2022-07-05T08:32:37Z</time>
      </trkpt>
      <trkpt lat="42.543" lon="-0.95533955">
        <time>2022-07-05T08:32:38Z</time>
      </trkpt>
      <trkpt lat="42.54309" lon="-0.95528686">
        <time>2022-07-05T08:32:39Z</time>
      </trkpt>
      <trkpt lat="42.543182" lon="-0.9552299">
        <time>2022-07-05T08:32:40Z</time>
      </trkpt>
      <trkpt lat="42.543358" lon="-0.95510924">
        <time>2022-07-05T08:32:42Z</time>
      </trkpt>
      <trkpt lat="42.54345" lon="-0.9550459">
        <time>2022-07-05T08:32:43Z</time>
      </trkpt>
      <trkpt lat="42.543537" lon="-0.9549785">
        <time>2022-07-05T08:32:44Z</time>
      </trkpt>
      <trkpt lat="42.543625" lon="-0.95491225">
        <time>2022-07-05T08:32:45Z</time>
      </trkpt>
      <trkpt lat="42.54371" lon="-0.9548486">
        <time>2022-07-05T08:32:46Z</time>
      </trkpt>
      <trkpt lat="42.543793" lon="-0.9547852">
        <time>2022-07-05T08:32:47Z</time>
      </trkpt>
      <trkpt lat="42.543877" lon="-0.9547276">
        <time>2022-07-05T08:32:48Z</time>
      </trkpt>
      <trkpt lat="42.543964" lon="-0.9546776">
        <time>2022-07-05T08:32:49Z</time>
      </trkpt>
      <trkpt lat="42.544056" lon="-0.95463324">
        <time>2022-07-05T08:32:50Z</time>
      </trkpt>
      <trkpt lat="42.544147" lon="-0.9545926">
        <time>2022-07-05T08:32:51Z</time>
      </trkpt>
      <trkpt lat="42.544235" lon="-0.95455056">
        <time>2022-07-05T08:32:52Z</time>
      </trkpt>
      <trkpt lat="42.544327" lon="-0.95450324">
        <time>2022-07-05T08:32:53Z</time>
      </trkpt>
      <trkpt lat="42.54441" lon="-0.95444727">
        <time>2022-07-05T08:32:54Z</time>
      </trkpt>
      <trkpt lat="42.544495" lon="-0.9543836">
        <time>2022-07-05T08:32:55Z</time>
      </trkpt>
      <trkpt lat="42.544575" lon="-0.95431423">
        <time>2022-07-05T08:32:56Z</time>
      </trkpt>
      <trkpt lat="42.544647" lon="-0.9542476">
        <time>2022-07-05T08:32:57Z</time>
      </trkpt>
      <trkpt lat="42.544724" lon="-0.95417726">
        <time>2022-07-05T08:32:58Z</time>
      </trkpt>
      <trkpt lat="42.544796" lon="-0.95410097">
        <time>2022-07-05T08:32:59Z</time>
      </trkpt>
      <trkpt lat="42.544857" lon="-0.9540169">
        <time>2022-07-05T08:33:00Z</time>
      </trkpt>
      <trkpt lat="42.544914" lon="-0.9539246">
        <time>2022-07-05T08:33:01Z</time>
      </trkpt>
      <trkpt lat="42.544956" lon="-0.95382464">
        <time>2022-07-05T08:33:02Z</time>
      </trkpt>
      <trkpt lat="42.544987" lon="-0.9537186">
        <time>2022-07-05T08:33:03Z</time>
      </trkpt>
      <trkpt lat="42.545" lon="-0.9536083">
        <time>2022-07-05T08:33:04Z</time>
      </trkpt>
      <trkpt lat="42.545002" lon="-0.9534956">
        <time>2022-07-05T08:33:05Z</time>
      </trkpt>
      <trkpt lat="42.54499" lon="-0.95338863">
        <time>2022-07-05T08:33:06Z</time>
      </trkpt>
      <trkpt lat="42.544968" lon="-0.953272">
        <time>2022-07-05T08:33:07Z</time>
      </trkpt>
      <trkpt lat="42.54493" lon="-0.953159">
        <time>2022-07-05T08:33:08Z</time>
      </trkpt>
      <trkpt lat="42.54488" lon="-0.953051">
        <time>2022-07-05T08:33:09Z</time>
      </trkpt>
      <trkpt lat="42.54483" lon="-0.95294994">
        <time>2022-07-05T08:33:10Z</time>
      </trkpt>
      <trkpt lat="42.54478" lon="-0.9528503">
        <time>2022-07-05T08:33:11Z</time>
      </trkpt>
      <trkpt lat="42.544743" lon="-0.952751">
        <time>2022-07-05T08:33:12Z</time>
      </trkpt>
      <trkpt lat="42.544716" lon="-0.95264965">
        <time>2022-07-05T08:33:13Z</time>
      </trkpt>
      <trkpt lat="42.54471" lon="-0.95255">
        <time>2022-07-05T08:33:14Z</time>
      </trkpt>
      <trkpt lat="42.54472" lon="-0.95245695">
        <time>2022-07-05T08:33:15Z</time>
      </trkpt>
      <trkpt lat="42.544746" lon="-0.9523817">
        <time>2022-07-05T08:33:16Z</time>
      </trkpt>
      <trkpt lat="42.54479" lon="-0.952323">
        <time>2022-07-05T08:33:17Z</time>
      </trkpt>
      <trkpt lat="42.544846" lon="-0.95228535">
        <time>2022-07-05T08:33:18Z</time>
      </trkpt>
      <trkpt lat="42.54491" lon="-0.952266">
        <time>2022-07-05T08:33:19Z</time>
      </trkpt>
      <trkpt lat="42.544983" lon="-0.9522607">
        <time>2022-07-05T08:33:20Z</time>
      </trkpt>
      <trkpt lat="42.545067" lon="-0.9522607">
        <time>2022-07-05T08:33:21Z</time>
      </trkpt>
      <trkpt lat="42.54515" lon="-0.952258">
        <time>2022-07-05T08:33:22Z</time>
      </trkpt>
      <trkpt lat="42.545235" lon="-0.952246">
        <time>2022-07-05T08:33:23Z</time>
      </trkpt>
      <trkpt lat="42.54532" lon="-0.9522137">
        <time>2022-07-05T08:33:24Z</time>
      </trkpt>
      <trkpt lat="42.545395" lon="-0.9521677">
        <time>2022-07-05T08:33:25Z</time>
      </trkpt>
      <trkpt lat="42.54547" lon="-0.9521087">
        <time>2022-07-05T08:33:26Z</time>
      </trkpt>
      <trkpt lat="42.545544" lon="-0.95203835">
        <time>2022-07-05T08:33:27Z</time>
      </trkpt>
      <trkpt lat="42.545612" lon="-0.95196">
        <time>2022-07-05T08:33:28Z</time>
      </trkpt>
      <trkpt lat="42.545677" lon="-0.9518747">
        <time>2022-07-05T08:33:29Z</time>
      </trkpt>
      <trkpt lat="42.545746" lon="-0.951785">
        <time>2022-07-05T08:33:30Z</time>
      </trkpt>
      <trkpt lat="42.54581" lon="-0.95169234">
        <time>2022-07-05T08:33:31Z</time>
      </trkpt>
      <trkpt lat="42.54588" lon="-0.9515997">
        <time>2022-07-05T08:33:32Z</time>
      </trkpt>
      <trkpt lat="42.545948" lon="-0.9515117">
        <time>2022-07-05T08:33:33Z</time>
      </trkpt>
      <trkpt lat="42.54602" lon="-0.95142937">
        <time>2022-07-05T08:33:34Z</time>
      </trkpt>
      <trkpt lat="42.546097" lon="-0.95135504">
        <time>2022-07-05T08:33:35Z</time>
      </trkpt>
      <trkpt lat="42.54617" lon="-0.95128405">
        <time>2022-07-05T08:33:36Z</time>
      </trkpt>
      <trkpt lat="42.54624" lon="-0.9512114">
        <time>2022-07-05T08:33:37Z</time>
      </trkpt>
      <trkpt lat="42.54631" lon="-0.95113206">
        <time>2022-07-05T08:33:38Z</time>
      </trkpt>
      <trkpt lat="42.546368" lon="-0.9510444">
        <time>2022-07-05T08:33:39Z</time>
      </trkpt>
      <trkpt lat="42.546417" lon="-0.9509487">
        <time>2022-07-05T08:33:40Z</time>
      </trkpt>
      <trkpt lat="42.546455" lon="-0.9508474">
        <time>2022-07-05T08:33:41Z</time>
      </trkpt>
      <trkpt lat="42.54649" lon="-0.95074105">
        <time>2022-07-05T08:33:42Z</time>
      </trkpt>
      <trkpt lat="42.546516" lon="-0.95063174">
        <time>2022-07-05T08:33:43Z</time>
      </trkpt>
      <trkpt lat="42.546574" lon="-0.9504091">
        <time>2022-07-05T08:33:45Z</time>
      </trkpt>
      <trkpt lat="42.546604" lon="-0.95030206">
        <time>2022-07-05T08:33:46Z</time>
      </trkpt>
      <trkpt lat="42.546642" lon="-0.95020276">
        <time>2022-07-05T08:33:47Z</time>
      </trkpt>
      <trkpt lat="42.54669" lon="-0.9501144">
        <time>2022-07-05T08:33:48Z</time>
      </trkpt>
      <trkpt lat="42.54675" lon="-0.9500378">
        <time>2022-07-05T08:33:49Z</time>
      </trkpt>
      <trkpt lat="42.54681" lon="-0.94997245">
        <time>2022-07-05T08:33:50Z</time>
      </trkpt>
      <trkpt lat="42.54688" lon="-0.94991475">
        <time>2022-07-05T08:33:51Z</time>
      </trkpt>
      <trkpt lat="42.546947" lon="-0.9498621">
        <time>2022-07-05T08:33:52Z</time>
      </trkpt>
      <trkpt lat="42.547024" lon="-0.9498131">
        <time>2022-07-05T08:33:53Z</time>
      </trkpt>
      <trkpt lat="42.5471" lon="-0.9497661">
        <time>2022-07-05T08:33:54Z</time>
      </trkpt>
      <trkpt lat="42.547173" lon="-0.94972247">
        <time>2022-07-05T08:33:55Z</time>
      </trkpt>
      <trkpt lat="42.547245" lon="-0.9496768">
        <time>2022-07-05T08:33:56Z</time>
      </trkpt>
      <trkpt lat="42.547314" lon="-0.9496248">
        <time>2022-07-05T08:33:57Z</time>
      </trkpt>
      <trkpt lat="42.54738" lon="-0.94956416">
        <time>2022-07-05T08:33:58Z</time>
      </trkpt>
      <trkpt lat="42.547432" lon="-0.94949245">
        <time>2022-07-05T08:33:59Z</time>
      </trkpt>
      <trkpt lat="42.547478" lon="-0.94941115">
        <time>2022-07-05T08:34:00Z</time>
      </trkpt>
      <trkpt lat="42.54751" lon="-0.94932485">
        <time>2022-07-05T08:34:01Z</time>
      </trkpt>
      <trkpt lat="42.54753" lon="-0.94923747">
        <time>2022-07-05T08:34:02Z</time>
      </trkpt>
      <trkpt lat="42.547546" lon="-0.9491485">
        <time>2022-07-05T08:34:03Z</time>
      </trkpt>
      <trkpt lat="42.54756" lon="-0.94905883">
        <time>2022-07-05T08:34:04Z</time>
      </trkpt>
      <trkpt lat="42.547577" lon="-0.94896984">
        <time>2022-07-05T08:34:05Z</time>
      </trkpt>
      <trkpt lat="42.547596" lon="-0.9488835">
        <time>2022-07-05T08:34:06Z</time>
      </trkpt>
      <trkpt lat="42.547626" lon="-0.9488035">
        <time>2022-07-05T08:34:07Z</time>
      </trkpt>
      <trkpt lat="42.54766" lon="-0.9487308">
        <time>2022-07-05T08:34:08Z</time>
      </trkpt>
      <trkpt lat="42.547707" lon="-0.9486665">
        <time>2022-07-05T08:34:09Z</time>
      </trkpt>
      <trkpt lat="42.547752" lon="-0.9486102">
        <time>2022-07-05T08:34:10Z</time>
      </trkpt>
      <trkpt lat="42.547806" lon="-0.94856083">
        <time>2022-07-05T08:34:11Z</time>
      </trkpt>
      <trkpt lat="42.547863" lon="-0.94851685">
        <time>2022-07-05T08:34:12Z</time>
      </trkpt>
      <trkpt lat="42.54792" lon="-0.94847554">
        <time>2022-07-05T08:34:13Z</time>
      </trkpt>
      <trkpt lat="42.547977" lon="-0.94843584">
        <time>2022-07-05T08:34:14Z</time>
      </trkpt>
      <trkpt lat="42.548035" lon="-0.9483939">
        <time>2022-07-05T08:34:15Z</time>
      </trkpt>
      <trkpt lat="42.54809" lon="-0.9483472">
        <time>2022-07-05T08:34:16Z</time>
      </trkpt>
      <trkpt lat="42.548145" lon="-0.9482949">
        <time>2022-07-05T08:34:17Z</time>
      </trkpt>
      <trkpt lat="42.54819" lon="-0.9482365">
        <time>2022-07-05T08:34:18Z</time>
      </trkpt>
      <trkpt lat="42.548233" lon="-0.94817156">
        <time>2022-07-05T08:34:19Z</time>
      </trkpt>
      <trkpt lat="42.548267" lon="-0.9480975">
        <time>2022-07-05T08:34:20Z</time>
      </trkpt>
      <trkpt lat="42.548286" lon="-0.9480192">
        <time>2022-07-05T08:34:21Z</time>
      </trkpt>
      <trkpt lat="42.5483" lon="-0.94793624">
        <time>2022-07-05T08:34:22Z</time>
      </trkpt>
      <trkpt lat="42.548313" lon="-0.94785255">
        <time>2022-07-05T08:34:23Z</time>
      </trkpt>
      <trkpt lat="42.548313" lon="-0.94776654">
        <time>2022-07-05T08:34:24Z</time>
      </trkpt>
      <trkpt lat="42.54831" lon="-0.9476796">
        <time>2022-07-05T08:34:25Z</time>
      </trkpt>
      <trkpt lat="42.548298" lon="-0.9475922">
        <time>2022-07-05T08:34:26Z</time>
      </trkpt>
      <trkpt lat="42.548283" lon="-0.9475046">
        <time>2022-07-05T08:34:27Z</time>
      </trkpt>
      <trkpt lat="42.54827" lon="-0.94741553">
        <time>2022-07-05T08:34:28Z</time>
      </trkpt>
      <trkpt lat="42.548256" lon="-0.9473246">
        <time>2022-07-05T08:34:29Z</time>
      </trkpt>
      <trkpt lat="42.54825" lon="-0.94723153">
        <time>2022-07-05T08:34:30Z</time>
      </trkpt>
      <trkpt lat="42.548244" lon="-0.94713753">
        <time>2022-07-05T08:34:31Z</time>
      </trkpt>
      <trkpt lat="42.54824" lon="-0.9470422">
        <time>2022-07-05T08:34:32Z</time>
      </trkpt>
      <trkpt lat="42.548237" lon="-0.94694555">
        <time>2022-07-05T08:34:33Z</time>
      </trkpt>
      <trkpt lat="42.548237" lon="-0.9468492">
        <time>2022-07-05T08:34:34Z</time>
      </trkpt>
      <trkpt lat="42.54824" lon="-0.94675326">
        <time>2022-07-05T08:34:35Z</time>
      </trkpt>
      <trkpt lat="42.548244" lon="-0.9466579">
        <time>2022-07-05T08:34:36Z</time>
      </trkpt>
      <trkpt lat="42.548256" lon="-0.94656557">
        <time>2022-07-05T08:34:37Z</time>
      </trkpt>
      <trkpt lat="42.54827" lon="-0.94647723">
        <time>2022-07-05T08:34:38Z</time>
      </trkpt>
      <trkpt lat="42.548294" lon="-0.9463929">
        <time>2022-07-05T08:34:39Z</time>
      </trkpt>
      <trkpt lat="42.548313" lon="-0.9463119">
        <time>2022-07-05T08:34:40Z</time>
      </trkpt>
      <trkpt lat="42.548336" lon="-0.9462326">
        <time>2022-07-05T08:34:41Z</time>
      </trkpt>
      <trkpt lat="42.54835" lon="-0.9461536">
        <time>2022-07-05T08:34:42Z</time>
      </trkpt>
      <trkpt lat="42.548367" lon="-0.9460736">
        <time>2022-07-05T08:34:43Z</time>
      </trkpt>
      <trkpt lat="42.54837" lon="-0.9459926">
        <time>2022-07-05T08:34:44Z</time>
      </trkpt>
      <trkpt lat="42.548363" lon="-0.9458299">
        <time>2022-07-05T08:34:46Z</time>
      </trkpt>
      <trkpt lat="42.548344" lon="-0.9457506">
        <time>2022-07-05T08:34:47Z</time>
      </trkpt>
      <trkpt lat="42.548317" lon="-0.9456756">
        <time>2022-07-05T08:34:48Z</time>
      </trkpt>
      <trkpt lat="42.548283" lon="-0.94560593">
        <time>2022-07-05T08:34:49Z</time>
      </trkpt>
      <trkpt lat="42.54824" lon="-0.9455406">
        <time>2022-07-05T08:34:50Z</time>
      </trkpt>
      <trkpt lat="42.54819" lon="-0.9454786">
        <time>2022-07-05T08:34:51Z</time>
      </trkpt>
      <trkpt lat="42.548134" lon="-0.94542027">
        <time>2022-07-05T08:34:52Z</time>
      </trkpt>
      <trkpt lat="42.548077" lon="-0.94536495">
        <time>2022-07-05T08:34:53Z</time>
      </trkpt>
      <trkpt lat="42.548016" lon="-0.9453093">
        <time>2022-07-05T08:34:54Z</time>
      </trkpt>
      <trkpt lat="42.54795" lon="-0.9452536">
        <time>2022-07-05T08:34:55Z</time>
      </trkpt>
      <trkpt lat="42.547886" lon="-0.94520164">
        <time>2022-07-05T08:34:56Z</time>
      </trkpt>
      <trkpt lat="42.54782" lon="-0.94514865">
        <time>2022-07-05T08:34:57Z</time>
      </trkpt>
      <trkpt lat="42.547756" lon="-0.94509494">
        <time>2022-07-05T08:34:58Z</time>
      </trkpt>
      <trkpt lat="42.547688" lon="-0.9450403">
        <time>2022-07-05T08:34:59Z</time>
      </trkpt>
      <trkpt lat="42.547623" lon="-0.94498366">
        <time>2022-07-05T08:35:00Z</time>
      </trkpt>
      <trkpt lat="42.547554" lon="-0.944928">
        <time>2022-07-05T08:35:01Z</time>
      </trkpt>
      <trkpt lat="42.54748" lon="-0.94487">
        <time>2022-07-05T08:35:02Z</time>
      </trkpt>
      <trkpt lat="42.54741" lon="-0.944816">
        <time>2022-07-05T08:35:03Z</time>
      </trkpt>
      <trkpt lat="42.547337" lon="-0.9447647">
        <time>2022-07-05T08:35:04Z</time>
      </trkpt>
      <trkpt lat="42.54727" lon="-0.9447193">
        <time>2022-07-05T08:35:05Z</time>
      </trkpt>
      <trkpt lat="42.547207" lon="-0.944674">
        <time>2022-07-05T08:35:06Z</time>
      </trkpt>
      <trkpt lat="42.54714" lon="-0.944629">
        <time>2022-07-05T08:35:07Z</time>
      </trkpt>
      <trkpt lat="42.547066" lon="-0.944584">
        <time>2022-07-05T08:35:08Z</time>
      </trkpt>
      <trkpt lat="42.546997" lon="-0.94453734">
        <time>2022-07-05T08:35:09Z</time>
      </trkpt>
      <trkpt lat="42.546925" lon="-0.9444907">
        <time>2022-07-05T08:35:10Z</time>
      </trkpt>
      <trkpt lat="42.546852" lon="-0.94444233">
        <time>2022-07-05T08:35:11Z</time>
      </trkpt>
      <trkpt lat="42.54678" lon="-0.9443923">
        <time>2022-07-05T08:35:12Z</time>
      </trkpt>
      <trkpt lat="42.546715" lon="-0.9443383">
        <time>2022-07-05T08:35:13Z</time>
      </trkpt>
      <trkpt lat="42.546654" lon="-0.944275">
        <time>2022-07-05T08:35:14Z</time>
      </trkpt>
      <trkpt lat="42.5466" lon="-0.9442084">
        <time>2022-07-05T08:35:15Z</time>
      </trkpt>
      <trkpt lat="42.546555" lon="-0.9441417">
        <time>2022-07-05T08:35:16Z</time>
      </trkpt>
      <trkpt lat="42.54652" lon="-0.9440617">
        <time>2022-07-05T08:35:17Z</time>
      </trkpt>
      <trkpt lat="42.54649" lon="-0.94397736">
        <time>2022-07-05T08:35:18Z</time>
      </trkpt>
      <trkpt lat="42.546467" lon="-0.9438887">
        <time>2022-07-05T08:35:19Z</time>
      </trkpt>
      <trkpt lat="42.546448" lon="-0.943795">
        <time>2022-07-05T08:35:20Z</time>
      </trkpt>
      <trkpt lat="42.546432" lon="-0.9436977">
        <time>2022-07-05T08:35:21Z</time>
      </trkpt>
      <trkpt lat="42.546417" lon="-0.9435974">
        <time>2022-07-05T08:35:22Z</time>
      </trkpt>
      <trkpt lat="42.54641" lon="-0.9435014">
        <time>2022-07-05T08:35:23Z</time>
      </trkpt>
      <trkpt lat="42.546402" lon="-0.94339603">
        <time>2022-07-05T08:35:24Z</time>
      </trkpt>
      <trkpt lat="42.546406" lon="-0.94328976">
        <time>2022-07-05T08:35:25Z</time>
      </trkpt>
      <trkpt lat="42.546413" lon="-0.9431904">
        <time>2022-07-05T08:35:26Z</time>
      </trkpt>
      <trkpt lat="42.546432" lon="-0.9430894">
        <time>2022-07-05T08:35:27Z</time>
      </trkpt>
      <trkpt lat="42.54646" lon="-0.9429881">
        <time>2022-07-05T08:35:28Z</time>
      </trkpt>
      <trkpt lat="42.546497" lon="-0.94287944">
        <time>2022-07-05T08:35:29Z</time>
      </trkpt>
      <trkpt lat="42.54654" lon="-0.9427734">
        <time>2022-07-05T08:35:30Z</time>
      </trkpt>
      <trkpt lat="42.54659" lon="-0.94266844">
        <time>2022-07-05T08:35:31Z</time>
      </trkpt>
      <trkpt lat="42.54664" lon="-0.94256306">
        <time>2022-07-05T08:35:32Z</time>
      </trkpt>
      <trkpt lat="42.54669" lon="-0.9424631">
        <time>2022-07-05T08:35:33Z</time>
      </trkpt>
      <trkpt lat="42.54674" lon="-0.94236076">
        <time>2022-07-05T08:35:34Z</time>
      </trkpt>
      <trkpt lat="42.5468" lon="-0.94225144">
        <time>2022-07-05T08:35:35Z</time>
      </trkpt>
      <trkpt lat="42.546856" lon="-0.9421441">
        <time>2022-07-05T08:35:36Z</time>
      </trkpt>
      <trkpt lat="42.546906" lon="-0.94203776">
        <time>2022-07-05T08:35:37Z</time>
      </trkpt>
      <trkpt lat="42.54695" lon="-0.94193673">
        <time>2022-07-05T08:35:38Z</time>
      </trkpt>
      <trkpt lat="42.546986" lon="-0.94182974">
        <time>2022-07-05T08:35:39Z</time>
      </trkpt>
      <trkpt lat="42.547016" lon="-0.94170773">
        <time>2022-07-05T08:35:40Z</time>
      </trkpt>
      <trkpt lat="42.54704" lon="-0.94158345">
        <time>2022-07-05T08:35:41Z</time>
      </trkpt>
      <trkpt lat="42.547054" lon="-0.9414554">
        <time>2022-07-05T08:35:42Z</time>
      </trkpt>
      <trkpt lat="42.547062" lon="-0.9413248">
        <time>2022-07-05T08:35:43Z</time>
      </trkpt>
      <trkpt lat="42.547066" lon="-0.9411908">
        <time>2022-07-05T08:35:44Z</time>
      </trkpt>
      <trkpt lat="42.54706" lon="-0.9410551">
        <time>2022-07-05T08:35:45Z</time>
      </trkpt>
      <trkpt lat="42.54705" lon="-0.94091946">
        <time>2022-07-05T08:35:46Z</time>
      </trkpt>
      <trkpt lat="42.54704" lon="-0.94078577">
        <time>2022-07-05T08:35:47Z</time>
      </trkpt>
      <trkpt lat="42.547024" lon="-0.94065446">
        <time>2022-07-05T08:35:48Z</time>
      </trkpt>
      <trkpt lat="42.54702" lon="-0.9405268">
        <time>2022-07-05T08:35:49Z</time>
      </trkpt>
      <trkpt lat="42.54702" lon="-0.94041145">
        <time>2022-07-05T08:35:50Z</time>
      </trkpt>
      <trkpt lat="42.54704" lon="-0.94018084">
        <time>2022-07-05T08:35:52Z</time>
      </trkpt>
      <trkpt lat="42.54706" lon="-0.94007814">
        <time>2022-07-05T08:35:53Z</time>
      </trkpt>
      <trkpt lat="42.547077" lon="-0.93998915">
        <time>2022-07-05T08:35:54Z</time>
      </trkpt>
      <trkpt lat="42.547096" lon="-0.9399065">
        <time>2022-07-05T08:35:55Z</time>
      </trkpt>
      <trkpt lat="42.547115" lon="-0.93982613">
        <time>2022-07-05T08:35:56Z</time>
      </trkpt>
      <trkpt lat="42.547134" lon="-0.9397535">
        <time>2022-07-05T08:35:57Z</time>
      </trkpt>
      <trkpt lat="42.547173" lon="-0.93962485">
        <time>2022-07-05T08:35:59Z</time>
      </trkpt>
      <trkpt lat="42.547188" lon="-0.9395728">
        <time>2022-07-05T08:36:00Z</time>
      </trkpt>
      <trkpt lat="42.54722" lon="-0.93947786">
        <time>2022-07-05T08:36:02Z</time>
      </trkpt>
      <trkpt lat="42.54725" lon="-0.93939817">
        <time>2022-07-05T08:36:04Z</time>
      </trkpt>
      <trkpt lat="42.54727" lon="-0.9393295">
        <time>2022-07-05T08:36:06Z</time>
      </trkpt>
      <trkpt lat="42.54729" lon="-0.9392652">
        <time>2022-07-05T08:36:08Z</time>
      </trkpt>
      <trkpt lat="42.54732" lon="-0.93918055">
        <time>2022-07-05T08:36:11Z</time>
      </trkpt>
      <trkpt lat="42.547344" lon="-0.93910754">
        <time>2022-07-05T08:36:14Z</time>
      </trkpt>
      <trkpt lat="42.54736" lon="-0.9390442">
        <time>2022-07-05T08:36:17Z</time>
      </trkpt>
      <trkpt lat="42.547382" lon="-0.93896484">
        <time>2022-07-05T08:36:21Z</time>
      </trkpt>
      <trkpt lat="42.547405" lon="-0.93890053">
        <time>2022-07-05T08:36:25Z</time>
      </trkpt>
      <trkpt lat="42.547432" lon="-0.9388299">
        <time>2022-07-05T08:36:29Z</time>
      </trkpt>
      <trkpt lat="42.547447" lon="-0.93875325">
        <time>2022-07-05T08:36:33Z</time>
      </trkpt>
      <trkpt lat="42.54747" lon="-0.93867123">
        <time>2022-07-05T08:36:37Z</time>
      </trkpt>
      <trkpt lat="42.54749" lon="-0.9385856">
        <time>2022-07-05T08:36:41Z</time>
      </trkpt>
      <trkpt lat="42.54751" lon="-0.9385249">
        <time>2022-07-05T08:36:44Z</time>
      </trkpt>
      <trkpt lat="42.54754" lon="-0.93844855">
        <time>2022-07-05T08:36:48Z</time>
      </trkpt>
      <trkpt lat="42.547558" lon="-0.9383706">
        <time>2022-07-05T08:36:52Z</time>
      </trkpt>
      <trkpt lat="42.547577" lon="-0.9382909">
        <time>2022-07-05T08:36:56Z</time>
      </trkpt>
      <trkpt lat="42.54759" lon="-0.93823355">
        <time>2022-07-05T08:36:59Z</time>
      </trkpt>
      <trkpt lat="42.54761" lon="-0.93815225">
        <time>2022-07-05T08:37:03Z</time>
      </trkpt>
      <trkpt lat="42.547626" lon="-0.93809295">
        <time>2022-07-05T08:37:06Z</time>
      </trkpt>
      <trkpt lat="42.54765" lon="-0.9380116">
        <time>2022-07-05T08:37:10Z</time>
      </trkpt>
      <trkpt lat="42.547676" lon="-0.9379303">
        <time>2022-07-05T08:37:14Z</time>
      </trkpt>
      <trkpt lat="42.547695" lon="-0.9378479">
        <time>2022-07-05T08:37:18Z</time>
      </trkpt>
      <trkpt lat="42.547714" lon="-0.93776524">
        <time>2022-07-05T08:37:22Z</time>
      </trkpt>
      <trkpt lat="42.547733" lon="-0.9377026">
        <time>2022-07-05T08:37:25Z</time>
      </trkpt>
      <trkpt lat="42.547756" lon="-0.9376223">
        <time>2022-07-05T08:37:29Z</time>
      </trkpt>
      <trkpt lat="42.54778" lon="-0.9375393">
        <time>2022-07-05T08:37:33Z</time>
      </trkpt>
      <trkpt lat="42.547794" lon="-0.9374773">
        <time>2022-07-05T08:37:36Z</time>
      </trkpt>
      <trkpt lat="42.547817" lon="-0.9373996">
        <time>2022-07-05T08:37:40Z</time>
      </trkpt>
      <trkpt lat="42.547844" lon="-0.93732995">
        <time>2022-07-05T08:37:44Z</time>
      </trkpt>
      <trkpt lat="42.547863" lon="-0.9372543">
        <time>2022-07-05T08:37:48Z</time>
      </trkpt>
      <trkpt lat="42.54788" lon="-0.9371876">
        <time>2022-07-05T08:37:51Z</time>
      </trkpt>
      <trkpt lat="42.547886" lon="-0.93711597">
        <time>2022-07-05T08:37:54Z</time>
      </trkpt>
      <trkpt lat="42.547894" lon="-0.937049">
        <time>2022-07-05T08:37:57Z</time>
      </trkpt>
      <trkpt lat="42.547894" lon="-0.93696064">
        <time>2022-07-05T08:38:01Z</time>
      </trkpt>
      <trkpt lat="42.547882" lon="-0.93687767">
        <time>2022-07-05T08:38:05Z</time>
      </trkpt>
      <trkpt lat="42.547863" lon="-0.936796">
        <time>2022-07-05T08:38:09Z</time>
      </trkpt>
      <trkpt lat="42.547844" lon="-0.93671465">
        <time>2022-07-05T08:38:13Z</time>
      </trkpt>
      <trkpt lat="42.547817" lon="-0.93663865">
        <time>2022-07-05T08:38:17Z</time>
      </trkpt>
      <trkpt lat="42.5478" lon="-0.936563">
        <time>2022-07-05T08:38:21Z</time>
      </trkpt>
      <trkpt lat="42.54778" lon="-0.93648666">
        <time>2022-07-05T08:38:25Z</time>
      </trkpt>
      <trkpt lat="42.547764" lon="-0.9364063">
        <time>2022-07-05T08:38:29Z</time>
      </trkpt>
      <trkpt lat="42.547745" lon="-0.93632233">
        <time>2022-07-05T08:38:33Z</time>
      </trkpt>
      <trkpt lat="42.54772" lon="-0.936235">
        <time>2022-07-05T08:38:37Z</time>
      </trkpt>
      <trkpt lat="42.547703" lon="-0.936163">
        <time>2022-07-05T08:38:40Z</time>
      </trkpt>
      <trkpt lat="42.547688" lon="-0.9360707">
        <time>2022-07-05T08:38:43Z</time>
      </trkpt>
      <trkpt lat="42.547676" lon="-0.9359943">
        <time>2022-07-05T08:38:45Z</time>
      </trkpt>
      <trkpt lat="42.54767" lon="-0.9359007">
        <time>2022-07-05T08:38:47Z</time>
      </trkpt>
      <trkpt lat="42.54765" lon="-0.93577766">
        <time>2022-07-05T08:38:49Z</time>
      </trkpt>
      <trkpt lat="42.54764" lon="-0.93570906">
        <time>2022-07-05T08:38:50Z</time>
      </trkpt>
      <trkpt lat="42.54762" lon="-0.9355537">
        <time>2022-07-05T08:38:52Z</time>
      </trkpt>
      <trkpt lat="42.547607" lon="-0.93546736">
        <time>2022-07-05T08:38:53Z</time>
      </trkpt>
      <trkpt lat="42.5476" lon="-0.9353744">
        <time>2022-07-05T08:38:54Z</time>
      </trkpt>
      <trkpt lat="42.547592" lon="-0.935275">
        <time>2022-07-05T08:38:55Z</time>
      </trkpt>
      <trkpt lat="42.547585" lon="-0.9351697">
        <time>2022-07-05T08:38:56Z</time>
      </trkpt>
      <trkpt lat="42.54758" lon="-0.93505937">
        <time>2022-07-05T08:38:57Z</time>
      </trkpt>
      <trkpt lat="42.54758" lon="-0.93494606">
        <time>2022-07-05T08:38:58Z</time>
      </trkpt>
      <trkpt lat="42.547577" lon="-0.93471605">
        <time>2022-07-05T08:39:00Z</time>
      </trkpt>
      <trkpt lat="42.547577" lon="-0.93460804">
        <time>2022-07-05T08:39:01Z</time>
      </trkpt>
      <trkpt lat="42.547577" lon="-0.9344977">
        <time>2022-07-05T08:39:02Z</time>
      </trkpt>
      <trkpt lat="42.54758" lon="-0.9343817">
        <time>2022-07-05T08:39:03Z</time>
      </trkpt>
      <trkpt lat="42.54758" lon="-0.9342691">
        <time>2022-07-05T08:39:04Z</time>
      </trkpt>
      <trkpt lat="42.54758" lon="-0.9341614">
        <time>2022-07-05T08:39:05Z</time>
      </trkpt>
      <trkpt lat="42.54758" lon="-0.93406475">
        <time>2022-07-05T08:39:06Z</time>
      </trkpt>
      <trkpt lat="42.54758" lon="-0.9339724">
        <time>2022-07-05T08:39:07Z</time>
      </trkpt>
      <trkpt lat="42.547585" lon="-0.9338864">
        <time>2022-07-05T08:39:08Z</time>
      </trkpt>
      <trkpt lat="42.547585" lon="-0.9338024">
        <time>2022-07-05T08:39:09Z</time>
      </trkpt>
      <trkpt lat="42.54759" lon="-0.9337281">
        <time>2022-07-05T08:39:10Z</time>
      </trkpt>
      <trkpt lat="42.54759" lon="-0.9336614">
        <time>2022-07-05T08:39:11Z</time>
      </trkpt>
      <trkpt lat="42.547592" lon="-0.9335534">
        <time>2022-07-05T08:39:13Z</time>
      </trkpt>
      <trkpt lat="42.547592" lon="-0.9334591">
        <time>2022-07-05T08:39:15Z</time>
      </trkpt>
      <trkpt lat="42.547592" lon="-0.93337876">
        <time>2022-07-05T08:39:17Z</time>
      </trkpt>
      <trkpt lat="42.547592" lon="-0.9333084">
        <time>2022-07-05T08:39:19Z</time>
      </trkpt>
      <trkpt lat="42.547592" lon="-0.9332444">
        <time>2022-07-05T08:39:21Z</time>
      </trkpt>
      <trkpt lat="42.54759" lon="-0.9331591">
        <time>2022-07-05T08:39:24Z</time>
      </trkpt>
      <trkpt lat="42.547592" lon="-0.9330781">
        <time>2022-07-05T08:39:27Z</time>
      </trkpt>
      <trkpt lat="42.547592" lon="-0.9329931">
        <time>2022-07-05T08:39:30Z</time>
      </trkpt>
      <trkpt lat="42.54759" lon="-0.9329088">
        <time>2022-07-05T08:39:33Z</time>
      </trkpt>
      <trkpt lat="42.547585" lon="-0.93282276">
        <time>2022-07-05T08:39:36Z</time>
      </trkpt>
      <trkpt lat="42.54758" lon="-0.9327298">
        <time>2022-07-05T08:39:39Z</time>
      </trkpt>
      <trkpt lat="42.547573" lon="-0.9326048">
        <time>2022-07-05T08:39:42Z</time>
      </trkpt>
      <trkpt lat="42.547565" lon="-0.93249476">
        <time>2022-07-05T08:39:44Z</time>
      </trkpt>
      <trkpt lat="42.54755" lon="-0.9323618">
        <time>2022-07-05T08:39:46Z</time>
      </trkpt>
      <trkpt lat="42.547546" lon="-0.9322841">
        <time>2022-07-05T08:39:47Z</time>
      </trkpt>
      <trkpt lat="42.547535" lon="-0.9321998">
        <time>2022-07-05T08:39:48Z</time>
      </trkpt>
      <trkpt lat="42.547527" lon="-0.9321104">
        <time>2022-07-05T08:39:49Z</time>
      </trkpt>
      <trkpt lat="42.547516" lon="-0.93201643">
        <time>2022-07-05T08:39:50Z</time>
      </trkpt>
      <trkpt lat="42.54751" lon="-0.9319111">
        <time>2022-07-05T08:39:51Z</time>
      </trkpt>
      <trkpt lat="42.547497" lon="-0.93180543">
        <time>2022-07-05T08:39:52Z</time>
      </trkpt>
      <trkpt lat="42.54749" lon="-0.9317015">
        <time>2022-07-05T08:39:53Z</time>
      </trkpt>
      <trkpt lat="42.547485" lon="-0.9316078">
        <time>2022-07-05T08:39:54Z</time>
      </trkpt>
      <trkpt lat="42.547485" lon="-0.93151516">
        <time>2022-07-05T08:39:55Z</time>
      </trkpt>
      <trkpt lat="42.54749" lon="-0.93142647">
        <time>2022-07-05T08:39:56Z</time>
      </trkpt>
      <trkpt lat="42.547497" lon="-0.9313375">
        <time>2022-07-05T08:39:57Z</time>
      </trkpt>
      <trkpt lat="42.547504" lon="-0.9312538">
        <time>2022-07-05T08:39:58Z</time>
      </trkpt>
      <trkpt lat="42.547516" lon="-0.9311745">
        <time>2022-07-05T08:39:59Z</time>
      </trkpt>
      <trkpt lat="42.547546" lon="-0.93103015">
        <time>2022-07-05T08:40:01Z</time>
      </trkpt>
      <trkpt lat="42.547565" lon="-0.9309625">
        <time>2022-07-05T08:40:02Z</time>
      </trkpt>
      <trkpt lat="42.54758" lon="-0.93089783">
        <time>2022-07-05T08:40:03Z</time>
      </trkpt>
      <trkpt lat="42.547596" lon="-0.9308375">
        <time>2022-07-05T08:40:04Z</time>
      </trkpt>
      <trkpt lat="42.54763" lon="-0.9307265">
        <time>2022-07-05T08:40:06Z</time>
      </trkpt>
      <trkpt lat="42.547657" lon="-0.93063116">
        <time>2022-07-05T08:40:08Z</time>
      </trkpt>
      <trkpt lat="42.547688" lon="-0.93053716">
        <time>2022-07-05T08:40:10Z</time>
      </trkpt>
      <trkpt lat="42.547718" lon="-0.93045384">
        <time>2022-07-05T08:40:12Z</time>
      </trkpt>
      <trkpt lat="42.547752" lon="-0.9303765">
        <time>2022-07-05T08:40:14Z</time>
      </trkpt>
      <trkpt lat="42.547787" lon="-0.9303065">
        <time>2022-07-05T08:40:16Z</time>
      </trkpt>
      <trkpt lat="42.54782" lon="-0.9302432">
        <time>2022-07-05T08:40:18Z</time>
      </trkpt>
      <trkpt lat="42.54786" lon="-0.9301892">
        <time>2022-07-05T08:40:20Z</time>
      </trkpt>
      <trkpt lat="42.547897" lon="-0.93014085">
        <time>2022-07-05T08:40:22Z</time>
      </trkpt>
      <trkpt lat="42.54794" lon="-0.9300892">
        <time>2022-07-05T08:40:24Z</time>
      </trkpt>
      <trkpt lat="42.547977" lon="-0.9300349">
        <time>2022-07-05T08:40:26Z</time>
      </trkpt>
      <trkpt lat="42.54801" lon="-0.9299802">
        <time>2022-07-05T08:40:28Z</time>
      </trkpt>
      <trkpt lat="42.54804" lon="-0.9299192">
        <time>2022-07-05T08:40:30Z</time>
      </trkpt>
      <trkpt lat="42.54807" lon="-0.9298249">
        <time>2022-07-05T08:40:33Z</time>
      </trkpt>
      <trkpt lat="42.54808" lon="-0.92975724">
        <time>2022-07-05T08:40:35Z</time>
      </trkpt>
      <trkpt lat="42.548084" lon="-0.9296892">
        <time>2022-07-05T08:40:37Z</time>
      </trkpt>
      <trkpt lat="42.548084" lon="-0.92957956">
        <time>2022-07-05T08:40:40Z</time>
      </trkpt>
      <trkpt lat="42.548077" lon="-0.9294992">
        <time>2022-07-05T08:40:42Z</time>
      </trkpt>
      <trkpt lat="42.548065" lon="-0.9294076">
        <time>2022-07-05T08:40:44Z</time>
      </trkpt>
      <trkpt lat="42.548042" lon="-0.92930526">
        <time>2022-07-05T08:40:46Z</time>
      </trkpt>
      <trkpt lat="42.548027" lon="-0.9291849">
        <time>2022-07-05T08:40:48Z</time>
      </trkpt>
      <trkpt lat="42.54803" lon="-0.92905056">
        <time>2022-07-05T08:40:50Z</time>
      </trkpt>
      <trkpt lat="42.54806" lon="-0.92890656">
        <time>2022-07-05T08:40:52Z</time>
      </trkpt>
      <trkpt lat="42.548088" lon="-0.9288339">
        <time>2022-07-05T08:40:53Z</time>
      </trkpt>
      <trkpt lat="42.548122" lon="-0.92875594">
        <time>2022-07-05T08:40:54Z</time>
      </trkpt>
      <trkpt lat="42.54816" lon="-0.9286769">
        <time>2022-07-05T08:40:55Z</time>
      </trkpt>
      <trkpt lat="42.548195" lon="-0.9285956">
        <time>2022-07-05T08:40:56Z</time>
      </trkpt>
      <trkpt lat="42.548225" lon="-0.92851025">
        <time>2022-07-05T08:40:57Z</time>
      </trkpt>
      <trkpt lat="42.54825" lon="-0.92842025">
        <time>2022-07-05T08:40:58Z</time>
      </trkpt>
      <trkpt lat="42.548264" lon="-0.92832625">
        <time>2022-07-05T08:40:59Z</time>
      </trkpt>
      <trkpt lat="42.548275" lon="-0.9282376">
        <time>2022-07-05T08:41:00Z</time>
      </trkpt>
      <trkpt lat="42.54829" lon="-0.9281416">
        <time>2022-07-05T08:41:01Z</time>
      </trkpt>
      <trkpt lat="42.54831" lon="-0.92804897">
        <time>2022-07-05T08:41:02Z</time>
      </trkpt>
      <trkpt lat="42.54837" lon="-0.9278816">
        <time>2022-07-05T08:41:04Z</time>
      </trkpt>
      <trkpt lat="42.54842" lon="-0.9277976">
        <time>2022-07-05T08:41:05Z</time>
      </trkpt>
      <trkpt lat="42.548473" lon="-0.92771995">
        <time>2022-07-05T08:41:06Z</time>
      </trkpt>
      <trkpt lat="42.54853" lon="-0.9276513">
        <time>2022-07-05T08:41:07Z</time>
      </trkpt>
      <trkpt lat="42.5486" lon="-0.9275826">
        <time>2022-07-05T08:41:08Z</time>
      </trkpt>
      <trkpt lat="42.548664" lon="-0.9275233">
        <time>2022-07-05T08:41:09Z</time>
      </trkpt>
      <trkpt lat="42.548733" lon="-0.92746997">
        <time>2022-07-05T08:41:10Z</time>
      </trkpt>
      <trkpt lat="42.548813" lon="-0.92741734">
        <time>2022-07-05T08:41:11Z</time>
      </trkpt>
      <trkpt lat="42.548893" lon="-0.927363">
        <time>2022-07-05T08:41:12Z</time>
      </trkpt>
      <trkpt lat="42.548973" lon="-0.9273033">
        <time>2022-07-05T08:41:13Z</time>
      </trkpt>
      <trkpt lat="42.54905" lon="-0.927233">
        <time>2022-07-05T08:41:14Z</time>
      </trkpt>
      <trkpt lat="42.549114" lon="-0.92715764">
        <time>2022-07-05T08:41:15Z</time>
      </trkpt>
      <trkpt lat="42.54917" lon="-0.92707235">
        <time>2022-07-05T08:41:16Z</time>
      </trkpt>
      <trkpt lat="42.54922" lon="-0.92696834">
        <time>2022-07-05T08:41:17Z</time>
      </trkpt>
      <trkpt lat="42.549255" lon="-0.9268593">
        <time>2022-07-05T08:41:18Z</time>
      </trkpt>
      <trkpt lat="42.54927" lon="-0.9267477">
        <time>2022-07-05T08:41:19Z</time>
      </trkpt>
      <trkpt lat="42.549263" lon="-0.926637">
        <time>2022-07-05T08:41:20Z</time>
      </trkpt>
      <trkpt lat="42.549236" lon="-0.92652935">
        <time>2022-07-05T08:41:21Z</time>
      </trkpt>
      <trkpt lat="42.5492" lon="-0.92642534">
        <time>2022-07-05T08:41:22Z</time>
      </trkpt>
      <trkpt lat="42.549145" lon="-0.9263253">
        <time>2022-07-05T08:41:23Z</time>
      </trkpt>
      <trkpt lat="42.549084" lon="-0.92622936">
        <time>2022-07-05T08:41:24Z</time>
      </trkpt>
      <trkpt lat="42.549023" lon="-0.926144">
        <time>2022-07-05T08:41:25Z</time>
      </trkpt>
      <trkpt lat="42.548958" lon="-0.92606235">
        <time>2022-07-05T08:41:26Z</time>
      </trkpt>
      <trkpt lat="42.54889" lon="-0.92599136">
        <time>2022-07-05T08:41:27Z</time>
      </trkpt>
      <trkpt lat="42.548813" lon="-0.925933">
        <time>2022-07-05T08:41:28Z</time>
      </trkpt>
      <trkpt lat="42.548733" lon="-0.925888">
        <time>2022-07-05T08:41:29Z</time>
      </trkpt>
      <trkpt lat="42.548645" lon="-0.92585504">
        <time>2022-07-05T08:41:30Z</time>
      </trkpt>
      <trkpt lat="42.548553" lon="-0.9258317">
        <time>2022-07-05T08:41:31Z</time>
      </trkpt>
      <trkpt lat="42.548462" lon="-0.92581636">
        <time>2022-07-05T08:41:32Z</time>
      </trkpt>
      <trkpt lat="42.548363" lon="-0.92580634">
        <time>2022-07-05T08:41:33Z</time>
      </trkpt>
      <trkpt lat="42.54826" lon="-0.92579937">
        <time>2022-07-05T08:41:34Z</time>
      </trkpt>
      <trkpt lat="42.548157" lon="-0.9257927">
        <time>2022-07-05T08:41:35Z</time>
      </trkpt>
      <trkpt lat="42.548054" lon="-0.92578506">
        <time>2022-07-05T08:41:36Z</time>
      </trkpt>
      <trkpt lat="42.547955" lon="-0.925773">
        <time>2022-07-05T08:41:37Z</time>
      </trkpt>
      <trkpt lat="42.547855" lon="-0.9257537">
        <time>2022-07-05T08:41:38Z</time>
      </trkpt>
      <trkpt lat="42.54776" lon="-0.9257204">
        <time>2022-07-05T08:41:39Z</time>
      </trkpt>
      <trkpt lat="42.547672" lon="-0.9256691">
        <time>2022-07-05T08:41:40Z</time>
      </trkpt>
      <trkpt lat="42.547592" lon="-0.9256014">
        <time>2022-07-05T08:41:41Z</time>
      </trkpt>
      <trkpt lat="42.547527" lon="-0.92552674">
        <time>2022-07-05T08:41:42Z</time>
      </trkpt>
      <trkpt lat="42.54747" lon="-0.92543674">
        <time>2022-07-05T08:41:43Z</time>
      </trkpt>
      <trkpt lat="42.547417" lon="-0.92532706">
        <time>2022-07-05T08:41:44Z</time>
      </trkpt>
      <trkpt lat="42.547375" lon="-0.92521244">
        <time>2022-07-05T08:41:45Z</time>
      </trkpt>
      <trkpt lat="42.547333" lon="-0.9250948">
        <time>2022-07-05T08:41:46Z</time>
      </trkpt>
      <trkpt lat="42.547295" lon="-0.9249831">
        <time>2022-07-05T08:41:47Z</time>
      </trkpt>
      <trkpt lat="42.547256" lon="-0.92485875">
        <time>2022-07-05T08:41:48Z</time>
      </trkpt>
      <trkpt lat="42.547222" lon="-0.9247341">
        <time>2022-07-05T08:41:49Z</time>
      </trkpt>
      <trkpt lat="42.547188" lon="-0.92460847">
        <time>2022-07-05T08:41:50Z</time>
      </trkpt>
      <trkpt lat="42.547157" lon="-0.92449045">
        <time>2022-07-05T08:41:51Z</time>
      </trkpt>
      <trkpt lat="42.547123" lon="-0.9243698">
        <time>2022-07-05T08:41:52Z</time>
      </trkpt>
      <trkpt lat="42.547092" lon="-0.9242388">
        <time>2022-07-05T08:41:53Z</time>
      </trkpt>
      <trkpt lat="42.547066" lon="-0.9241105">
        <time>2022-07-05T08:41:54Z</time>
      </trkpt>
      <trkpt lat="42.547043" lon="-0.9239838">
        <time>2022-07-05T08:41:55Z</time>
      </trkpt>
      <trkpt lat="42.54703" lon="-0.9238588">
        <time>2022-07-05T08:41:56Z</time>
      </trkpt>
      <trkpt lat="42.547028" lon="-0.9237368">
        <time>2022-07-05T08:41:57Z</time>
      </trkpt>
      <trkpt lat="42.547035" lon="-0.9236185">
        <time>2022-07-05T08:41:58Z</time>
      </trkpt>
      <trkpt lat="42.54705" lon="-0.92350984">
        <time>2022-07-05T08:41:59Z</time>
      </trkpt>
      <trkpt lat="42.547073" lon="-0.92340016">
        <time>2022-07-05T08:42:00Z</time>
      </trkpt>
      <trkpt lat="42.5471" lon="-0.9232828">
        <time>2022-07-05T08:42:01Z</time>
      </trkpt>
      <trkpt lat="42.547127" lon="-0.9231678">
        <time>2022-07-05T08:42:02Z</time>
      </trkpt>
      <trkpt lat="42.547153" lon="-0.9230628">
        <time>2022-07-05T08:42:03Z</time>
      </trkpt>
      <trkpt lat="42.54718" lon="-0.92295647">
        <time>2022-07-05T08:42:04Z</time>
      </trkpt>
      <trkpt lat="42.547207" lon="-0.92284983">
        <time>2022-07-05T08:42:05Z</time>
      </trkpt>
      <trkpt lat="42.547234" lon="-0.92273486">
        <time>2022-07-05T08:42:06Z</time>
      </trkpt>
      <trkpt lat="42.547256" lon="-0.9226285">
        <time>2022-07-05T08:42:07Z</time>
      </trkpt>
      <trkpt lat="42.547295" lon="-0.9224125">
        <time>2022-07-05T08:42:09Z</time>
      </trkpt>
      <trkpt lat="42.547314" lon="-0.92230386">
        <time>2022-07-05T08:42:10Z</time>
      </trkpt>
      <trkpt lat="42.54733" lon="-0.9221875">
        <time>2022-07-05T08:42:11Z</time>
      </trkpt>
      <trkpt lat="42.547344" lon="-0.92207485">
        <time>2022-07-05T08:42:12Z</time>
      </trkpt>
      <trkpt lat="42.54736" lon="-0.92197084">
        <time>2022-07-05T08:42:13Z</time>
      </trkpt>
      <trkpt lat="42.54738" lon="-0.9218662">
        <time>2022-07-05T08:42:14Z</time>
      </trkpt>
      <trkpt lat="42.547398" lon="-0.92176217">
        <time>2022-07-05T08:42:15Z</time>
      </trkpt>
      <trkpt lat="42.547417" lon="-0.92165184">
        <time>2022-07-05T08:42:16Z</time>
      </trkpt>
      <trkpt lat="42.54744" lon="-0.92154455">
        <time>2022-07-05T08:42:17Z</time>
      </trkpt>
      <trkpt lat="42.547462" lon="-0.9214392">
        <time>2022-07-05T08:42:18Z</time>
      </trkpt>
      <trkpt lat="42.547485" lon="-0.9213419">
        <time>2022-07-05T08:42:19Z</time>
      </trkpt>
      <trkpt lat="42.54751" lon="-0.9212432">
        <time>2022-07-05T08:42:20Z</time>
      </trkpt>
      <trkpt lat="42.547535" lon="-0.92113686">
        <time>2022-07-05T08:42:21Z</time>
      </trkpt>
      <trkpt lat="42.547558" lon="-0.9210382">
        <time>2022-07-05T08:42:22Z</time>
      </trkpt>
      <trkpt lat="42.54758" lon="-0.92092854">
        <time>2022-07-05T08:42:23Z</time>
      </trkpt>
      <trkpt lat="42.547596" lon="-0.9208249">
        <time>2022-07-05T08:42:24Z</time>
      </trkpt>
      <trkpt lat="42.5476" lon="-0.9207119">
        <time>2022-07-05T08:42:25Z</time>
      </trkpt>
      <trkpt lat="42.547592" lon="-0.92060226">
        <time>2022-07-05T08:42:26Z</time>
      </trkpt>
      <trkpt lat="42.547565" lon="-0.9204976">
        <time>2022-07-05T08:42:27Z</time>
      </trkpt>
      <trkpt lat="42.547527" lon="-0.92040324">
        <time>2022-07-05T08:42:28Z</time>
      </trkpt>
      <trkpt lat="42.547478" lon="-0.92032593">
        <time>2022-07-05T08:42:29Z</time>
      </trkpt>
      <trkpt lat="42.547417" lon="-0.92025924">
        <time>2022-07-05T08:42:30Z</time>
      </trkpt>
      <trkpt lat="42.54734" lon="-0.9202036">
        <time>2022-07-05T08:42:31Z</time>
      </trkpt>
      <trkpt lat="42.54726" lon="-0.9201539">
        <time>2022-07-05T08:42:32Z</time>
      </trkpt>
      <trkpt lat="42.54717" lon="-0.9201053">
        <time>2022-07-05T08:42:33Z</time>
      </trkpt>
      <trkpt lat="42.547085" lon="-0.92006326">
        <time>2022-07-05T08:42:34Z</time>
      </trkpt>
      <trkpt lat="42.546993" lon="-0.9200236">
        <time>2022-07-05T08:42:35Z</time>
      </trkpt>
      <trkpt lat="42.546894" lon="-0.91998327">
        <time>2022-07-05T08:42:36Z</time>
      </trkpt>
      <trkpt lat="42.5468" lon="-0.9199433">
        <time>2022-07-05T08:42:37Z</time>
      </trkpt>
      <trkpt lat="42.546707" lon="-0.9199053">
        <time>2022-07-05T08:42:38Z</time>
      </trkpt>
      <trkpt lat="42.546616" lon="-0.9198616">
        <time>2022-07-05T08:42:39Z</time>
      </trkpt>
      <trkpt lat="42.546528" lon="-0.919809">
        <time>2022-07-05T08:42:40Z</time>
      </trkpt>
      <trkpt lat="42.546448" lon="-0.91974765">
        <time>2022-07-05T08:42:41Z</time>
      </trkpt>
      <trkpt lat="42.54638" lon="-0.9196713">
        <time>2022-07-05T08:42:42Z</time>
      </trkpt>
      <trkpt lat="42.54633" lon="-0.9195886">
        <time>2022-07-05T08:42:43Z</time>
      </trkpt>
      <trkpt lat="42.546303" lon="-0.91950566">
        <time>2022-07-05T08:42:44Z</time>
      </trkpt>
      <trkpt lat="42.546288" lon="-0.919432">
        <time>2022-07-05T08:42:45Z</time>
      </trkpt>
      <trkpt lat="42.546288" lon="-0.91936266">
        <time>2022-07-05T08:42:46Z</time>
      </trkpt>
      <trkpt lat="42.54629" lon="-0.9193003">
        <time>2022-07-05T08:42:47Z</time>
      </trkpt>
      <trkpt lat="42.546318" lon="-0.9191933">
        <time>2022-07-05T08:42:49Z</time>
      </trkpt>
      <trkpt lat="42.54635" lon="-0.91911066">
        <time>2022-07-05T08:42:51Z</time>
      </trkpt>
      <trkpt lat="42.54638" lon="-0.9190493">
        <time>2022-07-05T08:42:53Z</time>
      </trkpt>
      <trkpt lat="42.546402" lon="-0.9189953">
        <time>2022-07-05T08:42:55Z</time>
      </trkpt>
      <trkpt lat="42.54644" lon="-0.9189327">
        <time>2022-07-05T08:42:58Z</time>
      </trkpt>
      <trkpt lat="42.54647" lon="-0.91887367">
        <time>2022-07-05T08:43:01Z</time>
      </trkpt>
      <trkpt lat="42.546494" lon="-0.9188037">
        <time>2022-07-05T08:43:05Z</time>
      </trkpt>
      <trkpt lat="42.54651" lon="-0.9187173">
        <time>2022-07-05T08:43:10Z</time>
      </trkpt>
      <trkpt lat="42.54652" lon="-0.918647">
        <time>2022-07-05T08:43:14Z</time>
      </trkpt>
      <trkpt lat="42.54654" lon="-0.9185717">
        <time>2022-07-05T08:43:18Z</time>
      </trkpt>
      <trkpt lat="42.54655" lon="-0.9185017">
        <time>2022-07-05T08:43:22Z</time>
      </trkpt>
      <trkpt lat="42.546566" lon="-0.918424">
        <time>2022-07-05T08:43:26Z</time>
      </trkpt>
      <trkpt lat="42.54659" lon="-0.91835135">
        <time>2022-07-05T08:43:30Z</time>
      </trkpt>
      <trkpt lat="42.54661" lon="-0.9182774">
        <time>2022-07-05T08:43:34Z</time>
      </trkpt>
      <trkpt lat="42.54664" lon="-0.9182064">
        <time>2022-07-05T08:43:38Z</time>
      </trkpt>
      <trkpt lat="42.54667" lon="-0.91814005">
        <time>2022-07-05T08:43:42Z</time>
      </trkpt>
      <trkpt lat="42.546696" lon="-0.918074">
        <time>2022-07-05T08:43:46Z</time>
      </trkpt>
      <trkpt lat="42.546726" lon="-0.918007">
        <time>2022-07-05T08:43:50Z</time>
      </trkpt>
      <trkpt lat="42.546753" lon="-0.91795206">
        <time>2022-07-05T08:43:53Z</time>
      </trkpt>
      <trkpt lat="42.546776" lon="-0.9178837">
        <time>2022-07-05T08:43:57Z</time>
      </trkpt>
      <trkpt lat="42.546806" lon="-0.91781306">
        <time>2022-07-05T08:44:01Z</time>
      </trkpt>
      <trkpt lat="42.54681" lon="-0.9177434">
        <time>2022-07-05T08:44:05Z</time>
      </trkpt>
      <trkpt lat="42.54682" lon="-0.9176664">
        <time>2022-07-05T08:44:09Z</time>
      </trkpt>
      <trkpt lat="42.54683" lon="-0.91758937">
        <time>2022-07-05T08:44:13Z</time>
      </trkpt>
      <trkpt lat="42.546844" lon="-0.9175131">
        <time>2022-07-05T08:44:17Z</time>
      </trkpt>
      <trkpt lat="42.546856" lon="-0.91745174">
        <time>2022-07-05T08:44:20Z</time>
      </trkpt>
      <trkpt lat="42.546867" lon="-0.9173774">
        <time>2022-07-05T08:44:24Z</time>
      </trkpt>
      <trkpt lat="42.54688" lon="-0.9173024">
        <time>2022-07-05T08:44:28Z</time>
      </trkpt>
      <trkpt lat="42.54689" lon="-0.9172257">
        <time>2022-07-05T08:44:32Z</time>
      </trkpt>
      <trkpt lat="42.54689" lon="-0.91715306">
        <time>2022-07-05T08:44:36Z</time>
      </trkpt>
      <trkpt lat="42.5469" lon="-0.91707873">
        <time>2022-07-05T08:44:40Z</time>
      </trkpt>
      <trkpt lat="42.546917" lon="-0.9170021">
        <time>2022-07-05T08:44:44Z</time>
      </trkpt>
      <trkpt lat="42.546932" lon="-0.9169211">
        <time>2022-07-05T08:44:48Z</time>
      </trkpt>
      <trkpt lat="42.546944" lon="-0.9168361">
        <time>2022-07-05T08:44:52Z</time>
      </trkpt>
      <trkpt lat="42.54696" lon="-0.9167551">
        <time>2022-07-05T08:44:56Z</time>
      </trkpt>
      <trkpt lat="42.54697" lon="-0.91667545">
        <time>2022-07-05T08:45:00Z</time>
      </trkpt>
      <trkpt lat="42.546986" lon="-0.9165981">
        <time>2022-07-05T08:45:04Z</time>
      </trkpt>
      <trkpt lat="42.546997" lon="-0.91652143">
        <time>2022-07-05T08:45:08Z</time>
      </trkpt>
      <trkpt lat="42.547005" lon="-0.9164381">
        <time>2022-07-05T08:45:12Z</time>
      </trkpt>
      <trkpt lat="42.54702" lon="-0.9163521">
        <time>2022-07-05T08:45:16Z</time>
      </trkpt>
      <trkpt lat="42.547028" lon="-0.9162668">
        <time>2022-07-05T08:45:20Z</time>
      </trkpt>
      <trkpt lat="42.547035" lon="-0.91618544">
        <time>2022-07-05T08:45:24Z</time>
      </trkpt>
      <trkpt lat="42.547047" lon="-0.91610247">
        <time>2022-07-05T08:45:28Z</time>
      </trkpt>
      <trkpt lat="42.54706" lon="-0.91602045">
        <time>2022-07-05T08:45:32Z</time>
      </trkpt>
      <trkpt lat="42.54707" lon="-0.91595745">
        <time>2022-07-05T08:45:35Z</time>
      </trkpt>
      <trkpt lat="42.547077" lon="-0.9158731">
        <time>2022-07-05T08:45:39Z</time>
      </trkpt>
      <trkpt lat="42.547085" lon="-0.9157885">
        <time>2022-07-05T08:45:43Z</time>
      </trkpt>
      <trkpt lat="42.547092" lon="-0.9157098">
        <time>2022-07-05T08:45:47Z</time>
      </trkpt>
      <trkpt lat="42.547096" lon="-0.9156235">
        <time>2022-07-05T08:45:51Z</time>
      </trkpt>
      <trkpt lat="42.54709" lon="-0.91555816">
        <time>2022-07-05T08:45:54Z</time>
      </trkpt>
      <trkpt lat="42.54709" lon="-0.9154745">
        <time>2022-07-05T08:45:58Z</time>
      </trkpt>
      <trkpt lat="42.547092" lon="-0.9153932">
        <time>2022-07-05T08:46:02Z</time>
      </trkpt>
      <trkpt lat="42.54709" lon="-0.9153212">
        <time>2022-07-05T08:46:05Z</time>
      </trkpt>
      <trkpt lat="42.54708" lon="-0.9152355">
        <time>2022-07-05T08:46:08Z</time>
      </trkpt>
      <trkpt lat="42.547073" lon="-0.9151395">
        <time>2022-07-05T08:46:11Z</time>
      </trkpt>
      <trkpt lat="42.54707" lon="-0.91505784">
        <time>2022-07-05T08:46:13Z</time>
      </trkpt>
      <trkpt lat="42.547066" lon="-0.91492516">
        <time>2022-07-05T08:46:16Z</time>
      </trkpt>
      <trkpt lat="42.547062" lon="-0.91482484">
        <time>2022-07-05T08:46:18Z</time>
      </trkpt>
      <trkpt lat="42.54706" lon="-0.9147172">
        <time>2022-07-05T08:46:20Z</time>
      </trkpt>
      <trkpt lat="42.547054" lon="-0.9145942">
        <time>2022-07-05T08:46:22Z</time>
      </trkpt>
      <trkpt lat="42.547054" lon="-0.9144499">
        <time>2022-07-05T08:46:24Z</time>
      </trkpt>
      <trkpt lat="42.54705" lon="-0.91437083">
        <time>2022-07-05T08:46:25Z</time>
      </trkpt>
      <trkpt lat="42.547047" lon="-0.91429055">
        <time>2022-07-05T08:46:26Z</time>
      </trkpt>
      <trkpt lat="42.54704" lon="-0.9142082">
        <time>2022-07-05T08:46:27Z</time>
      </trkpt>
      <trkpt lat="42.547035" lon="-0.9141232">
        <time>2022-07-05T08:46:28Z</time>
      </trkpt>
      <trkpt lat="42.54703" lon="-0.9140362">
        <time>2022-07-05T08:46:29Z</time>
      </trkpt>
      <trkpt lat="42.547028" lon="-0.9139465">
        <time>2022-07-05T08:46:30Z</time>
      </trkpt>
      <trkpt lat="42.547028" lon="-0.9138539">
        <time>2022-07-05T08:46:31Z</time>
      </trkpt>
      <trkpt lat="42.547028" lon="-0.9137595">
        <time>2022-07-05T08:46:32Z</time>
      </trkpt>
      <trkpt lat="42.547024" lon="-0.9136632">
        <time>2022-07-05T08:46:33Z</time>
      </trkpt>
      <trkpt lat="42.547024" lon="-0.91356486">
        <time>2022-07-05T08:46:34Z</time>
      </trkpt>
      <trkpt lat="42.547024" lon="-0.91346455">
        <time>2022-07-05T08:46:35Z</time>
      </trkpt>
      <trkpt lat="42.547024" lon="-0.91336954">
        <time>2022-07-05T08:46:36Z</time>
      </trkpt>
      <trkpt lat="42.547024" lon="-0.9132709">
        <time>2022-07-05T08:46:37Z</time>
      </trkpt>
      <trkpt lat="42.547024" lon="-0.91316324">
        <time>2022-07-05T08:46:38Z</time>
      </trkpt>
      <trkpt lat="42.54702" lon="-0.9130572">
        <time>2022-07-05T08:46:39Z</time>
      </trkpt>
      <trkpt lat="42.54702" lon="-0.91295123">
        <time>2022-07-05T08:46:40Z</time>
      </trkpt>
      <trkpt lat="42.547016" lon="-0.9128469">
        <time>2022-07-05T08:46:41Z</time>
      </trkpt>
      <trkpt lat="42.547016" lon="-0.9127499">
        <time>2022-07-05T08:46:42Z</time>
      </trkpt>
      <trkpt lat="42.547012" lon="-0.9126426">
        <time>2022-07-05T08:46:43Z</time>
      </trkpt>
      <trkpt lat="42.54701" lon="-0.91253656">
        <time>2022-07-05T08:46:44Z</time>
      </trkpt>
      <trkpt lat="42.547005" lon="-0.9124309">
        <time>2022-07-05T08:46:45Z</time>
      </trkpt>
      <trkpt lat="42.546993" lon="-0.9123266">
        <time>2022-07-05T08:46:46Z</time>
      </trkpt>
      <trkpt lat="42.546974" lon="-0.91223127">
        <time>2022-07-05T08:46:47Z</time>
      </trkpt>
      <trkpt lat="42.54695" lon="-0.91213727">
        <time>2022-07-05T08:46:48Z</time>
      </trkpt>
      <trkpt lat="42.54692" lon="-0.91204494">
        <time>2022-07-05T08:46:49Z</time>
      </trkpt>
      <trkpt lat="42.546883" lon="-0.9119496">
        <time>2022-07-05T08:46:50Z</time>
      </trkpt>
      <trkpt lat="42.546844" lon="-0.9118566">
        <time>2022-07-05T08:46:51Z</time>
      </trkpt>
      <trkpt lat="42.546803" lon="-0.9117706">
        <time>2022-07-05T08:46:52Z</time>
      </trkpt>
      <trkpt lat="42.54676" lon="-0.91168493">
        <time>2022-07-05T08:46:53Z</time>
      </trkpt>
      <trkpt lat="42.546715" lon="-0.91160125">
        <time>2022-07-05T08:46:54Z</time>
      </trkpt>
      <trkpt lat="42.546673" lon="-0.9115183">
        <time>2022-07-05T08:46:55Z</time>
      </trkpt>
      <trkpt lat="42.54663" lon="-0.91143495">
        <time>2022-07-05T08:46:56Z</time>
      </trkpt>
      <trkpt lat="42.546597" lon="-0.9113516">
        <time>2022-07-05T08:46:57Z</time>
      </trkpt>
      <trkpt lat="42.546562" lon="-0.9112683">
        <time>2022-07-05T08:46:58Z</time>
      </trkpt>
      <trkpt lat="42.54653" lon="-0.91118395">
        <time>2022-07-05T08:46:59Z</time>
      </trkpt>
      <trkpt lat="42.5465" lon="-0.91109395">
        <time>2022-07-05T08:47:00Z</time>
      </trkpt>
      <trkpt lat="42.54647" lon="-0.91100496">
        <time>2022-07-05T08:47:01Z</time>
      </trkpt>
      <trkpt lat="42.546444" lon="-0.9109233">
        <time>2022-07-05T08:47:02Z</time>
      </trkpt>
      <trkpt lat="42.546417" lon="-0.9108423">
        <time>2022-07-05T08:47:03Z</time>
      </trkpt>
      <trkpt lat="42.546394" lon="-0.9107623">
        <time>2022-07-05T08:47:04Z</time>
      </trkpt>
      <trkpt lat="42.54637" lon="-0.910683">
        <time>2022-07-05T08:47:05Z</time>
      </trkpt>
      <trkpt lat="42.54635" lon="-0.91060495">
        <time>2022-07-05T08:47:06Z</time>
      </trkpt>
      <trkpt lat="42.54632" lon="-0.9105283">
        <time>2022-07-05T08:47:07Z</time>
      </trkpt>
      <trkpt lat="42.5463" lon="-0.91045195">
        <time>2022-07-05T08:47:08Z</time>
      </trkpt>
      <trkpt lat="42.54627" lon="-0.91037196">
        <time>2022-07-05T08:47:09Z</time>
      </trkpt>
      <trkpt lat="42.54624" lon="-0.91029465">
        <time>2022-07-05T08:47:10Z</time>
      </trkpt>
      <trkpt lat="42.54621" lon="-0.91021967">
        <time>2022-07-05T08:47:11Z</time>
      </trkpt>
      <trkpt lat="42.54618" lon="-0.910146">
        <time>2022-07-05T08:47:12Z</time>
      </trkpt>
      <trkpt lat="42.546154" lon="-0.91007835">
        <time>2022-07-05T08:47:13Z</time>
      </trkpt>
      <trkpt lat="42.546127" lon="-0.91000867">
        <time>2022-07-05T08:47:14Z</time>
      </trkpt>
      <trkpt lat="42.546097" lon="-0.9099373">
        <time>2022-07-05T08:47:15Z</time>
      </trkpt>
      <trkpt lat="42.54607" lon="-0.90986466">
        <time>2022-07-05T08:47:16Z</time>
      </trkpt>
      <trkpt lat="42.546017" lon="-0.9097177">
        <time>2022-07-05T08:47:18Z</time>
      </trkpt>
      <trkpt lat="42.545986" lon="-0.909645">
        <time>2022-07-05T08:47:19Z</time>
      </trkpt>
      <trkpt lat="42.54596" lon="-0.9095734">
        <time>2022-07-05T08:47:20Z</time>
      </trkpt>
      <trkpt lat="42.545925" lon="-0.90949667">
        <time>2022-07-05T08:47:21Z</time>
      </trkpt>
      <trkpt lat="42.5459" lon="-0.90942204">
        <time>2022-07-05T08:47:22Z</time>
      </trkpt>
      <trkpt lat="42.545868" lon="-0.9093507">
        <time>2022-07-05T08:47:23Z</time>
      </trkpt>
      <trkpt lat="42.545837" lon="-0.90928006">
        <time>2022-07-05T08:47:24Z</time>
      </trkpt>
      <trkpt lat="42.54581" lon="-0.909214">
        <time>2022-07-05T08:47:25Z</time>
      </trkpt>
      <trkpt lat="42.545784" lon="-0.90914273">
        <time>2022-07-05T08:47:26Z</time>
      </trkpt>
      <trkpt lat="42.545757" lon="-0.9090724">
        <time>2022-07-05T08:47:27Z</time>
      </trkpt>
      <trkpt lat="42.54573" lon="-0.9090057">
        <time>2022-07-05T08:47:28Z</time>
      </trkpt>
      <trkpt lat="42.545708" lon="-0.9089364">
        <time>2022-07-05T08:47:29Z</time>
      </trkpt>
      <trkpt lat="42.54569" lon="-0.90886474">
        <time>2022-07-05T08:47:30Z</time>
      </trkpt>
      <trkpt lat="42.545673" lon="-0.9087904">
        <time>2022-07-05T08:47:31Z</time>
      </trkpt>
      <trkpt lat="42.54566" lon="-0.90871304">
        <time>2022-07-05T08:47:32Z</time>
      </trkpt>
      <trkpt lat="42.54565" lon="-0.90863377">
        <time>2022-07-05T08:47:33Z</time>
      </trkpt>
      <trkpt lat="42.54564" lon="-0.90855306">
        <time>2022-07-05T08:47:34Z</time>
      </trkpt>
      <trkpt lat="42.54563" lon="-0.90847176">
        <time>2022-07-05T08:47:35Z</time>
      </trkpt>
      <trkpt lat="42.545624" lon="-0.9083891">
        <time>2022-07-05T08:47:36Z</time>
      </trkpt>
      <trkpt lat="42.54562" lon="-0.90830445">
        <time>2022-07-05T08:47:37Z</time>
      </trkpt>
      <trkpt lat="42.545612" lon="-0.90821874">
        <time>2022-07-05T08:47:38Z</time>
      </trkpt>
      <trkpt lat="42.54561" lon="-0.9081314">
        <time>2022-07-05T08:47:39Z</time>
      </trkpt>
      <trkpt lat="42.545605" lon="-0.90804344">
        <time>2022-07-05T08:47:40Z</time>
      </trkpt>
      <trkpt lat="42.545597" lon="-0.9079541">
        <time>2022-07-05T08:47:41Z</time>
      </trkpt>
      <trkpt lat="42.545593" lon="-0.9078631">
        <time>2022-07-05T08:47:42Z</time>
      </trkpt>
      <trkpt lat="42.54558" lon="-0.90777177">
        <time>2022-07-05T08:47:43Z</time>
      </trkpt>
      <trkpt lat="42.545574" lon="-0.9076808">
        <time>2022-07-05T08:47:44Z</time>
      </trkpt>
      <trkpt lat="42.545563" lon="-0.9075898">
        <time>2022-07-05T08:47:45Z</time>
      </trkpt>
      <trkpt lat="42.54555" lon="-0.90749747">
        <time>2022-07-05T08:47:46Z</time>
      </trkpt>
      <trkpt lat="42.545536" lon="-0.90740246">
        <time>2022-07-05T08:47:47Z</time>
      </trkpt>
      <trkpt lat="42.54552" lon="-0.90730715">
        <time>2022-07-05T08:47:48Z</time>
      </trkpt>
      <trkpt lat="42.5455" lon="-0.90721214">
        <time>2022-07-05T08:47:49Z</time>
      </trkpt>
      <trkpt lat="42.545486" lon="-0.90711844">
        <time>2022-07-05T08:47:50Z</time>
      </trkpt>
      <trkpt lat="42.545467" lon="-0.90702415">
        <time>2022-07-05T08:47:51Z</time>
      </trkpt>
      <trkpt lat="42.54545" lon="-0.9069298">
        <time>2022-07-05T08:47:52Z</time>
      </trkpt>
      <trkpt lat="42.545433" lon="-0.9068358">
        <time>2022-07-05T08:47:53Z</time>
      </trkpt>
      <trkpt lat="42.545418" lon="-0.9067418">
        <time>2022-07-05T08:47:54Z</time>
      </trkpt>
      <trkpt lat="42.545403" lon="-0.9066478">
        <time>2022-07-05T08:47:55Z</time>
      </trkpt>
      <trkpt lat="42.54539" lon="-0.90655315">
        <time>2022-07-05T08:47:56Z</time>
      </trkpt>
      <trkpt lat="42.545383" lon="-0.90645814">
        <time>2022-07-05T08:47:57Z</time>
      </trkpt>
      <trkpt lat="42.54538" lon="-0.90636283">
        <time>2022-07-05T08:47:58Z</time>
      </trkpt>
      <trkpt lat="42.54538" lon="-0.9062608">
        <time>2022-07-05T08:47:59Z</time>
      </trkpt>
      <trkpt lat="42.54538" lon="-0.9061605">
        <time>2022-07-05T08:48:00Z</time>
      </trkpt>
      <trkpt lat="42.545383" lon="-0.90606713">
        <time>2022-07-05T08:48:01Z</time>
      </trkpt>
      <trkpt lat="42.54539" lon="-0.9059725">
        <time>2022-07-05T08:48:02Z</time>
      </trkpt>
      <trkpt lat="42.5454" lon="-0.9058705">
        <time>2022-07-05T08:48:03Z</time>
      </trkpt>
      <trkpt lat="42.545406" lon="-0.90576947">
        <time>2022-07-05T08:48:04Z</time>
      </trkpt>
      <trkpt lat="42.545418" lon="-0.90567017">
        <time>2022-07-05T08:48:05Z</time>
      </trkpt>
      <trkpt lat="42.54543" lon="-0.90557814">
        <time>2022-07-05T08:48:06Z</time>
      </trkpt>
      <trkpt lat="42.54544" lon="-0.9054775">
        <time>2022-07-05T08:48:07Z</time>
      </trkpt>
      <trkpt lat="42.545452" lon="-0.9053762">
        <time>2022-07-05T08:48:08Z</time>
      </trkpt>
      <trkpt lat="42.545464" lon="-0.9052772">
        <time>2022-07-05T08:48:09Z</time>
      </trkpt>
      <trkpt lat="42.545475" lon="-0.90518016">
        <time>2022-07-05T08:48:10Z</time>
      </trkpt>
      <trkpt lat="42.545483" lon="-0.9050865">
        <time>2022-07-05T08:48:11Z</time>
      </trkpt>
      <trkpt lat="42.545494" lon="-0.9049992">
        <time>2022-07-05T08:48:12Z</time>
      </trkpt>
      <trkpt lat="42.54551" lon="-0.9049095">
        <time>2022-07-05T08:48:13Z</time>
      </trkpt>
      <trkpt lat="42.545525" lon="-0.9048125">
        <time>2022-07-05T08:48:14Z</time>
      </trkpt>
      <trkpt lat="42.545536" lon="-0.9047149">
        <time>2022-07-05T08:48:15Z</time>
      </trkpt>
      <trkpt lat="42.545555" lon="-0.9046195">
        <time>2022-07-05T08:48:16Z</time>
      </trkpt>
      <trkpt lat="42.54557" lon="-0.9045262">
        <time>2022-07-05T08:48:17Z</time>
      </trkpt>
      <trkpt lat="42.54559" lon="-0.9044319">
        <time>2022-07-05T08:48:18Z</time>
      </trkpt>
      <trkpt lat="42.54561" lon="-0.9043372">
        <time>2022-07-05T08:48:19Z</time>
      </trkpt>
      <trkpt lat="42.54562" lon="-0.90424186">
        <time>2022-07-05T08:48:20Z</time>
      </trkpt>
      <trkpt lat="42.545628" lon="-0.90414554">
        <time>2022-07-05T08:48:21Z</time>
      </trkpt>
      <trkpt lat="42.54563" lon="-0.9040496">
        <time>2022-07-05T08:48:22Z</time>
      </trkpt>
      <trkpt lat="42.545624" lon="-0.9038599">
        <time>2022-07-05T08:48:24Z</time>
      </trkpt>
      <trkpt lat="42.545612" lon="-0.9037652">
        <time>2022-07-05T08:48:25Z</time>
      </trkpt>
      <trkpt lat="42.545597" lon="-0.9036712">
        <time>2022-07-05T08:48:26Z</time>
      </trkpt>
      <trkpt lat="42.54558" lon="-0.9035772">
        <time>2022-07-05T08:48:27Z</time>
      </trkpt>
      <trkpt lat="42.545563" lon="-0.9034829">
        <time>2022-07-05T08:48:28Z</time>
      </trkpt>
      <trkpt lat="42.54554" lon="-0.9033889">
        <time>2022-07-05T08:48:29Z</time>
      </trkpt>
      <trkpt lat="42.54552" lon="-0.9032952">
        <time>2022-07-05T08:48:30Z</time>
      </trkpt>
      <trkpt lat="42.545498" lon="-0.9032026">
        <time>2022-07-05T08:48:31Z</time>
      </trkpt>
      <trkpt lat="42.54548" lon="-0.9031109">
        <time>2022-07-05T08:48:32Z</time>
      </trkpt>
      <trkpt lat="42.545456" lon="-0.90302056">
        <time>2022-07-05T08:48:33Z</time>
      </trkpt>
      <trkpt lat="42.545437" lon="-0.9029306">
        <time>2022-07-05T08:48:34Z</time>
      </trkpt>
      <trkpt lat="42.545418" lon="-0.9028423">
        <time>2022-07-05T08:48:35Z</time>
      </trkpt>
      <trkpt lat="42.545395" lon="-0.9027556">
        <time>2022-07-05T08:48:36Z</time>
      </trkpt>
      <trkpt lat="42.545376" lon="-0.9026706">
        <time>2022-07-05T08:48:37Z</time>
      </trkpt>
      <trkpt lat="42.545353" lon="-0.90258795">
        <time>2022-07-05T08:48:38Z</time>
      </trkpt>
      <trkpt lat="42.545326" lon="-0.9025076">
        <time>2022-07-05T08:48:39Z</time>
      </trkpt>
      <trkpt lat="42.5453" lon="-0.9024296">
        <time>2022-07-05T08:48:40Z</time>
      </trkpt>
      <trkpt lat="42.54527" lon="-0.9023536">
        <time>2022-07-05T08:48:41Z</time>
      </trkpt>
      <trkpt lat="42.54524" lon="-0.90227926">
        <time>2022-07-05T08:48:42Z</time>
      </trkpt>
      <trkpt lat="42.545204" lon="-0.90220493">
        <time>2022-07-05T08:48:43Z</time>
      </trkpt>
      <trkpt lat="42.54517" lon="-0.90212995">
        <time>2022-07-05T08:48:44Z</time>
      </trkpt>
      <trkpt lat="42.54514" lon="-0.9020596">
        <time>2022-07-05T08:48:45Z</time>
      </trkpt>
      <trkpt lat="42.54511" lon="-0.9019813">
        <time>2022-07-05T08:48:46Z</time>
      </trkpt>
      <trkpt lat="42.545074" lon="-0.9019033">
        <time>2022-07-05T08:48:47Z</time>
      </trkpt>
      <trkpt lat="42.545044" lon="-0.9018293">
        <time>2022-07-05T08:48:48Z</time>
      </trkpt>
      <trkpt lat="42.545017" lon="-0.90175295">
        <time>2022-07-05T08:48:49Z</time>
      </trkpt>
      <trkpt lat="42.544987" lon="-0.901674">
        <time>2022-07-05T08:48:50Z</time>
      </trkpt>
      <trkpt lat="42.544964" lon="-0.9015923">
        <time>2022-07-05T08:48:51Z</time>
      </trkpt>
      <trkpt lat="42.54494" lon="-0.9015093">
        <time>2022-07-05T08:48:52Z</time>
      </trkpt>
      <trkpt lat="42.544918" lon="-0.9014263">
        <time>2022-07-05T08:48:53Z</time>
      </trkpt>
      <trkpt lat="42.544895" lon="-0.9013433">
        <time>2022-07-05T08:48:54Z</time>
      </trkpt>
      <trkpt lat="42.544872" lon="-0.9012613">
        <time>2022-07-05T08:48:55Z</time>
      </trkpt>
      <trkpt lat="42.544853" lon="-0.90117997">
        <time>2022-07-05T08:48:56Z</time>
      </trkpt>
      <trkpt lat="42.544834" lon="-0.9010996">
        <time>2022-07-05T08:48:57Z</time>
      </trkpt>
      <trkpt lat="42.54482" lon="-0.9010203">
        <time>2022-07-05T08:48:58Z</time>
      </trkpt>
      <trkpt lat="42.544804" lon="-0.90094197">
        <time>2022-07-05T08:48:59Z</time>
      </trkpt>
      <trkpt lat="42.544796" lon="-0.900866">
        <time>2022-07-05T08:49:00Z</time>
      </trkpt>
      <trkpt lat="42.544792" lon="-0.90079296">
        <time>2022-07-05T08:49:01Z</time>
      </trkpt>
      <trkpt lat="42.54479" lon="-0.90072364">
        <time>2022-07-05T08:49:02Z</time>
      </trkpt>
      <trkpt lat="42.544796" lon="-0.9006533">
        <time>2022-07-05T08:49:03Z</time>
      </trkpt>
      <trkpt lat="42.544804" lon="-0.90059197">
        <time>2022-07-05T08:49:04Z</time>
      </trkpt>
      <trkpt lat="42.544823" lon="-0.900477">
        <time>2022-07-05T08:49:06Z</time>
      </trkpt>
      <trkpt lat="42.544853" lon="-0.90036696">
        <time>2022-07-05T08:49:08Z</time>
      </trkpt>
      <trkpt lat="42.544884" lon="-0.9002693">
        <time>2022-07-05T08:49:10Z</time>
      </trkpt>
      <trkpt lat="42.544914" lon="-0.900181">
        <time>2022-07-05T08:49:12Z</time>
      </trkpt>
      <trkpt lat="42.544945" lon="-0.9001023">
        <time>2022-07-05T08:49:14Z</time>
      </trkpt>
      <trkpt lat="42.54498" lon="-0.90003633">
        <time>2022-07-05T08:49:16Z</time>
      </trkpt>
      <trkpt lat="42.545017" lon="-0.89997303">
        <time>2022-07-05T08:49:18Z</time>
      </trkpt>
      <trkpt lat="42.54506" lon="-0.89991534">
        <time>2022-07-05T08:49:20Z</time>
      </trkpt>
      <trkpt lat="42.545105" lon="-0.8998644">
        <time>2022-07-05T08:49:22Z</time>
      </trkpt>
      <trkpt lat="42.545177" lon="-0.8997933">
        <time>2022-07-05T08:49:25Z</time>
      </trkpt>
      <trkpt lat="42.54522" lon="-0.89975035">
        <time>2022-07-05T08:49:27Z</time>
      </trkpt>
      <trkpt lat="42.54527" lon="-0.8997123">
        <time>2022-07-05T08:49:29Z</time>
      </trkpt>
      <trkpt lat="42.545315" lon="-0.89967936">
        <time>2022-07-05T08:49:31Z</time>
      </trkpt>
      <trkpt lat="42.54538" lon="-0.899635">
        <time>2022-07-05T08:49:34Z</time>
      </trkpt>
      <trkpt lat="42.545437" lon="-0.8995807">
        <time>2022-07-05T08:49:37Z</time>
      </trkpt>
      <trkpt lat="42.54549" lon="-0.89952904">
        <time>2022-07-05T08:49:40Z</time>
      </trkpt>
      <trkpt lat="42.545536" lon="-0.89947337">
        <time>2022-07-05T08:49:43Z</time>
      </trkpt>
      <trkpt lat="42.545578" lon="-0.89941806">
        <time>2022-07-05T08:49:46Z</time>
      </trkpt>
      <trkpt lat="42.54562" lon="-0.8993627">
        <time>2022-07-05T08:49:49Z</time>
      </trkpt>
      <trkpt lat="42.545662" lon="-0.89930403">
        <time>2022-07-05T08:49:52Z</time>
      </trkpt>
      <trkpt lat="42.5457" lon="-0.8992434">
        <time>2022-07-05T08:49:55Z</time>
      </trkpt>
      <trkpt lat="42.545742" lon="-0.8991821">
        <time>2022-07-05T08:49:58Z</time>
      </trkpt>
      <trkpt lat="42.54578" lon="-0.89912003">
        <time>2022-07-05T08:50:01Z</time>
      </trkpt>
      <trkpt lat="42.54582" lon="-0.8990547">
        <time>2022-07-05T08:50:04Z</time>
      </trkpt>
      <trkpt lat="42.545856" lon="-0.89898676">
        <time>2022-07-05T08:50:07Z</time>
      </trkpt>
      <trkpt lat="42.545895" lon="-0.8989244">
        <time>2022-07-05T08:50:10Z</time>
      </trkpt>
      <trkpt lat="42.545937" lon="-0.89885706">
        <time>2022-07-05T08:50:13Z</time>
      </trkpt>
      <trkpt lat="42.545975" lon="-0.8987934">
        <time>2022-07-05T08:50:16Z</time>
      </trkpt>
      <trkpt lat="42.546013" lon="-0.8987331">
        <time>2022-07-05T08:50:19Z</time>
      </trkpt>
      <trkpt lat="42.546055" lon="-0.89867043">
        <time>2022-07-05T08:50:22Z</time>
      </trkpt>
      <trkpt lat="42.546097" lon="-0.8986101">
        <time>2022-07-05T08:50:25Z</time>
      </trkpt>
      <trkpt lat="42.546143" lon="-0.89852643">
        <time>2022-07-05T08:50:29Z</time>
      </trkpt>
      <trkpt lat="42.546177" lon="-0.8984624">
        <time>2022-07-05T08:50:32Z</time>
      </trkpt>
      <trkpt lat="42.54621" lon="-0.8983998">
        <time>2022-07-05T08:50:35Z</time>
      </trkpt>
      <trkpt lat="42.54625" lon="-0.89833176">
        <time>2022-07-05T08:50:38Z</time>
      </trkpt>
      <trkpt lat="42.546288" lon="-0.89826375">
        <time>2022-07-05T08:50:41Z</time>
      </trkpt>
      <trkpt lat="42.546314" lon="-0.8981934">
        <time>2022-07-05T08:50:44Z</time>
      </trkpt>
      <trkpt lat="42.546337" lon="-0.89812046">
        <time>2022-07-05T08:50:47Z</time>
      </trkpt>
      <trkpt lat="42.54636" lon="-0.8980481">
        <time>2022-07-05T08:50:50Z</time>
      </trkpt>
      <trkpt lat="42.546383" lon="-0.8979731">
        <time>2022-07-05T08:50:53Z</time>
      </trkpt>
      <trkpt lat="42.54641" lon="-0.8978978">
        <time>2022-07-05T08:50:56Z</time>
      </trkpt>
      <trkpt lat="42.546436" lon="-0.89782345">
        <time>2022-07-05T08:50:59Z</time>
      </trkpt>
      <trkpt lat="42.546463" lon="-0.89774877">
        <time>2022-07-05T08:51:02Z</time>
      </trkpt>
      <trkpt lat="42.546486" lon="-0.8976738">
        <time>2022-07-05T08:51:05Z</time>
      </trkpt>
      <trkpt lat="42.546513" lon="-0.89760476">
        <time>2022-07-05T08:51:08Z</time>
      </trkpt>
      <trkpt lat="42.54654" lon="-0.89754313">
        <time>2022-07-05T08:51:11Z</time>
      </trkpt>
      <trkpt lat="42.54657" lon="-0.8974788">
        <time>2022-07-05T08:51:14Z</time>
      </trkpt>
      <trkpt lat="42.546597" lon="-0.8974165">
        <time>2022-07-05T08:51:17Z</time>
      </trkpt>
      <trkpt lat="42.546623" lon="-0.8973468">
        <time>2022-07-05T08:51:20Z</time>
      </trkpt>
      <trkpt lat="42.546654" lon="-0.8972885">
        <time>2022-07-05T08:51:23Z</time>
      </trkpt>
      <trkpt lat="42.54669" lon="-0.8972098">
        <time>2022-07-05T08:51:27Z</time>
      </trkpt>
      <trkpt lat="42.546722" lon="-0.89714414">
        <time>2022-07-05T08:51:30Z</time>
      </trkpt>
      <trkpt lat="42.54675" lon="-0.89707017">
        <time>2022-07-05T08:51:33Z</time>
      </trkpt>
      <trkpt lat="42.54678" lon="-0.8969952">
        <time>2022-07-05T08:51:36Z</time>
      </trkpt>
      <trkpt lat="42.546806" lon="-0.89693016">
        <time>2022-07-05T08:51:39Z</time>
      </trkpt>
      <trkpt lat="42.54683" lon="-0.8968655">
        <time>2022-07-05T08:51:42Z</time>
      </trkpt>
      <trkpt lat="42.54685" lon="-0.89679515">
        <time>2022-07-05T08:51:45Z</time>
      </trkpt>
      <trkpt lat="42.546867" lon="-0.8967235">
        <time>2022-07-05T08:51:48Z</time>
      </trkpt>
      <trkpt lat="42.546883" lon="-0.89665186">
        <time>2022-07-05T08:51:51Z</time>
      </trkpt>
      <trkpt lat="42.54689" lon="-0.89658517">
        <time>2022-07-05T08:51:54Z</time>
      </trkpt>
      <trkpt lat="42.546906" lon="-0.8964972">
        <time>2022-07-05T08:51:58Z</time>
      </trkpt>
      <trkpt lat="42.54691" lon="-0.89642984">
        <time>2022-07-05T08:52:01Z</time>
      </trkpt>
      <trkpt lat="42.546906" lon="-0.8963569">
        <time>2022-07-05T08:52:04Z</time>
      </trkpt>
      <trkpt lat="42.5469" lon="-0.89628583">
        <time>2022-07-05T08:52:07Z</time>
      </trkpt>
      <trkpt lat="42.5469" lon="-0.89619786">
        <time>2022-07-05T08:52:11Z</time>
      </trkpt>
      <trkpt lat="42.5469" lon="-0.8961049">
        <time>2022-07-05T08:52:15Z</time>
      </trkpt>
      <trkpt lat="42.546898" lon="-0.89603555">
        <time>2022-07-05T08:52:18Z</time>
      </trkpt>
      <trkpt lat="42.546898" lon="-0.8959682">
        <time>2022-07-05T08:52:21Z</time>
      </trkpt>
      <trkpt lat="42.5469" lon="-0.8958792">
        <time>2022-07-05T08:52:25Z</time>
      </trkpt>
      <trkpt lat="42.5469" lon="-0.89580756">
        <time>2022-07-05T08:52:28Z</time>
      </trkpt>
      <trkpt lat="42.546906" lon="-0.8957379">
        <time>2022-07-05T08:52:31Z</time>
      </trkpt>
      <trkpt lat="42.546906" lon="-0.89565223">
        <time>2022-07-05T08:52:35Z</time>
      </trkpt>
      <trkpt lat="42.546906" lon="-0.8955629">
        <time>2022-07-05T08:52:39Z</time>
      </trkpt>
      <trkpt lat="42.54691" lon="-0.8954816">
        <time>2022-07-05T08:52:42Z</time>
      </trkpt>
      <trkpt lat="42.546913" lon="-0.89539325">
        <time>2022-07-05T08:52:45Z</time>
      </trkpt>
      <trkpt lat="42.546917" lon="-0.8953219">
        <time>2022-07-05T08:52:47Z</time>
      </trkpt>
      <trkpt lat="42.54693" lon="-0.89523226">
        <time>2022-07-05T08:52:49Z</time>
      </trkpt>
      <trkpt lat="42.546944" lon="-0.8951326">
        <time>2022-07-05T08:52:51Z</time>
      </trkpt>
      <trkpt lat="42.546947" lon="-0.8950209">
        <time>2022-07-05T08:52:53Z</time>
      </trkpt>
      <trkpt lat="42.546936" lon="-0.8948919">
        <time>2022-07-05T08:52:55Z</time>
      </trkpt>
      <trkpt lat="42.546906" lon="-0.8947559">
        <time>2022-07-05T08:52:57Z</time>
      </trkpt>
      <trkpt lat="42.546875" lon="-0.8946889">
        <time>2022-07-05T08:52:58Z</time>
      </trkpt>
      <trkpt lat="42.54684" lon="-0.89462227">
        <time>2022-07-05T08:52:59Z</time>
      </trkpt>
      <trkpt lat="42.546803" lon="-0.8945559">
        <time>2022-07-05T08:53:00Z</time>
      </trkpt>
      <trkpt lat="42.546753" lon="-0.8944856">
        <time>2022-07-05T08:53:01Z</time>
      </trkpt>
      <trkpt lat="42.546703" lon="-0.89441496">
        <time>2022-07-05T08:53:02Z</time>
      </trkpt>
      <trkpt lat="42.546654" lon="-0.8943413">
        <time>2022-07-05T08:53:03Z</time>
      </trkpt>
      <trkpt lat="42.546604" lon="-0.89426327">
        <time>2022-07-05T08:53:04Z</time>
      </trkpt>
      <trkpt lat="42.54656" lon="-0.8941856">
        <time>2022-07-05T08:53:05Z</time>
      </trkpt>
      <trkpt lat="42.54652" lon="-0.89409864">
        <time>2022-07-05T08:53:06Z</time>
      </trkpt>
      <trkpt lat="42.546482" lon="-0.8940056">
        <time>2022-07-05T08:53:07Z</time>
      </trkpt>
      <trkpt lat="42.546444" lon="-0.8939086">
        <time>2022-07-05T08:53:08Z</time>
      </trkpt>
      <trkpt lat="42.546406" lon="-0.8938103">
        <time>2022-07-05T08:53:09Z</time>
      </trkpt>
      <trkpt lat="42.546364" lon="-0.89370596">
        <time>2022-07-05T08:53:10Z</time>
      </trkpt>
      <trkpt lat="42.54632" lon="-0.8936033">
        <time>2022-07-05T08:53:11Z</time>
      </trkpt>
      <trkpt lat="42.546276" lon="-0.89350295">
        <time>2022-07-05T08:53:12Z</time>
      </trkpt>
      <trkpt lat="42.546227" lon="-0.8934043">
        <time>2022-07-05T08:53:13Z</time>
      </trkpt>
      <trkpt lat="42.546173" lon="-0.8933083">
        <time>2022-07-05T08:53:14Z</time>
      </trkpt>
      <trkpt lat="42.546116" lon="-0.89321595">
        <time>2022-07-05T08:53:15Z</time>
      </trkpt>
      <trkpt lat="42.54606" lon="-0.89313364">
        <time>2022-07-05T08:53:16Z</time>
      </trkpt>
      <trkpt lat="42.54599" lon="-0.89304966">
        <time>2022-07-05T08:53:17Z</time>
      </trkpt>
      <trkpt lat="42.545918" lon="-0.89296997">
        <time>2022-07-05T08:53:18Z</time>
      </trkpt>
      <trkpt lat="42.54584" lon="-0.892893">
        <time>2022-07-05T08:53:19Z</time>
      </trkpt>
      <trkpt lat="42.54576" lon="-0.89281696">
        <time>2022-07-05T08:53:20Z</time>
      </trkpt>
      <trkpt lat="42.54569" lon="-0.8927467">
        <time>2022-07-05T08:53:21Z</time>
      </trkpt>
      <trkpt lat="42.54561" lon="-0.8926733">
        <time>2022-07-05T08:53:22Z</time>
      </trkpt>
      <trkpt lat="42.54553" lon="-0.89258933">
        <time>2022-07-05T08:53:23Z</time>
      </trkpt>
      <trkpt lat="42.54545" lon="-0.892501">
        <time>2022-07-05T08:53:24Z</time>
      </trkpt>
      <trkpt lat="42.54538" lon="-0.892415">
        <time>2022-07-05T08:53:25Z</time>
      </trkpt>
      <trkpt lat="42.545315" lon="-0.892321">
        <time>2022-07-05T08:53:26Z</time>
      </trkpt>
      <trkpt lat="42.545258" lon="-0.892219">
        <time>2022-07-05T08:53:27Z</time>
      </trkpt>
      <trkpt lat="42.545208" lon="-0.89209867">
        <time>2022-07-05T08:53:28Z</time>
      </trkpt>
      <trkpt lat="42.54517" lon="-0.891973">
        <time>2022-07-05T08:53:29Z</time>
      </trkpt>
      <trkpt lat="42.545135" lon="-0.89184237">
        <time>2022-07-05T08:53:30Z</time>
      </trkpt>
      <trkpt lat="42.545113" lon="-0.8917177">
        <time>2022-07-05T08:53:31Z</time>
      </trkpt>
      <trkpt lat="42.545097" lon="-0.89158803">
        <time>2022-07-05T08:53:32Z</time>
      </trkpt>
      <trkpt lat="42.545086" lon="-0.8914444">
        <time>2022-07-05T08:53:33Z</time>
      </trkpt>
      <trkpt lat="42.545063" lon="-0.89116037">
        <time>2022-07-05T08:53:35Z</time>
      </trkpt>
      <trkpt lat="42.545055" lon="-0.8910287">
        <time>2022-07-05T08:53:36Z</time>
      </trkpt>
      <trkpt lat="42.545048" lon="-0.8908957">
        <time>2022-07-05T08:53:37Z</time>
      </trkpt>
      <trkpt lat="42.54504" lon="-0.89075404">
        <time>2022-07-05T08:53:38Z</time>
      </trkpt>
      <trkpt lat="42.545033" lon="-0.8906157">
        <time>2022-07-05T08:53:39Z</time>
      </trkpt>
      <trkpt lat="42.54503" lon="-0.89048105">
        <time>2022-07-05T08:53:40Z</time>
      </trkpt>
      <trkpt lat="42.54502" lon="-0.89035773">
        <time>2022-07-05T08:53:41Z</time>
      </trkpt>
      <trkpt lat="42.545017" lon="-0.89023405">
        <time>2022-07-05T08:53:42Z</time>
      </trkpt>
      <trkpt lat="42.54501" lon="-0.89011043">
        <time>2022-07-05T08:53:43Z</time>
      </trkpt>
      <trkpt lat="42.545002" lon="-0.88997906">
        <time>2022-07-05T08:53:44Z</time>
      </trkpt>
      <trkpt lat="42.544994" lon="-0.88985044">
        <time>2022-07-05T08:53:45Z</time>
      </trkpt>
      <trkpt lat="42.544987" lon="-0.8897241">
        <time>2022-07-05T08:53:46Z</time>
      </trkpt>
      <trkpt lat="42.544983" lon="-0.88960874">
        <time>2022-07-05T08:53:47Z</time>
      </trkpt>
      <trkpt lat="42.54498" lon="-0.8894858">
        <time>2022-07-05T08:53:48Z</time>
      </trkpt>
      <trkpt lat="42.54497" lon="-0.88936573">
        <time>2022-07-05T08:53:49Z</time>
      </trkpt>
      <trkpt lat="42.544968" lon="-0.8892491">
        <time>2022-07-05T08:53:50Z</time>
      </trkpt>
      <trkpt lat="42.544964" lon="-0.8891354">
        <time>2022-07-05T08:53:51Z</time>
      </trkpt>
      <trkpt lat="42.54496" lon="-0.8890211">
        <time>2022-07-05T08:53:52Z</time>
      </trkpt>
      <trkpt lat="42.544952" lon="-0.8889128">
        <time>2022-07-05T08:53:53Z</time>
      </trkpt>
      <trkpt lat="42.54495" lon="-0.8888031">
        <time>2022-07-05T08:53:54Z</time>
      </trkpt>
      <trkpt lat="42.544945" lon="-0.88868743">
        <time>2022-07-05T08:53:55Z</time>
      </trkpt>
      <trkpt lat="42.544945" lon="-0.88857645">
        <time>2022-07-05T08:53:56Z</time>
      </trkpt>
      <trkpt lat="42.54494" lon="-0.8884755">
        <time>2022-07-05T08:53:57Z</time>
      </trkpt>
      <trkpt lat="42.544937" lon="-0.8883738">
        <time>2022-07-05T08:53:58Z</time>
      </trkpt>
      <trkpt lat="42.544933" lon="-0.8882705">
        <time>2022-07-05T08:53:59Z</time>
      </trkpt>
      <trkpt lat="42.544933" lon="-0.8881588">
        <time>2022-07-05T08:54:00Z</time>
      </trkpt>
      <trkpt lat="42.544933" lon="-0.8880478">
        <time>2022-07-05T08:54:01Z</time>
      </trkpt>
      <trkpt lat="42.544933" lon="-0.8879371">
        <time>2022-07-05T08:54:02Z</time>
      </trkpt>
      <trkpt lat="42.544933" lon="-0.8878278">
        <time>2022-07-05T08:54:03Z</time>
      </trkpt>
      <trkpt lat="42.544933" lon="-0.88772684">
        <time>2022-07-05T08:54:04Z</time>
      </trkpt>
      <trkpt lat="42.544933" lon="-0.8876225">
        <time>2022-07-05T08:54:05Z</time>
      </trkpt>
      <trkpt lat="42.544933" lon="-0.8875088">
        <time>2022-07-05T08:54:06Z</time>
      </trkpt>
      <trkpt lat="42.544937" lon="-0.88739616">
        <time>2022-07-05T08:54:07Z</time>
      </trkpt>
      <trkpt lat="42.544937" lon="-0.88729215">
        <time>2022-07-05T08:54:08Z</time>
      </trkpt>
      <trkpt lat="42.544937" lon="-0.88718486">
        <time>2022-07-05T08:54:09Z</time>
      </trkpt>
      <trkpt lat="42.544937" lon="-0.88707584">
        <time>2022-07-05T08:54:10Z</time>
      </trkpt>
      <trkpt lat="42.544937" lon="-0.8869565">
        <time>2022-07-05T08:54:11Z</time>
      </trkpt>
      <trkpt lat="42.544933" lon="-0.8868412">
        <time>2022-07-05T08:54:12Z</time>
      </trkpt>
      <trkpt lat="42.544933" lon="-0.88673216">
        <time>2022-07-05T08:54:13Z</time>
      </trkpt>
      <trkpt lat="42.544933" lon="-0.88662183">
        <time>2022-07-05T08:54:14Z</time>
      </trkpt>
      <trkpt lat="42.544933" lon="-0.88651085">
        <time>2022-07-05T08:54:15Z</time>
      </trkpt>
      <trkpt lat="42.54493" lon="-0.8863965">
        <time>2022-07-05T08:54:16Z</time>
      </trkpt>
      <trkpt lat="42.544926" lon="-0.8862732">
        <time>2022-07-05T08:54:17Z</time>
      </trkpt>
      <trkpt lat="42.544926" lon="-0.88615316">
        <time>2022-07-05T08:54:18Z</time>
      </trkpt>
      <trkpt lat="42.54492" lon="-0.8860362">
        <time>2022-07-05T08:54:19Z</time>
      </trkpt>
      <trkpt lat="42.544918" lon="-0.8859295">
        <time>2022-07-05T08:54:20Z</time>
      </trkpt>
      <trkpt lat="42.544918" lon="-0.88582253">
        <time>2022-07-05T08:54:21Z</time>
      </trkpt>
      <trkpt lat="42.544914" lon="-0.88571656">
        <time>2022-07-05T08:54:22Z</time>
      </trkpt>
      <trkpt lat="42.544914" lon="-0.8856112">
        <time>2022-07-05T08:54:23Z</time>
      </trkpt>
      <trkpt lat="42.54491" lon="-0.8855065">
        <time>2022-07-05T08:54:24Z</time>
      </trkpt>
      <trkpt lat="42.54491" lon="-0.8854022">
        <time>2022-07-05T08:54:25Z</time>
      </trkpt>
      <trkpt lat="42.544907" lon="-0.8852979">
        <time>2022-07-05T08:54:26Z</time>
      </trkpt>
      <trkpt lat="42.544907" lon="-0.8851939">
        <time>2022-07-05T08:54:27Z</time>
      </trkpt>
      <trkpt lat="42.544903" lon="-0.88508385">
        <time>2022-07-05T08:54:28Z</time>
      </trkpt>
      <trkpt lat="42.5449" lon="-0.88498324">
        <time>2022-07-05T08:54:29Z</time>
      </trkpt>
      <trkpt lat="42.5449" lon="-0.8848759">
        <time>2022-07-05T08:54:30Z</time>
      </trkpt>
      <trkpt lat="42.544895" lon="-0.8847706">
        <time>2022-07-05T08:54:31Z</time>
      </trkpt>
      <trkpt lat="42.544895" lon="-0.88466555">
        <time>2022-07-05T08:54:32Z</time>
      </trkpt>
      <trkpt lat="42.544895" lon="-0.8845606">
        <time>2022-07-05T08:54:33Z</time>
      </trkpt>
      <trkpt lat="42.544895" lon="-0.8844562">
        <time>2022-07-05T08:54:34Z</time>
      </trkpt>
      <trkpt lat="42.544895" lon="-0.88435155">
        <time>2022-07-05T08:54:35Z</time>
      </trkpt>
      <trkpt lat="42.54489" lon="-0.8842469">
        <time>2022-07-05T08:54:36Z</time>
      </trkpt>
      <trkpt lat="42.544876" lon="-0.8840419">
        <time>2022-07-05T08:54:38Z</time>
      </trkpt>
      <trkpt lat="42.544865" lon="-0.8839359">
        <time>2022-07-05T08:54:39Z</time>
      </trkpt>
      <trkpt lat="42.54485" lon="-0.8838309">
        <time>2022-07-05T08:54:40Z</time>
      </trkpt>
      <trkpt lat="42.54483" lon="-0.8837339">
        <time>2022-07-05T08:54:41Z</time>
      </trkpt>
      <trkpt lat="42.544815" lon="-0.88362694">
        <time>2022-07-05T08:54:42Z</time>
      </trkpt>
      <trkpt lat="42.5448" lon="-0.88352025">
        <time>2022-07-05T08:54:43Z</time>
      </trkpt>
      <trkpt lat="42.54478" lon="-0.88341326">
        <time>2022-07-05T08:54:44Z</time>
      </trkpt>
      <trkpt lat="42.54476" lon="-0.88331324">
        <time>2022-07-05T08:54:45Z</time>
      </trkpt>
      <trkpt lat="42.544743" lon="-0.88321024">
        <time>2022-07-05T08:54:46Z</time>
      </trkpt>
      <trkpt lat="42.544724" lon="-0.88309824">
        <time>2022-07-05T08:54:47Z</time>
      </trkpt>
      <trkpt lat="42.5447" lon="-0.8829876">
        <time>2022-07-05T08:54:48Z</time>
      </trkpt>
      <trkpt lat="42.544678" lon="-0.8828776">
        <time>2022-07-05T08:54:49Z</time>
      </trkpt>
      <trkpt lat="42.54466" lon="-0.8827679">
        <time>2022-07-05T08:54:50Z</time>
      </trkpt>
      <trkpt lat="42.544636" lon="-0.88266593">
        <time>2022-07-05T08:54:51Z</time>
      </trkpt>
      <trkpt lat="42.544617" lon="-0.8825619">
        <time>2022-07-05T08:54:52Z</time>
      </trkpt>
      <trkpt lat="42.544594" lon="-0.88244826">
        <time>2022-07-05T08:54:53Z</time>
      </trkpt>
      <trkpt lat="42.544575" lon="-0.8823366">
        <time>2022-07-05T08:54:54Z</time>
      </trkpt>
      <trkpt lat="42.54455" lon="-0.88222563">
        <time>2022-07-05T08:54:55Z</time>
      </trkpt>
      <trkpt lat="42.54453" lon="-0.8821223">
        <time>2022-07-05T08:54:56Z</time>
      </trkpt>
      <trkpt lat="42.544506" lon="-0.88201827">
        <time>2022-07-05T08:54:57Z</time>
      </trkpt>
      <trkpt lat="42.54448" lon="-0.88190925">
        <time>2022-07-05T08:54:58Z</time>
      </trkpt>
      <trkpt lat="42.54445" lon="-0.881803">
        <time>2022-07-05T08:54:59Z</time>
      </trkpt>
      <trkpt lat="42.54442" lon="-0.8816996">
        <time>2022-07-05T08:55:00Z</time>
      </trkpt>
      <trkpt lat="42.544384" lon="-0.881597">
        <time>2022-07-05T08:55:01Z</time>
      </trkpt>
      <trkpt lat="42.544353" lon="-0.8815026">
        <time>2022-07-05T08:55:02Z</time>
      </trkpt>
      <trkpt lat="42.54432" lon="-0.881399">
        <time>2022-07-05T08:55:03Z</time>
      </trkpt>
      <trkpt lat="42.544285" lon="-0.8812973">
        <time>2022-07-05T08:55:04Z</time>
      </trkpt>
      <trkpt lat="42.544247" lon="-0.8811963">
        <time>2022-07-05T08:55:05Z</time>
      </trkpt>
      <trkpt lat="42.544216" lon="-0.88110197">
        <time>2022-07-05T08:55:06Z</time>
      </trkpt>
      <trkpt lat="42.544178" lon="-0.88100535">
        <time>2022-07-05T08:55:07Z</time>
      </trkpt>
      <trkpt lat="42.54414" lon="-0.8809003">
        <time>2022-07-05T08:55:08Z</time>
      </trkpt>
      <trkpt lat="42.544098" lon="-0.8807977">
        <time>2022-07-05T08:55:09Z</time>
      </trkpt>
      <trkpt lat="42.544052" lon="-0.8807037">
        <time>2022-07-05T08:55:10Z</time>
      </trkpt>
      <trkpt lat="42.544006" lon="-0.8806113">
        <time>2022-07-05T08:55:11Z</time>
      </trkpt>
      <trkpt lat="42.54395" lon="-0.880517">
        <time>2022-07-05T08:55:12Z</time>
      </trkpt>
      <trkpt lat="42.54389" lon="-0.880433">
        <time>2022-07-05T08:55:13Z</time>
      </trkpt>
      <trkpt lat="42.543827" lon="-0.8803483">
        <time>2022-07-05T08:55:14Z</time>
      </trkpt>
      <trkpt lat="42.543762" lon="-0.88027">
        <time>2022-07-05T08:55:15Z</time>
      </trkpt>
      <trkpt lat="42.543697" lon="-0.88019633">
        <time>2022-07-05T08:55:16Z</time>
      </trkpt>
      <trkpt lat="42.543636" lon="-0.880131">
        <time>2022-07-05T08:55:17Z</time>
      </trkpt>
      <trkpt lat="42.54357" lon="-0.88006634">
        <time>2022-07-05T08:55:18Z</time>
      </trkpt>
      <trkpt lat="42.543507" lon="-0.8799974">
        <time>2022-07-05T08:55:19Z</time>
      </trkpt>
      <trkpt lat="42.54344" lon="-0.8799277">
        <time>2022-07-05T08:55:20Z</time>
      </trkpt>
      <trkpt lat="42.543385" lon="-0.87985605">
        <time>2022-07-05T08:55:21Z</time>
      </trkpt>
      <trkpt lat="42.543335" lon="-0.87978137">
        <time>2022-07-05T08:55:22Z</time>
      </trkpt>
      <trkpt lat="42.54329" lon="-0.87970906">
        <time>2022-07-05T08:55:23Z</time>
      </trkpt>
      <trkpt lat="42.543243" lon="-0.87962604">
        <time>2022-07-05T08:55:24Z</time>
      </trkpt>
      <trkpt lat="42.5432" lon="-0.87954074">
        <time>2022-07-05T08:55:25Z</time>
      </trkpt>
      <trkpt lat="42.543163" lon="-0.8794537">
        <time>2022-07-05T08:55:26Z</time>
      </trkpt>
      <trkpt lat="42.54313" lon="-0.8793717">
        <time>2022-07-05T08:55:27Z</time>
      </trkpt>
      <trkpt lat="42.543095" lon="-0.87928075">
        <time>2022-07-05T08:55:28Z</time>
      </trkpt>
      <trkpt lat="42.543064" lon="-0.8791894">
        <time>2022-07-05T08:55:29Z</time>
      </trkpt>
      <trkpt lat="42.54303" lon="-0.8790974">
        <time>2022-07-05T08:55:30Z</time>
      </trkpt>
      <trkpt lat="42.543" lon="-0.8790044">
        <time>2022-07-05T08:55:31Z</time>
      </trkpt>
      <trkpt lat="42.54297" lon="-0.8789164">
        <time>2022-07-05T08:55:32Z</time>
      </trkpt>
      <trkpt lat="42.542934" lon="-0.8788211">
        <time>2022-07-05T08:55:33Z</time>
      </trkpt>
      <trkpt lat="42.542904" lon="-0.8787324">
        <time>2022-07-05T08:55:34Z</time>
      </trkpt>
      <trkpt lat="42.542873" lon="-0.87864274">
        <time>2022-07-05T08:55:35Z</time>
      </trkpt>
      <trkpt lat="42.542843" lon="-0.87855244">
        <time>2022-07-05T08:55:36Z</time>
      </trkpt>
      <trkpt lat="42.542812" lon="-0.8784604">
        <time>2022-07-05T08:55:37Z</time>
      </trkpt>
      <trkpt lat="42.542755" lon="-0.8782734">
        <time>2022-07-05T08:55:39Z</time>
      </trkpt>
      <trkpt lat="42.542732" lon="-0.8781791">
        <time>2022-07-05T08:55:40Z</time>
      </trkpt>
      <trkpt lat="42.542706" lon="-0.8780834">
        <time>2022-07-05T08:55:41Z</time>
      </trkpt>
      <trkpt lat="42.542686" lon="-0.8779858">
        <time>2022-07-05T08:55:42Z</time>
      </trkpt>
      <trkpt lat="42.542667" lon="-0.8778861">
        <time>2022-07-05T08:55:43Z</time>
      </trkpt>
      <trkpt lat="42.54265" lon="-0.87778544">
        <time>2022-07-05T08:55:44Z</time>
      </trkpt>
      <trkpt lat="42.542633" lon="-0.87768376">
        <time>2022-07-05T08:55:45Z</time>
      </trkpt>
      <trkpt lat="42.542614" lon="-0.87757576">
        <time>2022-07-05T08:55:46Z</time>
      </trkpt>
      <trkpt lat="42.5426" lon="-0.8774698">
        <time>2022-07-05T08:55:47Z</time>
      </trkpt>
      <trkpt lat="42.542583" lon="-0.87737143">
        <time>2022-07-05T08:55:48Z</time>
      </trkpt>
      <trkpt lat="42.542572" lon="-0.8772741">
        <time>2022-07-05T08:55:49Z</time>
      </trkpt>
      <trkpt lat="42.542557" lon="-0.8771761">
        <time>2022-07-05T08:55:50Z</time>
      </trkpt>
      <trkpt lat="42.542545" lon="-0.87707746">
        <time>2022-07-05T08:55:51Z</time>
      </trkpt>
      <trkpt lat="42.542534" lon="-0.8769798">
        <time>2022-07-05T08:55:52Z</time>
      </trkpt>
      <trkpt lat="42.542522" lon="-0.8768815">
        <time>2022-07-05T08:55:53Z</time>
      </trkpt>
      <trkpt lat="42.542507" lon="-0.87678516">
        <time>2022-07-05T08:55:54Z</time>
      </trkpt>
      <trkpt lat="42.542496" lon="-0.8766831">
        <time>2022-07-05T08:55:55Z</time>
      </trkpt>
      <trkpt lat="42.54248" lon="-0.8765905">
        <time>2022-07-05T08:55:56Z</time>
      </trkpt>
      <trkpt lat="42.54247" lon="-0.8764992">
        <time>2022-07-05T08:55:57Z</time>
      </trkpt>
      <trkpt lat="42.542454" lon="-0.8764085">
        <time>2022-07-05T08:55:58Z</time>
      </trkpt>
      <trkpt lat="42.542442" lon="-0.8763202">
        <time>2022-07-05T08:55:59Z</time>
      </trkpt>
      <trkpt lat="42.54243" lon="-0.8762338">
        <time>2022-07-05T08:56:00Z</time>
      </trkpt>
      <trkpt lat="42.54242" lon="-0.87614983">
        <time>2022-07-05T08:56:01Z</time>
      </trkpt>
      <trkpt lat="42.542408" lon="-0.87606716">
        <time>2022-07-05T08:56:02Z</time>
      </trkpt>
      <trkpt lat="42.5424" lon="-0.87598586">
        <time>2022-07-05T08:56:03Z</time>
      </trkpt>
      <trkpt lat="42.54239" lon="-0.8759058">
        <time>2022-07-05T08:56:04Z</time>
      </trkpt>
      <trkpt lat="42.542377" lon="-0.8758272">
        <time>2022-07-05T08:56:05Z</time>
      </trkpt>
      <trkpt lat="42.54237" lon="-0.8757502">
        <time>2022-07-05T08:56:06Z</time>
      </trkpt>
      <trkpt lat="42.54236" lon="-0.8756742">
        <time>2022-07-05T08:56:07Z</time>
      </trkpt>
      <trkpt lat="42.542347" lon="-0.8756009">
        <time>2022-07-05T08:56:08Z</time>
      </trkpt>
      <trkpt lat="42.54234" lon="-0.87553054">
        <time>2022-07-05T08:56:09Z</time>
      </trkpt>
      <trkpt lat="42.542328" lon="-0.8754615">
        <time>2022-07-05T08:56:10Z</time>
      </trkpt>
      <trkpt lat="42.54231" lon="-0.8753279">
        <time>2022-07-05T08:56:12Z</time>
      </trkpt>
      <trkpt lat="42.5423" lon="-0.87526286">
        <time>2022-07-05T08:56:13Z</time>
      </trkpt>
      <trkpt lat="42.54228" lon="-0.87513155">
        <time>2022-07-05T08:56:15Z</time>
      </trkpt>
      <trkpt lat="42.542255" lon="-0.8749922">
        <time>2022-07-05T08:56:17Z</time>
      </trkpt>
      <trkpt lat="42.542244" lon="-0.8749229">
        <time>2022-07-05T08:56:18Z</time>
      </trkpt>
      <trkpt lat="42.54223" lon="-0.8748505">
        <time>2022-07-05T08:56:19Z</time>
      </trkpt>
      <trkpt lat="42.542213" lon="-0.8747745">
        <time>2022-07-05T08:56:20Z</time>
      </trkpt>
      <trkpt lat="42.542194" lon="-0.8746912">
        <time>2022-07-05T08:56:21Z</time>
      </trkpt>
      <trkpt lat="42.54217" lon="-0.8746082">
        <time>2022-07-05T08:56:22Z</time>
      </trkpt>
      <trkpt lat="42.54215" lon="-0.8745249">
        <time>2022-07-05T08:56:23Z</time>
      </trkpt>
      <trkpt lat="42.54212" lon="-0.8744475">
        <time>2022-07-05T08:56:24Z</time>
      </trkpt>
      <trkpt lat="42.54209" lon="-0.8743692">
        <time>2022-07-05T08:56:25Z</time>
      </trkpt>
      <trkpt lat="42.54206" lon="-0.8742906">
        <time>2022-07-05T08:56:26Z</time>
      </trkpt>
      <trkpt lat="42.542027" lon="-0.8742119">
        <time>2022-07-05T08:56:27Z</time>
      </trkpt>
      <trkpt lat="42.54199" lon="-0.8741332">
        <time>2022-07-05T08:56:28Z</time>
      </trkpt>
      <trkpt lat="42.54195" lon="-0.8740559">
        <time>2022-07-05T08:56:29Z</time>
      </trkpt>
      <trkpt lat="42.54191" lon="-0.8739789">
        <time>2022-07-05T08:56:30Z</time>
      </trkpt>
      <trkpt lat="42.541866" lon="-0.87390226">
        <time>2022-07-05T08:56:31Z</time>
      </trkpt>
      <trkpt lat="42.54183" lon="-0.87382656">
        <time>2022-07-05T08:56:32Z</time>
      </trkpt>
      <trkpt lat="42.54179" lon="-0.8737509">
        <time>2022-07-05T08:56:33Z</time>
      </trkpt>
      <trkpt lat="42.54175" lon="-0.8736749">
        <time>2022-07-05T08:56:34Z</time>
      </trkpt>
      <trkpt lat="42.541714" lon="-0.8735993">
        <time>2022-07-05T08:56:35Z</time>
      </trkpt>
      <trkpt lat="42.541676" lon="-0.87352496">
        <time>2022-07-05T08:56:36Z</time>
      </trkpt>
      <trkpt lat="42.54164" lon="-0.8734503">
        <time>2022-07-05T08:56:37Z</time>
      </trkpt>
      <trkpt lat="42.541607" lon="-0.8733766">
        <time>2022-07-05T08:56:38Z</time>
      </trkpt>
      <trkpt lat="42.541576" lon="-0.87330264">
        <time>2022-07-05T08:56:39Z</time>
      </trkpt>
      <trkpt lat="42.541546" lon="-0.8732273">
        <time>2022-07-05T08:56:40Z</time>
      </trkpt>
      <trkpt lat="42.541496" lon="-0.8730753">
        <time>2022-07-05T08:56:42Z</time>
      </trkpt>
      <trkpt lat="42.541473" lon="-0.87299764">
        <time>2022-07-05T08:56:43Z</time>
      </trkpt>
      <trkpt lat="42.541454" lon="-0.8729183">
        <time>2022-07-05T08:56:44Z</time>
      </trkpt>
      <trkpt lat="42.541435" lon="-0.872839">
        <time>2022-07-05T08:56:45Z</time>
      </trkpt>
      <trkpt lat="42.54142" lon="-0.872758">
        <time>2022-07-05T08:56:46Z</time>
      </trkpt>
      <trkpt lat="42.5414" lon="-0.87267166">
        <time>2022-07-05T08:56:47Z</time>
      </trkpt>
      <trkpt lat="42.54138" lon="-0.8725926">
        <time>2022-07-05T08:56:48Z</time>
      </trkpt>
      <trkpt lat="42.541367" lon="-0.8725133">
        <time>2022-07-05T08:56:49Z</time>
      </trkpt>
      <trkpt lat="42.541348" lon="-0.872435">
        <time>2022-07-05T08:56:50Z</time>
      </trkpt>
      <trkpt lat="42.54133" lon="-0.87235165">
        <time>2022-07-05T08:56:51Z</time>
      </trkpt>
      <trkpt lat="42.54131" lon="-0.8722763">
        <time>2022-07-05T08:56:52Z</time>
      </trkpt>
      <trkpt lat="42.541294" lon="-0.8721963">
        <time>2022-07-05T08:56:53Z</time>
      </trkpt>
      <trkpt lat="42.541275" lon="-0.8721193">
        <time>2022-07-05T08:56:54Z</time>
      </trkpt>
      <trkpt lat="42.541256" lon="-0.87204367">
        <time>2022-07-05T08:56:55Z</time>
      </trkpt>
      <trkpt lat="42.54124" lon="-0.87197435">
        <time>2022-07-05T08:56:56Z</time>
      </trkpt>
      <trkpt lat="42.541225" lon="-0.8719057">
        <time>2022-07-05T08:56:57Z</time>
      </trkpt>
      <trkpt lat="42.541206" lon="-0.87183666">
        <time>2022-07-05T08:56:58Z</time>
      </trkpt>
      <trkpt lat="42.541187" lon="-0.8717703">
        <time>2022-07-05T08:56:59Z</time>
      </trkpt>
      <trkpt lat="42.541164" lon="-0.871706">
        <time>2022-07-05T08:57:00Z</time>
      </trkpt>
      <trkpt lat="42.541138" lon="-0.8716444">
        <time>2022-07-05T08:57:01Z</time>
      </trkpt>
      <trkpt lat="42.541107" lon="-0.87158066">
        <time>2022-07-05T08:57:02Z</time>
      </trkpt>
      <trkpt lat="42.541073" lon="-0.87152135">
        <time>2022-07-05T08:57:03Z</time>
      </trkpt>
      <trkpt lat="42.54104" lon="-0.8714654">
        <time>2022-07-05T08:57:04Z</time>
      </trkpt>
      <trkpt lat="42.541004" lon="-0.87141633">
        <time>2022-07-05T08:57:05Z</time>
      </trkpt>
      <trkpt lat="42.540966" lon="-0.87136704">
        <time>2022-07-05T08:57:06Z</time>
      </trkpt>
      <trkpt lat="42.54089" lon="-0.8712707">
        <time>2022-07-05T08:57:08Z</time>
      </trkpt>
      <trkpt lat="42.54085" lon="-0.87122536">
        <time>2022-07-05T08:57:09Z</time>
      </trkpt>
      <trkpt lat="42.540817" lon="-0.87118506">
        <time>2022-07-05T08:57:10Z</time>
      </trkpt>
      <trkpt lat="42.540745" lon="-0.8711034">
        <time>2022-07-05T08:57:12Z</time>
      </trkpt>
      <trkpt lat="42.540672" lon="-0.87101907">
        <time>2022-07-05T08:57:14Z</time>
      </trkpt>
      <trkpt lat="42.540604" lon="-0.8709404">
        <time>2022-07-05T08:57:16Z</time>
      </trkpt>
      <trkpt lat="42.54055" lon="-0.8708657">
        <time>2022-07-05T08:57:18Z</time>
      </trkpt>
      <trkpt lat="42.540512" lon="-0.87080306">
        <time>2022-07-05T08:57:20Z</time>
      </trkpt>
      <trkpt lat="42.540485" lon="-0.8707524">
        <time>2022-07-05T08:57:26Z</time>
      </trkpt>
      <trkpt lat="42.540443" lon="-0.8707261">
        <time>2022-07-05T08:59:21Z</time>
      </trkpt>
      <trkpt lat="42.540386" lon="-0.87064743">
        <time>2022-07-05T08:59:24Z</time>
      </trkpt>
      <trkpt lat="42.540344" lon="-0.8705851">
        <time>2022-07-05T08:59:26Z</time>
      </trkpt>
      <trkpt lat="42.5403" lon="-0.8705128">
        <time>2022-07-05T08:59:28Z</time>
      </trkpt>
      <trkpt lat="42.540257" lon="-0.87043476">
        <time>2022-07-05T08:59:30Z</time>
      </trkpt>
      <trkpt lat="42.540215" lon="-0.87035674">
        <time>2022-07-05T08:59:32Z</time>
      </trkpt>
      <trkpt lat="42.540173" lon="-0.8702731">
        <time>2022-07-05T08:59:34Z</time>
      </trkpt>
      <trkpt lat="42.54014" lon="-0.87018347">
        <time>2022-07-05T08:59:36Z</time>
      </trkpt>
      <trkpt lat="42.540115" lon="-0.8700838">
        <time>2022-07-05T08:59:38Z</time>
      </trkpt>
      <trkpt lat="42.5401" lon="-0.8699734">
        <time>2022-07-05T08:59:40Z</time>
      </trkpt>
      <trkpt lat="42.54009" lon="-0.8698568">
        <time>2022-07-05T08:59:42Z</time>
      </trkpt>
      <trkpt lat="42.540085" lon="-0.86973214">
        <time>2022-07-05T08:59:44Z</time>
      </trkpt>
      <trkpt lat="42.540085" lon="-0.8696098">
        <time>2022-07-05T08:59:46Z</time>
      </trkpt>
      <trkpt lat="42.540085" lon="-0.86948216">
        <time>2022-07-05T08:59:48Z</time>
      </trkpt>
      <trkpt lat="42.54009" lon="-0.8694178">
        <time>2022-07-05T08:59:49Z</time>
      </trkpt>
      <trkpt lat="42.540092" lon="-0.8692998">
        <time>2022-07-05T08:59:51Z</time>
      </trkpt>
      <trkpt lat="42.540092" lon="-0.8691791">
        <time>2022-07-05T08:59:53Z</time>
      </trkpt>
      <trkpt lat="42.540085" lon="-0.8690518">
        <time>2022-07-05T08:59:55Z</time>
      </trkpt>
      <trkpt lat="42.540062" lon="-0.8689412">
        <time>2022-07-05T08:59:57Z</time>
      </trkpt>
      <trkpt lat="42.54003" lon="-0.8688395">
        <time>2022-07-05T08:59:59Z</time>
      </trkpt>
      <trkpt lat="42.539997" lon="-0.8687482">
        <time>2022-07-05T09:00:01Z</time>
      </trkpt>
      <trkpt lat="42.53996" lon="-0.86866915">
        <time>2022-07-05T09:00:03Z</time>
      </trkpt>
      <trkpt lat="42.53993" lon="-0.86860186">
        <time>2022-07-05T09:00:05Z</time>
      </trkpt>
      <trkpt lat="42.539906" lon="-0.8685435">
        <time>2022-07-05T09:00:07Z</time>
      </trkpt>
      <trkpt lat="42.53988" lon="-0.86846983">
        <time>2022-07-05T09:00:10Z</time>
      </trkpt>
      <trkpt lat="42.539852" lon="-0.86840487">
        <time>2022-07-05T09:00:13Z</time>
      </trkpt>
      <trkpt lat="42.53983" lon="-0.8683429">
        <time>2022-07-05T09:00:16Z</time>
      </trkpt>
      <trkpt lat="42.539803" lon="-0.8682872">
        <time>2022-07-05T09:00:19Z</time>
      </trkpt>
      <trkpt lat="42.539764" lon="-0.8682079">
        <time>2022-07-05T09:00:23Z</time>
      </trkpt>
      <trkpt lat="42.539738" lon="-0.8681545">
        <time>2022-07-05T09:00:26Z</time>
      </trkpt>
      <trkpt lat="42.5397" lon="-0.8680822">
        <time>2022-07-05T09:00:30Z</time>
      </trkpt>
      <trkpt lat="42.539658" lon="-0.8680119">
        <time>2022-07-05T09:00:34Z</time>
      </trkpt>
      <trkpt lat="42.539627" lon="-0.8679629">
        <time>2022-07-05T09:00:37Z</time>
      </trkpt>
      <trkpt lat="42.53959" lon="-0.8678989">
        <time>2022-07-05T09:00:41Z</time>
      </trkpt>
      <trkpt lat="42.539543" lon="-0.8678355">
        <time>2022-07-05T09:00:45Z</time>
      </trkpt>
      <trkpt lat="42.539513" lon="-0.86778855">
        <time>2022-07-05T09:00:48Z</time>
      </trkpt>
      <trkpt lat="42.53947" lon="-0.8677159">
        <time>2022-07-05T09:00:52Z</time>
      </trkpt>
      <trkpt lat="42.53944" lon="-0.8676622">
        <time>2022-07-05T09:00:55Z</time>
      </trkpt>
      <trkpt lat="42.539406" lon="-0.8675842">
        <time>2022-07-05T09:00:59Z</time>
      </trkpt>
      <trkpt lat="42.539383" lon="-0.8675202">
        <time>2022-07-05T09:01:02Z</time>
      </trkpt>
      <trkpt lat="42.539356" lon="-0.86743623">
        <time>2022-07-05T09:01:06Z</time>
      </trkpt>
      <trkpt lat="42.539337" lon="-0.8673736">
        <time>2022-07-05T09:01:09Z</time>
      </trkpt>
      <trkpt lat="42.539314" lon="-0.8673089">
        <time>2022-07-05T09:01:12Z</time>
      </trkpt>
      <trkpt lat="42.53928" lon="-0.86723024">
        <time>2022-07-05T09:01:16Z</time>
      </trkpt>
      <trkpt lat="42.539257" lon="-0.8671686">
        <time>2022-07-05T09:01:19Z</time>
      </trkpt>
      <trkpt lat="42.53923" lon="-0.8671059">
        <time>2022-07-05T09:01:22Z</time>
      </trkpt>
      <trkpt lat="42.539196" lon="-0.8670339">
        <time>2022-07-05T09:01:26Z</time>
      </trkpt>
      <trkpt lat="42.539154" lon="-0.86696494">
        <time>2022-07-05T09:01:30Z</time>
      </trkpt>
      <trkpt lat="42.539127" lon="-0.8669076">
        <time>2022-07-05T09:01:33Z</time>
      </trkpt>
      <trkpt lat="42.539097" lon="-0.8668496">
        <time>2022-07-05T09:01:36Z</time>
      </trkpt>
      <trkpt lat="42.539062" lon="-0.86677593">
        <time>2022-07-05T09:01:40Z</time>
      </trkpt>
      <trkpt lat="42.539032" lon="-0.8666966">
        <time>2022-07-05T09:01:44Z</time>
      </trkpt>
      <trkpt lat="42.538998" lon="-0.8666026">
        <time>2022-07-05T09:01:48Z</time>
      </trkpt>
      <trkpt lat="42.53897" lon="-0.86651397">
        <time>2022-07-05T09:01:51Z</time>
      </trkpt>
      <trkpt lat="42.538948" lon="-0.86639994">
        <time>2022-07-05T09:01:54Z</time>
      </trkpt>
      <trkpt lat="42.53893" lon="-0.8663133">
        <time>2022-07-05T09:01:56Z</time>
      </trkpt>
      <trkpt lat="42.53891" lon="-0.8662233">
        <time>2022-07-05T09:01:58Z</time>
      </trkpt>
      <trkpt lat="42.538895" lon="-0.8661339">
        <time>2022-07-05T09:02:00Z</time>
      </trkpt>
      <trkpt lat="42.538876" lon="-0.866039">
        <time>2022-07-05T09:02:02Z</time>
      </trkpt>
      <trkpt lat="42.538857" lon="-0.8659453">
        <time>2022-07-05T09:02:04Z</time>
      </trkpt>
      <trkpt lat="42.53883" lon="-0.86584526">
        <time>2022-07-05T09:02:06Z</time>
      </trkpt>
      <trkpt lat="42.53879" lon="-0.86574364">
        <time>2022-07-05T09:02:08Z</time>
      </trkpt>
      <trkpt lat="42.538746" lon="-0.86563265">
        <time>2022-07-05T09:02:10Z</time>
      </trkpt>
      <trkpt lat="42.538685" lon="-0.8655136">
        <time>2022-07-05T09:02:12Z</time>
      </trkpt>
      <trkpt lat="42.538647" lon="-0.86545396">
        <time>2022-07-05T09:02:13Z</time>
      </trkpt>
      <trkpt lat="42.53861" lon="-0.8653933">
        <time>2022-07-05T09:02:14Z</time>
      </trkpt>
      <trkpt lat="42.538563" lon="-0.86533266">
        <time>2022-07-05T09:02:15Z</time>
      </trkpt>
      <trkpt lat="42.538517" lon="-0.86526966">
        <time>2022-07-05T09:02:16Z</time>
      </trkpt>
      <trkpt lat="42.53847" lon="-0.86520296">
        <time>2022-07-05T09:02:17Z</time>
      </trkpt>
      <trkpt lat="42.53842" lon="-0.86512536">
        <time>2022-07-05T09:02:18Z</time>
      </trkpt>
      <trkpt lat="42.538383" lon="-0.86504734">
        <time>2022-07-05T09:02:19Z</time>
      </trkpt>
      <trkpt lat="42.538345" lon="-0.86496234">
        <time>2022-07-05T09:02:20Z</time>
      </trkpt>
      <trkpt lat="42.53831" lon="-0.86487">
        <time>2022-07-05T09:02:21Z</time>
      </trkpt>
      <trkpt lat="42.538277" lon="-0.864765">
        <time>2022-07-05T09:02:22Z</time>
      </trkpt>
      <trkpt lat="42.538242" lon="-0.864657">
        <time>2022-07-05T09:02:23Z</time>
      </trkpt>
      <trkpt lat="42.538208" lon="-0.864547">
        <time>2022-07-05T09:02:24Z</time>
      </trkpt>
      <trkpt lat="42.538177" lon="-0.86444134">
        <time>2022-07-05T09:02:25Z</time>
      </trkpt>
      <trkpt lat="42.538143" lon="-0.86433035">
        <time>2022-07-05T09:02:26Z</time>
      </trkpt>
      <trkpt lat="42.538105" lon="-0.8642153">
        <time>2022-07-05T09:02:27Z</time>
      </trkpt>
      <trkpt lat="42.538067" lon="-0.86409">
        <time>2022-07-05T09:02:28Z</time>
      </trkpt>
      <trkpt lat="42.538025" lon="-0.86396503">
        <time>2022-07-05T09:02:29Z</time>
      </trkpt>
      <trkpt lat="42.537987" lon="-0.8638497">
        <time>2022-07-05T09:02:30Z</time>
      </trkpt>
      <trkpt lat="42.537945" lon="-0.8637337">
        <time>2022-07-05T09:02:31Z</time>
      </trkpt>
      <trkpt lat="42.5379" lon="-0.8636187">
        <time>2022-07-05T09:02:32Z</time>
      </trkpt>
      <trkpt lat="42.537846" lon="-0.86350036">
        <time>2022-07-05T09:02:33Z</time>
      </trkpt>
      <trkpt lat="42.537785" lon="-0.86339235">
        <time>2022-07-05T09:02:34Z</time>
      </trkpt>
      <trkpt lat="42.537716" lon="-0.863298">
        <time>2022-07-05T09:02:35Z</time>
      </trkpt>
      <trkpt lat="42.537643" lon="-0.86322135">
        <time>2022-07-05T09:02:36Z</time>
      </trkpt>
      <trkpt lat="42.537556" lon="-0.8631557">
        <time>2022-07-05T09:02:37Z</time>
      </trkpt>
      <trkpt lat="42.537468" lon="-0.8631047">
        <time>2022-07-05T09:02:38Z</time>
      </trkpt>
      <trkpt lat="42.537373" lon="-0.86306506">
        <time>2022-07-05T09:02:39Z</time>
      </trkpt>
      <trkpt lat="42.537285" lon="-0.86303806">
        <time>2022-07-05T09:02:40Z</time>
      </trkpt>
      <trkpt lat="42.537193" lon="-0.86302537">
        <time>2022-07-05T09:02:41Z</time>
      </trkpt>
      <trkpt lat="42.537098" lon="-0.86302674">
        <time>2022-07-05T09:02:42Z</time>
      </trkpt>
      <trkpt lat="42.537006" lon="-0.863039">
        <time>2022-07-05T09:02:43Z</time>
      </trkpt>
      <trkpt lat="42.53692" lon="-0.8630567">
        <time>2022-07-05T09:02:44Z</time>
      </trkpt>
      <trkpt lat="42.536835" lon="-0.86308104">
        <time>2022-07-05T09:02:45Z</time>
      </trkpt>
      <trkpt lat="42.536755" lon="-0.8631097">
        <time>2022-07-05T09:02:46Z</time>
      </trkpt>
      <trkpt lat="42.536667" lon="-0.86314136">
        <time>2022-07-05T09:02:47Z</time>
      </trkpt>
      <trkpt lat="42.536507" lon="-0.86319834">
        <time>2022-07-05T09:02:49Z</time>
      </trkpt>
      <trkpt lat="42.53643" lon="-0.86321837">
        <time>2022-07-05T09:02:50Z</time>
      </trkpt>
      <trkpt lat="42.536358" lon="-0.8632324">
        <time>2022-07-05T09:02:51Z</time>
      </trkpt>
      <trkpt lat="42.536278" lon="-0.86323535">
        <time>2022-07-05T09:02:52Z</time>
      </trkpt>
      <trkpt lat="42.536205" lon="-0.863224">
        <time>2022-07-05T09:02:53Z</time>
      </trkpt>
      <trkpt lat="42.536137" lon="-0.8631974">
        <time>2022-07-05T09:02:54Z</time>
      </trkpt>
      <trkpt lat="42.536076" lon="-0.86316204">
        <time>2022-07-05T09:02:55Z</time>
      </trkpt>
      <trkpt lat="42.536015" lon="-0.8631127">
        <time>2022-07-05T09:02:56Z</time>
      </trkpt>
      <trkpt lat="42.535957" lon="-0.86305904">
        <time>2022-07-05T09:02:57Z</time>
      </trkpt>
      <trkpt lat="42.5359" lon="-0.863004">
        <time>2022-07-05T09:02:58Z</time>
      </trkpt>
      <trkpt lat="42.535847" lon="-0.8629474">
        <time>2022-07-05T09:02:59Z</time>
      </trkpt>
      <trkpt lat="42.535797" lon="-0.86289006">
        <time>2022-07-05T09:03:00Z</time>
      </trkpt>
      <trkpt lat="42.53575" lon="-0.8628371">
        <time>2022-07-05T09:03:01Z</time>
      </trkpt>
      <trkpt lat="42.535706" lon="-0.8627794">
        <time>2022-07-05T09:03:02Z</time>
      </trkpt>
      <trkpt lat="42.53566" lon="-0.86272275">
        <time>2022-07-05T09:03:03Z</time>
      </trkpt>
      <trkpt lat="42.535614" lon="-0.8626664">
        <time>2022-07-05T09:03:04Z</time>
      </trkpt>
      <trkpt lat="42.535572" lon="-0.8626144">
        <time>2022-07-05T09:03:05Z</time>
      </trkpt>
      <trkpt lat="42.53553" lon="-0.8625594">
        <time>2022-07-05T09:03:06Z</time>
      </trkpt>
      <trkpt lat="42.535484" lon="-0.8625064">
        <time>2022-07-05T09:03:07Z</time>
      </trkpt>
      <trkpt lat="42.535442" lon="-0.86245674">
        <time>2022-07-05T09:03:08Z</time>
      </trkpt>
      <trkpt lat="42.5354" lon="-0.86240906">
        <time>2022-07-05T09:03:09Z</time>
      </trkpt>
      <trkpt lat="42.535355" lon="-0.8623644">
        <time>2022-07-05T09:03:10Z</time>
      </trkpt>
      <trkpt lat="42.535313" lon="-0.86232275">
        <time>2022-07-05T09:03:11Z</time>
      </trkpt>
      <trkpt lat="42.53527" lon="-0.8622771">
        <time>2022-07-05T09:03:12Z</time>
      </trkpt>
      <trkpt lat="42.535225" lon="-0.86223143">
        <time>2022-07-05T09:03:13Z</time>
      </trkpt>
      <trkpt lat="42.53518" lon="-0.86218876">
        <time>2022-07-05T09:03:14Z</time>
      </trkpt>
      <trkpt lat="42.53509" lon="-0.86209875">
        <time>2022-07-05T09:03:16Z</time>
      </trkpt>
      <trkpt lat="42.535038" lon="-0.8620488">
        <time>2022-07-05T09:03:17Z</time>
      </trkpt>
      <trkpt lat="42.534992" lon="-0.86200243">
        <time>2022-07-05T09:03:18Z</time>
      </trkpt>
      <trkpt lat="42.534946" lon="-0.8619561">
        <time>2022-07-05T09:03:19Z</time>
      </trkpt>
      <trkpt lat="42.534897" lon="-0.8619091">
        <time>2022-07-05T09:03:20Z</time>
      </trkpt>
      <trkpt lat="42.53485" lon="-0.86186177">
        <time>2022-07-05T09:03:21Z</time>
      </trkpt>
      <trkpt lat="42.5348" lon="-0.8618135">
        <time>2022-07-05T09:03:22Z</time>
      </trkpt>
      <trkpt lat="42.534748" lon="-0.86176246">
        <time>2022-07-05T09:03:23Z</time>
      </trkpt>
      <trkpt lat="42.534702" lon="-0.8617158">
        <time>2022-07-05T09:03:24Z</time>
      </trkpt>
      <trkpt lat="42.534657" lon="-0.86167014">
        <time>2022-07-05T09:03:25Z</time>
      </trkpt>
      <trkpt lat="42.534607" lon="-0.8616245">
        <time>2022-07-05T09:03:26Z</time>
      </trkpt>
      <trkpt lat="42.534557" lon="-0.86157584">
        <time>2022-07-05T09:03:27Z</time>
      </trkpt>
      <trkpt lat="42.534508" lon="-0.8615285">
        <time>2022-07-05T09:03:28Z</time>
      </trkpt>
      <trkpt lat="42.53446" lon="-0.86148185">
        <time>2022-07-05T09:03:29Z</time>
      </trkpt>
      <trkpt lat="42.534412" lon="-0.8614385">
        <time>2022-07-05T09:03:30Z</time>
      </trkpt>
      <trkpt lat="42.534367" lon="-0.8613945">
        <time>2022-07-05T09:03:31Z</time>
      </trkpt>
      <trkpt lat="42.534317" lon="-0.8613465">
        <time>2022-07-05T09:03:32Z</time>
      </trkpt>
      <trkpt lat="42.53427" lon="-0.8612985">
        <time>2022-07-05T09:03:33Z</time>
      </trkpt>
      <trkpt lat="42.534225" lon="-0.86125386">
        <time>2022-07-05T09:03:34Z</time>
      </trkpt>
      <trkpt lat="42.53418" lon="-0.8612082">
        <time>2022-07-05T09:03:35Z</time>
      </trkpt>
      <trkpt lat="42.53413" lon="-0.8611618">
        <time>2022-07-05T09:03:36Z</time>
      </trkpt>
      <trkpt lat="42.53408" lon="-0.86111283">
        <time>2022-07-05T09:03:37Z</time>
      </trkpt>
      <trkpt lat="42.53403" lon="-0.86105955">
        <time>2022-07-05T09:03:38Z</time>
      </trkpt>
      <trkpt lat="42.533978" lon="-0.8610065">
        <time>2022-07-05T09:03:39Z</time>
      </trkpt>
      <trkpt lat="42.533924" lon="-0.86095285">
        <time>2022-07-05T09:03:40Z</time>
      </trkpt>
      <trkpt lat="42.533875" lon="-0.8608972">
        <time>2022-07-05T09:03:41Z</time>
      </trkpt>
      <trkpt lat="42.53382" lon="-0.86083853">
        <time>2022-07-05T09:03:42Z</time>
      </trkpt>
      <trkpt lat="42.53377" lon="-0.86077654">
        <time>2022-07-05T09:03:43Z</time>
      </trkpt>
      <trkpt lat="42.533726" lon="-0.86071086">
        <time>2022-07-05T09:03:44Z</time>
      </trkpt>
      <trkpt lat="42.533684" lon="-0.86063987">
        <time>2022-07-05T09:03:45Z</time>
      </trkpt>
      <trkpt lat="42.533646" lon="-0.8605649">
        <time>2022-07-05T09:03:46Z</time>
      </trkpt>
      <trkpt lat="42.533607" lon="-0.8604862">
        <time>2022-07-05T09:03:47Z</time>
      </trkpt>
      <trkpt lat="42.533573" lon="-0.8604066">
        <time>2022-07-05T09:03:48Z</time>
      </trkpt>
      <trkpt lat="42.53354" lon="-0.8603256">
        <time>2022-07-05T09:03:49Z</time>
      </trkpt>
      <trkpt lat="42.53351" lon="-0.86024225">
        <time>2022-07-05T09:03:50Z</time>
      </trkpt>
      <trkpt lat="42.533478" lon="-0.8601579">
        <time>2022-07-05T09:03:51Z</time>
      </trkpt>
      <trkpt lat="42.533417" lon="-0.8599879">
        <time>2022-07-05T09:03:53Z</time>
      </trkpt>
      <trkpt lat="42.533386" lon="-0.8599032">
        <time>2022-07-05T09:03:54Z</time>
      </trkpt>
      <trkpt lat="42.533356" lon="-0.8598186">
        <time>2022-07-05T09:03:55Z</time>
      </trkpt>
      <trkpt lat="42.53332" lon="-0.8597346">
        <time>2022-07-05T09:03:56Z</time>
      </trkpt>
      <trkpt lat="42.53329" lon="-0.8596522">
        <time>2022-07-05T09:03:57Z</time>
      </trkpt>
      <trkpt lat="42.533253" lon="-0.8595709">
        <time>2022-07-05T09:03:58Z</time>
      </trkpt>
      <trkpt lat="42.53322" lon="-0.8594896">
        <time>2022-07-05T09:03:59Z</time>
      </trkpt>
      <trkpt lat="42.53318" lon="-0.85940826">
        <time>2022-07-05T09:04:00Z</time>
      </trkpt>
      <trkpt lat="42.533146" lon="-0.85932696">
        <time>2022-07-05T09:04:01Z</time>
      </trkpt>
      <trkpt lat="42.533108" lon="-0.85924625">
        <time>2022-07-05T09:04:02Z</time>
      </trkpt>
      <trkpt lat="42.53307" lon="-0.8591656">
        <time>2022-07-05T09:04:03Z</time>
      </trkpt>
      <trkpt lat="42.53303" lon="-0.85908496">
        <time>2022-07-05T09:04:04Z</time>
      </trkpt>
      <trkpt lat="42.532993" lon="-0.8590033">
        <time>2022-07-05T09:04:05Z</time>
      </trkpt>
      <trkpt lat="42.532955" lon="-0.8589226">
        <time>2022-07-05T09:04:06Z</time>
      </trkpt>
      <trkpt lat="42.532917" lon="-0.85884064">
        <time>2022-07-05T09:04:07Z</time>
      </trkpt>
      <trkpt lat="42.53288" lon="-0.858758">
        <time>2022-07-05T09:04:08Z</time>
      </trkpt>
      <trkpt lat="42.532837" lon="-0.8586743">
        <time>2022-07-05T09:04:09Z</time>
      </trkpt>
      <trkpt lat="42.5328" lon="-0.8585913">
        <time>2022-07-05T09:04:10Z</time>
      </trkpt>
      <trkpt lat="42.53276" lon="-0.85850996">
        <time>2022-07-05T09:04:11Z</time>
      </trkpt>
      <trkpt lat="42.532722" lon="-0.8584297">
        <time>2022-07-05T09:04:12Z</time>
      </trkpt>
      <trkpt lat="42.532684" lon="-0.85835">
        <time>2022-07-05T09:04:13Z</time>
      </trkpt>
      <trkpt lat="42.532642" lon="-0.85827">
        <time>2022-07-05T09:04:14Z</time>
      </trkpt>
      <trkpt lat="42.532604" lon="-0.85819036">
        <time>2022-07-05T09:04:15Z</time>
      </trkpt>
      <trkpt lat="42.532566" lon="-0.8581103">
        <time>2022-07-05T09:04:16Z</time>
      </trkpt>
      <trkpt lat="42.532528" lon="-0.8580293">
        <time>2022-07-05T09:04:17Z</time>
      </trkpt>
      <trkpt lat="42.53249" lon="-0.857949">
        <time>2022-07-05T09:04:18Z</time>
      </trkpt>
      <trkpt lat="42.53245" lon="-0.8578697">
        <time>2022-07-05T09:04:19Z</time>
      </trkpt>
      <trkpt lat="42.532417" lon="-0.85779136">
        <time>2022-07-05T09:04:20Z</time>
      </trkpt>
      <trkpt lat="42.53238" lon="-0.85771334">
        <time>2022-07-05T09:04:21Z</time>
      </trkpt>
      <trkpt lat="42.532345" lon="-0.857635">
        <time>2022-07-05T09:04:22Z</time>
      </trkpt>
      <trkpt lat="42.532307" lon="-0.857557">
        <time>2022-07-05T09:04:23Z</time>
      </trkpt>
      <trkpt lat="42.532272" lon="-0.8574787">
        <time>2022-07-05T09:04:24Z</time>
      </trkpt>
      <trkpt lat="42.532238" lon="-0.8573997">
        <time>2022-07-05T09:04:25Z</time>
      </trkpt>
      <trkpt lat="42.5322" lon="-0.85732">
        <time>2022-07-05T09:04:26Z</time>
      </trkpt>
      <trkpt lat="42.53216" lon="-0.857239">
        <time>2022-07-05T09:04:27Z</time>
      </trkpt>
      <trkpt lat="42.532124" lon="-0.8571557">
        <time>2022-07-05T09:04:28Z</time>
      </trkpt>
      <trkpt lat="42.532085" lon="-0.857069">
        <time>2022-07-05T09:04:29Z</time>
      </trkpt>
      <trkpt lat="42.53205" lon="-0.8569804">
        <time>2022-07-05T09:04:30Z</time>
      </trkpt>
      <trkpt lat="42.532013" lon="-0.85688937">
        <time>2022-07-05T09:04:31Z</time>
      </trkpt>
      <trkpt lat="42.531975" lon="-0.85679704">
        <time>2022-07-05T09:04:32Z</time>
      </trkpt>
      <trkpt lat="42.531937" lon="-0.8567034">
        <time>2022-07-05T09:04:33Z</time>
      </trkpt>
      <trkpt lat="42.531895" lon="-0.8566084">
        <time>2022-07-05T09:04:34Z</time>
      </trkpt>
      <trkpt lat="42.531857" lon="-0.85651106">
        <time>2022-07-05T09:04:35Z</time>
      </trkpt>
      <trkpt lat="42.531815" lon="-0.8564117">
        <time>2022-07-05T09:04:36Z</time>
      </trkpt>
      <trkpt lat="42.531773" lon="-0.8563107">
        <time>2022-07-05T09:04:37Z</time>
      </trkpt>
      <trkpt lat="42.531727" lon="-0.8562077">
        <time>2022-07-05T09:04:38Z</time>
      </trkpt>
      <trkpt lat="42.53168" lon="-0.8561027">
        <time>2022-07-05T09:04:39Z</time>
      </trkpt>
      <trkpt lat="42.53164" lon="-0.8559957">
        <time>2022-07-05T09:04:40Z</time>
      </trkpt>
      <trkpt lat="42.53159" lon="-0.8558874">
        <time>2022-07-05T09:04:41Z</time>
      </trkpt>
      <trkpt lat="42.531544" lon="-0.8557771">
        <time>2022-07-05T09:04:42Z</time>
      </trkpt>
      <trkpt lat="42.531498" lon="-0.85567373">
        <time>2022-07-05T09:04:43Z</time>
      </trkpt>
      <trkpt lat="42.531452" lon="-0.8555671">
        <time>2022-07-05T09:04:44Z</time>
      </trkpt>
      <trkpt lat="42.531403" lon="-0.8554581">
        <time>2022-07-05T09:04:45Z</time>
      </trkpt>
      <trkpt lat="42.53135" lon="-0.8553484">
        <time>2022-07-05T09:04:46Z</time>
      </trkpt>
      <trkpt lat="42.531296" lon="-0.85523677">
        <time>2022-07-05T09:04:47Z</time>
      </trkpt>
      <trkpt lat="42.531242" lon="-0.8551248">
        <time>2022-07-05T09:04:48Z</time>
      </trkpt>
      <trkpt lat="42.53118" lon="-0.85500675">
        <time>2022-07-05T09:04:49Z</time>
      </trkpt>
      <trkpt lat="42.531124" lon="-0.8548994">
        <time>2022-07-05T09:04:50Z</time>
      </trkpt>
      <trkpt lat="42.53106" lon="-0.8547888">
        <time>2022-07-05T09:04:51Z</time>
      </trkpt>
      <trkpt lat="42.53099" lon="-0.8546841">
        <time>2022-07-05T09:04:52Z</time>
      </trkpt>
      <trkpt lat="42.530857" lon="-0.8544921">
        <time>2022-07-05T09:04:54Z</time>
      </trkpt>
      <trkpt lat="42.530792" lon="-0.85440147">
        <time>2022-07-05T09:04:55Z</time>
      </trkpt>
      <trkpt lat="42.530727" lon="-0.8543128">
        <time>2022-07-05T09:04:56Z</time>
      </trkpt>
      <trkpt lat="42.530666" lon="-0.8542261">
        <time>2022-07-05T09:04:57Z</time>
      </trkpt>
      <trkpt lat="42.53061" lon="-0.8541411">
        <time>2022-07-05T09:04:58Z</time>
      </trkpt>
      <trkpt lat="42.530552" lon="-0.8540588">
        <time>2022-07-05T09:04:59Z</time>
      </trkpt>
      <trkpt lat="42.530495" lon="-0.8539788">
        <time>2022-07-05T09:05:00Z</time>
      </trkpt>
      <trkpt lat="42.530437" lon="-0.85390145">
        <time>2022-07-05T09:05:01Z</time>
      </trkpt>
      <trkpt lat="42.53038" lon="-0.8538261">
        <time>2022-07-05T09:05:02Z</time>
      </trkpt>
      <trkpt lat="42.530327" lon="-0.85375214">
        <time>2022-07-05T09:05:03Z</time>
      </trkpt>
      <trkpt lat="42.530277" lon="-0.8536788">
        <time>2022-07-05T09:05:04Z</time>
      </trkpt>
      <trkpt lat="42.53023" lon="-0.8536048">
        <time>2022-07-05T09:05:05Z</time>
      </trkpt>
      <trkpt lat="42.530186" lon="-0.8535298">
        <time>2022-07-05T09:05:06Z</time>
      </trkpt>
      <trkpt lat="42.53014" lon="-0.85345346">
        <time>2022-07-05T09:05:07Z</time>
      </trkpt>
      <trkpt lat="42.5301" lon="-0.8533768">
        <time>2022-07-05T09:05:08Z</time>
      </trkpt>
      <trkpt lat="42.530064" lon="-0.8532998">
        <time>2022-07-05T09:05:09Z</time>
      </trkpt>
      <trkpt lat="42.53003" lon="-0.85322315">
        <time>2022-07-05T09:05:10Z</time>
      </trkpt>
      <trkpt lat="42.529995" lon="-0.85314846">
        <time>2022-07-05T09:05:11Z</time>
      </trkpt>
      <trkpt lat="42.529964" lon="-0.8530758">
        <time>2022-07-05T09:05:12Z</time>
      </trkpt>
      <trkpt lat="42.529934" lon="-0.8530055">
        <time>2022-07-05T09:05:13Z</time>
      </trkpt>
      <trkpt lat="42.529903" lon="-0.8529375">
        <time>2022-07-05T09:05:14Z</time>
      </trkpt>
      <trkpt lat="42.529873" lon="-0.85287184">
        <time>2022-07-05T09:05:15Z</time>
      </trkpt>
      <trkpt lat="42.529842" lon="-0.85280716">
        <time>2022-07-05T09:05:16Z</time>
      </trkpt>
      <trkpt lat="42.529816" lon="-0.8527432">
        <time>2022-07-05T09:05:17Z</time>
      </trkpt>
      <trkpt lat="42.529785" lon="-0.8526792">
        <time>2022-07-05T09:05:18Z</time>
      </trkpt>
      <trkpt lat="42.52976" lon="-0.8526149">
        <time>2022-07-05T09:05:19Z</time>
      </trkpt>
      <trkpt lat="42.52973" lon="-0.85255116">
        <time>2022-07-05T09:05:20Z</time>
      </trkpt>
      <trkpt lat="42.5297" lon="-0.8524885">
        <time>2022-07-05T09:05:21Z</time>
      </trkpt>
      <trkpt lat="42.529675" lon="-0.8524265">
        <time>2022-07-05T09:05:22Z</time>
      </trkpt>
      <trkpt lat="42.529648" lon="-0.85236585">
        <time>2022-07-05T09:05:23Z</time>
      </trkpt>
      <trkpt lat="42.52962" lon="-0.8523062">
        <time>2022-07-05T09:05:24Z</time>
      </trkpt>
      <trkpt lat="42.52959" lon="-0.8522479">
        <time>2022-07-05T09:05:25Z</time>
      </trkpt>
      <trkpt lat="42.529564" lon="-0.85219055">
        <time>2022-07-05T09:05:26Z</time>
      </trkpt>
      <trkpt lat="42.529514" lon="-0.85207856">
        <time>2022-07-05T09:05:28Z</time>
      </trkpt>
      <trkpt lat="42.529465" lon="-0.85196954">
        <time>2022-07-05T09:05:30Z</time>
      </trkpt>
      <trkpt lat="42.52941" lon="-0.85186523">
        <time>2022-07-05T09:05:32Z</time>
      </trkpt>
      <trkpt lat="42.529358" lon="-0.85177124">
        <time>2022-07-05T09:05:34Z</time>
      </trkpt>
      <trkpt lat="42.529297" lon="-0.8516929">
        <time>2022-07-05T09:05:36Z</time>
      </trkpt>
      <trkpt lat="42.52924" lon="-0.8516369">
        <time>2022-07-05T09:05:38Z</time>
      </trkpt>
      <trkpt lat="42.529182" lon="-0.85159487">
        <time>2022-07-05T09:05:40Z</time>
      </trkpt>
      <trkpt lat="42.529133" lon="-0.8515639">
        <time>2022-07-05T09:05:42Z</time>
      </trkpt>
      <trkpt lat="42.529083" lon="-0.8515429">
        <time>2022-07-05T09:05:44Z</time>
      </trkpt>
      <trkpt lat="42.529034" lon="-0.8515326">
        <time>2022-07-05T09:05:46Z</time>
      </trkpt>
      <trkpt lat="42.528954" lon="-0.8515326">
        <time>2022-07-05T09:05:49Z</time>
      </trkpt>
      <trkpt lat="42.528896" lon="-0.8515419">
        <time>2022-07-05T09:05:51Z</time>
      </trkpt>
      <trkpt lat="42.528835" lon="-0.8515596">
        <time>2022-07-05T09:05:53Z</time>
      </trkpt>
      <trkpt lat="42.52877" lon="-0.85158557">
        <time>2022-07-05T09:05:55Z</time>
      </trkpt>
      <trkpt lat="42.5287" lon="-0.8516102">
        <time>2022-07-05T09:05:57Z</time>
      </trkpt>
      <trkpt lat="42.528625" lon="-0.8516229">
        <time>2022-07-05T09:05:59Z</time>
      </trkpt>
      <trkpt lat="42.52854" lon="-0.8516199">
        <time>2022-07-05T09:06:01Z</time>
      </trkpt>
      <trkpt lat="42.528465" lon="-0.8516012">
        <time>2022-07-05T09:06:03Z</time>
      </trkpt>
      <trkpt lat="42.528385" lon="-0.8515722">
        <time>2022-07-05T09:06:05Z</time>
      </trkpt>
      <trkpt lat="42.528305" lon="-0.8515465">
        <time>2022-07-05T09:06:07Z</time>
      </trkpt>
      <trkpt lat="42.528217" lon="-0.8515375">
        <time>2022-07-05T09:06:09Z</time>
      </trkpt>
      <trkpt lat="42.528133" lon="-0.8515479">
        <time>2022-07-05T09:06:11Z</time>
      </trkpt>
      <trkpt lat="42.52806" lon="-0.8515732">
        <time>2022-07-05T09:06:13Z</time>
      </trkpt>
      <trkpt lat="42.527996" lon="-0.8516085">
        <time>2022-07-05T09:06:15Z</time>
      </trkpt>
      <trkpt lat="42.52794" lon="-0.8516445">
        <time>2022-07-05T09:06:17Z</time>
      </trkpt>
      <trkpt lat="42.527893" lon="-0.8516779">
        <time>2022-07-05T09:06:19Z</time>
      </trkpt>
      <trkpt lat="42.527847" lon="-0.8517042">
        <time>2022-07-05T09:06:21Z</time>
      </trkpt>
      <trkpt lat="42.527786" lon="-0.8517305">
        <time>2022-07-05T09:06:24Z</time>
      </trkpt>
      <trkpt lat="42.527725" lon="-0.8517512">
        <time>2022-07-05T09:06:27Z</time>
      </trkpt>
      <trkpt lat="42.527668" lon="-0.85175985">
        <time>2022-07-05T09:06:30Z</time>
      </trkpt>
      <trkpt lat="42.527607" lon="-0.8517575">
        <time>2022-07-05T09:06:33Z</time>
      </trkpt>
      <trkpt lat="42.52755" lon="-0.8517462">
        <time>2022-07-05T09:06:36Z</time>
      </trkpt>
      <trkpt lat="42.527496" lon="-0.8517292">
        <time>2022-07-05T09:06:39Z</time>
      </trkpt>
      <trkpt lat="42.527435" lon="-0.85171086">
        <time>2022-07-05T09:06:42Z</time>
      </trkpt>
      <trkpt lat="42.527378" lon="-0.8516909">
        <time>2022-07-05T09:06:45Z</time>
      </trkpt>
      <trkpt lat="42.527325" lon="-0.85166085">
        <time>2022-07-05T09:06:48Z</time>
      </trkpt>
      <trkpt lat="42.527267" lon="-0.8516262">
        <time>2022-07-05T09:06:51Z</time>
      </trkpt>
      <trkpt lat="42.527214" lon="-0.8515915">
        <time>2022-07-05T09:06:54Z</time>
      </trkpt>
      <trkpt lat="42.527157" lon="-0.8515562">
        <time>2022-07-05T09:06:57Z</time>
      </trkpt>
      <trkpt lat="42.5271" lon="-0.8515252">
        <time>2022-07-05T09:07:00Z</time>
      </trkpt>
      <trkpt lat="42.527042" lon="-0.8515012">
        <time>2022-07-05T09:07:03Z</time>
      </trkpt>
      <trkpt lat="42.52698" lon="-0.8514872">
        <time>2022-07-05T09:07:06Z</time>
      </trkpt>
      <trkpt lat="42.526917" lon="-0.8514802">
        <time>2022-07-05T09:07:09Z</time>
      </trkpt>
      <trkpt lat="42.526848" lon="-0.85147524">
        <time>2022-07-05T09:07:12Z</time>
      </trkpt>
      <trkpt lat="42.526783" lon="-0.8514642">
        <time>2022-07-05T09:07:15Z</time>
      </trkpt>
      <trkpt lat="42.526726" lon="-0.8514359">
        <time>2022-07-05T09:07:18Z</time>
      </trkpt>
      <trkpt lat="42.526672" lon="-0.8513985">
        <time>2022-07-05T09:07:21Z</time>
      </trkpt>
      <trkpt lat="42.526615" lon="-0.8512919">
        <time>2022-07-05T09:07:35Z</time>
      </trkpt>
      <trkpt lat="42.52658" lon="-0.8512272">
        <time>2022-07-05T09:07:38Z</time>
      </trkpt>
      <trkpt lat="42.52654" lon="-0.8511579">
        <time>2022-07-05T09:07:41Z</time>
      </trkpt>
      <trkpt lat="42.526497" lon="-0.8510922">
        <time>2022-07-05T09:07:44Z</time>
      </trkpt>
      <trkpt lat="42.526447" lon="-0.85102856">
        <time>2022-07-05T09:07:47Z</time>
      </trkpt>
      <trkpt lat="42.526394" lon="-0.8509753">
        <time>2022-07-05T09:07:50Z</time>
      </trkpt>
      <trkpt lat="42.52634" lon="-0.8509226">
        <time>2022-07-05T09:07:53Z</time>
      </trkpt>
      <trkpt lat="42.526287" lon="-0.8508723">
        <time>2022-07-05T09:07:56Z</time>
      </trkpt>
      <trkpt lat="42.52623" lon="-0.85082525">
        <time>2022-07-05T09:07:59Z</time>
      </trkpt>
      <trkpt lat="42.526146" lon="-0.85077125">
        <time>2022-07-05T09:08:03Z</time>
      </trkpt>
      <trkpt lat="42.52609" lon="-0.85073626">
        <time>2022-07-05T09:08:06Z</time>
      </trkpt>
      <trkpt lat="42.526024" lon="-0.8507059">
        <time>2022-07-05T09:08:09Z</time>
      </trkpt>
      <trkpt lat="42.52596" lon="-0.8506803">
        <time>2022-07-05T09:08:12Z</time>
      </trkpt>
      <trkpt lat="42.525894" lon="-0.8506533">
        <time>2022-07-05T09:08:15Z</time>
      </trkpt>
      <trkpt lat="42.52583" lon="-0.8506286">
        <time>2022-07-05T09:08:18Z</time>
      </trkpt>
      <trkpt lat="42.525764" lon="-0.85060763">
        <time>2022-07-05T09:08:21Z</time>
      </trkpt>
      <trkpt lat="42.5257" lon="-0.85058296">
        <time>2022-07-05T09:08:24Z</time>
      </trkpt>
      <trkpt lat="42.52564" lon="-0.85054797">
        <time>2022-07-05T09:08:27Z</time>
      </trkpt>
      <trkpt lat="42.525597" lon="-0.8505219">
        <time>2022-07-05T09:08:29Z</time>
      </trkpt>
      <trkpt lat="42.525536" lon="-0.85047626">
        <time>2022-07-05T09:08:32Z</time>
      </trkpt>
      <trkpt lat="42.525482" lon="-0.8504213">
        <time>2022-07-05T09:08:35Z</time>
      </trkpt>
      <trkpt lat="42.525436" lon="-0.8503546">
        <time>2022-07-05T09:08:38Z</time>
      </trkpt>
      <trkpt lat="42.5254" lon="-0.85028064">
        <time>2022-07-05T09:08:41Z</time>
      </trkpt>
      <trkpt lat="42.525356" lon="-0.850203">
        <time>2022-07-05T09:08:44Z</time>
      </trkpt>
      <trkpt lat="42.52531" lon="-0.85013866">
        <time>2022-07-05T09:08:47Z</time>
      </trkpt>
      <trkpt lat="42.52526" lon="-0.8500843">
        <time>2022-07-05T09:08:50Z</time>
      </trkpt>
      <trkpt lat="42.525204" lon="-0.850042">
        <time>2022-07-05T09:08:53Z</time>
      </trkpt>
      <trkpt lat="42.525146" lon="-0.84999895">
        <time>2022-07-05T09:08:56Z</time>
      </trkpt>
      <trkpt lat="42.525093" lon="-0.8499467">
        <time>2022-07-05T09:08:59Z</time>
      </trkpt>
      <trkpt lat="42.525043" lon="-0.8498913">
        <time>2022-07-05T09:09:02Z</time>
      </trkpt>
      <trkpt lat="42.52499" lon="-0.84983534">
        <time>2022-07-05T09:09:05Z</time>
      </trkpt>
      <trkpt lat="42.52494" lon="-0.84978163">
        <time>2022-07-05T09:09:08Z</time>
      </trkpt>
      <trkpt lat="42.52489" lon="-0.8497307">
        <time>2022-07-05T09:09:11Z</time>
      </trkpt>
      <trkpt lat="42.524845" lon="-0.849683">
        <time>2022-07-05T09:09:14Z</time>
      </trkpt>
      <trkpt lat="42.52479" lon="-0.8496417">
        <time>2022-07-05T09:09:17Z</time>
      </trkpt>
      <trkpt lat="42.52474" lon="-0.8496027">
        <time>2022-07-05T09:09:20Z</time>
      </trkpt>
      <trkpt lat="42.52468" lon="-0.84956837">
        <time>2022-07-05T09:09:23Z</time>
      </trkpt>
      <trkpt lat="42.524628" lon="-0.8495377">
        <time>2022-07-05T09:09:26Z</time>
      </trkpt>
      <trkpt lat="42.52457" lon="-0.8495064">
        <time>2022-07-05T09:09:29Z</time>
      </trkpt>
      <trkpt lat="42.52452" lon="-0.84946734">
        <time>2022-07-05T09:09:32Z</time>
      </trkpt>
      <trkpt lat="42.524475" lon="-0.84942037">
        <time>2022-07-05T09:09:35Z</time>
      </trkpt>
      <trkpt lat="42.524433" lon="-0.8493637">
        <time>2022-07-05T09:09:38Z</time>
      </trkpt>
      <trkpt lat="42.52439" lon="-0.8493067">
        <time>2022-07-05T09:09:41Z</time>
      </trkpt>
      <trkpt lat="42.524357" lon="-0.8492464">
        <time>2022-07-05T09:09:44Z</time>
      </trkpt>
      <trkpt lat="42.524326" lon="-0.84917533">
        <time>2022-07-05T09:09:47Z</time>
      </trkpt>
      <trkpt lat="42.524292" lon="-0.8491074">
        <time>2022-07-05T09:09:50Z</time>
      </trkpt>
      <trkpt lat="42.52426" lon="-0.84903705">
        <time>2022-07-05T09:09:53Z</time>
      </trkpt>
      <trkpt lat="42.524223" lon="-0.8489634">
        <time>2022-07-05T09:09:56Z</time>
      </trkpt>
      <trkpt lat="42.524193" lon="-0.8488927">
        <time>2022-07-05T09:09:59Z</time>
      </trkpt>
      <trkpt lat="42.52416" lon="-0.8488217">
        <time>2022-07-05T09:10:02Z</time>
      </trkpt>
      <trkpt lat="42.524128" lon="-0.8487564">
        <time>2022-07-05T09:10:05Z</time>
      </trkpt>
      <trkpt lat="42.52408" lon="-0.8486747">
        <time>2022-07-05T09:10:09Z</time>
      </trkpt>
      <trkpt lat="42.524033" lon="-0.84861904">
        <time>2022-07-05T09:10:12Z</time>
      </trkpt>
      <trkpt lat="42.523987" lon="-0.8485721">
        <time>2022-07-05T09:10:15Z</time>
      </trkpt>
      <trkpt lat="42.523933" lon="-0.84853303">
        <time>2022-07-05T09:10:18Z</time>
      </trkpt>
      <trkpt lat="42.523884" lon="-0.8485024">
        <time>2022-07-05T09:10:21Z</time>
      </trkpt>
      <trkpt lat="42.52383" lon="-0.8484777">
        <time>2022-07-05T09:10:24Z</time>
      </trkpt>
      <trkpt lat="42.523773" lon="-0.8484557">
        <time>2022-07-05T09:10:27Z</time>
      </trkpt>
      <trkpt lat="42.523716" lon="-0.8484344">
        <time>2022-07-05T09:10:30Z</time>
      </trkpt>
      <trkpt lat="42.52366" lon="-0.8484148">
        <time>2022-07-05T09:10:33Z</time>
      </trkpt>
      <trkpt lat="42.5236" lon="-0.8483981">
        <time>2022-07-05T09:10:36Z</time>
      </trkpt>
      <trkpt lat="42.523533" lon="-0.84838045">
        <time>2022-07-05T09:10:40Z</time>
      </trkpt>
      <trkpt lat="42.52348" lon="-0.84836376">
        <time>2022-07-05T09:10:43Z</time>
      </trkpt>
      <trkpt lat="42.52343" lon="-0.8483384">
        <time>2022-07-05T09:10:46Z</time>
      </trkpt>
      <trkpt lat="42.523376" lon="-0.8483101">
        <time>2022-07-05T09:10:49Z</time>
      </trkpt>
      <trkpt lat="42.523323" lon="-0.8482861">
        <time>2022-07-05T09:10:52Z</time>
      </trkpt>
      <trkpt lat="42.52327" lon="-0.84825844">
        <time>2022-07-05T09:10:55Z</time>
      </trkpt>
      <trkpt lat="42.52322" lon="-0.84822744">
        <time>2022-07-05T09:10:58Z</time>
      </trkpt>
      <trkpt lat="42.52317" lon="-0.8481908">
        <time>2022-07-05T09:11:01Z</time>
      </trkpt>
      <trkpt lat="42.52312" lon="-0.84814745">
        <time>2022-07-05T09:11:04Z</time>
      </trkpt>
      <trkpt lat="42.523067" lon="-0.8480998">
        <time>2022-07-05T09:11:07Z</time>
      </trkpt>
      <trkpt lat="42.523014" lon="-0.8480475">
        <time>2022-07-05T09:11:10Z</time>
      </trkpt>
      <trkpt lat="42.52294" lon="-0.84796417">
        <time>2022-07-05T09:11:14Z</time>
      </trkpt>
      <trkpt lat="42.522903" lon="-0.8479168">
        <time>2022-07-05T09:11:16Z</time>
      </trkpt>
      <trkpt lat="42.52287" lon="-0.84786683">
        <time>2022-07-05T09:11:18Z</time>
      </trkpt>
      <trkpt lat="42.522816" lon="-0.8477898">
        <time>2022-07-05T09:11:21Z</time>
      </trkpt>
      <trkpt lat="42.522778" lon="-0.8477365">
        <time>2022-07-05T09:11:23Z</time>
      </trkpt>
      <trkpt lat="42.522743" lon="-0.84768516">
        <time>2022-07-05T09:11:25Z</time>
      </trkpt>
      <trkpt lat="42.52271" lon="-0.84763116">
        <time>2022-07-05T09:11:27Z</time>
      </trkpt>
      <trkpt lat="42.52266" lon="-0.8475465">
        <time>2022-07-05T09:11:30Z</time>
      </trkpt>
      <trkpt lat="42.522625" lon="-0.8474925">
        <time>2022-07-05T09:11:32Z</time>
      </trkpt>
      <trkpt lat="42.52259" lon="-0.8474455">
        <time>2022-07-05T09:11:34Z</time>
      </trkpt>
      <trkpt lat="42.522533" lon="-0.84738386">
        <time>2022-07-05T09:11:37Z</time>
      </trkpt>
      <trkpt lat="42.522476" lon="-0.84732884">
        <time>2022-07-05T09:11:40Z</time>
      </trkpt>
      <trkpt lat="42.522423" lon="-0.8472752">
        <time>2022-07-05T09:11:43Z</time>
      </trkpt>
      <trkpt lat="42.52237" lon="-0.84721684">
        <time>2022-07-05T09:11:46Z</time>
      </trkpt>
      <trkpt lat="42.52232" lon="-0.84716654">
        <time>2022-07-05T09:11:49Z</time>
      </trkpt>
      <trkpt lat="42.522263" lon="-0.8471225">
        <time>2022-07-05T09:11:52Z</time>
      </trkpt>
      <trkpt lat="42.5222" lon="-0.8470865">
        <time>2022-07-05T09:11:55Z</time>
      </trkpt>
      <trkpt lat="42.52214" lon="-0.8470545">
        <time>2022-07-05T09:11:58Z</time>
      </trkpt>
      <trkpt lat="42.52208" lon="-0.84702986">
        <time>2022-07-05T09:12:01Z</time>
      </trkpt>
      <trkpt lat="42.52202" lon="-0.84700185">
        <time>2022-07-05T09:12:04Z</time>
      </trkpt>
      <trkpt lat="42.521954" lon="-0.8469818">
        <time>2022-07-05T09:12:07Z</time>
      </trkpt>
      <trkpt lat="42.521893" lon="-0.8469705">
        <time>2022-07-05T09:12:10Z</time>
      </trkpt>
      <trkpt lat="42.521835" lon="-0.84695816">
        <time>2022-07-05T09:12:13Z</time>
      </trkpt>
      <trkpt lat="42.521774" lon="-0.8469442">
        <time>2022-07-05T09:12:16Z</time>
      </trkpt>
      <trkpt lat="42.521713" lon="-0.84693086">
        <time>2022-07-05T09:12:19Z</time>
      </trkpt>
      <trkpt lat="42.52165" lon="-0.84692186">
        <time>2022-07-05T09:12:22Z</time>
      </trkpt>
      <trkpt lat="42.52159" lon="-0.8469142">
        <time>2022-07-05T09:12:25Z</time>
      </trkpt>
      <trkpt lat="42.521534" lon="-0.84691054">
        <time>2022-07-05T09:12:28Z</time>
      </trkpt>
      <trkpt lat="42.521473" lon="-0.84691757">
        <time>2022-07-05T09:12:31Z</time>
      </trkpt>
      <trkpt lat="42.521416" lon="-0.8469282">
        <time>2022-07-05T09:12:34Z</time>
      </trkpt>
      <trkpt lat="42.52136" lon="-0.84694755">
        <time>2022-07-05T09:12:37Z</time>
      </trkpt>
      <trkpt lat="42.521297" lon="-0.8469725">
        <time>2022-07-05T09:12:40Z</time>
      </trkpt>
      <trkpt lat="42.52124" lon="-0.8470002">
        <time>2022-07-05T09:12:43Z</time>
      </trkpt>
      <trkpt lat="42.521187" lon="-0.8470255">
        <time>2022-07-05T09:12:46Z</time>
      </trkpt>
      <trkpt lat="42.521126" lon="-0.8470492">
        <time>2022-07-05T09:12:49Z</time>
      </trkpt>
      <trkpt lat="42.52107" lon="-0.8470722">
        <time>2022-07-05T09:12:52Z</time>
      </trkpt>
      <trkpt lat="42.521015" lon="-0.8470965">
        <time>2022-07-05T09:12:55Z</time>
      </trkpt>
      <trkpt lat="42.520958" lon="-0.8471055">
        <time>2022-07-05T09:12:58Z</time>
      </trkpt>
      <trkpt lat="42.5209" lon="-0.8471065">
        <time>2022-07-05T09:13:01Z</time>
      </trkpt>
      <trkpt lat="42.520847" lon="-0.8471032">
        <time>2022-07-05T09:13:04Z</time>
      </trkpt>
      <trkpt lat="42.520786" lon="-0.8470825">
        <time>2022-07-05T09:13:08Z</time>
      </trkpt>
      <trkpt lat="42.52073" lon="-0.8470575">
        <time>2022-07-05T09:13:12Z</time>
      </trkpt>
      <trkpt lat="42.520668" lon="-0.84703255">
        <time>2022-07-05T09:13:16Z</time>
      </trkpt>
      <trkpt lat="42.520607" lon="-0.84701085">
        <time>2022-07-05T09:13:20Z</time>
      </trkpt>
      <trkpt lat="42.520546" lon="-0.84698856">
        <time>2022-07-05T09:13:24Z</time>
      </trkpt>
      <trkpt lat="42.520493" lon="-0.84697884">
        <time>2022-07-05T09:13:27Z</time>
      </trkpt>
      <trkpt lat="42.520428" lon="-0.84696984">
        <time>2022-07-05T09:13:31Z</time>
      </trkpt>
      <trkpt lat="42.520382" lon="-0.8469662">
        <time>2022-07-05T09:13:34Z</time>
      </trkpt>
      <trkpt lat="42.520317" lon="-0.8469662">
        <time>2022-07-05T09:13:38Z</time>
      </trkpt>
      <trkpt lat="42.52025" lon="-0.8469662">
        <time>2022-07-05T09:13:42Z</time>
      </trkpt>
      <trkpt lat="42.520195" lon="-0.8469626">
        <time>2022-07-05T09:13:45Z</time>
      </trkpt>
      <trkpt lat="42.520145" lon="-0.8469562">
        <time>2022-07-05T09:13:48Z</time>
      </trkpt>
      <trkpt lat="42.520077" lon="-0.8469509">
        <time>2022-07-05T09:13:52Z</time>
      </trkpt>
      <trkpt lat="42.520023" lon="-0.84695387">
        <time>2022-07-05T09:13:55Z</time>
      </trkpt>
      <trkpt lat="42.519962" lon="-0.8469639">
        <time>2022-07-05T09:13:59Z</time>
      </trkpt>
      <trkpt lat="42.51991" lon="-0.84696954">
        <time>2022-07-05T09:14:02Z</time>
      </trkpt>
      <trkpt lat="42.51984" lon="-0.84698254">
        <time>2022-07-05T09:14:06Z</time>
      </trkpt>
      <trkpt lat="42.51979" lon="-0.8470002">
        <time>2022-07-05T09:14:09Z</time>
      </trkpt>
      <trkpt lat="42.519745" lon="-0.84703386">
        <time>2022-07-05T09:14:12Z</time>
      </trkpt>
      <trkpt lat="42.519695" lon="-0.8470802">
        <time>2022-07-05T09:14:16Z</time>
      </trkpt>
      <trkpt lat="42.519646" lon="-0.8471385">
        <time>2022-07-05T09:14:20Z</time>
      </trkpt>
      <trkpt lat="42.519608" lon="-0.84719354">
        <time>2022-07-05T09:14:24Z</time>
      </trkpt>
      <trkpt lat="42.51957" lon="-0.8472625">
        <time>2022-07-05T09:14:28Z</time>
      </trkpt>
      <trkpt lat="42.519535" lon="-0.8473322">
        <time>2022-07-05T09:14:31Z</time>
      </trkpt>
      <trkpt lat="42.5195" lon="-0.84739584">
        <time>2022-07-05T09:14:34Z</time>
      </trkpt>
      <trkpt lat="42.51947" lon="-0.84745187">
        <time>2022-07-05T09:14:37Z</time>
      </trkpt>
      <trkpt lat="42.51944" lon="-0.8475072">
        <time>2022-07-05T09:14:40Z</time>
      </trkpt>
      <trkpt lat="42.519405" lon="-0.84755886">
        <time>2022-07-05T09:14:43Z</time>
      </trkpt>
      <trkpt lat="42.519363" lon="-0.84761584">
        <time>2022-07-05T09:14:46Z</time>
      </trkpt>
      <trkpt lat="42.519325" lon="-0.84765685">
        <time>2022-07-05T09:14:49Z</time>
      </trkpt>
      <trkpt lat="42.51927" lon="-0.84770787">
        <time>2022-07-05T09:14:53Z</time>
      </trkpt>
      <trkpt lat="42.51923" lon="-0.84774816">
        <time>2022-07-05T09:14:56Z</time>
      </trkpt>
      <trkpt lat="42.519173" lon="-0.84780115">
        <time>2022-07-05T09:15:00Z</time>
      </trkpt>
      <trkpt lat="42.519127" lon="-0.8478335">
        <time>2022-07-05T09:15:03Z</time>
      </trkpt>
      <trkpt lat="42.519073" lon="-0.84785885">
        <time>2022-07-05T09:15:06Z</time>
      </trkpt>
      <trkpt lat="42.519024" lon="-0.8478815">
        <time>2022-07-05T09:15:09Z</time>
      </trkpt>
      <trkpt lat="42.51898" lon="-0.84790415">
        <time>2022-07-05T09:15:12Z</time>
      </trkpt>
      <trkpt lat="42.518913" lon="-0.8479378">
        <time>2022-07-05T09:15:16Z</time>
      </trkpt>
      <trkpt lat="42.518867" lon="-0.84795946">
        <time>2022-07-05T09:15:19Z</time>
      </trkpt>
      <trkpt lat="42.518806" lon="-0.8479878">
        <time>2022-07-05T09:15:23Z</time>
      </trkpt>
      <trkpt lat="42.518734" lon="-0.8480288">
        <time>2022-07-05T09:15:28Z</time>
      </trkpt>
      <trkpt lat="42.518673" lon="-0.84805715">
        <time>2022-07-05T09:15:32Z</time>
      </trkpt>
      <trkpt lat="42.51862" lon="-0.8480865">
        <time>2022-07-05T09:15:36Z</time>
      </trkpt>
      <trkpt lat="42.518566" lon="-0.8481108">
        <time>2022-07-05T09:15:40Z</time>
      </trkpt>
      <trkpt lat="42.518513" lon="-0.8481364">
        <time>2022-07-05T09:15:44Z</time>
      </trkpt>
      <trkpt lat="42.518456" lon="-0.84815675">
        <time>2022-07-05T09:15:48Z</time>
      </trkpt>
      <trkpt lat="42.518406" lon="-0.8481818">
        <time>2022-07-05T09:15:52Z</time>
      </trkpt>
      <trkpt lat="42.51835" lon="-0.8482098">
        <time>2022-07-05T09:15:56Z</time>
      </trkpt>
      <trkpt lat="42.51829" lon="-0.8482398">
        <time>2022-07-05T09:16:00Z</time>
      </trkpt>
      <trkpt lat="42.51823" lon="-0.8482548">
        <time>2022-07-05T09:16:04Z</time>
      </trkpt>
      <trkpt lat="42.518185" lon="-0.8482601">
        <time>2022-07-05T09:16:07Z</time>
      </trkpt>
      <trkpt lat="42.51812" lon="-0.84829277">
        <time>2022-07-05T09:16:11Z</time>
      </trkpt>
      <trkpt lat="42.518078" lon="-0.84832877">
        <time>2022-07-05T09:16:14Z</time>
      </trkpt>
      <trkpt lat="42.518032" lon="-0.8483654">
        <time>2022-07-05T09:16:17Z</time>
      </trkpt>
      <trkpt lat="42.517967" lon="-0.84839875">
        <time>2022-07-05T09:16:21Z</time>
      </trkpt>
      <trkpt lat="42.51792" lon="-0.8484131">
        <time>2022-07-05T09:16:24Z</time>
      </trkpt>
      <trkpt lat="42.517853" lon="-0.8484281">
        <time>2022-07-05T09:16:28Z</time>
      </trkpt>
      <trkpt lat="42.517807" lon="-0.84842306">
        <time>2022-07-05T09:16:31Z</time>
      </trkpt>
      <trkpt lat="42.517746" lon="-0.8484031">
        <time>2022-07-05T09:16:35Z</time>
      </trkpt>
      <trkpt lat="42.5177" lon="-0.8483838">
        <time>2022-07-05T09:16:38Z</time>
      </trkpt>
      <trkpt lat="42.51764" lon="-0.8483504">
        <time>2022-07-05T09:16:42Z</time>
      </trkpt>
      <trkpt lat="42.51758" lon="-0.8483154">
        <time>2022-07-05T09:16:46Z</time>
      </trkpt>
      <trkpt lat="42.517532" lon="-0.8482848">
        <time>2022-07-05T09:16:49Z</time>
      </trkpt>
      <trkpt lat="42.517487" lon="-0.84825176">
        <time>2022-07-05T09:16:52Z</time>
      </trkpt>
      <trkpt lat="42.517437" lon="-0.8482151">
        <time>2022-07-05T09:16:55Z</time>
      </trkpt>
      <trkpt lat="42.517387" lon="-0.8481711">
        <time>2022-07-05T09:16:58Z</time>
      </trkpt>
      <trkpt lat="42.517334" lon="-0.8481228">
        <time>2022-07-05T09:17:01Z</time>
      </trkpt>
      <trkpt lat="42.51729" lon="-0.8480738">
        <time>2022-07-05T09:17:04Z</time>
      </trkpt>
      <trkpt lat="42.51724" lon="-0.8480271">
        <time>2022-07-05T09:17:07Z</time>
      </trkpt>
      <trkpt lat="42.517185" lon="-0.8479818">
        <time>2022-07-05T09:17:10Z</time>
      </trkpt>
      <trkpt lat="42.51714" lon="-0.8479348">
        <time>2022-07-05T09:17:13Z</time>
      </trkpt>
      <trkpt lat="42.517094" lon="-0.8478805">
        <time>2022-07-05T09:17:16Z</time>
      </trkpt>
      <trkpt lat="42.517048" lon="-0.8478251">
        <time>2022-07-05T09:17:19Z</time>
      </trkpt>
      <trkpt lat="42.51701" lon="-0.8477571">
        <time>2022-07-05T09:17:22Z</time>
      </trkpt>
      <trkpt lat="42.51697" lon="-0.8476848">
        <time>2022-07-05T09:17:25Z</time>
      </trkpt>
      <trkpt lat="42.51694" lon="-0.8476108">
        <time>2022-07-05T09:17:28Z</time>
      </trkpt>
      <trkpt lat="42.516914" lon="-0.8475355">
        <time>2022-07-05T09:17:31Z</time>
      </trkpt>
      <trkpt lat="42.516888" lon="-0.8474608">
        <time>2022-07-05T09:17:34Z</time>
      </trkpt>
      <trkpt lat="42.516857" lon="-0.84738714">
        <time>2022-07-05T09:17:37Z</time>
      </trkpt>
      <trkpt lat="42.516827" lon="-0.84731483">
        <time>2022-07-05T09:17:40Z</time>
      </trkpt>
      <trkpt lat="42.516796" lon="-0.8472445">
        <time>2022-07-05T09:17:43Z</time>
      </trkpt>
      <trkpt lat="42.51676" lon="-0.8471825">
        <time>2022-07-05T09:17:46Z</time>
      </trkpt>
      <trkpt lat="42.51672" lon="-0.8471635">
        <time>2022-07-05T09:17:49Z</time>
      </trkpt>
      <trkpt lat="42.516663" lon="-0.8471875">
        <time>2022-07-05T09:17:53Z</time>
      </trkpt>
      <trkpt lat="42.516613" lon="-0.84722215">
        <time>2022-07-05T09:17:57Z</time>
      </trkpt>
      <trkpt lat="42.516567" lon="-0.8472678">
        <time>2022-07-05T09:18:01Z</time>
      </trkpt>
      <trkpt lat="42.516518" lon="-0.84731644">
        <time>2022-07-05T09:18:05Z</time>
      </trkpt>
      <trkpt lat="42.51647" lon="-0.8473548">
        <time>2022-07-05T09:18:09Z</time>
      </trkpt>
      <trkpt lat="42.516422" lon="-0.8473948">
        <time>2022-07-05T09:18:13Z</time>
      </trkpt>
      <trkpt lat="42.516376" lon="-0.84743845">
        <time>2022-07-05T09:18:17Z</time>
      </trkpt>
      <trkpt lat="42.51633" lon="-0.84748614">
        <time>2022-07-05T09:18:21Z</time>
      </trkpt>
      <trkpt lat="42.51628" lon="-0.8475321">
        <time>2022-07-05T09:18:25Z</time>
      </trkpt>
      <trkpt lat="42.51624" lon="-0.8475661">
        <time>2022-07-05T09:18:28Z</time>
      </trkpt>
      <trkpt lat="42.516174" lon="-0.84759676">
        <time>2022-07-05T09:18:32Z</time>
      </trkpt>
      <trkpt lat="42.516125" lon="-0.8476131">
        <time>2022-07-05T09:18:35Z</time>
      </trkpt>
      <trkpt lat="42.516064" lon="-0.8476288">
        <time>2022-07-05T09:18:38Z</time>
      </trkpt>
      <trkpt lat="42.51601" lon="-0.84763676">
        <time>2022-07-05T09:18:41Z</time>
      </trkpt>
      <trkpt lat="42.51596" lon="-0.8476218">
        <time>2022-07-05T09:18:44Z</time>
      </trkpt>
      <trkpt lat="42.515907" lon="-0.8475831">
        <time>2022-07-05T09:18:47Z</time>
      </trkpt>
      <trkpt lat="42.51586" lon="-0.8475214">
        <time>2022-07-05T09:18:50Z</time>
      </trkpt>
      <trkpt lat="42.515827" lon="-0.84743845">
        <time>2022-07-05T09:18:53Z</time>
      </trkpt>
      <trkpt lat="42.515804" lon="-0.84737647">
        <time>2022-07-05T09:18:55Z</time>
      </trkpt>
      <trkpt lat="42.51578" lon="-0.8472938">
        <time>2022-07-05T09:18:58Z</time>
      </trkpt>
      <trkpt lat="42.515717" lon="-0.84719914">
        <time>2022-07-05T09:21:12Z</time>
      </trkpt>
      <trkpt lat="42.51569" lon="-0.84710544">
        <time>2022-07-05T09:21:15Z</time>
      </trkpt>
      <trkpt lat="42.51567" lon="-0.84703416">
        <time>2022-07-05T09:21:17Z</time>
      </trkpt>
      <trkpt lat="42.51565" lon="-0.8469555">
        <time>2022-07-05T09:21:19Z</time>
      </trkpt>
      <trkpt lat="42.515636" lon="-0.8468728">
        <time>2022-07-05T09:21:21Z</time>
      </trkpt>
      <trkpt lat="42.51561" lon="-0.8467815">
        <time>2022-07-05T09:21:23Z</time>
      </trkpt>
      <trkpt lat="42.515575" lon="-0.8466905">
        <time>2022-07-05T09:21:25Z</time>
      </trkpt>
      <trkpt lat="42.51553" lon="-0.8466002">
        <time>2022-07-05T09:21:27Z</time>
      </trkpt>
      <trkpt lat="42.515465" lon="-0.8465175">
        <time>2022-07-05T09:21:29Z</time>
      </trkpt>
      <trkpt lat="42.51538" lon="-0.8464485">
        <time>2022-07-05T09:21:31Z</time>
      </trkpt>
      <trkpt lat="42.515335" lon="-0.84641284">
        <time>2022-07-05T09:21:32Z</time>
      </trkpt>
      <trkpt lat="42.51529" lon="-0.84638053">
        <time>2022-07-05T09:21:33Z</time>
      </trkpt>
      <trkpt lat="42.515198" lon="-0.84630984">
        <time>2022-07-05T09:21:35Z</time>
      </trkpt>
      <trkpt lat="42.515156" lon="-0.8462675">
        <time>2022-07-05T09:21:36Z</time>
      </trkpt>
      <trkpt lat="42.515114" lon="-0.84621584">
        <time>2022-07-05T09:21:37Z</time>
      </trkpt>
      <trkpt lat="42.515076" lon="-0.84616154">
        <time>2022-07-05T09:21:38Z</time>
      </trkpt>
      <trkpt lat="42.515045" lon="-0.84610486">
        <time>2022-07-05T09:21:39Z</time>
      </trkpt>
      <trkpt lat="42.51502" lon="-0.8460472">
        <time>2022-07-05T09:21:40Z</time>
      </trkpt>
      <trkpt lat="42.51499" lon="-0.8459892">
        <time>2022-07-05T09:21:41Z</time>
      </trkpt>
      <trkpt lat="42.51495" lon="-0.8458766">
        <time>2022-07-05T09:21:43Z</time>
      </trkpt>
      <trkpt lat="42.51489" lon="-0.8457109">
        <time>2022-07-05T09:21:46Z</time>
      </trkpt>
      <trkpt lat="42.514854" lon="-0.84560823">
        <time>2022-07-05T09:21:48Z</time>
      </trkpt>
      <trkpt lat="42.514816" lon="-0.84550154">
        <time>2022-07-05T09:21:50Z</time>
      </trkpt>
      <trkpt lat="42.514786" lon="-0.8453962">
        <time>2022-07-05T09:21:52Z</time>
      </trkpt>
      <trkpt lat="42.51476" lon="-0.8452886">
        <time>2022-07-05T09:21:54Z</time>
      </trkpt>
      <trkpt lat="42.514744" lon="-0.84517825">
        <time>2022-07-05T09:21:56Z</time>
      </trkpt>
      <trkpt lat="42.514732" lon="-0.8450683">
        <time>2022-07-05T09:21:58Z</time>
      </trkpt>
      <trkpt lat="42.51474" lon="-0.84495825">
        <time>2022-07-05T09:22:00Z</time>
      </trkpt>
      <trkpt lat="42.51475" lon="-0.8448519">
        <time>2022-07-05T09:22:02Z</time>
      </trkpt>
      <trkpt lat="42.514774" lon="-0.84474695">
        <time>2022-07-05T09:22:04Z</time>
      </trkpt>
      <trkpt lat="42.514797" lon="-0.8446406">
        <time>2022-07-05T09:22:06Z</time>
      </trkpt>
      <trkpt lat="42.514816" lon="-0.84454125">
        <time>2022-07-05T09:22:08Z</time>
      </trkpt>
      <trkpt lat="42.51484" lon="-0.84444696">
        <time>2022-07-05T09:22:10Z</time>
      </trkpt>
      <trkpt lat="42.51486" lon="-0.8443586">
        <time>2022-07-05T09:22:12Z</time>
      </trkpt>
      <trkpt lat="42.514874" lon="-0.84427094">
        <time>2022-07-05T09:22:14Z</time>
      </trkpt>
      <trkpt lat="42.51488" lon="-0.84418094">
        <time>2022-07-05T09:22:16Z</time>
      </trkpt>
      <trkpt lat="42.51488" lon="-0.8440903">
        <time>2022-07-05T09:22:18Z</time>
      </trkpt>
      <trkpt lat="42.514877" lon="-0.844004">
        <time>2022-07-05T09:22:20Z</time>
      </trkpt>
      <trkpt lat="42.514862" lon="-0.84391093">
        <time>2022-07-05T09:22:22Z</time>
      </trkpt>
      <trkpt lat="42.514843" lon="-0.84380627">
        <time>2022-07-05T09:22:24Z</time>
      </trkpt>
      <trkpt lat="42.514812" lon="-0.84369427">
        <time>2022-07-05T09:22:26Z</time>
      </trkpt>
      <trkpt lat="42.514774" lon="-0.84356993">
        <time>2022-07-05T09:22:28Z</time>
      </trkpt>
      <trkpt lat="42.51475" lon="-0.84350294">
        <time>2022-07-05T09:22:29Z</time>
      </trkpt>
      <trkpt lat="42.514732" lon="-0.8434263">
        <time>2022-07-05T09:22:30Z</time>
      </trkpt>
      <trkpt lat="42.51471" lon="-0.8433523">
        <time>2022-07-05T09:22:31Z</time>
      </trkpt>
      <trkpt lat="42.51469" lon="-0.843274">
        <time>2022-07-05T09:22:32Z</time>
      </trkpt>
      <trkpt lat="42.51467" lon="-0.84318495">
        <time>2022-07-05T09:22:33Z</time>
      </trkpt>
      <trkpt lat="42.514652" lon="-0.84309334">
        <time>2022-07-05T09:22:34Z</time>
      </trkpt>
      <trkpt lat="42.514633" lon="-0.8430053">
        <time>2022-07-05T09:22:35Z</time>
      </trkpt>
      <trkpt lat="42.514614" lon="-0.84291196">
        <time>2022-07-05T09:22:36Z</time>
      </trkpt>
      <trkpt lat="42.5146" lon="-0.842806">
        <time>2022-07-05T09:22:37Z</time>
      </trkpt>
      <trkpt lat="42.51458" lon="-0.84269834">
        <time>2022-07-05T09:22:38Z</time>
      </trkpt>
      <trkpt lat="42.514565" lon="-0.842588">
        <time>2022-07-05T09:22:39Z</time>
      </trkpt>
      <trkpt lat="42.51455" lon="-0.8424763">
        <time>2022-07-05T09:22:40Z</time>
      </trkpt>
      <trkpt lat="42.514534" lon="-0.842363">
        <time>2022-07-05T09:22:41Z</time>
      </trkpt>
      <trkpt lat="42.514523" lon="-0.84224665">
        <time>2022-07-05T09:22:42Z</time>
      </trkpt>
      <trkpt lat="42.514507" lon="-0.842129">
        <time>2022-07-05T09:22:43Z</time>
      </trkpt>
      <trkpt lat="42.514492" lon="-0.84200966">
        <time>2022-07-05T09:22:44Z</time>
      </trkpt>
      <trkpt lat="42.514477" lon="-0.8418893">
        <time>2022-07-05T09:22:45Z</time>
      </trkpt>
      <trkpt lat="42.514446" lon="-0.8416464">
        <time>2022-07-05T09:22:47Z</time>
      </trkpt>
      <trkpt lat="42.51443" lon="-0.841533">
        <time>2022-07-05T09:22:48Z</time>
      </trkpt>
      <trkpt lat="42.514416" lon="-0.8414107">
        <time>2022-07-05T09:22:49Z</time>
      </trkpt>
      <trkpt lat="42.514404" lon="-0.841291">
        <time>2022-07-05T09:22:50Z</time>
      </trkpt>
      <trkpt lat="42.51439" lon="-0.841175">
        <time>2022-07-05T09:22:51Z</time>
      </trkpt>
      <trkpt lat="42.514374" lon="-0.84106106">
        <time>2022-07-05T09:22:52Z</time>
      </trkpt>
      <trkpt lat="42.51436" lon="-0.84095037">
        <time>2022-07-05T09:22:53Z</time>
      </trkpt>
      <trkpt lat="42.514347" lon="-0.84084404">
        <time>2022-07-05T09:22:54Z</time>
      </trkpt>
      <trkpt lat="42.51433" lon="-0.84074">
        <time>2022-07-05T09:22:55Z</time>
      </trkpt>
      <trkpt lat="42.51432" lon="-0.84063804">
        <time>2022-07-05T09:22:56Z</time>
      </trkpt>
      <trkpt lat="42.51431" lon="-0.8405447">
        <time>2022-07-05T09:22:57Z</time>
      </trkpt>
      <trkpt lat="42.514294" lon="-0.840444">
        <time>2022-07-05T09:22:58Z</time>
      </trkpt>
      <trkpt lat="42.51428" lon="-0.84034437">
        <time>2022-07-05T09:22:59Z</time>
      </trkpt>
      <trkpt lat="42.514267" lon="-0.8402474">
        <time>2022-07-05T09:23:00Z</time>
      </trkpt>
      <trkpt lat="42.514256" lon="-0.8401517">
        <time>2022-07-05T09:23:01Z</time>
      </trkpt>
      <trkpt lat="42.514244" lon="-0.8400657">
        <time>2022-07-05T09:23:02Z</time>
      </trkpt>
      <trkpt lat="42.514233" lon="-0.8399797">
        <time>2022-07-05T09:23:03Z</time>
      </trkpt>
      <trkpt lat="42.514225" lon="-0.8398881">
        <time>2022-07-05T09:23:04Z</time>
      </trkpt>
      <trkpt lat="42.514217" lon="-0.8397994">
        <time>2022-07-05T09:23:05Z</time>
      </trkpt>
      <trkpt lat="42.514214" lon="-0.8397124">
        <time>2022-07-05T09:23:06Z</time>
      </trkpt>
      <trkpt lat="42.51421" lon="-0.83962643">
        <time>2022-07-05T09:23:07Z</time>
      </trkpt>
      <trkpt lat="42.51421" lon="-0.83954805">
        <time>2022-07-05T09:23:08Z</time>
      </trkpt>
      <trkpt lat="42.51421" lon="-0.8394638">
        <time>2022-07-05T09:23:09Z</time>
      </trkpt>
      <trkpt lat="42.514214" lon="-0.83938175">
        <time>2022-07-05T09:23:10Z</time>
      </trkpt>
      <trkpt lat="42.51422" lon="-0.8393014">
        <time>2022-07-05T09:23:11Z</time>
      </trkpt>
      <trkpt lat="42.514225" lon="-0.83922243">
        <time>2022-07-05T09:23:12Z</time>
      </trkpt>
      <trkpt lat="42.51423" lon="-0.8391498">
        <time>2022-07-05T09:23:13Z</time>
      </trkpt>
      <trkpt lat="42.514233" lon="-0.8390761">
        <time>2022-07-05T09:23:14Z</time>
      </trkpt>
      <trkpt lat="42.51424" lon="-0.83899844">
        <time>2022-07-05T09:23:15Z</time>
      </trkpt>
      <trkpt lat="42.514244" lon="-0.8389231">
        <time>2022-07-05T09:23:16Z</time>
      </trkpt>
      <trkpt lat="42.51425" lon="-0.8388491">
        <time>2022-07-05T09:23:17Z</time>
      </trkpt>
      <trkpt lat="42.514256" lon="-0.83877814">
        <time>2022-07-05T09:23:18Z</time>
      </trkpt>
      <trkpt lat="42.51426" lon="-0.8387095">
        <time>2022-07-05T09:23:19Z</time>
      </trkpt>
      <trkpt lat="42.51427" lon="-0.8385848">
        <time>2022-07-05T09:23:21Z</time>
      </trkpt>
      <trkpt lat="42.514282" lon="-0.83847046">
        <time>2022-07-05T09:23:23Z</time>
      </trkpt>
      <trkpt lat="42.514294" lon="-0.8383648">
        <time>2022-07-05T09:23:25Z</time>
      </trkpt>
      <trkpt lat="42.51431" lon="-0.8382695">
        <time>2022-07-05T09:23:27Z</time>
      </trkpt>
      <trkpt lat="42.514324" lon="-0.8381798">
        <time>2022-07-05T09:23:29Z</time>
      </trkpt>
      <trkpt lat="42.514343" lon="-0.8380968">
        <time>2022-07-05T09:23:31Z</time>
      </trkpt>
      <trkpt lat="42.514362" lon="-0.8380231">
        <time>2022-07-05T09:23:33Z</time>
      </trkpt>
      <trkpt lat="42.51438" lon="-0.8379515">
        <time>2022-07-05T09:23:35Z</time>
      </trkpt>
      <trkpt lat="42.514397" lon="-0.83788115">
        <time>2022-07-05T09:23:37Z</time>
      </trkpt>
      <trkpt lat="42.514412" lon="-0.83781385">
        <time>2022-07-05T09:23:39Z</time>
      </trkpt>
      <trkpt lat="42.51443" lon="-0.8377475">
        <time>2022-07-05T09:23:41Z</time>
      </trkpt>
      <trkpt lat="42.514446" lon="-0.83767915">
        <time>2022-07-05T09:23:43Z</time>
      </trkpt>
      <trkpt lat="42.514465" lon="-0.8376155">
        <time>2022-07-05T09:23:45Z</time>
      </trkpt>
      <trkpt lat="42.51449" lon="-0.83751786">
        <time>2022-07-05T09:23:48Z</time>
      </trkpt>
      <trkpt lat="42.514507" lon="-0.8374512">
        <time>2022-07-05T09:23:50Z</time>
      </trkpt>
      <trkpt lat="42.51453" lon="-0.8373522">
        <time>2022-07-05T09:23:53Z</time>
      </trkpt>
      <trkpt lat="42.51455" lon="-0.8372832">
        <time>2022-07-05T09:23:55Z</time>
      </trkpt>
      <trkpt lat="42.51457" lon="-0.83721584">
        <time>2022-07-05T09:23:57Z</time>
      </trkpt>
      <trkpt lat="42.51458" lon="-0.83715254">
        <time>2022-07-05T09:23:59Z</time>
      </trkpt>
      <trkpt lat="42.5146" lon="-0.8370345">
        <time>2022-07-05T09:24:03Z</time>
      </trkpt>
      <trkpt lat="42.51461" lon="-0.8369462">
        <time>2022-07-05T09:24:06Z</time>
      </trkpt>
      <trkpt lat="42.514626" lon="-0.83685356">
        <time>2022-07-05T09:24:09Z</time>
      </trkpt>
      <trkpt lat="42.51464" lon="-0.8367649">
        <time>2022-07-05T09:24:12Z</time>
      </trkpt>
      <trkpt lat="42.514656" lon="-0.8366792">
        <time>2022-07-05T09:24:15Z</time>
      </trkpt>
      <trkpt lat="42.514668" lon="-0.8365919">
        <time>2022-07-05T09:24:18Z</time>
      </trkpt>
      <trkpt lat="42.51468" lon="-0.8365049">
        <time>2022-07-05T09:24:21Z</time>
      </trkpt>
      <trkpt lat="42.514694" lon="-0.8364192">
        <time>2022-07-05T09:24:24Z</time>
      </trkpt>
      <trkpt lat="42.514706" lon="-0.8363329">
        <time>2022-07-05T09:24:27Z</time>
      </trkpt>
      <trkpt lat="42.514717" lon="-0.83624023">
        <time>2022-07-05T09:24:30Z</time>
      </trkpt>
      <trkpt lat="42.514725" lon="-0.8361776">
        <time>2022-07-05T09:24:32Z</time>
      </trkpt>
      <trkpt lat="42.51474" lon="-0.8360823">
        <time>2022-07-05T09:24:35Z</time>
      </trkpt>
      <trkpt lat="42.51475" lon="-0.8360206">
        <time>2022-07-05T09:24:37Z</time>
      </trkpt>
      <trkpt lat="42.514767" lon="-0.8359276">
        <time>2022-07-05T09:24:40Z</time>
      </trkpt>
      <trkpt lat="42.51478" lon="-0.83583957">
        <time>2022-07-05T09:24:43Z</time>
      </trkpt>
      <trkpt lat="42.514797" lon="-0.8357486">
        <time>2022-07-05T09:24:46Z</time>
      </trkpt>
      <trkpt lat="42.514828" lon="-0.8356603">
        <time>2022-07-05T09:24:49Z</time>
      </trkpt>
      <trkpt lat="42.51486" lon="-0.8355756">
        <time>2022-07-05T09:24:52Z</time>
      </trkpt>
      <trkpt lat="42.514893" lon="-0.83549625">
        <time>2022-07-05T09:24:55Z</time>
      </trkpt>
      <trkpt lat="42.51493" lon="-0.8354193">
        <time>2022-07-05T09:24:58Z</time>
      </trkpt>
      <trkpt lat="42.514973" lon="-0.83534193">
        <time>2022-07-05T09:25:01Z</time>
      </trkpt>
      <trkpt lat="42.515" lon="-0.83529097">
        <time>2022-07-05T09:25:03Z</time>
      </trkpt>
      <trkpt lat="42.515034" lon="-0.8352156">
        <time>2022-07-05T09:25:06Z</time>
      </trkpt>
      <trkpt lat="42.515076" lon="-0.83513296">
        <time>2022-07-05T09:25:09Z</time>
      </trkpt>
      <trkpt lat="42.515102" lon="-0.83507293">
        <time>2022-07-05T09:25:11Z</time>
      </trkpt>
      <trkpt lat="42.515137" lon="-0.8349866">
        <time>2022-07-05T09:25:14Z</time>
      </trkpt>
      <trkpt lat="42.515167" lon="-0.8348946">
        <time>2022-07-05T09:25:17Z</time>
      </trkpt>
      <trkpt lat="42.515186" lon="-0.8348323">
        <time>2022-07-05T09:25:19Z</time>
      </trkpt>
      <trkpt lat="42.515213" lon="-0.8347423">
        <time>2022-07-05T09:25:22Z</time>
      </trkpt>
      <trkpt lat="42.51524" lon="-0.8346486">
        <time>2022-07-05T09:25:25Z</time>
      </trkpt>
      <trkpt lat="42.515266" lon="-0.8345553">
        <time>2022-07-05T09:25:28Z</time>
      </trkpt>
      <trkpt lat="42.51529" lon="-0.8344683">
        <time>2022-07-05T09:25:31Z</time>
      </trkpt>
      <trkpt lat="42.515305" lon="-0.834372">
        <time>2022-07-05T09:25:34Z</time>
      </trkpt>
      <trkpt lat="42.515305" lon="-0.834268">
        <time>2022-07-05T09:25:37Z</time>
      </trkpt>
      <trkpt lat="42.515297" lon="-0.8341983">
        <time>2022-07-05T09:25:39Z</time>
      </trkpt>
      <trkpt lat="42.51528" lon="-0.83413166">
        <time>2022-07-05T09:25:41Z</time>
      </trkpt>
      <trkpt lat="42.515247" lon="-0.8340383">
        <time>2022-07-05T09:25:44Z</time>
      </trkpt>
      <trkpt lat="42.515217" lon="-0.83398134">
        <time>2022-07-05T09:25:46Z</time>
      </trkpt>
      <trkpt lat="42.51518" lon="-0.833927">
        <time>2022-07-05T09:25:48Z</time>
      </trkpt>
      <trkpt lat="42.515133" lon="-0.83387536">
        <time>2022-07-05T09:25:50Z</time>
      </trkpt>
      <trkpt lat="42.51507" lon="-0.83382833">
        <time>2022-07-05T09:25:52Z</time>
      </trkpt>
      <trkpt lat="42.515003" lon="-0.8337863">
        <time>2022-07-05T09:25:54Z</time>
      </trkpt>
      <trkpt lat="42.514923" lon="-0.8337467">
        <time>2022-07-05T09:25:56Z</time>
      </trkpt>
      <trkpt lat="42.514835" lon="-0.833711">
        <time>2022-07-05T09:25:58Z</time>
      </trkpt>
      <trkpt lat="42.51479" lon="-0.8336933">
        <time>2022-07-05T09:25:59Z</time>
      </trkpt>
      <trkpt lat="42.514694" lon="-0.8336483">
        <time>2022-07-05T09:26:01Z</time>
      </trkpt>
      <trkpt lat="42.514645" lon="-0.833619">
        <time>2022-07-05T09:26:02Z</time>
      </trkpt>
      <trkpt lat="42.5146" lon="-0.83358467">
        <time>2022-07-05T09:26:03Z</time>
      </trkpt>
      <trkpt lat="42.514553" lon="-0.8335447">
        <time>2022-07-05T09:26:04Z</time>
      </trkpt>
      <trkpt lat="42.514507" lon="-0.83349967">
        <time>2022-07-05T09:26:05Z</time>
      </trkpt>
      <trkpt lat="42.51447" lon="-0.83344805">
        <time>2022-07-05T09:26:06Z</time>
      </trkpt>
      <trkpt lat="42.51443" lon="-0.8333917">
        <time>2022-07-05T09:26:07Z</time>
      </trkpt>
      <trkpt lat="42.514393" lon="-0.8333297">
        <time>2022-07-05T09:26:08Z</time>
      </trkpt>
      <trkpt lat="42.514362" lon="-0.83326435">
        <time>2022-07-05T09:26:09Z</time>
      </trkpt>
      <trkpt lat="42.51433" lon="-0.8331977">
        <time>2022-07-05T09:26:10Z</time>
      </trkpt>
      <trkpt lat="42.5143" lon="-0.83312774">
        <time>2022-07-05T09:26:11Z</time>
      </trkpt>
      <trkpt lat="42.51427" lon="-0.83305603">
        <time>2022-07-05T09:26:12Z</time>
      </trkpt>
      <trkpt lat="42.514244" lon="-0.8329827">
        <time>2022-07-05T09:26:13Z</time>
      </trkpt>
      <trkpt lat="42.514214" lon="-0.83290905">
        <time>2022-07-05T09:26:14Z</time>
      </trkpt>
      <trkpt lat="42.514183" lon="-0.83283406">
        <time>2022-07-05T09:26:15Z</time>
      </trkpt>
      <trkpt lat="42.514153" lon="-0.8327594">
        <time>2022-07-05T09:26:16Z</time>
      </trkpt>
      <trkpt lat="42.514122" lon="-0.8326834">
        <time>2022-07-05T09:26:17Z</time>
      </trkpt>
      <trkpt lat="42.51409" lon="-0.8326064">
        <time>2022-07-05T09:26:18Z</time>
      </trkpt>
      <trkpt lat="42.514057" lon="-0.8325314">
        <time>2022-07-05T09:26:19Z</time>
      </trkpt>
      <trkpt lat="42.514023" lon="-0.83245873">
        <time>2022-07-05T09:26:20Z</time>
      </trkpt>
      <trkpt lat="42.51398" lon="-0.8323894">
        <time>2022-07-05T09:26:21Z</time>
      </trkpt>
      <trkpt lat="42.513935" lon="-0.8323244">
        <time>2022-07-05T09:26:22Z</time>
      </trkpt>
      <trkpt lat="42.513885" lon="-0.83226305">
        <time>2022-07-05T09:26:23Z</time>
      </trkpt>
      <trkpt lat="42.513832" lon="-0.83220375">
        <time>2022-07-05T09:26:24Z</time>
      </trkpt>
      <trkpt lat="42.513783" lon="-0.8321478">
        <time>2022-07-05T09:26:25Z</time>
      </trkpt>
      <trkpt lat="42.51373" lon="-0.8320941">
        <time>2022-07-05T09:26:26Z</time>
      </trkpt>
      <trkpt lat="42.51368" lon="-0.8320421">
        <time>2022-07-05T09:26:27Z</time>
      </trkpt>
      <trkpt lat="42.513626" lon="-0.83199143">
        <time>2022-07-05T09:26:28Z</time>
      </trkpt>
      <trkpt lat="42.513577" lon="-0.8319401">
        <time>2022-07-05T09:26:29Z</time>
      </trkpt>
      <trkpt lat="42.513527" lon="-0.8318861">
        <time>2022-07-05T09:26:30Z</time>
      </trkpt>
      <trkpt lat="42.51348" lon="-0.8318308">
        <time>2022-07-05T09:26:31Z</time>
      </trkpt>
      <trkpt lat="42.513435" lon="-0.8317741">
        <time>2022-07-05T09:26:32Z</time>
      </trkpt>
      <trkpt lat="42.51335" lon="-0.8316581">
        <time>2022-07-05T09:26:34Z</time>
      </trkpt>
      <trkpt lat="42.51331" lon="-0.8315971">
        <time>2022-07-05T09:26:35Z</time>
      </trkpt>
      <trkpt lat="42.51327" lon="-0.8315351">
        <time>2022-07-05T09:26:36Z</time>
      </trkpt>
      <trkpt lat="42.513233" lon="-0.83147144">
        <time>2022-07-05T09:26:37Z</time>
      </trkpt>
      <trkpt lat="42.5132" lon="-0.8314058">
        <time>2022-07-05T09:26:38Z</time>
      </trkpt>
      <trkpt lat="42.51316" lon="-0.83133847">
        <time>2022-07-05T09:26:39Z</time>
      </trkpt>
      <trkpt lat="42.51313" lon="-0.8312711">
        <time>2022-07-05T09:26:40Z</time>
      </trkpt>
      <trkpt lat="42.513096" lon="-0.8312048">
        <time>2022-07-05T09:26:41Z</time>
      </trkpt>
      <trkpt lat="42.51306" lon="-0.83113915">
        <time>2022-07-05T09:26:42Z</time>
      </trkpt>
      <trkpt lat="42.51303" lon="-0.8310741">
        <time>2022-07-05T09:26:43Z</time>
      </trkpt>
      <trkpt lat="42.513004" lon="-0.83100814">
        <time>2022-07-05T09:26:44Z</time>
      </trkpt>
      <trkpt lat="42.512974" lon="-0.83094114">
        <time>2022-07-05T09:26:45Z</time>
      </trkpt>
      <trkpt lat="42.512947" lon="-0.83087546">
        <time>2022-07-05T09:26:46Z</time>
      </trkpt>
      <trkpt lat="42.51292" lon="-0.83081114">
        <time>2022-07-05T09:26:47Z</time>
      </trkpt>
      <trkpt lat="42.512894" lon="-0.8307471">
        <time>2022-07-05T09:26:48Z</time>
      </trkpt>
      <trkpt lat="42.512867" lon="-0.8306838">
        <time>2022-07-05T09:26:49Z</time>
      </trkpt>
      <trkpt lat="42.512844" lon="-0.83062017">
        <time>2022-07-05T09:26:50Z</time>
      </trkpt>
      <trkpt lat="42.512802" lon="-0.8304925">
        <time>2022-07-05T09:26:52Z</time>
      </trkpt>
      <trkpt lat="42.512783" lon="-0.8304285">
        <time>2022-07-05T09:26:53Z</time>
      </trkpt>
      <trkpt lat="42.512764" lon="-0.8303648">
        <time>2022-07-05T09:26:54Z</time>
      </trkpt>
      <trkpt lat="42.51274" lon="-0.8302362">
        <time>2022-07-05T09:26:56Z</time>
      </trkpt>
      <trkpt lat="42.512733" lon="-0.83010983">
        <time>2022-07-05T09:26:58Z</time>
      </trkpt>
      <trkpt lat="42.512733" lon="-0.83004785">
        <time>2022-07-05T09:26:59Z</time>
      </trkpt>
      <trkpt lat="42.51275" lon="-0.8299262">
        <time>2022-07-05T09:27:01Z</time>
      </trkpt>
      <trkpt lat="42.512768" lon="-0.8298079">
        <time>2022-07-05T09:27:03Z</time>
      </trkpt>
      <trkpt lat="42.512794" lon="-0.82969284">
        <time>2022-07-05T09:27:05Z</time>
      </trkpt>
      <trkpt lat="42.512817" lon="-0.8295785">
        <time>2022-07-05T09:27:07Z</time>
      </trkpt>
      <trkpt lat="42.512833" lon="-0.82946455">
        <time>2022-07-05T09:27:09Z</time>
      </trkpt>
      <trkpt lat="42.512848" lon="-0.8293455">
        <time>2022-07-05T09:27:11Z</time>
      </trkpt>
      <trkpt lat="42.512856" lon="-0.8292222">
        <time>2022-07-05T09:27:13Z</time>
      </trkpt>
      <trkpt lat="42.512856" lon="-0.8290932">
        <time>2022-07-05T09:27:15Z</time>
      </trkpt>
      <trkpt lat="42.51285" lon="-0.8290262">
        <time>2022-07-05T09:27:16Z</time>
      </trkpt>
      <trkpt lat="42.512848" lon="-0.82888055">
        <time>2022-07-05T09:27:18Z</time>
      </trkpt>
      <trkpt lat="42.51284" lon="-0.82880354">
        <time>2022-07-05T09:27:19Z</time>
      </trkpt>
      <trkpt lat="42.512833" lon="-0.82872355">
        <time>2022-07-05T09:27:20Z</time>
      </trkpt>
      <trkpt lat="42.51282" lon="-0.8286402">
        <time>2022-07-05T09:27:21Z</time>
      </trkpt>
      <trkpt lat="42.512806" lon="-0.8285552">
        <time>2022-07-05T09:27:22Z</time>
      </trkpt>
      <trkpt lat="42.512783" lon="-0.8284692">
        <time>2022-07-05T09:27:23Z</time>
      </trkpt>
      <trkpt lat="42.51276" lon="-0.8283819">
        <time>2022-07-05T09:27:24Z</time>
      </trkpt>
      <trkpt lat="42.512733" lon="-0.82829523">
        <time>2022-07-05T09:27:25Z</time>
      </trkpt>
      <trkpt lat="42.512707" lon="-0.8282096">
        <time>2022-07-05T09:27:26Z</time>
      </trkpt>
      <trkpt lat="42.512676" lon="-0.8281249">
        <time>2022-07-05T09:27:27Z</time>
      </trkpt>
      <trkpt lat="42.51264" lon="-0.8280396">
        <time>2022-07-05T09:27:28Z</time>
      </trkpt>
      <trkpt lat="42.51261" lon="-0.82795423">
        <time>2022-07-05T09:27:29Z</time>
      </trkpt>
      <trkpt lat="42.512577" lon="-0.8278686">
        <time>2022-07-05T09:27:30Z</time>
      </trkpt>
      <trkpt lat="42.512547" lon="-0.8277829">
        <time>2022-07-05T09:27:31Z</time>
      </trkpt>
      <trkpt lat="42.512512" lon="-0.8276986">
        <time>2022-07-05T09:27:32Z</time>
      </trkpt>
      <trkpt lat="42.512478" lon="-0.82761526">
        <time>2022-07-05T09:27:33Z</time>
      </trkpt>
      <trkpt lat="42.512447" lon="-0.8275336">
        <time>2022-07-05T09:27:34Z</time>
      </trkpt>
      <trkpt lat="42.512413" lon="-0.8274526">
        <time>2022-07-05T09:27:35Z</time>
      </trkpt>
      <trkpt lat="42.512383" lon="-0.82737225">
        <time>2022-07-05T09:27:36Z</time>
      </trkpt>
      <trkpt lat="42.512344" lon="-0.8272943">
        <time>2022-07-05T09:27:37Z</time>
      </trkpt>
      <trkpt lat="42.512306" lon="-0.82721895">
        <time>2022-07-05T09:27:38Z</time>
      </trkpt>
      <trkpt lat="42.512268" lon="-0.82714695">
        <time>2022-07-05T09:27:39Z</time>
      </trkpt>
      <trkpt lat="42.512222" lon="-0.8270793">
        <time>2022-07-05T09:27:40Z</time>
      </trkpt>
      <trkpt lat="42.512173" lon="-0.82701427">
        <time>2022-07-05T09:27:41Z</time>
      </trkpt>
      <trkpt lat="42.51212" lon="-0.82695264">
        <time>2022-07-05T09:27:42Z</time>
      </trkpt>
      <trkpt lat="42.512066" lon="-0.82689327">
        <time>2022-07-05T09:27:43Z</time>
      </trkpt>
      <trkpt lat="42.51201" lon="-0.82683897">
        <time>2022-07-05T09:27:44Z</time>
      </trkpt>
      <trkpt lat="42.511948" lon="-0.8267833">
        <time>2022-07-05T09:27:45Z</time>
      </trkpt>
      <trkpt lat="42.511883" lon="-0.826727">
        <time>2022-07-05T09:27:46Z</time>
      </trkpt>
      <trkpt lat="42.51181" lon="-0.8266633">
        <time>2022-07-05T09:27:47Z</time>
      </trkpt>
      <trkpt lat="42.511738" lon="-0.82659334">
        <time>2022-07-05T09:27:48Z</time>
      </trkpt>
      <trkpt lat="42.51168" lon="-0.8265193">
        <time>2022-07-05T09:27:49Z</time>
      </trkpt>
      <trkpt lat="42.511578" lon="-0.826321">
        <time>2022-07-05T09:27:51Z</time>
      </trkpt>
      <trkpt lat="42.511536" lon="-0.82620466">
        <time>2022-07-05T09:27:52Z</time>
      </trkpt>
      <trkpt lat="42.5115" lon="-0.82608235">
        <time>2022-07-05T09:27:53Z</time>
      </trkpt>
      <trkpt lat="42.51147" lon="-0.8259547">
        <time>2022-07-05T09:27:54Z</time>
      </trkpt>
      <trkpt lat="42.511448" lon="-0.8258233">
        <time>2022-07-05T09:27:55Z</time>
      </trkpt>
      <trkpt lat="42.511433" lon="-0.82568866">
        <time>2022-07-05T09:27:56Z</time>
      </trkpt>
      <trkpt lat="42.511425" lon="-0.8255517">
        <time>2022-07-05T09:27:57Z</time>
      </trkpt>
      <trkpt lat="42.51142" lon="-0.82541335">
        <time>2022-07-05T09:27:58Z</time>
      </trkpt>
      <trkpt lat="42.511425" lon="-0.825275">
        <time>2022-07-05T09:27:59Z</time>
      </trkpt>
      <trkpt lat="42.511433" lon="-0.82513636">
        <time>2022-07-05T09:28:00Z</time>
      </trkpt>
      <trkpt lat="42.511444" lon="-0.82499766">
        <time>2022-07-05T09:28:01Z</time>
      </trkpt>
      <trkpt lat="42.51145" lon="-0.82485837">
        <time>2022-07-05T09:28:02Z</time>
      </trkpt>
      <trkpt lat="42.511456" lon="-0.8247187">
        <time>2022-07-05T09:28:03Z</time>
      </trkpt>
      <trkpt lat="42.51145" lon="-0.8245807">
        <time>2022-07-05T09:28:04Z</time>
      </trkpt>
      <trkpt lat="42.511444" lon="-0.82444435">
        <time>2022-07-05T09:28:05Z</time>
      </trkpt>
      <trkpt lat="42.51143" lon="-0.8243084">
        <time>2022-07-05T09:28:06Z</time>
      </trkpt>
      <trkpt lat="42.511406" lon="-0.8241737">
        <time>2022-07-05T09:28:07Z</time>
      </trkpt>
      <trkpt lat="42.51138" lon="-0.8240394">
        <time>2022-07-05T09:28:08Z</time>
      </trkpt>
      <trkpt lat="42.511353" lon="-0.8239074">
        <time>2022-07-05T09:28:09Z</time>
      </trkpt>
      <trkpt lat="42.511326" lon="-0.8237767">
        <time>2022-07-05T09:28:10Z</time>
      </trkpt>
      <trkpt lat="42.511295" lon="-0.8236487">
        <time>2022-07-05T09:28:11Z</time>
      </trkpt>
      <trkpt lat="42.511265" lon="-0.8235237">
        <time>2022-07-05T09:28:12Z</time>
      </trkpt>
      <trkpt lat="42.511234" lon="-0.8234027">
        <time>2022-07-05T09:28:13Z</time>
      </trkpt>
      <trkpt lat="42.5112" lon="-0.82328475">
        <time>2022-07-05T09:28:14Z</time>
      </trkpt>
      <trkpt lat="42.51117" lon="-0.82317036">
        <time>2022-07-05T09:28:15Z</time>
      </trkpt>
      <trkpt lat="42.51113" lon="-0.82306075">
        <time>2022-07-05T09:28:16Z</time>
      </trkpt>
      <trkpt lat="42.511097" lon="-0.8229537">
        <time>2022-07-05T09:28:17Z</time>
      </trkpt>
      <trkpt lat="42.51106" lon="-0.82284975">
        <time>2022-07-05T09:28:18Z</time>
      </trkpt>
      <trkpt lat="42.51102" lon="-0.8227491">
        <time>2022-07-05T09:28:19Z</time>
      </trkpt>
      <trkpt lat="42.510986" lon="-0.8226524">
        <time>2022-07-05T09:28:20Z</time>
      </trkpt>
      <trkpt lat="42.510952" lon="-0.8225571">
        <time>2022-07-05T09:28:21Z</time>
      </trkpt>
      <trkpt lat="42.510914" lon="-0.8224634">
        <time>2022-07-05T09:28:22Z</time>
      </trkpt>
      <trkpt lat="42.510883" lon="-0.82237077">
        <time>2022-07-05T09:28:23Z</time>
      </trkpt>
      <trkpt lat="42.510853" lon="-0.82227874">
        <time>2022-07-05T09:28:24Z</time>
      </trkpt>
      <trkpt lat="42.510822" lon="-0.8221881">
        <time>2022-07-05T09:28:25Z</time>
      </trkpt>
      <trkpt lat="42.510796" lon="-0.8220991">
        <time>2022-07-05T09:28:26Z</time>
      </trkpt>
      <trkpt lat="42.51077" lon="-0.82201076">
        <time>2022-07-05T09:28:27Z</time>
      </trkpt>
      <trkpt lat="42.510742" lon="-0.82192445">
        <time>2022-07-05T09:28:28Z</time>
      </trkpt>
      <trkpt lat="42.51072" lon="-0.82183945">
        <time>2022-07-05T09:28:29Z</time>
      </trkpt>
      <trkpt lat="42.510693" lon="-0.82175475">
        <time>2022-07-05T09:28:30Z</time>
      </trkpt>
      <trkpt lat="42.51067" lon="-0.8216705">
        <time>2022-07-05T09:28:31Z</time>
      </trkpt>
      <trkpt lat="42.51065" lon="-0.82158643">
        <time>2022-07-05T09:28:32Z</time>
      </trkpt>
      <trkpt lat="42.510628" lon="-0.82150877">
        <time>2022-07-05T09:28:33Z</time>
      </trkpt>
      <trkpt lat="42.51061" lon="-0.8214298">
        <time>2022-07-05T09:28:34Z</time>
      </trkpt>
      <trkpt lat="42.51059" lon="-0.8213458">
        <time>2022-07-05T09:28:35Z</time>
      </trkpt>
      <trkpt lat="42.510567" lon="-0.8212621">
        <time>2022-07-05T09:28:36Z</time>
      </trkpt>
      <trkpt lat="42.510548" lon="-0.8211785">
        <time>2022-07-05T09:28:37Z</time>
      </trkpt>
      <trkpt lat="42.51053" lon="-0.82109946">
        <time>2022-07-05T09:28:38Z</time>
      </trkpt>
      <trkpt lat="42.51051" lon="-0.8210191">
        <time>2022-07-05T09:28:39Z</time>
      </trkpt>
      <trkpt lat="42.51049" lon="-0.8209391">
        <time>2022-07-05T09:28:40Z</time>
      </trkpt>
      <trkpt lat="42.51047" lon="-0.82085717">
        <time>2022-07-05T09:28:41Z</time>
      </trkpt>
      <trkpt lat="42.510452" lon="-0.82077014">
        <time>2022-07-05T09:28:42Z</time>
      </trkpt>
      <trkpt lat="42.51043" lon="-0.8206908">
        <time>2022-07-05T09:28:43Z</time>
      </trkpt>
      <trkpt lat="42.510406" lon="-0.8206138">
        <time>2022-07-05T09:28:44Z</time>
      </trkpt>
      <trkpt lat="42.510376" lon="-0.82053316">
        <time>2022-07-05T09:28:45Z</time>
      </trkpt>
      <trkpt lat="42.51034" lon="-0.8204538">
        <time>2022-07-05T09:28:46Z</time>
      </trkpt>
      <trkpt lat="42.510307" lon="-0.8203765">
        <time>2022-07-05T09:28:47Z</time>
      </trkpt>
      <trkpt lat="42.510273" lon="-0.8203065">
        <time>2022-07-05T09:28:48Z</time>
      </trkpt>
      <trkpt lat="42.510242" lon="-0.8202365">
        <time>2022-07-05T09:28:49Z</time>
      </trkpt>
      <trkpt lat="42.51021" lon="-0.8201622">
        <time>2022-07-05T09:28:50Z</time>
      </trkpt>
      <trkpt lat="42.510174" lon="-0.82008815">
        <time>2022-07-05T09:28:51Z</time>
      </trkpt>
      <trkpt lat="42.51014" lon="-0.8200142">
        <time>2022-07-05T09:28:52Z</time>
      </trkpt>
      <trkpt lat="42.5101" lon="-0.8199422">
        <time>2022-07-05T09:28:53Z</time>
      </trkpt>
      <trkpt lat="42.510067" lon="-0.81987184">
        <time>2022-07-05T09:28:54Z</time>
      </trkpt>
      <trkpt lat="42.510033" lon="-0.8198035">
        <time>2022-07-05T09:28:55Z</time>
      </trkpt>
      <trkpt lat="42.51" lon="-0.8197365">
        <time>2022-07-05T09:28:56Z</time>
      </trkpt>
      <trkpt lat="42.509964" lon="-0.8196705">
        <time>2022-07-05T09:28:57Z</time>
      </trkpt>
      <trkpt lat="42.509933" lon="-0.81960416">
        <time>2022-07-05T09:28:58Z</time>
      </trkpt>
      <trkpt lat="42.5099" lon="-0.81953716">
        <time>2022-07-05T09:28:59Z</time>
      </trkpt>
      <trkpt lat="42.50987" lon="-0.81946784">
        <time>2022-07-05T09:29:00Z</time>
      </trkpt>
      <trkpt lat="42.509842" lon="-0.81939685">
        <time>2022-07-05T09:29:01Z</time>
      </trkpt>
      <trkpt lat="42.50981" lon="-0.8193255">
        <time>2022-07-05T09:29:02Z</time>
      </trkpt>
      <trkpt lat="42.50979" lon="-0.8192532">
        <time>2022-07-05T09:29:03Z</time>
      </trkpt>
      <trkpt lat="42.509766" lon="-0.8191789">
        <time>2022-07-05T09:29:04Z</time>
      </trkpt>
      <trkpt lat="42.509727" lon="-0.81902355">
        <time>2022-07-05T09:29:06Z</time>
      </trkpt>
      <trkpt lat="42.509712" lon="-0.81894517">
        <time>2022-07-05T09:29:07Z</time>
      </trkpt>
      <trkpt lat="42.509697" lon="-0.8188675">
        <time>2022-07-05T09:29:08Z</time>
      </trkpt>
      <trkpt lat="42.509686" lon="-0.8187912">
        <time>2022-07-05T09:29:09Z</time>
      </trkpt>
      <trkpt lat="42.50967" lon="-0.8187169">
        <time>2022-07-05T09:29:10Z</time>
      </trkpt>
      <trkpt lat="42.509663" lon="-0.81864524">
        <time>2022-07-05T09:29:11Z</time>
      </trkpt>
      <trkpt lat="42.50965" lon="-0.8185766">
        <time>2022-07-05T09:29:12Z</time>
      </trkpt>
      <trkpt lat="42.50963" lon="-0.8184512">
        <time>2022-07-05T09:29:14Z</time>
      </trkpt>
      <trkpt lat="42.509613" lon="-0.8183386">
        <time>2022-07-05T09:29:16Z</time>
      </trkpt>
      <trkpt lat="42.509598" lon="-0.8182359">
        <time>2022-07-05T09:29:18Z</time>
      </trkpt>
      <trkpt lat="42.509586" lon="-0.8181426">
        <time>2022-07-05T09:29:20Z</time>
      </trkpt>
      <trkpt lat="42.509583" lon="-0.8180526">
        <time>2022-07-05T09:29:22Z</time>
      </trkpt>
      <trkpt lat="42.509575" lon="-0.8179676">
        <time>2022-07-05T09:29:24Z</time>
      </trkpt>
      <trkpt lat="42.509567" lon="-0.8178869">
        <time>2022-07-05T09:29:26Z</time>
      </trkpt>
      <trkpt lat="42.509563" lon="-0.81780624">
        <time>2022-07-05T09:29:28Z</time>
      </trkpt>
      <trkpt lat="42.509563" lon="-0.8177269">
        <time>2022-07-05T09:29:30Z</time>
      </trkpt>
      <trkpt lat="42.509563" lon="-0.8176469">
        <time>2022-07-05T09:29:32Z</time>
      </trkpt>
      <trkpt lat="42.50956" lon="-0.8175666">
        <time>2022-07-05T09:29:34Z</time>
      </trkpt>
      <trkpt lat="42.50956" lon="-0.8174876">
        <time>2022-07-05T09:29:36Z</time>
      </trkpt>
      <trkpt lat="42.509556" lon="-0.81740856">
        <time>2022-07-05T09:29:38Z</time>
      </trkpt>
      <trkpt lat="42.509556" lon="-0.8173279">
        <time>2022-07-05T09:29:40Z</time>
      </trkpt>
      <trkpt lat="42.509552" lon="-0.8172446">
        <time>2022-07-05T09:29:42Z</time>
      </trkpt>
      <trkpt lat="42.509552" lon="-0.81715995">
        <time>2022-07-05T09:29:44Z</time>
      </trkpt>
      <trkpt lat="42.509552" lon="-0.8170756">
        <time>2022-07-05T09:29:46Z</time>
      </trkpt>
      <trkpt lat="42.509556" lon="-0.8169896">
        <time>2022-07-05T09:29:48Z</time>
      </trkpt>
      <trkpt lat="42.509552" lon="-0.8169019">
        <time>2022-07-05T09:29:50Z</time>
      </trkpt>
      <trkpt lat="42.50955" lon="-0.81680995">
        <time>2022-07-05T09:29:52Z</time>
      </trkpt>
      <trkpt lat="42.509537" lon="-0.8167156">
        <time>2022-07-05T09:29:54Z</time>
      </trkpt>
      <trkpt lat="42.509518" lon="-0.8166263">
        <time>2022-07-05T09:29:56Z</time>
      </trkpt>
      <trkpt lat="42.509487" lon="-0.8165456">
        <time>2022-07-05T09:29:58Z</time>
      </trkpt>
      <trkpt lat="42.509457" lon="-0.8164723">
        <time>2022-07-05T09:30:00Z</time>
      </trkpt>
      <trkpt lat="42.509426" lon="-0.81639695">
        <time>2022-07-05T09:30:02Z</time>
      </trkpt>
      <trkpt lat="42.5094" lon="-0.81630766">
        <time>2022-07-05T09:30:04Z</time>
      </trkpt>
      <trkpt lat="42.50938" lon="-0.8161933">
        <time>2022-07-05T09:30:06Z</time>
      </trkpt>
      <trkpt lat="42.50937" lon="-0.816046">
        <time>2022-07-05T09:30:08Z</time>
      </trkpt>
      <trkpt lat="42.509365" lon="-0.8159653">
        <time>2022-07-05T09:30:09Z</time>
      </trkpt>
      <trkpt lat="42.509354" lon="-0.81588596">
        <time>2022-07-05T09:30:10Z</time>
      </trkpt>
      <trkpt lat="42.509342" lon="-0.815802">
        <time>2022-07-05T09:30:11Z</time>
      </trkpt>
      <trkpt lat="42.509327" lon="-0.815715">
        <time>2022-07-05T09:30:12Z</time>
      </trkpt>
      <trkpt lat="42.509304" lon="-0.81562567">
        <time>2022-07-05T09:30:13Z</time>
      </trkpt>
      <trkpt lat="42.50928" lon="-0.815537">
        <time>2022-07-05T09:30:14Z</time>
      </trkpt>
      <trkpt lat="42.50925" lon="-0.815444">
        <time>2022-07-05T09:30:15Z</time>
      </trkpt>
      <trkpt lat="42.50922" lon="-0.8153563">
        <time>2022-07-05T09:30:16Z</time>
      </trkpt>
      <trkpt lat="42.509182" lon="-0.8152753">
        <time>2022-07-05T09:30:17Z</time>
      </trkpt>
      <trkpt lat="42.509148" lon="-0.815208">
        <time>2022-07-05T09:30:18Z</time>
      </trkpt>
      <trkpt lat="42.509106" lon="-0.8151507">
        <time>2022-07-05T09:30:19Z</time>
      </trkpt>
      <trkpt lat="42.509064" lon="-0.81510335">
        <time>2022-07-05T09:30:20Z</time>
      </trkpt>
      <trkpt lat="42.50898" lon="-0.81504303">
        <time>2022-07-05T09:30:22Z</time>
      </trkpt>
      <trkpt lat="42.508907" lon="-0.81501234">
        <time>2022-07-05T09:30:24Z</time>
      </trkpt>
      <trkpt lat="42.508842" lon="-0.81499934">
        <time>2022-07-05T09:30:26Z</time>
      </trkpt>
      <trkpt lat="42.508785" lon="-0.815001">
        <time>2022-07-05T09:30:28Z</time>
      </trkpt>
      <trkpt lat="42.508736" lon="-0.815011">
        <time>2022-07-05T09:30:30Z</time>
      </trkpt>
      <trkpt lat="42.508667" lon="-0.81503904">
        <time>2022-07-05T09:30:33Z</time>
      </trkpt>
      <trkpt lat="42.508602" lon="-0.8150694">
        <time>2022-07-05T09:30:36Z</time>
      </trkpt>
      <trkpt lat="42.50854" lon="-0.81509936">
        <time>2022-07-05T09:30:39Z</time>
      </trkpt>
      <trkpt lat="42.508476" lon="-0.8151234">
        <time>2022-07-05T09:30:42Z</time>
      </trkpt>
      <trkpt lat="42.508415" lon="-0.81514066">
        <time>2022-07-05T09:30:45Z</time>
      </trkpt>
      <trkpt lat="42.508354" lon="-0.815148">
        <time>2022-07-05T09:30:48Z</time>
      </trkpt>
      <trkpt lat="42.508293" lon="-0.81515867">
        <time>2022-07-05T09:30:51Z</time>
      </trkpt>
      <trkpt lat="42.508232" lon="-0.8151723">
        <time>2022-07-05T09:30:54Z</time>
      </trkpt>
      <trkpt lat="42.50817" lon="-0.815187">
        <time>2022-07-05T09:30:57Z</time>
      </trkpt>
      <trkpt lat="42.50811" lon="-0.81520367">
        <time>2022-07-05T09:31:00Z</time>
      </trkpt>
      <trkpt lat="42.50805" lon="-0.815223">
        <time>2022-07-05T09:31:03Z</time>
      </trkpt>
      <trkpt lat="42.507988" lon="-0.81523865">
        <time>2022-07-05T09:31:06Z</time>
      </trkpt>
      <trkpt lat="42.507923" lon="-0.81525064">
        <time>2022-07-05T09:31:09Z</time>
      </trkpt>
      <trkpt lat="42.507862" lon="-0.815264">
        <time>2022-07-05T09:31:12Z</time>
      </trkpt>
      <trkpt lat="42.5078" lon="-0.815272">
        <time>2022-07-05T09:31:15Z</time>
      </trkpt>
      <trkpt lat="42.507736" lon="-0.815278">
        <time>2022-07-05T09:31:18Z</time>
      </trkpt>
      <trkpt lat="42.507675" lon="-0.81529">
        <time>2022-07-05T09:31:21Z</time>
      </trkpt>
      <trkpt lat="42.507614" lon="-0.81529665">
        <time>2022-07-05T09:31:24Z</time>
      </trkpt>
      <trkpt lat="42.50755" lon="-0.81530565">
        <time>2022-07-05T09:31:27Z</time>
      </trkpt>
      <trkpt lat="42.50749" lon="-0.81531864">
        <time>2022-07-05T09:31:30Z</time>
      </trkpt>
      <trkpt lat="42.50741" lon="-0.81533897">
        <time>2022-07-05T09:31:34Z</time>
      </trkpt>
      <trkpt lat="42.50735" lon="-0.8153473">
        <time>2022-07-05T09:31:37Z</time>
      </trkpt>
      <trkpt lat="42.50729" lon="-0.81535727">
        <time>2022-07-05T09:31:40Z</time>
      </trkpt>
      <trkpt lat="42.50723" lon="-0.81536764">
        <time>2022-07-05T09:31:43Z</time>
      </trkpt>
      <trkpt lat="42.507168" lon="-0.81537896">
        <time>2022-07-05T09:31:46Z</time>
      </trkpt>
      <trkpt lat="42.507103" lon="-0.8153906">
        <time>2022-07-05T09:31:49Z</time>
      </trkpt>
      <trkpt lat="42.507042" lon="-0.81540096">
        <time>2022-07-05T09:31:52Z</time>
      </trkpt>
      <trkpt lat="42.50698" lon="-0.8154146">
        <time>2022-07-05T09:31:55Z</time>
      </trkpt>
      <trkpt lat="42.50692" lon="-0.8154299">
        <time>2022-07-05T09:31:58Z</time>
      </trkpt>
      <trkpt lat="42.506855" lon="-0.8154483">
        <time>2022-07-05T09:32:01Z</time>
      </trkpt>
      <trkpt lat="42.506794" lon="-0.8154609">
        <time>2022-07-05T09:32:04Z</time>
      </trkpt>
      <trkpt lat="42.506733" lon="-0.81547624">
        <time>2022-07-05T09:32:07Z</time>
      </trkpt>
      <trkpt lat="42.50667" lon="-0.8154919">
        <time>2022-07-05T09:32:10Z</time>
      </trkpt>
      <trkpt lat="42.50661" lon="-0.81550455">
        <time>2022-07-05T09:32:13Z</time>
      </trkpt>
      <trkpt lat="42.506546" lon="-0.8155179">
        <time>2022-07-05T09:32:16Z</time>
      </trkpt>
      <trkpt lat="42.506485" lon="-0.81553423">
        <time>2022-07-05T09:32:19Z</time>
      </trkpt>
      <trkpt lat="42.50642" lon="-0.8155502">
        <time>2022-07-05T09:32:22Z</time>
      </trkpt>
      <trkpt lat="42.50636" lon="-0.8155669">
        <time>2022-07-05T09:32:25Z</time>
      </trkpt>
      <trkpt lat="42.506298" lon="-0.8155822">
        <time>2022-07-05T09:32:28Z</time>
      </trkpt>
      <trkpt lat="42.506233" lon="-0.81559753">
        <time>2022-07-05T09:32:31Z</time>
      </trkpt>
      <trkpt lat="42.506176" lon="-0.8156096">
        <time>2022-07-05T09:32:34Z</time>
      </trkpt>
      <trkpt lat="42.50612" lon="-0.81562257">
        <time>2022-07-05T09:32:37Z</time>
      </trkpt>
      <trkpt lat="42.50606" lon="-0.8156362">
        <time>2022-07-05T09:32:40Z</time>
      </trkpt>
      <trkpt lat="42.506004" lon="-0.8156542">
        <time>2022-07-05T09:32:43Z</time>
      </trkpt>
      <trkpt lat="42.505947" lon="-0.81567353">
        <time>2022-07-05T09:32:46Z</time>
      </trkpt>
      <trkpt lat="42.505886" lon="-0.8156982">
        <time>2022-07-05T09:32:49Z</time>
      </trkpt>
      <trkpt lat="42.505806" lon="-0.8157345">
        <time>2022-07-05T09:32:53Z</time>
      </trkpt>
      <trkpt lat="42.505745" lon="-0.8157642">
        <time>2022-07-05T09:32:56Z</time>
      </trkpt>
      <trkpt lat="42.505688" lon="-0.8157932">
        <time>2022-07-05T09:32:59Z</time>
      </trkpt>
      <trkpt lat="42.50563" lon="-0.8158202">
        <time>2022-07-05T09:33:02Z</time>
      </trkpt>
      <trkpt lat="42.505573" lon="-0.8158502">
        <time>2022-07-05T09:33:05Z</time>
      </trkpt>
      <trkpt lat="42.505516" lon="-0.8158862">
        <time>2022-07-05T09:33:08Z</time>
      </trkpt>
      <trkpt lat="42.50546" lon="-0.8159235">
        <time>2022-07-05T09:33:11Z</time>
      </trkpt>
      <trkpt lat="42.5054" lon="-0.81596416">
        <time>2022-07-05T09:33:14Z</time>
      </trkpt>
      <trkpt lat="42.505344" lon="-0.8160052">
        <time>2022-07-05T09:33:17Z</time>
      </trkpt>
      <trkpt lat="42.50529" lon="-0.81604683">
        <time>2022-07-05T09:33:20Z</time>
      </trkpt>
      <trkpt lat="42.50524" lon="-0.8160872">
        <time>2022-07-05T09:33:23Z</time>
      </trkpt>
      <trkpt lat="42.50519" lon="-0.8161325">
        <time>2022-07-05T09:33:26Z</time>
      </trkpt>
      <trkpt lat="42.505142" lon="-0.8161812">
        <time>2022-07-05T09:33:29Z</time>
      </trkpt>
      <trkpt lat="42.505096" lon="-0.81622684">
        <time>2022-07-05T09:33:32Z</time>
      </trkpt>
      <trkpt lat="42.50505" lon="-0.8162738">
        <time>2022-07-05T09:33:35Z</time>
      </trkpt>
      <trkpt lat="42.505005" lon="-0.81632215">
        <time>2022-07-05T09:33:38Z</time>
      </trkpt>
      <trkpt lat="42.504967" lon="-0.8163705">
        <time>2022-07-05T09:33:41Z</time>
      </trkpt>
      <trkpt lat="42.504883" lon="-0.81648415">
        <time>2022-07-05T09:38:04Z</time>
      </trkpt>
      <trkpt lat="42.504837" lon="-0.81653017">
        <time>2022-07-05T09:38:07Z</time>
      </trkpt>
      <trkpt lat="42.504787" lon="-0.81658447">
        <time>2022-07-05T09:38:10Z</time>
      </trkpt>
      <trkpt lat="42.50474" lon="-0.81663746">
        <time>2022-07-05T09:38:13Z</time>
      </trkpt>
      <trkpt lat="42.504704" lon="-0.8166938">
        <time>2022-07-05T09:38:16Z</time>
      </trkpt>
      <trkpt lat="42.50467" lon="-0.8167478">
        <time>2022-07-05T09:38:19Z</time>
      </trkpt>
      <trkpt lat="42.50463" lon="-0.8168001">
        <time>2022-07-05T09:38:22Z</time>
      </trkpt>
      <trkpt lat="42.50459" lon="-0.81685746">
        <time>2022-07-05T09:38:25Z</time>
      </trkpt>
      <trkpt lat="42.50455" lon="-0.8169121">
        <time>2022-07-05T09:38:28Z</time>
      </trkpt>
      <trkpt lat="42.504517" lon="-0.8169628">
        <time>2022-07-05T09:38:31Z</time>
      </trkpt>
      <trkpt lat="42.504475" lon="-0.8170178">
        <time>2022-07-05T09:38:34Z</time>
      </trkpt>
      <trkpt lat="42.504436" lon="-0.81707346">
        <time>2022-07-05T09:38:37Z</time>
      </trkpt>
      <trkpt lat="42.5044" lon="-0.81713074">
        <time>2022-07-05T09:38:40Z</time>
      </trkpt>
      <trkpt lat="42.50436" lon="-0.81719375">
        <time>2022-07-05T09:38:43Z</time>
      </trkpt>
      <trkpt lat="42.50432" lon="-0.8172548">
        <time>2022-07-05T09:38:46Z</time>
      </trkpt>
      <trkpt lat="42.504276" lon="-0.81731045">
        <time>2022-07-05T09:38:49Z</time>
      </trkpt>
      <trkpt lat="42.50424" lon="-0.8173664">
        <time>2022-07-05T09:38:52Z</time>
      </trkpt>
      <trkpt lat="42.5042" lon="-0.8174221">
        <time>2022-07-05T09:38:55Z</time>
      </trkpt>
      <trkpt lat="42.50416" lon="-0.8174751">
        <time>2022-07-05T09:38:58Z</time>
      </trkpt>
      <trkpt lat="42.504128" lon="-0.8175274">
        <time>2022-07-05T09:39:01Z</time>
      </trkpt>
      <trkpt lat="42.50408" lon="-0.8175961">
        <time>2022-07-05T09:39:05Z</time>
      </trkpt>
      <trkpt lat="42.50405" lon="-0.8176474">
        <time>2022-07-05T09:39:08Z</time>
      </trkpt>
      <trkpt lat="42.504005" lon="-0.8177114">
        <time>2022-07-05T09:39:12Z</time>
      </trkpt>
      <trkpt lat="42.50397" lon="-0.81776243">
        <time>2022-07-05T09:39:15Z</time>
      </trkpt>
      <trkpt lat="42.503925" lon="-0.81782675">
        <time>2022-07-05T09:39:19Z</time>
      </trkpt>
      <trkpt lat="42.50388" lon="-0.81789076">
        <time>2022-07-05T09:39:23Z</time>
      </trkpt>
      <trkpt lat="42.50384" lon="-0.81793773">
        <time>2022-07-05T09:39:26Z</time>
      </trkpt>
      <trkpt lat="42.503796" lon="-0.8179951">
        <time>2022-07-05T09:39:30Z</time>
      </trkpt>
      <trkpt lat="42.50375" lon="-0.8180537">
        <time>2022-07-05T09:39:34Z</time>
      </trkpt>
      <trkpt lat="42.5037" lon="-0.81810606">
        <time>2022-07-05T09:39:38Z</time>
      </trkpt>
      <trkpt lat="42.50365" lon="-0.81816137">
        <time>2022-07-05T09:39:42Z</time>
      </trkpt>
      <trkpt lat="42.5036" lon="-0.8182164">
        <time>2022-07-05T09:39:46Z</time>
      </trkpt>
      <trkpt lat="42.50356" lon="-0.81825304">
        <time>2022-07-05T09:39:49Z</time>
      </trkpt>
      <trkpt lat="42.5035" lon="-0.81829906">
        <time>2022-07-05T09:39:53Z</time>
      </trkpt>
      <trkpt lat="42.503445" lon="-0.81834036">
        <time>2022-07-05T09:39:57Z</time>
      </trkpt>
      <trkpt lat="42.503403" lon="-0.8183707">
        <time>2022-07-05T09:40:00Z</time>
      </trkpt>
      <trkpt lat="42.50335" lon="-0.81841403">
        <time>2022-07-05T09:40:04Z</time>
      </trkpt>
      <trkpt lat="42.50329" lon="-0.8184527">
        <time>2022-07-05T09:40:08Z</time>
      </trkpt>
      <trkpt lat="42.50324" lon="-0.8184807">
        <time>2022-07-05T09:40:11Z</time>
      </trkpt>
      <trkpt lat="42.503178" lon="-0.8185157">
        <time>2022-07-05T09:40:15Z</time>
      </trkpt>
      <trkpt lat="42.503128" lon="-0.81854105">
        <time>2022-07-05T09:40:18Z</time>
      </trkpt>
      <trkpt lat="42.503067" lon="-0.818569">
        <time>2022-07-05T09:40:22Z</time>
      </trkpt>
      <trkpt lat="42.503025" lon="-0.818588">
        <time>2022-07-05T09:40:25Z</time>
      </trkpt>
      <trkpt lat="42.50296" lon="-0.8186117">
        <time>2022-07-05T09:40:29Z</time>
      </trkpt>
      <trkpt lat="42.5029" lon="-0.8186284">
        <time>2022-07-05T09:40:33Z</time>
      </trkpt>
      <trkpt lat="42.502834" lon="-0.81864035">
        <time>2022-07-05T09:40:37Z</time>
      </trkpt>
      <trkpt lat="42.50277" lon="-0.818651">
        <time>2022-07-05T09:40:41Z</time>
      </trkpt>
      <trkpt lat="42.502705" lon="-0.818668">
        <time>2022-07-05T09:40:45Z</time>
      </trkpt>
      <trkpt lat="42.50265" lon="-0.818678">
        <time>2022-07-05T09:40:48Z</time>
      </trkpt>
      <trkpt lat="42.5026" lon="-0.8186827">
        <time>2022-07-05T09:40:51Z</time>
      </trkpt>
      <trkpt lat="42.502537" lon="-0.8186827">
        <time>2022-07-05T09:40:55Z</time>
      </trkpt>
      <trkpt lat="42.502472" lon="-0.818682">
        <time>2022-07-05T09:40:59Z</time>
      </trkpt>
      <trkpt lat="42.502422" lon="-0.8186787">
        <time>2022-07-05T09:41:02Z</time>
      </trkpt>
      <trkpt lat="42.502357" lon="-0.8186734">
        <time>2022-07-05T09:41:06Z</time>
      </trkpt>
      <trkpt lat="42.502293" lon="-0.81866205">
        <time>2022-07-05T09:41:10Z</time>
      </trkpt>
      <trkpt lat="42.502243" lon="-0.81864834">
        <time>2022-07-05T09:41:13Z</time>
      </trkpt>
      <trkpt lat="42.502182" lon="-0.818632">
        <time>2022-07-05T09:41:17Z</time>
      </trkpt>
      <trkpt lat="42.502117" lon="-0.8186164">
        <time>2022-07-05T09:41:21Z</time>
      </trkpt>
      <trkpt lat="42.502052" lon="-0.81858873">
        <time>2022-07-05T09:41:25Z</time>
      </trkpt>
      <trkpt lat="42.502007" lon="-0.81856406">
        <time>2022-07-05T09:41:28Z</time>
      </trkpt>
      <trkpt lat="42.501945" lon="-0.81853604">
        <time>2022-07-05T09:41:32Z</time>
      </trkpt>
      <trkpt lat="42.501896" lon="-0.81851304">
        <time>2022-07-05T09:41:35Z</time>
      </trkpt>
      <trkpt lat="42.501835" lon="-0.8184794">
        <time>2022-07-05T09:41:39Z</time>
      </trkpt>
      <trkpt lat="42.501778" lon="-0.8184404">
        <time>2022-07-05T09:41:43Z</time>
      </trkpt>
      <trkpt lat="42.50173" lon="-0.8184104">
        <time>2022-07-05T09:41:46Z</time>
      </trkpt>
      <trkpt lat="42.501675" lon="-0.81836504">
        <time>2022-07-05T09:41:50Z</time>
      </trkpt>
      <trkpt lat="42.501633" lon="-0.81833273">
        <time>2022-07-05T09:41:53Z</time>
      </trkpt>
      <trkpt lat="42.501575" lon="-0.81828207">
        <time>2022-07-05T09:41:57Z</time>
      </trkpt>
      <trkpt lat="42.501534" lon="-0.8182434">
        <time>2022-07-05T09:42:00Z</time>
      </trkpt>
      <trkpt lat="42.50148" lon="-0.8181878">
        <time>2022-07-05T09:42:04Z</time>
      </trkpt>
      <trkpt lat="42.50144" lon="-0.8181474">
        <time>2022-07-05T09:42:07Z</time>
      </trkpt>
      <trkpt lat="42.50139" lon="-0.8180924">
        <time>2022-07-05T09:42:11Z</time>
      </trkpt>
      <trkpt lat="42.50135" lon="-0.8180471">
        <time>2022-07-05T09:42:14Z</time>
      </trkpt>
      <trkpt lat="42.501312" lon="-0.8179954">
        <time>2022-07-05T09:42:17Z</time>
      </trkpt>
      <trkpt lat="42.501274" lon="-0.8179418">
        <time>2022-07-05T09:42:20Z</time>
      </trkpt>
      <trkpt lat="42.50123" lon="-0.81787676">
        <time>2022-07-05T09:42:24Z</time>
      </trkpt>
      <trkpt lat="42.501194" lon="-0.81782913">
        <time>2022-07-05T09:42:27Z</time>
      </trkpt>
      <trkpt lat="42.501152" lon="-0.8177568">
        <time>2022-07-05T09:42:31Z</time>
      </trkpt>
      <trkpt lat="42.501125" lon="-0.81769747">
        <time>2022-07-05T09:42:34Z</time>
      </trkpt>
      <trkpt lat="42.50109" lon="-0.8176161">
        <time>2022-07-05T09:42:38Z</time>
      </trkpt>
      <trkpt lat="42.50106" lon="-0.81756043">
        <time>2022-07-05T09:42:41Z</time>
      </trkpt>
      <trkpt lat="42.501026" lon="-0.81748915">
        <time>2022-07-05T09:42:45Z</time>
      </trkpt>
      <trkpt lat="42.501003" lon="-0.8174338">
        <time>2022-07-05T09:42:48Z</time>
      </trkpt>
      <trkpt lat="42.500977" lon="-0.81736016">
        <time>2022-07-05T09:42:52Z</time>
      </trkpt>
      <trkpt lat="42.50095" lon="-0.8172895">
        <time>2022-07-05T09:42:56Z</time>
      </trkpt>
      <trkpt lat="42.500923" lon="-0.8172198">
        <time>2022-07-05T09:43:00Z</time>
      </trkpt>
      <trkpt lat="42.5009" lon="-0.8171435">
        <time>2022-07-05T09:43:04Z</time>
      </trkpt>
      <trkpt lat="42.500874" lon="-0.81707186">
        <time>2022-07-05T09:43:08Z</time>
      </trkpt>
      <trkpt lat="42.500854" lon="-0.8170145">
        <time>2022-07-05T09:43:11Z</time>
      </trkpt>
      <trkpt lat="42.50083" lon="-0.81693786">
        <time>2022-07-05T09:43:15Z</time>
      </trkpt>
      <trkpt lat="42.50082" lon="-0.81685853">
        <time>2022-07-05T09:43:19Z</time>
      </trkpt>
      <trkpt lat="42.500805" lon="-0.8167782">
        <time>2022-07-05T09:43:23Z</time>
      </trkpt>
      <trkpt lat="42.500793" lon="-0.81669587">
        <time>2022-07-05T09:43:27Z</time>
      </trkpt>
      <trkpt lat="42.500782" lon="-0.8166145">
        <time>2022-07-05T09:43:31Z</time>
      </trkpt>
      <trkpt lat="42.500774" lon="-0.81652653">
        <time>2022-07-05T09:43:35Z</time>
      </trkpt>
      <trkpt lat="42.50077" lon="-0.81643116">
        <time>2022-07-05T09:43:40Z</time>
      </trkpt>
      <trkpt lat="42.500763" lon="-0.81635255">
        <time>2022-07-05T09:43:43Z</time>
      </trkpt>
      <trkpt lat="42.500763" lon="-0.81628156">
        <time>2022-07-05T09:43:46Z</time>
      </trkpt>
      <trkpt lat="42.500763" lon="-0.8161895">
        <time>2022-07-05T09:43:50Z</time>
      </trkpt>
      <trkpt lat="42.500763" lon="-0.8161192">
        <time>2022-07-05T09:43:53Z</time>
      </trkpt>
      <trkpt lat="42.500767" lon="-0.8160502">
        <time>2022-07-05T09:43:56Z</time>
      </trkpt>
      <trkpt lat="42.500774" lon="-0.8159605">
        <time>2022-07-05T09:44:00Z</time>
      </trkpt>
      <trkpt lat="42.500782" lon="-0.8158652">
        <time>2022-07-05T09:44:04Z</time>
      </trkpt>
      <trkpt lat="42.500793" lon="-0.8157962">
        <time>2022-07-05T09:44:07Z</time>
      </trkpt>
      <trkpt lat="42.50081" lon="-0.8157292">
        <time>2022-07-05T09:44:10Z</time>
      </trkpt>
      <trkpt lat="42.500828" lon="-0.81563956">
        <time>2022-07-05T09:44:14Z</time>
      </trkpt>
      <trkpt lat="42.50084" lon="-0.8155696">
        <time>2022-07-05T09:44:17Z</time>
      </trkpt>
      <trkpt lat="42.500854" lon="-0.8154989">
        <time>2022-07-05T09:44:20Z</time>
      </trkpt>
      <trkpt lat="42.500866" lon="-0.81542856">
        <time>2022-07-05T09:44:23Z</time>
      </trkpt>
      <trkpt lat="42.500877" lon="-0.81535923">
        <time>2022-07-05T09:44:26Z</time>
      </trkpt>
      <trkpt lat="42.500893" lon="-0.81528556">
        <time>2022-07-05T09:44:29Z</time>
      </trkpt>
      <trkpt lat="42.500908" lon="-0.81520754">
        <time>2022-07-05T09:44:32Z</time>
      </trkpt>
      <trkpt lat="42.500923" lon="-0.8151292">
        <time>2022-07-05T09:44:35Z</time>
      </trkpt>
      <trkpt lat="42.50094" lon="-0.8150529">
        <time>2022-07-05T09:44:38Z</time>
      </trkpt>
      <trkpt lat="42.500957" lon="-0.81497556">
        <time>2022-07-05T09:44:41Z</time>
      </trkpt>
      <trkpt lat="42.500973" lon="-0.8148989">
        <time>2022-07-05T09:44:44Z</time>
      </trkpt>
      <trkpt lat="42.50099" lon="-0.8148196">
        <time>2022-07-05T09:44:47Z</time>
      </trkpt>
      <trkpt lat="42.501007" lon="-0.8147436">
        <time>2022-07-05T09:44:50Z</time>
      </trkpt>
      <trkpt lat="42.501026" lon="-0.8146623">
        <time>2022-07-05T09:44:53Z</time>
      </trkpt>
      <trkpt lat="42.501038" lon="-0.81458527">
        <time>2022-07-05T09:44:56Z</time>
      </trkpt>
      <trkpt lat="42.501045" lon="-0.8145093">
        <time>2022-07-05T09:44:59Z</time>
      </trkpt>
      <trkpt lat="42.501057" lon="-0.8144276">
        <time>2022-07-05T09:45:02Z</time>
      </trkpt>
      <trkpt lat="42.501064" lon="-0.8143496">
        <time>2022-07-05T09:45:05Z</time>
      </trkpt>
      <trkpt lat="42.501072" lon="-0.8142713">
        <time>2022-07-05T09:45:08Z</time>
      </trkpt>
      <trkpt lat="42.50108" lon="-0.8141963">
        <time>2022-07-05T09:45:11Z</time>
      </trkpt>
      <trkpt lat="42.501083" lon="-0.8141203">
        <time>2022-07-05T09:45:14Z</time>
      </trkpt>
      <trkpt lat="42.50109" lon="-0.81404394">
        <time>2022-07-05T09:45:17Z</time>
      </trkpt>
      <trkpt lat="42.5011" lon="-0.8139723">
        <time>2022-07-05T09:45:20Z</time>
      </trkpt>
      <trkpt lat="42.501106" lon="-0.81388164">
        <time>2022-07-05T09:45:24Z</time>
      </trkpt>
      <trkpt lat="42.50111" lon="-0.813804">
        <time>2022-07-05T09:45:27Z</time>
      </trkpt>
      <trkpt lat="42.50111" lon="-0.81372166">
        <time>2022-07-05T09:45:30Z</time>
      </trkpt>
      <trkpt lat="42.501106" lon="-0.81364465">
        <time>2022-07-05T09:45:33Z</time>
      </trkpt>
      <trkpt lat="42.50111" lon="-0.81356096">
        <time>2022-07-05T09:45:36Z</time>
      </trkpt>
      <trkpt lat="42.501106" lon="-0.81348133">
        <time>2022-07-05T09:45:39Z</time>
      </trkpt>
      <trkpt lat="42.501102" lon="-0.8134087">
        <time>2022-07-05T09:45:42Z</time>
      </trkpt>
      <trkpt lat="42.5011" lon="-0.8133403">
        <time>2022-07-05T09:45:45Z</time>
      </trkpt>
      <trkpt lat="42.501095" lon="-0.813251">
        <time>2022-07-05T09:45:49Z</time>
      </trkpt>
      <trkpt lat="42.501083" lon="-0.8131883">
        <time>2022-07-05T09:45:52Z</time>
      </trkpt>
      <trkpt lat="42.50107" lon="-0.813103">
        <time>2022-07-05T09:45:56Z</time>
      </trkpt>
      <trkpt lat="42.50106" lon="-0.8130183">
        <time>2022-07-05T09:46:00Z</time>
      </trkpt>
      <trkpt lat="42.501045" lon="-0.81293434">
        <time>2022-07-05T09:46:04Z</time>
      </trkpt>
      <trkpt lat="42.501022" lon="-0.812851">
        <time>2022-07-05T09:46:08Z</time>
      </trkpt>
      <trkpt lat="42.501" lon="-0.8127713">
        <time>2022-07-05T09:46:12Z</time>
      </trkpt>
      <trkpt lat="42.500977" lon="-0.81269467">
        <time>2022-07-05T09:46:16Z</time>
      </trkpt>
      <trkpt lat="42.50096" lon="-0.812641">
        <time>2022-07-05T09:46:25Z</time>
      </trkpt>
      <trkpt lat="42.501015" lon="-0.8126167">
        <time>2022-07-05T09:47:59Z</time>
      </trkpt>
      <trkpt lat="42.501064" lon="-0.81260735">
        <time>2022-07-05T09:48:04Z</time>
      </trkpt>
      <trkpt lat="42.501026" lon="-0.81252736">
        <time>2022-07-05T09:51:04Z</time>
      </trkpt>
      <trkpt lat="42.500977" lon="-0.8124947">
        <time>2022-07-05T09:51:07Z</time>
      </trkpt>
      <trkpt lat="42.500935" lon="-0.81244606">
        <time>2022-07-05T09:51:10Z</time>
      </trkpt>
      <trkpt lat="42.5009" lon="-0.81236804">
        <time>2022-07-05T09:51:14Z</time>
      </trkpt>
      <trkpt lat="42.50088" lon="-0.8123054">
        <time>2022-07-05T09:51:17Z</time>
      </trkpt>
      <trkpt lat="42.50086" lon="-0.81223136">
        <time>2022-07-05T09:51:21Z</time>
      </trkpt>
      <trkpt lat="42.500835" lon="-0.81216204">
        <time>2022-07-05T09:51:25Z</time>
      </trkpt>
      <trkpt lat="42.50081" lon="-0.8120854">
        <time>2022-07-05T09:51:29Z</time>
      </trkpt>
      <trkpt lat="42.500786" lon="-0.8120084">
        <time>2022-07-05T09:51:33Z</time>
      </trkpt>
      <trkpt lat="42.500767" lon="-0.81193507">
        <time>2022-07-05T09:51:37Z</time>
      </trkpt>
      <trkpt lat="42.500744" lon="-0.81186306">
        <time>2022-07-05T09:51:41Z</time>
      </trkpt>
      <trkpt lat="42.50072" lon="-0.81178606">
        <time>2022-07-05T09:51:45Z</time>
      </trkpt>
      <trkpt lat="42.500694" lon="-0.8117081">
        <time>2022-07-05T09:51:49Z</time>
      </trkpt>
      <trkpt lat="42.500664" lon="-0.8116307">
        <time>2022-07-05T09:51:53Z</time>
      </trkpt>
      <trkpt lat="42.500645" lon="-0.81157076">
        <time>2022-07-05T09:51:56Z</time>
      </trkpt>
      <trkpt lat="42.500626" lon="-0.81148076">
        <time>2022-07-05T09:52:00Z</time>
      </trkpt>
      <trkpt lat="42.50061" lon="-0.8114161">
        <time>2022-07-05T09:52:03Z</time>
      </trkpt>
      <trkpt lat="42.500595" lon="-0.81133544">
        <time>2022-07-05T09:52:07Z</time>
      </trkpt>
      <trkpt lat="42.500576" lon="-0.81125706">
        <time>2022-07-05T09:52:11Z</time>
      </trkpt>
      <trkpt lat="42.500553" lon="-0.8111754">
        <time>2022-07-05T09:52:15Z</time>
      </trkpt>
      <trkpt lat="42.500523" lon="-0.8110961">
        <time>2022-07-05T09:52:19Z</time>
      </trkpt>
      <trkpt lat="42.5005" lon="-0.8110154">
        <time>2022-07-05T09:52:23Z</time>
      </trkpt>
      <trkpt lat="42.500477" lon="-0.8109531">
        <time>2022-07-05T09:52:26Z</time>
      </trkpt>
      <trkpt lat="42.500454" lon="-0.8108731">
        <time>2022-07-05T09:52:30Z</time>
      </trkpt>
      <trkpt lat="42.50043" lon="-0.81079745">
        <time>2022-07-05T09:52:34Z</time>
      </trkpt>
      <trkpt lat="42.50041" lon="-0.8107234">
        <time>2022-07-05T09:52:38Z</time>
      </trkpt>
      <trkpt lat="42.50038" lon="-0.8106451">
        <time>2022-07-05T09:52:42Z</time>
      </trkpt>
      <trkpt lat="42.500355" lon="-0.8105651">
        <time>2022-07-05T09:52:46Z</time>
      </trkpt>
      <trkpt lat="42.500336" lon="-0.8105061">
        <time>2022-07-05T09:52:49Z</time>
      </trkpt>
      <trkpt lat="42.500313" lon="-0.8104251">
        <time>2022-07-05T09:52:53Z</time>
      </trkpt>
      <trkpt lat="42.500294" lon="-0.8103418">
        <time>2022-07-05T09:52:57Z</time>
      </trkpt>
      <trkpt lat="42.50027" lon="-0.81026244">
        <time>2022-07-05T09:53:01Z</time>
      </trkpt>
      <trkpt lat="42.500248" lon="-0.8101878">
        <time>2022-07-05T09:53:05Z</time>
      </trkpt>
      <trkpt lat="42.500225" lon="-0.8101148">
        <time>2022-07-05T09:53:09Z</time>
      </trkpt>
      <trkpt lat="42.500206" lon="-0.8100405">
        <time>2022-07-05T09:53:13Z</time>
      </trkpt>
      <trkpt lat="42.500183" lon="-0.8099688">
        <time>2022-07-05T09:53:17Z</time>
      </trkpt>
      <trkpt lat="42.50016" lon="-0.8098998">
        <time>2022-07-05T09:53:21Z</time>
      </trkpt>
      <trkpt lat="42.50013" lon="-0.8098305">
        <time>2022-07-05T09:53:25Z</time>
      </trkpt>
      <trkpt lat="42.500107" lon="-0.8097572">
        <time>2022-07-05T09:53:29Z</time>
      </trkpt>
      <trkpt lat="42.500076" lon="-0.8096928">
        <time>2022-07-05T09:53:33Z</time>
      </trkpt>
      <trkpt lat="42.500042" lon="-0.8096318">
        <time>2022-07-05T09:53:37Z</time>
      </trkpt>
      <trkpt lat="42.500008" lon="-0.8095742">
        <time>2022-07-05T09:53:41Z</time>
      </trkpt>
      <trkpt lat="42.499966" lon="-0.8095235">
        <time>2022-07-05T09:53:45Z</time>
      </trkpt>
      <trkpt lat="42.499924" lon="-0.8094725">
        <time>2022-07-05T09:53:49Z</time>
      </trkpt>
      <trkpt lat="42.49988" lon="-0.8094248">
        <time>2022-07-05T09:53:53Z</time>
      </trkpt>
      <trkpt lat="42.499836" lon="-0.8093845">
        <time>2022-07-05T09:53:57Z</time>
      </trkpt>
      <trkpt lat="42.499783" lon="-0.8093488">
        <time>2022-07-05T09:54:01Z</time>
      </trkpt>
      <trkpt lat="42.499718" lon="-0.80931085">
        <time>2022-07-05T09:54:06Z</time>
      </trkpt>
      <trkpt lat="42.49966" lon="-0.8092935">
        <time>2022-07-05T09:54:10Z</time>
      </trkpt>
      <trkpt lat="42.499603" lon="-0.8092732">
        <time>2022-07-05T09:54:14Z</time>
      </trkpt>
      <trkpt lat="42.49955" lon="-0.8092512">
        <time>2022-07-05T09:54:18Z</time>
      </trkpt>
      <trkpt lat="42.499493" lon="-0.80923253">
        <time>2022-07-05T09:54:22Z</time>
      </trkpt>
      <trkpt lat="42.499435" lon="-0.80922353">
        <time>2022-07-05T09:54:26Z</time>
      </trkpt>
      <trkpt lat="42.499382" lon="-0.8092062">
        <time>2022-07-05T09:54:30Z</time>
      </trkpt>
      <trkpt lat="42.499325" lon="-0.80919755">
        <time>2022-07-05T09:54:34Z</time>
      </trkpt>
      <trkpt lat="42.499268" lon="-0.80918354">
        <time>2022-07-05T09:54:38Z</time>
      </trkpt>
      <trkpt lat="42.499214" lon="-0.8091649">
        <time>2022-07-05T09:54:42Z</time>
      </trkpt>
      <trkpt lat="42.49916" lon="-0.8091509">
        <time>2022-07-05T09:54:46Z</time>
      </trkpt>
      <trkpt lat="42.499104" lon="-0.80913687">
        <time>2022-07-05T09:54:50Z</time>
      </trkpt>
      <trkpt lat="42.499043" lon="-0.8091192">
        <time>2022-07-05T09:54:54Z</time>
      </trkpt>
      <trkpt lat="42.498985" lon="-0.8091052">
        <time>2022-07-05T09:54:58Z</time>
      </trkpt>
      <trkpt lat="42.498928" lon="-0.8090966">
        <time>2022-07-05T09:55:02Z</time>
      </trkpt>
      <trkpt lat="42.49887" lon="-0.8090859">
        <time>2022-07-05T09:55:06Z</time>
      </trkpt>
      <trkpt lat="42.498814" lon="-0.8090759">
        <time>2022-07-05T09:55:10Z</time>
      </trkpt>
      <trkpt lat="42.498756" lon="-0.80907124">
        <time>2022-07-05T09:55:14Z</time>
      </trkpt>
      <trkpt lat="42.498684" lon="-0.8090749">
        <time>2022-07-05T09:55:19Z</time>
      </trkpt>
      <trkpt lat="42.498627" lon="-0.8090769">
        <time>2022-07-05T09:55:23Z</time>
      </trkpt>
      <trkpt lat="42.49857" lon="-0.8090789">
        <time>2022-07-05T09:55:27Z</time>
      </trkpt>
      <trkpt lat="42.498512" lon="-0.80907923">
        <time>2022-07-05T09:55:31Z</time>
      </trkpt>
      <trkpt lat="42.498455" lon="-0.8090819">
        <time>2022-07-05T09:55:35Z</time>
      </trkpt>
      <trkpt lat="42.498398" lon="-0.80908924">
        <time>2022-07-05T09:55:39Z</time>
      </trkpt>
      <trkpt lat="42.49834" lon="-0.80909353">
        <time>2022-07-05T09:55:43Z</time>
      </trkpt>
      <trkpt lat="42.498283" lon="-0.8090962">
        <time>2022-07-05T09:55:47Z</time>
      </trkpt>
      <trkpt lat="42.498222" lon="-0.80910087">
        <time>2022-07-05T09:55:51Z</time>
      </trkpt>
      <trkpt lat="42.498177" lon="-0.8091069">
        <time>2022-07-05T09:55:54Z</time>
      </trkpt>
      <trkpt lat="42.498116" lon="-0.80911785">
        <time>2022-07-05T09:55:58Z</time>
      </trkpt>
      <trkpt lat="42.49807" lon="-0.8091272">
        <time>2022-07-05T09:56:01Z</time>
      </trkpt>
      <trkpt lat="42.49801" lon="-0.80914253">
        <time>2022-07-05T09:56:05Z</time>
      </trkpt>
      <trkpt lat="42.49795" lon="-0.80914855">
        <time>2022-07-05T09:56:09Z</time>
      </trkpt>
      <trkpt lat="42.49789" lon="-0.8091455">
        <time>2022-07-05T09:56:13Z</time>
      </trkpt>
      <trkpt lat="42.497833" lon="-0.8091512">
        <time>2022-07-05T09:56:17Z</time>
      </trkpt>
      <trkpt lat="42.497772" lon="-0.8091648">
        <time>2022-07-05T09:56:21Z</time>
      </trkpt>
      <trkpt lat="42.49771" lon="-0.8091712">
        <time>2022-07-05T09:56:25Z</time>
      </trkpt>
      <trkpt lat="42.497658" lon="-0.80917716">
        <time>2022-07-05T09:56:29Z</time>
      </trkpt>
      <trkpt lat="42.497585" lon="-0.8091878">
        <time>2022-07-05T09:56:34Z</time>
      </trkpt>
      <trkpt lat="42.497528" lon="-0.8091925">
        <time>2022-07-05T09:56:38Z</time>
      </trkpt>
      <trkpt lat="42.497467" lon="-0.8091945">
        <time>2022-07-05T09:56:42Z</time>
      </trkpt>
      <trkpt lat="42.49741" lon="-0.8091998">
        <time>2022-07-05T09:56:46Z</time>
      </trkpt>
      <trkpt lat="42.49735" lon="-0.8092125">
        <time>2022-07-05T09:56:50Z</time>
      </trkpt>
      <trkpt lat="42.49729" lon="-0.8092225">
        <time>2022-07-05T09:56:54Z</time>
      </trkpt>
      <trkpt lat="42.49723" lon="-0.8092265">
        <time>2022-07-05T09:56:58Z</time>
      </trkpt>
      <trkpt lat="42.497166" lon="-0.8092345">
        <time>2022-07-05T09:57:02Z</time>
      </trkpt>
      <trkpt lat="42.49711" lon="-0.80924815">
        <time>2022-07-05T09:57:06Z</time>
      </trkpt>
      <trkpt lat="42.497047" lon="-0.8092575">
        <time>2022-07-05T09:57:10Z</time>
      </trkpt>
      <trkpt lat="42.496998" lon="-0.80926317">
        <time>2022-07-05T09:57:13Z</time>
      </trkpt>
      <trkpt lat="42.49694" lon="-0.8092718">
        <time>2022-07-05T09:57:17Z</time>
      </trkpt>
      <trkpt lat="42.49688" lon="-0.80928147">
        <time>2022-07-05T09:57:21Z</time>
      </trkpt>
      <trkpt lat="42.496822" lon="-0.8092848">
        <time>2022-07-05T09:57:25Z</time>
      </trkpt>
      <trkpt lat="42.496777" lon="-0.8092888">
        <time>2022-07-05T09:57:28Z</time>
      </trkpt>
      <trkpt lat="42.49671" lon="-0.8092821">
        <time>2022-07-05T09:57:32Z</time>
      </trkpt>
      <trkpt lat="42.496643" lon="-0.8092748">
        <time>2022-07-05T09:57:36Z</time>
      </trkpt>
      <trkpt lat="42.496593" lon="-0.80927116">
        <time>2022-07-05T09:57:39Z</time>
      </trkpt>
      <trkpt lat="42.49653" lon="-0.8092641">
        <time>2022-07-05T09:57:43Z</time>
      </trkpt>
      <trkpt lat="42.496468" lon="-0.8092498">
        <time>2022-07-05T09:57:47Z</time>
      </trkpt>
      <trkpt lat="42.496407" lon="-0.8092385">
        <time>2022-07-05T09:57:51Z</time>
      </trkpt>
      <trkpt lat="42.49634" lon="-0.8092241">
        <time>2022-07-05T09:57:55Z</time>
      </trkpt>
      <trkpt lat="42.49628" lon="-0.80920416">
        <time>2022-07-05T09:57:59Z</time>
      </trkpt>
      <trkpt lat="42.496216" lon="-0.80918014">
        <time>2022-07-05T09:58:03Z</time>
      </trkpt>
      <trkpt lat="42.49617" lon="-0.80916214">
        <time>2022-07-05T09:58:06Z</time>
      </trkpt>
      <trkpt lat="42.496105" lon="-0.8091332">
        <time>2022-07-05T09:58:10Z</time>
      </trkpt>
      <trkpt lat="42.496044" lon="-0.8091055">
        <time>2022-07-05T09:58:14Z</time>
      </trkpt>
      <trkpt lat="42.495995" lon="-0.8090828">
        <time>2022-07-05T09:58:17Z</time>
      </trkpt>
      <trkpt lat="42.495934" lon="-0.80905783">
        <time>2022-07-05T09:58:21Z</time>
      </trkpt>
      <trkpt lat="42.495888" lon="-0.80903316">
        <time>2022-07-05T09:58:24Z</time>
      </trkpt>
      <trkpt lat="42.495823" lon="-0.8089975">
        <time>2022-07-05T09:58:28Z</time>
      </trkpt>
      <trkpt lat="42.495777" lon="-0.80897087">
        <time>2022-07-05T09:58:31Z</time>
      </trkpt>
      <trkpt lat="42.495728" lon="-0.80893785">
        <time>2022-07-05T09:58:34Z</time>
      </trkpt>
      <trkpt lat="42.49568" lon="-0.8089048">
        <time>2022-07-05T09:58:37Z</time>
      </trkpt>
      <trkpt lat="42.49562" lon="-0.8088622">
        <time>2022-07-05T09:58:41Z</time>
      </trkpt>
      <trkpt lat="42.495575" lon="-0.80882883">
        <time>2022-07-05T09:58:44Z</time>
      </trkpt>
      <trkpt lat="42.49553" lon="-0.8087962">
        <time>2022-07-05T09:58:47Z</time>
      </trkpt>
      <trkpt lat="42.495476" lon="-0.8087472">
        <time>2022-07-05T09:58:51Z</time>
      </trkpt>
      <trkpt lat="42.49543" lon="-0.8087119">
        <time>2022-07-05T09:58:54Z</time>
      </trkpt>
      <trkpt lat="42.49538" lon="-0.80867153">
        <time>2022-07-05T09:58:57Z</time>
      </trkpt>
      <trkpt lat="42.495327" lon="-0.8086272">
        <time>2022-07-05T09:59:00Z</time>
      </trkpt>
      <trkpt lat="42.495274" lon="-0.8085789">
        <time>2022-07-05T09:59:03Z</time>
      </trkpt>
      <trkpt lat="42.49522" lon="-0.80852586">
        <time>2022-07-05T09:59:06Z</time>
      </trkpt>
      <trkpt lat="42.495163" lon="-0.80846757">
        <time>2022-07-05T09:59:09Z</time>
      </trkpt>
      <trkpt lat="42.495106" lon="-0.8084105">
        <time>2022-07-05T09:59:12Z</time>
      </trkpt>
      <trkpt lat="42.49505" lon="-0.80835557">
        <time>2022-07-05T09:59:15Z</time>
      </trkpt>
      <trkpt lat="42.494987" lon="-0.80829823">
        <time>2022-07-05T09:59:18Z</time>
      </trkpt>
      <trkpt lat="42.49493" lon="-0.8082439">
        <time>2022-07-05T09:59:21Z</time>
      </trkpt>
      <trkpt lat="42.49489" lon="-0.80820787">
        <time>2022-07-05T09:59:23Z</time>
      </trkpt>
      <trkpt lat="42.49483" lon="-0.80815786">
        <time>2022-07-05T09:59:26Z</time>
      </trkpt>
      <trkpt lat="42.49477" lon="-0.80810356">
        <time>2022-07-05T09:59:29Z</time>
      </trkpt>
      <trkpt lat="42.49471" lon="-0.8080502">
        <time>2022-07-05T09:59:32Z</time>
      </trkpt>
      <trkpt lat="42.494648" lon="-0.8079939">
        <time>2022-07-05T09:59:35Z</time>
      </trkpt>
      <trkpt lat="42.494587" lon="-0.8079386">
        <time>2022-07-05T09:59:38Z</time>
      </trkpt>
      <trkpt lat="42.494526" lon="-0.8078932">
        <time>2022-07-05T09:59:41Z</time>
      </trkpt>
      <trkpt lat="42.494457" lon="-0.80785227">
        <time>2022-07-05T09:59:44Z</time>
      </trkpt>
      <trkpt lat="42.494392" lon="-0.80781424">
        <time>2022-07-05T09:59:47Z</time>
      </trkpt>
      <trkpt lat="42.494328" lon="-0.80777425">
        <time>2022-07-05T09:59:50Z</time>
      </trkpt>
      <trkpt lat="42.494263" lon="-0.80773956">
        <time>2022-07-05T09:59:53Z</time>
      </trkpt>
      <trkpt lat="42.494194" lon="-0.8077116">
        <time>2022-07-05T09:59:56Z</time>
      </trkpt>
      <trkpt lat="42.494125" lon="-0.80768555">
        <time>2022-07-05T09:59:59Z</time>
      </trkpt>
      <trkpt lat="42.49406" lon="-0.80766094">
        <time>2022-07-05T10:00:02Z</time>
      </trkpt>
      <trkpt lat="42.49399" lon="-0.80764025">
        <time>2022-07-05T10:00:05Z</time>
      </trkpt>
      <trkpt lat="42.493927" lon="-0.8076206">
        <time>2022-07-05T10:00:08Z</time>
      </trkpt>
      <trkpt lat="42.49387" lon="-0.80761427">
        <time>2022-07-05T10:00:11Z</time>
      </trkpt>
      <trkpt lat="42.49382" lon="-0.8076186">
        <time>2022-07-05T10:00:17Z</time>
      </trkpt>
      <trkpt lat="42.49373" lon="-0.8075676">
        <time>2022-07-05T10:04:33Z</time>
      </trkpt>
      <trkpt lat="42.493675" lon="-0.8075493">
        <time>2022-07-05T10:04:36Z</time>
      </trkpt>
      <trkpt lat="42.493614" lon="-0.80753464">
        <time>2022-07-05T10:04:39Z</time>
      </trkpt>
      <trkpt lat="42.49355" lon="-0.8075236">
        <time>2022-07-05T10:04:42Z</time>
      </trkpt>
      <trkpt lat="42.49348" lon="-0.8075126">
        <time>2022-07-05T10:04:45Z</time>
      </trkpt>
      <trkpt lat="42.49341" lon="-0.8075006">
        <time>2022-07-05T10:04:48Z</time>
      </trkpt>
      <trkpt lat="42.493332" lon="-0.80748826">
        <time>2022-07-05T10:04:51Z</time>
      </trkpt>
      <trkpt lat="42.493275" lon="-0.80748194">
        <time>2022-07-05T10:04:53Z</time>
      </trkpt>
      <trkpt lat="42.493217" lon="-0.8074763">
        <time>2022-07-05T10:04:55Z</time>
      </trkpt>
      <trkpt lat="42.493153" lon="-0.807471">
        <time>2022-07-05T10:04:57Z</time>
      </trkpt>
      <trkpt lat="42.493084" lon="-0.80746466">
        <time>2022-07-05T10:04:59Z</time>
      </trkpt>
      <trkpt lat="42.49301" lon="-0.80745465">
        <time>2022-07-05T10:05:01Z</time>
      </trkpt>
      <trkpt lat="42.49294" lon="-0.807444">
        <time>2022-07-05T10:05:03Z</time>
      </trkpt>
      <trkpt lat="42.492855" lon="-0.80742896">
        <time>2022-07-05T10:05:05Z</time>
      </trkpt>
      <trkpt lat="42.49277" lon="-0.80741465">
        <time>2022-07-05T10:05:07Z</time>
      </trkpt>
      <trkpt lat="42.49268" lon="-0.8074023">
        <time>2022-07-05T10:05:09Z</time>
      </trkpt>
      <trkpt lat="42.492588" lon="-0.80738497">
        <time>2022-07-05T10:05:11Z</time>
      </trkpt>
      <trkpt lat="42.49249" lon="-0.80736834">
        <time>2022-07-05T10:05:13Z</time>
      </trkpt>
      <trkpt lat="42.49244" lon="-0.80735767">
        <time>2022-07-05T10:05:14Z</time>
      </trkpt>
      <trkpt lat="42.492386" lon="-0.80734634">
        <time>2022-07-05T10:05:15Z</time>
      </trkpt>
      <trkpt lat="42.492283" lon="-0.80732167">
        <time>2022-07-05T10:05:17Z</time>
      </trkpt>
      <trkpt lat="42.492233" lon="-0.8073097">
        <time>2022-07-05T10:05:18Z</time>
      </trkpt>
      <trkpt lat="42.49218" lon="-0.807295">
        <time>2022-07-05T10:05:19Z</time>
      </trkpt>
      <trkpt lat="42.49213" lon="-0.80727935">
        <time>2022-07-05T10:05:20Z</time>
      </trkpt>
      <trkpt lat="42.492077" lon="-0.807266">
        <time>2022-07-05T10:05:21Z</time>
      </trkpt>
      <trkpt lat="42.49197" lon="-0.807237">
        <time>2022-07-05T10:05:23Z</time>
      </trkpt>
      <trkpt lat="42.491913" lon="-0.8072177">
        <time>2022-07-05T10:05:24Z</time>
      </trkpt>
      <trkpt lat="42.4918" lon="-0.8071784">
        <time>2022-07-05T10:05:26Z</time>
      </trkpt>
      <trkpt lat="42.49174" lon="-0.8071577">
        <time>2022-07-05T10:05:27Z</time>
      </trkpt>
      <trkpt lat="42.491688" lon="-0.8071367">
        <time>2022-07-05T10:05:28Z</time>
      </trkpt>
      <trkpt lat="42.491634" lon="-0.80711603">
        <time>2022-07-05T10:05:29Z</time>
      </trkpt>
      <trkpt lat="42.491577" lon="-0.807092">
        <time>2022-07-05T10:05:30Z</time>
      </trkpt>
      <trkpt lat="42.49152" lon="-0.8070664">
        <time>2022-07-05T10:05:31Z</time>
      </trkpt>
      <trkpt lat="42.491463" lon="-0.8070404">
        <time>2022-07-05T10:05:32Z</time>
      </trkpt>
      <trkpt lat="42.4914" lon="-0.80701405">
        <time>2022-07-05T10:05:33Z</time>
      </trkpt>
      <trkpt lat="42.491344" lon="-0.80698705">
        <time>2022-07-05T10:05:34Z</time>
      </trkpt>
      <trkpt lat="42.491283" lon="-0.80695707">
        <time>2022-07-05T10:05:35Z</time>
      </trkpt>
      <trkpt lat="42.49122" lon="-0.8069247">
        <time>2022-07-05T10:05:36Z</time>
      </trkpt>
      <trkpt lat="42.49115" lon="-0.80688703">
        <time>2022-07-05T10:05:37Z</time>
      </trkpt>
      <trkpt lat="42.49108" lon="-0.8068511">
        <time>2022-07-05T10:05:38Z</time>
      </trkpt>
      <trkpt lat="42.491013" lon="-0.8068141">
        <time>2022-07-05T10:05:39Z</time>
      </trkpt>
      <trkpt lat="42.490944" lon="-0.80677575">
        <time>2022-07-05T10:05:40Z</time>
      </trkpt>
      <trkpt lat="42.49087" lon="-0.80673575">
        <time>2022-07-05T10:05:41Z</time>
      </trkpt>
      <trkpt lat="42.490795" lon="-0.8066944">
        <time>2022-07-05T10:05:42Z</time>
      </trkpt>
      <trkpt lat="42.49072" lon="-0.80665106">
        <time>2022-07-05T10:05:43Z</time>
      </trkpt>
      <trkpt lat="42.490643" lon="-0.80660474">
        <time>2022-07-05T10:05:44Z</time>
      </trkpt>
      <trkpt lat="42.490566" lon="-0.8065554">
        <time>2022-07-05T10:05:45Z</time>
      </trkpt>
      <trkpt lat="42.490486" lon="-0.8065044">
        <time>2022-07-05T10:05:46Z</time>
      </trkpt>
      <trkpt lat="42.4904" lon="-0.80645174">
        <time>2022-07-05T10:05:47Z</time>
      </trkpt>
      <trkpt lat="42.490307" lon="-0.80640376">
        <time>2022-07-05T10:05:48Z</time>
      </trkpt>
      <trkpt lat="42.490223" lon="-0.80636144">
        <time>2022-07-05T10:05:49Z</time>
      </trkpt>
      <trkpt lat="42.49013" lon="-0.8063201">
        <time>2022-07-05T10:05:50Z</time>
      </trkpt>
      <trkpt lat="42.490044" lon="-0.80627906">
        <time>2022-07-05T10:05:51Z</time>
      </trkpt>
      <trkpt lat="42.489944" lon="-0.80623674">
        <time>2022-07-05T10:05:52Z</time>
      </trkpt>
      <trkpt lat="42.489845" lon="-0.8061971">
        <time>2022-07-05T10:05:53Z</time>
      </trkpt>
      <trkpt lat="42.489746" lon="-0.80616075">
        <time>2022-07-05T10:05:54Z</time>
      </trkpt>
      <trkpt lat="42.489655" lon="-0.8061291">
        <time>2022-07-05T10:05:55Z</time>
      </trkpt>
      <trkpt lat="42.48956" lon="-0.80609846">
        <time>2022-07-05T10:05:56Z</time>
      </trkpt>
      <trkpt lat="42.489452" lon="-0.8060671">
        <time>2022-07-05T10:05:57Z</time>
      </trkpt>
      <trkpt lat="42.489346" lon="-0.8060391">
        <time>2022-07-05T10:05:58Z</time>
      </trkpt>
      <trkpt lat="42.48924" lon="-0.80601615">
        <time>2022-07-05T10:05:59Z</time>
      </trkpt>
      <trkpt lat="42.48914" lon="-0.8059961">
        <time>2022-07-05T10:06:00Z</time>
      </trkpt>
      <trkpt lat="42.489037" lon="-0.8059768">
        <time>2022-07-05T10:06:01Z</time>
      </trkpt>
      <trkpt lat="42.488922" lon="-0.8059588">
        <time>2022-07-05T10:06:02Z</time>
      </trkpt>
      <trkpt lat="42.488808" lon="-0.8059428">
        <time>2022-07-05T10:06:03Z</time>
      </trkpt>
      <trkpt lat="42.488697" lon="-0.80592877">
        <time>2022-07-05T10:06:04Z</time>
      </trkpt>
      <trkpt lat="42.488583" lon="-0.80591613">
        <time>2022-07-05T10:06:05Z</time>
      </trkpt>
      <trkpt lat="42.48847" lon="-0.80590445">
        <time>2022-07-05T10:06:06Z</time>
      </trkpt>
      <trkpt lat="42.488358" lon="-0.8058945">
        <time>2022-07-05T10:06:07Z</time>
      </trkpt>
      <trkpt lat="42.488247" lon="-0.8058841">
        <time>2022-07-05T10:06:08Z</time>
      </trkpt>
      <trkpt lat="42.488132" lon="-0.8058738">
        <time>2022-07-05T10:06:09Z</time>
      </trkpt>
      <trkpt lat="42.48802" lon="-0.80586314">
        <time>2022-07-05T10:06:10Z</time>
      </trkpt>
      <trkpt lat="42.487907" lon="-0.8058525">
        <time>2022-07-05T10:06:11Z</time>
      </trkpt>
      <trkpt lat="42.487797" lon="-0.8058425">
        <time>2022-07-05T10:06:12Z</time>
      </trkpt>
      <trkpt lat="42.487686" lon="-0.8058315">
        <time>2022-07-05T10:06:13Z</time>
      </trkpt>
      <trkpt lat="42.487576" lon="-0.80582017">
        <time>2022-07-05T10:06:14Z</time>
      </trkpt>
      <trkpt lat="42.487465" lon="-0.80580914">
        <time>2022-07-05T10:06:15Z</time>
      </trkpt>
      <trkpt lat="42.487354" lon="-0.8057988">
        <time>2022-07-05T10:06:16Z</time>
      </trkpt>
      <trkpt lat="42.487244" lon="-0.80578816">
        <time>2022-07-05T10:06:17Z</time>
      </trkpt>
      <trkpt lat="42.48713" lon="-0.8057775">
        <time>2022-07-05T10:06:18Z</time>
      </trkpt>
      <trkpt lat="42.487026" lon="-0.8057685">
        <time>2022-07-05T10:06:19Z</time>
      </trkpt>
      <trkpt lat="42.48692" lon="-0.80575883">
        <time>2022-07-05T10:06:20Z</time>
      </trkpt>
      <trkpt lat="42.48681" lon="-0.8057485">
        <time>2022-07-05T10:06:21Z</time>
      </trkpt>
      <trkpt lat="42.486706" lon="-0.8057385">
        <time>2022-07-05T10:06:22Z</time>
      </trkpt>
      <trkpt lat="42.486603" lon="-0.8057295">
        <time>2022-07-05T10:06:23Z</time>
      </trkpt>
      <trkpt lat="42.486496" lon="-0.8057205">
        <time>2022-07-05T10:06:24Z</time>
      </trkpt>
      <trkpt lat="42.486393" lon="-0.8057129">
        <time>2022-07-05T10:06:25Z</time>
      </trkpt>
      <trkpt lat="42.486286" lon="-0.8057072">
        <time>2022-07-05T10:06:26Z</time>
      </trkpt>
      <trkpt lat="42.486073" lon="-0.80570257">
        <time>2022-07-05T10:06:28Z</time>
      </trkpt>
      <trkpt lat="42.48597" lon="-0.8057035">
        <time>2022-07-05T10:06:29Z</time>
      </trkpt>
      <trkpt lat="42.485863" lon="-0.8057079">
        <time>2022-07-05T10:06:30Z</time>
      </trkpt>
      <trkpt lat="42.485756" lon="-0.8057152">
        <time>2022-07-05T10:06:31Z</time>
      </trkpt>
      <trkpt lat="42.485653" lon="-0.8057262">
        <time>2022-07-05T10:06:32Z</time>
      </trkpt>
      <trkpt lat="42.485542" lon="-0.80574185">
        <time>2022-07-05T10:06:33Z</time>
      </trkpt>
      <trkpt lat="42.48544" lon="-0.80575955">
        <time>2022-07-05T10:06:34Z</time>
      </trkpt>
      <trkpt lat="42.48534" lon="-0.8057795">
        <time>2022-07-05T10:06:35Z</time>
      </trkpt>
      <trkpt lat="42.48524" lon="-0.8058015">
        <time>2022-07-05T10:06:36Z</time>
      </trkpt>
      <trkpt lat="42.485146" lon="-0.8058245">
        <time>2022-07-05T10:06:37Z</time>
      </trkpt>
      <trkpt lat="42.485054" lon="-0.80584884">
        <time>2022-07-05T10:06:38Z</time>
      </trkpt>
      <trkpt lat="42.48496" lon="-0.8058752">
        <time>2022-07-05T10:06:39Z</time>
      </trkpt>
      <trkpt lat="42.484867" lon="-0.8059032">
        <time>2022-07-05T10:06:40Z</time>
      </trkpt>
      <trkpt lat="42.484776" lon="-0.80593216">
        <time>2022-07-05T10:06:41Z</time>
      </trkpt>
      <trkpt lat="42.484688" lon="-0.8059615">
        <time>2022-07-05T10:06:42Z</time>
      </trkpt>
      <trkpt lat="42.4846" lon="-0.8059912">
        <time>2022-07-05T10:06:43Z</time>
      </trkpt>
      <trkpt lat="42.484512" lon="-0.8060205">
        <time>2022-07-05T10:06:44Z</time>
      </trkpt>
      <trkpt lat="42.484425" lon="-0.8060498">
        <time>2022-07-05T10:06:45Z</time>
      </trkpt>
      <trkpt lat="42.48435" lon="-0.80607784">
        <time>2022-07-05T10:06:46Z</time>
      </trkpt>
      <trkpt lat="42.484264" lon="-0.8061065">
        <time>2022-07-05T10:06:47Z</time>
      </trkpt>
      <trkpt lat="42.48418" lon="-0.80613613">
        <time>2022-07-05T10:06:48Z</time>
      </trkpt>
      <trkpt lat="42.4841" lon="-0.80616647">
        <time>2022-07-05T10:06:49Z</time>
      </trkpt>
      <trkpt lat="42.484016" lon="-0.8061968">
        <time>2022-07-05T10:06:50Z</time>
      </trkpt>
      <trkpt lat="42.483932" lon="-0.8062251">
        <time>2022-07-05T10:06:51Z</time>
      </trkpt>
      <trkpt lat="42.48385" lon="-0.8062521">
        <time>2022-07-05T10:06:52Z</time>
      </trkpt>
      <trkpt lat="42.483765" lon="-0.8062778">
        <time>2022-07-05T10:06:53Z</time>
      </trkpt>
      <trkpt lat="42.48368" lon="-0.80630046">
        <time>2022-07-05T10:06:54Z</time>
      </trkpt>
      <trkpt lat="42.48359" lon="-0.80632114">
        <time>2022-07-05T10:06:55Z</time>
      </trkpt>
      <trkpt lat="42.4835" lon="-0.8063378">
        <time>2022-07-05T10:06:56Z</time>
      </trkpt>
      <trkpt lat="42.48341" lon="-0.8063501">
        <time>2022-07-05T10:06:57Z</time>
      </trkpt>
      <trkpt lat="42.483322" lon="-0.8063594">
        <time>2022-07-05T10:06:58Z</time>
      </trkpt>
      <trkpt lat="42.483234" lon="-0.8063648">
        <time>2022-07-05T10:06:59Z</time>
      </trkpt>
      <trkpt lat="42.483143" lon="-0.80636543">
        <time>2022-07-05T10:07:00Z</time>
      </trkpt>
      <trkpt lat="42.483055" lon="-0.8063611">
        <time>2022-07-05T10:07:01Z</time>
      </trkpt>
      <trkpt lat="42.482964" lon="-0.80635077">
        <time>2022-07-05T10:07:02Z</time>
      </trkpt>
      <trkpt lat="42.482876" lon="-0.8063361">
        <time>2022-07-05T10:07:03Z</time>
      </trkpt>
      <trkpt lat="42.482784" lon="-0.8063171">
        <time>2022-07-05T10:07:04Z</time>
      </trkpt>
      <trkpt lat="42.482693" lon="-0.8062925">
        <time>2022-07-05T10:07:05Z</time>
      </trkpt>
      <trkpt lat="42.482605" lon="-0.8062618">
        <time>2022-07-05T10:07:06Z</time>
      </trkpt>
      <trkpt lat="42.482513" lon="-0.8062258">
        <time>2022-07-05T10:07:07Z</time>
      </trkpt>
      <trkpt lat="42.482426" lon="-0.8061841">
        <time>2022-07-05T10:07:08Z</time>
      </trkpt>
      <trkpt lat="42.482334" lon="-0.8061368">
        <time>2022-07-05T10:07:09Z</time>
      </trkpt>
      <trkpt lat="42.482246" lon="-0.8060828">
        <time>2022-07-05T10:07:10Z</time>
      </trkpt>
      <trkpt lat="42.48216" lon="-0.80602247">
        <time>2022-07-05T10:07:11Z</time>
      </trkpt>
      <trkpt lat="42.48207" lon="-0.8059561">
        <time>2022-07-05T10:07:12Z</time>
      </trkpt>
      <trkpt lat="42.481983" lon="-0.8058855">
        <time>2022-07-05T10:07:13Z</time>
      </trkpt>
      <trkpt lat="42.481895" lon="-0.8058098">
        <time>2022-07-05T10:07:14Z</time>
      </trkpt>
      <trkpt lat="42.481804" lon="-0.80572915">
        <time>2022-07-05T10:07:15Z</time>
      </trkpt>
      <trkpt lat="42.48172" lon="-0.8056498">
        <time>2022-07-05T10:07:16Z</time>
      </trkpt>
      <trkpt lat="42.48163" lon="-0.8055602">
        <time>2022-07-05T10:07:17Z</time>
      </trkpt>
      <trkpt lat="42.481533" lon="-0.8054675">
        <time>2022-07-05T10:07:18Z</time>
      </trkpt>
      <trkpt lat="42.481445" lon="-0.80537987">
        <time>2022-07-05T10:07:19Z</time>
      </trkpt>
      <trkpt lat="42.481354" lon="-0.8052892">
        <time>2022-07-05T10:07:20Z</time>
      </trkpt>
      <trkpt lat="42.481262" lon="-0.8051955">
        <time>2022-07-05T10:07:21Z</time>
      </trkpt>
      <trkpt lat="42.481167" lon="-0.8051005">
        <time>2022-07-05T10:07:22Z</time>
      </trkpt>
      <trkpt lat="42.48107" lon="-0.8050035">
        <time>2022-07-05T10:07:23Z</time>
      </trkpt>
      <trkpt lat="42.480972" lon="-0.8049052">
        <time>2022-07-05T10:07:24Z</time>
      </trkpt>
      <trkpt lat="42.480873" lon="-0.8048052">
        <time>2022-07-05T10:07:25Z</time>
      </trkpt>
      <trkpt lat="42.48077" lon="-0.8047032">
        <time>2022-07-05T10:07:26Z</time>
      </trkpt>
      <trkpt lat="42.48067" lon="-0.80460054">
        <time>2022-07-05T10:07:27Z</time>
      </trkpt>
      <trkpt lat="42.480564" lon="-0.80449057">
        <time>2022-07-05T10:07:28Z</time>
      </trkpt>
      <trkpt lat="42.48046" lon="-0.8043822">
        <time>2022-07-05T10:07:29Z</time>
      </trkpt>
      <trkpt lat="42.480362" lon="-0.8042829">
        <time>2022-07-05T10:07:30Z</time>
      </trkpt>
      <trkpt lat="42.480263" lon="-0.8041816">
        <time>2022-07-05T10:07:31Z</time>
      </trkpt>
      <trkpt lat="42.48006" lon="-0.8039689">
        <time>2022-07-05T10:07:33Z</time>
      </trkpt>
      <trkpt lat="42.479958" lon="-0.8038622">
        <time>2022-07-05T10:07:34Z</time>
      </trkpt>
      <trkpt lat="42.479855" lon="-0.8037579">
        <time>2022-07-05T10:07:35Z</time>
      </trkpt>
      <trkpt lat="42.47976" lon="-0.8036616">
        <time>2022-07-05T10:07:36Z</time>
      </trkpt>
      <trkpt lat="42.47966" lon="-0.8035649">
        <time>2022-07-05T10:07:37Z</time>
      </trkpt>
      <trkpt lat="42.479557" lon="-0.8034682">
        <time>2022-07-05T10:07:38Z</time>
      </trkpt>
      <trkpt lat="42.47945" lon="-0.80336356">
        <time>2022-07-05T10:07:39Z</time>
      </trkpt>
      <trkpt lat="42.47935" lon="-0.8032663">
        <time>2022-07-05T10:07:40Z</time>
      </trkpt>
      <trkpt lat="42.47925" lon="-0.80316824">
        <time>2022-07-05T10:07:41Z</time>
      </trkpt>
      <trkpt lat="42.47915" lon="-0.80307126">
        <time>2022-07-05T10:07:42Z</time>
      </trkpt>
      <trkpt lat="42.479046" lon="-0.8029746">
        <time>2022-07-05T10:07:43Z</time>
      </trkpt>
      <trkpt lat="42.47894" lon="-0.8028803">
        <time>2022-07-05T10:07:44Z</time>
      </trkpt>
      <trkpt lat="42.478832" lon="-0.8027893">
        <time>2022-07-05T10:07:45Z</time>
      </trkpt>
      <trkpt lat="42.47872" lon="-0.8026963">
        <time>2022-07-05T10:07:46Z</time>
      </trkpt>
      <trkpt lat="42.478615" lon="-0.80261296">
        <time>2022-07-05T10:07:47Z</time>
      </trkpt>
      <trkpt lat="42.47851" lon="-0.8025313">
        <time>2022-07-05T10:07:48Z</time>
      </trkpt>
      <trkpt lat="42.47841" lon="-0.80245125">
        <time>2022-07-05T10:07:49Z</time>
      </trkpt>
      <trkpt lat="42.4783" lon="-0.8023683">
        <time>2022-07-05T10:07:50Z</time>
      </trkpt>
      <trkpt lat="42.47819" lon="-0.8022886">
        <time>2022-07-05T10:07:51Z</time>
      </trkpt>
      <trkpt lat="42.478096" lon="-0.80221665">
        <time>2022-07-05T10:07:52Z</time>
      </trkpt>
      <trkpt lat="42.478004" lon="-0.8021463">
        <time>2022-07-05T10:07:53Z</time>
      </trkpt>
      <trkpt lat="42.47791" lon="-0.8020773">
        <time>2022-07-05T10:07:54Z</time>
      </trkpt>
      <trkpt lat="42.47782" lon="-0.802009">
        <time>2022-07-05T10:07:55Z</time>
      </trkpt>
      <trkpt lat="42.477734" lon="-0.8019433">
        <time>2022-07-05T10:07:56Z</time>
      </trkpt>
      <trkpt lat="42.477646" lon="-0.80187964">
        <time>2022-07-05T10:07:57Z</time>
      </trkpt>
      <trkpt lat="42.477562" lon="-0.8018163">
        <time>2022-07-05T10:07:58Z</time>
      </trkpt>
      <trkpt lat="42.477486" lon="-0.80175596">
        <time>2022-07-05T10:07:59Z</time>
      </trkpt>
      <trkpt lat="42.47741" lon="-0.8016983">
        <time>2022-07-05T10:08:00Z</time>
      </trkpt>
      <trkpt lat="42.477337" lon="-0.80164266">
        <time>2022-07-05T10:08:01Z</time>
      </trkpt>
      <trkpt lat="42.47727" lon="-0.80158967">
        <time>2022-07-05T10:08:02Z</time>
      </trkpt>
      <trkpt lat="42.4772" lon="-0.80153567">
        <time>2022-07-05T10:08:03Z</time>
      </trkpt>
      <trkpt lat="42.477135" lon="-0.801485">
        <time>2022-07-05T10:08:04Z</time>
      </trkpt>
      <trkpt lat="42.477077" lon="-0.801436">
        <time>2022-07-05T10:08:05Z</time>
      </trkpt>
      <trkpt lat="42.47702" lon="-0.8013887">
        <time>2022-07-05T10:08:06Z</time>
      </trkpt>
      <trkpt lat="42.476967" lon="-0.80134165">
        <time>2022-07-05T10:08:07Z</time>
      </trkpt>
      <trkpt lat="42.476917" lon="-0.801297">
        <time>2022-07-05T10:08:08Z</time>
      </trkpt>
      <trkpt lat="42.476868" lon="-0.80125403">
        <time>2022-07-05T10:08:09Z</time>
      </trkpt>
      <trkpt lat="42.47682" lon="-0.80121136">
        <time>2022-07-05T10:08:10Z</time>
      </trkpt>
      <trkpt lat="42.47678" lon="-0.8011683">
        <time>2022-07-05T10:08:11Z</time>
      </trkpt>
      <trkpt lat="42.476704" lon="-0.80108434">
        <time>2022-07-05T10:08:13Z</time>
      </trkpt>
      <trkpt lat="42.476665" lon="-0.8010427">
        <time>2022-07-05T10:08:14Z</time>
      </trkpt>
      <trkpt lat="42.476593" lon="-0.80095804">
        <time>2022-07-05T10:08:16Z</time>
      </trkpt>
      <trkpt lat="42.476555" lon="-0.80091536">
        <time>2022-07-05T10:08:17Z</time>
      </trkpt>
      <trkpt lat="42.476486" lon="-0.80083036">
        <time>2022-07-05T10:08:19Z</time>
      </trkpt>
      <trkpt lat="42.47642" lon="-0.800746">
        <time>2022-07-05T10:08:21Z</time>
      </trkpt>
      <trkpt lat="42.476387" lon="-0.8007064">
        <time>2022-07-05T10:08:22Z</time>
      </trkpt>
      <trkpt lat="42.476326" lon="-0.8006227">
        <time>2022-07-05T10:08:24Z</time>
      </trkpt>
      <trkpt lat="42.47627" lon="-0.8005367">
        <time>2022-07-05T10:08:26Z</time>
      </trkpt>
      <trkpt lat="42.476204" lon="-0.80044204">
        <time>2022-07-05T10:08:28Z</time>
      </trkpt>
      <trkpt lat="42.476143" lon="-0.8003484">
        <time>2022-07-05T10:08:30Z</time>
      </trkpt>
      <trkpt lat="42.476112" lon="-0.8003021">
        <time>2022-07-05T10:08:31Z</time>
      </trkpt>
      <trkpt lat="42.47605" lon="-0.8002081">
        <time>2022-07-05T10:08:33Z</time>
      </trkpt>
      <trkpt lat="42.475994" lon="-0.80011076">
        <time>2022-07-05T10:08:35Z</time>
      </trkpt>
      <trkpt lat="42.475937" lon="-0.8000114">
        <time>2022-07-05T10:08:37Z</time>
      </trkpt>
      <trkpt lat="42.47588" lon="-0.7999104">
        <time>2022-07-05T10:08:39Z</time>
      </trkpt>
      <trkpt lat="42.47582" lon="-0.7998094">
        <time>2022-07-05T10:08:41Z</time>
      </trkpt>
      <trkpt lat="42.47576" lon="-0.7997064">
        <time>2022-07-05T10:08:43Z</time>
      </trkpt>
      <trkpt lat="42.475704" lon="-0.7996054">
        <time>2022-07-05T10:08:45Z</time>
      </trkpt>
      <trkpt lat="42.47565" lon="-0.7995094">
        <time>2022-07-05T10:08:47Z</time>
      </trkpt>
      <trkpt lat="42.475594" lon="-0.7994118">
        <time>2022-07-05T10:08:49Z</time>
      </trkpt>
      <trkpt lat="42.475533" lon="-0.7993134">
        <time>2022-07-05T10:08:51Z</time>
      </trkpt>
      <trkpt lat="42.475475" lon="-0.7992151">
        <time>2022-07-05T10:08:53Z</time>
      </trkpt>
      <trkpt lat="42.475395" lon="-0.79908806">
        <time>2022-07-05T10:08:56Z</time>
      </trkpt>
      <trkpt lat="42.475357" lon="-0.7990304">
        <time>2022-07-05T10:08:57Z</time>
      </trkpt>
      <trkpt lat="42.47532" lon="-0.7989751">
        <time>2022-07-05T10:08:58Z</time>
      </trkpt>
      <trkpt lat="42.47528" lon="-0.79892176">
        <time>2022-07-05T10:08:59Z</time>
      </trkpt>
      <trkpt lat="42.475243" lon="-0.7988701">
        <time>2022-07-05T10:09:00Z</time>
      </trkpt>
      <trkpt lat="42.4752" lon="-0.79881877">
        <time>2022-07-05T10:09:01Z</time>
      </trkpt>
      <trkpt lat="42.475163" lon="-0.7987681">
        <time>2022-07-05T10:09:02Z</time>
      </trkpt>
      <trkpt lat="42.475117" lon="-0.7987165">
        <time>2022-07-05T10:09:03Z</time>
      </trkpt>
      <trkpt lat="42.475075" lon="-0.7986658">
        <time>2022-07-05T10:09:04Z</time>
      </trkpt>
      <trkpt lat="42.47503" lon="-0.7986161">
        <time>2022-07-05T10:09:05Z</time>
      </trkpt>
      <trkpt lat="42.474983" lon="-0.7985671">
        <time>2022-07-05T10:09:06Z</time>
      </trkpt>
      <trkpt lat="42.474934" lon="-0.7985198">
        <time>2022-07-05T10:09:07Z</time>
      </trkpt>
      <trkpt lat="42.474884" lon="-0.79847246">
        <time>2022-07-05T10:09:08Z</time>
      </trkpt>
      <trkpt lat="42.474834" lon="-0.79842883">
        <time>2022-07-05T10:09:09Z</time>
      </trkpt>
      <trkpt lat="42.474785" lon="-0.79838514">
        <time>2022-07-05T10:09:10Z</time>
      </trkpt>
      <trkpt lat="42.474735" lon="-0.79834217">
        <time>2022-07-05T10:09:11Z</time>
      </trkpt>
      <trkpt lat="42.47468" lon="-0.7983005">
        <time>2022-07-05T10:09:12Z</time>
      </trkpt>
      <trkpt lat="42.474625" lon="-0.79826015">
        <time>2022-07-05T10:09:13Z</time>
      </trkpt>
      <trkpt lat="42.474567" lon="-0.7982215">
        <time>2022-07-05T10:09:14Z</time>
      </trkpt>
      <trkpt lat="42.47451" lon="-0.7981835">
        <time>2022-07-05T10:09:15Z</time>
      </trkpt>
      <trkpt lat="42.47445" lon="-0.7981465">
        <time>2022-07-05T10:09:16Z</time>
      </trkpt>
      <trkpt lat="42.47439" lon="-0.79810953">
        <time>2022-07-05T10:09:17Z</time>
      </trkpt>
      <trkpt lat="42.474327" lon="-0.7980738">
        <time>2022-07-05T10:09:18Z</time>
      </trkpt>
      <trkpt lat="42.47426" lon="-0.79803884">
        <time>2022-07-05T10:09:19Z</time>
      </trkpt>
      <trkpt lat="42.47419" lon="-0.7980072">
        <time>2022-07-05T10:09:20Z</time>
      </trkpt>
      <trkpt lat="42.47412" lon="-0.7979789">
        <time>2022-07-05T10:09:21Z</time>
      </trkpt>
      <trkpt lat="42.474052" lon="-0.7979532">
        <time>2022-07-05T10:09:22Z</time>
      </trkpt>
      <trkpt lat="42.473984" lon="-0.79792887">
        <time>2022-07-05T10:09:23Z</time>
      </trkpt>
      <trkpt lat="42.473915" lon="-0.7979042">
        <time>2022-07-05T10:09:24Z</time>
      </trkpt>
      <trkpt lat="42.47385" lon="-0.7978809">
        <time>2022-07-05T10:09:25Z</time>
      </trkpt>
      <trkpt lat="42.473785" lon="-0.79785657">
        <time>2022-07-05T10:09:26Z</time>
      </trkpt>
      <trkpt lat="42.473724" lon="-0.79783356">
        <time>2022-07-05T10:09:27Z</time>
      </trkpt>
      <trkpt lat="42.47366" lon="-0.79781055">
        <time>2022-07-05T10:09:28Z</time>
      </trkpt>
      <trkpt lat="42.4736" lon="-0.7977882">
        <time>2022-07-05T10:09:29Z</time>
      </trkpt>
      <trkpt lat="42.473534" lon="-0.7977672">
        <time>2022-07-05T10:09:30Z</time>
      </trkpt>
      <trkpt lat="42.473473" lon="-0.79774857">
        <time>2022-07-05T10:09:31Z</time>
      </trkpt>
      <trkpt lat="42.473408" lon="-0.7977302">
        <time>2022-07-05T10:09:32Z</time>
      </trkpt>
      <trkpt lat="42.473343" lon="-0.7977122">
        <time>2022-07-05T10:09:33Z</time>
      </trkpt>
      <trkpt lat="42.47328" lon="-0.7976949">
        <time>2022-07-05T10:09:34Z</time>
      </trkpt>
      <trkpt lat="42.473217" lon="-0.7976776">
        <time>2022-07-05T10:09:35Z</time>
      </trkpt>
      <trkpt lat="42.473156" lon="-0.79766023">
        <time>2022-07-05T10:09:36Z</time>
      </trkpt>
      <trkpt lat="42.47303" lon="-0.7976232">
        <time>2022-07-05T10:09:38Z</time>
      </trkpt>
      <trkpt lat="42.47297" lon="-0.7976026">
        <time>2022-07-05T10:09:39Z</time>
      </trkpt>
      <trkpt lat="42.472908" lon="-0.7975796">
        <time>2022-07-05T10:09:40Z</time>
      </trkpt>
      <trkpt lat="42.47285" lon="-0.7975549">
        <time>2022-07-05T10:09:41Z</time>
      </trkpt>
      <trkpt lat="42.47279" lon="-0.7975289">
        <time>2022-07-05T10:09:42Z</time>
      </trkpt>
      <trkpt lat="42.472733" lon="-0.7975023">
        <time>2022-07-05T10:09:43Z</time>
      </trkpt>
      <trkpt lat="42.472675" lon="-0.7974739">
        <time>2022-07-05T10:09:44Z</time>
      </trkpt>
      <trkpt lat="42.47262" lon="-0.79744494">
        <time>2022-07-05T10:09:45Z</time>
      </trkpt>
      <trkpt lat="42.47256" lon="-0.7974146">
        <time>2022-07-05T10:09:46Z</time>
      </trkpt>
      <trkpt lat="42.472504" lon="-0.79738325">
        <time>2022-07-05T10:09:47Z</time>
      </trkpt>
      <trkpt lat="42.472446" lon="-0.79735094">
        <time>2022-07-05T10:09:48Z</time>
      </trkpt>
      <trkpt lat="42.47239" lon="-0.79731864">
        <time>2022-07-05T10:09:49Z</time>
      </trkpt>
      <trkpt lat="42.472332" lon="-0.797286">
        <time>2022-07-05T10:09:50Z</time>
      </trkpt>
      <trkpt lat="42.472275" lon="-0.79725194">
        <time>2022-07-05T10:09:51Z</time>
      </trkpt>
      <trkpt lat="42.47222" lon="-0.7972173">
        <time>2022-07-05T10:09:52Z</time>
      </trkpt>
      <trkpt lat="42.472168" lon="-0.79718065">
        <time>2022-07-05T10:09:53Z</time>
      </trkpt>
      <trkpt lat="42.472115" lon="-0.7971423">
        <time>2022-07-05T10:09:54Z</time>
      </trkpt>
      <trkpt lat="42.47206" lon="-0.797102">
        <time>2022-07-05T10:09:55Z</time>
      </trkpt>
      <trkpt lat="42.47201" lon="-0.797059">
        <time>2022-07-05T10:09:56Z</time>
      </trkpt>
      <trkpt lat="42.471962" lon="-0.7970126">
        <time>2022-07-05T10:09:57Z</time>
      </trkpt>
      <trkpt lat="42.471912" lon="-0.79696333">
        <time>2022-07-05T10:09:58Z</time>
      </trkpt>
      <trkpt lat="42.47187" lon="-0.79691166">
        <time>2022-07-05T10:09:59Z</time>
      </trkpt>
      <trkpt lat="42.471825" lon="-0.7968596">
        <time>2022-07-05T10:10:00Z</time>
      </trkpt>
      <trkpt lat="42.471786" lon="-0.79680634">
        <time>2022-07-05T10:10:01Z</time>
      </trkpt>
      <trkpt lat="42.471745" lon="-0.7967517">
        <time>2022-07-05T10:10:02Z</time>
      </trkpt>
      <trkpt lat="42.471706" lon="-0.796695">
        <time>2022-07-05T10:10:03Z</time>
      </trkpt>
      <trkpt lat="42.47167" lon="-0.796638">
        <time>2022-07-05T10:10:04Z</time>
      </trkpt>
      <trkpt lat="42.47163" lon="-0.796581">
        <time>2022-07-05T10:10:05Z</time>
      </trkpt>
      <trkpt lat="42.471592" lon="-0.796523">
        <time>2022-07-05T10:10:06Z</time>
      </trkpt>
      <trkpt lat="42.471558" lon="-0.79646534">
        <time>2022-07-05T10:10:07Z</time>
      </trkpt>
      <trkpt lat="42.47152" lon="-0.796407">
        <time>2022-07-05T10:10:08Z</time>
      </trkpt>
      <trkpt lat="42.47148" lon="-0.7963477">
        <time>2022-07-05T10:10:09Z</time>
      </trkpt>
      <trkpt lat="42.471443" lon="-0.796287">
        <time>2022-07-05T10:10:10Z</time>
      </trkpt>
      <trkpt lat="42.4714" lon="-0.7962264">
        <time>2022-07-05T10:10:11Z</time>
      </trkpt>
      <trkpt lat="42.471363" lon="-0.79616934">
        <time>2022-07-05T10:10:12Z</time>
      </trkpt>
      <trkpt lat="42.47132" lon="-0.79611033">
        <time>2022-07-05T10:10:13Z</time>
      </trkpt>
      <trkpt lat="42.47127" lon="-0.7960467">
        <time>2022-07-05T10:10:14Z</time>
      </trkpt>
      <trkpt lat="42.471214" lon="-0.7959877">
        <time>2022-07-05T10:10:15Z</time>
      </trkpt>
      <trkpt lat="42.471153" lon="-0.795938">
        <time>2022-07-05T10:10:16Z</time>
      </trkpt>
      <trkpt lat="42.471085" lon="-0.7959017">
        <time>2022-07-05T10:10:17Z</time>
      </trkpt>
      <trkpt lat="42.471012" lon="-0.7958847">
        <time>2022-07-05T10:10:18Z</time>
      </trkpt>
      <trkpt lat="42.47094" lon="-0.79589206">
        <time>2022-07-05T10:10:19Z</time>
      </trkpt>
      <trkpt lat="42.470875" lon="-0.79592735">
        <time>2022-07-05T10:10:20Z</time>
      </trkpt>
      <trkpt lat="42.470818" lon="-0.7959804">
        <time>2022-07-05T10:10:21Z</time>
      </trkpt>
      <trkpt lat="42.470776" lon="-0.7960647">
        <time>2022-07-05T10:10:22Z</time>
      </trkpt>
      <trkpt lat="42.470745" lon="-0.7961557">
        <time>2022-07-05T10:10:23Z</time>
      </trkpt>
      <trkpt lat="42.470734" lon="-0.7962657">
        <time>2022-07-05T10:10:24Z</time>
      </trkpt>
      <trkpt lat="42.470734" lon="-0.79638433">
        <time>2022-07-05T10:10:25Z</time>
      </trkpt>
      <trkpt lat="42.47074" lon="-0.796509">
        <time>2022-07-05T10:10:26Z</time>
      </trkpt>
      <trkpt lat="42.470757" lon="-0.79663634">
        <time>2022-07-05T10:10:27Z</time>
      </trkpt>
      <trkpt lat="42.470776" lon="-0.7967657">
        <time>2022-07-05T10:10:28Z</time>
      </trkpt>
      <trkpt lat="42.470795" lon="-0.7968953">
        <time>2022-07-05T10:10:29Z</time>
      </trkpt>
      <trkpt lat="42.470802" lon="-0.7970257">
        <time>2022-07-05T10:10:30Z</time>
      </trkpt>
      <trkpt lat="42.47079" lon="-0.7971617">
        <time>2022-07-05T10:10:31Z</time>
      </trkpt>
      <trkpt lat="42.470764" lon="-0.797285">
        <time>2022-07-05T10:10:32Z</time>
      </trkpt>
      <trkpt lat="42.47072" lon="-0.79738563">
        <time>2022-07-05T10:10:33Z</time>
      </trkpt>
      <trkpt lat="42.470657" lon="-0.7974673">
        <time>2022-07-05T10:10:34Z</time>
      </trkpt>
      <trkpt lat="42.470577" lon="-0.79752564">
        <time>2022-07-05T10:10:35Z</time>
      </trkpt>
      <trkpt lat="42.470493" lon="-0.797556">
        <time>2022-07-05T10:10:36Z</time>
      </trkpt>
      <trkpt lat="42.470406" lon="-0.797553">
        <time>2022-07-05T10:10:37Z</time>
      </trkpt>
      <trkpt lat="42.470325" lon="-0.797524">
        <time>2022-07-05T10:10:38Z</time>
      </trkpt>
      <trkpt lat="42.47025" lon="-0.7974733">
        <time>2022-07-05T10:10:39Z</time>
      </trkpt>
      <trkpt lat="42.470184" lon="-0.797413">
        <time>2022-07-05T10:10:40Z</time>
      </trkpt>
      <trkpt lat="42.47006" lon="-0.79725564">
        <time>2022-07-05T10:10:42Z</time>
      </trkpt>
      <trkpt lat="42.47" lon="-0.7971673">
        <time>2022-07-05T10:10:43Z</time>
      </trkpt>
      <trkpt lat="42.469944" lon="-0.7970783">
        <time>2022-07-05T10:10:44Z</time>
      </trkpt>
      <trkpt lat="42.46989" lon="-0.7969893">
        <time>2022-07-05T10:10:45Z</time>
      </trkpt>
      <trkpt lat="42.469833" lon="-0.7968997">
        <time>2022-07-05T10:10:46Z</time>
      </trkpt>
      <trkpt lat="42.46978" lon="-0.79681337">
        <time>2022-07-05T10:10:47Z</time>
      </trkpt>
      <trkpt lat="42.46972" lon="-0.796732">
        <time>2022-07-05T10:10:48Z</time>
      </trkpt>
      <trkpt lat="42.469654" lon="-0.7966597">
        <time>2022-07-05T10:10:49Z</time>
      </trkpt>
      <trkpt lat="42.469585" lon="-0.796596">
        <time>2022-07-05T10:10:50Z</time>
      </trkpt>
      <trkpt lat="42.469513" lon="-0.79654205">
        <time>2022-07-05T10:10:51Z</time>
      </trkpt>
      <trkpt lat="42.469433" lon="-0.79649603">
        <time>2022-07-05T10:10:52Z</time>
      </trkpt>
      <trkpt lat="42.46935" lon="-0.7964567">
        <time>2022-07-05T10:10:53Z</time>
      </trkpt>
      <trkpt lat="42.469265" lon="-0.79642135">
        <time>2022-07-05T10:10:54Z</time>
      </trkpt>
      <trkpt lat="42.469177" lon="-0.7963884">
        <time>2022-07-05T10:10:55Z</time>
      </trkpt>
      <trkpt lat="42.46909" lon="-0.7963597">
        <time>2022-07-05T10:10:56Z</time>
      </trkpt>
      <trkpt lat="42.469" lon="-0.7963367">
        <time>2022-07-05T10:10:57Z</time>
      </trkpt>
      <trkpt lat="42.468906" lon="-0.7963237">
        <time>2022-07-05T10:10:58Z</time>
      </trkpt>
      <trkpt lat="42.46882" lon="-0.79632235">
        <time>2022-07-05T10:10:59Z</time>
      </trkpt>
      <trkpt lat="42.468727" lon="-0.7963327">
        <time>2022-07-05T10:11:00Z</time>
      </trkpt>
      <trkpt lat="42.46863" lon="-0.7963557">
        <time>2022-07-05T10:11:01Z</time>
      </trkpt>
      <trkpt lat="42.46854" lon="-0.7963897">
        <time>2022-07-05T10:11:02Z</time>
      </trkpt>
      <trkpt lat="42.46845" lon="-0.79643434">
        <time>2022-07-05T10:11:03Z</time>
      </trkpt>
      <trkpt lat="42.46836" lon="-0.7964937">
        <time>2022-07-05T10:11:04Z</time>
      </trkpt>
      <trkpt lat="42.46828" lon="-0.7965687">
        <time>2022-07-05T10:11:05Z</time>
      </trkpt>
      <trkpt lat="42.4682" lon="-0.796657">
        <time>2022-07-05T10:11:06Z</time>
      </trkpt>
      <trkpt lat="42.468124" lon="-0.796755">
        <time>2022-07-05T10:11:07Z</time>
      </trkpt>
      <trkpt lat="42.468052" lon="-0.796858">
        <time>2022-07-05T10:11:08Z</time>
      </trkpt>
      <trkpt lat="42.46797" lon="-0.79696">
        <time>2022-07-05T10:11:09Z</time>
      </trkpt>
      <trkpt lat="42.46789" lon="-0.7970564">
        <time>2022-07-05T10:11:10Z</time>
      </trkpt>
      <trkpt lat="42.467808" lon="-0.797142">
        <time>2022-07-05T10:11:11Z</time>
      </trkpt>
      <trkpt lat="42.467716" lon="-0.79721236">
        <time>2022-07-05T10:11:12Z</time>
      </trkpt>
      <trkpt lat="42.46762" lon="-0.7972687">
        <time>2022-07-05T10:11:13Z</time>
      </trkpt>
      <trkpt lat="42.46752" lon="-0.7973123">
        <time>2022-07-05T10:11:14Z</time>
      </trkpt>
      <trkpt lat="42.46742" lon="-0.7973473">
        <time>2022-07-05T10:11:15Z</time>
      </trkpt>
      <trkpt lat="42.467316" lon="-0.79737335">
        <time>2022-07-05T10:11:16Z</time>
      </trkpt>
      <trkpt lat="42.467213" lon="-0.79739">
        <time>2022-07-05T10:11:17Z</time>
      </trkpt>
      <trkpt lat="42.46711" lon="-0.7973933">
        <time>2022-07-05T10:11:18Z</time>
      </trkpt>
      <trkpt lat="42.467007" lon="-0.7973843">
        <time>2022-07-05T10:11:19Z</time>
      </trkpt>
      <trkpt lat="42.466904" lon="-0.797364">
        <time>2022-07-05T10:11:20Z</time>
      </trkpt>
      <trkpt lat="42.466805" lon="-0.797333">
        <time>2022-07-05T10:11:21Z</time>
      </trkpt>
      <trkpt lat="42.4667" lon="-0.79729396">
        <time>2022-07-05T10:11:22Z</time>
      </trkpt>
      <trkpt lat="42.466602" lon="-0.797248">
        <time>2022-07-05T10:11:23Z</time>
      </trkpt>
      <trkpt lat="42.466507" lon="-0.79719096">
        <time>2022-07-05T10:11:24Z</time>
      </trkpt>
      <trkpt lat="42.46641" lon="-0.797121">
        <time>2022-07-05T10:11:25Z</time>
      </trkpt>
      <trkpt lat="42.466328" lon="-0.79703563">
        <time>2022-07-05T10:11:26Z</time>
      </trkpt>
      <trkpt lat="42.466255" lon="-0.796937">
        <time>2022-07-05T10:11:27Z</time>
      </trkpt>
      <trkpt lat="42.466187" lon="-0.7968273">
        <time>2022-07-05T10:11:28Z</time>
      </trkpt>
      <trkpt lat="42.46612" lon="-0.7967113">
        <time>2022-07-05T10:11:29Z</time>
      </trkpt>
      <trkpt lat="42.466057" lon="-0.7965947">
        <time>2022-07-05T10:11:30Z</time>
      </trkpt>
      <trkpt lat="42.465992" lon="-0.7964827">
        <time>2022-07-05T10:11:31Z</time>
      </trkpt>
      <trkpt lat="42.465923" lon="-0.796378">
        <time>2022-07-05T10:11:32Z</time>
      </trkpt>
      <trkpt lat="42.465847" lon="-0.796283">
        <time>2022-07-05T10:11:33Z</time>
      </trkpt>
      <trkpt lat="42.465775" lon="-0.79619634">
        <time>2022-07-05T10:11:34Z</time>
      </trkpt>
      <trkpt lat="42.465694" lon="-0.796118">
        <time>2022-07-05T10:11:35Z</time>
      </trkpt>
      <trkpt lat="42.46562" lon="-0.7960467">
        <time>2022-07-05T10:11:36Z</time>
      </trkpt>
      <trkpt lat="42.46554" lon="-0.7959797">
        <time>2022-07-05T10:11:37Z</time>
      </trkpt>
      <trkpt lat="42.465466" lon="-0.79591805">
        <time>2022-07-05T10:11:38Z</time>
      </trkpt>
      <trkpt lat="42.465393" lon="-0.7958587">
        <time>2022-07-05T10:11:39Z</time>
      </trkpt>
      <trkpt lat="42.46532" lon="-0.7958027">
        <time>2022-07-05T10:11:40Z</time>
      </trkpt>
      <trkpt lat="42.46525" lon="-0.79574907">
        <time>2022-07-05T10:11:41Z</time>
      </trkpt>
      <trkpt lat="42.465176" lon="-0.79569775">
        <time>2022-07-05T10:11:42Z</time>
      </trkpt>
      <trkpt lat="42.465107" lon="-0.79564804">
        <time>2022-07-05T10:11:43Z</time>
      </trkpt>
      <trkpt lat="42.464973" lon="-0.7955514">
        <time>2022-07-05T10:11:45Z</time>
      </trkpt>
      <trkpt lat="42.46491" lon="-0.7955044">
        <time>2022-07-05T10:11:46Z</time>
      </trkpt>
      <trkpt lat="42.464844" lon="-0.7954577">
        <time>2022-07-05T10:11:47Z</time>
      </trkpt>
      <trkpt lat="42.46478" lon="-0.7954124">
        <time>2022-07-05T10:11:48Z</time>
      </trkpt>
      <trkpt lat="42.464718" lon="-0.7953694">
        <time>2022-07-05T10:11:49Z</time>
      </trkpt>
      <trkpt lat="42.464653" lon="-0.79532677">
        <time>2022-07-05T10:11:50Z</time>
      </trkpt>
      <trkpt lat="42.464592" lon="-0.7952854">
        <time>2022-07-05T10:11:51Z</time>
      </trkpt>
      <trkpt lat="42.46453" lon="-0.79524475">
        <time>2022-07-05T10:11:52Z</time>
      </trkpt>
      <trkpt lat="42.464474" lon="-0.7952041">
        <time>2022-07-05T10:11:53Z</time>
      </trkpt>
      <trkpt lat="42.464413" lon="-0.79516375">
        <time>2022-07-05T10:11:54Z</time>
      </trkpt>
      <trkpt lat="42.464355" lon="-0.79512274">
        <time>2022-07-05T10:11:55Z</time>
      </trkpt>
      <trkpt lat="42.4643" lon="-0.79508114">
        <time>2022-07-05T10:11:56Z</time>
      </trkpt>
      <trkpt lat="42.464245" lon="-0.79504013">
        <time>2022-07-05T10:11:57Z</time>
      </trkpt>
      <trkpt lat="42.464188" lon="-0.79500014">
        <time>2022-07-05T10:11:58Z</time>
      </trkpt>
      <trkpt lat="42.464134" lon="-0.7949588">
        <time>2022-07-05T10:11:59Z</time>
      </trkpt>
      <trkpt lat="42.464077" lon="-0.79491776">
        <time>2022-07-05T10:12:00Z</time>
      </trkpt>
      <trkpt lat="42.464024" lon="-0.79487747">
        <time>2022-07-05T10:12:01Z</time>
      </trkpt>
      <trkpt lat="42.46397" lon="-0.7948358">
        <time>2022-07-05T10:12:02Z</time>
      </trkpt>
      <trkpt lat="42.46392" lon="-0.7947921">
        <time>2022-07-05T10:12:03Z</time>
      </trkpt>
      <trkpt lat="42.46387" lon="-0.79474646">
        <time>2022-07-05T10:12:04Z</time>
      </trkpt>
      <trkpt lat="42.46382" lon="-0.7946978">
        <time>2022-07-05T10:12:05Z</time>
      </trkpt>
      <trkpt lat="42.463776" lon="-0.7946442">
        <time>2022-07-05T10:12:06Z</time>
      </trkpt>
      <trkpt lat="42.46373" lon="-0.79458183">
        <time>2022-07-05T10:12:07Z</time>
      </trkpt>
      <trkpt lat="42.463688" lon="-0.7945175">
        <time>2022-07-05T10:12:08Z</time>
      </trkpt>
      <trkpt lat="42.46365" lon="-0.7944515">
        <time>2022-07-05T10:12:09Z</time>
      </trkpt>
      <trkpt lat="42.463615" lon="-0.7943878">
        <time>2022-07-05T10:12:10Z</time>
      </trkpt>
      <trkpt lat="42.463585" lon="-0.7943212">
        <time>2022-07-05T10:12:11Z</time>
      </trkpt>
      <trkpt lat="42.463554" lon="-0.79425114">
        <time>2022-07-05T10:12:12Z</time>
      </trkpt>
      <trkpt lat="42.463524" lon="-0.79418015">
        <time>2022-07-05T10:12:13Z</time>
      </trkpt>
      <trkpt lat="42.463493" lon="-0.7941072">
        <time>2022-07-05T10:12:14Z</time>
      </trkpt>
      <trkpt lat="42.463463" lon="-0.7940328">
        <time>2022-07-05T10:12:15Z</time>
      </trkpt>
      <trkpt lat="42.463436" lon="-0.79395753">
        <time>2022-07-05T10:12:16Z</time>
      </trkpt>
      <trkpt lat="42.463406" lon="-0.79388154">
        <time>2022-07-05T10:12:17Z</time>
      </trkpt>
      <trkpt lat="42.463375" lon="-0.79380053">
        <time>2022-07-05T10:12:18Z</time>
      </trkpt>
      <trkpt lat="42.463345" lon="-0.79372084">
        <time>2022-07-05T10:12:19Z</time>
      </trkpt>
      <trkpt lat="42.463314" lon="-0.79364216">
        <time>2022-07-05T10:12:20Z</time>
      </trkpt>
      <trkpt lat="42.463284" lon="-0.79356486">
        <time>2022-07-05T10:12:21Z</time>
      </trkpt>
      <trkpt lat="42.463253" lon="-0.7934882">
        <time>2022-07-05T10:12:22Z</time>
      </trkpt>
      <trkpt lat="42.46322" lon="-0.7934135">
        <time>2022-07-05T10:12:23Z</time>
      </trkpt>
      <trkpt lat="42.46318" lon="-0.7933412">
        <time>2022-07-05T10:12:24Z</time>
      </trkpt>
      <trkpt lat="42.463142" lon="-0.7932712">
        <time>2022-07-05T10:12:25Z</time>
      </trkpt>
      <trkpt lat="42.463097" lon="-0.7932049">
        <time>2022-07-05T10:12:26Z</time>
      </trkpt>
      <trkpt lat="42.46305" lon="-0.7931462">
        <time>2022-07-05T10:12:27Z</time>
      </trkpt>
      <trkpt lat="42.463" lon="-0.7930909">
        <time>2022-07-05T10:12:28Z</time>
      </trkpt>
      <trkpt lat="42.462948" lon="-0.7930402">
        <time>2022-07-05T10:12:29Z</time>
      </trkpt>
      <trkpt lat="42.462894" lon="-0.79299355">
        <time>2022-07-05T10:12:30Z</time>
      </trkpt>
      <trkpt lat="42.462837" lon="-0.79294956">
        <time>2022-07-05T10:12:31Z</time>
      </trkpt>
      <trkpt lat="42.46278" lon="-0.7929076">
        <time>2022-07-05T10:12:32Z</time>
      </trkpt>
      <trkpt lat="42.46272" lon="-0.79286724">
        <time>2022-07-05T10:12:33Z</time>
      </trkpt>
      <trkpt lat="42.462658" lon="-0.7928296">
        <time>2022-07-05T10:12:34Z</time>
      </trkpt>
      <trkpt lat="42.462597" lon="-0.7927946">
        <time>2022-07-05T10:12:35Z</time>
      </trkpt>
      <trkpt lat="42.462532" lon="-0.7927599">
        <time>2022-07-05T10:12:36Z</time>
      </trkpt>
      <trkpt lat="42.462467" lon="-0.7927239">
        <time>2022-07-05T10:12:37Z</time>
      </trkpt>
      <trkpt lat="42.4624" lon="-0.79268724">
        <time>2022-07-05T10:12:38Z</time>
      </trkpt>
      <trkpt lat="42.462334" lon="-0.79265094">
        <time>2022-07-05T10:12:39Z</time>
      </trkpt>
      <trkpt lat="42.46227" lon="-0.7926156">
        <time>2022-07-05T10:12:40Z</time>
      </trkpt>
      <trkpt lat="42.462204" lon="-0.7925806">
        <time>2022-07-05T10:12:41Z</time>
      </trkpt>
      <trkpt lat="42.462143" lon="-0.7925486">
        <time>2022-07-05T10:12:42Z</time>
      </trkpt>
      <trkpt lat="42.46208" lon="-0.79251426">
        <time>2022-07-05T10:12:43Z</time>
      </trkpt>
      <trkpt lat="42.462013" lon="-0.7924806">
        <time>2022-07-05T10:12:44Z</time>
      </trkpt>
      <trkpt lat="42.46195" lon="-0.79244727">
        <time>2022-07-05T10:12:45Z</time>
      </trkpt>
      <trkpt lat="42.461884" lon="-0.7924146">
        <time>2022-07-05T10:12:46Z</time>
      </trkpt>
      <trkpt lat="42.461823" lon="-0.79238397">
        <time>2022-07-05T10:12:47Z</time>
      </trkpt>
      <trkpt lat="42.461765" lon="-0.7923603">
        <time>2022-07-05T10:12:48Z</time>
      </trkpt>
      <trkpt lat="42.461685" lon="-0.79232794">
        <time>2022-07-05T10:12:50Z</time>
      </trkpt>
      <trkpt lat="42.46164" lon="-0.7923093">
        <time>2022-07-05T10:12:52Z</time>
      </trkpt>
      <trkpt lat="42.461563" lon="-0.79224765">
        <time>2022-07-05T10:13:09Z</time>
      </trkpt>
      <trkpt lat="42.46149" lon="-0.7922033">
        <time>2022-07-05T10:13:12Z</time>
      </trkpt>
      <trkpt lat="42.461426" lon="-0.7921633">
        <time>2022-07-05T10:13:14Z</time>
      </trkpt>
      <trkpt lat="42.46134" lon="-0.7921183">
        <time>2022-07-05T10:13:16Z</time>
      </trkpt>
      <trkpt lat="42.461246" lon="-0.79207534">
        <time>2022-07-05T10:13:18Z</time>
      </trkpt>
      <trkpt lat="42.461193" lon="-0.7920527">
        <time>2022-07-05T10:13:19Z</time>
      </trkpt>
      <trkpt lat="42.46114" lon="-0.7920293">
        <time>2022-07-05T10:13:20Z</time>
      </trkpt>
      <trkpt lat="42.461082" lon="-0.79200566">
        <time>2022-07-05T10:13:21Z</time>
      </trkpt>
      <trkpt lat="42.461025" lon="-0.79198235">
        <time>2022-07-05T10:13:22Z</time>
      </trkpt>
      <trkpt lat="42.460964" lon="-0.7919587">
        <time>2022-07-05T10:13:23Z</time>
      </trkpt>
      <trkpt lat="42.4609" lon="-0.79193467">
        <time>2022-07-05T10:13:24Z</time>
      </trkpt>
      <trkpt lat="42.460835" lon="-0.79191166">
        <time>2022-07-05T10:13:25Z</time>
      </trkpt>
      <trkpt lat="42.460766" lon="-0.79188704">
        <time>2022-07-05T10:13:26Z</time>
      </trkpt>
      <trkpt lat="42.460693" lon="-0.79186267">
        <time>2022-07-05T10:13:27Z</time>
      </trkpt>
      <trkpt lat="42.46062" lon="-0.7918387">
        <time>2022-07-05T10:13:28Z</time>
      </trkpt>
      <trkpt lat="42.46055" lon="-0.7918144">
        <time>2022-07-05T10:13:29Z</time>
      </trkpt>
      <trkpt lat="42.46048" lon="-0.79178935">
        <time>2022-07-05T10:13:30Z</time>
      </trkpt>
      <trkpt lat="42.460407" lon="-0.7917637">
        <time>2022-07-05T10:13:31Z</time>
      </trkpt>
      <trkpt lat="42.46034" lon="-0.79174036">
        <time>2022-07-05T10:13:32Z</time>
      </trkpt>
      <trkpt lat="42.46027" lon="-0.79171735">
        <time>2022-07-05T10:13:33Z</time>
      </trkpt>
      <trkpt lat="42.460197" lon="-0.79169506">
        <time>2022-07-05T10:13:34Z</time>
      </trkpt>
      <trkpt lat="42.460125" lon="-0.791674">
        <time>2022-07-05T10:13:35Z</time>
      </trkpt>
      <trkpt lat="42.460056" lon="-0.7916577">
        <time>2022-07-05T10:13:36Z</time>
      </trkpt>
      <trkpt lat="42.459984" lon="-0.79164636">
        <time>2022-07-05T10:13:37Z</time>
      </trkpt>
      <trkpt lat="42.45991" lon="-0.7916404">
        <time>2022-07-05T10:13:38Z</time>
      </trkpt>
      <trkpt lat="42.459846" lon="-0.79164106">
        <time>2022-07-05T10:13:39Z</time>
      </trkpt>
      <trkpt lat="42.45978" lon="-0.7916517">
        <time>2022-07-05T10:13:40Z</time>
      </trkpt>
      <trkpt lat="42.45972" lon="-0.79166836">
        <time>2022-07-05T10:13:41Z</time>
      </trkpt>
      <trkpt lat="42.45966" lon="-0.79169166">
        <time>2022-07-05T10:13:42Z</time>
      </trkpt>
      <trkpt lat="42.459602" lon="-0.791715">
        <time>2022-07-05T10:13:43Z</time>
      </trkpt>
      <trkpt lat="42.459545" lon="-0.79173905">
        <time>2022-07-05T10:13:44Z</time>
      </trkpt>
      <trkpt lat="42.459496" lon="-0.791762">
        <time>2022-07-05T10:13:45Z</time>
      </trkpt>
      <trkpt lat="42.459442" lon="-0.79178536">
        <time>2022-07-05T10:13:46Z</time>
      </trkpt>
      <trkpt lat="42.459393" lon="-0.7918097">
        <time>2022-07-05T10:13:47Z</time>
      </trkpt>
      <trkpt lat="42.45935" lon="-0.791834">
        <time>2022-07-05T10:13:48Z</time>
      </trkpt>
      <trkpt lat="42.459225" lon="-0.7919267">
        <time>2022-07-05T10:13:51Z</time>
      </trkpt>
      <trkpt lat="42.459152" lon="-0.7920023">
        <time>2022-07-05T10:13:53Z</time>
      </trkpt>
      <trkpt lat="42.45909" lon="-0.79208964">
        <time>2022-07-05T10:13:55Z</time>
      </trkpt>
      <trkpt lat="42.459045" lon="-0.79220134">
        <time>2022-07-05T10:13:57Z</time>
      </trkpt>
      <trkpt lat="42.459015" lon="-0.792326">
        <time>2022-07-05T10:13:59Z</time>
      </trkpt>
      <trkpt lat="42.459" lon="-0.79247165">
        <time>2022-07-05T10:14:01Z</time>
      </trkpt>
      <trkpt lat="42.459" lon="-0.79254866">
        <time>2022-07-05T10:14:02Z</time>
      </trkpt>
      <trkpt lat="42.458996" lon="-0.792627">
        <time>2022-07-05T10:14:03Z</time>
      </trkpt>
      <trkpt lat="42.458996" lon="-0.7927053">
        <time>2022-07-05T10:14:04Z</time>
      </trkpt>
      <trkpt lat="42.458996" lon="-0.79278594">
        <time>2022-07-05T10:14:05Z</time>
      </trkpt>
      <trkpt lat="42.458996" lon="-0.79286695">
        <time>2022-07-05T10:14:06Z</time>
      </trkpt>
      <trkpt lat="42.45899" lon="-0.79294795">
        <time>2022-07-05T10:14:07Z</time>
      </trkpt>
      <trkpt lat="42.458977" lon="-0.79302895">
        <time>2022-07-05T10:14:08Z</time>
      </trkpt>
      <trkpt lat="42.45896" lon="-0.79310894">
        <time>2022-07-05T10:14:09Z</time>
      </trkpt>
      <trkpt lat="42.458942" lon="-0.79318297">
        <time>2022-07-05T10:14:10Z</time>
      </trkpt>
      <trkpt lat="42.458908" lon="-0.79326165">
        <time>2022-07-05T10:14:11Z</time>
      </trkpt>
      <trkpt lat="42.458866" lon="-0.7933356">
        <time>2022-07-05T10:14:12Z</time>
      </trkpt>
      <trkpt lat="42.45882" lon="-0.79340696">
        <time>2022-07-05T10:14:13Z</time>
      </trkpt>
      <trkpt lat="42.458763" lon="-0.79347396">
        <time>2022-07-05T10:14:14Z</time>
      </trkpt>
      <trkpt lat="42.458702" lon="-0.79353696">
        <time>2022-07-05T10:14:15Z</time>
      </trkpt>
      <trkpt lat="42.458633" lon="-0.7935973">
        <time>2022-07-05T10:14:16Z</time>
      </trkpt>
      <trkpt lat="42.458565" lon="-0.7936523">
        <time>2022-07-05T10:14:17Z</time>
      </trkpt>
      <trkpt lat="42.45849" lon="-0.7937103">
        <time>2022-07-05T10:14:18Z</time>
      </trkpt>
      <trkpt lat="42.45842" lon="-0.7937656">
        <time>2022-07-05T10:14:19Z</time>
      </trkpt>
      <trkpt lat="42.458347" lon="-0.79382163">
        <time>2022-07-05T10:14:20Z</time>
      </trkpt>
      <trkpt lat="42.458267" lon="-0.7938843">
        <time>2022-07-05T10:14:21Z</time>
      </trkpt>
      <trkpt lat="42.458183" lon="-0.7939476">
        <time>2022-07-05T10:14:22Z</time>
      </trkpt>
      <trkpt lat="42.458103" lon="-0.79401124">
        <time>2022-07-05T10:14:23Z</time>
      </trkpt>
      <trkpt lat="42.458027" lon="-0.7940706">
        <time>2022-07-05T10:14:24Z</time>
      </trkpt>
      <trkpt lat="42.45795" lon="-0.79413193">
        <time>2022-07-05T10:14:25Z</time>
      </trkpt>
      <trkpt lat="42.45787" lon="-0.79419225">
        <time>2022-07-05T10:14:26Z</time>
      </trkpt>
      <trkpt lat="42.457787" lon="-0.7942499">
        <time>2022-07-05T10:14:27Z</time>
      </trkpt>
      <trkpt lat="42.457703" lon="-0.7943022">
        <time>2022-07-05T10:14:28Z</time>
      </trkpt>
      <trkpt lat="42.45761" lon="-0.7943466">
        <time>2022-07-05T10:14:29Z</time>
      </trkpt>
      <trkpt lat="42.45752" lon="-0.7943809">
        <time>2022-07-05T10:14:30Z</time>
      </trkpt>
      <trkpt lat="42.45742" lon="-0.79440624">
        <time>2022-07-05T10:14:31Z</time>
      </trkpt>
      <trkpt lat="42.457325" lon="-0.79442286">
        <time>2022-07-05T10:14:32Z</time>
      </trkpt>
      <trkpt lat="42.457226" lon="-0.7944339">
        <time>2022-07-05T10:14:33Z</time>
      </trkpt>
      <trkpt lat="42.457127" lon="-0.7944389">
        <time>2022-07-05T10:14:34Z</time>
      </trkpt>
      <trkpt lat="42.45703" lon="-0.7944419">
        <time>2022-07-05T10:14:35Z</time>
      </trkpt>
      <trkpt lat="42.456936" lon="-0.7944439">
        <time>2022-07-05T10:14:36Z</time>
      </trkpt>
      <trkpt lat="42.456837" lon="-0.7944452">
        <time>2022-07-05T10:14:37Z</time>
      </trkpt>
      <trkpt lat="42.456734" lon="-0.7944449">
        <time>2022-07-05T10:14:38Z</time>
      </trkpt>
      <trkpt lat="42.456635" lon="-0.7944429">
        <time>2022-07-05T10:14:39Z</time>
      </trkpt>
      <trkpt lat="42.456535" lon="-0.7944412">
        <time>2022-07-05T10:14:40Z</time>
      </trkpt>
      <trkpt lat="42.456432" lon="-0.7944402">
        <time>2022-07-05T10:14:41Z</time>
      </trkpt>
      <trkpt lat="42.456333" lon="-0.79444224">
        <time>2022-07-05T10:14:42Z</time>
      </trkpt>
      <trkpt lat="42.456234" lon="-0.7944506">
        <time>2022-07-05T10:14:43Z</time>
      </trkpt>
      <trkpt lat="42.45614" lon="-0.7944682">
        <time>2022-07-05T10:14:44Z</time>
      </trkpt>
      <trkpt lat="42.456043" lon="-0.7944959">
        <time>2022-07-05T10:14:45Z</time>
      </trkpt>
      <trkpt lat="42.455948" lon="-0.7945332">
        <time>2022-07-05T10:14:46Z</time>
      </trkpt>
      <trkpt lat="42.455853" lon="-0.7945782">
        <time>2022-07-05T10:14:47Z</time>
      </trkpt>
      <trkpt lat="42.45576" lon="-0.7946312">
        <time>2022-07-05T10:14:48Z</time>
      </trkpt>
      <trkpt lat="42.45567" lon="-0.79468954">
        <time>2022-07-05T10:14:49Z</time>
      </trkpt>
      <trkpt lat="42.45558" lon="-0.79475355">
        <time>2022-07-05T10:14:50Z</time>
      </trkpt>
      <trkpt lat="42.455498" lon="-0.7948222">
        <time>2022-07-05T10:14:51Z</time>
      </trkpt>
      <trkpt lat="42.45534" lon="-0.79497683">
        <time>2022-07-05T10:14:53Z</time>
      </trkpt>
      <trkpt lat="42.455276" lon="-0.7950542">
        <time>2022-07-05T10:14:54Z</time>
      </trkpt>
      <trkpt lat="42.455215" lon="-0.79513884">
        <time>2022-07-05T10:14:55Z</time>
      </trkpt>
      <trkpt lat="42.455162" lon="-0.7952215">
        <time>2022-07-05T10:14:56Z</time>
      </trkpt>
      <trkpt lat="42.455067" lon="-0.79536885">
        <time>2022-07-05T10:14:58Z</time>
      </trkpt>
      <trkpt lat="42.45502" lon="-0.7954352">
        <time>2022-07-05T10:14:59Z</time>
      </trkpt>
      <trkpt lat="42.45498" lon="-0.79549617">
        <time>2022-07-05T10:15:00Z</time>
      </trkpt>
      <trkpt lat="42.454933" lon="-0.7955545">
        <time>2022-07-05T10:15:01Z</time>
      </trkpt>
      <trkpt lat="42.45489" lon="-0.7956065">
        <time>2022-07-05T10:15:02Z</time>
      </trkpt>
      <trkpt lat="42.454845" lon="-0.7956538">
        <time>2022-07-05T10:15:03Z</time>
      </trkpt>
      <trkpt lat="42.454807" lon="-0.79569817">
        <time>2022-07-05T10:15:04Z</time>
      </trkpt>
      <trkpt lat="42.454765" lon="-0.7957392">
        <time>2022-07-05T10:15:05Z</time>
      </trkpt>
      <trkpt lat="42.454727" lon="-0.7957775">
        <time>2022-07-05T10:15:06Z</time>
      </trkpt>
      <trkpt lat="42.454647" lon="-0.79584646">
        <time>2022-07-05T10:15:08Z</time>
      </trkpt>
      <trkpt lat="42.454567" lon="-0.79590285">
        <time>2022-07-05T10:15:10Z</time>
      </trkpt>
      <trkpt lat="42.45453" lon="-0.79592514">
        <time>2022-07-05T10:15:11Z</time>
      </trkpt>
      <trkpt lat="42.45443" lon="-0.7959592">
        <time>2022-07-05T10:15:13Z</time>
      </trkpt>
      <trkpt lat="42.45438" lon="-0.7959685">
        <time>2022-07-05T10:15:14Z</time>
      </trkpt>
      <trkpt lat="42.454273" lon="-0.7959731">
        <time>2022-07-05T10:15:16Z</time>
      </trkpt>
      <trkpt lat="42.45422" lon="-0.7959708">
        <time>2022-07-05T10:15:17Z</time>
      </trkpt>
      <trkpt lat="42.454166" lon="-0.7959658">
        <time>2022-07-05T10:15:18Z</time>
      </trkpt>
      <trkpt lat="42.45411" lon="-0.7959588">
        <time>2022-07-05T10:15:19Z</time>
      </trkpt>
      <trkpt lat="42.454056" lon="-0.79594916">
        <time>2022-07-05T10:15:20Z</time>
      </trkpt>
      <trkpt lat="42.454002" lon="-0.79593784">
        <time>2022-07-05T10:15:21Z</time>
      </trkpt>
      <trkpt lat="42.453945" lon="-0.7959218">
        <time>2022-07-05T10:15:22Z</time>
      </trkpt>
      <trkpt lat="42.453884" lon="-0.79590416">
        <time>2022-07-05T10:15:23Z</time>
      </trkpt>
      <trkpt lat="42.45383" lon="-0.7958855">
        <time>2022-07-05T10:15:24Z</time>
      </trkpt>
      <trkpt lat="42.453773" lon="-0.79586715">
        <time>2022-07-05T10:15:25Z</time>
      </trkpt>
      <trkpt lat="42.45371" lon="-0.7958482">
        <time>2022-07-05T10:15:26Z</time>
      </trkpt>
      <trkpt lat="42.453644" lon="-0.7958315">
        <time>2022-07-05T10:15:27Z</time>
      </trkpt>
      <trkpt lat="42.45358" lon="-0.79581887">
        <time>2022-07-05T10:15:28Z</time>
      </trkpt>
      <trkpt lat="42.453514" lon="-0.7958085">
        <time>2022-07-05T10:15:29Z</time>
      </trkpt>
      <trkpt lat="42.453457" lon="-0.79580116">
        <time>2022-07-05T10:15:30Z</time>
      </trkpt>
      <trkpt lat="42.45339" lon="-0.7957962">
        <time>2022-07-05T10:15:31Z</time>
      </trkpt>
      <trkpt lat="42.453323" lon="-0.79579455">
        <time>2022-07-05T10:15:32Z</time>
      </trkpt>
      <trkpt lat="42.45326" lon="-0.79579484">
        <time>2022-07-05T10:15:33Z</time>
      </trkpt>
      <trkpt lat="42.453194" lon="-0.79579854">
        <time>2022-07-05T10:15:34Z</time>
      </trkpt>
      <trkpt lat="42.453133" lon="-0.79580384">
        <time>2022-07-05T10:15:35Z</time>
      </trkpt>
      <trkpt lat="42.453068" lon="-0.7958095">
        <time>2022-07-05T10:15:36Z</time>
      </trkpt>
      <trkpt lat="42.453007" lon="-0.7958158">
        <time>2022-07-05T10:15:37Z</time>
      </trkpt>
      <trkpt lat="42.452946" lon="-0.79582316">
        <time>2022-07-05T10:15:38Z</time>
      </trkpt>
      <trkpt lat="42.45289" lon="-0.79583216">
        <time>2022-07-05T10:15:39Z</time>
      </trkpt>
      <trkpt lat="42.452835" lon="-0.7958422">
        <time>2022-07-05T10:15:40Z</time>
      </trkpt>
      <trkpt lat="42.452785" lon="-0.7958545">
        <time>2022-07-05T10:15:41Z</time>
      </trkpt>
      <trkpt lat="42.452744" lon="-0.7958665">
        <time>2022-07-05T10:15:42Z</time>
      </trkpt>
      <trkpt lat="42.452663" lon="-0.7958905">
        <time>2022-07-05T10:15:44Z</time>
      </trkpt>
      <trkpt lat="42.45259" lon="-0.79592013">
        <time>2022-07-05T10:15:46Z</time>
      </trkpt>
      <trkpt lat="42.45253" lon="-0.79594547">
        <time>2022-07-05T10:15:48Z</time>
      </trkpt>
      <trkpt lat="42.452484" lon="-0.7959685">
        <time>2022-07-05T10:15:50Z</time>
      </trkpt>
      <trkpt lat="42.452423" lon="-0.7960045">
        <time>2022-07-05T10:15:53Z</time>
      </trkpt>
      <trkpt lat="42.452366" lon="-0.7960405">
        <time>2022-07-05T10:15:56Z</time>
      </trkpt>
      <trkpt lat="42.452305" lon="-0.7960808">
        <time>2022-07-05T10:15:59Z</time>
      </trkpt>
      <trkpt lat="42.45224" lon="-0.79611915">
        <time>2022-07-05T10:16:02Z</time>
      </trkpt>
      <trkpt lat="42.452175" lon="-0.79616183">
        <time>2022-07-05T10:16:05Z</time>
      </trkpt>
      <trkpt lat="42.452137" lon="-0.7961935">
        <time>2022-07-05T10:16:07Z</time>
      </trkpt>
      <trkpt lat="42.452076" lon="-0.7962461">
        <time>2022-07-05T10:16:10Z</time>
      </trkpt>
      <trkpt lat="42.452034" lon="-0.79627943">
        <time>2022-07-05T10:16:12Z</time>
      </trkpt>
      <trkpt lat="42.45197" lon="-0.7963261">
        <time>2022-07-05T10:16:15Z</time>
      </trkpt>
      <trkpt lat="42.45191" lon="-0.7963661">
        <time>2022-07-05T10:16:18Z</time>
      </trkpt>
      <trkpt lat="42.451843" lon="-0.79639876">
        <time>2022-07-05T10:16:21Z</time>
      </trkpt>
      <trkpt lat="42.45178" lon="-0.79642445">
        <time>2022-07-05T10:16:24Z</time>
      </trkpt>
      <trkpt lat="42.451702" lon="-0.7964471">
        <time>2022-07-05T10:16:27Z</time>
      </trkpt>
      <trkpt lat="42.45165" lon="-0.7964574">
        <time>2022-07-05T10:16:29Z</time>
      </trkpt>
      <trkpt lat="42.45159" lon="-0.79646575">
        <time>2022-07-05T10:16:31Z</time>
      </trkpt>
      <trkpt lat="42.451534" lon="-0.7964741">
        <time>2022-07-05T10:16:33Z</time>
      </trkpt>
      <trkpt lat="42.45147" lon="-0.7964804">
        <time>2022-07-05T10:16:35Z</time>
      </trkpt>
      <trkpt lat="42.451397" lon="-0.79649043">
        <time>2022-07-05T10:16:37Z</time>
      </trkpt>
      <trkpt lat="42.451324" lon="-0.79650074">
        <time>2022-07-05T10:16:39Z</time>
      </trkpt>
      <trkpt lat="42.451244" lon="-0.79651207">
        <time>2022-07-05T10:16:41Z</time>
      </trkpt>
      <trkpt lat="42.45116" lon="-0.7965217">
        <time>2022-07-05T10:16:43Z</time>
      </trkpt>
      <trkpt lat="42.451077" lon="-0.7965304">
        <time>2022-07-05T10:16:45Z</time>
      </trkpt>
      <trkpt lat="42.45098" lon="-0.79654175">
        <time>2022-07-05T10:16:47Z</time>
      </trkpt>
      <trkpt lat="42.45093" lon="-0.7965474">
        <time>2022-07-05T10:16:48Z</time>
      </trkpt>
      <trkpt lat="42.45084" lon="-0.7965584">
        <time>2022-07-05T10:16:50Z</time>
      </trkpt>
      <trkpt lat="42.450745" lon="-0.79656804">
        <time>2022-07-05T10:16:52Z</time>
      </trkpt>
      <trkpt lat="42.45065" lon="-0.7965737">
        <time>2022-07-05T10:16:54Z</time>
      </trkpt>
      <trkpt lat="42.450542" lon="-0.7965684">
        <time>2022-07-05T10:16:56Z</time>
      </trkpt>
      <trkpt lat="42.45049" lon="-0.7965621">
        <time>2022-07-05T10:16:57Z</time>
      </trkpt>
      <trkpt lat="42.450436" lon="-0.7965534">
        <time>2022-07-05T10:16:58Z</time>
      </trkpt>
      <trkpt lat="42.450325" lon="-0.79652774">
        <time>2022-07-05T10:17:00Z</time>
      </trkpt>
      <trkpt lat="42.45027" lon="-0.7965124">
        <time>2022-07-05T10:17:01Z</time>
      </trkpt>
      <trkpt lat="42.450214" lon="-0.7964954">
        <time>2022-07-05T10:17:02Z</time>
      </trkpt>
      <trkpt lat="42.450157" lon="-0.79647774">
        <time>2022-07-05T10:17:03Z</time>
      </trkpt>
      <trkpt lat="42.450096" lon="-0.7964591">
        <time>2022-07-05T10:17:04Z</time>
      </trkpt>
      <trkpt lat="42.45003" lon="-0.7964404">
        <time>2022-07-05T10:17:05Z</time>
      </trkpt>
      <trkpt lat="42.449966" lon="-0.7964214">
        <time>2022-07-05T10:17:06Z</time>
      </trkpt>
      <trkpt lat="42.449894" lon="-0.79640007">
        <time>2022-07-05T10:17:07Z</time>
      </trkpt>
      <trkpt lat="42.449825" lon="-0.7963774">
        <time>2022-07-05T10:17:08Z</time>
      </trkpt>
      <trkpt lat="42.44975" lon="-0.7963551">
        <time>2022-07-05T10:17:09Z</time>
      </trkpt>
      <trkpt lat="42.449673" lon="-0.79633176">
        <time>2022-07-05T10:17:10Z</time>
      </trkpt>
      <trkpt lat="42.449596" lon="-0.79630643">
        <time>2022-07-05T10:17:11Z</time>
      </trkpt>
      <trkpt lat="42.44952" lon="-0.79627776">
        <time>2022-07-05T10:17:12Z</time>
      </trkpt>
      <trkpt lat="42.449444" lon="-0.7962434">
        <time>2022-07-05T10:17:13Z</time>
      </trkpt>
      <trkpt lat="42.449368" lon="-0.79620147">
        <time>2022-07-05T10:17:14Z</time>
      </trkpt>
      <trkpt lat="42.44929" lon="-0.7961518">
        <time>2022-07-05T10:17:15Z</time>
      </trkpt>
      <trkpt lat="42.449226" lon="-0.79609877">
        <time>2022-07-05T10:17:16Z</time>
      </trkpt>
      <trkpt lat="42.44915" lon="-0.7960318">
        <time>2022-07-05T10:17:17Z</time>
      </trkpt>
      <trkpt lat="42.44908" lon="-0.7959645">
        <time>2022-07-05T10:17:18Z</time>
      </trkpt>
      <trkpt lat="42.449013" lon="-0.79589146">
        <time>2022-07-05T10:17:19Z</time>
      </trkpt>
      <trkpt lat="42.44894" lon="-0.79581445">
        <time>2022-07-05T10:17:20Z</time>
      </trkpt>
      <trkpt lat="42.448868" lon="-0.7957268">
        <time>2022-07-05T10:17:21Z</time>
      </trkpt>
      <trkpt lat="42.44879" lon="-0.79563814">
        <time>2022-07-05T10:17:22Z</time>
      </trkpt>
      <trkpt lat="42.448715" lon="-0.7955478">
        <time>2022-07-05T10:17:23Z</time>
      </trkpt>
      <trkpt lat="42.44864" lon="-0.7954571">
        <time>2022-07-05T10:17:24Z</time>
      </trkpt>
      <trkpt lat="42.44856" lon="-0.7953658">
        <time>2022-07-05T10:17:25Z</time>
      </trkpt>
      <trkpt lat="42.448483" lon="-0.7952718">
        <time>2022-07-05T10:17:26Z</time>
      </trkpt>
      <trkpt lat="42.448402" lon="-0.79517615">
        <time>2022-07-05T10:17:27Z</time>
      </trkpt>
      <trkpt lat="42.44833" lon="-0.79508513">
        <time>2022-07-05T10:17:28Z</time>
      </trkpt>
      <trkpt lat="42.44825" lon="-0.7949925">
        <time>2022-07-05T10:17:29Z</time>
      </trkpt>
      <trkpt lat="42.448166" lon="-0.79488915">
        <time>2022-07-05T10:17:30Z</time>
      </trkpt>
      <trkpt lat="42.448082" lon="-0.79478616">
        <time>2022-07-05T10:17:31Z</time>
      </trkpt>
      <trkpt lat="42.447998" lon="-0.7946838">
        <time>2022-07-05T10:17:32Z</time>
      </trkpt>
      <trkpt lat="42.447914" lon="-0.7945835">
        <time>2022-07-05T10:17:33Z</time>
      </trkpt>
      <trkpt lat="42.447834" lon="-0.7944915">
        <time>2022-07-05T10:17:34Z</time>
      </trkpt>
      <trkpt lat="42.447758" lon="-0.79439783">
        <time>2022-07-05T10:17:35Z</time>
      </trkpt>
      <trkpt lat="42.447678" lon="-0.7943042">
        <time>2022-07-05T10:17:36Z</time>
      </trkpt>
      <trkpt lat="42.44759" lon="-0.7942072">
        <time>2022-07-05T10:17:37Z</time>
      </trkpt>
      <trkpt lat="42.44751" lon="-0.79412186">
        <time>2022-07-05T10:17:38Z</time>
      </trkpt>
      <trkpt lat="42.447422" lon="-0.7940452">
        <time>2022-07-05T10:17:39Z</time>
      </trkpt>
      <trkpt lat="42.44733" lon="-0.7939835">
        <time>2022-07-05T10:17:40Z</time>
      </trkpt>
      <trkpt lat="42.447235" lon="-0.79394186">
        <time>2022-07-05T10:17:41Z</time>
      </trkpt>
      <trkpt lat="42.44714" lon="-0.79392123">
        <time>2022-07-05T10:17:42Z</time>
      </trkpt>
      <trkpt lat="42.44704" lon="-0.79392123">
        <time>2022-07-05T10:17:43Z</time>
      </trkpt>
      <trkpt lat="42.446945" lon="-0.7939386">
        <time>2022-07-05T10:17:44Z</time>
      </trkpt>
      <trkpt lat="42.44685" lon="-0.79396886">
        <time>2022-07-05T10:17:45Z</time>
      </trkpt>
      <trkpt lat="42.44676" lon="-0.7940072">
        <time>2022-07-05T10:17:46Z</time>
      </trkpt>
      <trkpt lat="42.446667" lon="-0.7940502">
        <time>2022-07-05T10:17:47Z</time>
      </trkpt>
      <trkpt lat="42.44657" lon="-0.7940992">
        <time>2022-07-05T10:17:48Z</time>
      </trkpt>
      <trkpt lat="42.446487" lon="-0.7941452">
        <time>2022-07-05T10:17:49Z</time>
      </trkpt>
      <trkpt lat="42.4464" lon="-0.7941919">
        <time>2022-07-05T10:17:50Z</time>
      </trkpt>
      <trkpt lat="42.446316" lon="-0.79423785">
        <time>2022-07-05T10:17:51Z</time>
      </trkpt>
      <trkpt lat="42.44623" lon="-0.79428285">
        <time>2022-07-05T10:17:52Z</time>
      </trkpt>
      <trkpt lat="42.446156" lon="-0.79432654">
        <time>2022-07-05T10:17:53Z</time>
      </trkpt>
      <trkpt lat="42.446075" lon="-0.7943722">
        <time>2022-07-05T10:17:54Z</time>
      </trkpt>
      <trkpt lat="42.446" lon="-0.7944145">
        <time>2022-07-05T10:17:55Z</time>
      </trkpt>
      <trkpt lat="42.44593" lon="-0.7944495">
        <time>2022-07-05T10:17:56Z</time>
      </trkpt>
      <trkpt lat="42.44587" lon="-0.79447955">
        <time>2022-07-05T10:17:57Z</time>
      </trkpt>
      <trkpt lat="42.44581" lon="-0.7945035">
        <time>2022-07-05T10:17:58Z</time>
      </trkpt>
      <trkpt lat="42.445747" lon="-0.79452115">
        <time>2022-07-05T10:17:59Z</time>
      </trkpt>
      <trkpt lat="42.445698" lon="-0.7945332">
        <time>2022-07-05T10:18:00Z</time>
      </trkpt>
      <trkpt lat="42.44565" lon="-0.79454017">
        <time>2022-07-05T10:18:01Z</time>
      </trkpt>
      <trkpt lat="42.44556" lon="-0.7945405">
        <time>2022-07-05T10:18:03Z</time>
      </trkpt>
      <trkpt lat="42.445477" lon="-0.7945282">
        <time>2022-07-05T10:18:05Z</time>
      </trkpt>
      <trkpt lat="42.445404" lon="-0.79451084">
        <time>2022-07-05T10:18:07Z</time>
      </trkpt>
      <trkpt lat="42.44534" lon="-0.7944882">
        <time>2022-07-05T10:18:09Z</time>
      </trkpt>
      <trkpt lat="42.44528" lon="-0.7944635">
        <time>2022-07-05T10:18:11Z</time>
      </trkpt>
      <trkpt lat="42.44522" lon="-0.7944392">
        <time>2022-07-05T10:18:13Z</time>
      </trkpt>
      <trkpt lat="42.445164" lon="-0.7944142">
        <time>2022-07-05T10:18:15Z</time>
      </trkpt>
      <trkpt lat="42.445103" lon="-0.7943875">
        <time>2022-07-05T10:18:17Z</time>
      </trkpt>
      <trkpt lat="42.44505" lon="-0.7943622">
        <time>2022-07-05T10:18:19Z</time>
      </trkpt>
      <trkpt lat="42.444992" lon="-0.7943362">
        <time>2022-07-05T10:18:21Z</time>
      </trkpt>
      <trkpt lat="42.444935" lon="-0.79431087">
        <time>2022-07-05T10:18:23Z</time>
      </trkpt>
      <trkpt lat="42.444874" lon="-0.79428923">
        <time>2022-07-05T10:18:25Z</time>
      </trkpt>
      <trkpt lat="42.444817" lon="-0.79426855">
        <time>2022-07-05T10:18:27Z</time>
      </trkpt>
      <trkpt lat="42.444756" lon="-0.7942486">
        <time>2022-07-05T10:18:29Z</time>
      </trkpt>
      <trkpt lat="42.444687" lon="-0.79422754">
        <time>2022-07-05T10:18:31Z</time>
      </trkpt>
      <trkpt lat="42.444622" lon="-0.7942039">
        <time>2022-07-05T10:18:33Z</time>
      </trkpt>
      <trkpt lat="42.44455" lon="-0.7941826">
        <time>2022-07-05T10:18:35Z</time>
      </trkpt>
      <trkpt lat="42.444473" lon="-0.79416156">
        <time>2022-07-05T10:18:37Z</time>
      </trkpt>
      <trkpt lat="42.44438" lon="-0.79413927">
        <time>2022-07-05T10:18:39Z</time>
      </trkpt>
      <trkpt lat="42.44429" lon="-0.79411924">
        <time>2022-07-05T10:18:41Z</time>
      </trkpt>
      <trkpt lat="42.444187" lon="-0.7940909">
        <time>2022-07-05T10:18:43Z</time>
      </trkpt>
      <trkpt lat="42.44413" lon="-0.79407525">
        <time>2022-07-05T10:18:44Z</time>
      </trkpt>
      <trkpt lat="42.444073" lon="-0.79405856">
        <time>2022-07-05T10:18:45Z</time>
      </trkpt>
      <trkpt lat="42.44401" lon="-0.7940426">
        <time>2022-07-05T10:18:46Z</time>
      </trkpt>
      <trkpt lat="42.44395" lon="-0.79402727">
        <time>2022-07-05T10:18:47Z</time>
      </trkpt>
      <trkpt lat="42.443886" lon="-0.79401225">
        <time>2022-07-05T10:18:48Z</time>
      </trkpt>
      <trkpt lat="42.44382" lon="-0.79399693">
        <time>2022-07-05T10:18:49Z</time>
      </trkpt>
      <trkpt lat="42.44375" lon="-0.79398024">
        <time>2022-07-05T10:18:50Z</time>
      </trkpt>
      <trkpt lat="42.443676" lon="-0.79396427">
        <time>2022-07-05T10:18:51Z</time>
      </trkpt>
      <trkpt lat="42.443604" lon="-0.79394996">
        <time>2022-07-05T10:18:52Z</time>
      </trkpt>
      <trkpt lat="42.44353" lon="-0.7939383">
        <time>2022-07-05T10:18:53Z</time>
      </trkpt>
      <trkpt lat="42.44346" lon="-0.79392993">
        <time>2022-07-05T10:18:54Z</time>
      </trkpt>
      <trkpt lat="42.443382" lon="-0.793924">
        <time>2022-07-05T10:18:55Z</time>
      </trkpt>
      <trkpt lat="42.443302" lon="-0.7939186">
        <time>2022-07-05T10:18:56Z</time>
      </trkpt>
      <trkpt lat="42.443222" lon="-0.7939123">
        <time>2022-07-05T10:18:57Z</time>
      </trkpt>
      <trkpt lat="42.44314" lon="-0.79390264">
        <time>2022-07-05T10:18:58Z</time>
      </trkpt>
      <trkpt lat="42.443058" lon="-0.7938913">
        <time>2022-07-05T10:18:59Z</time>
      </trkpt>
      <trkpt lat="42.442974" lon="-0.7938753">
        <time>2022-07-05T10:19:00Z</time>
      </trkpt>
      <trkpt lat="42.442894" lon="-0.7938543">
        <time>2022-07-05T10:19:01Z</time>
      </trkpt>
      <trkpt lat="42.442814" lon="-0.79382795">
        <time>2022-07-05T10:19:02Z</time>
      </trkpt>
      <trkpt lat="42.442734" lon="-0.7937963">
        <time>2022-07-05T10:19:03Z</time>
      </trkpt>
      <trkpt lat="42.442657" lon="-0.79376066">
        <time>2022-07-05T10:19:04Z</time>
      </trkpt>
      <trkpt lat="42.442574" lon="-0.7937193">
        <time>2022-07-05T10:19:05Z</time>
      </trkpt>
      <trkpt lat="42.44249" lon="-0.7936767">
        <time>2022-07-05T10:19:06Z</time>
      </trkpt>
      <trkpt lat="42.442413" lon="-0.7936317">
        <time>2022-07-05T10:19:07Z</time>
      </trkpt>
      <trkpt lat="42.442253" lon="-0.79353833">
        <time>2022-07-05T10:19:09Z</time>
      </trkpt>
      <trkpt lat="42.442177" lon="-0.79349166">
        <time>2022-07-05T10:19:10Z</time>
      </trkpt>
      <trkpt lat="42.442097" lon="-0.7934447">
        <time>2022-07-05T10:19:11Z</time>
      </trkpt>
      <trkpt lat="42.442017" lon="-0.793397">
        <time>2022-07-05T10:19:12Z</time>
      </trkpt>
      <trkpt lat="42.44194" lon="-0.79335135">
        <time>2022-07-05T10:19:13Z</time>
      </trkpt>
      <trkpt lat="42.441864" lon="-0.79330504">
        <time>2022-07-05T10:19:14Z</time>
      </trkpt>
      <trkpt lat="42.44178" lon="-0.7932567">
        <time>2022-07-05T10:19:15Z</time>
      </trkpt>
      <trkpt lat="42.441696" lon="-0.793208">
        <time>2022-07-05T10:19:16Z</time>
      </trkpt>
      <trkpt lat="42.441612" lon="-0.7931577">
        <time>2022-07-05T10:19:17Z</time>
      </trkpt>
      <trkpt lat="42.441525" lon="-0.7931064">
        <time>2022-07-05T10:19:18Z</time>
      </trkpt>
      <trkpt lat="42.441433" lon="-0.7930534">
        <time>2022-07-05T10:19:19Z</time>
      </trkpt>
      <trkpt lat="42.44134" lon="-0.792998">
        <time>2022-07-05T10:19:20Z</time>
      </trkpt>
      <trkpt lat="42.44124" lon="-0.7929377">
        <time>2022-07-05T10:19:21Z</time>
      </trkpt>
      <trkpt lat="42.441147" lon="-0.7928811">
        <time>2022-07-05T10:19:22Z</time>
      </trkpt>
      <trkpt lat="42.441048" lon="-0.79282206">
        <time>2022-07-05T10:19:23Z</time>
      </trkpt>
      <trkpt lat="42.440945" lon="-0.792756">
        <time>2022-07-05T10:19:24Z</time>
      </trkpt>
      <trkpt lat="42.44085" lon="-0.79269403">
        <time>2022-07-05T10:19:25Z</time>
      </trkpt>
      <trkpt lat="42.440742" lon="-0.7926264">
        <time>2022-07-05T10:19:26Z</time>
      </trkpt>
      <trkpt lat="42.440643" lon="-0.7925631">
        <time>2022-07-05T10:19:27Z</time>
      </trkpt>
      <trkpt lat="42.440544" lon="-0.7924984">
        <time>2022-07-05T10:19:28Z</time>
      </trkpt>
      <trkpt lat="42.440437" lon="-0.79242873">
        <time>2022-07-05T10:19:29Z</time>
      </trkpt>
      <trkpt lat="42.440334" lon="-0.79236144">
        <time>2022-07-05T10:19:30Z</time>
      </trkpt>
      <trkpt lat="42.44023" lon="-0.79229575">
        <time>2022-07-05T10:19:31Z</time>
      </trkpt>
      <trkpt lat="42.440136" lon="-0.79223144">
        <time>2022-07-05T10:19:32Z</time>
      </trkpt>
      <trkpt lat="42.440044" lon="-0.7921728">
        <time>2022-07-05T10:19:33Z</time>
      </trkpt>
      <trkpt lat="42.439953" lon="-0.7921138">
        <time>2022-07-05T10:19:34Z</time>
      </trkpt>
      <trkpt lat="42.43986" lon="-0.79205674">
        <time>2022-07-05T10:19:35Z</time>
      </trkpt>
      <trkpt lat="42.439774" lon="-0.79200476">
        <time>2022-07-05T10:19:36Z</time>
      </trkpt>
      <trkpt lat="42.43968" lon="-0.79195976">
        <time>2022-07-05T10:19:37Z</time>
      </trkpt>
      <trkpt lat="42.439587" lon="-0.79192746">
        <time>2022-07-05T10:19:38Z</time>
      </trkpt>
      <trkpt lat="42.439495" lon="-0.7919101">
        <time>2022-07-05T10:19:39Z</time>
      </trkpt>
      <trkpt lat="42.439404" lon="-0.79190946">
        <time>2022-07-05T10:19:40Z</time>
      </trkpt>
      <trkpt lat="42.439312" lon="-0.79192543">
        <time>2022-07-05T10:19:41Z</time>
      </trkpt>
      <trkpt lat="42.439228" lon="-0.7919578">
        <time>2022-07-05T10:19:42Z</time>
      </trkpt>
      <trkpt lat="42.439144" lon="-0.7920108">
        <time>2022-07-05T10:19:43Z</time>
      </trkpt>
      <trkpt lat="42.43907" lon="-0.7920771">
        <time>2022-07-05T10:19:44Z</time>
      </trkpt>
      <trkpt lat="42.439007" lon="-0.79215276">
        <time>2022-07-05T10:19:45Z</time>
      </trkpt>
      <trkpt lat="42.438957" lon="-0.79223377">
        <time>2022-07-05T10:19:46Z</time>
      </trkpt>
      <trkpt lat="42.43891" lon="-0.7923181">
        <time>2022-07-05T10:19:47Z</time>
      </trkpt>
      <trkpt lat="42.438873" lon="-0.7924044">
        <time>2022-07-05T10:19:48Z</time>
      </trkpt>
      <trkpt lat="42.438843" lon="-0.7924904">
        <time>2022-07-05T10:19:49Z</time>
      </trkpt>
      <trkpt lat="42.438812" lon="-0.79256874">
        <time>2022-07-05T10:19:50Z</time>
      </trkpt>
      <trkpt lat="42.438786" lon="-0.79264677">
        <time>2022-07-05T10:19:51Z</time>
      </trkpt>
      <trkpt lat="42.438755" lon="-0.7927234">
        <time>2022-07-05T10:19:52Z</time>
      </trkpt>
      <trkpt lat="42.438725" lon="-0.79279876">
        <time>2022-07-05T10:19:53Z</time>
      </trkpt>
      <trkpt lat="42.438694" lon="-0.7928717">
        <time>2022-07-05T10:19:54Z</time>
      </trkpt>
      <trkpt lat="42.438656" lon="-0.79294705">
        <time>2022-07-05T10:19:55Z</time>
      </trkpt>
      <trkpt lat="42.43862" lon="-0.79301876">
        <time>2022-07-05T10:19:56Z</time>
      </trkpt>
      <trkpt lat="42.43858" lon="-0.7930881">
        <time>2022-07-05T10:19:57Z</time>
      </trkpt>
      <trkpt lat="42.43854" lon="-0.7931551">
        <time>2022-07-05T10:19:58Z</time>
      </trkpt>
      <trkpt lat="42.4385" lon="-0.79322505">
        <time>2022-07-05T10:19:59Z</time>
      </trkpt>
      <trkpt lat="42.43846" lon="-0.7932927">
        <time>2022-07-05T10:20:00Z</time>
      </trkpt>
      <trkpt lat="42.438423" lon="-0.79335773">
        <time>2022-07-05T10:20:01Z</time>
      </trkpt>
      <trkpt lat="42.438385" lon="-0.79341936">
        <time>2022-07-05T10:20:02Z</time>
      </trkpt>
      <trkpt lat="42.438347" lon="-0.793479">
        <time>2022-07-05T10:20:03Z</time>
      </trkpt>
      <trkpt lat="42.43831" lon="-0.7935334">
        <time>2022-07-05T10:20:04Z</time>
      </trkpt>
      <trkpt lat="42.438274" lon="-0.793586">
        <time>2022-07-05T10:20:05Z</time>
      </trkpt>
      <trkpt lat="42.438236" lon="-0.79363704">
        <time>2022-07-05T10:20:06Z</time>
      </trkpt>
      <trkpt lat="42.438198" lon="-0.7936877">
        <time>2022-07-05T10:20:07Z</time>
      </trkpt>
      <trkpt lat="42.43816" lon="-0.79373205">
        <time>2022-07-05T10:20:08Z</time>
      </trkpt>
      <trkpt lat="42.438118" lon="-0.7937777">
        <time>2022-07-05T10:20:09Z</time>
      </trkpt>
      <trkpt lat="42.43808" lon="-0.79382133">
        <time>2022-07-05T10:20:10Z</time>
      </trkpt>
      <trkpt lat="42.437996" lon="-0.79390633">
        <time>2022-07-05T10:20:12Z</time>
      </trkpt>
      <trkpt lat="42.437958" lon="-0.79394865">
        <time>2022-07-05T10:20:13Z</time>
      </trkpt>
      <trkpt lat="42.437874" lon="-0.7940363">
        <time>2022-07-05T10:20:15Z</time>
      </trkpt>
      <trkpt lat="42.43783" lon="-0.7940793">
        <time>2022-07-05T10:20:16Z</time>
      </trkpt>
      <trkpt lat="42.43779" lon="-0.79412097">
        <time>2022-07-05T10:20:17Z</time>
      </trkpt>
      <trkpt lat="42.437744" lon="-0.79416096">
        <time>2022-07-05T10:20:18Z</time>
      </trkpt>
      <trkpt lat="42.437695" lon="-0.79419965">
        <time>2022-07-05T10:20:19Z</time>
      </trkpt>
      <trkpt lat="42.43764" lon="-0.79423696">
        <time>2022-07-05T10:20:20Z</time>
      </trkpt>
      <trkpt lat="42.437584" lon="-0.79426897">
        <time>2022-07-05T10:20:21Z</time>
      </trkpt>
      <trkpt lat="42.437527" lon="-0.79429096">
        <time>2022-07-05T10:20:22Z</time>
      </trkpt>
      <trkpt lat="42.43746" lon="-0.79430467">
        <time>2022-07-05T10:20:23Z</time>
      </trkpt>
      <trkpt lat="42.437393" lon="-0.7943096">
        <time>2022-07-05T10:20:24Z</time>
      </trkpt>
      <trkpt lat="42.437325" lon="-0.79430664">
        <time>2022-07-05T10:20:25Z</time>
      </trkpt>
      <trkpt lat="42.437244" lon="-0.79429567">
        <time>2022-07-05T10:20:26Z</time>
      </trkpt>
      <trkpt lat="42.437164" lon="-0.79428">
        <time>2022-07-05T10:20:27Z</time>
      </trkpt>
      <trkpt lat="42.43708" lon="-0.79425967">
        <time>2022-07-05T10:20:28Z</time>
      </trkpt>
      <trkpt lat="42.437" lon="-0.79423565">
        <time>2022-07-05T10:20:29Z</time>
      </trkpt>
      <trkpt lat="42.436924" lon="-0.7942116">
        <time>2022-07-05T10:20:30Z</time>
      </trkpt>
      <trkpt lat="42.436848" lon="-0.79418534">
        <time>2022-07-05T10:20:31Z</time>
      </trkpt>
      <trkpt lat="42.436768" lon="-0.7941593">
        <time>2022-07-05T10:20:32Z</time>
      </trkpt>
      <trkpt lat="42.436687" lon="-0.794136">
        <time>2022-07-05T10:20:33Z</time>
      </trkpt>
      <trkpt lat="42.436604" lon="-0.79411733">
        <time>2022-07-05T10:20:34Z</time>
      </trkpt>
      <trkpt lat="42.436523" lon="-0.7941033">
        <time>2022-07-05T10:20:35Z</time>
      </trkpt>
      <trkpt lat="42.43644" lon="-0.794094">
        <time>2022-07-05T10:20:36Z</time>
      </trkpt>
      <trkpt lat="42.43636" lon="-0.79409033">
        <time>2022-07-05T10:20:37Z</time>
      </trkpt>
      <trkpt lat="42.436287" lon="-0.794094">
        <time>2022-07-05T10:20:38Z</time>
      </trkpt>
      <trkpt lat="42.436214" lon="-0.79410267">
        <time>2022-07-05T10:20:39Z</time>
      </trkpt>
      <trkpt lat="42.43615" lon="-0.79411596">
        <time>2022-07-05T10:20:40Z</time>
      </trkpt>
      <trkpt lat="42.43609" lon="-0.7941373">
        <time>2022-07-05T10:20:41Z</time>
      </trkpt>
      <trkpt lat="42.436035" lon="-0.7941663">
        <time>2022-07-05T10:20:42Z</time>
      </trkpt>
      <trkpt lat="42.435997" lon="-0.794203">
        <time>2022-07-05T10:20:43Z</time>
      </trkpt>
      <trkpt lat="42.435963" lon="-0.79424566">
        <time>2022-07-05T10:20:44Z</time>
      </trkpt>
      <trkpt lat="42.43591" lon="-0.794334">
        <time>2022-07-05T10:20:46Z</time>
      </trkpt>
      <trkpt lat="42.43587" lon="-0.79442465">
        <time>2022-07-05T10:20:48Z</time>
      </trkpt>
      <trkpt lat="42.435833" lon="-0.794512">
        <time>2022-07-05T10:20:50Z</time>
      </trkpt>
      <trkpt lat="42.4358" lon="-0.79459596">
        <time>2022-07-05T10:20:52Z</time>
      </trkpt>
      <trkpt lat="42.435772" lon="-0.79467463">
        <time>2022-07-05T10:20:54Z</time>
      </trkpt>
      <trkpt lat="42.43574" lon="-0.79474896">
        <time>2022-07-05T10:20:56Z</time>
      </trkpt>
      <trkpt lat="42.43571" lon="-0.79482496">
        <time>2022-07-05T10:20:58Z</time>
      </trkpt>
      <trkpt lat="42.43567" lon="-0.7949053">
        <time>2022-07-05T10:21:00Z</time>
      </trkpt>
      <trkpt lat="42.43562" lon="-0.7949883">
        <time>2022-07-05T10:21:02Z</time>
      </trkpt>
      <trkpt lat="42.43555" lon="-0.7950803">
        <time>2022-07-05T10:21:04Z</time>
      </trkpt>
      <trkpt lat="42.43551" lon="-0.79512596">
        <time>2022-07-05T10:21:05Z</time>
      </trkpt>
      <trkpt lat="42.435463" lon="-0.79516697">
        <time>2022-07-05T10:21:06Z</time>
      </trkpt>
      <trkpt lat="42.435413" lon="-0.79520327">
        <time>2022-07-05T10:21:07Z</time>
      </trkpt>
      <trkpt lat="42.43536" lon="-0.79523325">
        <time>2022-07-05T10:21:08Z</time>
      </trkpt>
      <trkpt lat="42.435303" lon="-0.79525596">
        <time>2022-07-05T10:21:09Z</time>
      </trkpt>
      <trkpt lat="42.43524" lon="-0.79527223">
        <time>2022-07-05T10:21:10Z</time>
      </trkpt>
      <trkpt lat="42.43518" lon="-0.7952856">
        <time>2022-07-05T10:21:11Z</time>
      </trkpt>
      <trkpt lat="42.435112" lon="-0.79529727">
        <time>2022-07-05T10:21:12Z</time>
      </trkpt>
      <trkpt lat="42.434967" lon="-0.7953139">
        <time>2022-07-05T10:21:14Z</time>
      </trkpt>
      <trkpt lat="42.43489" lon="-0.7953179">
        <time>2022-07-05T10:21:15Z</time>
      </trkpt>
      <trkpt lat="42.434814" lon="-0.7953199">
        <time>2022-07-05T10:21:16Z</time>
      </trkpt>
      <trkpt lat="42.434734" lon="-0.7953202">
        <time>2022-07-05T10:21:17Z</time>
      </trkpt>
      <trkpt lat="42.434654" lon="-0.7953212">
        <time>2022-07-05T10:21:18Z</time>
      </trkpt>
      <trkpt lat="42.43457" lon="-0.7953212">
        <time>2022-07-05T10:21:19Z</time>
      </trkpt>
      <trkpt lat="42.434486" lon="-0.7953199">
        <time>2022-07-05T10:21:20Z</time>
      </trkpt>
      <trkpt lat="42.4344" lon="-0.79531556">
        <time>2022-07-05T10:21:21Z</time>
      </trkpt>
      <trkpt lat="42.43431" lon="-0.7953069">
        <time>2022-07-05T10:21:22Z</time>
      </trkpt>
      <trkpt lat="42.434223" lon="-0.7952946">
        <time>2022-07-05T10:21:23Z</time>
      </trkpt>
      <trkpt lat="42.43413" lon="-0.79527926">
        <time>2022-07-05T10:21:24Z</time>
      </trkpt>
      <trkpt lat="42.43404" lon="-0.79526126">
        <time>2022-07-05T10:21:25Z</time>
      </trkpt>
      <trkpt lat="42.43395" lon="-0.7952436">
        <time>2022-07-05T10:21:26Z</time>
      </trkpt>
      <trkpt lat="42.433865" lon="-0.79522693">
        <time>2022-07-05T10:21:27Z</time>
      </trkpt>
      <trkpt lat="42.433777" lon="-0.79521364">
        <time>2022-07-05T10:21:28Z</time>
      </trkpt>
      <trkpt lat="42.43369" lon="-0.795203">
        <time>2022-07-05T10:21:29Z</time>
      </trkpt>
      <trkpt lat="42.433605" lon="-0.79519594">
        <time>2022-07-05T10:21:30Z</time>
      </trkpt>
      <trkpt lat="42.43352" lon="-0.7951963">
        <time>2022-07-05T10:21:31Z</time>
      </trkpt>
      <trkpt lat="42.43344" lon="-0.7952039">
        <time>2022-07-05T10:21:32Z</time>
      </trkpt>
      <trkpt lat="42.433365" lon="-0.7952183">
        <time>2022-07-05T10:21:33Z</time>
      </trkpt>
      <trkpt lat="42.433285" lon="-0.7952363">
        <time>2022-07-05T10:21:34Z</time>
      </trkpt>
      <trkpt lat="42.433212" lon="-0.7952529">
        <time>2022-07-05T10:21:35Z</time>
      </trkpt>
      <trkpt lat="42.43314" lon="-0.7952673">
        <time>2022-07-05T10:21:36Z</time>
      </trkpt>
      <trkpt lat="42.43307" lon="-0.79527724">
        <time>2022-07-05T10:21:37Z</time>
      </trkpt>
      <trkpt lat="42.433002" lon="-0.7952829">
        <time>2022-07-05T10:21:38Z</time>
      </trkpt>
      <trkpt lat="42.43294" lon="-0.7952849">
        <time>2022-07-05T10:21:39Z</time>
      </trkpt>
      <trkpt lat="42.43288" lon="-0.7952836">
        <time>2022-07-05T10:21:40Z</time>
      </trkpt>
      <trkpt lat="42.43282" lon="-0.7952803">
        <time>2022-07-05T10:21:41Z</time>
      </trkpt>
      <trkpt lat="42.432762" lon="-0.79527324">
        <time>2022-07-05T10:21:42Z</time>
      </trkpt>
      <trkpt lat="42.432705" lon="-0.79526293">
        <time>2022-07-05T10:21:43Z</time>
      </trkpt>
      <trkpt lat="42.43265" lon="-0.7952506">
        <time>2022-07-05T10:21:44Z</time>
      </trkpt>
      <trkpt lat="42.4326" lon="-0.7952366">
        <time>2022-07-05T10:21:45Z</time>
      </trkpt>
      <trkpt lat="42.43254" lon="-0.7952196">
        <time>2022-07-05T10:21:46Z</time>
      </trkpt>
      <trkpt lat="42.432484" lon="-0.79520196">
        <time>2022-07-05T10:21:47Z</time>
      </trkpt>
      <trkpt lat="42.432426" lon="-0.7951849">
        <time>2022-07-05T10:21:48Z</time>
      </trkpt>
      <trkpt lat="42.43237" lon="-0.7951693">
        <time>2022-07-05T10:21:49Z</time>
      </trkpt>
      <trkpt lat="42.432316" lon="-0.79515564">
        <time>2022-07-05T10:21:50Z</time>
      </trkpt>
      <trkpt lat="42.432262" lon="-0.7951443">
        <time>2022-07-05T10:21:51Z</time>
      </trkpt>
      <trkpt lat="42.4322" lon="-0.7951356">
        <time>2022-07-05T10:21:52Z</time>
      </trkpt>
      <trkpt lat="42.43214" lon="-0.79512864">
        <time>2022-07-05T10:21:53Z</time>
      </trkpt>
      <trkpt lat="42.43208" lon="-0.795124">
        <time>2022-07-05T10:21:54Z</time>
      </trkpt>
      <trkpt lat="42.432022" lon="-0.79512197">
        <time>2022-07-05T10:21:55Z</time>
      </trkpt>
      <trkpt lat="42.43196" lon="-0.79512167">
        <time>2022-07-05T10:21:56Z</time>
      </trkpt>
      <trkpt lat="42.431908" lon="-0.79512167">
        <time>2022-07-05T10:21:57Z</time>
      </trkpt>
      <trkpt lat="42.431847" lon="-0.7951213">
        <time>2022-07-05T10:21:58Z</time>
      </trkpt>
      <trkpt lat="42.43179" lon="-0.7951203">
        <time>2022-07-05T10:21:59Z</time>
      </trkpt>
      <trkpt lat="42.431736" lon="-0.79511666">
        <time>2022-07-05T10:22:00Z</time>
      </trkpt>
      <trkpt lat="42.43168" lon="-0.795111">
        <time>2022-07-05T10:22:01Z</time>
      </trkpt>
      <trkpt lat="42.43162" lon="-0.795103">
        <time>2022-07-05T10:22:02Z</time>
      </trkpt>
      <trkpt lat="42.43156" lon="-0.795093">
        <time>2022-07-05T10:22:03Z</time>
      </trkpt>
      <trkpt lat="42.431503" lon="-0.7950813">
        <time>2022-07-05T10:22:04Z</time>
      </trkpt>
      <trkpt lat="42.43144" lon="-0.795072">
        <time>2022-07-05T10:22:05Z</time>
      </trkpt>
      <trkpt lat="42.43138" lon="-0.795064">
        <time>2022-07-05T10:22:06Z</time>
      </trkpt>
      <trkpt lat="42.431313" lon="-0.79505664">
        <time>2022-07-05T10:22:07Z</time>
      </trkpt>
      <trkpt lat="42.431244" lon="-0.79504764">
        <time>2022-07-05T10:22:08Z</time>
      </trkpt>
      <trkpt lat="42.431175" lon="-0.795039">
        <time>2022-07-05T10:22:09Z</time>
      </trkpt>
      <trkpt lat="42.431107" lon="-0.795031">
        <time>2022-07-05T10:22:10Z</time>
      </trkpt>
      <trkpt lat="42.431038" lon="-0.79502165">
        <time>2022-07-05T10:22:11Z</time>
      </trkpt>
      <trkpt lat="42.430965" lon="-0.7950107">
        <time>2022-07-05T10:22:12Z</time>
      </trkpt>
      <trkpt lat="42.43089" lon="-0.794995">
        <time>2022-07-05T10:22:13Z</time>
      </trkpt>
      <trkpt lat="42.430813" lon="-0.79497635">
        <time>2022-07-05T10:22:14Z</time>
      </trkpt>
      <trkpt lat="42.430737" lon="-0.7949554">
        <time>2022-07-05T10:22:15Z</time>
      </trkpt>
      <trkpt lat="42.430664" lon="-0.7949337">
        <time>2022-07-05T10:22:16Z</time>
      </trkpt>
      <trkpt lat="42.43059" lon="-0.794911">
        <time>2022-07-05T10:22:17Z</time>
      </trkpt>
      <trkpt lat="42.43044" lon="-0.794865">
        <time>2022-07-05T10:22:19Z</time>
      </trkpt>
      <trkpt lat="42.430367" lon="-0.79484206">
        <time>2022-07-05T10:22:20Z</time>
      </trkpt>
      <trkpt lat="42.4303" lon="-0.794821">
        <time>2022-07-05T10:22:21Z</time>
      </trkpt>
      <trkpt lat="42.430237" lon="-0.7948004">
        <time>2022-07-05T10:22:22Z</time>
      </trkpt>
      <trkpt lat="42.430172" lon="-0.7947787">
        <time>2022-07-05T10:22:23Z</time>
      </trkpt>
      <trkpt lat="42.430107" lon="-0.79475707">
        <time>2022-07-05T10:22:24Z</time>
      </trkpt>
      <trkpt lat="42.430042" lon="-0.7947344">
        <time>2022-07-05T10:22:25Z</time>
      </trkpt>
      <trkpt lat="42.429985" lon="-0.79471374">
        <time>2022-07-05T10:22:26Z</time>
      </trkpt>
      <trkpt lat="42.429928" lon="-0.79469174">
        <time>2022-07-05T10:22:27Z</time>
      </trkpt>
      <trkpt lat="42.42987" lon="-0.79466677">
        <time>2022-07-05T10:22:28Z</time>
      </trkpt>
      <trkpt lat="42.42981" lon="-0.79464275">
        <time>2022-07-05T10:22:29Z</time>
      </trkpt>
      <trkpt lat="42.429752" lon="-0.79461807">
        <time>2022-07-05T10:22:30Z</time>
      </trkpt>
      <trkpt lat="42.429695" lon="-0.7945941">
        <time>2022-07-05T10:22:31Z</time>
      </trkpt>
      <trkpt lat="42.42964" lon="-0.7945691">
        <time>2022-07-05T10:22:32Z</time>
      </trkpt>
      <trkpt lat="42.42959" lon="-0.7945431">
        <time>2022-07-05T10:22:33Z</time>
      </trkpt>
      <trkpt lat="42.429535" lon="-0.7945161">
        <time>2022-07-05T10:22:34Z</time>
      </trkpt>
      <trkpt lat="42.42948" lon="-0.7944887">
        <time>2022-07-05T10:22:35Z</time>
      </trkpt>
      <trkpt lat="42.42943" lon="-0.7944601">
        <time>2022-07-05T10:22:36Z</time>
      </trkpt>
      <trkpt lat="42.429382" lon="-0.7944331">
        <time>2022-07-05T10:22:37Z</time>
      </trkpt>
      <trkpt lat="42.429333" lon="-0.79440576">
        <time>2022-07-05T10:22:38Z</time>
      </trkpt>
      <trkpt lat="42.42928" lon="-0.7943758">
        <time>2022-07-05T10:22:39Z</time>
      </trkpt>
      <trkpt lat="42.42923" lon="-0.7943461">
        <time>2022-07-05T10:22:40Z</time>
      </trkpt>
      <trkpt lat="42.429176" lon="-0.7943161">
        <time>2022-07-05T10:22:41Z</time>
      </trkpt>
      <trkpt lat="42.42913" lon="-0.79428774">
        <time>2022-07-05T10:22:42Z</time>
      </trkpt>
      <trkpt lat="42.429035" lon="-0.7942324">
        <time>2022-07-05T10:22:44Z</time>
      </trkpt>
      <trkpt lat="42.428986" lon="-0.7942048">
        <time>2022-07-05T10:22:45Z</time>
      </trkpt>
      <trkpt lat="42.42894" lon="-0.7941778">
        <time>2022-07-05T10:22:46Z</time>
      </trkpt>
      <trkpt lat="42.428894" lon="-0.79415345">
        <time>2022-07-05T10:22:47Z</time>
      </trkpt>
      <trkpt lat="42.42881" lon="-0.7941041">
        <time>2022-07-05T10:22:49Z</time>
      </trkpt>
      <trkpt lat="42.42872" lon="-0.7940568">
        <time>2022-07-05T10:22:51Z</time>
      </trkpt>
      <trkpt lat="42.428673" lon="-0.79403377">
        <time>2022-07-05T10:22:52Z</time>
      </trkpt>
      <trkpt lat="42.428585" lon="-0.79399246">
        <time>2022-07-05T10:22:54Z</time>
      </trkpt>
      <trkpt lat="42.428486" lon="-0.7939508">
        <time>2022-07-05T10:22:56Z</time>
      </trkpt>
      <trkpt lat="42.428436" lon="-0.7939301">
        <time>2022-07-05T10:22:57Z</time>
      </trkpt>
      <trkpt lat="42.42839" lon="-0.7939125">
        <time>2022-07-05T10:22:58Z</time>
      </trkpt>
      <trkpt lat="42.42829" lon="-0.7938768">
        <time>2022-07-05T10:23:00Z</time>
      </trkpt>
      <trkpt lat="42.428238" lon="-0.7938582">
        <time>2022-07-05T10:23:01Z</time>
      </trkpt>
      <trkpt lat="42.428185" lon="-0.7938395">
        <time>2022-07-05T10:23:02Z</time>
      </trkpt>
      <trkpt lat="42.428135" lon="-0.79382384">
        <time>2022-07-05T10:23:03Z</time>
      </trkpt>
      <trkpt lat="42.428085" lon="-0.79380816">
        <time>2022-07-05T10:23:04Z</time>
      </trkpt>
      <trkpt lat="42.42797" lon="-0.79377216">
        <time>2022-07-05T10:23:06Z</time>
      </trkpt>
      <trkpt lat="42.427917" lon="-0.7937552">
        <time>2022-07-05T10:23:07Z</time>
      </trkpt>
      <trkpt lat="42.427864" lon="-0.79373753">
        <time>2022-07-05T10:23:08Z</time>
      </trkpt>
      <trkpt lat="42.427814" lon="-0.7937212">
        <time>2022-07-05T10:23:09Z</time>
      </trkpt>
      <trkpt lat="42.42771" lon="-0.7936789">
        <time>2022-07-05T10:23:11Z</time>
      </trkpt>
      <trkpt lat="42.427654" lon="-0.7936512">
        <time>2022-07-05T10:23:12Z</time>
      </trkpt>
      <trkpt lat="42.4276" lon="-0.7936219">
        <time>2022-07-05T10:23:13Z</time>
      </trkpt>
      <trkpt lat="42.42755" lon="-0.7935929">
        <time>2022-07-05T10:23:14Z</time>
      </trkpt>
      <trkpt lat="42.427498" lon="-0.7935615">
        <time>2022-07-05T10:23:15Z</time>
      </trkpt>
      <trkpt lat="42.427444" lon="-0.79352885">
        <time>2022-07-05T10:23:16Z</time>
      </trkpt>
      <trkpt lat="42.427383" lon="-0.79349285">
        <time>2022-07-05T10:23:17Z</time>
      </trkpt>
      <trkpt lat="42.427322" lon="-0.7934559">
        <time>2022-07-05T10:23:18Z</time>
      </trkpt>
      <trkpt lat="42.427254" lon="-0.7934189">
        <time>2022-07-05T10:23:19Z</time>
      </trkpt>
      <trkpt lat="42.427185" lon="-0.7933802">
        <time>2022-07-05T10:23:20Z</time>
      </trkpt>
      <trkpt lat="42.427113" lon="-0.79333955">
        <time>2022-07-05T10:23:21Z</time>
      </trkpt>
      <trkpt lat="42.427036" lon="-0.7932976">
        <time>2022-07-05T10:23:22Z</time>
      </trkpt>
      <trkpt lat="42.426876" lon="-0.7932119">
        <time>2022-07-05T10:23:24Z</time>
      </trkpt>
      <trkpt lat="42.426792" lon="-0.7931726">
        <time>2022-07-05T10:23:25Z</time>
      </trkpt>
      <trkpt lat="42.42671" lon="-0.7931389">
        <time>2022-07-05T10:23:26Z</time>
      </trkpt>
      <trkpt lat="42.42662" lon="-0.7931149">
        <time>2022-07-05T10:23:27Z</time>
      </trkpt>
      <trkpt lat="42.42654" lon="-0.79310393">
        <time>2022-07-05T10:23:28Z</time>
      </trkpt>
      <trkpt lat="42.42646" lon="-0.79310924">
        <time>2022-07-05T10:23:29Z</time>
      </trkpt>
      <trkpt lat="42.42638" lon="-0.79312956">
        <time>2022-07-05T10:23:30Z</time>
      </trkpt>
      <trkpt lat="42.4263" lon="-0.7931636">
        <time>2022-07-05T10:23:31Z</time>
      </trkpt>
      <trkpt lat="42.42623" lon="-0.7932012">
        <time>2022-07-05T10:23:32Z</time>
      </trkpt>
      <trkpt lat="42.42616" lon="-0.79324657">
        <time>2022-07-05T10:23:33Z</time>
      </trkpt>
      <trkpt lat="42.426094" lon="-0.7933032">
        <time>2022-07-05T10:23:34Z</time>
      </trkpt>
      <trkpt lat="42.42603" lon="-0.7933672">
        <time>2022-07-05T10:23:35Z</time>
      </trkpt>
      <trkpt lat="42.42598" lon="-0.79343355">
        <time>2022-07-05T10:23:36Z</time>
      </trkpt>
      <trkpt lat="42.425934" lon="-0.79350823">
        <time>2022-07-05T10:23:37Z</time>
      </trkpt>
      <trkpt lat="42.42589" lon="-0.7935952">
        <time>2022-07-05T10:23:38Z</time>
      </trkpt>
      <trkpt lat="42.42586" lon="-0.7936785">
        <time>2022-07-05T10:23:39Z</time>
      </trkpt>
      <trkpt lat="42.42583" lon="-0.79376656">
        <time>2022-07-05T10:23:40Z</time>
      </trkpt>
      <trkpt lat="42.425804" lon="-0.7938575">
        <time>2022-07-05T10:23:41Z</time>
      </trkpt>
      <trkpt lat="42.42578" lon="-0.79395187">
        <time>2022-07-05T10:23:42Z</time>
      </trkpt>
      <trkpt lat="42.425755" lon="-0.79405385">
        <time>2022-07-05T10:23:43Z</time>
      </trkpt>
      <trkpt lat="42.42573" lon="-0.7941485">
        <time>2022-07-05T10:23:44Z</time>
      </trkpt>
      <trkpt lat="42.425713" lon="-0.7942462">
        <time>2022-07-05T10:23:45Z</time>
      </trkpt>
      <trkpt lat="42.425694" lon="-0.79434586">
        <time>2022-07-05T10:23:46Z</time>
      </trkpt>
      <trkpt lat="42.42567" lon="-0.7944465">
        <time>2022-07-05T10:23:47Z</time>
      </trkpt>
      <trkpt lat="42.42565" lon="-0.7945535">
        <time>2022-07-05T10:23:48Z</time>
      </trkpt>
      <trkpt lat="42.42563" lon="-0.7946595">
        <time>2022-07-05T10:23:49Z</time>
      </trkpt>
      <trkpt lat="42.42561" lon="-0.7947585">
        <time>2022-07-05T10:23:50Z</time>
      </trkpt>
      <trkpt lat="42.425587" lon="-0.7948598">
        <time>2022-07-05T10:23:51Z</time>
      </trkpt>
      <trkpt lat="42.425568" lon="-0.7949632">
        <time>2022-07-05T10:23:52Z</time>
      </trkpt>
      <trkpt lat="42.425545" lon="-0.79506683">
        <time>2022-07-05T10:23:53Z</time>
      </trkpt>
      <trkpt lat="42.42552" lon="-0.79517615">
        <time>2022-07-05T10:23:54Z</time>
      </trkpt>
      <trkpt lat="42.4255" lon="-0.79527515">
        <time>2022-07-05T10:23:55Z</time>
      </trkpt>
      <trkpt lat="42.425476" lon="-0.79537314">
        <time>2022-07-05T10:23:56Z</time>
      </trkpt>
      <trkpt lat="42.42545" lon="-0.79546946">
        <time>2022-07-05T10:23:57Z</time>
      </trkpt>
      <trkpt lat="42.425423" lon="-0.7955642">
        <time>2022-07-05T10:23:58Z</time>
      </trkpt>
      <trkpt lat="42.425392" lon="-0.79566216">
        <time>2022-07-05T10:23:59Z</time>
      </trkpt>
      <trkpt lat="42.425358" lon="-0.7957558">
        <time>2022-07-05T10:24:00Z</time>
      </trkpt>
      <trkpt lat="42.42532" lon="-0.7958428">
        <time>2022-07-05T10:24:01Z</time>
      </trkpt>
      <trkpt lat="42.425278" lon="-0.79591984">
        <time>2022-07-05T10:24:02Z</time>
      </trkpt>
      <trkpt lat="42.425236" lon="-0.79598045">
        <time>2022-07-05T10:24:03Z</time>
      </trkpt>
      <trkpt lat="42.42518" lon="-0.79602516">
        <time>2022-07-05T10:24:04Z</time>
      </trkpt>
      <trkpt lat="42.42512" lon="-0.7960505">
        <time>2022-07-05T10:24:05Z</time>
      </trkpt>
      <trkpt lat="42.42506" lon="-0.7960548">
        <time>2022-07-05T10:24:06Z</time>
      </trkpt>
      <trkpt lat="42.425" lon="-0.79603815">
        <time>2022-07-05T10:24:07Z</time>
      </trkpt>
      <trkpt lat="42.424946" lon="-0.7960041">
        <time>2022-07-05T10:24:08Z</time>
      </trkpt>
      <trkpt lat="42.424896" lon="-0.7959558">
        <time>2022-07-05T10:24:09Z</time>
      </trkpt>
      <trkpt lat="42.42485" lon="-0.79589516">
        <time>2022-07-05T10:24:10Z</time>
      </trkpt>
      <trkpt lat="42.424816" lon="-0.7958251">
        <time>2022-07-05T10:24:11Z</time>
      </trkpt>
      <trkpt lat="42.424786" lon="-0.7957505">
        <time>2022-07-05T10:24:12Z</time>
      </trkpt>
      <trkpt lat="42.42476" lon="-0.7956745">
        <time>2022-07-05T10:24:13Z</time>
      </trkpt>
      <trkpt lat="42.424736" lon="-0.7955961">
        <time>2022-07-05T10:24:14Z</time>
      </trkpt>
      <trkpt lat="42.424713" lon="-0.7955188">
        <time>2022-07-05T10:24:15Z</time>
      </trkpt>
      <trkpt lat="42.42469" lon="-0.7954432">
        <time>2022-07-05T10:24:16Z</time>
      </trkpt>
      <trkpt lat="42.42467" lon="-0.79536915">
        <time>2022-07-05T10:24:17Z</time>
      </trkpt>
      <trkpt lat="42.42465" lon="-0.7952985">
        <time>2022-07-05T10:24:18Z</time>
      </trkpt>
      <trkpt lat="42.42463" lon="-0.79523116">
        <time>2022-07-05T10:24:19Z</time>
      </trkpt>
      <trkpt lat="42.424606" lon="-0.79516953">
        <time>2022-07-05T10:24:20Z</time>
      </trkpt>
      <trkpt lat="42.424583" lon="-0.79511416">
        <time>2022-07-05T10:24:21Z</time>
      </trkpt>
      <trkpt lat="42.42453" lon="-0.7950222">
        <time>2022-07-05T10:24:23Z</time>
      </trkpt>
      <trkpt lat="42.42447" lon="-0.79494315">
        <time>2022-07-05T10:24:25Z</time>
      </trkpt>
      <trkpt lat="42.424408" lon="-0.7948772">
        <time>2022-07-05T10:24:27Z</time>
      </trkpt>
      <trkpt lat="42.424343" lon="-0.7948192">
        <time>2022-07-05T10:24:29Z</time>
      </trkpt>
      <trkpt lat="42.424274" lon="-0.7947645">
        <time>2022-07-05T10:24:31Z</time>
      </trkpt>
      <trkpt lat="42.42421" lon="-0.79470986">
        <time>2022-07-05T10:24:33Z</time>
      </trkpt>
      <trkpt lat="42.42414" lon="-0.7946562">
        <time>2022-07-05T10:24:35Z</time>
      </trkpt>
      <trkpt lat="42.42407" lon="-0.7946025">
        <time>2022-07-05T10:24:37Z</time>
      </trkpt>
      <trkpt lat="42.423992" lon="-0.79454786">
        <time>2022-07-05T10:24:39Z</time>
      </trkpt>
      <trkpt lat="42.423912" lon="-0.79448456">
        <time>2022-07-05T10:24:41Z</time>
      </trkpt>
      <trkpt lat="42.423866" lon="-0.7944505">
        <time>2022-07-05T10:24:42Z</time>
      </trkpt>
      <trkpt lat="42.423775" lon="-0.7943809">
        <time>2022-07-05T10:24:44Z</time>
      </trkpt>
      <trkpt lat="42.423717" lon="-0.79434425">
        <time>2022-07-05T10:24:45Z</time>
      </trkpt>
      <trkpt lat="42.42366" lon="-0.79431057">
        <time>2022-07-05T10:24:46Z</time>
      </trkpt>
      <trkpt lat="42.423607" lon="-0.79428124">
        <time>2022-07-05T10:24:47Z</time>
      </trkpt>
      <trkpt lat="42.42355" lon="-0.79425555">
        <time>2022-07-05T10:24:48Z</time>
      </trkpt>
      <trkpt lat="42.423485" lon="-0.7942352">
        <time>2022-07-05T10:24:49Z</time>
      </trkpt>
      <trkpt lat="42.42342" lon="-0.79421794">
        <time>2022-07-05T10:24:50Z</time>
      </trkpt>
      <trkpt lat="42.42335" lon="-0.7942033">
        <time>2022-07-05T10:24:51Z</time>
      </trkpt>
      <trkpt lat="42.42328" lon="-0.79419124">
        <time>2022-07-05T10:24:52Z</time>
      </trkpt>
      <trkpt lat="42.423203" lon="-0.7941803">
        <time>2022-07-05T10:24:53Z</time>
      </trkpt>
      <trkpt lat="42.423122" lon="-0.7941709">
        <time>2022-07-05T10:24:54Z</time>
      </trkpt>
      <trkpt lat="42.42304" lon="-0.79415894">
        <time>2022-07-05T10:24:55Z</time>
      </trkpt>
      <trkpt lat="42.422955" lon="-0.7941439">
        <time>2022-07-05T10:24:56Z</time>
      </trkpt>
      <trkpt lat="42.42287" lon="-0.79412526">
        <time>2022-07-05T10:24:57Z</time>
      </trkpt>
      <trkpt lat="42.42279" lon="-0.7941003">
        <time>2022-07-05T10:24:58Z</time>
      </trkpt>
      <trkpt lat="42.422714" lon="-0.7940696">
        <time>2022-07-05T10:24:59Z</time>
      </trkpt>
      <trkpt lat="42.422638" lon="-0.7940336">
        <time>2022-07-05T10:25:00Z</time>
      </trkpt>
      <trkpt lat="42.422565" lon="-0.7939946">
        <time>2022-07-05T10:25:01Z</time>
      </trkpt>
      <trkpt lat="42.422493" lon="-0.7939526">
        <time>2022-07-05T10:25:02Z</time>
      </trkpt>
      <trkpt lat="42.422424" lon="-0.79390895">
        <time>2022-07-05T10:25:03Z</time>
      </trkpt>
      <trkpt lat="42.42236" lon="-0.7938646">
        <time>2022-07-05T10:25:04Z</time>
      </trkpt>
      <trkpt lat="42.4223" lon="-0.793821">
        <time>2022-07-05T10:25:05Z</time>
      </trkpt>
      <trkpt lat="42.42224" lon="-0.79377794">
        <time>2022-07-05T10:25:06Z</time>
      </trkpt>
      <trkpt lat="42.42218" lon="-0.79373693">
        <time>2022-07-05T10:25:07Z</time>
      </trkpt>
      <trkpt lat="42.422123" lon="-0.7936996">
        <time>2022-07-05T10:25:08Z</time>
      </trkpt>
      <trkpt lat="42.422066" lon="-0.79366595">
        <time>2022-07-05T10:25:09Z</time>
      </trkpt>
      <trkpt lat="42.422012" lon="-0.79363495">
        <time>2022-07-05T10:25:10Z</time>
      </trkpt>
      <trkpt lat="42.42196" lon="-0.7936046">
        <time>2022-07-05T10:25:11Z</time>
      </trkpt>
      <trkpt lat="42.421906" lon="-0.793576">
        <time>2022-07-05T10:25:12Z</time>
      </trkpt>
      <trkpt lat="42.421852" lon="-0.79354835">
        <time>2022-07-05T10:25:13Z</time>
      </trkpt>
      <trkpt lat="42.421803" lon="-0.793522">
        <time>2022-07-05T10:25:14Z</time>
      </trkpt>
      <trkpt lat="42.421753" lon="-0.7934973">
        <time>2022-07-05T10:25:15Z</time>
      </trkpt>
      <trkpt lat="42.4217" lon="-0.793473">
        <time>2022-07-05T10:25:16Z</time>
      </trkpt>
      <trkpt lat="42.421646" lon="-0.793448">
        <time>2022-07-05T10:25:17Z</time>
      </trkpt>
      <trkpt lat="42.421597" lon="-0.7934227">
        <time>2022-07-05T10:25:18Z</time>
      </trkpt>
      <trkpt lat="42.421547" lon="-0.79339767">
        <time>2022-07-05T10:25:19Z</time>
      </trkpt>
      <trkpt lat="42.421494" lon="-0.79337233">
        <time>2022-07-05T10:25:20Z</time>
      </trkpt>
      <trkpt lat="42.42144" lon="-0.79334635">
        <time>2022-07-05T10:25:21Z</time>
      </trkpt>
      <trkpt lat="42.421383" lon="-0.79332066">
        <time>2022-07-05T10:25:22Z</time>
      </trkpt>
      <trkpt lat="42.421326" lon="-0.793297">
        <time>2022-07-05T10:25:23Z</time>
      </trkpt>
      <trkpt lat="42.42127" lon="-0.793277">
        <time>2022-07-05T10:25:24Z</time>
      </trkpt>
      <trkpt lat="42.42121" lon="-0.7932607">
        <time>2022-07-05T10:25:25Z</time>
      </trkpt>
      <trkpt lat="42.42115" lon="-0.79324603">
        <time>2022-07-05T10:25:26Z</time>
      </trkpt>
      <trkpt lat="42.421085" lon="-0.7932327">
        <time>2022-07-05T10:25:27Z</time>
      </trkpt>
      <trkpt lat="42.42102" lon="-0.7932207">
        <time>2022-07-05T10:25:28Z</time>
      </trkpt>
      <trkpt lat="42.42095" lon="-0.7932097">
        <time>2022-07-05T10:25:29Z</time>
      </trkpt>
      <trkpt lat="42.42088" lon="-0.79319805">
        <time>2022-07-05T10:25:30Z</time>
      </trkpt>
      <trkpt lat="42.42073" lon="-0.7931744">
        <time>2022-07-05T10:25:32Z</time>
      </trkpt>
      <trkpt lat="42.420654" lon="-0.7931624">
        <time>2022-07-05T10:25:33Z</time>
      </trkpt>
      <trkpt lat="42.42057" lon="-0.79315007">
        <time>2022-07-05T10:25:34Z</time>
      </trkpt>
      <trkpt lat="42.420494" lon="-0.793138">
        <time>2022-07-05T10:25:35Z</time>
      </trkpt>
      <trkpt lat="42.42041" lon="-0.79312605">
        <time>2022-07-05T10:25:36Z</time>
      </trkpt>
      <trkpt lat="42.420338" lon="-0.7931127">
        <time>2022-07-05T10:25:37Z</time>
      </trkpt>
      <trkpt lat="42.420265" lon="-0.79309404">
        <time>2022-07-05T10:25:38Z</time>
      </trkpt>
      <trkpt lat="42.420193" lon="-0.7930687">
        <time>2022-07-05T10:25:39Z</time>
      </trkpt>
      <trkpt lat="42.420128" lon="-0.79303676">
        <time>2022-07-05T10:25:40Z</time>
      </trkpt>
      <trkpt lat="42.420067" lon="-0.7929974">
        <time>2022-07-05T10:25:41Z</time>
      </trkpt>
      <trkpt lat="42.420013" lon="-0.79295075">
        <time>2022-07-05T10:25:42Z</time>
      </trkpt>
      <trkpt lat="42.41997" lon="-0.79289675">
        <time>2022-07-05T10:25:43Z</time>
      </trkpt>
      <trkpt lat="42.419933" lon="-0.7928371">
        <time>2022-07-05T10:25:44Z</time>
      </trkpt>
      <trkpt lat="42.419903" lon="-0.7927737">
        <time>2022-07-05T10:25:45Z</time>
      </trkpt>
      <trkpt lat="42.41988" lon="-0.7927084">
        <time>2022-07-05T10:25:46Z</time>
      </trkpt>
      <trkpt lat="42.41986" lon="-0.79264706">
        <time>2022-07-05T10:25:47Z</time>
      </trkpt>
      <trkpt lat="42.419827" lon="-0.7925121">
        <time>2022-07-05T10:25:49Z</time>
      </trkpt>
      <trkpt lat="42.41981" lon="-0.79244345">
        <time>2022-07-05T10:25:50Z</time>
      </trkpt>
      <trkpt lat="42.4198" lon="-0.7923741">
        <time>2022-07-05T10:25:51Z</time>
      </trkpt>
      <trkpt lat="42.419785" lon="-0.7923028">
        <time>2022-07-05T10:25:52Z</time>
      </trkpt>
      <trkpt lat="42.419777" lon="-0.7922298">
        <time>2022-07-05T10:25:53Z</time>
      </trkpt>
      <trkpt lat="42.419765" lon="-0.79215443">
        <time>2022-07-05T10:25:54Z</time>
      </trkpt>
      <trkpt lat="42.419758" lon="-0.7920824">
        <time>2022-07-05T10:25:55Z</time>
      </trkpt>
      <trkpt lat="42.41975" lon="-0.7920018">
        <time>2022-07-05T10:25:56Z</time>
      </trkpt>
      <trkpt lat="42.41974" lon="-0.79191977">
        <time>2022-07-05T10:25:57Z</time>
      </trkpt>
      <trkpt lat="42.419727" lon="-0.7918368">
        <time>2022-07-05T10:25:58Z</time>
      </trkpt>
      <trkpt lat="42.41972" lon="-0.79175246">
        <time>2022-07-05T10:25:59Z</time>
      </trkpt>
      <trkpt lat="42.41971" lon="-0.79166645">
        <time>2022-07-05T10:26:00Z</time>
      </trkpt>
      <trkpt lat="42.4197" lon="-0.7915781">
        <time>2022-07-05T10:26:01Z</time>
      </trkpt>
      <trkpt lat="42.419693" lon="-0.7914868">
        <time>2022-07-05T10:26:02Z</time>
      </trkpt>
      <trkpt lat="42.41968" lon="-0.7913931">
        <time>2022-07-05T10:26:03Z</time>
      </trkpt>
      <trkpt lat="42.419674" lon="-0.7913041">
        <time>2022-07-05T10:26:04Z</time>
      </trkpt>
      <trkpt lat="42.419666" lon="-0.7912128">
        <time>2022-07-05T10:26:05Z</time>
      </trkpt>
      <trkpt lat="42.419655" lon="-0.79111946">
        <time>2022-07-05T10:26:06Z</time>
      </trkpt>
      <trkpt lat="42.419643" lon="-0.79102445">
        <time>2022-07-05T10:26:07Z</time>
      </trkpt>
      <trkpt lat="42.419632" lon="-0.7909278">
        <time>2022-07-05T10:26:08Z</time>
      </trkpt>
      <trkpt lat="42.41962" lon="-0.79081815">
        <time>2022-07-05T10:26:09Z</time>
      </trkpt>
      <trkpt lat="42.419613" lon="-0.7907248">
        <time>2022-07-05T10:26:10Z</time>
      </trkpt>
      <trkpt lat="42.419605" lon="-0.7906288">
        <time>2022-07-05T10:26:11Z</time>
      </trkpt>
      <trkpt lat="42.419598" lon="-0.79052746">
        <time>2022-07-05T10:26:12Z</time>
      </trkpt>
      <trkpt lat="42.419586" lon="-0.7904278">
        <time>2022-07-05T10:26:13Z</time>
      </trkpt>
      <trkpt lat="42.41957" lon="-0.7903295">
        <time>2022-07-05T10:26:14Z</time>
      </trkpt>
      <trkpt lat="42.41956" lon="-0.79023415">
        <time>2022-07-05T10:26:15Z</time>
      </trkpt>
      <trkpt lat="42.419544" lon="-0.7901382">
        <time>2022-07-05T10:26:16Z</time>
      </trkpt>
      <trkpt lat="42.419533" lon="-0.79004383">
        <time>2022-07-05T10:26:17Z</time>
      </trkpt>
      <trkpt lat="42.41952" lon="-0.7899485">
        <time>2022-07-05T10:26:18Z</time>
      </trkpt>
      <trkpt lat="42.41951" lon="-0.7898545">
        <time>2022-07-05T10:26:19Z</time>
      </trkpt>
      <trkpt lat="42.4195" lon="-0.78976053">
        <time>2022-07-05T10:26:20Z</time>
      </trkpt>
      <trkpt lat="42.419487" lon="-0.78966683">
        <time>2022-07-05T10:26:21Z</time>
      </trkpt>
      <trkpt lat="42.419476" lon="-0.7895735">
        <time>2022-07-05T10:26:22Z</time>
      </trkpt>
      <trkpt lat="42.419468" lon="-0.7894822">
        <time>2022-07-05T10:26:23Z</time>
      </trkpt>
      <trkpt lat="42.419456" lon="-0.78939086">
        <time>2022-07-05T10:26:24Z</time>
      </trkpt>
      <trkpt lat="42.41945" lon="-0.78929853">
        <time>2022-07-05T10:26:25Z</time>
      </trkpt>
      <trkpt lat="42.41944" lon="-0.78920853">
        <time>2022-07-05T10:26:26Z</time>
      </trkpt>
      <trkpt lat="42.41943" lon="-0.78912055">
        <time>2022-07-05T10:26:27Z</time>
      </trkpt>
      <trkpt lat="42.419422" lon="-0.78903186">
        <time>2022-07-05T10:26:28Z</time>
      </trkpt>
      <trkpt lat="42.41941" lon="-0.7889422">
        <time>2022-07-05T10:26:29Z</time>
      </trkpt>
      <trkpt lat="42.4194" lon="-0.78885186">
        <time>2022-07-05T10:26:30Z</time>
      </trkpt>
      <trkpt lat="42.41939" lon="-0.78876054">
        <time>2022-07-05T10:26:31Z</time>
      </trkpt>
      <trkpt lat="42.41938" lon="-0.7886695">
        <time>2022-07-05T10:26:32Z</time>
      </trkpt>
      <trkpt lat="42.41936" lon="-0.7884849">
        <time>2022-07-05T10:26:34Z</time>
      </trkpt>
      <trkpt lat="42.419357" lon="-0.78839254">
        <time>2022-07-05T10:26:35Z</time>
      </trkpt>
      <trkpt lat="42.41935" lon="-0.78830224">
        <time>2022-07-05T10:26:36Z</time>
      </trkpt>
      <trkpt lat="42.41935" lon="-0.78821224">
        <time>2022-07-05T10:26:37Z</time>
      </trkpt>
      <trkpt lat="42.41935" lon="-0.7881242">
        <time>2022-07-05T10:26:38Z</time>
      </trkpt>
      <trkpt lat="42.41935" lon="-0.78803855">
        <time>2022-07-05T10:26:39Z</time>
      </trkpt>
      <trkpt lat="42.419357" lon="-0.7879549">
        <time>2022-07-05T10:26:40Z</time>
      </trkpt>
      <trkpt lat="42.41936" lon="-0.7878742">
        <time>2022-07-05T10:26:41Z</time>
      </trkpt>
      <trkpt lat="42.419365" lon="-0.7877956">
        <time>2022-07-05T10:26:42Z</time>
      </trkpt>
      <trkpt lat="42.41937" lon="-0.78772026">
        <time>2022-07-05T10:26:43Z</time>
      </trkpt>
      <trkpt lat="42.419373" lon="-0.78764695">
        <time>2022-07-05T10:26:44Z</time>
      </trkpt>
      <trkpt lat="42.419373" lon="-0.7875773">
        <time>2022-07-05T10:26:45Z</time>
      </trkpt>
      <trkpt lat="42.419365" lon="-0.7874516">
        <time>2022-07-05T10:26:47Z</time>
      </trkpt>
      <trkpt lat="42.41935" lon="-0.787335">
        <time>2022-07-05T10:26:49Z</time>
      </trkpt>
      <trkpt lat="42.41932" lon="-0.7872253">
        <time>2022-07-05T10:26:51Z</time>
      </trkpt>
      <trkpt lat="42.419277" lon="-0.7871343">
        <time>2022-07-05T10:26:53Z</time>
      </trkpt>
      <trkpt lat="42.419228" lon="-0.787057">
        <time>2022-07-05T10:26:55Z</time>
      </trkpt>
      <trkpt lat="42.419167" lon="-0.78698665">
        <time>2022-07-05T10:26:57Z</time>
      </trkpt>
      <trkpt lat="42.4191" lon="-0.7869263">
        <time>2022-07-05T10:26:59Z</time>
      </trkpt>
      <trkpt lat="42.419037" lon="-0.78687865">
        <time>2022-07-05T10:27:01Z</time>
      </trkpt>
      <trkpt lat="42.418972" lon="-0.78684264">
        <time>2022-07-05T10:27:03Z</time>
      </trkpt>
      <trkpt lat="42.418907" lon="-0.786814">
        <time>2022-07-05T10:27:05Z</time>
      </trkpt>
      <trkpt lat="42.418846" lon="-0.7867867">
        <time>2022-07-05T10:27:07Z</time>
      </trkpt>
      <trkpt lat="42.41879" lon="-0.7867593">
        <time>2022-07-05T10:27:09Z</time>
      </trkpt>
      <trkpt lat="42.418728" lon="-0.7867327">
        <time>2022-07-05T10:27:11Z</time>
      </trkpt>
      <trkpt lat="42.41867" lon="-0.7867053">
        <time>2022-07-05T10:27:13Z</time>
      </trkpt>
      <trkpt lat="42.418613" lon="-0.78668">
        <time>2022-07-05T10:27:15Z</time>
      </trkpt>
      <trkpt lat="42.41855" lon="-0.78665966">
        <time>2022-07-05T10:27:17Z</time>
      </trkpt>
      <trkpt lat="42.41848" lon="-0.786638">
        <time>2022-07-05T10:27:19Z</time>
      </trkpt>
      <trkpt lat="42.418404" lon="-0.78661">
        <time>2022-07-05T10:27:21Z</time>
      </trkpt>
      <trkpt lat="42.41832" lon="-0.78657466">
        <time>2022-07-05T10:27:23Z</time>
      </trkpt>
      <trkpt lat="42.418232" lon="-0.78653604">
        <time>2022-07-05T10:27:25Z</time>
      </trkpt>
      <trkpt lat="42.418182" lon="-0.78651434">
        <time>2022-07-05T10:27:26Z</time>
      </trkpt>
      <trkpt lat="42.418083" lon="-0.7864687">
        <time>2022-07-05T10:27:28Z</time>
      </trkpt>
      <trkpt lat="42.418034" lon="-0.7864464">
        <time>2022-07-05T10:27:29Z</time>
      </trkpt>
      <trkpt lat="42.41798" lon="-0.78642404">
        <time>2022-07-05T10:27:30Z</time>
      </trkpt>
      <trkpt lat="42.417927" lon="-0.78640103">
        <time>2022-07-05T10:27:31Z</time>
      </trkpt>
      <trkpt lat="42.417873" lon="-0.7863757">
        <time>2022-07-05T10:27:32Z</time>
      </trkpt>
      <trkpt lat="42.417816" lon="-0.78635037">
        <time>2022-07-05T10:27:33Z</time>
      </trkpt>
      <trkpt lat="42.41776" lon="-0.7863267">
        <time>2022-07-05T10:27:34Z</time>
      </trkpt>
      <trkpt lat="42.4177" lon="-0.7863044">
        <time>2022-07-05T10:27:35Z</time>
      </trkpt>
      <trkpt lat="42.41764" lon="-0.78628236">
        <time>2022-07-05T10:27:36Z</time>
      </trkpt>
      <trkpt lat="42.41752" lon="-0.7862444">
        <time>2022-07-05T10:27:38Z</time>
      </trkpt>
      <trkpt lat="42.417454" lon="-0.78623104">
        <time>2022-07-05T10:27:39Z</time>
      </trkpt>
      <trkpt lat="42.41739" lon="-0.7862204">
        <time>2022-07-05T10:27:40Z</time>
      </trkpt>
      <trkpt lat="42.417324" lon="-0.7862111">
        <time>2022-07-05T10:27:41Z</time>
      </trkpt>
      <trkpt lat="42.417263" lon="-0.7862027">
        <time>2022-07-05T10:27:42Z</time>
      </trkpt>
      <trkpt lat="42.4172" lon="-0.7861954">
        <time>2022-07-05T10:27:43Z</time>
      </trkpt>
      <trkpt lat="42.417137" lon="-0.78618944">
        <time>2022-07-05T10:27:44Z</time>
      </trkpt>
      <trkpt lat="42.417072" lon="-0.78618574">
        <time>2022-07-05T10:27:45Z</time>
      </trkpt>
      <trkpt lat="42.41701" lon="-0.78618443">
        <time>2022-07-05T10:27:46Z</time>
      </trkpt>
      <trkpt lat="42.416954" lon="-0.7861838">
        <time>2022-07-05T10:27:47Z</time>
      </trkpt>
      <trkpt lat="42.416897" lon="-0.78618145">
        <time>2022-07-05T10:27:48Z</time>
      </trkpt>
      <trkpt lat="42.416843" lon="-0.78617877">
        <time>2022-07-05T10:27:49Z</time>
      </trkpt>
      <trkpt lat="42.41679" lon="-0.78617674">
        <time>2022-07-05T10:27:50Z</time>
      </trkpt>
      <trkpt lat="42.416737" lon="-0.7861741">
        <time>2022-07-05T10:27:51Z</time>
      </trkpt>
      <trkpt lat="42.416683" lon="-0.7861728">
        <time>2022-07-05T10:27:52Z</time>
      </trkpt>
      <trkpt lat="42.41663" lon="-0.7861741">
        <time>2022-07-05T10:27:53Z</time>
      </trkpt>
      <trkpt lat="42.41653" lon="-0.7861848">
        <time>2022-07-05T10:27:55Z</time>
      </trkpt>
      <trkpt lat="42.41648" lon="-0.78619343">
        <time>2022-07-05T10:27:56Z</time>
      </trkpt>
      <trkpt lat="42.41639" lon="-0.7862194">
        <time>2022-07-05T10:27:58Z</time>
      </trkpt>
      <trkpt lat="42.416298" lon="-0.7862598">
        <time>2022-07-05T10:28:00Z</time>
      </trkpt>
      <trkpt lat="42.416206" lon="-0.7863081">
        <time>2022-07-05T10:28:02Z</time>
      </trkpt>
      <trkpt lat="42.41616" lon="-0.7863318">
        <time>2022-07-05T10:28:03Z</time>
      </trkpt>
      <trkpt lat="42.416065" lon="-0.78637874">
        <time>2022-07-05T10:28:05Z</time>
      </trkpt>
      <trkpt lat="42.41602" lon="-0.7864021">
        <time>2022-07-05T10:28:06Z</time>
      </trkpt>
      <trkpt lat="42.415924" lon="-0.78644544">
        <time>2022-07-05T10:28:08Z</time>
      </trkpt>
      <trkpt lat="42.415833" lon="-0.7864861">
        <time>2022-07-05T10:28:10Z</time>
      </trkpt>
      <trkpt lat="42.41574" lon="-0.7865181">
        <time>2022-07-05T10:28:12Z</time>
      </trkpt>
      <trkpt lat="42.415695" lon="-0.78653073">
        <time>2022-07-05T10:28:13Z</time>
      </trkpt>
      <trkpt lat="42.415592" lon="-0.7865504">
        <time>2022-07-05T10:28:15Z</time>
      </trkpt>
      <trkpt lat="42.41554" lon="-0.7865574">
        <time>2022-07-05T10:28:16Z</time>
      </trkpt>
      <trkpt lat="42.41549" lon="-0.7865634">
        <time>2022-07-05T10:28:17Z</time>
      </trkpt>
      <trkpt lat="42.415432" lon="-0.78656775">
        <time>2022-07-05T10:28:18Z</time>
      </trkpt>
      <trkpt lat="42.415375" lon="-0.7865714">
        <time>2022-07-05T10:28:19Z</time>
      </trkpt>
      <trkpt lat="42.415314" lon="-0.78657305">
        <time>2022-07-05T10:28:20Z</time>
      </trkpt>
      <trkpt lat="42.415253" lon="-0.78657603">
        <time>2022-07-05T10:28:21Z</time>
      </trkpt>
      <trkpt lat="42.415188" lon="-0.78657836">
        <time>2022-07-05T10:28:22Z</time>
      </trkpt>
      <trkpt lat="42.41513" lon="-0.78658">
        <time>2022-07-05T10:28:23Z</time>
      </trkpt>
      <trkpt lat="42.41507" lon="-0.7865817">
        <time>2022-07-05T10:28:24Z</time>
      </trkpt>
      <trkpt lat="42.415" lon="-0.78658235">
        <time>2022-07-05T10:28:25Z</time>
      </trkpt>
      <trkpt lat="42.414932" lon="-0.78658366">
        <time>2022-07-05T10:28:26Z</time>
      </trkpt>
      <trkpt lat="42.414867" lon="-0.78658533">
        <time>2022-07-05T10:28:27Z</time>
      </trkpt>
      <trkpt lat="42.414803" lon="-0.78658634">
        <time>2022-07-05T10:28:28Z</time>
      </trkpt>
      <trkpt lat="42.414738" lon="-0.78658766">
        <time>2022-07-05T10:28:29Z</time>
      </trkpt>
      <trkpt lat="42.41467" lon="-0.786589">
        <time>2022-07-05T10:28:30Z</time>
      </trkpt>
      <trkpt lat="42.414597" lon="-0.78659165">
        <time>2022-07-05T10:28:31Z</time>
      </trkpt>
      <trkpt lat="42.414528" lon="-0.78659534">
        <time>2022-07-05T10:28:32Z</time>
      </trkpt>
      <trkpt lat="42.41446" lon="-0.786601">
        <time>2022-07-05T10:28:33Z</time>
      </trkpt>
      <trkpt lat="42.414383" lon="-0.78660595">
        <time>2022-07-05T10:28:34Z</time>
      </trkpt>
      <trkpt lat="42.414307" lon="-0.7866113">
        <time>2022-07-05T10:28:35Z</time>
      </trkpt>
      <trkpt lat="42.414238" lon="-0.7866163">
        <time>2022-07-05T10:28:36Z</time>
      </trkpt>
      <trkpt lat="42.41417" lon="-0.78662133">
        <time>2022-07-05T10:28:37Z</time>
      </trkpt>
      <trkpt lat="42.4141" lon="-0.7866233">
        <time>2022-07-05T10:28:38Z</time>
      </trkpt>
      <trkpt lat="42.414032" lon="-0.7866233">
        <time>2022-07-05T10:28:39Z</time>
      </trkpt>
      <trkpt lat="42.413902" lon="-0.786626">
        <time>2022-07-05T10:28:41Z</time>
      </trkpt>
      <trkpt lat="42.413834" lon="-0.78662896">
        <time>2022-07-05T10:28:42Z</time>
      </trkpt>
      <trkpt lat="42.41377" lon="-0.78663266">
        <time>2022-07-05T10:28:43Z</time>
      </trkpt>
      <trkpt lat="42.413704" lon="-0.78663665">
        <time>2022-07-05T10:28:44Z</time>
      </trkpt>
      <trkpt lat="42.41364" lon="-0.78664094">
        <time>2022-07-05T10:28:45Z</time>
      </trkpt>
      <trkpt lat="42.413574" lon="-0.78664464">
        <time>2022-07-05T10:28:46Z</time>
      </trkpt>
      <trkpt lat="42.413513" lon="-0.7866493">
        <time>2022-07-05T10:28:47Z</time>
      </trkpt>
      <trkpt lat="42.41345" lon="-0.7866556">
        <time>2022-07-05T10:28:48Z</time>
      </trkpt>
      <trkpt lat="42.413387" lon="-0.78666294">
        <time>2022-07-05T10:28:49Z</time>
      </trkpt>
      <trkpt lat="42.413326" lon="-0.78667194">
        <time>2022-07-05T10:28:50Z</time>
      </trkpt>
      <trkpt lat="42.413265" lon="-0.78668225">
        <time>2022-07-05T10:28:51Z</time>
      </trkpt>
      <trkpt lat="42.413208" lon="-0.7866926">
        <time>2022-07-05T10:28:52Z</time>
      </trkpt>
      <trkpt lat="42.413147" lon="-0.7867026">
        <time>2022-07-05T10:28:53Z</time>
      </trkpt>
      <trkpt lat="42.41309" lon="-0.78671324">
        <time>2022-07-05T10:28:54Z</time>
      </trkpt>
      <trkpt lat="42.413033" lon="-0.78672326">
        <time>2022-07-05T10:28:55Z</time>
      </trkpt>
      <trkpt lat="42.41297" lon="-0.78673357">
        <time>2022-07-05T10:28:56Z</time>
      </trkpt>
      <trkpt lat="42.412918" lon="-0.78674394">
        <time>2022-07-05T10:28:57Z</time>
      </trkpt>
      <trkpt lat="42.41286" lon="-0.7867563">
        <time>2022-07-05T10:28:58Z</time>
      </trkpt>
      <trkpt lat="42.412804" lon="-0.78677124">
        <time>2022-07-05T10:28:59Z</time>
      </trkpt>
      <trkpt lat="42.412746" lon="-0.7867899">
        <time>2022-07-05T10:29:00Z</time>
      </trkpt>
      <trkpt lat="42.412693" lon="-0.7868129">
        <time>2022-07-05T10:29:01Z</time>
      </trkpt>
      <trkpt lat="42.412636" lon="-0.78683925">
        <time>2022-07-05T10:29:02Z</time>
      </trkpt>
      <trkpt lat="42.412582" lon="-0.78686756">
        <time>2022-07-05T10:29:03Z</time>
      </trkpt>
      <trkpt lat="42.41253" lon="-0.7868966">
        <time>2022-07-05T10:29:04Z</time>
      </trkpt>
      <trkpt lat="42.41248" lon="-0.7869279">
        <time>2022-07-05T10:29:05Z</time>
      </trkpt>
      <trkpt lat="42.412426" lon="-0.78696126">
        <time>2022-07-05T10:29:06Z</time>
      </trkpt>
      <trkpt lat="42.412376" lon="-0.78699756">
        <time>2022-07-05T10:29:07Z</time>
      </trkpt>
      <trkpt lat="42.412323" lon="-0.78703487">
        <time>2022-07-05T10:29:08Z</time>
      </trkpt>
      <trkpt lat="42.412273" lon="-0.7870729">
        <time>2022-07-05T10:29:09Z</time>
      </trkpt>
      <trkpt lat="42.412224" lon="-0.78711057">
        <time>2022-07-05T10:29:10Z</time>
      </trkpt>
      <trkpt lat="42.412174" lon="-0.7871492">
        <time>2022-07-05T10:29:11Z</time>
      </trkpt>
      <trkpt lat="42.412125" lon="-0.78718823">
        <time>2022-07-05T10:29:12Z</time>
      </trkpt>
      <trkpt lat="42.412075" lon="-0.7872275">
        <time>2022-07-05T10:29:13Z</time>
      </trkpt>
      <trkpt lat="42.412025" lon="-0.7872672">
        <time>2022-07-05T10:29:14Z</time>
      </trkpt>
      <trkpt lat="42.411976" lon="-0.7873075">
        <time>2022-07-05T10:29:15Z</time>
      </trkpt>
      <trkpt lat="42.411926" lon="-0.7873472">
        <time>2022-07-05T10:29:16Z</time>
      </trkpt>
      <trkpt lat="42.411873" lon="-0.7873862">
        <time>2022-07-05T10:29:17Z</time>
      </trkpt>
      <trkpt lat="42.41182" lon="-0.7874259">
        <time>2022-07-05T10:29:18Z</time>
      </trkpt>
      <trkpt lat="42.41177" lon="-0.7874655">
        <time>2022-07-05T10:29:19Z</time>
      </trkpt>
      <trkpt lat="42.411716" lon="-0.78750515">
        <time>2022-07-05T10:29:20Z</time>
      </trkpt>
      <trkpt lat="42.411663" lon="-0.78754514">
        <time>2022-07-05T10:29:21Z</time>
      </trkpt>
      <trkpt lat="42.41161" lon="-0.7875845">
        <time>2022-07-05T10:29:22Z</time>
      </trkpt>
      <trkpt lat="42.411552" lon="-0.7876235">
        <time>2022-07-05T10:29:23Z</time>
      </trkpt>
      <trkpt lat="42.4115" lon="-0.78766316">
        <time>2022-07-05T10:29:24Z</time>
      </trkpt>
      <trkpt lat="42.411446" lon="-0.7877038">
        <time>2022-07-05T10:29:25Z</time>
      </trkpt>
      <trkpt lat="42.41139" lon="-0.78774416">
        <time>2022-07-05T10:29:26Z</time>
      </trkpt>
      <trkpt lat="42.411335" lon="-0.7877848">
        <time>2022-07-05T10:29:27Z</time>
      </trkpt>
      <trkpt lat="42.41128" lon="-0.7878248">
        <time>2022-07-05T10:29:28Z</time>
      </trkpt>
      <trkpt lat="42.41123" lon="-0.7878625">
        <time>2022-07-05T10:29:29Z</time>
      </trkpt>
      <trkpt lat="42.411167" lon="-0.78790146">
        <time>2022-07-05T10:29:30Z</time>
      </trkpt>
      <trkpt lat="42.411114" lon="-0.78793645">
        <time>2022-07-05T10:29:31Z</time>
      </trkpt>
      <trkpt lat="42.411064" lon="-0.7879715">
        <time>2022-07-05T10:29:32Z</time>
      </trkpt>
      <trkpt lat="42.41101" lon="-0.7880061">
        <time>2022-07-05T10:29:33Z</time>
      </trkpt>
      <trkpt lat="42.410957" lon="-0.7880401">
        <time>2022-07-05T10:29:34Z</time>
      </trkpt>
      <trkpt lat="42.410908" lon="-0.7880735">
        <time>2022-07-05T10:29:35Z</time>
      </trkpt>
      <trkpt lat="42.41086" lon="-0.78810614">
        <time>2022-07-05T10:29:36Z</time>
      </trkpt>
      <trkpt lat="42.41081" lon="-0.78813845">
        <time>2022-07-05T10:29:37Z</time>
      </trkpt>
      <trkpt lat="42.41076" lon="-0.7881711">
        <time>2022-07-05T10:29:38Z</time>
      </trkpt>
      <trkpt lat="42.41071" lon="-0.78820413">
        <time>2022-07-05T10:29:39Z</time>
      </trkpt>
      <trkpt lat="42.41066" lon="-0.78823775">
        <time>2022-07-05T10:29:40Z</time>
      </trkpt>
      <trkpt lat="42.41061" lon="-0.7882718">
        <time>2022-07-05T10:29:41Z</time>
      </trkpt>
      <trkpt lat="42.410503" lon="-0.78834176">
        <time>2022-07-05T10:29:43Z</time>
      </trkpt>
      <trkpt lat="42.41045" lon="-0.7883771">
        <time>2022-07-05T10:29:44Z</time>
      </trkpt>
      <trkpt lat="42.410393" lon="-0.78841245">
        <time>2022-07-05T10:29:45Z</time>
      </trkpt>
      <trkpt lat="42.410336" lon="-0.78844774">
        <time>2022-07-05T10:29:46Z</time>
      </trkpt>
      <trkpt lat="42.410275" lon="-0.7884828">
        <time>2022-07-05T10:29:47Z</time>
      </trkpt>
      <trkpt lat="42.41021" lon="-0.7885184">
        <time>2022-07-05T10:29:48Z</time>
      </trkpt>
      <trkpt lat="42.41015" lon="-0.78854907">
        <time>2022-07-05T10:29:49Z</time>
      </trkpt>
      <trkpt lat="42.410088" lon="-0.78857607">
        <time>2022-07-05T10:29:50Z</time>
      </trkpt>
      <trkpt lat="42.410023" lon="-0.7885987">
        <time>2022-07-05T10:29:51Z</time>
      </trkpt>
      <trkpt lat="42.409958" lon="-0.7886154">
        <time>2022-07-05T10:29:52Z</time>
      </trkpt>
      <trkpt lat="42.409893" lon="-0.7886257">
        <time>2022-07-05T10:29:53Z</time>
      </trkpt>
      <trkpt lat="42.40982" lon="-0.78862804">
        <time>2022-07-05T10:29:54Z</time>
      </trkpt>
      <trkpt lat="42.40976" lon="-0.7886247">
        <time>2022-07-05T10:29:55Z</time>
      </trkpt>
      <trkpt lat="42.409695" lon="-0.7886144">
        <time>2022-07-05T10:29:56Z</time>
      </trkpt>
      <trkpt lat="42.40963" lon="-0.7885961">
        <time>2022-07-05T10:29:57Z</time>
      </trkpt>
      <trkpt lat="42.409565" lon="-0.7885694">
        <time>2022-07-05T10:29:58Z</time>
      </trkpt>
      <trkpt lat="42.4095" lon="-0.7885331">
        <time>2022-07-05T10:29:59Z</time>
      </trkpt>
      <trkpt lat="42.40944" lon="-0.78848773">
        <time>2022-07-05T10:30:00Z</time>
      </trkpt>
      <trkpt lat="42.409378" lon="-0.7884331">
        <time>2022-07-05T10:30:01Z</time>
      </trkpt>
      <trkpt lat="42.40932" lon="-0.7883698">
        <time>2022-07-05T10:30:02Z</time>
      </trkpt>
      <trkpt lat="42.40927" lon="-0.78829944">
        <time>2022-07-05T10:30:03Z</time>
      </trkpt>
      <trkpt lat="42.409218" lon="-0.78822476">
        <time>2022-07-05T10:30:04Z</time>
      </trkpt>
      <trkpt lat="42.40917" lon="-0.7881481">
        <time>2022-07-05T10:30:05Z</time>
      </trkpt>
      <trkpt lat="42.409122" lon="-0.7880708">
        <time>2022-07-05T10:30:06Z</time>
      </trkpt>
      <trkpt lat="42.409077" lon="-0.78799343">
        <time>2022-07-05T10:30:07Z</time>
      </trkpt>
      <trkpt lat="42.40903" lon="-0.7879168">
        <time>2022-07-05T10:30:08Z</time>
      </trkpt>
      <trkpt lat="42.40899" lon="-0.78784144">
        <time>2022-07-05T10:30:09Z</time>
      </trkpt>
      <trkpt lat="42.408947" lon="-0.78776616">
        <time>2022-07-05T10:30:10Z</time>
      </trkpt>
      <trkpt lat="42.408913" lon="-0.7876901">
        <time>2022-07-05T10:30:11Z</time>
      </trkpt>
      <trkpt lat="42.40888" lon="-0.78761315">
        <time>2022-07-05T10:30:12Z</time>
      </trkpt>
      <trkpt lat="42.40885" lon="-0.7875345">
        <time>2022-07-05T10:30:13Z</time>
      </trkpt>
      <trkpt lat="42.40883" lon="-0.7874555">
        <time>2022-07-05T10:30:14Z</time>
      </trkpt>
      <trkpt lat="42.408817" lon="-0.7873808">
        <time>2022-07-05T10:30:15Z</time>
      </trkpt>
      <trkpt lat="42.408806" lon="-0.78729916">
        <time>2022-07-05T10:30:16Z</time>
      </trkpt>
      <trkpt lat="42.408802" lon="-0.7872165">
        <time>2022-07-05T10:30:17Z</time>
      </trkpt>
      <trkpt lat="42.4088" lon="-0.78713214">
        <time>2022-07-05T10:30:18Z</time>
      </trkpt>
      <trkpt lat="42.4088" lon="-0.7870475">
        <time>2022-07-05T10:30:19Z</time>
      </trkpt>
      <trkpt lat="42.4088" lon="-0.7869678">
        <time>2022-07-05T10:30:20Z</time>
      </trkpt>
      <trkpt lat="42.408802" lon="-0.7868805">
        <time>2022-07-05T10:30:21Z</time>
      </trkpt>
      <trkpt lat="42.408802" lon="-0.7867929">
        <time>2022-07-05T10:30:22Z</time>
      </trkpt>
      <trkpt lat="42.40881" lon="-0.78670454">
        <time>2022-07-05T10:30:23Z</time>
      </trkpt>
      <trkpt lat="42.408813" lon="-0.78661686">
        <time>2022-07-05T10:30:24Z</time>
      </trkpt>
      <trkpt lat="42.40882" lon="-0.7865289">
        <time>2022-07-05T10:30:25Z</time>
      </trkpt>
      <trkpt lat="42.40883" lon="-0.78644186">
        <time>2022-07-05T10:30:26Z</time>
      </trkpt>
      <trkpt lat="42.408836" lon="-0.78635484">
        <time>2022-07-05T10:30:27Z</time>
      </trkpt>
      <trkpt lat="42.408844" lon="-0.7862675">
        <time>2022-07-05T10:30:28Z</time>
      </trkpt>
      <trkpt lat="42.408855" lon="-0.7861802">
        <time>2022-07-05T10:30:29Z</time>
      </trkpt>
      <trkpt lat="42.408863" lon="-0.7860939">
        <time>2022-07-05T10:30:30Z</time>
      </trkpt>
      <trkpt lat="42.40887" lon="-0.7860072">
        <time>2022-07-05T10:30:31Z</time>
      </trkpt>
      <trkpt lat="42.40888" lon="-0.78592557">
        <time>2022-07-05T10:30:32Z</time>
      </trkpt>
      <trkpt lat="42.40889" lon="-0.78583753">
        <time>2022-07-05T10:30:33Z</time>
      </trkpt>
      <trkpt lat="42.408905" lon="-0.7857502">
        <time>2022-07-05T10:30:34Z</time>
      </trkpt>
      <trkpt lat="42.40892" lon="-0.78566456">
        <time>2022-07-05T10:30:35Z</time>
      </trkpt>
      <trkpt lat="42.408936" lon="-0.7855789">
        <time>2022-07-05T10:30:36Z</time>
      </trkpt>
      <trkpt lat="42.40895" lon="-0.7854929">
        <time>2022-07-05T10:30:37Z</time>
      </trkpt>
      <trkpt lat="42.408962" lon="-0.7854079">
        <time>2022-07-05T10:30:38Z</time>
      </trkpt>
      <trkpt lat="42.40898" lon="-0.7853239">
        <time>2022-07-05T10:30:39Z</time>
      </trkpt>
      <trkpt lat="42.408997" lon="-0.78524727">
        <time>2022-07-05T10:30:40Z</time>
      </trkpt>
      <trkpt lat="42.40902" lon="-0.7851689">
        <time>2022-07-05T10:30:41Z</time>
      </trkpt>
      <trkpt lat="42.409042" lon="-0.78508824">
        <time>2022-07-05T10:30:42Z</time>
      </trkpt>
      <trkpt lat="42.409065" lon="-0.78500694">
        <time>2022-07-05T10:30:43Z</time>
      </trkpt>
      <trkpt lat="42.40912" lon="-0.7848406">
        <time>2022-07-05T10:30:45Z</time>
      </trkpt>
      <trkpt lat="42.409145" lon="-0.7847556">
        <time>2022-07-05T10:30:46Z</time>
      </trkpt>
      <trkpt lat="42.409172" lon="-0.78467023">
        <time>2022-07-05T10:30:47Z</time>
      </trkpt>
      <trkpt lat="42.4092" lon="-0.7845839">
        <time>2022-07-05T10:30:48Z</time>
      </trkpt>
      <trkpt lat="42.40922" lon="-0.7844969">
        <time>2022-07-05T10:30:49Z</time>
      </trkpt>
      <trkpt lat="42.409252" lon="-0.7844029">
        <time>2022-07-05T10:30:50Z</time>
      </trkpt>
      <trkpt lat="42.40928" lon="-0.7843166">
        <time>2022-07-05T10:30:51Z</time>
      </trkpt>
      <trkpt lat="42.409306" lon="-0.7842303">
        <time>2022-07-05T10:30:52Z</time>
      </trkpt>
      <trkpt lat="42.409332" lon="-0.78414327">
        <time>2022-07-05T10:30:53Z</time>
      </trkpt>
      <trkpt lat="42.409363" lon="-0.78405595">
        <time>2022-07-05T10:30:54Z</time>
      </trkpt>
      <trkpt lat="42.40939" lon="-0.7839693">
        <time>2022-07-05T10:30:55Z</time>
      </trkpt>
      <trkpt lat="42.409416" lon="-0.7838766">
        <time>2022-07-05T10:30:56Z</time>
      </trkpt>
      <trkpt lat="42.409447" lon="-0.7837866">
        <time>2022-07-05T10:30:57Z</time>
      </trkpt>
      <trkpt lat="42.409473" lon="-0.7836976">
        <time>2022-07-05T10:30:58Z</time>
      </trkpt>
      <trkpt lat="42.4095" lon="-0.7836093">
        <time>2022-07-05T10:30:59Z</time>
      </trkpt>
      <trkpt lat="42.409527" lon="-0.78352165">
        <time>2022-07-05T10:31:00Z</time>
      </trkpt>
      <trkpt lat="42.409554" lon="-0.78343296">
        <time>2022-07-05T10:31:01Z</time>
      </trkpt>
      <trkpt lat="42.409576" lon="-0.7833446">
        <time>2022-07-05T10:31:02Z</time>
      </trkpt>
      <trkpt lat="42.409603" lon="-0.783257">
        <time>2022-07-05T10:31:03Z</time>
      </trkpt>
      <trkpt lat="42.40963" lon="-0.783169">
        <time>2022-07-05T10:31:04Z</time>
      </trkpt>
      <trkpt lat="42.409657" lon="-0.7830796">
        <time>2022-07-05T10:31:05Z</time>
      </trkpt>
      <trkpt lat="42.409683" lon="-0.7829896">
        <time>2022-07-05T10:31:06Z</time>
      </trkpt>
      <trkpt lat="42.40971" lon="-0.78289866">
        <time>2022-07-05T10:31:07Z</time>
      </trkpt>
      <trkpt lat="42.409733" lon="-0.78280497">
        <time>2022-07-05T10:31:08Z</time>
      </trkpt>
      <trkpt lat="42.409756" lon="-0.78271">
        <time>2022-07-05T10:31:09Z</time>
      </trkpt>
      <trkpt lat="42.409775" lon="-0.78261167">
        <time>2022-07-05T10:31:10Z</time>
      </trkpt>
      <trkpt lat="42.40979" lon="-0.7825123">
        <time>2022-07-05T10:31:11Z</time>
      </trkpt>
      <trkpt lat="42.4098" lon="-0.782412">
        <time>2022-07-05T10:31:12Z</time>
      </trkpt>
      <trkpt lat="42.40981" lon="-0.7823127">
        <time>2022-07-05T10:31:13Z</time>
      </trkpt>
      <trkpt lat="42.409817" lon="-0.78221333">
        <time>2022-07-05T10:31:14Z</time>
      </trkpt>
      <trkpt lat="42.409817" lon="-0.782115">
        <time>2022-07-05T10:31:15Z</time>
      </trkpt>
      <trkpt lat="42.40982" lon="-0.78201133">
        <time>2022-07-05T10:31:16Z</time>
      </trkpt>
      <trkpt lat="42.40982" lon="-0.78191733">
        <time>2022-07-05T10:31:17Z</time>
      </trkpt>
      <trkpt lat="42.40982" lon="-0.78182536">
        <time>2022-07-05T10:31:18Z</time>
      </trkpt>
      <trkpt lat="42.409817" lon="-0.7817373">
        <time>2022-07-05T10:31:19Z</time>
      </trkpt>
      <trkpt lat="42.409813" lon="-0.78165305">
        <time>2022-07-05T10:31:20Z</time>
      </trkpt>
      <trkpt lat="42.409805" lon="-0.7815727">
        <time>2022-07-05T10:31:21Z</time>
      </trkpt>
      <trkpt lat="42.4098" lon="-0.781497">
        <time>2022-07-05T10:31:22Z</time>
      </trkpt>
      <trkpt lat="42.40979" lon="-0.7814227">
        <time>2022-07-05T10:31:23Z</time>
      </trkpt>
      <trkpt lat="42.40978" lon="-0.7813537">
        <time>2022-07-05T10:31:24Z</time>
      </trkpt>
      <trkpt lat="42.409767" lon="-0.78129303">
        <time>2022-07-05T10:31:25Z</time>
      </trkpt>
      <trkpt lat="42.409744" lon="-0.7811777">
        <time>2022-07-05T10:31:27Z</time>
      </trkpt>
      <trkpt lat="42.409714" lon="-0.7810697">
        <time>2022-07-05T10:31:29Z</time>
      </trkpt>
      <trkpt lat="42.409683" lon="-0.78096706">
        <time>2022-07-05T10:31:31Z</time>
      </trkpt>
      <trkpt lat="42.40965" lon="-0.78087074">
        <time>2022-07-05T10:31:33Z</time>
      </trkpt>
      <trkpt lat="42.40962" lon="-0.7807774">
        <time>2022-07-05T10:31:35Z</time>
      </trkpt>
      <trkpt lat="42.409584" lon="-0.7806817">
        <time>2022-07-05T10:31:37Z</time>
      </trkpt>
      <trkpt lat="42.40955" lon="-0.7805881">
        <time>2022-07-05T10:31:39Z</time>
      </trkpt>
      <trkpt lat="42.409523" lon="-0.78050005">
        <time>2022-07-05T10:31:41Z</time>
      </trkpt>
      <trkpt lat="42.409492" lon="-0.7804144">
        <time>2022-07-05T10:31:43Z</time>
      </trkpt>
      <trkpt lat="42.409466" lon="-0.78033376">
        <time>2022-07-05T10:31:45Z</time>
      </trkpt>
      <trkpt lat="42.40944" lon="-0.78025776">
        <time>2022-07-05T10:31:47Z</time>
      </trkpt>
      <trkpt lat="42.409416" lon="-0.78018445">
        <time>2022-07-05T10:31:49Z</time>
      </trkpt>
      <trkpt lat="42.40939" lon="-0.7801141">
        <time>2022-07-05T10:31:51Z</time>
      </trkpt>
      <trkpt lat="42.40936" lon="-0.78004044">
        <time>2022-07-05T10:31:53Z</time>
      </trkpt>
      <trkpt lat="42.40933" lon="-0.7799628">
        <time>2022-07-05T10:31:55Z</time>
      </trkpt>
      <trkpt lat="42.409298" lon="-0.7798818">
        <time>2022-07-05T10:31:57Z</time>
      </trkpt>
      <trkpt lat="42.409264" lon="-0.77979475">
        <time>2022-07-05T10:31:59Z</time>
      </trkpt>
      <trkpt lat="42.40923" lon="-0.7796974">
        <time>2022-07-05T10:32:01Z</time>
      </trkpt>
      <trkpt lat="42.409184" lon="-0.7795918">
        <time>2022-07-05T10:32:03Z</time>
      </trkpt>
      <trkpt lat="42.40913" lon="-0.77947545">
        <time>2022-07-05T10:32:05Z</time>
      </trkpt>
      <trkpt lat="42.4091" lon="-0.7794131">
        <time>2022-07-05T10:32:06Z</time>
      </trkpt>
      <trkpt lat="42.409065" lon="-0.77934813">
        <time>2022-07-05T10:32:07Z</time>
      </trkpt>
      <trkpt lat="42.40903" lon="-0.7792818">
        <time>2022-07-05T10:32:08Z</time>
      </trkpt>
      <trkpt lat="42.408993" lon="-0.7792125">
        <time>2022-07-05T10:32:09Z</time>
      </trkpt>
      <trkpt lat="42.40895" lon="-0.7791408">
        <time>2022-07-05T10:32:10Z</time>
      </trkpt>
      <trkpt lat="42.40891" lon="-0.7790678">
        <time>2022-07-05T10:32:11Z</time>
      </trkpt>
      <trkpt lat="42.408867" lon="-0.7789928">
        <time>2022-07-05T10:32:12Z</time>
      </trkpt>
      <trkpt lat="42.408825" lon="-0.7789148">
        <time>2022-07-05T10:32:13Z</time>
      </trkpt>
      <trkpt lat="42.40878" lon="-0.7788358">
        <time>2022-07-05T10:32:14Z</time>
      </trkpt>
      <trkpt lat="42.408733" lon="-0.7787548">
        <time>2022-07-05T10:32:15Z</time>
      </trkpt>
      <trkpt lat="42.408684" lon="-0.7786718">
        <time>2022-07-05T10:32:16Z</time>
      </trkpt>
      <trkpt lat="42.408634" lon="-0.7785878">
        <time>2022-07-05T10:32:17Z</time>
      </trkpt>
      <trkpt lat="42.408585" lon="-0.77850217">
        <time>2022-07-05T10:32:18Z</time>
      </trkpt>
      <trkpt lat="42.408535" lon="-0.77841514">
        <time>2022-07-05T10:32:19Z</time>
      </trkpt>
      <trkpt lat="42.408485" lon="-0.7783268">
        <time>2022-07-05T10:32:20Z</time>
      </trkpt>
      <trkpt lat="42.40844" lon="-0.7782378">
        <time>2022-07-05T10:32:21Z</time>
      </trkpt>
      <trkpt lat="42.40839" lon="-0.7781495">
        <time>2022-07-05T10:32:22Z</time>
      </trkpt>
      <trkpt lat="42.408337" lon="-0.77806216">
        <time>2022-07-05T10:32:23Z</time>
      </trkpt>
      <trkpt lat="42.408287" lon="-0.77797514">
        <time>2022-07-05T10:32:24Z</time>
      </trkpt>
      <trkpt lat="42.40824" lon="-0.7778935">
        <time>2022-07-05T10:32:25Z</time>
      </trkpt>
      <trkpt lat="42.40819" lon="-0.77780885">
        <time>2022-07-05T10:32:26Z</time>
      </trkpt>
      <trkpt lat="42.40814" lon="-0.77771515">
        <time>2022-07-05T10:32:27Z</time>
      </trkpt>
      <trkpt lat="42.408085" lon="-0.7776225">
        <time>2022-07-05T10:32:28Z</time>
      </trkpt>
      <trkpt lat="42.408035" lon="-0.7775315">
        <time>2022-07-05T10:32:29Z</time>
      </trkpt>
      <trkpt lat="42.40798" lon="-0.7774438">
        <time>2022-07-05T10:32:30Z</time>
      </trkpt>
      <trkpt lat="42.407932" lon="-0.77735853">
        <time>2022-07-05T10:32:31Z</time>
      </trkpt>
      <trkpt lat="42.407883" lon="-0.77727485">
        <time>2022-07-05T10:32:32Z</time>
      </trkpt>
      <trkpt lat="42.407837" lon="-0.7771932">
        <time>2022-07-05T10:32:33Z</time>
      </trkpt>
      <trkpt lat="42.407795" lon="-0.77711785">
        <time>2022-07-05T10:32:34Z</time>
      </trkpt>
      <trkpt lat="42.407753" lon="-0.7770422">
        <time>2022-07-05T10:32:35Z</time>
      </trkpt>
      <trkpt lat="42.407707" lon="-0.77696186">
        <time>2022-07-05T10:32:36Z</time>
      </trkpt>
      <trkpt lat="42.40766" lon="-0.7768842">
        <time>2022-07-05T10:32:37Z</time>
      </trkpt>
      <trkpt lat="42.40762" lon="-0.7768092">
        <time>2022-07-05T10:32:38Z</time>
      </trkpt>
      <trkpt lat="42.407578" lon="-0.7767369">
        <time>2022-07-05T10:32:39Z</time>
      </trkpt>
      <trkpt lat="42.407536" lon="-0.7766649">
        <time>2022-07-05T10:32:40Z</time>
      </trkpt>
      <trkpt lat="42.407494" lon="-0.77659357">
        <time>2022-07-05T10:32:41Z</time>
      </trkpt>
      <trkpt lat="42.40745" lon="-0.77652353">
        <time>2022-07-05T10:32:42Z</time>
      </trkpt>
      <trkpt lat="42.40741" lon="-0.7764549">
        <time>2022-07-05T10:32:43Z</time>
      </trkpt>
      <trkpt lat="42.40737" lon="-0.7763872">
        <time>2022-07-05T10:32:44Z</time>
      </trkpt>
      <trkpt lat="42.40733" lon="-0.7763199">
        <time>2022-07-05T10:32:45Z</time>
      </trkpt>
      <trkpt lat="42.40729" lon="-0.77625126">
        <time>2022-07-05T10:32:46Z</time>
      </trkpt>
      <trkpt lat="42.40725" lon="-0.7761816">
        <time>2022-07-05T10:32:47Z</time>
      </trkpt>
      <trkpt lat="42.40721" lon="-0.77611226">
        <time>2022-07-05T10:32:48Z</time>
      </trkpt>
      <trkpt lat="42.40713" lon="-0.7759756">
        <time>2022-07-05T10:32:50Z</time>
      </trkpt>
      <trkpt lat="42.407093" lon="-0.77590793">
        <time>2022-07-05T10:32:51Z</time>
      </trkpt>
      <trkpt lat="42.40706" lon="-0.7758416">
        <time>2022-07-05T10:32:52Z</time>
      </trkpt>
      <trkpt lat="42.40702" lon="-0.7757756">
        <time>2022-07-05T10:32:53Z</time>
      </trkpt>
      <trkpt lat="42.406986" lon="-0.77571493">
        <time>2022-07-05T10:32:54Z</time>
      </trkpt>
      <trkpt lat="42.40695" lon="-0.7756496">
        <time>2022-07-05T10:32:55Z</time>
      </trkpt>
      <trkpt lat="42.406918" lon="-0.77558595">
        <time>2022-07-05T10:32:56Z</time>
      </trkpt>
      <trkpt lat="42.40688" lon="-0.77552396">
        <time>2022-07-05T10:32:57Z</time>
      </trkpt>
      <trkpt lat="42.406845" lon="-0.7754643">
        <time>2022-07-05T10:32:58Z</time>
      </trkpt>
      <trkpt lat="42.40681" lon="-0.7754063">
        <time>2022-07-05T10:32:59Z</time>
      </trkpt>
      <trkpt lat="42.406776" lon="-0.77534866">
        <time>2022-07-05T10:33:00Z</time>
      </trkpt>
      <trkpt lat="42.406746" lon="-0.775292">
        <time>2022-07-05T10:33:01Z</time>
      </trkpt>
      <trkpt lat="42.406715" lon="-0.77523565">
        <time>2022-07-05T10:33:02Z</time>
      </trkpt>
      <trkpt lat="42.406685" lon="-0.77518034">
        <time>2022-07-05T10:33:03Z</time>
      </trkpt>
      <trkpt lat="42.40663" lon="-0.77507365">
        <time>2022-07-05T10:33:05Z</time>
      </trkpt>
      <trkpt lat="42.406574" lon="-0.7749593">
        <time>2022-07-05T10:33:07Z</time>
      </trkpt>
      <trkpt lat="42.406525" lon="-0.77485">
        <time>2022-07-05T10:33:09Z</time>
      </trkpt>
      <trkpt lat="42.40647" lon="-0.77473366">
        <time>2022-07-05T10:33:11Z</time>
      </trkpt>
      <trkpt lat="42.406445" lon="-0.77467465">
        <time>2022-07-05T10:33:12Z</time>
      </trkpt>
      <trkpt lat="42.406418" lon="-0.77461535">
        <time>2022-07-05T10:33:13Z</time>
      </trkpt>
      <trkpt lat="42.40639" lon="-0.77455735">
        <time>2022-07-05T10:33:14Z</time>
      </trkpt>
      <trkpt lat="42.40634" lon="-0.77444834">
        <time>2022-07-05T10:33:16Z</time>
      </trkpt>
      <trkpt lat="42.406315" lon="-0.774391">
        <time>2022-07-05T10:33:17Z</time>
      </trkpt>
      <trkpt lat="42.406265" lon="-0.77427936">
        <time>2022-07-05T10:33:19Z</time>
      </trkpt>
      <trkpt lat="42.406216" lon="-0.77416533">
        <time>2022-07-05T10:33:21Z</time>
      </trkpt>
      <trkpt lat="42.40619" lon="-0.77410704">
        <time>2022-07-05T10:33:22Z</time>
      </trkpt>
      <trkpt lat="42.40614" lon="-0.77399766">
        <time>2022-07-05T10:33:24Z</time>
      </trkpt>
      <trkpt lat="42.406086" lon="-0.77388">
        <time>2022-07-05T10:33:26Z</time>
      </trkpt>
      <trkpt lat="42.40606" lon="-0.7738194">
        <time>2022-07-05T10:33:27Z</time>
      </trkpt>
      <trkpt lat="42.406033" lon="-0.7737597">
        <time>2022-07-05T10:33:28Z</time>
      </trkpt>
      <trkpt lat="42.406006" lon="-0.77370036">
        <time>2022-07-05T10:33:29Z</time>
      </trkpt>
      <trkpt lat="42.40596" lon="-0.77358574">
        <time>2022-07-05T10:33:31Z</time>
      </trkpt>
      <trkpt lat="42.40592" lon="-0.77346504">
        <time>2022-07-05T10:33:33Z</time>
      </trkpt>
      <trkpt lat="42.40588" lon="-0.7733497">
        <time>2022-07-05T10:33:35Z</time>
      </trkpt>
      <trkpt lat="42.405865" lon="-0.7732884">
        <time>2022-07-05T10:33:36Z</time>
      </trkpt>
      <trkpt lat="42.40583" lon="-0.7731624">
        <time>2022-07-05T10:33:38Z</time>
      </trkpt>
      <trkpt lat="42.405815" lon="-0.77309674">
        <time>2022-07-05T10:33:39Z</time>
      </trkpt>
      <trkpt lat="42.405804" lon="-0.7730291">
        <time>2022-07-05T10:33:40Z</time>
      </trkpt>
      <trkpt lat="42.405777" lon="-0.77289075">
        <time>2022-07-05T10:33:42Z</time>
      </trkpt>
      <trkpt lat="42.40577" lon="-0.7728208">
        <time>2022-07-05T10:33:43Z</time>
      </trkpt>
      <trkpt lat="42.405758" lon="-0.77274644">
        <time>2022-07-05T10:33:44Z</time>
      </trkpt>
      <trkpt lat="42.40575" lon="-0.7726728">
        <time>2022-07-05T10:33:45Z</time>
      </trkpt>
      <trkpt lat="42.40574" lon="-0.7726054">
        <time>2022-07-05T10:33:46Z</time>
      </trkpt>
      <trkpt lat="42.40573" lon="-0.77253944">
        <time>2022-07-05T10:33:47Z</time>
      </trkpt>
      <trkpt lat="42.405716" lon="-0.7724101">
        <time>2022-07-05T10:33:49Z</time>
      </trkpt>
      <trkpt lat="42.4057" lon="-0.77228177">
        <time>2022-07-05T10:33:51Z</time>
      </trkpt>
      <trkpt lat="42.40569" lon="-0.7721538">
        <time>2022-07-05T10:33:53Z</time>
      </trkpt>
      <trkpt lat="42.40568" lon="-0.7720898">
        <time>2022-07-05T10:33:54Z</time>
      </trkpt>
      <trkpt lat="42.40567" lon="-0.77195674">
        <time>2022-07-05T10:33:56Z</time>
      </trkpt>
      <trkpt lat="42.405663" lon="-0.77188975">
        <time>2022-07-05T10:33:57Z</time>
      </trkpt>
      <trkpt lat="42.405643" lon="-0.7717461">
        <time>2022-07-05T10:33:59Z</time>
      </trkpt>
      <trkpt lat="42.405632" lon="-0.7716731">
        <time>2022-07-05T10:34:00Z</time>
      </trkpt>
      <trkpt lat="42.40562" lon="-0.7716008">
        <time>2022-07-05T10:34:01Z</time>
      </trkpt>
      <trkpt lat="42.405613" lon="-0.7715284">
        <time>2022-07-05T10:34:02Z</time>
      </trkpt>
      <trkpt lat="42.4056" lon="-0.77145547">
        <time>2022-07-05T10:34:03Z</time>
      </trkpt>
      <trkpt lat="42.405594" lon="-0.7713828">
        <time>2022-07-05T10:34:04Z</time>
      </trkpt>
      <trkpt lat="42.405582" lon="-0.77130944">
        <time>2022-07-05T10:34:05Z</time>
      </trkpt>
      <trkpt lat="42.405575" lon="-0.77123547">
        <time>2022-07-05T10:34:06Z</time>
      </trkpt>
      <trkpt lat="42.405563" lon="-0.77116114">
        <time>2022-07-05T10:34:07Z</time>
      </trkpt>
      <trkpt lat="42.405556" lon="-0.7710868">
        <time>2022-07-05T10:34:08Z</time>
      </trkpt>
      <trkpt lat="42.405544" lon="-0.7710121">
        <time>2022-07-05T10:34:09Z</time>
      </trkpt>
      <trkpt lat="42.405533" lon="-0.77093714">
        <time>2022-07-05T10:34:10Z</time>
      </trkpt>
      <trkpt lat="42.40552" lon="-0.77086246">
        <time>2022-07-05T10:34:11Z</time>
      </trkpt>
      <trkpt lat="42.40551" lon="-0.7707885">
        <time>2022-07-05T10:34:12Z</time>
      </trkpt>
      <trkpt lat="42.4055" lon="-0.77071613">
        <time>2022-07-05T10:34:13Z</time>
      </trkpt>
      <trkpt lat="42.405487" lon="-0.77064383">
        <time>2022-07-05T10:34:14Z</time>
      </trkpt>
      <trkpt lat="42.405476" lon="-0.7705712">
        <time>2022-07-05T10:34:15Z</time>
      </trkpt>
      <trkpt lat="42.405464" lon="-0.7704988">
        <time>2022-07-05T10:34:16Z</time>
      </trkpt>
      <trkpt lat="42.40545" lon="-0.7704268">
        <time>2022-07-05T10:34:17Z</time>
      </trkpt>
      <trkpt lat="42.405437" lon="-0.7703548">
        <time>2022-07-05T10:34:18Z</time>
      </trkpt>
      <trkpt lat="42.405426" lon="-0.7702825">
        <time>2022-07-05T10:34:19Z</time>
      </trkpt>
      <trkpt lat="42.405415" lon="-0.77021015">
        <time>2022-07-05T10:34:20Z</time>
      </trkpt>
      <trkpt lat="42.4054" lon="-0.77013814">
        <time>2022-07-05T10:34:21Z</time>
      </trkpt>
      <trkpt lat="42.405384" lon="-0.77006686">
        <time>2022-07-05T10:34:22Z</time>
      </trkpt>
      <trkpt lat="42.40537" lon="-0.76999587">
        <time>2022-07-05T10:34:23Z</time>
      </trkpt>
      <trkpt lat="42.405357" lon="-0.76992583">
        <time>2022-07-05T10:34:24Z</time>
      </trkpt>
      <trkpt lat="42.405346" lon="-0.76985586">
        <time>2022-07-05T10:34:25Z</time>
      </trkpt>
      <trkpt lat="42.40533" lon="-0.76978683">
        <time>2022-07-05T10:34:26Z</time>
      </trkpt>
      <trkpt lat="42.405304" lon="-0.76965153">
        <time>2022-07-05T10:34:28Z</time>
      </trkpt>
      <trkpt lat="42.405293" lon="-0.7695842">
        <time>2022-07-05T10:34:29Z</time>
      </trkpt>
      <trkpt lat="42.40528" lon="-0.76951784">
        <time>2022-07-05T10:34:30Z</time>
      </trkpt>
      <trkpt lat="42.405254" lon="-0.7693859">
        <time>2022-07-05T10:34:32Z</time>
      </trkpt>
      <trkpt lat="42.40524" lon="-0.76932055">
        <time>2022-07-05T10:34:33Z</time>
      </trkpt>
      <trkpt lat="42.405197" lon="-0.7691975">
        <time>2022-07-05T10:34:35Z</time>
      </trkpt>
      <trkpt lat="42.405144" lon="-0.76908153">
        <time>2022-07-05T10:34:37Z</time>
      </trkpt>
      <trkpt lat="42.405113" lon="-0.7690255">
        <time>2022-07-05T10:34:38Z</time>
      </trkpt>
      <trkpt lat="42.405045" lon="-0.76891285">
        <time>2022-07-05T10:34:40Z</time>
      </trkpt>
      <trkpt lat="42.405003" lon="-0.76885587">
        <time>2022-07-05T10:34:41Z</time>
      </trkpt>
      <trkpt lat="42.404964" lon="-0.76879954">
        <time>2022-07-05T10:34:42Z</time>
      </trkpt>
      <trkpt lat="42.404922" lon="-0.7687425">
        <time>2022-07-05T10:34:43Z</time>
      </trkpt>
      <trkpt lat="42.40488" lon="-0.7686852">
        <time>2022-07-05T10:34:44Z</time>
      </trkpt>
      <trkpt lat="42.404835" lon="-0.7686252">
        <time>2022-07-05T10:34:45Z</time>
      </trkpt>
      <trkpt lat="42.404793" lon="-0.76856357">
        <time>2022-07-05T10:34:46Z</time>
      </trkpt>
      <trkpt lat="42.404747" lon="-0.76850086">
        <time>2022-07-05T10:34:47Z</time>
      </trkpt>
      <trkpt lat="42.404705" lon="-0.7684369">
        <time>2022-07-05T10:34:48Z</time>
      </trkpt>
      <trkpt lat="42.40466" lon="-0.76837254">
        <time>2022-07-05T10:34:49Z</time>
      </trkpt>
      <trkpt lat="42.404613" lon="-0.76830924">
        <time>2022-07-05T10:34:50Z</time>
      </trkpt>
      <trkpt lat="42.404568" lon="-0.7682456">
        <time>2022-07-05T10:34:51Z</time>
      </trkpt>
      <trkpt lat="42.404522" lon="-0.7681819">
        <time>2022-07-05T10:34:52Z</time>
      </trkpt>
      <trkpt lat="42.404472" lon="-0.7681152">
        <time>2022-07-05T10:34:53Z</time>
      </trkpt>
      <trkpt lat="42.404373" lon="-0.7679802">
        <time>2022-07-05T10:34:55Z</time>
      </trkpt>
      <trkpt lat="42.404324" lon="-0.76791155">
        <time>2022-07-05T10:34:56Z</time>
      </trkpt>
      <trkpt lat="42.40427" lon="-0.76784295">
        <time>2022-07-05T10:34:57Z</time>
      </trkpt>
      <trkpt lat="42.40422" lon="-0.76777625">
        <time>2022-07-05T10:34:58Z</time>
      </trkpt>
      <trkpt lat="42.404163" lon="-0.7677099">
        <time>2022-07-05T10:34:59Z</time>
      </trkpt>
      <trkpt lat="42.40411" lon="-0.7676456">
        <time>2022-07-05T10:35:00Z</time>
      </trkpt>
      <trkpt lat="42.404057" lon="-0.76758295">
        <time>2022-07-05T10:35:01Z</time>
      </trkpt>
      <trkpt lat="42.404003" lon="-0.76751894">
        <time>2022-07-05T10:35:02Z</time>
      </trkpt>
      <trkpt lat="42.40395" lon="-0.76745427">
        <time>2022-07-05T10:35:03Z</time>
      </trkpt>
      <trkpt lat="42.403896" lon="-0.76738995">
        <time>2022-07-05T10:35:04Z</time>
      </trkpt>
      <trkpt lat="42.40384" lon="-0.7673249">
        <time>2022-07-05T10:35:05Z</time>
      </trkpt>
      <trkpt lat="42.403786" lon="-0.7672619">
        <time>2022-07-05T10:35:06Z</time>
      </trkpt>
      <trkpt lat="42.403732" lon="-0.7672003">
        <time>2022-07-05T10:35:07Z</time>
      </trkpt>
      <trkpt lat="42.403675" lon="-0.76714164">
        <time>2022-07-05T10:35:08Z</time>
      </trkpt>
      <trkpt lat="42.40362" lon="-0.76708597">
        <time>2022-07-05T10:35:09Z</time>
      </trkpt>
      <trkpt lat="42.403572" lon="-0.7670366">
        <time>2022-07-05T10:35:10Z</time>
      </trkpt>
      <trkpt lat="42.40352" lon="-0.766984">
        <time>2022-07-05T10:35:11Z</time>
      </trkpt>
      <trkpt lat="42.40347" lon="-0.766931">
        <time>2022-07-05T10:35:12Z</time>
      </trkpt>
      <trkpt lat="42.403423" lon="-0.76687896">
        <time>2022-07-05T10:35:13Z</time>
      </trkpt>
      <trkpt lat="42.403374" lon="-0.7668283">
        <time>2022-07-05T10:35:14Z</time>
      </trkpt>
      <trkpt lat="42.403328" lon="-0.76677734">
        <time>2022-07-05T10:35:15Z</time>
      </trkpt>
      <trkpt lat="42.40328" lon="-0.7667263">
        <time>2022-07-05T10:35:16Z</time>
      </trkpt>
      <trkpt lat="42.403233" lon="-0.7666753">
        <time>2022-07-05T10:35:17Z</time>
      </trkpt>
      <trkpt lat="42.40319" lon="-0.7666247">
        <time>2022-07-05T10:35:18Z</time>
      </trkpt>
      <trkpt lat="42.403145" lon="-0.76657265">
        <time>2022-07-05T10:35:19Z</time>
      </trkpt>
      <trkpt lat="42.403103" lon="-0.76651967">
        <time>2022-07-05T10:35:20Z</time>
      </trkpt>
      <trkpt lat="42.40306" lon="-0.76646465">
        <time>2022-07-05T10:35:21Z</time>
      </trkpt>
      <trkpt lat="42.40302" lon="-0.766409">
        <time>2022-07-05T10:35:22Z</time>
      </trkpt>
      <trkpt lat="42.40298" lon="-0.7663503">
        <time>2022-07-05T10:35:23Z</time>
      </trkpt>
      <trkpt lat="42.40294" lon="-0.76628935">
        <time>2022-07-05T10:35:24Z</time>
      </trkpt>
      <trkpt lat="42.4029" lon="-0.766227">
        <time>2022-07-05T10:35:25Z</time>
      </trkpt>
      <trkpt lat="42.402863" lon="-0.7661627">
        <time>2022-07-05T10:35:26Z</time>
      </trkpt>
      <trkpt lat="42.40283" lon="-0.76609635">
        <time>2022-07-05T10:35:27Z</time>
      </trkpt>
      <trkpt lat="42.402794" lon="-0.7660297">
        <time>2022-07-05T10:35:28Z</time>
      </trkpt>
      <trkpt lat="42.40276" lon="-0.7659617">
        <time>2022-07-05T10:35:29Z</time>
      </trkpt>
      <trkpt lat="42.402725" lon="-0.7658947">
        <time>2022-07-05T10:35:30Z</time>
      </trkpt>
      <trkpt lat="42.40269" lon="-0.765828">
        <time>2022-07-05T10:35:31Z</time>
      </trkpt>
      <trkpt lat="42.40266" lon="-0.765761">
        <time>2022-07-05T10:35:32Z</time>
      </trkpt>
      <trkpt lat="42.40263" lon="-0.7656944">
        <time>2022-07-05T10:35:33Z</time>
      </trkpt>
      <trkpt lat="42.4026" lon="-0.7656287">
        <time>2022-07-05T10:35:34Z</time>
      </trkpt>
      <trkpt lat="42.40257" lon="-0.7655644">
        <time>2022-07-05T10:35:35Z</time>
      </trkpt>
      <trkpt lat="42.40254" lon="-0.7655014">
        <time>2022-07-05T10:35:36Z</time>
      </trkpt>
      <trkpt lat="42.402504" lon="-0.7654394">
        <time>2022-07-05T10:35:37Z</time>
      </trkpt>
      <trkpt lat="42.40247" lon="-0.7653777">
        <time>2022-07-05T10:35:38Z</time>
      </trkpt>
      <trkpt lat="42.40244" lon="-0.76531637">
        <time>2022-07-05T10:35:39Z</time>
      </trkpt>
      <trkpt lat="42.402405" lon="-0.76525503">
        <time>2022-07-05T10:35:40Z</time>
      </trkpt>
      <trkpt lat="42.40237" lon="-0.7651947">
        <time>2022-07-05T10:35:41Z</time>
      </trkpt>
      <trkpt lat="42.40234" lon="-0.76513875">
        <time>2022-07-05T10:35:42Z</time>
      </trkpt>
      <trkpt lat="42.402306" lon="-0.7650784">
        <time>2022-07-05T10:35:43Z</time>
      </trkpt>
      <trkpt lat="42.40227" lon="-0.7650184">
        <time>2022-07-05T10:35:44Z</time>
      </trkpt>
      <trkpt lat="42.40224" lon="-0.7649581">
        <time>2022-07-05T10:35:45Z</time>
      </trkpt>
      <trkpt lat="42.402206" lon="-0.7648961">
        <time>2022-07-05T10:35:46Z</time>
      </trkpt>
      <trkpt lat="42.402176" lon="-0.76483774">
        <time>2022-07-05T10:35:47Z</time>
      </trkpt>
      <trkpt lat="42.402107" lon="-0.76470506">
        <time>2022-07-05T10:35:49Z</time>
      </trkpt>
      <trkpt lat="42.402073" lon="-0.7646387">
        <time>2022-07-05T10:35:50Z</time>
      </trkpt>
      <trkpt lat="42.402042" lon="-0.7645721">
        <time>2022-07-05T10:35:51Z</time>
      </trkpt>
      <trkpt lat="42.402008" lon="-0.7645034">
        <time>2022-07-05T10:35:52Z</time>
      </trkpt>
      <trkpt lat="42.401974" lon="-0.7644321">
        <time>2022-07-05T10:35:53Z</time>
      </trkpt>
      <trkpt lat="42.40194" lon="-0.7643598">
        <time>2022-07-05T10:35:54Z</time>
      </trkpt>
      <trkpt lat="42.401905" lon="-0.7642861">
        <time>2022-07-05T10:35:55Z</time>
      </trkpt>
      <trkpt lat="42.401836" lon="-0.7641354">
        <time>2022-07-05T10:35:57Z</time>
      </trkpt>
      <trkpt lat="42.401802" lon="-0.76405746">
        <time>2022-07-05T10:35:58Z</time>
      </trkpt>
      <trkpt lat="42.401768" lon="-0.7639821">
        <time>2022-07-05T10:35:59Z</time>
      </trkpt>
      <trkpt lat="42.401733" lon="-0.76389813">
        <time>2022-07-05T10:36:00Z</time>
      </trkpt>
      <trkpt lat="42.401695" lon="-0.7638138">
        <time>2022-07-05T10:36:01Z</time>
      </trkpt>
      <trkpt lat="42.40166" lon="-0.76372814">
        <time>2022-07-05T10:36:02Z</time>
      </trkpt>
      <trkpt lat="42.401627" lon="-0.7636418">
        <time>2022-07-05T10:36:03Z</time>
      </trkpt>
      <trkpt lat="42.401592" lon="-0.76355547">
        <time>2022-07-05T10:36:04Z</time>
      </trkpt>
      <trkpt lat="42.401554" lon="-0.7634698">
        <time>2022-07-05T10:36:05Z</time>
      </trkpt>
      <trkpt lat="42.40152" lon="-0.76338446">
        <time>2022-07-05T10:36:06Z</time>
      </trkpt>
      <trkpt lat="42.40149" lon="-0.76330584">
        <time>2022-07-05T10:36:07Z</time>
      </trkpt>
      <trkpt lat="42.40146" lon="-0.76322615">
        <time>2022-07-05T10:36:08Z</time>
      </trkpt>
      <trkpt lat="42.40143" lon="-0.7631468">
        <time>2022-07-05T10:36:09Z</time>
      </trkpt>
      <trkpt lat="42.401398" lon="-0.7630685">
        <time>2022-07-05T10:36:10Z</time>
      </trkpt>
      <trkpt lat="42.401363" lon="-0.76298684">
        <time>2022-07-05T10:36:11Z</time>
      </trkpt>
      <trkpt lat="42.401333" lon="-0.7629098">
        <time>2022-07-05T10:36:12Z</time>
      </trkpt>
      <trkpt lat="42.401306" lon="-0.76283884">
        <time>2022-07-05T10:36:13Z</time>
      </trkpt>
      <trkpt lat="42.40128" lon="-0.7627772">
        <time>2022-07-05T10:36:14Z</time>
      </trkpt>
      <trkpt lat="42.401257" lon="-0.7627172">
        <time>2022-07-05T10:36:15Z</time>
      </trkpt>
      <trkpt lat="42.401234" lon="-0.7626605">
        <time>2022-07-05T10:36:16Z</time>
      </trkpt>
      <trkpt lat="42.401188" lon="-0.7625545">
        <time>2022-07-05T10:36:18Z</time>
      </trkpt>
      <trkpt lat="42.401154" lon="-0.76246953">
        <time>2022-07-05T10:36:20Z</time>
      </trkpt>
      <trkpt lat="42.40112" lon="-0.76238817">
        <time>2022-07-05T10:36:22Z</time>
      </trkpt>
      <trkpt lat="42.401085" lon="-0.7623119">
        <time>2022-07-05T10:36:24Z</time>
      </trkpt>
      <trkpt lat="42.401054" lon="-0.76223683">
        <time>2022-07-05T10:36:26Z</time>
      </trkpt>
      <trkpt lat="42.401028" lon="-0.76216584">
        <time>2022-07-05T10:36:28Z</time>
      </trkpt>
      <trkpt lat="42.401" lon="-0.7621012">
        <time>2022-07-05T10:36:30Z</time>
      </trkpt>
      <trkpt lat="42.400974" lon="-0.7620372">
        <time>2022-07-05T10:36:32Z</time>
      </trkpt>
      <trkpt lat="42.400948" lon="-0.7619709">
        <time>2022-07-05T10:36:34Z</time>
      </trkpt>
      <trkpt lat="42.40093" lon="-0.76190853">
        <time>2022-07-05T10:36:36Z</time>
      </trkpt>
      <trkpt lat="42.400898" lon="-0.76181656">
        <time>2022-07-05T10:36:39Z</time>
      </trkpt>
      <trkpt lat="42.40087" lon="-0.7617595">
        <time>2022-07-05T10:36:41Z</time>
      </trkpt>
      <trkpt lat="42.400837" lon="-0.7616669">
        <time>2022-07-05T10:36:44Z</time>
      </trkpt>
      <trkpt lat="42.400814" lon="-0.7616079">
        <time>2022-07-05T10:36:46Z</time>
      </trkpt>
      <trkpt lat="42.400776" lon="-0.76151687">
        <time>2022-07-05T10:36:49Z</time>
      </trkpt>
      <trkpt lat="42.400753" lon="-0.76145923">
        <time>2022-07-05T10:36:51Z</time>
      </trkpt>
      <trkpt lat="42.40071" lon="-0.76137155">
        <time>2022-07-05T10:36:54Z</time>
      </trkpt>
      <trkpt lat="42.40069" lon="-0.7613109">
        <time>2022-07-05T10:36:56Z</time>
      </trkpt>
      <trkpt lat="42.40064" lon="-0.7611829">
        <time>2022-07-05T10:37:00Z</time>
      </trkpt>
      <trkpt lat="42.400616" lon="-0.7611222">
        <time>2022-07-05T10:37:02Z</time>
      </trkpt>
      <trkpt lat="42.400593" lon="-0.76106125">
        <time>2022-07-05T10:37:07Z</time>
      </trkpt>
      <trkpt lat="42.400555" lon="-0.7609729">
        <time>2022-07-05T10:41:05Z</time>
      </trkpt>
      <trkpt lat="42.40053" lon="-0.7608973">
        <time>2022-07-05T10:41:07Z</time>
      </trkpt>
      <trkpt lat="42.4005" lon="-0.7608046">
        <time>2022-07-05T10:41:09Z</time>
      </trkpt>
      <trkpt lat="42.40047" lon="-0.76069695">
        <time>2022-07-05T10:41:11Z</time>
      </trkpt>
      <trkpt lat="42.400436" lon="-0.7605916">
        <time>2022-07-05T10:41:13Z</time>
      </trkpt>
      <trkpt lat="42.4004" lon="-0.7604723">
        <time>2022-07-05T10:41:15Z</time>
      </trkpt>
      <trkpt lat="42.400356" lon="-0.76034963">
        <time>2022-07-05T10:41:17Z</time>
      </trkpt>
      <trkpt lat="42.400337" lon="-0.7602909">
        <time>2022-07-05T10:41:18Z</time>
      </trkpt>
      <trkpt lat="42.40029" lon="-0.7601596">
        <time>2022-07-05T10:41:20Z</time>
      </trkpt>
      <trkpt lat="42.40027" lon="-0.7600976">
        <time>2022-07-05T10:41:21Z</time>
      </trkpt>
      <trkpt lat="42.400223" lon="-0.75996727">
        <time>2022-07-05T10:41:23Z</time>
      </trkpt>
      <trkpt lat="42.4002" lon="-0.7598986">
        <time>2022-07-05T10:41:24Z</time>
      </trkpt>
      <trkpt lat="42.400177" lon="-0.759828">
        <time>2022-07-05T10:41:25Z</time>
      </trkpt>
      <trkpt lat="42.400154" lon="-0.7597566">
        <time>2022-07-05T10:41:26Z</time>
      </trkpt>
      <trkpt lat="42.40013" lon="-0.759685">
        <time>2022-07-05T10:41:27Z</time>
      </trkpt>
      <trkpt lat="42.400105" lon="-0.7596083">
        <time>2022-07-05T10:41:28Z</time>
      </trkpt>
      <trkpt lat="42.40008" lon="-0.759537">
        <time>2022-07-05T10:41:29Z</time>
      </trkpt>
      <trkpt lat="42.40006" lon="-0.75946563">
        <time>2022-07-05T10:41:30Z</time>
      </trkpt>
      <trkpt lat="42.400032" lon="-0.75939363">
        <time>2022-07-05T10:41:31Z</time>
      </trkpt>
      <trkpt lat="42.40001" lon="-0.75932133">
        <time>2022-07-05T10:41:32Z</time>
      </trkpt>
      <trkpt lat="42.399982" lon="-0.7592443">
        <time>2022-07-05T10:41:33Z</time>
      </trkpt>
      <trkpt lat="42.39996" lon="-0.7591677">
        <time>2022-07-05T10:41:34Z</time>
      </trkpt>
      <trkpt lat="42.399933" lon="-0.75909233">
        <time>2022-07-05T10:41:35Z</time>
      </trkpt>
      <trkpt lat="42.399906" lon="-0.7590177">
        <time>2022-07-05T10:41:36Z</time>
      </trkpt>
      <trkpt lat="42.39988" lon="-0.75894433">
        <time>2022-07-05T10:41:37Z</time>
      </trkpt>
      <trkpt lat="42.399853" lon="-0.7588717">
        <time>2022-07-05T10:41:38Z</time>
      </trkpt>
      <trkpt lat="42.39983" lon="-0.7587994">
        <time>2022-07-05T10:41:39Z</time>
      </trkpt>
      <trkpt lat="42.399807" lon="-0.758728">
        <time>2022-07-05T10:41:40Z</time>
      </trkpt>
      <trkpt lat="42.39978" lon="-0.7586574">
        <time>2022-07-05T10:41:41Z</time>
      </trkpt>
      <trkpt lat="42.399757" lon="-0.75858706">
        <time>2022-07-05T10:41:42Z</time>
      </trkpt>
      <trkpt lat="42.39973" lon="-0.7585174">
        <time>2022-07-05T10:41:43Z</time>
      </trkpt>
      <trkpt lat="42.399704" lon="-0.75844806">
        <time>2022-07-05T10:41:44Z</time>
      </trkpt>
      <trkpt lat="42.39968" lon="-0.75837874">
        <time>2022-07-05T10:41:45Z</time>
      </trkpt>
      <trkpt lat="42.399654" lon="-0.75830907">
        <time>2022-07-05T10:41:46Z</time>
      </trkpt>
      <trkpt lat="42.39963" lon="-0.75823975">
        <time>2022-07-05T10:41:47Z</time>
      </trkpt>
      <trkpt lat="42.399605" lon="-0.7581714">
        <time>2022-07-05T10:41:48Z</time>
      </trkpt>
      <trkpt lat="42.399582" lon="-0.7581031">
        <time>2022-07-05T10:41:49Z</time>
      </trkpt>
      <trkpt lat="42.39956" lon="-0.75803506">
        <time>2022-07-05T10:41:50Z</time>
      </trkpt>
      <trkpt lat="42.399536" lon="-0.7579677">
        <time>2022-07-05T10:41:51Z</time>
      </trkpt>
      <trkpt lat="42.399513" lon="-0.7579011">
        <time>2022-07-05T10:41:52Z</time>
      </trkpt>
      <trkpt lat="42.39949" lon="-0.7578351">
        <time>2022-07-05T10:41:53Z</time>
      </trkpt>
      <trkpt lat="42.399467" lon="-0.75776875">
        <time>2022-07-05T10:41:54Z</time>
      </trkpt>
      <trkpt lat="42.399445" lon="-0.75770277">
        <time>2022-07-05T10:41:55Z</time>
      </trkpt>
      <trkpt lat="42.39942" lon="-0.7576384">
        <time>2022-07-05T10:41:56Z</time>
      </trkpt>
      <trkpt lat="42.399395" lon="-0.75757474">
        <time>2022-07-05T10:41:57Z</time>
      </trkpt>
      <trkpt lat="42.39937" lon="-0.75751173">
        <time>2022-07-05T10:41:58Z</time>
      </trkpt>
      <trkpt lat="42.39931" lon="-0.75738776">
        <time>2022-07-05T10:42:00Z</time>
      </trkpt>
      <trkpt lat="42.399284" lon="-0.7573254">
        <time>2022-07-05T10:42:01Z</time>
      </trkpt>
      <trkpt lat="42.399254" lon="-0.7572671">
        <time>2022-07-05T10:42:02Z</time>
      </trkpt>
      <trkpt lat="42.399197" lon="-0.75714844">
        <time>2022-07-05T10:42:04Z</time>
      </trkpt>
      <trkpt lat="42.399166" lon="-0.7570888">
        <time>2022-07-05T10:42:05Z</time>
      </trkpt>
      <trkpt lat="42.39914" lon="-0.75702846">
        <time>2022-07-05T10:42:06Z</time>
      </trkpt>
      <trkpt lat="42.39911" lon="-0.7569674">
        <time>2022-07-05T10:42:07Z</time>
      </trkpt>
      <trkpt lat="42.39908" lon="-0.7569058">
        <time>2022-07-05T10:42:08Z</time>
      </trkpt>
      <trkpt lat="42.399044" lon="-0.75684315">
        <time>2022-07-05T10:42:09Z</time>
      </trkpt>
      <trkpt lat="42.399014" lon="-0.75677913">
        <time>2022-07-05T10:42:10Z</time>
      </trkpt>
      <trkpt lat="42.398983" lon="-0.7567141">
        <time>2022-07-05T10:42:11Z</time>
      </trkpt>
      <trkpt lat="42.398952" lon="-0.7566481">
        <time>2022-07-05T10:42:12Z</time>
      </trkpt>
      <trkpt lat="42.39892" lon="-0.75658214">
        <time>2022-07-05T10:42:13Z</time>
      </trkpt>
      <trkpt lat="42.398884" lon="-0.75651014">
        <time>2022-07-05T10:42:14Z</time>
      </trkpt>
      <trkpt lat="42.39885" lon="-0.75644344">
        <time>2022-07-05T10:42:15Z</time>
      </trkpt>
      <trkpt lat="42.398815" lon="-0.7563755">
        <time>2022-07-05T10:42:16Z</time>
      </trkpt>
      <trkpt lat="42.39878" lon="-0.7563058">
        <time>2022-07-05T10:42:17Z</time>
      </trkpt>
      <trkpt lat="42.398743" lon="-0.7562348">
        <time>2022-07-05T10:42:18Z</time>
      </trkpt>
      <trkpt lat="42.398705" lon="-0.7561628">
        <time>2022-07-05T10:42:19Z</time>
      </trkpt>
      <trkpt lat="42.39867" lon="-0.7560895">
        <time>2022-07-05T10:42:20Z</time>
      </trkpt>
      <trkpt lat="42.398632" lon="-0.7560151">
        <time>2022-07-05T10:42:21Z</time>
      </trkpt>
      <trkpt lat="42.398598" lon="-0.7559395">
        <time>2022-07-05T10:42:22Z</time>
      </trkpt>
      <trkpt lat="42.39856" lon="-0.7558625">
        <time>2022-07-05T10:42:23Z</time>
      </trkpt>
      <trkpt lat="42.398525" lon="-0.7557845">
        <time>2022-07-05T10:42:24Z</time>
      </trkpt>
      <trkpt lat="42.398487" lon="-0.7557065">
        <time>2022-07-05T10:42:25Z</time>
      </trkpt>
      <trkpt lat="42.398445" lon="-0.75562483">
        <time>2022-07-05T10:42:26Z</time>
      </trkpt>
      <trkpt lat="42.398407" lon="-0.7555468">
        <time>2022-07-05T10:42:27Z</time>
      </trkpt>
      <trkpt lat="42.39837" lon="-0.75547016">
        <time>2022-07-05T10:42:28Z</time>
      </trkpt>
      <trkpt lat="42.39833" lon="-0.7553945">
        <time>2022-07-05T10:42:29Z</time>
      </trkpt>
      <trkpt lat="42.398296" lon="-0.7553202">
        <time>2022-07-05T10:42:30Z</time>
      </trkpt>
      <trkpt lat="42.398262" lon="-0.75524616">
        <time>2022-07-05T10:42:31Z</time>
      </trkpt>
      <trkpt lat="42.398224" lon="-0.7551732">
        <time>2022-07-05T10:42:32Z</time>
      </trkpt>
      <trkpt lat="42.398193" lon="-0.75510186">
        <time>2022-07-05T10:42:33Z</time>
      </trkpt>
      <trkpt lat="42.39816" lon="-0.75503254">
        <time>2022-07-05T10:42:34Z</time>
      </trkpt>
      <trkpt lat="42.39813" lon="-0.7549642">
        <time>2022-07-05T10:42:35Z</time>
      </trkpt>
      <trkpt lat="42.398094" lon="-0.7548982">
        <time>2022-07-05T10:42:36Z</time>
      </trkpt>
      <trkpt lat="42.398064" lon="-0.7548339">
        <time>2022-07-05T10:42:37Z</time>
      </trkpt>
      <trkpt lat="42.398033" lon="-0.7547719">
        <time>2022-07-05T10:42:38Z</time>
      </trkpt>
      <trkpt lat="42.398003" lon="-0.75471056">
        <time>2022-07-05T10:42:39Z</time>
      </trkpt>
      <trkpt lat="42.397972" lon="-0.7546545">
        <time>2022-07-05T10:42:40Z</time>
      </trkpt>
      <trkpt lat="42.39794" lon="-0.7545945">
        <time>2022-07-05T10:42:41Z</time>
      </trkpt>
      <trkpt lat="42.397915" lon="-0.75453484">
        <time>2022-07-05T10:42:42Z</time>
      </trkpt>
      <trkpt lat="42.397884" lon="-0.7544759">
        <time>2022-07-05T10:42:43Z</time>
      </trkpt>
      <trkpt lat="42.397858" lon="-0.7544165">
        <time>2022-07-05T10:42:44Z</time>
      </trkpt>
      <trkpt lat="42.397827" lon="-0.75436056">
        <time>2022-07-05T10:42:45Z</time>
      </trkpt>
      <trkpt lat="42.397766" lon="-0.75423956">
        <time>2022-07-05T10:42:47Z</time>
      </trkpt>
      <trkpt lat="42.397736" lon="-0.7541782">
        <time>2022-07-05T10:42:48Z</time>
      </trkpt>
      <trkpt lat="42.397705" lon="-0.7541169">
        <time>2022-07-05T10:42:49Z</time>
      </trkpt>
      <trkpt lat="42.39767" lon="-0.75405556">
        <time>2022-07-05T10:42:50Z</time>
      </trkpt>
      <trkpt lat="42.39764" lon="-0.7539945">
        <time>2022-07-05T10:42:51Z</time>
      </trkpt>
      <trkpt lat="42.397606" lon="-0.7539339">
        <time>2022-07-05T10:42:52Z</time>
      </trkpt>
      <trkpt lat="42.397575" lon="-0.7538729">
        <time>2022-07-05T10:42:53Z</time>
      </trkpt>
      <trkpt lat="42.397545" lon="-0.7538119">
        <time>2022-07-05T10:42:54Z</time>
      </trkpt>
      <trkpt lat="42.397514" lon="-0.75375056">
        <time>2022-07-05T10:42:55Z</time>
      </trkpt>
      <trkpt lat="42.39748" lon="-0.7536896">
        <time>2022-07-05T10:42:56Z</time>
      </trkpt>
      <trkpt lat="42.39745" lon="-0.75362855">
        <time>2022-07-05T10:42:57Z</time>
      </trkpt>
      <trkpt lat="42.397415" lon="-0.7535659">
        <time>2022-07-05T10:42:58Z</time>
      </trkpt>
      <trkpt lat="42.397385" lon="-0.75350255">
        <time>2022-07-05T10:42:59Z</time>
      </trkpt>
      <trkpt lat="42.397354" lon="-0.7534389">
        <time>2022-07-05T10:43:00Z</time>
      </trkpt>
      <trkpt lat="42.39729" lon="-0.75330824">
        <time>2022-07-05T10:43:02Z</time>
      </trkpt>
      <trkpt lat="42.397255" lon="-0.7532416">
        <time>2022-07-05T10:43:03Z</time>
      </trkpt>
      <trkpt lat="42.397224" lon="-0.7531749">
        <time>2022-07-05T10:43:04Z</time>
      </trkpt>
      <trkpt lat="42.39719" lon="-0.7531076">
        <time>2022-07-05T10:43:05Z</time>
      </trkpt>
      <trkpt lat="42.397156" lon="-0.75303894">
        <time>2022-07-05T10:43:06Z</time>
      </trkpt>
      <trkpt lat="42.39712" lon="-0.7529696">
        <time>2022-07-05T10:43:07Z</time>
      </trkpt>
      <trkpt lat="42.39709" lon="-0.75290096">
        <time>2022-07-05T10:43:08Z</time>
      </trkpt>
      <trkpt lat="42.397057" lon="-0.7528376">
        <time>2022-07-05T10:43:09Z</time>
      </trkpt>
      <trkpt lat="42.397026" lon="-0.75276893">
        <time>2022-07-05T10:43:10Z</time>
      </trkpt>
      <trkpt lat="42.39699" lon="-0.752701">
        <time>2022-07-05T10:43:11Z</time>
      </trkpt>
      <trkpt lat="42.39696" lon="-0.7526326">
        <time>2022-07-05T10:43:12Z</time>
      </trkpt>
      <trkpt lat="42.396927" lon="-0.7525653">
        <time>2022-07-05T10:43:13Z</time>
      </trkpt>
      <trkpt lat="42.396896" lon="-0.75249666">
        <time>2022-07-05T10:43:14Z</time>
      </trkpt>
      <trkpt lat="42.396862" lon="-0.752429">
        <time>2022-07-05T10:43:15Z</time>
      </trkpt>
      <trkpt lat="42.39683" lon="-0.7523613">
        <time>2022-07-05T10:43:16Z</time>
      </trkpt>
      <trkpt lat="42.396797" lon="-0.7522943">
        <time>2022-07-05T10:43:17Z</time>
      </trkpt>
      <trkpt lat="42.396767" lon="-0.7522273">
        <time>2022-07-05T10:43:18Z</time>
      </trkpt>
      <trkpt lat="42.396732" lon="-0.75216097">
        <time>2022-07-05T10:43:19Z</time>
      </trkpt>
      <trkpt lat="42.3967" lon="-0.752094">
        <time>2022-07-05T10:43:20Z</time>
      </trkpt>
      <trkpt lat="42.396667" lon="-0.7520263">
        <time>2022-07-05T10:43:21Z</time>
      </trkpt>
      <trkpt lat="42.396637" lon="-0.7519593">
        <time>2022-07-05T10:43:22Z</time>
      </trkpt>
      <trkpt lat="42.396606" lon="-0.7518927">
        <time>2022-07-05T10:43:23Z</time>
      </trkpt>
      <trkpt lat="42.396572" lon="-0.75182736">
        <time>2022-07-05T10:43:24Z</time>
      </trkpt>
      <trkpt lat="42.39654" lon="-0.75176203">
        <time>2022-07-05T10:43:25Z</time>
      </trkpt>
      <trkpt lat="42.396507" lon="-0.7516967">
        <time>2022-07-05T10:43:26Z</time>
      </trkpt>
      <trkpt lat="42.396477" lon="-0.751631">
        <time>2022-07-05T10:43:27Z</time>
      </trkpt>
      <trkpt lat="42.396446" lon="-0.7515657">
        <time>2022-07-05T10:43:28Z</time>
      </trkpt>
      <trkpt lat="42.39641" lon="-0.75150037">
        <time>2022-07-05T10:43:29Z</time>
      </trkpt>
      <trkpt lat="42.39638" lon="-0.75143504">
        <time>2022-07-05T10:43:30Z</time>
      </trkpt>
      <trkpt lat="42.396347" lon="-0.75137">
        <time>2022-07-05T10:43:31Z</time>
      </trkpt>
      <trkpt lat="42.396313" lon="-0.7513044">
        <time>2022-07-05T10:43:32Z</time>
      </trkpt>
      <trkpt lat="42.396282" lon="-0.75123906">
        <time>2022-07-05T10:43:33Z</time>
      </trkpt>
      <trkpt lat="42.396248" lon="-0.7511744">
        <time>2022-07-05T10:43:34Z</time>
      </trkpt>
      <trkpt lat="42.396217" lon="-0.75111437">
        <time>2022-07-05T10:43:35Z</time>
      </trkpt>
      <trkpt lat="42.396187" lon="-0.7510484">
        <time>2022-07-05T10:43:36Z</time>
      </trkpt>
      <trkpt lat="42.396152" lon="-0.7509827">
        <time>2022-07-05T10:43:37Z</time>
      </trkpt>
      <trkpt lat="42.396122" lon="-0.7509167">
        <time>2022-07-05T10:43:38Z</time>
      </trkpt>
      <trkpt lat="42.396088" lon="-0.75085104">
        <time>2022-07-05T10:43:39Z</time>
      </trkpt>
      <trkpt lat="42.396053" lon="-0.7507867">
        <time>2022-07-05T10:43:40Z</time>
      </trkpt>
      <trkpt lat="42.396023" lon="-0.75072706">
        <time>2022-07-05T10:43:41Z</time>
      </trkpt>
      <trkpt lat="42.395992" lon="-0.75066304">
        <time>2022-07-05T10:43:42Z</time>
      </trkpt>
      <trkpt lat="42.395958" lon="-0.7506041">
        <time>2022-07-05T10:43:43Z</time>
      </trkpt>
      <trkpt lat="42.395927" lon="-0.7505397">
        <time>2022-07-05T10:43:44Z</time>
      </trkpt>
      <trkpt lat="42.395897" lon="-0.7504807">
        <time>2022-07-05T10:43:45Z</time>
      </trkpt>
      <trkpt lat="42.395866" lon="-0.75041944">
        <time>2022-07-05T10:43:46Z</time>
      </trkpt>
      <trkpt lat="42.395836" lon="-0.7503594">
        <time>2022-07-05T10:43:47Z</time>
      </trkpt>
      <trkpt lat="42.3958" lon="-0.75030106">
        <time>2022-07-05T10:43:48Z</time>
      </trkpt>
      <trkpt lat="42.395775" lon="-0.7502437">
        <time>2022-07-05T10:43:49Z</time>
      </trkpt>
      <trkpt lat="42.395744" lon="-0.75019175">
        <time>2022-07-05T10:43:50Z</time>
      </trkpt>
      <trkpt lat="42.39569" lon="-0.7500871">
        <time>2022-07-05T10:43:52Z</time>
      </trkpt>
      <trkpt lat="42.395634" lon="-0.7499841">
        <time>2022-07-05T10:43:54Z</time>
      </trkpt>
      <trkpt lat="42.395584" lon="-0.7498921">
        <time>2022-07-05T10:43:56Z</time>
      </trkpt>
      <trkpt lat="42.395535" lon="-0.7497971">
        <time>2022-07-05T10:43:58Z</time>
      </trkpt>
      <trkpt lat="42.39549" lon="-0.7497048">
        <time>2022-07-05T10:44:00Z</time>
      </trkpt>
      <trkpt lat="42.395443" lon="-0.7496151">
        <time>2022-07-05T10:44:02Z</time>
      </trkpt>
      <trkpt lat="42.395393" lon="-0.7495241">
        <time>2022-07-05T10:44:04Z</time>
      </trkpt>
      <trkpt lat="42.395348" lon="-0.7494391">
        <time>2022-07-05T10:44:06Z</time>
      </trkpt>
      <trkpt lat="42.3953" lon="-0.7493581">
        <time>2022-07-05T10:44:08Z</time>
      </trkpt>
      <trkpt lat="42.395256" lon="-0.7492861">
        <time>2022-07-05T10:44:10Z</time>
      </trkpt>
      <trkpt lat="42.395214" lon="-0.74922174">
        <time>2022-07-05T10:44:12Z</time>
      </trkpt>
      <trkpt lat="42.395176" lon="-0.7491798">
        <time>2022-07-05T10:44:14Z</time>
      </trkpt>
      <trkpt lat="42.395134" lon="-0.7491748">
        <time>2022-07-05T10:44:17Z</time>
      </trkpt>
      <trkpt lat="42.395096" lon="-0.74923277">
        <time>2022-07-05T10:44:22Z</time>
      </trkpt>
      <trkpt lat="42.39507" lon="-0.74928844">
        <time>2022-07-05T10:44:26Z</time>
      </trkpt>
      <trkpt lat="42.395065" lon="-0.7492478">
        <time>2022-07-05T10:47:08Z</time>
      </trkpt>
      <trkpt lat="42.395065" lon="-0.74916947">
        <time>2022-07-05T10:47:13Z</time>
      </trkpt>
      <trkpt lat="42.39508" lon="-0.7490988">
        <time>2022-07-05T10:47:18Z</time>
      </trkpt>
      <trkpt lat="42.395092" lon="-0.7490368">
        <time>2022-07-05T10:47:24Z</time>
      </trkpt>
      <trkpt lat="42.395077" lon="-0.74895114">
        <time>2022-07-05T10:47:30Z</time>
      </trkpt>
      <trkpt lat="42.395046" lon="-0.7488888">
        <time>2022-07-05T10:47:33Z</time>
      </trkpt>
      <trkpt lat="42.395008" lon="-0.74881446">
        <time>2022-07-05T10:47:36Z</time>
      </trkpt>
      <trkpt lat="42.394962" lon="-0.7487358">
        <time>2022-07-05T10:47:39Z</time>
      </trkpt>
      <trkpt lat="42.394905" lon="-0.7486568">
        <time>2022-07-05T10:47:42Z</time>
      </trkpt>
      <trkpt lat="42.394855" lon="-0.7486005">
        <time>2022-07-05T10:47:44Z</time>
      </trkpt>
      <trkpt lat="42.394806" lon="-0.7485448">
        <time>2022-07-05T10:47:46Z</time>
      </trkpt>
      <trkpt lat="42.394745" lon="-0.7484885">
        <time>2022-07-05T10:47:48Z</time>
      </trkpt>
      <trkpt lat="42.39468" lon="-0.7484318">
        <time>2022-07-05T10:47:50Z</time>
      </trkpt>
      <trkpt lat="42.394608" lon="-0.7483775">
        <time>2022-07-05T10:47:52Z</time>
      </trkpt>
      <trkpt lat="42.39453" lon="-0.74832046">
        <time>2022-07-05T10:47:54Z</time>
      </trkpt>
      <trkpt lat="42.39445" lon="-0.7482588">
        <time>2022-07-05T10:47:56Z</time>
      </trkpt>
      <trkpt lat="42.394367" lon="-0.7481938">
        <time>2022-07-05T10:47:58Z</time>
      </trkpt>
      <trkpt lat="42.39432" lon="-0.74816084">
        <time>2022-07-05T10:47:59Z</time>
      </trkpt>
      <trkpt lat="42.394276" lon="-0.7481282">
        <time>2022-07-05T10:48:00Z</time>
      </trkpt>
      <trkpt lat="42.394184" lon="-0.74806416">
        <time>2022-07-05T10:48:02Z</time>
      </trkpt>
      <trkpt lat="42.39414" lon="-0.7480315">
        <time>2022-07-05T10:48:03Z</time>
      </trkpt>
      <trkpt lat="42.394047" lon="-0.7479682">
        <time>2022-07-05T10:48:05Z</time>
      </trkpt>
      <trkpt lat="42.394" lon="-0.7479375">
        <time>2022-07-05T10:48:06Z</time>
      </trkpt>
      <trkpt lat="42.39387" lon="-0.74785084">
        <time>2022-07-05T10:48:09Z</time>
      </trkpt>
      <trkpt lat="42.39383" lon="-0.7478229">
        <time>2022-07-05T10:48:10Z</time>
      </trkpt>
      <trkpt lat="42.39375" lon="-0.7477702">
        <time>2022-07-05T10:48:12Z</time>
      </trkpt>
      <trkpt lat="42.393665" lon="-0.7477119">
        <time>2022-07-05T10:48:14Z</time>
      </trkpt>
      <trkpt lat="42.39358" lon="-0.74765086">
        <time>2022-07-05T10:48:16Z</time>
      </trkpt>
      <trkpt lat="42.39354" lon="-0.74761987">
        <time>2022-07-05T10:48:17Z</time>
      </trkpt>
      <trkpt lat="42.39345" lon="-0.7475642">
        <time>2022-07-05T10:48:19Z</time>
      </trkpt>
      <trkpt lat="42.39341" lon="-0.7475359">
        <time>2022-07-05T10:48:20Z</time>
      </trkpt>
      <trkpt lat="42.393326" lon="-0.7474802">
        <time>2022-07-05T10:48:22Z</time>
      </trkpt>
      <trkpt lat="42.39324" lon="-0.74742854">
        <time>2022-07-05T10:48:24Z</time>
      </trkpt>
      <trkpt lat="42.39316" lon="-0.7473772">
        <time>2022-07-05T10:48:26Z</time>
      </trkpt>
      <trkpt lat="42.39308" lon="-0.7473219">
        <time>2022-07-05T10:48:28Z</time>
      </trkpt>
      <trkpt lat="42.393" lon="-0.74725825">
        <time>2022-07-05T10:48:30Z</time>
      </trkpt>
      <trkpt lat="42.392963" lon="-0.7472239">
        <time>2022-07-05T10:48:31Z</time>
      </trkpt>
      <trkpt lat="42.392883" lon="-0.74715626">
        <time>2022-07-05T10:48:33Z</time>
      </trkpt>
      <trkpt lat="42.3928" lon="-0.7470799">
        <time>2022-07-05T10:48:35Z</time>
      </trkpt>
      <trkpt lat="42.39276" lon="-0.7470426">
        <time>2022-07-05T10:48:36Z</time>
      </trkpt>
      <trkpt lat="42.39268" lon="-0.7469679">
        <time>2022-07-05T10:48:38Z</time>
      </trkpt>
      <trkpt lat="42.39264" lon="-0.7469266">
        <time>2022-07-05T10:48:39Z</time>
      </trkpt>
      <trkpt lat="42.392555" lon="-0.7468486">
        <time>2022-07-05T10:48:41Z</time>
      </trkpt>
      <trkpt lat="42.392517" lon="-0.7468146">
        <time>2022-07-05T10:48:42Z</time>
      </trkpt>
      <trkpt lat="42.392437" lon="-0.7467443">
        <time>2022-07-05T10:48:44Z</time>
      </trkpt>
      <trkpt lat="42.39236" lon="-0.7466729">
        <time>2022-07-05T10:48:46Z</time>
      </trkpt>
      <trkpt lat="42.392326" lon="-0.74663925">
        <time>2022-07-05T10:48:47Z</time>
      </trkpt>
      <trkpt lat="42.39226" lon="-0.74657494">
        <time>2022-07-05T10:48:49Z</time>
      </trkpt>
      <trkpt lat="42.392204" lon="-0.74651027">
        <time>2022-07-05T10:48:51Z</time>
      </trkpt>
      <trkpt lat="42.392155" lon="-0.74644494">
        <time>2022-07-05T10:48:53Z</time>
      </trkpt>
      <trkpt lat="42.392105" lon="-0.74638265">
        <time>2022-07-05T10:48:55Z</time>
      </trkpt>
      <trkpt lat="42.392063" lon="-0.7463263">
        <time>2022-07-05T10:48:57Z</time>
      </trkpt>
      <trkpt lat="42.39202" lon="-0.74626696">
        <time>2022-07-05T10:48:59Z</time>
      </trkpt>
      <trkpt lat="42.391983" lon="-0.7462083">
        <time>2022-07-05T10:49:01Z</time>
      </trkpt>
      <trkpt lat="42.391945" lon="-0.746151">
        <time>2022-07-05T10:49:03Z</time>
      </trkpt>
      <trkpt lat="42.391914" lon="-0.7460976">
        <time>2022-07-05T10:49:05Z</time>
      </trkpt>
      <trkpt lat="42.391884" lon="-0.7460453">
        <time>2022-07-05T10:49:07Z</time>
      </trkpt>
      <trkpt lat="42.39185" lon="-0.74599165">
        <time>2022-07-05T10:49:09Z</time>
      </trkpt>
      <trkpt lat="42.39182" lon="-0.745937">
        <time>2022-07-05T10:49:11Z</time>
      </trkpt>
      <trkpt lat="42.39177" lon="-0.745851">
        <time>2022-07-05T10:49:14Z</time>
      </trkpt>
      <trkpt lat="42.391743" lon="-0.74579465">
        <time>2022-07-05T10:49:16Z</time>
      </trkpt>
      <trkpt lat="42.391697" lon="-0.745708">
        <time>2022-07-05T10:49:19Z</time>
      </trkpt>
      <trkpt lat="42.391647" lon="-0.74563104">
        <time>2022-07-05T10:49:22Z</time>
      </trkpt>
      <trkpt lat="42.3916" lon="-0.74555403">
        <time>2022-07-05T10:49:25Z</time>
      </trkpt>
      <trkpt lat="42.39157" lon="-0.7455047">
        <time>2022-07-05T10:49:27Z</time>
      </trkpt>
      <trkpt lat="42.391518" lon="-0.7454193">
        <time>2022-07-05T10:49:30Z</time>
      </trkpt>
      <trkpt lat="42.39149" lon="-0.7453677">
        <time>2022-07-05T10:49:32Z</time>
      </trkpt>
      <trkpt lat="42.391457" lon="-0.74531335">
        <time>2022-07-05T10:49:34Z</time>
      </trkpt>
      <trkpt lat="42.39141" lon="-0.74523306">
        <time>2022-07-05T10:49:37Z</time>
      </trkpt>
      <trkpt lat="42.391365" lon="-0.74514836">
        <time>2022-07-05T10:49:40Z</time>
      </trkpt>
      <trkpt lat="42.39134" lon="-0.74509436">
        <time>2022-07-05T10:49:42Z</time>
      </trkpt>
      <trkpt lat="42.391293" lon="-0.7450177">
        <time>2022-07-05T10:49:45Z</time>
      </trkpt>
      <trkpt lat="42.39125" lon="-0.74494237">
        <time>2022-07-05T10:49:48Z</time>
      </trkpt>
      <trkpt lat="42.391205" lon="-0.74486303">
        <time>2022-07-05T10:49:51Z</time>
      </trkpt>
      <trkpt lat="42.39117" lon="-0.7448067">
        <time>2022-07-05T10:49:53Z</time>
      </trkpt>
      <trkpt lat="42.39114" lon="-0.7447527">
        <time>2022-07-05T10:49:55Z</time>
      </trkpt>
      <trkpt lat="42.391094" lon="-0.74468404">
        <time>2022-07-05T10:49:58Z</time>
      </trkpt>
      <trkpt lat="42.39106" lon="-0.7446187">
        <time>2022-07-05T10:50:01Z</time>
      </trkpt>
      <trkpt lat="42.391026" lon="-0.7445567">
        <time>2022-07-05T10:50:04Z</time>
      </trkpt>
      <trkpt lat="42.390987" lon="-0.7444987">
        <time>2022-07-05T10:50:07Z</time>
      </trkpt>
      <trkpt lat="42.390953" lon="-0.7444387">
        <time>2022-07-05T10:50:10Z</time>
      </trkpt>
      <trkpt lat="42.39092" lon="-0.7443764">
        <time>2022-07-05T10:50:13Z</time>
      </trkpt>
      <trkpt lat="42.39089" lon="-0.7443137">
        <time>2022-07-05T10:50:16Z</time>
      </trkpt>
      <trkpt lat="42.390854" lon="-0.7442504">
        <time>2022-07-05T10:50:19Z</time>
      </trkpt>
      <trkpt lat="42.390823" lon="-0.74418676">
        <time>2022-07-05T10:50:22Z</time>
      </trkpt>
      <trkpt lat="42.390793" lon="-0.7441191">
        <time>2022-07-05T10:50:25Z</time>
      </trkpt>
      <trkpt lat="42.390766" lon="-0.74405146">
        <time>2022-07-05T10:50:28Z</time>
      </trkpt>
      <trkpt lat="42.390743" lon="-0.74398476">
        <time>2022-07-05T10:50:31Z</time>
      </trkpt>
      <trkpt lat="42.390724" lon="-0.74391145">
        <time>2022-07-05T10:50:34Z</time>
      </trkpt>
      <trkpt lat="42.390705" lon="-0.7438358">
        <time>2022-07-05T10:50:37Z</time>
      </trkpt>
      <trkpt lat="42.390686" lon="-0.74376243">
        <time>2022-07-05T10:50:40Z</time>
      </trkpt>
      <trkpt lat="42.39066" lon="-0.7436878">
        <time>2022-07-05T10:50:43Z</time>
      </trkpt>
      <trkpt lat="42.390644" lon="-0.7436088">
        <time>2022-07-05T10:50:46Z</time>
      </trkpt>
      <trkpt lat="42.390633" lon="-0.7435238">
        <time>2022-07-05T10:50:49Z</time>
      </trkpt>
      <trkpt lat="42.390617" lon="-0.7434331">
        <time>2022-07-05T10:50:52Z</time>
      </trkpt>
      <trkpt lat="42.390594" lon="-0.74333745">
        <time>2022-07-05T10:50:55Z</time>
      </trkpt>
      <trkpt lat="42.39057" lon="-0.7432298">
        <time>2022-07-05T10:50:58Z</time>
      </trkpt>
      <trkpt lat="42.390553" lon="-0.7431511">
        <time>2022-07-05T10:51:00Z</time>
      </trkpt>
      <trkpt lat="42.390533" lon="-0.7430665">
        <time>2022-07-05T10:51:02Z</time>
      </trkpt>
      <trkpt lat="42.390514" lon="-0.7429788">
        <time>2022-07-05T10:51:04Z</time>
      </trkpt>
      <trkpt lat="42.39049" lon="-0.7428885">
        <time>2022-07-05T10:51:06Z</time>
      </trkpt>
      <trkpt lat="42.390472" lon="-0.7427948">
        <time>2022-07-05T10:51:08Z</time>
      </trkpt>
      <trkpt lat="42.39045" lon="-0.7426965">
        <time>2022-07-05T10:51:10Z</time>
      </trkpt>
      <trkpt lat="42.390427" lon="-0.74258983">
        <time>2022-07-05T10:51:12Z</time>
      </trkpt>
      <trkpt lat="42.3904" lon="-0.7424705">
        <time>2022-07-05T10:51:14Z</time>
      </trkpt>
      <trkpt lat="42.39037" lon="-0.7423429">
        <time>2022-07-05T10:51:16Z</time>
      </trkpt>
      <trkpt lat="42.39034" lon="-0.7421965">
        <time>2022-07-05T10:51:18Z</time>
      </trkpt>
      <trkpt lat="42.390324" lon="-0.7421252">
        <time>2022-07-05T10:51:19Z</time>
      </trkpt>
      <trkpt lat="42.390312" lon="-0.74205154">
        <time>2022-07-05T10:51:20Z</time>
      </trkpt>
      <trkpt lat="42.390305" lon="-0.74197555">
        <time>2022-07-05T10:51:21Z</time>
      </trkpt>
      <trkpt lat="42.3903" lon="-0.74190056">
        <time>2022-07-05T10:51:22Z</time>
      </trkpt>
      <trkpt lat="42.390305" lon="-0.7418242">
        <time>2022-07-05T10:51:23Z</time>
      </trkpt>
      <trkpt lat="42.390312" lon="-0.7417536">
        <time>2022-07-05T10:51:24Z</time>
      </trkpt>
      <trkpt lat="42.39032" lon="-0.7416889">
        <time>2022-07-05T10:51:25Z</time>
      </trkpt>
      <trkpt lat="42.390343" lon="-0.7415772">
        <time>2022-07-05T10:51:27Z</time>
      </trkpt>
      <trkpt lat="42.390366" lon="-0.7414809">
        <time>2022-07-05T10:51:29Z</time>
      </trkpt>
      <trkpt lat="42.390385" lon="-0.7414082">
        <time>2022-07-05T10:51:31Z</time>
      </trkpt>
      <trkpt lat="42.390396" lon="-0.74135923">
        <time>2022-07-05T10:51:33Z</time>
      </trkpt>
      <trkpt lat="42.390358" lon="-0.74135524">
        <time>2022-07-05T10:51:39Z</time>
      </trkpt>
      <trkpt lat="42.390312" lon="-0.7413916">
        <time>2022-07-05T10:52:13Z</time>
      </trkpt>
      <trkpt lat="42.390293" lon="-0.7413459">
        <time>2022-07-05T10:53:16Z</time>
      </trkpt>
      <trkpt lat="42.390377" lon="-0.74147856">
        <time>2022-07-05T10:56:41Z</time>
      </trkpt>
      <trkpt lat="42.390366" lon="-0.7414932">
        <time>2022-07-05T10:57:21Z</time>
      </trkpt>
      <trkpt lat="42.39032" lon="-0.74148923">
        <time>2022-07-05T10:57:26Z</time>
      </trkpt>
      <trkpt lat="42.390343" lon="-0.7415339">
        <time>2022-07-05T10:57:35Z</time>
      </trkpt>
      <trkpt lat="42.390522" lon="-0.7415549">
        <time>2022-07-05T11:03:52Z</time>
      </trkpt>
      <trkpt lat="42.390575" lon="-0.74155456">
        <time>2022-07-05T11:04:01Z</time>
      </trkpt>
      <trkpt lat="42.390545" lon="-0.74149525">
        <time>2022-07-05T11:04:28Z</time>
      </trkpt>
      <trkpt lat="42.39051" lon="-0.7414429">
        <time>2022-07-05T11:04:31Z</time>
      </trkpt>
      <trkpt lat="42.390377" lon="-0.7414976">
        <time>2022-07-05T11:12:49Z</time>
      </trkpt>
      <trkpt lat="42.390488" lon="-0.7413729">
        <time>2022-07-05T11:17:40Z</time>
      </trkpt>
      <trkpt lat="42.39052" lon="-0.74129725">
        <time>2022-07-05T11:17:43Z</time>
      </trkpt>
      <trkpt lat="42.39055" lon="-0.7412346">
        <time>2022-07-05T11:17:45Z</time>
      </trkpt>
      <trkpt lat="42.39059" lon="-0.74115926">
        <time>2022-07-05T11:17:47Z</time>
      </trkpt>
      <trkpt lat="42.390644" lon="-0.74106795">
        <time>2022-07-05T11:17:49Z</time>
      </trkpt>
      <trkpt lat="42.39071" lon="-0.74096894">
        <time>2022-07-05T11:17:51Z</time>
      </trkpt>
      <trkpt lat="42.390747" lon="-0.74091756">
        <time>2022-07-05T11:17:52Z</time>
      </trkpt>
      <trkpt lat="42.39083" lon="-0.7408013">
        <time>2022-07-05T11:17:54Z</time>
      </trkpt>
      <trkpt lat="42.390873" lon="-0.74074095">
        <time>2022-07-05T11:17:55Z</time>
      </trkpt>
      <trkpt lat="42.390915" lon="-0.7406789">
        <time>2022-07-05T11:17:56Z</time>
      </trkpt>
      <trkpt lat="42.39096" lon="-0.7406159">
        <time>2022-07-05T11:17:57Z</time>
      </trkpt>
      <trkpt lat="42.391003" lon="-0.74055225">
        <time>2022-07-05T11:17:58Z</time>
      </trkpt>
      <trkpt lat="42.39105" lon="-0.7404883">
        <time>2022-07-05T11:17:59Z</time>
      </trkpt>
      <trkpt lat="42.39109" lon="-0.74042225">
        <time>2022-07-05T11:18:00Z</time>
      </trkpt>
      <trkpt lat="42.39113" lon="-0.7403583">
        <time>2022-07-05T11:18:01Z</time>
      </trkpt>
      <trkpt lat="42.391163" lon="-0.7402896">
        <time>2022-07-05T11:18:02Z</time>
      </trkpt>
      <trkpt lat="42.39119" lon="-0.7402116">
        <time>2022-07-05T11:18:03Z</time>
      </trkpt>
      <trkpt lat="42.391212" lon="-0.740132">
        <time>2022-07-05T11:18:04Z</time>
      </trkpt>
      <trkpt lat="42.39123" lon="-0.74005127">
        <time>2022-07-05T11:18:05Z</time>
      </trkpt>
      <trkpt lat="42.391247" lon="-0.73996896">
        <time>2022-07-05T11:18:06Z</time>
      </trkpt>
      <trkpt lat="42.391262" lon="-0.739886">
        <time>2022-07-05T11:18:07Z</time>
      </trkpt>
      <trkpt lat="42.391277" lon="-0.73980266">
        <time>2022-07-05T11:18:08Z</time>
      </trkpt>
      <trkpt lat="42.3913" lon="-0.73963666">
        <time>2022-07-05T11:18:10Z</time>
      </trkpt>
      <trkpt lat="42.391304" lon="-0.73955595">
        <time>2022-07-05T11:18:11Z</time>
      </trkpt>
      <trkpt lat="42.3913" lon="-0.739483">
        <time>2022-07-05T11:18:12Z</time>
      </trkpt>
      <trkpt lat="42.39129" lon="-0.73941165">
        <time>2022-07-05T11:18:13Z</time>
      </trkpt>
      <trkpt lat="42.391273" lon="-0.739338">
        <time>2022-07-05T11:18:14Z</time>
      </trkpt>
      <trkpt lat="42.391247" lon="-0.739268">
        <time>2022-07-05T11:18:15Z</time>
      </trkpt>
      <trkpt lat="42.39122" lon="-0.7392">
        <time>2022-07-05T11:18:16Z</time>
      </trkpt>
      <trkpt lat="42.391193" lon="-0.7391343">
        <time>2022-07-05T11:18:17Z</time>
      </trkpt>
      <trkpt lat="42.391163" lon="-0.7390713">
        <time>2022-07-05T11:18:18Z</time>
      </trkpt>
      <trkpt lat="42.39113" lon="-0.7390133">
        <time>2022-07-05T11:18:19Z</time>
      </trkpt>
      <trkpt lat="42.39109" lon="-0.738962">
        <time>2022-07-05T11:18:20Z</time>
      </trkpt>
      <trkpt lat="42.39105" lon="-0.738919">
        <time>2022-07-05T11:18:21Z</time>
      </trkpt>
      <trkpt lat="42.391003" lon="-0.7388823">
        <time>2022-07-05T11:18:22Z</time>
      </trkpt>
      <trkpt lat="42.390957" lon="-0.73885334">
        <time>2022-07-05T11:18:23Z</time>
      </trkpt>
      <trkpt lat="42.390903" lon="-0.738829">
        <time>2022-07-05T11:18:24Z</time>
      </trkpt>
      <trkpt lat="42.39085" lon="-0.73881036">
        <time>2022-07-05T11:18:25Z</time>
      </trkpt>
      <trkpt lat="42.390797" lon="-0.7387957">
        <time>2022-07-05T11:18:26Z</time>
      </trkpt>
      <trkpt lat="42.390743" lon="-0.738784">
        <time>2022-07-05T11:18:27Z</time>
      </trkpt>
      <trkpt lat="42.39069" lon="-0.7387747">
        <time>2022-07-05T11:18:28Z</time>
      </trkpt>
      <trkpt lat="42.390633" lon="-0.7387667">
        <time>2022-07-05T11:18:29Z</time>
      </trkpt>
      <trkpt lat="42.390575" lon="-0.73876137">
        <time>2022-07-05T11:18:30Z</time>
      </trkpt>
      <trkpt lat="42.39052" lon="-0.738758">
        <time>2022-07-05T11:18:31Z</time>
      </trkpt>
      <trkpt lat="42.390457" lon="-0.73875505">
        <time>2022-07-05T11:18:32Z</time>
      </trkpt>
      <trkpt lat="42.3904" lon="-0.73875237">
        <time>2022-07-05T11:18:33Z</time>
      </trkpt>
      <trkpt lat="42.390343" lon="-0.7387484">
        <time>2022-07-05T11:18:34Z</time>
      </trkpt>
      <trkpt lat="42.390278" lon="-0.7387414">
        <time>2022-07-05T11:18:35Z</time>
      </trkpt>
      <trkpt lat="42.390217" lon="-0.73873407">
        <time>2022-07-05T11:18:36Z</time>
      </trkpt>
      <trkpt lat="42.39016" lon="-0.73872536">
        <time>2022-07-05T11:18:37Z</time>
      </trkpt>
      <trkpt lat="42.3901" lon="-0.7387171">
        <time>2022-07-05T11:18:38Z</time>
      </trkpt>
      <trkpt lat="42.390034" lon="-0.73871005">
        <time>2022-07-05T11:18:39Z</time>
      </trkpt>
      <trkpt lat="42.389977" lon="-0.73870474">
        <time>2022-07-05T11:18:40Z</time>
      </trkpt>
      <trkpt lat="42.38992" lon="-0.73869973">
        <time>2022-07-05T11:18:41Z</time>
      </trkpt>
      <trkpt lat="42.389862" lon="-0.73869604">
        <time>2022-07-05T11:18:42Z</time>
      </trkpt>
      <trkpt lat="42.389805" lon="-0.73869205">
        <time>2022-07-05T11:18:43Z</time>
      </trkpt>
      <trkpt lat="42.389748" lon="-0.73868775">
        <time>2022-07-05T11:18:44Z</time>
      </trkpt>
      <trkpt lat="42.389687" lon="-0.73868304">
        <time>2022-07-05T11:18:45Z</time>
      </trkpt>
      <trkpt lat="42.38963" lon="-0.7386784">
        <time>2022-07-05T11:18:46Z</time>
      </trkpt>
      <trkpt lat="42.389572" lon="-0.73867375">
        <time>2022-07-05T11:18:47Z</time>
      </trkpt>
      <trkpt lat="42.389523" lon="-0.7386701">
        <time>2022-07-05T11:18:48Z</time>
      </trkpt>
      <trkpt lat="42.38947" lon="-0.7386664">
        <time>2022-07-05T11:18:49Z</time>
      </trkpt>
      <trkpt lat="42.389412" lon="-0.7386624">
        <time>2022-07-05T11:18:50Z</time>
      </trkpt>
      <trkpt lat="42.389355" lon="-0.7386578">
        <time>2022-07-05T11:18:51Z</time>
      </trkpt>
      <trkpt lat="42.389297" lon="-0.7386551">
        <time>2022-07-05T11:18:52Z</time>
      </trkpt>
      <trkpt lat="42.38924" lon="-0.73865247">
        <time>2022-07-05T11:18:53Z</time>
      </trkpt>
      <trkpt lat="42.389187" lon="-0.73865014">
        <time>2022-07-05T11:18:54Z</time>
      </trkpt>
      <trkpt lat="42.389133" lon="-0.7386498">
        <time>2022-07-05T11:18:55Z</time>
      </trkpt>
      <trkpt lat="42.38908" lon="-0.7386511">
        <time>2022-07-05T11:18:56Z</time>
      </trkpt>
      <trkpt lat="42.389023" lon="-0.7386531">
        <time>2022-07-05T11:18:57Z</time>
      </trkpt>
      <trkpt lat="42.388966" lon="-0.7386551">
        <time>2022-07-05T11:18:58Z</time>
      </trkpt>
      <trkpt lat="42.388916" lon="-0.7386584">
        <time>2022-07-05T11:18:59Z</time>
      </trkpt>
      <trkpt lat="42.388817" lon="-0.7386701">
        <time>2022-07-05T11:19:01Z</time>
      </trkpt>
      <trkpt lat="42.388706" lon="-0.73868346">
        <time>2022-07-05T11:19:03Z</time>
      </trkpt>
      <trkpt lat="42.38866" lon="-0.73869175">
        <time>2022-07-05T11:19:04Z</time>
      </trkpt>
      <trkpt lat="42.38861" lon="-0.73870176">
        <time>2022-07-05T11:19:05Z</time>
      </trkpt>
      <trkpt lat="42.388504" lon="-0.7387271">
        <time>2022-07-05T11:19:07Z</time>
      </trkpt>
      <trkpt lat="42.388454" lon="-0.7387391">
        <time>2022-07-05T11:19:08Z</time>
      </trkpt>
      <trkpt lat="42.388405" lon="-0.7387511">
        <time>2022-07-05T11:19:09Z</time>
      </trkpt>
      <trkpt lat="42.388306" lon="-0.7387794">
        <time>2022-07-05T11:19:11Z</time>
      </trkpt>
      <trkpt lat="42.388252" lon="-0.73879343">
        <time>2022-07-05T11:19:12Z</time>
      </trkpt>
      <trkpt lat="42.388203" lon="-0.7388058">
        <time>2022-07-05T11:19:13Z</time>
      </trkpt>
      <trkpt lat="42.388107" lon="-0.7388301">
        <time>2022-07-05T11:19:15Z</time>
      </trkpt>
      <trkpt lat="42.38802" lon="-0.7388491">
        <time>2022-07-05T11:19:17Z</time>
      </trkpt>
      <trkpt lat="42.38794" lon="-0.7388631">
        <time>2022-07-05T11:19:19Z</time>
      </trkpt>
      <trkpt lat="42.38787" lon="-0.7388688">
        <time>2022-07-05T11:19:21Z</time>
      </trkpt>
      <trkpt lat="42.387814" lon="-0.7388694">
        <time>2022-07-05T11:19:23Z</time>
      </trkpt>
      <trkpt lat="42.387764" lon="-0.7388688">
        <time>2022-07-05T11:19:25Z</time>
      </trkpt>
      <trkpt lat="42.387688" lon="-0.7388541">
        <time>2022-07-05T11:19:28Z</time>
      </trkpt>
      <trkpt lat="42.38763" lon="-0.73882943">
        <time>2022-07-05T11:19:31Z</time>
      </trkpt>
      <trkpt lat="42.387573" lon="-0.7387721">
        <time>2022-07-05T11:19:35Z</time>
      </trkpt>
      <trkpt lat="42.387512" lon="-0.7387511">
        <time>2022-07-05T11:19:38Z</time>
      </trkpt>
      <trkpt lat="42.38745" lon="-0.73872846">
        <time>2022-07-05T11:19:41Z</time>
      </trkpt>
      <trkpt lat="42.38739" lon="-0.7386921">
        <time>2022-07-05T11:19:44Z</time>
      </trkpt>
      <trkpt lat="42.387325" lon="-0.7386481">
        <time>2022-07-05T11:19:47Z</time>
      </trkpt>
      <trkpt lat="42.38728" lon="-0.7386171">
        <time>2022-07-05T11:19:49Z</time>
      </trkpt>
      <trkpt lat="42.387234" lon="-0.73858446">
        <time>2022-07-05T11:19:51Z</time>
      </trkpt>
      <trkpt lat="42.38716" lon="-0.7385321">
        <time>2022-07-05T11:19:54Z</time>
      </trkpt>
      <trkpt lat="42.38711" lon="-0.7384948">
        <time>2022-07-05T11:19:56Z</time>
      </trkpt>
      <trkpt lat="42.38706" lon="-0.7384568">
        <time>2022-07-05T11:19:58Z</time>
      </trkpt>
      <trkpt lat="42.387005" lon="-0.7384228">
        <time>2022-07-05T11:20:00Z</time>
      </trkpt>
      <trkpt lat="42.38695" lon="-0.7383925">
        <time>2022-07-05T11:20:02Z</time>
      </trkpt>
      <trkpt lat="42.386894" lon="-0.7383638">
        <time>2022-07-05T11:20:04Z</time>
      </trkpt>
      <trkpt lat="42.386833" lon="-0.7383388">
        <time>2022-07-05T11:20:06Z</time>
      </trkpt>
      <trkpt lat="42.38677" lon="-0.7383201">
        <time>2022-07-05T11:20:08Z</time>
      </trkpt>
      <trkpt lat="42.3867" lon="-0.7383045">
        <time>2022-07-05T11:20:10Z</time>
      </trkpt>
      <trkpt lat="42.38664" lon="-0.73829085">
        <time>2022-07-05T11:20:12Z</time>
      </trkpt>
      <trkpt lat="42.386574" lon="-0.73827946">
        <time>2022-07-05T11:20:14Z</time>
      </trkpt>
      <trkpt lat="42.38651" lon="-0.7382658">
        <time>2022-07-05T11:20:16Z</time>
      </trkpt>
      <trkpt lat="42.38645" lon="-0.7382488">
        <time>2022-07-05T11:20:18Z</time>
      </trkpt>
      <trkpt lat="42.386402" lon="-0.73823416">
        <time>2022-07-05T11:20:20Z</time>
      </trkpt>
      <trkpt lat="42.38635" lon="-0.73821986">
        <time>2022-07-05T11:20:22Z</time>
      </trkpt>
      <trkpt lat="42.38629" lon="-0.7382082">
        <time>2022-07-05T11:20:24Z</time>
      </trkpt>
      <trkpt lat="42.386242" lon="-0.7381935">
        <time>2022-07-05T11:20:26Z</time>
      </trkpt>
      <trkpt lat="42.386185" lon="-0.73817754">
        <time>2022-07-05T11:20:29Z</time>
      </trkpt>
      <trkpt lat="42.386078" lon="-0.73813885">
        <time>2022-07-05T11:20:53Z</time>
      </trkpt>
      <trkpt lat="42.386017" lon="-0.7381179">
        <time>2022-07-05T11:20:55Z</time>
      </trkpt>
      <trkpt lat="42.385944" lon="-0.7380945">
        <time>2022-07-05T11:20:57Z</time>
      </trkpt>
      <trkpt lat="42.385868" lon="-0.7380722">
        <time>2022-07-05T11:20:59Z</time>
      </trkpt>
      <trkpt lat="42.38579" lon="-0.7380522">
        <time>2022-07-05T11:21:01Z</time>
      </trkpt>
      <trkpt lat="42.38571" lon="-0.7380329">
        <time>2022-07-05T11:21:03Z</time>
      </trkpt>
      <trkpt lat="42.385635" lon="-0.7380095">
        <time>2022-07-05T11:21:05Z</time>
      </trkpt>
      <trkpt lat="42.38556" lon="-0.7379879">
        <time>2022-07-05T11:21:07Z</time>
      </trkpt>
      <trkpt lat="42.385483" lon="-0.7379672">
        <time>2022-07-05T11:21:09Z</time>
      </trkpt>
      <trkpt lat="42.385406" lon="-0.73795325">
        <time>2022-07-05T11:21:11Z</time>
      </trkpt>
      <trkpt lat="42.38533" lon="-0.7379382">
        <time>2022-07-05T11:21:13Z</time>
      </trkpt>
      <trkpt lat="42.385254" lon="-0.7379182">
        <time>2022-07-05T11:21:15Z</time>
      </trkpt>
      <trkpt lat="42.385178" lon="-0.73790056">
        <time>2022-07-05T11:21:17Z</time>
      </trkpt>
      <trkpt lat="42.3851" lon="-0.73788524">
        <time>2022-07-05T11:21:19Z</time>
      </trkpt>
      <trkpt lat="42.385025" lon="-0.73786956">
        <time>2022-07-05T11:21:21Z</time>
      </trkpt>
      <trkpt lat="42.384945" lon="-0.73785055">
        <time>2022-07-05T11:21:23Z</time>
      </trkpt>
      <trkpt lat="42.38487" lon="-0.73782927">
        <time>2022-07-05T11:21:25Z</time>
      </trkpt>
      <trkpt lat="42.38479" lon="-0.7378059">
        <time>2022-07-05T11:21:27Z</time>
      </trkpt>
      <trkpt lat="42.384712" lon="-0.7377819">
        <time>2022-07-05T11:21:29Z</time>
      </trkpt>
      <trkpt lat="42.384636" lon="-0.7377626">
        <time>2022-07-05T11:21:31Z</time>
      </trkpt>
      <trkpt lat="42.38456" lon="-0.7377439">
        <time>2022-07-05T11:21:33Z</time>
      </trkpt>
      <trkpt lat="42.384483" lon="-0.73772293">
        <time>2022-07-05T11:21:35Z</time>
      </trkpt>
      <trkpt lat="42.3844" lon="-0.7377039">
        <time>2022-07-05T11:21:37Z</time>
      </trkpt>
      <trkpt lat="42.38432" lon="-0.73768795">
        <time>2022-07-05T11:21:39Z</time>
      </trkpt>
      <trkpt lat="42.384228" lon="-0.7376769">
        <time>2022-07-05T11:21:41Z</time>
      </trkpt>
      <trkpt lat="42.38414" lon="-0.73766494">
        <time>2022-07-05T11:21:43Z</time>
      </trkpt>
      <trkpt lat="42.383694" lon="-0.7376009">
        <time>2022-07-05T11:21:51Z</time>
      </trkpt>
      <trkpt lat="42.383686" lon="-0.7376049">
        <time>2022-07-05T11:21:52Z</time>
      </trkpt>
      <trkpt lat="42.38362" lon="-0.7375546">
        <time>2022-07-05T11:21:55Z</time>
      </trkpt>
      <trkpt lat="42.383602" lon="-0.7375199">
        <time>2022-07-05T11:21:58Z</time>
      </trkpt>
      <trkpt lat="42.38366" lon="-0.7374966">
        <time>2022-07-05T11:22:04Z</time>
      </trkpt>
      <trkpt lat="42.383606" lon="-0.73752594">
        <time>2022-07-05T11:22:57Z</time>
      </trkpt>
      <trkpt lat="42.38358" lon="-0.73764026">
        <time>2022-07-05T11:23:00Z</time>
      </trkpt>
      <trkpt lat="42.383553" lon="-0.7377556">
        <time>2022-07-05T11:23:02Z</time>
      </trkpt>
      <trkpt lat="42.383514" lon="-0.73788726">
        <time>2022-07-05T11:23:04Z</time>
      </trkpt>
      <trkpt lat="42.38349" lon="-0.73795825">
        <time>2022-07-05T11:23:05Z</time>
      </trkpt>
      <trkpt lat="42.383465" lon="-0.7380322">
        <time>2022-07-05T11:23:06Z</time>
      </trkpt>
      <trkpt lat="42.38344" lon="-0.7381079">
        <time>2022-07-05T11:23:07Z</time>
      </trkpt>
      <trkpt lat="42.383408" lon="-0.73818755">
        <time>2022-07-05T11:23:08Z</time>
      </trkpt>
      <trkpt lat="42.38338" lon="-0.7382699">
        <time>2022-07-05T11:23:09Z</time>
      </trkpt>
      <trkpt lat="42.38335" lon="-0.73835224">
        <time>2022-07-05T11:23:10Z</time>
      </trkpt>
      <trkpt lat="42.383324" lon="-0.73843426">
        <time>2022-07-05T11:23:11Z</time>
      </trkpt>
      <trkpt lat="42.383293" lon="-0.73851556">
        <time>2022-07-05T11:23:12Z</time>
      </trkpt>
      <trkpt lat="42.383263" lon="-0.73859924">
        <time>2022-07-05T11:23:13Z</time>
      </trkpt>
      <trkpt lat="42.38324" lon="-0.7386832">
        <time>2022-07-05T11:23:14Z</time>
      </trkpt>
      <trkpt lat="42.38322" lon="-0.7387622">
        <time>2022-07-05T11:23:15Z</time>
      </trkpt>
      <trkpt lat="42.3832" lon="-0.73884153">
        <time>2022-07-05T11:23:16Z</time>
      </trkpt>
      <trkpt lat="42.383167" lon="-0.73900056">
        <time>2022-07-05T11:23:18Z</time>
      </trkpt>
      <trkpt lat="42.383156" lon="-0.7390799">
        <time>2022-07-05T11:23:19Z</time>
      </trkpt>
      <trkpt lat="42.38315" lon="-0.7391582">
        <time>2022-07-05T11:23:20Z</time>
      </trkpt>
      <trkpt lat="42.38314" lon="-0.7392355">
        <time>2022-07-05T11:23:21Z</time>
      </trkpt>
      <trkpt lat="42.383137" lon="-0.73931587">
        <time>2022-07-05T11:23:22Z</time>
      </trkpt>
      <trkpt lat="42.383137" lon="-0.7393912">
        <time>2022-07-05T11:23:23Z</time>
      </trkpt>
      <trkpt lat="42.38314" lon="-0.73946154">
        <time>2022-07-05T11:23:24Z</time>
      </trkpt>
      <trkpt lat="42.38315" lon="-0.73952687">
        <time>2022-07-05T11:23:25Z</time>
      </trkpt>
      <trkpt lat="42.38316" lon="-0.73964584">
        <time>2022-07-05T11:23:27Z</time>
      </trkpt>
      <trkpt lat="42.383167" lon="-0.7397522">
        <time>2022-07-05T11:23:29Z</time>
      </trkpt>
      <trkpt lat="42.38318" lon="-0.7398512">
        <time>2022-07-05T11:23:31Z</time>
      </trkpt>
      <trkpt lat="42.383186" lon="-0.73994154">
        <time>2022-07-05T11:23:33Z</time>
      </trkpt>
      <trkpt lat="42.38319" lon="-0.7400259">
        <time>2022-07-05T11:23:35Z</time>
      </trkpt>
      <trkpt lat="42.383194" lon="-0.7401092">
        <time>2022-07-05T11:23:37Z</time>
      </trkpt>
      <trkpt lat="42.383198" lon="-0.7401902">
        <time>2022-07-05T11:23:39Z</time>
      </trkpt>
      <trkpt lat="42.383198" lon="-0.7402695">
        <time>2022-07-05T11:23:41Z</time>
      </trkpt>
      <trkpt lat="42.383205" lon="-0.7403505">
        <time>2022-07-05T11:23:43Z</time>
      </trkpt>
      <trkpt lat="42.38321" lon="-0.74043185">
        <time>2022-07-05T11:23:45Z</time>
      </trkpt>
      <trkpt lat="42.383213" lon="-0.74051416">
        <time>2022-07-05T11:23:47Z</time>
      </trkpt>
      <trkpt lat="42.38321" lon="-0.74059784">
        <time>2022-07-05T11:23:49Z</time>
      </trkpt>
      <trkpt lat="42.383205" lon="-0.7406835">
        <time>2022-07-05T11:23:51Z</time>
      </trkpt>
      <trkpt lat="42.383205" lon="-0.74076915">
        <time>2022-07-05T11:23:53Z</time>
      </trkpt>
      <trkpt lat="42.3832" lon="-0.7408538">
        <time>2022-07-05T11:23:55Z</time>
      </trkpt>
      <trkpt lat="42.383194" lon="-0.7409375">
        <time>2022-07-05T11:23:57Z</time>
      </trkpt>
      <trkpt lat="42.383183" lon="-0.7410271">
        <time>2022-07-05T11:23:59Z</time>
      </trkpt>
      <trkpt lat="42.38318" lon="-0.7411175">
        <time>2022-07-05T11:24:01Z</time>
      </trkpt>
      <trkpt lat="42.38317" lon="-0.7412071">
        <time>2022-07-05T11:24:03Z</time>
      </trkpt>
      <trkpt lat="42.383167" lon="-0.7412971">
        <time>2022-07-05T11:24:05Z</time>
      </trkpt>
      <trkpt lat="42.38316" lon="-0.74139076">
        <time>2022-07-05T11:24:07Z</time>
      </trkpt>
      <trkpt lat="42.383152" lon="-0.74148744">
        <time>2022-07-05T11:24:09Z</time>
      </trkpt>
      <trkpt lat="42.383144" lon="-0.7415821">
        <time>2022-07-05T11:24:11Z</time>
      </trkpt>
      <trkpt lat="42.383137" lon="-0.7416791">
        <time>2022-07-05T11:24:13Z</time>
      </trkpt>
      <trkpt lat="42.38313" lon="-0.7417761">
        <time>2022-07-05T11:24:15Z</time>
      </trkpt>
      <trkpt lat="42.383114" lon="-0.74187243">
        <time>2022-07-05T11:24:17Z</time>
      </trkpt>
      <trkpt lat="42.383095" lon="-0.7419671">
        <time>2022-07-05T11:24:19Z</time>
      </trkpt>
      <trkpt lat="42.383076" lon="-0.7420621">
        <time>2022-07-05T11:24:21Z</time>
      </trkpt>
      <trkpt lat="42.38306" lon="-0.74216443">
        <time>2022-07-05T11:24:23Z</time>
      </trkpt>
      <trkpt lat="42.383038" lon="-0.74226373">
        <time>2022-07-05T11:24:25Z</time>
      </trkpt>
      <trkpt lat="42.383015" lon="-0.7423614">
        <time>2022-07-05T11:24:27Z</time>
      </trkpt>
      <trkpt lat="42.38299" lon="-0.7424574">
        <time>2022-07-05T11:24:29Z</time>
      </trkpt>
      <trkpt lat="42.38296" lon="-0.7425501">
        <time>2022-07-05T11:24:31Z</time>
      </trkpt>
      <trkpt lat="42.38293" lon="-0.7426394">
        <time>2022-07-05T11:24:33Z</time>
      </trkpt>
      <trkpt lat="42.3829" lon="-0.74272203">
        <time>2022-07-05T11:24:35Z</time>
      </trkpt>
      <trkpt lat="42.382874" lon="-0.74280006">
        <time>2022-07-05T11:24:37Z</time>
      </trkpt>
      <trkpt lat="42.382847" lon="-0.7428727">
        <time>2022-07-05T11:24:39Z</time>
      </trkpt>
      <trkpt lat="42.382816" lon="-0.74294007">
        <time>2022-07-05T11:24:41Z</time>
      </trkpt>
      <trkpt lat="42.382786" lon="-0.7430031">
        <time>2022-07-05T11:24:43Z</time>
      </trkpt>
      <trkpt lat="42.382755" lon="-0.7430644">
        <time>2022-07-05T11:24:45Z</time>
      </trkpt>
      <trkpt lat="42.38272" lon="-0.74312574">
        <time>2022-07-05T11:24:47Z</time>
      </trkpt>
      <trkpt lat="42.382687" lon="-0.74318904">
        <time>2022-07-05T11:24:49Z</time>
      </trkpt>
      <trkpt lat="42.38266" lon="-0.7432537">
        <time>2022-07-05T11:24:51Z</time>
      </trkpt>
      <trkpt lat="42.382633" lon="-0.7433184">
        <time>2022-07-05T11:24:53Z</time>
      </trkpt>
      <trkpt lat="42.382618" lon="-0.74338233">
        <time>2022-07-05T11:24:55Z</time>
      </trkpt>
      <trkpt lat="42.382603" lon="-0.74347705">
        <time>2022-07-05T11:24:58Z</time>
      </trkpt>
      <trkpt lat="42.382587" lon="-0.7435653">
        <time>2022-07-05T11:25:01Z</time>
      </trkpt>
      <trkpt lat="42.382576" lon="-0.743649">
        <time>2022-07-05T11:25:04Z</time>
      </trkpt>
      <trkpt lat="42.382553" lon="-0.74373037">
        <time>2022-07-05T11:25:07Z</time>
      </trkpt>
      <trkpt lat="42.38253" lon="-0.74381465">
        <time>2022-07-05T11:25:10Z</time>
      </trkpt>
      <trkpt lat="42.382507" lon="-0.743895">
        <time>2022-07-05T11:25:13Z</time>
      </trkpt>
      <trkpt lat="42.382484" lon="-0.743974">
        <time>2022-07-05T11:25:16Z</time>
      </trkpt>
      <trkpt lat="42.382458" lon="-0.74405235">
        <time>2022-07-05T11:25:19Z</time>
      </trkpt>
      <trkpt lat="42.38243" lon="-0.74413264">
        <time>2022-07-05T11:25:22Z</time>
      </trkpt>
      <trkpt lat="42.38241" lon="-0.74421763">
        <time>2022-07-05T11:25:25Z</time>
      </trkpt>
      <trkpt lat="42.38238" lon="-0.7443153">
        <time>2022-07-05T11:25:28Z</time>
      </trkpt>
      <trkpt lat="42.382355" lon="-0.74439234">
        <time>2022-07-05T11:25:30Z</time>
      </trkpt>
      <trkpt lat="42.382324" lon="-0.74448735">
        <time>2022-07-05T11:25:32Z</time>
      </trkpt>
      <trkpt lat="42.382282" lon="-0.7446026">
        <time>2022-07-05T11:25:34Z</time>
      </trkpt>
      <trkpt lat="42.38226" lon="-0.744668">
        <time>2022-07-05T11:25:35Z</time>
      </trkpt>
      <trkpt lat="42.382233" lon="-0.7447376">
        <time>2022-07-05T11:25:36Z</time>
      </trkpt>
      <trkpt lat="42.382206" lon="-0.74481195">
        <time>2022-07-05T11:25:37Z</time>
      </trkpt>
      <trkpt lat="42.382175" lon="-0.74489">
        <time>2022-07-05T11:25:38Z</time>
      </trkpt>
      <trkpt lat="42.382133" lon="-0.744977">
        <time>2022-07-05T11:25:39Z</time>
      </trkpt>
      <trkpt lat="42.382095" lon="-0.74505866">
        <time>2022-07-05T11:25:40Z</time>
      </trkpt>
      <trkpt lat="42.38205" lon="-0.74514127">
        <time>2022-07-05T11:25:41Z</time>
      </trkpt>
      <trkpt lat="42.381996" lon="-0.7452246">
        <time>2022-07-05T11:25:42Z</time>
      </trkpt>
      <trkpt lat="42.38194" lon="-0.74530727">
        <time>2022-07-05T11:25:43Z</time>
      </trkpt>
      <trkpt lat="42.381874" lon="-0.7453893">
        <time>2022-07-05T11:25:44Z</time>
      </trkpt>
      <trkpt lat="42.381805" lon="-0.74547225">
        <time>2022-07-05T11:25:45Z</time>
      </trkpt>
      <trkpt lat="42.381737" lon="-0.7455536">
        <time>2022-07-05T11:25:46Z</time>
      </trkpt>
      <trkpt lat="42.38166" lon="-0.74563324">
        <time>2022-07-05T11:25:47Z</time>
      </trkpt>
      <trkpt lat="42.38158" lon="-0.7457123">
        <time>2022-07-05T11:25:48Z</time>
      </trkpt>
      <trkpt lat="42.381496" lon="-0.74579024">
        <time>2022-07-05T11:25:49Z</time>
      </trkpt>
      <trkpt lat="42.38141" lon="-0.7458679">
        <time>2022-07-05T11:25:50Z</time>
      </trkpt>
      <trkpt lat="42.38132" lon="-0.74594694">
        <time>2022-07-05T11:25:51Z</time>
      </trkpt>
      <trkpt lat="42.381237" lon="-0.7460213">
        <time>2022-07-05T11:25:52Z</time>
      </trkpt>
      <trkpt lat="42.38114" lon="-0.7461009">
        <time>2022-07-05T11:25:53Z</time>
      </trkpt>
      <trkpt lat="42.381046" lon="-0.74617755">
        <time>2022-07-05T11:25:54Z</time>
      </trkpt>
      <trkpt lat="42.380947" lon="-0.7462539">
        <time>2022-07-05T11:25:55Z</time>
      </trkpt>
      <trkpt lat="42.380848" lon="-0.74632925">
        <time>2022-07-05T11:25:56Z</time>
      </trkpt>
      <trkpt lat="42.380745" lon="-0.7464046">
        <time>2022-07-05T11:25:57Z</time>
      </trkpt>
      <trkpt lat="42.380646" lon="-0.74647754">
        <time>2022-07-05T11:25:58Z</time>
      </trkpt>
      <trkpt lat="42.38054" lon="-0.7465472">
        <time>2022-07-05T11:25:59Z</time>
      </trkpt>
      <trkpt lat="42.380436" lon="-0.7466132">
        <time>2022-07-05T11:26:00Z</time>
      </trkpt>
      <trkpt lat="42.380333" lon="-0.7466762">
        <time>2022-07-05T11:26:01Z</time>
      </trkpt>
      <trkpt lat="42.380226" lon="-0.7467356">
        <time>2022-07-05T11:26:02Z</time>
      </trkpt>
      <trkpt lat="42.380123" lon="-0.7467919">
        <time>2022-07-05T11:26:03Z</time>
      </trkpt>
      <trkpt lat="42.38002" lon="-0.74684423">
        <time>2022-07-05T11:26:04Z</time>
      </trkpt>
      <trkpt lat="42.379913" lon="-0.7468939">
        <time>2022-07-05T11:26:05Z</time>
      </trkpt>
      <trkpt lat="42.37981" lon="-0.7469392">
        <time>2022-07-05T11:26:06Z</time>
      </trkpt>
      <trkpt lat="42.379707" lon="-0.74697953">
        <time>2022-07-05T11:26:07Z</time>
      </trkpt>
      <trkpt lat="42.37961" lon="-0.7470132">
        <time>2022-07-05T11:26:08Z</time>
      </trkpt>
      <trkpt lat="42.379505" lon="-0.7470405">
        <time>2022-07-05T11:26:09Z</time>
      </trkpt>
      <trkpt lat="42.379406" lon="-0.7470625">
        <time>2022-07-05T11:26:10Z</time>
      </trkpt>
      <trkpt lat="42.379307" lon="-0.74708086">
        <time>2022-07-05T11:26:11Z</time>
      </trkpt>
      <trkpt lat="42.379208" lon="-0.74710053">
        <time>2022-07-05T11:26:12Z</time>
      </trkpt>
      <trkpt lat="42.37911" lon="-0.74712616">
        <time>2022-07-05T11:26:13Z</time>
      </trkpt>
      <trkpt lat="42.379013" lon="-0.74716085">
        <time>2022-07-05T11:26:14Z</time>
      </trkpt>
      <trkpt lat="42.378918" lon="-0.7472032">
        <time>2022-07-05T11:26:15Z</time>
      </trkpt>
      <trkpt lat="42.378826" lon="-0.7472492">
        <time>2022-07-05T11:26:16Z</time>
      </trkpt>
      <trkpt lat="42.378735" lon="-0.7472935">
        <time>2022-07-05T11:26:17Z</time>
      </trkpt>
      <trkpt lat="42.378643" lon="-0.74733186">
        <time>2022-07-05T11:26:18Z</time>
      </trkpt>
      <trkpt lat="42.37855" lon="-0.74736184">
        <time>2022-07-05T11:26:19Z</time>
      </trkpt>
      <trkpt lat="42.37846" lon="-0.74738413">
        <time>2022-07-05T11:26:20Z</time>
      </trkpt>
      <trkpt lat="42.378365" lon="-0.74740046">
        <time>2022-07-05T11:26:21Z</time>
      </trkpt>
      <trkpt lat="42.378273" lon="-0.74741316">
        <time>2022-07-05T11:26:22Z</time>
      </trkpt>
      <trkpt lat="42.37818" lon="-0.7474205">
        <time>2022-07-05T11:26:23Z</time>
      </trkpt>
      <trkpt lat="42.378086" lon="-0.74742347">
        <time>2022-07-05T11:26:24Z</time>
      </trkpt>
      <trkpt lat="42.377903" lon="-0.7474088">
        <time>2022-07-05T11:26:26Z</time>
      </trkpt>
      <trkpt lat="42.37781" lon="-0.7473868">
        <time>2022-07-05T11:26:27Z</time>
      </trkpt>
      <trkpt lat="42.377724" lon="-0.7473545">
        <time>2022-07-05T11:26:28Z</time>
      </trkpt>
      <trkpt lat="42.377636" lon="-0.7473148">
        <time>2022-07-05T11:26:29Z</time>
      </trkpt>
      <trkpt lat="42.37755" lon="-0.7472708">
        <time>2022-07-05T11:26:30Z</time>
      </trkpt>
      <trkpt lat="42.37746" lon="-0.7472248">
        <time>2022-07-05T11:26:31Z</time>
      </trkpt>
      <trkpt lat="42.377373" lon="-0.7471768">
        <time>2022-07-05T11:26:32Z</time>
      </trkpt>
      <trkpt lat="42.377285" lon="-0.7471255">
        <time>2022-07-05T11:26:33Z</time>
      </trkpt>
      <trkpt lat="42.377205" lon="-0.7470692">
        <time>2022-07-05T11:26:34Z</time>
      </trkpt>
      <trkpt lat="42.37713" lon="-0.74700683">
        <time>2022-07-05T11:26:35Z</time>
      </trkpt>
      <trkpt lat="42.377052" lon="-0.7469405">
        <time>2022-07-05T11:26:36Z</time>
      </trkpt>
      <trkpt lat="42.376976" lon="-0.74687487">
        <time>2022-07-05T11:26:37Z</time>
      </trkpt>
      <trkpt lat="42.376904" lon="-0.7468195">
        <time>2022-07-05T11:26:38Z</time>
      </trkpt>
      <trkpt lat="42.376823" lon="-0.7467792">
        <time>2022-07-05T11:26:39Z</time>
      </trkpt>
      <trkpt lat="42.376743" lon="-0.74675786">
        <time>2022-07-05T11:26:40Z</time>
      </trkpt>
      <trkpt lat="42.376667" lon="-0.74675083">
        <time>2022-07-05T11:26:41Z</time>
      </trkpt>
      <trkpt lat="42.376587" lon="-0.7467512">
        <time>2022-07-05T11:26:42Z</time>
      </trkpt>
      <trkpt lat="42.37651" lon="-0.74675155">
        <time>2022-07-05T11:26:43Z</time>
      </trkpt>
      <trkpt lat="42.376434" lon="-0.74674517">
        <time>2022-07-05T11:26:44Z</time>
      </trkpt>
      <trkpt lat="42.37636" lon="-0.74672717">
        <time>2022-07-05T11:26:45Z</time>
      </trkpt>
      <trkpt lat="42.376293" lon="-0.74669486">
        <time>2022-07-05T11:26:46Z</time>
      </trkpt>
      <trkpt lat="42.376225" lon="-0.7466509">
        <time>2022-07-05T11:26:47Z</time>
      </trkpt>
      <trkpt lat="42.376163" lon="-0.74659586">
        <time>2022-07-05T11:26:48Z</time>
      </trkpt>
      <trkpt lat="42.376102" lon="-0.74653286">
        <time>2022-07-05T11:26:49Z</time>
      </trkpt>
      <trkpt lat="42.376045" lon="-0.7464562">
        <time>2022-07-05T11:26:50Z</time>
      </trkpt>
      <trkpt lat="42.375996" lon="-0.7463782">
        <time>2022-07-05T11:26:51Z</time>
      </trkpt>
      <trkpt lat="42.37595" lon="-0.74629486">
        <time>2022-07-05T11:26:52Z</time>
      </trkpt>
      <trkpt lat="42.375908" lon="-0.74620587">
        <time>2022-07-05T11:26:53Z</time>
      </trkpt>
      <trkpt lat="42.375862" lon="-0.74611557">
        <time>2022-07-05T11:26:54Z</time>
      </trkpt>
      <trkpt lat="42.375824" lon="-0.7460242">
        <time>2022-07-05T11:26:55Z</time>
      </trkpt>
      <trkpt lat="42.375782" lon="-0.7459362">
        <time>2022-07-05T11:26:56Z</time>
      </trkpt>
      <trkpt lat="42.375736" lon="-0.7458539">
        <time>2022-07-05T11:26:57Z</time>
      </trkpt>
      <trkpt lat="42.375687" lon="-0.7457779">
        <time>2022-07-05T11:26:58Z</time>
      </trkpt>
      <trkpt lat="42.375633" lon="-0.74570924">
        <time>2022-07-05T11:26:59Z</time>
      </trkpt>
      <trkpt lat="42.375576" lon="-0.7456479">
        <time>2022-07-05T11:27:00Z</time>
      </trkpt>
      <trkpt lat="42.375523" lon="-0.7455929">
        <time>2022-07-05T11:27:01Z</time>
      </trkpt>
      <trkpt lat="42.37546" lon="-0.7455429">
        <time>2022-07-05T11:27:02Z</time>
      </trkpt>
      <trkpt lat="42.3754" lon="-0.74549824">
        <time>2022-07-05T11:27:03Z</time>
      </trkpt>
      <trkpt lat="42.37534" lon="-0.7454566">
        <time>2022-07-05T11:27:04Z</time>
      </trkpt>
      <trkpt lat="42.375275" lon="-0.7454179">
        <time>2022-07-05T11:27:05Z</time>
      </trkpt>
      <trkpt lat="42.37521" lon="-0.7453806">
        <time>2022-07-05T11:27:06Z</time>
      </trkpt>
      <trkpt lat="42.375145" lon="-0.74534225">
        <time>2022-07-05T11:27:07Z</time>
      </trkpt>
      <trkpt lat="42.375084" lon="-0.7453033">
        <time>2022-07-05T11:27:08Z</time>
      </trkpt>
      <trkpt lat="42.37502" lon="-0.7452629">
        <time>2022-07-05T11:27:09Z</time>
      </trkpt>
      <trkpt lat="42.37496" lon="-0.74522126">
        <time>2022-07-05T11:27:10Z</time>
      </trkpt>
      <trkpt lat="42.374905" lon="-0.7451766">
        <time>2022-07-05T11:27:11Z</time>
      </trkpt>
      <trkpt lat="42.374847" lon="-0.74513096">
        <time>2022-07-05T11:27:12Z</time>
      </trkpt>
      <trkpt lat="42.374794" lon="-0.7450826">
        <time>2022-07-05T11:27:13Z</time>
      </trkpt>
      <trkpt lat="42.37474" lon="-0.74503225">
        <time>2022-07-05T11:27:14Z</time>
      </trkpt>
      <trkpt lat="42.374687" lon="-0.7449786">
        <time>2022-07-05T11:27:15Z</time>
      </trkpt>
      <trkpt lat="42.374634" lon="-0.74492294">
        <time>2022-07-05T11:27:16Z</time>
      </trkpt>
      <trkpt lat="42.37458" lon="-0.7448653">
        <time>2022-07-05T11:27:17Z</time>
      </trkpt>
      <trkpt lat="42.37453" lon="-0.74480563">
        <time>2022-07-05T11:27:18Z</time>
      </trkpt>
      <trkpt lat="42.37448" lon="-0.74474496">
        <time>2022-07-05T11:27:19Z</time>
      </trkpt>
      <trkpt lat="42.37443" lon="-0.74468297">
        <time>2022-07-05T11:27:20Z</time>
      </trkpt>
      <trkpt lat="42.374382" lon="-0.7446203">
        <time>2022-07-05T11:27:21Z</time>
      </trkpt>
      <trkpt lat="42.374332" lon="-0.7445577">
        <time>2022-07-05T11:27:22Z</time>
      </trkpt>
      <trkpt lat="42.374283" lon="-0.744495">
        <time>2022-07-05T11:27:23Z</time>
      </trkpt>
      <trkpt lat="42.374233" lon="-0.74443233">
        <time>2022-07-05T11:27:24Z</time>
      </trkpt>
      <trkpt lat="42.374184" lon="-0.74436903">
        <time>2022-07-05T11:27:25Z</time>
      </trkpt>
      <trkpt lat="42.374138" lon="-0.744305">
        <time>2022-07-05T11:27:26Z</time>
      </trkpt>
      <trkpt lat="42.37409" lon="-0.7442407">
        <time>2022-07-05T11:27:27Z</time>
      </trkpt>
      <trkpt lat="42.373993" lon="-0.744113">
        <time>2022-07-05T11:27:29Z</time>
      </trkpt>
      <trkpt lat="42.373947" lon="-0.74404967">
        <time>2022-07-05T11:27:30Z</time>
      </trkpt>
      <trkpt lat="42.373898" lon="-0.7439857">
        <time>2022-07-05T11:27:31Z</time>
      </trkpt>
      <trkpt lat="42.373848" lon="-0.74392104">
        <time>2022-07-05T11:27:32Z</time>
      </trkpt>
      <trkpt lat="42.3738" lon="-0.7438557">
        <time>2022-07-05T11:27:33Z</time>
      </trkpt>
      <trkpt lat="42.37375" lon="-0.7437917">
        <time>2022-07-05T11:27:34Z</time>
      </trkpt>
      <trkpt lat="42.373703" lon="-0.74372804">
        <time>2022-07-05T11:27:35Z</time>
      </trkpt>
      <trkpt lat="42.373653" lon="-0.7436637">
        <time>2022-07-05T11:27:36Z</time>
      </trkpt>
      <trkpt lat="42.373604" lon="-0.7436001">
        <time>2022-07-05T11:27:37Z</time>
      </trkpt>
      <trkpt lat="42.373554" lon="-0.7435357">
        <time>2022-07-05T11:27:38Z</time>
      </trkpt>
      <trkpt lat="42.373505" lon="-0.7434707">
        <time>2022-07-05T11:27:39Z</time>
      </trkpt>
      <trkpt lat="42.37346" lon="-0.74340606">
        <time>2022-07-05T11:27:40Z</time>
      </trkpt>
      <trkpt lat="42.37341" lon="-0.7433424">
        <time>2022-07-05T11:27:41Z</time>
      </trkpt>
      <trkpt lat="42.37336" lon="-0.74328005">
        <time>2022-07-05T11:27:42Z</time>
      </trkpt>
      <trkpt lat="42.373314" lon="-0.7432184">
        <time>2022-07-05T11:27:43Z</time>
      </trkpt>
      <trkpt lat="42.37322" lon="-0.7430941">
        <time>2022-07-05T11:27:45Z</time>
      </trkpt>
      <trkpt lat="42.373173" lon="-0.74303573">
        <time>2022-07-05T11:27:46Z</time>
      </trkpt>
      <trkpt lat="42.373127" lon="-0.74297774">
        <time>2022-07-05T11:27:47Z</time>
      </trkpt>
      <trkpt lat="42.373085" lon="-0.74292076">
        <time>2022-07-05T11:27:48Z</time>
      </trkpt>
      <trkpt lat="42.373043" lon="-0.74286544">
        <time>2022-07-05T11:27:49Z</time>
      </trkpt>
      <trkpt lat="42.373005" lon="-0.74281406">
        <time>2022-07-05T11:27:50Z</time>
      </trkpt>
      <trkpt lat="42.372963" lon="-0.7427594">
        <time>2022-07-05T11:27:51Z</time>
      </trkpt>
      <trkpt lat="42.37292" lon="-0.74270576">
        <time>2022-07-05T11:27:52Z</time>
      </trkpt>
      <trkpt lat="42.372883" lon="-0.74265146">
        <time>2022-07-05T11:27:53Z</time>
      </trkpt>
      <trkpt lat="42.372845" lon="-0.7425971">
        <time>2022-07-05T11:27:54Z</time>
      </trkpt>
      <trkpt lat="42.372807" lon="-0.7425421">
        <time>2022-07-05T11:27:55Z</time>
      </trkpt>
      <trkpt lat="42.37277" lon="-0.7424848">
        <time>2022-07-05T11:27:56Z</time>
      </trkpt>
      <trkpt lat="42.37273" lon="-0.74242646">
        <time>2022-07-05T11:27:57Z</time>
      </trkpt>
      <trkpt lat="42.372692" lon="-0.7423668">
        <time>2022-07-05T11:27:58Z</time>
      </trkpt>
      <trkpt lat="42.372654" lon="-0.74230677">
        <time>2022-07-05T11:27:59Z</time>
      </trkpt>
      <trkpt lat="42.372616" lon="-0.7422468">
        <time>2022-07-05T11:28:00Z</time>
      </trkpt>
      <trkpt lat="42.37258" lon="-0.7421878">
        <time>2022-07-05T11:28:01Z</time>
      </trkpt>
      <trkpt lat="42.372543" lon="-0.74212915">
        <time>2022-07-05T11:28:02Z</time>
      </trkpt>
      <trkpt lat="42.37251" lon="-0.74207014">
        <time>2022-07-05T11:28:03Z</time>
      </trkpt>
      <trkpt lat="42.372475" lon="-0.74201244">
        <time>2022-07-05T11:28:04Z</time>
      </trkpt>
      <trkpt lat="42.372437" lon="-0.7419561">
        <time>2022-07-05T11:28:05Z</time>
      </trkpt>
      <trkpt lat="42.372406" lon="-0.74189913">
        <time>2022-07-05T11:28:06Z</time>
      </trkpt>
      <trkpt lat="42.372375" lon="-0.74184215">
        <time>2022-07-05T11:28:07Z</time>
      </trkpt>
      <trkpt lat="42.37232" lon="-0.7417298">
        <time>2022-07-05T11:28:09Z</time>
      </trkpt>
      <trkpt lat="42.372288" lon="-0.7416748">
        <time>2022-07-05T11:28:10Z</time>
      </trkpt>
      <trkpt lat="42.372227" lon="-0.74156445">
        <time>2022-07-05T11:28:12Z</time>
      </trkpt>
      <trkpt lat="42.3722" lon="-0.7415078">
        <time>2022-07-05T11:28:13Z</time>
      </trkpt>
      <trkpt lat="42.37215" lon="-0.7413875">
        <time>2022-07-05T11:28:15Z</time>
      </trkpt>
      <trkpt lat="42.372124" lon="-0.7413245">
        <time>2022-07-05T11:28:16Z</time>
      </trkpt>
      <trkpt lat="42.372086" lon="-0.74119383">
        <time>2022-07-05T11:28:18Z</time>
      </trkpt>
      <trkpt lat="42.37207" lon="-0.7411245">
        <time>2022-07-05T11:28:19Z</time>
      </trkpt>
      <trkpt lat="42.37205" lon="-0.7410498">
        <time>2022-07-05T11:28:20Z</time>
      </trkpt>
      <trkpt lat="42.372032" lon="-0.7409792">
        <time>2022-07-05T11:28:21Z</time>
      </trkpt>
      <trkpt lat="42.372013" lon="-0.74090654">
        <time>2022-07-05T11:28:22Z</time>
      </trkpt>
      <trkpt lat="42.371994" lon="-0.74083185">
        <time>2022-07-05T11:28:23Z</time>
      </trkpt>
      <trkpt lat="42.37197" lon="-0.7407565">
        <time>2022-07-05T11:28:24Z</time>
      </trkpt>
      <trkpt lat="42.371952" lon="-0.7406802">
        <time>2022-07-05T11:28:25Z</time>
      </trkpt>
      <trkpt lat="42.37193" lon="-0.74060285">
        <time>2022-07-05T11:28:26Z</time>
      </trkpt>
      <trkpt lat="42.371902" lon="-0.7405235">
        <time>2022-07-05T11:28:27Z</time>
      </trkpt>
      <trkpt lat="42.37188" lon="-0.7404475">
        <time>2022-07-05T11:28:28Z</time>
      </trkpt>
      <trkpt lat="42.371853" lon="-0.7403622">
        <time>2022-07-05T11:28:29Z</time>
      </trkpt>
      <trkpt lat="42.371788" lon="-0.74019057">
        <time>2022-07-05T11:28:31Z</time>
      </trkpt>
      <trkpt lat="42.37175" lon="-0.74011356">
        <time>2022-07-05T11:28:32Z</time>
      </trkpt>
      <trkpt lat="42.3717" lon="-0.74004054">
        <time>2022-07-05T11:28:33Z</time>
      </trkpt>
      <trkpt lat="42.37164" lon="-0.7399839">
        <time>2022-07-05T11:28:34Z</time>
      </trkpt>
      <trkpt lat="42.37157" lon="-0.7399446">
        <time>2022-07-05T11:28:35Z</time>
      </trkpt>
      <trkpt lat="42.371494" lon="-0.73992157">
        <time>2022-07-05T11:28:36Z</time>
      </trkpt>
      <trkpt lat="42.371418" lon="-0.7399129">
        <time>2022-07-05T11:28:37Z</time>
      </trkpt>
      <trkpt lat="42.371338" lon="-0.7399132">
        <time>2022-07-05T11:28:38Z</time>
      </trkpt>
      <trkpt lat="42.371254" lon="-0.7399229">
        <time>2022-07-05T11:28:39Z</time>
      </trkpt>
      <trkpt lat="42.37116" lon="-0.7399402">
        <time>2022-07-05T11:28:40Z</time>
      </trkpt>
      <trkpt lat="42.371063" lon="-0.73996323">
        <time>2022-07-05T11:28:41Z</time>
      </trkpt>
      <trkpt lat="42.370964" lon="-0.73999155">
        <time>2022-07-05T11:28:42Z</time>
      </trkpt>
      <trkpt lat="42.37086" lon="-0.7400219">
        <time>2022-07-05T11:28:43Z</time>
      </trkpt>
      <trkpt lat="42.37076" lon="-0.7400482">
        <time>2022-07-05T11:28:44Z</time>
      </trkpt>
      <trkpt lat="42.370663" lon="-0.7400672">
        <time>2022-07-05T11:28:45Z</time>
      </trkpt>
      <trkpt lat="42.37056" lon="-0.74007255">
        <time>2022-07-05T11:28:46Z</time>
      </trkpt>
      <trkpt lat="42.37046" lon="-0.7400615">
        <time>2022-07-05T11:28:47Z</time>
      </trkpt>
      <trkpt lat="42.37036" lon="-0.7400322">
        <time>2022-07-05T11:28:48Z</time>
      </trkpt>
      <trkpt lat="42.370262" lon="-0.73998487">
        <time>2022-07-05T11:28:49Z</time>
      </trkpt>
      <trkpt lat="42.37017" lon="-0.7399212">
        <time>2022-07-05T11:28:50Z</time>
      </trkpt>
      <trkpt lat="42.370087" lon="-0.7398412">
        <time>2022-07-05T11:28:51Z</time>
      </trkpt>
      <trkpt lat="42.37001" lon="-0.7397459">
        <time>2022-07-05T11:28:52Z</time>
      </trkpt>
      <trkpt lat="42.36994" lon="-0.73963886">
        <time>2022-07-05T11:28:53Z</time>
      </trkpt>
      <trkpt lat="42.369884" lon="-0.7395209">
        <time>2022-07-05T11:28:54Z</time>
      </trkpt>
      <trkpt lat="42.36983" lon="-0.7393966">
        <time>2022-07-05T11:28:55Z</time>
      </trkpt>
      <trkpt lat="42.36978" lon="-0.7392719">
        <time>2022-07-05T11:28:56Z</time>
      </trkpt>
      <trkpt lat="42.36973" lon="-0.7391479">
        <time>2022-07-05T11:28:57Z</time>
      </trkpt>
      <trkpt lat="42.36969" lon="-0.7390242">
        <time>2022-07-05T11:28:58Z</time>
      </trkpt>
      <trkpt lat="42.369648" lon="-0.73890024">
        <time>2022-07-05T11:28:59Z</time>
      </trkpt>
      <trkpt lat="42.36961" lon="-0.7387786">
        <time>2022-07-05T11:29:00Z</time>
      </trkpt>
      <trkpt lat="42.369568" lon="-0.73866326">
        <time>2022-07-05T11:29:01Z</time>
      </trkpt>
      <trkpt lat="42.36953" lon="-0.7385523">
        <time>2022-07-05T11:29:02Z</time>
      </trkpt>
      <trkpt lat="42.369488" lon="-0.73844725">
        <time>2022-07-05T11:29:03Z</time>
      </trkpt>
      <trkpt lat="42.369442" lon="-0.7383489">
        <time>2022-07-05T11:29:04Z</time>
      </trkpt>
      <trkpt lat="42.3694" lon="-0.73825157">
        <time>2022-07-05T11:29:05Z</time>
      </trkpt>
      <trkpt lat="42.36936" lon="-0.73815525">
        <time>2022-07-05T11:29:06Z</time>
      </trkpt>
      <trkpt lat="42.369324" lon="-0.73806095">
        <time>2022-07-05T11:29:07Z</time>
      </trkpt>
      <trkpt lat="42.36929" lon="-0.7379706">
        <time>2022-07-05T11:29:08Z</time>
      </trkpt>
      <trkpt lat="42.369255" lon="-0.73788697">
        <time>2022-07-05T11:29:09Z</time>
      </trkpt>
      <trkpt lat="42.36922" lon="-0.7378079">
        <time>2022-07-05T11:29:10Z</time>
      </trkpt>
      <trkpt lat="42.36919" lon="-0.73773026">
        <time>2022-07-05T11:29:11Z</time>
      </trkpt>
      <trkpt lat="42.36916" lon="-0.7376549">
        <time>2022-07-05T11:29:12Z</time>
      </trkpt>
      <trkpt lat="42.36913" lon="-0.7375843">
        <time>2022-07-05T11:29:13Z</time>
      </trkpt>
      <trkpt lat="42.369095" lon="-0.7375163">
        <time>2022-07-05T11:29:14Z</time>
      </trkpt>
      <trkpt lat="42.369064" lon="-0.73745596">
        <time>2022-07-05T11:29:15Z</time>
      </trkpt>
      <trkpt lat="42.369026" lon="-0.73739165">
        <time>2022-07-05T11:29:16Z</time>
      </trkpt>
      <trkpt lat="42.36899" lon="-0.737328">
        <time>2022-07-05T11:29:17Z</time>
      </trkpt>
      <trkpt lat="42.368958" lon="-0.7372683">
        <time>2022-07-05T11:29:18Z</time>
      </trkpt>
      <trkpt lat="42.36892" lon="-0.73721397">
        <time>2022-07-05T11:29:19Z</time>
      </trkpt>
      <trkpt lat="42.368877" lon="-0.73716533">
        <time>2022-07-05T11:29:20Z</time>
      </trkpt>
      <trkpt lat="42.368835" lon="-0.73712397">
        <time>2022-07-05T11:29:21Z</time>
      </trkpt>
      <trkpt lat="42.368786" lon="-0.73708963">
        <time>2022-07-05T11:29:22Z</time>
      </trkpt>
      <trkpt lat="42.368736" lon="-0.73706263">
        <time>2022-07-05T11:29:23Z</time>
      </trkpt>
      <trkpt lat="42.368687" lon="-0.7370423">
        <time>2022-07-05T11:29:24Z</time>
      </trkpt>
      <trkpt lat="42.368633" lon="-0.73702866">
        <time>2022-07-05T11:29:25Z</time>
      </trkpt>
      <trkpt lat="42.36858" lon="-0.73702234">
        <time>2022-07-05T11:29:26Z</time>
      </trkpt>
      <trkpt lat="42.368523" lon="-0.73702234">
        <time>2022-07-05T11:29:27Z</time>
      </trkpt>
      <trkpt lat="42.368465" lon="-0.737028">
        <time>2022-07-05T11:29:28Z</time>
      </trkpt>
      <trkpt lat="42.368412" lon="-0.73703766">
        <time>2022-07-05T11:29:29Z</time>
      </trkpt>
      <trkpt lat="42.368355" lon="-0.7370513">
        <time>2022-07-05T11:29:30Z</time>
      </trkpt>
      <trkpt lat="42.3683" lon="-0.73706734">
        <time>2022-07-05T11:29:31Z</time>
      </trkpt>
      <trkpt lat="42.368248" lon="-0.7370823">
        <time>2022-07-05T11:29:32Z</time>
      </trkpt>
      <trkpt lat="42.36819" lon="-0.73709667">
        <time>2022-07-05T11:29:33Z</time>
      </trkpt>
      <trkpt lat="42.368134" lon="-0.7371093">
        <time>2022-07-05T11:29:34Z</time>
      </trkpt>
      <trkpt lat="42.36802" lon="-0.737126">
        <time>2022-07-05T11:29:36Z</time>
      </trkpt>
      <trkpt lat="42.36796" lon="-0.73712695">
        <time>2022-07-05T11:29:37Z</time>
      </trkpt>
      <trkpt lat="42.367905" lon="-0.7371246">
        <time>2022-07-05T11:29:38Z</time>
      </trkpt>
      <trkpt lat="42.367847" lon="-0.73712">
        <time>2022-07-05T11:29:39Z</time>
      </trkpt>
      <trkpt lat="42.367786" lon="-0.73711634">
        <time>2022-07-05T11:29:40Z</time>
      </trkpt>
      <trkpt lat="42.367725" lon="-0.73711634">
        <time>2022-07-05T11:29:41Z</time>
      </trkpt>
      <trkpt lat="42.367664" lon="-0.7371193">
        <time>2022-07-05T11:29:42Z</time>
      </trkpt>
      <trkpt lat="42.367603" lon="-0.73712796">
        <time>2022-07-05T11:29:43Z</time>
      </trkpt>
      <trkpt lat="42.367542" lon="-0.73714364">
        <time>2022-07-05T11:29:44Z</time>
      </trkpt>
      <trkpt lat="42.36748" lon="-0.73716563">
        <time>2022-07-05T11:29:45Z</time>
      </trkpt>
      <trkpt lat="42.36742" lon="-0.7371943">
        <time>2022-07-05T11:29:46Z</time>
      </trkpt>
      <trkpt lat="42.36736" lon="-0.73722696">
        <time>2022-07-05T11:29:47Z</time>
      </trkpt>
      <trkpt lat="42.3673" lon="-0.7372636">
        <time>2022-07-05T11:29:48Z</time>
      </trkpt>
      <trkpt lat="42.367237" lon="-0.73730165">
        <time>2022-07-05T11:29:49Z</time>
      </trkpt>
      <trkpt lat="42.367176" lon="-0.7373373">
        <time>2022-07-05T11:29:50Z</time>
      </trkpt>
      <trkpt lat="42.367115" lon="-0.73737025">
        <time>2022-07-05T11:29:51Z</time>
      </trkpt>
      <trkpt lat="42.367046" lon="-0.7373976">
        <time>2022-07-05T11:29:52Z</time>
      </trkpt>
      <trkpt lat="42.36698" lon="-0.73741895">
        <time>2022-07-05T11:29:53Z</time>
      </trkpt>
      <trkpt lat="42.366913" lon="-0.7374376">
        <time>2022-07-05T11:29:54Z</time>
      </trkpt>
      <trkpt lat="42.36684" lon="-0.7374546">
        <time>2022-07-05T11:29:55Z</time>
      </trkpt>
      <trkpt lat="42.366768" lon="-0.73747194">
        <time>2022-07-05T11:29:56Z</time>
      </trkpt>
      <trkpt lat="42.36669" lon="-0.73749226">
        <time>2022-07-05T11:29:57Z</time>
      </trkpt>
      <trkpt lat="42.36662" lon="-0.7375163">
        <time>2022-07-05T11:29:58Z</time>
      </trkpt>
      <trkpt lat="42.366547" lon="-0.73754394">
        <time>2022-07-05T11:29:59Z</time>
      </trkpt>
      <trkpt lat="42.36647" lon="-0.73757625">
        <time>2022-07-05T11:30:00Z</time>
      </trkpt>
      <trkpt lat="42.366398" lon="-0.73761326">
        <time>2022-07-05T11:30:01Z</time>
      </trkpt>
      <trkpt lat="42.366325" lon="-0.7376579">
        <time>2022-07-05T11:30:02Z</time>
      </trkpt>
      <trkpt lat="42.36626" lon="-0.73771226">
        <time>2022-07-05T11:30:03Z</time>
      </trkpt>
      <trkpt lat="42.366196" lon="-0.7377779">
        <time>2022-07-05T11:30:04Z</time>
      </trkpt>
      <trkpt lat="42.366142" lon="-0.7378532">
        <time>2022-07-05T11:30:05Z</time>
      </trkpt>
      <trkpt lat="42.366093" lon="-0.73793423">
        <time>2022-07-05T11:30:06Z</time>
      </trkpt>
      <trkpt lat="42.36605" lon="-0.73802024">
        <time>2022-07-05T11:30:07Z</time>
      </trkpt>
      <trkpt lat="42.36601" lon="-0.7381099">
        <time>2022-07-05T11:30:08Z</time>
      </trkpt>
      <trkpt lat="42.36597" lon="-0.7382026">
        <time>2022-07-05T11:30:09Z</time>
      </trkpt>
      <trkpt lat="42.365936" lon="-0.73829854">
        <time>2022-07-05T11:30:10Z</time>
      </trkpt>
      <trkpt lat="42.365913" lon="-0.7383962">
        <time>2022-07-05T11:30:11Z</time>
      </trkpt>
      <trkpt lat="42.36589" lon="-0.73849255">
        <time>2022-07-05T11:30:12Z</time>
      </trkpt>
      <trkpt lat="42.36587" lon="-0.7385882">
        <time>2022-07-05T11:30:13Z</time>
      </trkpt>
      <trkpt lat="42.365856" lon="-0.73868185">
        <time>2022-07-05T11:30:14Z</time>
      </trkpt>
      <trkpt lat="42.36584" lon="-0.73877954">
        <time>2022-07-05T11:30:15Z</time>
      </trkpt>
      <trkpt lat="42.365826" lon="-0.73886716">
        <time>2022-07-05T11:30:16Z</time>
      </trkpt>
      <trkpt lat="42.365807" lon="-0.73895353">
        <time>2022-07-05T11:30:17Z</time>
      </trkpt>
      <trkpt lat="42.365788" lon="-0.7390388">
        <time>2022-07-05T11:30:18Z</time>
      </trkpt>
      <trkpt lat="42.36577" lon="-0.7391238">
        <time>2022-07-05T11:30:19Z</time>
      </trkpt>
      <trkpt lat="42.365746" lon="-0.73920786">
        <time>2022-07-05T11:30:20Z</time>
      </trkpt>
      <trkpt lat="42.365723" lon="-0.73929787">
        <time>2022-07-05T11:30:21Z</time>
      </trkpt>
      <trkpt lat="42.3657" lon="-0.73938084">
        <time>2022-07-05T11:30:22Z</time>
      </trkpt>
      <trkpt lat="42.365677" lon="-0.7394645">
        <time>2022-07-05T11:30:23Z</time>
      </trkpt>
      <trkpt lat="42.365654" lon="-0.73954713">
        <time>2022-07-05T11:30:24Z</time>
      </trkpt>
      <trkpt lat="42.36563" lon="-0.7396298">
        <time>2022-07-05T11:30:25Z</time>
      </trkpt>
      <trkpt lat="42.365604" lon="-0.73971117">
        <time>2022-07-05T11:30:26Z</time>
      </trkpt>
      <trkpt lat="42.36558" lon="-0.7397968">
        <time>2022-07-05T11:30:27Z</time>
      </trkpt>
      <trkpt lat="42.36556" lon="-0.7398738">
        <time>2022-07-05T11:30:28Z</time>
      </trkpt>
      <trkpt lat="42.365536" lon="-0.73994946">
        <time>2022-07-05T11:30:29Z</time>
      </trkpt>
      <trkpt lat="42.36551" lon="-0.7400218">
        <time>2022-07-05T11:30:30Z</time>
      </trkpt>
      <trkpt lat="42.365482" lon="-0.7400908">
        <time>2022-07-05T11:30:31Z</time>
      </trkpt>
      <trkpt lat="42.365448" lon="-0.7401618">
        <time>2022-07-05T11:30:32Z</time>
      </trkpt>
      <trkpt lat="42.365417" lon="-0.7402248">
        <time>2022-07-05T11:30:33Z</time>
      </trkpt>
      <trkpt lat="42.36539" lon="-0.7402858">
        <time>2022-07-05T11:30:34Z</time>
      </trkpt>
      <trkpt lat="42.365356" lon="-0.7403468">
        <time>2022-07-05T11:30:35Z</time>
      </trkpt>
      <trkpt lat="42.365322" lon="-0.7404045">
        <time>2022-07-05T11:30:36Z</time>
      </trkpt>
      <trkpt lat="42.365288" lon="-0.7404585">
        <time>2022-07-05T11:30:37Z</time>
      </trkpt>
      <trkpt lat="42.365253" lon="-0.74050546">
        <time>2022-07-05T11:30:38Z</time>
      </trkpt>
      <trkpt lat="42.365215" lon="-0.7405508">
        <time>2022-07-05T11:30:39Z</time>
      </trkpt>
      <trkpt lat="42.36509" lon="-0.7406568">
        <time>2022-07-05T11:30:42Z</time>
      </trkpt>
      <trkpt lat="42.365047" lon="-0.7406811">
        <time>2022-07-05T11:30:43Z</time>
      </trkpt>
      <trkpt lat="42.364956" lon="-0.74071544">
        <time>2022-07-05T11:30:45Z</time>
      </trkpt>
      <trkpt lat="42.36487" lon="-0.7407378">
        <time>2022-07-05T11:30:47Z</time>
      </trkpt>
      <trkpt lat="42.364788" lon="-0.7407518">
        <time>2022-07-05T11:30:49Z</time>
      </trkpt>
      <trkpt lat="42.364708" lon="-0.74076575">
        <time>2022-07-05T11:30:51Z</time>
      </trkpt>
      <trkpt lat="42.364643" lon="-0.7407878">
        <time>2022-07-05T11:30:53Z</time>
      </trkpt>
      <trkpt lat="42.36459" lon="-0.7408188">
        <time>2022-07-05T11:30:55Z</time>
      </trkpt>
      <trkpt lat="42.364536" lon="-0.7408598">
        <time>2022-07-05T11:30:57Z</time>
      </trkpt>
      <trkpt lat="42.36449" lon="-0.7408988">
        <time>2022-07-05T11:30:59Z</time>
      </trkpt>
      <trkpt lat="42.36445" lon="-0.7409358">
        <time>2022-07-05T11:31:01Z</time>
      </trkpt>
      <trkpt lat="42.364403" lon="-0.7409871">
        <time>2022-07-05T11:31:04Z</time>
      </trkpt>
      <trkpt lat="42.364426" lon="-0.74091345">
        <time>2022-07-05T11:31:34Z</time>
      </trkpt>
      <trkpt lat="42.36445" lon="-0.7408481">
        <time>2022-07-05T11:31:37Z</time>
      </trkpt>
      <trkpt lat="42.364437" lon="-0.74086845">
        <time>2022-07-05T11:31:50Z</time>
      </trkpt>
      <trkpt lat="42.364407" lon="-0.7409381">
        <time>2022-07-05T11:31:54Z</time>
      </trkpt>
      <trkpt lat="42.364384" lon="-0.74098814">
        <time>2022-07-05T11:32:02Z</time>
      </trkpt>
      <trkpt lat="42.36436" lon="-0.7411191">
        <time>2022-07-05T11:32:14Z</time>
      </trkpt>
      <trkpt lat="42.364353" lon="-0.7411898">
        <time>2022-07-05T11:32:16Z</time>
      </trkpt>
      <trkpt lat="42.364338" lon="-0.7412681">
        <time>2022-07-05T11:32:18Z</time>
      </trkpt>
      <trkpt lat="42.364315" lon="-0.7413541">
        <time>2022-07-05T11:32:20Z</time>
      </trkpt>
      <trkpt lat="42.3643" lon="-0.74144775">
        <time>2022-07-05T11:32:22Z</time>
      </trkpt>
      <trkpt lat="42.364285" lon="-0.7415461">
        <time>2022-07-05T11:32:24Z</time>
      </trkpt>
      <trkpt lat="42.36427" lon="-0.7416464">
        <time>2022-07-05T11:32:26Z</time>
      </trkpt>
      <trkpt lat="42.36425" lon="-0.7417464">
        <time>2022-07-05T11:32:28Z</time>
      </trkpt>
      <trkpt lat="42.36424" lon="-0.7418451">
        <time>2022-07-05T11:32:30Z</time>
      </trkpt>
      <trkpt lat="42.364227" lon="-0.7419394">
        <time>2022-07-05T11:32:32Z</time>
      </trkpt>
      <trkpt lat="42.364216" lon="-0.74202305">
        <time>2022-07-05T11:32:34Z</time>
      </trkpt>
      <trkpt lat="42.364204" lon="-0.74209505">
        <time>2022-07-05T11:32:36Z</time>
      </trkpt>
      <trkpt lat="42.364197" lon="-0.7421587">
        <time>2022-07-05T11:32:38Z</time>
      </trkpt>
      <trkpt lat="42.364185" lon="-0.7422454">
        <time>2022-07-05T11:32:41Z</time>
      </trkpt>
      <trkpt lat="42.36417" lon="-0.7423274">
        <time>2022-07-05T11:32:44Z</time>
      </trkpt>
      <trkpt lat="42.364155" lon="-0.7424111">
        <time>2022-07-05T11:32:47Z</time>
      </trkpt>
      <trkpt lat="42.36414" lon="-0.74249536">
        <time>2022-07-05T11:32:50Z</time>
      </trkpt>
      <trkpt lat="42.364117" lon="-0.7426067">
        <time>2022-07-05T11:32:54Z</time>
      </trkpt>
      <trkpt lat="42.364105" lon="-0.742694">
        <time>2022-07-05T11:32:57Z</time>
      </trkpt>
      <trkpt lat="42.364086" lon="-0.74277806">
        <time>2022-07-05T11:33:00Z</time>
      </trkpt>
      <trkpt lat="42.364063" lon="-0.7428564">
        <time>2022-07-05T11:33:03Z</time>
      </trkpt>
      <trkpt lat="42.364048" lon="-0.742931">
        <time>2022-07-05T11:33:06Z</time>
      </trkpt>
      <trkpt lat="42.36403" lon="-0.74300236">
        <time>2022-07-05T11:33:09Z</time>
      </trkpt>
      <trkpt lat="42.364006" lon="-0.74307567">
        <time>2022-07-05T11:33:12Z</time>
      </trkpt>
      <trkpt lat="42.36398" lon="-0.7431447">
        <time>2022-07-05T11:33:15Z</time>
      </trkpt>
      <trkpt lat="42.36394" lon="-0.74320036">
        <time>2022-07-05T11:33:18Z</time>
      </trkpt>
      <trkpt lat="42.3639" lon="-0.74325234">
        <time>2022-07-05T11:33:21Z</time>
      </trkpt>
      <trkpt lat="42.363853" lon="-0.743305">
        <time>2022-07-05T11:33:24Z</time>
      </trkpt>
      <trkpt lat="42.363804" lon="-0.74336135">
        <time>2022-07-05T11:33:27Z</time>
      </trkpt>
      <trkpt lat="42.363758" lon="-0.7434033">
        <time>2022-07-05T11:33:30Z</time>
      </trkpt>
      <trkpt lat="42.363747" lon="-0.7434997">
        <time>2022-07-05T11:34:50Z</time>
      </trkpt>
      <trkpt lat="42.36372" lon="-0.74363536">
        <time>2022-07-05T11:35:21Z</time>
      </trkpt>
      <trkpt lat="42.36368" lon="-0.74372035">
        <time>2022-07-05T11:35:24Z</time>
      </trkpt>
      <trkpt lat="42.363647" lon="-0.743787">
        <time>2022-07-05T11:35:26Z</time>
      </trkpt>
      <trkpt lat="42.363594" lon="-0.743851">
        <time>2022-07-05T11:35:28Z</time>
      </trkpt>
      <trkpt lat="42.363518" lon="-0.743909">
        <time>2022-07-05T11:35:30Z</time>
      </trkpt>
      <trkpt lat="42.363415" lon="-0.74395734">
        <time>2022-07-05T11:35:32Z</time>
      </trkpt>
      <trkpt lat="42.363354" lon="-0.743976">
        <time>2022-07-05T11:35:33Z</time>
      </trkpt>
      <trkpt lat="42.363293" lon="-0.74399096">
        <time>2022-07-05T11:35:34Z</time>
      </trkpt>
      <trkpt lat="42.363224" lon="-0.7440056">
        <time>2022-07-05T11:35:35Z</time>
      </trkpt>
      <trkpt lat="42.363163" lon="-0.7440186">
        <time>2022-07-05T11:35:36Z</time>
      </trkpt>
      <trkpt lat="42.363094" lon="-0.7440323">
        <time>2022-07-05T11:35:37Z</time>
      </trkpt>
      <trkpt lat="42.363033" lon="-0.7440453">
        <time>2022-07-05T11:35:38Z</time>
      </trkpt>
      <trkpt lat="42.362972" lon="-0.7440563">
        <time>2022-07-05T11:35:39Z</time>
      </trkpt>
      <trkpt lat="42.36291" lon="-0.74406797">
        <time>2022-07-05T11:35:40Z</time>
      </trkpt>
      <trkpt lat="42.362854" lon="-0.74407995">
        <time>2022-07-05T11:35:41Z</time>
      </trkpt>
      <trkpt lat="42.362797" lon="-0.74409264">
        <time>2022-07-05T11:35:42Z</time>
      </trkpt>
      <trkpt lat="42.362743" lon="-0.7441076">
        <time>2022-07-05T11:35:43Z</time>
      </trkpt>
      <trkpt lat="42.362694" lon="-0.7441246">
        <time>2022-07-05T11:35:44Z</time>
      </trkpt>
      <trkpt lat="42.362644" lon="-0.7441433">
        <time>2022-07-05T11:35:45Z</time>
      </trkpt>
      <trkpt lat="42.362595" lon="-0.7441653">
        <time>2022-07-05T11:35:46Z</time>
      </trkpt>
      <trkpt lat="42.36255" lon="-0.74419326">
        <time>2022-07-05T11:35:47Z</time>
      </trkpt>
      <trkpt lat="42.362465" lon="-0.74425495">
        <time>2022-07-05T11:35:49Z</time>
      </trkpt>
      <trkpt lat="42.362392" lon="-0.7443249">
        <time>2022-07-05T11:35:51Z</time>
      </trkpt>
      <trkpt lat="42.36232" lon="-0.74440396">
        <time>2022-07-05T11:35:53Z</time>
      </trkpt>
      <trkpt lat="42.362247" lon="-0.7444856">
        <time>2022-07-05T11:35:55Z</time>
      </trkpt>
      <trkpt lat="42.362213" lon="-0.74452424">
        <time>2022-07-05T11:35:56Z</time>
      </trkpt>
      <trkpt lat="42.36214" lon="-0.7446036">
        <time>2022-07-05T11:35:58Z</time>
      </trkpt>
      <trkpt lat="42.362038" lon="-0.7447189">
        <time>2022-07-05T11:36:01Z</time>
      </trkpt>
      <trkpt lat="42.361965" lon="-0.7447922">
        <time>2022-07-05T11:36:03Z</time>
      </trkpt>
      <trkpt lat="42.361893" lon="-0.7448556">
        <time>2022-07-05T11:36:05Z</time>
      </trkpt>
      <trkpt lat="42.361816" lon="-0.74492025">
        <time>2022-07-05T11:36:07Z</time>
      </trkpt>
      <trkpt lat="42.361748" lon="-0.74497926">
        <time>2022-07-05T11:36:09Z</time>
      </trkpt>
      <trkpt lat="42.36168" lon="-0.74503326">
        <time>2022-07-05T11:36:11Z</time>
      </trkpt>
      <trkpt lat="42.36161" lon="-0.7450809">
        <time>2022-07-05T11:36:13Z</time>
      </trkpt>
      <trkpt lat="42.361546" lon="-0.7451292">
        <time>2022-07-05T11:36:15Z</time>
      </trkpt>
      <trkpt lat="42.361485" lon="-0.7451759">
        <time>2022-07-05T11:36:17Z</time>
      </trkpt>
      <trkpt lat="42.361423" lon="-0.7452262">
        <time>2022-07-05T11:36:19Z</time>
      </trkpt>
      <trkpt lat="42.361362" lon="-0.74528456">
        <time>2022-07-05T11:36:21Z</time>
      </trkpt>
      <trkpt lat="42.361294" lon="-0.74532986">
        <time>2022-07-05T11:36:23Z</time>
      </trkpt>
      <trkpt lat="42.361217" lon="-0.7453639">
        <time>2022-07-05T11:36:25Z</time>
      </trkpt>
      <trkpt lat="42.361145" lon="-0.74538654">
        <time>2022-07-05T11:36:27Z</time>
      </trkpt>
      <trkpt lat="42.36107" lon="-0.7454029">
        <time>2022-07-05T11:36:29Z</time>
      </trkpt>
      <trkpt lat="42.360996" lon="-0.7454075">
        <time>2022-07-05T11:36:31Z</time>
      </trkpt>
      <trkpt lat="42.360928" lon="-0.74540186">
        <time>2022-07-05T11:36:33Z</time>
      </trkpt>
      <trkpt lat="42.360863" lon="-0.7453855">
        <time>2022-07-05T11:36:35Z</time>
      </trkpt>
      <trkpt lat="42.36081" lon="-0.74536586">
        <time>2022-07-05T11:36:37Z</time>
      </trkpt>
      <trkpt lat="42.36075" lon="-0.7453472">
        <time>2022-07-05T11:36:40Z</time>
      </trkpt>
      <trkpt lat="42.360714" lon="-0.7453389">
        <time>2022-07-05T11:36:46Z</time>
      </trkpt>
      <trkpt lat="42.360718" lon="-0.74534523">
        <time>2022-07-05T11:38:27Z</time>
      </trkpt>
      <trkpt lat="42.360756" lon="-0.7453289">
        <time>2022-07-05T11:38:32Z</time>
      </trkpt>
      <trkpt lat="42.360657" lon="-0.74541754">
        <time>2022-07-05T11:39:16Z</time>
      </trkpt>
      <trkpt lat="42.36063" lon="-0.74547786">
        <time>2022-07-05T11:39:19Z</time>
      </trkpt>
      <trkpt lat="42.360584" lon="-0.74551255">
        <time>2022-07-05T11:39:22Z</time>
      </trkpt>
      <trkpt lat="42.360527" lon="-0.7455339">
        <time>2022-07-05T11:39:25Z</time>
      </trkpt>
      <trkpt lat="42.36046" lon="-0.7455542">
        <time>2022-07-05T11:39:28Z</time>
      </trkpt>
      <trkpt lat="42.36041" lon="-0.7455632">
        <time>2022-07-05T11:39:30Z</time>
      </trkpt>
      <trkpt lat="42.360355" lon="-0.7455712">
        <time>2022-07-05T11:39:32Z</time>
      </trkpt>
      <trkpt lat="42.360302" lon="-0.7455812">
        <time>2022-07-05T11:39:34Z</time>
      </trkpt>
      <trkpt lat="42.36025" lon="-0.7455905">
        <time>2022-07-05T11:39:36Z</time>
      </trkpt>
      <trkpt lat="42.360195" lon="-0.7455992">
        <time>2022-07-05T11:39:38Z</time>
      </trkpt>
      <trkpt lat="42.360138" lon="-0.74560386">
        <time>2022-07-05T11:39:40Z</time>
      </trkpt>
      <trkpt lat="42.360085" lon="-0.7456005">
        <time>2022-07-05T11:39:42Z</time>
      </trkpt>
      <trkpt lat="42.36003" lon="-0.7455895">
        <time>2022-07-05T11:39:44Z</time>
      </trkpt>
      <trkpt lat="42.35998" lon="-0.7455779">
        <time>2022-07-05T11:39:46Z</time>
      </trkpt>
      <trkpt lat="42.35995" lon="-0.7455522">
        <time>2022-07-05T11:39:49Z</time>
      </trkpt>
      <trkpt lat="42.36" lon="-0.7455595">
        <time>2022-07-05T11:39:54Z</time>
      </trkpt>
      <trkpt lat="42.360043" lon="-0.7455439">
        <time>2022-07-05T11:40:00Z</time>
      </trkpt>
      <trkpt lat="42.35998" lon="-0.74557054">
        <time>2022-07-05T11:40:39Z</time>
      </trkpt>
      <trkpt lat="42.359913" lon="-0.7455519">
        <time>2022-07-05T11:40:42Z</time>
      </trkpt>
      <trkpt lat="42.35986" lon="-0.7455285">
        <time>2022-07-05T11:40:44Z</time>
      </trkpt>
      <trkpt lat="42.35981" lon="-0.7454992">
        <time>2022-07-05T11:40:46Z</time>
      </trkpt>
      <trkpt lat="42.359756" lon="-0.74546653">
        <time>2022-07-05T11:40:48Z</time>
      </trkpt>
      <trkpt lat="42.359707" lon="-0.74543023">
        <time>2022-07-05T11:40:50Z</time>
      </trkpt>
      <trkpt lat="42.359653" lon="-0.7453919">
        <time>2022-07-05T11:40:52Z</time>
      </trkpt>
      <trkpt lat="42.359604" lon="-0.74535525">
        <time>2022-07-05T11:40:54Z</time>
      </trkpt>
      <trkpt lat="42.35955" lon="-0.7453222">
        <time>2022-07-05T11:40:56Z</time>
      </trkpt>
      <trkpt lat="42.359497" lon="-0.7452852">
        <time>2022-07-05T11:40:58Z</time>
      </trkpt>
      <trkpt lat="42.359444" lon="-0.7452469">
        <time>2022-07-05T11:41:00Z</time>
      </trkpt>
      <trkpt lat="42.359394" lon="-0.74520725">
        <time>2022-07-05T11:41:02Z</time>
      </trkpt>
      <trkpt lat="42.359344" lon="-0.7451639">
        <time>2022-07-05T11:41:04Z</time>
      </trkpt>
      <trkpt lat="42.3593" lon="-0.7451179">
        <time>2022-07-05T11:41:06Z</time>
      </trkpt>
      <trkpt lat="42.35925" lon="-0.74507123">
        <time>2022-07-05T11:41:08Z</time>
      </trkpt>
      <trkpt lat="42.3592" lon="-0.7450216">
        <time>2022-07-05T11:41:10Z</time>
      </trkpt>
      <trkpt lat="42.359127" lon="-0.7449456">
        <time>2022-07-05T11:41:13Z</time>
      </trkpt>
      <trkpt lat="42.359077" lon="-0.7448966">
        <time>2022-07-05T11:41:15Z</time>
      </trkpt>
      <trkpt lat="42.35903" lon="-0.74485093">
        <time>2022-07-05T11:41:17Z</time>
      </trkpt>
      <trkpt lat="42.358982" lon="-0.74480796">
        <time>2022-07-05T11:41:19Z</time>
      </trkpt>
      <trkpt lat="42.358932" lon="-0.7447606">
        <time>2022-07-05T11:41:21Z</time>
      </trkpt>
      <trkpt lat="42.358887" lon="-0.74470496">
        <time>2022-07-05T11:41:23Z</time>
      </trkpt>
      <trkpt lat="42.35884" lon="-0.7446466">
        <time>2022-07-05T11:41:25Z</time>
      </trkpt>
      <trkpt lat="42.3588" lon="-0.7445906">
        <time>2022-07-05T11:41:27Z</time>
      </trkpt>
      <trkpt lat="42.358753" lon="-0.7445346">
        <time>2022-07-05T11:41:29Z</time>
      </trkpt>
      <trkpt lat="42.35871" lon="-0.74447596">
        <time>2022-07-05T11:41:31Z</time>
      </trkpt>
      <trkpt lat="42.358673" lon="-0.7444149">
        <time>2022-07-05T11:41:33Z</time>
      </trkpt>
      <trkpt lat="42.35864" lon="-0.7443523">
        <time>2022-07-05T11:41:35Z</time>
      </trkpt>
      <trkpt lat="42.3586" lon="-0.7442893">
        <time>2022-07-05T11:41:37Z</time>
      </trkpt>
      <trkpt lat="42.358566" lon="-0.74422395">
        <time>2022-07-05T11:41:39Z</time>
      </trkpt>
      <trkpt lat="42.358536" lon="-0.74416196">
        <time>2022-07-05T11:41:41Z</time>
      </trkpt>
      <trkpt lat="42.358505" lon="-0.7440986">
        <time>2022-07-05T11:41:43Z</time>
      </trkpt>
      <trkpt lat="42.35847" lon="-0.7440353">
        <time>2022-07-05T11:41:45Z</time>
      </trkpt>
      <trkpt lat="42.358444" lon="-0.74397165">
        <time>2022-07-05T11:41:47Z</time>
      </trkpt>
      <trkpt lat="42.35841" lon="-0.7439093">
        <time>2022-07-05T11:41:49Z</time>
      </trkpt>
      <trkpt lat="42.35838" lon="-0.7438453">
        <time>2022-07-05T11:41:51Z</time>
      </trkpt>
      <trkpt lat="42.35835" lon="-0.7437793">
        <time>2022-07-05T11:41:53Z</time>
      </trkpt>
      <trkpt lat="42.35832" lon="-0.7437153">
        <time>2022-07-05T11:41:55Z</time>
      </trkpt>
      <trkpt lat="42.358288" lon="-0.74364966">
        <time>2022-07-05T11:41:57Z</time>
      </trkpt>
      <trkpt lat="42.35826" lon="-0.7435833">
        <time>2022-07-05T11:41:59Z</time>
      </trkpt>
      <trkpt lat="42.358234" lon="-0.743518">
        <time>2022-07-05T11:42:01Z</time>
      </trkpt>
      <trkpt lat="42.358215" lon="-0.74345267">
        <time>2022-07-05T11:42:03Z</time>
      </trkpt>
      <trkpt lat="42.35819" lon="-0.7433867">
        <time>2022-07-05T11:42:05Z</time>
      </trkpt>
      <trkpt lat="42.358166" lon="-0.74332434">
        <time>2022-07-05T11:42:07Z</time>
      </trkpt>
      <trkpt lat="42.35814" lon="-0.743262">
        <time>2022-07-05T11:42:09Z</time>
      </trkpt>
      <trkpt lat="42.358105" lon="-0.743179">
        <time>2022-07-05T11:42:12Z</time>
      </trkpt>
      <trkpt lat="42.358067" lon="-0.7430987">
        <time>2022-07-05T11:42:15Z</time>
      </trkpt>
      <trkpt lat="42.358025" lon="-0.7429927">
        <time>2022-07-05T11:42:19Z</time>
      </trkpt>
      <trkpt lat="42.357994" lon="-0.7429117">
        <time>2022-07-05T11:42:22Z</time>
      </trkpt>
      <trkpt lat="42.357967" lon="-0.74283165">
        <time>2022-07-05T11:42:25Z</time>
      </trkpt>
      <trkpt lat="42.35795" lon="-0.7427483">
        <time>2022-07-05T11:42:28Z</time>
      </trkpt>
      <trkpt lat="42.35792" lon="-0.742661">
        <time>2022-07-05T11:42:31Z</time>
      </trkpt>
      <trkpt lat="42.357906" lon="-0.7426027">
        <time>2022-07-05T11:42:33Z</time>
      </trkpt>
      <trkpt lat="42.357887" lon="-0.742522">
        <time>2022-07-05T11:42:36Z</time>
      </trkpt>
      <trkpt lat="42.35787" lon="-0.74244004">
        <time>2022-07-05T11:42:39Z</time>
      </trkpt>
      <trkpt lat="42.357853" lon="-0.7423547">
        <time>2022-07-05T11:42:42Z</time>
      </trkpt>
      <trkpt lat="42.35782" lon="-0.74223703">
        <time>2022-07-05T11:42:46Z</time>
      </trkpt>
      <trkpt lat="42.35779" lon="-0.7421524">
        <time>2022-07-05T11:42:49Z</time>
      </trkpt>
      <trkpt lat="42.357754" lon="-0.7420727">
        <time>2022-07-05T11:42:52Z</time>
      </trkpt>
      <trkpt lat="42.357708" lon="-0.7419957">
        <time>2022-07-05T11:42:55Z</time>
      </trkpt>
      <trkpt lat="42.357677" lon="-0.7419417">
        <time>2022-07-05T11:42:57Z</time>
      </trkpt>
      <trkpt lat="42.357628" lon="-0.74186903">
        <time>2022-07-05T11:43:00Z</time>
      </trkpt>
      <trkpt lat="42.357586" lon="-0.74179775">
        <time>2022-07-05T11:43:03Z</time>
      </trkpt>
      <trkpt lat="42.35755" lon="-0.74171406">
        <time>2022-07-05T11:43:06Z</time>
      </trkpt>
      <trkpt lat="42.357533" lon="-0.74165475">
        <time>2022-07-05T11:43:08Z</time>
      </trkpt>
      <trkpt lat="42.357513" lon="-0.7415577">
        <time>2022-07-05T11:43:11Z</time>
      </trkpt>
      <trkpt lat="42.3575" lon="-0.74146706">
        <time>2022-07-05T11:43:14Z</time>
      </trkpt>
      <trkpt lat="42.35747" lon="-0.7413784">
        <time>2022-07-05T11:43:17Z</time>
      </trkpt>
      <trkpt lat="42.357433" lon="-0.74131006">
        <time>2022-07-05T11:43:20Z</time>
      </trkpt>
      <trkpt lat="42.357353" lon="-0.74125475">
        <time>2022-07-05T11:43:24Z</time>
      </trkpt>
      <trkpt lat="42.35728" lon="-0.7412451">
        <time>2022-07-05T11:43:27Z</time>
      </trkpt>
      <trkpt lat="42.35723" lon="-0.7412451">
        <time>2022-07-05T11:43:29Z</time>
      </trkpt>
      <trkpt lat="42.35716" lon="-0.74124444">
        <time>2022-07-05T11:43:32Z</time>
      </trkpt>
      <trkpt lat="42.357105" lon="-0.7412441">
        <time>2022-07-05T11:43:34Z</time>
      </trkpt>
      <trkpt lat="42.357056" lon="-0.7412391">
        <time>2022-07-05T11:43:36Z</time>
      </trkpt>
      <trkpt lat="42.356983" lon="-0.74121547">
        <time>2022-07-05T11:43:39Z</time>
      </trkpt>
      <trkpt lat="42.356915" lon="-0.74117976">
        <time>2022-07-05T11:43:42Z</time>
      </trkpt>
      <trkpt lat="42.35687" lon="-0.74115014">
        <time>2022-07-05T11:43:44Z</time>
      </trkpt>
      <trkpt lat="42.356792" lon="-0.74110943">
        <time>2022-07-05T11:43:47Z</time>
      </trkpt>
      <trkpt lat="42.35674" lon="-0.74109316">
        <time>2022-07-05T11:43:49Z</time>
      </trkpt>
      <trkpt lat="42.35666" lon="-0.74108547">
        <time>2022-07-05T11:43:52Z</time>
      </trkpt>
      <trkpt lat="42.356606" lon="-0.7410928">
        <time>2022-07-05T11:43:54Z</time>
      </trkpt>
      <trkpt lat="42.356556" lon="-0.7411035">
        <time>2022-07-05T11:43:56Z</time>
      </trkpt>
      <trkpt lat="42.356503" lon="-0.7411135">
        <time>2022-07-05T11:43:58Z</time>
      </trkpt>
      <trkpt lat="42.35645" lon="-0.7411228">
        <time>2022-07-05T11:44:00Z</time>
      </trkpt>
      <trkpt lat="42.356384" lon="-0.7411248">
        <time>2022-07-05T11:44:02Z</time>
      </trkpt>
      <trkpt lat="42.356316" lon="-0.7411161">
        <time>2022-07-05T11:44:04Z</time>
      </trkpt>
      <trkpt lat="42.35625" lon="-0.7410941">
        <time>2022-07-05T11:44:06Z</time>
      </trkpt>
      <trkpt lat="42.356194" lon="-0.74106514">
        <time>2022-07-05T11:44:08Z</time>
      </trkpt>
      <trkpt lat="42.356133" lon="-0.7410278">
        <time>2022-07-05T11:44:10Z</time>
      </trkpt>
      <trkpt lat="42.356075" lon="-0.7409845">
        <time>2022-07-05T11:44:12Z</time>
      </trkpt>
      <trkpt lat="42.356014" lon="-0.74093646">
        <time>2022-07-05T11:44:14Z</time>
      </trkpt>
      <trkpt lat="42.35596" lon="-0.7408828">
        <time>2022-07-05T11:44:16Z</time>
      </trkpt>
      <trkpt lat="42.35592" lon="-0.7408238">
        <time>2022-07-05T11:44:18Z</time>
      </trkpt>
      <trkpt lat="42.355885" lon="-0.7407645">
        <time>2022-07-05T11:44:20Z</time>
      </trkpt>
      <trkpt lat="42.355854" lon="-0.7407085">
        <time>2022-07-05T11:44:22Z</time>
      </trkpt>
      <trkpt lat="42.355812" lon="-0.74062246">
        <time>2022-07-05T11:44:25Z</time>
      </trkpt>
      <trkpt lat="42.355778" lon="-0.74054545">
        <time>2022-07-05T11:44:28Z</time>
      </trkpt>
      <trkpt lat="42.355743" lon="-0.7404755">
        <time>2022-07-05T11:44:31Z</time>
      </trkpt>
      <trkpt lat="42.35571" lon="-0.74041146">
        <time>2022-07-05T11:44:34Z</time>
      </trkpt>
      <trkpt lat="42.355686" lon="-0.7403408">
        <time>2022-07-05T11:44:37Z</time>
      </trkpt>
      <trkpt lat="42.355663" lon="-0.7402615">
        <time>2022-07-05T11:44:40Z</time>
      </trkpt>
      <trkpt lat="42.355644" lon="-0.7401792">
        <time>2022-07-05T11:44:43Z</time>
      </trkpt>
      <trkpt lat="42.355633" lon="-0.7400895">
        <time>2022-07-05T11:44:46Z</time>
      </trkpt>
      <trkpt lat="42.35563" lon="-0.7400172">
        <time>2022-07-05T11:44:48Z</time>
      </trkpt>
      <trkpt lat="42.355633" lon="-0.7399525">
        <time>2022-07-05T11:44:50Z</time>
      </trkpt>
      <trkpt lat="42.355644" lon="-0.7398459">
        <time>2022-07-05T11:44:53Z</time>
      </trkpt>
      <trkpt lat="42.355656" lon="-0.73977387">
        <time>2022-07-05T11:44:55Z</time>
      </trkpt>
      <trkpt lat="42.355667" lon="-0.73969984">
        <time>2022-07-05T11:44:57Z</time>
      </trkpt>
      <trkpt lat="42.355682" lon="-0.7396259">
        <time>2022-07-05T11:44:59Z</time>
      </trkpt>
      <trkpt lat="42.355705" lon="-0.73955584">
        <time>2022-07-05T11:45:01Z</time>
      </trkpt>
      <trkpt lat="42.355732" lon="-0.73948187">
        <time>2022-07-05T11:45:03Z</time>
      </trkpt>
      <trkpt lat="42.35576" lon="-0.7394055">
        <time>2022-07-05T11:45:05Z</time>
      </trkpt>
      <trkpt lat="42.35579" lon="-0.7393292">
        <time>2022-07-05T11:45:07Z</time>
      </trkpt>
      <trkpt lat="42.355816" lon="-0.7392525">
        <time>2022-07-05T11:45:09Z</time>
      </trkpt>
      <trkpt lat="42.355846" lon="-0.7391772">
        <time>2022-07-05T11:45:11Z</time>
      </trkpt>
      <trkpt lat="42.355877" lon="-0.7391009">
        <time>2022-07-05T11:45:13Z</time>
      </trkpt>
      <trkpt lat="42.355907" lon="-0.7390219">
        <time>2022-07-05T11:45:15Z</time>
      </trkpt>
      <trkpt lat="42.355938" lon="-0.7389432">
        <time>2022-07-05T11:45:17Z</time>
      </trkpt>
      <trkpt lat="42.355965" lon="-0.73886555">
        <time>2022-07-05T11:45:19Z</time>
      </trkpt>
      <trkpt lat="42.35599" lon="-0.7387869">
        <time>2022-07-05T11:45:21Z</time>
      </trkpt>
      <trkpt lat="42.356014" lon="-0.7387039">
        <time>2022-07-05T11:45:23Z</time>
      </trkpt>
      <trkpt lat="42.356026" lon="-0.7386169">
        <time>2022-07-05T11:45:25Z</time>
      </trkpt>
      <trkpt lat="42.356026" lon="-0.7385316">
        <time>2022-07-05T11:45:27Z</time>
      </trkpt>
      <trkpt lat="42.356014" lon="-0.7384549">
        <time>2022-07-05T11:45:29Z</time>
      </trkpt>
      <trkpt lat="42.355995" lon="-0.7383909">
        <time>2022-07-05T11:45:31Z</time>
      </trkpt>
      <trkpt lat="42.355957" lon="-0.7383099">
        <time>2022-07-05T11:45:34Z</time>
      </trkpt>
      <trkpt lat="42.355904" lon="-0.7382382">
        <time>2022-07-05T11:45:37Z</time>
      </trkpt>
      <trkpt lat="42.355843" lon="-0.7381879">
        <time>2022-07-05T11:45:40Z</time>
      </trkpt>
      <trkpt lat="42.355774" lon="-0.73816824">
        <time>2022-07-05T11:45:43Z</time>
      </trkpt>
      <trkpt lat="42.35571" lon="-0.73816323">
        <time>2022-07-05T11:45:46Z</time>
      </trkpt>
      <trkpt lat="42.35564" lon="-0.7381739">
        <time>2022-07-05T11:45:49Z</time>
      </trkpt>
      <trkpt lat="42.35557" lon="-0.73819023">
        <time>2022-07-05T11:45:52Z</time>
      </trkpt>
      <trkpt lat="42.355526" lon="-0.7381959">
        <time>2022-07-05T11:45:54Z</time>
      </trkpt>
      <trkpt lat="42.355453" lon="-0.73819023">
        <time>2022-07-05T11:45:57Z</time>
      </trkpt>
      <trkpt lat="42.355404" lon="-0.7381759">
        <time>2022-07-05T11:45:59Z</time>
      </trkpt>
      <trkpt lat="42.35535" lon="-0.73815525">
        <time>2022-07-05T11:46:01Z</time>
      </trkpt>
      <trkpt lat="42.355305" lon="-0.73812556">
        <time>2022-07-05T11:46:03Z</time>
      </trkpt>
      <trkpt lat="42.355255" lon="-0.73809093">
        <time>2022-07-05T11:46:05Z</time>
      </trkpt>
      <trkpt lat="42.355198" lon="-0.7380513">
        <time>2022-07-05T11:46:07Z</time>
      </trkpt>
      <trkpt lat="42.355145" lon="-0.73801726">
        <time>2022-07-05T11:46:09Z</time>
      </trkpt>
      <trkpt lat="42.355083" lon="-0.73798925">
        <time>2022-07-05T11:46:11Z</time>
      </trkpt>
      <trkpt lat="42.355022" lon="-0.7379656">
        <time>2022-07-05T11:46:13Z</time>
      </trkpt>
      <trkpt lat="42.354954" lon="-0.7379486">
        <time>2022-07-05T11:46:15Z</time>
      </trkpt>
      <trkpt lat="42.35489" lon="-0.73794025">
        <time>2022-07-05T11:46:17Z</time>
      </trkpt>
      <trkpt lat="42.35482" lon="-0.73793995">
        <time>2022-07-05T11:46:19Z</time>
      </trkpt>
      <trkpt lat="42.354755" lon="-0.73794293">
        <time>2022-07-05T11:46:21Z</time>
      </trkpt>
      <trkpt lat="42.354683" lon="-0.73795396">
        <time>2022-07-05T11:46:23Z</time>
      </trkpt>
      <trkpt lat="42.354614" lon="-0.7379726">
        <time>2022-07-05T11:46:25Z</time>
      </trkpt>
      <trkpt lat="42.35455" lon="-0.7379976">
        <time>2022-07-05T11:46:27Z</time>
      </trkpt>
      <trkpt lat="42.35448" lon="-0.7380243">
        <time>2022-07-05T11:46:29Z</time>
      </trkpt>
      <trkpt lat="42.354416" lon="-0.73804593">
        <time>2022-07-05T11:46:31Z</time>
      </trkpt>
      <trkpt lat="42.354362" lon="-0.7380506">
        <time>2022-07-05T11:46:33Z</time>
      </trkpt>
      <trkpt lat="42.35432" lon="-0.7380259">
        <time>2022-07-05T11:46:36Z</time>
      </trkpt>
      <trkpt lat="42.35432" lon="-0.7379729">
        <time>2022-07-05T11:46:42Z</time>
      </trkpt>
      <trkpt lat="42.354305" lon="-0.7380166">
        <time>2022-07-05T11:47:57Z</time>
      </trkpt>
      <trkpt lat="42.35427" lon="-0.7380939">
        <time>2022-07-05T11:48:01Z</time>
      </trkpt>
      <trkpt lat="42.354218" lon="-0.7381389">
        <time>2022-07-05T11:48:05Z</time>
      </trkpt>
      <trkpt lat="42.35417" lon="-0.7381599">
        <time>2022-07-05T11:48:08Z</time>
      </trkpt>
      <trkpt lat="42.354122" lon="-0.7381843">
        <time>2022-07-05T11:48:12Z</time>
      </trkpt>
      <trkpt lat="42.354073" lon="-0.7382129">
        <time>2022-07-05T11:48:17Z</time>
      </trkpt>
      <trkpt lat="42.353977" lon="-0.73825455">
        <time>2022-07-05T11:48:25Z</time>
      </trkpt>
      <trkpt lat="42.35391" lon="-0.73828554">
        <time>2022-07-05T11:48:28Z</time>
      </trkpt>
      <trkpt lat="42.353855" lon="-0.7383099">
        <time>2022-07-05T11:48:30Z</time>
      </trkpt>
      <trkpt lat="42.353798" lon="-0.73833525">
        <time>2022-07-05T11:48:32Z</time>
      </trkpt>
      <trkpt lat="42.35374" lon="-0.7383606">
        <time>2022-07-05T11:48:34Z</time>
      </trkpt>
      <trkpt lat="42.353676" lon="-0.73838687">
        <time>2022-07-05T11:48:36Z</time>
      </trkpt>
      <trkpt lat="42.35361" lon="-0.7384136">
        <time>2022-07-05T11:48:38Z</time>
      </trkpt>
      <trkpt lat="42.353542" lon="-0.7384422">
        <time>2022-07-05T11:48:40Z</time>
      </trkpt>
      <trkpt lat="42.353477" lon="-0.7384712">
        <time>2022-07-05T11:48:42Z</time>
      </trkpt>
      <trkpt lat="42.35341" lon="-0.73850054">
        <time>2022-07-05T11:48:44Z</time>
      </trkpt>
      <trkpt lat="42.353306" lon="-0.73854184">
        <time>2022-07-05T11:48:47Z</time>
      </trkpt>
      <trkpt lat="42.353233" lon="-0.7385712">
        <time>2022-07-05T11:48:49Z</time>
      </trkpt>
      <trkpt lat="42.353165" lon="-0.73859984">
        <time>2022-07-05T11:48:51Z</time>
      </trkpt>
      <trkpt lat="42.353096" lon="-0.73862916">
        <time>2022-07-05T11:48:53Z</time>
      </trkpt>
      <trkpt lat="42.353027" lon="-0.73865753">
        <time>2022-07-05T11:48:55Z</time>
      </trkpt>
      <trkpt lat="42.352962" lon="-0.7386865">
        <time>2022-07-05T11:48:57Z</time>
      </trkpt>
      <trkpt lat="42.352898" lon="-0.73871654">
        <time>2022-07-05T11:48:59Z</time>
      </trkpt>
      <trkpt lat="42.35283" lon="-0.7387468">
        <time>2022-07-05T11:49:01Z</time>
      </trkpt>
      <trkpt lat="42.352753" lon="-0.73877853">
        <time>2022-07-05T11:49:03Z</time>
      </trkpt>
      <trkpt lat="42.352673" lon="-0.7388152">
        <time>2022-07-05T11:49:05Z</time>
      </trkpt>
      <trkpt lat="42.352592" lon="-0.73885417">
        <time>2022-07-05T11:49:07Z</time>
      </trkpt>
      <trkpt lat="42.352505" lon="-0.7388922">
        <time>2022-07-05T11:49:09Z</time>
      </trkpt>
      <trkpt lat="42.352417" lon="-0.7389308">
        <time>2022-07-05T11:49:11Z</time>
      </trkpt>
      <trkpt lat="42.35233" lon="-0.7389745">
        <time>2022-07-05T11:49:13Z</time>
      </trkpt>
      <trkpt lat="42.35224" lon="-0.7390171">
        <time>2022-07-05T11:49:15Z</time>
      </trkpt>
      <trkpt lat="42.352146" lon="-0.7390608">
        <time>2022-07-05T11:49:17Z</time>
      </trkpt>
      <trkpt lat="42.3521" lon="-0.73908216">
        <time>2022-07-05T11:49:18Z</time>
      </trkpt>
      <trkpt lat="42.352" lon="-0.7391241">
        <time>2022-07-05T11:49:20Z</time>
      </trkpt>
      <trkpt lat="42.351955" lon="-0.73914546">
        <time>2022-07-05T11:49:21Z</time>
      </trkpt>
      <trkpt lat="42.351852" lon="-0.7391885">
        <time>2022-07-05T11:49:23Z</time>
      </trkpt>
      <trkpt lat="42.351803" lon="-0.7392101">
        <time>2022-07-05T11:49:24Z</time>
      </trkpt>
      <trkpt lat="42.351753" lon="-0.73923147">
        <time>2022-07-05T11:49:25Z</time>
      </trkpt>
      <trkpt lat="42.351704" lon="-0.7392531">
        <time>2022-07-05T11:49:26Z</time>
      </trkpt>
      <trkpt lat="42.351654" lon="-0.73927414">
        <time>2022-07-05T11:49:27Z</time>
      </trkpt>
      <trkpt lat="42.351555" lon="-0.7393198">
        <time>2022-07-05T11:49:29Z</time>
      </trkpt>
      <trkpt lat="42.3515" lon="-0.73934245">
        <time>2022-07-05T11:49:30Z</time>
      </trkpt>
      <trkpt lat="42.351448" lon="-0.73936546">
        <time>2022-07-05T11:49:31Z</time>
      </trkpt>
      <trkpt lat="42.3514" lon="-0.73938775">
        <time>2022-07-05T11:49:32Z</time>
      </trkpt>
      <trkpt lat="42.351345" lon="-0.7394104">
        <time>2022-07-05T11:49:33Z</time>
      </trkpt>
      <trkpt lat="42.351295" lon="-0.7394348">
        <time>2022-07-05T11:49:34Z</time>
      </trkpt>
      <trkpt lat="42.351242" lon="-0.7394601">
        <time>2022-07-05T11:49:35Z</time>
      </trkpt>
      <trkpt lat="42.351192" lon="-0.7394838">
        <time>2022-07-05T11:49:36Z</time>
      </trkpt>
      <trkpt lat="42.351143" lon="-0.73950744">
        <time>2022-07-05T11:49:37Z</time>
      </trkpt>
      <trkpt lat="42.351044" lon="-0.73955375">
        <time>2022-07-05T11:49:39Z</time>
      </trkpt>
      <trkpt lat="42.350994" lon="-0.73957676">
        <time>2022-07-05T11:49:40Z</time>
      </trkpt>
      <trkpt lat="42.35094" lon="-0.7395994">
        <time>2022-07-05T11:49:41Z</time>
      </trkpt>
      <trkpt lat="42.35089" lon="-0.7396204">
        <time>2022-07-05T11:49:42Z</time>
      </trkpt>
      <trkpt lat="42.350838" lon="-0.7396417">
        <time>2022-07-05T11:49:43Z</time>
      </trkpt>
      <trkpt lat="42.35079" lon="-0.73966336">
        <time>2022-07-05T11:49:44Z</time>
      </trkpt>
      <trkpt lat="42.35074" lon="-0.7396854">
        <time>2022-07-05T11:49:45Z</time>
      </trkpt>
      <trkpt lat="42.35069" lon="-0.7397077">
        <time>2022-07-05T11:49:46Z</time>
      </trkpt>
      <trkpt lat="42.35059" lon="-0.7397514">
        <time>2022-07-05T11:49:48Z</time>
      </trkpt>
      <trkpt lat="42.350536" lon="-0.7397724">
        <time>2022-07-05T11:49:49Z</time>
      </trkpt>
      <trkpt lat="42.350487" lon="-0.7397944">
        <time>2022-07-05T11:49:50Z</time>
      </trkpt>
      <trkpt lat="42.350433" lon="-0.7398167">
        <time>2022-07-05T11:49:51Z</time>
      </trkpt>
      <trkpt lat="42.350334" lon="-0.73986304">
        <time>2022-07-05T11:49:53Z</time>
      </trkpt>
      <trkpt lat="42.35028" lon="-0.7398867">
        <time>2022-07-05T11:49:54Z</time>
      </trkpt>
      <trkpt lat="42.35023" lon="-0.73991">
        <time>2022-07-05T11:49:55Z</time>
      </trkpt>
      <trkpt lat="42.350178" lon="-0.739933">
        <time>2022-07-05T11:49:56Z</time>
      </trkpt>
      <trkpt lat="42.35012" lon="-0.7399564">
        <time>2022-07-05T11:49:57Z</time>
      </trkpt>
      <trkpt lat="42.35007" lon="-0.7399797">
        <time>2022-07-05T11:49:58Z</time>
      </trkpt>
      <trkpt lat="42.350014" lon="-0.7400027">
        <time>2022-07-05T11:49:59Z</time>
      </trkpt>
      <trkpt lat="42.34996" lon="-0.740026">
        <time>2022-07-05T11:50:00Z</time>
      </trkpt>
      <trkpt lat="42.34991" lon="-0.74004936">
        <time>2022-07-05T11:50:01Z</time>
      </trkpt>
      <trkpt lat="42.349857" lon="-0.7400737">
        <time>2022-07-05T11:50:02Z</time>
      </trkpt>
      <trkpt lat="42.349808" lon="-0.74010104">
        <time>2022-07-05T11:50:03Z</time>
      </trkpt>
      <trkpt lat="42.34976" lon="-0.74013036">
        <time>2022-07-05T11:50:04Z</time>
      </trkpt>
      <trkpt lat="42.34971" lon="-0.74016064">
        <time>2022-07-05T11:50:05Z</time>
      </trkpt>
      <trkpt lat="42.34966" lon="-0.74019235">
        <time>2022-07-05T11:50:06Z</time>
      </trkpt>
      <trkpt lat="42.349613" lon="-0.740225">
        <time>2022-07-05T11:50:07Z</time>
      </trkpt>
      <trkpt lat="42.349567" lon="-0.740259">
        <time>2022-07-05T11:50:08Z</time>
      </trkpt>
      <trkpt lat="42.34952" lon="-0.74029434">
        <time>2022-07-05T11:50:09Z</time>
      </trkpt>
      <trkpt lat="42.349476" lon="-0.740331">
        <time>2022-07-05T11:50:10Z</time>
      </trkpt>
      <trkpt lat="42.34943" lon="-0.7403673">
        <time>2022-07-05T11:50:11Z</time>
      </trkpt>
      <trkpt lat="42.349384" lon="-0.740406">
        <time>2022-07-05T11:50:12Z</time>
      </trkpt>
      <trkpt lat="42.34934" lon="-0.7404463">
        <time>2022-07-05T11:50:13Z</time>
      </trkpt>
      <trkpt lat="42.349293" lon="-0.7404866">
        <time>2022-07-05T11:50:14Z</time>
      </trkpt>
      <trkpt lat="42.349247" lon="-0.7405273">
        <time>2022-07-05T11:50:15Z</time>
      </trkpt>
      <trkpt lat="42.349197" lon="-0.74056864">
        <time>2022-07-05T11:50:16Z</time>
      </trkpt>
      <trkpt lat="42.34915" lon="-0.74060965">
        <time>2022-07-05T11:50:17Z</time>
      </trkpt>
      <trkpt lat="42.349106" lon="-0.7406503">
        <time>2022-07-05T11:50:18Z</time>
      </trkpt>
      <trkpt lat="42.34906" lon="-0.74068964">
        <time>2022-07-05T11:50:19Z</time>
      </trkpt>
      <trkpt lat="42.34901" lon="-0.7407316">
        <time>2022-07-05T11:50:20Z</time>
      </trkpt>
      <trkpt lat="42.348965" lon="-0.7407699">
        <time>2022-07-05T11:50:21Z</time>
      </trkpt>
      <trkpt lat="42.34892" lon="-0.7408106">
        <time>2022-07-05T11:50:22Z</time>
      </trkpt>
      <trkpt lat="42.34887" lon="-0.7408516">
        <time>2022-07-05T11:50:23Z</time>
      </trkpt>
      <trkpt lat="42.348824" lon="-0.74089223">
        <time>2022-07-05T11:50:24Z</time>
      </trkpt>
      <trkpt lat="42.348778" lon="-0.7409336">
        <time>2022-07-05T11:50:25Z</time>
      </trkpt>
      <trkpt lat="42.348732" lon="-0.74097526">
        <time>2022-07-05T11:50:26Z</time>
      </trkpt>
      <trkpt lat="42.348686" lon="-0.7410169">
        <time>2022-07-05T11:50:27Z</time>
      </trkpt>
      <trkpt lat="42.348644" lon="-0.7410569">
        <time>2022-07-05T11:50:28Z</time>
      </trkpt>
      <trkpt lat="42.3486" lon="-0.7410969">
        <time>2022-07-05T11:50:29Z</time>
      </trkpt>
      <trkpt lat="42.348553" lon="-0.74113625">
        <time>2022-07-05T11:50:30Z</time>
      </trkpt>
      <trkpt lat="42.348507" lon="-0.74117523">
        <time>2022-07-05T11:50:31Z</time>
      </trkpt>
      <trkpt lat="42.34846" lon="-0.7412142">
        <time>2022-07-05T11:50:32Z</time>
      </trkpt>
      <trkpt lat="42.348415" lon="-0.74125224">
        <time>2022-07-05T11:50:33Z</time>
      </trkpt>
      <trkpt lat="42.348373" lon="-0.74129057">
        <time>2022-07-05T11:50:34Z</time>
      </trkpt>
      <trkpt lat="42.348328" lon="-0.74132925">
        <time>2022-07-05T11:50:35Z</time>
      </trkpt>
      <trkpt lat="42.348286" lon="-0.7413672">
        <time>2022-07-05T11:50:36Z</time>
      </trkpt>
      <trkpt lat="42.3482" lon="-0.7414419">
        <time>2022-07-05T11:50:38Z</time>
      </trkpt>
      <trkpt lat="42.348114" lon="-0.74151725">
        <time>2022-07-05T11:50:40Z</time>
      </trkpt>
      <trkpt lat="42.348072" lon="-0.74155486">
        <time>2022-07-05T11:50:41Z</time>
      </trkpt>
      <trkpt lat="42.347992" lon="-0.7416262">
        <time>2022-07-05T11:50:43Z</time>
      </trkpt>
      <trkpt lat="42.34791" lon="-0.7416932">
        <time>2022-07-05T11:50:45Z</time>
      </trkpt>
      <trkpt lat="42.347836" lon="-0.7417552">
        <time>2022-07-05T11:50:47Z</time>
      </trkpt>
      <trkpt lat="42.34776" lon="-0.7418129">
        <time>2022-07-05T11:50:49Z</time>
      </trkpt>
      <trkpt lat="42.347687" lon="-0.7418662">
        <time>2022-07-05T11:50:51Z</time>
      </trkpt>
      <trkpt lat="42.34761" lon="-0.74191284">
        <time>2022-07-05T11:50:53Z</time>
      </trkpt>
      <trkpt lat="42.347534" lon="-0.7419595">
        <time>2022-07-05T11:50:55Z</time>
      </trkpt>
      <trkpt lat="42.347454" lon="-0.7420022">
        <time>2022-07-05T11:50:57Z</time>
      </trkpt>
      <trkpt lat="42.347378" lon="-0.74203783">
        <time>2022-07-05T11:50:59Z</time>
      </trkpt>
      <trkpt lat="42.3473" lon="-0.74206984">
        <time>2022-07-05T11:51:01Z</time>
      </trkpt>
      <trkpt lat="42.34723" lon="-0.74210215">
        <time>2022-07-05T11:51:03Z</time>
      </trkpt>
      <trkpt lat="42.34716" lon="-0.7421335">
        <time>2022-07-05T11:51:05Z</time>
      </trkpt>
      <trkpt lat="42.347095" lon="-0.7421632">
        <time>2022-07-05T11:51:07Z</time>
      </trkpt>
      <trkpt lat="42.347034" lon="-0.74218917">
        <time>2022-07-05T11:51:09Z</time>
      </trkpt>
      <trkpt lat="42.346977" lon="-0.7422122">
        <time>2022-07-05T11:51:11Z</time>
      </trkpt>
      <trkpt lat="42.34692" lon="-0.74223316">
        <time>2022-07-05T11:51:13Z</time>
      </trkpt>
      <trkpt lat="42.346867" lon="-0.7422575">
        <time>2022-07-05T11:51:15Z</time>
      </trkpt>
      <trkpt lat="42.34681" lon="-0.7422842">
        <time>2022-07-05T11:51:17Z</time>
      </trkpt>
      <trkpt lat="42.346752" lon="-0.7423058">
        <time>2022-07-05T11:51:19Z</time>
      </trkpt>
      <trkpt lat="42.3467" lon="-0.7423278">
        <time>2022-07-05T11:51:21Z</time>
      </trkpt>
      <trkpt lat="42.346645" lon="-0.7423508">
        <time>2022-07-05T11:51:23Z</time>
      </trkpt>
      <trkpt lat="42.346592" lon="-0.74237514">
        <time>2022-07-05T11:51:25Z</time>
      </trkpt>
      <trkpt lat="42.346535" lon="-0.7423968">
        <time>2022-07-05T11:51:27Z</time>
      </trkpt>
      <trkpt lat="42.34648" lon="-0.74241745">
        <time>2022-07-05T11:51:29Z</time>
      </trkpt>
      <trkpt lat="42.346428" lon="-0.7424388">
        <time>2022-07-05T11:51:31Z</time>
      </trkpt>
      <trkpt lat="42.346375" lon="-0.7424618">
        <time>2022-07-05T11:51:33Z</time>
      </trkpt>
      <trkpt lat="42.346325" lon="-0.74248445">
        <time>2022-07-05T11:51:35Z</time>
      </trkpt>
      <trkpt lat="42.346275" lon="-0.7425101">
        <time>2022-07-05T11:51:37Z</time>
      </trkpt>
      <trkpt lat="42.34623" lon="-0.7425371">
        <time>2022-07-05T11:51:39Z</time>
      </trkpt>
      <trkpt lat="42.346176" lon="-0.7425751">
        <time>2022-07-05T11:51:42Z</time>
      </trkpt>
      <trkpt lat="42.346123" lon="-0.7426001">
        <time>2022-07-05T11:53:10Z</time>
      </trkpt>
      <trkpt lat="42.34605" lon="-0.7426381">
        <time>2022-07-05T11:53:13Z</time>
      </trkpt>
      <trkpt lat="42.34599" lon="-0.7426651">
        <time>2022-07-05T11:53:15Z</time>
      </trkpt>
      <trkpt lat="42.345932" lon="-0.74269545">
        <time>2022-07-05T11:53:17Z</time>
      </trkpt>
      <trkpt lat="42.34587" lon="-0.74272645">
        <time>2022-07-05T11:53:19Z</time>
      </trkpt>
      <trkpt lat="42.345806" lon="-0.7427591">
        <time>2022-07-05T11:53:21Z</time>
      </trkpt>
      <trkpt lat="42.345737" lon="-0.74278945">
        <time>2022-07-05T11:53:23Z</time>
      </trkpt>
      <trkpt lat="42.345673" lon="-0.7428238">
        <time>2022-07-05T11:53:25Z</time>
      </trkpt>
      <trkpt lat="42.345604" lon="-0.7428631">
        <time>2022-07-05T11:53:27Z</time>
      </trkpt>
      <trkpt lat="42.34553" lon="-0.7429047">
        <time>2022-07-05T11:53:29Z</time>
      </trkpt>
      <trkpt lat="42.34545" lon="-0.7429488">
        <time>2022-07-05T11:53:31Z</time>
      </trkpt>
      <trkpt lat="42.34537" lon="-0.74299675">
        <time>2022-07-05T11:53:33Z</time>
      </trkpt>
      <trkpt lat="42.34529" lon="-0.7430454">
        <time>2022-07-05T11:53:35Z</time>
      </trkpt>
      <trkpt lat="42.345207" lon="-0.7431044">
        <time>2022-07-05T11:53:37Z</time>
      </trkpt>
      <trkpt lat="42.34512" lon="-0.7431704">
        <time>2022-07-05T11:53:39Z</time>
      </trkpt>
      <trkpt lat="42.345074" lon="-0.7432064">
        <time>2022-07-05T11:53:40Z</time>
      </trkpt>
      <trkpt lat="42.345028" lon="-0.74324375">
        <time>2022-07-05T11:53:41Z</time>
      </trkpt>
      <trkpt lat="42.344986" lon="-0.7432821">
        <time>2022-07-05T11:53:42Z</time>
      </trkpt>
      <trkpt lat="42.34494" lon="-0.7433207">
        <time>2022-07-05T11:53:43Z</time>
      </trkpt>
      <trkpt lat="42.344852" lon="-0.7434004">
        <time>2022-07-05T11:53:45Z</time>
      </trkpt>
      <trkpt lat="42.344814" lon="-0.74344003">
        <time>2022-07-05T11:53:46Z</time>
      </trkpt>
      <trkpt lat="42.344772" lon="-0.74348104">
        <time>2022-07-05T11:53:47Z</time>
      </trkpt>
      <trkpt lat="42.34469" lon="-0.7435637">
        <time>2022-07-05T11:53:49Z</time>
      </trkpt>
      <trkpt lat="42.34465" lon="-0.74360573">
        <time>2022-07-05T11:53:50Z</time>
      </trkpt>
      <trkpt lat="42.34457" lon="-0.74368906">
        <time>2022-07-05T11:53:52Z</time>
      </trkpt>
      <trkpt lat="42.34453" lon="-0.74373007">
        <time>2022-07-05T11:53:53Z</time>
      </trkpt>
      <trkpt lat="42.344448" lon="-0.74380904">
        <time>2022-07-05T11:53:55Z</time>
      </trkpt>
      <trkpt lat="42.344364" lon="-0.743888">
        <time>2022-07-05T11:53:57Z</time>
      </trkpt>
      <trkpt lat="42.344284" lon="-0.74396807">
        <time>2022-07-05T11:53:59Z</time>
      </trkpt>
      <trkpt lat="42.344246" lon="-0.7440077">
        <time>2022-07-05T11:54:00Z</time>
      </trkpt>
      <trkpt lat="42.34417" lon="-0.744086">
        <time>2022-07-05T11:54:02Z</time>
      </trkpt>
      <trkpt lat="42.34413" lon="-0.74412435">
        <time>2022-07-05T11:54:03Z</time>
      </trkpt>
      <trkpt lat="42.344055" lon="-0.744201">
        <time>2022-07-05T11:54:05Z</time>
      </trkpt>
      <trkpt lat="42.343983" lon="-0.7442767">
        <time>2022-07-05T11:54:07Z</time>
      </trkpt>
      <trkpt lat="42.343945" lon="-0.7443143">
        <time>2022-07-05T11:54:08Z</time>
      </trkpt>
      <trkpt lat="42.343872" lon="-0.74439">
        <time>2022-07-05T11:54:10Z</time>
      </trkpt>
      <trkpt lat="42.3438" lon="-0.74446">
        <time>2022-07-05T11:54:12Z</time>
      </trkpt>
      <trkpt lat="42.34372" lon="-0.74453264">
        <time>2022-07-05T11:54:14Z</time>
      </trkpt>
      <trkpt lat="42.34368" lon="-0.744568">
        <time>2022-07-05T11:54:15Z</time>
      </trkpt>
      <trkpt lat="42.3436" lon="-0.744639">
        <time>2022-07-05T11:54:17Z</time>
      </trkpt>
      <trkpt lat="42.34356" lon="-0.74467397">
        <time>2022-07-05T11:54:18Z</time>
      </trkpt>
      <trkpt lat="42.34347" lon="-0.7447417">
        <time>2022-07-05T11:54:20Z</time>
      </trkpt>
      <trkpt lat="42.343384" lon="-0.74480295">
        <time>2022-07-05T11:54:22Z</time>
      </trkpt>
      <trkpt lat="42.343292" lon="-0.74486065">
        <time>2022-07-05T11:54:24Z</time>
      </trkpt>
      <trkpt lat="42.3432" lon="-0.7449113">
        <time>2022-07-05T11:54:26Z</time>
      </trkpt>
      <trkpt lat="42.34311" lon="-0.7449576">
        <time>2022-07-05T11:54:28Z</time>
      </trkpt>
      <trkpt lat="42.34301" lon="-0.74500465">
        <time>2022-07-05T11:54:30Z</time>
      </trkpt>
      <trkpt lat="42.34296" lon="-0.7450246">
        <time>2022-07-05T11:54:31Z</time>
      </trkpt>
      <trkpt lat="42.34286" lon="-0.74506295">
        <time>2022-07-05T11:54:33Z</time>
      </trkpt>
      <trkpt lat="42.34281" lon="-0.7450826">
        <time>2022-07-05T11:54:34Z</time>
      </trkpt>
      <trkpt lat="42.342762" lon="-0.74510264">
        <time>2022-07-05T11:54:35Z</time>
      </trkpt>
      <trkpt lat="42.342705" lon="-0.7451236">
        <time>2022-07-05T11:54:36Z</time>
      </trkpt>
      <trkpt lat="42.342648" lon="-0.74514496">
        <time>2022-07-05T11:54:37Z</time>
      </trkpt>
      <trkpt lat="42.342594" lon="-0.7451663">
        <time>2022-07-05T11:54:38Z</time>
      </trkpt>
      <trkpt lat="42.342537" lon="-0.74518627">
        <time>2022-07-05T11:54:39Z</time>
      </trkpt>
      <trkpt lat="42.34248" lon="-0.74520326">
        <time>2022-07-05T11:54:40Z</time>
      </trkpt>
      <trkpt lat="42.342426" lon="-0.7452193">
        <time>2022-07-05T11:54:41Z</time>
      </trkpt>
      <trkpt lat="42.342373" lon="-0.74523497">
        <time>2022-07-05T11:54:42Z</time>
      </trkpt>
      <trkpt lat="42.34232" lon="-0.7452506">
        <time>2022-07-05T11:54:43Z</time>
      </trkpt>
      <trkpt lat="42.342266" lon="-0.7452669">
        <time>2022-07-05T11:54:44Z</time>
      </trkpt>
      <trkpt lat="42.342213" lon="-0.7452839">
        <time>2022-07-05T11:54:45Z</time>
      </trkpt>
      <trkpt lat="42.34216" lon="-0.7453029">
        <time>2022-07-05T11:54:46Z</time>
      </trkpt>
      <trkpt lat="42.342106" lon="-0.7453226">
        <time>2022-07-05T11:54:47Z</time>
      </trkpt>
      <trkpt lat="42.342052" lon="-0.74534327">
        <time>2022-07-05T11:54:48Z</time>
      </trkpt>
      <trkpt lat="42.342" lon="-0.74536294">
        <time>2022-07-05T11:54:49Z</time>
      </trkpt>
      <trkpt lat="42.34194" lon="-0.7453816">
        <time>2022-07-05T11:54:50Z</time>
      </trkpt>
      <trkpt lat="42.34189" lon="-0.7454009">
        <time>2022-07-05T11:54:51Z</time>
      </trkpt>
      <trkpt lat="42.341835" lon="-0.74541956">
        <time>2022-07-05T11:54:52Z</time>
      </trkpt>
      <trkpt lat="42.341778" lon="-0.7454389">
        <time>2022-07-05T11:54:53Z</time>
      </trkpt>
      <trkpt lat="42.341724" lon="-0.74545854">
        <time>2022-07-05T11:54:54Z</time>
      </trkpt>
      <trkpt lat="42.34167" lon="-0.7454782">
        <time>2022-07-05T11:54:55Z</time>
      </trkpt>
      <trkpt lat="42.341618" lon="-0.7454979">
        <time>2022-07-05T11:54:56Z</time>
      </trkpt>
      <trkpt lat="42.341564" lon="-0.7455172">
        <time>2022-07-05T11:54:57Z</time>
      </trkpt>
      <trkpt lat="42.34151" lon="-0.7455362">
        <time>2022-07-05T11:54:58Z</time>
      </trkpt>
      <trkpt lat="42.341457" lon="-0.74555486">
        <time>2022-07-05T11:54:59Z</time>
      </trkpt>
      <trkpt lat="42.341404" lon="-0.7455735">
        <time>2022-07-05T11:55:00Z</time>
      </trkpt>
      <trkpt lat="42.34135" lon="-0.7455915">
        <time>2022-07-05T11:55:01Z</time>
      </trkpt>
      <trkpt lat="42.3413" lon="-0.74560916">
        <time>2022-07-05T11:55:02Z</time>
      </trkpt>
      <trkpt lat="42.341248" lon="-0.74562585">
        <time>2022-07-05T11:55:03Z</time>
      </trkpt>
      <trkpt lat="42.341198" lon="-0.7456425">
        <time>2022-07-05T11:55:04Z</time>
      </trkpt>
      <trkpt lat="42.34115" lon="-0.7456585">
        <time>2022-07-05T11:55:05Z</time>
      </trkpt>
      <trkpt lat="42.341053" lon="-0.7456898">
        <time>2022-07-05T11:55:07Z</time>
      </trkpt>
      <trkpt lat="42.340908" lon="-0.74573785">
        <time>2022-07-05T11:55:10Z</time>
      </trkpt>
      <trkpt lat="42.340862" lon="-0.7457542">
        <time>2022-07-05T11:55:11Z</time>
      </trkpt>
      <trkpt lat="42.340763" lon="-0.74578947">
        <time>2022-07-05T11:55:13Z</time>
      </trkpt>
      <trkpt lat="42.340668" lon="-0.74582046">
        <time>2022-07-05T11:55:15Z</time>
      </trkpt>
      <trkpt lat="42.340572" lon="-0.7458505">
        <time>2022-07-05T11:55:17Z</time>
      </trkpt>
      <trkpt lat="42.34048" lon="-0.7458818">
        <time>2022-07-05T11:55:19Z</time>
      </trkpt>
      <trkpt lat="42.340435" lon="-0.74589884">
        <time>2022-07-05T11:55:20Z</time>
      </trkpt>
      <trkpt lat="42.34034" lon="-0.7459368">
        <time>2022-07-05T11:55:22Z</time>
      </trkpt>
      <trkpt lat="42.340244" lon="-0.7459795">
        <time>2022-07-05T11:55:24Z</time>
      </trkpt>
      <trkpt lat="42.340153" lon="-0.7460258">
        <time>2022-07-05T11:55:26Z</time>
      </trkpt>
      <trkpt lat="42.34006" lon="-0.74607515">
        <time>2022-07-05T11:55:28Z</time>
      </trkpt>
      <trkpt lat="42.33997" lon="-0.74612916">
        <time>2022-07-05T11:55:30Z</time>
      </trkpt>
      <trkpt lat="42.339886" lon="-0.7461888">
        <time>2022-07-05T11:55:32Z</time>
      </trkpt>
      <trkpt lat="42.339844" lon="-0.74622047">
        <time>2022-07-05T11:55:33Z</time>
      </trkpt>
      <trkpt lat="42.33976" lon="-0.74628544">
        <time>2022-07-05T11:55:35Z</time>
      </trkpt>
      <trkpt lat="42.33968" lon="-0.7463528">
        <time>2022-07-05T11:55:37Z</time>
      </trkpt>
      <trkpt lat="42.3396" lon="-0.74642646">
        <time>2022-07-05T11:55:39Z</time>
      </trkpt>
      <trkpt lat="42.339558" lon="-0.7464648">
        <time>2022-07-05T11:55:40Z</time>
      </trkpt>
      <trkpt lat="42.339516" lon="-0.7465031">
        <time>2022-07-05T11:55:41Z</time>
      </trkpt>
      <trkpt lat="42.339436" lon="-0.7465791">
        <time>2022-07-05T11:55:43Z</time>
      </trkpt>
      <trkpt lat="42.33936" lon="-0.7466551">
        <time>2022-07-05T11:55:45Z</time>
      </trkpt>
      <trkpt lat="42.33932" lon="-0.74669343">
        <time>2022-07-05T11:55:46Z</time>
      </trkpt>
      <trkpt lat="42.339245" lon="-0.7467684">
        <time>2022-07-05T11:55:48Z</time>
      </trkpt>
      <trkpt lat="42.33917" lon="-0.74684244">
        <time>2022-07-05T11:55:50Z</time>
      </trkpt>
      <trkpt lat="42.339092" lon="-0.7469181">
        <time>2022-07-05T11:55:52Z</time>
      </trkpt>
      <trkpt lat="42.339016" lon="-0.74699277">
        <time>2022-07-05T11:55:54Z</time>
      </trkpt>
      <trkpt lat="42.33898" lon="-0.74702907">
        <time>2022-07-05T11:55:55Z</time>
      </trkpt>
      <trkpt lat="42.33891" lon="-0.74709976">
        <time>2022-07-05T11:55:57Z</time>
      </trkpt>
      <trkpt lat="42.338844" lon="-0.74716675">
        <time>2022-07-05T11:55:59Z</time>
      </trkpt>
      <trkpt lat="42.33878" lon="-0.7472284">
        <time>2022-07-05T11:56:01Z</time>
      </trkpt>
      <trkpt lat="42.338715" lon="-0.7472897">
        <time>2022-07-05T11:56:03Z</time>
      </trkpt>
      <trkpt lat="42.338657" lon="-0.7473454">
        <time>2022-07-05T11:56:05Z</time>
      </trkpt>
      <trkpt lat="42.3386" lon="-0.7473977">
        <time>2022-07-05T11:56:07Z</time>
      </trkpt>
      <trkpt lat="42.338547" lon="-0.7474507">
        <time>2022-07-05T11:56:09Z</time>
      </trkpt>
      <trkpt lat="42.338497" lon="-0.74750674">
        <time>2022-07-05T11:56:11Z</time>
      </trkpt>
      <trkpt lat="42.338448" lon="-0.7475637">
        <time>2022-07-05T11:56:13Z</time>
      </trkpt>
      <trkpt lat="42.338394" lon="-0.74761975">
        <time>2022-07-05T11:56:15Z</time>
      </trkpt>
      <trkpt lat="42.33834" lon="-0.7476761">
        <time>2022-07-05T11:56:17Z</time>
      </trkpt>
      <trkpt lat="42.338287" lon="-0.7477327">
        <time>2022-07-05T11:56:19Z</time>
      </trkpt>
      <trkpt lat="42.338238" lon="-0.7477907">
        <time>2022-07-05T11:56:21Z</time>
      </trkpt>
      <trkpt lat="42.338184" lon="-0.7478474">
        <time>2022-07-05T11:56:23Z</time>
      </trkpt>
      <trkpt lat="42.33813" lon="-0.7479007">
        <time>2022-07-05T11:56:25Z</time>
      </trkpt>
      <trkpt lat="42.338078" lon="-0.74795306">
        <time>2022-07-05T11:56:27Z</time>
      </trkpt>
      <trkpt lat="42.338024" lon="-0.7480054">
        <time>2022-07-05T11:56:29Z</time>
      </trkpt>
      <trkpt lat="42.337967" lon="-0.7480624">
        <time>2022-07-05T11:56:31Z</time>
      </trkpt>
      <trkpt lat="42.337914" lon="-0.7481187">
        <time>2022-07-05T11:56:33Z</time>
      </trkpt>
      <trkpt lat="42.33786" lon="-0.74817437">
        <time>2022-07-05T11:56:35Z</time>
      </trkpt>
      <trkpt lat="42.337803" lon="-0.7482297">
        <time>2022-07-05T11:56:37Z</time>
      </trkpt>
      <trkpt lat="42.33775" lon="-0.7482833">
        <time>2022-07-05T11:56:39Z</time>
      </trkpt>
      <trkpt lat="42.337696" lon="-0.74833935">
        <time>2022-07-05T11:56:41Z</time>
      </trkpt>
      <trkpt lat="42.33764" lon="-0.74839365">
        <time>2022-07-05T11:56:43Z</time>
      </trkpt>
      <trkpt lat="42.33759" lon="-0.74844366">
        <time>2022-07-05T11:56:45Z</time>
      </trkpt>
      <trkpt lat="42.33754" lon="-0.74849766">
        <time>2022-07-05T11:56:47Z</time>
      </trkpt>
      <trkpt lat="42.337486" lon="-0.74855137">
        <time>2022-07-05T11:56:49Z</time>
      </trkpt>
      <trkpt lat="42.337437" lon="-0.74859965">
        <time>2022-07-05T11:56:51Z</time>
      </trkpt>
      <trkpt lat="42.337383" lon="-0.74864864">
        <time>2022-07-05T11:56:53Z</time>
      </trkpt>
      <trkpt lat="42.33733" lon="-0.74869865">
        <time>2022-07-05T11:56:55Z</time>
      </trkpt>
      <trkpt lat="42.337276" lon="-0.748748">
        <time>2022-07-05T11:56:57Z</time>
      </trkpt>
      <trkpt lat="42.33722" lon="-0.7487947">
        <time>2022-07-05T11:56:59Z</time>
      </trkpt>
      <trkpt lat="42.337162" lon="-0.748843">
        <time>2022-07-05T11:57:01Z</time>
      </trkpt>
      <trkpt lat="42.33711" lon="-0.7488843">
        <time>2022-07-05T11:57:03Z</time>
      </trkpt>
      <trkpt lat="42.33705" lon="-0.74892396">
        <time>2022-07-05T11:57:05Z</time>
      </trkpt>
      <trkpt lat="42.336994" lon="-0.7489643">
        <time>2022-07-05T11:57:07Z</time>
      </trkpt>
      <trkpt lat="42.336937" lon="-0.74900633">
        <time>2022-07-05T11:57:09Z</time>
      </trkpt>
      <trkpt lat="42.33688" lon="-0.74904734">
        <time>2022-07-05T11:57:11Z</time>
      </trkpt>
      <trkpt lat="42.336826" lon="-0.74908894">
        <time>2022-07-05T11:57:13Z</time>
      </trkpt>
      <trkpt lat="42.33677" lon="-0.7491306">
        <time>2022-07-05T11:57:15Z</time>
      </trkpt>
      <trkpt lat="42.336708" lon="-0.74917465">
        <time>2022-07-05T11:57:17Z</time>
      </trkpt>
      <trkpt lat="42.33662" lon="-0.74923766">
        <time>2022-07-05T11:57:20Z</time>
      </trkpt>
      <trkpt lat="42.336563" lon="-0.7492786">
        <time>2022-07-05T11:57:22Z</time>
      </trkpt>
      <trkpt lat="42.33651" lon="-0.749321">
        <time>2022-07-05T11:57:24Z</time>
      </trkpt>
      <trkpt lat="42.336452" lon="-0.74936193">
        <time>2022-07-05T11:57:26Z</time>
      </trkpt>
      <trkpt lat="42.336403" lon="-0.74940395">
        <time>2022-07-05T11:57:28Z</time>
      </trkpt>
      <trkpt lat="42.33635" lon="-0.7494443">
        <time>2022-07-05T11:57:30Z</time>
      </trkpt>
      <trkpt lat="42.3363" lon="-0.74948496">
        <time>2022-07-05T11:57:32Z</time>
      </trkpt>
      <trkpt lat="42.336254" lon="-0.7495226">
        <time>2022-07-05T11:57:34Z</time>
      </trkpt>
      <trkpt lat="42.336212" lon="-0.7495586">
        <time>2022-07-05T11:57:36Z</time>
      </trkpt>
      <trkpt lat="42.336147" lon="-0.74961096">
        <time>2022-07-05T11:57:39Z</time>
      </trkpt>
      <trkpt lat="42.336105" lon="-0.74964726">
        <time>2022-07-05T11:57:41Z</time>
      </trkpt>
      <trkpt lat="42.336063" lon="-0.74968725">
        <time>2022-07-05T11:57:43Z</time>
      </trkpt>
      <trkpt lat="42.336018" lon="-0.7497329">
        <time>2022-07-05T11:57:45Z</time>
      </trkpt>
      <trkpt lat="42.335968" lon="-0.7497829">
        <time>2022-07-05T11:57:47Z</time>
      </trkpt>
      <trkpt lat="42.33592" lon="-0.74983525">
        <time>2022-07-05T11:57:49Z</time>
      </trkpt>
      <trkpt lat="42.33587" lon="-0.7498926">
        <time>2022-07-05T11:57:51Z</time>
      </trkpt>
      <trkpt lat="42.33581" lon="-0.7499529">
        <time>2022-07-05T11:57:53Z</time>
      </trkpt>
      <trkpt lat="42.33576" lon="-0.7500186">
        <time>2022-07-05T11:57:55Z</time>
      </trkpt>
      <trkpt lat="42.3357" lon="-0.7500882">
        <time>2022-07-05T11:57:57Z</time>
      </trkpt>
      <trkpt lat="42.335644" lon="-0.75015855">
        <time>2022-07-05T11:57:59Z</time>
      </trkpt>
      <trkpt lat="42.335587" lon="-0.75023156">
        <time>2022-07-05T11:58:01Z</time>
      </trkpt>
      <trkpt lat="42.335526" lon="-0.7503029">
        <time>2022-07-05T11:58:03Z</time>
      </trkpt>
      <trkpt lat="42.335464" lon="-0.75036526">
        <time>2022-07-05T11:58:05Z</time>
      </trkpt>
      <trkpt lat="42.335407" lon="-0.7504259">
        <time>2022-07-05T11:58:07Z</time>
      </trkpt>
      <trkpt lat="42.335354" lon="-0.7504822">
        <time>2022-07-05T11:58:09Z</time>
      </trkpt>
      <trkpt lat="42.335297" lon="-0.75052553">
        <time>2022-07-05T11:58:11Z</time>
      </trkpt>
      <trkpt lat="42.335236" lon="-0.75053287">
        <time>2022-07-05T11:58:13Z</time>
      </trkpt>
      <trkpt lat="42.335186" lon="-0.7505042">
        <time>2022-07-05T11:58:15Z</time>
      </trkpt>
      <trkpt lat="42.33515" lon="-0.7504682">
        <time>2022-07-05T11:58:17Z</time>
      </trkpt>
      <trkpt lat="42.33512" lon="-0.75048155">
        <time>2022-07-05T12:00:19Z</time>
      </trkpt>
      <trkpt lat="42.335155" lon="-0.7505376">
        <time>2022-07-05T12:00:24Z</time>
      </trkpt>
      <trkpt lat="42.335217" lon="-0.7505372">
        <time>2022-07-05T12:00:59Z</time>
      </trkpt>
      <trkpt lat="42.33528" lon="-0.7504919">
        <time>2022-07-05T12:01:03Z</time>
      </trkpt>
      <trkpt lat="42.33533" lon="-0.7504379">
        <time>2022-07-05T12:01:06Z</time>
      </trkpt>
      <trkpt lat="42.33537" lon="-0.75036955">
        <time>2022-07-05T12:01:09Z</time>
      </trkpt>
      <trkpt lat="42.335415" lon="-0.7503279">
        <time>2022-07-05T12:01:12Z</time>
      </trkpt>
      <trkpt lat="42.335426" lon="-0.75036955">
        <time>2022-07-05T12:01:17Z</time>
      </trkpt>
      <trkpt lat="42.335373" lon="-0.75042623">
        <time>2022-07-05T12:01:20Z</time>
      </trkpt>
      <trkpt lat="42.335327" lon="-0.7504692">
        <time>2022-07-05T12:01:22Z</time>
      </trkpt>
      <trkpt lat="42.33525" lon="-0.75050724">
        <time>2022-07-05T12:01:25Z</time>
      </trkpt>
      <trkpt lat="42.335167" lon="-0.75045425">
        <time>2022-07-05T12:01:28Z</time>
      </trkpt>
      <trkpt lat="42.335117" lon="-0.7503782">
        <time>2022-07-05T12:01:30Z</time>
      </trkpt>
      <trkpt lat="42.335064" lon="-0.75027025">
        <time>2022-07-05T12:01:32Z</time>
      </trkpt>
      <trkpt lat="42.335033" lon="-0.75020754">
        <time>2022-07-05T12:01:33Z</time>
      </trkpt>
      <trkpt lat="42.335003" lon="-0.75014156">
        <time>2022-07-05T12:01:34Z</time>
      </trkpt>
      <trkpt lat="42.334972" lon="-0.75007653">
        <time>2022-07-05T12:01:35Z</time>
      </trkpt>
      <trkpt lat="42.334938" lon="-0.75000757">
        <time>2022-07-05T12:01:36Z</time>
      </trkpt>
      <trkpt lat="42.334904" lon="-0.7499302">
        <time>2022-07-05T12:01:37Z</time>
      </trkpt>
      <trkpt lat="42.334866" lon="-0.7498519">
        <time>2022-07-05T12:01:38Z</time>
      </trkpt>
      <trkpt lat="42.33483" lon="-0.7497729">
        <time>2022-07-05T12:01:39Z</time>
      </trkpt>
      <trkpt lat="42.334797" lon="-0.7496982">
        <time>2022-07-05T12:01:40Z</time>
      </trkpt>
      <trkpt lat="42.334763" lon="-0.7496212">
        <time>2022-07-05T12:01:41Z</time>
      </trkpt>
      <trkpt lat="42.33473" lon="-0.7495412">
        <time>2022-07-05T12:01:42Z</time>
      </trkpt>
      <trkpt lat="42.334698" lon="-0.74945956">
        <time>2022-07-05T12:01:43Z</time>
      </trkpt>
      <trkpt lat="42.334667" lon="-0.7493769">
        <time>2022-07-05T12:01:44Z</time>
      </trkpt>
      <trkpt lat="42.334637" lon="-0.74929494">
        <time>2022-07-05T12:01:45Z</time>
      </trkpt>
      <trkpt lat="42.334602" lon="-0.7492129">
        <time>2022-07-05T12:01:46Z</time>
      </trkpt>
      <trkpt lat="42.33457" lon="-0.7491299">
        <time>2022-07-05T12:01:47Z</time>
      </trkpt>
      <trkpt lat="42.334545" lon="-0.7490473">
        <time>2022-07-05T12:01:48Z</time>
      </trkpt>
      <trkpt lat="42.33452" lon="-0.74896395">
        <time>2022-07-05T12:01:49Z</time>
      </trkpt>
      <trkpt lat="42.33449" lon="-0.7488799">
        <time>2022-07-05T12:01:50Z</time>
      </trkpt>
      <trkpt lat="42.334465" lon="-0.7487963">
        <time>2022-07-05T12:01:51Z</time>
      </trkpt>
      <trkpt lat="42.334442" lon="-0.7487126">
        <time>2022-07-05T12:01:52Z</time>
      </trkpt>
      <trkpt lat="42.33442" lon="-0.74862826">
        <time>2022-07-05T12:01:53Z</time>
      </trkpt>
      <trkpt lat="42.3344" lon="-0.7485423">
        <time>2022-07-05T12:01:54Z</time>
      </trkpt>
      <trkpt lat="42.33439" lon="-0.7484563">
        <time>2022-07-05T12:01:55Z</time>
      </trkpt>
      <trkpt lat="42.334385" lon="-0.74837095">
        <time>2022-07-05T12:01:56Z</time>
      </trkpt>
      <trkpt lat="42.334385" lon="-0.74828696">
        <time>2022-07-05T12:01:57Z</time>
      </trkpt>
      <trkpt lat="42.334396" lon="-0.74820596">
        <time>2022-07-05T12:01:58Z</time>
      </trkpt>
      <trkpt lat="42.33441" lon="-0.7481286">
        <time>2022-07-05T12:01:59Z</time>
      </trkpt>
      <trkpt lat="42.334435" lon="-0.7480563">
        <time>2022-07-05T12:02:00Z</time>
      </trkpt>
      <trkpt lat="42.33446" lon="-0.74798894">
        <time>2022-07-05T12:02:01Z</time>
      </trkpt>
      <trkpt lat="42.334496" lon="-0.74792665">
        <time>2022-07-05T12:02:02Z</time>
      </trkpt>
      <trkpt lat="42.33453" lon="-0.747866">
        <time>2022-07-05T12:02:03Z</time>
      </trkpt>
      <trkpt lat="42.334564" lon="-0.747805">
        <time>2022-07-05T12:02:04Z</time>
      </trkpt>
      <trkpt lat="42.3346" lon="-0.74774265">
        <time>2022-07-05T12:02:05Z</time>
      </trkpt>
      <trkpt lat="42.334625" lon="-0.7476776">
        <time>2022-07-05T12:02:06Z</time>
      </trkpt>
      <trkpt lat="42.334652" lon="-0.74760896">
        <time>2022-07-05T12:02:07Z</time>
      </trkpt>
      <trkpt lat="42.33467" lon="-0.74753666">
        <time>2022-07-05T12:02:08Z</time>
      </trkpt>
      <trkpt lat="42.33469" lon="-0.74746066">
        <time>2022-07-05T12:02:09Z</time>
      </trkpt>
      <trkpt lat="42.3347" lon="-0.74738234">
        <time>2022-07-05T12:02:10Z</time>
      </trkpt>
      <trkpt lat="42.33471" lon="-0.74730164">
        <time>2022-07-05T12:02:11Z</time>
      </trkpt>
      <trkpt lat="42.334717" lon="-0.74721867">
        <time>2022-07-05T12:02:12Z</time>
      </trkpt>
      <trkpt lat="42.334724" lon="-0.747133">
        <time>2022-07-05T12:02:13Z</time>
      </trkpt>
      <trkpt lat="42.33473" lon="-0.74704635">
        <time>2022-07-05T12:02:14Z</time>
      </trkpt>
      <trkpt lat="42.33473" lon="-0.7469583">
        <time>2022-07-05T12:02:15Z</time>
      </trkpt>
      <trkpt lat="42.334724" lon="-0.746872">
        <time>2022-07-05T12:02:16Z</time>
      </trkpt>
      <trkpt lat="42.334717" lon="-0.74678767">
        <time>2022-07-05T12:02:17Z</time>
      </trkpt>
      <trkpt lat="42.334705" lon="-0.7467047">
        <time>2022-07-05T12:02:18Z</time>
      </trkpt>
      <trkpt lat="42.334694" lon="-0.7466227">
        <time>2022-07-05T12:02:19Z</time>
      </trkpt>
      <trkpt lat="42.334682" lon="-0.746541">
        <time>2022-07-05T12:02:20Z</time>
      </trkpt>
      <trkpt lat="42.334667" lon="-0.74646133">
        <time>2022-07-05T12:02:21Z</time>
      </trkpt>
      <trkpt lat="42.334656" lon="-0.7463827">
        <time>2022-07-05T12:02:22Z</time>
      </trkpt>
      <trkpt lat="42.334644" lon="-0.7463057">
        <time>2022-07-05T12:02:23Z</time>
      </trkpt>
      <trkpt lat="42.33463" lon="-0.74623007">
        <time>2022-07-05T12:02:24Z</time>
      </trkpt>
      <trkpt lat="42.334618" lon="-0.74615574">
        <time>2022-07-05T12:02:25Z</time>
      </trkpt>
      <trkpt lat="42.334606" lon="-0.7460827">
        <time>2022-07-05T12:02:26Z</time>
      </trkpt>
      <trkpt lat="42.33459" lon="-0.7460114">
        <time>2022-07-05T12:02:27Z</time>
      </trkpt>
      <trkpt lat="42.334576" lon="-0.7459414">
        <time>2022-07-05T12:02:28Z</time>
      </trkpt>
      <trkpt lat="42.33456" lon="-0.74587274">
        <time>2022-07-05T12:02:29Z</time>
      </trkpt>
      <trkpt lat="42.334545" lon="-0.74580604">
        <time>2022-07-05T12:02:30Z</time>
      </trkpt>
      <trkpt lat="42.334526" lon="-0.74574274">
        <time>2022-07-05T12:02:31Z</time>
      </trkpt>
      <trkpt lat="42.334484" lon="-0.74562275">
        <time>2022-07-05T12:02:33Z</time>
      </trkpt>
      <trkpt lat="42.33443" lon="-0.74551076">
        <time>2022-07-05T12:02:35Z</time>
      </trkpt>
      <trkpt lat="42.334366" lon="-0.7454097">
        <time>2022-07-05T12:02:37Z</time>
      </trkpt>
      <trkpt lat="42.334305" lon="-0.7453121">
        <time>2022-07-05T12:02:39Z</time>
      </trkpt>
      <trkpt lat="42.334244" lon="-0.74521005">
        <time>2022-07-05T12:02:41Z</time>
      </trkpt>
      <trkpt lat="42.33419" lon="-0.7451011">
        <time>2022-07-05T12:02:43Z</time>
      </trkpt>
      <trkpt lat="42.334137" lon="-0.7449914">
        <time>2022-07-05T12:02:45Z</time>
      </trkpt>
      <trkpt lat="42.33408" lon="-0.74488276">
        <time>2022-07-05T12:02:47Z</time>
      </trkpt>
      <trkpt lat="42.334026" lon="-0.7447754">
        <time>2022-07-05T12:02:49Z</time>
      </trkpt>
      <trkpt lat="42.334003" lon="-0.7447211">
        <time>2022-07-05T12:02:50Z</time>
      </trkpt>
      <trkpt lat="42.333965" lon="-0.7446091">
        <time>2022-07-05T12:02:52Z</time>
      </trkpt>
      <trkpt lat="42.33393" lon="-0.74449575">
        <time>2022-07-05T12:02:54Z</time>
      </trkpt>
      <trkpt lat="42.333897" lon="-0.7443821">
        <time>2022-07-05T12:02:56Z</time>
      </trkpt>
      <trkpt lat="42.333862" lon="-0.74426645">
        <time>2022-07-05T12:02:58Z</time>
      </trkpt>
      <trkpt lat="42.333813" lon="-0.74414545">
        <time>2022-07-05T12:03:00Z</time>
      </trkpt>
      <trkpt lat="42.33378" lon="-0.74408144">
        <time>2022-07-05T12:03:01Z</time>
      </trkpt>
      <trkpt lat="42.333736" lon="-0.74401647">
        <time>2022-07-05T12:03:02Z</time>
      </trkpt>
      <trkpt lat="42.333694" lon="-0.7439521">
        <time>2022-07-05T12:03:03Z</time>
      </trkpt>
      <trkpt lat="42.33365" lon="-0.74389076">
        <time>2022-07-05T12:03:04Z</time>
      </trkpt>
      <trkpt lat="42.333607" lon="-0.74383247">
        <time>2022-07-05T12:03:05Z</time>
      </trkpt>
      <trkpt lat="42.333572" lon="-0.7437781">
        <time>2022-07-05T12:03:06Z</time>
      </trkpt>
      <trkpt lat="42.333546" lon="-0.7437278">
        <time>2022-07-05T12:03:07Z</time>
      </trkpt>
      <trkpt lat="42.33351" lon="-0.7436388">
        <time>2022-07-05T12:03:09Z</time>
      </trkpt>
      <trkpt lat="42.333504" lon="-0.74356514">
        <time>2022-07-05T12:03:11Z</time>
      </trkpt>
      <trkpt lat="42.33352" lon="-0.74348515">
        <time>2022-07-05T12:03:14Z</time>
      </trkpt>
      <trkpt lat="42.333565" lon="-0.7434248">
        <time>2022-07-05T12:03:17Z</time>
      </trkpt>
      <trkpt lat="42.333607" lon="-0.7433888">
        <time>2022-07-05T12:03:19Z</time>
      </trkpt>
      <trkpt lat="42.333675" lon="-0.7433355">
        <time>2022-07-05T12:03:22Z</time>
      </trkpt>
      <trkpt lat="42.333725" lon="-0.74330217">
        <time>2022-07-05T12:03:24Z</time>
      </trkpt>
      <trkpt lat="42.33378" lon="-0.7432675">
        <time>2022-07-05T12:03:26Z</time>
      </trkpt>
      <trkpt lat="42.33383" lon="-0.7432335">
        <time>2022-07-05T12:03:28Z</time>
      </trkpt>
      <trkpt lat="42.333885" lon="-0.7432055">
        <time>2022-07-05T12:03:30Z</time>
      </trkpt>
      <trkpt lat="42.333935" lon="-0.74318045">
        <time>2022-07-05T12:03:32Z</time>
      </trkpt>
      <trkpt lat="42.333992" lon="-0.7431461">
        <time>2022-07-05T12:03:35Z</time>
      </trkpt>
      <trkpt lat="42.33404" lon="-0.7431128">
        <time>2022-07-05T12:03:39Z</time>
      </trkpt>
      <trkpt lat="42.3341" lon="-0.7430745">
        <time>2022-07-05T12:03:44Z</time>
      </trkpt>
      <trkpt lat="42.334152" lon="-0.7430418">
        <time>2022-07-05T12:03:48Z</time>
      </trkpt>
      <trkpt lat="42.3342" lon="-0.7430255">
        <time>2022-07-05T12:03:52Z</time>
      </trkpt>
      <trkpt lat="42.334312" lon="-0.74315286">
        <time>2022-07-05T12:09:35Z</time>
      </trkpt>
      <trkpt lat="42.334347" lon="-0.74317116">
        <time>2022-07-05T12:09:39Z</time>
      </trkpt>
      <trkpt lat="42.33435" lon="-0.7432145">
        <time>2022-07-05T12:14:51Z</time>
      </trkpt>
      <trkpt lat="42.3342" lon="-0.74300486">
        <time>2022-07-05T13:29:25Z</time>
      </trkpt>
      <trkpt lat="42.334198" lon="-0.7430688">
        <time>2022-07-05T13:29:29Z</time>
      </trkpt>
      <trkpt lat="42.334213" lon="-0.74310213">
        <time>2022-07-05T13:34:04Z</time>
      </trkpt>
      <trkpt lat="42.334255" lon="-0.7430368">
        <time>2022-07-05T13:34:09Z</time>
      </trkpt>
      <trkpt lat="42.334297" lon="-0.74300414">
        <time>2022-07-05T13:34:14Z</time>
      </trkpt>
      <trkpt lat="42.33425" lon="-0.74303216">
        <time>2022-07-05T13:38:32Z</time>
      </trkpt>
      <trkpt lat="42.334236" lon="-0.7431205">
        <time>2022-07-05T13:38:36Z</time>
      </trkpt>
      <trkpt lat="42.33423" lon="-0.7431768">
        <time>2022-07-05T13:38:41Z</time>
      </trkpt>
      <trkpt lat="42.33418" lon="-0.7432092">
        <time>2022-07-05T13:38:47Z</time>
      </trkpt>
      <trkpt lat="42.334248" lon="-0.7430805">
        <time>2022-07-05T13:39:40Z</time>
      </trkpt>
      <trkpt lat="42.334255" lon="-0.7430115">
        <time>2022-07-05T13:39:44Z</time>
      </trkpt>
      <trkpt lat="42.334244" lon="-0.7429705">
        <time>2022-07-05T13:41:02Z</time>
      </trkpt>
      <trkpt lat="42.334198" lon="-0.74301785">
        <time>2022-07-05T13:41:06Z</time>
      </trkpt>
      <trkpt lat="42.334133" lon="-0.74307215">
        <time>2022-07-05T13:42:24Z</time>
      </trkpt>
      <trkpt lat="42.334076" lon="-0.74310017">
        <time>2022-07-05T13:42:29Z</time>
      </trkpt>
      <trkpt lat="42.33403" lon="-0.7431168">
        <time>2022-07-05T13:42:34Z</time>
      </trkpt>
      <trkpt lat="42.33396" lon="-0.7431575">
        <time>2022-07-05T13:42:46Z</time>
      </trkpt>
      <trkpt lat="42.33391" lon="-0.7432108">
        <time>2022-07-05T13:42:51Z</time>
      </trkpt>
      <trkpt lat="42.333855" lon="-0.74327314">
        <time>2022-07-05T13:42:55Z</time>
      </trkpt>
      <trkpt lat="42.333797" lon="-0.7433215">
        <time>2022-07-05T13:42:58Z</time>
      </trkpt>
      <trkpt lat="42.333736" lon="-0.74336416">
        <time>2022-07-05T13:43:01Z</time>
      </trkpt>
      <trkpt lat="42.33367" lon="-0.7434138">
        <time>2022-07-05T13:43:04Z</time>
      </trkpt>
      <trkpt lat="42.33363" lon="-0.7434488">
        <time>2022-07-05T13:43:06Z</time>
      </trkpt>
      <trkpt lat="42.33357" lon="-0.7435088">
        <time>2022-07-05T13:43:09Z</time>
      </trkpt>
      <trkpt lat="42.33352" lon="-0.7435801">
        <time>2022-07-05T13:43:12Z</time>
      </trkpt>
      <trkpt lat="42.333485" lon="-0.7436458">
        <time>2022-07-05T13:43:15Z</time>
      </trkpt>
      <trkpt lat="42.33349" lon="-0.7437344">
        <time>2022-07-05T13:44:02Z</time>
      </trkpt>
      <trkpt lat="42.333546" lon="-0.7438038">
        <time>2022-07-05T13:44:05Z</time>
      </trkpt>
      <trkpt lat="42.333588" lon="-0.7438551">
        <time>2022-07-05T13:44:07Z</time>
      </trkpt>
      <trkpt lat="42.333626" lon="-0.74389976">
        <time>2022-07-05T13:44:09Z</time>
      </trkpt>
      <trkpt lat="42.333675" lon="-0.7439584">
        <time>2022-07-05T13:44:12Z</time>
      </trkpt>
      <trkpt lat="42.33372" lon="-0.7440191">
        <time>2022-07-05T13:44:15Z</time>
      </trkpt>
      <trkpt lat="42.333755" lon="-0.74408174">
        <time>2022-07-05T13:44:18Z</time>
      </trkpt>
      <trkpt lat="42.333786" lon="-0.7441434">
        <time>2022-07-05T13:44:21Z</time>
      </trkpt>
      <trkpt lat="42.333817" lon="-0.7442024">
        <time>2022-07-05T13:44:24Z</time>
      </trkpt>
      <trkpt lat="42.33384" lon="-0.7442651">
        <time>2022-07-05T13:44:27Z</time>
      </trkpt>
      <trkpt lat="42.33387" lon="-0.7443317">
        <time>2022-07-05T13:44:30Z</time>
      </trkpt>
      <trkpt lat="42.333893" lon="-0.74440306">
        <time>2022-07-05T13:44:33Z</time>
      </trkpt>
      <trkpt lat="42.333916" lon="-0.7444814">
        <time>2022-07-05T13:44:36Z</time>
      </trkpt>
      <trkpt lat="42.33394" lon="-0.74457">
        <time>2022-07-05T13:44:39Z</time>
      </trkpt>
      <trkpt lat="42.333965" lon="-0.74466205">
        <time>2022-07-05T13:44:42Z</time>
      </trkpt>
      <trkpt lat="42.33399" lon="-0.74472535">
        <time>2022-07-05T13:44:44Z</time>
      </trkpt>
      <trkpt lat="42.33402" lon="-0.74479234">
        <time>2022-07-05T13:44:46Z</time>
      </trkpt>
      <trkpt lat="42.33405" lon="-0.7448617">
        <time>2022-07-05T13:44:48Z</time>
      </trkpt>
      <trkpt lat="42.334084" lon="-0.74493104">
        <time>2022-07-05T13:44:50Z</time>
      </trkpt>
      <trkpt lat="42.334118" lon="-0.745001">
        <time>2022-07-05T13:44:52Z</time>
      </trkpt>
      <trkpt lat="42.334152" lon="-0.74507403">
        <time>2022-07-05T13:44:54Z</time>
      </trkpt>
      <trkpt lat="42.33419" lon="-0.7451457">
        <time>2022-07-05T13:44:56Z</time>
      </trkpt>
      <trkpt lat="42.334225" lon="-0.7452157">
        <time>2022-07-05T13:44:58Z</time>
      </trkpt>
      <trkpt lat="42.334255" lon="-0.745287">
        <time>2022-07-05T13:45:00Z</time>
      </trkpt>
      <trkpt lat="42.334297" lon="-0.74535704">
        <time>2022-07-05T13:45:02Z</time>
      </trkpt>
      <trkpt lat="42.334343" lon="-0.745421">
        <time>2022-07-05T13:45:04Z</time>
      </trkpt>
      <trkpt lat="42.33439" lon="-0.74548835">
        <time>2022-07-05T13:45:06Z</time>
      </trkpt>
      <trkpt lat="42.33443" lon="-0.7455583">
        <time>2022-07-05T13:45:08Z</time>
      </trkpt>
      <trkpt lat="42.334473" lon="-0.7456344">
        <time>2022-07-05T13:45:10Z</time>
      </trkpt>
      <trkpt lat="42.334507" lon="-0.7457107">
        <time>2022-07-05T13:45:12Z</time>
      </trkpt>
      <trkpt lat="42.334534" lon="-0.74579436">
        <time>2022-07-05T13:45:14Z</time>
      </trkpt>
      <trkpt lat="42.33456" lon="-0.74587935">
        <time>2022-07-05T13:45:16Z</time>
      </trkpt>
      <trkpt lat="42.334583" lon="-0.7459663">
        <time>2022-07-05T13:45:18Z</time>
      </trkpt>
      <trkpt lat="42.334606" lon="-0.746057">
        <time>2022-07-05T13:45:20Z</time>
      </trkpt>
      <trkpt lat="42.334625" lon="-0.746148">
        <time>2022-07-05T13:45:22Z</time>
      </trkpt>
      <trkpt lat="42.334644" lon="-0.7462407">
        <time>2022-07-05T13:45:24Z</time>
      </trkpt>
      <trkpt lat="42.334663" lon="-0.746334">
        <time>2022-07-05T13:45:26Z</time>
      </trkpt>
      <trkpt lat="42.33468" lon="-0.74642867">
        <time>2022-07-05T13:45:28Z</time>
      </trkpt>
      <trkpt lat="42.334694" lon="-0.7465237">
        <time>2022-07-05T13:45:30Z</time>
      </trkpt>
      <trkpt lat="42.33471" lon="-0.7466177">
        <time>2022-07-05T13:45:32Z</time>
      </trkpt>
      <trkpt lat="42.334724" lon="-0.7467093">
        <time>2022-07-05T13:45:34Z</time>
      </trkpt>
      <trkpt lat="42.33474" lon="-0.74680066">
        <time>2022-07-05T13:45:36Z</time>
      </trkpt>
      <trkpt lat="42.334747" lon="-0.7468956">
        <time>2022-07-05T13:45:38Z</time>
      </trkpt>
      <trkpt lat="42.33475" lon="-0.74699366">
        <time>2022-07-05T13:45:40Z</time>
      </trkpt>
      <trkpt lat="42.33475" lon="-0.74709">
        <time>2022-07-05T13:45:42Z</time>
      </trkpt>
      <trkpt lat="42.33475" lon="-0.7471826">
        <time>2022-07-05T13:45:44Z</time>
      </trkpt>
      <trkpt lat="42.334747" lon="-0.74727166">
        <time>2022-07-05T13:45:46Z</time>
      </trkpt>
      <trkpt lat="42.33474" lon="-0.747359">
        <time>2022-07-05T13:45:48Z</time>
      </trkpt>
      <trkpt lat="42.334736" lon="-0.74744165">
        <time>2022-07-05T13:45:50Z</time>
      </trkpt>
      <trkpt lat="42.33473" lon="-0.747525">
        <time>2022-07-05T13:45:52Z</time>
      </trkpt>
      <trkpt lat="42.334713" lon="-0.74760693">
        <time>2022-07-05T13:45:54Z</time>
      </trkpt>
      <trkpt lat="42.334694" lon="-0.7476793">
        <time>2022-07-05T13:45:56Z</time>
      </trkpt>
      <trkpt lat="42.334663" lon="-0.7477543">
        <time>2022-07-05T13:45:58Z</time>
      </trkpt>
      <trkpt lat="42.33463" lon="-0.7478263">
        <time>2022-07-05T13:46:00Z</time>
      </trkpt>
      <trkpt lat="42.334564" lon="-0.74792594">
        <time>2022-07-05T13:46:03Z</time>
      </trkpt>
      <trkpt lat="42.334522" lon="-0.74799126">
        <time>2022-07-05T13:46:05Z</time>
      </trkpt>
      <trkpt lat="42.334484" lon="-0.7480639">
        <time>2022-07-05T13:46:07Z</time>
      </trkpt>
      <trkpt lat="42.334454" lon="-0.74814427">
        <time>2022-07-05T13:46:09Z</time>
      </trkpt>
      <trkpt lat="42.334427" lon="-0.74822956">
        <time>2022-07-05T13:46:11Z</time>
      </trkpt>
      <trkpt lat="42.33441" lon="-0.74832225">
        <time>2022-07-05T13:46:13Z</time>
      </trkpt>
      <trkpt lat="42.334408" lon="-0.74841493">
        <time>2022-07-05T13:46:15Z</time>
      </trkpt>
      <trkpt lat="42.334415" lon="-0.74851155">
        <time>2022-07-05T13:46:17Z</time>
      </trkpt>
      <trkpt lat="42.334435" lon="-0.74860525">
        <time>2022-07-05T13:46:19Z</time>
      </trkpt>
      <trkpt lat="42.334454" lon="-0.7486979">
        <time>2022-07-05T13:46:21Z</time>
      </trkpt>
      <trkpt lat="42.334476" lon="-0.74878657">
        <time>2022-07-05T13:46:23Z</time>
      </trkpt>
      <trkpt lat="42.3345" lon="-0.74887556">
        <time>2022-07-05T13:46:25Z</time>
      </trkpt>
      <trkpt lat="42.334522" lon="-0.74896556">
        <time>2022-07-05T13:46:27Z</time>
      </trkpt>
      <trkpt lat="42.334545" lon="-0.74905556">
        <time>2022-07-05T13:46:29Z</time>
      </trkpt>
      <trkpt lat="42.334576" lon="-0.7491465">
        <time>2022-07-05T13:46:31Z</time>
      </trkpt>
      <trkpt lat="42.334602" lon="-0.7492319">
        <time>2022-07-05T13:46:33Z</time>
      </trkpt>
      <trkpt lat="42.334633" lon="-0.74931854">
        <time>2022-07-05T13:46:35Z</time>
      </trkpt>
      <trkpt lat="42.334667" lon="-0.7494029">
        <time>2022-07-05T13:46:37Z</time>
      </trkpt>
      <trkpt lat="42.3347" lon="-0.7494835">
        <time>2022-07-05T13:46:39Z</time>
      </trkpt>
      <trkpt lat="42.334736" lon="-0.74955887">
        <time>2022-07-05T13:46:41Z</time>
      </trkpt>
      <trkpt lat="42.33477" lon="-0.7496335">
        <time>2022-07-05T13:46:43Z</time>
      </trkpt>
      <trkpt lat="42.334797" lon="-0.74970883">
        <time>2022-07-05T13:46:45Z</time>
      </trkpt>
      <trkpt lat="42.334824" lon="-0.7497865">
        <time>2022-07-05T13:46:47Z</time>
      </trkpt>
      <trkpt lat="42.33486" lon="-0.74985415">
        <time>2022-07-05T13:46:49Z</time>
      </trkpt>
      <trkpt lat="42.3349" lon="-0.7499192">
        <time>2022-07-05T13:46:51Z</time>
      </trkpt>
      <trkpt lat="42.334934" lon="-0.74998385">
        <time>2022-07-05T13:46:53Z</time>
      </trkpt>
      <trkpt lat="42.334965" lon="-0.75004214">
        <time>2022-07-05T13:46:55Z</time>
      </trkpt>
      <trkpt lat="42.334995" lon="-0.75009483">
        <time>2022-07-05T13:46:57Z</time>
      </trkpt>
      <trkpt lat="42.335033" lon="-0.75017583">
        <time>2022-07-05T13:47:00Z</time>
      </trkpt>
      <trkpt lat="42.335068" lon="-0.7502521">
        <time>2022-07-05T13:47:03Z</time>
      </trkpt>
      <trkpt lat="42.335114" lon="-0.7503478">
        <time>2022-07-05T13:47:07Z</time>
      </trkpt>
      <trkpt lat="42.335144" lon="-0.7504158">
        <time>2022-07-05T13:47:10Z</time>
      </trkpt>
      <trkpt lat="42.335175" lon="-0.75047916">
        <time>2022-07-05T13:47:13Z</time>
      </trkpt>
      <trkpt lat="42.3352" lon="-0.7505571">
        <time>2022-07-05T13:47:17Z</time>
      </trkpt>
      <trkpt lat="42.335213" lon="-0.7506418">
        <time>2022-07-05T13:47:21Z</time>
      </trkpt>
      <trkpt lat="42.335186" lon="-0.7507128">
        <time>2022-07-05T13:47:24Z</time>
      </trkpt>
      <trkpt lat="42.335136" lon="-0.7507888">
        <time>2022-07-05T13:47:27Z</time>
      </trkpt>
      <trkpt lat="42.335094" lon="-0.7508428">
        <time>2022-07-05T13:47:29Z</time>
      </trkpt>
      <trkpt lat="42.335052" lon="-0.75089645">
        <time>2022-07-05T13:47:31Z</time>
      </trkpt>
      <trkpt lat="42.335003" lon="-0.7509501">
        <time>2022-07-05T13:47:33Z</time>
      </trkpt>
      <trkpt lat="42.33494" lon="-0.75101244">
        <time>2022-07-05T13:47:35Z</time>
      </trkpt>
      <trkpt lat="42.33488" lon="-0.7510824">
        <time>2022-07-05T13:47:37Z</time>
      </trkpt>
      <trkpt lat="42.334812" lon="-0.7511601">
        <time>2022-07-05T13:47:39Z</time>
      </trkpt>
      <trkpt lat="42.33474" lon="-0.7512444">
        <time>2022-07-05T13:47:41Z</time>
      </trkpt>
      <trkpt lat="42.334698" lon="-0.75128776">
        <time>2022-07-05T13:47:42Z</time>
      </trkpt>
      <trkpt lat="42.334656" lon="-0.7513338">
        <time>2022-07-05T13:47:43Z</time>
      </trkpt>
      <trkpt lat="42.334614" lon="-0.75138146">
        <time>2022-07-05T13:47:44Z</time>
      </trkpt>
      <trkpt lat="42.33457" lon="-0.7514328">
        <time>2022-07-05T13:47:45Z</time>
      </trkpt>
      <trkpt lat="42.33453" lon="-0.75148576">
        <time>2022-07-05T13:47:46Z</time>
      </trkpt>
      <trkpt lat="42.33448" lon="-0.75154376">
        <time>2022-07-05T13:47:47Z</time>
      </trkpt>
      <trkpt lat="42.33443" lon="-0.7516014">
        <time>2022-07-05T13:47:48Z</time>
      </trkpt>
      <trkpt lat="42.33438" lon="-0.7516594">
        <time>2022-07-05T13:47:49Z</time>
      </trkpt>
      <trkpt lat="42.33433" lon="-0.75171643">
        <time>2022-07-05T13:47:50Z</time>
      </trkpt>
      <trkpt lat="42.334282" lon="-0.7517738">
        <time>2022-07-05T13:47:51Z</time>
      </trkpt>
      <trkpt lat="42.33423" lon="-0.7518304">
        <time>2022-07-05T13:47:52Z</time>
      </trkpt>
      <trkpt lat="42.33418" lon="-0.7518874">
        <time>2022-07-05T13:47:53Z</time>
      </trkpt>
      <trkpt lat="42.33413" lon="-0.75194675">
        <time>2022-07-05T13:47:54Z</time>
      </trkpt>
      <trkpt lat="42.334084" lon="-0.7520054">
        <time>2022-07-05T13:47:55Z</time>
      </trkpt>
      <trkpt lat="42.334034" lon="-0.7520621">
        <time>2022-07-05T13:47:56Z</time>
      </trkpt>
      <trkpt lat="42.33399" lon="-0.7521164">
        <time>2022-07-05T13:47:57Z</time>
      </trkpt>
      <trkpt lat="42.333942" lon="-0.7521694">
        <time>2022-07-05T13:47:58Z</time>
      </trkpt>
      <trkpt lat="42.333904" lon="-0.7522204">
        <time>2022-07-05T13:47:59Z</time>
      </trkpt>
      <trkpt lat="42.333862" lon="-0.752269">
        <time>2022-07-05T13:48:00Z</time>
      </trkpt>
      <trkpt lat="42.333828" lon="-0.7523157">
        <time>2022-07-05T13:48:01Z</time>
      </trkpt>
      <trkpt lat="42.33376" lon="-0.75240135">
        <time>2022-07-05T13:48:03Z</time>
      </trkpt>
      <trkpt lat="42.333694" lon="-0.75248104">
        <time>2022-07-05T13:48:05Z</time>
      </trkpt>
      <trkpt lat="42.333633" lon="-0.7525437">
        <time>2022-07-05T13:48:07Z</time>
      </trkpt>
      <trkpt lat="42.333534" lon="-0.75262904">
        <time>2022-07-05T13:48:10Z</time>
      </trkpt>
      <trkpt lat="42.333466" lon="-0.7526817">
        <time>2022-07-05T13:48:12Z</time>
      </trkpt>
      <trkpt lat="42.33339" lon="-0.752731">
        <time>2022-07-05T13:48:14Z</time>
      </trkpt>
      <trkpt lat="42.333313" lon="-0.75278133">
        <time>2022-07-05T13:48:16Z</time>
      </trkpt>
      <trkpt lat="42.333233" lon="-0.7528307">
        <time>2022-07-05T13:48:18Z</time>
      </trkpt>
      <trkpt lat="42.333157" lon="-0.752881">
        <time>2022-07-05T13:48:20Z</time>
      </trkpt>
      <trkpt lat="42.33307" lon="-0.752934">
        <time>2022-07-05T13:48:22Z</time>
      </trkpt>
      <trkpt lat="42.332985" lon="-0.75298566">
        <time>2022-07-05T13:48:24Z</time>
      </trkpt>
      <trkpt lat="42.332905" lon="-0.7530353">
        <time>2022-07-05T13:48:26Z</time>
      </trkpt>
      <trkpt lat="42.332817" lon="-0.753091">
        <time>2022-07-05T13:48:28Z</time>
      </trkpt>
      <trkpt lat="42.332733" lon="-0.753142">
        <time>2022-07-05T13:48:30Z</time>
      </trkpt>
      <trkpt lat="42.332645" lon="-0.75319666">
        <time>2022-07-05T13:48:32Z</time>
      </trkpt>
      <trkpt lat="42.332554" lon="-0.75325197">
        <time>2022-07-05T13:48:34Z</time>
      </trkpt>
      <trkpt lat="42.332462" lon="-0.7533053">
        <time>2022-07-05T13:48:36Z</time>
      </trkpt>
      <trkpt lat="42.332367" lon="-0.753361">
        <time>2022-07-05T13:48:38Z</time>
      </trkpt>
      <trkpt lat="42.33232" lon="-0.75338763">
        <time>2022-07-05T13:48:39Z</time>
      </trkpt>
      <trkpt lat="42.332233" lon="-0.75343627">
        <time>2022-07-05T13:48:41Z</time>
      </trkpt>
      <trkpt lat="42.332138" lon="-0.7534906">
        <time>2022-07-05T13:48:43Z</time>
      </trkpt>
      <trkpt lat="42.33209" lon="-0.7535176">
        <time>2022-07-05T13:48:44Z</time>
      </trkpt>
      <trkpt lat="42.331997" lon="-0.7535726">
        <time>2022-07-05T13:48:46Z</time>
      </trkpt>
      <trkpt lat="42.33191" lon="-0.75362897">
        <time>2022-07-05T13:48:48Z</time>
      </trkpt>
      <trkpt lat="42.331818" lon="-0.75368124">
        <time>2022-07-05T13:48:50Z</time>
      </trkpt>
      <trkpt lat="42.331734" lon="-0.75372994">
        <time>2022-07-05T13:48:52Z</time>
      </trkpt>
      <trkpt lat="42.331688" lon="-0.7537566">
        <time>2022-07-05T13:48:53Z</time>
      </trkpt>
      <trkpt lat="42.3316" lon="-0.7538099">
        <time>2022-07-05T13:48:55Z</time>
      </trkpt>
      <trkpt lat="42.33156" lon="-0.7538349">
        <time>2022-07-05T13:48:56Z</time>
      </trkpt>
      <trkpt lat="42.331474" lon="-0.7538862">
        <time>2022-07-05T13:48:58Z</time>
      </trkpt>
      <trkpt lat="42.331387" lon="-0.7539446">
        <time>2022-07-05T13:49:00Z</time>
      </trkpt>
      <trkpt lat="42.331345" lon="-0.75397193">
        <time>2022-07-05T13:49:01Z</time>
      </trkpt>
      <trkpt lat="42.331257" lon="-0.75402355">
        <time>2022-07-05T13:49:03Z</time>
      </trkpt>
      <trkpt lat="42.33116" lon="-0.7540799">
        <time>2022-07-05T13:49:05Z</time>
      </trkpt>
      <trkpt lat="42.331116" lon="-0.7541099">
        <time>2022-07-05T13:49:06Z</time>
      </trkpt>
      <trkpt lat="42.331066" lon="-0.75413954">
        <time>2022-07-05T13:49:07Z</time>
      </trkpt>
      <trkpt lat="42.331024" lon="-0.75416756">
        <time>2022-07-05T13:49:08Z</time>
      </trkpt>
      <trkpt lat="42.330925" lon="-0.75422823">
        <time>2022-07-05T13:49:10Z</time>
      </trkpt>
      <trkpt lat="42.330875" lon="-0.7542592">
        <time>2022-07-05T13:49:11Z</time>
      </trkpt>
      <trkpt lat="42.330772" lon="-0.75432223">
        <time>2022-07-05T13:49:13Z</time>
      </trkpt>
      <trkpt lat="42.330723" lon="-0.75435424">
        <time>2022-07-05T13:49:14Z</time>
      </trkpt>
      <trkpt lat="42.33067" lon="-0.75438553">
        <time>2022-07-05T13:49:15Z</time>
      </trkpt>
      <trkpt lat="42.33062" lon="-0.7544169">
        <time>2022-07-05T13:49:16Z</time>
      </trkpt>
      <trkpt lat="42.330566" lon="-0.7544489">
        <time>2022-07-05T13:49:17Z</time>
      </trkpt>
      <trkpt lat="42.330513" lon="-0.7544812">
        <time>2022-07-05T13:49:18Z</time>
      </trkpt>
      <trkpt lat="42.33046" lon="-0.75451356">
        <time>2022-07-05T13:49:19Z</time>
      </trkpt>
      <trkpt lat="42.33041" lon="-0.75454587">
        <time>2022-07-05T13:49:20Z</time>
      </trkpt>
      <trkpt lat="42.330357" lon="-0.7545782">
        <time>2022-07-05T13:49:21Z</time>
      </trkpt>
      <trkpt lat="42.330303" lon="-0.7546102">
        <time>2022-07-05T13:49:22Z</time>
      </trkpt>
      <trkpt lat="42.33025" lon="-0.75464284">
        <time>2022-07-05T13:49:23Z</time>
      </trkpt>
      <trkpt lat="42.3302" lon="-0.7546732">
        <time>2022-07-05T13:49:24Z</time>
      </trkpt>
      <trkpt lat="42.330147" lon="-0.7547065">
        <time>2022-07-05T13:49:25Z</time>
      </trkpt>
      <trkpt lat="42.330093" lon="-0.7547402">
        <time>2022-07-05T13:49:26Z</time>
      </trkpt>
      <trkpt lat="42.330036" lon="-0.7547745">
        <time>2022-07-05T13:49:27Z</time>
      </trkpt>
      <trkpt lat="42.329983" lon="-0.75480783">
        <time>2022-07-05T13:49:28Z</time>
      </trkpt>
      <trkpt lat="42.329933" lon="-0.7548395">
        <time>2022-07-05T13:49:29Z</time>
      </trkpt>
      <trkpt lat="42.32988" lon="-0.7548738">
        <time>2022-07-05T13:49:30Z</time>
      </trkpt>
      <trkpt lat="42.329823" lon="-0.75490713">
        <time>2022-07-05T13:49:31Z</time>
      </trkpt>
      <trkpt lat="42.32977" lon="-0.75494015">
        <time>2022-07-05T13:49:32Z</time>
      </trkpt>
      <trkpt lat="42.329712" lon="-0.7549732">
        <time>2022-07-05T13:49:33Z</time>
      </trkpt>
      <trkpt lat="42.329662" lon="-0.7550048">
        <time>2022-07-05T13:49:34Z</time>
      </trkpt>
      <trkpt lat="42.32961" lon="-0.7550375">
        <time>2022-07-05T13:49:35Z</time>
      </trkpt>
      <trkpt lat="42.32955" lon="-0.7550725">
        <time>2022-07-05T13:49:36Z</time>
      </trkpt>
      <trkpt lat="42.329494" lon="-0.7551065">
        <time>2022-07-05T13:49:37Z</time>
      </trkpt>
      <trkpt lat="42.32944" lon="-0.75513947">
        <time>2022-07-05T13:49:38Z</time>
      </trkpt>
      <trkpt lat="42.329388" lon="-0.75517213">
        <time>2022-07-05T13:49:39Z</time>
      </trkpt>
      <trkpt lat="42.329334" lon="-0.75520414">
        <time>2022-07-05T13:49:40Z</time>
      </trkpt>
      <trkpt lat="42.329277" lon="-0.75523645">
        <time>2022-07-05T13:49:41Z</time>
      </trkpt>
      <trkpt lat="42.329224" lon="-0.75526845">
        <time>2022-07-05T13:49:42Z</time>
      </trkpt>
      <trkpt lat="42.32917" lon="-0.7553011">
        <time>2022-07-05T13:49:43Z</time>
      </trkpt>
      <trkpt lat="42.32912" lon="-0.7553338">
        <time>2022-07-05T13:49:44Z</time>
      </trkpt>
      <trkpt lat="42.329067" lon="-0.75536615">
        <time>2022-07-05T13:49:45Z</time>
      </trkpt>
      <trkpt lat="42.329014" lon="-0.7553978">
        <time>2022-07-05T13:49:46Z</time>
      </trkpt>
      <trkpt lat="42.32896" lon="-0.7554288">
        <time>2022-07-05T13:49:47Z</time>
      </trkpt>
      <trkpt lat="42.328907" lon="-0.7554601">
        <time>2022-07-05T13:49:48Z</time>
      </trkpt>
      <trkpt lat="42.328857" lon="-0.75549114">
        <time>2022-07-05T13:49:49Z</time>
      </trkpt>
      <trkpt lat="42.328804" lon="-0.7555214">
        <time>2022-07-05T13:49:50Z</time>
      </trkpt>
      <trkpt lat="42.32875" lon="-0.7555524">
        <time>2022-07-05T13:49:51Z</time>
      </trkpt>
      <trkpt lat="42.328697" lon="-0.75558376">
        <time>2022-07-05T13:49:52Z</time>
      </trkpt>
      <trkpt lat="42.328648" lon="-0.7556161">
        <time>2022-07-05T13:49:53Z</time>
      </trkpt>
      <trkpt lat="42.328594" lon="-0.75564843">
        <time>2022-07-05T13:49:54Z</time>
      </trkpt>
      <trkpt lat="42.328545" lon="-0.75568044">
        <time>2022-07-05T13:49:55Z</time>
      </trkpt>
      <trkpt lat="42.32849" lon="-0.75571275">
        <time>2022-07-05T13:49:56Z</time>
      </trkpt>
      <trkpt lat="42.32844" lon="-0.7557451">
        <time>2022-07-05T13:49:57Z</time>
      </trkpt>
      <trkpt lat="42.328392" lon="-0.7557764">
        <time>2022-07-05T13:49:58Z</time>
      </trkpt>
      <trkpt lat="42.328342" lon="-0.75580674">
        <time>2022-07-05T13:49:59Z</time>
      </trkpt>
      <trkpt lat="42.328293" lon="-0.7558367">
        <time>2022-07-05T13:50:00Z</time>
      </trkpt>
      <trkpt lat="42.32824" lon="-0.7558664">
        <time>2022-07-05T13:50:01Z</time>
      </trkpt>
      <trkpt lat="42.32819" lon="-0.75589675">
        <time>2022-07-05T13:50:02Z</time>
      </trkpt>
      <trkpt lat="42.32814" lon="-0.7559267">
        <time>2022-07-05T13:50:03Z</time>
      </trkpt>
      <trkpt lat="42.32809" lon="-0.7559564">
        <time>2022-07-05T13:50:04Z</time>
      </trkpt>
      <trkpt lat="42.32804" lon="-0.7559864">
        <time>2022-07-05T13:50:05Z</time>
      </trkpt>
      <trkpt lat="42.327995" lon="-0.7560157">
        <time>2022-07-05T13:50:06Z</time>
      </trkpt>
      <trkpt lat="42.327946" lon="-0.7560454">
        <time>2022-07-05T13:50:07Z</time>
      </trkpt>
      <trkpt lat="42.327896" lon="-0.75607437">
        <time>2022-07-05T13:50:08Z</time>
      </trkpt>
      <trkpt lat="42.327847" lon="-0.7561034">
        <time>2022-07-05T13:50:09Z</time>
      </trkpt>
      <trkpt lat="42.327797" lon="-0.7561327">
        <time>2022-07-05T13:50:10Z</time>
      </trkpt>
      <trkpt lat="42.327747" lon="-0.7561614">
        <time>2022-07-05T13:50:11Z</time>
      </trkpt>
      <trkpt lat="42.3277" lon="-0.7561907">
        <time>2022-07-05T13:50:12Z</time>
      </trkpt>
      <trkpt lat="42.327652" lon="-0.7562197">
        <time>2022-07-05T13:50:13Z</time>
      </trkpt>
      <trkpt lat="42.327602" lon="-0.756249">
        <time>2022-07-05T13:50:14Z</time>
      </trkpt>
      <trkpt lat="42.327553" lon="-0.7562787">
        <time>2022-07-05T13:50:15Z</time>
      </trkpt>
      <trkpt lat="42.327507" lon="-0.7563077">
        <time>2022-07-05T13:50:16Z</time>
      </trkpt>
      <trkpt lat="42.32746" lon="-0.7563367">
        <time>2022-07-05T13:50:17Z</time>
      </trkpt>
      <trkpt lat="42.32737" lon="-0.7563934">
        <time>2022-07-05T13:50:19Z</time>
      </trkpt>
      <trkpt lat="42.327286" lon="-0.7564487">
        <time>2022-07-05T13:50:21Z</time>
      </trkpt>
      <trkpt lat="42.327244" lon="-0.7564744">
        <time>2022-07-05T13:50:22Z</time>
      </trkpt>
      <trkpt lat="42.32716" lon="-0.75652266">
        <time>2022-07-05T13:50:24Z</time>
      </trkpt>
      <trkpt lat="42.32708" lon="-0.756573">
        <time>2022-07-05T13:50:26Z</time>
      </trkpt>
      <trkpt lat="42.327" lon="-0.7566247">
        <time>2022-07-05T13:50:28Z</time>
      </trkpt>
      <trkpt lat="42.326923" lon="-0.75667566">
        <time>2022-07-05T13:50:30Z</time>
      </trkpt>
      <trkpt lat="42.326843" lon="-0.75673133">
        <time>2022-07-05T13:50:32Z</time>
      </trkpt>
      <trkpt lat="42.32676" lon="-0.75679034">
        <time>2022-07-05T13:50:34Z</time>
      </trkpt>
      <trkpt lat="42.326714" lon="-0.75681996">
        <time>2022-07-05T13:50:35Z</time>
      </trkpt>
      <trkpt lat="42.326622" lon="-0.7568823">
        <time>2022-07-05T13:50:37Z</time>
      </trkpt>
      <trkpt lat="42.326527" lon="-0.75694335">
        <time>2022-07-05T13:50:39Z</time>
      </trkpt>
      <trkpt lat="42.326477" lon="-0.7569727">
        <time>2022-07-05T13:50:40Z</time>
      </trkpt>
      <trkpt lat="42.326424" lon="-0.75699997">
        <time>2022-07-05T13:50:41Z</time>
      </trkpt>
      <trkpt lat="42.326374" lon="-0.7570226">
        <time>2022-07-05T13:50:42Z</time>
      </trkpt>
      <trkpt lat="42.32632" lon="-0.757041">
        <time>2022-07-05T13:50:43Z</time>
      </trkpt>
      <trkpt lat="42.326214" lon="-0.75706196">
        <time>2022-07-05T13:50:45Z</time>
      </trkpt>
      <trkpt lat="42.32616" lon="-0.75706166">
        <time>2022-07-05T13:50:46Z</time>
      </trkpt>
      <trkpt lat="42.326107" lon="-0.7570543">
        <time>2022-07-05T13:50:47Z</time>
      </trkpt>
      <trkpt lat="42.32605" lon="-0.7570383">
        <time>2022-07-05T13:50:48Z</time>
      </trkpt>
      <trkpt lat="42.32599" lon="-0.7570103">
        <time>2022-07-05T13:50:49Z</time>
      </trkpt>
      <trkpt lat="42.32593" lon="-0.756975">
        <time>2022-07-05T13:50:50Z</time>
      </trkpt>
      <trkpt lat="42.32587" lon="-0.75693196">
        <time>2022-07-05T13:50:51Z</time>
      </trkpt>
      <trkpt lat="42.325813" lon="-0.75688535">
        <time>2022-07-05T13:50:52Z</time>
      </trkpt>
      <trkpt lat="42.325752" lon="-0.7568333">
        <time>2022-07-05T13:50:53Z</time>
      </trkpt>
      <trkpt lat="42.325695" lon="-0.7567823">
        <time>2022-07-05T13:50:54Z</time>
      </trkpt>
      <trkpt lat="42.32563" lon="-0.7567243">
        <time>2022-07-05T13:50:55Z</time>
      </trkpt>
      <trkpt lat="42.325565" lon="-0.7566723">
        <time>2022-07-05T13:50:56Z</time>
      </trkpt>
      <trkpt lat="42.325497" lon="-0.75662">
        <time>2022-07-05T13:50:57Z</time>
      </trkpt>
      <trkpt lat="42.325424" lon="-0.7565737">
        <time>2022-07-05T13:50:58Z</time>
      </trkpt>
      <trkpt lat="42.325348" lon="-0.756534">
        <time>2022-07-05T13:50:59Z</time>
      </trkpt>
      <trkpt lat="42.32527" lon="-0.7565017">
        <time>2022-07-05T13:51:00Z</time>
      </trkpt>
      <trkpt lat="42.32519" lon="-0.75648135">
        <time>2022-07-05T13:51:01Z</time>
      </trkpt>
      <trkpt lat="42.325115" lon="-0.7564747">
        <time>2022-07-05T13:51:02Z</time>
      </trkpt>
      <trkpt lat="42.32504" lon="-0.7564833">
        <time>2022-07-05T13:51:03Z</time>
      </trkpt>
      <trkpt lat="42.324963" lon="-0.75650334">
        <time>2022-07-05T13:51:04Z</time>
      </trkpt>
      <trkpt lat="42.324886" lon="-0.75653064">
        <time>2022-07-05T13:51:05Z</time>
      </trkpt>
      <trkpt lat="42.324814" lon="-0.7565647">
        <time>2022-07-05T13:51:06Z</time>
      </trkpt>
      <trkpt lat="42.324738" lon="-0.75660264">
        <time>2022-07-05T13:51:07Z</time>
      </trkpt>
      <trkpt lat="42.324665" lon="-0.7566427">
        <time>2022-07-05T13:51:08Z</time>
      </trkpt>
      <trkpt lat="42.324593" lon="-0.75668067">
        <time>2022-07-05T13:51:09Z</time>
      </trkpt>
      <trkpt lat="42.324516" lon="-0.7567163">
        <time>2022-07-05T13:51:10Z</time>
      </trkpt>
      <trkpt lat="42.324444" lon="-0.75674665">
        <time>2022-07-05T13:51:11Z</time>
      </trkpt>
      <trkpt lat="42.32438" lon="-0.75677097">
        <time>2022-07-05T13:51:12Z</time>
      </trkpt>
      <trkpt lat="42.32431" lon="-0.756788">
        <time>2022-07-05T13:51:13Z</time>
      </trkpt>
      <trkpt lat="42.32424" lon="-0.756795">
        <time>2022-07-05T13:51:14Z</time>
      </trkpt>
      <trkpt lat="42.324165" lon="-0.756788">
        <time>2022-07-05T13:51:15Z</time>
      </trkpt>
      <trkpt lat="42.324097" lon="-0.7567717">
        <time>2022-07-05T13:51:16Z</time>
      </trkpt>
      <trkpt lat="42.324028" lon="-0.756745">
        <time>2022-07-05T13:51:17Z</time>
      </trkpt>
      <trkpt lat="42.32396" lon="-0.756711">
        <time>2022-07-05T13:51:18Z</time>
      </trkpt>
      <trkpt lat="42.32389" lon="-0.75667167">
        <time>2022-07-05T13:51:19Z</time>
      </trkpt>
      <trkpt lat="42.32383" lon="-0.75663036">
        <time>2022-07-05T13:51:20Z</time>
      </trkpt>
      <trkpt lat="42.323765" lon="-0.75658566">
        <time>2022-07-05T13:51:21Z</time>
      </trkpt>
      <trkpt lat="42.323704" lon="-0.756537">
        <time>2022-07-05T13:51:22Z</time>
      </trkpt>
      <trkpt lat="42.32364" lon="-0.75648636">
        <time>2022-07-05T13:51:23Z</time>
      </trkpt>
      <trkpt lat="42.323513" lon="-0.75637937">
        <time>2022-07-05T13:51:25Z</time>
      </trkpt>
      <trkpt lat="42.32345" lon="-0.7563247">
        <time>2022-07-05T13:51:26Z</time>
      </trkpt>
      <trkpt lat="42.323387" lon="-0.7562697">
        <time>2022-07-05T13:51:27Z</time>
      </trkpt>
      <trkpt lat="42.323326" lon="-0.75621337">
        <time>2022-07-05T13:51:28Z</time>
      </trkpt>
      <trkpt lat="42.32326" lon="-0.7561497">
        <time>2022-07-05T13:51:29Z</time>
      </trkpt>
      <trkpt lat="42.323204" lon="-0.756084">
        <time>2022-07-05T13:51:30Z</time>
      </trkpt>
      <trkpt lat="42.323147" lon="-0.7560147">
        <time>2022-07-05T13:51:31Z</time>
      </trkpt>
      <trkpt lat="42.3231" lon="-0.7559451">
        <time>2022-07-05T13:51:32Z</time>
      </trkpt>
      <trkpt lat="42.323055" lon="-0.75586104">
        <time>2022-07-05T13:51:33Z</time>
      </trkpt>
      <trkpt lat="42.323017" lon="-0.7557714">
        <time>2022-07-05T13:51:34Z</time>
      </trkpt>
      <trkpt lat="42.322987" lon="-0.7556761">
        <time>2022-07-05T13:51:35Z</time>
      </trkpt>
      <trkpt lat="42.322956" lon="-0.7555761">
        <time>2022-07-05T13:51:36Z</time>
      </trkpt>
      <trkpt lat="42.32293" lon="-0.7554727">
        <time>2022-07-05T13:51:37Z</time>
      </trkpt>
      <trkpt lat="42.322903" lon="-0.75536776">
        <time>2022-07-05T13:51:38Z</time>
      </trkpt>
      <trkpt lat="42.322872" lon="-0.7552634">
        <time>2022-07-05T13:51:39Z</time>
      </trkpt>
      <trkpt lat="42.322834" lon="-0.7551624">
        <time>2022-07-05T13:51:40Z</time>
      </trkpt>
      <trkpt lat="42.322784" lon="-0.75507176">
        <time>2022-07-05T13:51:41Z</time>
      </trkpt>
      <trkpt lat="42.322727" lon="-0.75499344">
        <time>2022-07-05T13:51:42Z</time>
      </trkpt>
      <trkpt lat="42.322666" lon="-0.7549258">
        <time>2022-07-05T13:51:43Z</time>
      </trkpt>
      <trkpt lat="42.322598" lon="-0.75486743">
        <time>2022-07-05T13:51:44Z</time>
      </trkpt>
      <trkpt lat="42.322533" lon="-0.75481075">
        <time>2022-07-05T13:51:45Z</time>
      </trkpt>
      <trkpt lat="42.322468" lon="-0.75474775">
        <time>2022-07-05T13:51:46Z</time>
      </trkpt>
      <trkpt lat="42.322407" lon="-0.7546774">
        <time>2022-07-05T13:51:47Z</time>
      </trkpt>
      <trkpt lat="42.322357" lon="-0.7545981">
        <time>2022-07-05T13:51:48Z</time>
      </trkpt>
      <trkpt lat="42.322315" lon="-0.7545111">
        <time>2022-07-05T13:51:49Z</time>
      </trkpt>
      <trkpt lat="42.322285" lon="-0.7544188">
        <time>2022-07-05T13:51:50Z</time>
      </trkpt>
      <trkpt lat="42.322266" lon="-0.75432146">
        <time>2022-07-05T13:51:51Z</time>
      </trkpt>
      <trkpt lat="42.32225" lon="-0.7542218">
        <time>2022-07-05T13:51:52Z</time>
      </trkpt>
      <trkpt lat="42.322243" lon="-0.7541215">
        <time>2022-07-05T13:51:53Z</time>
      </trkpt>
      <trkpt lat="42.322235" lon="-0.75402147">
        <time>2022-07-05T13:51:54Z</time>
      </trkpt>
      <trkpt lat="42.322227" lon="-0.7539228">
        <time>2022-07-05T13:51:55Z</time>
      </trkpt>
      <trkpt lat="42.322216" lon="-0.7538265">
        <time>2022-07-05T13:51:56Z</time>
      </trkpt>
      <trkpt lat="42.322197" lon="-0.7537341">
        <time>2022-07-05T13:51:57Z</time>
      </trkpt>
      <trkpt lat="42.32217" lon="-0.75364846">
        <time>2022-07-05T13:51:58Z</time>
      </trkpt>
      <trkpt lat="42.322132" lon="-0.7535695">
        <time>2022-07-05T13:51:59Z</time>
      </trkpt>
      <trkpt lat="42.322086" lon="-0.7534968">
        <time>2022-07-05T13:52:00Z</time>
      </trkpt>
      <trkpt lat="42.322037" lon="-0.7534318">
        <time>2022-07-05T13:52:01Z</time>
      </trkpt>
      <trkpt lat="42.32198" lon="-0.75337416">
        <time>2022-07-05T13:52:02Z</time>
      </trkpt>
      <trkpt lat="42.321915" lon="-0.7533245">
        <time>2022-07-05T13:52:03Z</time>
      </trkpt>
      <trkpt lat="42.321846" lon="-0.7532845">
        <time>2022-07-05T13:52:04Z</time>
      </trkpt>
      <trkpt lat="42.321774" lon="-0.75325286">
        <time>2022-07-05T13:52:05Z</time>
      </trkpt>
      <trkpt lat="42.3217" lon="-0.75322986">
        <time>2022-07-05T13:52:06Z</time>
      </trkpt>
      <trkpt lat="42.321625" lon="-0.7532112">
        <time>2022-07-05T13:52:07Z</time>
      </trkpt>
      <trkpt lat="42.321545" lon="-0.75319415">
        <time>2022-07-05T13:52:08Z</time>
      </trkpt>
      <trkpt lat="42.32146" lon="-0.7531815">
        <time>2022-07-05T13:52:09Z</time>
      </trkpt>
      <trkpt lat="42.32138" lon="-0.7531775">
        <time>2022-07-05T13:52:10Z</time>
      </trkpt>
      <trkpt lat="42.321293" lon="-0.75318784">
        <time>2022-07-05T13:52:11Z</time>
      </trkpt>
      <trkpt lat="42.321213" lon="-0.75321484">
        <time>2022-07-05T13:52:12Z</time>
      </trkpt>
      <trkpt lat="42.321133" lon="-0.75325817">
        <time>2022-07-05T13:52:13Z</time>
      </trkpt>
      <trkpt lat="42.321056" lon="-0.7533192">
        <time>2022-07-05T13:52:14Z</time>
      </trkpt>
      <trkpt lat="42.320988" lon="-0.7533942">
        <time>2022-07-05T13:52:15Z</time>
      </trkpt>
      <trkpt lat="42.320923" lon="-0.7534795">
        <time>2022-07-05T13:52:16Z</time>
      </trkpt>
      <trkpt lat="42.320866" lon="-0.75357187">
        <time>2022-07-05T13:52:17Z</time>
      </trkpt>
      <trkpt lat="42.320812" lon="-0.75366783">
        <time>2022-07-05T13:52:18Z</time>
      </trkpt>
      <trkpt lat="42.320763" lon="-0.75376385">
        <time>2022-07-05T13:52:19Z</time>
      </trkpt>
      <trkpt lat="42.320717" lon="-0.75385916">
        <time>2022-07-05T13:52:20Z</time>
      </trkpt>
      <trkpt lat="42.320675" lon="-0.7539538">
        <time>2022-07-05T13:52:21Z</time>
      </trkpt>
      <trkpt lat="42.320633" lon="-0.7540452">
        <time>2022-07-05T13:52:22Z</time>
      </trkpt>
      <trkpt lat="42.320595" lon="-0.75413513">
        <time>2022-07-05T13:52:23Z</time>
      </trkpt>
      <trkpt lat="42.320557" lon="-0.7542228">
        <time>2022-07-05T13:52:24Z</time>
      </trkpt>
      <trkpt lat="42.320522" lon="-0.75430846">
        <time>2022-07-05T13:52:25Z</time>
      </trkpt>
      <trkpt lat="42.320484" lon="-0.7543941">
        <time>2022-07-05T13:52:26Z</time>
      </trkpt>
      <trkpt lat="42.320446" lon="-0.75447947">
        <time>2022-07-05T13:52:27Z</time>
      </trkpt>
      <trkpt lat="42.32038" lon="-0.7546438">
        <time>2022-07-05T13:52:29Z</time>
      </trkpt>
      <trkpt lat="42.320347" lon="-0.75472146">
        <time>2022-07-05T13:52:30Z</time>
      </trkpt>
      <trkpt lat="42.320312" lon="-0.7547958">
        <time>2022-07-05T13:52:31Z</time>
      </trkpt>
      <trkpt lat="42.320274" lon="-0.7548668">
        <time>2022-07-05T13:52:32Z</time>
      </trkpt>
      <trkpt lat="42.320236" lon="-0.75493544">
        <time>2022-07-05T13:52:33Z</time>
      </trkpt>
      <trkpt lat="42.320198" lon="-0.7550021">
        <time>2022-07-05T13:52:34Z</time>
      </trkpt>
      <trkpt lat="42.320156" lon="-0.75506675">
        <time>2022-07-05T13:52:35Z</time>
      </trkpt>
      <trkpt lat="42.320114" lon="-0.75512874">
        <time>2022-07-05T13:52:36Z</time>
      </trkpt>
      <trkpt lat="42.320072" lon="-0.7551881">
        <time>2022-07-05T13:52:37Z</time>
      </trkpt>
      <trkpt lat="42.320023" lon="-0.7552431">
        <time>2022-07-05T13:52:38Z</time>
      </trkpt>
      <trkpt lat="42.319973" lon="-0.7552961">
        <time>2022-07-05T13:52:39Z</time>
      </trkpt>
      <trkpt lat="42.319923" lon="-0.7553451">
        <time>2022-07-05T13:52:40Z</time>
      </trkpt>
      <trkpt lat="42.31987" lon="-0.7553891">
        <time>2022-07-05T13:52:41Z</time>
      </trkpt>
      <trkpt lat="42.319817" lon="-0.75542843">
        <time>2022-07-05T13:52:42Z</time>
      </trkpt>
      <trkpt lat="42.319763" lon="-0.7554621">
        <time>2022-07-05T13:52:43Z</time>
      </trkpt>
      <trkpt lat="42.31971" lon="-0.7554891">
        <time>2022-07-05T13:52:44Z</time>
      </trkpt>
      <trkpt lat="42.319656" lon="-0.75550973">
        <time>2022-07-05T13:52:45Z</time>
      </trkpt>
      <trkpt lat="42.319603" lon="-0.7555221">
        <time>2022-07-05T13:52:46Z</time>
      </trkpt>
      <trkpt lat="42.31955" lon="-0.75552607">
        <time>2022-07-05T13:52:47Z</time>
      </trkpt>
      <trkpt lat="42.3195" lon="-0.75552505">
        <time>2022-07-05T13:52:48Z</time>
      </trkpt>
      <trkpt lat="42.31942" lon="-0.7555131">
        <time>2022-07-05T13:52:50Z</time>
      </trkpt>
      <trkpt lat="42.319366" lon="-0.75550175">
        <time>2022-07-05T13:52:52Z</time>
      </trkpt>
      <trkpt lat="42.319256" lon="-0.75553375">
        <time>2022-07-05T13:53:53Z</time>
      </trkpt>
      <trkpt lat="42.319176" lon="-0.75556475">
        <time>2022-07-05T13:53:56Z</time>
      </trkpt>
      <trkpt lat="42.319107" lon="-0.75558144">
        <time>2022-07-05T13:53:58Z</time>
      </trkpt>
      <trkpt lat="42.31903" lon="-0.75559205">
        <time>2022-07-05T13:54:00Z</time>
      </trkpt>
      <trkpt lat="42.31895" lon="-0.75559974">
        <time>2022-07-05T13:54:02Z</time>
      </trkpt>
      <trkpt lat="42.318867" lon="-0.75560707">
        <time>2022-07-05T13:54:04Z</time>
      </trkpt>
      <trkpt lat="42.318775" lon="-0.7556144">
        <time>2022-07-05T13:54:06Z</time>
      </trkpt>
      <trkpt lat="42.318687" lon="-0.7556187">
        <time>2022-07-05T13:54:08Z</time>
      </trkpt>
      <trkpt lat="42.318604" lon="-0.7556224">
        <time>2022-07-05T13:54:10Z</time>
      </trkpt>
      <trkpt lat="42.31852" lon="-0.75562537">
        <time>2022-07-05T13:54:12Z</time>
      </trkpt>
      <trkpt lat="42.31844" lon="-0.7556304">
        <time>2022-07-05T13:54:14Z</time>
      </trkpt>
      <trkpt lat="42.318363" lon="-0.7556364">
        <time>2022-07-05T13:54:16Z</time>
      </trkpt>
      <trkpt lat="42.318283" lon="-0.7556407">
        <time>2022-07-05T13:54:18Z</time>
      </trkpt>
      <trkpt lat="42.31821" lon="-0.7556437">
        <time>2022-07-05T13:54:20Z</time>
      </trkpt>
      <trkpt lat="42.318142" lon="-0.7556467">
        <time>2022-07-05T13:54:22Z</time>
      </trkpt>
      <trkpt lat="42.318073" lon="-0.7556517">
        <time>2022-07-05T13:54:24Z</time>
      </trkpt>
      <trkpt lat="42.318005" lon="-0.75565803">
        <time>2022-07-05T13:54:26Z</time>
      </trkpt>
      <trkpt lat="42.31794" lon="-0.7556637">
        <time>2022-07-05T13:54:28Z</time>
      </trkpt>
      <trkpt lat="42.317875" lon="-0.7556664">
        <time>2022-07-05T13:54:30Z</time>
      </trkpt>
      <trkpt lat="42.317806" lon="-0.75566435">
        <time>2022-07-05T13:54:32Z</time>
      </trkpt>
      <trkpt lat="42.317707" lon="-0.75564903">
        <time>2022-07-05T13:54:35Z</time>
      </trkpt>
      <trkpt lat="42.317642" lon="-0.755629">
        <time>2022-07-05T13:54:37Z</time>
      </trkpt>
      <trkpt lat="42.317574" lon="-0.7555997">
        <time>2022-07-05T13:54:39Z</time>
      </trkpt>
      <trkpt lat="42.31751" lon="-0.75556403">
        <time>2022-07-05T13:54:41Z</time>
      </trkpt>
      <trkpt lat="42.317448" lon="-0.7555227">
        <time>2022-07-05T13:54:43Z</time>
      </trkpt>
      <trkpt lat="42.31739" lon="-0.75547504">
        <time>2022-07-05T13:54:45Z</time>
      </trkpt>
      <trkpt lat="42.31734" lon="-0.75542736">
        <time>2022-07-05T13:54:47Z</time>
      </trkpt>
      <trkpt lat="42.31729" lon="-0.7553747">
        <time>2022-07-05T13:54:49Z</time>
      </trkpt>
      <trkpt lat="42.317253" lon="-0.7553261">
        <time>2022-07-05T13:54:51Z</time>
      </trkpt>
      <trkpt lat="42.317215" lon="-0.75527674">
        <time>2022-07-05T13:54:53Z</time>
      </trkpt>
      <trkpt lat="42.31717" lon="-0.75520176">
        <time>2022-07-05T13:54:56Z</time>
      </trkpt>
      <trkpt lat="42.317127" lon="-0.75512743">
        <time>2022-07-05T13:54:59Z</time>
      </trkpt>
      <trkpt lat="42.317093" lon="-0.75505173">
        <time>2022-07-05T13:55:02Z</time>
      </trkpt>
      <trkpt lat="42.317055" lon="-0.7549764">
        <time>2022-07-05T13:55:05Z</time>
      </trkpt>
      <trkpt lat="42.317028" lon="-0.75492376">
        <time>2022-07-05T13:55:07Z</time>
      </trkpt>
      <trkpt lat="42.316994" lon="-0.75484776">
        <time>2022-07-05T13:55:10Z</time>
      </trkpt>
      <trkpt lat="42.31696" lon="-0.7547731">
        <time>2022-07-05T13:55:13Z</time>
      </trkpt>
      <trkpt lat="42.316925" lon="-0.7546961">
        <time>2022-07-05T13:55:16Z</time>
      </trkpt>
      <trkpt lat="42.316887" lon="-0.7546194">
        <time>2022-07-05T13:55:19Z</time>
      </trkpt>
      <trkpt lat="42.31685" lon="-0.75453943">
        <time>2022-07-05T13:55:22Z</time>
      </trkpt>
      <trkpt lat="42.316807" lon="-0.7544678">
        <time>2022-07-05T13:55:25Z</time>
      </trkpt>
      <trkpt lat="42.316765" lon="-0.7543978">
        <time>2022-07-05T13:55:28Z</time>
      </trkpt>
      <trkpt lat="42.316723" lon="-0.7543278">
        <time>2022-07-05T13:55:31Z</time>
      </trkpt>
      <trkpt lat="42.316677" lon="-0.7542645">
        <time>2022-07-05T13:55:34Z</time>
      </trkpt>
      <trkpt lat="42.316628" lon="-0.7542028">
        <time>2022-07-05T13:55:37Z</time>
      </trkpt>
      <trkpt lat="42.316574" lon="-0.7541498">
        <time>2022-07-05T13:55:40Z</time>
      </trkpt>
      <trkpt lat="42.316517" lon="-0.75410944">
        <time>2022-07-05T13:55:43Z</time>
      </trkpt>
      <trkpt lat="42.31646" lon="-0.75407743">
        <time>2022-07-05T13:55:46Z</time>
      </trkpt>
      <trkpt lat="42.3164" lon="-0.75405544">
        <time>2022-07-05T13:55:49Z</time>
      </trkpt>
      <trkpt lat="42.316345" lon="-0.75403845">
        <time>2022-07-05T13:55:52Z</time>
      </trkpt>
      <trkpt lat="42.316288" lon="-0.7540188">
        <time>2022-07-05T13:55:55Z</time>
      </trkpt>
      <trkpt lat="42.316235" lon="-0.75400114">
        <time>2022-07-05T13:55:58Z</time>
      </trkpt>
      <trkpt lat="42.316174" lon="-0.7539808">
        <time>2022-07-05T13:56:01Z</time>
      </trkpt>
      <trkpt lat="42.316116" lon="-0.7539505">
        <time>2022-07-05T13:56:04Z</time>
      </trkpt>
      <trkpt lat="42.316063" lon="-0.75391084">
        <time>2022-07-05T13:56:07Z</time>
      </trkpt>
      <trkpt lat="42.31601" lon="-0.7538702">
        <time>2022-07-05T13:56:10Z</time>
      </trkpt>
      <trkpt lat="42.315956" lon="-0.7538278">
        <time>2022-07-05T13:56:13Z</time>
      </trkpt>
      <trkpt lat="42.3159" lon="-0.7537792">
        <time>2022-07-05T13:56:16Z</time>
      </trkpt>
      <trkpt lat="42.315845" lon="-0.7537325">
        <time>2022-07-05T13:56:19Z</time>
      </trkpt>
      <trkpt lat="42.315792" lon="-0.7536865">
        <time>2022-07-05T13:56:22Z</time>
      </trkpt>
      <trkpt lat="42.31574" lon="-0.7536385">
        <time>2022-07-05T13:56:25Z</time>
      </trkpt>
      <trkpt lat="42.315693" lon="-0.75358653">
        <time>2022-07-05T13:56:28Z</time>
      </trkpt>
      <trkpt lat="42.315643" lon="-0.7535345">
        <time>2022-07-05T13:56:31Z</time>
      </trkpt>
      <trkpt lat="42.315586" lon="-0.7534878">
        <time>2022-07-05T13:56:34Z</time>
      </trkpt>
      <trkpt lat="42.315533" lon="-0.75344855">
        <time>2022-07-05T13:56:37Z</time>
      </trkpt>
      <trkpt lat="42.31548" lon="-0.7534135">
        <time>2022-07-05T13:56:40Z</time>
      </trkpt>
      <trkpt lat="42.31542" lon="-0.7533799">
        <time>2022-07-05T13:56:43Z</time>
      </trkpt>
      <trkpt lat="42.315357" lon="-0.7533579">
        <time>2022-07-05T13:56:46Z</time>
      </trkpt>
      <trkpt lat="42.3153" lon="-0.7533402">
        <time>2022-07-05T13:56:49Z</time>
      </trkpt>
      <trkpt lat="42.315243" lon="-0.7533272">
        <time>2022-07-05T13:56:52Z</time>
      </trkpt>
      <trkpt lat="42.31519" lon="-0.7533062">
        <time>2022-07-05T13:56:55Z</time>
      </trkpt>
      <trkpt lat="42.31513" lon="-0.7532765">
        <time>2022-07-05T13:56:58Z</time>
      </trkpt>
      <trkpt lat="42.315075" lon="-0.7532412">
        <time>2022-07-05T13:57:01Z</time>
      </trkpt>
      <trkpt lat="42.315014" lon="-0.75319153">
        <time>2022-07-05T13:57:05Z</time>
      </trkpt>
      <trkpt lat="42.314957" lon="-0.75314486">
        <time>2022-07-05T13:57:08Z</time>
      </trkpt>
      <trkpt lat="42.314903" lon="-0.7530966">
        <time>2022-07-05T13:57:11Z</time>
      </trkpt>
      <trkpt lat="42.31485" lon="-0.75304824">
        <time>2022-07-05T13:57:14Z</time>
      </trkpt>
      <trkpt lat="42.3148" lon="-0.75300324">
        <time>2022-07-05T13:57:17Z</time>
      </trkpt>
      <trkpt lat="42.31475" lon="-0.7529599">
        <time>2022-07-05T13:57:20Z</time>
      </trkpt>
      <trkpt lat="42.314697" lon="-0.7529202">
        <time>2022-07-05T13:57:23Z</time>
      </trkpt>
      <trkpt lat="42.314644" lon="-0.7528829">
        <time>2022-07-05T13:57:26Z</time>
      </trkpt>
      <trkpt lat="42.31459" lon="-0.75284994">
        <time>2022-07-05T13:57:29Z</time>
      </trkpt>
      <trkpt lat="42.314533" lon="-0.7528236">
        <time>2022-07-05T13:57:32Z</time>
      </trkpt>
      <trkpt lat="42.314472" lon="-0.7528002">
        <time>2022-07-05T13:57:35Z</time>
      </trkpt>
      <trkpt lat="42.31442" lon="-0.7527822">
        <time>2022-07-05T13:57:38Z</time>
      </trkpt>
      <trkpt lat="42.31436" lon="-0.75276524">
        <time>2022-07-05T13:57:41Z</time>
      </trkpt>
      <trkpt lat="42.314304" lon="-0.7527486">
        <time>2022-07-05T13:57:44Z</time>
      </trkpt>
      <trkpt lat="42.314243" lon="-0.7527319">
        <time>2022-07-05T13:57:47Z</time>
      </trkpt>
      <trkpt lat="42.314186" lon="-0.7527156">
        <time>2022-07-05T13:57:50Z</time>
      </trkpt>
      <trkpt lat="42.31413" lon="-0.75269824">
        <time>2022-07-05T13:57:53Z</time>
      </trkpt>
      <trkpt lat="42.31407" lon="-0.7526829">
        <time>2022-07-05T13:57:56Z</time>
      </trkpt>
      <trkpt lat="42.31401" lon="-0.7526689">
        <time>2022-07-05T13:57:59Z</time>
      </trkpt>
      <trkpt lat="42.31395" lon="-0.75265425">
        <time>2022-07-05T13:58:02Z</time>
      </trkpt>
      <trkpt lat="42.31389" lon="-0.7526356">
        <time>2022-07-05T13:58:05Z</time>
      </trkpt>
      <trkpt lat="42.313816" lon="-0.7526163">
        <time>2022-07-05T13:58:08Z</time>
      </trkpt>
      <trkpt lat="42.313763" lon="-0.752606">
        <time>2022-07-05T13:58:10Z</time>
      </trkpt>
      <trkpt lat="42.313705" lon="-0.75259364">
        <time>2022-07-05T13:58:12Z</time>
      </trkpt>
      <trkpt lat="42.31365" lon="-0.75258094">
        <time>2022-07-05T13:58:14Z</time>
      </trkpt>
      <trkpt lat="42.313583" lon="-0.75256497">
        <time>2022-07-05T13:58:16Z</time>
      </trkpt>
      <trkpt lat="42.313515" lon="-0.75254864">
        <time>2022-07-05T13:58:18Z</time>
      </trkpt>
      <trkpt lat="42.313454" lon="-0.75253063">
        <time>2022-07-05T13:58:20Z</time>
      </trkpt>
      <trkpt lat="42.313385" lon="-0.75250965">
        <time>2022-07-05T13:58:22Z</time>
      </trkpt>
      <trkpt lat="42.313316" lon="-0.7524873">
        <time>2022-07-05T13:58:24Z</time>
      </trkpt>
      <trkpt lat="42.313248" lon="-0.7524626">
        <time>2022-07-05T13:58:26Z</time>
      </trkpt>
      <trkpt lat="42.31318" lon="-0.75243896">
        <time>2022-07-05T13:58:28Z</time>
      </trkpt>
      <trkpt lat="42.31311" lon="-0.75241363">
        <time>2022-07-05T13:58:30Z</time>
      </trkpt>
      <trkpt lat="42.313034" lon="-0.752387">
        <time>2022-07-05T13:58:32Z</time>
      </trkpt>
      <trkpt lat="42.31296" lon="-0.7523587">
        <time>2022-07-05T13:58:34Z</time>
      </trkpt>
      <trkpt lat="42.31289" lon="-0.75232637">
        <time>2022-07-05T13:58:36Z</time>
      </trkpt>
      <trkpt lat="42.31281" lon="-0.75229067">
        <time>2022-07-05T13:58:38Z</time>
      </trkpt>
      <trkpt lat="42.312733" lon="-0.7522557">
        <time>2022-07-05T13:58:40Z</time>
      </trkpt>
      <trkpt lat="42.312653" lon="-0.75222033">
        <time>2022-07-05T13:58:42Z</time>
      </trkpt>
      <trkpt lat="42.31257" lon="-0.7521793">
        <time>2022-07-05T13:58:44Z</time>
      </trkpt>
      <trkpt lat="42.31249" lon="-0.75213933">
        <time>2022-07-05T13:58:46Z</time>
      </trkpt>
      <trkpt lat="42.312405" lon="-0.7520957">
        <time>2022-07-05T13:58:48Z</time>
      </trkpt>
      <trkpt lat="42.312363" lon="-0.7520714">
        <time>2022-07-05T13:58:49Z</time>
      </trkpt>
      <trkpt lat="42.312283" lon="-0.752022">
        <time>2022-07-05T13:58:51Z</time>
      </trkpt>
      <trkpt lat="42.312202" lon="-0.75197005">
        <time>2022-07-05T13:58:53Z</time>
      </trkpt>
      <trkpt lat="42.312126" lon="-0.7519217">
        <time>2022-07-05T13:58:55Z</time>
      </trkpt>
      <trkpt lat="42.312054" lon="-0.7518747">
        <time>2022-07-05T13:58:57Z</time>
      </trkpt>
      <trkpt lat="42.311974" lon="-0.7518177">
        <time>2022-07-05T13:58:59Z</time>
      </trkpt>
      <trkpt lat="42.3119" lon="-0.7517617">
        <time>2022-07-05T13:59:01Z</time>
      </trkpt>
      <trkpt lat="42.31183" lon="-0.7517074">
        <time>2022-07-05T13:59:03Z</time>
      </trkpt>
      <trkpt lat="42.31175" lon="-0.751649">
        <time>2022-07-05T13:59:05Z</time>
      </trkpt>
      <trkpt lat="42.311676" lon="-0.751591">
        <time>2022-07-05T13:59:07Z</time>
      </trkpt>
      <trkpt lat="42.3116" lon="-0.75153303">
        <time>2022-07-05T13:59:09Z</time>
      </trkpt>
      <trkpt lat="42.311527" lon="-0.75146836">
        <time>2022-07-05T13:59:11Z</time>
      </trkpt>
      <trkpt lat="42.311455" lon="-0.7514024">
        <time>2022-07-05T13:59:13Z</time>
      </trkpt>
      <trkpt lat="42.31138" lon="-0.75133306">
        <time>2022-07-05T13:59:15Z</time>
      </trkpt>
      <trkpt lat="42.311306" lon="-0.751263">
        <time>2022-07-05T13:59:17Z</time>
      </trkpt>
      <trkpt lat="42.311237" lon="-0.7511934">
        <time>2022-07-05T13:59:19Z</time>
      </trkpt>
      <trkpt lat="42.31117" lon="-0.75112206">
        <time>2022-07-05T13:59:21Z</time>
      </trkpt>
      <trkpt lat="42.311104" lon="-0.75104874">
        <time>2022-07-05T13:59:23Z</time>
      </trkpt>
      <trkpt lat="42.311035" lon="-0.75097275">
        <time>2022-07-05T13:59:25Z</time>
      </trkpt>
      <trkpt lat="42.310966" lon="-0.7508947">
        <time>2022-07-05T13:59:27Z</time>
      </trkpt>
      <trkpt lat="42.310894" lon="-0.7508144">
        <time>2022-07-05T13:59:29Z</time>
      </trkpt>
      <trkpt lat="42.310825" lon="-0.7507324">
        <time>2022-07-05T13:59:31Z</time>
      </trkpt>
      <trkpt lat="42.310753" lon="-0.7506534">
        <time>2022-07-05T13:59:33Z</time>
      </trkpt>
      <trkpt lat="42.310688" lon="-0.7505771">
        <time>2022-07-05T13:59:35Z</time>
      </trkpt>
      <trkpt lat="42.31062" lon="-0.75049704">
        <time>2022-07-05T13:59:37Z</time>
      </trkpt>
      <trkpt lat="42.31055" lon="-0.7504154">
        <time>2022-07-05T13:59:39Z</time>
      </trkpt>
      <trkpt lat="42.310482" lon="-0.7503337">
        <time>2022-07-05T13:59:41Z</time>
      </trkpt>
      <trkpt lat="42.310413" lon="-0.7502511">
        <time>2022-07-05T13:59:43Z</time>
      </trkpt>
      <trkpt lat="42.310345" lon="-0.7501704">
        <time>2022-07-05T13:59:45Z</time>
      </trkpt>
      <trkpt lat="42.310276" lon="-0.75008875">
        <time>2022-07-05T13:59:47Z</time>
      </trkpt>
      <trkpt lat="42.310207" lon="-0.7500071">
        <time>2022-07-05T13:59:49Z</time>
      </trkpt>
      <trkpt lat="42.310135" lon="-0.7499261">
        <time>2022-07-05T13:59:51Z</time>
      </trkpt>
      <trkpt lat="42.310066" lon="-0.7498458">
        <time>2022-07-05T13:59:53Z</time>
      </trkpt>
      <trkpt lat="42.309998" lon="-0.7497671">
        <time>2022-07-05T13:59:55Z</time>
      </trkpt>
      <trkpt lat="42.30993" lon="-0.74968946">
        <time>2022-07-05T13:59:57Z</time>
      </trkpt>
      <trkpt lat="42.30986" lon="-0.7496118">
        <time>2022-07-05T13:59:59Z</time>
      </trkpt>
      <trkpt lat="42.3098" lon="-0.74953914">
        <time>2022-07-05T14:00:01Z</time>
      </trkpt>
      <trkpt lat="42.30974" lon="-0.74946445">
        <time>2022-07-05T14:00:03Z</time>
      </trkpt>
      <trkpt lat="42.309677" lon="-0.7493925">
        <time>2022-07-05T14:00:05Z</time>
      </trkpt>
      <trkpt lat="42.309624" lon="-0.7493248">
        <time>2022-07-05T14:00:07Z</time>
      </trkpt>
      <trkpt lat="42.30957" lon="-0.7492585">
        <time>2022-07-05T14:00:09Z</time>
      </trkpt>
      <trkpt lat="42.30952" lon="-0.7491985">
        <time>2022-07-05T14:00:11Z</time>
      </trkpt>
      <trkpt lat="42.30947" lon="-0.7491382">
        <time>2022-07-05T14:00:13Z</time>
      </trkpt>
      <trkpt lat="42.30942" lon="-0.7490795">
        <time>2022-07-05T14:00:15Z</time>
      </trkpt>
      <trkpt lat="42.30937" lon="-0.74901885">
        <time>2022-07-05T14:00:17Z</time>
      </trkpt>
      <trkpt lat="42.30932" lon="-0.7489632">
        <time>2022-07-05T14:00:19Z</time>
      </trkpt>
      <trkpt lat="42.30927" lon="-0.7489092">
        <time>2022-07-05T14:00:21Z</time>
      </trkpt>
      <trkpt lat="42.309227" lon="-0.74885815">
        <time>2022-07-05T14:00:23Z</time>
      </trkpt>
      <trkpt lat="42.30918" lon="-0.7488058">
        <time>2022-07-05T14:00:25Z</time>
      </trkpt>
      <trkpt lat="42.309135" lon="-0.7487555">
        <time>2022-07-05T14:00:27Z</time>
      </trkpt>
      <trkpt lat="42.30909" lon="-0.7487069">
        <time>2022-07-05T14:00:29Z</time>
      </trkpt>
      <trkpt lat="42.309044" lon="-0.7486552">
        <time>2022-07-05T14:00:31Z</time>
      </trkpt>
      <trkpt lat="42.309" lon="-0.7486002">
        <time>2022-07-05T14:00:33Z</time>
      </trkpt>
      <trkpt lat="42.308952" lon="-0.7485459">
        <time>2022-07-05T14:00:35Z</time>
      </trkpt>
      <trkpt lat="42.30891" lon="-0.7484922">
        <time>2022-07-05T14:00:37Z</time>
      </trkpt>
      <trkpt lat="42.308865" lon="-0.74844056">
        <time>2022-07-05T14:00:39Z</time>
      </trkpt>
      <trkpt lat="42.308823" lon="-0.74838656">
        <time>2022-07-05T14:00:41Z</time>
      </trkpt>
      <trkpt lat="42.308777" lon="-0.7483299">
        <time>2022-07-05T14:00:43Z</time>
      </trkpt>
      <trkpt lat="42.30873" lon="-0.7482759">
        <time>2022-07-05T14:00:45Z</time>
      </trkpt>
      <trkpt lat="42.308685" lon="-0.74822426">
        <time>2022-07-05T14:00:47Z</time>
      </trkpt>
      <trkpt lat="42.308643" lon="-0.7481752">
        <time>2022-07-05T14:00:49Z</time>
      </trkpt>
      <trkpt lat="42.308598" lon="-0.7481246">
        <time>2022-07-05T14:00:51Z</time>
      </trkpt>
      <trkpt lat="42.308548" lon="-0.74806494">
        <time>2022-07-05T14:00:53Z</time>
      </trkpt>
      <trkpt lat="42.308502" lon="-0.7480066">
        <time>2022-07-05T14:00:55Z</time>
      </trkpt>
      <trkpt lat="42.308453" lon="-0.7479473">
        <time>2022-07-05T14:00:57Z</time>
      </trkpt>
      <trkpt lat="42.308407" lon="-0.74788857">
        <time>2022-07-05T14:00:59Z</time>
      </trkpt>
      <trkpt lat="42.30836" lon="-0.7478309">
        <time>2022-07-05T14:01:01Z</time>
      </trkpt>
      <trkpt lat="42.30832" lon="-0.7477773">
        <time>2022-07-05T14:01:03Z</time>
      </trkpt>
      <trkpt lat="42.308273" lon="-0.74772125">
        <time>2022-07-05T14:01:05Z</time>
      </trkpt>
      <trkpt lat="42.308228" lon="-0.7476653">
        <time>2022-07-05T14:01:07Z</time>
      </trkpt>
      <trkpt lat="42.308178" lon="-0.74760926">
        <time>2022-07-05T14:01:09Z</time>
      </trkpt>
      <trkpt lat="42.308136" lon="-0.7475583">
        <time>2022-07-05T14:01:11Z</time>
      </trkpt>
      <trkpt lat="42.30809" lon="-0.74750495">
        <time>2022-07-05T14:01:13Z</time>
      </trkpt>
      <trkpt lat="42.308044" lon="-0.7474516">
        <time>2022-07-05T14:01:15Z</time>
      </trkpt>
      <trkpt lat="42.308" lon="-0.7473986">
        <time>2022-07-05T14:01:17Z</time>
      </trkpt>
      <trkpt lat="42.307953" lon="-0.7473433">
        <time>2022-07-05T14:01:19Z</time>
      </trkpt>
      <trkpt lat="42.30791" lon="-0.74729294">
        <time>2022-07-05T14:01:21Z</time>
      </trkpt>
      <trkpt lat="42.30787" lon="-0.7472416">
        <time>2022-07-05T14:01:23Z</time>
      </trkpt>
      <trkpt lat="42.30783" lon="-0.7471943">
        <time>2022-07-05T14:01:25Z</time>
      </trkpt>
      <trkpt lat="42.307774" lon="-0.74712795">
        <time>2022-07-05T14:01:28Z</time>
      </trkpt>
      <trkpt lat="42.30773" lon="-0.7470833">
        <time>2022-07-05T14:01:30Z</time>
      </trkpt>
      <trkpt lat="42.307674" lon="-0.7470216">
        <time>2022-07-05T14:01:33Z</time>
      </trkpt>
      <trkpt lat="42.30764" lon="-0.746979">
        <time>2022-07-05T14:01:35Z</time>
      </trkpt>
      <trkpt lat="42.307583" lon="-0.7469123">
        <time>2022-07-05T14:01:38Z</time>
      </trkpt>
      <trkpt lat="42.307526" lon="-0.74684364">
        <time>2022-07-05T14:01:41Z</time>
      </trkpt>
      <trkpt lat="42.307487" lon="-0.7467963">
        <time>2022-07-05T14:01:43Z</time>
      </trkpt>
      <trkpt lat="42.307446" lon="-0.74675">
        <time>2022-07-05T14:01:45Z</time>
      </trkpt>
      <trkpt lat="42.307407" lon="-0.7467033">
        <time>2022-07-05T14:01:47Z</time>
      </trkpt>
      <trkpt lat="42.30735" lon="-0.7466313">
        <time>2022-07-05T14:01:50Z</time>
      </trkpt>
      <trkpt lat="42.307312" lon="-0.74658537">
        <time>2022-07-05T14:01:52Z</time>
      </trkpt>
      <trkpt lat="42.307255" lon="-0.7465233">
        <time>2022-07-05T14:01:55Z</time>
      </trkpt>
      <trkpt lat="42.307217" lon="-0.7464807">
        <time>2022-07-05T14:01:57Z</time>
      </trkpt>
      <trkpt lat="42.307156" lon="-0.746415">
        <time>2022-07-05T14:02:00Z</time>
      </trkpt>
      <trkpt lat="42.30711" lon="-0.746369">
        <time>2022-07-05T14:02:02Z</time>
      </trkpt>
      <trkpt lat="42.30707" lon="-0.746324">
        <time>2022-07-05T14:02:04Z</time>
      </trkpt>
      <trkpt lat="42.307034" lon="-0.7462737">
        <time>2022-07-05T14:02:06Z</time>
      </trkpt>
      <trkpt lat="42.307" lon="-0.7462274">
        <time>2022-07-05T14:02:08Z</time>
      </trkpt>
      <trkpt lat="42.306946" lon="-0.74616206">
        <time>2022-07-05T14:02:11Z</time>
      </trkpt>
      <trkpt lat="42.306892" lon="-0.74609905">
        <time>2022-07-05T14:02:14Z</time>
      </trkpt>
      <trkpt lat="42.306835" lon="-0.7460354">
        <time>2022-07-05T14:02:17Z</time>
      </trkpt>
      <trkpt lat="42.306778" lon="-0.74596834">
        <time>2022-07-05T14:02:20Z</time>
      </trkpt>
      <trkpt lat="42.30674" lon="-0.745921">
        <time>2022-07-05T14:02:22Z</time>
      </trkpt>
      <trkpt lat="42.306686" lon="-0.745858">
        <time>2022-07-05T14:02:25Z</time>
      </trkpt>
      <trkpt lat="42.306633" lon="-0.7457897">
        <time>2022-07-05T14:02:28Z</time>
      </trkpt>
      <trkpt lat="42.306595" lon="-0.74574673">
        <time>2022-07-05T14:02:30Z</time>
      </trkpt>
      <trkpt lat="42.306534" lon="-0.74568236">
        <time>2022-07-05T14:02:33Z</time>
      </trkpt>
      <trkpt lat="42.306496" lon="-0.7456381">
        <time>2022-07-05T14:02:35Z</time>
      </trkpt>
      <trkpt lat="42.30644" lon="-0.7455707">
        <time>2022-07-05T14:02:38Z</time>
      </trkpt>
      <trkpt lat="42.3064" lon="-0.7455264">
        <time>2022-07-05T14:02:40Z</time>
      </trkpt>
      <trkpt lat="42.306343" lon="-0.7454627">
        <time>2022-07-05T14:02:43Z</time>
      </trkpt>
      <trkpt lat="42.3063" lon="-0.7454187">
        <time>2022-07-05T14:02:45Z</time>
      </trkpt>
      <trkpt lat="42.30624" lon="-0.7453497">
        <time>2022-07-05T14:02:48Z</time>
      </trkpt>
      <trkpt lat="42.3062" lon="-0.7453031">
        <time>2022-07-05T14:02:50Z</time>
      </trkpt>
      <trkpt lat="42.30616" lon="-0.74526143">
        <time>2022-07-05T14:02:52Z</time>
      </trkpt>
      <trkpt lat="42.30612" lon="-0.74521506">
        <time>2022-07-05T14:02:54Z</time>
      </trkpt>
      <trkpt lat="42.306065" lon="-0.74514544">
        <time>2022-07-05T14:02:57Z</time>
      </trkpt>
      <trkpt lat="42.306023" lon="-0.7450944">
        <time>2022-07-05T14:02:59Z</time>
      </trkpt>
      <trkpt lat="42.30598" lon="-0.74504375">
        <time>2022-07-05T14:03:01Z</time>
      </trkpt>
      <trkpt lat="42.30594" lon="-0.7449968">
        <time>2022-07-05T14:03:03Z</time>
      </trkpt>
      <trkpt lat="42.305893" lon="-0.7449481">
        <time>2022-07-05T14:03:05Z</time>
      </trkpt>
      <trkpt lat="42.305847" lon="-0.7449021">
        <time>2022-07-05T14:03:07Z</time>
      </trkpt>
      <trkpt lat="42.3058" lon="-0.74485075">
        <time>2022-07-05T14:03:09Z</time>
      </trkpt>
      <trkpt lat="42.30576" lon="-0.74479914">
        <time>2022-07-05T14:03:11Z</time>
      </trkpt>
      <trkpt lat="42.305714" lon="-0.74474645">
        <time>2022-07-05T14:03:13Z</time>
      </trkpt>
      <trkpt lat="42.305668" lon="-0.7446945">
        <time>2022-07-05T14:03:15Z</time>
      </trkpt>
      <trkpt lat="42.305626" lon="-0.74463844">
        <time>2022-07-05T14:03:17Z</time>
      </trkpt>
      <trkpt lat="42.305584" lon="-0.7445838">
        <time>2022-07-05T14:03:19Z</time>
      </trkpt>
      <trkpt lat="42.305542" lon="-0.7445295">
        <time>2022-07-05T14:03:21Z</time>
      </trkpt>
      <trkpt lat="42.305504" lon="-0.7444795">
        <time>2022-07-05T14:03:23Z</time>
      </trkpt>
      <trkpt lat="42.305466" lon="-0.7444305">
        <time>2022-07-05T14:03:25Z</time>
      </trkpt>
      <trkpt lat="42.305424" lon="-0.74438244">
        <time>2022-07-05T14:03:27Z</time>
      </trkpt>
      <trkpt lat="42.305386" lon="-0.7443355">
        <time>2022-07-05T14:03:29Z</time>
      </trkpt>
      <trkpt lat="42.305332" lon="-0.7442631">
        <time>2022-07-05T14:03:32Z</time>
      </trkpt>
      <trkpt lat="42.305294" lon="-0.7442138">
        <time>2022-07-05T14:03:34Z</time>
      </trkpt>
      <trkpt lat="42.30525" lon="-0.7441428">
        <time>2022-07-05T14:03:37Z</time>
      </trkpt>
      <trkpt lat="42.305202" lon="-0.7440701">
        <time>2022-07-05T14:03:40Z</time>
      </trkpt>
      <trkpt lat="42.305153" lon="-0.7439915">
        <time>2022-07-05T14:03:43Z</time>
      </trkpt>
      <trkpt lat="42.30512" lon="-0.74394083">
        <time>2022-07-05T14:03:45Z</time>
      </trkpt>
      <trkpt lat="42.305084" lon="-0.74388784">
        <time>2022-07-05T14:03:47Z</time>
      </trkpt>
      <trkpt lat="42.305035" lon="-0.74380547">
        <time>2022-07-05T14:03:50Z</time>
      </trkpt>
      <trkpt lat="42.304996" lon="-0.7437465">
        <time>2022-07-05T14:03:52Z</time>
      </trkpt>
      <trkpt lat="42.30496" lon="-0.7436888">
        <time>2022-07-05T14:03:54Z</time>
      </trkpt>
      <trkpt lat="42.304924" lon="-0.7436352">
        <time>2022-07-05T14:03:56Z</time>
      </trkpt>
      <trkpt lat="42.30489" lon="-0.7435772">
        <time>2022-07-05T14:03:58Z</time>
      </trkpt>
      <trkpt lat="42.30485" lon="-0.7435175">
        <time>2022-07-05T14:04:00Z</time>
      </trkpt>
      <trkpt lat="42.304817" lon="-0.7434598">
        <time>2022-07-05T14:04:02Z</time>
      </trkpt>
      <trkpt lat="42.304775" lon="-0.7434009">
        <time>2022-07-05T14:04:04Z</time>
      </trkpt>
      <trkpt lat="42.304737" lon="-0.74333954">
        <time>2022-07-05T14:04:06Z</time>
      </trkpt>
      <trkpt lat="42.3047" lon="-0.74327785">
        <time>2022-07-05T14:04:08Z</time>
      </trkpt>
      <trkpt lat="42.304657" lon="-0.7432175">
        <time>2022-07-05T14:04:10Z</time>
      </trkpt>
      <trkpt lat="42.30462" lon="-0.7431559">
        <time>2022-07-05T14:04:12Z</time>
      </trkpt>
      <trkpt lat="42.304577" lon="-0.7430919">
        <time>2022-07-05T14:04:14Z</time>
      </trkpt>
      <trkpt lat="42.30454" lon="-0.7430299">
        <time>2022-07-05T14:04:16Z</time>
      </trkpt>
      <trkpt lat="42.304504" lon="-0.74297255">
        <time>2022-07-05T14:04:18Z</time>
      </trkpt>
      <trkpt lat="42.304466" lon="-0.74291456">
        <time>2022-07-05T14:04:20Z</time>
      </trkpt>
      <trkpt lat="42.304432" lon="-0.7428559">
        <time>2022-07-05T14:04:22Z</time>
      </trkpt>
      <trkpt lat="42.304394" lon="-0.7427969">
        <time>2022-07-05T14:04:24Z</time>
      </trkpt>
      <trkpt lat="42.30436" lon="-0.7427406">
        <time>2022-07-05T14:04:26Z</time>
      </trkpt>
      <trkpt lat="42.30432" lon="-0.7426839">
        <time>2022-07-05T14:04:28Z</time>
      </trkpt>
      <trkpt lat="42.304287" lon="-0.7426246">
        <time>2022-07-05T14:04:30Z</time>
      </trkpt>
      <trkpt lat="42.30425" lon="-0.7425662">
        <time>2022-07-05T14:04:32Z</time>
      </trkpt>
      <trkpt lat="42.304214" lon="-0.74250925">
        <time>2022-07-05T14:04:34Z</time>
      </trkpt>
      <trkpt lat="42.30418" lon="-0.7424539">
        <time>2022-07-05T14:04:36Z</time>
      </trkpt>
      <trkpt lat="42.30413" lon="-0.74237657">
        <time>2022-07-05T14:04:39Z</time>
      </trkpt>
      <trkpt lat="42.3041" lon="-0.7423276">
        <time>2022-07-05T14:04:41Z</time>
      </trkpt>
      <trkpt lat="42.304054" lon="-0.74225456">
        <time>2022-07-05T14:04:44Z</time>
      </trkpt>
      <trkpt lat="42.30402" lon="-0.7422072">
        <time>2022-07-05T14:04:46Z</time>
      </trkpt>
      <trkpt lat="42.303978" lon="-0.74213994">
        <time>2022-07-05T14:04:49Z</time>
      </trkpt>
      <trkpt lat="42.303936" lon="-0.74206656">
        <time>2022-07-05T14:04:52Z</time>
      </trkpt>
      <trkpt lat="42.30389" lon="-0.7419979">
        <time>2022-07-05T14:04:55Z</time>
      </trkpt>
      <trkpt lat="42.30385" lon="-0.74193025">
        <time>2022-07-05T14:04:58Z</time>
      </trkpt>
      <trkpt lat="42.303802" lon="-0.74186295">
        <time>2022-07-05T14:05:01Z</time>
      </trkpt>
      <trkpt lat="42.303764" lon="-0.74180025">
        <time>2022-07-05T14:05:04Z</time>
      </trkpt>
      <trkpt lat="42.30373" lon="-0.7417456">
        <time>2022-07-05T14:05:07Z</time>
      </trkpt>
      <trkpt lat="42.303696" lon="-0.74170095">
        <time>2022-07-05T14:05:10Z</time>
      </trkpt>
      <trkpt lat="42.303658" lon="-0.74163765">
        <time>2022-07-05T14:05:14Z</time>
      </trkpt>
      <trkpt lat="42.30362" lon="-0.7415703">
        <time>2022-07-05T14:05:18Z</time>
      </trkpt>
      <trkpt lat="42.30359" lon="-0.74152297">
        <time>2022-07-05T14:05:21Z</time>
      </trkpt>
      <trkpt lat="42.303543" lon="-0.74145895">
        <time>2022-07-05T14:05:25Z</time>
      </trkpt>
      <trkpt lat="42.303505" lon="-0.74139863">
        <time>2022-07-05T14:05:29Z</time>
      </trkpt>
      <trkpt lat="42.303467" lon="-0.741331">
        <time>2022-07-05T14:05:33Z</time>
      </trkpt>
      <trkpt lat="42.30343" lon="-0.7412753">
        <time>2022-07-05T14:05:36Z</time>
      </trkpt>
      <trkpt lat="42.303394" lon="-0.7412273">
        <time>2022-07-05T14:05:39Z</time>
      </trkpt>
      <trkpt lat="42.303352" lon="-0.74116033">
        <time>2022-07-05T14:05:43Z</time>
      </trkpt>
      <trkpt lat="42.303314" lon="-0.7411057">
        <time>2022-07-05T14:05:46Z</time>
      </trkpt>
      <trkpt lat="42.30328" lon="-0.74104667">
        <time>2022-07-05T14:05:49Z</time>
      </trkpt>
      <trkpt lat="42.30325" lon="-0.7409937">
        <time>2022-07-05T14:05:52Z</time>
      </trkpt>
      <trkpt lat="42.303207" lon="-0.74093235">
        <time>2022-07-05T14:05:56Z</time>
      </trkpt>
      <trkpt lat="42.303165" lon="-0.74087">
        <time>2022-07-05T14:06:00Z</time>
      </trkpt>
      <trkpt lat="42.303127" lon="-0.7408057">
        <time>2022-07-05T14:06:04Z</time>
      </trkpt>
      <trkpt lat="42.303085" lon="-0.74074167">
        <time>2022-07-05T14:06:08Z</time>
      </trkpt>
      <trkpt lat="42.30304" lon="-0.74067366">
        <time>2022-07-05T14:06:12Z</time>
      </trkpt>
      <trkpt lat="42.303005" lon="-0.74062467">
        <time>2022-07-05T14:06:15Z</time>
      </trkpt>
      <trkpt lat="42.302963" lon="-0.74055135">
        <time>2022-07-05T14:06:19Z</time>
      </trkpt>
      <trkpt lat="42.30293" lon="-0.74049366">
        <time>2022-07-05T14:06:22Z</time>
      </trkpt>
      <trkpt lat="42.302895" lon="-0.740443">
        <time>2022-07-05T14:06:25Z</time>
      </trkpt>
      <trkpt lat="42.302856" lon="-0.74038804">
        <time>2022-07-05T14:06:28Z</time>
      </trkpt>
      <trkpt lat="42.302822" lon="-0.7403297">
        <time>2022-07-05T14:06:31Z</time>
      </trkpt>
      <trkpt lat="42.302784" lon="-0.740269">
        <time>2022-07-05T14:06:34Z</time>
      </trkpt>
      <trkpt lat="42.302746" lon="-0.740208">
        <time>2022-07-05T14:06:37Z</time>
      </trkpt>
      <trkpt lat="42.302708" lon="-0.740149">
        <time>2022-07-05T14:06:40Z</time>
      </trkpt>
      <trkpt lat="42.30267" lon="-0.74009234">
        <time>2022-07-05T14:06:43Z</time>
      </trkpt>
      <trkpt lat="42.302628" lon="-0.74003637">
        <time>2022-07-05T14:06:46Z</time>
      </trkpt>
      <trkpt lat="42.30259" lon="-0.7399757">
        <time>2022-07-05T14:06:49Z</time>
      </trkpt>
      <trkpt lat="42.30255" lon="-0.73991334">
        <time>2022-07-05T14:06:52Z</time>
      </trkpt>
      <trkpt lat="42.302513" lon="-0.73984504">
        <time>2022-07-05T14:06:55Z</time>
      </trkpt>
      <trkpt lat="42.30247" lon="-0.7397797">
        <time>2022-07-05T14:06:58Z</time>
      </trkpt>
      <trkpt lat="42.30243" lon="-0.73971236">
        <time>2022-07-05T14:07:01Z</time>
      </trkpt>
      <trkpt lat="42.302387" lon="-0.73964137">
        <time>2022-07-05T14:07:04Z</time>
      </trkpt>
      <trkpt lat="42.302345" lon="-0.73957205">
        <time>2022-07-05T14:07:07Z</time>
      </trkpt>
      <trkpt lat="42.3023" lon="-0.7395014">
        <time>2022-07-05T14:07:10Z</time>
      </trkpt>
      <trkpt lat="42.30226" lon="-0.73943204">
        <time>2022-07-05T14:07:13Z</time>
      </trkpt>
      <trkpt lat="42.302223" lon="-0.73936075">
        <time>2022-07-05T14:07:16Z</time>
      </trkpt>
      <trkpt lat="42.30218" lon="-0.7392931">
        <time>2022-07-05T14:07:19Z</time>
      </trkpt>
      <trkpt lat="42.302135" lon="-0.7392144">
        <time>2022-07-05T14:07:22Z</time>
      </trkpt>
      <trkpt lat="42.302094" lon="-0.7391391">
        <time>2022-07-05T14:07:25Z</time>
      </trkpt>
      <trkpt lat="42.30206" lon="-0.7390807">
        <time>2022-07-05T14:07:27Z</time>
      </trkpt>
      <trkpt lat="42.30203" lon="-0.73902345">
        <time>2022-07-05T14:07:29Z</time>
      </trkpt>
      <trkpt lat="42.302" lon="-0.73895943">
        <time>2022-07-05T14:07:31Z</time>
      </trkpt>
      <trkpt lat="42.301968" lon="-0.7388971">
        <time>2022-07-05T14:07:33Z</time>
      </trkpt>
      <trkpt lat="42.301937" lon="-0.7388334">
        <time>2022-07-05T14:07:35Z</time>
      </trkpt>
      <trkpt lat="42.301903" lon="-0.7387611">
        <time>2022-07-05T14:07:37Z</time>
      </trkpt>
      <trkpt lat="42.30187" lon="-0.7386938">
        <time>2022-07-05T14:07:39Z</time>
      </trkpt>
      <trkpt lat="42.301834" lon="-0.7386174">
        <time>2022-07-05T14:07:41Z</time>
      </trkpt>
      <trkpt lat="42.301804" lon="-0.73853976">
        <time>2022-07-05T14:07:43Z</time>
      </trkpt>
      <trkpt lat="42.301773" lon="-0.7384641">
        <time>2022-07-05T14:07:45Z</time>
      </trkpt>
      <trkpt lat="42.30174" lon="-0.7383791">
        <time>2022-07-05T14:07:47Z</time>
      </trkpt>
      <trkpt lat="42.30171" lon="-0.7382931">
        <time>2022-07-05T14:07:49Z</time>
      </trkpt>
      <trkpt lat="42.301674" lon="-0.73820245">
        <time>2022-07-05T14:07:51Z</time>
      </trkpt>
      <trkpt lat="42.301643" lon="-0.73810345">
        <time>2022-07-05T14:07:53Z</time>
      </trkpt>
      <trkpt lat="42.301605" lon="-0.7379978">
        <time>2022-07-05T14:07:55Z</time>
      </trkpt>
      <trkpt lat="42.301567" lon="-0.7378848">
        <time>2022-07-05T14:07:57Z</time>
      </trkpt>
      <trkpt lat="42.30153" lon="-0.7377638">
        <time>2022-07-05T14:07:59Z</time>
      </trkpt>
      <trkpt lat="42.30149" lon="-0.7376428">
        <time>2022-07-05T14:08:01Z</time>
      </trkpt>
      <trkpt lat="42.301476" lon="-0.73757917">
        <time>2022-07-05T14:08:02Z</time>
      </trkpt>
      <trkpt lat="42.30144" lon="-0.7374478">
        <time>2022-07-05T14:08:04Z</time>
      </trkpt>
      <trkpt lat="42.301426" lon="-0.73738015">
        <time>2022-07-05T14:08:05Z</time>
      </trkpt>
      <trkpt lat="42.30141" lon="-0.7373108">
        <time>2022-07-05T14:08:06Z</time>
      </trkpt>
      <trkpt lat="42.30139" lon="-0.7372392">
        <time>2022-07-05T14:08:07Z</time>
      </trkpt>
      <trkpt lat="42.301376" lon="-0.73716515">
        <time>2022-07-05T14:08:08Z</time>
      </trkpt>
      <trkpt lat="42.30136" lon="-0.73708814">
        <time>2022-07-05T14:08:09Z</time>
      </trkpt>
      <trkpt lat="42.301346" lon="-0.73700786">
        <time>2022-07-05T14:08:10Z</time>
      </trkpt>
      <trkpt lat="42.30133" lon="-0.73692584">
        <time>2022-07-05T14:08:11Z</time>
      </trkpt>
      <trkpt lat="42.301315" lon="-0.73683983">
        <time>2022-07-05T14:08:12Z</time>
      </trkpt>
      <trkpt lat="42.3013" lon="-0.7367515">
        <time>2022-07-05T14:08:13Z</time>
      </trkpt>
      <trkpt lat="42.30128" lon="-0.7366588">
        <time>2022-07-05T14:08:14Z</time>
      </trkpt>
      <trkpt lat="42.301266" lon="-0.7365632">
        <time>2022-07-05T14:08:15Z</time>
      </trkpt>
      <trkpt lat="42.301247" lon="-0.7364655">
        <time>2022-07-05T14:08:16Z</time>
      </trkpt>
      <trkpt lat="42.301228" lon="-0.7363642">
        <time>2022-07-05T14:08:17Z</time>
      </trkpt>
      <trkpt lat="42.30121" lon="-0.73626083">
        <time>2022-07-05T14:08:18Z</time>
      </trkpt>
      <trkpt lat="42.301193" lon="-0.73615456">
        <time>2022-07-05T14:08:19Z</time>
      </trkpt>
      <trkpt lat="42.301174" lon="-0.73604554">
        <time>2022-07-05T14:08:20Z</time>
      </trkpt>
      <trkpt lat="42.301155" lon="-0.73593456">
        <time>2022-07-05T14:08:21Z</time>
      </trkpt>
      <trkpt lat="42.301136" lon="-0.7358212">
        <time>2022-07-05T14:08:22Z</time>
      </trkpt>
      <trkpt lat="42.301113" lon="-0.73570657">
        <time>2022-07-05T14:08:23Z</time>
      </trkpt>
      <trkpt lat="42.30106" lon="-0.7354762">
        <time>2022-07-05T14:08:25Z</time>
      </trkpt>
      <trkpt lat="42.30103" lon="-0.7353599">
        <time>2022-07-05T14:08:26Z</time>
      </trkpt>
      <trkpt lat="42.300995" lon="-0.73524487">
        <time>2022-07-05T14:08:27Z</time>
      </trkpt>
      <trkpt lat="42.30096" lon="-0.7351302">
        <time>2022-07-05T14:08:28Z</time>
      </trkpt>
      <trkpt lat="42.30092" lon="-0.73501724">
        <time>2022-07-05T14:08:29Z</time>
      </trkpt>
      <trkpt lat="42.300877" lon="-0.73490554">
        <time>2022-07-05T14:08:30Z</time>
      </trkpt>
      <trkpt lat="42.30083" lon="-0.73479855">
        <time>2022-07-05T14:08:31Z</time>
      </trkpt>
      <trkpt lat="42.30078" lon="-0.73469454">
        <time>2022-07-05T14:08:32Z</time>
      </trkpt>
      <trkpt lat="42.300728" lon="-0.7345932">
        <time>2022-07-05T14:08:33Z</time>
      </trkpt>
      <trkpt lat="42.300674" lon="-0.7344956">
        <time>2022-07-05T14:08:34Z</time>
      </trkpt>
      <trkpt lat="42.300617" lon="-0.7344016">
        <time>2022-07-05T14:08:35Z</time>
      </trkpt>
      <trkpt lat="42.300564" lon="-0.7343116">
        <time>2022-07-05T14:08:36Z</time>
      </trkpt>
      <trkpt lat="42.30051" lon="-0.73423123">
        <time>2022-07-05T14:08:37Z</time>
      </trkpt>
      <trkpt lat="42.300453" lon="-0.7341546">
        <time>2022-07-05T14:08:38Z</time>
      </trkpt>
      <trkpt lat="42.300396" lon="-0.7340782">
        <time>2022-07-05T14:08:39Z</time>
      </trkpt>
      <trkpt lat="42.300335" lon="-0.7340089">
        <time>2022-07-05T14:08:40Z</time>
      </trkpt>
      <trkpt lat="42.300278" lon="-0.73394626">
        <time>2022-07-05T14:08:41Z</time>
      </trkpt>
      <trkpt lat="42.300224" lon="-0.7338896">
        <time>2022-07-05T14:08:42Z</time>
      </trkpt>
      <trkpt lat="42.30017" lon="-0.7338386">
        <time>2022-07-05T14:08:43Z</time>
      </trkpt>
      <trkpt lat="42.30012" lon="-0.7337916">
        <time>2022-07-05T14:08:44Z</time>
      </trkpt>
      <trkpt lat="42.300076" lon="-0.7337496">
        <time>2022-07-05T14:08:45Z</time>
      </trkpt>
      <trkpt lat="42.30003" lon="-0.7337139">
        <time>2022-07-05T14:08:46Z</time>
      </trkpt>
      <trkpt lat="42.299984" lon="-0.73368263">
        <time>2022-07-05T14:08:47Z</time>
      </trkpt>
      <trkpt lat="42.299904" lon="-0.73362994">
        <time>2022-07-05T14:08:49Z</time>
      </trkpt>
      <trkpt lat="42.299828" lon="-0.7335839">
        <time>2022-07-05T14:08:51Z</time>
      </trkpt>
      <trkpt lat="42.29976" lon="-0.73354465">
        <time>2022-07-05T14:08:53Z</time>
      </trkpt>
      <trkpt lat="42.299694" lon="-0.7335123">
        <time>2022-07-05T14:08:55Z</time>
      </trkpt>
      <trkpt lat="42.299637" lon="-0.73348427">
        <time>2022-07-05T14:08:57Z</time>
      </trkpt>
      <trkpt lat="42.299583" lon="-0.73345995">
        <time>2022-07-05T14:08:59Z</time>
      </trkpt>
      <trkpt lat="42.299526" lon="-0.733435">
        <time>2022-07-05T14:09:01Z</time>
      </trkpt>
      <trkpt lat="42.29947" lon="-0.733409">
        <time>2022-07-05T14:09:03Z</time>
      </trkpt>
      <trkpt lat="42.29941" lon="-0.7333843">
        <time>2022-07-05T14:09:05Z</time>
      </trkpt>
      <trkpt lat="42.29936" lon="-0.7333613">
        <time>2022-07-05T14:09:07Z</time>
      </trkpt>
      <trkpt lat="42.299305" lon="-0.7333406">
        <time>2022-07-05T14:09:09Z</time>
      </trkpt>
      <trkpt lat="42.29925" lon="-0.73331964">
        <time>2022-07-05T14:09:11Z</time>
      </trkpt>
      <trkpt lat="42.299202" lon="-0.73329765">
        <time>2022-07-05T14:09:13Z</time>
      </trkpt>
      <trkpt lat="42.299145" lon="-0.7332726">
        <time>2022-07-05T14:09:15Z</time>
      </trkpt>
      <trkpt lat="42.299088" lon="-0.73324597">
        <time>2022-07-05T14:09:17Z</time>
      </trkpt>
      <trkpt lat="42.299034" lon="-0.733217">
        <time>2022-07-05T14:09:19Z</time>
      </trkpt>
      <trkpt lat="42.29898" lon="-0.7331886">
        <time>2022-07-05T14:09:21Z</time>
      </trkpt>
      <trkpt lat="42.298916" lon="-0.7331607">
        <time>2022-07-05T14:09:24Z</time>
      </trkpt>
      <trkpt lat="42.29885" lon="-0.7331337">
        <time>2022-07-05T14:09:26Z</time>
      </trkpt>
      <trkpt lat="42.29879" lon="-0.7331073">
        <time>2022-07-05T14:09:28Z</time>
      </trkpt>
      <trkpt lat="42.298733" lon="-0.733083">
        <time>2022-07-05T14:09:30Z</time>
      </trkpt>
      <trkpt lat="42.29868" lon="-0.73305863">
        <time>2022-07-05T14:09:32Z</time>
      </trkpt>
      <trkpt lat="42.298622" lon="-0.7330357">
        <time>2022-07-05T14:09:34Z</time>
      </trkpt>
      <trkpt lat="42.29857" lon="-0.73301166">
        <time>2022-07-05T14:09:36Z</time>
      </trkpt>
      <trkpt lat="42.29851" lon="-0.73298365">
        <time>2022-07-05T14:09:38Z</time>
      </trkpt>
      <trkpt lat="42.29846" lon="-0.7329547">
        <time>2022-07-05T14:09:40Z</time>
      </trkpt>
      <trkpt lat="42.2984" lon="-0.7329273">
        <time>2022-07-05T14:09:42Z</time>
      </trkpt>
      <trkpt lat="42.298347" lon="-0.732899">
        <time>2022-07-05T14:09:44Z</time>
      </trkpt>
      <trkpt lat="42.298294" lon="-0.7328683">
        <time>2022-07-05T14:09:46Z</time>
      </trkpt>
      <trkpt lat="42.298237" lon="-0.7328373">
        <time>2022-07-05T14:09:48Z</time>
      </trkpt>
      <trkpt lat="42.298183" lon="-0.7328077">
        <time>2022-07-05T14:09:50Z</time>
      </trkpt>
      <trkpt lat="42.298126" lon="-0.7327797">
        <time>2022-07-05T14:09:52Z</time>
      </trkpt>
      <trkpt lat="42.29807" lon="-0.732751">
        <time>2022-07-05T14:09:54Z</time>
      </trkpt>
      <trkpt lat="42.29801" lon="-0.7327227">
        <time>2022-07-05T14:09:56Z</time>
      </trkpt>
      <trkpt lat="42.29796" lon="-0.732697">
        <time>2022-07-05T14:09:58Z</time>
      </trkpt>
      <trkpt lat="42.297897" lon="-0.73267037">
        <time>2022-07-05T14:10:00Z</time>
      </trkpt>
      <trkpt lat="42.29784" lon="-0.7326427">
        <time>2022-07-05T14:10:02Z</time>
      </trkpt>
      <trkpt lat="42.29778" lon="-0.7326124">
        <time>2022-07-05T14:10:04Z</time>
      </trkpt>
      <trkpt lat="42.297718" lon="-0.73258275">
        <time>2022-07-05T14:10:06Z</time>
      </trkpt>
      <trkpt lat="42.297653" lon="-0.73254806">
        <time>2022-07-05T14:10:08Z</time>
      </trkpt>
      <trkpt lat="42.29758" lon="-0.73251176">
        <time>2022-07-05T14:10:10Z</time>
      </trkpt>
      <trkpt lat="42.297512" lon="-0.7324734">
        <time>2022-07-05T14:10:12Z</time>
      </trkpt>
      <trkpt lat="42.297443" lon="-0.73243374">
        <time>2022-07-05T14:10:14Z</time>
      </trkpt>
      <trkpt lat="42.29738" lon="-0.73239976">
        <time>2022-07-05T14:10:16Z</time>
      </trkpt>
      <trkpt lat="42.29732" lon="-0.7323684">
        <time>2022-07-05T14:10:18Z</time>
      </trkpt>
      <trkpt lat="42.297264" lon="-0.73234177">
        <time>2022-07-05T14:10:20Z</time>
      </trkpt>
      <trkpt lat="42.297215" lon="-0.7323154">
        <time>2022-07-05T14:10:22Z</time>
      </trkpt>
      <trkpt lat="42.297165" lon="-0.7322911">
        <time>2022-07-05T14:10:24Z</time>
      </trkpt>
      <trkpt lat="42.29711" lon="-0.73226345">
        <time>2022-07-05T14:10:26Z</time>
      </trkpt>
      <trkpt lat="42.29705" lon="-0.7322301">
        <time>2022-07-05T14:10:28Z</time>
      </trkpt>
      <trkpt lat="42.29699" lon="-0.73219776">
        <time>2022-07-05T14:10:30Z</time>
      </trkpt>
      <trkpt lat="42.29692" lon="-0.73216313">
        <time>2022-07-05T14:10:32Z</time>
      </trkpt>
      <trkpt lat="42.29682" lon="-0.7321058">
        <time>2022-07-05T14:10:35Z</time>
      </trkpt>
      <trkpt lat="42.296757" lon="-0.73206246">
        <time>2022-07-05T14:10:37Z</time>
      </trkpt>
      <trkpt lat="42.296688" lon="-0.73201644">
        <time>2022-07-05T14:10:39Z</time>
      </trkpt>
      <trkpt lat="42.29662" lon="-0.7319681">
        <time>2022-07-05T14:10:41Z</time>
      </trkpt>
      <trkpt lat="42.296547" lon="-0.7319128">
        <time>2022-07-05T14:10:43Z</time>
      </trkpt>
      <trkpt lat="42.29648" lon="-0.73185414">
        <time>2022-07-05T14:10:45Z</time>
      </trkpt>
      <trkpt lat="42.296417" lon="-0.7317958">
        <time>2022-07-05T14:10:47Z</time>
      </trkpt>
      <trkpt lat="42.29635" lon="-0.73173314">
        <time>2022-07-05T14:10:49Z</time>
      </trkpt>
      <trkpt lat="42.296284" lon="-0.7316691">
        <time>2022-07-05T14:10:51Z</time>
      </trkpt>
      <trkpt lat="42.29622" lon="-0.7316058">
        <time>2022-07-05T14:10:53Z</time>
      </trkpt>
      <trkpt lat="42.296158" lon="-0.7315435">
        <time>2022-07-05T14:10:55Z</time>
      </trkpt>
      <trkpt lat="42.2961" lon="-0.73148316">
        <time>2022-07-05T14:10:57Z</time>
      </trkpt>
      <trkpt lat="42.29604" lon="-0.7314175">
        <time>2022-07-05T14:10:59Z</time>
      </trkpt>
      <trkpt lat="42.29598" lon="-0.7313485">
        <time>2022-07-05T14:11:01Z</time>
      </trkpt>
      <trkpt lat="42.295925" lon="-0.73127747">
        <time>2022-07-05T14:11:03Z</time>
      </trkpt>
      <trkpt lat="42.295868" lon="-0.73120147">
        <time>2022-07-05T14:11:05Z</time>
      </trkpt>
      <trkpt lat="42.295815" lon="-0.7311328">
        <time>2022-07-05T14:11:07Z</time>
      </trkpt>
      <trkpt lat="42.295757" lon="-0.7310608">
        <time>2022-07-05T14:11:09Z</time>
      </trkpt>
      <trkpt lat="42.2957" lon="-0.7309895">
        <time>2022-07-05T14:11:11Z</time>
      </trkpt>
      <trkpt lat="42.295654" lon="-0.7309225">
        <time>2022-07-05T14:11:13Z</time>
      </trkpt>
      <trkpt lat="42.29561" lon="-0.7308512">
        <time>2022-07-05T14:11:15Z</time>
      </trkpt>
      <trkpt lat="42.295563" lon="-0.73078215">
        <time>2022-07-05T14:11:17Z</time>
      </trkpt>
      <trkpt lat="42.29552" lon="-0.7307105">
        <time>2022-07-05T14:11:19Z</time>
      </trkpt>
      <trkpt lat="42.29548" lon="-0.73063886">
        <time>2022-07-05T14:11:21Z</time>
      </trkpt>
      <trkpt lat="42.295437" lon="-0.7305705">
        <time>2022-07-05T14:11:23Z</time>
      </trkpt>
      <trkpt lat="42.2954" lon="-0.73050684">
        <time>2022-07-05T14:11:25Z</time>
      </trkpt>
      <trkpt lat="42.29536" lon="-0.73044384">
        <time>2022-07-05T14:11:27Z</time>
      </trkpt>
      <trkpt lat="42.295326" lon="-0.73038286">
        <time>2022-07-05T14:11:29Z</time>
      </trkpt>
      <trkpt lat="42.29529" lon="-0.7303172">
        <time>2022-07-05T14:11:31Z</time>
      </trkpt>
      <trkpt lat="42.295258" lon="-0.7302532">
        <time>2022-07-05T14:11:33Z</time>
      </trkpt>
      <trkpt lat="42.295223" lon="-0.73018587">
        <time>2022-07-05T14:11:35Z</time>
      </trkpt>
      <trkpt lat="42.29517" lon="-0.7300875">
        <time>2022-07-05T14:11:38Z</time>
      </trkpt>
      <trkpt lat="42.29514" lon="-0.7300242">
        <time>2022-07-05T14:11:40Z</time>
      </trkpt>
      <trkpt lat="42.295113" lon="-0.7299692">
        <time>2022-07-05T14:11:42Z</time>
      </trkpt>
      <trkpt lat="42.295082" lon="-0.7299142">
        <time>2022-07-05T14:11:45Z</time>
      </trkpt>
      <trkpt lat="42.295025" lon="-0.7298409">
        <time>2022-07-05T14:14:23Z</time>
      </trkpt>
      <trkpt lat="42.294987" lon="-0.72977257">
        <time>2022-07-05T14:14:26Z</time>
      </trkpt>
      <trkpt lat="42.294945" lon="-0.7296922">
        <time>2022-07-05T14:14:29Z</time>
      </trkpt>
      <trkpt lat="42.294914" lon="-0.72961754">
        <time>2022-07-05T14:14:32Z</time>
      </trkpt>
      <trkpt lat="42.29488" lon="-0.7295432">
        <time>2022-07-05T14:14:35Z</time>
      </trkpt>
      <trkpt lat="42.29484" lon="-0.7294686">
        <time>2022-07-05T14:14:38Z</time>
      </trkpt>
      <trkpt lat="42.294804" lon="-0.7293939">
        <time>2022-07-05T14:14:41Z</time>
      </trkpt>
      <trkpt lat="42.294765" lon="-0.72931856">
        <time>2022-07-05T14:14:44Z</time>
      </trkpt>
      <trkpt lat="42.29473" lon="-0.72924227">
        <time>2022-07-05T14:14:47Z</time>
      </trkpt>
      <trkpt lat="42.29469" lon="-0.7291636">
        <time>2022-07-05T14:14:50Z</time>
      </trkpt>
      <trkpt lat="42.29465" lon="-0.7290849">
        <time>2022-07-05T14:14:53Z</time>
      </trkpt>
      <trkpt lat="42.29461" lon="-0.7290116">
        <time>2022-07-05T14:14:56Z</time>
      </trkpt>
      <trkpt lat="42.294567" lon="-0.7289356">
        <time>2022-07-05T14:14:59Z</time>
      </trkpt>
      <trkpt lat="42.29453" lon="-0.7288606">
        <time>2022-07-05T14:15:02Z</time>
      </trkpt>
      <trkpt lat="42.29449" lon="-0.7287886">
        <time>2022-07-05T14:15:05Z</time>
      </trkpt>
      <trkpt lat="42.294456" lon="-0.7287129">
        <time>2022-07-05T14:15:08Z</time>
      </trkpt>
      <trkpt lat="42.29442" lon="-0.7286383">
        <time>2022-07-05T14:15:11Z</time>
      </trkpt>
      <trkpt lat="42.29438" lon="-0.72856426">
        <time>2022-07-05T14:15:14Z</time>
      </trkpt>
      <trkpt lat="42.294346" lon="-0.7284916">
        <time>2022-07-05T14:15:17Z</time>
      </trkpt>
      <trkpt lat="42.294308" lon="-0.72841865">
        <time>2022-07-05T14:15:20Z</time>
      </trkpt>
      <trkpt lat="42.294277" lon="-0.7283666">
        <time>2022-07-05T14:15:22Z</time>
      </trkpt>
      <trkpt lat="42.29424" lon="-0.7282896">
        <time>2022-07-05T14:15:25Z</time>
      </trkpt>
      <trkpt lat="42.294205" lon="-0.7282153">
        <time>2022-07-05T14:15:28Z</time>
      </trkpt>
      <trkpt lat="42.294167" lon="-0.72814226">
        <time>2022-07-05T14:15:31Z</time>
      </trkpt>
      <trkpt lat="42.29413" lon="-0.72807527">
        <time>2022-07-05T14:15:34Z</time>
      </trkpt>
      <trkpt lat="42.294094" lon="-0.7280083">
        <time>2022-07-05T14:15:37Z</time>
      </trkpt>
      <trkpt lat="42.29406" lon="-0.7279413">
        <time>2022-07-05T14:15:40Z</time>
      </trkpt>
      <trkpt lat="42.294025" lon="-0.72787094">
        <time>2022-07-05T14:15:43Z</time>
      </trkpt>
      <trkpt lat="42.29399" lon="-0.7278016">
        <time>2022-07-05T14:15:46Z</time>
      </trkpt>
      <trkpt lat="42.293945" lon="-0.72771263">
        <time>2022-07-05T14:15:50Z</time>
      </trkpt>
      <trkpt lat="42.293915" lon="-0.727645">
        <time>2022-07-05T14:15:53Z</time>
      </trkpt>
      <trkpt lat="42.29388" lon="-0.7275783">
        <time>2022-07-05T14:15:56Z</time>
      </trkpt>
      <trkpt lat="42.293842" lon="-0.72751063">
        <time>2022-07-05T14:15:59Z</time>
      </trkpt>
      <trkpt lat="42.293804" lon="-0.727443">
        <time>2022-07-05T14:16:02Z</time>
      </trkpt>
      <trkpt lat="42.29377" lon="-0.7273753">
        <time>2022-07-05T14:16:05Z</time>
      </trkpt>
      <trkpt lat="42.293736" lon="-0.72731">
        <time>2022-07-05T14:16:08Z</time>
      </trkpt>
      <trkpt lat="42.2937" lon="-0.7272407">
        <time>2022-07-05T14:16:11Z</time>
      </trkpt>
      <trkpt lat="42.29367" lon="-0.7271733">
        <time>2022-07-05T14:16:14Z</time>
      </trkpt>
      <trkpt lat="42.293648" lon="-0.7271">
        <time>2022-07-05T14:16:17Z</time>
      </trkpt>
      <trkpt lat="42.293617" lon="-0.7270334">
        <time>2022-07-05T14:16:20Z</time>
      </trkpt>
      <trkpt lat="42.293583" lon="-0.72696334">
        <time>2022-07-05T14:16:23Z</time>
      </trkpt>
      <trkpt lat="42.293556" lon="-0.726894">
        <time>2022-07-05T14:16:26Z</time>
      </trkpt>
      <trkpt lat="42.293526" lon="-0.72682637">
        <time>2022-07-05T14:16:29Z</time>
      </trkpt>
      <trkpt lat="42.293495" lon="-0.7267567">
        <time>2022-07-05T14:16:32Z</time>
      </trkpt>
      <trkpt lat="42.29347" lon="-0.72669035">
        <time>2022-07-05T14:16:35Z</time>
      </trkpt>
      <trkpt lat="42.29344" lon="-0.72661805">
        <time>2022-07-05T14:16:38Z</time>
      </trkpt>
      <trkpt lat="42.29342" lon="-0.7265427">
        <time>2022-07-05T14:16:41Z</time>
      </trkpt>
      <trkpt lat="42.293396" lon="-0.72647136">
        <time>2022-07-05T14:16:44Z</time>
      </trkpt>
      <trkpt lat="42.29337" lon="-0.7263997">
        <time>2022-07-05T14:16:47Z</time>
      </trkpt>
      <trkpt lat="42.293335" lon="-0.7263281">
        <time>2022-07-05T14:16:50Z</time>
      </trkpt>
      <trkpt lat="42.29331" lon="-0.7262554">
        <time>2022-07-05T14:16:53Z</time>
      </trkpt>
      <trkpt lat="42.29329" lon="-0.72618073">
        <time>2022-07-05T14:16:56Z</time>
      </trkpt>
      <trkpt lat="42.293262" lon="-0.72610873">
        <time>2022-07-05T14:16:59Z</time>
      </trkpt>
      <trkpt lat="42.29324" lon="-0.7260344">
        <time>2022-07-05T14:17:02Z</time>
      </trkpt>
      <trkpt lat="42.293213" lon="-0.7259651">
        <time>2022-07-05T14:17:05Z</time>
      </trkpt>
      <trkpt lat="42.293182" lon="-0.72589105">
        <time>2022-07-05T14:17:08Z</time>
      </trkpt>
      <trkpt lat="42.29315" lon="-0.72581744">
        <time>2022-07-05T14:17:11Z</time>
      </trkpt>
      <trkpt lat="42.293125" lon="-0.7257431">
        <time>2022-07-05T14:17:14Z</time>
      </trkpt>
      <trkpt lat="42.2931" lon="-0.7256674">
        <time>2022-07-05T14:17:17Z</time>
      </trkpt>
      <trkpt lat="42.29308" lon="-0.7255904">
        <time>2022-07-05T14:17:20Z</time>
      </trkpt>
      <trkpt lat="42.29306" lon="-0.72551376">
        <time>2022-07-05T14:17:23Z</time>
      </trkpt>
      <trkpt lat="42.29304" lon="-0.72543645">
        <time>2022-07-05T14:17:26Z</time>
      </trkpt>
      <trkpt lat="42.29302" lon="-0.72536045">
        <time>2022-07-05T14:17:29Z</time>
      </trkpt>
      <trkpt lat="42.292984" lon="-0.7252888">
        <time>2022-07-05T14:17:32Z</time>
      </trkpt>
      <trkpt lat="42.292957" lon="-0.7252181">
        <time>2022-07-05T14:17:35Z</time>
      </trkpt>
      <trkpt lat="42.29294" lon="-0.7251465">
        <time>2022-07-05T14:17:38Z</time>
      </trkpt>
      <trkpt lat="42.292915" lon="-0.7250705">
        <time>2022-07-05T14:17:41Z</time>
      </trkpt>
      <trkpt lat="42.29289" lon="-0.72499216">
        <time>2022-07-05T14:17:44Z</time>
      </trkpt>
      <trkpt lat="42.292866" lon="-0.7249171">
        <time>2022-07-05T14:17:47Z</time>
      </trkpt>
      <trkpt lat="42.292847" lon="-0.72483915">
        <time>2022-07-05T14:17:50Z</time>
      </trkpt>
      <trkpt lat="42.292816" lon="-0.72474515">
        <time>2022-07-05T14:17:54Z</time>
      </trkpt>
      <trkpt lat="42.292797" lon="-0.7246751">
        <time>2022-07-05T14:17:57Z</time>
      </trkpt>
      <trkpt lat="42.292778" lon="-0.72460014">
        <time>2022-07-05T14:18:00Z</time>
      </trkpt>
      <trkpt lat="42.29275" lon="-0.72452414">
        <time>2022-07-05T14:18:03Z</time>
      </trkpt>
      <trkpt lat="42.292725" lon="-0.7244501">
        <time>2022-07-05T14:18:06Z</time>
      </trkpt>
      <trkpt lat="42.2927" lon="-0.7243788">
        <time>2022-07-05T14:18:09Z</time>
      </trkpt>
      <trkpt lat="42.29268" lon="-0.7243078">
        <time>2022-07-05T14:18:12Z</time>
      </trkpt>
      <trkpt lat="42.292656" lon="-0.72423315">
        <time>2022-07-05T14:18:15Z</time>
      </trkpt>
      <trkpt lat="42.292633" lon="-0.72415715">
        <time>2022-07-05T14:18:18Z</time>
      </trkpt>
      <trkpt lat="42.292603" lon="-0.72408247">
        <time>2022-07-05T14:18:21Z</time>
      </trkpt>
      <trkpt lat="42.292587" lon="-0.7240075">
        <time>2022-07-05T14:18:24Z</time>
      </trkpt>
      <trkpt lat="42.29257" lon="-0.72393614">
        <time>2022-07-05T14:18:27Z</time>
      </trkpt>
      <trkpt lat="42.292545" lon="-0.7238608">
        <time>2022-07-05T14:18:30Z</time>
      </trkpt>
      <trkpt lat="42.292522" lon="-0.7237835">
        <time>2022-07-05T14:18:33Z</time>
      </trkpt>
      <trkpt lat="42.292503" lon="-0.72370714">
        <time>2022-07-05T14:18:36Z</time>
      </trkpt>
      <trkpt lat="42.292484" lon="-0.7236315">
        <time>2022-07-05T14:18:39Z</time>
      </trkpt>
      <trkpt lat="42.292458" lon="-0.72355783">
        <time>2022-07-05T14:18:42Z</time>
      </trkpt>
      <trkpt lat="42.292435" lon="-0.72348887">
        <time>2022-07-05T14:18:45Z</time>
      </trkpt>
      <trkpt lat="42.29241" lon="-0.7234152">
        <time>2022-07-05T14:18:48Z</time>
      </trkpt>
      <trkpt lat="42.292397" lon="-0.72334516">
        <time>2022-07-05T14:18:51Z</time>
      </trkpt>
      <trkpt lat="42.29238" lon="-0.7232762">
        <time>2022-07-05T14:18:54Z</time>
      </trkpt>
      <trkpt lat="42.292355" lon="-0.7231835">
        <time>2022-07-05T14:18:58Z</time>
      </trkpt>
      <trkpt lat="42.292336" lon="-0.7231145">
        <time>2022-07-05T14:19:01Z</time>
      </trkpt>
      <trkpt lat="42.292316" lon="-0.72304016">
        <time>2022-07-05T14:19:04Z</time>
      </trkpt>
      <trkpt lat="42.292297" lon="-0.72296685">
        <time>2022-07-05T14:19:07Z</time>
      </trkpt>
      <trkpt lat="42.292274" lon="-0.7228925">
        <time>2022-07-05T14:19:10Z</time>
      </trkpt>
      <trkpt lat="42.292248" lon="-0.72282284">
        <time>2022-07-05T14:19:13Z</time>
      </trkpt>
      <trkpt lat="42.292225" lon="-0.7227535">
        <time>2022-07-05T14:19:16Z</time>
      </trkpt>
      <trkpt lat="42.292206" lon="-0.7226855">
        <time>2022-07-05T14:19:19Z</time>
      </trkpt>
      <trkpt lat="42.29218" lon="-0.7226112">
        <time>2022-07-05T14:19:22Z</time>
      </trkpt>
      <trkpt lat="42.292152" lon="-0.72253686">
        <time>2022-07-05T14:19:25Z</time>
      </trkpt>
      <trkpt lat="42.292133" lon="-0.7224642">
        <time>2022-07-05T14:19:28Z</time>
      </trkpt>
      <trkpt lat="42.292114" lon="-0.72238654">
        <time>2022-07-05T14:19:31Z</time>
      </trkpt>
      <trkpt lat="42.29209" lon="-0.7223082">
        <time>2022-07-05T14:19:34Z</time>
      </trkpt>
      <trkpt lat="42.29207" lon="-0.7222312">
        <time>2022-07-05T14:19:37Z</time>
      </trkpt>
      <trkpt lat="42.292046" lon="-0.72215223">
        <time>2022-07-05T14:19:40Z</time>
      </trkpt>
      <trkpt lat="42.29202" lon="-0.72207755">
        <time>2022-07-05T14:19:43Z</time>
      </trkpt>
      <trkpt lat="42.291996" lon="-0.7220046">
        <time>2022-07-05T14:19:46Z</time>
      </trkpt>
      <trkpt lat="42.291973" lon="-0.7219312">
        <time>2022-07-05T14:19:49Z</time>
      </trkpt>
      <trkpt lat="42.291954" lon="-0.7218549">
        <time>2022-07-05T14:19:52Z</time>
      </trkpt>
      <trkpt lat="42.29194" lon="-0.7217859">
        <time>2022-07-05T14:19:55Z</time>
      </trkpt>
      <trkpt lat="42.29192" lon="-0.7217136">
        <time>2022-07-05T14:19:58Z</time>
      </trkpt>
      <trkpt lat="42.2919" lon="-0.7216429">
        <time>2022-07-05T14:20:01Z</time>
      </trkpt>
      <trkpt lat="42.29188" lon="-0.7215696">
        <time>2022-07-05T14:20:04Z</time>
      </trkpt>
      <trkpt lat="42.29186" lon="-0.72149724">
        <time>2022-07-05T14:20:07Z</time>
      </trkpt>
      <trkpt lat="42.29184" lon="-0.72142893">
        <time>2022-07-05T14:20:10Z</time>
      </trkpt>
      <trkpt lat="42.291817" lon="-0.7213573">
        <time>2022-07-05T14:20:13Z</time>
      </trkpt>
      <trkpt lat="42.291798" lon="-0.72128695">
        <time>2022-07-05T14:20:16Z</time>
      </trkpt>
      <trkpt lat="42.291775" lon="-0.7212126">
        <time>2022-07-05T14:20:19Z</time>
      </trkpt>
      <trkpt lat="42.29175" lon="-0.7211433">
        <time>2022-07-05T14:20:22Z</time>
      </trkpt>
      <trkpt lat="42.29173" lon="-0.72106564">
        <time>2022-07-05T14:20:25Z</time>
      </trkpt>
      <trkpt lat="42.291706" lon="-0.720989">
        <time>2022-07-05T14:20:28Z</time>
      </trkpt>
      <trkpt lat="42.291683" lon="-0.72091365">
        <time>2022-07-05T14:20:31Z</time>
      </trkpt>
      <trkpt lat="42.291664" lon="-0.7208423">
        <time>2022-07-05T14:20:34Z</time>
      </trkpt>
      <trkpt lat="42.29164" lon="-0.72076964">
        <time>2022-07-05T14:20:37Z</time>
      </trkpt>
      <trkpt lat="42.291622" lon="-0.72069496">
        <time>2022-07-05T14:20:40Z</time>
      </trkpt>
      <trkpt lat="42.291603" lon="-0.72062">
        <time>2022-07-05T14:20:43Z</time>
      </trkpt>
      <trkpt lat="42.291584" lon="-0.7205463">
        <time>2022-07-05T14:20:46Z</time>
      </trkpt>
      <trkpt lat="42.291573" lon="-0.7204703">
        <time>2022-07-05T14:20:49Z</time>
      </trkpt>
      <trkpt lat="42.29156" lon="-0.7203957">
        <time>2022-07-05T14:20:52Z</time>
      </trkpt>
      <trkpt lat="42.29155" lon="-0.72031564">
        <time>2022-07-05T14:20:55Z</time>
      </trkpt>
      <trkpt lat="42.291534" lon="-0.7202373">
        <time>2022-07-05T14:20:58Z</time>
      </trkpt>
      <trkpt lat="42.29152" lon="-0.7201563">
        <time>2022-07-05T14:21:01Z</time>
      </trkpt>
      <trkpt lat="42.291508" lon="-0.720077">
        <time>2022-07-05T14:21:04Z</time>
      </trkpt>
      <trkpt lat="42.2915" lon="-0.71999866">
        <time>2022-07-05T14:21:07Z</time>
      </trkpt>
      <trkpt lat="42.29149" lon="-0.71991634">
        <time>2022-07-05T14:21:10Z</time>
      </trkpt>
      <trkpt lat="42.291473" lon="-0.71983534">
        <time>2022-07-05T14:21:13Z</time>
      </trkpt>
      <trkpt lat="42.291466" lon="-0.719752">
        <time>2022-07-05T14:21:16Z</time>
      </trkpt>
      <trkpt lat="42.291454" lon="-0.7196723">
        <time>2022-07-05T14:21:19Z</time>
      </trkpt>
      <trkpt lat="42.291435" lon="-0.7195873">
        <time>2022-07-05T14:21:22Z</time>
      </trkpt>
      <trkpt lat="42.291416" lon="-0.7195014">
        <time>2022-07-05T14:21:25Z</time>
      </trkpt>
      <trkpt lat="42.29141" lon="-0.71941566">
        <time>2022-07-05T14:21:28Z</time>
      </trkpt>
      <trkpt lat="42.2914" lon="-0.71932936">
        <time>2022-07-05T14:21:31Z</time>
      </trkpt>
      <trkpt lat="42.29139" lon="-0.71923935">
        <time>2022-07-05T14:21:34Z</time>
      </trkpt>
      <trkpt lat="42.291386" lon="-0.7191447">
        <time>2022-07-05T14:21:37Z</time>
      </trkpt>
      <trkpt lat="42.29138" lon="-0.71908206">
        <time>2022-07-05T14:21:39Z</time>
      </trkpt>
      <trkpt lat="42.29137" lon="-0.7189937">
        <time>2022-07-05T14:21:42Z</time>
      </trkpt>
      <trkpt lat="42.291355" lon="-0.71890205">
        <time>2022-07-05T14:21:45Z</time>
      </trkpt>
      <trkpt lat="42.291332" lon="-0.7188044">
        <time>2022-07-05T14:21:48Z</time>
      </trkpt>
      <trkpt lat="42.291313" lon="-0.7187424">
        <time>2022-07-05T14:21:50Z</time>
      </trkpt>
      <trkpt lat="42.29129" lon="-0.7186424">
        <time>2022-07-05T14:21:53Z</time>
      </trkpt>
      <trkpt lat="42.291275" lon="-0.71857405">
        <time>2022-07-05T14:21:55Z</time>
      </trkpt>
      <trkpt lat="42.291256" lon="-0.71850073">
        <time>2022-07-05T14:21:57Z</time>
      </trkpt>
      <trkpt lat="42.29124" lon="-0.71843076">
        <time>2022-07-05T14:21:59Z</time>
      </trkpt>
      <trkpt lat="42.291218" lon="-0.71835905">
        <time>2022-07-05T14:22:01Z</time>
      </trkpt>
      <trkpt lat="42.29119" lon="-0.7182771">
        <time>2022-07-05T14:22:03Z</time>
      </trkpt>
      <trkpt lat="42.291164" lon="-0.7182001">
        <time>2022-07-05T14:22:05Z</time>
      </trkpt>
      <trkpt lat="42.291134" lon="-0.7181244">
        <time>2022-07-05T14:22:07Z</time>
      </trkpt>
      <trkpt lat="42.2911" lon="-0.7180444">
        <time>2022-07-05T14:22:09Z</time>
      </trkpt>
      <trkpt lat="42.29106" lon="-0.7179644">
        <time>2022-07-05T14:22:11Z</time>
      </trkpt>
      <trkpt lat="42.291016" lon="-0.7178804">
        <time>2022-07-05T14:22:13Z</time>
      </trkpt>
      <trkpt lat="42.29097" lon="-0.7177931">
        <time>2022-07-05T14:22:15Z</time>
      </trkpt>
      <trkpt lat="42.29092" lon="-0.7177101">
        <time>2022-07-05T14:22:17Z</time>
      </trkpt>
      <trkpt lat="42.290863" lon="-0.71762073">
        <time>2022-07-05T14:22:19Z</time>
      </trkpt>
      <trkpt lat="42.290806" lon="-0.71752745">
        <time>2022-07-05T14:22:21Z</time>
      </trkpt>
      <trkpt lat="42.29075" lon="-0.71744174">
        <time>2022-07-05T14:22:23Z</time>
      </trkpt>
      <trkpt lat="42.290688" lon="-0.7173461">
        <time>2022-07-05T14:22:25Z</time>
      </trkpt>
      <trkpt lat="42.290627" lon="-0.7172561">
        <time>2022-07-05T14:22:27Z</time>
      </trkpt>
      <trkpt lat="42.290558" lon="-0.71715945">
        <time>2022-07-05T14:22:29Z</time>
      </trkpt>
      <trkpt lat="42.29049" lon="-0.7170571">
        <time>2022-07-05T14:22:31Z</time>
      </trkpt>
      <trkpt lat="42.290455" lon="-0.71700877">
        <time>2022-07-05T14:22:32Z</time>
      </trkpt>
      <trkpt lat="42.290386" lon="-0.7169064">
        <time>2022-07-05T14:22:34Z</time>
      </trkpt>
      <trkpt lat="42.290344" lon="-0.7168524">
        <time>2022-07-05T14:22:35Z</time>
      </trkpt>
      <trkpt lat="42.290306" lon="-0.7167975">
        <time>2022-07-05T14:22:36Z</time>
      </trkpt>
      <trkpt lat="42.290268" lon="-0.71674114">
        <time>2022-07-05T14:22:37Z</time>
      </trkpt>
      <trkpt lat="42.290226" lon="-0.71668345">
        <time>2022-07-05T14:22:38Z</time>
      </trkpt>
      <trkpt lat="42.290188" lon="-0.71662414">
        <time>2022-07-05T14:22:39Z</time>
      </trkpt>
      <trkpt lat="42.290146" lon="-0.7165631">
        <time>2022-07-05T14:22:40Z</time>
      </trkpt>
      <trkpt lat="42.290104" lon="-0.7165018">
        <time>2022-07-05T14:22:41Z</time>
      </trkpt>
      <trkpt lat="42.290062" lon="-0.7164398">
        <time>2022-07-05T14:22:42Z</time>
      </trkpt>
      <trkpt lat="42.290024" lon="-0.7163808">
        <time>2022-07-05T14:22:43Z</time>
      </trkpt>
      <trkpt lat="42.28998" lon="-0.71631914">
        <time>2022-07-05T14:22:44Z</time>
      </trkpt>
      <trkpt lat="42.28994" lon="-0.7162545">
        <time>2022-07-05T14:22:45Z</time>
      </trkpt>
      <trkpt lat="42.289894" lon="-0.7161915">
        <time>2022-07-05T14:22:46Z</time>
      </trkpt>
      <trkpt lat="42.289852" lon="-0.71612984">
        <time>2022-07-05T14:22:47Z</time>
      </trkpt>
      <trkpt lat="42.28981" lon="-0.7160685">
        <time>2022-07-05T14:22:48Z</time>
      </trkpt>
      <trkpt lat="42.289772" lon="-0.7160125">
        <time>2022-07-05T14:22:49Z</time>
      </trkpt>
      <trkpt lat="42.289734" lon="-0.7159568">
        <time>2022-07-05T14:22:50Z</time>
      </trkpt>
      <trkpt lat="42.289692" lon="-0.71589786">
        <time>2022-07-05T14:22:51Z</time>
      </trkpt>
      <trkpt lat="42.28965" lon="-0.7158395">
        <time>2022-07-05T14:22:52Z</time>
      </trkpt>
      <trkpt lat="42.28961" lon="-0.7157825">
        <time>2022-07-05T14:22:53Z</time>
      </trkpt>
      <trkpt lat="42.289577" lon="-0.7157302">
        <time>2022-07-05T14:22:54Z</time>
      </trkpt>
      <trkpt lat="42.28954" lon="-0.71567816">
        <time>2022-07-05T14:22:55Z</time>
      </trkpt>
      <trkpt lat="42.2895" lon="-0.71562284">
        <time>2022-07-05T14:22:56Z</time>
      </trkpt>
      <trkpt lat="42.289467" lon="-0.71556985">
        <time>2022-07-05T14:22:57Z</time>
      </trkpt>
      <trkpt lat="42.289433" lon="-0.7155178">
        <time>2022-07-05T14:22:58Z</time>
      </trkpt>
      <trkpt lat="42.2894" lon="-0.71546984">
        <time>2022-07-05T14:22:59Z</time>
      </trkpt>
      <trkpt lat="42.28933" lon="-0.71536887">
        <time>2022-07-05T14:23:01Z</time>
      </trkpt>
      <trkpt lat="42.289295" lon="-0.71531886">
        <time>2022-07-05T14:23:02Z</time>
      </trkpt>
      <trkpt lat="42.28926" lon="-0.7152695">
        <time>2022-07-05T14:23:03Z</time>
      </trkpt>
      <trkpt lat="42.289196" lon="-0.7151755">
        <time>2022-07-05T14:23:05Z</time>
      </trkpt>
      <trkpt lat="42.28913" lon="-0.7150762">
        <time>2022-07-05T14:23:07Z</time>
      </trkpt>
      <trkpt lat="42.289097" lon="-0.7150265">
        <time>2022-07-05T14:23:08Z</time>
      </trkpt>
      <trkpt lat="42.289062" lon="-0.7149772">
        <time>2022-07-05T14:23:09Z</time>
      </trkpt>
      <trkpt lat="42.288956" lon="-0.7148309">
        <time>2022-07-05T14:23:12Z</time>
      </trkpt>
      <trkpt lat="42.28892" lon="-0.7147792">
        <time>2022-07-05T14:23:13Z</time>
      </trkpt>
      <trkpt lat="42.288883" lon="-0.7147262">
        <time>2022-07-05T14:23:14Z</time>
      </trkpt>
      <trkpt lat="42.28885" lon="-0.7146772">
        <time>2022-07-05T14:23:15Z</time>
      </trkpt>
      <trkpt lat="42.28878" lon="-0.7145749">
        <time>2022-07-05T14:23:17Z</time>
      </trkpt>
      <trkpt lat="42.288742" lon="-0.71452254">
        <time>2022-07-05T14:23:18Z</time>
      </trkpt>
      <trkpt lat="42.288708" lon="-0.7144702">
        <time>2022-07-05T14:23:19Z</time>
      </trkpt>
      <trkpt lat="42.28864" lon="-0.71436787">
        <time>2022-07-05T14:23:21Z</time>
      </trkpt>
      <trkpt lat="42.288605" lon="-0.71431786">
        <time>2022-07-05T14:23:22Z</time>
      </trkpt>
      <trkpt lat="42.288532" lon="-0.71421087">
        <time>2022-07-05T14:23:24Z</time>
      </trkpt>
      <trkpt lat="42.288498" lon="-0.71415854">
        <time>2022-07-05T14:23:25Z</time>
      </trkpt>
      <trkpt lat="42.288464" lon="-0.7141099">
        <time>2022-07-05T14:23:26Z</time>
      </trkpt>
      <trkpt lat="42.288395" lon="-0.7140082">
        <time>2022-07-05T14:23:28Z</time>
      </trkpt>
      <trkpt lat="42.28832" lon="-0.7139016">
        <time>2022-07-05T14:23:30Z</time>
      </trkpt>
      <trkpt lat="42.28829" lon="-0.7138526">
        <time>2022-07-05T14:23:31Z</time>
      </trkpt>
      <trkpt lat="42.288254" lon="-0.7138039">
        <time>2022-07-05T14:23:32Z</time>
      </trkpt>
      <trkpt lat="42.288185" lon="-0.71370655">
        <time>2022-07-05T14:23:34Z</time>
      </trkpt>
      <trkpt lat="42.288116" lon="-0.71361125">
        <time>2022-07-05T14:23:36Z</time>
      </trkpt>
      <trkpt lat="42.28806" lon="-0.7135266">
        <time>2022-07-05T14:23:38Z</time>
      </trkpt>
      <trkpt lat="42.288006" lon="-0.71344495">
        <time>2022-07-05T14:23:40Z</time>
      </trkpt>
      <trkpt lat="42.287952" lon="-0.7133683">
        <time>2022-07-05T14:23:42Z</time>
      </trkpt>
      <trkpt lat="42.287907" lon="-0.71329594">
        <time>2022-07-05T14:23:44Z</time>
      </trkpt>
      <trkpt lat="42.287857" lon="-0.7132276">
        <time>2022-07-05T14:23:46Z</time>
      </trkpt>
      <trkpt lat="42.287815" lon="-0.71316195">
        <time>2022-07-05T14:23:48Z</time>
      </trkpt>
      <trkpt lat="42.287777" lon="-0.71309865">
        <time>2022-07-05T14:23:50Z</time>
      </trkpt>
      <trkpt lat="42.287735" lon="-0.71303827">
        <time>2022-07-05T14:23:52Z</time>
      </trkpt>
      <trkpt lat="42.287693" lon="-0.7129786">
        <time>2022-07-05T14:23:54Z</time>
      </trkpt>
      <trkpt lat="42.287655" lon="-0.7129183">
        <time>2022-07-05T14:23:56Z</time>
      </trkpt>
      <trkpt lat="42.28762" lon="-0.71285963">
        <time>2022-07-05T14:23:58Z</time>
      </trkpt>
      <trkpt lat="42.28758" lon="-0.7128033">
        <time>2022-07-05T14:24:00Z</time>
      </trkpt>
      <trkpt lat="42.28754" lon="-0.7127483">
        <time>2022-07-05T14:24:02Z</time>
      </trkpt>
      <trkpt lat="42.287502" lon="-0.712691">
        <time>2022-07-05T14:24:04Z</time>
      </trkpt>
      <trkpt lat="42.287468" lon="-0.712632">
        <time>2022-07-05T14:24:06Z</time>
      </trkpt>
      <trkpt lat="42.287426" lon="-0.712574">
        <time>2022-07-05T14:24:08Z</time>
      </trkpt>
      <trkpt lat="42.28739" lon="-0.71252096">
        <time>2022-07-05T14:24:10Z</time>
      </trkpt>
      <trkpt lat="42.287354" lon="-0.712466">
        <time>2022-07-05T14:24:12Z</time>
      </trkpt>
      <trkpt lat="42.287315" lon="-0.71241164">
        <time>2022-07-05T14:24:14Z</time>
      </trkpt>
      <trkpt lat="42.287277" lon="-0.7123583">
        <time>2022-07-05T14:24:16Z</time>
      </trkpt>
      <trkpt lat="42.28724" lon="-0.712301">
        <time>2022-07-05T14:24:18Z</time>
      </trkpt>
      <trkpt lat="42.2872" lon="-0.71224636">
        <time>2022-07-05T14:24:20Z</time>
      </trkpt>
      <trkpt lat="42.287144" lon="-0.71216834">
        <time>2022-07-05T14:24:23Z</time>
      </trkpt>
      <trkpt lat="42.287106" lon="-0.7121123">
        <time>2022-07-05T14:24:25Z</time>
      </trkpt>
      <trkpt lat="42.287067" lon="-0.71205765">
        <time>2022-07-05T14:24:27Z</time>
      </trkpt>
      <trkpt lat="42.28703" lon="-0.7120017">
        <time>2022-07-05T14:24:29Z</time>
      </trkpt>
      <trkpt lat="42.28699" lon="-0.7119437">
        <time>2022-07-05T14:24:31Z</time>
      </trkpt>
      <trkpt lat="42.28695" lon="-0.71188337">
        <time>2022-07-05T14:24:33Z</time>
      </trkpt>
      <trkpt lat="42.28691" lon="-0.7118227">
        <time>2022-07-05T14:24:35Z</time>
      </trkpt>
      <trkpt lat="42.286873" lon="-0.71176237">
        <time>2022-07-05T14:24:37Z</time>
      </trkpt>
      <trkpt lat="42.286835" lon="-0.71169937">
        <time>2022-07-05T14:24:39Z</time>
      </trkpt>
      <trkpt lat="42.2868" lon="-0.71163803">
        <time>2022-07-05T14:24:41Z</time>
      </trkpt>
      <trkpt lat="42.286762" lon="-0.711573">
        <time>2022-07-05T14:24:43Z</time>
      </trkpt>
      <trkpt lat="42.286724" lon="-0.7115034">
        <time>2022-07-05T14:24:45Z</time>
      </trkpt>
      <trkpt lat="42.28669" lon="-0.7114327">
        <time>2022-07-05T14:24:47Z</time>
      </trkpt>
      <trkpt lat="42.28665" lon="-0.71135604">
        <time>2022-07-05T14:24:49Z</time>
      </trkpt>
      <trkpt lat="42.28661" lon="-0.7112754">
        <time>2022-07-05T14:24:51Z</time>
      </trkpt>
      <trkpt lat="42.286568" lon="-0.7111907">
        <time>2022-07-05T14:24:53Z</time>
      </trkpt>
      <trkpt lat="42.286526" lon="-0.71109974">
        <time>2022-07-05T14:24:55Z</time>
      </trkpt>
      <trkpt lat="42.28648" lon="-0.71100336">
        <time>2022-07-05T14:24:57Z</time>
      </trkpt>
      <trkpt lat="42.286438" lon="-0.71090204">
        <time>2022-07-05T14:24:59Z</time>
      </trkpt>
      <trkpt lat="42.286392" lon="-0.71079004">
        <time>2022-07-05T14:25:01Z</time>
      </trkpt>
      <trkpt lat="42.286346" lon="-0.7106811">
        <time>2022-07-05T14:25:03Z</time>
      </trkpt>
      <trkpt lat="42.286297" lon="-0.71056306">
        <time>2022-07-05T14:25:05Z</time>
      </trkpt>
      <trkpt lat="42.286243" lon="-0.7104337">
        <time>2022-07-05T14:25:07Z</time>
      </trkpt>
      <trkpt lat="42.286217" lon="-0.7103664">
        <time>2022-07-05T14:25:08Z</time>
      </trkpt>
      <trkpt lat="42.28619" lon="-0.71029705">
        <time>2022-07-05T14:25:09Z</time>
      </trkpt>
      <trkpt lat="42.28616" lon="-0.71022576">
        <time>2022-07-05T14:25:10Z</time>
      </trkpt>
      <trkpt lat="42.286133" lon="-0.7101524">
        <time>2022-07-05T14:25:11Z</time>
      </trkpt>
      <trkpt lat="42.286102" lon="-0.7100761">
        <time>2022-07-05T14:25:12Z</time>
      </trkpt>
      <trkpt lat="42.28607" lon="-0.7099981">
        <time>2022-07-05T14:25:13Z</time>
      </trkpt>
      <trkpt lat="42.286037" lon="-0.70991844">
        <time>2022-07-05T14:25:14Z</time>
      </trkpt>
      <trkpt lat="42.286007" lon="-0.70983577">
        <time>2022-07-05T14:25:15Z</time>
      </trkpt>
      <trkpt lat="42.285973" lon="-0.7097501">
        <time>2022-07-05T14:25:16Z</time>
      </trkpt>
      <trkpt lat="42.28594" lon="-0.7096631">
        <time>2022-07-05T14:25:17Z</time>
      </trkpt>
      <trkpt lat="42.285904" lon="-0.7095754">
        <time>2022-07-05T14:25:18Z</time>
      </trkpt>
      <trkpt lat="42.28587" lon="-0.7094868">
        <time>2022-07-05T14:25:19Z</time>
      </trkpt>
      <trkpt lat="42.285835" lon="-0.7093964">
        <time>2022-07-05T14:25:20Z</time>
      </trkpt>
      <trkpt lat="42.285797" lon="-0.70930576">
        <time>2022-07-05T14:25:21Z</time>
      </trkpt>
      <trkpt lat="42.285763" lon="-0.70921314">
        <time>2022-07-05T14:25:22Z</time>
      </trkpt>
      <trkpt lat="42.28573" lon="-0.70912015">
        <time>2022-07-05T14:25:23Z</time>
      </trkpt>
      <trkpt lat="42.285656" lon="-0.7089341">
        <time>2022-07-05T14:25:25Z</time>
      </trkpt>
      <trkpt lat="42.285618" lon="-0.7088405">
        <time>2022-07-05T14:25:26Z</time>
      </trkpt>
      <trkpt lat="42.28558" lon="-0.70874584">
        <time>2022-07-05T14:25:27Z</time>
      </trkpt>
      <trkpt lat="42.28554" lon="-0.7086498">
        <time>2022-07-05T14:25:28Z</time>
      </trkpt>
      <trkpt lat="42.2855" lon="-0.7085521">
        <time>2022-07-05T14:25:29Z</time>
      </trkpt>
      <trkpt lat="42.285465" lon="-0.70846015">
        <time>2022-07-05T14:25:30Z</time>
      </trkpt>
      <trkpt lat="42.285423" lon="-0.70835847">
        <time>2022-07-05T14:25:31Z</time>
      </trkpt>
      <trkpt lat="42.285385" lon="-0.7082562">
        <time>2022-07-05T14:25:32Z</time>
      </trkpt>
      <trkpt lat="42.285343" lon="-0.7081535">
        <time>2022-07-05T14:25:33Z</time>
      </trkpt>
      <trkpt lat="42.285305" lon="-0.70804983">
        <time>2022-07-05T14:25:34Z</time>
      </trkpt>
      <trkpt lat="42.285263" lon="-0.7079448">
        <time>2022-07-05T14:25:35Z</time>
      </trkpt>
      <trkpt lat="42.28522" lon="-0.7078395">
        <time>2022-07-05T14:25:36Z</time>
      </trkpt>
      <trkpt lat="42.28518" lon="-0.70773417">
        <time>2022-07-05T14:25:37Z</time>
      </trkpt>
      <trkpt lat="42.28514" lon="-0.7076295">
        <time>2022-07-05T14:25:38Z</time>
      </trkpt>
      <trkpt lat="42.2851" lon="-0.7075242">
        <time>2022-07-05T14:25:39Z</time>
      </trkpt>
      <trkpt lat="42.285057" lon="-0.7074202">
        <time>2022-07-05T14:25:40Z</time>
      </trkpt>
      <trkpt lat="42.285015" lon="-0.7073169">
        <time>2022-07-05T14:25:41Z</time>
      </trkpt>
      <trkpt lat="42.284977" lon="-0.70721453">
        <time>2022-07-05T14:25:42Z</time>
      </trkpt>
      <trkpt lat="42.284935" lon="-0.7071142">
        <time>2022-07-05T14:25:43Z</time>
      </trkpt>
      <trkpt lat="42.284897" lon="-0.7070155">
        <time>2022-07-05T14:25:44Z</time>
      </trkpt>
      <trkpt lat="42.28486" lon="-0.70691824">
        <time>2022-07-05T14:25:45Z</time>
      </trkpt>
      <trkpt lat="42.284824" lon="-0.70682186">
        <time>2022-07-05T14:25:46Z</time>
      </trkpt>
      <trkpt lat="42.284786" lon="-0.7067272">
        <time>2022-07-05T14:25:47Z</time>
      </trkpt>
      <trkpt lat="42.284748" lon="-0.70663357">
        <time>2022-07-05T14:25:48Z</time>
      </trkpt>
      <trkpt lat="42.284714" lon="-0.70654124">
        <time>2022-07-05T14:25:49Z</time>
      </trkpt>
      <trkpt lat="42.28468" lon="-0.7064502">
        <time>2022-07-05T14:25:50Z</time>
      </trkpt>
      <trkpt lat="42.284645" lon="-0.7063609">
        <time>2022-07-05T14:25:51Z</time>
      </trkpt>
      <trkpt lat="42.28461" lon="-0.70627326">
        <time>2022-07-05T14:25:52Z</time>
      </trkpt>
      <trkpt lat="42.284576" lon="-0.7061876">
        <time>2022-07-05T14:25:53Z</time>
      </trkpt>
      <trkpt lat="42.284546" lon="-0.70610356">
        <time>2022-07-05T14:25:54Z</time>
      </trkpt>
      <trkpt lat="42.284515" lon="-0.70602226">
        <time>2022-07-05T14:25:55Z</time>
      </trkpt>
      <trkpt lat="42.28448" lon="-0.7059423">
        <time>2022-07-05T14:25:56Z</time>
      </trkpt>
      <trkpt lat="42.28445" lon="-0.7058639">
        <time>2022-07-05T14:25:57Z</time>
      </trkpt>
      <trkpt lat="42.28442" lon="-0.7057879">
        <time>2022-07-05T14:25:58Z</time>
      </trkpt>
      <trkpt lat="42.28439" lon="-0.7057143">
        <time>2022-07-05T14:25:59Z</time>
      </trkpt>
      <trkpt lat="42.284363" lon="-0.70564395">
        <time>2022-07-05T14:26:00Z</time>
      </trkpt>
      <trkpt lat="42.284336" lon="-0.70557594">
        <time>2022-07-05T14:26:01Z</time>
      </trkpt>
      <trkpt lat="42.28431" lon="-0.7055096">
        <time>2022-07-05T14:26:02Z</time>
      </trkpt>
      <trkpt lat="42.284286" lon="-0.7054496">
        <time>2022-07-05T14:26:03Z</time>
      </trkpt>
      <trkpt lat="42.284233" lon="-0.70532393">
        <time>2022-07-05T14:26:05Z</time>
      </trkpt>
      <trkpt lat="42.28421" lon="-0.70526797">
        <time>2022-07-05T14:26:06Z</time>
      </trkpt>
      <trkpt lat="42.284184" lon="-0.70520794">
        <time>2022-07-05T14:26:07Z</time>
      </trkpt>
      <trkpt lat="42.284134" lon="-0.70509326">
        <time>2022-07-05T14:26:09Z</time>
      </trkpt>
      <trkpt lat="42.28409" lon="-0.70498025">
        <time>2022-07-05T14:26:11Z</time>
      </trkpt>
      <trkpt lat="42.28405" lon="-0.7048793">
        <time>2022-07-05T14:26:13Z</time>
      </trkpt>
      <trkpt lat="42.284008" lon="-0.70477426">
        <time>2022-07-05T14:26:15Z</time>
      </trkpt>
      <trkpt lat="42.283966" lon="-0.704676">
        <time>2022-07-05T14:26:17Z</time>
      </trkpt>
      <trkpt lat="42.283928" lon="-0.7045846">
        <time>2022-07-05T14:26:19Z</time>
      </trkpt>
      <trkpt lat="42.283894" lon="-0.7044943">
        <time>2022-07-05T14:26:21Z</time>
      </trkpt>
      <trkpt lat="42.28386" lon="-0.7044116">
        <time>2022-07-05T14:26:23Z</time>
      </trkpt>
      <trkpt lat="42.28383" lon="-0.7043256">
        <time>2022-07-05T14:26:25Z</time>
      </trkpt>
      <trkpt lat="42.283794" lon="-0.70424265">
        <time>2022-07-05T14:26:27Z</time>
      </trkpt>
      <trkpt lat="42.283768" lon="-0.7041593">
        <time>2022-07-05T14:26:29Z</time>
      </trkpt>
      <trkpt lat="42.283733" lon="-0.70407164">
        <time>2022-07-05T14:26:31Z</time>
      </trkpt>
      <trkpt lat="42.283703" lon="-0.7039896">
        <time>2022-07-05T14:26:33Z</time>
      </trkpt>
      <trkpt lat="42.28367" lon="-0.7039033">
        <time>2022-07-05T14:26:35Z</time>
      </trkpt>
      <trkpt lat="42.283638" lon="-0.703816">
        <time>2022-07-05T14:26:37Z</time>
      </trkpt>
      <trkpt lat="42.283604" lon="-0.70372665">
        <time>2022-07-05T14:26:39Z</time>
      </trkpt>
      <trkpt lat="42.283566" lon="-0.703635">
        <time>2022-07-05T14:26:41Z</time>
      </trkpt>
      <trkpt lat="42.28353" lon="-0.70354533">
        <time>2022-07-05T14:26:43Z</time>
      </trkpt>
      <trkpt lat="42.283497" lon="-0.703457">
        <time>2022-07-05T14:26:45Z</time>
      </trkpt>
      <trkpt lat="42.283463" lon="-0.7033643">
        <time>2022-07-05T14:26:47Z</time>
      </trkpt>
      <trkpt lat="42.283432" lon="-0.703278">
        <time>2022-07-05T14:26:49Z</time>
      </trkpt>
      <trkpt lat="42.283394" lon="-0.7031877">
        <time>2022-07-05T14:26:51Z</time>
      </trkpt>
      <trkpt lat="42.283356" lon="-0.703095">
        <time>2022-07-05T14:26:53Z</time>
      </trkpt>
      <trkpt lat="42.28332" lon="-0.7030067">
        <time>2022-07-05T14:26:55Z</time>
      </trkpt>
      <trkpt lat="42.283283" lon="-0.70291334">
        <time>2022-07-05T14:26:57Z</time>
      </trkpt>
      <trkpt lat="42.28325" lon="-0.70281637">
        <time>2022-07-05T14:26:59Z</time>
      </trkpt>
      <trkpt lat="42.283215" lon="-0.70272535">
        <time>2022-07-05T14:27:01Z</time>
      </trkpt>
      <trkpt lat="42.283176" lon="-0.7026284">
        <time>2022-07-05T14:27:03Z</time>
      </trkpt>
      <trkpt lat="42.28314" lon="-0.70253205">
        <time>2022-07-05T14:27:05Z</time>
      </trkpt>
      <trkpt lat="42.2831" lon="-0.7024324">
        <time>2022-07-05T14:27:07Z</time>
      </trkpt>
      <trkpt lat="42.283066" lon="-0.70233536">
        <time>2022-07-05T14:27:09Z</time>
      </trkpt>
      <trkpt lat="42.283028" lon="-0.7022417">
        <time>2022-07-05T14:27:11Z</time>
      </trkpt>
      <trkpt lat="42.282993" lon="-0.7021467">
        <time>2022-07-05T14:27:13Z</time>
      </trkpt>
      <trkpt lat="42.282955" lon="-0.70204973">
        <time>2022-07-05T14:27:15Z</time>
      </trkpt>
      <trkpt lat="42.282917" lon="-0.70195705">
        <time>2022-07-05T14:27:17Z</time>
      </trkpt>
      <trkpt lat="42.28288" lon="-0.70185673">
        <time>2022-07-05T14:27:19Z</time>
      </trkpt>
      <trkpt lat="42.28284" lon="-0.7017567">
        <time>2022-07-05T14:27:21Z</time>
      </trkpt>
      <trkpt lat="42.282803" lon="-0.7016574">
        <time>2022-07-05T14:27:23Z</time>
      </trkpt>
      <trkpt lat="42.282764" lon="-0.7015601">
        <time>2022-07-05T14:27:25Z</time>
      </trkpt>
      <trkpt lat="42.282726" lon="-0.7014661">
        <time>2022-07-05T14:27:27Z</time>
      </trkpt>
      <trkpt lat="42.28269" lon="-0.7013711">
        <time>2022-07-05T14:27:29Z</time>
      </trkpt>
      <trkpt lat="42.28265" lon="-0.70127106">
        <time>2022-07-05T14:27:31Z</time>
      </trkpt>
      <trkpt lat="42.28261" lon="-0.7011741">
        <time>2022-07-05T14:27:33Z</time>
      </trkpt>
      <trkpt lat="42.282574" lon="-0.7010747">
        <time>2022-07-05T14:27:35Z</time>
      </trkpt>
      <trkpt lat="42.282536" lon="-0.7009761">
        <time>2022-07-05T14:27:37Z</time>
      </trkpt>
      <trkpt lat="42.282497" lon="-0.7008817">
        <time>2022-07-05T14:27:39Z</time>
      </trkpt>
      <trkpt lat="42.282455" lon="-0.70078343">
        <time>2022-07-05T14:27:41Z</time>
      </trkpt>
      <trkpt lat="42.282417" lon="-0.7006838">
        <time>2022-07-05T14:27:43Z</time>
      </trkpt>
      <trkpt lat="42.28238" lon="-0.70058244">
        <time>2022-07-05T14:27:45Z</time>
      </trkpt>
      <trkpt lat="42.28234" lon="-0.7004844">
        <time>2022-07-05T14:27:47Z</time>
      </trkpt>
      <trkpt lat="42.282303" lon="-0.70039344">
        <time>2022-07-05T14:27:49Z</time>
      </trkpt>
      <trkpt lat="42.28226" lon="-0.7002888">
        <time>2022-07-05T14:27:51Z</time>
      </trkpt>
      <trkpt lat="42.282223" lon="-0.7001881">
        <time>2022-07-05T14:27:53Z</time>
      </trkpt>
      <trkpt lat="42.28218" lon="-0.7000918">
        <time>2022-07-05T14:27:55Z</time>
      </trkpt>
      <trkpt lat="42.282143" lon="-0.6999901">
        <time>2022-07-05T14:27:57Z</time>
      </trkpt>
      <trkpt lat="42.282104" lon="-0.6998948">
        <time>2022-07-05T14:27:59Z</time>
      </trkpt>
      <trkpt lat="42.28207" lon="-0.69979846">
        <time>2022-07-05T14:28:01Z</time>
      </trkpt>
      <trkpt lat="42.282032" lon="-0.6997008">
        <time>2022-07-05T14:28:03Z</time>
      </trkpt>
      <trkpt lat="42.281994" lon="-0.69960743">
        <time>2022-07-05T14:28:05Z</time>
      </trkpt>
      <trkpt lat="42.28195" lon="-0.6995048">
        <time>2022-07-05T14:28:07Z</time>
      </trkpt>
      <trkpt lat="42.281918" lon="-0.6994078">
        <time>2022-07-05T14:28:09Z</time>
      </trkpt>
      <trkpt lat="42.28188" lon="-0.69931215">
        <time>2022-07-05T14:28:11Z</time>
      </trkpt>
      <trkpt lat="42.281845" lon="-0.6992155">
        <time>2022-07-05T14:28:13Z</time>
      </trkpt>
      <trkpt lat="42.281815" lon="-0.69912916">
        <time>2022-07-05T14:28:15Z</time>
      </trkpt>
      <trkpt lat="42.28178" lon="-0.69904447">
        <time>2022-07-05T14:28:17Z</time>
      </trkpt>
      <trkpt lat="42.28175" lon="-0.69896215">
        <time>2022-07-05T14:28:19Z</time>
      </trkpt>
      <trkpt lat="42.28172" lon="-0.6988882">
        <time>2022-07-05T14:28:21Z</time>
      </trkpt>
      <trkpt lat="42.28169" lon="-0.6988118">
        <time>2022-07-05T14:28:23Z</time>
      </trkpt>
      <trkpt lat="42.281662" lon="-0.6987392">
        <time>2022-07-05T14:28:25Z</time>
      </trkpt>
      <trkpt lat="42.28163" lon="-0.69866616">
        <time>2022-07-05T14:28:27Z</time>
      </trkpt>
      <trkpt lat="42.281605" lon="-0.6985922">
        <time>2022-07-05T14:28:29Z</time>
      </trkpt>
      <trkpt lat="42.281574" lon="-0.6985205">
        <time>2022-07-05T14:28:31Z</time>
      </trkpt>
      <trkpt lat="42.281548" lon="-0.6984519">
        <time>2022-07-05T14:28:33Z</time>
      </trkpt>
      <trkpt lat="42.281517" lon="-0.6983758">
        <time>2022-07-05T14:28:35Z</time>
      </trkpt>
      <trkpt lat="42.281487" lon="-0.6983052">
        <time>2022-07-05T14:28:37Z</time>
      </trkpt>
      <trkpt lat="42.281456" lon="-0.69823354">
        <time>2022-07-05T14:28:39Z</time>
      </trkpt>
      <trkpt lat="42.281425" lon="-0.6981595">
        <time>2022-07-05T14:28:41Z</time>
      </trkpt>
      <trkpt lat="42.281395" lon="-0.69809085">
        <time>2022-07-05T14:28:43Z</time>
      </trkpt>
      <trkpt lat="42.281364" lon="-0.6980202">
        <time>2022-07-05T14:28:45Z</time>
      </trkpt>
      <trkpt lat="42.281334" lon="-0.6979502">
        <time>2022-07-05T14:28:47Z</time>
      </trkpt>
      <trkpt lat="42.281303" lon="-0.69787854">
        <time>2022-07-05T14:28:49Z</time>
      </trkpt>
      <trkpt lat="42.281277" lon="-0.69780356">
        <time>2022-07-05T14:28:51Z</time>
      </trkpt>
      <trkpt lat="42.281254" lon="-0.69773424">
        <time>2022-07-05T14:28:53Z</time>
      </trkpt>
      <trkpt lat="42.281223" lon="-0.69765955">
        <time>2022-07-05T14:28:55Z</time>
      </trkpt>
      <trkpt lat="42.281197" lon="-0.6975842">
        <time>2022-07-05T14:28:57Z</time>
      </trkpt>
      <trkpt lat="42.28117" lon="-0.69751555">
        <time>2022-07-05T14:28:59Z</time>
      </trkpt>
      <trkpt lat="42.28114" lon="-0.6974389">
        <time>2022-07-05T14:29:01Z</time>
      </trkpt>
      <trkpt lat="42.28111" lon="-0.6973619">
        <time>2022-07-05T14:29:03Z</time>
      </trkpt>
      <trkpt lat="42.28108" lon="-0.6972869">
        <time>2022-07-05T14:29:05Z</time>
      </trkpt>
      <trkpt lat="42.281048" lon="-0.6972109">
        <time>2022-07-05T14:29:07Z</time>
      </trkpt>
      <trkpt lat="42.281013" lon="-0.6971379">
        <time>2022-07-05T14:29:09Z</time>
      </trkpt>
      <trkpt lat="42.280983" lon="-0.69706255">
        <time>2022-07-05T14:29:11Z</time>
      </trkpt>
      <trkpt lat="42.28095" lon="-0.6969836">
        <time>2022-07-05T14:29:13Z</time>
      </trkpt>
      <trkpt lat="42.280914" lon="-0.6969026">
        <time>2022-07-05T14:29:15Z</time>
      </trkpt>
      <trkpt lat="42.280876" lon="-0.69682056">
        <time>2022-07-05T14:29:17Z</time>
      </trkpt>
      <trkpt lat="42.28084" lon="-0.6967416">
        <time>2022-07-05T14:29:19Z</time>
      </trkpt>
      <trkpt lat="42.28081" lon="-0.69665825">
        <time>2022-07-05T14:29:21Z</time>
      </trkpt>
      <trkpt lat="42.280777" lon="-0.69657123">
        <time>2022-07-05T14:29:23Z</time>
      </trkpt>
      <trkpt lat="42.28074" lon="-0.69648594">
        <time>2022-07-05T14:29:25Z</time>
      </trkpt>
      <trkpt lat="42.280704" lon="-0.69640094">
        <time>2022-07-05T14:29:27Z</time>
      </trkpt>
      <trkpt lat="42.28067" lon="-0.6963156">
        <time>2022-07-05T14:29:29Z</time>
      </trkpt>
      <trkpt lat="42.280632" lon="-0.69622993">
        <time>2022-07-05T14:29:31Z</time>
      </trkpt>
      <trkpt lat="42.280594" lon="-0.69613993">
        <time>2022-07-05T14:29:33Z</time>
      </trkpt>
      <trkpt lat="42.28056" lon="-0.69605225">
        <time>2022-07-05T14:29:35Z</time>
      </trkpt>
      <trkpt lat="42.280502" lon="-0.69591695">
        <time>2022-07-05T14:29:38Z</time>
      </trkpt>
      <trkpt lat="42.280468" lon="-0.6958316">
        <time>2022-07-05T14:29:40Z</time>
      </trkpt>
      <trkpt lat="42.280434" lon="-0.6957496">
        <time>2022-07-05T14:29:42Z</time>
      </trkpt>
      <trkpt lat="42.2804" lon="-0.6956616">
        <time>2022-07-05T14:29:44Z</time>
      </trkpt>
      <trkpt lat="42.28037" lon="-0.6955836">
        <time>2022-07-05T14:29:46Z</time>
      </trkpt>
      <trkpt lat="42.28033" lon="-0.69550294">
        <time>2022-07-05T14:29:48Z</time>
      </trkpt>
      <trkpt lat="42.280293" lon="-0.6954183">
        <time>2022-07-05T14:29:50Z</time>
      </trkpt>
      <trkpt lat="42.28026" lon="-0.6953413">
        <time>2022-07-05T14:29:52Z</time>
      </trkpt>
      <trkpt lat="42.28022" lon="-0.69525963">
        <time>2022-07-05T14:29:54Z</time>
      </trkpt>
      <trkpt lat="42.28019" lon="-0.69518495">
        <time>2022-07-05T14:29:56Z</time>
      </trkpt>
      <trkpt lat="42.28016" lon="-0.69510967">
        <time>2022-07-05T14:29:58Z</time>
      </trkpt>
      <trkpt lat="42.28013" lon="-0.695035">
        <time>2022-07-05T14:30:00Z</time>
      </trkpt>
      <trkpt lat="42.280098" lon="-0.69496197">
        <time>2022-07-05T14:30:02Z</time>
      </trkpt>
      <trkpt lat="42.280067" lon="-0.6948863">
        <time>2022-07-05T14:30:04Z</time>
      </trkpt>
      <trkpt lat="42.280037" lon="-0.69481367">
        <time>2022-07-05T14:30:06Z</time>
      </trkpt>
      <trkpt lat="42.28001" lon="-0.694745">
        <time>2022-07-05T14:30:08Z</time>
      </trkpt>
      <trkpt lat="42.27998" lon="-0.6946717">
        <time>2022-07-05T14:30:10Z</time>
      </trkpt>
      <trkpt lat="42.27995" lon="-0.69459903">
        <time>2022-07-05T14:30:12Z</time>
      </trkpt>
      <trkpt lat="42.27992" lon="-0.694529">
        <time>2022-07-05T14:30:14Z</time>
      </trkpt>
      <trkpt lat="42.27989" lon="-0.69445866">
        <time>2022-07-05T14:30:16Z</time>
      </trkpt>
      <trkpt lat="42.279858" lon="-0.694396">
        <time>2022-07-05T14:30:18Z</time>
      </trkpt>
      <trkpt lat="42.27983" lon="-0.69433135">
        <time>2022-07-05T14:30:20Z</time>
      </trkpt>
      <trkpt lat="42.279804" lon="-0.6942637">
        <time>2022-07-05T14:30:22Z</time>
      </trkpt>
      <trkpt lat="42.27978" lon="-0.6942037">
        <time>2022-07-05T14:30:24Z</time>
      </trkpt>
      <trkpt lat="42.27975" lon="-0.69414103">
        <time>2022-07-05T14:30:26Z</time>
      </trkpt>
      <trkpt lat="42.279728" lon="-0.6940844">
        <time>2022-07-05T14:30:28Z</time>
      </trkpt>
      <trkpt lat="42.279686" lon="-0.69400173">
        <time>2022-07-05T14:30:31Z</time>
      </trkpt>
      <trkpt lat="42.27965" lon="-0.6939164">
        <time>2022-07-05T14:30:34Z</time>
      </trkpt>
      <trkpt lat="42.27962" lon="-0.6938347">
        <time>2022-07-05T14:30:37Z</time>
      </trkpt>
      <trkpt lat="42.279602" lon="-0.6937764">
        <time>2022-07-05T14:30:39Z</time>
      </trkpt>
      <trkpt lat="42.279568" lon="-0.69370204">
        <time>2022-07-05T14:30:42Z</time>
      </trkpt>
      <trkpt lat="42.279533" lon="-0.6936301">
        <time>2022-07-05T14:30:45Z</time>
      </trkpt>
      <trkpt lat="42.27951" lon="-0.6935531">
        <time>2022-07-05T14:30:48Z</time>
      </trkpt>
      <trkpt lat="42.279488" lon="-0.6934824">
        <time>2022-07-05T14:30:51Z</time>
      </trkpt>
      <trkpt lat="42.27946" lon="-0.6934091">
        <time>2022-07-05T14:30:54Z</time>
      </trkpt>
      <trkpt lat="42.27943" lon="-0.6933371">
        <time>2022-07-05T14:30:57Z</time>
      </trkpt>
      <trkpt lat="42.279404" lon="-0.6932661">
        <time>2022-07-05T14:31:00Z</time>
      </trkpt>
      <trkpt lat="42.279377" lon="-0.69319373">
        <time>2022-07-05T14:31:03Z</time>
      </trkpt>
      <trkpt lat="42.27935" lon="-0.69311976">
        <time>2022-07-05T14:31:06Z</time>
      </trkpt>
      <trkpt lat="42.27932" lon="-0.6930371">
        <time>2022-07-05T14:31:10Z</time>
      </trkpt>
      <trkpt lat="42.279297" lon="-0.69297945">
        <time>2022-07-05T14:31:12Z</time>
      </trkpt>
      <trkpt lat="42.27927" lon="-0.69289976">
        <time>2022-07-05T14:31:15Z</time>
      </trkpt>
      <trkpt lat="42.279247" lon="-0.69282377">
        <time>2022-07-05T14:31:18Z</time>
      </trkpt>
      <trkpt lat="42.27922" lon="-0.69275045">
        <time>2022-07-05T14:31:21Z</time>
      </trkpt>
      <trkpt lat="42.279198" lon="-0.6926821">
        <time>2022-07-05T14:31:24Z</time>
      </trkpt>
      <trkpt lat="42.27918" lon="-0.6926134">
        <time>2022-07-05T14:31:27Z</time>
      </trkpt>
      <trkpt lat="42.279167" lon="-0.69254214">
        <time>2022-07-05T14:31:30Z</time>
      </trkpt>
      <trkpt lat="42.279152" lon="-0.6924721">
        <time>2022-07-05T14:31:33Z</time>
      </trkpt>
      <trkpt lat="42.279133" lon="-0.6924028">
        <time>2022-07-05T14:31:36Z</time>
      </trkpt>
      <trkpt lat="42.27911" lon="-0.6923291">
        <time>2022-07-05T14:31:39Z</time>
      </trkpt>
      <trkpt lat="42.279087" lon="-0.6922581">
        <time>2022-07-05T14:31:42Z</time>
      </trkpt>
      <trkpt lat="42.279068" lon="-0.6921901">
        <time>2022-07-05T14:31:45Z</time>
      </trkpt>
      <trkpt lat="42.27905" lon="-0.6921165">
        <time>2022-07-05T14:31:48Z</time>
      </trkpt>
      <trkpt lat="42.279034" lon="-0.69204414">
        <time>2022-07-05T14:31:51Z</time>
      </trkpt>
      <trkpt lat="42.279022" lon="-0.69197184">
        <time>2022-07-05T14:31:54Z</time>
      </trkpt>
      <trkpt lat="42.279003" lon="-0.69190115">
        <time>2022-07-05T14:31:57Z</time>
      </trkpt>
      <trkpt lat="42.27898" lon="-0.69182914">
        <time>2022-07-05T14:32:00Z</time>
      </trkpt>
      <trkpt lat="42.278957" lon="-0.69175446">
        <time>2022-07-05T14:32:03Z</time>
      </trkpt>
      <trkpt lat="42.278934" lon="-0.69167846">
        <time>2022-07-05T14:32:06Z</time>
      </trkpt>
      <trkpt lat="42.27892" lon="-0.69159985">
        <time>2022-07-05T14:32:09Z</time>
      </trkpt>
      <trkpt lat="42.27891" lon="-0.6915182">
        <time>2022-07-05T14:32:12Z</time>
      </trkpt>
      <trkpt lat="42.278893" lon="-0.69144785">
        <time>2022-07-05T14:32:15Z</time>
      </trkpt>
      <trkpt lat="42.27888" lon="-0.6913775">
        <time>2022-07-05T14:32:18Z</time>
      </trkpt>
      <trkpt lat="42.278866" lon="-0.69130385">
        <time>2022-07-05T14:32:21Z</time>
      </trkpt>
      <trkpt lat="42.278854" lon="-0.69123083">
        <time>2022-07-05T14:32:24Z</time>
      </trkpt>
      <trkpt lat="42.278843" lon="-0.69115883">
        <time>2022-07-05T14:32:27Z</time>
      </trkpt>
      <trkpt lat="42.27883" lon="-0.69108486">
        <time>2022-07-05T14:32:30Z</time>
      </trkpt>
      <trkpt lat="42.27882" lon="-0.69100386">
        <time>2022-07-05T14:32:33Z</time>
      </trkpt>
      <trkpt lat="42.278812" lon="-0.69092286">
        <time>2022-07-05T14:32:36Z</time>
      </trkpt>
      <trkpt lat="42.278793" lon="-0.69084585">
        <time>2022-07-05T14:32:39Z</time>
      </trkpt>
      <trkpt lat="42.278778" lon="-0.69077384">
        <time>2022-07-05T14:32:42Z</time>
      </trkpt>
      <trkpt lat="42.27877" lon="-0.6907142">
        <time>2022-07-05T14:32:45Z</time>
      </trkpt>
      <trkpt lat="42.278706" lon="-0.6907355">
        <time>2022-07-05T14:37:22Z</time>
      </trkpt>
      <trkpt lat="42.27874" lon="-0.69084585">
        <time>2022-07-05T14:38:25Z</time>
      </trkpt>
      <trkpt lat="42.278667" lon="-0.6907632">
        <time>2022-07-05T14:51:54Z</time>
      </trkpt>
      <trkpt lat="42.27862" lon="-0.6906622">
        <time>2022-07-05T14:52:46Z</time>
      </trkpt>
      <trkpt lat="42.27861" lon="-0.69059354">
        <time>2022-07-05T14:52:49Z</time>
      </trkpt>
      <trkpt lat="42.278603" lon="-0.69050884">
        <time>2022-07-05T14:52:53Z</time>
      </trkpt>
      <trkpt lat="42.27859" lon="-0.69042486">
        <time>2022-07-05T14:52:57Z</time>
      </trkpt>
      <trkpt lat="42.278595" lon="-0.69035757">
        <time>2022-07-05T14:53:00Z</time>
      </trkpt>
      <trkpt lat="42.2786" lon="-0.6902649">
        <time>2022-07-05T14:53:04Z</time>
      </trkpt>
      <trkpt lat="42.2786" lon="-0.69020224">
        <time>2022-07-05T14:53:07Z</time>
      </trkpt>
      <trkpt lat="42.278587" lon="-0.6901259">
        <time>2022-07-05T14:53:11Z</time>
      </trkpt>
      <trkpt lat="42.27858" lon="-0.69004154">
        <time>2022-07-05T14:53:15Z</time>
      </trkpt>
      <trkpt lat="42.27856" lon="-0.6899632">
        <time>2022-07-05T14:53:19Z</time>
      </trkpt>
      <trkpt lat="42.278545" lon="-0.68989325">
        <time>2022-07-05T14:53:23Z</time>
      </trkpt>
      <trkpt lat="42.27852" lon="-0.68982023">
        <time>2022-07-05T14:53:27Z</time>
      </trkpt>
      <trkpt lat="42.278492" lon="-0.6897666">
        <time>2022-07-05T14:53:30Z</time>
      </trkpt>
      <trkpt lat="42.278442" lon="-0.6897032">
        <time>2022-07-05T14:53:34Z</time>
      </trkpt>
      <trkpt lat="42.2784" lon="-0.68966323">
        <time>2022-07-05T14:53:37Z</time>
      </trkpt>
      <trkpt lat="42.27836" lon="-0.68962425">
        <time>2022-07-05T14:53:40Z</time>
      </trkpt>
      <trkpt lat="42.27831" lon="-0.68958056">
        <time>2022-07-05T14:53:43Z</time>
      </trkpt>
      <trkpt lat="42.27826" lon="-0.6895579">
        <time>2022-07-05T14:53:46Z</time>
      </trkpt>
      <trkpt lat="42.278202" lon="-0.68954057">
        <time>2022-07-05T14:53:49Z</time>
      </trkpt>
      <trkpt lat="42.278145" lon="-0.6895286">
        <time>2022-07-05T14:53:52Z</time>
      </trkpt>
      <trkpt lat="42.278084" lon="-0.68952024">
        <time>2022-07-05T14:53:55Z</time>
      </trkpt>
      <trkpt lat="42.27802" lon="-0.6895099">
        <time>2022-07-05T14:53:58Z</time>
      </trkpt>
      <trkpt lat="42.27797" lon="-0.68950325">
        <time>2022-07-05T14:54:00Z</time>
      </trkpt>
      <trkpt lat="42.277893" lon="-0.6894956">
        <time>2022-07-05T14:54:03Z</time>
      </trkpt>
      <trkpt lat="42.27783" lon="-0.689491">
        <time>2022-07-05T14:54:06Z</time>
      </trkpt>
      <trkpt lat="42.27778" lon="-0.6894866">
        <time>2022-07-05T14:54:08Z</time>
      </trkpt>
      <trkpt lat="42.2777" lon="-0.6894806">
        <time>2022-07-05T14:54:11Z</time>
      </trkpt>
      <trkpt lat="42.27764" lon="-0.6894756">
        <time>2022-07-05T14:54:13Z</time>
      </trkpt>
      <trkpt lat="42.277576" lon="-0.68947196">
        <time>2022-07-05T14:54:15Z</time>
      </trkpt>
      <trkpt lat="42.27751" lon="-0.6894686">
        <time>2022-07-05T14:54:17Z</time>
      </trkpt>
      <trkpt lat="42.27744" lon="-0.689465">
        <time>2022-07-05T14:54:19Z</time>
      </trkpt>
      <trkpt lat="42.27737" lon="-0.68946064">
        <time>2022-07-05T14:54:21Z</time>
      </trkpt>
      <trkpt lat="42.277298" lon="-0.6894543">
        <time>2022-07-05T14:54:23Z</time>
      </trkpt>
      <trkpt lat="42.277225" lon="-0.6894457">
        <time>2022-07-05T14:54:25Z</time>
      </trkpt>
      <trkpt lat="42.277157" lon="-0.689437">
        <time>2022-07-05T14:54:27Z</time>
      </trkpt>
      <trkpt lat="42.27709" lon="-0.68943167">
        <time>2022-07-05T14:54:29Z</time>
      </trkpt>
      <trkpt lat="42.27702" lon="-0.689429">
        <time>2022-07-05T14:54:31Z</time>
      </trkpt>
      <trkpt lat="42.276955" lon="-0.6894273">
        <time>2022-07-05T14:54:33Z</time>
      </trkpt>
      <trkpt lat="42.27689" lon="-0.6894233">
        <time>2022-07-05T14:54:35Z</time>
      </trkpt>
      <trkpt lat="42.276825" lon="-0.689423">
        <time>2022-07-05T14:54:37Z</time>
      </trkpt>
      <trkpt lat="42.27676" lon="-0.68942237">
        <time>2022-07-05T14:54:39Z</time>
      </trkpt>
      <trkpt lat="42.27669" lon="-0.68942004">
        <time>2022-07-05T14:54:41Z</time>
      </trkpt>
      <trkpt lat="42.276623" lon="-0.689418">
        <time>2022-07-05T14:54:43Z</time>
      </trkpt>
      <trkpt lat="42.27655" lon="-0.6894144">
        <time>2022-07-05T14:54:45Z</time>
      </trkpt>
      <trkpt lat="42.276447" lon="-0.68940735">
        <time>2022-07-05T14:54:48Z</time>
      </trkpt>
      <trkpt lat="42.276375" lon="-0.6894037">
        <time>2022-07-05T14:54:50Z</time>
      </trkpt>
      <trkpt lat="42.276306" lon="-0.6893967">
        <time>2022-07-05T14:54:52Z</time>
      </trkpt>
      <trkpt lat="42.276234" lon="-0.68938935">
        <time>2022-07-05T14:54:54Z</time>
      </trkpt>
      <trkpt lat="42.276154" lon="-0.6893807">
        <time>2022-07-05T14:54:56Z</time>
      </trkpt>
      <trkpt lat="42.276077" lon="-0.6893717">
        <time>2022-07-05T14:54:58Z</time>
      </trkpt>
      <trkpt lat="42.275997" lon="-0.6893664">
        <time>2022-07-05T14:55:00Z</time>
      </trkpt>
      <trkpt lat="42.275913" lon="-0.6893604">
        <time>2022-07-05T14:55:02Z</time>
      </trkpt>
      <trkpt lat="42.27583" lon="-0.68934935">
        <time>2022-07-05T14:55:04Z</time>
      </trkpt>
      <trkpt lat="42.27575" lon="-0.68933904">
        <time>2022-07-05T14:55:06Z</time>
      </trkpt>
      <trkpt lat="42.275673" lon="-0.689333">
        <time>2022-07-05T14:55:08Z</time>
      </trkpt>
      <trkpt lat="42.275597" lon="-0.689329">
        <time>2022-07-05T14:55:10Z</time>
      </trkpt>
      <trkpt lat="42.27552" lon="-0.68932307">
        <time>2022-07-05T14:55:12Z</time>
      </trkpt>
      <trkpt lat="42.27544" lon="-0.6893147">
        <time>2022-07-05T14:55:14Z</time>
      </trkpt>
      <trkpt lat="42.27536" lon="-0.6893087">
        <time>2022-07-05T14:55:16Z</time>
      </trkpt>
      <trkpt lat="42.275284" lon="-0.6892894">
        <time>2022-07-05T14:55:18Z</time>
      </trkpt>
      <trkpt lat="42.275208" lon="-0.6892521">
        <time>2022-07-05T14:55:20Z</time>
      </trkpt>
      <trkpt lat="42.275143" lon="-0.6891984">
        <time>2022-07-05T14:55:22Z</time>
      </trkpt>
      <trkpt lat="42.275085" lon="-0.68912876">
        <time>2022-07-05T14:55:24Z</time>
      </trkpt>
      <trkpt lat="42.275032" lon="-0.68904275">
        <time>2022-07-05T14:55:26Z</time>
      </trkpt>
      <trkpt lat="42.274994" lon="-0.68894607">
        <time>2022-07-05T14:55:28Z</time>
      </trkpt>
      <trkpt lat="42.274963" lon="-0.6888441">
        <time>2022-07-05T14:55:30Z</time>
      </trkpt>
      <trkpt lat="42.274952" lon="-0.68873274">
        <time>2022-07-05T14:55:32Z</time>
      </trkpt>
      <trkpt lat="42.27495" lon="-0.68861175">
        <time>2022-07-05T14:55:34Z</time>
      </trkpt>
      <trkpt lat="42.27495" lon="-0.68847907">
        <time>2022-07-05T14:55:36Z</time>
      </trkpt>
      <trkpt lat="42.274952" lon="-0.68834543">
        <time>2022-07-05T14:55:38Z</time>
      </trkpt>
      <trkpt lat="42.27496" lon="-0.6882044">
        <time>2022-07-05T14:55:40Z</time>
      </trkpt>
      <trkpt lat="42.274967" lon="-0.68812746">
        <time>2022-07-05T14:55:41Z</time>
      </trkpt>
      <trkpt lat="42.274975" lon="-0.6880564">
        <time>2022-07-05T14:55:42Z</time>
      </trkpt>
      <trkpt lat="42.274986" lon="-0.68791574">
        <time>2022-07-05T14:55:44Z</time>
      </trkpt>
      <trkpt lat="42.274994" lon="-0.68784046">
        <time>2022-07-05T14:55:45Z</time>
      </trkpt>
      <trkpt lat="42.275" lon="-0.6877658">
        <time>2022-07-05T14:55:46Z</time>
      </trkpt>
      <trkpt lat="42.27501" lon="-0.6876931">
        <time>2022-07-05T14:55:47Z</time>
      </trkpt>
      <trkpt lat="42.27502" lon="-0.6876208">
        <time>2022-07-05T14:55:48Z</time>
      </trkpt>
      <trkpt lat="42.275032" lon="-0.68754715">
        <time>2022-07-05T14:55:49Z</time>
      </trkpt>
      <trkpt lat="42.27504" lon="-0.68747413">
        <time>2022-07-05T14:55:50Z</time>
      </trkpt>
      <trkpt lat="42.27505" lon="-0.6874015">
        <time>2022-07-05T14:55:51Z</time>
      </trkpt>
      <trkpt lat="42.275055" lon="-0.68725646">
        <time>2022-07-05T14:55:53Z</time>
      </trkpt>
      <trkpt lat="42.275055" lon="-0.6871825">
        <time>2022-07-05T14:55:54Z</time>
      </trkpt>
      <trkpt lat="42.27505" lon="-0.68710816">
        <time>2022-07-05T14:55:55Z</time>
      </trkpt>
      <trkpt lat="42.275043" lon="-0.68703413">
        <time>2022-07-05T14:55:56Z</time>
      </trkpt>
      <trkpt lat="42.275036" lon="-0.68696046">
        <time>2022-07-05T14:55:57Z</time>
      </trkpt>
      <trkpt lat="42.27503" lon="-0.6868892">
        <time>2022-07-05T14:55:58Z</time>
      </trkpt>
      <trkpt lat="42.275017" lon="-0.68681914">
        <time>2022-07-05T14:55:59Z</time>
      </trkpt>
      <trkpt lat="42.275005" lon="-0.6867505">
        <time>2022-07-05T14:56:00Z</time>
      </trkpt>
      <trkpt lat="42.27498" lon="-0.68661517">
        <time>2022-07-05T14:56:02Z</time>
      </trkpt>
      <trkpt lat="42.27496" lon="-0.6865488">
        <time>2022-07-05T14:56:03Z</time>
      </trkpt>
      <trkpt lat="42.274937" lon="-0.6864835">
        <time>2022-07-05T14:56:04Z</time>
      </trkpt>
      <trkpt lat="42.274914" lon="-0.6864185">
        <time>2022-07-05T14:56:05Z</time>
      </trkpt>
      <trkpt lat="42.274887" lon="-0.68635386">
        <time>2022-07-05T14:56:06Z</time>
      </trkpt>
      <trkpt lat="42.27486" lon="-0.6862895">
        <time>2022-07-05T14:56:07Z</time>
      </trkpt>
      <trkpt lat="42.274834" lon="-0.6862272">
        <time>2022-07-05T14:56:08Z</time>
      </trkpt>
      <trkpt lat="42.274803" lon="-0.6861672">
        <time>2022-07-05T14:56:09Z</time>
      </trkpt>
      <trkpt lat="42.274773" lon="-0.6861082">
        <time>2022-07-05T14:56:10Z</time>
      </trkpt>
      <trkpt lat="42.27474" lon="-0.6860502">
        <time>2022-07-05T14:56:11Z</time>
      </trkpt>
      <trkpt lat="42.2747" lon="-0.6859932">
        <time>2022-07-05T14:56:12Z</time>
      </trkpt>
      <trkpt lat="42.274666" lon="-0.6859382">
        <time>2022-07-05T14:56:13Z</time>
      </trkpt>
      <trkpt lat="42.274624" lon="-0.68588555">
        <time>2022-07-05T14:56:14Z</time>
      </trkpt>
      <trkpt lat="42.274586" lon="-0.6858339">
        <time>2022-07-05T14:56:15Z</time>
      </trkpt>
      <trkpt lat="42.274544" lon="-0.68578255">
        <time>2022-07-05T14:56:16Z</time>
      </trkpt>
      <trkpt lat="42.274506" lon="-0.68573254">
        <time>2022-07-05T14:56:17Z</time>
      </trkpt>
      <trkpt lat="42.274464" lon="-0.6856815">
        <time>2022-07-05T14:56:18Z</time>
      </trkpt>
      <trkpt lat="42.27442" lon="-0.6856312">
        <time>2022-07-05T14:56:19Z</time>
      </trkpt>
      <trkpt lat="42.27438" lon="-0.6855802">
        <time>2022-07-05T14:56:20Z</time>
      </trkpt>
      <trkpt lat="42.274338" lon="-0.6855302">
        <time>2022-07-05T14:56:21Z</time>
      </trkpt>
      <trkpt lat="42.2743" lon="-0.6854802">
        <time>2022-07-05T14:56:22Z</time>
      </trkpt>
      <trkpt lat="42.274258" lon="-0.68543255">
        <time>2022-07-05T14:56:23Z</time>
      </trkpt>
      <trkpt lat="42.274216" lon="-0.6853855">
        <time>2022-07-05T14:56:24Z</time>
      </trkpt>
      <trkpt lat="42.274143" lon="-0.6852929">
        <time>2022-07-05T14:56:26Z</time>
      </trkpt>
      <trkpt lat="42.274105" lon="-0.68524855">
        <time>2022-07-05T14:56:27Z</time>
      </trkpt>
      <trkpt lat="42.274036" lon="-0.6851606">
        <time>2022-07-05T14:56:29Z</time>
      </trkpt>
      <trkpt lat="42.273968" lon="-0.6850759">
        <time>2022-07-05T14:56:31Z</time>
      </trkpt>
      <trkpt lat="42.273907" lon="-0.68499357">
        <time>2022-07-05T14:56:33Z</time>
      </trkpt>
      <trkpt lat="42.27385" lon="-0.6849169">
        <time>2022-07-05T14:56:35Z</time>
      </trkpt>
      <trkpt lat="42.27379" lon="-0.68484926">
        <time>2022-07-05T14:56:37Z</time>
      </trkpt>
      <trkpt lat="42.273727" lon="-0.68478656">
        <time>2022-07-05T14:56:39Z</time>
      </trkpt>
      <trkpt lat="42.273674" lon="-0.68472856">
        <time>2022-07-05T14:56:41Z</time>
      </trkpt>
      <trkpt lat="42.27362" lon="-0.6846736">
        <time>2022-07-05T14:56:43Z</time>
      </trkpt>
      <trkpt lat="42.27357" lon="-0.68461823">
        <time>2022-07-05T14:56:45Z</time>
      </trkpt>
      <trkpt lat="42.273525" lon="-0.6845636">
        <time>2022-07-05T14:56:47Z</time>
      </trkpt>
      <trkpt lat="42.27348" lon="-0.6845116">
        <time>2022-07-05T14:56:49Z</time>
      </trkpt>
      <trkpt lat="42.273434" lon="-0.6844616">
        <time>2022-07-05T14:56:51Z</time>
      </trkpt>
      <trkpt lat="42.27339" lon="-0.68441224">
        <time>2022-07-05T14:56:53Z</time>
      </trkpt>
      <trkpt lat="42.273335" lon="-0.6843396">
        <time>2022-07-05T14:56:56Z</time>
      </trkpt>
      <trkpt lat="42.2733" lon="-0.6842939">
        <time>2022-07-05T14:56:58Z</time>
      </trkpt>
      <trkpt lat="42.27325" lon="-0.68422663">
        <time>2022-07-05T14:57:01Z</time>
      </trkpt>
      <trkpt lat="42.273197" lon="-0.6841563">
        <time>2022-07-05T14:57:04Z</time>
      </trkpt>
      <trkpt lat="42.273148" lon="-0.68409264">
        <time>2022-07-05T14:57:07Z</time>
      </trkpt>
      <trkpt lat="42.273098" lon="-0.684033">
        <time>2022-07-05T14:57:10Z</time>
      </trkpt>
      <trkpt lat="42.273052" lon="-0.6839783">
        <time>2022-07-05T14:57:13Z</time>
      </trkpt>
      <trkpt lat="42.273003" lon="-0.68392265">
        <time>2022-07-05T14:57:16Z</time>
      </trkpt>
      <trkpt lat="42.272953" lon="-0.683873">
        <time>2022-07-05T14:57:19Z</time>
      </trkpt>
      <trkpt lat="42.272907" lon="-0.68382597">
        <time>2022-07-05T14:57:22Z</time>
      </trkpt>
      <trkpt lat="42.272858" lon="-0.6837723">
        <time>2022-07-05T14:57:25Z</time>
      </trkpt>
      <trkpt lat="42.2728" lon="-0.683729">
        <time>2022-07-05T14:57:28Z</time>
      </trkpt>
      <trkpt lat="42.272747" lon="-0.6836957">
        <time>2022-07-05T14:57:31Z</time>
      </trkpt>
      <trkpt lat="42.272697" lon="-0.68365735">
        <time>2022-07-05T14:57:34Z</time>
      </trkpt>
      <trkpt lat="42.272648" lon="-0.6836223">
        <time>2022-07-05T14:57:37Z</time>
      </trkpt>
      <trkpt lat="42.272594" lon="-0.6835873">
        <time>2022-07-05T14:57:40Z</time>
      </trkpt>
      <trkpt lat="42.27254" lon="-0.683558">
        <time>2022-07-05T14:57:43Z</time>
      </trkpt>
      <trkpt lat="42.272488" lon="-0.68353266">
        <time>2022-07-05T14:57:46Z</time>
      </trkpt>
      <trkpt lat="42.27243" lon="-0.68351">
        <time>2022-07-05T14:57:49Z</time>
      </trkpt>
      <trkpt lat="42.272373" lon="-0.68349236">
        <time>2022-07-05T14:57:52Z</time>
      </trkpt>
      <trkpt lat="42.272316" lon="-0.68347037">
        <time>2022-07-05T14:57:55Z</time>
      </trkpt>
      <trkpt lat="42.27226" lon="-0.6834507">
        <time>2022-07-05T14:57:58Z</time>
      </trkpt>
      <trkpt lat="42.272198" lon="-0.6834314">
        <time>2022-07-05T14:58:01Z</time>
      </trkpt>
      <trkpt lat="42.27214" lon="-0.68341905">
        <time>2022-07-05T14:58:04Z</time>
      </trkpt>
      <trkpt lat="42.272083" lon="-0.6834094">
        <time>2022-07-05T14:58:07Z</time>
      </trkpt>
      <trkpt lat="42.27203" lon="-0.6834007">
        <time>2022-07-05T14:58:10Z</time>
      </trkpt>
      <trkpt lat="42.271973" lon="-0.68339336">
        <time>2022-07-05T14:58:13Z</time>
      </trkpt>
      <trkpt lat="42.271915" lon="-0.6833904">
        <time>2022-07-05T14:58:16Z</time>
      </trkpt>
      <trkpt lat="42.271862" lon="-0.68338674">
        <time>2022-07-05T14:58:19Z</time>
      </trkpt>
      <trkpt lat="42.271805" lon="-0.6833807">
        <time>2022-07-05T14:58:22Z</time>
      </trkpt>
      <trkpt lat="42.271748" lon="-0.68337774">
        <time>2022-07-05T14:58:25Z</time>
      </trkpt>
      <trkpt lat="42.27169" lon="-0.68338037">
        <time>2022-07-05T14:58:28Z</time>
      </trkpt>
      <trkpt lat="42.271633" lon="-0.683381">
        <time>2022-07-05T14:58:31Z</time>
      </trkpt>
      <trkpt lat="42.271572" lon="-0.683381">
        <time>2022-07-05T14:58:34Z</time>
      </trkpt>
      <trkpt lat="42.271515" lon="-0.683385">
        <time>2022-07-05T14:58:37Z</time>
      </trkpt>
      <trkpt lat="42.271458" lon="-0.6833857">
        <time>2022-07-05T14:58:40Z</time>
      </trkpt>
      <trkpt lat="42.2714" lon="-0.6833797">
        <time>2022-07-05T14:58:43Z</time>
      </trkpt>
      <trkpt lat="42.27134" lon="-0.6833784">
        <time>2022-07-05T14:58:46Z</time>
      </trkpt>
      <trkpt lat="42.271286" lon="-0.683376">
        <time>2022-07-05T14:58:49Z</time>
      </trkpt>
      <trkpt lat="42.271225" lon="-0.6833717">
        <time>2022-07-05T14:58:52Z</time>
      </trkpt>
      <trkpt lat="42.27117" lon="-0.6833644">
        <time>2022-07-05T14:58:55Z</time>
      </trkpt>
      <trkpt lat="42.2711" lon="-0.68335235">
        <time>2022-07-05T14:58:59Z</time>
      </trkpt>
      <trkpt lat="42.271038" lon="-0.68334305">
        <time>2022-07-05T14:59:02Z</time>
      </trkpt>
      <trkpt lat="42.27098" lon="-0.6833314">
        <time>2022-07-05T14:59:05Z</time>
      </trkpt>
      <trkpt lat="42.270924" lon="-0.68332404">
        <time>2022-07-05T14:59:08Z</time>
      </trkpt>
      <trkpt lat="42.270866" lon="-0.68331206">
        <time>2022-07-05T14:59:11Z</time>
      </trkpt>
      <trkpt lat="42.27081" lon="-0.6832964">
        <time>2022-07-05T14:59:14Z</time>
      </trkpt>
      <trkpt lat="42.270752" lon="-0.68328005">
        <time>2022-07-05T14:59:17Z</time>
      </trkpt>
      <trkpt lat="42.2707" lon="-0.6832654">
        <time>2022-07-05T14:59:20Z</time>
      </trkpt>
      <trkpt lat="42.270645" lon="-0.68324673">
        <time>2022-07-05T14:59:23Z</time>
      </trkpt>
      <trkpt lat="42.270588" lon="-0.6832291">
        <time>2022-07-05T14:59:26Z</time>
      </trkpt>
      <trkpt lat="42.27053" lon="-0.6832061">
        <time>2022-07-05T14:59:29Z</time>
      </trkpt>
      <trkpt lat="42.270477" lon="-0.6831838">
        <time>2022-07-05T14:59:32Z</time>
      </trkpt>
      <trkpt lat="42.27042" lon="-0.68315977">
        <time>2022-07-05T14:59:35Z</time>
      </trkpt>
      <trkpt lat="42.27037" lon="-0.6831331">
        <time>2022-07-05T14:59:38Z</time>
      </trkpt>
      <trkpt lat="42.270317" lon="-0.68309945">
        <time>2022-07-05T14:59:41Z</time>
      </trkpt>
      <trkpt lat="42.270267" lon="-0.68306744">
        <time>2022-07-05T14:59:44Z</time>
      </trkpt>
      <trkpt lat="42.270214" lon="-0.6830388">
        <time>2022-07-05T14:59:47Z</time>
      </trkpt>
      <trkpt lat="42.270164" lon="-0.68300676">
        <time>2022-07-05T14:59:50Z</time>
      </trkpt>
      <trkpt lat="42.270107" lon="-0.6829751">
        <time>2022-07-05T14:59:53Z</time>
      </trkpt>
      <trkpt lat="42.270058" lon="-0.6829418">
        <time>2022-07-05T14:59:56Z</time>
      </trkpt>
      <trkpt lat="42.270008" lon="-0.68290514">
        <time>2022-07-05T14:59:59Z</time>
      </trkpt>
      <trkpt lat="42.26996" lon="-0.68286616">
        <time>2022-07-05T15:00:02Z</time>
      </trkpt>
      <trkpt lat="42.26991" lon="-0.6828258">
        <time>2022-07-05T15:00:05Z</time>
      </trkpt>
      <trkpt lat="42.26986" lon="-0.6827878">
        <time>2022-07-05T15:00:08Z</time>
      </trkpt>
      <trkpt lat="42.26981" lon="-0.68275017">
        <time>2022-07-05T15:00:11Z</time>
      </trkpt>
      <trkpt lat="42.269764" lon="-0.6827088">
        <time>2022-07-05T15:00:14Z</time>
      </trkpt>
      <trkpt lat="42.26972" lon="-0.68266714">
        <time>2022-07-05T15:00:17Z</time>
      </trkpt>
      <trkpt lat="42.269672" lon="-0.6826228">
        <time>2022-07-05T15:00:20Z</time>
      </trkpt>
      <trkpt lat="42.269627" lon="-0.68257815">
        <time>2022-07-05T15:00:23Z</time>
      </trkpt>
      <trkpt lat="42.26958" lon="-0.6825298">
        <time>2022-07-05T15:00:26Z</time>
      </trkpt>
      <trkpt lat="42.269543" lon="-0.68248284">
        <time>2022-07-05T15:00:29Z</time>
      </trkpt>
      <trkpt lat="42.269497" lon="-0.6824345">
        <time>2022-07-05T15:00:32Z</time>
      </trkpt>
      <trkpt lat="42.26945" lon="-0.68238115">
        <time>2022-07-05T15:00:35Z</time>
      </trkpt>
      <trkpt lat="42.269405" lon="-0.6823275">
        <time>2022-07-05T15:00:38Z</time>
      </trkpt>
      <trkpt lat="42.26936" lon="-0.6822765">
        <time>2022-07-05T15:00:41Z</time>
      </trkpt>
      <trkpt lat="42.26931" lon="-0.68222386">
        <time>2022-07-05T15:00:44Z</time>
      </trkpt>
      <trkpt lat="42.269264" lon="-0.68216586">
        <time>2022-07-05T15:00:47Z</time>
      </trkpt>
      <trkpt lat="42.26922" lon="-0.6821075">
        <time>2022-07-05T15:00:50Z</time>
      </trkpt>
      <trkpt lat="42.269173" lon="-0.68205184">
        <time>2022-07-05T15:00:53Z</time>
      </trkpt>
      <trkpt lat="42.269123" lon="-0.6819942">
        <time>2022-07-05T15:00:56Z</time>
      </trkpt>
      <trkpt lat="42.26908" lon="-0.6819352">
        <time>2022-07-05T15:00:59Z</time>
      </trkpt>
      <trkpt lat="42.26903" lon="-0.6818769">
        <time>2022-07-05T15:01:02Z</time>
      </trkpt>
      <trkpt lat="42.268982" lon="-0.68181556">
        <time>2022-07-05T15:01:05Z</time>
      </trkpt>
      <trkpt lat="42.268944" lon="-0.6817742">
        <time>2022-07-05T15:01:07Z</time>
      </trkpt>
      <trkpt lat="42.268894" lon="-0.68171257">
        <time>2022-07-05T15:01:10Z</time>
      </trkpt>
      <trkpt lat="42.268837" lon="-0.6816509">
        <time>2022-07-05T15:01:13Z</time>
      </trkpt>
      <trkpt lat="42.268795" lon="-0.6816092">
        <time>2022-07-05T15:01:15Z</time>
      </trkpt>
      <trkpt lat="42.268753" lon="-0.68156457">
        <time>2022-07-05T15:01:17Z</time>
      </trkpt>
      <trkpt lat="42.268707" lon="-0.68151623">
        <time>2022-07-05T15:01:19Z</time>
      </trkpt>
      <trkpt lat="42.268665" lon="-0.68146694">
        <time>2022-07-05T15:01:21Z</time>
      </trkpt>
      <trkpt lat="42.268623" lon="-0.6814146">
        <time>2022-07-05T15:01:23Z</time>
      </trkpt>
      <trkpt lat="42.268578" lon="-0.68135625">
        <time>2022-07-05T15:01:25Z</time>
      </trkpt>
      <trkpt lat="42.26853" lon="-0.6812956">
        <time>2022-07-05T15:01:27Z</time>
      </trkpt>
      <trkpt lat="42.268482" lon="-0.68123627">
        <time>2022-07-05T15:01:29Z</time>
      </trkpt>
      <trkpt lat="42.26843" lon="-0.68117493">
        <time>2022-07-05T15:01:31Z</time>
      </trkpt>
      <trkpt lat="42.268375" lon="-0.6811096">
        <time>2022-07-05T15:01:33Z</time>
      </trkpt>
      <trkpt lat="42.268322" lon="-0.68104494">
        <time>2022-07-05T15:01:35Z</time>
      </trkpt>
      <trkpt lat="42.268272" lon="-0.68098193">
        <time>2022-07-05T15:01:37Z</time>
      </trkpt>
      <trkpt lat="42.26822" lon="-0.6809116">
        <time>2022-07-05T15:01:39Z</time>
      </trkpt>
      <trkpt lat="42.26817" lon="-0.6808469">
        <time>2022-07-05T15:01:41Z</time>
      </trkpt>
      <trkpt lat="42.268116" lon="-0.6807833">
        <time>2022-07-05T15:01:43Z</time>
      </trkpt>
      <trkpt lat="42.268063" lon="-0.680716">
        <time>2022-07-05T15:01:45Z</time>
      </trkpt>
      <trkpt lat="42.26801" lon="-0.68064797">
        <time>2022-07-05T15:01:47Z</time>
      </trkpt>
      <trkpt lat="42.26795" lon="-0.6805756">
        <time>2022-07-05T15:01:49Z</time>
      </trkpt>
      <trkpt lat="42.267895" lon="-0.68050665">
        <time>2022-07-05T15:01:51Z</time>
      </trkpt>
      <trkpt lat="42.267834" lon="-0.68043363">
        <time>2022-07-05T15:01:53Z</time>
      </trkpt>
      <trkpt lat="42.267773" lon="-0.680357">
        <time>2022-07-05T15:01:55Z</time>
      </trkpt>
      <trkpt lat="42.26771" lon="-0.68027997">
        <time>2022-07-05T15:01:57Z</time>
      </trkpt>
      <trkpt lat="42.267643" lon="-0.6801963">
        <time>2022-07-05T15:01:59Z</time>
      </trkpt>
      <trkpt lat="42.267582" lon="-0.68011266">
        <time>2022-07-05T15:02:01Z</time>
      </trkpt>
      <trkpt lat="42.267517" lon="-0.68003565">
        <time>2022-07-05T15:02:03Z</time>
      </trkpt>
      <trkpt lat="42.267452" lon="-0.67996097">
        <time>2022-07-05T15:02:05Z</time>
      </trkpt>
      <trkpt lat="42.267395" lon="-0.6798883">
        <time>2022-07-05T15:02:07Z</time>
      </trkpt>
      <trkpt lat="42.267334" lon="-0.67981035">
        <time>2022-07-05T15:02:09Z</time>
      </trkpt>
      <trkpt lat="42.26727" lon="-0.679736">
        <time>2022-07-05T15:02:11Z</time>
      </trkpt>
      <trkpt lat="42.267212" lon="-0.6796667">
        <time>2022-07-05T15:02:13Z</time>
      </trkpt>
      <trkpt lat="42.267155" lon="-0.67959434">
        <time>2022-07-05T15:02:15Z</time>
      </trkpt>
      <trkpt lat="42.267097" lon="-0.67951936">
        <time>2022-07-05T15:02:17Z</time>
      </trkpt>
      <trkpt lat="42.267036" lon="-0.6794457">
        <time>2022-07-05T15:02:19Z</time>
      </trkpt>
      <trkpt lat="42.266975" lon="-0.67937136">
        <time>2022-07-05T15:02:21Z</time>
      </trkpt>
      <trkpt lat="42.266914" lon="-0.67929703">
        <time>2022-07-05T15:02:23Z</time>
      </trkpt>
      <trkpt lat="42.266846" lon="-0.679218">
        <time>2022-07-05T15:02:25Z</time>
      </trkpt>
      <trkpt lat="42.26678" lon="-0.67914104">
        <time>2022-07-05T15:02:27Z</time>
      </trkpt>
      <trkpt lat="42.266716" lon="-0.6790674">
        <time>2022-07-05T15:02:29Z</time>
      </trkpt>
      <trkpt lat="42.266647" lon="-0.6789867">
        <time>2022-07-05T15:02:31Z</time>
      </trkpt>
      <trkpt lat="42.266613" lon="-0.678946">
        <time>2022-07-05T15:02:32Z</time>
      </trkpt>
      <trkpt lat="42.26655" lon="-0.6788627">
        <time>2022-07-05T15:02:34Z</time>
      </trkpt>
      <trkpt lat="42.26648" lon="-0.678776">
        <time>2022-07-05T15:02:36Z</time>
      </trkpt>
      <trkpt lat="42.266403" lon="-0.6786811">
        <time>2022-07-05T15:02:38Z</time>
      </trkpt>
      <trkpt lat="42.26637" lon="-0.67863774">
        <time>2022-07-05T15:02:39Z</time>
      </trkpt>
      <trkpt lat="42.266296" lon="-0.67854774">
        <time>2022-07-05T15:02:41Z</time>
      </trkpt>
      <trkpt lat="42.26626" lon="-0.67850304">
        <time>2022-07-05T15:02:42Z</time>
      </trkpt>
      <trkpt lat="42.266186" lon="-0.67842007">
        <time>2022-07-05T15:02:44Z</time>
      </trkpt>
      <trkpt lat="42.266117" lon="-0.67833006">
        <time>2022-07-05T15:02:46Z</time>
      </trkpt>
      <trkpt lat="42.26608" lon="-0.67828876">
        <time>2022-07-05T15:02:47Z</time>
      </trkpt>
      <trkpt lat="42.26601" lon="-0.6782034">
        <time>2022-07-05T15:02:49Z</time>
      </trkpt>
      <trkpt lat="42.26594" lon="-0.6781197">
        <time>2022-07-05T15:02:51Z</time>
      </trkpt>
      <trkpt lat="42.265903" lon="-0.6780744">
        <time>2022-07-05T15:02:52Z</time>
      </trkpt>
      <trkpt lat="42.265835" lon="-0.6779897">
        <time>2022-07-05T15:02:54Z</time>
      </trkpt>
      <trkpt lat="42.265766" lon="-0.67790574">
        <time>2022-07-05T15:02:56Z</time>
      </trkpt>
      <trkpt lat="42.265694" lon="-0.6778197">
        <time>2022-07-05T15:02:58Z</time>
      </trkpt>
      <trkpt lat="42.26566" lon="-0.67777675">
        <time>2022-07-05T15:02:59Z</time>
      </trkpt>
      <trkpt lat="42.265587" lon="-0.67768943">
        <time>2022-07-05T15:03:01Z</time>
      </trkpt>
      <trkpt lat="42.26555" lon="-0.6776434">
        <time>2022-07-05T15:03:02Z</time>
      </trkpt>
      <trkpt lat="42.26548" lon="-0.6775564">
        <time>2022-07-05T15:03:04Z</time>
      </trkpt>
      <trkpt lat="42.26541" lon="-0.6774711">
        <time>2022-07-05T15:03:06Z</time>
      </trkpt>
      <trkpt lat="42.26534" lon="-0.67738545">
        <time>2022-07-05T15:03:08Z</time>
      </trkpt>
      <trkpt lat="42.26527" lon="-0.6772991">
        <time>2022-07-05T15:03:10Z</time>
      </trkpt>
      <trkpt lat="42.265194" lon="-0.6772101">
        <time>2022-07-05T15:03:12Z</time>
      </trkpt>
      <trkpt lat="42.265083" lon="-0.67707175">
        <time>2022-07-05T15:03:15Z</time>
      </trkpt>
      <trkpt lat="42.265007" lon="-0.6769834">
        <time>2022-07-05T15:03:17Z</time>
      </trkpt>
      <trkpt lat="42.26493" lon="-0.67689043">
        <time>2022-07-05T15:03:19Z</time>
      </trkpt>
      <trkpt lat="42.264893" lon="-0.67684644">
        <time>2022-07-05T15:03:20Z</time>
      </trkpt>
      <trkpt lat="42.26482" lon="-0.6767581">
        <time>2022-07-05T15:03:22Z</time>
      </trkpt>
      <trkpt lat="42.26474" lon="-0.6766645">
        <time>2022-07-05T15:03:24Z</time>
      </trkpt>
      <trkpt lat="42.2647" lon="-0.67661715">
        <time>2022-07-05T15:03:25Z</time>
      </trkpt>
      <trkpt lat="42.264664" lon="-0.6765698">
        <time>2022-07-05T15:03:26Z</time>
      </trkpt>
      <trkpt lat="42.264626" lon="-0.6765258">
        <time>2022-07-05T15:03:27Z</time>
      </trkpt>
      <trkpt lat="42.26455" lon="-0.6764298">
        <time>2022-07-05T15:03:29Z</time>
      </trkpt>
      <trkpt lat="42.26451" lon="-0.6763808">
        <time>2022-07-05T15:03:30Z</time>
      </trkpt>
      <trkpt lat="42.264473" lon="-0.6763328">
        <time>2022-07-05T15:03:31Z</time>
      </trkpt>
      <trkpt lat="42.264393" lon="-0.67623943">
        <time>2022-07-05T15:03:33Z</time>
      </trkpt>
      <trkpt lat="42.264355" lon="-0.6761938">
        <time>2022-07-05T15:03:34Z</time>
      </trkpt>
      <trkpt lat="42.264313" lon="-0.6761438">
        <time>2022-07-05T15:03:35Z</time>
      </trkpt>
      <trkpt lat="42.26427" lon="-0.67609346">
        <time>2022-07-05T15:03:36Z</time>
      </trkpt>
      <trkpt lat="42.26423" lon="-0.67604315">
        <time>2022-07-05T15:03:37Z</time>
      </trkpt>
      <trkpt lat="42.26419" lon="-0.67599547">
        <time>2022-07-05T15:03:38Z</time>
      </trkpt>
      <trkpt lat="42.26415" lon="-0.6759445">
        <time>2022-07-05T15:03:39Z</time>
      </trkpt>
      <trkpt lat="42.264107" lon="-0.67589384">
        <time>2022-07-05T15:03:40Z</time>
      </trkpt>
      <trkpt lat="42.264065" lon="-0.6758435">
        <time>2022-07-05T15:03:41Z</time>
      </trkpt>
      <trkpt lat="42.264023" lon="-0.67579347">
        <time>2022-07-05T15:03:42Z</time>
      </trkpt>
      <trkpt lat="42.263985" lon="-0.6757475">
        <time>2022-07-05T15:03:43Z</time>
      </trkpt>
      <trkpt lat="42.263947" lon="-0.67570186">
        <time>2022-07-05T15:03:44Z</time>
      </trkpt>
      <trkpt lat="42.263905" lon="-0.6756528">
        <time>2022-07-05T15:03:45Z</time>
      </trkpt>
      <trkpt lat="42.263866" lon="-0.6756048">
        <time>2022-07-05T15:03:46Z</time>
      </trkpt>
      <trkpt lat="42.263824" lon="-0.67555785">
        <time>2022-07-05T15:03:47Z</time>
      </trkpt>
      <trkpt lat="42.263752" lon="-0.6754695">
        <time>2022-07-05T15:03:49Z</time>
      </trkpt>
      <trkpt lat="42.263714" lon="-0.6754252">
        <time>2022-07-05T15:03:50Z</time>
      </trkpt>
      <trkpt lat="42.263638" lon="-0.67533183">
        <time>2022-07-05T15:03:52Z</time>
      </trkpt>
      <trkpt lat="42.2636" lon="-0.67528915">
        <time>2022-07-05T15:03:53Z</time>
      </trkpt>
      <trkpt lat="42.26353" lon="-0.6752032">
        <time>2022-07-05T15:03:55Z</time>
      </trkpt>
      <trkpt lat="42.26346" lon="-0.6751135">
        <time>2022-07-05T15:03:57Z</time>
      </trkpt>
      <trkpt lat="42.263386" lon="-0.67502785">
        <time>2022-07-05T15:03:59Z</time>
      </trkpt>
      <trkpt lat="42.263313" lon="-0.67494386">
        <time>2022-07-05T15:04:01Z</time>
      </trkpt>
      <trkpt lat="42.263275" lon="-0.67490256">
        <time>2022-07-05T15:04:02Z</time>
      </trkpt>
      <trkpt lat="42.263195" lon="-0.67481786">
        <time>2022-07-05T15:04:04Z</time>
      </trkpt>
      <trkpt lat="42.263115" lon="-0.6747349">
        <time>2022-07-05T15:04:06Z</time>
      </trkpt>
      <trkpt lat="42.263077" lon="-0.6746932">
        <time>2022-07-05T15:04:07Z</time>
      </trkpt>
      <trkpt lat="42.263" lon="-0.6746085">
        <time>2022-07-05T15:04:09Z</time>
      </trkpt>
      <trkpt lat="42.262928" lon="-0.6745312">
        <time>2022-07-05T15:04:11Z</time>
      </trkpt>
      <trkpt lat="42.262856" lon="-0.6744502">
        <time>2022-07-05T15:04:13Z</time>
      </trkpt>
      <trkpt lat="42.26282" lon="-0.6744109">
        <time>2022-07-05T15:04:14Z</time>
      </trkpt>
      <trkpt lat="42.26275" lon="-0.67432857">
        <time>2022-07-05T15:04:16Z</time>
      </trkpt>
      <trkpt lat="42.262672" lon="-0.67424226">
        <time>2022-07-05T15:04:18Z</time>
      </trkpt>
      <trkpt lat="42.2626" lon="-0.6741592">
        <time>2022-07-05T15:04:20Z</time>
      </trkpt>
      <trkpt lat="42.262527" lon="-0.67407256">
        <time>2022-07-05T15:04:22Z</time>
      </trkpt>
      <trkpt lat="42.262455" lon="-0.67398727">
        <time>2022-07-05T15:04:24Z</time>
      </trkpt>
      <trkpt lat="42.26238" lon="-0.67390156">
        <time>2022-07-05T15:04:26Z</time>
      </trkpt>
      <trkpt lat="42.262302" lon="-0.67381155">
        <time>2022-07-05T15:04:28Z</time>
      </trkpt>
      <trkpt lat="42.262268" lon="-0.6737696">
        <time>2022-07-05T15:04:29Z</time>
      </trkpt>
      <trkpt lat="42.2622" lon="-0.67369324">
        <time>2022-07-05T15:04:31Z</time>
      </trkpt>
      <trkpt lat="42.26213" lon="-0.6736089">
        <time>2022-07-05T15:04:33Z</time>
      </trkpt>
      <trkpt lat="42.262066" lon="-0.6735226">
        <time>2022-07-05T15:04:35Z</time>
      </trkpt>
      <trkpt lat="42.262005" lon="-0.6734479">
        <time>2022-07-05T15:04:37Z</time>
      </trkpt>
      <trkpt lat="42.26194" lon="-0.6733716">
        <time>2022-07-05T15:04:39Z</time>
      </trkpt>
      <trkpt lat="42.261875" lon="-0.67329025">
        <time>2022-07-05T15:04:41Z</time>
      </trkpt>
      <trkpt lat="42.261818" lon="-0.67320794">
        <time>2022-07-05T15:04:43Z</time>
      </trkpt>
      <trkpt lat="42.26176" lon="-0.67312163">
        <time>2022-07-05T15:04:45Z</time>
      </trkpt>
      <trkpt lat="42.261703" lon="-0.67303294">
        <time>2022-07-05T15:04:47Z</time>
      </trkpt>
      <trkpt lat="42.261646" lon="-0.67293894">
        <time>2022-07-05T15:04:49Z</time>
      </trkpt>
      <trkpt lat="42.261585" lon="-0.6728516">
        <time>2022-07-05T15:04:51Z</time>
      </trkpt>
      <trkpt lat="42.261528" lon="-0.67277193">
        <time>2022-07-05T15:04:53Z</time>
      </trkpt>
      <trkpt lat="42.26146" lon="-0.6726913">
        <time>2022-07-05T15:04:55Z</time>
      </trkpt>
      <trkpt lat="42.261395" lon="-0.6726093">
        <time>2022-07-05T15:04:57Z</time>
      </trkpt>
      <trkpt lat="42.261326" lon="-0.6725276">
        <time>2022-07-05T15:04:59Z</time>
      </trkpt>
      <trkpt lat="42.261253" lon="-0.6724473">
        <time>2022-07-05T15:05:01Z</time>
      </trkpt>
      <trkpt lat="42.261223" lon="-0.67240965">
        <time>2022-07-05T15:05:02Z</time>
      </trkpt>
      <trkpt lat="42.261158" lon="-0.67232966">
        <time>2022-07-05T15:05:04Z</time>
      </trkpt>
      <trkpt lat="42.26109" lon="-0.6722453">
        <time>2022-07-05T15:05:06Z</time>
      </trkpt>
      <trkpt lat="42.26102" lon="-0.6721623">
        <time>2022-07-05T15:05:08Z</time>
      </trkpt>
      <trkpt lat="42.260956" lon="-0.672082">
        <time>2022-07-05T15:05:10Z</time>
      </trkpt>
      <trkpt lat="42.260887" lon="-0.6720033">
        <time>2022-07-05T15:05:12Z</time>
      </trkpt>
      <trkpt lat="42.260826" lon="-0.6719263">
        <time>2022-07-05T15:05:14Z</time>
      </trkpt>
      <trkpt lat="42.26076" lon="-0.671842">
        <time>2022-07-05T15:05:16Z</time>
      </trkpt>
      <trkpt lat="42.260693" lon="-0.671762">
        <time>2022-07-05T15:05:18Z</time>
      </trkpt>
      <trkpt lat="42.26059" lon="-0.67164">
        <time>2022-07-05T15:05:21Z</time>
      </trkpt>
      <trkpt lat="42.26052" lon="-0.671559">
        <time>2022-07-05T15:05:23Z</time>
      </trkpt>
      <trkpt lat="42.260456" lon="-0.6714777">
        <time>2022-07-05T15:05:25Z</time>
      </trkpt>
      <trkpt lat="42.260384" lon="-0.6713883">
        <time>2022-07-05T15:05:27Z</time>
      </trkpt>
      <trkpt lat="42.260315" lon="-0.67130303">
        <time>2022-07-05T15:05:29Z</time>
      </trkpt>
      <trkpt lat="42.260246" lon="-0.6712177">
        <time>2022-07-05T15:05:31Z</time>
      </trkpt>
      <trkpt lat="42.26021" lon="-0.671172">
        <time>2022-07-05T15:05:32Z</time>
      </trkpt>
      <trkpt lat="42.26014" lon="-0.6710874">
        <time>2022-07-05T15:05:34Z</time>
      </trkpt>
      <trkpt lat="42.260105" lon="-0.6710447">
        <time>2022-07-05T15:05:35Z</time>
      </trkpt>
      <trkpt lat="42.26003" lon="-0.6709534">
        <time>2022-07-05T15:05:37Z</time>
      </trkpt>
      <trkpt lat="42.25996" lon="-0.6708634">
        <time>2022-07-05T15:05:39Z</time>
      </trkpt>
      <trkpt lat="42.25989" lon="-0.67076874">
        <time>2022-07-05T15:05:41Z</time>
      </trkpt>
      <trkpt lat="42.259853" lon="-0.6707227">
        <time>2022-07-05T15:05:42Z</time>
      </trkpt>
      <trkpt lat="42.259777" lon="-0.6706387">
        <time>2022-07-05T15:05:44Z</time>
      </trkpt>
      <trkpt lat="42.259697" lon="-0.6705507">
        <time>2022-07-05T15:05:46Z</time>
      </trkpt>
      <trkpt lat="42.25966" lon="-0.67050505">
        <time>2022-07-05T15:05:47Z</time>
      </trkpt>
      <trkpt lat="42.259583" lon="-0.67041737">
        <time>2022-07-05T15:05:49Z</time>
      </trkpt>
      <trkpt lat="42.259506" lon="-0.6703244">
        <time>2022-07-05T15:05:51Z</time>
      </trkpt>
      <trkpt lat="42.259464" lon="-0.6702777">
        <time>2022-07-05T15:05:52Z</time>
      </trkpt>
      <trkpt lat="42.259426" lon="-0.6702314">
        <time>2022-07-05T15:05:53Z</time>
      </trkpt>
      <trkpt lat="42.259384" lon="-0.67018473">
        <time>2022-07-05T15:05:54Z</time>
      </trkpt>
      <trkpt lat="42.259346" lon="-0.67013776">
        <time>2022-07-05T15:05:55Z</time>
      </trkpt>
      <trkpt lat="42.25927" lon="-0.67004544">
        <time>2022-07-05T15:05:57Z</time>
      </trkpt>
      <trkpt lat="42.25923" lon="-0.66999876">
        <time>2022-07-05T15:05:58Z</time>
      </trkpt>
      <trkpt lat="42.25916" lon="-0.6699081">
        <time>2022-07-05T15:06:00Z</time>
      </trkpt>
      <trkpt lat="42.25909" lon="-0.6698201">
        <time>2022-07-05T15:06:02Z</time>
      </trkpt>
      <trkpt lat="42.259014" lon="-0.66972744">
        <time>2022-07-05T15:06:04Z</time>
      </trkpt>
      <trkpt lat="42.258945" lon="-0.6696421">
        <time>2022-07-05T15:06:06Z</time>
      </trkpt>
      <trkpt lat="42.258907" lon="-0.66959846">
        <time>2022-07-05T15:06:07Z</time>
      </trkpt>
      <trkpt lat="42.258835" lon="-0.6695104">
        <time>2022-07-05T15:06:09Z</time>
      </trkpt>
      <trkpt lat="42.25876" lon="-0.66941845">
        <time>2022-07-05T15:06:11Z</time>
      </trkpt>
      <trkpt lat="42.25872" lon="-0.66937375">
        <time>2022-07-05T15:06:12Z</time>
      </trkpt>
      <trkpt lat="42.258644" lon="-0.66928476">
        <time>2022-07-05T15:06:14Z</time>
      </trkpt>
      <trkpt lat="42.25857" lon="-0.6691961">
        <time>2022-07-05T15:06:16Z</time>
      </trkpt>
      <trkpt lat="42.258495" lon="-0.6691061">
        <time>2022-07-05T15:06:18Z</time>
      </trkpt>
      <trkpt lat="42.258423" lon="-0.6690151">
        <time>2022-07-05T15:06:20Z</time>
      </trkpt>
      <trkpt lat="42.258385" lon="-0.6689698">
        <time>2022-07-05T15:06:21Z</time>
      </trkpt>
      <trkpt lat="42.25831" lon="-0.6688778">
        <time>2022-07-05T15:06:23Z</time>
      </trkpt>
      <trkpt lat="42.25823" lon="-0.6687838">
        <time>2022-07-05T15:06:25Z</time>
      </trkpt>
      <trkpt lat="42.25819" lon="-0.66873944">
        <time>2022-07-05T15:06:26Z</time>
      </trkpt>
      <trkpt lat="42.258156" lon="-0.66869444">
        <time>2022-07-05T15:06:27Z</time>
      </trkpt>
      <trkpt lat="42.258076" lon="-0.66860014">
        <time>2022-07-05T15:06:29Z</time>
      </trkpt>
      <trkpt lat="42.258038" lon="-0.6685558">
        <time>2022-07-05T15:06:30Z</time>
      </trkpt>
      <trkpt lat="42.257996" lon="-0.6685105">
        <time>2022-07-05T15:06:31Z</time>
      </trkpt>
      <trkpt lat="42.257957" lon="-0.6684695">
        <time>2022-07-05T15:06:32Z</time>
      </trkpt>
      <trkpt lat="42.257874" lon="-0.6683858">
        <time>2022-07-05T15:06:34Z</time>
      </trkpt>
      <trkpt lat="42.25779" lon="-0.66830146">
        <time>2022-07-05T15:06:36Z</time>
      </trkpt>
      <trkpt lat="42.25775" lon="-0.6682618">
        <time>2022-07-05T15:06:37Z</time>
      </trkpt>
      <trkpt lat="42.25767" lon="-0.6681745">
        <time>2022-07-05T15:06:39Z</time>
      </trkpt>
      <trkpt lat="42.257633" lon="-0.6681312">
        <time>2022-07-05T15:06:40Z</time>
      </trkpt>
      <trkpt lat="42.25759" lon="-0.6680872">
        <time>2022-07-05T15:06:41Z</time>
      </trkpt>
      <trkpt lat="42.25752" lon="-0.6680012">
        <time>2022-07-05T15:06:43Z</time>
      </trkpt>
      <trkpt lat="42.257442" lon="-0.6679105">
        <time>2022-07-05T15:06:45Z</time>
      </trkpt>
      <trkpt lat="42.257404" lon="-0.6678635">
        <time>2022-07-05T15:06:46Z</time>
      </trkpt>
      <trkpt lat="42.257366" lon="-0.6678165">
        <time>2022-07-05T15:06:47Z</time>
      </trkpt>
      <trkpt lat="42.25733" lon="-0.6677725">
        <time>2022-07-05T15:06:48Z</time>
      </trkpt>
      <trkpt lat="42.257256" lon="-0.6676782">
        <time>2022-07-05T15:06:50Z</time>
      </trkpt>
      <trkpt lat="42.257217" lon="-0.66762984">
        <time>2022-07-05T15:06:51Z</time>
      </trkpt>
      <trkpt lat="42.25714" lon="-0.66753817">
        <time>2022-07-05T15:06:53Z</time>
      </trkpt>
      <trkpt lat="42.257103" lon="-0.6674935">
        <time>2022-07-05T15:06:54Z</time>
      </trkpt>
      <trkpt lat="42.257027" lon="-0.6673975">
        <time>2022-07-05T15:06:56Z</time>
      </trkpt>
      <trkpt lat="42.25699" lon="-0.6673499">
        <time>2022-07-05T15:06:57Z</time>
      </trkpt>
      <trkpt lat="42.25695" lon="-0.6673035">
        <time>2022-07-05T15:06:58Z</time>
      </trkpt>
      <trkpt lat="42.256912" lon="-0.6672619">
        <time>2022-07-05T15:06:59Z</time>
      </trkpt>
      <trkpt lat="42.256832" lon="-0.66717154">
        <time>2022-07-05T15:07:01Z</time>
      </trkpt>
      <trkpt lat="42.256794" lon="-0.66712356">
        <time>2022-07-05T15:07:02Z</time>
      </trkpt>
      <trkpt lat="42.256718" lon="-0.6670322">
        <time>2022-07-05T15:07:04Z</time>
      </trkpt>
      <trkpt lat="42.25668" lon="-0.6669862">
        <time>2022-07-05T15:07:05Z</time>
      </trkpt>
      <trkpt lat="42.256603" lon="-0.6668872">
        <time>2022-07-05T15:07:07Z</time>
      </trkpt>
      <trkpt lat="42.25657" lon="-0.66683424">
        <time>2022-07-05T15:07:08Z</time>
      </trkpt>
      <trkpt lat="42.25653" lon="-0.6667842">
        <time>2022-07-05T15:07:09Z</time>
      </trkpt>
      <trkpt lat="42.256496" lon="-0.66672987">
        <time>2022-07-05T15:07:10Z</time>
      </trkpt>
      <trkpt lat="42.25646" lon="-0.66667485">
        <time>2022-07-05T15:07:11Z</time>
      </trkpt>
      <trkpt lat="42.25642" lon="-0.66662055">
        <time>2022-07-05T15:07:12Z</time>
      </trkpt>
      <trkpt lat="42.256382" lon="-0.6665669">
        <time>2022-07-05T15:07:13Z</time>
      </trkpt>
      <trkpt lat="42.256348" lon="-0.66651887">
        <time>2022-07-05T15:07:14Z</time>
      </trkpt>
      <trkpt lat="42.25631" lon="-0.66646856">
        <time>2022-07-05T15:07:15Z</time>
      </trkpt>
      <trkpt lat="42.256268" lon="-0.66641825">
        <time>2022-07-05T15:07:16Z</time>
      </trkpt>
      <trkpt lat="42.25623" lon="-0.66636854">
        <time>2022-07-05T15:07:17Z</time>
      </trkpt>
      <trkpt lat="42.25619" lon="-0.6663186">
        <time>2022-07-05T15:07:18Z</time>
      </trkpt>
      <trkpt lat="42.256153" lon="-0.6662676">
        <time>2022-07-05T15:07:19Z</time>
      </trkpt>
      <trkpt lat="42.25611" lon="-0.66621655">
        <time>2022-07-05T15:07:20Z</time>
      </trkpt>
      <trkpt lat="42.256073" lon="-0.66616756">
        <time>2022-07-05T15:07:21Z</time>
      </trkpt>
      <trkpt lat="42.25603" lon="-0.66611594">
        <time>2022-07-05T15:07:22Z</time>
      </trkpt>
      <trkpt lat="42.25599" lon="-0.66606325">
        <time>2022-07-05T15:07:23Z</time>
      </trkpt>
      <trkpt lat="42.255943" lon="-0.66600925">
        <time>2022-07-05T15:07:24Z</time>
      </trkpt>
      <trkpt lat="42.2559" lon="-0.66595393">
        <time>2022-07-05T15:07:25Z</time>
      </trkpt>
      <trkpt lat="42.25586" lon="-0.66589826">
        <time>2022-07-05T15:07:26Z</time>
      </trkpt>
      <trkpt lat="42.25581" lon="-0.6658376">
        <time>2022-07-05T15:07:27Z</time>
      </trkpt>
      <trkpt lat="42.255714" lon="-0.6657123">
        <time>2022-07-05T15:07:29Z</time>
      </trkpt>
      <trkpt lat="42.255672" lon="-0.66565096">
        <time>2022-07-05T15:07:30Z</time>
      </trkpt>
      <trkpt lat="42.255623" lon="-0.66558194">
        <time>2022-07-05T15:07:31Z</time>
      </trkpt>
      <trkpt lat="42.255577" lon="-0.66551197">
        <time>2022-07-05T15:07:32Z</time>
      </trkpt>
      <trkpt lat="42.25553" lon="-0.6654393">
        <time>2022-07-05T15:07:33Z</time>
      </trkpt>
      <trkpt lat="42.255486" lon="-0.66536325">
        <time>2022-07-05T15:07:34Z</time>
      </trkpt>
      <trkpt lat="42.255444" lon="-0.66528594">
        <time>2022-07-05T15:07:35Z</time>
      </trkpt>
      <trkpt lat="42.255398" lon="-0.6652079">
        <time>2022-07-05T15:07:36Z</time>
      </trkpt>
      <trkpt lat="42.255356" lon="-0.66512865">
        <time>2022-07-05T15:07:37Z</time>
      </trkpt>
      <trkpt lat="42.255314" lon="-0.66504496">
        <time>2022-07-05T15:07:38Z</time>
      </trkpt>
      <trkpt lat="42.255272" lon="-0.66495866">
        <time>2022-07-05T15:07:39Z</time>
      </trkpt>
      <trkpt lat="42.25523" lon="-0.6648703">
        <time>2022-07-05T15:07:40Z</time>
      </trkpt>
      <trkpt lat="42.255188" lon="-0.6647813">
        <time>2022-07-05T15:07:41Z</time>
      </trkpt>
      <trkpt lat="42.25515" lon="-0.6646903">
        <time>2022-07-05T15:07:42Z</time>
      </trkpt>
      <trkpt lat="42.25511" lon="-0.664597">
        <time>2022-07-05T15:07:43Z</time>
      </trkpt>
      <trkpt lat="42.255077" lon="-0.6645013">
        <time>2022-07-05T15:07:44Z</time>
      </trkpt>
      <trkpt lat="42.255043" lon="-0.66440433">
        <time>2022-07-05T15:07:45Z</time>
      </trkpt>
      <trkpt lat="42.255013" lon="-0.6643056">
        <time>2022-07-05T15:07:46Z</time>
      </trkpt>
      <trkpt lat="42.254986" lon="-0.6642063">
        <time>2022-07-05T15:07:47Z</time>
      </trkpt>
      <trkpt lat="42.25496" lon="-0.664112">
        <time>2022-07-05T15:07:48Z</time>
      </trkpt>
      <trkpt lat="42.254932" lon="-0.66401297">
        <time>2022-07-05T15:07:49Z</time>
      </trkpt>
      <trkpt lat="42.25491" lon="-0.6639107">
        <time>2022-07-05T15:07:50Z</time>
      </trkpt>
      <trkpt lat="42.254887" lon="-0.663805">
        <time>2022-07-05T15:07:51Z</time>
      </trkpt>
      <trkpt lat="42.254868" lon="-0.66369635">
        <time>2022-07-05T15:07:52Z</time>
      </trkpt>
      <trkpt lat="42.25485" lon="-0.66358536">
        <time>2022-07-05T15:07:53Z</time>
      </trkpt>
      <trkpt lat="42.25483" lon="-0.6634717">
        <time>2022-07-05T15:07:54Z</time>
      </trkpt>
      <trkpt lat="42.254814" lon="-0.66335535">
        <time>2022-07-05T15:07:55Z</time>
      </trkpt>
      <trkpt lat="42.254803" lon="-0.66323566">
        <time>2022-07-05T15:07:56Z</time>
      </trkpt>
      <trkpt lat="42.254787" lon="-0.663115">
        <time>2022-07-05T15:07:57Z</time>
      </trkpt>
      <trkpt lat="42.25478" lon="-0.6629927">
        <time>2022-07-05T15:07:58Z</time>
      </trkpt>
      <trkpt lat="42.254772" lon="-0.662868">
        <time>2022-07-05T15:07:59Z</time>
      </trkpt>
      <trkpt lat="42.254765" lon="-0.66273105">
        <time>2022-07-05T15:08:00Z</time>
      </trkpt>
      <trkpt lat="42.25476" lon="-0.6625944">
        <time>2022-07-05T15:08:01Z</time>
      </trkpt>
      <trkpt lat="42.254753" lon="-0.6624574">
        <time>2022-07-05T15:08:02Z</time>
      </trkpt>
      <trkpt lat="42.25475" lon="-0.66232073">
        <time>2022-07-05T15:08:03Z</time>
      </trkpt>
      <trkpt lat="42.25474" lon="-0.6621824">
        <time>2022-07-05T15:08:04Z</time>
      </trkpt>
      <trkpt lat="42.254734" lon="-0.66204304">
        <time>2022-07-05T15:08:05Z</time>
      </trkpt>
      <trkpt lat="42.25473" lon="-0.66190106">
        <time>2022-07-05T15:08:06Z</time>
      </trkpt>
      <trkpt lat="42.254723" lon="-0.6617577">
        <time>2022-07-05T15:08:07Z</time>
      </trkpt>
      <trkpt lat="42.254715" lon="-0.6616111">
        <time>2022-07-05T15:08:08Z</time>
      </trkpt>
      <trkpt lat="42.25471" lon="-0.66146106">
        <time>2022-07-05T15:08:09Z</time>
      </trkpt>
      <trkpt lat="42.254707" lon="-0.6613101">
        <time>2022-07-05T15:08:10Z</time>
      </trkpt>
      <trkpt lat="42.254704" lon="-0.6611577">
        <time>2022-07-05T15:08:11Z</time>
      </trkpt>
      <trkpt lat="42.2547" lon="-0.66100407">
        <time>2022-07-05T15:08:12Z</time>
      </trkpt>
      <trkpt lat="42.25469" lon="-0.66084975">
        <time>2022-07-05T15:08:13Z</time>
      </trkpt>
      <trkpt lat="42.254677" lon="-0.66069543">
        <time>2022-07-05T15:08:14Z</time>
      </trkpt>
      <trkpt lat="42.254658" lon="-0.66054076">
        <time>2022-07-05T15:08:15Z</time>
      </trkpt>
      <trkpt lat="42.254635" lon="-0.66038674">
        <time>2022-07-05T15:08:16Z</time>
      </trkpt>
      <trkpt lat="42.254612" lon="-0.66023344">
        <time>2022-07-05T15:08:17Z</time>
      </trkpt>
      <trkpt lat="42.254585" lon="-0.66008043">
        <time>2022-07-05T15:08:18Z</time>
      </trkpt>
      <trkpt lat="42.254555" lon="-0.65992844">
        <time>2022-07-05T15:08:19Z</time>
      </trkpt>
      <trkpt lat="42.254524" lon="-0.6597881">
        <time>2022-07-05T15:08:20Z</time>
      </trkpt>
      <trkpt lat="42.254494" lon="-0.65964675">
        <time>2022-07-05T15:08:21Z</time>
      </trkpt>
      <trkpt lat="42.254456" lon="-0.6594958">
        <time>2022-07-05T15:08:22Z</time>
      </trkpt>
      <trkpt lat="42.254417" lon="-0.6593388">
        <time>2022-07-05T15:08:23Z</time>
      </trkpt>
      <trkpt lat="42.25438" lon="-0.6591864">
        <time>2022-07-05T15:08:24Z</time>
      </trkpt>
      <trkpt lat="42.254345" lon="-0.6590474">
        <time>2022-07-05T15:08:25Z</time>
      </trkpt>
      <trkpt lat="42.254307" lon="-0.6589084">
        <time>2022-07-05T15:08:26Z</time>
      </trkpt>
      <trkpt lat="42.254265" lon="-0.65876913">
        <time>2022-07-05T15:08:27Z</time>
      </trkpt>
      <trkpt lat="42.254227" lon="-0.6586298">
        <time>2022-07-05T15:08:28Z</time>
      </trkpt>
      <trkpt lat="42.25419" lon="-0.6584901">
        <time>2022-07-05T15:08:29Z</time>
      </trkpt>
      <trkpt lat="42.25415" lon="-0.65835077">
        <time>2022-07-05T15:08:30Z</time>
      </trkpt>
      <trkpt lat="42.25407" lon="-0.65807277">
        <time>2022-07-05T15:08:32Z</time>
      </trkpt>
      <trkpt lat="42.254032" lon="-0.6579338">
        <time>2022-07-05T15:08:33Z</time>
      </trkpt>
      <trkpt lat="42.253994" lon="-0.65779513">
        <time>2022-07-05T15:08:34Z</time>
      </trkpt>
      <trkpt lat="42.253956" lon="-0.6576565">
        <time>2022-07-05T15:08:35Z</time>
      </trkpt>
      <trkpt lat="42.253918" lon="-0.6575175">
        <time>2022-07-05T15:08:36Z</time>
      </trkpt>
      <trkpt lat="42.25388" lon="-0.6573775">
        <time>2022-07-05T15:08:37Z</time>
      </trkpt>
      <trkpt lat="42.253838" lon="-0.65723747">
        <time>2022-07-05T15:08:38Z</time>
      </trkpt>
      <trkpt lat="42.2538" lon="-0.6570968">
        <time>2022-07-05T15:08:39Z</time>
      </trkpt>
      <trkpt lat="42.25376" lon="-0.65695715">
        <time>2022-07-05T15:08:40Z</time>
      </trkpt>
      <trkpt lat="42.253723" lon="-0.6568188">
        <time>2022-07-05T15:08:41Z</time>
      </trkpt>
      <trkpt lat="42.253685" lon="-0.65668184">
        <time>2022-07-05T15:08:42Z</time>
      </trkpt>
      <trkpt lat="42.253647" lon="-0.6565465">
        <time>2022-07-05T15:08:43Z</time>
      </trkpt>
      <trkpt lat="42.253605" lon="-0.65641284">
        <time>2022-07-05T15:08:44Z</time>
      </trkpt>
      <trkpt lat="42.253567" lon="-0.6562805">
        <time>2022-07-05T15:08:45Z</time>
      </trkpt>
      <trkpt lat="42.25353" lon="-0.65614885">
        <time>2022-07-05T15:08:46Z</time>
      </trkpt>
      <trkpt lat="42.25349" lon="-0.65601885">
        <time>2022-07-05T15:08:47Z</time>
      </trkpt>
      <trkpt lat="42.253452" lon="-0.6558905">
        <time>2022-07-05T15:08:48Z</time>
      </trkpt>
      <trkpt lat="42.253418" lon="-0.6557632">
        <time>2022-07-05T15:08:49Z</time>
      </trkpt>
      <trkpt lat="42.25338" lon="-0.65563786">
        <time>2022-07-05T15:08:50Z</time>
      </trkpt>
      <trkpt lat="42.25335" lon="-0.6555142">
        <time>2022-07-05T15:08:51Z</time>
      </trkpt>
      <trkpt lat="42.253315" lon="-0.65539217">
        <time>2022-07-05T15:08:52Z</time>
      </trkpt>
      <trkpt lat="42.253284" lon="-0.6552719">
        <time>2022-07-05T15:08:53Z</time>
      </trkpt>
      <trkpt lat="42.25325" lon="-0.6551542">
        <time>2022-07-05T15:08:54Z</time>
      </trkpt>
      <trkpt lat="42.253212" lon="-0.6550312">
        <time>2022-07-05T15:08:55Z</time>
      </trkpt>
      <trkpt lat="42.25318" lon="-0.6549212">
        <time>2022-07-05T15:08:56Z</time>
      </trkpt>
      <trkpt lat="42.253147" lon="-0.65481156">
        <time>2022-07-05T15:08:57Z</time>
      </trkpt>
      <trkpt lat="42.253113" lon="-0.65470254">
        <time>2022-07-05T15:08:58Z</time>
      </trkpt>
      <trkpt lat="42.253082" lon="-0.6545942">
        <time>2022-07-05T15:08:59Z</time>
      </trkpt>
      <trkpt lat="42.253048" lon="-0.65448755">
        <time>2022-07-05T15:09:00Z</time>
      </trkpt>
      <trkpt lat="42.253014" lon="-0.6543825">
        <time>2022-07-05T15:09:01Z</time>
      </trkpt>
      <trkpt lat="42.252983" lon="-0.6542786">
        <time>2022-07-05T15:09:02Z</time>
      </trkpt>
      <trkpt lat="42.252956" lon="-0.6541756">
        <time>2022-07-05T15:09:03Z</time>
      </trkpt>
      <trkpt lat="42.252926" lon="-0.6540739">
        <time>2022-07-05T15:09:04Z</time>
      </trkpt>
      <trkpt lat="42.252895" lon="-0.6539739">
        <time>2022-07-05T15:09:05Z</time>
      </trkpt>
      <trkpt lat="42.252865" lon="-0.65387625">
        <time>2022-07-05T15:09:06Z</time>
      </trkpt>
      <trkpt lat="42.252834" lon="-0.6537809">
        <time>2022-07-05T15:09:07Z</time>
      </trkpt>
      <trkpt lat="42.252804" lon="-0.6536879">
        <time>2022-07-05T15:09:08Z</time>
      </trkpt>
      <trkpt lat="42.252777" lon="-0.6535976">
        <time>2022-07-05T15:09:09Z</time>
      </trkpt>
      <trkpt lat="42.252747" lon="-0.6535102">
        <time>2022-07-05T15:09:10Z</time>
      </trkpt>
      <trkpt lat="42.252716" lon="-0.6534249">
        <time>2022-07-05T15:09:11Z</time>
      </trkpt>
      <trkpt lat="42.25268" lon="-0.6533439">
        <time>2022-07-05T15:09:12Z</time>
      </trkpt>
      <trkpt lat="42.252647" lon="-0.6532669">
        <time>2022-07-05T15:09:13Z</time>
      </trkpt>
      <trkpt lat="42.252617" lon="-0.65319324">
        <time>2022-07-05T15:09:14Z</time>
      </trkpt>
      <trkpt lat="42.252583" lon="-0.65312195">
        <time>2022-07-05T15:09:15Z</time>
      </trkpt>
      <trkpt lat="42.252552" lon="-0.65305257">
        <time>2022-07-05T15:09:16Z</time>
      </trkpt>
      <trkpt lat="42.252518" lon="-0.6529849">
        <time>2022-07-05T15:09:17Z</time>
      </trkpt>
      <trkpt lat="42.252483" lon="-0.6529186">
        <time>2022-07-05T15:09:18Z</time>
      </trkpt>
      <trkpt lat="42.25245" lon="-0.65285426">
        <time>2022-07-05T15:09:19Z</time>
      </trkpt>
      <trkpt lat="42.252415" lon="-0.6527923">
        <time>2022-07-05T15:09:20Z</time>
      </trkpt>
      <trkpt lat="42.25238" lon="-0.65273297">
        <time>2022-07-05T15:09:21Z</time>
      </trkpt>
      <trkpt lat="42.252342" lon="-0.6526759">
        <time>2022-07-05T15:09:22Z</time>
      </trkpt>
      <trkpt lat="42.252308" lon="-0.65262127">
        <time>2022-07-05T15:09:23Z</time>
      </trkpt>
      <trkpt lat="42.252274" lon="-0.65256864">
        <time>2022-07-05T15:09:24Z</time>
      </trkpt>
      <trkpt lat="42.25224" lon="-0.652519">
        <time>2022-07-05T15:09:25Z</time>
      </trkpt>
      <trkpt lat="42.25217" lon="-0.65242493">
        <time>2022-07-05T15:09:27Z</time>
      </trkpt>
      <trkpt lat="42.25211" lon="-0.65234095">
        <time>2022-07-05T15:09:29Z</time>
      </trkpt>
      <trkpt lat="42.252045" lon="-0.65226096">
        <time>2022-07-05T15:09:31Z</time>
      </trkpt>
      <trkpt lat="42.251957" lon="-0.652159">
        <time>2022-07-05T15:09:34Z</time>
      </trkpt>
      <trkpt lat="42.2519" lon="-0.65209895">
        <time>2022-07-05T15:09:36Z</time>
      </trkpt>
      <trkpt lat="42.251842" lon="-0.6520443">
        <time>2022-07-05T15:09:38Z</time>
      </trkpt>
      <trkpt lat="42.25179" lon="-0.65199167">
        <time>2022-07-05T15:09:40Z</time>
      </trkpt>
      <trkpt lat="42.251736" lon="-0.65194">
        <time>2022-07-05T15:09:42Z</time>
      </trkpt>
      <trkpt lat="42.251686" lon="-0.651899">
        <time>2022-07-05T15:09:44Z</time>
      </trkpt>
      <trkpt lat="42.251637" lon="-0.6518573">
        <time>2022-07-05T15:09:46Z</time>
      </trkpt>
      <trkpt lat="42.251587" lon="-0.65181834">
        <time>2022-07-05T15:09:48Z</time>
      </trkpt>
      <trkpt lat="42.251537" lon="-0.6517817">
        <time>2022-07-05T15:09:50Z</time>
      </trkpt>
      <trkpt lat="42.251488" lon="-0.651745">
        <time>2022-07-05T15:09:52Z</time>
      </trkpt>
      <trkpt lat="42.251442" lon="-0.65171134">
        <time>2022-07-05T15:09:54Z</time>
      </trkpt>
      <trkpt lat="42.251396" lon="-0.65167767">
        <time>2022-07-05T15:09:56Z</time>
      </trkpt>
      <trkpt lat="42.251324" lon="-0.651627">
        <time>2022-07-05T15:09:59Z</time>
      </trkpt>
      <trkpt lat="42.251274" lon="-0.651596">
        <time>2022-07-05T15:10:01Z</time>
      </trkpt>
      <trkpt lat="42.251225" lon="-0.6515577">
        <time>2022-07-05T15:10:03Z</time>
      </trkpt>
      <trkpt lat="42.25118" lon="-0.65152204">
        <time>2022-07-05T15:10:05Z</time>
      </trkpt>
      <trkpt lat="42.25113" lon="-0.651489">
        <time>2022-07-05T15:10:07Z</time>
      </trkpt>
      <trkpt lat="42.25108" lon="-0.65145504">
        <time>2022-07-05T15:10:09Z</time>
      </trkpt>
      <trkpt lat="42.25103" lon="-0.65142137">
        <time>2022-07-05T15:10:11Z</time>
      </trkpt>
      <trkpt lat="42.250988" lon="-0.6513897">
        <time>2022-07-05T15:10:13Z</time>
      </trkpt>
      <trkpt lat="42.250923" lon="-0.65134406">
        <time>2022-07-05T15:10:16Z</time>
      </trkpt>
      <trkpt lat="42.250862" lon="-0.6512994">
        <time>2022-07-05T15:10:19Z</time>
      </trkpt>
      <trkpt lat="42.250805" lon="-0.65126073">
        <time>2022-07-05T15:10:22Z</time>
      </trkpt>
      <trkpt lat="42.250748" lon="-0.6512224">
        <time>2022-07-05T15:10:25Z</time>
      </trkpt>
      <trkpt lat="42.250687" lon="-0.65118104">
        <time>2022-07-05T15:10:28Z</time>
      </trkpt>
      <trkpt lat="42.250626" lon="-0.65113604">
        <time>2022-07-05T15:10:31Z</time>
      </trkpt>
      <trkpt lat="42.25057" lon="-0.65109473">
        <time>2022-07-05T15:10:34Z</time>
      </trkpt>
      <trkpt lat="42.250507" lon="-0.6510514">
        <time>2022-07-05T15:10:37Z</time>
      </trkpt>
      <trkpt lat="42.25045" lon="-0.65100974">
        <time>2022-07-05T15:10:40Z</time>
      </trkpt>
      <trkpt lat="42.250397" lon="-0.65096843">
        <time>2022-07-05T15:10:43Z</time>
      </trkpt>
      <trkpt lat="42.250347" lon="-0.65092874">
        <time>2022-07-05T15:10:46Z</time>
      </trkpt>
      <trkpt lat="42.250298" lon="-0.6508891">
        <time>2022-07-05T15:10:49Z</time>
      </trkpt>
      <trkpt lat="42.250248" lon="-0.65084547">
        <time>2022-07-05T15:10:52Z</time>
      </trkpt>
      <trkpt lat="42.2502" lon="-0.65080446">
        <time>2022-07-05T15:10:55Z</time>
      </trkpt>
      <trkpt lat="42.250145" lon="-0.65075946">
        <time>2022-07-05T15:10:58Z</time>
      </trkpt>
      <trkpt lat="42.250095" lon="-0.65071344">
        <time>2022-07-05T15:11:01Z</time>
      </trkpt>
      <trkpt lat="42.25004" lon="-0.6506691">
        <time>2022-07-05T15:11:04Z</time>
      </trkpt>
      <trkpt lat="42.249985" lon="-0.65062946">
        <time>2022-07-05T15:11:07Z</time>
      </trkpt>
      <trkpt lat="42.249935" lon="-0.65058243">
        <time>2022-07-05T15:11:10Z</time>
      </trkpt>
      <trkpt lat="42.249886" lon="-0.65053177">
        <time>2022-07-05T15:11:13Z</time>
      </trkpt>
      <trkpt lat="42.249836" lon="-0.6504871">
        <time>2022-07-05T15:11:16Z</time>
      </trkpt>
      <trkpt lat="42.249786" lon="-0.6504335">
        <time>2022-07-05T15:11:19Z</time>
      </trkpt>
      <trkpt lat="42.249737" lon="-0.6503728">
        <time>2022-07-05T15:11:22Z</time>
      </trkpt>
      <trkpt lat="42.2497" lon="-0.6503315">
        <time>2022-07-05T15:11:24Z</time>
      </trkpt>
      <trkpt lat="42.249645" lon="-0.6502758">
        <time>2022-07-05T15:11:27Z</time>
      </trkpt>
      <trkpt lat="42.249588" lon="-0.65021414">
        <time>2022-07-05T15:11:30Z</time>
      </trkpt>
      <trkpt lat="42.24955" lon="-0.65017116">
        <time>2022-07-05T15:11:32Z</time>
      </trkpt>
      <trkpt lat="42.249496" lon="-0.65009785">
        <time>2022-07-05T15:11:35Z</time>
      </trkpt>
      <trkpt lat="42.24946" lon="-0.65004915">
        <time>2022-07-05T15:11:37Z</time>
      </trkpt>
      <trkpt lat="42.24942" lon="-0.64999914">
        <time>2022-07-05T15:11:39Z</time>
      </trkpt>
      <trkpt lat="42.24938" lon="-0.6499478">
        <time>2022-07-05T15:11:41Z</time>
      </trkpt>
      <trkpt lat="42.24934" lon="-0.6498965">
        <time>2022-07-05T15:11:43Z</time>
      </trkpt>
      <trkpt lat="42.249294" lon="-0.6498395">
        <time>2022-07-05T15:11:45Z</time>
      </trkpt>
      <trkpt lat="42.249252" lon="-0.6497862">
        <time>2022-07-05T15:11:47Z</time>
      </trkpt>
      <trkpt lat="42.249207" lon="-0.6497315">
        <time>2022-07-05T15:11:49Z</time>
      </trkpt>
      <trkpt lat="42.24916" lon="-0.64967453">
        <time>2022-07-05T15:11:51Z</time>
      </trkpt>
      <trkpt lat="42.249115" lon="-0.6496175">
        <time>2022-07-05T15:11:53Z</time>
      </trkpt>
      <trkpt lat="42.24907" lon="-0.6495595">
        <time>2022-07-05T15:11:55Z</time>
      </trkpt>
      <trkpt lat="42.249023" lon="-0.6495025">
        <time>2022-07-05T15:11:57Z</time>
      </trkpt>
      <trkpt lat="42.248974" lon="-0.64944583">
        <time>2022-07-05T15:11:59Z</time>
      </trkpt>
      <trkpt lat="42.248924" lon="-0.64938754">
        <time>2022-07-05T15:12:01Z</time>
      </trkpt>
      <trkpt lat="42.24888" lon="-0.6493282">
        <time>2022-07-05T15:12:03Z</time>
      </trkpt>
      <trkpt lat="42.248833" lon="-0.64926785">
        <time>2022-07-05T15:12:05Z</time>
      </trkpt>
      <trkpt lat="42.248783" lon="-0.64920753">
        <time>2022-07-05T15:12:07Z</time>
      </trkpt>
      <trkpt lat="42.248734" lon="-0.6491489">
        <time>2022-07-05T15:12:09Z</time>
      </trkpt>
      <trkpt lat="42.248684" lon="-0.64909256">
        <time>2022-07-05T15:12:11Z</time>
      </trkpt>
      <trkpt lat="42.248634" lon="-0.6490369">
        <time>2022-07-05T15:12:13Z</time>
      </trkpt>
      <trkpt lat="42.24859" lon="-0.6489852">
        <time>2022-07-05T15:12:15Z</time>
      </trkpt>
      <trkpt lat="42.248543" lon="-0.6489336">
        <time>2022-07-05T15:12:17Z</time>
      </trkpt>
      <trkpt lat="42.2485" lon="-0.6488876">
        <time>2022-07-05T15:12:19Z</time>
      </trkpt>
      <trkpt lat="42.24846" lon="-0.6488439">
        <time>2022-07-05T15:12:21Z</time>
      </trkpt>
      <trkpt lat="42.248413" lon="-0.64880055">
        <time>2022-07-05T15:12:23Z</time>
      </trkpt>
      <trkpt lat="42.24837" lon="-0.6487569">
        <time>2022-07-05T15:12:25Z</time>
      </trkpt>
      <trkpt lat="42.24833" lon="-0.6487099">
        <time>2022-07-05T15:12:27Z</time>
      </trkpt>
      <trkpt lat="42.248287" lon="-0.6486633">
        <time>2022-07-05T15:12:29Z</time>
      </trkpt>
      <trkpt lat="42.248245" lon="-0.6486216">
        <time>2022-07-05T15:12:31Z</time>
      </trkpt>
      <trkpt lat="42.248196" lon="-0.6485786">
        <time>2022-07-05T15:12:33Z</time>
      </trkpt>
      <trkpt lat="42.248154" lon="-0.64853996">
        <time>2022-07-05T15:12:35Z</time>
      </trkpt>
      <trkpt lat="42.24811" lon="-0.6485026">
        <time>2022-07-05T15:12:37Z</time>
      </trkpt>
      <trkpt lat="42.248043" lon="-0.6484429">
        <time>2022-07-05T15:12:40Z</time>
      </trkpt>
      <trkpt lat="42.24798" lon="-0.6483843">
        <time>2022-07-05T15:12:43Z</time>
      </trkpt>
      <trkpt lat="42.24793" lon="-0.6483436">
        <time>2022-07-05T15:12:45Z</time>
      </trkpt>
      <trkpt lat="42.247887" lon="-0.64830565">
        <time>2022-07-05T15:12:47Z</time>
      </trkpt>
      <trkpt lat="42.24784" lon="-0.64826465">
        <time>2022-07-05T15:12:49Z</time>
      </trkpt>
      <trkpt lat="42.2478" lon="-0.6482253">
        <time>2022-07-05T15:12:51Z</time>
      </trkpt>
      <trkpt lat="42.247753" lon="-0.6481853">
        <time>2022-07-05T15:12:53Z</time>
      </trkpt>
      <trkpt lat="42.24771" lon="-0.648147">
        <time>2022-07-05T15:12:55Z</time>
      </trkpt>
      <trkpt lat="42.24767" lon="-0.64810765">
        <time>2022-07-05T15:12:57Z</time>
      </trkpt>
      <trkpt lat="42.24761" lon="-0.64805233">
        <time>2022-07-05T15:13:00Z</time>
      </trkpt>
      <trkpt lat="42.247547" lon="-0.648">
        <time>2022-07-05T15:13:03Z</time>
      </trkpt>
      <trkpt lat="42.247482" lon="-0.647945">
        <time>2022-07-05T15:13:06Z</time>
      </trkpt>
      <trkpt lat="42.24744" lon="-0.647909">
        <time>2022-07-05T15:13:08Z</time>
      </trkpt>
      <trkpt lat="42.247375" lon="-0.6478563">
        <time>2022-07-05T15:13:11Z</time>
      </trkpt>
      <trkpt lat="42.24733" lon="-0.64782166">
        <time>2022-07-05T15:13:13Z</time>
      </trkpt>
      <trkpt lat="42.247265" lon="-0.647763">
        <time>2022-07-05T15:13:16Z</time>
      </trkpt>
      <trkpt lat="42.247204" lon="-0.64770466">
        <time>2022-07-05T15:13:19Z</time>
      </trkpt>
      <trkpt lat="42.247143" lon="-0.64765066">
        <time>2022-07-05T15:13:22Z</time>
      </trkpt>
      <trkpt lat="42.247078" lon="-0.6476023">
        <time>2022-07-05T15:13:25Z</time>
      </trkpt>
      <trkpt lat="42.247032" lon="-0.647569">
        <time>2022-07-05T15:13:27Z</time>
      </trkpt>
      <trkpt lat="42.24697" lon="-0.64751667">
        <time>2022-07-05T15:13:30Z</time>
      </trkpt>
      <trkpt lat="42.246925" lon="-0.64748037">
        <time>2022-07-05T15:13:32Z</time>
      </trkpt>
      <trkpt lat="42.246883" lon="-0.647445">
        <time>2022-07-05T15:13:34Z</time>
      </trkpt>
      <trkpt lat="42.24682" lon="-0.64739037">
        <time>2022-07-05T15:13:37Z</time>
      </trkpt>
      <trkpt lat="42.246758" lon="-0.647337">
        <time>2022-07-05T15:13:40Z</time>
      </trkpt>
      <trkpt lat="42.2467" lon="-0.64729035">
        <time>2022-07-05T15:13:43Z</time>
      </trkpt>
      <trkpt lat="42.246635" lon="-0.6472397">
        <time>2022-07-05T15:13:46Z</time>
      </trkpt>
      <trkpt lat="42.246574" lon="-0.6471847">
        <time>2022-07-05T15:13:49Z</time>
      </trkpt>
      <trkpt lat="42.246532" lon="-0.6471484">
        <time>2022-07-05T15:13:51Z</time>
      </trkpt>
      <trkpt lat="42.246468" lon="-0.647095">
        <time>2022-07-05T15:13:54Z</time>
      </trkpt>
      <trkpt lat="42.24641" lon="-0.6470434">
        <time>2022-07-05T15:13:57Z</time>
      </trkpt>
      <trkpt lat="42.24635" lon="-0.6469907">
        <time>2022-07-05T15:14:00Z</time>
      </trkpt>
      <trkpt lat="42.24629" lon="-0.6469431">
        <time>2022-07-05T15:14:03Z</time>
      </trkpt>
      <trkpt lat="42.24623" lon="-0.64689374">
        <time>2022-07-05T15:14:06Z</time>
      </trkpt>
      <trkpt lat="42.24618" lon="-0.6468424">
        <time>2022-07-05T15:14:09Z</time>
      </trkpt>
      <trkpt lat="42.246124" lon="-0.64679444">
        <time>2022-07-05T15:14:12Z</time>
      </trkpt>
      <trkpt lat="42.246067" lon="-0.64674973">
        <time>2022-07-05T15:14:15Z</time>
      </trkpt>
      <trkpt lat="42.246017" lon="-0.64670306">
        <time>2022-07-05T15:14:18Z</time>
      </trkpt>
      <trkpt lat="42.245964" lon="-0.64666075">
        <time>2022-07-05T15:14:21Z</time>
      </trkpt>
      <trkpt lat="42.245907" lon="-0.64661676">
        <time>2022-07-05T15:14:24Z</time>
      </trkpt>
      <trkpt lat="42.24585" lon="-0.6465681">
        <time>2022-07-05T15:14:27Z</time>
      </trkpt>
      <trkpt lat="42.245792" lon="-0.64651775">
        <time>2022-07-05T15:14:30Z</time>
      </trkpt>
      <trkpt lat="42.24573" lon="-0.6464698">
        <time>2022-07-05T15:14:33Z</time>
      </trkpt>
      <trkpt lat="42.245674" lon="-0.64641577">
        <time>2022-07-05T15:14:36Z</time>
      </trkpt>
      <trkpt lat="42.245617" lon="-0.64636576">
        <time>2022-07-05T15:14:39Z</time>
      </trkpt>
      <trkpt lat="42.24556" lon="-0.64631176">
        <time>2022-07-05T15:14:42Z</time>
      </trkpt>
      <trkpt lat="42.245506" lon="-0.6462591">
        <time>2022-07-05T15:14:45Z</time>
      </trkpt>
      <trkpt lat="42.24545" lon="-0.64620477">
        <time>2022-07-05T15:14:48Z</time>
      </trkpt>
      <trkpt lat="42.24539" lon="-0.64614445">
        <time>2022-07-05T15:14:51Z</time>
      </trkpt>
      <trkpt lat="42.24533" lon="-0.64608043">
        <time>2022-07-05T15:14:54Z</time>
      </trkpt>
      <trkpt lat="42.245293" lon="-0.6460371">
        <time>2022-07-05T15:14:56Z</time>
      </trkpt>
      <trkpt lat="42.24523" lon="-0.64597243">
        <time>2022-07-05T15:14:59Z</time>
      </trkpt>
      <trkpt lat="42.245193" lon="-0.64592916">
        <time>2022-07-05T15:15:01Z</time>
      </trkpt>
      <trkpt lat="42.245136" lon="-0.64586145">
        <time>2022-07-05T15:15:04Z</time>
      </trkpt>
      <trkpt lat="42.2451" lon="-0.6458155">
        <time>2022-07-05T15:15:06Z</time>
      </trkpt>
      <trkpt lat="42.245045" lon="-0.64574546">
        <time>2022-07-05T15:15:09Z</time>
      </trkpt>
      <trkpt lat="42.245007" lon="-0.64569813">
        <time>2022-07-05T15:15:11Z</time>
      </trkpt>
      <trkpt lat="42.24497" lon="-0.64564914">
        <time>2022-07-05T15:15:13Z</time>
      </trkpt>
      <trkpt lat="42.24493" lon="-0.6455968">
        <time>2022-07-05T15:15:15Z</time>
      </trkpt>
      <trkpt lat="42.244877" lon="-0.6455222">
        <time>2022-07-05T15:15:18Z</time>
      </trkpt>
      <trkpt lat="42.244843" lon="-0.6454638">
        <time>2022-07-05T15:15:20Z</time>
      </trkpt>
      <trkpt lat="42.244804" lon="-0.6454075">
        <time>2022-07-05T15:15:22Z</time>
      </trkpt>
      <trkpt lat="42.24477" lon="-0.6453455">
        <time>2022-07-05T15:15:24Z</time>
      </trkpt>
      <trkpt lat="42.24473" lon="-0.64528215">
        <time>2022-07-05T15:15:26Z</time>
      </trkpt>
      <trkpt lat="42.244694" lon="-0.64522684">
        <time>2022-07-05T15:15:28Z</time>
      </trkpt>
      <trkpt lat="42.244663" lon="-0.64517015">
        <time>2022-07-05T15:15:30Z</time>
      </trkpt>
      <trkpt lat="42.24462" lon="-0.6451075">
        <time>2022-07-05T15:15:33Z</time>
      </trkpt>
      <trkpt lat="42.244545" lon="-0.64500886">
        <time>2022-07-05T15:18:21Z</time>
      </trkpt>
      <trkpt lat="42.244503" lon="-0.6449118">
        <time>2022-07-05T15:18:24Z</time>
      </trkpt>
      <trkpt lat="42.24447" lon="-0.64483887">
        <time>2022-07-05T15:18:26Z</time>
      </trkpt>
      <trkpt lat="42.24444" lon="-0.64476717">
        <time>2022-07-05T15:18:28Z</time>
      </trkpt>
      <trkpt lat="42.244404" lon="-0.64469516">
        <time>2022-07-05T15:18:30Z</time>
      </trkpt>
      <trkpt lat="42.244373" lon="-0.6446225">
        <time>2022-07-05T15:18:32Z</time>
      </trkpt>
      <trkpt lat="42.24434" lon="-0.64454854">
        <time>2022-07-05T15:18:34Z</time>
      </trkpt>
      <trkpt lat="42.24431" lon="-0.6444705">
        <time>2022-07-05T15:18:36Z</time>
      </trkpt>
      <trkpt lat="42.244274" lon="-0.6443892">
        <time>2022-07-05T15:18:38Z</time>
      </trkpt>
      <trkpt lat="42.24424" lon="-0.6443062">
        <time>2022-07-05T15:18:40Z</time>
      </trkpt>
      <trkpt lat="42.244205" lon="-0.64422387">
        <time>2022-07-05T15:18:42Z</time>
      </trkpt>
      <trkpt lat="42.244175" lon="-0.6441402">
        <time>2022-07-05T15:18:44Z</time>
      </trkpt>
      <trkpt lat="42.24414" lon="-0.6440549">
        <time>2022-07-05T15:18:46Z</time>
      </trkpt>
      <trkpt lat="42.244106" lon="-0.6439702">
        <time>2022-07-05T15:18:48Z</time>
      </trkpt>
      <trkpt lat="42.244072" lon="-0.64388454">
        <time>2022-07-05T15:18:50Z</time>
      </trkpt>
      <trkpt lat="42.24404" lon="-0.64379954">
        <time>2022-07-05T15:18:52Z</time>
      </trkpt>
      <trkpt lat="42.24401" lon="-0.6437172">
        <time>2022-07-05T15:18:54Z</time>
      </trkpt>
      <trkpt lat="42.24398" lon="-0.64363354">
        <time>2022-07-05T15:18:56Z</time>
      </trkpt>
      <trkpt lat="42.24395" lon="-0.64354926">
        <time>2022-07-05T15:18:58Z</time>
      </trkpt>
      <trkpt lat="42.243916" lon="-0.6434656">
        <time>2022-07-05T15:19:00Z</time>
      </trkpt>
      <trkpt lat="42.243885" lon="-0.6433839">
        <time>2022-07-05T15:19:02Z</time>
      </trkpt>
      <trkpt lat="42.24385" lon="-0.64330626">
        <time>2022-07-05T15:19:04Z</time>
      </trkpt>
      <trkpt lat="42.243824" lon="-0.6432316">
        <time>2022-07-05T15:19:06Z</time>
      </trkpt>
      <trkpt lat="42.24379" lon="-0.6431593">
        <time>2022-07-05T15:19:08Z</time>
      </trkpt>
      <trkpt lat="42.24376" lon="-0.64308864">
        <time>2022-07-05T15:19:10Z</time>
      </trkpt>
      <trkpt lat="42.243732" lon="-0.6430163">
        <time>2022-07-05T15:19:12Z</time>
      </trkpt>
      <trkpt lat="42.24371" lon="-0.6429453">
        <time>2022-07-05T15:19:14Z</time>
      </trkpt>
      <trkpt lat="42.243687" lon="-0.64287895">
        <time>2022-07-05T15:19:16Z</time>
      </trkpt>
      <trkpt lat="42.243656" lon="-0.6427856">
        <time>2022-07-05T15:19:19Z</time>
      </trkpt>
      <trkpt lat="42.243637" lon="-0.64272296">
        <time>2022-07-05T15:19:21Z</time>
      </trkpt>
      <trkpt lat="42.243603" lon="-0.64263064">
        <time>2022-07-05T15:19:24Z</time>
      </trkpt>
      <trkpt lat="42.24358" lon="-0.642572">
        <time>2022-07-05T15:19:26Z</time>
      </trkpt>
      <trkpt lat="42.24354" lon="-0.642483">
        <time>2022-07-05T15:19:29Z</time>
      </trkpt>
      <trkpt lat="42.24352" lon="-0.642423">
        <time>2022-07-05T15:19:31Z</time>
      </trkpt>
      <trkpt lat="42.243484" lon="-0.64233696">
        <time>2022-07-05T15:19:34Z</time>
      </trkpt>
      <trkpt lat="42.243454" lon="-0.6422493">
        <time>2022-07-05T15:19:37Z</time>
      </trkpt>
      <trkpt lat="42.243423" lon="-0.64215964">
        <time>2022-07-05T15:19:40Z</time>
      </trkpt>
      <trkpt lat="42.24339" lon="-0.6420663">
        <time>2022-07-05T15:19:43Z</time>
      </trkpt>
      <trkpt lat="42.243366" lon="-0.642006">
        <time>2022-07-05T15:19:45Z</time>
      </trkpt>
      <trkpt lat="42.243332" lon="-0.641918">
        <time>2022-07-05T15:19:48Z</time>
      </trkpt>
      <trkpt lat="42.243305" lon="-0.64185834">
        <time>2022-07-05T15:19:50Z</time>
      </trkpt>
      <trkpt lat="42.243263" lon="-0.6417713">
        <time>2022-07-05T15:19:53Z</time>
      </trkpt>
      <trkpt lat="42.243237" lon="-0.6417107">
        <time>2022-07-05T15:19:55Z</time>
      </trkpt>
      <trkpt lat="42.24321" lon="-0.64164966">
        <time>2022-07-05T15:19:57Z</time>
      </trkpt>
      <trkpt lat="42.24319" lon="-0.64158636">
        <time>2022-07-05T15:19:59Z</time>
      </trkpt>
      <trkpt lat="42.243153" lon="-0.6414937">
        <time>2022-07-05T15:20:02Z</time>
      </trkpt>
      <trkpt lat="42.24313" lon="-0.641433">
        <time>2022-07-05T15:20:04Z</time>
      </trkpt>
      <trkpt lat="42.243107" lon="-0.64137435">
        <time>2022-07-05T15:20:06Z</time>
      </trkpt>
      <trkpt lat="42.243073" lon="-0.64129305">
        <time>2022-07-05T15:20:09Z</time>
      </trkpt>
      <trkpt lat="42.24305" lon="-0.64123636">
        <time>2022-07-05T15:20:11Z</time>
      </trkpt>
      <trkpt lat="42.243015" lon="-0.64115405">
        <time>2022-07-05T15:20:14Z</time>
      </trkpt>
      <trkpt lat="42.242985" lon="-0.6410727">
        <time>2022-07-05T15:20:17Z</time>
      </trkpt>
      <trkpt lat="42.242954" lon="-0.6409927">
        <time>2022-07-05T15:20:20Z</time>
      </trkpt>
      <trkpt lat="42.242928" lon="-0.64091736">
        <time>2022-07-05T15:20:23Z</time>
      </trkpt>
      <trkpt lat="42.242897" lon="-0.640847">
        <time>2022-07-05T15:20:26Z</time>
      </trkpt>
      <trkpt lat="42.242867" lon="-0.6407774">
        <time>2022-07-05T15:20:29Z</time>
      </trkpt>
      <trkpt lat="42.24284" lon="-0.6407081">
        <time>2022-07-05T15:20:32Z</time>
      </trkpt>
      <trkpt lat="42.24281" lon="-0.6406397">
        <time>2022-07-05T15:20:35Z</time>
      </trkpt>
      <trkpt lat="42.24278" lon="-0.64056706">
        <time>2022-07-05T15:20:38Z</time>
      </trkpt>
      <trkpt lat="42.24275" lon="-0.64049506">
        <time>2022-07-05T15:20:41Z</time>
      </trkpt>
      <trkpt lat="42.24272" lon="-0.6404247">
        <time>2022-07-05T15:20:44Z</time>
      </trkpt>
      <trkpt lat="42.24269" lon="-0.64035505">
        <time>2022-07-05T15:20:47Z</time>
      </trkpt>
      <trkpt lat="42.242664" lon="-0.6402848">
        <time>2022-07-05T15:20:50Z</time>
      </trkpt>
      <trkpt lat="42.242638" lon="-0.64021343">
        <time>2022-07-05T15:20:53Z</time>
      </trkpt>
      <trkpt lat="42.2426" lon="-0.6401188">
        <time>2022-07-05T15:20:57Z</time>
      </trkpt>
      <trkpt lat="42.24257" lon="-0.6400514">
        <time>2022-07-05T15:21:00Z</time>
      </trkpt>
      <trkpt lat="42.242542" lon="-0.63998044">
        <time>2022-07-05T15:21:03Z</time>
      </trkpt>
      <trkpt lat="42.242516" lon="-0.6399071">
        <time>2022-07-05T15:21:06Z</time>
      </trkpt>
      <trkpt lat="42.24248" lon="-0.63981944">
        <time>2022-07-05T15:21:10Z</time>
      </trkpt>
      <trkpt lat="42.24246" lon="-0.6397644">
        <time>2022-07-05T15:21:12Z</time>
      </trkpt>
      <trkpt lat="42.242428" lon="-0.63968813">
        <time>2022-07-05T15:21:15Z</time>
      </trkpt>
      <trkpt lat="42.242397" lon="-0.6396131">
        <time>2022-07-05T15:21:18Z</time>
      </trkpt>
      <trkpt lat="42.242367" lon="-0.6395394">
        <time>2022-07-05T15:21:21Z</time>
      </trkpt>
      <trkpt lat="42.242336" lon="-0.6394638">
        <time>2022-07-05T15:21:24Z</time>
      </trkpt>
      <trkpt lat="42.242306" lon="-0.6393951">
        <time>2022-07-05T15:21:27Z</time>
      </trkpt>
      <trkpt lat="42.242275" lon="-0.6393241">
        <time>2022-07-05T15:21:30Z</time>
      </trkpt>
      <trkpt lat="42.242245" lon="-0.6392485">
        <time>2022-07-05T15:21:33Z</time>
      </trkpt>
      <trkpt lat="42.242214" lon="-0.63917583">
        <time>2022-07-05T15:21:36Z</time>
      </trkpt>
      <trkpt lat="42.242188" lon="-0.6391032">
        <time>2022-07-05T15:21:39Z</time>
      </trkpt>
      <trkpt lat="42.242157" lon="-0.6390275">
        <time>2022-07-05T15:21:42Z</time>
      </trkpt>
      <trkpt lat="42.24213" lon="-0.6389535">
        <time>2022-07-05T15:21:45Z</time>
      </trkpt>
      <trkpt lat="42.2421" lon="-0.6388778">
        <time>2022-07-05T15:21:48Z</time>
      </trkpt>
      <trkpt lat="42.242073" lon="-0.63880086">
        <time>2022-07-05T15:21:51Z</time>
      </trkpt>
      <trkpt lat="42.242046" lon="-0.6387248">
        <time>2022-07-05T15:21:54Z</time>
      </trkpt>
      <trkpt lat="42.24201" lon="-0.63862383">
        <time>2022-07-05T15:21:58Z</time>
      </trkpt>
      <trkpt lat="42.241978" lon="-0.6385475">
        <time>2022-07-05T15:22:01Z</time>
      </trkpt>
      <trkpt lat="42.241947" lon="-0.6384715">
        <time>2022-07-05T15:22:04Z</time>
      </trkpt>
      <trkpt lat="42.24192" lon="-0.6383935">
        <time>2022-07-05T15:22:07Z</time>
      </trkpt>
      <trkpt lat="42.241894" lon="-0.63831615">
        <time>2022-07-05T15:22:10Z</time>
      </trkpt>
      <trkpt lat="42.24187" lon="-0.6382408">
        <time>2022-07-05T15:22:13Z</time>
      </trkpt>
      <trkpt lat="42.24185" lon="-0.63816386">
        <time>2022-07-05T15:22:16Z</time>
      </trkpt>
      <trkpt lat="42.24183" lon="-0.6380848">
        <time>2022-07-05T15:22:19Z</time>
      </trkpt>
      <trkpt lat="42.24181" lon="-0.6380078">
        <time>2022-07-05T15:22:22Z</time>
      </trkpt>
      <trkpt lat="42.241787" lon="-0.63792753">
        <time>2022-07-05T15:22:25Z</time>
      </trkpt>
      <trkpt lat="42.24177" lon="-0.6378462">
        <time>2022-07-05T15:22:28Z</time>
      </trkpt>
      <trkpt lat="42.241756" lon="-0.63776416">
        <time>2022-07-05T15:22:31Z</time>
      </trkpt>
      <trkpt lat="42.241737" lon="-0.63768387">
        <time>2022-07-05T15:22:34Z</time>
      </trkpt>
      <trkpt lat="42.24172" lon="-0.63760287">
        <time>2022-07-05T15:22:37Z</time>
      </trkpt>
      <trkpt lat="42.2417" lon="-0.6375205">
        <time>2022-07-05T15:22:40Z</time>
      </trkpt>
      <trkpt lat="42.241688" lon="-0.63743454">
        <time>2022-07-05T15:22:43Z</time>
      </trkpt>
      <trkpt lat="42.241676" lon="-0.6373412">
        <time>2022-07-05T15:22:46Z</time>
      </trkpt>
      <trkpt lat="42.24167" lon="-0.6372752">
        <time>2022-07-05T15:22:48Z</time>
      </trkpt>
      <trkpt lat="42.24166" lon="-0.6371715">
        <time>2022-07-05T15:22:51Z</time>
      </trkpt>
      <trkpt lat="42.241657" lon="-0.6371012">
        <time>2022-07-05T15:22:53Z</time>
      </trkpt>
      <trkpt lat="42.241653" lon="-0.6370299">
        <time>2022-07-05T15:22:55Z</time>
      </trkpt>
      <trkpt lat="42.24165" lon="-0.6369572">
        <time>2022-07-05T15:22:57Z</time>
      </trkpt>
      <trkpt lat="42.241646" lon="-0.6368842">
        <time>2022-07-05T15:22:59Z</time>
      </trkpt>
      <trkpt lat="42.241646" lon="-0.63677156">
        <time>2022-07-05T15:23:02Z</time>
      </trkpt>
      <trkpt lat="42.241646" lon="-0.6366929">
        <time>2022-07-05T15:23:04Z</time>
      </trkpt>
      <trkpt lat="42.24165" lon="-0.6366129">
        <time>2022-07-05T15:23:06Z</time>
      </trkpt>
      <trkpt lat="42.241653" lon="-0.6365309">
        <time>2022-07-05T15:23:08Z</time>
      </trkpt>
      <trkpt lat="42.241657" lon="-0.6364469">
        <time>2022-07-05T15:23:10Z</time>
      </trkpt>
      <trkpt lat="42.241665" lon="-0.6363606">
        <time>2022-07-05T15:23:12Z</time>
      </trkpt>
      <trkpt lat="42.241673" lon="-0.6362706">
        <time>2022-07-05T15:23:14Z</time>
      </trkpt>
      <trkpt lat="42.24168" lon="-0.6361752">
        <time>2022-07-05T15:23:16Z</time>
      </trkpt>
      <trkpt lat="42.241695" lon="-0.63607454">
        <time>2022-07-05T15:23:18Z</time>
      </trkpt>
      <trkpt lat="42.24171" lon="-0.63596857">
        <time>2022-07-05T15:23:20Z</time>
      </trkpt>
      <trkpt lat="42.241734" lon="-0.6358576">
        <time>2022-07-05T15:23:22Z</time>
      </trkpt>
      <trkpt lat="42.241753" lon="-0.63574225">
        <time>2022-07-05T15:23:24Z</time>
      </trkpt>
      <trkpt lat="42.241776" lon="-0.6356229">
        <time>2022-07-05T15:23:26Z</time>
      </trkpt>
      <trkpt lat="42.241806" lon="-0.6354973">
        <time>2022-07-05T15:23:28Z</time>
      </trkpt>
      <trkpt lat="42.24184" lon="-0.63536626">
        <time>2022-07-05T15:23:30Z</time>
      </trkpt>
      <trkpt lat="42.241875" lon="-0.63522756">
        <time>2022-07-05T15:23:32Z</time>
      </trkpt>
      <trkpt lat="42.241894" lon="-0.63515526">
        <time>2022-07-05T15:23:33Z</time>
      </trkpt>
      <trkpt lat="42.241913" lon="-0.63508195">
        <time>2022-07-05T15:23:34Z</time>
      </trkpt>
      <trkpt lat="42.241932" lon="-0.6350083">
        <time>2022-07-05T15:23:35Z</time>
      </trkpt>
      <trkpt lat="42.24195" lon="-0.6349383">
        <time>2022-07-05T15:23:36Z</time>
      </trkpt>
      <trkpt lat="42.24197" lon="-0.6348656">
        <time>2022-07-05T15:23:37Z</time>
      </trkpt>
      <trkpt lat="42.241985" lon="-0.6347906">
        <time>2022-07-05T15:23:38Z</time>
      </trkpt>
      <trkpt lat="42.24201" lon="-0.6347079">
        <time>2022-07-05T15:23:39Z</time>
      </trkpt>
      <trkpt lat="42.242027" lon="-0.6346246">
        <time>2022-07-05T15:23:40Z</time>
      </trkpt>
      <trkpt lat="42.24205" lon="-0.63454664">
        <time>2022-07-05T15:23:41Z</time>
      </trkpt>
      <trkpt lat="42.24207" lon="-0.6344663">
        <time>2022-07-05T15:23:42Z</time>
      </trkpt>
      <trkpt lat="42.242092" lon="-0.6343823">
        <time>2022-07-05T15:23:43Z</time>
      </trkpt>
      <trkpt lat="42.242115" lon="-0.6342963">
        <time>2022-07-05T15:23:44Z</time>
      </trkpt>
      <trkpt lat="42.24214" lon="-0.63420194">
        <time>2022-07-05T15:23:45Z</time>
      </trkpt>
      <trkpt lat="42.24217" lon="-0.6341056">
        <time>2022-07-05T15:23:46Z</time>
      </trkpt>
      <trkpt lat="42.24219" lon="-0.6340146">
        <time>2022-07-05T15:23:47Z</time>
      </trkpt>
      <trkpt lat="42.242218" lon="-0.6339213">
        <time>2022-07-05T15:23:48Z</time>
      </trkpt>
      <trkpt lat="42.24224" lon="-0.63382596">
        <time>2022-07-05T15:23:49Z</time>
      </trkpt>
      <trkpt lat="42.242268" lon="-0.63372296">
        <time>2022-07-05T15:23:50Z</time>
      </trkpt>
      <trkpt lat="42.2423" lon="-0.63361865">
        <time>2022-07-05T15:23:51Z</time>
      </trkpt>
      <trkpt lat="42.242325" lon="-0.6335153">
        <time>2022-07-05T15:23:52Z</time>
      </trkpt>
      <trkpt lat="42.24235" lon="-0.63341296">
        <time>2022-07-05T15:23:53Z</time>
      </trkpt>
      <trkpt lat="42.24238" lon="-0.633312">
        <time>2022-07-05T15:23:54Z</time>
      </trkpt>
      <trkpt lat="42.2424" lon="-0.63320935">
        <time>2022-07-05T15:23:55Z</time>
      </trkpt>
      <trkpt lat="42.242428" lon="-0.6331047">
        <time>2022-07-05T15:23:56Z</time>
      </trkpt>
      <trkpt lat="42.24245" lon="-0.63299835">
        <time>2022-07-05T15:23:57Z</time>
      </trkpt>
      <trkpt lat="42.242477" lon="-0.63289136">
        <time>2022-07-05T15:23:58Z</time>
      </trkpt>
      <trkpt lat="42.242504" lon="-0.6327843">
        <time>2022-07-05T15:23:59Z</time>
      </trkpt>
      <trkpt lat="42.242527" lon="-0.632677">
        <time>2022-07-05T15:24:00Z</time>
      </trkpt>
      <trkpt lat="42.242558" lon="-0.63256866">
        <time>2022-07-05T15:24:01Z</time>
      </trkpt>
      <trkpt lat="42.242607" lon="-0.6323587">
        <time>2022-07-05T15:24:03Z</time>
      </trkpt>
      <trkpt lat="42.242634" lon="-0.63225436">
        <time>2022-07-05T15:24:04Z</time>
      </trkpt>
      <trkpt lat="42.242664" lon="-0.6321393">
        <time>2022-07-05T15:24:05Z</time>
      </trkpt>
      <trkpt lat="42.24269" lon="-0.63202435">
        <time>2022-07-05T15:24:06Z</time>
      </trkpt>
      <trkpt lat="42.242718" lon="-0.63190866">
        <time>2022-07-05T15:24:07Z</time>
      </trkpt>
      <trkpt lat="42.24274" lon="-0.63179237">
        <time>2022-07-05T15:24:08Z</time>
      </trkpt>
      <trkpt lat="42.242767" lon="-0.631675">
        <time>2022-07-05T15:24:09Z</time>
      </trkpt>
      <trkpt lat="42.24279" lon="-0.6315567">
        <time>2022-07-05T15:24:10Z</time>
      </trkpt>
      <trkpt lat="42.242813" lon="-0.63143635">
        <time>2022-07-05T15:24:11Z</time>
      </trkpt>
      <trkpt lat="42.242836" lon="-0.63131535">
        <time>2022-07-05T15:24:12Z</time>
      </trkpt>
      <trkpt lat="42.242855" lon="-0.6311927">
        <time>2022-07-05T15:24:13Z</time>
      </trkpt>
      <trkpt lat="42.242874" lon="-0.63106906">
        <time>2022-07-05T15:24:14Z</time>
      </trkpt>
      <trkpt lat="42.24289" lon="-0.6309444">
        <time>2022-07-05T15:24:15Z</time>
      </trkpt>
      <trkpt lat="42.242905" lon="-0.6308187">
        <time>2022-07-05T15:24:16Z</time>
      </trkpt>
      <trkpt lat="42.24292" lon="-0.6306931">
        <time>2022-07-05T15:24:17Z</time>
      </trkpt>
      <trkpt lat="42.24293" lon="-0.6305664">
        <time>2022-07-05T15:24:18Z</time>
      </trkpt>
      <trkpt lat="42.24294" lon="-0.63043875">
        <time>2022-07-05T15:24:19Z</time>
      </trkpt>
      <trkpt lat="42.24295" lon="-0.63031006">
        <time>2022-07-05T15:24:20Z</time>
      </trkpt>
      <trkpt lat="42.242958" lon="-0.63018143">
        <time>2022-07-05T15:24:21Z</time>
      </trkpt>
      <trkpt lat="42.242966" lon="-0.63005245">
        <time>2022-07-05T15:24:22Z</time>
      </trkpt>
      <trkpt lat="42.24297" lon="-0.62992275">
        <time>2022-07-05T15:24:23Z</time>
      </trkpt>
      <trkpt lat="42.242977" lon="-0.62979174">
        <time>2022-07-05T15:24:24Z</time>
      </trkpt>
      <trkpt lat="42.242985" lon="-0.6296608">
        <time>2022-07-05T15:24:25Z</time>
      </trkpt>
      <trkpt lat="42.24299" lon="-0.6295294">
        <time>2022-07-05T15:24:26Z</time>
      </trkpt>
      <trkpt lat="42.242996" lon="-0.62939745">
        <time>2022-07-05T15:24:27Z</time>
      </trkpt>
      <trkpt lat="42.243" lon="-0.6292644">
        <time>2022-07-05T15:24:28Z</time>
      </trkpt>
      <trkpt lat="42.243004" lon="-0.62913144">
        <time>2022-07-05T15:24:29Z</time>
      </trkpt>
      <trkpt lat="42.243008" lon="-0.62899774">
        <time>2022-07-05T15:24:30Z</time>
      </trkpt>
      <trkpt lat="42.24301" lon="-0.6288631">
        <time>2022-07-05T15:24:31Z</time>
      </trkpt>
      <trkpt lat="42.243015" lon="-0.6287281">
        <time>2022-07-05T15:24:32Z</time>
      </trkpt>
      <trkpt lat="42.243023" lon="-0.6285918">
        <time>2022-07-05T15:24:33Z</time>
      </trkpt>
      <trkpt lat="42.243027" lon="-0.62845343">
        <time>2022-07-05T15:24:34Z</time>
      </trkpt>
      <trkpt lat="42.24303" lon="-0.6283151">
        <time>2022-07-05T15:24:35Z</time>
      </trkpt>
      <trkpt lat="42.243034" lon="-0.6281771">
        <time>2022-07-05T15:24:36Z</time>
      </trkpt>
      <trkpt lat="42.243042" lon="-0.6280378">
        <time>2022-07-05T15:24:37Z</time>
      </trkpt>
      <trkpt lat="42.243046" lon="-0.62789845">
        <time>2022-07-05T15:24:38Z</time>
      </trkpt>
      <trkpt lat="42.243053" lon="-0.6277588">
        <time>2022-07-05T15:24:39Z</time>
      </trkpt>
      <trkpt lat="42.243057" lon="-0.62761813">
        <time>2022-07-05T15:24:40Z</time>
      </trkpt>
      <trkpt lat="42.243065" lon="-0.6274768">
        <time>2022-07-05T15:24:41Z</time>
      </trkpt>
      <trkpt lat="42.24307" lon="-0.6273355">
        <time>2022-07-05T15:24:42Z</time>
      </trkpt>
      <trkpt lat="42.243073" lon="-0.62719315">
        <time>2022-07-05T15:24:43Z</time>
      </trkpt>
      <trkpt lat="42.24308" lon="-0.6270508">
        <time>2022-07-05T15:24:44Z</time>
      </trkpt>
      <trkpt lat="42.243088" lon="-0.6269068">
        <time>2022-07-05T15:24:45Z</time>
      </trkpt>
      <trkpt lat="42.24309" lon="-0.6267625">
        <time>2022-07-05T15:24:46Z</time>
      </trkpt>
      <trkpt lat="42.2431" lon="-0.62661815">
        <time>2022-07-05T15:24:47Z</time>
      </trkpt>
      <trkpt lat="42.243103" lon="-0.6264735">
        <time>2022-07-05T15:24:48Z</time>
      </trkpt>
      <trkpt lat="42.24311" lon="-0.6263282">
        <time>2022-07-05T15:24:49Z</time>
      </trkpt>
      <trkpt lat="42.243114" lon="-0.6261835">
        <time>2022-07-05T15:24:50Z</time>
      </trkpt>
      <trkpt lat="42.243122" lon="-0.62603885">
        <time>2022-07-05T15:24:51Z</time>
      </trkpt>
      <trkpt lat="42.243126" lon="-0.6258932">
        <time>2022-07-05T15:24:52Z</time>
      </trkpt>
      <trkpt lat="42.243134" lon="-0.6257482">
        <time>2022-07-05T15:24:53Z</time>
      </trkpt>
      <trkpt lat="42.243137" lon="-0.62560385">
        <time>2022-07-05T15:24:54Z</time>
      </trkpt>
      <trkpt lat="42.24314" lon="-0.62546086">
        <time>2022-07-05T15:24:55Z</time>
      </trkpt>
      <trkpt lat="42.24315" lon="-0.6253185">
        <time>2022-07-05T15:24:56Z</time>
      </trkpt>
      <trkpt lat="42.243153" lon="-0.62517655">
        <time>2022-07-05T15:24:57Z</time>
      </trkpt>
      <trkpt lat="42.243156" lon="-0.6250355">
        <time>2022-07-05T15:24:58Z</time>
      </trkpt>
      <trkpt lat="42.24316" lon="-0.6248862">
        <time>2022-07-05T15:24:59Z</time>
      </trkpt>
      <trkpt lat="42.243168" lon="-0.6247412">
        <time>2022-07-05T15:25:00Z</time>
      </trkpt>
      <trkpt lat="42.24317" lon="-0.62459886">
        <time>2022-07-05T15:25:01Z</time>
      </trkpt>
      <trkpt lat="42.24318" lon="-0.62446755">
        <time>2022-07-05T15:25:02Z</time>
      </trkpt>
      <trkpt lat="42.243183" lon="-0.6243359">
        <time>2022-07-05T15:25:03Z</time>
      </trkpt>
      <trkpt lat="42.24319" lon="-0.62406224">
        <time>2022-07-05T15:25:05Z</time>
      </trkpt>
      <trkpt lat="42.243195" lon="-0.62393254">
        <time>2022-07-05T15:25:06Z</time>
      </trkpt>
      <trkpt lat="42.2432" lon="-0.6238039">
        <time>2022-07-05T15:25:07Z</time>
      </trkpt>
      <trkpt lat="42.243202" lon="-0.6236759">
        <time>2022-07-05T15:25:08Z</time>
      </trkpt>
      <trkpt lat="42.243206" lon="-0.6235479">
        <time>2022-07-05T15:25:09Z</time>
      </trkpt>
      <trkpt lat="42.243214" lon="-0.6234199">
        <time>2022-07-05T15:25:10Z</time>
      </trkpt>
      <trkpt lat="42.243214" lon="-0.62329227">
        <time>2022-07-05T15:25:11Z</time>
      </trkpt>
      <trkpt lat="42.243214" lon="-0.62316424">
        <time>2022-07-05T15:25:12Z</time>
      </trkpt>
      <trkpt lat="42.243214" lon="-0.62303627">
        <time>2022-07-05T15:25:13Z</time>
      </trkpt>
      <trkpt lat="42.24321" lon="-0.6229076">
        <time>2022-07-05T15:25:14Z</time>
      </trkpt>
      <trkpt lat="42.243206" lon="-0.62277126">
        <time>2022-07-05T15:25:15Z</time>
      </trkpt>
      <trkpt lat="42.2432" lon="-0.6226373">
        <time>2022-07-05T15:25:16Z</time>
      </trkpt>
      <trkpt lat="42.243187" lon="-0.6225136">
        <time>2022-07-05T15:25:17Z</time>
      </trkpt>
      <trkpt lat="42.243176" lon="-0.62238026">
        <time>2022-07-05T15:25:18Z</time>
      </trkpt>
      <trkpt lat="42.243164" lon="-0.62225723">
        <time>2022-07-05T15:25:19Z</time>
      </trkpt>
      <trkpt lat="42.243145" lon="-0.6221326">
        <time>2022-07-05T15:25:20Z</time>
      </trkpt>
      <trkpt lat="42.243126" lon="-0.62200725">
        <time>2022-07-05T15:25:21Z</time>
      </trkpt>
      <trkpt lat="42.243103" lon="-0.62188095">
        <time>2022-07-05T15:25:22Z</time>
      </trkpt>
      <trkpt lat="42.24308" lon="-0.6217553">
        <time>2022-07-05T15:25:23Z</time>
      </trkpt>
      <trkpt lat="42.24305" lon="-0.62162894">
        <time>2022-07-05T15:25:24Z</time>
      </trkpt>
      <trkpt lat="42.243015" lon="-0.6215033">
        <time>2022-07-05T15:25:25Z</time>
      </trkpt>
      <trkpt lat="42.24298" lon="-0.62137663">
        <time>2022-07-05T15:25:26Z</time>
      </trkpt>
      <trkpt lat="42.242947" lon="-0.6212493">
        <time>2022-07-05T15:25:27Z</time>
      </trkpt>
      <trkpt lat="42.242905" lon="-0.6211223">
        <time>2022-07-05T15:25:28Z</time>
      </trkpt>
      <trkpt lat="42.242863" lon="-0.62099665">
        <time>2022-07-05T15:25:29Z</time>
      </trkpt>
      <trkpt lat="42.24282" lon="-0.62087166">
        <time>2022-07-05T15:25:30Z</time>
      </trkpt>
      <trkpt lat="42.24277" lon="-0.6207473">
        <time>2022-07-05T15:25:31Z</time>
      </trkpt>
      <trkpt lat="42.242725" lon="-0.62062263">
        <time>2022-07-05T15:25:32Z</time>
      </trkpt>
      <trkpt lat="42.242676" lon="-0.62049633">
        <time>2022-07-05T15:25:33Z</time>
      </trkpt>
      <trkpt lat="42.242622" lon="-0.6203693">
        <time>2022-07-05T15:25:34Z</time>
      </trkpt>
      <trkpt lat="42.242573" lon="-0.6202423">
        <time>2022-07-05T15:25:35Z</time>
      </trkpt>
      <trkpt lat="42.24252" lon="-0.62011534">
        <time>2022-07-05T15:25:36Z</time>
      </trkpt>
      <trkpt lat="42.242466" lon="-0.61998796">
        <time>2022-07-05T15:25:37Z</time>
      </trkpt>
      <trkpt lat="42.242413" lon="-0.61986035">
        <time>2022-07-05T15:25:38Z</time>
      </trkpt>
      <trkpt lat="42.242355" lon="-0.619733">
        <time>2022-07-05T15:25:39Z</time>
      </trkpt>
      <trkpt lat="42.242302" lon="-0.619606">
        <time>2022-07-05T15:25:40Z</time>
      </trkpt>
      <trkpt lat="42.242245" lon="-0.61947864">
        <time>2022-07-05T15:25:41Z</time>
      </trkpt>
      <trkpt lat="42.24219" lon="-0.6193513">
        <time>2022-07-05T15:25:42Z</time>
      </trkpt>
      <trkpt lat="42.242134" lon="-0.61922437">
        <time>2022-07-05T15:25:43Z</time>
      </trkpt>
      <trkpt lat="42.24208" lon="-0.619098">
        <time>2022-07-05T15:25:44Z</time>
      </trkpt>
      <trkpt lat="42.242027" lon="-0.618972">
        <time>2022-07-05T15:25:45Z</time>
      </trkpt>
      <trkpt lat="42.24197" lon="-0.61884636">
        <time>2022-07-05T15:25:46Z</time>
      </trkpt>
      <trkpt lat="42.24192" lon="-0.61872137">
        <time>2022-07-05T15:25:47Z</time>
      </trkpt>
      <trkpt lat="42.241867" lon="-0.61859936">
        <time>2022-07-05T15:25:48Z</time>
      </trkpt>
      <trkpt lat="42.241814" lon="-0.61847836">
        <time>2022-07-05T15:25:49Z</time>
      </trkpt>
      <trkpt lat="42.241764" lon="-0.6183587">
        <time>2022-07-05T15:25:50Z</time>
      </trkpt>
      <trkpt lat="42.241714" lon="-0.61824137">
        <time>2022-07-05T15:25:51Z</time>
      </trkpt>
      <trkpt lat="42.241665" lon="-0.6181254">
        <time>2022-07-05T15:25:52Z</time>
      </trkpt>
      <trkpt lat="42.241615" lon="-0.6180107">
        <time>2022-07-05T15:25:53Z</time>
      </trkpt>
      <trkpt lat="42.24157" lon="-0.61789834">
        <time>2022-07-05T15:25:54Z</time>
      </trkpt>
      <trkpt lat="42.241524" lon="-0.61778873">
        <time>2022-07-05T15:25:55Z</time>
      </trkpt>
      <trkpt lat="42.241478" lon="-0.6176817">
        <time>2022-07-05T15:25:56Z</time>
      </trkpt>
      <trkpt lat="42.241436" lon="-0.61757636">
        <time>2022-07-05T15:25:57Z</time>
      </trkpt>
      <trkpt lat="42.24139" lon="-0.6174727">
        <time>2022-07-05T15:25:58Z</time>
      </trkpt>
      <trkpt lat="42.24135" lon="-0.6173714">
        <time>2022-07-05T15:25:59Z</time>
      </trkpt>
      <trkpt lat="42.241306" lon="-0.6172707">
        <time>2022-07-05T15:26:00Z</time>
      </trkpt>
      <trkpt lat="42.241264" lon="-0.6171724">
        <time>2022-07-05T15:26:01Z</time>
      </trkpt>
      <trkpt lat="42.241222" lon="-0.6170761">
        <time>2022-07-05T15:26:02Z</time>
      </trkpt>
      <trkpt lat="42.24118" lon="-0.61698174">
        <time>2022-07-05T15:26:03Z</time>
      </trkpt>
      <trkpt lat="42.24114" lon="-0.6168884">
        <time>2022-07-05T15:26:04Z</time>
      </trkpt>
      <trkpt lat="42.241096" lon="-0.61679643">
        <time>2022-07-05T15:26:05Z</time>
      </trkpt>
      <trkpt lat="42.241055" lon="-0.6166981">
        <time>2022-07-05T15:26:06Z</time>
      </trkpt>
      <trkpt lat="42.240974" lon="-0.61650777">
        <time>2022-07-05T15:26:08Z</time>
      </trkpt>
      <trkpt lat="42.240902" lon="-0.6163351">
        <time>2022-07-05T15:26:10Z</time>
      </trkpt>
      <trkpt lat="42.240864" lon="-0.6162484">
        <time>2022-07-05T15:26:11Z</time>
      </trkpt>
      <trkpt lat="42.24083" lon="-0.6161621">
        <time>2022-07-05T15:26:12Z</time>
      </trkpt>
      <trkpt lat="42.240795" lon="-0.6160771">
        <time>2022-07-05T15:26:13Z</time>
      </trkpt>
      <trkpt lat="42.24076" lon="-0.61599344">
        <time>2022-07-05T15:26:14Z</time>
      </trkpt>
      <trkpt lat="42.240726" lon="-0.6159111">
        <time>2022-07-05T15:26:15Z</time>
      </trkpt>
      <trkpt lat="42.240692" lon="-0.6158304">
        <time>2022-07-05T15:26:16Z</time>
      </trkpt>
      <trkpt lat="42.240658" lon="-0.61575013">
        <time>2022-07-05T15:26:17Z</time>
      </trkpt>
      <trkpt lat="42.240623" lon="-0.61567014">
        <time>2022-07-05T15:26:18Z</time>
      </trkpt>
      <trkpt lat="42.24059" lon="-0.61559045">
        <time>2022-07-05T15:26:19Z</time>
      </trkpt>
      <trkpt lat="42.240555" lon="-0.6155118">
        <time>2022-07-05T15:26:20Z</time>
      </trkpt>
      <trkpt lat="42.240517" lon="-0.6154338">
        <time>2022-07-05T15:26:21Z</time>
      </trkpt>
      <trkpt lat="42.240482" lon="-0.6153558">
        <time>2022-07-05T15:26:22Z</time>
      </trkpt>
      <trkpt lat="42.240448" lon="-0.6152785">
        <time>2022-07-05T15:26:23Z</time>
      </trkpt>
      <trkpt lat="42.24041" lon="-0.6152021">
        <time>2022-07-05T15:26:24Z</time>
      </trkpt>
      <trkpt lat="42.240376" lon="-0.61512613">
        <time>2022-07-05T15:26:25Z</time>
      </trkpt>
      <trkpt lat="42.240345" lon="-0.61505014">
        <time>2022-07-05T15:26:26Z</time>
      </trkpt>
      <trkpt lat="42.24031" lon="-0.6149738">
        <time>2022-07-05T15:26:27Z</time>
      </trkpt>
      <trkpt lat="42.24028" lon="-0.61489683">
        <time>2022-07-05T15:26:28Z</time>
      </trkpt>
      <trkpt lat="42.240246" lon="-0.6148205">
        <time>2022-07-05T15:26:29Z</time>
      </trkpt>
      <trkpt lat="42.240215" lon="-0.6147445">
        <time>2022-07-05T15:26:30Z</time>
      </trkpt>
      <trkpt lat="42.24018" lon="-0.6146685">
        <time>2022-07-05T15:26:31Z</time>
      </trkpt>
      <trkpt lat="42.24015" lon="-0.61459213">
        <time>2022-07-05T15:26:32Z</time>
      </trkpt>
      <trkpt lat="42.240116" lon="-0.6145168">
        <time>2022-07-05T15:26:33Z</time>
      </trkpt>
      <trkpt lat="42.240086" lon="-0.61444217">
        <time>2022-07-05T15:26:34Z</time>
      </trkpt>
      <trkpt lat="42.24005" lon="-0.61436784">
        <time>2022-07-05T15:26:35Z</time>
      </trkpt>
      <trkpt lat="42.24002" lon="-0.6142938">
        <time>2022-07-05T15:26:36Z</time>
      </trkpt>
      <trkpt lat="42.239986" lon="-0.61422014">
        <time>2022-07-05T15:26:37Z</time>
      </trkpt>
      <trkpt lat="42.239956" lon="-0.6141458">
        <time>2022-07-05T15:26:38Z</time>
      </trkpt>
      <trkpt lat="42.239925" lon="-0.6140722">
        <time>2022-07-05T15:26:39Z</time>
      </trkpt>
      <trkpt lat="42.239895" lon="-0.6139979">
        <time>2022-07-05T15:26:40Z</time>
      </trkpt>
      <trkpt lat="42.239864" lon="-0.61392385">
        <time>2022-07-05T15:26:41Z</time>
      </trkpt>
      <trkpt lat="42.239834" lon="-0.6138512">
        <time>2022-07-05T15:26:42Z</time>
      </trkpt>
      <trkpt lat="42.2398" lon="-0.6137789">
        <time>2022-07-05T15:26:43Z</time>
      </trkpt>
      <trkpt lat="42.23977" lon="-0.61370754">
        <time>2022-07-05T15:26:44Z</time>
      </trkpt>
      <trkpt lat="42.23974" lon="-0.61363685">
        <time>2022-07-05T15:26:45Z</time>
      </trkpt>
      <trkpt lat="42.239708" lon="-0.6135665">
        <time>2022-07-05T15:26:46Z</time>
      </trkpt>
      <trkpt lat="42.239677" lon="-0.6134962">
        <time>2022-07-05T15:26:47Z</time>
      </trkpt>
      <trkpt lat="42.239647" lon="-0.6134262">
        <time>2022-07-05T15:26:48Z</time>
      </trkpt>
      <trkpt lat="42.239616" lon="-0.61335653">
        <time>2022-07-05T15:26:49Z</time>
      </trkpt>
      <trkpt lat="42.239586" lon="-0.61328757">
        <time>2022-07-05T15:26:50Z</time>
      </trkpt>
      <trkpt lat="42.239555" lon="-0.6132192">
        <time>2022-07-05T15:26:51Z</time>
      </trkpt>
      <trkpt lat="42.23953" lon="-0.61315024">
        <time>2022-07-05T15:26:52Z</time>
      </trkpt>
      <trkpt lat="42.2395" lon="-0.6130809">
        <time>2022-07-05T15:26:53Z</time>
      </trkpt>
      <trkpt lat="42.23947" lon="-0.61301255">
        <time>2022-07-05T15:26:54Z</time>
      </trkpt>
      <trkpt lat="42.239445" lon="-0.6129449">
        <time>2022-07-05T15:26:55Z</time>
      </trkpt>
      <trkpt lat="42.239414" lon="-0.6128769">
        <time>2022-07-05T15:26:56Z</time>
      </trkpt>
      <trkpt lat="42.239388" lon="-0.61280924">
        <time>2022-07-05T15:26:57Z</time>
      </trkpt>
      <trkpt lat="42.239357" lon="-0.6127419">
        <time>2022-07-05T15:26:58Z</time>
      </trkpt>
      <trkpt lat="42.23933" lon="-0.6126759">
        <time>2022-07-05T15:26:59Z</time>
      </trkpt>
      <trkpt lat="42.2393" lon="-0.6126099">
        <time>2022-07-05T15:27:00Z</time>
      </trkpt>
      <trkpt lat="42.23927" lon="-0.6125429">
        <time>2022-07-05T15:27:01Z</time>
      </trkpt>
      <trkpt lat="42.239243" lon="-0.6124756">
        <time>2022-07-05T15:27:02Z</time>
      </trkpt>
      <trkpt lat="42.239212" lon="-0.61240727">
        <time>2022-07-05T15:27:03Z</time>
      </trkpt>
      <trkpt lat="42.23918" lon="-0.6123389">
        <time>2022-07-05T15:27:04Z</time>
      </trkpt>
      <trkpt lat="42.239155" lon="-0.61227125">
        <time>2022-07-05T15:27:05Z</time>
      </trkpt>
      <trkpt lat="42.239124" lon="-0.61220396">
        <time>2022-07-05T15:27:06Z</time>
      </trkpt>
      <trkpt lat="42.239094" lon="-0.61213726">
        <time>2022-07-05T15:27:07Z</time>
      </trkpt>
      <trkpt lat="42.239063" lon="-0.6120706">
        <time>2022-07-05T15:27:08Z</time>
      </trkpt>
      <trkpt lat="42.239033" lon="-0.6120039">
        <time>2022-07-05T15:27:09Z</time>
      </trkpt>
      <trkpt lat="42.239006" lon="-0.6119363">
        <time>2022-07-05T15:27:10Z</time>
      </trkpt>
      <trkpt lat="42.238945" lon="-0.61179894">
        <time>2022-07-05T15:27:12Z</time>
      </trkpt>
      <trkpt lat="42.238914" lon="-0.61173064">
        <time>2022-07-05T15:27:13Z</time>
      </trkpt>
      <trkpt lat="42.23888" lon="-0.6116633">
        <time>2022-07-05T15:27:14Z</time>
      </trkpt>
      <trkpt lat="42.23885" lon="-0.611596">
        <time>2022-07-05T15:27:15Z</time>
      </trkpt>
      <trkpt lat="42.238815" lon="-0.611528">
        <time>2022-07-05T15:27:16Z</time>
      </trkpt>
      <trkpt lat="42.238785" lon="-0.6114606">
        <time>2022-07-05T15:27:17Z</time>
      </trkpt>
      <trkpt lat="42.238754" lon="-0.61139363">
        <time>2022-07-05T15:27:18Z</time>
      </trkpt>
      <trkpt lat="42.238724" lon="-0.61132663">
        <time>2022-07-05T15:27:19Z</time>
      </trkpt>
      <trkpt lat="42.238693" lon="-0.61126">
        <time>2022-07-05T15:27:20Z</time>
      </trkpt>
      <trkpt lat="42.238663" lon="-0.61119366">
        <time>2022-07-05T15:27:21Z</time>
      </trkpt>
      <trkpt lat="42.238632" lon="-0.61112833">
        <time>2022-07-05T15:27:22Z</time>
      </trkpt>
      <trkpt lat="42.2386" lon="-0.611063">
        <time>2022-07-05T15:27:23Z</time>
      </trkpt>
      <trkpt lat="42.23857" lon="-0.61099833">
        <time>2022-07-05T15:27:24Z</time>
      </trkpt>
      <trkpt lat="42.238544" lon="-0.610934">
        <time>2022-07-05T15:27:25Z</time>
      </trkpt>
      <trkpt lat="42.238518" lon="-0.61087036">
        <time>2022-07-05T15:27:26Z</time>
      </trkpt>
      <trkpt lat="42.238487" lon="-0.610807">
        <time>2022-07-05T15:27:27Z</time>
      </trkpt>
      <trkpt lat="42.23846" lon="-0.610746">
        <time>2022-07-05T15:27:28Z</time>
      </trkpt>
      <trkpt lat="42.238434" lon="-0.61068636">
        <time>2022-07-05T15:27:29Z</time>
      </trkpt>
      <trkpt lat="42.238384" lon="-0.61057067">
        <time>2022-07-05T15:27:31Z</time>
      </trkpt>
      <trkpt lat="42.238358" lon="-0.6105134">
        <time>2022-07-05T15:27:32Z</time>
      </trkpt>
      <trkpt lat="42.238308" lon="-0.6104007">
        <time>2022-07-05T15:27:34Z</time>
      </trkpt>
      <trkpt lat="42.238262" lon="-0.61029106">
        <time>2022-07-05T15:27:36Z</time>
      </trkpt>
      <trkpt lat="42.238213" lon="-0.61018336">
        <time>2022-07-05T15:27:38Z</time>
      </trkpt>
      <trkpt lat="42.23817" lon="-0.61007607">
        <time>2022-07-05T15:27:40Z</time>
      </trkpt>
      <trkpt lat="42.238125" lon="-0.6099704">
        <time>2022-07-05T15:27:42Z</time>
      </trkpt>
      <trkpt lat="42.238083" lon="-0.60987175">
        <time>2022-07-05T15:27:44Z</time>
      </trkpt>
      <trkpt lat="42.23804" lon="-0.60977274">
        <time>2022-07-05T15:27:46Z</time>
      </trkpt>
      <trkpt lat="42.238" lon="-0.6096741">
        <time>2022-07-05T15:27:48Z</time>
      </trkpt>
      <trkpt lat="42.23796" lon="-0.6095764">
        <time>2022-07-05T15:27:50Z</time>
      </trkpt>
      <trkpt lat="42.237923" lon="-0.6094801">
        <time>2022-07-05T15:27:52Z</time>
      </trkpt>
      <trkpt lat="42.23788" lon="-0.6093848">
        <time>2022-07-05T15:27:54Z</time>
      </trkpt>
      <trkpt lat="42.23784" lon="-0.6092864">
        <time>2022-07-05T15:27:56Z</time>
      </trkpt>
      <trkpt lat="42.2378" lon="-0.60918844">
        <time>2022-07-05T15:27:58Z</time>
      </trkpt>
      <trkpt lat="42.23776" lon="-0.6090891">
        <time>2022-07-05T15:28:00Z</time>
      </trkpt>
      <trkpt lat="42.237717" lon="-0.6089921">
        <time>2022-07-05T15:28:02Z</time>
      </trkpt>
      <trkpt lat="42.23768" lon="-0.60889506">
        <time>2022-07-05T15:28:04Z</time>
      </trkpt>
      <trkpt lat="42.237637" lon="-0.6087978">
        <time>2022-07-05T15:28:06Z</time>
      </trkpt>
      <trkpt lat="42.237595" lon="-0.60870045">
        <time>2022-07-05T15:28:08Z</time>
      </trkpt>
      <trkpt lat="42.237556" lon="-0.60860044">
        <time>2022-07-05T15:28:10Z</time>
      </trkpt>
      <trkpt lat="42.23752" lon="-0.6084991">
        <time>2022-07-05T15:28:12Z</time>
      </trkpt>
      <trkpt lat="42.23748" lon="-0.6083978">
        <time>2022-07-05T15:28:14Z</time>
      </trkpt>
      <trkpt lat="42.237442" lon="-0.6082944">
        <time>2022-07-05T15:28:16Z</time>
      </trkpt>
      <trkpt lat="42.2374" lon="-0.6081931">
        <time>2022-07-05T15:28:18Z</time>
      </trkpt>
      <trkpt lat="42.237362" lon="-0.6080924">
        <time>2022-07-05T15:28:20Z</time>
      </trkpt>
      <trkpt lat="42.237324" lon="-0.60799015">
        <time>2022-07-05T15:28:22Z</time>
      </trkpt>
      <trkpt lat="42.23728" lon="-0.60788715">
        <time>2022-07-05T15:28:24Z</time>
      </trkpt>
      <trkpt lat="42.237244" lon="-0.60778177">
        <time>2022-07-05T15:28:26Z</time>
      </trkpt>
      <trkpt lat="42.237198" lon="-0.6076758">
        <time>2022-07-05T15:28:28Z</time>
      </trkpt>
      <trkpt lat="42.237152" lon="-0.60757315">
        <time>2022-07-05T15:28:30Z</time>
      </trkpt>
      <trkpt lat="42.237106" lon="-0.6074678">
        <time>2022-07-05T15:28:32Z</time>
      </trkpt>
      <trkpt lat="42.237053" lon="-0.6073591">
        <time>2022-07-05T15:28:34Z</time>
      </trkpt>
      <trkpt lat="42.23703" lon="-0.6073035">
        <time>2022-07-05T15:28:35Z</time>
      </trkpt>
      <trkpt lat="42.236984" lon="-0.60719913">
        <time>2022-07-05T15:28:37Z</time>
      </trkpt>
      <trkpt lat="42.236935" lon="-0.6070861">
        <time>2022-07-05T15:28:39Z</time>
      </trkpt>
      <trkpt lat="42.236885" lon="-0.6069738">
        <time>2022-07-05T15:28:41Z</time>
      </trkpt>
      <trkpt lat="42.236862" lon="-0.6069175">
        <time>2022-07-05T15:28:42Z</time>
      </trkpt>
      <trkpt lat="42.236813" lon="-0.6068078">
        <time>2022-07-05T15:28:44Z</time>
      </trkpt>
      <trkpt lat="42.23679" lon="-0.6067542">
        <time>2022-07-05T15:28:45Z</time>
      </trkpt>
      <trkpt lat="42.23674" lon="-0.6066462">
        <time>2022-07-05T15:28:47Z</time>
      </trkpt>
      <trkpt lat="42.236694" lon="-0.6065375">
        <time>2022-07-05T15:28:49Z</time>
      </trkpt>
      <trkpt lat="42.23667" lon="-0.60648286">
        <time>2022-07-05T15:28:50Z</time>
      </trkpt>
      <trkpt lat="42.236626" lon="-0.6063759">
        <time>2022-07-05T15:28:52Z</time>
      </trkpt>
      <trkpt lat="42.236576" lon="-0.6062625">
        <time>2022-07-05T15:28:54Z</time>
      </trkpt>
      <trkpt lat="42.236553" lon="-0.6062062">
        <time>2022-07-05T15:28:55Z</time>
      </trkpt>
      <trkpt lat="42.236504" lon="-0.6060925">
        <time>2022-07-05T15:28:57Z</time>
      </trkpt>
      <trkpt lat="42.23648" lon="-0.6060362">
        <time>2022-07-05T15:28:58Z</time>
      </trkpt>
      <trkpt lat="42.236435" lon="-0.60592586">
        <time>2022-07-05T15:29:00Z</time>
      </trkpt>
      <trkpt lat="42.236385" lon="-0.6058102">
        <time>2022-07-05T15:29:02Z</time>
      </trkpt>
      <trkpt lat="42.236362" lon="-0.6057529">
        <time>2022-07-05T15:29:03Z</time>
      </trkpt>
      <trkpt lat="42.23631" lon="-0.6056382">
        <time>2022-07-05T15:29:05Z</time>
      </trkpt>
      <trkpt lat="42.23626" lon="-0.6055236">
        <time>2022-07-05T15:29:07Z</time>
      </trkpt>
      <trkpt lat="42.236206" lon="-0.60540956">
        <time>2022-07-05T15:29:09Z</time>
      </trkpt>
      <trkpt lat="42.23616" lon="-0.6052949">
        <time>2022-07-05T15:29:11Z</time>
      </trkpt>
      <trkpt lat="42.23611" lon="-0.6051809">
        <time>2022-07-05T15:29:13Z</time>
      </trkpt>
      <trkpt lat="42.236084" lon="-0.60512424">
        <time>2022-07-05T15:29:14Z</time>
      </trkpt>
      <trkpt lat="42.236034" lon="-0.6050102">
        <time>2022-07-05T15:29:16Z</time>
      </trkpt>
      <trkpt lat="42.23598" lon="-0.60489357">
        <time>2022-07-05T15:29:18Z</time>
      </trkpt>
      <trkpt lat="42.23593" lon="-0.6047773">
        <time>2022-07-05T15:29:20Z</time>
      </trkpt>
      <trkpt lat="42.235905" lon="-0.6047189">
        <time>2022-07-05T15:29:21Z</time>
      </trkpt>
      <trkpt lat="42.235855" lon="-0.60460824">
        <time>2022-07-05T15:29:23Z</time>
      </trkpt>
      <trkpt lat="42.23581" lon="-0.6044949">
        <time>2022-07-05T15:29:25Z</time>
      </trkpt>
      <trkpt lat="42.235786" lon="-0.6044389">
        <time>2022-07-05T15:29:26Z</time>
      </trkpt>
      <trkpt lat="42.235737" lon="-0.6043243">
        <time>2022-07-05T15:29:28Z</time>
      </trkpt>
      <trkpt lat="42.235714" lon="-0.60426694">
        <time>2022-07-05T15:29:29Z</time>
      </trkpt>
      <trkpt lat="42.235664" lon="-0.60414964">
        <time>2022-07-05T15:29:31Z</time>
      </trkpt>
      <trkpt lat="42.235622" lon="-0.60403925">
        <time>2022-07-05T15:29:33Z</time>
      </trkpt>
      <trkpt lat="42.2356" lon="-0.60398364">
        <time>2022-07-05T15:29:34Z</time>
      </trkpt>
      <trkpt lat="42.235554" lon="-0.60387164">
        <time>2022-07-05T15:29:36Z</time>
      </trkpt>
      <trkpt lat="42.235508" lon="-0.6037616">
        <time>2022-07-05T15:29:38Z</time>
      </trkpt>
      <trkpt lat="42.23546" lon="-0.60365194">
        <time>2022-07-05T15:29:40Z</time>
      </trkpt>
      <trkpt lat="42.235386" lon="-0.60348666">
        <time>2022-07-05T15:29:43Z</time>
      </trkpt>
      <trkpt lat="42.23534" lon="-0.603372">
        <time>2022-07-05T15:29:45Z</time>
      </trkpt>
      <trkpt lat="42.235317" lon="-0.6033143">
        <time>2022-07-05T15:29:46Z</time>
      </trkpt>
      <trkpt lat="42.23527" lon="-0.6032053">
        <time>2022-07-05T15:29:48Z</time>
      </trkpt>
      <trkpt lat="42.23525" lon="-0.6031493">
        <time>2022-07-05T15:29:49Z</time>
      </trkpt>
      <trkpt lat="42.2352" lon="-0.60303664">
        <time>2022-07-05T15:29:51Z</time>
      </trkpt>
      <trkpt lat="42.235176" lon="-0.6029763">
        <time>2022-07-05T15:29:52Z</time>
      </trkpt>
      <trkpt lat="42.235123" lon="-0.6028583">
        <time>2022-07-05T15:29:54Z</time>
      </trkpt>
      <trkpt lat="42.235077" lon="-0.602745">
        <time>2022-07-05T15:29:56Z</time>
      </trkpt>
      <trkpt lat="42.235027" lon="-0.602629">
        <time>2022-07-05T15:29:58Z</time>
      </trkpt>
      <trkpt lat="42.235" lon="-0.60257035">
        <time>2022-07-05T15:29:59Z</time>
      </trkpt>
      <trkpt lat="42.234978" lon="-0.60251534">
        <time>2022-07-05T15:30:00Z</time>
      </trkpt>
      <trkpt lat="42.234932" lon="-0.602401">
        <time>2022-07-05T15:30:02Z</time>
      </trkpt>
      <trkpt lat="42.234905" lon="-0.60234267">
        <time>2022-07-05T15:30:03Z</time>
      </trkpt>
      <trkpt lat="42.234856" lon="-0.60222435">
        <time>2022-07-05T15:30:05Z</time>
      </trkpt>
      <trkpt lat="42.23483" lon="-0.6021643">
        <time>2022-07-05T15:30:06Z</time>
      </trkpt>
      <trkpt lat="42.23478" lon="-0.60204166">
        <time>2022-07-05T15:30:08Z</time>
      </trkpt>
      <trkpt lat="42.234753" lon="-0.60197866">
        <time>2022-07-05T15:30:09Z</time>
      </trkpt>
      <trkpt lat="42.23473" lon="-0.601921">
        <time>2022-07-05T15:30:10Z</time>
      </trkpt>
      <trkpt lat="42.23468" lon="-0.6018047">
        <time>2022-07-05T15:30:12Z</time>
      </trkpt>
      <trkpt lat="42.23463" lon="-0.60168266">
        <time>2022-07-05T15:30:14Z</time>
      </trkpt>
      <trkpt lat="42.234604" lon="-0.60162705">
        <time>2022-07-05T15:30:15Z</time>
      </trkpt>
      <trkpt lat="42.234554" lon="-0.6015117">
        <time>2022-07-05T15:30:17Z</time>
      </trkpt>
      <trkpt lat="42.2345" lon="-0.6013887">
        <time>2022-07-05T15:30:19Z</time>
      </trkpt>
      <trkpt lat="42.234478" lon="-0.60133207">
        <time>2022-07-05T15:30:20Z</time>
      </trkpt>
      <trkpt lat="42.234425" lon="-0.6012164">
        <time>2022-07-05T15:30:22Z</time>
      </trkpt>
      <trkpt lat="42.2344" lon="-0.60115737">
        <time>2022-07-05T15:30:23Z</time>
      </trkpt>
      <trkpt lat="42.23435" lon="-0.60103905">
        <time>2022-07-05T15:30:25Z</time>
      </trkpt>
      <trkpt lat="42.2343" lon="-0.60092205">
        <time>2022-07-05T15:30:27Z</time>
      </trkpt>
      <trkpt lat="42.234276" lon="-0.6008644">
        <time>2022-07-05T15:30:28Z</time>
      </trkpt>
      <trkpt lat="42.234226" lon="-0.6007494">
        <time>2022-07-05T15:30:30Z</time>
      </trkpt>
      <trkpt lat="42.234177" lon="-0.6006357">
        <time>2022-07-05T15:30:32Z</time>
      </trkpt>
      <trkpt lat="42.234154" lon="-0.6005791">
        <time>2022-07-05T15:30:33Z</time>
      </trkpt>
      <trkpt lat="42.234108" lon="-0.60046774">
        <time>2022-07-05T15:30:35Z</time>
      </trkpt>
      <trkpt lat="42.23408" lon="-0.6004121">
        <time>2022-07-05T15:30:36Z</time>
      </trkpt>
      <trkpt lat="42.23403" lon="-0.60030144">
        <time>2022-07-05T15:30:38Z</time>
      </trkpt>
      <trkpt lat="42.23401" lon="-0.6002461">
        <time>2022-07-05T15:30:39Z</time>
      </trkpt>
      <trkpt lat="42.23396" lon="-0.60012746">
        <time>2022-07-05T15:30:41Z</time>
      </trkpt>
      <trkpt lat="42.23391" lon="-0.6000141">
        <time>2022-07-05T15:30:43Z</time>
      </trkpt>
      <trkpt lat="42.233864" lon="-0.5998951">
        <time>2022-07-05T15:30:45Z</time>
      </trkpt>
      <trkpt lat="42.233818" lon="-0.5997848">
        <time>2022-07-05T15:30:47Z</time>
      </trkpt>
      <trkpt lat="42.23379" lon="-0.59972477">
        <time>2022-07-05T15:30:48Z</time>
      </trkpt>
      <trkpt lat="42.23374" lon="-0.5996051">
        <time>2022-07-05T15:30:50Z</time>
      </trkpt>
      <trkpt lat="42.233715" lon="-0.5995455">
        <time>2022-07-05T15:30:51Z</time>
      </trkpt>
      <trkpt lat="42.233665" lon="-0.59942913">
        <time>2022-07-05T15:30:53Z</time>
      </trkpt>
      <trkpt lat="42.233616" lon="-0.5993148">
        <time>2022-07-05T15:30:55Z</time>
      </trkpt>
      <trkpt lat="42.233547" lon="-0.59914213">
        <time>2022-07-05T15:30:58Z</time>
      </trkpt>
      <trkpt lat="42.23352" lon="-0.5990838">
        <time>2022-07-05T15:30:59Z</time>
      </trkpt>
      <trkpt lat="42.23347" lon="-0.59896517">
        <time>2022-07-05T15:31:01Z</time>
      </trkpt>
      <trkpt lat="42.233418" lon="-0.5988441">
        <time>2022-07-05T15:31:03Z</time>
      </trkpt>
      <trkpt lat="42.23339" lon="-0.5987825">
        <time>2022-07-05T15:31:04Z</time>
      </trkpt>
      <trkpt lat="42.233368" lon="-0.59871984">
        <time>2022-07-05T15:31:05Z</time>
      </trkpt>
      <trkpt lat="42.23334" lon="-0.5986565">
        <time>2022-07-05T15:31:06Z</time>
      </trkpt>
      <trkpt lat="42.233315" lon="-0.5985942">
        <time>2022-07-05T15:31:07Z</time>
      </trkpt>
      <trkpt lat="42.233288" lon="-0.59853184">
        <time>2022-07-05T15:31:08Z</time>
      </trkpt>
      <trkpt lat="42.233234" lon="-0.5984062">
        <time>2022-07-05T15:31:10Z</time>
      </trkpt>
      <trkpt lat="42.233204" lon="-0.5983418">
        <time>2022-07-05T15:31:11Z</time>
      </trkpt>
      <trkpt lat="42.233177" lon="-0.59827715">
        <time>2022-07-05T15:31:12Z</time>
      </trkpt>
      <trkpt lat="42.23315" lon="-0.59821254">
        <time>2022-07-05T15:31:13Z</time>
      </trkpt>
      <trkpt lat="42.23312" lon="-0.5981475">
        <time>2022-07-05T15:31:14Z</time>
      </trkpt>
      <trkpt lat="42.233093" lon="-0.5980822">
        <time>2022-07-05T15:31:15Z</time>
      </trkpt>
      <trkpt lat="42.233063" lon="-0.59801686">
        <time>2022-07-05T15:31:16Z</time>
      </trkpt>
      <trkpt lat="42.233036" lon="-0.59795153">
        <time>2022-07-05T15:31:17Z</time>
      </trkpt>
      <trkpt lat="42.233006" lon="-0.5978872">
        <time>2022-07-05T15:31:18Z</time>
      </trkpt>
      <trkpt lat="42.232975" lon="-0.59782284">
        <time>2022-07-05T15:31:19Z</time>
      </trkpt>
      <trkpt lat="42.23295" lon="-0.5977589">
        <time>2022-07-05T15:31:20Z</time>
      </trkpt>
      <trkpt lat="42.232918" lon="-0.5976959">
        <time>2022-07-05T15:31:21Z</time>
      </trkpt>
      <trkpt lat="42.23289" lon="-0.5976315">
        <time>2022-07-05T15:31:22Z</time>
      </trkpt>
      <trkpt lat="42.232864" lon="-0.59756655">
        <time>2022-07-05T15:31:23Z</time>
      </trkpt>
      <trkpt lat="42.232838" lon="-0.5975002">
        <time>2022-07-05T15:31:24Z</time>
      </trkpt>
      <trkpt lat="42.23281" lon="-0.59743524">
        <time>2022-07-05T15:31:25Z</time>
      </trkpt>
      <trkpt lat="42.232784" lon="-0.59737056">
        <time>2022-07-05T15:31:26Z</time>
      </trkpt>
      <trkpt lat="42.232758" lon="-0.5973069">
        <time>2022-07-05T15:31:27Z</time>
      </trkpt>
      <trkpt lat="42.23273" lon="-0.59724325">
        <time>2022-07-05T15:31:28Z</time>
      </trkpt>
      <trkpt lat="42.232704" lon="-0.5971809">
        <time>2022-07-05T15:31:29Z</time>
      </trkpt>
      <trkpt lat="42.232677" lon="-0.59711754">
        <time>2022-07-05T15:31:30Z</time>
      </trkpt>
      <trkpt lat="42.232647" lon="-0.5970539">
        <time>2022-07-05T15:31:31Z</time>
      </trkpt>
      <trkpt lat="42.23262" lon="-0.5969902">
        <time>2022-07-05T15:31:32Z</time>
      </trkpt>
      <trkpt lat="42.232594" lon="-0.5969263">
        <time>2022-07-05T15:31:33Z</time>
      </trkpt>
      <trkpt lat="42.232567" lon="-0.5968629">
        <time>2022-07-05T15:31:34Z</time>
      </trkpt>
      <trkpt lat="42.23254" lon="-0.59680057">
        <time>2022-07-05T15:31:35Z</time>
      </trkpt>
      <trkpt lat="42.232513" lon="-0.5967386">
        <time>2022-07-05T15:31:36Z</time>
      </trkpt>
      <trkpt lat="42.232464" lon="-0.5966133">
        <time>2022-07-05T15:31:38Z</time>
      </trkpt>
      <trkpt lat="42.232437" lon="-0.59655094">
        <time>2022-07-05T15:31:39Z</time>
      </trkpt>
      <trkpt lat="42.232414" lon="-0.59648925">
        <time>2022-07-05T15:31:40Z</time>
      </trkpt>
      <trkpt lat="42.232384" lon="-0.59642726">
        <time>2022-07-05T15:31:41Z</time>
      </trkpt>
      <trkpt lat="42.232357" lon="-0.5963646">
        <time>2022-07-05T15:31:42Z</time>
      </trkpt>
      <trkpt lat="42.23233" lon="-0.596302">
        <time>2022-07-05T15:31:43Z</time>
      </trkpt>
      <trkpt lat="42.232304" lon="-0.596239">
        <time>2022-07-05T15:31:44Z</time>
      </trkpt>
      <trkpt lat="42.232277" lon="-0.5961756">
        <time>2022-07-05T15:31:45Z</time>
      </trkpt>
      <trkpt lat="42.23225" lon="-0.5961126">
        <time>2022-07-05T15:31:46Z</time>
      </trkpt>
      <trkpt lat="42.232224" lon="-0.59604996">
        <time>2022-07-05T15:31:47Z</time>
      </trkpt>
      <trkpt lat="42.232197" lon="-0.5959876">
        <time>2022-07-05T15:31:48Z</time>
      </trkpt>
      <trkpt lat="42.232166" lon="-0.5959253">
        <time>2022-07-05T15:31:49Z</time>
      </trkpt>
      <trkpt lat="42.23214" lon="-0.595863">
        <time>2022-07-05T15:31:50Z</time>
      </trkpt>
      <trkpt lat="42.232117" lon="-0.5958003">
        <time>2022-07-05T15:31:51Z</time>
      </trkpt>
      <trkpt lat="42.232086" lon="-0.59573764">
        <time>2022-07-05T15:31:52Z</time>
      </trkpt>
      <trkpt lat="42.23206" lon="-0.595675">
        <time>2022-07-05T15:31:53Z</time>
      </trkpt>
      <trkpt lat="42.232033" lon="-0.59561163">
        <time>2022-07-05T15:31:54Z</time>
      </trkpt>
      <trkpt lat="42.232006" lon="-0.595548">
        <time>2022-07-05T15:31:55Z</time>
      </trkpt>
      <trkpt lat="42.23198" lon="-0.5954843">
        <time>2022-07-05T15:31:56Z</time>
      </trkpt>
      <trkpt lat="42.231953" lon="-0.595421">
        <time>2022-07-05T15:31:57Z</time>
      </trkpt>
      <trkpt lat="42.231926" lon="-0.5953584">
        <time>2022-07-05T15:31:58Z</time>
      </trkpt>
      <trkpt lat="42.2319" lon="-0.59529704">
        <time>2022-07-05T15:31:59Z</time>
      </trkpt>
      <trkpt lat="42.231873" lon="-0.5952357">
        <time>2022-07-05T15:32:00Z</time>
      </trkpt>
      <trkpt lat="42.231846" lon="-0.5951747">
        <time>2022-07-05T15:32:01Z</time>
      </trkpt>
      <trkpt lat="42.231792" lon="-0.5950517">
        <time>2022-07-05T15:32:03Z</time>
      </trkpt>
      <trkpt lat="42.231766" lon="-0.5949887">
        <time>2022-07-05T15:32:04Z</time>
      </trkpt>
      <trkpt lat="42.23174" lon="-0.5949247">
        <time>2022-07-05T15:32:05Z</time>
      </trkpt>
      <trkpt lat="42.231712" lon="-0.5948607">
        <time>2022-07-05T15:32:06Z</time>
      </trkpt>
      <trkpt lat="42.23169" lon="-0.5947967">
        <time>2022-07-05T15:32:07Z</time>
      </trkpt>
      <trkpt lat="42.23166" lon="-0.5947327">
        <time>2022-07-05T15:32:08Z</time>
      </trkpt>
      <trkpt lat="42.231632" lon="-0.5946677">
        <time>2022-07-05T15:32:09Z</time>
      </trkpt>
      <trkpt lat="42.231606" lon="-0.5946027">
        <time>2022-07-05T15:32:10Z</time>
      </trkpt>
      <trkpt lat="42.23158" lon="-0.5945374">
        <time>2022-07-05T15:32:11Z</time>
      </trkpt>
      <trkpt lat="42.231552" lon="-0.59447205">
        <time>2022-07-05T15:32:12Z</time>
      </trkpt>
      <trkpt lat="42.23152" lon="-0.5944057">
        <time>2022-07-05T15:32:13Z</time>
      </trkpt>
      <trkpt lat="42.23147" lon="-0.5942734">
        <time>2022-07-05T15:32:15Z</time>
      </trkpt>
      <trkpt lat="42.231438" lon="-0.5942067">
        <time>2022-07-05T15:32:16Z</time>
      </trkpt>
      <trkpt lat="42.23141" lon="-0.59414005">
        <time>2022-07-05T15:32:17Z</time>
      </trkpt>
      <trkpt lat="42.231384" lon="-0.594075">
        <time>2022-07-05T15:32:18Z</time>
      </trkpt>
      <trkpt lat="42.231358" lon="-0.5940104">
        <time>2022-07-05T15:32:19Z</time>
      </trkpt>
      <trkpt lat="42.231327" lon="-0.59394574">
        <time>2022-07-05T15:32:20Z</time>
      </trkpt>
      <trkpt lat="42.231297" lon="-0.5938804">
        <time>2022-07-05T15:32:21Z</time>
      </trkpt>
      <trkpt lat="42.23127" lon="-0.59381473">
        <time>2022-07-05T15:32:22Z</time>
      </trkpt>
      <trkpt lat="42.23124" lon="-0.59374875">
        <time>2022-07-05T15:32:23Z</time>
      </trkpt>
      <trkpt lat="42.231213" lon="-0.5936814">
        <time>2022-07-05T15:32:24Z</time>
      </trkpt>
      <trkpt lat="42.231186" lon="-0.59361374">
        <time>2022-07-05T15:32:25Z</time>
      </trkpt>
      <trkpt lat="42.231155" lon="-0.59354573">
        <time>2022-07-05T15:32:26Z</time>
      </trkpt>
      <trkpt lat="42.231125" lon="-0.5934771">
        <time>2022-07-05T15:32:27Z</time>
      </trkpt>
      <trkpt lat="42.231094" lon="-0.59340876">
        <time>2022-07-05T15:32:28Z</time>
      </trkpt>
      <trkpt lat="42.231064" lon="-0.59334075">
        <time>2022-07-05T15:32:29Z</time>
      </trkpt>
      <trkpt lat="42.231033" lon="-0.5932721">
        <time>2022-07-05T15:32:30Z</time>
      </trkpt>
      <trkpt lat="42.231003" lon="-0.5932041">
        <time>2022-07-05T15:32:31Z</time>
      </trkpt>
      <trkpt lat="42.230976" lon="-0.5931368">
        <time>2022-07-05T15:32:32Z</time>
      </trkpt>
      <trkpt lat="42.230946" lon="-0.59306943">
        <time>2022-07-05T15:32:33Z</time>
      </trkpt>
      <trkpt lat="42.230915" lon="-0.59300077">
        <time>2022-07-05T15:32:34Z</time>
      </trkpt>
      <trkpt lat="42.230885" lon="-0.5929311">
        <time>2022-07-05T15:32:35Z</time>
      </trkpt>
      <trkpt lat="42.230854" lon="-0.5928615">
        <time>2022-07-05T15:32:36Z</time>
      </trkpt>
      <trkpt lat="42.230827" lon="-0.59279144">
        <time>2022-07-05T15:32:37Z</time>
      </trkpt>
      <trkpt lat="42.230797" lon="-0.59272146">
        <time>2022-07-05T15:32:38Z</time>
      </trkpt>
      <trkpt lat="42.230766" lon="-0.5926515">
        <time>2022-07-05T15:32:39Z</time>
      </trkpt>
      <trkpt lat="42.230736" lon="-0.5925828">
        <time>2022-07-05T15:32:40Z</time>
      </trkpt>
      <trkpt lat="42.230705" lon="-0.5925151">
        <time>2022-07-05T15:32:41Z</time>
      </trkpt>
      <trkpt lat="42.23068" lon="-0.59244746">
        <time>2022-07-05T15:32:42Z</time>
      </trkpt>
      <trkpt lat="42.230648" lon="-0.5923798">
        <time>2022-07-05T15:32:43Z</time>
      </trkpt>
      <trkpt lat="42.23062" lon="-0.59231216">
        <time>2022-07-05T15:32:44Z</time>
      </trkpt>
      <trkpt lat="42.230595" lon="-0.59224516">
        <time>2022-07-05T15:32:45Z</time>
      </trkpt>
      <trkpt lat="42.230568" lon="-0.5921778">
        <time>2022-07-05T15:32:46Z</time>
      </trkpt>
      <trkpt lat="42.230537" lon="-0.5921115">
        <time>2022-07-05T15:32:47Z</time>
      </trkpt>
      <trkpt lat="42.23051" lon="-0.5920455">
        <time>2022-07-05T15:32:48Z</time>
      </trkpt>
      <trkpt lat="42.23048" lon="-0.59197986">
        <time>2022-07-05T15:32:49Z</time>
      </trkpt>
      <trkpt lat="42.230453" lon="-0.5919135">
        <time>2022-07-05T15:32:50Z</time>
      </trkpt>
      <trkpt lat="42.230423" lon="-0.59184754">
        <time>2022-07-05T15:32:51Z</time>
      </trkpt>
      <trkpt lat="42.2304" lon="-0.5917855">
        <time>2022-07-05T15:32:52Z</time>
      </trkpt>
      <trkpt lat="42.23037" lon="-0.5917175">
        <time>2022-07-05T15:32:53Z</time>
      </trkpt>
      <trkpt lat="42.230343" lon="-0.5916505">
        <time>2022-07-05T15:32:54Z</time>
      </trkpt>
      <trkpt lat="42.230312" lon="-0.59158486">
        <time>2022-07-05T15:32:55Z</time>
      </trkpt>
      <trkpt lat="42.230286" lon="-0.5915215">
        <time>2022-07-05T15:32:56Z</time>
      </trkpt>
      <trkpt lat="42.23026" lon="-0.59145886">
        <time>2022-07-05T15:32:57Z</time>
      </trkpt>
      <trkpt lat="42.230232" lon="-0.59139687">
        <time>2022-07-05T15:32:58Z</time>
      </trkpt>
      <trkpt lat="42.230206" lon="-0.5913352">
        <time>2022-07-05T15:32:59Z</time>
      </trkpt>
      <trkpt lat="42.23018" lon="-0.5912729">
        <time>2022-07-05T15:33:00Z</time>
      </trkpt>
      <trkpt lat="42.230152" lon="-0.5912112">
        <time>2022-07-05T15:33:01Z</time>
      </trkpt>
      <trkpt lat="42.230125" lon="-0.59114957">
        <time>2022-07-05T15:33:02Z</time>
      </trkpt>
      <trkpt lat="42.230076" lon="-0.5910279">
        <time>2022-07-05T15:33:04Z</time>
      </trkpt>
      <trkpt lat="42.23005" lon="-0.59096724">
        <time>2022-07-05T15:33:05Z</time>
      </trkpt>
      <trkpt lat="42.230022" lon="-0.5909076">
        <time>2022-07-05T15:33:06Z</time>
      </trkpt>
      <trkpt lat="42.229992" lon="-0.59084725">
        <time>2022-07-05T15:33:07Z</time>
      </trkpt>
      <trkpt lat="42.22994" lon="-0.59072757">
        <time>2022-07-05T15:33:09Z</time>
      </trkpt>
      <trkpt lat="42.229916" lon="-0.59066826">
        <time>2022-07-05T15:33:10Z</time>
      </trkpt>
      <trkpt lat="42.22989" lon="-0.5906089">
        <time>2022-07-05T15:33:11Z</time>
      </trkpt>
      <trkpt lat="42.22984" lon="-0.5904876">
        <time>2022-07-05T15:33:13Z</time>
      </trkpt>
      <trkpt lat="42.229816" lon="-0.5904273">
        <time>2022-07-05T15:33:14Z</time>
      </trkpt>
      <trkpt lat="42.229763" lon="-0.5903066">
        <time>2022-07-05T15:33:16Z</time>
      </trkpt>
      <trkpt lat="42.22974" lon="-0.5902456">
        <time>2022-07-05T15:33:17Z</time>
      </trkpt>
      <trkpt lat="42.229687" lon="-0.59011996">
        <time>2022-07-05T15:33:19Z</time>
      </trkpt>
      <trkpt lat="42.229664" lon="-0.59005696">
        <time>2022-07-05T15:33:20Z</time>
      </trkpt>
      <trkpt lat="42.229637" lon="-0.58999527">
        <time>2022-07-05T15:33:21Z</time>
      </trkpt>
      <trkpt lat="42.22961" lon="-0.5899333">
        <time>2022-07-05T15:33:22Z</time>
      </trkpt>
      <trkpt lat="42.229584" lon="-0.5898723">
        <time>2022-07-05T15:33:23Z</time>
      </trkpt>
      <trkpt lat="42.229557" lon="-0.58981025">
        <time>2022-07-05T15:33:24Z</time>
      </trkpt>
      <trkpt lat="42.229527" lon="-0.58974797">
        <time>2022-07-05T15:33:25Z</time>
      </trkpt>
      <trkpt lat="42.2295" lon="-0.58968526">
        <time>2022-07-05T15:33:26Z</time>
      </trkpt>
      <trkpt lat="42.229473" lon="-0.58962196">
        <time>2022-07-05T15:33:27Z</time>
      </trkpt>
      <trkpt lat="42.229446" lon="-0.5895553">
        <time>2022-07-05T15:33:28Z</time>
      </trkpt>
      <trkpt lat="42.22942" lon="-0.589493">
        <time>2022-07-05T15:33:29Z</time>
      </trkpt>
      <trkpt lat="42.229393" lon="-0.5894253">
        <time>2022-07-05T15:33:30Z</time>
      </trkpt>
      <trkpt lat="42.229366" lon="-0.589363">
        <time>2022-07-05T15:33:31Z</time>
      </trkpt>
      <trkpt lat="42.229313" lon="-0.58923966">
        <time>2022-07-05T15:33:33Z</time>
      </trkpt>
      <trkpt lat="42.229286" lon="-0.589177">
        <time>2022-07-05T15:33:34Z</time>
      </trkpt>
      <trkpt lat="42.22926" lon="-0.5891153">
        <time>2022-07-05T15:33:35Z</time>
      </trkpt>
      <trkpt lat="42.22923" lon="-0.58905333">
        <time>2022-07-05T15:33:36Z</time>
      </trkpt>
      <trkpt lat="42.229202" lon="-0.58899164">
        <time>2022-07-05T15:33:37Z</time>
      </trkpt>
      <trkpt lat="42.229176" lon="-0.58893067">
        <time>2022-07-05T15:33:38Z</time>
      </trkpt>
      <trkpt lat="42.22915" lon="-0.58886766">
        <time>2022-07-05T15:33:39Z</time>
      </trkpt>
      <trkpt lat="42.229122" lon="-0.58880335">
        <time>2022-07-05T15:33:40Z</time>
      </trkpt>
      <trkpt lat="42.229095" lon="-0.5887383">
        <time>2022-07-05T15:33:41Z</time>
      </trkpt>
      <trkpt lat="42.22907" lon="-0.588673">
        <time>2022-07-05T15:33:42Z</time>
      </trkpt>
      <trkpt lat="42.229042" lon="-0.5886074">
        <time>2022-07-05T15:33:43Z</time>
      </trkpt>
      <trkpt lat="42.22901" lon="-0.58854103">
        <time>2022-07-05T15:33:44Z</time>
      </trkpt>
      <trkpt lat="42.22898" lon="-0.5884757">
        <time>2022-07-05T15:33:45Z</time>
      </trkpt>
      <trkpt lat="42.22895" lon="-0.588409">
        <time>2022-07-05T15:33:46Z</time>
      </trkpt>
      <trkpt lat="42.228924" lon="-0.5883417">
        <time>2022-07-05T15:33:47Z</time>
      </trkpt>
      <trkpt lat="42.228893" lon="-0.5882727">
        <time>2022-07-05T15:33:48Z</time>
      </trkpt>
      <trkpt lat="42.228863" lon="-0.588203">
        <time>2022-07-05T15:33:49Z</time>
      </trkpt>
      <trkpt lat="42.228836" lon="-0.58813274">
        <time>2022-07-05T15:33:50Z</time>
      </trkpt>
      <trkpt lat="42.228806" lon="-0.5880624">
        <time>2022-07-05T15:33:51Z</time>
      </trkpt>
      <trkpt lat="42.228775" lon="-0.587993">
        <time>2022-07-05T15:33:52Z</time>
      </trkpt>
      <trkpt lat="42.228745" lon="-0.5879237">
        <time>2022-07-05T15:33:53Z</time>
      </trkpt>
      <trkpt lat="42.228714" lon="-0.58785474">
        <time>2022-07-05T15:33:54Z</time>
      </trkpt>
      <trkpt lat="42.228683" lon="-0.58778507">
        <time>2022-07-05T15:33:55Z</time>
      </trkpt>
      <trkpt lat="42.228653" lon="-0.5877144">
        <time>2022-07-05T15:33:56Z</time>
      </trkpt>
      <trkpt lat="42.228622" lon="-0.58764476">
        <time>2022-07-05T15:33:57Z</time>
      </trkpt>
      <trkpt lat="42.228596" lon="-0.5875761">
        <time>2022-07-05T15:33:58Z</time>
      </trkpt>
      <trkpt lat="42.228565" lon="-0.5875091">
        <time>2022-07-05T15:33:59Z</time>
      </trkpt>
      <trkpt lat="42.228535" lon="-0.5874424">
        <time>2022-07-05T15:34:00Z</time>
      </trkpt>
      <trkpt lat="42.228504" lon="-0.5873771">
        <time>2022-07-05T15:34:01Z</time>
      </trkpt>
      <trkpt lat="42.228477" lon="-0.5873131">
        <time>2022-07-05T15:34:02Z</time>
      </trkpt>
      <trkpt lat="42.22845" lon="-0.5872504">
        <time>2022-07-05T15:34:03Z</time>
      </trkpt>
      <trkpt lat="42.228424" lon="-0.5871881">
        <time>2022-07-05T15:34:04Z</time>
      </trkpt>
      <trkpt lat="42.228397" lon="-0.58712643">
        <time>2022-07-05T15:34:05Z</time>
      </trkpt>
      <trkpt lat="42.22837" lon="-0.5870664">
        <time>2022-07-05T15:34:06Z</time>
      </trkpt>
      <trkpt lat="42.228348" lon="-0.5870071">
        <time>2022-07-05T15:34:07Z</time>
      </trkpt>
      <trkpt lat="42.228294" lon="-0.58689046">
        <time>2022-07-05T15:34:09Z</time>
      </trkpt>
      <trkpt lat="42.228245" lon="-0.5867795">
        <time>2022-07-05T15:34:11Z</time>
      </trkpt>
      <trkpt lat="42.228195" lon="-0.5866728">
        <time>2022-07-05T15:34:13Z</time>
      </trkpt>
      <trkpt lat="42.228146" lon="-0.5865688">
        <time>2022-07-05T15:34:15Z</time>
      </trkpt>
      <trkpt lat="42.2281" lon="-0.5864658">
        <time>2022-07-05T15:34:17Z</time>
      </trkpt>
      <trkpt lat="42.228054" lon="-0.5863648">
        <time>2022-07-05T15:34:19Z</time>
      </trkpt>
      <trkpt lat="42.22801" lon="-0.58626944">
        <time>2022-07-05T15:34:21Z</time>
      </trkpt>
      <trkpt lat="42.227966" lon="-0.5861708">
        <time>2022-07-05T15:34:23Z</time>
      </trkpt>
      <trkpt lat="42.22792" lon="-0.58606917">
        <time>2022-07-05T15:34:25Z</time>
      </trkpt>
      <trkpt lat="42.22788" lon="-0.58596545">
        <time>2022-07-05T15:34:27Z</time>
      </trkpt>
      <trkpt lat="42.227833" lon="-0.5858615">
        <time>2022-07-05T15:34:29Z</time>
      </trkpt>
      <trkpt lat="42.227787" lon="-0.5857565">
        <time>2022-07-05T15:34:31Z</time>
      </trkpt>
      <trkpt lat="42.227745" lon="-0.5856545">
        <time>2022-07-05T15:34:33Z</time>
      </trkpt>
      <trkpt lat="42.2277" lon="-0.58554715">
        <time>2022-07-05T15:34:35Z</time>
      </trkpt>
      <trkpt lat="42.227654" lon="-0.5854425">
        <time>2022-07-05T15:34:37Z</time>
      </trkpt>
      <trkpt lat="42.227608" lon="-0.58533317">
        <time>2022-07-05T15:34:39Z</time>
      </trkpt>
      <trkpt lat="42.227562" lon="-0.5852265">
        <time>2022-07-05T15:34:41Z</time>
      </trkpt>
      <trkpt lat="42.227512" lon="-0.58511615">
        <time>2022-07-05T15:34:43Z</time>
      </trkpt>
      <trkpt lat="42.22749" lon="-0.58506083">
        <time>2022-07-05T15:34:44Z</time>
      </trkpt>
      <trkpt lat="42.22744" lon="-0.58494884">
        <time>2022-07-05T15:34:46Z</time>
      </trkpt>
      <trkpt lat="42.227386" lon="-0.5848335">
        <time>2022-07-05T15:34:48Z</time>
      </trkpt>
      <trkpt lat="42.227333" lon="-0.5847135">
        <time>2022-07-05T15:34:50Z</time>
      </trkpt>
      <trkpt lat="42.227306" lon="-0.58465284">
        <time>2022-07-05T15:34:51Z</time>
      </trkpt>
      <trkpt lat="42.22728" lon="-0.58459085">
        <time>2022-07-05T15:34:52Z</time>
      </trkpt>
      <trkpt lat="42.22725" lon="-0.58452785">
        <time>2022-07-05T15:34:53Z</time>
      </trkpt>
      <trkpt lat="42.227222" lon="-0.5844652">
        <time>2022-07-05T15:34:54Z</time>
      </trkpt>
      <trkpt lat="42.227196" lon="-0.5844025">
        <time>2022-07-05T15:34:55Z</time>
      </trkpt>
      <trkpt lat="42.227165" lon="-0.58433884">
        <time>2022-07-05T15:34:56Z</time>
      </trkpt>
      <trkpt lat="42.22714" lon="-0.58427423">
        <time>2022-07-05T15:34:57Z</time>
      </trkpt>
      <trkpt lat="42.227108" lon="-0.5842079">
        <time>2022-07-05T15:34:58Z</time>
      </trkpt>
      <trkpt lat="42.22708" lon="-0.5841409">
        <time>2022-07-05T15:34:59Z</time>
      </trkpt>
      <trkpt lat="42.22705" lon="-0.58407354">
        <time>2022-07-05T15:35:00Z</time>
      </trkpt>
      <trkpt lat="42.227024" lon="-0.5840059">
        <time>2022-07-05T15:35:01Z</time>
      </trkpt>
      <trkpt lat="42.226994" lon="-0.58393854">
        <time>2022-07-05T15:35:02Z</time>
      </trkpt>
      <trkpt lat="42.226963" lon="-0.58387023">
        <time>2022-07-05T15:35:03Z</time>
      </trkpt>
      <trkpt lat="42.226933" lon="-0.58380026">
        <time>2022-07-05T15:35:04Z</time>
      </trkpt>
      <trkpt lat="42.226902" lon="-0.5837292">
        <time>2022-07-05T15:35:05Z</time>
      </trkpt>
      <trkpt lat="42.22687" lon="-0.58365756">
        <time>2022-07-05T15:35:06Z</time>
      </trkpt>
      <trkpt lat="42.22684" lon="-0.5835862">
        <time>2022-07-05T15:35:07Z</time>
      </trkpt>
      <trkpt lat="42.22681" lon="-0.5835156">
        <time>2022-07-05T15:35:08Z</time>
      </trkpt>
      <trkpt lat="42.22678" lon="-0.5834456">
        <time>2022-07-05T15:35:09Z</time>
      </trkpt>
      <trkpt lat="42.22675" lon="-0.5833762">
        <time>2022-07-05T15:35:10Z</time>
      </trkpt>
      <trkpt lat="42.22672" lon="-0.5833066">
        <time>2022-07-05T15:35:11Z</time>
      </trkpt>
      <trkpt lat="42.22669" lon="-0.5832349">
        <time>2022-07-05T15:35:12Z</time>
      </trkpt>
      <trkpt lat="42.226658" lon="-0.5831626">
        <time>2022-07-05T15:35:13Z</time>
      </trkpt>
      <trkpt lat="42.226624" lon="-0.5830886">
        <time>2022-07-05T15:35:14Z</time>
      </trkpt>
      <trkpt lat="42.226593" lon="-0.58301497">
        <time>2022-07-05T15:35:15Z</time>
      </trkpt>
      <trkpt lat="42.226562" lon="-0.5829396">
        <time>2022-07-05T15:35:16Z</time>
      </trkpt>
      <trkpt lat="42.22653" lon="-0.5828633">
        <time>2022-07-05T15:35:17Z</time>
      </trkpt>
      <trkpt lat="42.226498" lon="-0.58278793">
        <time>2022-07-05T15:35:18Z</time>
      </trkpt>
      <trkpt lat="42.226467" lon="-0.58271295">
        <time>2022-07-05T15:35:19Z</time>
      </trkpt>
      <trkpt lat="42.226433" lon="-0.5826376">
        <time>2022-07-05T15:35:20Z</time>
      </trkpt>
      <trkpt lat="42.226402" lon="-0.58256364">
        <time>2022-07-05T15:35:21Z</time>
      </trkpt>
      <trkpt lat="42.22637" lon="-0.58248997">
        <time>2022-07-05T15:35:22Z</time>
      </trkpt>
      <trkpt lat="42.226337" lon="-0.58241695">
        <time>2022-07-05T15:35:23Z</time>
      </trkpt>
      <trkpt lat="42.226307" lon="-0.5823443">
        <time>2022-07-05T15:35:24Z</time>
      </trkpt>
      <trkpt lat="42.226276" lon="-0.582272">
        <time>2022-07-05T15:35:25Z</time>
      </trkpt>
      <trkpt lat="42.226246" lon="-0.5822">
        <time>2022-07-05T15:35:26Z</time>
      </trkpt>
      <trkpt lat="42.22622" lon="-0.58212864">
        <time>2022-07-05T15:35:27Z</time>
      </trkpt>
      <trkpt lat="42.226185" lon="-0.582057">
        <time>2022-07-05T15:35:28Z</time>
      </trkpt>
      <trkpt lat="42.226154" lon="-0.5819853">
        <time>2022-07-05T15:35:29Z</time>
      </trkpt>
      <trkpt lat="42.226124" lon="-0.5819133">
        <time>2022-07-05T15:35:30Z</time>
      </trkpt>
      <trkpt lat="42.226093" lon="-0.581842">
        <time>2022-07-05T15:35:31Z</time>
      </trkpt>
      <trkpt lat="42.226063" lon="-0.5817703">
        <time>2022-07-05T15:35:32Z</time>
      </trkpt>
      <trkpt lat="42.226032" lon="-0.58169764">
        <time>2022-07-05T15:35:33Z</time>
      </trkpt>
      <trkpt lat="42.225998" lon="-0.581625">
        <time>2022-07-05T15:35:34Z</time>
      </trkpt>
      <trkpt lat="42.225967" lon="-0.581552">
        <time>2022-07-05T15:35:35Z</time>
      </trkpt>
      <trkpt lat="42.225937" lon="-0.58147866">
        <time>2022-07-05T15:35:36Z</time>
      </trkpt>
      <trkpt lat="42.225903" lon="-0.58140504">
        <time>2022-07-05T15:35:37Z</time>
      </trkpt>
      <trkpt lat="42.225872" lon="-0.5813307">
        <time>2022-07-05T15:35:38Z</time>
      </trkpt>
      <trkpt lat="42.22584" lon="-0.58125705">
        <time>2022-07-05T15:35:39Z</time>
      </trkpt>
      <trkpt lat="42.22581" lon="-0.5811827">
        <time>2022-07-05T15:35:40Z</time>
      </trkpt>
      <trkpt lat="42.225777" lon="-0.5811087">
        <time>2022-07-05T15:35:41Z</time>
      </trkpt>
      <trkpt lat="42.225746" lon="-0.581035">
        <time>2022-07-05T15:35:42Z</time>
      </trkpt>
      <trkpt lat="42.22572" lon="-0.58096206">
        <time>2022-07-05T15:35:43Z</time>
      </trkpt>
      <trkpt lat="42.22569" lon="-0.58089006">
        <time>2022-07-05T15:35:44Z</time>
      </trkpt>
      <trkpt lat="42.22566" lon="-0.58081806">
        <time>2022-07-05T15:35:45Z</time>
      </trkpt>
      <trkpt lat="42.225628" lon="-0.58074504">
        <time>2022-07-05T15:35:46Z</time>
      </trkpt>
      <trkpt lat="42.225597" lon="-0.58067137">
        <time>2022-07-05T15:35:47Z</time>
      </trkpt>
      <trkpt lat="42.225567" lon="-0.58059835">
        <time>2022-07-05T15:35:48Z</time>
      </trkpt>
      <trkpt lat="42.225536" lon="-0.58052605">
        <time>2022-07-05T15:35:49Z</time>
      </trkpt>
      <trkpt lat="42.225506" lon="-0.5804537">
        <time>2022-07-05T15:35:50Z</time>
      </trkpt>
      <trkpt lat="42.225475" lon="-0.58038205">
        <time>2022-07-05T15:35:51Z</time>
      </trkpt>
      <trkpt lat="42.225445" lon="-0.5803117">
        <time>2022-07-05T15:35:52Z</time>
      </trkpt>
      <trkpt lat="42.225414" lon="-0.5802414">
        <time>2022-07-05T15:35:53Z</time>
      </trkpt>
      <trkpt lat="42.225384" lon="-0.58017075">
        <time>2022-07-05T15:35:54Z</time>
      </trkpt>
      <trkpt lat="42.225353" lon="-0.5800994">
        <time>2022-07-05T15:35:55Z</time>
      </trkpt>
      <trkpt lat="42.225327" lon="-0.58002776">
        <time>2022-07-05T15:35:56Z</time>
      </trkpt>
      <trkpt lat="42.225296" lon="-0.5799554">
        <time>2022-07-05T15:35:57Z</time>
      </trkpt>
      <trkpt lat="42.225266" lon="-0.57988274">
        <time>2022-07-05T15:35:58Z</time>
      </trkpt>
      <trkpt lat="42.225235" lon="-0.57981044">
        <time>2022-07-05T15:35:59Z</time>
      </trkpt>
      <trkpt lat="42.22521" lon="-0.5797374">
        <time>2022-07-05T15:36:00Z</time>
      </trkpt>
      <trkpt lat="42.225178" lon="-0.57966346">
        <time>2022-07-05T15:36:01Z</time>
      </trkpt>
      <trkpt lat="42.225147" lon="-0.5795898">
        <time>2022-07-05T15:36:02Z</time>
      </trkpt>
      <trkpt lat="42.22509" lon="-0.57944447">
        <time>2022-07-05T15:36:04Z</time>
      </trkpt>
      <trkpt lat="42.22506" lon="-0.5793721">
        <time>2022-07-05T15:36:05Z</time>
      </trkpt>
      <trkpt lat="42.22503" lon="-0.5793001">
        <time>2022-07-05T15:36:06Z</time>
      </trkpt>
      <trkpt lat="42.225002" lon="-0.5792271">
        <time>2022-07-05T15:36:07Z</time>
      </trkpt>
      <trkpt lat="42.22497" lon="-0.57915443">
        <time>2022-07-05T15:36:08Z</time>
      </trkpt>
      <trkpt lat="42.22494" lon="-0.5790815">
        <time>2022-07-05T15:36:09Z</time>
      </trkpt>
      <trkpt lat="42.224907" lon="-0.5790081">
        <time>2022-07-05T15:36:10Z</time>
      </trkpt>
      <trkpt lat="42.224876" lon="-0.57893443">
        <time>2022-07-05T15:36:11Z</time>
      </trkpt>
      <trkpt lat="42.224846" lon="-0.5788611">
        <time>2022-07-05T15:36:12Z</time>
      </trkpt>
      <trkpt lat="42.224815" lon="-0.5787878">
        <time>2022-07-05T15:36:13Z</time>
      </trkpt>
      <trkpt lat="42.22478" lon="-0.5787138">
        <time>2022-07-05T15:36:14Z</time>
      </trkpt>
      <trkpt lat="42.22475" lon="-0.5786378">
        <time>2022-07-05T15:36:15Z</time>
      </trkpt>
      <trkpt lat="42.22472" lon="-0.5785608">
        <time>2022-07-05T15:36:16Z</time>
      </trkpt>
      <trkpt lat="42.224686" lon="-0.57848245">
        <time>2022-07-05T15:36:17Z</time>
      </trkpt>
      <trkpt lat="42.224655" lon="-0.57840383">
        <time>2022-07-05T15:36:18Z</time>
      </trkpt>
      <trkpt lat="42.22462" lon="-0.5783245">
        <time>2022-07-05T15:36:19Z</time>
      </trkpt>
      <trkpt lat="42.224586" lon="-0.57824516">
        <time>2022-07-05T15:36:20Z</time>
      </trkpt>
      <trkpt lat="42.224556" lon="-0.5781655">
        <time>2022-07-05T15:36:21Z</time>
      </trkpt>
      <trkpt lat="42.22452" lon="-0.5780852">
        <time>2022-07-05T15:36:22Z</time>
      </trkpt>
      <trkpt lat="42.22449" lon="-0.57800514">
        <time>2022-07-05T15:36:23Z</time>
      </trkpt>
      <trkpt lat="42.224457" lon="-0.5779245">
        <time>2022-07-05T15:36:24Z</time>
      </trkpt>
      <trkpt lat="42.224422" lon="-0.5778435">
        <time>2022-07-05T15:36:25Z</time>
      </trkpt>
      <trkpt lat="42.22439" lon="-0.5777622">
        <time>2022-07-05T15:36:26Z</time>
      </trkpt>
      <trkpt lat="42.224358" lon="-0.5776812">
        <time>2022-07-05T15:36:27Z</time>
      </trkpt>
      <trkpt lat="42.22432" lon="-0.57760084">
        <time>2022-07-05T15:36:28Z</time>
      </trkpt>
      <trkpt lat="42.224285" lon="-0.57751817">
        <time>2022-07-05T15:36:29Z</time>
      </trkpt>
      <trkpt lat="42.22425" lon="-0.57743484">
        <time>2022-07-05T15:36:30Z</time>
      </trkpt>
      <trkpt lat="42.224213" lon="-0.5773515">
        <time>2022-07-05T15:36:31Z</time>
      </trkpt>
      <trkpt lat="42.22418" lon="-0.5772675">
        <time>2022-07-05T15:36:32Z</time>
      </trkpt>
      <trkpt lat="42.224144" lon="-0.57718354">
        <time>2022-07-05T15:36:33Z</time>
      </trkpt>
      <trkpt lat="42.224106" lon="-0.57709986">
        <time>2022-07-05T15:36:34Z</time>
      </trkpt>
      <trkpt lat="42.22407" lon="-0.5770172">
        <time>2022-07-05T15:36:35Z</time>
      </trkpt>
      <trkpt lat="42.224037" lon="-0.5769332">
        <time>2022-07-05T15:36:36Z</time>
      </trkpt>
      <trkpt lat="42.224003" lon="-0.5768499">
        <time>2022-07-05T15:36:37Z</time>
      </trkpt>
      <trkpt lat="42.22397" lon="-0.57676655">
        <time>2022-07-05T15:36:38Z</time>
      </trkpt>
      <trkpt lat="42.223934" lon="-0.5766835">
        <time>2022-07-05T15:36:39Z</time>
      </trkpt>
      <trkpt lat="42.223896" lon="-0.5765962">
        <time>2022-07-05T15:36:40Z</time>
      </trkpt>
      <trkpt lat="42.22386" lon="-0.57651687">
        <time>2022-07-05T15:36:41Z</time>
      </trkpt>
      <trkpt lat="42.223827" lon="-0.57643723">
        <time>2022-07-05T15:36:42Z</time>
      </trkpt>
      <trkpt lat="42.223793" lon="-0.5763569">
        <time>2022-07-05T15:36:43Z</time>
      </trkpt>
      <trkpt lat="42.22376" lon="-0.57627624">
        <time>2022-07-05T15:36:44Z</time>
      </trkpt>
      <trkpt lat="42.223724" lon="-0.5761956">
        <time>2022-07-05T15:36:45Z</time>
      </trkpt>
      <trkpt lat="42.22369" lon="-0.5761159">
        <time>2022-07-05T15:36:46Z</time>
      </trkpt>
      <trkpt lat="42.223656" lon="-0.57603556">
        <time>2022-07-05T15:36:47Z</time>
      </trkpt>
      <trkpt lat="42.223625" lon="-0.57595426">
        <time>2022-07-05T15:36:48Z</time>
      </trkpt>
      <trkpt lat="42.22359" lon="-0.5758726">
        <time>2022-07-05T15:36:49Z</time>
      </trkpt>
      <trkpt lat="42.223557" lon="-0.5757906">
        <time>2022-07-05T15:36:50Z</time>
      </trkpt>
      <trkpt lat="42.223522" lon="-0.57570857">
        <time>2022-07-05T15:36:51Z</time>
      </trkpt>
      <trkpt lat="42.223488" lon="-0.5756256">
        <time>2022-07-05T15:36:52Z</time>
      </trkpt>
      <trkpt lat="42.223454" lon="-0.5755423">
        <time>2022-07-05T15:36:53Z</time>
      </trkpt>
      <trkpt lat="42.22342" lon="-0.5754586">
        <time>2022-07-05T15:36:54Z</time>
      </trkpt>
      <trkpt lat="42.22338" lon="-0.5753746">
        <time>2022-07-05T15:36:55Z</time>
      </trkpt>
      <trkpt lat="42.223347" lon="-0.5752909">
        <time>2022-07-05T15:36:56Z</time>
      </trkpt>
      <trkpt lat="42.22331" lon="-0.5752059">
        <time>2022-07-05T15:36:57Z</time>
      </trkpt>
      <trkpt lat="42.223274" lon="-0.57512194">
        <time>2022-07-05T15:36:58Z</time>
      </trkpt>
      <trkpt lat="42.223236" lon="-0.5750373">
        <time>2022-07-05T15:36:59Z</time>
      </trkpt>
      <trkpt lat="42.223198" lon="-0.57495195">
        <time>2022-07-05T15:37:00Z</time>
      </trkpt>
      <trkpt lat="42.22316" lon="-0.57486594">
        <time>2022-07-05T15:37:01Z</time>
      </trkpt>
      <trkpt lat="42.22312" lon="-0.574779">
        <time>2022-07-05T15:37:02Z</time>
      </trkpt>
      <trkpt lat="42.223083" lon="-0.57469195">
        <time>2022-07-05T15:37:03Z</time>
      </trkpt>
      <trkpt lat="42.223045" lon="-0.57460463">
        <time>2022-07-05T15:37:04Z</time>
      </trkpt>
      <trkpt lat="42.223007" lon="-0.57451695">
        <time>2022-07-05T15:37:05Z</time>
      </trkpt>
      <trkpt lat="42.22297" lon="-0.5744283">
        <time>2022-07-05T15:37:06Z</time>
      </trkpt>
      <trkpt lat="42.22293" lon="-0.5743383">
        <time>2022-07-05T15:37:07Z</time>
      </trkpt>
      <trkpt lat="42.222893" lon="-0.5742483">
        <time>2022-07-05T15:37:08Z</time>
      </trkpt>
      <trkpt lat="42.22285" lon="-0.5741583">
        <time>2022-07-05T15:37:09Z</time>
      </trkpt>
      <trkpt lat="42.222813" lon="-0.5740696">
        <time>2022-07-05T15:37:10Z</time>
      </trkpt>
      <trkpt lat="42.222775" lon="-0.5739813">
        <time>2022-07-05T15:37:11Z</time>
      </trkpt>
      <trkpt lat="42.22274" lon="-0.5738943">
        <time>2022-07-05T15:37:12Z</time>
      </trkpt>
      <trkpt lat="42.222702" lon="-0.5738073">
        <time>2022-07-05T15:37:13Z</time>
      </trkpt>
      <trkpt lat="42.222664" lon="-0.57372063">
        <time>2022-07-05T15:37:14Z</time>
      </trkpt>
      <trkpt lat="42.222626" lon="-0.57363266">
        <time>2022-07-05T15:37:15Z</time>
      </trkpt>
      <trkpt lat="42.222588" lon="-0.5735446">
        <time>2022-07-05T15:37:16Z</time>
      </trkpt>
      <trkpt lat="42.222507" lon="-0.57336533">
        <time>2022-07-05T15:37:18Z</time>
      </trkpt>
      <trkpt lat="42.22247" lon="-0.573274">
        <time>2022-07-05T15:37:19Z</time>
      </trkpt>
      <trkpt lat="42.222435" lon="-0.57318336">
        <time>2022-07-05T15:37:20Z</time>
      </trkpt>
      <trkpt lat="42.222393" lon="-0.57309335">
        <time>2022-07-05T15:37:21Z</time>
      </trkpt>
      <trkpt lat="42.222355" lon="-0.57300365">
        <time>2022-07-05T15:37:22Z</time>
      </trkpt>
      <trkpt lat="42.222313" lon="-0.57291204">
        <time>2022-07-05T15:37:23Z</time>
      </trkpt>
      <trkpt lat="42.222275" lon="-0.57282037">
        <time>2022-07-05T15:37:24Z</time>
      </trkpt>
      <trkpt lat="42.222233" lon="-0.57272804">
        <time>2022-07-05T15:37:25Z</time>
      </trkpt>
      <trkpt lat="42.222195" lon="-0.572635">
        <time>2022-07-05T15:37:26Z</time>
      </trkpt>
      <trkpt lat="42.222157" lon="-0.57254237">
        <time>2022-07-05T15:37:27Z</time>
      </trkpt>
      <trkpt lat="42.222115" lon="-0.57245004">
        <time>2022-07-05T15:37:28Z</time>
      </trkpt>
      <trkpt lat="42.222076" lon="-0.57235736">
        <time>2022-07-05T15:37:29Z</time>
      </trkpt>
      <trkpt lat="42.22204" lon="-0.572264">
        <time>2022-07-05T15:37:30Z</time>
      </trkpt>
      <trkpt lat="42.221996" lon="-0.57217">
        <time>2022-07-05T15:37:31Z</time>
      </trkpt>
      <trkpt lat="42.221954" lon="-0.5720764">
        <time>2022-07-05T15:37:32Z</time>
      </trkpt>
      <trkpt lat="42.221916" lon="-0.57198274">
        <time>2022-07-05T15:37:33Z</time>
      </trkpt>
      <trkpt lat="42.221874" lon="-0.5718881">
        <time>2022-07-05T15:37:34Z</time>
      </trkpt>
      <trkpt lat="42.221836" lon="-0.5717927">
        <time>2022-07-05T15:37:35Z</time>
      </trkpt>
      <trkpt lat="42.221794" lon="-0.57169706">
        <time>2022-07-05T15:37:36Z</time>
      </trkpt>
      <trkpt lat="42.221756" lon="-0.5716011">
        <time>2022-07-05T15:37:37Z</time>
      </trkpt>
      <trkpt lat="42.221714" lon="-0.5715047">
        <time>2022-07-05T15:37:38Z</time>
      </trkpt>
      <trkpt lat="42.221676" lon="-0.57140774">
        <time>2022-07-05T15:37:39Z</time>
      </trkpt>
      <trkpt lat="42.221634" lon="-0.57131106">
        <time>2022-07-05T15:37:40Z</time>
      </trkpt>
      <trkpt lat="42.221592" lon="-0.57121474">
        <time>2022-07-05T15:37:41Z</time>
      </trkpt>
      <trkpt lat="42.22155" lon="-0.57111907">
        <time>2022-07-05T15:37:42Z</time>
      </trkpt>
      <trkpt lat="42.221508" lon="-0.57102406">
        <time>2022-07-05T15:37:43Z</time>
      </trkpt>
      <trkpt lat="42.22147" lon="-0.5709294">
        <time>2022-07-05T15:37:44Z</time>
      </trkpt>
      <trkpt lat="42.221428" lon="-0.5708361">
        <time>2022-07-05T15:37:45Z</time>
      </trkpt>
      <trkpt lat="42.221386" lon="-0.5707431">
        <time>2022-07-05T15:37:46Z</time>
      </trkpt>
      <trkpt lat="42.221348" lon="-0.57065046">
        <time>2022-07-05T15:37:47Z</time>
      </trkpt>
      <trkpt lat="42.22131" lon="-0.5705584">
        <time>2022-07-05T15:37:48Z</time>
      </trkpt>
      <trkpt lat="42.22127" lon="-0.5704661">
        <time>2022-07-05T15:37:49Z</time>
      </trkpt>
      <trkpt lat="42.22123" lon="-0.5703748">
        <time>2022-07-05T15:37:50Z</time>
      </trkpt>
      <trkpt lat="42.22119" lon="-0.5702835">
        <time>2022-07-05T15:37:51Z</time>
      </trkpt>
      <trkpt lat="42.22115" lon="-0.5701918">
        <time>2022-07-05T15:37:52Z</time>
      </trkpt>
      <trkpt lat="42.22111" lon="-0.57010144">
        <time>2022-07-05T15:37:53Z</time>
      </trkpt>
      <trkpt lat="42.221073" lon="-0.57001114">
        <time>2022-07-05T15:37:54Z</time>
      </trkpt>
      <trkpt lat="42.22103" lon="-0.5699205">
        <time>2022-07-05T15:37:55Z</time>
      </trkpt>
      <trkpt lat="42.220993" lon="-0.56982917">
        <time>2022-07-05T15:37:56Z</time>
      </trkpt>
      <trkpt lat="42.220955" lon="-0.5697385">
        <time>2022-07-05T15:37:57Z</time>
      </trkpt>
      <trkpt lat="42.220917" lon="-0.56964815">
        <time>2022-07-05T15:37:58Z</time>
      </trkpt>
      <trkpt lat="42.22088" lon="-0.56955785">
        <time>2022-07-05T15:37:59Z</time>
      </trkpt>
      <trkpt lat="42.22084" lon="-0.5694675">
        <time>2022-07-05T15:38:00Z</time>
      </trkpt>
      <trkpt lat="42.220802" lon="-0.5693775">
        <time>2022-07-05T15:38:01Z</time>
      </trkpt>
      <trkpt lat="42.220764" lon="-0.56928784">
        <time>2022-07-05T15:38:02Z</time>
      </trkpt>
      <trkpt lat="42.220726" lon="-0.56919885">
        <time>2022-07-05T15:38:03Z</time>
      </trkpt>
      <trkpt lat="42.220688" lon="-0.56910986">
        <time>2022-07-05T15:38:04Z</time>
      </trkpt>
      <trkpt lat="42.22065" lon="-0.5690218">
        <time>2022-07-05T15:38:05Z</time>
      </trkpt>
      <trkpt lat="42.220615" lon="-0.56893516">
        <time>2022-07-05T15:38:06Z</time>
      </trkpt>
      <trkpt lat="42.220577" lon="-0.5688495">
        <time>2022-07-05T15:38:07Z</time>
      </trkpt>
      <trkpt lat="42.22054" lon="-0.56876385">
        <time>2022-07-05T15:38:08Z</time>
      </trkpt>
      <trkpt lat="42.220505" lon="-0.5686785">
        <time>2022-07-05T15:38:09Z</time>
      </trkpt>
      <trkpt lat="42.220467" lon="-0.5685935">
        <time>2022-07-05T15:38:10Z</time>
      </trkpt>
      <trkpt lat="42.22043" lon="-0.56850916">
        <time>2022-07-05T15:38:11Z</time>
      </trkpt>
      <trkpt lat="42.220394" lon="-0.5684252">
        <time>2022-07-05T15:38:12Z</time>
      </trkpt>
      <trkpt lat="42.220356" lon="-0.5683412">
        <time>2022-07-05T15:38:13Z</time>
      </trkpt>
      <trkpt lat="42.22032" lon="-0.56825817">
        <time>2022-07-05T15:38:14Z</time>
      </trkpt>
      <trkpt lat="42.220287" lon="-0.56817555">
        <time>2022-07-05T15:38:15Z</time>
      </trkpt>
      <trkpt lat="42.220253" lon="-0.5680925">
        <time>2022-07-05T15:38:16Z</time>
      </trkpt>
      <trkpt lat="42.220215" lon="-0.5680112">
        <time>2022-07-05T15:38:17Z</time>
      </trkpt>
      <trkpt lat="42.22018" lon="-0.5679309">
        <time>2022-07-05T15:38:18Z</time>
      </trkpt>
      <trkpt lat="42.220146" lon="-0.56785053">
        <time>2022-07-05T15:38:19Z</time>
      </trkpt>
      <trkpt lat="42.22011" lon="-0.5677709">
        <time>2022-07-05T15:38:20Z</time>
      </trkpt>
      <trkpt lat="42.220078" lon="-0.56769055">
        <time>2022-07-05T15:38:21Z</time>
      </trkpt>
      <trkpt lat="42.220043" lon="-0.5676109">
        <time>2022-07-05T15:38:22Z</time>
      </trkpt>
      <trkpt lat="42.220013" lon="-0.5675312">
        <time>2022-07-05T15:38:23Z</time>
      </trkpt>
      <trkpt lat="42.21998" lon="-0.56745255">
        <time>2022-07-05T15:38:24Z</time>
      </trkpt>
      <trkpt lat="42.219944" lon="-0.56737393">
        <time>2022-07-05T15:38:25Z</time>
      </trkpt>
      <trkpt lat="42.21991" lon="-0.56729525">
        <time>2022-07-05T15:38:26Z</time>
      </trkpt>
      <trkpt lat="42.21988" lon="-0.56721795">
        <time>2022-07-05T15:38:27Z</time>
      </trkpt>
      <trkpt lat="42.219845" lon="-0.5671419">
        <time>2022-07-05T15:38:28Z</time>
      </trkpt>
      <trkpt lat="42.21981" lon="-0.5670669">
        <time>2022-07-05T15:38:29Z</time>
      </trkpt>
      <trkpt lat="42.21978" lon="-0.56699157">
        <time>2022-07-05T15:38:30Z</time>
      </trkpt>
      <trkpt lat="42.219746" lon="-0.5669176">
        <time>2022-07-05T15:38:31Z</time>
      </trkpt>
      <trkpt lat="42.21968" lon="-0.5667709">
        <time>2022-07-05T15:38:33Z</time>
      </trkpt>
      <trkpt lat="42.21965" lon="-0.56669825">
        <time>2022-07-05T15:38:34Z</time>
      </trkpt>
      <trkpt lat="42.21962" lon="-0.56662595">
        <time>2022-07-05T15:38:35Z</time>
      </trkpt>
      <trkpt lat="42.21959" lon="-0.56655395">
        <time>2022-07-05T15:38:36Z</time>
      </trkpt>
      <trkpt lat="42.21956" lon="-0.56648195">
        <time>2022-07-05T15:38:37Z</time>
      </trkpt>
      <trkpt lat="42.21953" lon="-0.5664106">
        <time>2022-07-05T15:38:38Z</time>
      </trkpt>
      <trkpt lat="42.219498" lon="-0.56634027">
        <time>2022-07-05T15:38:39Z</time>
      </trkpt>
      <trkpt lat="42.219467" lon="-0.56626964">
        <time>2022-07-05T15:38:40Z</time>
      </trkpt>
      <trkpt lat="42.219437" lon="-0.56619996">
        <time>2022-07-05T15:38:41Z</time>
      </trkpt>
      <trkpt lat="42.219406" lon="-0.56613165">
        <time>2022-07-05T15:38:42Z</time>
      </trkpt>
      <trkpt lat="42.219376" lon="-0.566063">
        <time>2022-07-05T15:38:43Z</time>
      </trkpt>
      <trkpt lat="42.219345" lon="-0.5659946">
        <time>2022-07-05T15:38:44Z</time>
      </trkpt>
      <trkpt lat="42.21932" lon="-0.5659263">
        <time>2022-07-05T15:38:45Z</time>
      </trkpt>
      <trkpt lat="42.219288" lon="-0.56585866">
        <time>2022-07-05T15:38:46Z</time>
      </trkpt>
      <trkpt lat="42.21926" lon="-0.565791">
        <time>2022-07-05T15:38:47Z</time>
      </trkpt>
      <trkpt lat="42.21923" lon="-0.5657243">
        <time>2022-07-05T15:38:48Z</time>
      </trkpt>
      <trkpt lat="42.219204" lon="-0.565659">
        <time>2022-07-05T15:38:49Z</time>
      </trkpt>
      <trkpt lat="42.219177" lon="-0.565594">
        <time>2022-07-05T15:38:50Z</time>
      </trkpt>
      <trkpt lat="42.21915" lon="-0.56552964">
        <time>2022-07-05T15:38:51Z</time>
      </trkpt>
      <trkpt lat="42.21912" lon="-0.56546503">
        <time>2022-07-05T15:38:52Z</time>
      </trkpt>
      <trkpt lat="42.219093" lon="-0.565401">
        <time>2022-07-05T15:38:53Z</time>
      </trkpt>
      <trkpt lat="42.219067" lon="-0.565337">
        <time>2022-07-05T15:38:54Z</time>
      </trkpt>
      <trkpt lat="42.21904" lon="-0.565274">
        <time>2022-07-05T15:38:55Z</time>
      </trkpt>
      <trkpt lat="42.219013" lon="-0.5652107">
        <time>2022-07-05T15:38:56Z</time>
      </trkpt>
      <trkpt lat="42.21899" lon="-0.56514734">
        <time>2022-07-05T15:38:57Z</time>
      </trkpt>
      <trkpt lat="42.218964" lon="-0.5650847">
        <time>2022-07-05T15:38:58Z</time>
      </trkpt>
      <trkpt lat="42.218937" lon="-0.565023">
        <time>2022-07-05T15:38:59Z</time>
      </trkpt>
      <trkpt lat="42.218884" lon="-0.5648977">
        <time>2022-07-05T15:39:01Z</time>
      </trkpt>
      <trkpt lat="42.218857" lon="-0.56483537">
        <time>2022-07-05T15:39:02Z</time>
      </trkpt>
      <trkpt lat="42.21883" lon="-0.56477404">
        <time>2022-07-05T15:39:03Z</time>
      </trkpt>
      <trkpt lat="42.218807" lon="-0.56471306">
        <time>2022-07-05T15:39:04Z</time>
      </trkpt>
      <trkpt lat="42.21878" lon="-0.5646524">
        <time>2022-07-05T15:39:05Z</time>
      </trkpt>
      <trkpt lat="42.218754" lon="-0.5645914">
        <time>2022-07-05T15:39:06Z</time>
      </trkpt>
      <trkpt lat="42.2187" lon="-0.56447005">
        <time>2022-07-05T15:39:08Z</time>
      </trkpt>
      <trkpt lat="42.218674" lon="-0.56440973">
        <time>2022-07-05T15:39:09Z</time>
      </trkpt>
      <trkpt lat="42.218647" lon="-0.5643507">
        <time>2022-07-05T15:39:10Z</time>
      </trkpt>
      <trkpt lat="42.218597" lon="-0.5642337">
        <time>2022-07-05T15:39:12Z</time>
      </trkpt>
      <trkpt lat="42.21857" lon="-0.5641761">
        <time>2022-07-05T15:39:13Z</time>
      </trkpt>
      <trkpt lat="42.21852" lon="-0.56406504">
        <time>2022-07-05T15:39:15Z</time>
      </trkpt>
      <trkpt lat="42.21847" lon="-0.5639467">
        <time>2022-07-05T15:39:17Z</time>
      </trkpt>
      <trkpt lat="42.21845" lon="-0.5638877">
        <time>2022-07-05T15:39:18Z</time>
      </trkpt>
      <trkpt lat="42.218422" lon="-0.5638294">
        <time>2022-07-05T15:39:19Z</time>
      </trkpt>
      <trkpt lat="42.218376" lon="-0.5637131">
        <time>2022-07-05T15:39:21Z</time>
      </trkpt>
      <trkpt lat="42.218323" lon="-0.5635994">
        <time>2022-07-05T15:39:23Z</time>
      </trkpt>
      <trkpt lat="42.218273" lon="-0.56348574">
        <time>2022-07-05T15:39:25Z</time>
      </trkpt>
      <trkpt lat="42.218224" lon="-0.5633718">
        <time>2022-07-05T15:39:27Z</time>
      </trkpt>
      <trkpt lat="42.2182" lon="-0.56331474">
        <time>2022-07-05T15:39:28Z</time>
      </trkpt>
      <trkpt lat="42.21815" lon="-0.56319976">
        <time>2022-07-05T15:39:30Z</time>
      </trkpt>
      <trkpt lat="42.218098" lon="-0.5630851">
        <time>2022-07-05T15:39:32Z</time>
      </trkpt>
      <trkpt lat="42.21805" lon="-0.56297344">
        <time>2022-07-05T15:39:34Z</time>
      </trkpt>
      <trkpt lat="42.218" lon="-0.56286246">
        <time>2022-07-05T15:39:36Z</time>
      </trkpt>
      <trkpt lat="42.217976" lon="-0.56280243">
        <time>2022-07-05T15:39:37Z</time>
      </trkpt>
      <trkpt lat="42.217922" lon="-0.56268543">
        <time>2022-07-05T15:39:39Z</time>
      </trkpt>
      <trkpt lat="42.2179" lon="-0.5626271">
        <time>2022-07-05T15:39:40Z</time>
      </trkpt>
      <trkpt lat="42.21785" lon="-0.5625111">
        <time>2022-07-05T15:39:42Z</time>
      </trkpt>
      <trkpt lat="42.217796" lon="-0.56239647">
        <time>2022-07-05T15:39:44Z</time>
      </trkpt>
      <trkpt lat="42.217747" lon="-0.56228477">
        <time>2022-07-05T15:39:46Z</time>
      </trkpt>
      <trkpt lat="42.217697" lon="-0.5621751">
        <time>2022-07-05T15:39:48Z</time>
      </trkpt>
      <trkpt lat="42.217674" lon="-0.5621208">
        <time>2022-07-05T15:39:49Z</time>
      </trkpt>
      <trkpt lat="42.217625" lon="-0.5620088">
        <time>2022-07-05T15:39:51Z</time>
      </trkpt>
      <trkpt lat="42.217598" lon="-0.5619521">
        <time>2022-07-05T15:39:52Z</time>
      </trkpt>
      <trkpt lat="42.217552" lon="-0.5618391">
        <time>2022-07-05T15:39:54Z</time>
      </trkpt>
      <trkpt lat="42.21753" lon="-0.5617828">
        <time>2022-07-05T15:39:55Z</time>
      </trkpt>
      <trkpt lat="42.217484" lon="-0.5616718">
        <time>2022-07-05T15:39:57Z</time>
      </trkpt>
      <trkpt lat="42.21746" lon="-0.5616168">
        <time>2022-07-05T15:39:58Z</time>
      </trkpt>
      <trkpt lat="42.21741" lon="-0.56150746">
        <time>2022-07-05T15:40:00Z</time>
      </trkpt>
      <trkpt lat="42.217365" lon="-0.56139845">
        <time>2022-07-05T15:40:02Z</time>
      </trkpt>
      <trkpt lat="42.217346" lon="-0.5613475">
        <time>2022-07-05T15:40:03Z</time>
      </trkpt>
      <trkpt lat="42.2173" lon="-0.56124145">
        <time>2022-07-05T15:40:05Z</time>
      </trkpt>
      <trkpt lat="42.217255" lon="-0.5611275">
        <time>2022-07-05T15:40:07Z</time>
      </trkpt>
      <trkpt lat="42.21721" lon="-0.5610158">
        <time>2022-07-05T15:40:09Z</time>
      </trkpt>
      <trkpt lat="42.217186" lon="-0.56096345">
        <time>2022-07-05T15:40:10Z</time>
      </trkpt>
      <trkpt lat="42.217136" lon="-0.56084883">
        <time>2022-07-05T15:40:12Z</time>
      </trkpt>
      <trkpt lat="42.217113" lon="-0.5607915">
        <time>2022-07-05T15:40:13Z</time>
      </trkpt>
      <trkpt lat="42.217068" lon="-0.56067884">
        <time>2022-07-05T15:40:15Z</time>
      </trkpt>
      <trkpt lat="42.217022" lon="-0.5605712">
        <time>2022-07-05T15:40:17Z</time>
      </trkpt>
      <trkpt lat="42.217" lon="-0.56051487">
        <time>2022-07-05T15:40:18Z</time>
      </trkpt>
      <trkpt lat="42.21695" lon="-0.5604105">
        <time>2022-07-05T15:40:20Z</time>
      </trkpt>
      <trkpt lat="42.2169" lon="-0.56029886">
        <time>2022-07-05T15:40:22Z</time>
      </trkpt>
      <trkpt lat="42.21685" lon="-0.5601855">
        <time>2022-07-05T15:40:24Z</time>
      </trkpt>
      <trkpt lat="42.216827" lon="-0.56013286">
        <time>2022-07-05T15:40:25Z</time>
      </trkpt>
      <trkpt lat="42.21678" lon="-0.56001985">
        <time>2022-07-05T15:40:27Z</time>
      </trkpt>
      <trkpt lat="42.216755" lon="-0.5599635">
        <time>2022-07-05T15:40:28Z</time>
      </trkpt>
      <trkpt lat="42.216705" lon="-0.5598492">
        <time>2022-07-05T15:40:30Z</time>
      </trkpt>
      <trkpt lat="42.216682" lon="-0.5597912">
        <time>2022-07-05T15:40:31Z</time>
      </trkpt>
      <trkpt lat="42.216633" lon="-0.5596762">
        <time>2022-07-05T15:40:33Z</time>
      </trkpt>
      <trkpt lat="42.216583" lon="-0.5595592">
        <time>2022-07-05T15:40:35Z</time>
      </trkpt>
      <trkpt lat="42.21653" lon="-0.55943954">
        <time>2022-07-05T15:40:37Z</time>
      </trkpt>
      <trkpt lat="42.216503" lon="-0.55937856">
        <time>2022-07-05T15:40:38Z</time>
      </trkpt>
      <trkpt lat="42.21648" lon="-0.5593175">
        <time>2022-07-05T15:40:39Z</time>
      </trkpt>
      <trkpt lat="42.21643" lon="-0.55919886">
        <time>2022-07-05T15:40:41Z</time>
      </trkpt>
      <trkpt lat="42.216404" lon="-0.5591416">
        <time>2022-07-05T15:40:42Z</time>
      </trkpt>
      <trkpt lat="42.216354" lon="-0.5590165">
        <time>2022-07-05T15:40:44Z</time>
      </trkpt>
      <trkpt lat="42.21633" lon="-0.55895954">
        <time>2022-07-05T15:40:45Z</time>
      </trkpt>
      <trkpt lat="42.21628" lon="-0.5588402">
        <time>2022-07-05T15:40:47Z</time>
      </trkpt>
      <trkpt lat="42.216255" lon="-0.5587789">
        <time>2022-07-05T15:40:48Z</time>
      </trkpt>
      <trkpt lat="42.216198" lon="-0.5586479">
        <time>2022-07-05T15:40:50Z</time>
      </trkpt>
      <trkpt lat="42.21617" lon="-0.55858356">
        <time>2022-07-05T15:40:51Z</time>
      </trkpt>
      <trkpt lat="42.216145" lon="-0.55852157">
        <time>2022-07-05T15:40:52Z</time>
      </trkpt>
      <trkpt lat="42.216118" lon="-0.55845755">
        <time>2022-07-05T15:40:53Z</time>
      </trkpt>
      <trkpt lat="42.21609" lon="-0.5583922">
        <time>2022-07-05T15:40:54Z</time>
      </trkpt>
      <trkpt lat="42.21606" lon="-0.55832624">
        <time>2022-07-05T15:40:55Z</time>
      </trkpt>
      <trkpt lat="42.216034" lon="-0.55825955">
        <time>2022-07-05T15:40:56Z</time>
      </trkpt>
      <trkpt lat="42.216003" lon="-0.55819255">
        <time>2022-07-05T15:40:57Z</time>
      </trkpt>
      <trkpt lat="42.215973" lon="-0.5581249">
        <time>2022-07-05T15:40:58Z</time>
      </trkpt>
      <trkpt lat="42.215942" lon="-0.5580526">
        <time>2022-07-05T15:40:59Z</time>
      </trkpt>
      <trkpt lat="42.21591" lon="-0.55798125">
        <time>2022-07-05T15:41:00Z</time>
      </trkpt>
      <trkpt lat="42.21588" lon="-0.5579096">
        <time>2022-07-05T15:41:01Z</time>
      </trkpt>
      <trkpt lat="42.21585" lon="-0.5578386">
        <time>2022-07-05T15:41:02Z</time>
      </trkpt>
      <trkpt lat="42.21582" lon="-0.5577679">
        <time>2022-07-05T15:41:03Z</time>
      </trkpt>
      <trkpt lat="42.21579" lon="-0.5576976">
        <time>2022-07-05T15:41:04Z</time>
      </trkpt>
      <trkpt lat="42.21576" lon="-0.5576266">
        <time>2022-07-05T15:41:05Z</time>
      </trkpt>
      <trkpt lat="42.21573" lon="-0.5575556">
        <time>2022-07-05T15:41:06Z</time>
      </trkpt>
      <trkpt lat="42.2157" lon="-0.5574849">
        <time>2022-07-05T15:41:07Z</time>
      </trkpt>
      <trkpt lat="42.21567" lon="-0.55741364">
        <time>2022-07-05T15:41:08Z</time>
      </trkpt>
      <trkpt lat="42.21564" lon="-0.5573436">
        <time>2022-07-05T15:41:09Z</time>
      </trkpt>
      <trkpt lat="42.21561" lon="-0.557273">
        <time>2022-07-05T15:41:10Z</time>
      </trkpt>
      <trkpt lat="42.21558" lon="-0.5572043">
        <time>2022-07-05T15:41:11Z</time>
      </trkpt>
      <trkpt lat="42.215553" lon="-0.55713594">
        <time>2022-07-05T15:41:12Z</time>
      </trkpt>
      <trkpt lat="42.215523" lon="-0.55706894">
        <time>2022-07-05T15:41:13Z</time>
      </trkpt>
      <trkpt lat="42.215492" lon="-0.55700195">
        <time>2022-07-05T15:41:14Z</time>
      </trkpt>
      <trkpt lat="42.21546" lon="-0.5569356">
        <time>2022-07-05T15:41:15Z</time>
      </trkpt>
      <trkpt lat="42.215435" lon="-0.556871">
        <time>2022-07-05T15:41:16Z</time>
      </trkpt>
      <trkpt lat="42.215405" lon="-0.5568066">
        <time>2022-07-05T15:41:17Z</time>
      </trkpt>
      <trkpt lat="42.215378" lon="-0.5567433">
        <time>2022-07-05T15:41:18Z</time>
      </trkpt>
      <trkpt lat="42.21535" lon="-0.5566803">
        <time>2022-07-05T15:41:19Z</time>
      </trkpt>
      <trkpt lat="42.215324" lon="-0.5566173">
        <time>2022-07-05T15:41:20Z</time>
      </trkpt>
      <trkpt lat="42.2153" lon="-0.55655533">
        <time>2022-07-05T15:41:21Z</time>
      </trkpt>
      <trkpt lat="42.215275" lon="-0.5564933">
        <time>2022-07-05T15:41:22Z</time>
      </trkpt>
      <trkpt lat="42.21525" lon="-0.556432">
        <time>2022-07-05T15:41:23Z</time>
      </trkpt>
      <trkpt lat="42.21522" lon="-0.55637133">
        <time>2022-07-05T15:41:24Z</time>
      </trkpt>
      <trkpt lat="42.215195" lon="-0.55631065">
        <time>2022-07-05T15:41:25Z</time>
      </trkpt>
      <trkpt lat="42.215168" lon="-0.55625033">
        <time>2022-07-05T15:41:26Z</time>
      </trkpt>
      <trkpt lat="42.215115" lon="-0.55613035">
        <time>2022-07-05T15:41:28Z</time>
      </trkpt>
      <trkpt lat="42.215088" lon="-0.5560707">
        <time>2022-07-05T15:41:29Z</time>
      </trkpt>
      <trkpt lat="42.21506" lon="-0.55601066">
        <time>2022-07-05T15:41:30Z</time>
      </trkpt>
      <trkpt lat="42.215008" lon="-0.555892">
        <time>2022-07-05T15:41:32Z</time>
      </trkpt>
      <trkpt lat="42.21498" lon="-0.55583334">
        <time>2022-07-05T15:41:33Z</time>
      </trkpt>
      <trkpt lat="42.214954" lon="-0.55577534">
        <time>2022-07-05T15:41:34Z</time>
      </trkpt>
      <trkpt lat="42.2149" lon="-0.55565804">
        <time>2022-07-05T15:41:36Z</time>
      </trkpt>
      <trkpt lat="42.214874" lon="-0.5555997">
        <time>2022-07-05T15:41:37Z</time>
      </trkpt>
      <trkpt lat="42.214825" lon="-0.555485">
        <time>2022-07-05T15:41:39Z</time>
      </trkpt>
      <trkpt lat="42.214775" lon="-0.555369">
        <time>2022-07-05T15:41:41Z</time>
      </trkpt>
      <trkpt lat="42.21473" lon="-0.5552557">
        <time>2022-07-05T15:41:43Z</time>
      </trkpt>
      <trkpt lat="42.21468" lon="-0.5551497">
        <time>2022-07-05T15:41:45Z</time>
      </trkpt>
      <trkpt lat="42.214634" lon="-0.55504805">
        <time>2022-07-05T15:41:47Z</time>
      </trkpt>
      <trkpt lat="42.21459" lon="-0.5549457">
        <time>2022-07-05T15:41:49Z</time>
      </trkpt>
      <trkpt lat="42.21455" lon="-0.5548477">
        <time>2022-07-05T15:41:51Z</time>
      </trkpt>
      <trkpt lat="42.21452" lon="-0.5547717">
        <time>2022-07-05T15:41:53Z</time>
      </trkpt>
      <trkpt lat="42.214493" lon="-0.55471337">
        <time>2022-07-05T15:41:56Z</time>
      </trkpt>
      <trkpt lat="42.214447" lon="-0.5545647">
        <time>2022-07-05T15:47:20Z</time>
      </trkpt>
      <trkpt lat="42.21442" lon="-0.5544967">
        <time>2022-07-05T15:47:22Z</time>
      </trkpt>
      <trkpt lat="42.21439" lon="-0.5544164">
        <time>2022-07-05T15:47:24Z</time>
      </trkpt>
      <trkpt lat="42.21436" lon="-0.55432874">
        <time>2022-07-05T15:47:26Z</time>
      </trkpt>
      <trkpt lat="42.214325" lon="-0.55423975">
        <time>2022-07-05T15:47:28Z</time>
      </trkpt>
      <trkpt lat="42.21429" lon="-0.5541524">
        <time>2022-07-05T15:47:30Z</time>
      </trkpt>
      <trkpt lat="42.214252" lon="-0.5540681">
        <time>2022-07-05T15:47:32Z</time>
      </trkpt>
      <trkpt lat="42.214214" lon="-0.55398405">
        <time>2022-07-05T15:47:34Z</time>
      </trkpt>
      <trkpt lat="42.214176" lon="-0.55389875">
        <time>2022-07-05T15:47:36Z</time>
      </trkpt>
      <trkpt lat="42.214134" lon="-0.5538111">
        <time>2022-07-05T15:47:38Z</time>
      </trkpt>
      <trkpt lat="42.214092" lon="-0.55372006">
        <time>2022-07-05T15:47:40Z</time>
      </trkpt>
      <trkpt lat="42.214046" lon="-0.5536244">
        <time>2022-07-05T15:47:42Z</time>
      </trkpt>
      <trkpt lat="42.214005" lon="-0.55352473">
        <time>2022-07-05T15:47:44Z</time>
      </trkpt>
      <trkpt lat="42.213963" lon="-0.55342275">
        <time>2022-07-05T15:47:46Z</time>
      </trkpt>
      <trkpt lat="42.213917" lon="-0.55332077">
        <time>2022-07-05T15:47:48Z</time>
      </trkpt>
      <trkpt lat="42.21387" lon="-0.55321974">
        <time>2022-07-05T15:47:50Z</time>
      </trkpt>
      <trkpt lat="42.213806" lon="-0.5530644">
        <time>2022-07-05T15:47:53Z</time>
      </trkpt>
      <trkpt lat="42.213764" lon="-0.5529638">
        <time>2022-07-05T15:47:55Z</time>
      </trkpt>
      <trkpt lat="42.21372" lon="-0.55285513">
        <time>2022-07-05T15:47:57Z</time>
      </trkpt>
      <trkpt lat="42.213673" lon="-0.5527474">
        <time>2022-07-05T15:47:59Z</time>
      </trkpt>
      <trkpt lat="42.21363" lon="-0.5526391">
        <time>2022-07-05T15:48:01Z</time>
      </trkpt>
      <trkpt lat="42.213585" lon="-0.5525328">
        <time>2022-07-05T15:48:03Z</time>
      </trkpt>
      <trkpt lat="42.213535" lon="-0.55242646">
        <time>2022-07-05T15:48:05Z</time>
      </trkpt>
      <trkpt lat="42.21349" lon="-0.55231947">
        <time>2022-07-05T15:48:07Z</time>
      </trkpt>
      <trkpt lat="42.213444" lon="-0.55221415">
        <time>2022-07-05T15:48:09Z</time>
      </trkpt>
      <trkpt lat="42.2134" lon="-0.5521108">
        <time>2022-07-05T15:48:11Z</time>
      </trkpt>
      <trkpt lat="42.213356" lon="-0.5520075">
        <time>2022-07-05T15:48:13Z</time>
      </trkpt>
      <trkpt lat="42.21331" lon="-0.5519021">
        <time>2022-07-05T15:48:15Z</time>
      </trkpt>
      <trkpt lat="42.213264" lon="-0.5518005">
        <time>2022-07-05T15:48:17Z</time>
      </trkpt>
      <trkpt lat="42.213223" lon="-0.5516998">
        <time>2022-07-05T15:48:19Z</time>
      </trkpt>
      <trkpt lat="42.213177" lon="-0.5515948">
        <time>2022-07-05T15:48:21Z</time>
      </trkpt>
      <trkpt lat="42.213154" lon="-0.55154216">
        <time>2022-07-05T15:48:22Z</time>
      </trkpt>
      <trkpt lat="42.21311" lon="-0.55144113">
        <time>2022-07-05T15:48:24Z</time>
      </trkpt>
      <trkpt lat="42.213074" lon="-0.5513495">
        <time>2022-07-05T15:48:26Z</time>
      </trkpt>
      <trkpt lat="42.21303" lon="-0.55125016">
        <time>2022-07-05T15:48:28Z</time>
      </trkpt>
      <trkpt lat="42.21299" lon="-0.5511528">
        <time>2022-07-05T15:48:30Z</time>
      </trkpt>
      <trkpt lat="42.212948" lon="-0.55105585">
        <time>2022-07-05T15:48:32Z</time>
      </trkpt>
      <trkpt lat="42.212902" lon="-0.5509602">
        <time>2022-07-05T15:48:34Z</time>
      </trkpt>
      <trkpt lat="42.212864" lon="-0.5508652">
        <time>2022-07-05T15:48:36Z</time>
      </trkpt>
      <trkpt lat="42.212826" lon="-0.5507712">
        <time>2022-07-05T15:48:38Z</time>
      </trkpt>
      <trkpt lat="42.212784" lon="-0.5506782">
        <time>2022-07-05T15:48:40Z</time>
      </trkpt>
      <trkpt lat="42.21274" lon="-0.55058616">
        <time>2022-07-05T15:48:42Z</time>
      </trkpt>
      <trkpt lat="42.2127" lon="-0.55049217">
        <time>2022-07-05T15:48:44Z</time>
      </trkpt>
      <trkpt lat="42.21266" lon="-0.5503985">
        <time>2022-07-05T15:48:46Z</time>
      </trkpt>
      <trkpt lat="42.21262" lon="-0.5503062">
        <time>2022-07-05T15:48:48Z</time>
      </trkpt>
      <trkpt lat="42.212585" lon="-0.55021685">
        <time>2022-07-05T15:48:50Z</time>
      </trkpt>
      <trkpt lat="42.212547" lon="-0.55012286">
        <time>2022-07-05T15:48:52Z</time>
      </trkpt>
      <trkpt lat="42.212513" lon="-0.5500322">
        <time>2022-07-05T15:48:54Z</time>
      </trkpt>
      <trkpt lat="42.212475" lon="-0.5499462">
        <time>2022-07-05T15:48:56Z</time>
      </trkpt>
      <trkpt lat="42.212437" lon="-0.5498609">
        <time>2022-07-05T15:48:58Z</time>
      </trkpt>
      <trkpt lat="42.212402" lon="-0.54977953">
        <time>2022-07-05T15:49:00Z</time>
      </trkpt>
      <trkpt lat="42.212368" lon="-0.5496999">
        <time>2022-07-05T15:49:02Z</time>
      </trkpt>
      <trkpt lat="42.21233" lon="-0.5496175">
        <time>2022-07-05T15:49:04Z</time>
      </trkpt>
      <trkpt lat="42.212296" lon="-0.54953754">
        <time>2022-07-05T15:49:06Z</time>
      </trkpt>
      <trkpt lat="42.21226" lon="-0.54945153">
        <time>2022-07-05T15:49:08Z</time>
      </trkpt>
      <trkpt lat="42.212223" lon="-0.5493659">
        <time>2022-07-05T15:49:10Z</time>
      </trkpt>
      <trkpt lat="42.21219" lon="-0.5492846">
        <time>2022-07-05T15:49:12Z</time>
      </trkpt>
      <trkpt lat="42.212154" lon="-0.5492032">
        <time>2022-07-05T15:49:14Z</time>
      </trkpt>
      <trkpt lat="42.212116" lon="-0.54912025">
        <time>2022-07-05T15:49:16Z</time>
      </trkpt>
      <trkpt lat="42.212082" lon="-0.5490362">
        <time>2022-07-05T15:49:18Z</time>
      </trkpt>
      <trkpt lat="42.212048" lon="-0.5489539">
        <time>2022-07-05T15:49:20Z</time>
      </trkpt>
      <trkpt lat="42.212013" lon="-0.5488719">
        <time>2022-07-05T15:49:22Z</time>
      </trkpt>
      <trkpt lat="42.21198" lon="-0.5487916">
        <time>2022-07-05T15:49:24Z</time>
      </trkpt>
      <trkpt lat="42.211945" lon="-0.54871124">
        <time>2022-07-05T15:49:26Z</time>
      </trkpt>
      <trkpt lat="42.211906" lon="-0.5486309">
        <time>2022-07-05T15:49:28Z</time>
      </trkpt>
      <trkpt lat="42.211872" lon="-0.54855293">
        <time>2022-07-05T15:49:30Z</time>
      </trkpt>
      <trkpt lat="42.211838" lon="-0.54847425">
        <time>2022-07-05T15:49:32Z</time>
      </trkpt>
      <trkpt lat="42.211807" lon="-0.5483949">
        <time>2022-07-05T15:49:34Z</time>
      </trkpt>
      <trkpt lat="42.211773" lon="-0.5483153">
        <time>2022-07-05T15:49:36Z</time>
      </trkpt>
      <trkpt lat="42.21174" lon="-0.54823595">
        <time>2022-07-05T15:49:38Z</time>
      </trkpt>
      <trkpt lat="42.211704" lon="-0.54815495">
        <time>2022-07-05T15:49:40Z</time>
      </trkpt>
      <trkpt lat="42.211666" lon="-0.5480749">
        <time>2022-07-05T15:49:42Z</time>
      </trkpt>
      <trkpt lat="42.211628" lon="-0.5479956">
        <time>2022-07-05T15:49:44Z</time>
      </trkpt>
      <trkpt lat="42.21159" lon="-0.54792094">
        <time>2022-07-05T15:49:46Z</time>
      </trkpt>
      <trkpt lat="42.211555" lon="-0.5478443">
        <time>2022-07-05T15:49:48Z</time>
      </trkpt>
      <trkpt lat="42.21152" lon="-0.54776525">
        <time>2022-07-05T15:49:50Z</time>
      </trkpt>
      <trkpt lat="42.211483" lon="-0.5476796">
        <time>2022-07-05T15:49:52Z</time>
      </trkpt>
      <trkpt lat="42.21145" lon="-0.54759264">
        <time>2022-07-05T15:49:54Z</time>
      </trkpt>
      <trkpt lat="42.21141" lon="-0.5475086">
        <time>2022-07-05T15:49:56Z</time>
      </trkpt>
      <trkpt lat="42.21138" lon="-0.54742527">
        <time>2022-07-05T15:49:58Z</time>
      </trkpt>
      <trkpt lat="42.211346" lon="-0.54734266">
        <time>2022-07-05T15:50:00Z</time>
      </trkpt>
      <trkpt lat="42.211315" lon="-0.547261">
        <time>2022-07-05T15:50:02Z</time>
      </trkpt>
      <trkpt lat="42.21128" lon="-0.5471793">
        <time>2022-07-05T15:50:04Z</time>
      </trkpt>
      <trkpt lat="42.211246" lon="-0.54709464">
        <time>2022-07-05T15:50:06Z</time>
      </trkpt>
      <trkpt lat="42.211212" lon="-0.547011">
        <time>2022-07-05T15:50:08Z</time>
      </trkpt>
      <trkpt lat="42.211178" lon="-0.54692864">
        <time>2022-07-05T15:50:10Z</time>
      </trkpt>
      <trkpt lat="42.21114" lon="-0.546846">
        <time>2022-07-05T15:50:12Z</time>
      </trkpt>
      <trkpt lat="42.2111" lon="-0.546764">
        <time>2022-07-05T15:50:14Z</time>
      </trkpt>
      <trkpt lat="42.211067" lon="-0.546682">
        <time>2022-07-05T15:50:16Z</time>
      </trkpt>
      <trkpt lat="42.21103" lon="-0.54660136">
        <time>2022-07-05T15:50:18Z</time>
      </trkpt>
      <trkpt lat="42.21099" lon="-0.54652166">
        <time>2022-07-05T15:50:20Z</time>
      </trkpt>
      <trkpt lat="42.210957" lon="-0.5464414">
        <time>2022-07-05T15:50:22Z</time>
      </trkpt>
      <trkpt lat="42.210922" lon="-0.5463587">
        <time>2022-07-05T15:50:24Z</time>
      </trkpt>
      <trkpt lat="42.210884" lon="-0.54627603">
        <time>2022-07-05T15:50:26Z</time>
      </trkpt>
      <trkpt lat="42.21085" lon="-0.5461917">
        <time>2022-07-05T15:50:28Z</time>
      </trkpt>
      <trkpt lat="42.210815" lon="-0.5461054">
        <time>2022-07-05T15:50:30Z</time>
      </trkpt>
      <trkpt lat="42.210785" lon="-0.54601806">
        <time>2022-07-05T15:50:32Z</time>
      </trkpt>
      <trkpt lat="42.210747" lon="-0.5459294">
        <time>2022-07-05T15:50:34Z</time>
      </trkpt>
      <trkpt lat="42.210712" lon="-0.54584">
        <time>2022-07-05T15:50:36Z</time>
      </trkpt>
      <trkpt lat="42.210674" lon="-0.5457487">
        <time>2022-07-05T15:50:38Z</time>
      </trkpt>
      <trkpt lat="42.210636" lon="-0.54565704">
        <time>2022-07-05T15:50:40Z</time>
      </trkpt>
      <trkpt lat="42.210594" lon="-0.5455614">
        <time>2022-07-05T15:50:42Z</time>
      </trkpt>
      <trkpt lat="42.210552" lon="-0.54546607">
        <time>2022-07-05T15:50:44Z</time>
      </trkpt>
      <trkpt lat="42.21051" lon="-0.5453741">
        <time>2022-07-05T15:50:46Z</time>
      </trkpt>
      <trkpt lat="42.21047" lon="-0.5452764">
        <time>2022-07-05T15:50:48Z</time>
      </trkpt>
      <trkpt lat="42.210426" lon="-0.5451801">
        <time>2022-07-05T15:50:50Z</time>
      </trkpt>
      <trkpt lat="42.210384" lon="-0.54508543">
        <time>2022-07-05T15:50:52Z</time>
      </trkpt>
      <trkpt lat="42.210342" lon="-0.54499245">
        <time>2022-07-05T15:50:54Z</time>
      </trkpt>
      <trkpt lat="42.2103" lon="-0.5449008">
        <time>2022-07-05T15:50:56Z</time>
      </trkpt>
      <trkpt lat="42.210255" lon="-0.54480475">
        <time>2022-07-05T15:50:58Z</time>
      </trkpt>
      <trkpt lat="42.21021" lon="-0.54470974">
        <time>2022-07-05T15:51:00Z</time>
      </trkpt>
      <trkpt lat="42.210163" lon="-0.5446131">
        <time>2022-07-05T15:51:02Z</time>
      </trkpt>
      <trkpt lat="42.210117" lon="-0.5445171">
        <time>2022-07-05T15:51:04Z</time>
      </trkpt>
      <trkpt lat="42.21007" lon="-0.5444201">
        <time>2022-07-05T15:51:06Z</time>
      </trkpt>
      <trkpt lat="42.210026" lon="-0.5443231">
        <time>2022-07-05T15:51:08Z</time>
      </trkpt>
      <trkpt lat="42.20998" lon="-0.5442261">
        <time>2022-07-05T15:51:10Z</time>
      </trkpt>
      <trkpt lat="42.20993" lon="-0.5441281">
        <time>2022-07-05T15:51:12Z</time>
      </trkpt>
      <trkpt lat="42.209885" lon="-0.5440308">
        <time>2022-07-05T15:51:14Z</time>
      </trkpt>
      <trkpt lat="42.209835" lon="-0.5439341">
        <time>2022-07-05T15:51:16Z</time>
      </trkpt>
      <trkpt lat="42.20979" lon="-0.5438388">
        <time>2022-07-05T15:51:18Z</time>
      </trkpt>
      <trkpt lat="42.209743" lon="-0.5437438">
        <time>2022-07-05T15:51:20Z</time>
      </trkpt>
      <trkpt lat="42.209694" lon="-0.54364944">
        <time>2022-07-05T15:51:22Z</time>
      </trkpt>
      <trkpt lat="42.20965" lon="-0.5435558">
        <time>2022-07-05T15:51:24Z</time>
      </trkpt>
      <trkpt lat="42.209602" lon="-0.54346216">
        <time>2022-07-05T15:51:26Z</time>
      </trkpt>
      <trkpt lat="42.209557" lon="-0.5433668">
        <time>2022-07-05T15:51:28Z</time>
      </trkpt>
      <trkpt lat="42.20951" lon="-0.54327047">
        <time>2022-07-05T15:51:30Z</time>
      </trkpt>
      <trkpt lat="42.209465" lon="-0.54317516">
        <time>2022-07-05T15:51:32Z</time>
      </trkpt>
      <trkpt lat="42.209415" lon="-0.54307747">
        <time>2022-07-05T15:51:34Z</time>
      </trkpt>
      <trkpt lat="42.20937" lon="-0.5429832">
        <time>2022-07-05T15:51:36Z</time>
      </trkpt>
      <trkpt lat="42.20932" lon="-0.5428825">
        <time>2022-07-05T15:51:38Z</time>
      </trkpt>
      <trkpt lat="42.209267" lon="-0.54278183">
        <time>2022-07-05T15:51:40Z</time>
      </trkpt>
      <trkpt lat="42.209194" lon="-0.5426292">
        <time>2022-07-05T15:51:43Z</time>
      </trkpt>
      <trkpt lat="42.209145" lon="-0.5425335">
        <time>2022-07-05T15:51:45Z</time>
      </trkpt>
      <trkpt lat="42.209095" lon="-0.54243386">
        <time>2022-07-05T15:51:47Z</time>
      </trkpt>
      <trkpt lat="42.20904" lon="-0.5423342">
        <time>2022-07-05T15:51:49Z</time>
      </trkpt>
      <trkpt lat="42.208992" lon="-0.5422342">
        <time>2022-07-05T15:51:51Z</time>
      </trkpt>
      <trkpt lat="42.208942" lon="-0.54213953">
        <time>2022-07-05T15:51:53Z</time>
      </trkpt>
      <trkpt lat="42.208893" lon="-0.5420412">
        <time>2022-07-05T15:51:55Z</time>
      </trkpt>
      <trkpt lat="42.20884" lon="-0.5419405">
        <time>2022-07-05T15:51:57Z</time>
      </trkpt>
      <trkpt lat="42.208782" lon="-0.54183954">
        <time>2022-07-05T15:51:59Z</time>
      </trkpt>
      <trkpt lat="42.20873" lon="-0.54173756">
        <time>2022-07-05T15:52:01Z</time>
      </trkpt>
      <trkpt lat="42.2087" lon="-0.54168487">
        <time>2022-07-05T15:52:02Z</time>
      </trkpt>
      <trkpt lat="42.20864" lon="-0.54158056">
        <time>2022-07-05T15:52:04Z</time>
      </trkpt>
      <trkpt lat="42.208614" lon="-0.5415285">
        <time>2022-07-05T15:52:05Z</time>
      </trkpt>
      <trkpt lat="42.208557" lon="-0.5414242">
        <time>2022-07-05T15:52:07Z</time>
      </trkpt>
      <trkpt lat="42.20853" lon="-0.5413712">
        <time>2022-07-05T15:52:08Z</time>
      </trkpt>
      <trkpt lat="42.208477" lon="-0.5412632">
        <time>2022-07-05T15:52:10Z</time>
      </trkpt>
      <trkpt lat="42.20845" lon="-0.5412099">
        <time>2022-07-05T15:52:11Z</time>
      </trkpt>
      <trkpt lat="42.208393" lon="-0.54110456">
        <time>2022-07-05T15:52:13Z</time>
      </trkpt>
      <trkpt lat="42.208363" lon="-0.5410519">
        <time>2022-07-05T15:52:14Z</time>
      </trkpt>
      <trkpt lat="42.208305" lon="-0.54094625">
        <time>2022-07-05T15:52:16Z</time>
      </trkpt>
      <trkpt lat="42.20825" lon="-0.5408366">
        <time>2022-07-05T15:52:18Z</time>
      </trkpt>
      <trkpt lat="42.208187" lon="-0.5407266">
        <time>2022-07-05T15:52:20Z</time>
      </trkpt>
      <trkpt lat="42.208126" lon="-0.5406146">
        <time>2022-07-05T15:52:22Z</time>
      </trkpt>
      <trkpt lat="42.208096" lon="-0.54055893">
        <time>2022-07-05T15:52:23Z</time>
      </trkpt>
      <trkpt lat="42.20806" lon="-0.54050326">
        <time>2022-07-05T15:52:24Z</time>
      </trkpt>
      <trkpt lat="42.207996" lon="-0.54038996">
        <time>2022-07-05T15:52:26Z</time>
      </trkpt>
      <trkpt lat="42.207966" lon="-0.5403339">
        <time>2022-07-05T15:52:27Z</time>
      </trkpt>
      <trkpt lat="42.20793" lon="-0.54027694">
        <time>2022-07-05T15:52:28Z</time>
      </trkpt>
      <trkpt lat="42.2079" lon="-0.5402196">
        <time>2022-07-05T15:52:29Z</time>
      </trkpt>
      <trkpt lat="42.207867" lon="-0.5401626">
        <time>2022-07-05T15:52:30Z</time>
      </trkpt>
      <trkpt lat="42.207832" lon="-0.54010594">
        <time>2022-07-05T15:52:31Z</time>
      </trkpt>
      <trkpt lat="42.207798" lon="-0.54005027">
        <time>2022-07-05T15:52:32Z</time>
      </trkpt>
      <trkpt lat="42.207767" lon="-0.53999394">
        <time>2022-07-05T15:52:33Z</time>
      </trkpt>
      <trkpt lat="42.207733" lon="-0.53993696">
        <time>2022-07-05T15:52:34Z</time>
      </trkpt>
      <trkpt lat="42.207703" lon="-0.53987926">
        <time>2022-07-05T15:52:35Z</time>
      </trkpt>
      <trkpt lat="42.207672" lon="-0.53982097">
        <time>2022-07-05T15:52:36Z</time>
      </trkpt>
      <trkpt lat="42.207638" lon="-0.539763">
        <time>2022-07-05T15:52:37Z</time>
      </trkpt>
      <trkpt lat="42.207603" lon="-0.5397053">
        <time>2022-07-05T15:52:38Z</time>
      </trkpt>
      <trkpt lat="42.207573" lon="-0.53964865">
        <time>2022-07-05T15:52:39Z</time>
      </trkpt>
      <trkpt lat="42.207504" lon="-0.53953433">
        <time>2022-07-05T15:52:41Z</time>
      </trkpt>
      <trkpt lat="42.207474" lon="-0.5394773">
        <time>2022-07-05T15:52:42Z</time>
      </trkpt>
      <trkpt lat="42.207405" lon="-0.539366">
        <time>2022-07-05T15:52:44Z</time>
      </trkpt>
      <trkpt lat="42.20737" lon="-0.53931">
        <time>2022-07-05T15:52:45Z</time>
      </trkpt>
      <trkpt lat="42.207336" lon="-0.5392543">
        <time>2022-07-05T15:52:46Z</time>
      </trkpt>
      <trkpt lat="42.207306" lon="-0.539199">
        <time>2022-07-05T15:52:47Z</time>
      </trkpt>
      <trkpt lat="42.20727" lon="-0.53914434">
        <time>2022-07-05T15:52:48Z</time>
      </trkpt>
      <trkpt lat="42.207237" lon="-0.5390867">
        <time>2022-07-05T15:52:49Z</time>
      </trkpt>
      <trkpt lat="42.207203" lon="-0.539031">
        <time>2022-07-05T15:52:50Z</time>
      </trkpt>
      <trkpt lat="42.20717" lon="-0.538979">
        <time>2022-07-05T15:52:51Z</time>
      </trkpt>
      <trkpt lat="42.207138" lon="-0.53892535">
        <time>2022-07-05T15:52:52Z</time>
      </trkpt>
      <trkpt lat="42.207073" lon="-0.538818">
        <time>2022-07-05T15:52:54Z</time>
      </trkpt>
      <trkpt lat="42.207043" lon="-0.5387637">
        <time>2022-07-05T15:52:55Z</time>
      </trkpt>
      <trkpt lat="42.206978" lon="-0.53865534">
        <time>2022-07-05T15:52:57Z</time>
      </trkpt>
      <trkpt lat="42.206913" lon="-0.53854835">
        <time>2022-07-05T15:52:59Z</time>
      </trkpt>
      <trkpt lat="42.206882" lon="-0.538495">
        <time>2022-07-05T15:53:00Z</time>
      </trkpt>
      <trkpt lat="42.20685" lon="-0.538441">
        <time>2022-07-05T15:53:01Z</time>
      </trkpt>
      <trkpt lat="42.206783" lon="-0.53833306">
        <time>2022-07-05T15:53:03Z</time>
      </trkpt>
      <trkpt lat="42.20675" lon="-0.53827804">
        <time>2022-07-05T15:53:04Z</time>
      </trkpt>
      <trkpt lat="42.20672" lon="-0.5382234">
        <time>2022-07-05T15:53:05Z</time>
      </trkpt>
      <trkpt lat="42.206684" lon="-0.5381687">
        <time>2022-07-05T15:53:06Z</time>
      </trkpt>
      <trkpt lat="42.20662" lon="-0.53806174">
        <time>2022-07-05T15:53:08Z</time>
      </trkpt>
      <trkpt lat="42.206585" lon="-0.53800774">
        <time>2022-07-05T15:53:09Z</time>
      </trkpt>
      <trkpt lat="42.20655" lon="-0.53795236">
        <time>2022-07-05T15:53:10Z</time>
      </trkpt>
      <trkpt lat="42.20652" lon="-0.53789705">
        <time>2022-07-05T15:53:11Z</time>
      </trkpt>
      <trkpt lat="42.20645" lon="-0.53778607">
        <time>2022-07-05T15:53:13Z</time>
      </trkpt>
      <trkpt lat="42.206417" lon="-0.5377307">
        <time>2022-07-05T15:53:14Z</time>
      </trkpt>
      <trkpt lat="42.206383" lon="-0.5376747">
        <time>2022-07-05T15:53:15Z</time>
      </trkpt>
      <trkpt lat="42.20635" lon="-0.5376187">
        <time>2022-07-05T15:53:16Z</time>
      </trkpt>
      <trkpt lat="42.206318" lon="-0.5375631">
        <time>2022-07-05T15:53:17Z</time>
      </trkpt>
      <trkpt lat="42.206284" lon="-0.5375077">
        <time>2022-07-05T15:53:18Z</time>
      </trkpt>
      <trkpt lat="42.20625" lon="-0.53745276">
        <time>2022-07-05T15:53:19Z</time>
      </trkpt>
      <trkpt lat="42.206215" lon="-0.53739804">
        <time>2022-07-05T15:53:20Z</time>
      </trkpt>
      <trkpt lat="42.20615" lon="-0.5372887">
        <time>2022-07-05T15:53:22Z</time>
      </trkpt>
      <trkpt lat="42.20612" lon="-0.5372351">
        <time>2022-07-05T15:53:23Z</time>
      </trkpt>
      <trkpt lat="42.206085" lon="-0.5371811">
        <time>2022-07-05T15:53:24Z</time>
      </trkpt>
      <trkpt lat="42.20605" lon="-0.53712744">
        <time>2022-07-05T15:53:25Z</time>
      </trkpt>
      <trkpt lat="42.205982" lon="-0.53701574">
        <time>2022-07-05T15:53:27Z</time>
      </trkpt>
      <trkpt lat="42.20595" lon="-0.5369634">
        <time>2022-07-05T15:53:28Z</time>
      </trkpt>
      <trkpt lat="42.205917" lon="-0.5369118">
        <time>2022-07-05T15:53:29Z</time>
      </trkpt>
      <trkpt lat="42.205887" lon="-0.5368614">
        <time>2022-07-05T15:53:30Z</time>
      </trkpt>
      <trkpt lat="42.205822" lon="-0.5367634">
        <time>2022-07-05T15:53:32Z</time>
      </trkpt>
      <trkpt lat="42.205795" lon="-0.5367174">
        <time>2022-07-05T15:53:33Z</time>
      </trkpt>
      <trkpt lat="42.20573" lon="-0.5366198">
        <time>2022-07-05T15:53:35Z</time>
      </trkpt>
      <trkpt lat="42.20567" lon="-0.5365231">
        <time>2022-07-05T15:53:37Z</time>
      </trkpt>
      <trkpt lat="42.205612" lon="-0.5364345">
        <time>2022-07-05T15:53:39Z</time>
      </trkpt>
      <trkpt lat="42.205555" lon="-0.5363468">
        <time>2022-07-05T15:53:41Z</time>
      </trkpt>
      <trkpt lat="42.205498" lon="-0.5362528">
        <time>2022-07-05T15:53:43Z</time>
      </trkpt>
      <trkpt lat="42.20544" lon="-0.53616047">
        <time>2022-07-05T15:53:45Z</time>
      </trkpt>
      <trkpt lat="42.20538" lon="-0.5360621">
        <time>2022-07-05T15:53:47Z</time>
      </trkpt>
      <trkpt lat="42.205345" lon="-0.5360125">
        <time>2022-07-05T15:53:48Z</time>
      </trkpt>
      <trkpt lat="42.205284" lon="-0.5359088">
        <time>2022-07-05T15:53:50Z</time>
      </trkpt>
      <trkpt lat="42.20522" lon="-0.5358045">
        <time>2022-07-05T15:53:52Z</time>
      </trkpt>
      <trkpt lat="42.20515" lon="-0.5356992">
        <time>2022-07-05T15:53:54Z</time>
      </trkpt>
      <trkpt lat="42.20512" lon="-0.5356465">
        <time>2022-07-05T15:53:55Z</time>
      </trkpt>
      <trkpt lat="42.205055" lon="-0.5355415">
        <time>2022-07-05T15:53:57Z</time>
      </trkpt>
      <trkpt lat="42.205025" lon="-0.53548914">
        <time>2022-07-05T15:53:58Z</time>
      </trkpt>
      <trkpt lat="42.20496" lon="-0.5353875">
        <time>2022-07-05T15:54:00Z</time>
      </trkpt>
      <trkpt lat="42.2049" lon="-0.53529054">
        <time>2022-07-05T15:54:02Z</time>
      </trkpt>
      <trkpt lat="42.204838" lon="-0.53519815">
        <time>2022-07-05T15:54:04Z</time>
      </trkpt>
      <trkpt lat="42.204784" lon="-0.53510916">
        <time>2022-07-05T15:54:06Z</time>
      </trkpt>
      <trkpt lat="42.204727" lon="-0.53502184">
        <time>2022-07-05T15:54:08Z</time>
      </trkpt>
      <trkpt lat="42.204674" lon="-0.5349349">
        <time>2022-07-05T15:54:10Z</time>
      </trkpt>
      <trkpt lat="42.204624" lon="-0.53485286">
        <time>2022-07-05T15:54:12Z</time>
      </trkpt>
      <trkpt lat="42.204548" lon="-0.53473485">
        <time>2022-07-05T15:54:15Z</time>
      </trkpt>
      <trkpt lat="42.204502" lon="-0.53465354">
        <time>2022-07-05T15:54:17Z</time>
      </trkpt>
      <trkpt lat="42.204453" lon="-0.5345742">
        <time>2022-07-05T15:54:19Z</time>
      </trkpt>
      <trkpt lat="42.204403" lon="-0.5344949">
        <time>2022-07-05T15:54:21Z</time>
      </trkpt>
      <trkpt lat="42.204353" lon="-0.5344139">
        <time>2022-07-05T15:54:23Z</time>
      </trkpt>
      <trkpt lat="42.204304" lon="-0.53433084">
        <time>2022-07-05T15:54:25Z</time>
      </trkpt>
      <trkpt lat="42.204254" lon="-0.5342482">
        <time>2022-07-05T15:54:27Z</time>
      </trkpt>
      <trkpt lat="42.204205" lon="-0.5341679">
        <time>2022-07-05T15:54:29Z</time>
      </trkpt>
      <trkpt lat="42.204155" lon="-0.5340892">
        <time>2022-07-05T15:54:31Z</time>
      </trkpt>
      <trkpt lat="42.204105" lon="-0.5340096">
        <time>2022-07-05T15:54:33Z</time>
      </trkpt>
      <trkpt lat="42.204056" lon="-0.53392553">
        <time>2022-07-05T15:54:35Z</time>
      </trkpt>
      <trkpt lat="42.204006" lon="-0.53384423">
        <time>2022-07-05T15:54:37Z</time>
      </trkpt>
      <trkpt lat="42.203957" lon="-0.5337662">
        <time>2022-07-05T15:54:39Z</time>
      </trkpt>
      <trkpt lat="42.203903" lon="-0.5336802">
        <time>2022-07-05T15:54:41Z</time>
      </trkpt>
      <trkpt lat="42.203854" lon="-0.53359824">
        <time>2022-07-05T15:54:43Z</time>
      </trkpt>
      <trkpt lat="42.203804" lon="-0.5335179">
        <time>2022-07-05T15:54:45Z</time>
      </trkpt>
      <trkpt lat="42.20376" lon="-0.53343624">
        <time>2022-07-05T15:54:47Z</time>
      </trkpt>
      <trkpt lat="42.203712" lon="-0.53335357">
        <time>2022-07-05T15:54:49Z</time>
      </trkpt>
      <trkpt lat="42.203663" lon="-0.53327227">
        <time>2022-07-05T15:54:51Z</time>
      </trkpt>
      <trkpt lat="42.203617" lon="-0.5331909">
        <time>2022-07-05T15:54:53Z</time>
      </trkpt>
      <trkpt lat="42.20357" lon="-0.5331126">
        <time>2022-07-05T15:54:55Z</time>
      </trkpt>
      <trkpt lat="42.203526" lon="-0.5330353">
        <time>2022-07-05T15:54:57Z</time>
      </trkpt>
      <trkpt lat="42.203484" lon="-0.5329579">
        <time>2022-07-05T15:54:59Z</time>
      </trkpt>
      <trkpt lat="42.203438" lon="-0.5328806">
        <time>2022-07-05T15:55:01Z</time>
      </trkpt>
      <trkpt lat="42.203392" lon="-0.5328046">
        <time>2022-07-05T15:55:03Z</time>
      </trkpt>
      <trkpt lat="42.203346" lon="-0.5327316">
        <time>2022-07-05T15:55:05Z</time>
      </trkpt>
      <trkpt lat="42.2033" lon="-0.5326586">
        <time>2022-07-05T15:55:07Z</time>
      </trkpt>
      <trkpt lat="42.203255" lon="-0.53258556">
        <time>2022-07-05T15:55:09Z</time>
      </trkpt>
      <trkpt lat="42.20321" lon="-0.5325153">
        <time>2022-07-05T15:55:11Z</time>
      </trkpt>
      <trkpt lat="42.203163" lon="-0.53243995">
        <time>2022-07-05T15:55:13Z</time>
      </trkpt>
      <trkpt lat="42.20312" lon="-0.5323676">
        <time>2022-07-05T15:55:15Z</time>
      </trkpt>
      <trkpt lat="42.20308" lon="-0.5322943">
        <time>2022-07-05T15:55:17Z</time>
      </trkpt>
      <trkpt lat="42.203037" lon="-0.53222126">
        <time>2022-07-05T15:55:19Z</time>
      </trkpt>
      <trkpt lat="42.20299" lon="-0.53214824">
        <time>2022-07-05T15:55:21Z</time>
      </trkpt>
      <trkpt lat="42.202946" lon="-0.5320763">
        <time>2022-07-05T15:55:23Z</time>
      </trkpt>
      <trkpt lat="42.2029" lon="-0.5320023">
        <time>2022-07-05T15:55:25Z</time>
      </trkpt>
      <trkpt lat="42.202854" lon="-0.53192496">
        <time>2022-07-05T15:55:27Z</time>
      </trkpt>
      <trkpt lat="42.202785" lon="-0.5318116">
        <time>2022-07-05T15:55:30Z</time>
      </trkpt>
      <trkpt lat="42.20274" lon="-0.53173864">
        <time>2022-07-05T15:55:32Z</time>
      </trkpt>
      <trkpt lat="42.202694" lon="-0.5316656">
        <time>2022-07-05T15:55:34Z</time>
      </trkpt>
      <trkpt lat="42.20265" lon="-0.5315923">
        <time>2022-07-05T15:55:36Z</time>
      </trkpt>
      <trkpt lat="42.202602" lon="-0.5315193">
        <time>2022-07-05T15:55:38Z</time>
      </trkpt>
      <trkpt lat="42.202553" lon="-0.5314433">
        <time>2022-07-05T15:55:40Z</time>
      </trkpt>
      <trkpt lat="42.202507" lon="-0.53136927">
        <time>2022-07-05T15:55:42Z</time>
      </trkpt>
      <trkpt lat="42.202457" lon="-0.5312943">
        <time>2022-07-05T15:55:44Z</time>
      </trkpt>
      <trkpt lat="42.20241" lon="-0.5312206">
        <time>2022-07-05T15:55:46Z</time>
      </trkpt>
      <trkpt lat="42.202366" lon="-0.5311503">
        <time>2022-07-05T15:55:48Z</time>
      </trkpt>
      <trkpt lat="42.20232" lon="-0.5310833">
        <time>2022-07-05T15:55:50Z</time>
      </trkpt>
      <trkpt lat="42.202274" lon="-0.5310113">
        <time>2022-07-05T15:55:52Z</time>
      </trkpt>
      <trkpt lat="42.202225" lon="-0.5309376">
        <time>2022-07-05T15:55:54Z</time>
      </trkpt>
      <trkpt lat="42.20218" lon="-0.5308606">
        <time>2022-07-05T15:55:56Z</time>
      </trkpt>
      <trkpt lat="42.20213" lon="-0.5307813">
        <time>2022-07-05T15:55:58Z</time>
      </trkpt>
      <trkpt lat="42.20208" lon="-0.5307013">
        <time>2022-07-05T15:56:00Z</time>
      </trkpt>
      <trkpt lat="42.202026" lon="-0.5306196">
        <time>2022-07-05T15:56:02Z</time>
      </trkpt>
      <trkpt lat="42.201977" lon="-0.5305363">
        <time>2022-07-05T15:56:04Z</time>
      </trkpt>
      <trkpt lat="42.201923" lon="-0.5304553">
        <time>2022-07-05T15:56:06Z</time>
      </trkpt>
      <trkpt lat="42.201874" lon="-0.5303713">
        <time>2022-07-05T15:56:08Z</time>
      </trkpt>
      <trkpt lat="42.20182" lon="-0.53028566">
        <time>2022-07-05T15:56:10Z</time>
      </trkpt>
      <trkpt lat="42.201767" lon="-0.53019834">
        <time>2022-07-05T15:56:12Z</time>
      </trkpt>
      <trkpt lat="42.201714" lon="-0.530111">
        <time>2022-07-05T15:56:14Z</time>
      </trkpt>
      <trkpt lat="42.20166" lon="-0.5300223">
        <time>2022-07-05T15:56:16Z</time>
      </trkpt>
      <trkpt lat="42.201603" lon="-0.5299363">
        <time>2022-07-05T15:56:18Z</time>
      </trkpt>
      <trkpt lat="42.20155" lon="-0.5298503">
        <time>2022-07-05T15:56:20Z</time>
      </trkpt>
      <trkpt lat="42.201496" lon="-0.52976334">
        <time>2022-07-05T15:56:22Z</time>
      </trkpt>
      <trkpt lat="42.201443" lon="-0.529676">
        <time>2022-07-05T15:56:24Z</time>
      </trkpt>
      <trkpt lat="42.20139" lon="-0.529591">
        <time>2022-07-05T15:56:26Z</time>
      </trkpt>
      <trkpt lat="42.201336" lon="-0.529504">
        <time>2022-07-05T15:56:28Z</time>
      </trkpt>
      <trkpt lat="42.201286" lon="-0.529417">
        <time>2022-07-05T15:56:30Z</time>
      </trkpt>
      <trkpt lat="42.201233" lon="-0.5293327">
        <time>2022-07-05T15:56:32Z</time>
      </trkpt>
      <trkpt lat="42.20118" lon="-0.529249">
        <time>2022-07-05T15:56:34Z</time>
      </trkpt>
      <trkpt lat="42.201126" lon="-0.529162">
        <time>2022-07-05T15:56:36Z</time>
      </trkpt>
      <trkpt lat="42.20107" lon="-0.5290707">
        <time>2022-07-05T15:56:38Z</time>
      </trkpt>
      <trkpt lat="42.20101" lon="-0.52897537">
        <time>2022-07-05T15:56:40Z</time>
      </trkpt>
      <trkpt lat="42.200954" lon="-0.52887934">
        <time>2022-07-05T15:56:42Z</time>
      </trkpt>
      <trkpt lat="42.200897" lon="-0.52878034">
        <time>2022-07-05T15:56:44Z</time>
      </trkpt>
      <trkpt lat="42.200867" lon="-0.52873033">
        <time>2022-07-05T15:56:45Z</time>
      </trkpt>
      <trkpt lat="42.200775" lon="-0.5285847">
        <time>2022-07-05T15:56:48Z</time>
      </trkpt>
      <trkpt lat="42.20075" lon="-0.52853537">
        <time>2022-07-05T15:56:49Z</time>
      </trkpt>
      <trkpt lat="42.20069" lon="-0.5284367">
        <time>2022-07-05T15:56:51Z</time>
      </trkpt>
      <trkpt lat="42.20063" lon="-0.528338">
        <time>2022-07-05T15:56:53Z</time>
      </trkpt>
      <trkpt lat="42.2006" lon="-0.52828974">
        <time>2022-07-05T15:56:54Z</time>
      </trkpt>
      <trkpt lat="42.200542" lon="-0.52819335">
        <time>2022-07-05T15:56:56Z</time>
      </trkpt>
      <trkpt lat="42.200485" lon="-0.52810174">
        <time>2022-07-05T15:56:58Z</time>
      </trkpt>
      <trkpt lat="42.200428" lon="-0.52801174">
        <time>2022-07-05T15:57:00Z</time>
      </trkpt>
      <trkpt lat="42.200375" lon="-0.52792275">
        <time>2022-07-05T15:57:02Z</time>
      </trkpt>
      <trkpt lat="42.20032" lon="-0.5278361">
        <time>2022-07-05T15:57:04Z</time>
      </trkpt>
      <trkpt lat="42.200268" lon="-0.5277511">
        <time>2022-07-05T15:57:06Z</time>
      </trkpt>
      <trkpt lat="42.200214" lon="-0.5276634">
        <time>2022-07-05T15:57:08Z</time>
      </trkpt>
      <trkpt lat="42.20016" lon="-0.5275814">
        <time>2022-07-05T15:57:10Z</time>
      </trkpt>
      <trkpt lat="42.200108" lon="-0.5275001">
        <time>2022-07-05T15:57:12Z</time>
      </trkpt>
      <trkpt lat="42.20006" lon="-0.5274194">
        <time>2022-07-05T15:57:14Z</time>
      </trkpt>
      <trkpt lat="42.200012" lon="-0.5273417">
        <time>2022-07-05T15:57:16Z</time>
      </trkpt>
      <trkpt lat="42.199966" lon="-0.52726644">
        <time>2022-07-05T15:57:18Z</time>
      </trkpt>
      <trkpt lat="42.19992" lon="-0.5271938">
        <time>2022-07-05T15:57:20Z</time>
      </trkpt>
      <trkpt lat="42.199875" lon="-0.5271221">
        <time>2022-07-05T15:57:22Z</time>
      </trkpt>
      <trkpt lat="42.199833" lon="-0.52704877">
        <time>2022-07-05T15:57:24Z</time>
      </trkpt>
      <trkpt lat="42.199787" lon="-0.52697676">
        <time>2022-07-05T15:57:26Z</time>
      </trkpt>
      <trkpt lat="42.19974" lon="-0.5269054">
        <time>2022-07-05T15:57:28Z</time>
      </trkpt>
      <trkpt lat="42.199696" lon="-0.5268334">
        <time>2022-07-05T15:57:30Z</time>
      </trkpt>
      <trkpt lat="42.19965" lon="-0.5267601">
        <time>2022-07-05T15:57:32Z</time>
      </trkpt>
      <trkpt lat="42.199604" lon="-0.52668744">
        <time>2022-07-05T15:57:34Z</time>
      </trkpt>
      <trkpt lat="42.19956" lon="-0.5266128">
        <time>2022-07-05T15:57:36Z</time>
      </trkpt>
      <trkpt lat="42.199512" lon="-0.52653843">
        <time>2022-07-05T15:57:38Z</time>
      </trkpt>
      <trkpt lat="42.199467" lon="-0.5264655">
        <time>2022-07-05T15:57:40Z</time>
      </trkpt>
      <trkpt lat="42.19942" lon="-0.5263935">
        <time>2022-07-05T15:57:42Z</time>
      </trkpt>
      <trkpt lat="42.19938" lon="-0.5263211">
        <time>2022-07-05T15:57:44Z</time>
      </trkpt>
      <trkpt lat="42.199333" lon="-0.5262505">
        <time>2022-07-05T15:57:46Z</time>
      </trkpt>
      <trkpt lat="42.199287" lon="-0.5261785">
        <time>2022-07-05T15:57:48Z</time>
      </trkpt>
      <trkpt lat="42.19923" lon="-0.5260841">
        <time>2022-07-05T15:57:51Z</time>
      </trkpt>
      <trkpt lat="42.19918" lon="-0.5260018">
        <time>2022-07-05T15:57:53Z</time>
      </trkpt>
      <trkpt lat="42.199135" lon="-0.52593017">
        <time>2022-07-05T15:57:55Z</time>
      </trkpt>
      <trkpt lat="42.19909" lon="-0.52586013">
        <time>2022-07-05T15:57:57Z</time>
      </trkpt>
      <trkpt lat="42.199043" lon="-0.5257872">
        <time>2022-07-05T15:57:59Z</time>
      </trkpt>
      <trkpt lat="42.199" lon="-0.52571917">
        <time>2022-07-05T15:58:01Z</time>
      </trkpt>
      <trkpt lat="42.19894" lon="-0.52561915">
        <time>2022-07-05T15:58:04Z</time>
      </trkpt>
      <trkpt lat="42.1989" lon="-0.5255545">
        <time>2022-07-05T15:58:06Z</time>
      </trkpt>
      <trkpt lat="42.198864" lon="-0.5254925">
        <time>2022-07-05T15:58:08Z</time>
      </trkpt>
      <trkpt lat="42.19883" lon="-0.5254332">
        <time>2022-07-05T15:58:10Z</time>
      </trkpt>
      <trkpt lat="42.1988" lon="-0.52537817">
        <time>2022-07-05T15:58:12Z</time>
      </trkpt>
      <trkpt lat="42.19876" lon="-0.52531284">
        <time>2022-07-05T15:58:15Z</time>
      </trkpt>
      <trkpt lat="42.198734" lon="-0.52526915">
        <time>2022-07-05T15:58:19Z</time>
      </trkpt>
      <trkpt lat="42.198696" lon="-0.5252478">
        <time>2022-07-05T16:00:07Z</time>
      </trkpt>
      <trkpt lat="42.198647" lon="-0.52516586">
        <time>2022-07-05T16:00:10Z</time>
      </trkpt>
      <trkpt lat="42.19861" lon="-0.52510685">
        <time>2022-07-05T16:00:12Z</time>
      </trkpt>
      <trkpt lat="42.19857" lon="-0.5250485">
        <time>2022-07-05T16:00:14Z</time>
      </trkpt>
      <trkpt lat="42.198536" lon="-0.5249882">
        <time>2022-07-05T16:00:16Z</time>
      </trkpt>
      <trkpt lat="42.1985" lon="-0.52492654">
        <time>2022-07-05T16:00:18Z</time>
      </trkpt>
      <trkpt lat="42.198467" lon="-0.5248652">
        <time>2022-07-05T16:00:20Z</time>
      </trkpt>
      <trkpt lat="42.19843" lon="-0.5248039">
        <time>2022-07-05T16:00:22Z</time>
      </trkpt>
      <trkpt lat="42.198395" lon="-0.52474153">
        <time>2022-07-05T16:00:24Z</time>
      </trkpt>
      <trkpt lat="42.198357" lon="-0.5246799">
        <time>2022-07-05T16:00:26Z</time>
      </trkpt>
      <trkpt lat="42.198326" lon="-0.5246172">
        <time>2022-07-05T16:00:28Z</time>
      </trkpt>
      <trkpt lat="42.198288" lon="-0.5245492">
        <time>2022-07-05T16:00:30Z</time>
      </trkpt>
      <trkpt lat="42.198254" lon="-0.5244849">
        <time>2022-07-05T16:00:32Z</time>
      </trkpt>
      <trkpt lat="42.198215" lon="-0.5244229">
        <time>2022-07-05T16:00:34Z</time>
      </trkpt>
      <trkpt lat="42.198174" lon="-0.52436054">
        <time>2022-07-05T16:00:36Z</time>
      </trkpt>
      <trkpt lat="42.198135" lon="-0.52429724">
        <time>2022-07-05T16:00:38Z</time>
      </trkpt>
      <trkpt lat="42.198097" lon="-0.5242332">
        <time>2022-07-05T16:00:40Z</time>
      </trkpt>
      <trkpt lat="42.198055" lon="-0.52416956">
        <time>2022-07-05T16:00:42Z</time>
      </trkpt>
      <trkpt lat="42.197998" lon="-0.5240739">
        <time>2022-07-05T16:00:45Z</time>
      </trkpt>
      <trkpt lat="42.19796" lon="-0.5240146">
        <time>2022-07-05T16:00:47Z</time>
      </trkpt>
      <trkpt lat="42.19792" lon="-0.5239529">
        <time>2022-07-05T16:00:49Z</time>
      </trkpt>
      <trkpt lat="42.197884" lon="-0.52389026">
        <time>2022-07-05T16:00:51Z</time>
      </trkpt>
      <trkpt lat="42.197845" lon="-0.5238256">
        <time>2022-07-05T16:00:53Z</time>
      </trkpt>
      <trkpt lat="42.19781" lon="-0.5237606">
        <time>2022-07-05T16:00:55Z</time>
      </trkpt>
      <trkpt lat="42.197773" lon="-0.5236966">
        <time>2022-07-05T16:00:57Z</time>
      </trkpt>
      <trkpt lat="42.19774" lon="-0.5236316">
        <time>2022-07-05T16:00:59Z</time>
      </trkpt>
      <trkpt lat="42.1977" lon="-0.5235679">
        <time>2022-07-05T16:01:01Z</time>
      </trkpt>
      <trkpt lat="42.19766" lon="-0.52350694">
        <time>2022-07-05T16:01:03Z</time>
      </trkpt>
      <trkpt lat="42.19762" lon="-0.5234459">
        <time>2022-07-05T16:01:05Z</time>
      </trkpt>
      <trkpt lat="42.19758" lon="-0.5233836">
        <time>2022-07-05T16:01:07Z</time>
      </trkpt>
      <trkpt lat="42.19754" lon="-0.5233196">
        <time>2022-07-05T16:01:09Z</time>
      </trkpt>
      <trkpt lat="42.197502" lon="-0.5232553">
        <time>2022-07-05T16:01:11Z</time>
      </trkpt>
      <trkpt lat="42.19746" lon="-0.52318996">
        <time>2022-07-05T16:01:13Z</time>
      </trkpt>
      <trkpt lat="42.19742" lon="-0.5231239">
        <time>2022-07-05T16:01:15Z</time>
      </trkpt>
      <trkpt lat="42.19738" lon="-0.5230586">
        <time>2022-07-05T16:01:17Z</time>
      </trkpt>
      <trkpt lat="42.19734" lon="-0.52299297">
        <time>2022-07-05T16:01:19Z</time>
      </trkpt>
      <trkpt lat="42.1973" lon="-0.52292764">
        <time>2022-07-05T16:01:21Z</time>
      </trkpt>
      <trkpt lat="42.19726" lon="-0.5228626">
        <time>2022-07-05T16:01:23Z</time>
      </trkpt>
      <trkpt lat="42.19722" lon="-0.522797">
        <time>2022-07-05T16:01:25Z</time>
      </trkpt>
      <trkpt lat="42.197178" lon="-0.5227313">
        <time>2022-07-05T16:01:27Z</time>
      </trkpt>
      <trkpt lat="42.19714" lon="-0.5226673">
        <time>2022-07-05T16:01:29Z</time>
      </trkpt>
      <trkpt lat="42.1971" lon="-0.52260363">
        <time>2022-07-05T16:01:31Z</time>
      </trkpt>
      <trkpt lat="42.197063" lon="-0.52254">
        <time>2022-07-05T16:01:33Z</time>
      </trkpt>
      <trkpt lat="42.197025" lon="-0.52247596">
        <time>2022-07-05T16:01:35Z</time>
      </trkpt>
      <trkpt lat="42.19699" lon="-0.52241796">
        <time>2022-07-05T16:01:37Z</time>
      </trkpt>
      <trkpt lat="42.196953" lon="-0.522361">
        <time>2022-07-05T16:01:39Z</time>
      </trkpt>
      <trkpt lat="42.196903" lon="-0.52227664">
        <time>2022-07-05T16:01:42Z</time>
      </trkpt>
      <trkpt lat="42.19687" lon="-0.52222097">
        <time>2022-07-05T16:01:44Z</time>
      </trkpt>
      <trkpt lat="42.19683" lon="-0.52216434">
        <time>2022-07-05T16:01:46Z</time>
      </trkpt>
      <trkpt lat="42.196793" lon="-0.522107">
        <time>2022-07-05T16:01:48Z</time>
      </trkpt>
      <trkpt lat="42.19676" lon="-0.52204967">
        <time>2022-07-05T16:01:50Z</time>
      </trkpt>
      <trkpt lat="42.196724" lon="-0.52199334">
        <time>2022-07-05T16:01:52Z</time>
      </trkpt>
      <trkpt lat="42.196686" lon="-0.52193433">
        <time>2022-07-05T16:01:54Z</time>
      </trkpt>
      <trkpt lat="42.19665" lon="-0.52187437">
        <time>2022-07-05T16:01:56Z</time>
      </trkpt>
      <trkpt lat="42.196613" lon="-0.521815">
        <time>2022-07-05T16:01:58Z</time>
      </trkpt>
      <trkpt lat="42.19658" lon="-0.521757">
        <time>2022-07-05T16:02:00Z</time>
      </trkpt>
      <trkpt lat="42.196545" lon="-0.521699">
        <time>2022-07-05T16:02:02Z</time>
      </trkpt>
      <trkpt lat="42.196507" lon="-0.52164066">
        <time>2022-07-05T16:02:04Z</time>
      </trkpt>
      <trkpt lat="42.196472" lon="-0.52158266">
        <time>2022-07-05T16:02:06Z</time>
      </trkpt>
      <trkpt lat="42.196434" lon="-0.52152336">
        <time>2022-07-05T16:02:08Z</time>
      </trkpt>
      <trkpt lat="42.1964" lon="-0.5214627">
        <time>2022-07-05T16:02:10Z</time>
      </trkpt>
      <trkpt lat="42.19636" lon="-0.5214047">
        <time>2022-07-05T16:02:12Z</time>
      </trkpt>
      <trkpt lat="42.196323" lon="-0.521344">
        <time>2022-07-05T16:02:14Z</time>
      </trkpt>
      <trkpt lat="42.196285" lon="-0.52128506">
        <time>2022-07-05T16:02:16Z</time>
      </trkpt>
      <trkpt lat="42.19625" lon="-0.5212267">
        <time>2022-07-05T16:02:18Z</time>
      </trkpt>
      <trkpt lat="42.196213" lon="-0.52117">
        <time>2022-07-05T16:02:20Z</time>
      </trkpt>
      <trkpt lat="42.19618" lon="-0.5211127">
        <time>2022-07-05T16:02:22Z</time>
      </trkpt>
      <trkpt lat="42.19614" lon="-0.5210527">
        <time>2022-07-05T16:02:24Z</time>
      </trkpt>
      <trkpt lat="42.1961" lon="-0.52099204">
        <time>2022-07-05T16:02:26Z</time>
      </trkpt>
      <trkpt lat="42.196056" lon="-0.52092874">
        <time>2022-07-05T16:02:28Z</time>
      </trkpt>
      <trkpt lat="42.19602" lon="-0.52086604">
        <time>2022-07-05T16:02:30Z</time>
      </trkpt>
      <trkpt lat="42.19598" lon="-0.5207994">
        <time>2022-07-05T16:02:32Z</time>
      </trkpt>
      <trkpt lat="42.195942" lon="-0.52073276">
        <time>2022-07-05T16:02:34Z</time>
      </trkpt>
      <trkpt lat="42.1959" lon="-0.5206707">
        <time>2022-07-05T16:02:36Z</time>
      </trkpt>
      <trkpt lat="42.19586" lon="-0.5206047">
        <time>2022-07-05T16:02:38Z</time>
      </trkpt>
      <trkpt lat="42.195824" lon="-0.5205434">
        <time>2022-07-05T16:02:40Z</time>
      </trkpt>
      <trkpt lat="42.195786" lon="-0.5204784">
        <time>2022-07-05T16:02:42Z</time>
      </trkpt>
      <trkpt lat="42.195747" lon="-0.5204121">
        <time>2022-07-05T16:02:44Z</time>
      </trkpt>
      <trkpt lat="42.19571" lon="-0.5203461">
        <time>2022-07-05T16:02:46Z</time>
      </trkpt>
      <trkpt lat="42.195667" lon="-0.5202791">
        <time>2022-07-05T16:02:48Z</time>
      </trkpt>
      <trkpt lat="42.19563" lon="-0.52021176">
        <time>2022-07-05T16:02:50Z</time>
      </trkpt>
      <trkpt lat="42.195587" lon="-0.5201454">
        <time>2022-07-05T16:02:52Z</time>
      </trkpt>
      <trkpt lat="42.19555" lon="-0.5200851">
        <time>2022-07-05T16:02:54Z</time>
      </trkpt>
      <trkpt lat="42.19551" lon="-0.5200261">
        <time>2022-07-05T16:02:56Z</time>
      </trkpt>
      <trkpt lat="42.195473" lon="-0.5199611">
        <time>2022-07-05T16:02:58Z</time>
      </trkpt>
      <trkpt lat="42.19541" lon="-0.51986444">
        <time>2022-07-05T16:03:01Z</time>
      </trkpt>
      <trkpt lat="42.19537" lon="-0.51979876">
        <time>2022-07-05T16:03:03Z</time>
      </trkpt>
      <trkpt lat="42.19533" lon="-0.5197341">
        <time>2022-07-05T16:03:05Z</time>
      </trkpt>
      <trkpt lat="42.19529" lon="-0.5196704">
        <time>2022-07-05T16:03:07Z</time>
      </trkpt>
      <trkpt lat="42.19525" lon="-0.51960677">
        <time>2022-07-05T16:03:09Z</time>
      </trkpt>
      <trkpt lat="42.195213" lon="-0.51954246">
        <time>2022-07-05T16:03:11Z</time>
      </trkpt>
      <trkpt lat="42.19517" lon="-0.5194775">
        <time>2022-07-05T16:03:13Z</time>
      </trkpt>
      <trkpt lat="42.195133" lon="-0.51941144">
        <time>2022-07-05T16:03:15Z</time>
      </trkpt>
      <trkpt lat="42.195095" lon="-0.51934814">
        <time>2022-07-05T16:03:17Z</time>
      </trkpt>
      <trkpt lat="42.195053" lon="-0.51928645">
        <time>2022-07-05T16:03:19Z</time>
      </trkpt>
      <trkpt lat="42.19502" lon="-0.5192238">
        <time>2022-07-05T16:03:21Z</time>
      </trkpt>
      <trkpt lat="42.19498" lon="-0.5191608">
        <time>2022-07-05T16:03:23Z</time>
      </trkpt>
      <trkpt lat="42.19494" lon="-0.5190988">
        <time>2022-07-05T16:03:25Z</time>
      </trkpt>
      <trkpt lat="42.1949" lon="-0.5190362">
        <time>2022-07-05T16:03:27Z</time>
      </trkpt>
      <trkpt lat="42.194862" lon="-0.51897514">
        <time>2022-07-05T16:03:29Z</time>
      </trkpt>
      <trkpt lat="42.19482" lon="-0.51891047">
        <time>2022-07-05T16:03:31Z</time>
      </trkpt>
      <trkpt lat="42.19478" lon="-0.51884586">
        <time>2022-07-05T16:03:33Z</time>
      </trkpt>
      <trkpt lat="42.19474" lon="-0.5187812">
        <time>2022-07-05T16:03:35Z</time>
      </trkpt>
      <trkpt lat="42.194702" lon="-0.5187175">
        <time>2022-07-05T16:03:37Z</time>
      </trkpt>
      <trkpt lat="42.19466" lon="-0.51865584">
        <time>2022-07-05T16:03:39Z</time>
      </trkpt>
      <trkpt lat="42.194622" lon="-0.5185962">
        <time>2022-07-05T16:03:41Z</time>
      </trkpt>
      <trkpt lat="42.194584" lon="-0.51853454">
        <time>2022-07-05T16:03:43Z</time>
      </trkpt>
      <trkpt lat="42.194546" lon="-0.5184732">
        <time>2022-07-05T16:03:45Z</time>
      </trkpt>
      <trkpt lat="42.194508" lon="-0.5184122">
        <time>2022-07-05T16:03:47Z</time>
      </trkpt>
      <trkpt lat="42.19447" lon="-0.5183512">
        <time>2022-07-05T16:03:49Z</time>
      </trkpt>
      <trkpt lat="42.19443" lon="-0.51828957">
        <time>2022-07-05T16:03:51Z</time>
      </trkpt>
      <trkpt lat="42.194397" lon="-0.5182302">
        <time>2022-07-05T16:03:53Z</time>
      </trkpt>
      <trkpt lat="42.194355" lon="-0.5181669">
        <time>2022-07-05T16:03:55Z</time>
      </trkpt>
      <trkpt lat="42.19432" lon="-0.51810455">
        <time>2022-07-05T16:03:57Z</time>
      </trkpt>
      <trkpt lat="42.19428" lon="-0.5180412">
        <time>2022-07-05T16:03:59Z</time>
      </trkpt>
      <trkpt lat="42.19424" lon="-0.51797754">
        <time>2022-07-05T16:04:01Z</time>
      </trkpt>
      <trkpt lat="42.194202" lon="-0.51791424">
        <time>2022-07-05T16:04:03Z</time>
      </trkpt>
      <trkpt lat="42.19416" lon="-0.51785225">
        <time>2022-07-05T16:04:05Z</time>
      </trkpt>
      <trkpt lat="42.194122" lon="-0.51779026">
        <time>2022-07-05T16:04:07Z</time>
      </trkpt>
      <trkpt lat="42.194084" lon="-0.51772755">
        <time>2022-07-05T16:04:09Z</time>
      </trkpt>
      <trkpt lat="42.194046" lon="-0.51766455">
        <time>2022-07-05T16:04:11Z</time>
      </trkpt>
      <trkpt lat="42.194008" lon="-0.5175999">
        <time>2022-07-05T16:04:13Z</time>
      </trkpt>
      <trkpt lat="42.19397" lon="-0.5175349">
        <time>2022-07-05T16:04:15Z</time>
      </trkpt>
      <trkpt lat="42.19393" lon="-0.51747024">
        <time>2022-07-05T16:04:17Z</time>
      </trkpt>
      <trkpt lat="42.193893" lon="-0.5174079">
        <time>2022-07-05T16:04:19Z</time>
      </trkpt>
      <trkpt lat="42.193855" lon="-0.51734656">
        <time>2022-07-05T16:04:21Z</time>
      </trkpt>
      <trkpt lat="42.193813" lon="-0.5172826">
        <time>2022-07-05T16:04:23Z</time>
      </trkpt>
      <trkpt lat="42.193775" lon="-0.5172196">
        <time>2022-07-05T16:04:25Z</time>
      </trkpt>
      <trkpt lat="42.193737" lon="-0.51715624">
        <time>2022-07-05T16:04:27Z</time>
      </trkpt>
      <trkpt lat="42.193703" lon="-0.51709294">
        <time>2022-07-05T16:04:29Z</time>
      </trkpt>
      <trkpt lat="42.193665" lon="-0.5170326">
        <time>2022-07-05T16:04:31Z</time>
      </trkpt>
      <trkpt lat="42.193626" lon="-0.51697224">
        <time>2022-07-05T16:04:33Z</time>
      </trkpt>
      <trkpt lat="42.193584" lon="-0.51690894">
        <time>2022-07-05T16:04:35Z</time>
      </trkpt>
      <trkpt lat="42.193546" lon="-0.5168426">
        <time>2022-07-05T16:04:37Z</time>
      </trkpt>
      <trkpt lat="42.19351" lon="-0.5167786">
        <time>2022-07-05T16:04:39Z</time>
      </trkpt>
      <trkpt lat="42.19347" lon="-0.516714">
        <time>2022-07-05T16:04:41Z</time>
      </trkpt>
      <trkpt lat="42.193428" lon="-0.5166493">
        <time>2022-07-05T16:04:43Z</time>
      </trkpt>
      <trkpt lat="42.19339" lon="-0.5165863">
        <time>2022-07-05T16:04:45Z</time>
      </trkpt>
      <trkpt lat="42.193348" lon="-0.51652163">
        <time>2022-07-05T16:04:47Z</time>
      </trkpt>
      <trkpt lat="42.19331" lon="-0.5164573">
        <time>2022-07-05T16:04:49Z</time>
      </trkpt>
      <trkpt lat="42.193268" lon="-0.516395">
        <time>2022-07-05T16:04:51Z</time>
      </trkpt>
      <trkpt lat="42.19323" lon="-0.5163343">
        <time>2022-07-05T16:04:53Z</time>
      </trkpt>
      <trkpt lat="42.193188" lon="-0.516271">
        <time>2022-07-05T16:04:55Z</time>
      </trkpt>
      <trkpt lat="42.19315" lon="-0.516207">
        <time>2022-07-05T16:04:57Z</time>
      </trkpt>
      <trkpt lat="42.19311" lon="-0.51614195">
        <time>2022-07-05T16:04:59Z</time>
      </trkpt>
      <trkpt lat="42.193073" lon="-0.5160753">
        <time>2022-07-05T16:05:01Z</time>
      </trkpt>
      <trkpt lat="42.193027" lon="-0.515999">
        <time>2022-07-05T16:05:04Z</time>
      </trkpt>
      <trkpt lat="42.19298" lon="-0.51592267">
        <time>2022-07-05T16:05:06Z</time>
      </trkpt>
      <trkpt lat="42.19294" lon="-0.51585335">
        <time>2022-07-05T16:05:08Z</time>
      </trkpt>
      <trkpt lat="42.192898" lon="-0.515788">
        <time>2022-07-05T16:05:10Z</time>
      </trkpt>
      <trkpt lat="42.19286" lon="-0.51572365">
        <time>2022-07-05T16:05:12Z</time>
      </trkpt>
      <trkpt lat="42.19282" lon="-0.515661">
        <time>2022-07-05T16:05:14Z</time>
      </trkpt>
      <trkpt lat="42.192783" lon="-0.515597">
        <time>2022-07-05T16:05:16Z</time>
      </trkpt>
      <trkpt lat="42.192745" lon="-0.51553303">
        <time>2022-07-05T16:05:18Z</time>
      </trkpt>
      <trkpt lat="42.192703" lon="-0.515469">
        <time>2022-07-05T16:05:20Z</time>
      </trkpt>
      <trkpt lat="42.192665" lon="-0.5154037">
        <time>2022-07-05T16:05:22Z</time>
      </trkpt>
      <trkpt lat="42.192627" lon="-0.515342">
        <time>2022-07-05T16:05:24Z</time>
      </trkpt>
      <trkpt lat="42.19259" lon="-0.5152787">
        <time>2022-07-05T16:05:26Z</time>
      </trkpt>
      <trkpt lat="42.19253" lon="-0.51518536">
        <time>2022-07-05T16:05:29Z</time>
      </trkpt>
      <trkpt lat="42.192493" lon="-0.51512504">
        <time>2022-07-05T16:05:31Z</time>
      </trkpt>
      <trkpt lat="42.192455" lon="-0.5150627">
        <time>2022-07-05T16:05:33Z</time>
      </trkpt>
      <trkpt lat="42.192417" lon="-0.5149994">
        <time>2022-07-05T16:05:35Z</time>
      </trkpt>
      <trkpt lat="42.19238" lon="-0.51493734">
        <time>2022-07-05T16:05:37Z</time>
      </trkpt>
      <trkpt lat="42.192345" lon="-0.51487607">
        <time>2022-07-05T16:05:39Z</time>
      </trkpt>
      <trkpt lat="42.192307" lon="-0.5148157">
        <time>2022-07-05T16:05:41Z</time>
      </trkpt>
      <trkpt lat="42.19227" lon="-0.5147557">
        <time>2022-07-05T16:05:43Z</time>
      </trkpt>
      <trkpt lat="42.19223" lon="-0.51469404">
        <time>2022-07-05T16:05:45Z</time>
      </trkpt>
      <trkpt lat="42.192196" lon="-0.51463604">
        <time>2022-07-05T16:05:47Z</time>
      </trkpt>
      <trkpt lat="42.19216" lon="-0.51458305">
        <time>2022-07-05T16:05:49Z</time>
      </trkpt>
      <trkpt lat="42.19213" lon="-0.51453304">
        <time>2022-07-05T16:05:51Z</time>
      </trkpt>
      <trkpt lat="42.192085" lon="-0.5144594">
        <time>2022-07-05T16:05:54Z</time>
      </trkpt>
      <trkpt lat="42.19204" lon="-0.5143864">
        <time>2022-07-05T16:05:57Z</time>
      </trkpt>
      <trkpt lat="42.191994" lon="-0.51431376">
        <time>2022-07-05T16:06:00Z</time>
      </trkpt>
      <trkpt lat="42.191948" lon="-0.51424176">
        <time>2022-07-05T16:06:03Z</time>
      </trkpt>
      <trkpt lat="42.191917" lon="-0.5141894">
        <time>2022-07-05T16:06:05Z</time>
      </trkpt>
      <trkpt lat="42.191868" lon="-0.51411104">
        <time>2022-07-05T16:06:08Z</time>
      </trkpt>
      <trkpt lat="42.191837" lon="-0.5140597">
        <time>2022-07-05T16:06:10Z</time>
      </trkpt>
      <trkpt lat="42.191788" lon="-0.5139811">
        <time>2022-07-05T16:06:13Z</time>
      </trkpt>
      <trkpt lat="42.191753" lon="-0.51392776">
        <time>2022-07-05T16:06:15Z</time>
      </trkpt>
      <trkpt lat="42.19172" lon="-0.5138711">
        <time>2022-07-05T16:06:17Z</time>
      </trkpt>
      <trkpt lat="42.191685" lon="-0.5138171">
        <time>2022-07-05T16:06:19Z</time>
      </trkpt>
      <trkpt lat="42.19165" lon="-0.51376176">
        <time>2022-07-05T16:06:21Z</time>
      </trkpt>
      <trkpt lat="42.191616" lon="-0.51370573">
        <time>2022-07-05T16:06:23Z</time>
      </trkpt>
      <trkpt lat="42.191578" lon="-0.5136494">
        <time>2022-07-05T16:06:25Z</time>
      </trkpt>
      <trkpt lat="42.19154" lon="-0.5135924">
        <time>2022-07-05T16:06:27Z</time>
      </trkpt>
      <trkpt lat="42.191505" lon="-0.51353645">
        <time>2022-07-05T16:06:29Z</time>
      </trkpt>
      <trkpt lat="42.191475" lon="-0.51348144">
        <time>2022-07-05T16:06:31Z</time>
      </trkpt>
      <trkpt lat="42.19144" lon="-0.51342446">
        <time>2022-07-05T16:06:33Z</time>
      </trkpt>
      <trkpt lat="42.191402" lon="-0.51336545">
        <time>2022-07-05T16:06:35Z</time>
      </trkpt>
      <trkpt lat="42.19137" lon="-0.5133081">
        <time>2022-07-05T16:06:37Z</time>
      </trkpt>
      <trkpt lat="42.19133" lon="-0.5132514">
        <time>2022-07-05T16:06:39Z</time>
      </trkpt>
      <trkpt lat="42.191296" lon="-0.5131988">
        <time>2022-07-05T16:06:41Z</time>
      </trkpt>
      <trkpt lat="42.19126" lon="-0.5131421">
        <time>2022-07-05T16:06:43Z</time>
      </trkpt>
      <trkpt lat="42.191208" lon="-0.51305914">
        <time>2022-07-05T16:06:46Z</time>
      </trkpt>
      <trkpt lat="42.191154" lon="-0.5129758">
        <time>2022-07-05T16:06:49Z</time>
      </trkpt>
      <trkpt lat="42.191116" lon="-0.5129148">
        <time>2022-07-05T16:06:51Z</time>
      </trkpt>
      <trkpt lat="42.191082" lon="-0.51285213">
        <time>2022-07-05T16:06:53Z</time>
      </trkpt>
      <trkpt lat="42.191044" lon="-0.51278746">
        <time>2022-07-05T16:06:55Z</time>
      </trkpt>
      <trkpt lat="42.191" lon="-0.51272017">
        <time>2022-07-05T16:06:57Z</time>
      </trkpt>
      <trkpt lat="42.19096" lon="-0.51265115">
        <time>2022-07-05T16:06:59Z</time>
      </trkpt>
      <trkpt lat="42.190914" lon="-0.51258147">
        <time>2022-07-05T16:07:01Z</time>
      </trkpt>
      <trkpt lat="42.19087" lon="-0.51250947">
        <time>2022-07-05T16:07:03Z</time>
      </trkpt>
      <trkpt lat="42.190823" lon="-0.51243514">
        <time>2022-07-05T16:07:05Z</time>
      </trkpt>
      <trkpt lat="42.19078" lon="-0.5123608">
        <time>2022-07-05T16:07:07Z</time>
      </trkpt>
      <trkpt lat="42.19073" lon="-0.5122852">
        <time>2022-07-05T16:07:09Z</time>
      </trkpt>
      <trkpt lat="42.190685" lon="-0.5122078">
        <time>2022-07-05T16:07:11Z</time>
      </trkpt>
      <trkpt lat="42.190636" lon="-0.5121275">
        <time>2022-07-05T16:07:13Z</time>
      </trkpt>
      <trkpt lat="42.190582" lon="-0.51204515">
        <time>2022-07-05T16:07:15Z</time>
      </trkpt>
      <trkpt lat="42.19053" lon="-0.51195586">
        <time>2022-07-05T16:07:17Z</time>
      </trkpt>
      <trkpt lat="42.190475" lon="-0.51186717">
        <time>2022-07-05T16:07:19Z</time>
      </trkpt>
      <trkpt lat="42.190422" lon="-0.5117828">
        <time>2022-07-05T16:07:21Z</time>
      </trkpt>
      <trkpt lat="42.190365" lon="-0.51168686">
        <time>2022-07-05T16:07:23Z</time>
      </trkpt>
      <trkpt lat="42.190308" lon="-0.5115952">
        <time>2022-07-05T16:07:25Z</time>
      </trkpt>
      <trkpt lat="42.19025" lon="-0.51150155">
        <time>2022-07-05T16:07:27Z</time>
      </trkpt>
      <trkpt lat="42.19019" lon="-0.5114049">
        <time>2022-07-05T16:07:29Z</time>
      </trkpt>
      <trkpt lat="42.19016" lon="-0.51135254">
        <time>2022-07-05T16:07:30Z</time>
      </trkpt>
      <trkpt lat="42.190098" lon="-0.5112489">
        <time>2022-07-05T16:07:32Z</time>
      </trkpt>
      <trkpt lat="42.190037" lon="-0.51114786">
        <time>2022-07-05T16:07:34Z</time>
      </trkpt>
      <trkpt lat="42.190006" lon="-0.5110996">
        <time>2022-07-05T16:07:35Z</time>
      </trkpt>
      <trkpt lat="42.189945" lon="-0.5110002">
        <time>2022-07-05T16:07:37Z</time>
      </trkpt>
      <trkpt lat="42.18991" lon="-0.5109462">
        <time>2022-07-05T16:07:38Z</time>
      </trkpt>
      <trkpt lat="42.189877" lon="-0.51089257">
        <time>2022-07-05T16:07:39Z</time>
      </trkpt>
      <trkpt lat="42.18981" lon="-0.5107902">
        <time>2022-07-05T16:07:41Z</time>
      </trkpt>
      <trkpt lat="42.189747" lon="-0.51068056">
        <time>2022-07-05T16:07:43Z</time>
      </trkpt>
      <trkpt lat="42.189713" lon="-0.5106279">
        <time>2022-07-05T16:07:44Z</time>
      </trkpt>
      <trkpt lat="42.18968" lon="-0.51057523">
        <time>2022-07-05T16:07:45Z</time>
      </trkpt>
      <trkpt lat="42.189644" lon="-0.5105216">
        <time>2022-07-05T16:07:46Z</time>
      </trkpt>
      <trkpt lat="42.18957" lon="-0.5104096">
        <time>2022-07-05T16:07:48Z</time>
      </trkpt>
      <trkpt lat="42.189537" lon="-0.51035124">
        <time>2022-07-05T16:07:49Z</time>
      </trkpt>
      <trkpt lat="42.189503" lon="-0.5102946">
        <time>2022-07-05T16:07:50Z</time>
      </trkpt>
      <trkpt lat="42.18947" lon="-0.51023895">
        <time>2022-07-05T16:07:51Z</time>
      </trkpt>
      <trkpt lat="42.189434" lon="-0.51018596">
        <time>2022-07-05T16:07:52Z</time>
      </trkpt>
      <trkpt lat="42.1894" lon="-0.5101303">
        <time>2022-07-05T16:07:53Z</time>
      </trkpt>
      <trkpt lat="42.189365" lon="-0.5100736">
        <time>2022-07-05T16:07:54Z</time>
      </trkpt>
      <trkpt lat="42.18933" lon="-0.51001596">
        <time>2022-07-05T16:07:55Z</time>
      </trkpt>
      <trkpt lat="42.189293" lon="-0.5099583">
        <time>2022-07-05T16:07:56Z</time>
      </trkpt>
      <trkpt lat="42.18926" lon="-0.5099">
        <time>2022-07-05T16:07:57Z</time>
      </trkpt>
      <trkpt lat="42.189224" lon="-0.50984097">
        <time>2022-07-05T16:07:58Z</time>
      </trkpt>
      <trkpt lat="42.189186" lon="-0.50978166">
        <time>2022-07-05T16:07:59Z</time>
      </trkpt>
      <trkpt lat="42.189117" lon="-0.50966364">
        <time>2022-07-05T16:08:01Z</time>
      </trkpt>
      <trkpt lat="42.18908" lon="-0.5096003">
        <time>2022-07-05T16:08:02Z</time>
      </trkpt>
      <trkpt lat="42.18904" lon="-0.509537">
        <time>2022-07-05T16:08:03Z</time>
      </trkpt>
      <trkpt lat="42.189003" lon="-0.509475">
        <time>2022-07-05T16:08:04Z</time>
      </trkpt>
      <trkpt lat="42.18897" lon="-0.5094173">
        <time>2022-07-05T16:08:05Z</time>
      </trkpt>
      <trkpt lat="42.188934" lon="-0.509359">
        <time>2022-07-05T16:08:06Z</time>
      </trkpt>
      <trkpt lat="42.188896" lon="-0.50930166">
        <time>2022-07-05T16:08:07Z</time>
      </trkpt>
      <trkpt lat="42.18886" lon="-0.50924265">
        <time>2022-07-05T16:08:08Z</time>
      </trkpt>
      <trkpt lat="42.188824" lon="-0.50918263">
        <time>2022-07-05T16:08:09Z</time>
      </trkpt>
      <trkpt lat="42.18879" lon="-0.509123">
        <time>2022-07-05T16:08:10Z</time>
      </trkpt>
      <trkpt lat="42.18875" lon="-0.50906366">
        <time>2022-07-05T16:08:11Z</time>
      </trkpt>
      <trkpt lat="42.188717" lon="-0.50900435">
        <time>2022-07-05T16:08:12Z</time>
      </trkpt>
      <trkpt lat="42.18868" lon="-0.50894636">
        <time>2022-07-05T16:08:13Z</time>
      </trkpt>
      <trkpt lat="42.188644" lon="-0.508889">
        <time>2022-07-05T16:08:14Z</time>
      </trkpt>
      <trkpt lat="42.18861" lon="-0.5088327">
        <time>2022-07-05T16:08:15Z</time>
      </trkpt>
      <trkpt lat="42.188576" lon="-0.5087777">
        <time>2022-07-05T16:08:16Z</time>
      </trkpt>
      <trkpt lat="42.18854" lon="-0.50872403">
        <time>2022-07-05T16:08:17Z</time>
      </trkpt>
      <trkpt lat="42.18851" lon="-0.5086707">
        <time>2022-07-05T16:08:18Z</time>
      </trkpt>
      <trkpt lat="42.188446" lon="-0.50856704">
        <time>2022-07-05T16:08:20Z</time>
      </trkpt>
      <trkpt lat="42.18839" lon="-0.50846905">
        <time>2022-07-05T16:08:22Z</time>
      </trkpt>
      <trkpt lat="42.18833" lon="-0.5083807">
        <time>2022-07-05T16:08:24Z</time>
      </trkpt>
      <trkpt lat="42.188282" lon="-0.50830203">
        <time>2022-07-05T16:08:26Z</time>
      </trkpt>
      <trkpt lat="42.188236" lon="-0.50822574">
        <time>2022-07-05T16:08:28Z</time>
      </trkpt>
      <trkpt lat="42.188194" lon="-0.50816035">
        <time>2022-07-05T16:08:30Z</time>
      </trkpt>
      <trkpt lat="42.188156" lon="-0.5080944">
        <time>2022-07-05T16:08:32Z</time>
      </trkpt>
      <trkpt lat="42.188118" lon="-0.5080337">
        <time>2022-07-05T16:08:34Z</time>
      </trkpt>
      <trkpt lat="42.188084" lon="-0.5079807">
        <time>2022-07-05T16:08:36Z</time>
      </trkpt>
      <trkpt lat="42.18805" lon="-0.5079374">
        <time>2022-07-05T16:08:39Z</time>
      </trkpt>
      <trkpt lat="42.188004" lon="-0.5078924">
        <time>2022-07-05T16:12:35Z</time>
      </trkpt>
      <trkpt lat="42.18796" lon="-0.50781673">
        <time>2022-07-05T16:12:38Z</time>
      </trkpt>
      <trkpt lat="42.187912" lon="-0.5077274">
        <time>2022-07-05T16:12:41Z</time>
      </trkpt>
      <trkpt lat="42.187874" lon="-0.5076627">
        <time>2022-07-05T16:12:43Z</time>
      </trkpt>
      <trkpt lat="42.187836" lon="-0.5075971">
        <time>2022-07-05T16:12:45Z</time>
      </trkpt>
      <trkpt lat="42.187794" lon="-0.5075287">
        <time>2022-07-05T16:12:47Z</time>
      </trkpt>
      <trkpt lat="42.187748" lon="-0.50745875">
        <time>2022-07-05T16:12:49Z</time>
      </trkpt>
      <trkpt lat="42.187706" lon="-0.5073844">
        <time>2022-07-05T16:12:51Z</time>
      </trkpt>
      <trkpt lat="42.18766" lon="-0.5073074">
        <time>2022-07-05T16:12:53Z</time>
      </trkpt>
      <trkpt lat="42.187614" lon="-0.5072341">
        <time>2022-07-05T16:12:55Z</time>
      </trkpt>
      <trkpt lat="42.18757" lon="-0.50716174">
        <time>2022-07-05T16:12:57Z</time>
      </trkpt>
      <trkpt lat="42.187523" lon="-0.5070838">
        <time>2022-07-05T16:12:59Z</time>
      </trkpt>
      <trkpt lat="42.187477" lon="-0.5070064">
        <time>2022-07-05T16:13:01Z</time>
      </trkpt>
      <trkpt lat="42.187428" lon="-0.50692743">
        <time>2022-07-05T16:13:03Z</time>
      </trkpt>
      <trkpt lat="42.187378" lon="-0.5068454">
        <time>2022-07-05T16:13:05Z</time>
      </trkpt>
      <trkpt lat="42.18733" lon="-0.5067644">
        <time>2022-07-05T16:13:07Z</time>
      </trkpt>
      <trkpt lat="42.187252" lon="-0.5066421">
        <time>2022-07-05T16:13:10Z</time>
      </trkpt>
      <trkpt lat="42.187206" lon="-0.50656044">
        <time>2022-07-05T16:13:12Z</time>
      </trkpt>
      <trkpt lat="42.187157" lon="-0.5064791">
        <time>2022-07-05T16:13:14Z</time>
      </trkpt>
      <trkpt lat="42.187107" lon="-0.5063974">
        <time>2022-07-05T16:13:16Z</time>
      </trkpt>
      <trkpt lat="42.187057" lon="-0.50631845">
        <time>2022-07-05T16:13:18Z</time>
      </trkpt>
      <trkpt lat="42.187008" lon="-0.5062381">
        <time>2022-07-05T16:13:20Z</time>
      </trkpt>
      <trkpt lat="42.18696" lon="-0.50615746">
        <time>2022-07-05T16:13:22Z</time>
      </trkpt>
      <trkpt lat="42.18691" lon="-0.5060745">
        <time>2022-07-05T16:13:24Z</time>
      </trkpt>
      <trkpt lat="42.186855" lon="-0.5059908">
        <time>2022-07-05T16:13:26Z</time>
      </trkpt>
      <trkpt lat="42.186806" lon="-0.5059075">
        <time>2022-07-05T16:13:28Z</time>
      </trkpt>
      <trkpt lat="42.186756" lon="-0.50582445">
        <time>2022-07-05T16:13:30Z</time>
      </trkpt>
      <trkpt lat="42.186703" lon="-0.50574344">
        <time>2022-07-05T16:13:32Z</time>
      </trkpt>
      <trkpt lat="42.186653" lon="-0.50566417">
        <time>2022-07-05T16:13:34Z</time>
      </trkpt>
      <trkpt lat="42.186604" lon="-0.50558513">
        <time>2022-07-05T16:13:36Z</time>
      </trkpt>
      <trkpt lat="42.186554" lon="-0.5055048">
        <time>2022-07-05T16:13:38Z</time>
      </trkpt>
      <trkpt lat="42.186504" lon="-0.5054225">
        <time>2022-07-05T16:13:40Z</time>
      </trkpt>
      <trkpt lat="42.18645" lon="-0.50533915">
        <time>2022-07-05T16:13:42Z</time>
      </trkpt>
      <trkpt lat="42.1864" lon="-0.5052558">
        <time>2022-07-05T16:13:44Z</time>
      </trkpt>
      <trkpt lat="42.186348" lon="-0.50517285">
        <time>2022-07-05T16:13:46Z</time>
      </trkpt>
      <trkpt lat="42.1863" lon="-0.5050925">
        <time>2022-07-05T16:13:48Z</time>
      </trkpt>
      <trkpt lat="42.18625" lon="-0.50501347">
        <time>2022-07-05T16:13:50Z</time>
      </trkpt>
      <trkpt lat="42.186203" lon="-0.5049332">
        <time>2022-07-05T16:13:52Z</time>
      </trkpt>
      <trkpt lat="42.186153" lon="-0.50485283">
        <time>2022-07-05T16:13:54Z</time>
      </trkpt>
      <trkpt lat="42.186104" lon="-0.5047715">
        <time>2022-07-05T16:13:56Z</time>
      </trkpt>
      <trkpt lat="42.186054" lon="-0.50468916">
        <time>2022-07-05T16:13:58Z</time>
      </trkpt>
      <trkpt lat="42.186005" lon="-0.50460684">
        <time>2022-07-05T16:14:00Z</time>
      </trkpt>
      <trkpt lat="42.185955" lon="-0.5045242">
        <time>2022-07-05T16:14:02Z</time>
      </trkpt>
      <trkpt lat="42.1859" lon="-0.5044438">
        <time>2022-07-05T16:14:04Z</time>
      </trkpt>
      <trkpt lat="42.185852" lon="-0.50436485">
        <time>2022-07-05T16:14:06Z</time>
      </trkpt>
      <trkpt lat="42.185806" lon="-0.5042872">
        <time>2022-07-05T16:14:08Z</time>
      </trkpt>
      <trkpt lat="42.185757" lon="-0.50421286">
        <time>2022-07-05T16:14:10Z</time>
      </trkpt>
      <trkpt lat="42.18569" lon="-0.5041062">
        <time>2022-07-05T16:14:13Z</time>
      </trkpt>
      <trkpt lat="42.185646" lon="-0.50403553">
        <time>2022-07-05T16:14:15Z</time>
      </trkpt>
      <trkpt lat="42.185604" lon="-0.50396687">
        <time>2022-07-05T16:14:17Z</time>
      </trkpt>
      <trkpt lat="42.185562" lon="-0.50389856">
        <time>2022-07-05T16:14:19Z</time>
      </trkpt>
      <trkpt lat="42.18552" lon="-0.5038302">
        <time>2022-07-05T16:14:21Z</time>
      </trkpt>
      <trkpt lat="42.185474" lon="-0.50376123">
        <time>2022-07-05T16:14:23Z</time>
      </trkpt>
      <trkpt lat="42.185432" lon="-0.50369287">
        <time>2022-07-05T16:14:25Z</time>
      </trkpt>
      <trkpt lat="42.18539" lon="-0.50362456">
        <time>2022-07-05T16:14:27Z</time>
      </trkpt>
      <trkpt lat="42.18535" lon="-0.50355226">
        <time>2022-07-05T16:14:29Z</time>
      </trkpt>
      <trkpt lat="42.185307" lon="-0.50348055">
        <time>2022-07-05T16:14:31Z</time>
      </trkpt>
      <trkpt lat="42.18526" lon="-0.5034059">
        <time>2022-07-05T16:14:33Z</time>
      </trkpt>
      <trkpt lat="42.185215" lon="-0.5033316">
        <time>2022-07-05T16:14:35Z</time>
      </trkpt>
      <trkpt lat="42.18517" lon="-0.50326055">
        <time>2022-07-05T16:14:37Z</time>
      </trkpt>
      <trkpt lat="42.185123" lon="-0.5031876">
        <time>2022-07-05T16:14:39Z</time>
      </trkpt>
      <trkpt lat="42.18508" lon="-0.5031159">
        <time>2022-07-05T16:14:41Z</time>
      </trkpt>
      <trkpt lat="42.18504" lon="-0.5030466">
        <time>2022-07-05T16:14:43Z</time>
      </trkpt>
      <trkpt lat="42.184998" lon="-0.50297725">
        <time>2022-07-05T16:14:45Z</time>
      </trkpt>
      <trkpt lat="42.18495" lon="-0.5029059">
        <time>2022-07-05T16:14:47Z</time>
      </trkpt>
      <trkpt lat="42.18491" lon="-0.5028323">
        <time>2022-07-05T16:14:49Z</time>
      </trkpt>
      <trkpt lat="42.184864" lon="-0.5027603">
        <time>2022-07-05T16:14:51Z</time>
      </trkpt>
      <trkpt lat="42.184814" lon="-0.5026886">
        <time>2022-07-05T16:14:53Z</time>
      </trkpt>
      <trkpt lat="42.184772" lon="-0.5026163">
        <time>2022-07-05T16:14:55Z</time>
      </trkpt>
      <trkpt lat="42.184727" lon="-0.50254494">
        <time>2022-07-05T16:14:57Z</time>
      </trkpt>
      <trkpt lat="42.18468" lon="-0.50247294">
        <time>2022-07-05T16:14:59Z</time>
      </trkpt>
      <trkpt lat="42.184635" lon="-0.5023996">
        <time>2022-07-05T16:15:01Z</time>
      </trkpt>
      <trkpt lat="42.18459" lon="-0.5023253">
        <time>2022-07-05T16:15:03Z</time>
      </trkpt>
      <trkpt lat="42.184547" lon="-0.502252">
        <time>2022-07-05T16:15:05Z</time>
      </trkpt>
      <trkpt lat="42.1845" lon="-0.50218064">
        <time>2022-07-05T16:15:07Z</time>
      </trkpt>
      <trkpt lat="42.18446" lon="-0.502109">
        <time>2022-07-05T16:15:09Z</time>
      </trkpt>
      <trkpt lat="42.184414" lon="-0.50203663">
        <time>2022-07-05T16:15:11Z</time>
      </trkpt>
      <trkpt lat="42.184372" lon="-0.501964">
        <time>2022-07-05T16:15:13Z</time>
      </trkpt>
      <trkpt lat="42.184303" lon="-0.50185734">
        <time>2022-07-05T16:15:16Z</time>
      </trkpt>
      <trkpt lat="42.184258" lon="-0.50178397">
        <time>2022-07-05T16:15:18Z</time>
      </trkpt>
      <trkpt lat="42.18421" lon="-0.501711">
        <time>2022-07-05T16:15:20Z</time>
      </trkpt>
      <trkpt lat="42.184166" lon="-0.501638">
        <time>2022-07-05T16:15:22Z</time>
      </trkpt>
      <trkpt lat="42.184124" lon="-0.5015647">
        <time>2022-07-05T16:15:24Z</time>
      </trkpt>
      <trkpt lat="42.184082" lon="-0.501494">
        <time>2022-07-05T16:15:26Z</time>
      </trkpt>
      <trkpt lat="42.184036" lon="-0.5014207">
        <time>2022-07-05T16:15:28Z</time>
      </trkpt>
      <trkpt lat="42.18399" lon="-0.5013483">
        <time>2022-07-05T16:15:30Z</time>
      </trkpt>
      <trkpt lat="42.18395" lon="-0.501276">
        <time>2022-07-05T16:15:32Z</time>
      </trkpt>
      <trkpt lat="42.183903" lon="-0.5012027">
        <time>2022-07-05T16:15:34Z</time>
      </trkpt>
      <trkpt lat="42.183857" lon="-0.50112766">
        <time>2022-07-05T16:15:36Z</time>
      </trkpt>
      <trkpt lat="42.18381" lon="-0.50105065">
        <time>2022-07-05T16:15:38Z</time>
      </trkpt>
      <trkpt lat="42.18376" lon="-0.50097036">
        <time>2022-07-05T16:15:40Z</time>
      </trkpt>
      <trkpt lat="42.183712" lon="-0.500889">
        <time>2022-07-05T16:15:42Z</time>
      </trkpt>
      <trkpt lat="42.183662" lon="-0.5008057">
        <time>2022-07-05T16:15:44Z</time>
      </trkpt>
      <trkpt lat="42.18361" lon="-0.50071967">
        <time>2022-07-05T16:15:46Z</time>
      </trkpt>
      <trkpt lat="42.18355" lon="-0.5006317">
        <time>2022-07-05T16:15:48Z</time>
      </trkpt>
      <trkpt lat="42.183495" lon="-0.5005414">
        <time>2022-07-05T16:15:50Z</time>
      </trkpt>
      <trkpt lat="42.18344" lon="-0.5004507">
        <time>2022-07-05T16:15:52Z</time>
      </trkpt>
      <trkpt lat="42.183384" lon="-0.500361">
        <time>2022-07-05T16:15:54Z</time>
      </trkpt>
      <trkpt lat="42.183327" lon="-0.50027007">
        <time>2022-07-05T16:15:56Z</time>
      </trkpt>
      <trkpt lat="42.18327" lon="-0.5001777">
        <time>2022-07-05T16:15:58Z</time>
      </trkpt>
      <trkpt lat="42.183212" lon="-0.50008506">
        <time>2022-07-05T16:16:00Z</time>
      </trkpt>
      <trkpt lat="42.183155" lon="-0.49999005">
        <time>2022-07-05T16:16:02Z</time>
      </trkpt>
      <trkpt lat="42.183094" lon="-0.4998934">
        <time>2022-07-05T16:16:04Z</time>
      </trkpt>
      <trkpt lat="42.183033" lon="-0.4997964">
        <time>2022-07-05T16:16:06Z</time>
      </trkpt>
      <trkpt lat="42.182972" lon="-0.4996954">
        <time>2022-07-05T16:16:08Z</time>
      </trkpt>
      <trkpt lat="42.182907" lon="-0.49959174">
        <time>2022-07-05T16:16:10Z</time>
      </trkpt>
      <trkpt lat="42.182846" lon="-0.49948907">
        <time>2022-07-05T16:16:12Z</time>
      </trkpt>
      <trkpt lat="42.18278" lon="-0.49938574">
        <time>2022-07-05T16:16:14Z</time>
      </trkpt>
      <trkpt lat="42.182716" lon="-0.49928173">
        <time>2022-07-05T16:16:16Z</time>
      </trkpt>
      <trkpt lat="42.18265" lon="-0.49917975">
        <time>2022-07-05T16:16:18Z</time>
      </trkpt>
      <trkpt lat="42.182617" lon="-0.4991291">
        <time>2022-07-05T16:16:19Z</time>
      </trkpt>
      <trkpt lat="42.18256" lon="-0.49902976">
        <time>2022-07-05T16:16:21Z</time>
      </trkpt>
      <trkpt lat="42.18253" lon="-0.49897808">
        <time>2022-07-05T16:16:22Z</time>
      </trkpt>
      <trkpt lat="42.182465" lon="-0.49887776">
        <time>2022-07-05T16:16:24Z</time>
      </trkpt>
      <trkpt lat="42.182434" lon="-0.49882877">
        <time>2022-07-05T16:16:25Z</time>
      </trkpt>
      <trkpt lat="42.182373" lon="-0.4987321">
        <time>2022-07-05T16:16:27Z</time>
      </trkpt>
      <trkpt lat="42.182343" lon="-0.4986841">
        <time>2022-07-05T16:16:28Z</time>
      </trkpt>
      <trkpt lat="42.182278" lon="-0.4985861">
        <time>2022-07-05T16:16:30Z</time>
      </trkpt>
      <trkpt lat="42.182247" lon="-0.49853745">
        <time>2022-07-05T16:16:31Z</time>
      </trkpt>
      <trkpt lat="42.182186" lon="-0.4984398">
        <time>2022-07-05T16:16:33Z</time>
      </trkpt>
      <trkpt lat="42.182156" lon="-0.4983901">
        <time>2022-07-05T16:16:34Z</time>
      </trkpt>
      <trkpt lat="42.182095" lon="-0.49829146">
        <time>2022-07-05T16:16:36Z</time>
      </trkpt>
      <trkpt lat="42.182037" lon="-0.4981948">
        <time>2022-07-05T16:16:38Z</time>
      </trkpt>
      <trkpt lat="42.18201" lon="-0.4981468">
        <time>2022-07-05T16:16:39Z</time>
      </trkpt>
      <trkpt lat="42.181953" lon="-0.4980528">
        <time>2022-07-05T16:16:41Z</time>
      </trkpt>
      <trkpt lat="42.181896" lon="-0.49796015">
        <time>2022-07-05T16:16:43Z</time>
      </trkpt>
      <trkpt lat="42.181843" lon="-0.49787015">
        <time>2022-07-05T16:16:45Z</time>
      </trkpt>
      <trkpt lat="42.181793" lon="-0.49778214">
        <time>2022-07-05T16:16:47Z</time>
      </trkpt>
      <trkpt lat="42.181744" lon="-0.49769482">
        <time>2022-07-05T16:16:49Z</time>
      </trkpt>
      <trkpt lat="42.18169" lon="-0.49760947">
        <time>2022-07-05T16:16:51Z</time>
      </trkpt>
      <trkpt lat="42.181637" lon="-0.49752516">
        <time>2022-07-05T16:16:53Z</time>
      </trkpt>
      <trkpt lat="42.181587" lon="-0.4974405">
        <time>2022-07-05T16:16:55Z</time>
      </trkpt>
      <trkpt lat="42.181534" lon="-0.4973565">
        <time>2022-07-05T16:16:57Z</time>
      </trkpt>
      <trkpt lat="42.181484" lon="-0.49727383">
        <time>2022-07-05T16:16:59Z</time>
      </trkpt>
      <trkpt lat="42.181435" lon="-0.49719182">
        <time>2022-07-05T16:17:01Z</time>
      </trkpt>
      <trkpt lat="42.181385" lon="-0.49711218">
        <time>2022-07-05T16:17:03Z</time>
      </trkpt>
      <trkpt lat="42.181335" lon="-0.49703518">
        <time>2022-07-05T16:17:05Z</time>
      </trkpt>
      <trkpt lat="42.18129" lon="-0.4969615">
        <time>2022-07-05T16:17:07Z</time>
      </trkpt>
      <trkpt lat="42.181248" lon="-0.49688852">
        <time>2022-07-05T16:17:09Z</time>
      </trkpt>
      <trkpt lat="42.181202" lon="-0.49681586">
        <time>2022-07-05T16:17:11Z</time>
      </trkpt>
      <trkpt lat="42.18116" lon="-0.49674284">
        <time>2022-07-05T16:17:13Z</time>
      </trkpt>
      <trkpt lat="42.181114" lon="-0.49666852">
        <time>2022-07-05T16:17:15Z</time>
      </trkpt>
      <trkpt lat="42.18107" lon="-0.49659252">
        <time>2022-07-05T16:17:17Z</time>
      </trkpt>
      <trkpt lat="42.181" lon="-0.4964752">
        <time>2022-07-05T16:17:20Z</time>
      </trkpt>
      <trkpt lat="42.180954" lon="-0.4963922">
        <time>2022-07-05T16:17:22Z</time>
      </trkpt>
      <trkpt lat="42.18091" lon="-0.49630585">
        <time>2022-07-05T16:17:24Z</time>
      </trkpt>
      <trkpt lat="42.180862" lon="-0.49621654">
        <time>2022-07-05T16:17:26Z</time>
      </trkpt>
      <trkpt lat="42.180813" lon="-0.49612552">
        <time>2022-07-05T16:17:28Z</time>
      </trkpt>
      <trkpt lat="42.180767" lon="-0.49603486">
        <time>2022-07-05T16:17:30Z</time>
      </trkpt>
      <trkpt lat="42.18072" lon="-0.49593887">
        <time>2022-07-05T16:17:32Z</time>
      </trkpt>
      <trkpt lat="42.18067" lon="-0.4958412">
        <time>2022-07-05T16:17:34Z</time>
      </trkpt>
      <trkpt lat="42.180626" lon="-0.4957422">
        <time>2022-07-05T16:17:36Z</time>
      </trkpt>
      <trkpt lat="42.18058" lon="-0.4956412">
        <time>2022-07-05T16:17:38Z</time>
      </trkpt>
      <trkpt lat="42.180534" lon="-0.49553987">
        <time>2022-07-05T16:17:40Z</time>
      </trkpt>
      <trkpt lat="42.180485" lon="-0.49543855">
        <time>2022-07-05T16:17:42Z</time>
      </trkpt>
      <trkpt lat="42.18044" lon="-0.4953329">
        <time>2022-07-05T16:17:44Z</time>
      </trkpt>
      <trkpt lat="42.18039" lon="-0.49522457">
        <time>2022-07-05T16:17:46Z</time>
      </trkpt>
      <trkpt lat="42.18034" lon="-0.49511257">
        <time>2022-07-05T16:17:48Z</time>
      </trkpt>
      <trkpt lat="42.180313" lon="-0.49505556">
        <time>2022-07-05T16:17:49Z</time>
      </trkpt>
      <trkpt lat="42.180264" lon="-0.4949399">
        <time>2022-07-05T16:17:51Z</time>
      </trkpt>
      <trkpt lat="42.18021" lon="-0.49481958">
        <time>2022-07-05T16:17:53Z</time>
      </trkpt>
      <trkpt lat="42.180183" lon="-0.4947589">
        <time>2022-07-05T16:17:54Z</time>
      </trkpt>
      <trkpt lat="42.180157" lon="-0.49469724">
        <time>2022-07-05T16:17:55Z</time>
      </trkpt>
      <trkpt lat="42.1801" lon="-0.49457225">
        <time>2022-07-05T16:17:57Z</time>
      </trkpt>
      <trkpt lat="42.180073" lon="-0.49450958">
        <time>2022-07-05T16:17:58Z</time>
      </trkpt>
      <trkpt lat="42.180042" lon="-0.49444592">
        <time>2022-07-05T16:17:59Z</time>
      </trkpt>
      <trkpt lat="42.180016" lon="-0.4943826">
        <time>2022-07-05T16:18:00Z</time>
      </trkpt>
      <trkpt lat="42.179985" lon="-0.49431893">
        <time>2022-07-05T16:18:01Z</time>
      </trkpt>
      <trkpt lat="42.17996" lon="-0.49425527">
        <time>2022-07-05T16:18:02Z</time>
      </trkpt>
      <trkpt lat="42.179928" lon="-0.49419096">
        <time>2022-07-05T16:18:03Z</time>
      </trkpt>
      <trkpt lat="42.1799" lon="-0.49412596">
        <time>2022-07-05T16:18:04Z</time>
      </trkpt>
      <trkpt lat="42.17987" lon="-0.4940606">
        <time>2022-07-05T16:18:05Z</time>
      </trkpt>
      <trkpt lat="42.17984" lon="-0.49399528">
        <time>2022-07-05T16:18:06Z</time>
      </trkpt>
      <trkpt lat="42.179813" lon="-0.4939293">
        <time>2022-07-05T16:18:07Z</time>
      </trkpt>
      <trkpt lat="42.179783" lon="-0.49386364">
        <time>2022-07-05T16:18:08Z</time>
      </trkpt>
      <trkpt lat="42.179752" lon="-0.4937983">
        <time>2022-07-05T16:18:09Z</time>
      </trkpt>
      <trkpt lat="42.179726" lon="-0.49373296">
        <time>2022-07-05T16:18:10Z</time>
      </trkpt>
      <trkpt lat="42.179695" lon="-0.49366763">
        <time>2022-07-05T16:18:11Z</time>
      </trkpt>
      <trkpt lat="42.17967" lon="-0.493601">
        <time>2022-07-05T16:18:12Z</time>
      </trkpt>
      <trkpt lat="42.179638" lon="-0.49353433">
        <time>2022-07-05T16:18:13Z</time>
      </trkpt>
      <trkpt lat="42.17961" lon="-0.493467">
        <time>2022-07-05T16:18:14Z</time>
      </trkpt>
      <trkpt lat="42.17958" lon="-0.49339998">
        <time>2022-07-05T16:18:15Z</time>
      </trkpt>
      <trkpt lat="42.17955" lon="-0.49333298">
        <time>2022-07-05T16:18:16Z</time>
      </trkpt>
      <trkpt lat="42.17952" lon="-0.49326634">
        <time>2022-07-05T16:18:17Z</time>
      </trkpt>
      <trkpt lat="42.17949" lon="-0.49319932">
        <time>2022-07-05T16:18:18Z</time>
      </trkpt>
      <trkpt lat="42.17946" lon="-0.493132">
        <time>2022-07-05T16:18:19Z</time>
      </trkpt>
      <trkpt lat="42.17943" lon="-0.49306434">
        <time>2022-07-05T16:18:20Z</time>
      </trkpt>
      <trkpt lat="42.179398" lon="-0.492996">
        <time>2022-07-05T16:18:21Z</time>
      </trkpt>
      <trkpt lat="42.179367" lon="-0.49292767">
        <time>2022-07-05T16:18:22Z</time>
      </trkpt>
      <trkpt lat="42.179337" lon="-0.49285936">
        <time>2022-07-05T16:18:23Z</time>
      </trkpt>
      <trkpt lat="42.179306" lon="-0.49279135">
        <time>2022-07-05T16:18:24Z</time>
      </trkpt>
      <trkpt lat="42.179245" lon="-0.492657">
        <time>2022-07-05T16:18:26Z</time>
      </trkpt>
      <trkpt lat="42.179214" lon="-0.49259">
        <time>2022-07-05T16:18:27Z</time>
      </trkpt>
      <trkpt lat="42.179184" lon="-0.49252236">
        <time>2022-07-05T16:18:28Z</time>
      </trkpt>
      <trkpt lat="42.179153" lon="-0.4924557">
        <time>2022-07-05T16:18:29Z</time>
      </trkpt>
      <trkpt lat="42.179123" lon="-0.4923887">
        <time>2022-07-05T16:18:30Z</time>
      </trkpt>
      <trkpt lat="42.179092" lon="-0.4923217">
        <time>2022-07-05T16:18:31Z</time>
      </trkpt>
      <trkpt lat="42.17906" lon="-0.4922537">
        <time>2022-07-05T16:18:32Z</time>
      </trkpt>
      <trkpt lat="42.17903" lon="-0.49218538">
        <time>2022-07-05T16:18:33Z</time>
      </trkpt>
      <trkpt lat="42.179" lon="-0.49211672">
        <time>2022-07-05T16:18:34Z</time>
      </trkpt>
      <trkpt lat="42.17897" lon="-0.4920477">
        <time>2022-07-05T16:18:35Z</time>
      </trkpt>
      <trkpt lat="42.17894" lon="-0.4919787">
        <time>2022-07-05T16:18:36Z</time>
      </trkpt>
      <trkpt lat="42.17891" lon="-0.49191004">
        <time>2022-07-05T16:18:37Z</time>
      </trkpt>
      <trkpt lat="42.178883" lon="-0.49184105">
        <time>2022-07-05T16:18:38Z</time>
      </trkpt>
      <trkpt lat="42.178852" lon="-0.4917714">
        <time>2022-07-05T16:18:39Z</time>
      </trkpt>
      <trkpt lat="42.17882" lon="-0.49170238">
        <time>2022-07-05T16:18:40Z</time>
      </trkpt>
      <trkpt lat="42.17879" lon="-0.49163306">
        <time>2022-07-05T16:18:41Z</time>
      </trkpt>
      <trkpt lat="42.17876" lon="-0.4915634">
        <time>2022-07-05T16:18:42Z</time>
      </trkpt>
      <trkpt lat="42.178726" lon="-0.49148875">
        <time>2022-07-05T16:18:43Z</time>
      </trkpt>
      <trkpt lat="42.178696" lon="-0.49142075">
        <time>2022-07-05T16:18:44Z</time>
      </trkpt>
      <trkpt lat="42.178665" lon="-0.49135175">
        <time>2022-07-05T16:18:45Z</time>
      </trkpt>
      <trkpt lat="42.178635" lon="-0.49128273">
        <time>2022-07-05T16:18:46Z</time>
      </trkpt>
      <trkpt lat="42.1786" lon="-0.4912134">
        <time>2022-07-05T16:18:47Z</time>
      </trkpt>
      <trkpt lat="42.17857" lon="-0.49114308">
        <time>2022-07-05T16:18:48Z</time>
      </trkpt>
      <trkpt lat="42.17854" lon="-0.49107242">
        <time>2022-07-05T16:18:49Z</time>
      </trkpt>
      <trkpt lat="42.178505" lon="-0.49100143">
        <time>2022-07-05T16:18:50Z</time>
      </trkpt>
      <trkpt lat="42.178474" lon="-0.49093142">
        <time>2022-07-05T16:18:51Z</time>
      </trkpt>
      <trkpt lat="42.17844" lon="-0.4908611">
        <time>2022-07-05T16:18:52Z</time>
      </trkpt>
      <trkpt lat="42.17841" lon="-0.49079108">
        <time>2022-07-05T16:18:53Z</time>
      </trkpt>
      <trkpt lat="42.17838" lon="-0.49072042">
        <time>2022-07-05T16:18:54Z</time>
      </trkpt>
      <trkpt lat="42.178345" lon="-0.4906501">
        <time>2022-07-05T16:18:55Z</time>
      </trkpt>
      <trkpt lat="42.178314" lon="-0.4905811">
        <time>2022-07-05T16:18:56Z</time>
      </trkpt>
      <trkpt lat="42.178284" lon="-0.4905131">
        <time>2022-07-05T16:18:57Z</time>
      </trkpt>
      <trkpt lat="42.178253" lon="-0.49044678">
        <time>2022-07-05T16:18:58Z</time>
      </trkpt>
      <trkpt lat="42.178223" lon="-0.49038112">
        <time>2022-07-05T16:18:59Z</time>
      </trkpt>
      <trkpt lat="42.178192" lon="-0.49031612">
        <time>2022-07-05T16:19:00Z</time>
      </trkpt>
      <trkpt lat="42.178165" lon="-0.49025077">
        <time>2022-07-05T16:19:01Z</time>
      </trkpt>
      <trkpt lat="42.178135" lon="-0.49018645">
        <time>2022-07-05T16:19:02Z</time>
      </trkpt>
      <trkpt lat="42.17811" lon="-0.49012178">
        <time>2022-07-05T16:19:03Z</time>
      </trkpt>
      <trkpt lat="42.178078" lon="-0.49005714">
        <time>2022-07-05T16:19:04Z</time>
      </trkpt>
      <trkpt lat="42.17805" lon="-0.48999313">
        <time>2022-07-05T16:19:05Z</time>
      </trkpt>
      <trkpt lat="42.178024" lon="-0.48993012">
        <time>2022-07-05T16:19:06Z</time>
      </trkpt>
      <trkpt lat="42.177998" lon="-0.48986712">
        <time>2022-07-05T16:19:07Z</time>
      </trkpt>
      <trkpt lat="42.17797" lon="-0.4898038">
        <time>2022-07-05T16:19:08Z</time>
      </trkpt>
      <trkpt lat="42.177944" lon="-0.48974213">
        <time>2022-07-05T16:19:09Z</time>
      </trkpt>
      <trkpt lat="42.177917" lon="-0.48968214">
        <time>2022-07-05T16:19:10Z</time>
      </trkpt>
      <trkpt lat="42.177864" lon="-0.48956314">
        <time>2022-07-05T16:19:12Z</time>
      </trkpt>
      <trkpt lat="42.177837" lon="-0.48950347">
        <time>2022-07-05T16:19:13Z</time>
      </trkpt>
      <trkpt lat="42.177814" lon="-0.48944414">
        <time>2022-07-05T16:19:14Z</time>
      </trkpt>
      <trkpt lat="42.17776" lon="-0.48932648">
        <time>2022-07-05T16:19:16Z</time>
      </trkpt>
      <trkpt lat="42.177734" lon="-0.48926783">
        <time>2022-07-05T16:19:17Z</time>
      </trkpt>
      <trkpt lat="42.177685" lon="-0.48914883">
        <time>2022-07-05T16:19:19Z</time>
      </trkpt>
      <trkpt lat="42.17763" lon="-0.48903283">
        <time>2022-07-05T16:19:21Z</time>
      </trkpt>
      <trkpt lat="42.177605" lon="-0.4889755">
        <time>2022-07-05T16:19:22Z</time>
      </trkpt>
      <trkpt lat="42.177555" lon="-0.48886016">
        <time>2022-07-05T16:19:24Z</time>
      </trkpt>
      <trkpt lat="42.17751" lon="-0.48874617">
        <time>2022-07-05T16:19:26Z</time>
      </trkpt>
      <trkpt lat="42.17746" lon="-0.48863485">
        <time>2022-07-05T16:19:28Z</time>
      </trkpt>
      <trkpt lat="42.17741" lon="-0.48852217">
        <time>2022-07-05T16:19:30Z</time>
      </trkpt>
      <trkpt lat="42.177383" lon="-0.48846552">
        <time>2022-07-05T16:19:31Z</time>
      </trkpt>
      <trkpt lat="42.177334" lon="-0.48835352">
        <time>2022-07-05T16:19:33Z</time>
      </trkpt>
      <trkpt lat="42.177307" lon="-0.48829752">
        <time>2022-07-05T16:19:34Z</time>
      </trkpt>
      <trkpt lat="42.177254" lon="-0.48818287">
        <time>2022-07-05T16:19:36Z</time>
      </trkpt>
      <trkpt lat="42.1772" lon="-0.48806652">
        <time>2022-07-05T16:19:38Z</time>
      </trkpt>
      <trkpt lat="42.17717" lon="-0.48800787">
        <time>2022-07-05T16:19:39Z</time>
      </trkpt>
      <trkpt lat="42.177143" lon="-0.48794922">
        <time>2022-07-05T16:19:40Z</time>
      </trkpt>
      <trkpt lat="42.17709" lon="-0.4878312">
        <time>2022-07-05T16:19:42Z</time>
      </trkpt>
      <trkpt lat="42.177063" lon="-0.4877712">
        <time>2022-07-05T16:19:43Z</time>
      </trkpt>
      <trkpt lat="42.177036" lon="-0.4877109">
        <time>2022-07-05T16:19:44Z</time>
      </trkpt>
      <trkpt lat="42.176983" lon="-0.48759088">
        <time>2022-07-05T16:19:46Z</time>
      </trkpt>
      <trkpt lat="42.176956" lon="-0.48753023">
        <time>2022-07-05T16:19:47Z</time>
      </trkpt>
      <trkpt lat="42.176933" lon="-0.48746988">
        <time>2022-07-05T16:19:48Z</time>
      </trkpt>
      <trkpt lat="42.176884" lon="-0.4873519">
        <time>2022-07-05T16:19:50Z</time>
      </trkpt>
      <trkpt lat="42.176857" lon="-0.48729488">
        <time>2022-07-05T16:19:51Z</time>
      </trkpt>
      <trkpt lat="42.176807" lon="-0.48718256">
        <time>2022-07-05T16:19:53Z</time>
      </trkpt>
      <trkpt lat="42.176785" lon="-0.4871279">
        <time>2022-07-05T16:19:54Z</time>
      </trkpt>
      <trkpt lat="42.176743" lon="-0.48702425">
        <time>2022-07-05T16:19:56Z</time>
      </trkpt>
      <trkpt lat="42.176697" lon="-0.48692492">
        <time>2022-07-05T16:19:58Z</time>
      </trkpt>
      <trkpt lat="42.176655" lon="-0.48682392">
        <time>2022-07-05T16:20:00Z</time>
      </trkpt>
      <trkpt lat="42.17661" lon="-0.4867206">
        <time>2022-07-05T16:20:02Z</time>
      </trkpt>
      <trkpt lat="42.176563" lon="-0.48661524">
        <time>2022-07-05T16:20:04Z</time>
      </trkpt>
      <trkpt lat="42.176517" lon="-0.48650724">
        <time>2022-07-05T16:20:06Z</time>
      </trkpt>
      <trkpt lat="42.176468" lon="-0.4863989">
        <time>2022-07-05T16:20:08Z</time>
      </trkpt>
      <trkpt lat="42.17644" lon="-0.48634493">
        <time>2022-07-05T16:20:09Z</time>
      </trkpt>
      <trkpt lat="42.17639" lon="-0.48623627">
        <time>2022-07-05T16:20:11Z</time>
      </trkpt>
      <trkpt lat="42.176342" lon="-0.4861266">
        <time>2022-07-05T16:20:13Z</time>
      </trkpt>
      <trkpt lat="42.176292" lon="-0.4860166">
        <time>2022-07-05T16:20:15Z</time>
      </trkpt>
      <trkpt lat="42.176266" lon="-0.48596126">
        <time>2022-07-05T16:20:16Z</time>
      </trkpt>
      <trkpt lat="42.176216" lon="-0.48584795">
        <time>2022-07-05T16:20:18Z</time>
      </trkpt>
      <trkpt lat="42.176167" lon="-0.48573327">
        <time>2022-07-05T16:20:20Z</time>
      </trkpt>
      <trkpt lat="42.176117" lon="-0.48561728">
        <time>2022-07-05T16:20:22Z</time>
      </trkpt>
      <trkpt lat="42.176064" lon="-0.48550063">
        <time>2022-07-05T16:20:24Z</time>
      </trkpt>
      <trkpt lat="42.176014" lon="-0.48538363">
        <time>2022-07-05T16:20:26Z</time>
      </trkpt>
      <trkpt lat="42.175987" lon="-0.48532596">
        <time>2022-07-05T16:20:27Z</time>
      </trkpt>
      <trkpt lat="42.175938" lon="-0.48521295">
        <time>2022-07-05T16:20:29Z</time>
      </trkpt>
      <trkpt lat="42.17591" lon="-0.48515764">
        <time>2022-07-05T16:20:30Z</time>
      </trkpt>
      <trkpt lat="42.17586" lon="-0.48504797">
        <time>2022-07-05T16:20:32Z</time>
      </trkpt>
      <trkpt lat="42.17581" lon="-0.48493996">
        <time>2022-07-05T16:20:34Z</time>
      </trkpt>
      <trkpt lat="42.175762" lon="-0.48483163">
        <time>2022-07-05T16:20:36Z</time>
      </trkpt>
      <trkpt lat="42.175713" lon="-0.48472">
        <time>2022-07-05T16:20:38Z</time>
      </trkpt>
      <trkpt lat="42.17569" lon="-0.48466298">
        <time>2022-07-05T16:20:39Z</time>
      </trkpt>
      <trkpt lat="42.175636" lon="-0.484547">
        <time>2022-07-05T16:20:41Z</time>
      </trkpt>
      <trkpt lat="42.175587" lon="-0.484435">
        <time>2022-07-05T16:20:43Z</time>
      </trkpt>
      <trkpt lat="42.175533" lon="-0.48431864">
        <time>2022-07-05T16:20:45Z</time>
      </trkpt>
      <trkpt lat="42.175484" lon="-0.48420265">
        <time>2022-07-05T16:20:47Z</time>
      </trkpt>
      <trkpt lat="42.175434" lon="-0.48409033">
        <time>2022-07-05T16:20:49Z</time>
      </trkpt>
      <trkpt lat="42.175385" lon="-0.48397967">
        <time>2022-07-05T16:20:51Z</time>
      </trkpt>
      <trkpt lat="42.17533" lon="-0.48387033">
        <time>2022-07-05T16:20:53Z</time>
      </trkpt>
      <trkpt lat="42.17531" lon="-0.48381433">
        <time>2022-07-05T16:20:54Z</time>
      </trkpt>
      <trkpt lat="42.17526" lon="-0.48370367">
        <time>2022-07-05T16:20:56Z</time>
      </trkpt>
      <trkpt lat="42.175213" lon="-0.48359734">
        <time>2022-07-05T16:20:58Z</time>
      </trkpt>
      <trkpt lat="42.175186" lon="-0.48354167">
        <time>2022-07-05T16:20:59Z</time>
      </trkpt>
      <trkpt lat="42.175137" lon="-0.48343167">
        <time>2022-07-05T16:21:01Z</time>
      </trkpt>
      <trkpt lat="42.175114" lon="-0.48337734">
        <time>2022-07-05T16:21:02Z</time>
      </trkpt>
      <trkpt lat="42.175064" lon="-0.4832727">
        <time>2022-07-05T16:21:04Z</time>
      </trkpt>
      <trkpt lat="42.17502" lon="-0.4831687">
        <time>2022-07-05T16:21:06Z</time>
      </trkpt>
      <trkpt lat="42.174973" lon="-0.48306537">
        <time>2022-07-05T16:21:08Z</time>
      </trkpt>
      <trkpt lat="42.174927" lon="-0.48296037">
        <time>2022-07-05T16:21:10Z</time>
      </trkpt>
      <trkpt lat="42.17488" lon="-0.4828577">
        <time>2022-07-05T16:21:12Z</time>
      </trkpt>
      <trkpt lat="42.174835" lon="-0.48275405">
        <time>2022-07-05T16:21:14Z</time>
      </trkpt>
      <trkpt lat="42.17479" lon="-0.48264903">
        <time>2022-07-05T16:21:16Z</time>
      </trkpt>
      <trkpt lat="42.174744" lon="-0.4825437">
        <time>2022-07-05T16:21:18Z</time>
      </trkpt>
      <trkpt lat="42.174698" lon="-0.48243704">
        <time>2022-07-05T16:21:20Z</time>
      </trkpt>
      <trkpt lat="42.17465" lon="-0.48232904">
        <time>2022-07-05T16:21:22Z</time>
      </trkpt>
      <trkpt lat="42.174625" lon="-0.48227438">
        <time>2022-07-05T16:21:23Z</time>
      </trkpt>
      <trkpt lat="42.174576" lon="-0.48216572">
        <time>2022-07-05T16:21:25Z</time>
      </trkpt>
      <trkpt lat="42.17453" lon="-0.48205808">
        <time>2022-07-05T16:21:27Z</time>
      </trkpt>
      <trkpt lat="42.17448" lon="-0.48194942">
        <time>2022-07-05T16:21:29Z</time>
      </trkpt>
      <trkpt lat="42.174435" lon="-0.48184142">
        <time>2022-07-05T16:21:31Z</time>
      </trkpt>
      <trkpt lat="42.17439" lon="-0.48173442">
        <time>2022-07-05T16:21:33Z</time>
      </trkpt>
      <trkpt lat="42.174343" lon="-0.48162842">
        <time>2022-07-05T16:21:35Z</time>
      </trkpt>
      <trkpt lat="42.174294" lon="-0.48152107">
        <time>2022-07-05T16:21:37Z</time>
      </trkpt>
      <trkpt lat="42.174244" lon="-0.48141274">
        <time>2022-07-05T16:21:39Z</time>
      </trkpt>
      <trkpt lat="42.17422" lon="-0.48135874">
        <time>2022-07-05T16:21:40Z</time>
      </trkpt>
      <trkpt lat="42.17417" lon="-0.48125175">
        <time>2022-07-05T16:21:42Z</time>
      </trkpt>
      <trkpt lat="42.17413" lon="-0.48114476">
        <time>2022-07-05T16:21:44Z</time>
      </trkpt>
      <trkpt lat="42.174084" lon="-0.48103675">
        <time>2022-07-05T16:21:46Z</time>
      </trkpt>
      <trkpt lat="42.174038" lon="-0.48092875">
        <time>2022-07-05T16:21:48Z</time>
      </trkpt>
      <trkpt lat="42.17399" lon="-0.4808201">
        <time>2022-07-05T16:21:50Z</time>
      </trkpt>
      <trkpt lat="42.17394" lon="-0.48071176">
        <time>2022-07-05T16:21:52Z</time>
      </trkpt>
      <trkpt lat="42.173885" lon="-0.48060244">
        <time>2022-07-05T16:21:54Z</time>
      </trkpt>
      <trkpt lat="42.173836" lon="-0.48049343">
        <time>2022-07-05T16:21:56Z</time>
      </trkpt>
      <trkpt lat="42.173786" lon="-0.48038176">
        <time>2022-07-05T16:21:58Z</time>
      </trkpt>
      <trkpt lat="42.173763" lon="-0.48032477">
        <time>2022-07-05T16:21:59Z</time>
      </trkpt>
      <trkpt lat="42.173714" lon="-0.48020878">
        <time>2022-07-05T16:22:01Z</time>
      </trkpt>
      <trkpt lat="42.17366" lon="-0.48009276">
        <time>2022-07-05T16:22:03Z</time>
      </trkpt>
      <trkpt lat="42.173634" lon="-0.48003376">
        <time>2022-07-05T16:22:04Z</time>
      </trkpt>
      <trkpt lat="42.173576" lon="-0.47991344">
        <time>2022-07-05T16:22:06Z</time>
      </trkpt>
      <trkpt lat="42.17355" lon="-0.47985077">
        <time>2022-07-05T16:22:07Z</time>
      </trkpt>
      <trkpt lat="42.17352" lon="-0.4797871">
        <time>2022-07-05T16:22:08Z</time>
      </trkpt>
      <trkpt lat="42.173492" lon="-0.4797228">
        <time>2022-07-05T16:22:09Z</time>
      </trkpt>
      <trkpt lat="42.173466" lon="-0.47965845">
        <time>2022-07-05T16:22:10Z</time>
      </trkpt>
      <trkpt lat="42.173435" lon="-0.4795928">
        <time>2022-07-05T16:22:11Z</time>
      </trkpt>
      <trkpt lat="42.173405" lon="-0.4795268">
        <time>2022-07-05T16:22:12Z</time>
      </trkpt>
      <trkpt lat="42.173374" lon="-0.4794608">
        <time>2022-07-05T16:22:13Z</time>
      </trkpt>
      <trkpt lat="42.173347" lon="-0.4793948">
        <time>2022-07-05T16:22:14Z</time>
      </trkpt>
      <trkpt lat="42.173317" lon="-0.47932747">
        <time>2022-07-05T16:22:15Z</time>
      </trkpt>
      <trkpt lat="42.173286" lon="-0.47925946">
        <time>2022-07-05T16:22:16Z</time>
      </trkpt>
      <trkpt lat="42.173256" lon="-0.47919515">
        <time>2022-07-05T16:22:17Z</time>
      </trkpt>
      <trkpt lat="42.173225" lon="-0.4791248">
        <time>2022-07-05T16:22:18Z</time>
      </trkpt>
      <trkpt lat="42.173195" lon="-0.47905582">
        <time>2022-07-05T16:22:19Z</time>
      </trkpt>
      <trkpt lat="42.173164" lon="-0.4789878">
        <time>2022-07-05T16:22:20Z</time>
      </trkpt>
      <trkpt lat="42.173138" lon="-0.47892514">
        <time>2022-07-05T16:22:21Z</time>
      </trkpt>
      <trkpt lat="42.173107" lon="-0.47886083">
        <time>2022-07-05T16:22:22Z</time>
      </trkpt>
      <trkpt lat="42.173077" lon="-0.4787948">
        <time>2022-07-05T16:22:23Z</time>
      </trkpt>
      <trkpt lat="42.173046" lon="-0.47872716">
        <time>2022-07-05T16:22:24Z</time>
      </trkpt>
      <trkpt lat="42.173016" lon="-0.4786585">
        <time>2022-07-05T16:22:25Z</time>
      </trkpt>
      <trkpt lat="42.172985" lon="-0.4785885">
        <time>2022-07-05T16:22:26Z</time>
      </trkpt>
      <trkpt lat="42.172955" lon="-0.47851717">
        <time>2022-07-05T16:22:27Z</time>
      </trkpt>
      <trkpt lat="42.17292" lon="-0.4784465">
        <time>2022-07-05T16:22:28Z</time>
      </trkpt>
      <trkpt lat="42.172886" lon="-0.47837085">
        <time>2022-07-05T16:22:29Z</time>
      </trkpt>
      <trkpt lat="42.172855" lon="-0.47830185">
        <time>2022-07-05T16:22:30Z</time>
      </trkpt>
      <trkpt lat="42.17282" lon="-0.47822684">
        <time>2022-07-05T16:22:31Z</time>
      </trkpt>
      <trkpt lat="42.17279" lon="-0.47815785">
        <time>2022-07-05T16:22:32Z</time>
      </trkpt>
      <trkpt lat="42.17276" lon="-0.4780872">
        <time>2022-07-05T16:22:33Z</time>
      </trkpt>
      <trkpt lat="42.17273" lon="-0.47801653">
        <time>2022-07-05T16:22:34Z</time>
      </trkpt>
      <trkpt lat="42.172695" lon="-0.47794554">
        <time>2022-07-05T16:22:35Z</time>
      </trkpt>
      <trkpt lat="42.172665" lon="-0.47787452">
        <time>2022-07-05T16:22:36Z</time>
      </trkpt>
      <trkpt lat="42.1726" lon="-0.4777332">
        <time>2022-07-05T16:22:38Z</time>
      </trkpt>
      <trkpt lat="42.17257" lon="-0.4776622">
        <time>2022-07-05T16:22:39Z</time>
      </trkpt>
      <trkpt lat="42.17254" lon="-0.4775902">
        <time>2022-07-05T16:22:40Z</time>
      </trkpt>
      <trkpt lat="42.17251" lon="-0.4775192">
        <time>2022-07-05T16:22:41Z</time>
      </trkpt>
      <trkpt lat="42.172478" lon="-0.4774482">
        <time>2022-07-05T16:22:42Z</time>
      </trkpt>
      <trkpt lat="42.172447" lon="-0.47737753">
        <time>2022-07-05T16:22:43Z</time>
      </trkpt>
      <trkpt lat="42.172417" lon="-0.4773079">
        <time>2022-07-05T16:22:44Z</time>
      </trkpt>
      <trkpt lat="42.172382" lon="-0.47723788">
        <time>2022-07-05T16:22:45Z</time>
      </trkpt>
      <trkpt lat="42.172356" lon="-0.47716856">
        <time>2022-07-05T16:22:46Z</time>
      </trkpt>
      <trkpt lat="42.17232" lon="-0.47709522">
        <time>2022-07-05T16:22:47Z</time>
      </trkpt>
      <trkpt lat="42.172295" lon="-0.4770239">
        <time>2022-07-05T16:22:48Z</time>
      </trkpt>
      <trkpt lat="42.172264" lon="-0.47695357">
        <time>2022-07-05T16:22:49Z</time>
      </trkpt>
      <trkpt lat="42.172237" lon="-0.4768859">
        <time>2022-07-05T16:22:50Z</time>
      </trkpt>
      <trkpt lat="42.172207" lon="-0.4768199">
        <time>2022-07-05T16:22:51Z</time>
      </trkpt>
      <trkpt lat="42.17218" lon="-0.47675624">
        <time>2022-07-05T16:22:52Z</time>
      </trkpt>
      <trkpt lat="42.17215" lon="-0.47669524">
        <time>2022-07-05T16:22:53Z</time>
      </trkpt>
      <trkpt lat="42.172123" lon="-0.47663558">
        <time>2022-07-05T16:22:54Z</time>
      </trkpt>
      <trkpt lat="42.172096" lon="-0.47657624">
        <time>2022-07-05T16:22:55Z</time>
      </trkpt>
      <trkpt lat="42.17207" lon="-0.47651726">
        <time>2022-07-05T16:22:56Z</time>
      </trkpt>
      <trkpt lat="42.17202" lon="-0.4764036">
        <time>2022-07-05T16:22:58Z</time>
      </trkpt>
      <trkpt lat="42.171967" lon="-0.47628993">
        <time>2022-07-05T16:23:00Z</time>
      </trkpt>
      <trkpt lat="42.171917" lon="-0.47617927">
        <time>2022-07-05T16:23:02Z</time>
      </trkpt>
      <trkpt lat="42.171867" lon="-0.47607195">
        <time>2022-07-05T16:23:04Z</time>
      </trkpt>
      <trkpt lat="42.171844" lon="-0.47601894">
        <time>2022-07-05T16:23:05Z</time>
      </trkpt>
      <trkpt lat="42.171795" lon="-0.47591594">
        <time>2022-07-05T16:23:07Z</time>
      </trkpt>
      <trkpt lat="42.171745" lon="-0.47581527">
        <time>2022-07-05T16:23:09Z</time>
      </trkpt>
      <trkpt lat="42.1717" lon="-0.47571427">
        <time>2022-07-05T16:23:11Z</time>
      </trkpt>
      <trkpt lat="42.171658" lon="-0.4756126">
        <time>2022-07-05T16:23:13Z</time>
      </trkpt>
      <trkpt lat="42.171616" lon="-0.4755116">
        <time>2022-07-05T16:23:15Z</time>
      </trkpt>
      <trkpt lat="42.171574" lon="-0.47541162">
        <time>2022-07-05T16:23:17Z</time>
      </trkpt>
      <trkpt lat="42.17153" lon="-0.47531328">
        <time>2022-07-05T16:23:19Z</time>
      </trkpt>
      <trkpt lat="42.17149" lon="-0.47521463">
        <time>2022-07-05T16:23:21Z</time>
      </trkpt>
      <trkpt lat="42.171448" lon="-0.47511798">
        <time>2022-07-05T16:23:23Z</time>
      </trkpt>
      <trkpt lat="42.171406" lon="-0.47502297">
        <time>2022-07-05T16:23:25Z</time>
      </trkpt>
      <trkpt lat="42.171364" lon="-0.47492963">
        <time>2022-07-05T16:23:27Z</time>
      </trkpt>
      <trkpt lat="42.17132" lon="-0.47483465">
        <time>2022-07-05T16:23:29Z</time>
      </trkpt>
      <trkpt lat="42.171276" lon="-0.47473663">
        <time>2022-07-05T16:23:31Z</time>
      </trkpt>
      <trkpt lat="42.17123" lon="-0.47463498">
        <time>2022-07-05T16:23:33Z</time>
      </trkpt>
      <trkpt lat="42.17118" lon="-0.47452897">
        <time>2022-07-05T16:23:35Z</time>
      </trkpt>
      <trkpt lat="42.17113" lon="-0.47442064">
        <time>2022-07-05T16:23:37Z</time>
      </trkpt>
      <trkpt lat="42.171104" lon="-0.47436565">
        <time>2022-07-05T16:23:38Z</time>
      </trkpt>
      <trkpt lat="42.17105" lon="-0.474251">
        <time>2022-07-05T16:23:40Z</time>
      </trkpt>
      <trkpt lat="42.171" lon="-0.47413665">
        <time>2022-07-05T16:23:42Z</time>
      </trkpt>
      <trkpt lat="42.170948" lon="-0.474023">
        <time>2022-07-05T16:23:44Z</time>
      </trkpt>
      <trkpt lat="42.1709" lon="-0.473908">
        <time>2022-07-05T16:23:46Z</time>
      </trkpt>
      <trkpt lat="42.170845" lon="-0.47379133">
        <time>2022-07-05T16:23:48Z</time>
      </trkpt>
      <trkpt lat="42.170795" lon="-0.47367433">
        <time>2022-07-05T16:23:50Z</time>
      </trkpt>
      <trkpt lat="42.17077" lon="-0.47361434">
        <time>2022-07-05T16:23:51Z</time>
      </trkpt>
      <trkpt lat="42.170715" lon="-0.473495">
        <time>2022-07-05T16:23:53Z</time>
      </trkpt>
      <trkpt lat="42.17069" lon="-0.47343534">
        <time>2022-07-05T16:23:54Z</time>
      </trkpt>
      <trkpt lat="42.170635" lon="-0.47331303">
        <time>2022-07-05T16:23:56Z</time>
      </trkpt>
      <trkpt lat="42.170605" lon="-0.47324568">
        <time>2022-07-05T16:23:57Z</time>
      </trkpt>
      <trkpt lat="42.170574" lon="-0.4731837">
        <time>2022-07-05T16:23:58Z</time>
      </trkpt>
      <trkpt lat="42.170547" lon="-0.4731207">
        <time>2022-07-05T16:23:59Z</time>
      </trkpt>
      <trkpt lat="42.17052" lon="-0.47305802">
        <time>2022-07-05T16:24:00Z</time>
      </trkpt>
      <trkpt lat="42.17049" lon="-0.4729947">
        <time>2022-07-05T16:24:01Z</time>
      </trkpt>
      <trkpt lat="42.17046" lon="-0.47293136">
        <time>2022-07-05T16:24:02Z</time>
      </trkpt>
      <trkpt lat="42.170433" lon="-0.47286737">
        <time>2022-07-05T16:24:03Z</time>
      </trkpt>
      <trkpt lat="42.170403" lon="-0.47280204">
        <time>2022-07-05T16:24:04Z</time>
      </trkpt>
      <trkpt lat="42.170372" lon="-0.47273538">
        <time>2022-07-05T16:24:05Z</time>
      </trkpt>
      <trkpt lat="42.17034" lon="-0.47266805">
        <time>2022-07-05T16:24:06Z</time>
      </trkpt>
      <trkpt lat="42.170315" lon="-0.4726004">
        <time>2022-07-05T16:24:07Z</time>
      </trkpt>
      <trkpt lat="42.170284" lon="-0.4725324">
        <time>2022-07-05T16:24:08Z</time>
      </trkpt>
      <trkpt lat="42.170254" lon="-0.4724654">
        <time>2022-07-05T16:24:09Z</time>
      </trkpt>
      <trkpt lat="42.170223" lon="-0.47239807">
        <time>2022-07-05T16:24:10Z</time>
      </trkpt>
      <trkpt lat="42.170193" lon="-0.47233072">
        <time>2022-07-05T16:24:11Z</time>
      </trkpt>
      <trkpt lat="42.170162" lon="-0.4722634">
        <time>2022-07-05T16:24:12Z</time>
      </trkpt>
      <trkpt lat="42.17013" lon="-0.47219375">
        <time>2022-07-05T16:24:13Z</time>
      </trkpt>
      <trkpt lat="42.1701" lon="-0.4721244">
        <time>2022-07-05T16:24:14Z</time>
      </trkpt>
      <trkpt lat="42.17007" lon="-0.47205442">
        <time>2022-07-05T16:24:15Z</time>
      </trkpt>
      <trkpt lat="42.17004" lon="-0.4719841">
        <time>2022-07-05T16:24:16Z</time>
      </trkpt>
      <trkpt lat="42.170006" lon="-0.47191274">
        <time>2022-07-05T16:24:17Z</time>
      </trkpt>
      <trkpt lat="42.169975" lon="-0.4718404">
        <time>2022-07-05T16:24:18Z</time>
      </trkpt>
      <trkpt lat="42.169945" lon="-0.4717684">
        <time>2022-07-05T16:24:19Z</time>
      </trkpt>
      <trkpt lat="42.16991" lon="-0.47169742">
        <time>2022-07-05T16:24:20Z</time>
      </trkpt>
      <trkpt lat="42.16988" lon="-0.47162676">
        <time>2022-07-05T16:24:21Z</time>
      </trkpt>
      <trkpt lat="42.16985" lon="-0.4715551">
        <time>2022-07-05T16:24:22Z</time>
      </trkpt>
      <trkpt lat="42.169815" lon="-0.47148278">
        <time>2022-07-05T16:24:23Z</time>
      </trkpt>
      <trkpt lat="42.169785" lon="-0.47141078">
        <time>2022-07-05T16:24:24Z</time>
      </trkpt>
      <trkpt lat="42.16975" lon="-0.4713391">
        <time>2022-07-05T16:24:25Z</time>
      </trkpt>
      <trkpt lat="42.16972" lon="-0.47126645">
        <time>2022-07-05T16:24:26Z</time>
      </trkpt>
      <trkpt lat="42.16969" lon="-0.4711938">
        <time>2022-07-05T16:24:27Z</time>
      </trkpt>
      <trkpt lat="42.169655" lon="-0.47112045">
        <time>2022-07-05T16:24:28Z</time>
      </trkpt>
      <trkpt lat="42.169624" lon="-0.47104746">
        <time>2022-07-05T16:24:29Z</time>
      </trkpt>
      <trkpt lat="42.16959" lon="-0.47097445">
        <time>2022-07-05T16:24:30Z</time>
      </trkpt>
      <trkpt lat="42.169556" lon="-0.47090146">
        <time>2022-07-05T16:24:31Z</time>
      </trkpt>
      <trkpt lat="42.16952" lon="-0.47082847">
        <time>2022-07-05T16:24:32Z</time>
      </trkpt>
      <trkpt lat="42.16949" lon="-0.47075447">
        <time>2022-07-05T16:24:33Z</time>
      </trkpt>
      <trkpt lat="42.169456" lon="-0.47068045">
        <time>2022-07-05T16:24:34Z</time>
      </trkpt>
      <trkpt lat="42.169422" lon="-0.47060713">
        <time>2022-07-05T16:24:35Z</time>
      </trkpt>
      <trkpt lat="42.169388" lon="-0.47053313">
        <time>2022-07-05T16:24:36Z</time>
      </trkpt>
      <trkpt lat="42.169357" lon="-0.47045812">
        <time>2022-07-05T16:24:37Z</time>
      </trkpt>
      <trkpt lat="42.169323" lon="-0.4703828">
        <time>2022-07-05T16:24:38Z</time>
      </trkpt>
      <trkpt lat="42.16929" lon="-0.47030148">
        <time>2022-07-05T16:24:39Z</time>
      </trkpt>
      <trkpt lat="42.169254" lon="-0.47022247">
        <time>2022-07-05T16:24:40Z</time>
      </trkpt>
      <trkpt lat="42.16922" lon="-0.47014946">
        <time>2022-07-05T16:24:41Z</time>
      </trkpt>
      <trkpt lat="42.16919" lon="-0.47007513">
        <time>2022-07-05T16:24:42Z</time>
      </trkpt>
      <trkpt lat="42.16916" lon="-0.47000015">
        <time>2022-07-05T16:24:43Z</time>
      </trkpt>
      <trkpt lat="42.169125" lon="-0.46992415">
        <time>2022-07-05T16:24:44Z</time>
      </trkpt>
      <trkpt lat="42.16909" lon="-0.4698478">
        <time>2022-07-05T16:24:45Z</time>
      </trkpt>
      <trkpt lat="42.169056" lon="-0.46977216">
        <time>2022-07-05T16:24:46Z</time>
      </trkpt>
      <trkpt lat="42.168987" lon="-0.46961814">
        <time>2022-07-05T16:24:48Z</time>
      </trkpt>
      <trkpt lat="42.168953" lon="-0.4695395">
        <time>2022-07-05T16:24:49Z</time>
      </trkpt>
      <trkpt lat="42.168915" lon="-0.46945983">
        <time>2022-07-05T16:24:50Z</time>
      </trkpt>
      <trkpt lat="42.16888" lon="-0.46937916">
        <time>2022-07-05T16:24:51Z</time>
      </trkpt>
      <trkpt lat="42.168846" lon="-0.4692985">
        <time>2022-07-05T16:24:52Z</time>
      </trkpt>
      <trkpt lat="42.16881" lon="-0.46922418">
        <time>2022-07-05T16:24:53Z</time>
      </trkpt>
      <trkpt lat="42.168774" lon="-0.46914452">
        <time>2022-07-05T16:24:54Z</time>
      </trkpt>
      <trkpt lat="42.168736" lon="-0.46906653">
        <time>2022-07-05T16:24:55Z</time>
      </trkpt>
      <trkpt lat="42.1687" lon="-0.46899018">
        <time>2022-07-05T16:24:56Z</time>
      </trkpt>
      <trkpt lat="42.168667" lon="-0.46891418">
        <time>2022-07-05T16:24:57Z</time>
      </trkpt>
      <trkpt lat="42.168633" lon="-0.46883887">
        <time>2022-07-05T16:24:58Z</time>
      </trkpt>
      <trkpt lat="42.1686" lon="-0.46876386">
        <time>2022-07-05T16:24:59Z</time>
      </trkpt>
      <trkpt lat="42.168564" lon="-0.46868953">
        <time>2022-07-05T16:25:00Z</time>
      </trkpt>
      <trkpt lat="42.16853" lon="-0.4686152">
        <time>2022-07-05T16:25:01Z</time>
      </trkpt>
      <trkpt lat="42.168495" lon="-0.46854186">
        <time>2022-07-05T16:25:02Z</time>
      </trkpt>
      <trkpt lat="42.168465" lon="-0.46847022">
        <time>2022-07-05T16:25:03Z</time>
      </trkpt>
      <trkpt lat="42.16843" lon="-0.46839854">
        <time>2022-07-05T16:25:04Z</time>
      </trkpt>
      <trkpt lat="42.1684" lon="-0.46832588">
        <time>2022-07-05T16:25:05Z</time>
      </trkpt>
      <trkpt lat="42.168365" lon="-0.46825388">
        <time>2022-07-05T16:25:06Z</time>
      </trkpt>
      <trkpt lat="42.168335" lon="-0.4681829">
        <time>2022-07-05T16:25:07Z</time>
      </trkpt>
      <trkpt lat="42.16831" lon="-0.46811122">
        <time>2022-07-05T16:25:08Z</time>
      </trkpt>
      <trkpt lat="42.168278" lon="-0.46804056">
        <time>2022-07-05T16:25:09Z</time>
      </trkpt>
      <trkpt lat="42.168247" lon="-0.46796924">
        <time>2022-07-05T16:25:10Z</time>
      </trkpt>
      <trkpt lat="42.168217" lon="-0.4678996">
        <time>2022-07-05T16:25:11Z</time>
      </trkpt>
      <trkpt lat="42.168186" lon="-0.46783093">
        <time>2022-07-05T16:25:12Z</time>
      </trkpt>
      <trkpt lat="42.16815" lon="-0.46776125">
        <time>2022-07-05T16:25:13Z</time>
      </trkpt>
      <trkpt lat="42.16812" lon="-0.4676926">
        <time>2022-07-05T16:25:14Z</time>
      </trkpt>
      <trkpt lat="42.16809" lon="-0.46762493">
        <time>2022-07-05T16:25:15Z</time>
      </trkpt>
      <trkpt lat="42.168064" lon="-0.46755895">
        <time>2022-07-05T16:25:16Z</time>
      </trkpt>
      <trkpt lat="42.168034" lon="-0.46749362">
        <time>2022-07-05T16:25:17Z</time>
      </trkpt>
      <trkpt lat="42.168007" lon="-0.46742928">
        <time>2022-07-05T16:25:18Z</time>
      </trkpt>
      <trkpt lat="42.16798" lon="-0.46736428">
        <time>2022-07-05T16:25:19Z</time>
      </trkpt>
      <trkpt lat="42.16795" lon="-0.46730062">
        <time>2022-07-05T16:25:20Z</time>
      </trkpt>
      <trkpt lat="42.167923" lon="-0.46723762">
        <time>2022-07-05T16:25:21Z</time>
      </trkpt>
      <trkpt lat="42.167896" lon="-0.46717563">
        <time>2022-07-05T16:25:22Z</time>
      </trkpt>
      <trkpt lat="42.167866" lon="-0.46711496">
        <time>2022-07-05T16:25:23Z</time>
      </trkpt>
      <trkpt lat="42.16784" lon="-0.46705464">
        <time>2022-07-05T16:25:24Z</time>
      </trkpt>
      <trkpt lat="42.167812" lon="-0.46699464">
        <time>2022-07-05T16:25:25Z</time>
      </trkpt>
      <trkpt lat="42.16779" lon="-0.46693596">
        <time>2022-07-05T16:25:26Z</time>
      </trkpt>
      <trkpt lat="42.167763" lon="-0.46687663">
        <time>2022-07-05T16:25:27Z</time>
      </trkpt>
      <trkpt lat="42.16771" lon="-0.4667583">
        <time>2022-07-05T16:25:29Z</time>
      </trkpt>
      <trkpt lat="42.167683" lon="-0.4666993">
        <time>2022-07-05T16:25:30Z</time>
      </trkpt>
      <trkpt lat="42.167633" lon="-0.466581">
        <time>2022-07-05T16:25:32Z</time>
      </trkpt>
      <trkpt lat="42.167606" lon="-0.4665223">
        <time>2022-07-05T16:25:33Z</time>
      </trkpt>
      <trkpt lat="42.167553" lon="-0.46640566">
        <time>2022-07-05T16:25:35Z</time>
      </trkpt>
      <trkpt lat="42.167526" lon="-0.46634766">
        <time>2022-07-05T16:25:36Z</time>
      </trkpt>
      <trkpt lat="42.167473" lon="-0.466232">
        <time>2022-07-05T16:25:38Z</time>
      </trkpt>
      <trkpt lat="42.167423" lon="-0.46611634">
        <time>2022-07-05T16:25:40Z</time>
      </trkpt>
      <trkpt lat="42.167374" lon="-0.46600068">
        <time>2022-07-05T16:25:42Z</time>
      </trkpt>
      <trkpt lat="42.16732" lon="-0.46588436">
        <time>2022-07-05T16:25:44Z</time>
      </trkpt>
      <trkpt lat="42.167297" lon="-0.46582636">
        <time>2022-07-05T16:25:45Z</time>
      </trkpt>
      <trkpt lat="42.167248" lon="-0.46571168">
        <time>2022-07-05T16:25:47Z</time>
      </trkpt>
      <trkpt lat="42.16717" lon="-0.46554303">
        <time>2022-07-05T16:25:50Z</time>
      </trkpt>
      <trkpt lat="42.167126" lon="-0.46542904">
        <time>2022-07-05T16:25:52Z</time>
      </trkpt>
      <trkpt lat="42.167072" lon="-0.4653127">
        <time>2022-07-05T16:25:54Z</time>
      </trkpt>
      <trkpt lat="42.167023" lon="-0.4651947">
        <time>2022-07-05T16:25:56Z</time>
      </trkpt>
      <trkpt lat="42.16697" lon="-0.46507737">
        <time>2022-07-05T16:25:58Z</time>
      </trkpt>
      <trkpt lat="42.166943" lon="-0.46501738">
        <time>2022-07-05T16:25:59Z</time>
      </trkpt>
      <trkpt lat="42.16689" lon="-0.46489838">
        <time>2022-07-05T16:26:01Z</time>
      </trkpt>
      <trkpt lat="42.16686" lon="-0.46483904">
        <time>2022-07-05T16:26:02Z</time>
      </trkpt>
      <trkpt lat="42.166832" lon="-0.46477872">
        <time>2022-07-05T16:26:03Z</time>
      </trkpt>
      <trkpt lat="42.166805" lon="-0.4647174">
        <time>2022-07-05T16:26:04Z</time>
      </trkpt>
      <trkpt lat="42.16678" lon="-0.46465537">
        <time>2022-07-05T16:26:05Z</time>
      </trkpt>
      <trkpt lat="42.16675" lon="-0.4645937">
        <time>2022-07-05T16:26:06Z</time>
      </trkpt>
      <trkpt lat="42.166725" lon="-0.46453238">
        <time>2022-07-05T16:26:07Z</time>
      </trkpt>
      <trkpt lat="42.16667" lon="-0.4644104">
        <time>2022-07-05T16:26:09Z</time>
      </trkpt>
      <trkpt lat="42.166645" lon="-0.46434906">
        <time>2022-07-05T16:26:10Z</time>
      </trkpt>
      <trkpt lat="42.16662" lon="-0.4642884">
        <time>2022-07-05T16:26:11Z</time>
      </trkpt>
      <trkpt lat="42.16659" lon="-0.46422708">
        <time>2022-07-05T16:26:12Z</time>
      </trkpt>
      <trkpt lat="42.166565" lon="-0.46416706">
        <time>2022-07-05T16:26:13Z</time>
      </trkpt>
      <trkpt lat="42.16651" lon="-0.4640474">
        <time>2022-07-05T16:26:15Z</time>
      </trkpt>
      <trkpt lat="42.166485" lon="-0.46398774">
        <time>2022-07-05T16:26:16Z</time>
      </trkpt>
      <trkpt lat="42.16646" lon="-0.46392775">
        <time>2022-07-05T16:26:17Z</time>
      </trkpt>
      <trkpt lat="42.1664" lon="-0.46380842">
        <time>2022-07-05T16:26:19Z</time>
      </trkpt>
      <trkpt lat="42.166374" lon="-0.4637494">
        <time>2022-07-05T16:26:20Z</time>
      </trkpt>
      <trkpt lat="42.166348" lon="-0.4636914">
        <time>2022-07-05T16:26:21Z</time>
      </trkpt>
      <trkpt lat="42.16629" lon="-0.46357608">
        <time>2022-07-05T16:26:23Z</time>
      </trkpt>
      <trkpt lat="42.166264" lon="-0.4635191">
        <time>2022-07-05T16:26:24Z</time>
      </trkpt>
      <trkpt lat="42.16621" lon="-0.46340477">
        <time>2022-07-05T16:26:26Z</time>
      </trkpt>
      <trkpt lat="42.166187" lon="-0.46334743">
        <time>2022-07-05T16:26:27Z</time>
      </trkpt>
      <trkpt lat="42.166138" lon="-0.4632341">
        <time>2022-07-05T16:26:29Z</time>
      </trkpt>
      <trkpt lat="42.16611" lon="-0.4631781">
        <time>2022-07-05T16:26:30Z</time>
      </trkpt>
      <trkpt lat="42.16606" lon="-0.46306577">
        <time>2022-07-05T16:26:32Z</time>
      </trkpt>
      <trkpt lat="42.166008" lon="-0.4629541">
        <time>2022-07-05T16:26:34Z</time>
      </trkpt>
      <trkpt lat="42.165955" lon="-0.46284345">
        <time>2022-07-05T16:26:36Z</time>
      </trkpt>
      <trkpt lat="42.1659" lon="-0.4627321">
        <time>2022-07-05T16:26:38Z</time>
      </trkpt>
      <trkpt lat="42.165874" lon="-0.46267578">
        <time>2022-07-05T16:26:39Z</time>
      </trkpt>
      <trkpt lat="42.165825" lon="-0.46256378">
        <time>2022-07-05T16:26:41Z</time>
      </trkpt>
      <trkpt lat="42.16577" lon="-0.46245247">
        <time>2022-07-05T16:26:43Z</time>
      </trkpt>
      <trkpt lat="42.16572" lon="-0.4623428">
        <time>2022-07-05T16:26:45Z</time>
      </trkpt>
      <trkpt lat="42.1657" lon="-0.46228847">
        <time>2022-07-05T16:26:46Z</time>
      </trkpt>
      <trkpt lat="42.16565" lon="-0.46217713">
        <time>2022-07-05T16:26:48Z</time>
      </trkpt>
      <trkpt lat="42.165627" lon="-0.4621208">
        <time>2022-07-05T16:26:49Z</time>
      </trkpt>
      <trkpt lat="42.165554" lon="-0.4619588">
        <time>2022-07-05T16:26:52Z</time>
      </trkpt>
      <trkpt lat="42.165504" lon="-0.4618588">
        <time>2022-07-05T16:26:54Z</time>
      </trkpt>
      <trkpt lat="42.16545" lon="-0.46176416">
        <time>2022-07-05T16:26:56Z</time>
      </trkpt>
      <trkpt lat="42.1654" lon="-0.46167082">
        <time>2022-07-05T16:26:58Z</time>
      </trkpt>
      <trkpt lat="42.165356" lon="-0.46156982">
        <time>2022-07-05T16:27:00Z</time>
      </trkpt>
      <trkpt lat="42.16531" lon="-0.46146283">
        <time>2022-07-05T16:27:02Z</time>
      </trkpt>
      <trkpt lat="42.165264" lon="-0.46135783">
        <time>2022-07-05T16:27:04Z</time>
      </trkpt>
      <trkpt lat="42.16522" lon="-0.4612528">
        <time>2022-07-05T16:27:06Z</time>
      </trkpt>
      <trkpt lat="42.16517" lon="-0.46114817">
        <time>2022-07-05T16:27:08Z</time>
      </trkpt>
      <trkpt lat="42.16512" lon="-0.46104082">
        <time>2022-07-05T16:27:10Z</time>
      </trkpt>
      <trkpt lat="42.16507" lon="-0.4609315">
        <time>2022-07-05T16:27:12Z</time>
      </trkpt>
      <trkpt lat="42.165016" lon="-0.46082184">
        <time>2022-07-05T16:27:14Z</time>
      </trkpt>
      <trkpt lat="42.164993" lon="-0.46076685">
        <time>2022-07-05T16:27:15Z</time>
      </trkpt>
      <trkpt lat="42.164944" lon="-0.46065685">
        <time>2022-07-05T16:27:17Z</time>
      </trkpt>
      <trkpt lat="42.164917" lon="-0.46060184">
        <time>2022-07-05T16:27:18Z</time>
      </trkpt>
      <trkpt lat="42.164867" lon="-0.46049252">
        <time>2022-07-05T16:27:20Z</time>
      </trkpt>
      <trkpt lat="42.16484" lon="-0.4604375">
        <time>2022-07-05T16:27:21Z</time>
      </trkpt>
      <trkpt lat="42.164787" lon="-0.4603275">
        <time>2022-07-05T16:27:23Z</time>
      </trkpt>
      <trkpt lat="42.164764" lon="-0.46027318">
        <time>2022-07-05T16:27:24Z</time>
      </trkpt>
      <trkpt lat="42.164715" lon="-0.46016452">
        <time>2022-07-05T16:27:26Z</time>
      </trkpt>
      <trkpt lat="42.16469" lon="-0.46010953">
        <time>2022-07-05T16:27:27Z</time>
      </trkpt>
      <trkpt lat="42.164635" lon="-0.4600002">
        <time>2022-07-05T16:27:29Z</time>
      </trkpt>
      <trkpt lat="42.16461" lon="-0.45994687">
        <time>2022-07-05T16:27:30Z</time>
      </trkpt>
      <trkpt lat="42.16456" lon="-0.45983985">
        <time>2022-07-05T16:27:32Z</time>
      </trkpt>
      <trkpt lat="42.16451" lon="-0.45973152">
        <time>2022-07-05T16:27:34Z</time>
      </trkpt>
      <trkpt lat="42.16446" lon="-0.45962486">
        <time>2022-07-05T16:27:36Z</time>
      </trkpt>
      <trkpt lat="42.16441" lon="-0.45952055">
        <time>2022-07-05T16:27:38Z</time>
      </trkpt>
      <trkpt lat="42.164364" lon="-0.45942155">
        <time>2022-07-05T16:27:40Z</time>
      </trkpt>
      <trkpt lat="42.164318" lon="-0.4593262">
        <time>2022-07-05T16:27:42Z</time>
      </trkpt>
      <trkpt lat="42.16428" lon="-0.4592362">
        <time>2022-07-05T16:27:44Z</time>
      </trkpt>
      <trkpt lat="42.164238" lon="-0.4591472">
        <time>2022-07-05T16:27:46Z</time>
      </trkpt>
      <trkpt lat="42.1642" lon="-0.45906255">
        <time>2022-07-05T16:27:48Z</time>
      </trkpt>
      <trkpt lat="42.16416" lon="-0.45897856">
        <time>2022-07-05T16:27:50Z</time>
      </trkpt>
      <trkpt lat="42.16412" lon="-0.4588932">
        <time>2022-07-05T16:27:52Z</time>
      </trkpt>
      <trkpt lat="42.164078" lon="-0.4588039">
        <time>2022-07-05T16:27:54Z</time>
      </trkpt>
      <trkpt lat="42.164013" lon="-0.45866555">
        <time>2022-07-05T16:27:57Z</time>
      </trkpt>
      <trkpt lat="42.16397" lon="-0.45857123">
        <time>2022-07-05T16:27:59Z</time>
      </trkpt>
      <trkpt lat="42.163925" lon="-0.45847258">
        <time>2022-07-05T16:28:01Z</time>
      </trkpt>
      <trkpt lat="42.163883" lon="-0.45837325">
        <time>2022-07-05T16:28:03Z</time>
      </trkpt>
      <trkpt lat="42.163837" lon="-0.4582709">
        <time>2022-07-05T16:28:05Z</time>
      </trkpt>
      <trkpt lat="42.163795" lon="-0.4581669">
        <time>2022-07-05T16:28:07Z</time>
      </trkpt>
      <trkpt lat="42.16375" lon="-0.45806426">
        <time>2022-07-05T16:28:09Z</time>
      </trkpt>
      <trkpt lat="42.163704" lon="-0.45796058">
        <time>2022-07-05T16:28:11Z</time>
      </trkpt>
      <trkpt lat="42.16366" lon="-0.45785525">
        <time>2022-07-05T16:28:13Z</time>
      </trkpt>
      <trkpt lat="42.163612" lon="-0.45774925">
        <time>2022-07-05T16:28:15Z</time>
      </trkpt>
      <trkpt lat="42.16359" lon="-0.4576966">
        <time>2022-07-05T16:28:16Z</time>
      </trkpt>
      <trkpt lat="42.16354" lon="-0.45758995">
        <time>2022-07-05T16:28:18Z</time>
      </trkpt>
      <trkpt lat="42.163494" lon="-0.45748228">
        <time>2022-07-05T16:28:20Z</time>
      </trkpt>
      <trkpt lat="42.16345" lon="-0.4573733">
        <time>2022-07-05T16:28:22Z</time>
      </trkpt>
      <trkpt lat="42.163403" lon="-0.45726362">
        <time>2022-07-05T16:28:24Z</time>
      </trkpt>
      <trkpt lat="42.163357" lon="-0.45715663">
        <time>2022-07-05T16:28:26Z</time>
      </trkpt>
      <trkpt lat="42.163315" lon="-0.4570533">
        <time>2022-07-05T16:28:28Z</time>
      </trkpt>
      <trkpt lat="42.163273" lon="-0.45695195">
        <time>2022-07-05T16:28:30Z</time>
      </trkpt>
      <trkpt lat="42.163227" lon="-0.45685697">
        <time>2022-07-05T16:28:32Z</time>
      </trkpt>
      <trkpt lat="42.163193" lon="-0.4567733">
        <time>2022-07-05T16:28:34Z</time>
      </trkpt>
      <trkpt lat="42.16316" lon="-0.45669696">
        <time>2022-07-05T16:28:36Z</time>
      </trkpt>
      <trkpt lat="42.16313" lon="-0.45662263">
        <time>2022-07-05T16:28:38Z</time>
      </trkpt>
      <trkpt lat="42.1631" lon="-0.45655265">
        <time>2022-07-05T16:28:40Z</time>
      </trkpt>
      <trkpt lat="42.163067" lon="-0.4564813">
        <time>2022-07-05T16:28:42Z</time>
      </trkpt>
      <trkpt lat="42.163033" lon="-0.45640698">
        <time>2022-07-05T16:28:44Z</time>
      </trkpt>
      <trkpt lat="42.163" lon="-0.45632797">
        <time>2022-07-05T16:28:46Z</time>
      </trkpt>
      <trkpt lat="42.162964" lon="-0.456244">
        <time>2022-07-05T16:28:48Z</time>
      </trkpt>
      <trkpt lat="42.162926" lon="-0.45615897">
        <time>2022-07-05T16:28:50Z</time>
      </trkpt>
      <trkpt lat="42.162888" lon="-0.45607397">
        <time>2022-07-05T16:28:52Z</time>
      </trkpt>
      <trkpt lat="42.16285" lon="-0.45598698">
        <time>2022-07-05T16:28:54Z</time>
      </trkpt>
      <trkpt lat="42.162792" lon="-0.4558533">
        <time>2022-07-05T16:28:57Z</time>
      </trkpt>
      <trkpt lat="42.16275" lon="-0.455764">
        <time>2022-07-05T16:28:59Z</time>
      </trkpt>
      <trkpt lat="42.162712" lon="-0.45567465">
        <time>2022-07-05T16:29:01Z</time>
      </trkpt>
      <trkpt lat="42.16267" lon="-0.455585">
        <time>2022-07-05T16:29:03Z</time>
      </trkpt>
      <trkpt lat="42.162632" lon="-0.455496">
        <time>2022-07-05T16:29:05Z</time>
      </trkpt>
      <trkpt lat="42.162594" lon="-0.455409">
        <time>2022-07-05T16:29:07Z</time>
      </trkpt>
      <trkpt lat="42.162556" lon="-0.455325">
        <time>2022-07-05T16:29:09Z</time>
      </trkpt>
      <trkpt lat="42.162514" lon="-0.45523968">
        <time>2022-07-05T16:29:11Z</time>
      </trkpt>
      <trkpt lat="42.162476" lon="-0.45515367">
        <time>2022-07-05T16:29:13Z</time>
      </trkpt>
      <trkpt lat="42.16244" lon="-0.455065">
        <time>2022-07-05T16:29:15Z</time>
      </trkpt>
      <trkpt lat="42.162407" lon="-0.45497936">
        <time>2022-07-05T16:29:17Z</time>
      </trkpt>
      <trkpt lat="42.162373" lon="-0.454901">
        <time>2022-07-05T16:29:19Z</time>
      </trkpt>
      <trkpt lat="42.16234" lon="-0.45482937">
        <time>2022-07-05T16:29:21Z</time>
      </trkpt>
      <trkpt lat="42.162308" lon="-0.45476335">
        <time>2022-07-05T16:29:23Z</time>
      </trkpt>
      <trkpt lat="42.16228" lon="-0.45470104">
        <time>2022-07-05T16:29:25Z</time>
      </trkpt>
      <trkpt lat="42.162247" lon="-0.45461303">
        <time>2022-07-05T16:29:28Z</time>
      </trkpt>
      <trkpt lat="42.162212" lon="-0.4545287">
        <time>2022-07-05T16:29:31Z</time>
      </trkpt>
      <trkpt lat="42.162174" lon="-0.45443904">
        <time>2022-07-05T16:29:34Z</time>
      </trkpt>
      <trkpt lat="42.162148" lon="-0.45437405">
        <time>2022-07-05T16:29:36Z</time>
      </trkpt>
      <trkpt lat="42.162113" lon="-0.45430672">
        <time>2022-07-05T16:29:38Z</time>
      </trkpt>
      <trkpt lat="42.162083" lon="-0.45423204">
        <time>2022-07-05T16:29:40Z</time>
      </trkpt>
      <trkpt lat="42.162052" lon="-0.45415205">
        <time>2022-07-05T16:29:42Z</time>
      </trkpt>
      <trkpt lat="42.16202" lon="-0.45407206">
        <time>2022-07-05T16:29:44Z</time>
      </trkpt>
      <trkpt lat="42.161983" lon="-0.45398673">
        <time>2022-07-05T16:29:46Z</time>
      </trkpt>
      <trkpt lat="42.161945" lon="-0.45389673">
        <time>2022-07-05T16:29:48Z</time>
      </trkpt>
      <trkpt lat="42.161903" lon="-0.4538054">
        <time>2022-07-05T16:29:50Z</time>
      </trkpt>
      <trkpt lat="42.16186" lon="-0.45370874">
        <time>2022-07-05T16:29:52Z</time>
      </trkpt>
      <trkpt lat="42.16182" lon="-0.45361108">
        <time>2022-07-05T16:29:54Z</time>
      </trkpt>
      <trkpt lat="42.161777" lon="-0.45351207">
        <time>2022-07-05T16:29:56Z</time>
      </trkpt>
      <trkpt lat="42.161736" lon="-0.45341107">
        <time>2022-07-05T16:29:58Z</time>
      </trkpt>
      <trkpt lat="42.161667" lon="-0.45325908">
        <time>2022-07-05T16:30:01Z</time>
      </trkpt>
      <trkpt lat="42.16162" lon="-0.4531554">
        <time>2022-07-05T16:30:03Z</time>
      </trkpt>
      <trkpt lat="42.161575" lon="-0.45305076">
        <time>2022-07-05T16:30:05Z</time>
      </trkpt>
      <trkpt lat="42.16153" lon="-0.45294574">
        <time>2022-07-05T16:30:07Z</time>
      </trkpt>
      <trkpt lat="42.161484" lon="-0.45283943">
        <time>2022-07-05T16:30:09Z</time>
      </trkpt>
      <trkpt lat="42.161438" lon="-0.4527364">
        <time>2022-07-05T16:30:11Z</time>
      </trkpt>
      <trkpt lat="42.16139" lon="-0.4526334">
        <time>2022-07-05T16:30:13Z</time>
      </trkpt>
      <trkpt lat="42.161343" lon="-0.4525281">
        <time>2022-07-05T16:30:15Z</time>
      </trkpt>
      <trkpt lat="42.161297" lon="-0.4524201">
        <time>2022-07-05T16:30:17Z</time>
      </trkpt>
      <trkpt lat="42.16125" lon="-0.4523101">
        <time>2022-07-05T16:30:19Z</time>
      </trkpt>
      <trkpt lat="42.161224" lon="-0.45225075">
        <time>2022-07-05T16:30:20Z</time>
      </trkpt>
      <trkpt lat="42.161175" lon="-0.45213377">
        <time>2022-07-05T16:30:22Z</time>
      </trkpt>
      <trkpt lat="42.161148" lon="-0.45207477">
        <time>2022-07-05T16:30:23Z</time>
      </trkpt>
      <trkpt lat="42.161095" lon="-0.4519581">
        <time>2022-07-05T16:30:25Z</time>
      </trkpt>
      <trkpt lat="42.161045" lon="-0.45184144">
        <time>2022-07-05T16:30:27Z</time>
      </trkpt>
      <trkpt lat="42.16102" lon="-0.45178378">
        <time>2022-07-05T16:30:28Z</time>
      </trkpt>
      <trkpt lat="42.16097" lon="-0.45166945">
        <time>2022-07-05T16:30:30Z</time>
      </trkpt>
      <trkpt lat="42.16092" lon="-0.45155445">
        <time>2022-07-05T16:30:32Z</time>
      </trkpt>
      <trkpt lat="42.160866" lon="-0.4514411">
        <time>2022-07-05T16:30:34Z</time>
      </trkpt>
      <trkpt lat="42.160816" lon="-0.45133045">
        <time>2022-07-05T16:30:36Z</time>
      </trkpt>
      <trkpt lat="42.16079" lon="-0.4512758">
        <time>2022-07-05T16:30:37Z</time>
      </trkpt>
      <trkpt lat="42.16074" lon="-0.4511678">
        <time>2022-07-05T16:30:39Z</time>
      </trkpt>
      <trkpt lat="42.160717" lon="-0.45111415">
        <time>2022-07-05T16:30:40Z</time>
      </trkpt>
      <trkpt lat="42.160667" lon="-0.4510055">
        <time>2022-07-05T16:30:42Z</time>
      </trkpt>
      <trkpt lat="42.160625" lon="-0.45090082">
        <time>2022-07-05T16:30:44Z</time>
      </trkpt>
      <trkpt lat="42.160583" lon="-0.4508008">
        <time>2022-07-05T16:30:46Z</time>
      </trkpt>
      <trkpt lat="42.16054" lon="-0.4507075">
        <time>2022-07-05T16:30:48Z</time>
      </trkpt>
      <trkpt lat="42.1605" lon="-0.45061448">
        <time>2022-07-05T16:30:50Z</time>
      </trkpt>
      <trkpt lat="42.16046" lon="-0.45052648">
        <time>2022-07-05T16:30:52Z</time>
      </trkpt>
      <trkpt lat="42.160427" lon="-0.45044217">
        <time>2022-07-05T16:30:54Z</time>
      </trkpt>
      <trkpt lat="42.16039" lon="-0.45035982">
        <time>2022-07-05T16:30:56Z</time>
      </trkpt>
      <trkpt lat="42.160355" lon="-0.45027918">
        <time>2022-07-05T16:30:58Z</time>
      </trkpt>
      <trkpt lat="42.160316" lon="-0.45020485">
        <time>2022-07-05T16:31:00Z</time>
      </trkpt>
      <trkpt lat="42.160267" lon="-0.4500955">
        <time>2022-07-05T16:31:03Z</time>
      </trkpt>
      <trkpt lat="42.160236" lon="-0.45002517">
        <time>2022-07-05T16:31:05Z</time>
      </trkpt>
      <trkpt lat="42.16021" lon="-0.44995886">
        <time>2022-07-05T16:31:07Z</time>
      </trkpt>
      <trkpt lat="42.16018" lon="-0.44989118">
        <time>2022-07-05T16:31:09Z</time>
      </trkpt>
      <trkpt lat="42.160152" lon="-0.44981852">
        <time>2022-07-05T16:31:11Z</time>
      </trkpt>
      <trkpt lat="42.16012" lon="-0.44974187">
        <time>2022-07-05T16:31:13Z</time>
      </trkpt>
      <trkpt lat="42.16008" lon="-0.44965988">
        <time>2022-07-05T16:31:15Z</time>
      </trkpt>
      <trkpt lat="42.16004" lon="-0.44957188">
        <time>2022-07-05T16:31:17Z</time>
      </trkpt>
      <trkpt lat="42.16" lon="-0.44947886">
        <time>2022-07-05T16:31:19Z</time>
      </trkpt>
      <trkpt lat="42.159954" lon="-0.44938153">
        <time>2022-07-05T16:31:21Z</time>
      </trkpt>
      <trkpt lat="42.159912" lon="-0.44928053">
        <time>2022-07-05T16:31:23Z</time>
      </trkpt>
      <trkpt lat="42.159866" lon="-0.4491772">
        <time>2022-07-05T16:31:25Z</time>
      </trkpt>
      <trkpt lat="42.159817" lon="-0.4490732">
        <time>2022-07-05T16:31:27Z</time>
      </trkpt>
      <trkpt lat="42.15977" lon="-0.44896555">
        <time>2022-07-05T16:31:29Z</time>
      </trkpt>
      <trkpt lat="42.15972" lon="-0.44885522">
        <time>2022-07-05T16:31:31Z</time>
      </trkpt>
      <trkpt lat="42.159695" lon="-0.44879457">
        <time>2022-07-05T16:31:32Z</time>
      </trkpt>
      <trkpt lat="42.159645" lon="-0.44868356">
        <time>2022-07-05T16:31:34Z</time>
      </trkpt>
      <trkpt lat="42.159595" lon="-0.44857156">
        <time>2022-07-05T16:31:36Z</time>
      </trkpt>
      <trkpt lat="42.159546" lon="-0.44846156">
        <time>2022-07-05T16:31:38Z</time>
      </trkpt>
      <trkpt lat="42.159523" lon="-0.44840723">
        <time>2022-07-05T16:31:39Z</time>
      </trkpt>
      <trkpt lat="42.159477" lon="-0.4482999">
        <time>2022-07-05T16:31:41Z</time>
      </trkpt>
      <trkpt lat="42.159428" lon="-0.4481929">
        <time>2022-07-05T16:31:43Z</time>
      </trkpt>
      <trkpt lat="42.15938" lon="-0.44808358">
        <time>2022-07-05T16:31:45Z</time>
      </trkpt>
      <trkpt lat="42.15936" lon="-0.44802758">
        <time>2022-07-05T16:31:46Z</time>
      </trkpt>
      <trkpt lat="42.15931" lon="-0.44791457">
        <time>2022-07-05T16:31:48Z</time>
      </trkpt>
      <trkpt lat="42.159286" lon="-0.44785824">
        <time>2022-07-05T16:31:49Z</time>
      </trkpt>
      <trkpt lat="42.159237" lon="-0.4477456">
        <time>2022-07-05T16:31:51Z</time>
      </trkpt>
      <trkpt lat="42.15919" lon="-0.44764024">
        <time>2022-07-05T16:31:53Z</time>
      </trkpt>
      <trkpt lat="42.15914" lon="-0.4475326">
        <time>2022-07-05T16:31:55Z</time>
      </trkpt>
      <trkpt lat="42.159096" lon="-0.44743493">
        <time>2022-07-05T16:31:57Z</time>
      </trkpt>
      <trkpt lat="42.159054" lon="-0.44733927">
        <time>2022-07-05T16:31:59Z</time>
      </trkpt>
      <trkpt lat="42.159016" lon="-0.44724926">
        <time>2022-07-05T16:32:01Z</time>
      </trkpt>
      <trkpt lat="42.15898" lon="-0.4471636">
        <time>2022-07-05T16:32:03Z</time>
      </trkpt>
      <trkpt lat="42.158943" lon="-0.44708195">
        <time>2022-07-05T16:32:05Z</time>
      </trkpt>
      <trkpt lat="42.158897" lon="-0.44696596">
        <time>2022-07-05T16:32:08Z</time>
      </trkpt>
      <trkpt lat="42.158867" lon="-0.4468943">
        <time>2022-07-05T16:32:10Z</time>
      </trkpt>
      <trkpt lat="42.158836" lon="-0.4468223">
        <time>2022-07-05T16:32:12Z</time>
      </trkpt>
      <trkpt lat="42.158802" lon="-0.44674763">
        <time>2022-07-05T16:32:14Z</time>
      </trkpt>
      <trkpt lat="42.158764" lon="-0.4466693">
        <time>2022-07-05T16:32:16Z</time>
      </trkpt>
      <trkpt lat="42.158726" lon="-0.44658664">
        <time>2022-07-05T16:32:18Z</time>
      </trkpt>
      <trkpt lat="42.158688" lon="-0.446499">
        <time>2022-07-05T16:32:20Z</time>
      </trkpt>
      <trkpt lat="42.15865" lon="-0.44640732">
        <time>2022-07-05T16:32:22Z</time>
      </trkpt>
      <trkpt lat="42.158607" lon="-0.44631165">
        <time>2022-07-05T16:32:24Z</time>
      </trkpt>
      <trkpt lat="42.158566" lon="-0.44621265">
        <time>2022-07-05T16:32:26Z</time>
      </trkpt>
      <trkpt lat="42.158524" lon="-0.446112">
        <time>2022-07-05T16:32:28Z</time>
      </trkpt>
      <trkpt lat="42.158478" lon="-0.44601166">
        <time>2022-07-05T16:32:30Z</time>
      </trkpt>
      <trkpt lat="42.158436" lon="-0.44591066">
        <time>2022-07-05T16:32:32Z</time>
      </trkpt>
      <trkpt lat="42.15839" lon="-0.44581068">
        <time>2022-07-05T16:32:34Z</time>
      </trkpt>
      <trkpt lat="42.158344" lon="-0.44570935">
        <time>2022-07-05T16:32:36Z</time>
      </trkpt>
      <trkpt lat="42.1583" lon="-0.44561034">
        <time>2022-07-05T16:32:38Z</time>
      </trkpt>
      <trkpt lat="42.158257" lon="-0.44551033">
        <time>2022-07-05T16:32:40Z</time>
      </trkpt>
      <trkpt lat="42.15821" lon="-0.44541234">
        <time>2022-07-05T16:32:42Z</time>
      </trkpt>
      <trkpt lat="42.15816" lon="-0.4453157">
        <time>2022-07-05T16:32:44Z</time>
      </trkpt>
      <trkpt lat="42.15812" lon="-0.44521868">
        <time>2022-07-05T16:32:46Z</time>
      </trkpt>
      <trkpt lat="42.158073" lon="-0.44512135">
        <time>2022-07-05T16:32:48Z</time>
      </trkpt>
      <trkpt lat="42.158028" lon="-0.44502702">
        <time>2022-07-05T16:32:50Z</time>
      </trkpt>
      <trkpt lat="42.157986" lon="-0.44493535">
        <time>2022-07-05T16:32:52Z</time>
      </trkpt>
      <trkpt lat="42.157944" lon="-0.44484103">
        <time>2022-07-05T16:32:54Z</time>
      </trkpt>
      <trkpt lat="42.1579" lon="-0.4447487">
        <time>2022-07-05T16:32:56Z</time>
      </trkpt>
      <trkpt lat="42.15786" lon="-0.4446667">
        <time>2022-07-05T16:32:58Z</time>
      </trkpt>
      <trkpt lat="42.157818" lon="-0.44457805">
        <time>2022-07-05T16:33:00Z</time>
      </trkpt>
      <trkpt lat="42.15777" lon="-0.44449237">
        <time>2022-07-05T16:33:02Z</time>
      </trkpt>
      <trkpt lat="42.157715" lon="-0.44440338">
        <time>2022-07-05T16:33:04Z</time>
      </trkpt>
      <trkpt lat="42.15767" lon="-0.4443097">
        <time>2022-07-05T16:33:06Z</time>
      </trkpt>
      <trkpt lat="42.15762" lon="-0.44422007">
        <time>2022-07-05T16:33:08Z</time>
      </trkpt>
      <trkpt lat="42.157574" lon="-0.44413272">
        <time>2022-07-05T16:33:10Z</time>
      </trkpt>
      <trkpt lat="42.157524" lon="-0.44404706">
        <time>2022-07-05T16:33:12Z</time>
      </trkpt>
      <trkpt lat="42.15748" lon="-0.4439604">
        <time>2022-07-05T16:33:14Z</time>
      </trkpt>
      <trkpt lat="42.15743" lon="-0.44387376">
        <time>2022-07-05T16:33:16Z</time>
      </trkpt>
      <trkpt lat="42.15738" lon="-0.44378376">
        <time>2022-07-05T16:33:18Z</time>
      </trkpt>
      <trkpt lat="42.157333" lon="-0.44369543">
        <time>2022-07-05T16:33:20Z</time>
      </trkpt>
      <trkpt lat="42.157284" lon="-0.44360977">
        <time>2022-07-05T16:33:22Z</time>
      </trkpt>
      <trkpt lat="42.157238" lon="-0.44352177">
        <time>2022-07-05T16:33:24Z</time>
      </trkpt>
      <trkpt lat="42.15719" lon="-0.4434331">
        <time>2022-07-05T16:33:26Z</time>
      </trkpt>
      <trkpt lat="42.157135" lon="-0.44334844">
        <time>2022-07-05T16:33:28Z</time>
      </trkpt>
      <trkpt lat="42.157085" lon="-0.44326344">
        <time>2022-07-05T16:33:30Z</time>
      </trkpt>
      <trkpt lat="42.157036" lon="-0.44317612">
        <time>2022-07-05T16:33:32Z</time>
      </trkpt>
      <trkpt lat="42.156982" lon="-0.44308946">
        <time>2022-07-05T16:33:34Z</time>
      </trkpt>
      <trkpt lat="42.15693" lon="-0.44300312">
        <time>2022-07-05T16:33:36Z</time>
      </trkpt>
      <trkpt lat="42.15687" lon="-0.4429178">
        <time>2022-07-05T16:33:38Z</time>
      </trkpt>
      <trkpt lat="42.156815" lon="-0.44283047">
        <time>2022-07-05T16:33:40Z</time>
      </trkpt>
      <trkpt lat="42.156757" lon="-0.4427388">
        <time>2022-07-05T16:33:42Z</time>
      </trkpt>
      <trkpt lat="42.156704" lon="-0.44264448">
        <time>2022-07-05T16:33:44Z</time>
      </trkpt>
      <trkpt lat="42.156643" lon="-0.44255048">
        <time>2022-07-05T16:33:46Z</time>
      </trkpt>
      <trkpt lat="42.156586" lon="-0.44245547">
        <time>2022-07-05T16:33:48Z</time>
      </trkpt>
      <trkpt lat="42.156525" lon="-0.44235846">
        <time>2022-07-05T16:33:50Z</time>
      </trkpt>
      <trkpt lat="42.156464" lon="-0.44225514">
        <time>2022-07-05T16:33:52Z</time>
      </trkpt>
      <trkpt lat="42.1564" lon="-0.44215348">
        <time>2022-07-05T16:33:54Z</time>
      </trkpt>
      <trkpt lat="42.15637" lon="-0.44210348">
        <time>2022-07-05T16:33:55Z</time>
      </trkpt>
      <trkpt lat="42.156303" lon="-0.4420035">
        <time>2022-07-05T16:33:57Z</time>
      </trkpt>
      <trkpt lat="42.15624" lon="-0.4419045">
        <time>2022-07-05T16:33:59Z</time>
      </trkpt>
      <trkpt lat="42.156178" lon="-0.4418078">
        <time>2022-07-05T16:34:01Z</time>
      </trkpt>
      <trkpt lat="42.156143" lon="-0.44176015">
        <time>2022-07-05T16:34:02Z</time>
      </trkpt>
      <trkpt lat="42.156082" lon="-0.44166484">
        <time>2022-07-05T16:34:04Z</time>
      </trkpt>
      <trkpt lat="42.15605" lon="-0.44161782">
        <time>2022-07-05T16:34:05Z</time>
      </trkpt>
      <trkpt lat="42.15596" lon="-0.4414775">
        <time>2022-07-05T16:34:08Z</time>
      </trkpt>
      <trkpt lat="42.1559" lon="-0.44138417">
        <time>2022-07-05T16:34:10Z</time>
      </trkpt>
      <trkpt lat="42.155838" lon="-0.44128883">
        <time>2022-07-05T16:34:12Z</time>
      </trkpt>
      <trkpt lat="42.155777" lon="-0.44119385">
        <time>2022-07-05T16:34:14Z</time>
      </trkpt>
      <trkpt lat="42.155712" lon="-0.44109485">
        <time>2022-07-05T16:34:16Z</time>
      </trkpt>
      <trkpt lat="42.15565" lon="-0.44098917">
        <time>2022-07-05T16:34:18Z</time>
      </trkpt>
      <trkpt lat="42.155582" lon="-0.44088453">
        <time>2022-07-05T16:34:20Z</time>
      </trkpt>
      <trkpt lat="42.155552" lon="-0.44083253">
        <time>2022-07-05T16:34:21Z</time>
      </trkpt>
      <trkpt lat="42.15548" lon="-0.4407255">
        <time>2022-07-05T16:34:23Z</time>
      </trkpt>
      <trkpt lat="42.155445" lon="-0.44066918">
        <time>2022-07-05T16:34:24Z</time>
      </trkpt>
      <trkpt lat="42.15541" lon="-0.44061154">
        <time>2022-07-05T16:34:25Z</time>
      </trkpt>
      <trkpt lat="42.155373" lon="-0.44055286">
        <time>2022-07-05T16:34:26Z</time>
      </trkpt>
      <trkpt lat="42.155334" lon="-0.44049254">
        <time>2022-07-05T16:34:27Z</time>
      </trkpt>
      <trkpt lat="42.155296" lon="-0.44043154">
        <time>2022-07-05T16:34:28Z</time>
      </trkpt>
      <trkpt lat="42.15526" lon="-0.4403689">
        <time>2022-07-05T16:34:29Z</time>
      </trkpt>
      <trkpt lat="42.15522" lon="-0.44030687">
        <time>2022-07-05T16:34:30Z</time>
      </trkpt>
      <trkpt lat="42.155178" lon="-0.44024423">
        <time>2022-07-05T16:34:31Z</time>
      </trkpt>
      <trkpt lat="42.155136" lon="-0.44018188">
        <time>2022-07-05T16:34:32Z</time>
      </trkpt>
      <trkpt lat="42.155098" lon="-0.44011956">
        <time>2022-07-05T16:34:33Z</time>
      </trkpt>
      <trkpt lat="42.155056" lon="-0.44005722">
        <time>2022-07-05T16:34:34Z</time>
      </trkpt>
      <trkpt lat="42.155014" lon="-0.43999323">
        <time>2022-07-05T16:34:35Z</time>
      </trkpt>
      <trkpt lat="42.154972" lon="-0.43992922">
        <time>2022-07-05T16:34:36Z</time>
      </trkpt>
      <trkpt lat="42.154934" lon="-0.43986356">
        <time>2022-07-05T16:34:37Z</time>
      </trkpt>
      <trkpt lat="42.154892" lon="-0.43979892">
        <time>2022-07-05T16:34:38Z</time>
      </trkpt>
      <trkpt lat="42.154854" lon="-0.43973225">
        <time>2022-07-05T16:34:39Z</time>
      </trkpt>
      <trkpt lat="42.15481" lon="-0.43966758">
        <time>2022-07-05T16:34:40Z</time>
      </trkpt>
      <trkpt lat="42.154766" lon="-0.43960258">
        <time>2022-07-05T16:34:41Z</time>
      </trkpt>
      <trkpt lat="42.154724" lon="-0.43953827">
        <time>2022-07-05T16:34:42Z</time>
      </trkpt>
      <trkpt lat="42.154686" lon="-0.4394746">
        <time>2022-07-05T16:34:43Z</time>
      </trkpt>
      <trkpt lat="42.154644" lon="-0.43941128">
        <time>2022-07-05T16:34:44Z</time>
      </trkpt>
      <trkpt lat="42.154602" lon="-0.43934727">
        <time>2022-07-05T16:34:45Z</time>
      </trkpt>
      <trkpt lat="42.15456" lon="-0.43928295">
        <time>2022-07-05T16:34:46Z</time>
      </trkpt>
      <trkpt lat="42.154522" lon="-0.43921727">
        <time>2022-07-05T16:34:47Z</time>
      </trkpt>
      <trkpt lat="42.154476" lon="-0.43915027">
        <time>2022-07-05T16:34:48Z</time>
      </trkpt>
      <trkpt lat="42.154434" lon="-0.4390823">
        <time>2022-07-05T16:34:49Z</time>
      </trkpt>
      <trkpt lat="42.154392" lon="-0.43901363">
        <time>2022-07-05T16:34:50Z</time>
      </trkpt>
      <trkpt lat="42.15435" lon="-0.43894497">
        <time>2022-07-05T16:34:51Z</time>
      </trkpt>
      <trkpt lat="42.15431" lon="-0.43887764">
        <time>2022-07-05T16:34:52Z</time>
      </trkpt>
      <trkpt lat="42.15427" lon="-0.4388093">
        <time>2022-07-05T16:34:53Z</time>
      </trkpt>
      <trkpt lat="42.15423" lon="-0.43874064">
        <time>2022-07-05T16:34:54Z</time>
      </trkpt>
      <trkpt lat="42.15419" lon="-0.4386723">
        <time>2022-07-05T16:34:55Z</time>
      </trkpt>
      <trkpt lat="42.154152" lon="-0.4386043">
        <time>2022-07-05T16:34:56Z</time>
      </trkpt>
      <trkpt lat="42.154114" lon="-0.43853664">
        <time>2022-07-05T16:34:57Z</time>
      </trkpt>
      <trkpt lat="42.154076" lon="-0.43846965">
        <time>2022-07-05T16:34:58Z</time>
      </trkpt>
      <trkpt lat="42.154037" lon="-0.43840298">
        <time>2022-07-05T16:34:59Z</time>
      </trkpt>
      <trkpt lat="42.154" lon="-0.43833634">
        <time>2022-07-05T16:35:00Z</time>
      </trkpt>
      <trkpt lat="42.15396" lon="-0.438268">
        <time>2022-07-05T16:35:01Z</time>
      </trkpt>
      <trkpt lat="42.153927" lon="-0.43819734">
        <time>2022-07-05T16:35:02Z</time>
      </trkpt>
      <trkpt lat="42.15389" lon="-0.43812534">
        <time>2022-07-05T16:35:03Z</time>
      </trkpt>
      <trkpt lat="42.15385" lon="-0.438052">
        <time>2022-07-05T16:35:04Z</time>
      </trkpt>
      <trkpt lat="42.153812" lon="-0.437978">
        <time>2022-07-05T16:35:05Z</time>
      </trkpt>
      <trkpt lat="42.153774" lon="-0.43790302">
        <time>2022-07-05T16:35:06Z</time>
      </trkpt>
      <trkpt lat="42.153736" lon="-0.437828">
        <time>2022-07-05T16:35:07Z</time>
      </trkpt>
      <trkpt lat="42.1537" lon="-0.4377527">
        <time>2022-07-05T16:35:08Z</time>
      </trkpt>
      <trkpt lat="42.153664" lon="-0.437676">
        <time>2022-07-05T16:35:09Z</time>
      </trkpt>
      <trkpt lat="42.15363" lon="-0.43759868">
        <time>2022-07-05T16:35:10Z</time>
      </trkpt>
      <trkpt lat="42.153553" lon="-0.43744004">
        <time>2022-07-05T16:35:12Z</time>
      </trkpt>
      <trkpt lat="42.15352" lon="-0.43735838">
        <time>2022-07-05T16:35:13Z</time>
      </trkpt>
      <trkpt lat="42.153484" lon="-0.43727636">
        <time>2022-07-05T16:35:14Z</time>
      </trkpt>
      <trkpt lat="42.153446" lon="-0.43719336">
        <time>2022-07-05T16:35:15Z</time>
      </trkpt>
      <trkpt lat="42.15341" lon="-0.43711004">
        <time>2022-07-05T16:35:16Z</time>
      </trkpt>
      <trkpt lat="42.153374" lon="-0.43702805">
        <time>2022-07-05T16:35:17Z</time>
      </trkpt>
      <trkpt lat="42.15334" lon="-0.43694437">
        <time>2022-07-05T16:35:18Z</time>
      </trkpt>
      <trkpt lat="42.1533" lon="-0.43686005">
        <time>2022-07-05T16:35:19Z</time>
      </trkpt>
      <trkpt lat="42.153263" lon="-0.43677473">
        <time>2022-07-05T16:35:20Z</time>
      </trkpt>
      <trkpt lat="42.15323" lon="-0.4366884">
        <time>2022-07-05T16:35:21Z</time>
      </trkpt>
      <trkpt lat="42.15319" lon="-0.43660173">
        <time>2022-07-05T16:35:22Z</time>
      </trkpt>
      <trkpt lat="42.153152" lon="-0.43651572">
        <time>2022-07-05T16:35:23Z</time>
      </trkpt>
      <trkpt lat="42.15312" lon="-0.43642908">
        <time>2022-07-05T16:35:24Z</time>
      </trkpt>
      <trkpt lat="42.15308" lon="-0.43634173">
        <time>2022-07-05T16:35:25Z</time>
      </trkpt>
      <trkpt lat="42.15304" lon="-0.43625474">
        <time>2022-07-05T16:35:26Z</time>
      </trkpt>
      <trkpt lat="42.153008" lon="-0.43616873">
        <time>2022-07-05T16:35:27Z</time>
      </trkpt>
      <trkpt lat="42.15297" lon="-0.4360834">
        <time>2022-07-05T16:35:28Z</time>
      </trkpt>
      <trkpt lat="42.152935" lon="-0.4359974">
        <time>2022-07-05T16:35:29Z</time>
      </trkpt>
      <trkpt lat="42.152897" lon="-0.4359124">
        <time>2022-07-05T16:35:30Z</time>
      </trkpt>
      <trkpt lat="42.15286" lon="-0.43582776">
        <time>2022-07-05T16:35:31Z</time>
      </trkpt>
      <trkpt lat="42.152824" lon="-0.4357424">
        <time>2022-07-05T16:35:32Z</time>
      </trkpt>
      <trkpt lat="42.15279" lon="-0.43565676">
        <time>2022-07-05T16:35:33Z</time>
      </trkpt>
      <trkpt lat="42.152752" lon="-0.4355721">
        <time>2022-07-05T16:35:34Z</time>
      </trkpt>
      <trkpt lat="42.152718" lon="-0.4354871">
        <time>2022-07-05T16:35:35Z</time>
      </trkpt>
      <trkpt lat="42.15268" lon="-0.43540278">
        <time>2022-07-05T16:35:36Z</time>
      </trkpt>
      <trkpt lat="42.152645" lon="-0.4353181">
        <time>2022-07-05T16:35:37Z</time>
      </trkpt>
      <trkpt lat="42.152607" lon="-0.43523377">
        <time>2022-07-05T16:35:38Z</time>
      </trkpt>
      <trkpt lat="42.152573" lon="-0.43514946">
        <time>2022-07-05T16:35:39Z</time>
      </trkpt>
      <trkpt lat="42.152534" lon="-0.4350648">
        <time>2022-07-05T16:35:40Z</time>
      </trkpt>
      <trkpt lat="42.1525" lon="-0.43498012">
        <time>2022-07-05T16:35:41Z</time>
      </trkpt>
      <trkpt lat="42.152466" lon="-0.43489513">
        <time>2022-07-05T16:35:42Z</time>
      </trkpt>
      <trkpt lat="42.15243" lon="-0.43481013">
        <time>2022-07-05T16:35:43Z</time>
      </trkpt>
      <trkpt lat="42.152397" lon="-0.43472546">
        <time>2022-07-05T16:35:44Z</time>
      </trkpt>
      <trkpt lat="42.152363" lon="-0.43464214">
        <time>2022-07-05T16:35:45Z</time>
      </trkpt>
      <trkpt lat="42.15233" lon="-0.43455914">
        <time>2022-07-05T16:35:46Z</time>
      </trkpt>
      <trkpt lat="42.152294" lon="-0.43447748">
        <time>2022-07-05T16:35:47Z</time>
      </trkpt>
      <trkpt lat="42.15226" lon="-0.43439716">
        <time>2022-07-05T16:35:48Z</time>
      </trkpt>
      <trkpt lat="42.152225" lon="-0.43431816">
        <time>2022-07-05T16:35:49Z</time>
      </trkpt>
      <trkpt lat="42.152187" lon="-0.4342405">
        <time>2022-07-05T16:35:50Z</time>
      </trkpt>
      <trkpt lat="42.152153" lon="-0.43416482">
        <time>2022-07-05T16:35:51Z</time>
      </trkpt>
      <trkpt lat="42.152122" lon="-0.43408984">
        <time>2022-07-05T16:35:52Z</time>
      </trkpt>
      <trkpt lat="42.15209" lon="-0.4340165">
        <time>2022-07-05T16:35:53Z</time>
      </trkpt>
      <trkpt lat="42.15206" lon="-0.43394318">
        <time>2022-07-05T16:35:54Z</time>
      </trkpt>
      <trkpt lat="42.15203" lon="-0.43386984">
        <time>2022-07-05T16:35:55Z</time>
      </trkpt>
      <trkpt lat="42.152" lon="-0.4337982">
        <time>2022-07-05T16:35:56Z</time>
      </trkpt>
      <trkpt lat="42.15197" lon="-0.4337255">
        <time>2022-07-05T16:35:57Z</time>
      </trkpt>
      <trkpt lat="42.151943" lon="-0.43365186">
        <time>2022-07-05T16:35:58Z</time>
      </trkpt>
      <trkpt lat="42.151917" lon="-0.4335792">
        <time>2022-07-05T16:35:59Z</time>
      </trkpt>
      <trkpt lat="42.151886" lon="-0.4335072">
        <time>2022-07-05T16:36:00Z</time>
      </trkpt>
      <trkpt lat="42.151855" lon="-0.43343654">
        <time>2022-07-05T16:36:01Z</time>
      </trkpt>
      <trkpt lat="42.15183" lon="-0.4333669">
        <time>2022-07-05T16:36:02Z</time>
      </trkpt>
      <trkpt lat="42.151802" lon="-0.43329856">
        <time>2022-07-05T16:36:03Z</time>
      </trkpt>
      <trkpt lat="42.151775" lon="-0.43323123">
        <time>2022-07-05T16:36:04Z</time>
      </trkpt>
      <trkpt lat="42.15175" lon="-0.43316522">
        <time>2022-07-05T16:36:05Z</time>
      </trkpt>
      <trkpt lat="42.15172" lon="-0.4330992">
        <time>2022-07-05T16:36:06Z</time>
      </trkpt>
      <trkpt lat="42.15169" lon="-0.4330329">
        <time>2022-07-05T16:36:07Z</time>
      </trkpt>
      <trkpt lat="42.15166" lon="-0.43296555">
        <time>2022-07-05T16:36:08Z</time>
      </trkpt>
      <trkpt lat="42.151634" lon="-0.43289822">
        <time>2022-07-05T16:36:09Z</time>
      </trkpt>
      <trkpt lat="42.151604" lon="-0.4328309">
        <time>2022-07-05T16:36:10Z</time>
      </trkpt>
      <trkpt lat="42.151577" lon="-0.4327629">
        <time>2022-07-05T16:36:11Z</time>
      </trkpt>
      <trkpt lat="42.151546" lon="-0.43268925">
        <time>2022-07-05T16:36:12Z</time>
      </trkpt>
      <trkpt lat="42.151516" lon="-0.4326199">
        <time>2022-07-05T16:36:13Z</time>
      </trkpt>
      <trkpt lat="42.15149" lon="-0.43254992">
        <time>2022-07-05T16:36:14Z</time>
      </trkpt>
      <trkpt lat="42.15146" lon="-0.43247992">
        <time>2022-07-05T16:36:15Z</time>
      </trkpt>
      <trkpt lat="42.151398" lon="-0.43233958">
        <time>2022-07-05T16:36:17Z</time>
      </trkpt>
      <trkpt lat="42.151363" lon="-0.4322686">
        <time>2022-07-05T16:36:18Z</time>
      </trkpt>
      <trkpt lat="42.151337" lon="-0.43219793">
        <time>2022-07-05T16:36:19Z</time>
      </trkpt>
      <trkpt lat="42.151306" lon="-0.43212792">
        <time>2022-07-05T16:36:20Z</time>
      </trkpt>
      <trkpt lat="42.15127" lon="-0.43205693">
        <time>2022-07-05T16:36:21Z</time>
      </trkpt>
      <trkpt lat="42.15124" lon="-0.43198627">
        <time>2022-07-05T16:36:22Z</time>
      </trkpt>
      <trkpt lat="42.15121" lon="-0.43191493">
        <time>2022-07-05T16:36:23Z</time>
      </trkpt>
      <trkpt lat="42.15118" lon="-0.4318436">
        <time>2022-07-05T16:36:24Z</time>
      </trkpt>
      <trkpt lat="42.15115" lon="-0.4317726">
        <time>2022-07-05T16:36:25Z</time>
      </trkpt>
      <trkpt lat="42.151123" lon="-0.43170094">
        <time>2022-07-05T16:36:26Z</time>
      </trkpt>
      <trkpt lat="42.151093" lon="-0.43163028">
        <time>2022-07-05T16:36:27Z</time>
      </trkpt>
      <trkpt lat="42.151062" lon="-0.43155894">
        <time>2022-07-05T16:36:28Z</time>
      </trkpt>
      <trkpt lat="42.15103" lon="-0.43148762">
        <time>2022-07-05T16:36:29Z</time>
      </trkpt>
      <trkpt lat="42.151" lon="-0.43141562">
        <time>2022-07-05T16:36:30Z</time>
      </trkpt>
      <trkpt lat="42.15097" lon="-0.43134362">
        <time>2022-07-05T16:36:31Z</time>
      </trkpt>
      <trkpt lat="42.15094" lon="-0.43127197">
        <time>2022-07-05T16:36:32Z</time>
      </trkpt>
      <trkpt lat="42.150913" lon="-0.43119964">
        <time>2022-07-05T16:36:33Z</time>
      </trkpt>
      <trkpt lat="42.150883" lon="-0.43112797">
        <time>2022-07-05T16:36:34Z</time>
      </trkpt>
      <trkpt lat="42.150852" lon="-0.43105665">
        <time>2022-07-05T16:36:35Z</time>
      </trkpt>
      <trkpt lat="42.15082" lon="-0.4309853">
        <time>2022-07-05T16:36:36Z</time>
      </trkpt>
      <trkpt lat="42.150795" lon="-0.43091464">
        <time>2022-07-05T16:36:37Z</time>
      </trkpt>
      <trkpt lat="42.150764" lon="-0.4308443">
        <time>2022-07-05T16:36:38Z</time>
      </trkpt>
      <trkpt lat="42.150734" lon="-0.43077466">
        <time>2022-07-05T16:36:39Z</time>
      </trkpt>
      <trkpt lat="42.150703" lon="-0.43070567">
        <time>2022-07-05T16:36:40Z</time>
      </trkpt>
      <trkpt lat="42.150677" lon="-0.430637">
        <time>2022-07-05T16:36:41Z</time>
      </trkpt>
      <trkpt lat="42.150646" lon="-0.43056867">
        <time>2022-07-05T16:36:42Z</time>
      </trkpt>
      <trkpt lat="42.15062" lon="-0.43049967">
        <time>2022-07-05T16:36:43Z</time>
      </trkpt>
      <trkpt lat="42.15059" lon="-0.43043068">
        <time>2022-07-05T16:36:44Z</time>
      </trkpt>
      <trkpt lat="42.150562" lon="-0.43036166">
        <time>2022-07-05T16:36:45Z</time>
      </trkpt>
      <trkpt lat="42.15053" lon="-0.43029234">
        <time>2022-07-05T16:36:46Z</time>
      </trkpt>
      <trkpt lat="42.1505" lon="-0.4302227">
        <time>2022-07-05T16:36:47Z</time>
      </trkpt>
      <trkpt lat="42.15047" lon="-0.43015236">
        <time>2022-07-05T16:36:48Z</time>
      </trkpt>
      <trkpt lat="42.15044" lon="-0.43008202">
        <time>2022-07-05T16:36:49Z</time>
      </trkpt>
      <trkpt lat="42.15041" lon="-0.43001235">
        <time>2022-07-05T16:36:50Z</time>
      </trkpt>
      <trkpt lat="42.150383" lon="-0.4299427">
        <time>2022-07-05T16:36:51Z</time>
      </trkpt>
      <trkpt lat="42.150352" lon="-0.42987305">
        <time>2022-07-05T16:36:52Z</time>
      </trkpt>
      <trkpt lat="42.150322" lon="-0.4298024">
        <time>2022-07-05T16:36:53Z</time>
      </trkpt>
      <trkpt lat="42.15029" lon="-0.42973238">
        <time>2022-07-05T16:36:54Z</time>
      </trkpt>
      <trkpt lat="42.15026" lon="-0.42966104">
        <time>2022-07-05T16:36:55Z</time>
      </trkpt>
      <trkpt lat="42.15023" lon="-0.42959005">
        <time>2022-07-05T16:36:56Z</time>
      </trkpt>
      <trkpt lat="42.1502" lon="-0.4295194">
        <time>2022-07-05T16:36:57Z</time>
      </trkpt>
      <trkpt lat="42.150173" lon="-0.42944905">
        <time>2022-07-05T16:36:58Z</time>
      </trkpt>
      <trkpt lat="42.150143" lon="-0.42937905">
        <time>2022-07-05T16:36:59Z</time>
      </trkpt>
      <trkpt lat="42.150112" lon="-0.42930806">
        <time>2022-07-05T16:37:00Z</time>
      </trkpt>
      <trkpt lat="42.15008" lon="-0.42923772">
        <time>2022-07-05T16:37:01Z</time>
      </trkpt>
      <trkpt lat="42.15005" lon="-0.4291674">
        <time>2022-07-05T16:37:02Z</time>
      </trkpt>
      <trkpt lat="42.150024" lon="-0.42909673">
        <time>2022-07-05T16:37:03Z</time>
      </trkpt>
      <trkpt lat="42.149994" lon="-0.42902607">
        <time>2022-07-05T16:37:04Z</time>
      </trkpt>
      <trkpt lat="42.149963" lon="-0.42895576">
        <time>2022-07-05T16:37:05Z</time>
      </trkpt>
      <trkpt lat="42.149933" lon="-0.42888543">
        <time>2022-07-05T16:37:06Z</time>
      </trkpt>
      <trkpt lat="42.149902" lon="-0.42881542">
        <time>2022-07-05T16:37:07Z</time>
      </trkpt>
      <trkpt lat="42.14987" lon="-0.42874476">
        <time>2022-07-05T16:37:08Z</time>
      </trkpt>
      <trkpt lat="42.149845" lon="-0.42867377">
        <time>2022-07-05T16:37:09Z</time>
      </trkpt>
      <trkpt lat="42.149815" lon="-0.42860243">
        <time>2022-07-05T16:37:10Z</time>
      </trkpt>
      <trkpt lat="42.149784" lon="-0.4285311">
        <time>2022-07-05T16:37:11Z</time>
      </trkpt>
      <trkpt lat="42.149757" lon="-0.42845976">
        <time>2022-07-05T16:37:12Z</time>
      </trkpt>
      <trkpt lat="42.149727" lon="-0.42838776">
        <time>2022-07-05T16:37:13Z</time>
      </trkpt>
      <trkpt lat="42.1497" lon="-0.42831576">
        <time>2022-07-05T16:37:14Z</time>
      </trkpt>
      <trkpt lat="42.14967" lon="-0.42824277">
        <time>2022-07-05T16:37:15Z</time>
      </trkpt>
      <trkpt lat="42.149643" lon="-0.4281691">
        <time>2022-07-05T16:37:16Z</time>
      </trkpt>
      <trkpt lat="42.149582" lon="-0.4280231">
        <time>2022-07-05T16:37:18Z</time>
      </trkpt>
      <trkpt lat="42.14955" lon="-0.4279498">
        <time>2022-07-05T16:37:19Z</time>
      </trkpt>
      <trkpt lat="42.14952" lon="-0.42787677">
        <time>2022-07-05T16:37:20Z</time>
      </trkpt>
      <trkpt lat="42.149487" lon="-0.42780346">
        <time>2022-07-05T16:37:21Z</time>
      </trkpt>
      <trkpt lat="42.149456" lon="-0.42773178">
        <time>2022-07-05T16:37:22Z</time>
      </trkpt>
      <trkpt lat="42.14943" lon="-0.42766178">
        <time>2022-07-05T16:37:23Z</time>
      </trkpt>
      <trkpt lat="42.1494" lon="-0.42759278">
        <time>2022-07-05T16:37:24Z</time>
      </trkpt>
      <trkpt lat="42.14937" lon="-0.42752412">
        <time>2022-07-05T16:37:25Z</time>
      </trkpt>
      <trkpt lat="42.149334" lon="-0.42745548">
        <time>2022-07-05T16:37:26Z</time>
      </trkpt>
      <trkpt lat="42.149303" lon="-0.42738715">
        <time>2022-07-05T16:37:27Z</time>
      </trkpt>
      <trkpt lat="42.149273" lon="-0.42731813">
        <time>2022-07-05T16:37:28Z</time>
      </trkpt>
      <trkpt lat="42.149242" lon="-0.42724913">
        <time>2022-07-05T16:37:29Z</time>
      </trkpt>
      <trkpt lat="42.149208" lon="-0.42718047">
        <time>2022-07-05T16:37:30Z</time>
      </trkpt>
      <trkpt lat="42.149178" lon="-0.42711282">
        <time>2022-07-05T16:37:31Z</time>
      </trkpt>
      <trkpt lat="42.149143" lon="-0.42704448">
        <time>2022-07-05T16:37:32Z</time>
      </trkpt>
      <trkpt lat="42.149113" lon="-0.42697582">
        <time>2022-07-05T16:37:33Z</time>
      </trkpt>
      <trkpt lat="42.14908" lon="-0.42690718">
        <time>2022-07-05T16:37:34Z</time>
      </trkpt>
      <trkpt lat="42.149048" lon="-0.42683917">
        <time>2022-07-05T16:37:35Z</time>
      </trkpt>
      <trkpt lat="42.14902" lon="-0.42677385">
        <time>2022-07-05T16:37:36Z</time>
      </trkpt>
      <trkpt lat="42.148994" lon="-0.42670983">
        <time>2022-07-05T16:37:37Z</time>
      </trkpt>
      <trkpt lat="42.148968" lon="-0.4266472">
        <time>2022-07-05T16:37:38Z</time>
      </trkpt>
      <trkpt lat="42.14894" lon="-0.42657584">
        <time>2022-07-05T16:37:39Z</time>
      </trkpt>
      <trkpt lat="42.148914" lon="-0.42650852">
        <time>2022-07-05T16:37:40Z</time>
      </trkpt>
      <trkpt lat="42.148888" lon="-0.42643952">
        <time>2022-07-05T16:37:41Z</time>
      </trkpt>
      <trkpt lat="42.148857" lon="-0.42636985">
        <time>2022-07-05T16:37:42Z</time>
      </trkpt>
      <trkpt lat="42.148827" lon="-0.42629987">
        <time>2022-07-05T16:37:43Z</time>
      </trkpt>
      <trkpt lat="42.1488" lon="-0.42622954">
        <time>2022-07-05T16:37:44Z</time>
      </trkpt>
      <trkpt lat="42.14877" lon="-0.42615852">
        <time>2022-07-05T16:37:45Z</time>
      </trkpt>
      <trkpt lat="42.148743" lon="-0.42608854">
        <time>2022-07-05T16:37:46Z</time>
      </trkpt>
      <trkpt lat="42.148712" lon="-0.42601788">
        <time>2022-07-05T16:37:47Z</time>
      </trkpt>
      <trkpt lat="42.148685" lon="-0.42594722">
        <time>2022-07-05T16:37:48Z</time>
      </trkpt>
      <trkpt lat="42.148655" lon="-0.4258769">
        <time>2022-07-05T16:37:49Z</time>
      </trkpt>
      <trkpt lat="42.148624" lon="-0.42580688">
        <time>2022-07-05T16:37:50Z</time>
      </trkpt>
      <trkpt lat="42.148594" lon="-0.42573687">
        <time>2022-07-05T16:37:51Z</time>
      </trkpt>
      <trkpt lat="42.148563" lon="-0.42566687">
        <time>2022-07-05T16:37:52Z</time>
      </trkpt>
      <trkpt lat="42.148533" lon="-0.4255962">
        <time>2022-07-05T16:37:53Z</time>
      </trkpt>
      <trkpt lat="42.148502" lon="-0.42552555">
        <time>2022-07-05T16:37:54Z</time>
      </trkpt>
      <trkpt lat="42.14847" lon="-0.4254549">
        <time>2022-07-05T16:37:55Z</time>
      </trkpt>
      <trkpt lat="42.14844" lon="-0.4253839">
        <time>2022-07-05T16:37:56Z</time>
      </trkpt>
      <trkpt lat="42.14841" lon="-0.42531225">
        <time>2022-07-05T16:37:57Z</time>
      </trkpt>
      <trkpt lat="42.14838" lon="-0.42523992">
        <time>2022-07-05T16:37:58Z</time>
      </trkpt>
      <trkpt lat="42.14835" lon="-0.42516825">
        <time>2022-07-05T16:37:59Z</time>
      </trkpt>
      <trkpt lat="42.14832" lon="-0.42509693">
        <time>2022-07-05T16:38:00Z</time>
      </trkpt>
      <trkpt lat="42.14829" lon="-0.42502627">
        <time>2022-07-05T16:38:01Z</time>
      </trkpt>
      <trkpt lat="42.14826" lon="-0.4249566">
        <time>2022-07-05T16:38:02Z</time>
      </trkpt>
      <trkpt lat="42.148228" lon="-0.42488828">
        <time>2022-07-05T16:38:03Z</time>
      </trkpt>
      <trkpt lat="42.148197" lon="-0.42482227">
        <time>2022-07-05T16:38:04Z</time>
      </trkpt>
      <trkpt lat="42.14817" lon="-0.42475694">
        <time>2022-07-05T16:38:05Z</time>
      </trkpt>
      <trkpt lat="42.14814" lon="-0.4246913">
        <time>2022-07-05T16:38:06Z</time>
      </trkpt>
      <trkpt lat="42.148113" lon="-0.42462695">
        <time>2022-07-05T16:38:07Z</time>
      </trkpt>
      <trkpt lat="42.148087" lon="-0.4245656">
        <time>2022-07-05T16:38:08Z</time>
      </trkpt>
      <trkpt lat="42.148056" lon="-0.4245093">
        <time>2022-07-05T16:38:09Z</time>
      </trkpt>
      <trkpt lat="42.147984" lon="-0.4244133">
        <time>2022-07-05T16:38:11Z</time>
      </trkpt>
      <trkpt lat="42.14791" lon="-0.42432797">
        <time>2022-07-05T16:38:13Z</time>
      </trkpt>
      <trkpt lat="42.147842" lon="-0.42422897">
        <time>2022-07-05T16:38:15Z</time>
      </trkpt>
      <trkpt lat="42.147797" lon="-0.42411464">
        <time>2022-07-05T16:38:17Z</time>
      </trkpt>
      <trkpt lat="42.147766" lon="-0.42399397">
        <time>2022-07-05T16:38:19Z</time>
      </trkpt>
      <trkpt lat="42.147743" lon="-0.42386696">
        <time>2022-07-05T16:38:21Z</time>
      </trkpt>
      <trkpt lat="42.147717" lon="-0.42372498">
        <time>2022-07-05T16:38:23Z</time>
      </trkpt>
      <trkpt lat="42.147705" lon="-0.42365897">
        <time>2022-07-05T16:38:24Z</time>
      </trkpt>
      <trkpt lat="42.14769" lon="-0.42359263">
        <time>2022-07-05T16:38:25Z</time>
      </trkpt>
      <trkpt lat="42.14767" lon="-0.42352632">
        <time>2022-07-05T16:38:26Z</time>
      </trkpt>
      <trkpt lat="42.147648" lon="-0.423461">
        <time>2022-07-05T16:38:27Z</time>
      </trkpt>
      <trkpt lat="42.147625" lon="-0.42339498">
        <time>2022-07-05T16:38:28Z</time>
      </trkpt>
      <trkpt lat="42.1476" lon="-0.42332965">
        <time>2022-07-05T16:38:29Z</time>
      </trkpt>
      <trkpt lat="42.14757" lon="-0.423264">
        <time>2022-07-05T16:38:30Z</time>
      </trkpt>
      <trkpt lat="42.147545" lon="-0.42319334">
        <time>2022-07-05T16:38:31Z</time>
      </trkpt>
      <trkpt lat="42.14752" lon="-0.423124">
        <time>2022-07-05T16:38:32Z</time>
      </trkpt>
      <trkpt lat="42.14749" lon="-0.42306">
        <time>2022-07-05T16:38:33Z</time>
      </trkpt>
      <trkpt lat="42.147465" lon="-0.422995">
        <time>2022-07-05T16:38:34Z</time>
      </trkpt>
      <trkpt lat="42.147438" lon="-0.42293">
        <time>2022-07-05T16:38:35Z</time>
      </trkpt>
      <trkpt lat="42.147408" lon="-0.42286134">
        <time>2022-07-05T16:38:36Z</time>
      </trkpt>
      <trkpt lat="42.14738" lon="-0.42279434">
        <time>2022-07-05T16:38:37Z</time>
      </trkpt>
      <trkpt lat="42.14735" lon="-0.42272735">
        <time>2022-07-05T16:38:38Z</time>
      </trkpt>
      <trkpt lat="42.14732" lon="-0.42266035">
        <time>2022-07-05T16:38:39Z</time>
      </trkpt>
      <trkpt lat="42.147293" lon="-0.42259434">
        <time>2022-07-05T16:38:40Z</time>
      </trkpt>
      <trkpt lat="42.147263" lon="-0.422528">
        <time>2022-07-05T16:38:41Z</time>
      </trkpt>
      <trkpt lat="42.147232" lon="-0.422461">
        <time>2022-07-05T16:38:42Z</time>
      </trkpt>
      <trkpt lat="42.147205" lon="-0.422394">
        <time>2022-07-05T16:38:43Z</time>
      </trkpt>
      <trkpt lat="42.147175" lon="-0.42232767">
        <time>2022-07-05T16:38:44Z</time>
      </trkpt>
      <trkpt lat="42.14715" lon="-0.42226234">
        <time>2022-07-05T16:38:45Z</time>
      </trkpt>
      <trkpt lat="42.14712" lon="-0.42219836">
        <time>2022-07-05T16:38:46Z</time>
      </trkpt>
      <trkpt lat="42.147095" lon="-0.42213434">
        <time>2022-07-05T16:38:47Z</time>
      </trkpt>
      <trkpt lat="42.147064" lon="-0.42207003">
        <time>2022-07-05T16:38:48Z</time>
      </trkpt>
      <trkpt lat="42.147038" lon="-0.42200568">
        <time>2022-07-05T16:38:49Z</time>
      </trkpt>
      <trkpt lat="42.14701" lon="-0.4219417">
        <time>2022-07-05T16:38:50Z</time>
      </trkpt>
      <trkpt lat="42.146984" lon="-0.42187837">
        <time>2022-07-05T16:38:51Z</time>
      </trkpt>
      <trkpt lat="42.146957" lon="-0.42181504">
        <time>2022-07-05T16:38:52Z</time>
      </trkpt>
      <trkpt lat="42.14693" lon="-0.42175204">
        <time>2022-07-05T16:38:53Z</time>
      </trkpt>
      <trkpt lat="42.146904" lon="-0.42169037">
        <time>2022-07-05T16:38:54Z</time>
      </trkpt>
      <trkpt lat="42.146877" lon="-0.4216297">
        <time>2022-07-05T16:38:55Z</time>
      </trkpt>
      <trkpt lat="42.146828" lon="-0.4215137">
        <time>2022-07-05T16:38:57Z</time>
      </trkpt>
      <trkpt lat="42.146782" lon="-0.42140138">
        <time>2022-07-05T16:38:59Z</time>
      </trkpt>
      <trkpt lat="42.146736" lon="-0.42128906">
        <time>2022-07-05T16:39:01Z</time>
      </trkpt>
      <trkpt lat="42.146713" lon="-0.42123038">
        <time>2022-07-05T16:39:02Z</time>
      </trkpt>
      <trkpt lat="42.146667" lon="-0.4211234">
        <time>2022-07-05T16:39:04Z</time>
      </trkpt>
      <trkpt lat="42.14662" lon="-0.42101505">
        <time>2022-07-05T16:39:06Z</time>
      </trkpt>
      <trkpt lat="42.1466" lon="-0.42095974">
        <time>2022-07-05T16:39:07Z</time>
      </trkpt>
      <trkpt lat="42.146553" lon="-0.42084908">
        <time>2022-07-05T16:39:09Z</time>
      </trkpt>
      <trkpt lat="42.14651" lon="-0.42074174">
        <time>2022-07-05T16:39:11Z</time>
      </trkpt>
      <trkpt lat="42.14647" lon="-0.42063707">
        <time>2022-07-05T16:39:13Z</time>
      </trkpt>
      <trkpt lat="42.146423" lon="-0.4205221">
        <time>2022-07-05T16:39:15Z</time>
      </trkpt>
      <trkpt lat="42.146397" lon="-0.42046142">
        <time>2022-07-05T16:39:16Z</time>
      </trkpt>
      <trkpt lat="42.146374" lon="-0.4204004">
        <time>2022-07-05T16:39:17Z</time>
      </trkpt>
      <trkpt lat="42.146317" lon="-0.42027742">
        <time>2022-07-05T16:39:19Z</time>
      </trkpt>
      <trkpt lat="42.146286" lon="-0.42021376">
        <time>2022-07-05T16:39:20Z</time>
      </trkpt>
      <trkpt lat="42.146255" lon="-0.4201531">
        <time>2022-07-05T16:39:21Z</time>
      </trkpt>
      <trkpt lat="42.146202" lon="-0.42003745">
        <time>2022-07-05T16:39:23Z</time>
      </trkpt>
      <trkpt lat="42.14615" lon="-0.41992012">
        <time>2022-07-05T16:39:25Z</time>
      </trkpt>
      <trkpt lat="42.1461" lon="-0.41981146">
        <time>2022-07-05T16:39:27Z</time>
      </trkpt>
      <trkpt lat="42.146053" lon="-0.41970244">
        <time>2022-07-05T16:39:29Z</time>
      </trkpt>
      <trkpt lat="42.146008" lon="-0.4195941">
        <time>2022-07-05T16:39:31Z</time>
      </trkpt>
      <trkpt lat="42.14596" lon="-0.41948378">
        <time>2022-07-05T16:39:33Z</time>
      </trkpt>
      <trkpt lat="42.145935" lon="-0.4194198">
        <time>2022-07-05T16:39:34Z</time>
      </trkpt>
      <trkpt lat="42.14591" lon="-0.41935545">
        <time>2022-07-05T16:39:35Z</time>
      </trkpt>
      <trkpt lat="42.14588" lon="-0.41929212">
        <time>2022-07-05T16:39:36Z</time>
      </trkpt>
      <trkpt lat="42.14586" lon="-0.41922846">
        <time>2022-07-05T16:39:37Z</time>
      </trkpt>
      <trkpt lat="42.145832" lon="-0.4191668">
        <time>2022-07-05T16:39:38Z</time>
      </trkpt>
      <trkpt lat="42.14581" lon="-0.4191058">
        <time>2022-07-05T16:39:39Z</time>
      </trkpt>
      <trkpt lat="42.145763" lon="-0.4189848">
        <time>2022-07-05T16:39:41Z</time>
      </trkpt>
      <trkpt lat="42.145744" lon="-0.41892982">
        <time>2022-07-05T16:39:42Z</time>
      </trkpt>
      <trkpt lat="42.1457" lon="-0.4188128">
        <time>2022-07-05T16:39:44Z</time>
      </trkpt>
      <trkpt lat="42.145676" lon="-0.41875514">
        <time>2022-07-05T16:39:45Z</time>
      </trkpt>
      <trkpt lat="42.14563" lon="-0.4186468">
        <time>2022-07-05T16:39:47Z</time>
      </trkpt>
      <trkpt lat="42.145588" lon="-0.4185375">
        <time>2022-07-05T16:39:49Z</time>
      </trkpt>
      <trkpt lat="42.14554" lon="-0.4184365">
        <time>2022-07-05T16:39:51Z</time>
      </trkpt>
      <trkpt lat="42.14549" lon="-0.4183405">
        <time>2022-07-05T16:39:53Z</time>
      </trkpt>
      <trkpt lat="42.145447" lon="-0.41824782">
        <time>2022-07-05T16:39:55Z</time>
      </trkpt>
      <trkpt lat="42.14541" lon="-0.41815016">
        <time>2022-07-05T16:39:57Z</time>
      </trkpt>
      <trkpt lat="42.145367" lon="-0.4180515">
        <time>2022-07-05T16:39:59Z</time>
      </trkpt>
      <trkpt lat="42.14532" lon="-0.4179525">
        <time>2022-07-05T16:40:01Z</time>
      </trkpt>
      <trkpt lat="42.14527" lon="-0.4178485">
        <time>2022-07-05T16:40:03Z</time>
      </trkpt>
      <trkpt lat="42.145226" lon="-0.41774717">
        <time>2022-07-05T16:40:05Z</time>
      </trkpt>
      <trkpt lat="42.14518" lon="-0.41764218">
        <time>2022-07-05T16:40:07Z</time>
      </trkpt>
      <trkpt lat="42.14513" lon="-0.4175355">
        <time>2022-07-05T16:40:09Z</time>
      </trkpt>
      <trkpt lat="42.14508" lon="-0.41742587">
        <time>2022-07-05T16:40:11Z</time>
      </trkpt>
      <trkpt lat="42.145035" lon="-0.41731486">
        <time>2022-07-05T16:40:13Z</time>
      </trkpt>
      <trkpt lat="42.145008" lon="-0.41725853">
        <time>2022-07-05T16:40:14Z</time>
      </trkpt>
      <trkpt lat="42.144962" lon="-0.41714987">
        <time>2022-07-05T16:40:16Z</time>
      </trkpt>
      <trkpt lat="42.14492" lon="-0.4170452">
        <time>2022-07-05T16:40:18Z</time>
      </trkpt>
      <trkpt lat="42.14488" lon="-0.41694355">
        <time>2022-07-05T16:40:20Z</time>
      </trkpt>
      <trkpt lat="42.144836" lon="-0.41684654">
        <time>2022-07-05T16:40:22Z</time>
      </trkpt>
      <trkpt lat="42.14479" lon="-0.4167479">
        <time>2022-07-05T16:40:24Z</time>
      </trkpt>
      <trkpt lat="42.144753" lon="-0.41665357">
        <time>2022-07-05T16:40:26Z</time>
      </trkpt>
      <trkpt lat="42.144714" lon="-0.4165629">
        <time>2022-07-05T16:40:28Z</time>
      </trkpt>
      <trkpt lat="42.14468" lon="-0.41647857">
        <time>2022-07-05T16:40:30Z</time>
      </trkpt>
      <trkpt lat="42.144627" lon="-0.41639456">
        <time>2022-07-05T16:40:32Z</time>
      </trkpt>
      <trkpt lat="42.14457" lon="-0.41631058">
        <time>2022-07-05T16:40:34Z</time>
      </trkpt>
      <trkpt lat="42.144512" lon="-0.4162189">
        <time>2022-07-05T16:40:36Z</time>
      </trkpt>
      <trkpt lat="42.14449" lon="-0.41611326">
        <time>2022-07-05T16:40:38Z</time>
      </trkpt>
      <trkpt lat="42.144478" lon="-0.41599926">
        <time>2022-07-05T16:40:40Z</time>
      </trkpt>
      <trkpt lat="42.144447" lon="-0.41588992">
        <time>2022-07-05T16:40:42Z</time>
      </trkpt>
      <trkpt lat="42.14441" lon="-0.41578627">
        <time>2022-07-05T16:40:44Z</time>
      </trkpt>
      <trkpt lat="42.144363" lon="-0.4156856">
        <time>2022-07-05T16:40:46Z</time>
      </trkpt>
      <trkpt lat="42.14432" lon="-0.4155856">
        <time>2022-07-05T16:40:48Z</time>
      </trkpt>
      <trkpt lat="42.14428" lon="-0.41548526">
        <time>2022-07-05T16:40:50Z</time>
      </trkpt>
      <trkpt lat="42.14424" lon="-0.41538194">
        <time>2022-07-05T16:40:52Z</time>
      </trkpt>
      <trkpt lat="42.144196" lon="-0.4152786">
        <time>2022-07-05T16:40:54Z</time>
      </trkpt>
      <trkpt lat="42.144146" lon="-0.41517195">
        <time>2022-07-05T16:40:56Z</time>
      </trkpt>
      <trkpt lat="42.144123" lon="-0.41512328">
        <time>2022-07-05T16:40:57Z</time>
      </trkpt>
      <trkpt lat="42.144077" lon="-0.41503197">
        <time>2022-07-05T16:40:59Z</time>
      </trkpt>
      <trkpt lat="42.144043" lon="-0.41493997">
        <time>2022-07-05T16:41:01Z</time>
      </trkpt>
      <trkpt lat="42.144016" lon="-0.41483864">
        <time>2022-07-05T16:41:03Z</time>
      </trkpt>
      <trkpt lat="42.143982" lon="-0.41473597">
        <time>2022-07-05T16:41:05Z</time>
      </trkpt>
      <trkpt lat="42.143948" lon="-0.41463497">
        <time>2022-07-05T16:41:07Z</time>
      </trkpt>
      <trkpt lat="42.14391" lon="-0.41453764">
        <time>2022-07-05T16:41:09Z</time>
      </trkpt>
      <trkpt lat="42.14387" lon="-0.41444597">
        <time>2022-07-05T16:41:11Z</time>
      </trkpt>
      <trkpt lat="42.143833" lon="-0.41435766">
        <time>2022-07-05T16:41:13Z</time>
      </trkpt>
      <trkpt lat="42.143795" lon="-0.414268">
        <time>2022-07-05T16:41:15Z</time>
      </trkpt>
      <trkpt lat="42.143757" lon="-0.41417834">
        <time>2022-07-05T16:41:17Z</time>
      </trkpt>
      <trkpt lat="42.143723" lon="-0.41408667">
        <time>2022-07-05T16:41:19Z</time>
      </trkpt>
      <trkpt lat="42.143684" lon="-0.41400167">
        <time>2022-07-05T16:41:21Z</time>
      </trkpt>
      <trkpt lat="42.14365" lon="-0.413923">
        <time>2022-07-05T16:41:23Z</time>
      </trkpt>
      <trkpt lat="42.143612" lon="-0.4138437">
        <time>2022-07-05T16:41:25Z</time>
      </trkpt>
      <trkpt lat="42.143574" lon="-0.41376767">
        <time>2022-07-05T16:41:27Z</time>
      </trkpt>
      <trkpt lat="42.143517" lon="-0.41366467">
        <time>2022-07-05T16:41:30Z</time>
      </trkpt>
      <trkpt lat="42.143475" lon="-0.4135947">
        <time>2022-07-05T16:41:32Z</time>
      </trkpt>
      <trkpt lat="42.143444" lon="-0.4135117">
        <time>2022-07-05T16:41:34Z</time>
      </trkpt>
      <trkpt lat="42.143417" lon="-0.41342235">
        <time>2022-07-05T16:41:36Z</time>
      </trkpt>
      <trkpt lat="42.143387" lon="-0.41334268">
        <time>2022-07-05T16:41:38Z</time>
      </trkpt>
      <trkpt lat="42.143353" lon="-0.41327202">
        <time>2022-07-05T16:41:40Z</time>
      </trkpt>
      <trkpt lat="42.14331" lon="-0.41319302">
        <time>2022-07-05T16:41:42Z</time>
      </trkpt>
      <trkpt lat="42.143257" lon="-0.4131127">
        <time>2022-07-05T16:41:44Z</time>
      </trkpt>
      <trkpt lat="42.14321" lon="-0.41302904">
        <time>2022-07-05T16:41:46Z</time>
      </trkpt>
      <trkpt lat="42.14317" lon="-0.41295904">
        <time>2022-07-05T16:41:48Z</time>
      </trkpt>
      <trkpt lat="42.14312" lon="-0.41289505">
        <time>2022-07-05T16:41:50Z</time>
      </trkpt>
      <trkpt lat="42.143047" lon="-0.41283837">
        <time>2022-07-05T16:41:52Z</time>
      </trkpt>
      <trkpt lat="42.142963" lon="-0.41280505">
        <time>2022-07-05T16:41:54Z</time>
      </trkpt>
      <trkpt lat="42.142883" lon="-0.41277206">
        <time>2022-07-05T16:41:56Z</time>
      </trkpt>
      <trkpt lat="42.14282" lon="-0.41273004">
        <time>2022-07-05T16:41:58Z</time>
      </trkpt>
      <trkpt lat="42.142757" lon="-0.41267672">
        <time>2022-07-05T16:42:00Z</time>
      </trkpt>
      <trkpt lat="42.1427" lon="-0.4126184">
        <time>2022-07-05T16:42:02Z</time>
      </trkpt>
      <trkpt lat="42.14264" lon="-0.41257173">
        <time>2022-07-05T16:42:04Z</time>
      </trkpt>
      <trkpt lat="42.142563" lon="-0.4125354">
        <time>2022-07-05T16:42:06Z</time>
      </trkpt>
      <trkpt lat="42.14249" lon="-0.41251075">
        <time>2022-07-05T16:42:08Z</time>
      </trkpt>
      <trkpt lat="42.142426" lon="-0.41249207">
        <time>2022-07-05T16:42:10Z</time>
      </trkpt>
      <trkpt lat="42.14236" lon="-0.41247508">
        <time>2022-07-05T16:42:12Z</time>
      </trkpt>
      <trkpt lat="42.14232" lon="-0.41245976">
        <time>2022-07-05T16:42:14Z</time>
      </trkpt>
      <trkpt lat="42.14217" lon="-0.4124724">
        <time>2022-07-05T16:44:35Z</time>
      </trkpt>
      <trkpt lat="42.142117" lon="-0.41242108">
        <time>2022-07-05T16:44:37Z</time>
      </trkpt>
      <trkpt lat="42.142067" lon="-0.41235074">
        <time>2022-07-05T16:44:39Z</time>
      </trkpt>
      <trkpt lat="42.142014" lon="-0.41228208">
        <time>2022-07-05T16:44:41Z</time>
      </trkpt>
      <trkpt lat="42.141956" lon="-0.41222575">
        <time>2022-07-05T16:44:43Z</time>
      </trkpt>
      <trkpt lat="42.141895" lon="-0.41217977">
        <time>2022-07-05T16:44:45Z</time>
      </trkpt>
      <trkpt lat="42.141827" lon="-0.41213542">
        <time>2022-07-05T16:44:47Z</time>
      </trkpt>
      <trkpt lat="42.14175" lon="-0.41209042">
        <time>2022-07-05T16:44:49Z</time>
      </trkpt>
      <trkpt lat="42.141678" lon="-0.41204143">
        <time>2022-07-05T16:44:51Z</time>
      </trkpt>
      <trkpt lat="42.1416" lon="-0.4119871">
        <time>2022-07-05T16:44:53Z</time>
      </trkpt>
      <trkpt lat="42.14153" lon="-0.41192943">
        <time>2022-07-05T16:44:55Z</time>
      </trkpt>
      <trkpt lat="42.141457" lon="-0.41187045">
        <time>2022-07-05T16:44:57Z</time>
      </trkpt>
      <trkpt lat="42.141373" lon="-0.41181445">
        <time>2022-07-05T16:44:59Z</time>
      </trkpt>
      <trkpt lat="42.14128" lon="-0.4117611">
        <time>2022-07-05T16:45:01Z</time>
      </trkpt>
      <trkpt lat="42.141193" lon="-0.41170678">
        <time>2022-07-05T16:45:03Z</time>
      </trkpt>
      <trkpt lat="42.14115" lon="-0.4116781">
        <time>2022-07-05T16:45:04Z</time>
      </trkpt>
      <trkpt lat="42.141068" lon="-0.41161746">
        <time>2022-07-05T16:45:06Z</time>
      </trkpt>
      <trkpt lat="42.141026" lon="-0.41158512">
        <time>2022-07-05T16:45:07Z</time>
      </trkpt>
      <trkpt lat="42.14095" lon="-0.41151947">
        <time>2022-07-05T16:45:09Z</time>
      </trkpt>
      <trkpt lat="42.140873" lon="-0.41145247">
        <time>2022-07-05T16:45:11Z</time>
      </trkpt>
      <trkpt lat="42.1408" lon="-0.41138715">
        <time>2022-07-05T16:45:13Z</time>
      </trkpt>
      <trkpt lat="42.14072" lon="-0.41132715">
        <time>2022-07-05T16:45:15Z</time>
      </trkpt>
      <trkpt lat="42.140636" lon="-0.41127115">
        <time>2022-07-05T16:45:17Z</time>
      </trkpt>
      <trkpt lat="42.140556" lon="-0.41122347">
        <time>2022-07-05T16:45:19Z</time>
      </trkpt>
      <trkpt lat="42.140472" lon="-0.4111755">
        <time>2022-07-05T16:45:21Z</time>
      </trkpt>
      <trkpt lat="42.140385" lon="-0.41113016">
        <time>2022-07-05T16:45:23Z</time>
      </trkpt>
      <trkpt lat="42.140293" lon="-0.41108814">
        <time>2022-07-05T16:45:25Z</time>
      </trkpt>
      <trkpt lat="42.140167" lon="-0.4110295">
        <time>2022-07-05T16:45:28Z</time>
      </trkpt>
      <trkpt lat="42.14008" lon="-0.41099083">
        <time>2022-07-05T16:45:30Z</time>
      </trkpt>
      <trkpt lat="42.140034" lon="-0.41096416">
        <time>2022-07-05T16:45:31Z</time>
      </trkpt>
      <trkpt lat="42.139942" lon="-0.41089985">
        <time>2022-07-05T16:45:33Z</time>
      </trkpt>
      <trkpt lat="42.13986" lon="-0.4108342">
        <time>2022-07-05T16:45:35Z</time>
      </trkpt>
      <trkpt lat="42.139774" lon="-0.41076985">
        <time>2022-07-05T16:45:37Z</time>
      </trkpt>
      <trkpt lat="42.139732" lon="-0.41073853">
        <time>2022-07-05T16:45:38Z</time>
      </trkpt>
      <trkpt lat="42.139668" lon="-0.41067386">
        <time>2022-07-05T16:45:40Z</time>
      </trkpt>
      <trkpt lat="42.13962" lon="-0.4105952">
        <time>2022-07-05T16:45:42Z</time>
      </trkpt>
      <trkpt lat="42.139614" lon="-0.41052088">
        <time>2022-07-05T16:45:44Z</time>
      </trkpt>
      <trkpt lat="42.13963" lon="-0.41045955">
        <time>2022-07-05T16:45:46Z</time>
      </trkpt>
      <trkpt lat="42.139664" lon="-0.41038355">
        <time>2022-07-05T16:45:49Z</time>
      </trkpt>
      <trkpt lat="42.139694" lon="-0.41031787">
        <time>2022-07-05T16:45:52Z</time>
      </trkpt>
      <trkpt lat="42.139732" lon="-0.41026688">
        <time>2022-07-05T16:45:55Z</time>
      </trkpt>
      <trkpt lat="42.13978" lon="-0.4102162">
        <time>2022-07-05T16:45:58Z</time>
      </trkpt>
      <trkpt lat="42.139805" lon="-0.41015655">
        <time>2022-07-05T16:46:01Z</time>
      </trkpt>
      <trkpt lat="42.139843" lon="-0.41008255">
        <time>2022-07-05T16:46:05Z</time>
      </trkpt>
      <trkpt lat="42.139877" lon="-0.41002923">
        <time>2022-07-05T16:46:08Z</time>
      </trkpt>
      <trkpt lat="42.139935" lon="-0.40999258">
        <time>2022-07-05T16:46:12Z</time>
      </trkpt>
      <trkpt lat="42.140007" lon="-0.41000223">
        <time>2022-07-05T16:46:16Z</time>
      </trkpt>
      <trkpt lat="42.140076" lon="-0.41003123">
        <time>2022-07-05T16:46:19Z</time>
      </trkpt>
      <trkpt lat="42.140125" lon="-0.41006857">
        <time>2022-07-05T16:46:22Z</time>
      </trkpt>
      <trkpt lat="42.140167" lon="-0.41010255">
        <time>2022-07-05T16:46:25Z</time>
      </trkpt>
      <trkpt lat="42.14021" lon="-0.41014022">
        <time>2022-07-05T16:46:28Z</time>
      </trkpt>
      <trkpt lat="42.140247" lon="-0.41020623">
        <time>2022-07-05T16:46:32Z</time>
      </trkpt>
      <trkpt lat="42.14028" lon="-0.41024154">
        <time>2022-07-05T16:46:38Z</time>
      </trkpt>
      <trkpt lat="42.140408" lon="-0.40992454">
        <time>2022-07-05T16:47:44Z</time>
      </trkpt>
      <trkpt lat="42.140408" lon="-0.40983754">
        <time>2022-07-05T16:47:48Z</time>
      </trkpt>
      <trkpt lat="42.14041" lon="-0.40976655">
        <time>2022-07-05T16:47:51Z</time>
      </trkpt>
      <trkpt lat="42.140446" lon="-0.4097132">
        <time>2022-07-05T16:47:55Z</time>
      </trkpt>
      <trkpt lat="42.14049" lon="-0.4096822">
        <time>2022-07-05T16:48:00Z</time>
      </trkpt>
      <trkpt lat="42.140553" lon="-0.4096759">
        <time>2022-07-05T16:48:23Z</time>
      </trkpt>
      <trkpt lat="42.14061" lon="-0.4096862">
        <time>2022-07-05T16:48:28Z</time>
      </trkpt>
      <trkpt lat="42.140663" lon="-0.40969688">
        <time>2022-07-05T16:48:32Z</time>
      </trkpt>
      <trkpt lat="42.14072" lon="-0.40972087">
        <time>2022-07-05T16:48:37Z</time>
      </trkpt>
      <trkpt lat="42.140785" lon="-0.40973753">
        <time>2022-07-05T16:48:41Z</time>
      </trkpt>
      <trkpt lat="42.14084" lon="-0.4097522">
        <time>2022-07-05T16:48:45Z</time>
      </trkpt>
      <trkpt lat="42.14088" lon="-0.40978554">
        <time>2022-07-05T16:48:49Z</time>
      </trkpt>
      <trkpt lat="42.14093" lon="-0.40982452">
        <time>2022-07-05T16:48:54Z</time>
      </trkpt>
      <trkpt lat="42.140984" lon="-0.40982154">
        <time>2022-07-05T16:49:01Z</time>
      </trkpt>
      <trkpt lat="42.14097" lon="-0.40979254">
        <time>2022-07-05T16:49:11Z</time>
      </trkpt>
      <trkpt lat="42.140854" lon="-0.40983286">
        <time>2022-07-05T16:50:25Z</time>
      </trkpt>
      <trkpt lat="42.14082" lon="-0.40984285">
        <time>2022-07-05T16:50:30Z</time>
      </trkpt>
      <trkpt lat="42.13954" lon="-0.4094292">
        <time>2022-07-05T17:09:18Z</time>
      </trkpt>
      <trkpt lat="42.140934" lon="-0.4100702">
        <time>2022-07-05T17:09:40Z</time>
      </trkpt>
      <trkpt lat="42.140903" lon="-0.41003454">
        <time>2022-07-05T17:09:46Z</time>
      </trkpt>
      <trkpt lat="42.140907" lon="-0.4100242">
        <time>2022-07-05T17:10:01Z</time>
      </trkpt>
      <trkpt lat="42.140873" lon="-0.4100292">
        <time>2022-07-05T17:10:09Z</time>
      </trkpt>
      <trkpt lat="42.140667" lon="-0.41002986">
        <time>2022-07-05T17:10:16Z</time>
      </trkpt>
      <trkpt lat="42.140614" lon="-0.41002187">
        <time>2022-07-05T17:10:17Z</time>
      </trkpt>
      <trkpt lat="42.140553" lon="-0.41001055">
        <time>2022-07-05T17:10:18Z</time>
      </trkpt>
      <trkpt lat="42.13614" lon="-0.40324166">
        <time>2022-07-06T08:19:54Z</time>
      </trkpt>
      <trkpt lat="42.13614" lon="-0.40324166">
        <time>2022-07-06T08:19:54Z</time>
      </trkpt>
      <trkpt lat="42.13609" lon="-0.4032483">
        <time>2022-07-06T08:19:55Z</time>
      </trkpt>
      <trkpt lat="42.13608" lon="-0.403247">
        <time>2022-07-06T08:19:56Z</time>
      </trkpt>
      <trkpt lat="42.13606" lon="-0.40325165">
        <time>2022-07-06T08:19:57Z</time>
      </trkpt>
      <trkpt lat="42.13602" lon="-0.40326032">
        <time>2022-07-06T08:19:58Z</time>
      </trkpt>
      <trkpt lat="42.135925" lon="-0.40327564">
        <time>2022-07-06T08:20:00Z</time>
      </trkpt>
      <trkpt lat="42.135815" lon="-0.40328863">
        <time>2022-07-06T08:20:02Z</time>
      </trkpt>
      <trkpt lat="42.13569" lon="-0.40328896">
        <time>2022-07-06T08:20:04Z</time>
      </trkpt>
      <trkpt lat="42.135624" lon="-0.40328363">
        <time>2022-07-06T08:20:05Z</time>
      </trkpt>
      <trkpt lat="42.13556" lon="-0.403278">
        <time>2022-07-06T08:20:06Z</time>
      </trkpt>
      <trkpt lat="42.135498" lon="-0.40327266">
        <time>2022-07-06T08:20:07Z</time>
      </trkpt>
      <trkpt lat="42.135437" lon="-0.403269">
        <time>2022-07-06T08:20:08Z</time>
      </trkpt>
      <trkpt lat="42.135376" lon="-0.40326667">
        <time>2022-07-06T08:20:09Z</time>
      </trkpt>
      <trkpt lat="42.13532" lon="-0.40326333">
        <time>2022-07-06T08:20:10Z</time>
      </trkpt>
      <trkpt lat="42.135254" lon="-0.40325668">
        <time>2022-07-06T08:20:11Z</time>
      </trkpt>
      <trkpt lat="42.135193" lon="-0.40324834">
        <time>2022-07-06T08:20:12Z</time>
      </trkpt>
      <trkpt lat="42.135136" lon="-0.40323633">
        <time>2022-07-06T08:20:13Z</time>
      </trkpt>
      <trkpt lat="42.135075" lon="-0.40322268">
        <time>2022-07-06T08:20:14Z</time>
      </trkpt>
      <trkpt lat="42.135014" lon="-0.4032097">
        <time>2022-07-06T08:20:15Z</time>
      </trkpt>
      <trkpt lat="42.13496" lon="-0.40320003">
        <time>2022-07-06T08:20:16Z</time>
      </trkpt>
      <trkpt lat="42.134907" lon="-0.40319103">
        <time>2022-07-06T08:20:17Z</time>
      </trkpt>
      <trkpt lat="42.134853" lon="-0.4031837">
        <time>2022-07-06T08:20:18Z</time>
      </trkpt>
      <trkpt lat="42.1348" lon="-0.4031787">
        <time>2022-07-06T08:20:19Z</time>
      </trkpt>
      <trkpt lat="42.134743" lon="-0.40317303">
        <time>2022-07-06T08:20:20Z</time>
      </trkpt>
      <trkpt lat="42.134693" lon="-0.40316603">
        <time>2022-07-06T08:20:21Z</time>
      </trkpt>
      <trkpt lat="42.13464" lon="-0.40315804">
        <time>2022-07-06T08:20:22Z</time>
      </trkpt>
      <trkpt lat="42.13454" lon="-0.40314004">
        <time>2022-07-06T08:20:24Z</time>
      </trkpt>
      <trkpt lat="42.13449" lon="-0.40313137">
        <time>2022-07-06T08:20:25Z</time>
      </trkpt>
      <trkpt lat="42.134434" lon="-0.4031217">
        <time>2022-07-06T08:20:26Z</time>
      </trkpt>
      <trkpt lat="42.134384" lon="-0.40311104">
        <time>2022-07-06T08:20:27Z</time>
      </trkpt>
      <trkpt lat="42.134285" lon="-0.4030914">
        <time>2022-07-06T08:20:29Z</time>
      </trkpt>
      <trkpt lat="42.134193" lon="-0.40307206">
        <time>2022-07-06T08:20:31Z</time>
      </trkpt>
      <trkpt lat="42.1341" lon="-0.40305007">
        <time>2022-07-06T08:20:33Z</time>
      </trkpt>
      <trkpt lat="42.13401" lon="-0.4030254">
        <time>2022-07-06T08:20:35Z</time>
      </trkpt>
      <trkpt lat="42.133926" lon="-0.4030034">
        <time>2022-07-06T08:20:37Z</time>
      </trkpt>
      <trkpt lat="42.133858" lon="-0.40298674">
        <time>2022-07-06T08:20:39Z</time>
      </trkpt>
      <trkpt lat="42.133804" lon="-0.4029734">
        <time>2022-07-06T08:20:41Z</time>
      </trkpt>
      <trkpt lat="42.133724" lon="-0.40294242">
        <time>2022-07-06T08:20:44Z</time>
      </trkpt>
      <trkpt lat="42.13366" lon="-0.40291676">
        <time>2022-07-06T08:20:46Z</time>
      </trkpt>
      <trkpt lat="42.13359" lon="-0.4028791">
        <time>2022-07-06T08:20:48Z</time>
      </trkpt>
      <trkpt lat="42.13352" lon="-0.4028431">
        <time>2022-07-06T08:20:50Z</time>
      </trkpt>
      <trkpt lat="42.133446" lon="-0.4028051">
        <time>2022-07-06T08:20:52Z</time>
      </trkpt>
      <trkpt lat="42.133366" lon="-0.40276542">
        <time>2022-07-06T08:20:54Z</time>
      </trkpt>
      <trkpt lat="42.133286" lon="-0.4027191">
        <time>2022-07-06T08:20:56Z</time>
      </trkpt>
      <trkpt lat="42.133198" lon="-0.4026741">
        <time>2022-07-06T08:20:58Z</time>
      </trkpt>
      <trkpt lat="42.133106" lon="-0.40262944">
        <time>2022-07-06T08:21:00Z</time>
      </trkpt>
      <trkpt lat="42.13301" lon="-0.40259212">
        <time>2022-07-06T08:21:02Z</time>
      </trkpt>
      <trkpt lat="42.13291" lon="-0.4025591">
        <time>2022-07-06T08:21:04Z</time>
      </trkpt>
      <trkpt lat="42.13282" lon="-0.40252978">
        <time>2022-07-06T08:21:06Z</time>
      </trkpt>
      <trkpt lat="42.132725" lon="-0.40250513">
        <time>2022-07-06T08:21:08Z</time>
      </trkpt>
      <trkpt lat="42.132637" lon="-0.40247613">
        <time>2022-07-06T08:21:10Z</time>
      </trkpt>
      <trkpt lat="42.132553" lon="-0.40244213">
        <time>2022-07-06T08:21:12Z</time>
      </trkpt>
      <trkpt lat="42.13247" lon="-0.4024128">
        <time>2022-07-06T08:21:14Z</time>
      </trkpt>
      <trkpt lat="42.132378" lon="-0.40238446">
        <time>2022-07-06T08:21:16Z</time>
      </trkpt>
      <trkpt lat="42.132294" lon="-0.4023678">
        <time>2022-07-06T08:21:18Z</time>
      </trkpt>
      <trkpt lat="42.132214" lon="-0.4023788">
        <time>2022-07-06T08:21:20Z</time>
      </trkpt>
      <trkpt lat="42.13214" lon="-0.4024308">
        <time>2022-07-06T08:21:22Z</time>
      </trkpt>
      <trkpt lat="42.132076" lon="-0.4025088">
        <time>2022-07-06T08:21:24Z</time>
      </trkpt>
      <trkpt lat="42.132015" lon="-0.40259713">
        <time>2022-07-06T08:21:26Z</time>
      </trkpt>
      <trkpt lat="42.13195" lon="-0.4026958">
        <time>2022-07-06T08:21:28Z</time>
      </trkpt>
      <trkpt lat="42.13189" lon="-0.40280446">
        <time>2022-07-06T08:21:30Z</time>
      </trkpt>
      <trkpt lat="42.13186" lon="-0.40285978">
        <time>2022-07-06T08:21:31Z</time>
      </trkpt>
      <trkpt lat="42.131824" lon="-0.4029161">
        <time>2022-07-06T08:21:32Z</time>
      </trkpt>
      <trkpt lat="42.13176" lon="-0.4030371">
        <time>2022-07-06T08:21:34Z</time>
      </trkpt>
      <trkpt lat="42.13173" lon="-0.40309376">
        <time>2022-07-06T08:21:35Z</time>
      </trkpt>
      <trkpt lat="42.131695" lon="-0.40314844">
        <time>2022-07-06T08:21:36Z</time>
      </trkpt>
      <trkpt lat="42.13162" lon="-0.4032321">
        <time>2022-07-06T08:21:38Z</time>
      </trkpt>
      <trkpt lat="42.13153" lon="-0.40326142">
        <time>2022-07-06T08:21:40Z</time>
      </trkpt>
      <trkpt lat="42.131443" lon="-0.4032424">
        <time>2022-07-06T08:21:42Z</time>
      </trkpt>
      <trkpt lat="42.131355" lon="-0.40319175">
        <time>2022-07-06T08:21:44Z</time>
      </trkpt>
      <trkpt lat="42.13126" lon="-0.4031201">
        <time>2022-07-06T08:21:46Z</time>
      </trkpt>
      <trkpt lat="42.131214" lon="-0.4030811">
        <time>2022-07-06T08:21:47Z</time>
      </trkpt>
      <trkpt lat="42.13117" lon="-0.40304044">
        <time>2022-07-06T08:21:48Z</time>
      </trkpt>
      <trkpt lat="42.13112" lon="-0.40299878">
        <time>2022-07-06T08:21:49Z</time>
      </trkpt>
      <trkpt lat="42.13107" lon="-0.40295744">
        <time>2022-07-06T08:21:50Z</time>
      </trkpt>
      <trkpt lat="42.13102" lon="-0.4029168">
        <time>2022-07-06T08:21:51Z</time>
      </trkpt>
      <trkpt lat="42.13097" lon="-0.4028748">
        <time>2022-07-06T08:21:52Z</time>
      </trkpt>
      <trkpt lat="42.13092" lon="-0.4028338">
        <time>2022-07-06T08:21:53Z</time>
      </trkpt>
      <trkpt lat="42.13087" lon="-0.4027938">
        <time>2022-07-06T08:21:54Z</time>
      </trkpt>
      <trkpt lat="42.130825" lon="-0.40275213">
        <time>2022-07-06T08:21:55Z</time>
      </trkpt>
      <trkpt lat="42.130775" lon="-0.40271312">
        <time>2022-07-06T08:21:56Z</time>
      </trkpt>
      <trkpt lat="42.13073" lon="-0.40267614">
        <time>2022-07-06T08:21:57Z</time>
      </trkpt>
      <trkpt lat="42.130684" lon="-0.40264013">
        <time>2022-07-06T08:21:58Z</time>
      </trkpt>
      <trkpt lat="42.13064" lon="-0.40260413">
        <time>2022-07-06T08:21:59Z</time>
      </trkpt>
      <trkpt lat="42.13059" lon="-0.40256813">
        <time>2022-07-06T08:22:00Z</time>
      </trkpt>
      <trkpt lat="42.13054" lon="-0.40252948">
        <time>2022-07-06T08:22:01Z</time>
      </trkpt>
      <trkpt lat="42.130493" lon="-0.4024918">
        <time>2022-07-06T08:22:02Z</time>
      </trkpt>
      <trkpt lat="42.130447" lon="-0.4024565">
        <time>2022-07-06T08:22:03Z</time>
      </trkpt>
      <trkpt lat="42.130398" lon="-0.40242147">
        <time>2022-07-06T08:22:04Z</time>
      </trkpt>
      <trkpt lat="42.130352" lon="-0.4023865">
        <time>2022-07-06T08:22:05Z</time>
      </trkpt>
      <trkpt lat="42.130302" lon="-0.40235147">
        <time>2022-07-06T08:22:06Z</time>
      </trkpt>
      <trkpt lat="42.130253" lon="-0.40231514">
        <time>2022-07-06T08:22:07Z</time>
      </trkpt>
      <trkpt lat="42.1302" lon="-0.40227848">
        <time>2022-07-06T08:22:08Z</time>
      </trkpt>
      <trkpt lat="42.13015" lon="-0.40224183">
        <time>2022-07-06T08:22:09Z</time>
      </trkpt>
      <trkpt lat="42.1301" lon="-0.40220517">
        <time>2022-07-06T08:22:10Z</time>
      </trkpt>
      <trkpt lat="42.13005" lon="-0.40216917">
        <time>2022-07-06T08:22:11Z</time>
      </trkpt>
      <trkpt lat="42.130005" lon="-0.40213552">
        <time>2022-07-06T08:22:12Z</time>
      </trkpt>
      <trkpt lat="42.129955" lon="-0.4020992">
        <time>2022-07-06T08:22:13Z</time>
      </trkpt>
      <trkpt lat="42.129906" lon="-0.40206286">
        <time>2022-07-06T08:22:14Z</time>
      </trkpt>
      <trkpt lat="42.129852" lon="-0.4020252">
        <time>2022-07-06T08:22:15Z</time>
      </trkpt>
      <trkpt lat="42.129803" lon="-0.40198752">
        <time>2022-07-06T08:22:16Z</time>
      </trkpt>
      <trkpt lat="42.12975" lon="-0.4019512">
        <time>2022-07-06T08:22:17Z</time>
      </trkpt>
      <trkpt lat="42.1297" lon="-0.40191486">
        <time>2022-07-06T08:22:18Z</time>
      </trkpt>
      <trkpt lat="42.129646" lon="-0.40187886">
        <time>2022-07-06T08:22:19Z</time>
      </trkpt>
      <trkpt lat="42.129593" lon="-0.40184155">
        <time>2022-07-06T08:22:20Z</time>
      </trkpt>
      <trkpt lat="42.12954" lon="-0.40180454">
        <time>2022-07-06T08:22:21Z</time>
      </trkpt>
      <trkpt lat="42.129494" lon="-0.4017702">
        <time>2022-07-06T08:22:22Z</time>
      </trkpt>
      <trkpt lat="42.129444" lon="-0.4017362">
        <time>2022-07-06T08:22:23Z</time>
      </trkpt>
      <trkpt lat="42.129395" lon="-0.40170187">
        <time>2022-07-06T08:22:24Z</time>
      </trkpt>
      <trkpt lat="42.129345" lon="-0.4016652">
        <time>2022-07-06T08:22:25Z</time>
      </trkpt>
      <trkpt lat="42.129295" lon="-0.4016279">
        <time>2022-07-06T08:22:26Z</time>
      </trkpt>
      <trkpt lat="42.129246" lon="-0.4015899">
        <time>2022-07-06T08:22:27Z</time>
      </trkpt>
      <trkpt lat="42.1292" lon="-0.40155157">
        <time>2022-07-06T08:22:28Z</time>
      </trkpt>
      <trkpt lat="42.12915" lon="-0.4015139">
        <time>2022-07-06T08:22:29Z</time>
      </trkpt>
      <trkpt lat="42.1291" lon="-0.40147656">
        <time>2022-07-06T08:22:30Z</time>
      </trkpt>
      <trkpt lat="42.12905" lon="-0.40143856">
        <time>2022-07-06T08:22:31Z</time>
      </trkpt>
      <trkpt lat="42.129" lon="-0.4013989">
        <time>2022-07-06T08:22:32Z</time>
      </trkpt>
      <trkpt lat="42.128956" lon="-0.40136126">
        <time>2022-07-06T08:22:33Z</time>
      </trkpt>
      <trkpt lat="42.12891" lon="-0.40131992">
        <time>2022-07-06T08:22:34Z</time>
      </trkpt>
      <trkpt lat="42.12886" lon="-0.4012796">
        <time>2022-07-06T08:22:35Z</time>
      </trkpt>
      <trkpt lat="42.12881" lon="-0.4012386">
        <time>2022-07-06T08:22:36Z</time>
      </trkpt>
      <trkpt lat="42.12876" lon="-0.4012036">
        <time>2022-07-06T08:22:37Z</time>
      </trkpt>
      <trkpt lat="42.12871" lon="-0.40117094">
        <time>2022-07-06T08:22:38Z</time>
      </trkpt>
      <trkpt lat="42.128662" lon="-0.4011406">
        <time>2022-07-06T08:22:39Z</time>
      </trkpt>
      <trkpt lat="42.12861" lon="-0.40111294">
        <time>2022-07-06T08:22:40Z</time>
      </trkpt>
      <trkpt lat="42.128555" lon="-0.4010903">
        <time>2022-07-06T08:22:41Z</time>
      </trkpt>
      <trkpt lat="42.128445" lon="-0.40105796">
        <time>2022-07-06T08:22:43Z</time>
      </trkpt>
      <trkpt lat="42.12839" lon="-0.40104896">
        <time>2022-07-06T08:22:44Z</time>
      </trkpt>
      <trkpt lat="42.128334" lon="-0.4010426">
        <time>2022-07-06T08:22:45Z</time>
      </trkpt>
      <trkpt lat="42.12828" lon="-0.4010393">
        <time>2022-07-06T08:22:46Z</time>
      </trkpt>
      <trkpt lat="42.128223" lon="-0.40103662">
        <time>2022-07-06T08:22:47Z</time>
      </trkpt>
      <trkpt lat="42.12817" lon="-0.40103298">
        <time>2022-07-06T08:22:48Z</time>
      </trkpt>
      <trkpt lat="42.128117" lon="-0.4010253">
        <time>2022-07-06T08:22:49Z</time>
      </trkpt>
      <trkpt lat="42.128063" lon="-0.40101165">
        <time>2022-07-06T08:22:50Z</time>
      </trkpt>
      <trkpt lat="42.12801" lon="-0.40099198">
        <time>2022-07-06T08:22:51Z</time>
      </trkpt>
      <trkpt lat="42.127964" lon="-0.40096566">
        <time>2022-07-06T08:22:52Z</time>
      </trkpt>
      <trkpt lat="42.127876" lon="-0.40089133">
        <time>2022-07-06T08:22:54Z</time>
      </trkpt>
      <trkpt lat="42.127842" lon="-0.40084133">
        <time>2022-07-06T08:22:55Z</time>
      </trkpt>
      <trkpt lat="42.127785" lon="-0.400722">
        <time>2022-07-06T08:22:57Z</time>
      </trkpt>
      <trkpt lat="42.127758" lon="-0.40065768">
        <time>2022-07-06T08:22:58Z</time>
      </trkpt>
      <trkpt lat="42.12773" lon="-0.40059167">
        <time>2022-07-06T08:22:59Z</time>
      </trkpt>
      <trkpt lat="42.127705" lon="-0.40052634">
        <time>2022-07-06T08:23:00Z</time>
      </trkpt>
      <trkpt lat="42.127674" lon="-0.400462">
        <time>2022-07-06T08:23:01Z</time>
      </trkpt>
      <trkpt lat="42.12764" lon="-0.40039968">
        <time>2022-07-06T08:23:02Z</time>
      </trkpt>
      <trkpt lat="42.127605" lon="-0.4003397">
        <time>2022-07-06T08:23:03Z</time>
      </trkpt>
      <trkpt lat="42.127567" lon="-0.40028235">
        <time>2022-07-06T08:23:04Z</time>
      </trkpt>
      <trkpt lat="42.127525" lon="-0.40022802">
        <time>2022-07-06T08:23:05Z</time>
      </trkpt>
      <trkpt lat="42.127483" lon="-0.40017802">
        <time>2022-07-06T08:23:06Z</time>
      </trkpt>
      <trkpt lat="42.127438" lon="-0.40013102">
        <time>2022-07-06T08:23:07Z</time>
      </trkpt>
      <trkpt lat="42.127388" lon="-0.40008768">
        <time>2022-07-06T08:23:08Z</time>
      </trkpt>
      <trkpt lat="42.12734" lon="-0.40004703">
        <time>2022-07-06T08:23:09Z</time>
      </trkpt>
      <trkpt lat="42.12729" lon="-0.40000802">
        <time>2022-07-06T08:23:10Z</time>
      </trkpt>
      <trkpt lat="42.12724" lon="-0.3999707">
        <time>2022-07-06T08:23:11Z</time>
      </trkpt>
      <trkpt lat="42.12719" lon="-0.39993337">
        <time>2022-07-06T08:23:12Z</time>
      </trkpt>
      <trkpt lat="42.127136" lon="-0.39989603">
        <time>2022-07-06T08:23:13Z</time>
      </trkpt>
      <trkpt lat="42.127087" lon="-0.3998587">
        <time>2022-07-06T08:23:14Z</time>
      </trkpt>
      <trkpt lat="42.127037" lon="-0.39982104">
        <time>2022-07-06T08:23:15Z</time>
      </trkpt>
      <trkpt lat="42.126987" lon="-0.3997847">
        <time>2022-07-06T08:23:16Z</time>
      </trkpt>
      <trkpt lat="42.126938" lon="-0.39974806">
        <time>2022-07-06T08:23:17Z</time>
      </trkpt>
      <trkpt lat="42.126884" lon="-0.39970905">
        <time>2022-07-06T08:23:18Z</time>
      </trkpt>
      <trkpt lat="42.126835" lon="-0.39967072">
        <time>2022-07-06T08:23:19Z</time>
      </trkpt>
      <trkpt lat="42.126785" lon="-0.3996354">
        <time>2022-07-06T08:23:20Z</time>
      </trkpt>
      <trkpt lat="42.12673" lon="-0.39959773">
        <time>2022-07-06T08:23:21Z</time>
      </trkpt>
      <trkpt lat="42.126682" lon="-0.39955974">
        <time>2022-07-06T08:23:22Z</time>
      </trkpt>
      <trkpt lat="42.126633" lon="-0.39952174">
        <time>2022-07-06T08:23:23Z</time>
      </trkpt>
      <trkpt lat="42.12658" lon="-0.3994844">
        <time>2022-07-06T08:23:24Z</time>
      </trkpt>
      <trkpt lat="42.126526" lon="-0.39944708">
        <time>2022-07-06T08:23:25Z</time>
      </trkpt>
      <trkpt lat="42.126476" lon="-0.39940876">
        <time>2022-07-06T08:23:26Z</time>
      </trkpt>
      <trkpt lat="42.126423" lon="-0.39936975">
        <time>2022-07-06T08:23:27Z</time>
      </trkpt>
      <trkpt lat="42.12637" lon="-0.39933243">
        <time>2022-07-06T08:23:28Z</time>
      </trkpt>
      <trkpt lat="42.126316" lon="-0.39929542">
        <time>2022-07-06T08:23:29Z</time>
      </trkpt>
      <trkpt lat="42.126263" lon="-0.39925843">
        <time>2022-07-06T08:23:30Z</time>
      </trkpt>
      <trkpt lat="42.12621" lon="-0.39921975">
        <time>2022-07-06T08:23:31Z</time>
      </trkpt>
      <trkpt lat="42.126156" lon="-0.3991811">
        <time>2022-07-06T08:23:32Z</time>
      </trkpt>
      <trkpt lat="42.126102" lon="-0.3991421">
        <time>2022-07-06T08:23:33Z</time>
      </trkpt>
      <trkpt lat="42.12605" lon="-0.39910376">
        <time>2022-07-06T08:23:34Z</time>
      </trkpt>
      <trkpt lat="42.125996" lon="-0.39906478">
        <time>2022-07-06T08:23:35Z</time>
      </trkpt>
      <trkpt lat="42.125942" lon="-0.39902443">
        <time>2022-07-06T08:23:36Z</time>
      </trkpt>
      <trkpt lat="42.12589" lon="-0.39898378">
        <time>2022-07-06T08:23:37Z</time>
      </trkpt>
      <trkpt lat="42.125835" lon="-0.39894444">
        <time>2022-07-06T08:23:38Z</time>
      </trkpt>
      <trkpt lat="42.125782" lon="-0.39890546">
        <time>2022-07-06T08:23:39Z</time>
      </trkpt>
      <trkpt lat="42.12573" lon="-0.39886546">
        <time>2022-07-06T08:23:40Z</time>
      </trkpt>
      <trkpt lat="42.125675" lon="-0.39882478">
        <time>2022-07-06T08:23:41Z</time>
      </trkpt>
      <trkpt lat="42.12562" lon="-0.39878514">
        <time>2022-07-06T08:23:42Z</time>
      </trkpt>
      <trkpt lat="42.12557" lon="-0.3987458">
        <time>2022-07-06T08:23:43Z</time>
      </trkpt>
      <trkpt lat="42.125515" lon="-0.3987048">
        <time>2022-07-06T08:23:44Z</time>
      </trkpt>
      <trkpt lat="42.125465" lon="-0.3986638">
        <time>2022-07-06T08:23:45Z</time>
      </trkpt>
      <trkpt lat="42.125412" lon="-0.39862448">
        <time>2022-07-06T08:23:46Z</time>
      </trkpt>
      <trkpt lat="42.12536" lon="-0.3985848">
        <time>2022-07-06T08:23:47Z</time>
      </trkpt>
      <trkpt lat="42.12525" lon="-0.3985038">
        <time>2022-07-06T08:23:49Z</time>
      </trkpt>
      <trkpt lat="42.125195" lon="-0.3984635">
        <time>2022-07-06T08:23:50Z</time>
      </trkpt>
      <trkpt lat="42.125145" lon="-0.39842147">
        <time>2022-07-06T08:23:51Z</time>
      </trkpt>
      <trkpt lat="42.12509" lon="-0.39838216">
        <time>2022-07-06T08:23:52Z</time>
      </trkpt>
      <trkpt lat="42.12504" lon="-0.3983455">
        <time>2022-07-06T08:23:53Z</time>
      </trkpt>
      <trkpt lat="42.124985" lon="-0.39830717">
        <time>2022-07-06T08:23:54Z</time>
      </trkpt>
      <trkpt lat="42.12493" lon="-0.39826715">
        <time>2022-07-06T08:23:55Z</time>
      </trkpt>
      <trkpt lat="42.124878" lon="-0.39822716">
        <time>2022-07-06T08:23:56Z</time>
      </trkpt>
      <trkpt lat="42.124825" lon="-0.39818782">
        <time>2022-07-06T08:23:57Z</time>
      </trkpt>
      <trkpt lat="42.124775" lon="-0.39814818">
        <time>2022-07-06T08:23:58Z</time>
      </trkpt>
      <trkpt lat="42.12472" lon="-0.3981095">
        <time>2022-07-06T08:23:59Z</time>
      </trkpt>
      <trkpt lat="42.12467" lon="-0.39807117">
        <time>2022-07-06T08:24:00Z</time>
      </trkpt>
      <trkpt lat="42.124615" lon="-0.39803317">
        <time>2022-07-06T08:24:01Z</time>
      </trkpt>
      <trkpt lat="42.12456" lon="-0.39799517">
        <time>2022-07-06T08:24:02Z</time>
      </trkpt>
      <trkpt lat="42.124508" lon="-0.39795685">
        <time>2022-07-06T08:24:03Z</time>
      </trkpt>
      <trkpt lat="42.12446" lon="-0.3979182">
        <time>2022-07-06T08:24:04Z</time>
      </trkpt>
      <trkpt lat="42.1244" lon="-0.3978772">
        <time>2022-07-06T08:24:05Z</time>
      </trkpt>
      <trkpt lat="42.124348" lon="-0.3978372">
        <time>2022-07-06T08:24:06Z</time>
      </trkpt>
      <trkpt lat="42.12429" lon="-0.39779854">
        <time>2022-07-06T08:24:07Z</time>
      </trkpt>
      <trkpt lat="42.12424" lon="-0.39776188">
        <time>2022-07-06T08:24:08Z</time>
      </trkpt>
      <trkpt lat="42.12419" lon="-0.39772353">
        <time>2022-07-06T08:24:09Z</time>
      </trkpt>
      <trkpt lat="42.124134" lon="-0.39768222">
        <time>2022-07-06T08:24:10Z</time>
      </trkpt>
      <trkpt lat="42.124084" lon="-0.3976439">
        <time>2022-07-06T08:24:11Z</time>
      </trkpt>
      <trkpt lat="42.124027" lon="-0.39760187">
        <time>2022-07-06T08:24:12Z</time>
      </trkpt>
      <trkpt lat="42.123978" lon="-0.39756355">
        <time>2022-07-06T08:24:13Z</time>
      </trkpt>
      <trkpt lat="42.123928" lon="-0.3975249">
        <time>2022-07-06T08:24:14Z</time>
      </trkpt>
      <trkpt lat="42.12387" lon="-0.3974829">
        <time>2022-07-06T08:24:15Z</time>
      </trkpt>
      <trkpt lat="42.123817" lon="-0.39744157">
        <time>2022-07-06T08:24:16Z</time>
      </trkpt>
      <trkpt lat="42.12371" lon="-0.39736357">
        <time>2022-07-06T08:24:18Z</time>
      </trkpt>
      <trkpt lat="42.123657" lon="-0.3973259">
        <time>2022-07-06T08:24:19Z</time>
      </trkpt>
      <trkpt lat="42.1236" lon="-0.39728457">
        <time>2022-07-06T08:24:20Z</time>
      </trkpt>
      <trkpt lat="42.123547" lon="-0.39724392">
        <time>2022-07-06T08:24:21Z</time>
      </trkpt>
      <trkpt lat="42.12349" lon="-0.3972029">
        <time>2022-07-06T08:24:22Z</time>
      </trkpt>
      <trkpt lat="42.123436" lon="-0.3971639">
        <time>2022-07-06T08:24:23Z</time>
      </trkpt>
      <trkpt lat="42.123383" lon="-0.3971239">
        <time>2022-07-06T08:24:24Z</time>
      </trkpt>
      <trkpt lat="42.123325" lon="-0.39708024">
        <time>2022-07-06T08:24:25Z</time>
      </trkpt>
      <trkpt lat="42.123272" lon="-0.3970369">
        <time>2022-07-06T08:24:26Z</time>
      </trkpt>
      <trkpt lat="42.123215" lon="-0.3969946">
        <time>2022-07-06T08:24:27Z</time>
      </trkpt>
      <trkpt lat="42.12316" lon="-0.39695525">
        <time>2022-07-06T08:24:28Z</time>
      </trkpt>
      <trkpt lat="42.123108" lon="-0.39691725">
        <time>2022-07-06T08:24:29Z</time>
      </trkpt>
      <trkpt lat="42.12305" lon="-0.3968756">
        <time>2022-07-06T08:24:30Z</time>
      </trkpt>
      <trkpt lat="42.122993" lon="-0.3968346">
        <time>2022-07-06T08:24:31Z</time>
      </trkpt>
      <trkpt lat="42.122936" lon="-0.3967966">
        <time>2022-07-06T08:24:32Z</time>
      </trkpt>
      <trkpt lat="42.122883" lon="-0.39675727">
        <time>2022-07-06T08:24:33Z</time>
      </trkpt>
      <trkpt lat="42.12283" lon="-0.39671695">
        <time>2022-07-06T08:24:34Z</time>
      </trkpt>
      <trkpt lat="42.122772" lon="-0.3966753">
        <time>2022-07-06T08:24:35Z</time>
      </trkpt>
      <trkpt lat="42.122715" lon="-0.39663228">
        <time>2022-07-06T08:24:36Z</time>
      </trkpt>
      <trkpt lat="42.122658" lon="-0.3965896">
        <time>2022-07-06T08:24:37Z</time>
      </trkpt>
      <trkpt lat="42.122604" lon="-0.3965483">
        <time>2022-07-06T08:24:38Z</time>
      </trkpt>
      <trkpt lat="42.12255" lon="-0.39650363">
        <time>2022-07-06T08:24:39Z</time>
      </trkpt>
      <trkpt lat="42.1225" lon="-0.3964593">
        <time>2022-07-06T08:24:40Z</time>
      </trkpt>
      <trkpt lat="42.12239" lon="-0.3963743">
        <time>2022-07-06T08:24:42Z</time>
      </trkpt>
      <trkpt lat="42.122334" lon="-0.3963333">
        <time>2022-07-06T08:24:43Z</time>
      </trkpt>
      <trkpt lat="42.12228" lon="-0.3962913">
        <time>2022-07-06T08:24:44Z</time>
      </trkpt>
      <trkpt lat="42.122227" lon="-0.39624998">
        <time>2022-07-06T08:24:45Z</time>
      </trkpt>
      <trkpt lat="42.122173" lon="-0.39620864">
        <time>2022-07-06T08:24:46Z</time>
      </trkpt>
      <trkpt lat="42.12212" lon="-0.39616764">
        <time>2022-07-06T08:24:47Z</time>
      </trkpt>
      <trkpt lat="42.122063" lon="-0.396127">
        <time>2022-07-06T08:24:48Z</time>
      </trkpt>
      <trkpt lat="42.12201" lon="-0.39608732">
        <time>2022-07-06T08:24:49Z</time>
      </trkpt>
      <trkpt lat="42.121956" lon="-0.39604732">
        <time>2022-07-06T08:24:50Z</time>
      </trkpt>
      <trkpt lat="42.1219" lon="-0.39600733">
        <time>2022-07-06T08:24:51Z</time>
      </trkpt>
      <trkpt lat="42.121845" lon="-0.39596632">
        <time>2022-07-06T08:24:52Z</time>
      </trkpt>
      <trkpt lat="42.121788" lon="-0.395925">
        <time>2022-07-06T08:24:53Z</time>
      </trkpt>
      <trkpt lat="42.12173" lon="-0.39588133">
        <time>2022-07-06T08:24:54Z</time>
      </trkpt>
      <trkpt lat="42.121674" lon="-0.39584133">
        <time>2022-07-06T08:24:55Z</time>
      </trkpt>
      <trkpt lat="42.12162" lon="-0.395801">
        <time>2022-07-06T08:24:56Z</time>
      </trkpt>
      <trkpt lat="42.121563" lon="-0.39576033">
        <time>2022-07-06T08:24:57Z</time>
      </trkpt>
      <trkpt lat="42.121506" lon="-0.39571902">
        <time>2022-07-06T08:24:58Z</time>
      </trkpt>
      <trkpt lat="42.121452" lon="-0.39567736">
        <time>2022-07-06T08:24:59Z</time>
      </trkpt>
      <trkpt lat="42.121395" lon="-0.39563635">
        <time>2022-07-06T08:25:00Z</time>
      </trkpt>
      <trkpt lat="42.121338" lon="-0.3955957">
        <time>2022-07-06T08:25:01Z</time>
      </trkpt>
      <trkpt lat="42.12128" lon="-0.39555502">
        <time>2022-07-06T08:25:02Z</time>
      </trkpt>
      <trkpt lat="42.121227" lon="-0.39551538">
        <time>2022-07-06T08:25:03Z</time>
      </trkpt>
      <trkpt lat="42.121166" lon="-0.3954727">
        <time>2022-07-06T08:25:04Z</time>
      </trkpt>
      <trkpt lat="42.121113" lon="-0.39543372">
        <time>2022-07-06T08:25:05Z</time>
      </trkpt>
      <trkpt lat="42.12106" lon="-0.39539438">
        <time>2022-07-06T08:25:06Z</time>
      </trkpt>
      <trkpt lat="42.12095" lon="-0.39531538">
        <time>2022-07-06T08:25:08Z</time>
      </trkpt>
      <trkpt lat="42.120895" lon="-0.39527538">
        <time>2022-07-06T08:25:09Z</time>
      </trkpt>
      <trkpt lat="42.120842" lon="-0.39523673">
        <time>2022-07-06T08:25:10Z</time>
      </trkpt>
      <trkpt lat="42.120785" lon="-0.39519805">
        <time>2022-07-06T08:25:11Z</time>
      </trkpt>
      <trkpt lat="42.12073" lon="-0.3951584">
        <time>2022-07-06T08:25:12Z</time>
      </trkpt>
      <trkpt lat="42.120674" lon="-0.39511806">
        <time>2022-07-06T08:25:13Z</time>
      </trkpt>
      <trkpt lat="42.12062" lon="-0.39507806">
        <time>2022-07-06T08:25:14Z</time>
      </trkpt>
      <trkpt lat="42.120567" lon="-0.39503774">
        <time>2022-07-06T08:25:15Z</time>
      </trkpt>
      <trkpt lat="42.120514" lon="-0.39499775">
        <time>2022-07-06T08:25:16Z</time>
      </trkpt>
      <trkpt lat="42.12046" lon="-0.39495707">
        <time>2022-07-06T08:25:17Z</time>
      </trkpt>
      <trkpt lat="42.120407" lon="-0.39491674">
        <time>2022-07-06T08:25:18Z</time>
      </trkpt>
      <trkpt lat="42.120354" lon="-0.39487743">
        <time>2022-07-06T08:25:19Z</time>
      </trkpt>
      <trkpt lat="42.1203" lon="-0.39483875">
        <time>2022-07-06T08:25:20Z</time>
      </trkpt>
      <trkpt lat="42.120247" lon="-0.3948001">
        <time>2022-07-06T08:25:21Z</time>
      </trkpt>
      <trkpt lat="42.120193" lon="-0.39476076">
        <time>2022-07-06T08:25:22Z</time>
      </trkpt>
      <trkpt lat="42.12014" lon="-0.39472076">
        <time>2022-07-06T08:25:23Z</time>
      </trkpt>
      <trkpt lat="42.120083" lon="-0.39468077">
        <time>2022-07-06T08:25:24Z</time>
      </trkpt>
      <trkpt lat="42.12003" lon="-0.39464045">
        <time>2022-07-06T08:25:25Z</time>
      </trkpt>
      <trkpt lat="42.119976" lon="-0.39459944">
        <time>2022-07-06T08:25:26Z</time>
      </trkpt>
      <trkpt lat="42.119923" lon="-0.3945588">
        <time>2022-07-06T08:25:27Z</time>
      </trkpt>
      <trkpt lat="42.11987" lon="-0.39451745">
        <time>2022-07-06T08:25:28Z</time>
      </trkpt>
      <trkpt lat="42.119812" lon="-0.39447644">
        <time>2022-07-06T08:25:29Z</time>
      </trkpt>
      <trkpt lat="42.11976" lon="-0.39443612">
        <time>2022-07-06T08:25:30Z</time>
      </trkpt>
      <trkpt lat="42.1197" lon="-0.39439613">
        <time>2022-07-06T08:25:31Z</time>
      </trkpt>
      <trkpt lat="42.119648" lon="-0.39435545">
        <time>2022-07-06T08:25:32Z</time>
      </trkpt>
      <trkpt lat="42.11959" lon="-0.39431447">
        <time>2022-07-06T08:25:33Z</time>
      </trkpt>
      <trkpt lat="42.11948" lon="-0.39423347">
        <time>2022-07-06T08:25:35Z</time>
      </trkpt>
      <trkpt lat="42.119427" lon="-0.3941928">
        <time>2022-07-06T08:25:36Z</time>
      </trkpt>
      <trkpt lat="42.119373" lon="-0.39415148">
        <time>2022-07-06T08:25:37Z</time>
      </trkpt>
      <trkpt lat="42.119263" lon="-0.39406547">
        <time>2022-07-06T08:25:39Z</time>
      </trkpt>
      <trkpt lat="42.11921" lon="-0.39402515">
        <time>2022-07-06T08:25:40Z</time>
      </trkpt>
      <trkpt lat="42.119152" lon="-0.39398482">
        <time>2022-07-06T08:25:41Z</time>
      </trkpt>
      <trkpt lat="42.1191" lon="-0.39394414">
        <time>2022-07-06T08:25:42Z</time>
      </trkpt>
      <trkpt lat="42.119045" lon="-0.39390314">
        <time>2022-07-06T08:25:43Z</time>
      </trkpt>
      <trkpt lat="42.11899" lon="-0.3938625">
        <time>2022-07-06T08:25:44Z</time>
      </trkpt>
      <trkpt lat="42.11894" lon="-0.39382184">
        <time>2022-07-06T08:25:45Z</time>
      </trkpt>
      <trkpt lat="42.11888" lon="-0.3937815">
        <time>2022-07-06T08:25:46Z</time>
      </trkpt>
      <trkpt lat="42.118828" lon="-0.39374083">
        <time>2022-07-06T08:25:47Z</time>
      </trkpt>
      <trkpt lat="42.11877" lon="-0.39369985">
        <time>2022-07-06T08:25:48Z</time>
      </trkpt>
      <trkpt lat="42.118717" lon="-0.39365852">
        <time>2022-07-06T08:25:49Z</time>
      </trkpt>
      <trkpt lat="42.11866" lon="-0.3936165">
        <time>2022-07-06T08:25:50Z</time>
      </trkpt>
      <trkpt lat="42.118607" lon="-0.39357486">
        <time>2022-07-06T08:25:51Z</time>
      </trkpt>
      <trkpt lat="42.11855" lon="-0.39353418">
        <time>2022-07-06T08:25:52Z</time>
      </trkpt>
      <trkpt lat="42.118496" lon="-0.39349318">
        <time>2022-07-06T08:25:53Z</time>
      </trkpt>
      <trkpt lat="42.118443" lon="-0.39345253">
        <time>2022-07-06T08:25:54Z</time>
      </trkpt>
      <trkpt lat="42.118385" lon="-0.39341187">
        <time>2022-07-06T08:25:55Z</time>
      </trkpt>
      <trkpt lat="42.11833" lon="-0.3933722">
        <time>2022-07-06T08:25:56Z</time>
      </trkpt>
      <trkpt lat="42.118275" lon="-0.3933322">
        <time>2022-07-06T08:25:57Z</time>
      </trkpt>
      <trkpt lat="42.118217" lon="-0.39329255">
        <time>2022-07-06T08:25:58Z</time>
      </trkpt>
      <trkpt lat="42.118164" lon="-0.3932519">
        <time>2022-07-06T08:25:59Z</time>
      </trkpt>
      <trkpt lat="42.118053" lon="-0.39317024">
        <time>2022-07-06T08:26:01Z</time>
      </trkpt>
      <trkpt lat="42.118" lon="-0.3931299">
        <time>2022-07-06T08:26:02Z</time>
      </trkpt>
      <trkpt lat="42.117943" lon="-0.39308923">
        <time>2022-07-06T08:26:03Z</time>
      </trkpt>
      <trkpt lat="42.11789" lon="-0.3930489">
        <time>2022-07-06T08:26:04Z</time>
      </trkpt>
      <trkpt lat="42.117836" lon="-0.3930079">
        <time>2022-07-06T08:26:05Z</time>
      </trkpt>
      <trkpt lat="42.117783" lon="-0.39296824">
        <time>2022-07-06T08:26:06Z</time>
      </trkpt>
      <trkpt lat="42.117725" lon="-0.3929286">
        <time>2022-07-06T08:26:07Z</time>
      </trkpt>
      <trkpt lat="42.11767" lon="-0.39288992">
        <time>2022-07-06T08:26:08Z</time>
      </trkpt>
      <trkpt lat="42.11761" lon="-0.39285094">
        <time>2022-07-06T08:26:09Z</time>
      </trkpt>
      <trkpt lat="42.117558" lon="-0.3928106">
        <time>2022-07-06T08:26:10Z</time>
      </trkpt>
      <trkpt lat="42.1175" lon="-0.3927696">
        <time>2022-07-06T08:26:11Z</time>
      </trkpt>
      <trkpt lat="42.117447" lon="-0.39272895">
        <time>2022-07-06T08:26:12Z</time>
      </trkpt>
      <trkpt lat="42.11739" lon="-0.39268795">
        <time>2022-07-06T08:26:13Z</time>
      </trkpt>
      <trkpt lat="42.117336" lon="-0.39264727">
        <time>2022-07-06T08:26:14Z</time>
      </trkpt>
      <trkpt lat="42.11728" lon="-0.39260763">
        <time>2022-07-06T08:26:15Z</time>
      </trkpt>
      <trkpt lat="42.11722" lon="-0.39256695">
        <time>2022-07-06T08:26:16Z</time>
      </trkpt>
      <trkpt lat="42.117165" lon="-0.3925263">
        <time>2022-07-06T08:26:17Z</time>
      </trkpt>
      <trkpt lat="42.11711" lon="-0.39248496">
        <time>2022-07-06T08:26:18Z</time>
      </trkpt>
      <trkpt lat="42.117058" lon="-0.39244497">
        <time>2022-07-06T08:26:19Z</time>
      </trkpt>
      <trkpt lat="42.117" lon="-0.39240465">
        <time>2022-07-06T08:26:20Z</time>
      </trkpt>
      <trkpt lat="42.116947" lon="-0.39236397">
        <time>2022-07-06T08:26:21Z</time>
      </trkpt>
      <trkpt lat="42.116894" lon="-0.39232364">
        <time>2022-07-06T08:26:22Z</time>
      </trkpt>
      <trkpt lat="42.11684" lon="-0.392283">
        <time>2022-07-06T08:26:23Z</time>
      </trkpt>
      <trkpt lat="42.116787" lon="-0.39224234">
        <time>2022-07-06T08:26:24Z</time>
      </trkpt>
      <trkpt lat="42.11668" lon="-0.39216268">
        <time>2022-07-06T08:26:26Z</time>
      </trkpt>
      <trkpt lat="42.116623" lon="-0.392122">
        <time>2022-07-06T08:26:27Z</time>
      </trkpt>
      <trkpt lat="42.11657" lon="-0.39208168">
        <time>2022-07-06T08:26:28Z</time>
      </trkpt>
      <trkpt lat="42.116512" lon="-0.39204">
        <time>2022-07-06T08:26:29Z</time>
      </trkpt>
      <trkpt lat="42.11646" lon="-0.3919977">
        <time>2022-07-06T08:26:30Z</time>
      </trkpt>
      <trkpt lat="42.1164" lon="-0.39195535">
        <time>2022-07-06T08:26:31Z</time>
      </trkpt>
      <trkpt lat="42.11635" lon="-0.3919157">
        <time>2022-07-06T08:26:32Z</time>
      </trkpt>
      <trkpt lat="42.116295" lon="-0.39187637">
        <time>2022-07-06T08:26:33Z</time>
      </trkpt>
      <trkpt lat="42.116238" lon="-0.39183572">
        <time>2022-07-06T08:26:34Z</time>
      </trkpt>
      <trkpt lat="42.116184" lon="-0.39179438">
        <time>2022-07-06T08:26:35Z</time>
      </trkpt>
      <trkpt lat="42.116127" lon="-0.39175206">
        <time>2022-07-06T08:26:36Z</time>
      </trkpt>
      <trkpt lat="42.11607" lon="-0.3917104">
        <time>2022-07-06T08:26:37Z</time>
      </trkpt>
      <trkpt lat="42.116013" lon="-0.3916694">
        <time>2022-07-06T08:26:38Z</time>
      </trkpt>
      <trkpt lat="42.11596" lon="-0.39162907">
        <time>2022-07-06T08:26:39Z</time>
      </trkpt>
      <trkpt lat="42.115902" lon="-0.3915874">
        <time>2022-07-06T08:26:40Z</time>
      </trkpt>
      <trkpt lat="42.11585" lon="-0.39154708">
        <time>2022-07-06T08:26:41Z</time>
      </trkpt>
      <trkpt lat="42.11579" lon="-0.39150575">
        <time>2022-07-06T08:26:42Z</time>
      </trkpt>
      <trkpt lat="42.115738" lon="-0.39146474">
        <time>2022-07-06T08:26:43Z</time>
      </trkpt>
      <trkpt lat="42.11568" lon="-0.39142308">
        <time>2022-07-06T08:26:44Z</time>
      </trkpt>
      <trkpt lat="42.115627" lon="-0.3913814">
        <time>2022-07-06T08:26:45Z</time>
      </trkpt>
      <trkpt lat="42.11557" lon="-0.39133877">
        <time>2022-07-06T08:26:46Z</time>
      </trkpt>
      <trkpt lat="42.115513" lon="-0.39129576">
        <time>2022-07-06T08:26:47Z</time>
      </trkpt>
      <trkpt lat="42.115456" lon="-0.39125377">
        <time>2022-07-06T08:26:48Z</time>
      </trkpt>
      <trkpt lat="42.115402" lon="-0.39121175">
        <time>2022-07-06T08:26:49Z</time>
      </trkpt>
      <trkpt lat="42.115345" lon="-0.3911701">
        <time>2022-07-06T08:26:50Z</time>
      </trkpt>
      <trkpt lat="42.115288" lon="-0.3911281">
        <time>2022-07-06T08:26:51Z</time>
      </trkpt>
      <trkpt lat="42.115173" lon="-0.39104578">
        <time>2022-07-06T08:26:53Z</time>
      </trkpt>
      <trkpt lat="42.11512" lon="-0.39100543">
        <time>2022-07-06T08:26:54Z</time>
      </trkpt>
      <trkpt lat="42.115063" lon="-0.39096445">
        <time>2022-07-06T08:26:55Z</time>
      </trkpt>
      <trkpt lat="42.11501" lon="-0.3909241">
        <time>2022-07-06T08:26:56Z</time>
      </trkpt>
      <trkpt lat="42.114952" lon="-0.39088377">
        <time>2022-07-06T08:26:57Z</time>
      </trkpt>
      <trkpt lat="42.1149" lon="-0.39084244">
        <time>2022-07-06T08:26:58Z</time>
      </trkpt>
      <trkpt lat="42.114845" lon="-0.39080045">
        <time>2022-07-06T08:26:59Z</time>
      </trkpt>
      <trkpt lat="42.114788" lon="-0.39075944">
        <time>2022-07-06T08:27:00Z</time>
      </trkpt>
      <trkpt lat="42.114735" lon="-0.39071912">
        <time>2022-07-06T08:27:01Z</time>
      </trkpt>
      <trkpt lat="42.11468" lon="-0.3906788">
        <time>2022-07-06T08:27:02Z</time>
      </trkpt>
      <trkpt lat="42.11462" lon="-0.39063612">
        <time>2022-07-06T08:27:03Z</time>
      </trkpt>
      <trkpt lat="42.114567" lon="-0.3905968">
        <time>2022-07-06T08:27:04Z</time>
      </trkpt>
      <trkpt lat="42.114513" lon="-0.3905578">
        <time>2022-07-06T08:27:05Z</time>
      </trkpt>
      <trkpt lat="42.11446" lon="-0.3905178">
        <time>2022-07-06T08:27:06Z</time>
      </trkpt>
      <trkpt lat="42.114407" lon="-0.3904778">
        <time>2022-07-06T08:27:07Z</time>
      </trkpt>
      <trkpt lat="42.114353" lon="-0.3904378">
        <time>2022-07-06T08:27:08Z</time>
      </trkpt>
      <trkpt lat="42.1143" lon="-0.39039746">
        <time>2022-07-06T08:27:09Z</time>
      </trkpt>
      <trkpt lat="42.114246" lon="-0.39035746">
        <time>2022-07-06T08:27:10Z</time>
      </trkpt>
      <trkpt lat="42.11419" lon="-0.3903178">
        <time>2022-07-06T08:27:11Z</time>
      </trkpt>
      <trkpt lat="42.114136" lon="-0.39027715">
        <time>2022-07-06T08:27:12Z</time>
      </trkpt>
      <trkpt lat="42.114082" lon="-0.39023682">
        <time>2022-07-06T08:27:13Z</time>
      </trkpt>
      <trkpt lat="42.11403" lon="-0.39019683">
        <time>2022-07-06T08:27:14Z</time>
      </trkpt>
      <trkpt lat="42.113976" lon="-0.39015716">
        <time>2022-07-06T08:27:15Z</time>
      </trkpt>
      <trkpt lat="42.113922" lon="-0.39011684">
        <time>2022-07-06T08:27:16Z</time>
      </trkpt>
      <trkpt lat="42.11387" lon="-0.3900805">
        <time>2022-07-06T08:27:17Z</time>
      </trkpt>
      <trkpt lat="42.113815" lon="-0.39004418">
        <time>2022-07-06T08:27:18Z</time>
      </trkpt>
      <trkpt lat="42.113766" lon="-0.39000684">
        <time>2022-07-06T08:27:19Z</time>
      </trkpt>
      <trkpt lat="42.113712" lon="-0.3899695">
        <time>2022-07-06T08:27:20Z</time>
      </trkpt>
      <trkpt lat="42.113663" lon="-0.3899322">
        <time>2022-07-06T08:27:21Z</time>
      </trkpt>
      <trkpt lat="42.11361" lon="-0.38989353">
        <time>2022-07-06T08:27:22Z</time>
      </trkpt>
      <trkpt lat="42.113556" lon="-0.38985386">
        <time>2022-07-06T08:27:23Z</time>
      </trkpt>
      <trkpt lat="42.113503" lon="-0.3898142">
        <time>2022-07-06T08:27:24Z</time>
      </trkpt>
      <trkpt lat="42.113453" lon="-0.38977388">
        <time>2022-07-06T08:27:25Z</time>
      </trkpt>
      <trkpt lat="42.1134" lon="-0.3897342">
        <time>2022-07-06T08:27:26Z</time>
      </trkpt>
      <trkpt lat="42.113346" lon="-0.38969487">
        <time>2022-07-06T08:27:27Z</time>
      </trkpt>
      <trkpt lat="42.113297" lon="-0.3896559">
        <time>2022-07-06T08:27:28Z</time>
      </trkpt>
      <trkpt lat="42.113243" lon="-0.38961723">
        <time>2022-07-06T08:27:29Z</time>
      </trkpt>
      <trkpt lat="42.113194" lon="-0.3895779">
        <time>2022-07-06T08:27:30Z</time>
      </trkpt>
      <trkpt lat="42.11314" lon="-0.38953924">
        <time>2022-07-06T08:27:31Z</time>
      </trkpt>
      <trkpt lat="42.113037" lon="-0.3894609">
        <time>2022-07-06T08:27:33Z</time>
      </trkpt>
      <trkpt lat="42.112984" lon="-0.38942158">
        <time>2022-07-06T08:27:34Z</time>
      </trkpt>
      <trkpt lat="42.11293" lon="-0.38938224">
        <time>2022-07-06T08:27:35Z</time>
      </trkpt>
      <trkpt lat="42.112877" lon="-0.3893436">
        <time>2022-07-06T08:27:36Z</time>
      </trkpt>
      <trkpt lat="42.112827" lon="-0.3893056">
        <time>2022-07-06T08:27:37Z</time>
      </trkpt>
      <trkpt lat="42.112774" lon="-0.3892676">
        <time>2022-07-06T08:27:38Z</time>
      </trkpt>
      <trkpt lat="42.11272" lon="-0.38922992">
        <time>2022-07-06T08:27:39Z</time>
      </trkpt>
      <trkpt lat="42.11267" lon="-0.38919193">
        <time>2022-07-06T08:27:40Z</time>
      </trkpt>
      <trkpt lat="42.112617" lon="-0.38915393">
        <time>2022-07-06T08:27:41Z</time>
      </trkpt>
      <trkpt lat="42.112564" lon="-0.38911593">
        <time>2022-07-06T08:27:42Z</time>
      </trkpt>
      <trkpt lat="42.112514" lon="-0.3890776">
        <time>2022-07-06T08:27:43Z</time>
      </trkpt>
      <trkpt lat="42.11246" lon="-0.38903826">
        <time>2022-07-06T08:27:44Z</time>
      </trkpt>
      <trkpt lat="42.112408" lon="-0.38899893">
        <time>2022-07-06T08:27:45Z</time>
      </trkpt>
      <trkpt lat="42.112354" lon="-0.38895926">
        <time>2022-07-06T08:27:46Z</time>
      </trkpt>
      <trkpt lat="42.112305" lon="-0.38892028">
        <time>2022-07-06T08:27:47Z</time>
      </trkpt>
      <trkpt lat="42.112247" lon="-0.3888786">
        <time>2022-07-06T08:27:48Z</time>
      </trkpt>
      <trkpt lat="42.112194" lon="-0.38883895">
        <time>2022-07-06T08:27:49Z</time>
      </trkpt>
      <trkpt lat="42.11214" lon="-0.3887983">
        <time>2022-07-06T08:27:50Z</time>
      </trkpt>
      <trkpt lat="42.112087" lon="-0.38875762">
        <time>2022-07-06T08:27:51Z</time>
      </trkpt>
      <trkpt lat="42.112034" lon="-0.3887173">
        <time>2022-07-06T08:27:52Z</time>
      </trkpt>
      <trkpt lat="42.11198" lon="-0.38867697">
        <time>2022-07-06T08:27:53Z</time>
      </trkpt>
      <trkpt lat="42.111927" lon="-0.38863632">
        <time>2022-07-06T08:27:54Z</time>
      </trkpt>
      <trkpt lat="42.111874" lon="-0.3885953">
        <time>2022-07-06T08:27:55Z</time>
      </trkpt>
      <trkpt lat="42.111816" lon="-0.38855466">
        <time>2022-07-06T08:27:56Z</time>
      </trkpt>
      <trkpt lat="42.111763" lon="-0.38851365">
        <time>2022-07-06T08:27:57Z</time>
      </trkpt>
      <trkpt lat="42.111706" lon="-0.388473">
        <time>2022-07-06T08:27:58Z</time>
      </trkpt>
      <trkpt lat="42.111652" lon="-0.388432">
        <time>2022-07-06T08:27:59Z</time>
      </trkpt>
      <trkpt lat="42.1116" lon="-0.38839132">
        <time>2022-07-06T08:28:00Z</time>
      </trkpt>
      <trkpt lat="42.11154" lon="-0.38835067">
        <time>2022-07-06T08:28:01Z</time>
      </trkpt>
      <trkpt lat="42.11149" lon="-0.38831034">
        <time>2022-07-06T08:28:02Z</time>
      </trkpt>
      <trkpt lat="42.111435" lon="-0.38827035">
        <time>2022-07-06T08:28:03Z</time>
      </trkpt>
      <trkpt lat="42.111378" lon="-0.38823068">
        <time>2022-07-06T08:28:04Z</time>
      </trkpt>
      <trkpt lat="42.111324" lon="-0.38819134">
        <time>2022-07-06T08:28:05Z</time>
      </trkpt>
      <trkpt lat="42.11127" lon="-0.38815203">
        <time>2022-07-06T08:28:06Z</time>
      </trkpt>
      <trkpt lat="42.111217" lon="-0.38811237">
        <time>2022-07-06T08:28:07Z</time>
      </trkpt>
      <trkpt lat="42.111164" lon="-0.38807335">
        <time>2022-07-06T08:28:08Z</time>
      </trkpt>
      <trkpt lat="42.111107" lon="-0.38803104">
        <time>2022-07-06T08:28:09Z</time>
      </trkpt>
      <trkpt lat="42.111053" lon="-0.38798904">
        <time>2022-07-06T08:28:10Z</time>
      </trkpt>
      <trkpt lat="42.111" lon="-0.38795036">
        <time>2022-07-06T08:28:11Z</time>
      </trkpt>
      <trkpt lat="42.11095" lon="-0.38791138">
        <time>2022-07-06T08:28:12Z</time>
      </trkpt>
      <trkpt lat="42.1109" lon="-0.38787305">
        <time>2022-07-06T08:28:13Z</time>
      </trkpt>
      <trkpt lat="42.11085" lon="-0.38783404">
        <time>2022-07-06T08:28:14Z</time>
      </trkpt>
      <trkpt lat="42.110798" lon="-0.38779604">
        <time>2022-07-06T08:28:15Z</time>
      </trkpt>
      <trkpt lat="42.110744" lon="-0.3877574">
        <time>2022-07-06T08:28:16Z</time>
      </trkpt>
      <trkpt lat="42.11069" lon="-0.3877187">
        <time>2022-07-06T08:28:17Z</time>
      </trkpt>
      <trkpt lat="42.11064" lon="-0.38768005">
        <time>2022-07-06T08:28:18Z</time>
      </trkpt>
      <trkpt lat="42.110588" lon="-0.38764074">
        <time>2022-07-06T08:28:19Z</time>
      </trkpt>
      <trkpt lat="42.110535" lon="-0.38760108">
        <time>2022-07-06T08:28:20Z</time>
      </trkpt>
      <trkpt lat="42.11048" lon="-0.38756108">
        <time>2022-07-06T08:28:21Z</time>
      </trkpt>
      <trkpt lat="42.110428" lon="-0.3875224">
        <time>2022-07-06T08:28:22Z</time>
      </trkpt>
      <trkpt lat="42.110374" lon="-0.3874831">
        <time>2022-07-06T08:28:23Z</time>
      </trkpt>
      <trkpt lat="42.110317" lon="-0.38744107">
        <time>2022-07-06T08:28:24Z</time>
      </trkpt>
      <trkpt lat="42.110268" lon="-0.38740242">
        <time>2022-07-06T08:28:25Z</time>
      </trkpt>
      <trkpt lat="42.11021" lon="-0.38736042">
        <time>2022-07-06T08:28:26Z</time>
      </trkpt>
      <trkpt lat="42.11016" lon="-0.38732177">
        <time>2022-07-06T08:28:27Z</time>
      </trkpt>
      <trkpt lat="42.110107" lon="-0.38728344">
        <time>2022-07-06T08:28:28Z</time>
      </trkpt>
      <trkpt lat="42.110058" lon="-0.3872461">
        <time>2022-07-06T08:28:29Z</time>
      </trkpt>
      <trkpt lat="42.110004" lon="-0.38720676">
        <time>2022-07-06T08:28:30Z</time>
      </trkpt>
      <trkpt lat="42.109955" lon="-0.38717043">
        <time>2022-07-06T08:28:31Z</time>
      </trkpt>
      <trkpt lat="42.109905" lon="-0.38713378">
        <time>2022-07-06T08:28:32Z</time>
      </trkpt>
      <trkpt lat="42.10985" lon="-0.3870961">
        <time>2022-07-06T08:28:33Z</time>
      </trkpt>
      <trkpt lat="42.1098" lon="-0.3870581">
        <time>2022-07-06T08:28:34Z</time>
      </trkpt>
      <trkpt lat="42.10975" lon="-0.38701913">
        <time>2022-07-06T08:28:35Z</time>
      </trkpt>
      <trkpt lat="42.1097" lon="-0.38698113">
        <time>2022-07-06T08:28:36Z</time>
      </trkpt>
      <trkpt lat="42.109596" lon="-0.38690546">
        <time>2022-07-06T08:28:38Z</time>
      </trkpt>
      <trkpt lat="42.109547" lon="-0.38686714">
        <time>2022-07-06T08:28:39Z</time>
      </trkpt>
      <trkpt lat="42.109493" lon="-0.38682848">
        <time>2022-07-06T08:28:40Z</time>
      </trkpt>
      <trkpt lat="42.10944" lon="-0.38679048">
        <time>2022-07-06T08:28:41Z</time>
      </trkpt>
      <trkpt lat="42.109386" lon="-0.38675046">
        <time>2022-07-06T08:28:42Z</time>
      </trkpt>
      <trkpt lat="42.109337" lon="-0.38671347">
        <time>2022-07-06T08:28:43Z</time>
      </trkpt>
      <trkpt lat="42.109287" lon="-0.3866758">
        <time>2022-07-06T08:28:44Z</time>
      </trkpt>
      <trkpt lat="42.109234" lon="-0.38663447">
        <time>2022-07-06T08:28:45Z</time>
      </trkpt>
      <trkpt lat="42.10918" lon="-0.3865935">
        <time>2022-07-06T08:28:46Z</time>
      </trkpt>
      <trkpt lat="42.109127" lon="-0.3865528">
        <time>2022-07-06T08:28:47Z</time>
      </trkpt>
      <trkpt lat="42.109077" lon="-0.38651448">
        <time>2022-07-06T08:28:48Z</time>
      </trkpt>
      <trkpt lat="42.109024" lon="-0.38647583">
        <time>2022-07-06T08:28:49Z</time>
      </trkpt>
      <trkpt lat="42.108974" lon="-0.38643718">
        <time>2022-07-06T08:28:50Z</time>
      </trkpt>
      <trkpt lat="42.10892" lon="-0.38639852">
        <time>2022-07-06T08:28:51Z</time>
      </trkpt>
      <trkpt lat="42.108864" lon="-0.38635752">
        <time>2022-07-06T08:28:52Z</time>
      </trkpt>
      <trkpt lat="42.10881" lon="-0.3863172">
        <time>2022-07-06T08:28:53Z</time>
      </trkpt>
      <trkpt lat="42.10876" lon="-0.38628018">
        <time>2022-07-06T08:28:54Z</time>
      </trkpt>
      <trkpt lat="42.108707" lon="-0.38624185">
        <time>2022-07-06T08:28:55Z</time>
      </trkpt>
      <trkpt lat="42.108658" lon="-0.38620284">
        <time>2022-07-06T08:28:56Z</time>
      </trkpt>
      <trkpt lat="42.108604" lon="-0.38616353">
        <time>2022-07-06T08:28:57Z</time>
      </trkpt>
      <trkpt lat="42.108547" lon="-0.38612118">
        <time>2022-07-06T08:28:58Z</time>
      </trkpt>
      <trkpt lat="42.108494" lon="-0.38608253">
        <time>2022-07-06T08:28:59Z</time>
      </trkpt>
      <trkpt lat="42.10844" lon="-0.38604286">
        <time>2022-07-06T08:29:00Z</time>
      </trkpt>
      <trkpt lat="42.108387" lon="-0.38600287">
        <time>2022-07-06T08:29:01Z</time>
      </trkpt>
      <trkpt lat="42.108334" lon="-0.38596255">
        <time>2022-07-06T08:29:02Z</time>
      </trkpt>
      <trkpt lat="42.108276" lon="-0.3859189">
        <time>2022-07-06T08:29:03Z</time>
      </trkpt>
      <trkpt lat="42.108227" lon="-0.3858789">
        <time>2022-07-06T08:29:04Z</time>
      </trkpt>
      <trkpt lat="42.108173" lon="-0.38583922">
        <time>2022-07-06T08:29:05Z</time>
      </trkpt>
      <trkpt lat="42.10812" lon="-0.38579988">
        <time>2022-07-06T08:29:06Z</time>
      </trkpt>
      <trkpt lat="42.108067" lon="-0.38576123">
        <time>2022-07-06T08:29:07Z</time>
      </trkpt>
      <trkpt lat="42.108013" lon="-0.38572258">
        <time>2022-07-06T08:29:08Z</time>
      </trkpt>
      <trkpt lat="42.10796" lon="-0.38568324">
        <time>2022-07-06T08:29:09Z</time>
      </trkpt>
      <trkpt lat="42.107906" lon="-0.3856439">
        <time>2022-07-06T08:29:10Z</time>
      </trkpt>
      <trkpt lat="42.10785" lon="-0.38560358">
        <time>2022-07-06T08:29:11Z</time>
      </trkpt>
      <trkpt lat="42.10779" lon="-0.38556093">
        <time>2022-07-06T08:29:12Z</time>
      </trkpt>
      <trkpt lat="42.107742" lon="-0.3855216">
        <time>2022-07-06T08:29:13Z</time>
      </trkpt>
      <trkpt lat="42.10769" lon="-0.38548294">
        <time>2022-07-06T08:29:14Z</time>
      </trkpt>
      <trkpt lat="42.107635" lon="-0.3854446">
        <time>2022-07-06T08:29:15Z</time>
      </trkpt>
      <trkpt lat="42.107582" lon="-0.3854066">
        <time>2022-07-06T08:29:16Z</time>
      </trkpt>
      <trkpt lat="42.107525" lon="-0.38536593">
        <time>2022-07-06T08:29:17Z</time>
      </trkpt>
      <trkpt lat="42.10747" lon="-0.3853256">
        <time>2022-07-06T08:29:18Z</time>
      </trkpt>
      <trkpt lat="42.107414" lon="-0.38528594">
        <time>2022-07-06T08:29:19Z</time>
      </trkpt>
      <trkpt lat="42.107365" lon="-0.38524896">
        <time>2022-07-06T08:29:20Z</time>
      </trkpt>
      <trkpt lat="42.107315" lon="-0.38521194">
        <time>2022-07-06T08:29:21Z</time>
      </trkpt>
      <trkpt lat="42.10726" lon="-0.3851743">
        <time>2022-07-06T08:29:22Z</time>
      </trkpt>
      <trkpt lat="42.10721" lon="-0.38513628">
        <time>2022-07-06T08:29:23Z</time>
      </trkpt>
      <trkpt lat="42.10716" lon="-0.38509864">
        <time>2022-07-06T08:29:24Z</time>
      </trkpt>
      <trkpt lat="42.107105" lon="-0.38506064">
        <time>2022-07-06T08:29:25Z</time>
      </trkpt>
      <trkpt lat="42.107056" lon="-0.38502264">
        <time>2022-07-06T08:29:26Z</time>
      </trkpt>
      <trkpt lat="42.107002" lon="-0.38498464">
        <time>2022-07-06T08:29:27Z</time>
      </trkpt>
      <trkpt lat="42.10695" lon="-0.3849463">
        <time>2022-07-06T08:29:28Z</time>
      </trkpt>
      <trkpt lat="42.1069" lon="-0.38490763">
        <time>2022-07-06T08:29:29Z</time>
      </trkpt>
      <trkpt lat="42.106846" lon="-0.38486797">
        <time>2022-07-06T08:29:30Z</time>
      </trkpt>
      <trkpt lat="42.106792" lon="-0.38482866">
        <time>2022-07-06T08:29:31Z</time>
      </trkpt>
      <trkpt lat="42.106743" lon="-0.38478965">
        <time>2022-07-06T08:29:32Z</time>
      </trkpt>
      <trkpt lat="42.10669" lon="-0.3847503">
        <time>2022-07-06T08:29:33Z</time>
      </trkpt>
      <trkpt lat="42.106632" lon="-0.38470867">
        <time>2022-07-06T08:29:34Z</time>
      </trkpt>
      <trkpt lat="42.106575" lon="-0.384668">
        <time>2022-07-06T08:29:35Z</time>
      </trkpt>
      <trkpt lat="42.106525" lon="-0.384631">
        <time>2022-07-06T08:29:36Z</time>
      </trkpt>
      <trkpt lat="42.106472" lon="-0.384594">
        <time>2022-07-06T08:29:37Z</time>
      </trkpt>
      <trkpt lat="42.10642" lon="-0.38455668">
        <time>2022-07-06T08:29:38Z</time>
      </trkpt>
      <trkpt lat="42.10636" lon="-0.384516">
        <time>2022-07-06T08:29:39Z</time>
      </trkpt>
      <trkpt lat="42.106308" lon="-0.3844787">
        <time>2022-07-06T08:29:40Z</time>
      </trkpt>
      <trkpt lat="42.1062" lon="-0.384398">
        <time>2022-07-06T08:29:42Z</time>
      </trkpt>
      <trkpt lat="42.106148" lon="-0.38435802">
        <time>2022-07-06T08:29:43Z</time>
      </trkpt>
      <trkpt lat="42.106094" lon="-0.384317">
        <time>2022-07-06T08:29:44Z</time>
      </trkpt>
      <trkpt lat="42.10604" lon="-0.38427702">
        <time>2022-07-06T08:29:45Z</time>
      </trkpt>
      <trkpt lat="42.105988" lon="-0.38423768">
        <time>2022-07-06T08:29:46Z</time>
      </trkpt>
      <trkpt lat="42.105934" lon="-0.38419768">
        <time>2022-07-06T08:29:47Z</time>
      </trkpt>
      <trkpt lat="42.105877" lon="-0.38415903">
        <time>2022-07-06T08:29:48Z</time>
      </trkpt>
      <trkpt lat="42.10582" lon="-0.3841177">
        <time>2022-07-06T08:29:49Z</time>
      </trkpt>
      <trkpt lat="42.105766" lon="-0.38407704">
        <time>2022-07-06T08:29:50Z</time>
      </trkpt>
      <trkpt lat="42.105713" lon="-0.38403904">
        <time>2022-07-06T08:29:51Z</time>
      </trkpt>
      <trkpt lat="42.105663" lon="-0.38400003">
        <time>2022-07-06T08:29:52Z</time>
      </trkpt>
      <trkpt lat="42.10561" lon="-0.38396004">
        <time>2022-07-06T08:29:53Z</time>
      </trkpt>
      <trkpt lat="42.105553" lon="-0.3839174">
        <time>2022-07-06T08:29:54Z</time>
      </trkpt>
      <trkpt lat="42.1055" lon="-0.38387606">
        <time>2022-07-06T08:29:55Z</time>
      </trkpt>
      <trkpt lat="42.105446" lon="-0.38383806">
        <time>2022-07-06T08:29:56Z</time>
      </trkpt>
      <trkpt lat="42.105396" lon="-0.38379973">
        <time>2022-07-06T08:29:57Z</time>
      </trkpt>
      <trkpt lat="42.105343" lon="-0.38376173">
        <time>2022-07-06T08:29:58Z</time>
      </trkpt>
      <trkpt lat="42.10529" lon="-0.38372272">
        <time>2022-07-06T08:29:59Z</time>
      </trkpt>
      <trkpt lat="42.10524" lon="-0.38368306">
        <time>2022-07-06T08:30:00Z</time>
      </trkpt>
      <trkpt lat="42.105186" lon="-0.38364306">
        <time>2022-07-06T08:30:01Z</time>
      </trkpt>
      <trkpt lat="42.105133" lon="-0.38360372">
        <time>2022-07-06T08:30:02Z</time>
      </trkpt>
      <trkpt lat="42.10508" lon="-0.38356474">
        <time>2022-07-06T08:30:03Z</time>
      </trkpt>
      <trkpt lat="42.105026" lon="-0.38352606">
        <time>2022-07-06T08:30:04Z</time>
      </trkpt>
      <trkpt lat="42.104973" lon="-0.38348642">
        <time>2022-07-06T08:30:05Z</time>
      </trkpt>
      <trkpt lat="42.10492" lon="-0.38344607">
        <time>2022-07-06T08:30:06Z</time>
      </trkpt>
      <trkpt lat="42.104862" lon="-0.38340175">
        <time>2022-07-06T08:30:07Z</time>
      </trkpt>
      <trkpt lat="42.10481" lon="-0.38336176">
        <time>2022-07-06T08:30:08Z</time>
      </trkpt>
      <trkpt lat="42.104755" lon="-0.38332176">
        <time>2022-07-06T08:30:09Z</time>
      </trkpt>
      <trkpt lat="42.104702" lon="-0.38328242">
        <time>2022-07-06T08:30:10Z</time>
      </trkpt>
      <trkpt lat="42.10464" lon="-0.3832401">
        <time>2022-07-06T08:30:11Z</time>
      </trkpt>
      <trkpt lat="42.104588" lon="-0.3832011">
        <time>2022-07-06T08:30:12Z</time>
      </trkpt>
      <trkpt lat="42.10453" lon="-0.38315976">
        <time>2022-07-06T08:30:13Z</time>
      </trkpt>
      <trkpt lat="42.104477" lon="-0.38312176">
        <time>2022-07-06T08:30:14Z</time>
      </trkpt>
      <trkpt lat="42.104424" lon="-0.38308343">
        <time>2022-07-06T08:30:15Z</time>
      </trkpt>
      <trkpt lat="42.10437" lon="-0.3830461">
        <time>2022-07-06T08:30:16Z</time>
      </trkpt>
      <trkpt lat="42.104313" lon="-0.3830091">
        <time>2022-07-06T08:30:17Z</time>
      </trkpt>
      <trkpt lat="42.10426" lon="-0.38297376">
        <time>2022-07-06T08:30:18Z</time>
      </trkpt>
      <trkpt lat="42.1042" lon="-0.3829421">
        <time>2022-07-06T08:30:19Z</time>
      </trkpt>
      <trkpt lat="42.10414" lon="-0.38291445">
        <time>2022-07-06T08:30:20Z</time>
      </trkpt>
      <trkpt lat="42.10408" lon="-0.3828928">
        <time>2022-07-06T08:30:21Z</time>
      </trkpt>
      <trkpt lat="42.104015" lon="-0.38287812">
        <time>2022-07-06T08:30:22Z</time>
      </trkpt>
      <trkpt lat="42.10395" lon="-0.38287014">
        <time>2022-07-06T08:30:23Z</time>
      </trkpt>
      <trkpt lat="42.103886" lon="-0.3828658">
        <time>2022-07-06T08:30:24Z</time>
      </trkpt>
      <trkpt lat="42.10383" lon="-0.38286313">
        <time>2022-07-06T08:30:25Z</time>
      </trkpt>
      <trkpt lat="42.103767" lon="-0.3828588">
        <time>2022-07-06T08:30:26Z</time>
      </trkpt>
      <trkpt lat="42.103706" lon="-0.3828488">
        <time>2022-07-06T08:30:27Z</time>
      </trkpt>
      <trkpt lat="42.10365" lon="-0.3828295">
        <time>2022-07-06T08:30:28Z</time>
      </trkpt>
      <trkpt lat="42.1036" lon="-0.38280016">
        <time>2022-07-06T08:30:29Z</time>
      </trkpt>
      <trkpt lat="42.103554" lon="-0.3827645">
        <time>2022-07-06T08:30:30Z</time>
      </trkpt>
      <trkpt lat="42.103477" lon="-0.38265848">
        <time>2022-07-06T08:30:32Z</time>
      </trkpt>
      <trkpt lat="42.10346" lon="-0.38259116">
        <time>2022-07-06T08:30:33Z</time>
      </trkpt>
      <trkpt lat="42.103447" lon="-0.38252482">
        <time>2022-07-06T08:30:34Z</time>
      </trkpt>
      <trkpt lat="42.10345" lon="-0.3823785">
        <time>2022-07-06T08:30:36Z</time>
      </trkpt>
      <trkpt lat="42.103455" lon="-0.38230017">
        <time>2022-07-06T08:30:37Z</time>
      </trkpt>
      <trkpt lat="42.103462" lon="-0.38221318">
        <time>2022-07-06T08:30:38Z</time>
      </trkpt>
      <trkpt lat="42.103462" lon="-0.38212517">
        <time>2022-07-06T08:30:39Z</time>
      </trkpt>
      <trkpt lat="42.103462" lon="-0.38204384">
        <time>2022-07-06T08:30:40Z</time>
      </trkpt>
      <trkpt lat="42.10345" lon="-0.3819605">
        <time>2022-07-06T08:30:41Z</time>
      </trkpt>
      <trkpt lat="42.103436" lon="-0.38187185">
        <time>2022-07-06T08:30:42Z</time>
      </trkpt>
      <trkpt lat="42.103416" lon="-0.38179052">
        <time>2022-07-06T08:30:43Z</time>
      </trkpt>
      <trkpt lat="42.103394" lon="-0.38170287">
        <time>2022-07-06T08:30:44Z</time>
      </trkpt>
      <trkpt lat="42.10337" lon="-0.38162085">
        <time>2022-07-06T08:30:45Z</time>
      </trkpt>
      <trkpt lat="42.103348" lon="-0.3815372">
        <time>2022-07-06T08:30:46Z</time>
      </trkpt>
      <trkpt lat="42.103325" lon="-0.38145286">
        <time>2022-07-06T08:30:47Z</time>
      </trkpt>
      <trkpt lat="42.1033" lon="-0.3813622">
        <time>2022-07-06T08:30:48Z</time>
      </trkpt>
      <trkpt lat="42.103268" lon="-0.38127854">
        <time>2022-07-06T08:30:49Z</time>
      </trkpt>
      <trkpt lat="42.103237" lon="-0.38118756">
        <time>2022-07-06T08:30:50Z</time>
      </trkpt>
      <trkpt lat="42.10318" lon="-0.38101822">
        <time>2022-07-06T08:30:52Z</time>
      </trkpt>
      <trkpt lat="42.10315" lon="-0.38093188">
        <time>2022-07-06T08:30:53Z</time>
      </trkpt>
      <trkpt lat="42.10312" lon="-0.38084456">
        <time>2022-07-06T08:30:54Z</time>
      </trkpt>
      <trkpt lat="42.10309" lon="-0.38075656">
        <time>2022-07-06T08:30:55Z</time>
      </trkpt>
      <trkpt lat="42.103058" lon="-0.38066855">
        <time>2022-07-06T08:30:56Z</time>
      </trkpt>
      <trkpt lat="42.103024" lon="-0.38058022">
        <time>2022-07-06T08:30:57Z</time>
      </trkpt>
      <trkpt lat="42.10299" lon="-0.38049057">
        <time>2022-07-06T08:30:58Z</time>
      </trkpt>
      <trkpt lat="42.10296" lon="-0.3803989">
        <time>2022-07-06T08:30:59Z</time>
      </trkpt>
      <trkpt lat="42.102924" lon="-0.38030759">
        <time>2022-07-06T08:31:00Z</time>
      </trkpt>
      <trkpt lat="42.102894" lon="-0.3802156">
        <time>2022-07-06T08:31:01Z</time>
      </trkpt>
      <trkpt lat="42.10286" lon="-0.38012457">
        <time>2022-07-06T08:31:02Z</time>
      </trkpt>
      <trkpt lat="42.10283" lon="-0.38003293">
        <time>2022-07-06T08:31:03Z</time>
      </trkpt>
      <trkpt lat="42.1028" lon="-0.37993592">
        <time>2022-07-06T08:31:04Z</time>
      </trkpt>
      <trkpt lat="42.102764" lon="-0.3798416">
        <time>2022-07-06T08:31:05Z</time>
      </trkpt>
      <trkpt lat="42.10273" lon="-0.37974826">
        <time>2022-07-06T08:31:06Z</time>
      </trkpt>
      <trkpt lat="42.102703" lon="-0.37966126">
        <time>2022-07-06T08:31:07Z</time>
      </trkpt>
      <trkpt lat="42.102673" lon="-0.37957227">
        <time>2022-07-06T08:31:08Z</time>
      </trkpt>
      <trkpt lat="42.102642" lon="-0.37947726">
        <time>2022-07-06T08:31:09Z</time>
      </trkpt>
      <trkpt lat="42.102608" lon="-0.3793846">
        <time>2022-07-06T08:31:10Z</time>
      </trkpt>
      <trkpt lat="42.102577" lon="-0.3792936">
        <time>2022-07-06T08:31:11Z</time>
      </trkpt>
      <trkpt lat="42.102547" lon="-0.37920994">
        <time>2022-07-06T08:31:12Z</time>
      </trkpt>
      <trkpt lat="42.10252" lon="-0.3791246">
        <time>2022-07-06T08:31:13Z</time>
      </trkpt>
      <trkpt lat="42.10249" lon="-0.3790386">
        <time>2022-07-06T08:31:14Z</time>
      </trkpt>
      <trkpt lat="42.102455" lon="-0.37894595">
        <time>2022-07-06T08:31:15Z</time>
      </trkpt>
      <trkpt lat="42.102425" lon="-0.37885562">
        <time>2022-07-06T08:31:16Z</time>
      </trkpt>
      <trkpt lat="42.102394" lon="-0.37876597">
        <time>2022-07-06T08:31:17Z</time>
      </trkpt>
      <trkpt lat="42.102364" lon="-0.37868297">
        <time>2022-07-06T08:31:18Z</time>
      </trkpt>
      <trkpt lat="42.102333" lon="-0.37859997">
        <time>2022-07-06T08:31:19Z</time>
      </trkpt>
      <trkpt lat="42.102303" lon="-0.37851664">
        <time>2022-07-06T08:31:20Z</time>
      </trkpt>
      <trkpt lat="42.102272" lon="-0.37842697">
        <time>2022-07-06T08:31:21Z</time>
      </trkpt>
      <trkpt lat="42.10224" lon="-0.37833896">
        <time>2022-07-06T08:31:22Z</time>
      </trkpt>
      <trkpt lat="42.10221" lon="-0.37825298">
        <time>2022-07-06T08:31:23Z</time>
      </trkpt>
      <trkpt lat="42.102184" lon="-0.3781743">
        <time>2022-07-06T08:31:24Z</time>
      </trkpt>
      <trkpt lat="42.102158" lon="-0.37809065">
        <time>2022-07-06T08:31:25Z</time>
      </trkpt>
      <trkpt lat="42.102127" lon="-0.378009">
        <time>2022-07-06T08:31:26Z</time>
      </trkpt>
      <trkpt lat="42.1021" lon="-0.377929">
        <time>2022-07-06T08:31:27Z</time>
      </trkpt>
      <trkpt lat="42.10207" lon="-0.37785134">
        <time>2022-07-06T08:31:28Z</time>
      </trkpt>
      <trkpt lat="42.102047" lon="-0.37777868">
        <time>2022-07-06T08:31:29Z</time>
      </trkpt>
      <trkpt lat="42.10202" lon="-0.377705">
        <time>2022-07-06T08:31:30Z</time>
      </trkpt>
      <trkpt lat="42.101994" lon="-0.37762535">
        <time>2022-07-06T08:31:31Z</time>
      </trkpt>
      <trkpt lat="42.101967" lon="-0.37755203">
        <time>2022-07-06T08:31:32Z</time>
      </trkpt>
      <trkpt lat="42.101944" lon="-0.37747803">
        <time>2022-07-06T08:31:33Z</time>
      </trkpt>
      <trkpt lat="42.101917" lon="-0.3774057">
        <time>2022-07-06T08:31:34Z</time>
      </trkpt>
      <trkpt lat="42.10189" lon="-0.37733403">
        <time>2022-07-06T08:31:35Z</time>
      </trkpt>
      <trkpt lat="42.101868" lon="-0.37726203">
        <time>2022-07-06T08:31:36Z</time>
      </trkpt>
      <trkpt lat="42.10184" lon="-0.3771917">
        <time>2022-07-06T08:31:37Z</time>
      </trkpt>
      <trkpt lat="42.101818" lon="-0.37712103">
        <time>2022-07-06T08:31:38Z</time>
      </trkpt>
      <trkpt lat="42.101795" lon="-0.37705037">
        <time>2022-07-06T08:31:39Z</time>
      </trkpt>
      <trkpt lat="42.10177" lon="-0.37697938">
        <time>2022-07-06T08:31:40Z</time>
      </trkpt>
      <trkpt lat="42.101746" lon="-0.37690806">
        <time>2022-07-06T08:31:41Z</time>
      </trkpt>
      <trkpt lat="42.10172" lon="-0.37683606">
        <time>2022-07-06T08:31:42Z</time>
      </trkpt>
      <trkpt lat="42.101692" lon="-0.3767647">
        <time>2022-07-06T08:31:43Z</time>
      </trkpt>
      <trkpt lat="42.10167" lon="-0.37669373">
        <time>2022-07-06T08:31:44Z</time>
      </trkpt>
      <trkpt lat="42.101646" lon="-0.37662372">
        <time>2022-07-06T08:31:45Z</time>
      </trkpt>
      <trkpt lat="42.10162" lon="-0.3765544">
        <time>2022-07-06T08:31:46Z</time>
      </trkpt>
      <trkpt lat="42.101597" lon="-0.37648505">
        <time>2022-07-06T08:31:47Z</time>
      </trkpt>
      <trkpt lat="42.101574" lon="-0.37641674">
        <time>2022-07-06T08:31:48Z</time>
      </trkpt>
      <trkpt lat="42.10155" lon="-0.37634906">
        <time>2022-07-06T08:31:49Z</time>
      </trkpt>
      <trkpt lat="42.101532" lon="-0.37628242">
        <time>2022-07-06T08:31:50Z</time>
      </trkpt>
      <trkpt lat="42.10151" lon="-0.3762154">
        <time>2022-07-06T08:31:51Z</time>
      </trkpt>
      <trkpt lat="42.101486" lon="-0.37614876">
        <time>2022-07-06T08:31:52Z</time>
      </trkpt>
      <trkpt lat="42.101463" lon="-0.37608242">
        <time>2022-07-06T08:31:53Z</time>
      </trkpt>
      <trkpt lat="42.10144" lon="-0.37601677">
        <time>2022-07-06T08:31:54Z</time>
      </trkpt>
      <trkpt lat="42.101395" lon="-0.3758881">
        <time>2022-07-06T08:31:56Z</time>
      </trkpt>
      <trkpt lat="42.10137" lon="-0.3758251">
        <time>2022-07-06T08:31:57Z</time>
      </trkpt>
      <trkpt lat="42.10135" lon="-0.3757621">
        <time>2022-07-06T08:31:58Z</time>
      </trkpt>
      <trkpt lat="42.101307" lon="-0.37563545">
        <time>2022-07-06T08:32:00Z</time>
      </trkpt>
      <trkpt lat="42.101284" lon="-0.37557244">
        <time>2022-07-06T08:32:01Z</time>
      </trkpt>
      <trkpt lat="42.101265" lon="-0.3755101">
        <time>2022-07-06T08:32:02Z</time>
      </trkpt>
      <trkpt lat="42.101223" lon="-0.37538746">
        <time>2022-07-06T08:32:04Z</time>
      </trkpt>
      <trkpt lat="42.10118" lon="-0.37526312">
        <time>2022-07-06T08:32:06Z</time>
      </trkpt>
      <trkpt lat="42.10116" lon="-0.3752011">
        <time>2022-07-06T08:32:07Z</time>
      </trkpt>
      <trkpt lat="42.101116" lon="-0.37507913">
        <time>2022-07-06T08:32:09Z</time>
      </trkpt>
      <trkpt lat="42.101097" lon="-0.3750198">
        <time>2022-07-06T08:32:10Z</time>
      </trkpt>
      <trkpt lat="42.10105" lon="-0.37490147">
        <time>2022-07-06T08:32:12Z</time>
      </trkpt>
      <trkpt lat="42.101032" lon="-0.37484214">
        <time>2022-07-06T08:32:13Z</time>
      </trkpt>
      <trkpt lat="42.10099" lon="-0.37472412">
        <time>2022-07-06T08:32:15Z</time>
      </trkpt>
      <trkpt lat="42.10095" lon="-0.37460613">
        <time>2022-07-06T08:32:17Z</time>
      </trkpt>
      <trkpt lat="42.100906" lon="-0.3744888">
        <time>2022-07-06T08:32:19Z</time>
      </trkpt>
      <trkpt lat="42.100887" lon="-0.37443015">
        <time>2022-07-06T08:32:20Z</time>
      </trkpt>
      <trkpt lat="42.100845" lon="-0.37431413">
        <time>2022-07-06T08:32:22Z</time>
      </trkpt>
      <trkpt lat="42.100826" lon="-0.37425715">
        <time>2022-07-06T08:32:23Z</time>
      </trkpt>
      <trkpt lat="42.100784" lon="-0.3741458">
        <time>2022-07-06T08:32:25Z</time>
      </trkpt>
      <trkpt lat="42.100742" lon="-0.37402982">
        <time>2022-07-06T08:32:27Z</time>
      </trkpt>
      <trkpt lat="42.100723" lon="-0.37397215">
        <time>2022-07-06T08:32:28Z</time>
      </trkpt>
      <trkpt lat="42.100685" lon="-0.3738588">
        <time>2022-07-06T08:32:30Z</time>
      </trkpt>
      <trkpt lat="42.100643" lon="-0.3737475">
        <time>2022-07-06T08:32:32Z</time>
      </trkpt>
      <trkpt lat="42.100605" lon="-0.37363583">
        <time>2022-07-06T08:32:34Z</time>
      </trkpt>
      <trkpt lat="42.100563" lon="-0.37352282">
        <time>2022-07-06T08:32:36Z</time>
      </trkpt>
      <trkpt lat="42.100525" lon="-0.3734075">
        <time>2022-07-06T08:32:38Z</time>
      </trkpt>
      <trkpt lat="42.100506" lon="-0.37335017">
        <time>2022-07-06T08:32:39Z</time>
      </trkpt>
      <trkpt lat="42.100464" lon="-0.37323517">
        <time>2022-07-06T08:32:41Z</time>
      </trkpt>
      <trkpt lat="42.100426" lon="-0.37312117">
        <time>2022-07-06T08:32:43Z</time>
      </trkpt>
      <trkpt lat="42.100403" lon="-0.37306485">
        <time>2022-07-06T08:32:44Z</time>
      </trkpt>
      <trkpt lat="42.100365" lon="-0.37295184">
        <time>2022-07-06T08:32:46Z</time>
      </trkpt>
      <trkpt lat="42.100327" lon="-0.3728375">
        <time>2022-07-06T08:32:48Z</time>
      </trkpt>
      <trkpt lat="42.100307" lon="-0.3727805">
        <time>2022-07-06T08:32:49Z</time>
      </trkpt>
      <trkpt lat="42.10027" lon="-0.37266585">
        <time>2022-07-06T08:32:51Z</time>
      </trkpt>
      <trkpt lat="42.10023" lon="-0.37255353">
        <time>2022-07-06T08:32:53Z</time>
      </trkpt>
      <trkpt lat="42.100193" lon="-0.3724422">
        <time>2022-07-06T08:32:55Z</time>
      </trkpt>
      <trkpt lat="42.100155" lon="-0.37232986">
        <time>2022-07-06T08:32:57Z</time>
      </trkpt>
      <trkpt lat="42.100113" lon="-0.37221754">
        <time>2022-07-06T08:32:59Z</time>
      </trkpt>
      <trkpt lat="42.10005" lon="-0.37204888">
        <time>2022-07-06T08:33:02Z</time>
      </trkpt>
      <trkpt lat="42.100033" lon="-0.37199253">
        <time>2022-07-06T08:33:03Z</time>
      </trkpt>
      <trkpt lat="42.099995" lon="-0.37187853">
        <time>2022-07-06T08:33:05Z</time>
      </trkpt>
      <trkpt lat="42.099957" lon="-0.3717662">
        <time>2022-07-06T08:33:07Z</time>
      </trkpt>
      <trkpt lat="42.099915" lon="-0.37165156">
        <time>2022-07-06T08:33:09Z</time>
      </trkpt>
      <trkpt lat="42.099895" lon="-0.3715939">
        <time>2022-07-06T08:33:10Z</time>
      </trkpt>
      <trkpt lat="42.099857" lon="-0.3714789">
        <time>2022-07-06T08:33:12Z</time>
      </trkpt>
      <trkpt lat="42.099815" lon="-0.37136555">
        <time>2022-07-06T08:33:14Z</time>
      </trkpt>
      <trkpt lat="42.099777" lon="-0.3712529">
        <time>2022-07-06T08:33:16Z</time>
      </trkpt>
      <trkpt lat="42.09974" lon="-0.37113824">
        <time>2022-07-06T08:33:18Z</time>
      </trkpt>
      <trkpt lat="42.0997" lon="-0.3710219">
        <time>2022-07-06T08:33:20Z</time>
      </trkpt>
      <trkpt lat="42.099663" lon="-0.37090492">
        <time>2022-07-06T08:33:22Z</time>
      </trkpt>
      <trkpt lat="42.099644" lon="-0.37084857">
        <time>2022-07-06T08:33:23Z</time>
      </trkpt>
      <trkpt lat="42.099606" lon="-0.37073225">
        <time>2022-07-06T08:33:25Z</time>
      </trkpt>
      <trkpt lat="42.099564" lon="-0.37061659">
        <time>2022-07-06T08:33:27Z</time>
      </trkpt>
      <trkpt lat="42.09954" lon="-0.37055758">
        <time>2022-07-06T08:33:28Z</time>
      </trkpt>
      <trkpt lat="42.099503" lon="-0.37043858">
        <time>2022-07-06T08:33:30Z</time>
      </trkpt>
      <trkpt lat="42.09946" lon="-0.37031826">
        <time>2022-07-06T08:33:32Z</time>
      </trkpt>
      <trkpt lat="42.09944" lon="-0.3702616">
        <time>2022-07-06T08:33:33Z</time>
      </trkpt>
      <trkpt lat="42.099403" lon="-0.3701426">
        <time>2022-07-06T08:33:35Z</time>
      </trkpt>
      <trkpt lat="42.09938" lon="-0.3700816">
        <time>2022-07-06T08:33:36Z</time>
      </trkpt>
      <trkpt lat="42.099335" lon="-0.3699576">
        <time>2022-07-06T08:33:38Z</time>
      </trkpt>
      <trkpt lat="42.09931" lon="-0.3698946">
        <time>2022-07-06T08:33:39Z</time>
      </trkpt>
      <trkpt lat="42.09929" lon="-0.36983094">
        <time>2022-07-06T08:33:40Z</time>
      </trkpt>
      <trkpt lat="42.099243" lon="-0.36969894">
        <time>2022-07-06T08:33:42Z</time>
      </trkpt>
      <trkpt lat="42.09922" lon="-0.36963293">
        <time>2022-07-06T08:33:43Z</time>
      </trkpt>
      <trkpt lat="42.099197" lon="-0.3695663">
        <time>2022-07-06T08:33:44Z</time>
      </trkpt>
      <trkpt lat="42.099174" lon="-0.3695006">
        <time>2022-07-06T08:33:45Z</time>
      </trkpt>
      <trkpt lat="42.09915" lon="-0.3694356">
        <time>2022-07-06T08:33:46Z</time>
      </trkpt>
      <trkpt lat="42.099106" lon="-0.3693063">
        <time>2022-07-06T08:33:48Z</time>
      </trkpt>
      <trkpt lat="42.099083" lon="-0.36924028">
        <time>2022-07-06T08:33:49Z</time>
      </trkpt>
      <trkpt lat="42.099064" lon="-0.36917362">
        <time>2022-07-06T08:33:50Z</time>
      </trkpt>
      <trkpt lat="42.09904" lon="-0.36910763">
        <time>2022-07-06T08:33:51Z</time>
      </trkpt>
      <trkpt lat="42.09902" lon="-0.3690413">
        <time>2022-07-06T08:33:52Z</time>
      </trkpt>
      <trkpt lat="42.098995" lon="-0.3689743">
        <time>2022-07-06T08:33:53Z</time>
      </trkpt>
      <trkpt lat="42.098972" lon="-0.36890864">
        <time>2022-07-06T08:33:54Z</time>
      </trkpt>
      <trkpt lat="42.098946" lon="-0.36884364">
        <time>2022-07-06T08:33:55Z</time>
      </trkpt>
      <trkpt lat="42.098923" lon="-0.3687793">
        <time>2022-07-06T08:33:56Z</time>
      </trkpt>
      <trkpt lat="42.09888" lon="-0.36865032">
        <time>2022-07-06T08:33:58Z</time>
      </trkpt>
      <trkpt lat="42.098858" lon="-0.3685863">
        <time>2022-07-06T08:33:59Z</time>
      </trkpt>
      <trkpt lat="42.098835" lon="-0.36852232">
        <time>2022-07-06T08:34:00Z</time>
      </trkpt>
      <trkpt lat="42.098812" lon="-0.36845666">
        <time>2022-07-06T08:34:01Z</time>
      </trkpt>
      <trkpt lat="42.09879" lon="-0.36838964">
        <time>2022-07-06T08:34:02Z</time>
      </trkpt>
      <trkpt lat="42.098766" lon="-0.368321">
        <time>2022-07-06T08:34:03Z</time>
      </trkpt>
      <trkpt lat="42.098743" lon="-0.36825132">
        <time>2022-07-06T08:34:04Z</time>
      </trkpt>
      <trkpt lat="42.09872" lon="-0.36818">
        <time>2022-07-06T08:34:05Z</time>
      </trkpt>
      <trkpt lat="42.098698" lon="-0.368113">
        <time>2022-07-06T08:34:06Z</time>
      </trkpt>
      <trkpt lat="42.09867" lon="-0.368044">
        <time>2022-07-06T08:34:07Z</time>
      </trkpt>
      <trkpt lat="42.098644" lon="-0.36796835">
        <time>2022-07-06T08:34:08Z</time>
      </trkpt>
      <trkpt lat="42.098618" lon="-0.367893">
        <time>2022-07-06T08:34:09Z</time>
      </trkpt>
      <trkpt lat="42.098568" lon="-0.36775136">
        <time>2022-07-06T08:34:11Z</time>
      </trkpt>
      <trkpt lat="42.098537" lon="-0.36767402">
        <time>2022-07-06T08:34:12Z</time>
      </trkpt>
      <trkpt lat="42.098515" lon="-0.36759737">
        <time>2022-07-06T08:34:13Z</time>
      </trkpt>
      <trkpt lat="42.098488" lon="-0.36752135">
        <time>2022-07-06T08:34:14Z</time>
      </trkpt>
      <trkpt lat="42.09846" lon="-0.3674467">
        <time>2022-07-06T08:34:15Z</time>
      </trkpt>
      <trkpt lat="42.098434" lon="-0.36737305">
        <time>2022-07-06T08:34:16Z</time>
      </trkpt>
      <trkpt lat="42.09841" lon="-0.36730072">
        <time>2022-07-06T08:34:17Z</time>
      </trkpt>
      <trkpt lat="42.098385" lon="-0.36722806">
        <time>2022-07-06T08:34:18Z</time>
      </trkpt>
      <trkpt lat="42.098362" lon="-0.36715505">
        <time>2022-07-06T08:34:19Z</time>
      </trkpt>
      <trkpt lat="42.09834" lon="-0.3670824">
        <time>2022-07-06T08:34:20Z</time>
      </trkpt>
      <trkpt lat="42.098316" lon="-0.36701074">
        <time>2022-07-06T08:34:21Z</time>
      </trkpt>
      <trkpt lat="42.098293" lon="-0.36693907">
        <time>2022-07-06T08:34:22Z</time>
      </trkpt>
      <trkpt lat="42.098267" lon="-0.36686707">
        <time>2022-07-06T08:34:23Z</time>
      </trkpt>
      <trkpt lat="42.098248" lon="-0.36679608">
        <time>2022-07-06T08:34:24Z</time>
      </trkpt>
      <trkpt lat="42.09822" lon="-0.3667264">
        <time>2022-07-06T08:34:25Z</time>
      </trkpt>
      <trkpt lat="42.098198" lon="-0.36665776">
        <time>2022-07-06T08:34:26Z</time>
      </trkpt>
      <trkpt lat="42.09817" lon="-0.3665904">
        <time>2022-07-06T08:34:27Z</time>
      </trkpt>
      <trkpt lat="42.09815" lon="-0.3665234">
        <time>2022-07-06T08:34:28Z</time>
      </trkpt>
      <trkpt lat="42.09812" lon="-0.3664561">
        <time>2022-07-06T08:34:29Z</time>
      </trkpt>
      <trkpt lat="42.0981" lon="-0.36639377">
        <time>2022-07-06T08:34:30Z</time>
      </trkpt>
      <trkpt lat="42.098076" lon="-0.36632943">
        <time>2022-07-06T08:34:31Z</time>
      </trkpt>
      <trkpt lat="42.098053" lon="-0.36625978">
        <time>2022-07-06T08:34:32Z</time>
      </trkpt>
      <trkpt lat="42.09803" lon="-0.36619112">
        <time>2022-07-06T08:34:33Z</time>
      </trkpt>
      <trkpt lat="42.098007" lon="-0.3661231">
        <time>2022-07-06T08:34:34Z</time>
      </trkpt>
      <trkpt lat="42.097984" lon="-0.3660558">
        <time>2022-07-06T08:34:35Z</time>
      </trkpt>
      <trkpt lat="42.09796" lon="-0.36598912">
        <time>2022-07-06T08:34:36Z</time>
      </trkpt>
      <trkpt lat="42.097935" lon="-0.36592278">
        <time>2022-07-06T08:34:37Z</time>
      </trkpt>
      <trkpt lat="42.09791" lon="-0.36585778">
        <time>2022-07-06T08:34:38Z</time>
      </trkpt>
      <trkpt lat="42.097893" lon="-0.36579245">
        <time>2022-07-06T08:34:39Z</time>
      </trkpt>
      <trkpt lat="42.09787" lon="-0.36572745">
        <time>2022-07-06T08:34:40Z</time>
      </trkpt>
      <trkpt lat="42.097847" lon="-0.3656618">
        <time>2022-07-06T08:34:41Z</time>
      </trkpt>
      <trkpt lat="42.097824" lon="-0.3655958">
        <time>2022-07-06T08:34:42Z</time>
      </trkpt>
      <trkpt lat="42.097805" lon="-0.36553013">
        <time>2022-07-06T08:34:43Z</time>
      </trkpt>
      <trkpt lat="42.09776" lon="-0.36540014">
        <time>2022-07-06T08:34:45Z</time>
      </trkpt>
      <trkpt lat="42.097736" lon="-0.36534014">
        <time>2022-07-06T08:34:46Z</time>
      </trkpt>
      <trkpt lat="42.097713" lon="-0.36527848">
        <time>2022-07-06T08:34:47Z</time>
      </trkpt>
      <trkpt lat="42.09767" lon="-0.36515248">
        <time>2022-07-06T08:34:49Z</time>
      </trkpt>
      <trkpt lat="42.09765" lon="-0.36508882">
        <time>2022-07-06T08:34:50Z</time>
      </trkpt>
      <trkpt lat="42.097626" lon="-0.36502117">
        <time>2022-07-06T08:34:51Z</time>
      </trkpt>
      <trkpt lat="42.097603" lon="-0.36495882">
        <time>2022-07-06T08:34:52Z</time>
      </trkpt>
      <trkpt lat="42.097576" lon="-0.36489317">
        <time>2022-07-06T08:34:53Z</time>
      </trkpt>
      <trkpt lat="42.09755" lon="-0.36483452">
        <time>2022-07-06T08:34:54Z</time>
      </trkpt>
      <trkpt lat="42.097515" lon="-0.36477417">
        <time>2022-07-06T08:34:55Z</time>
      </trkpt>
      <trkpt lat="42.09748" lon="-0.36471784">
        <time>2022-07-06T08:34:56Z</time>
      </trkpt>
      <trkpt lat="42.097443" lon="-0.36466753">
        <time>2022-07-06T08:34:57Z</time>
      </trkpt>
      <trkpt lat="42.0974" lon="-0.36462152">
        <time>2022-07-06T08:34:58Z</time>
      </trkpt>
      <trkpt lat="42.09736" lon="-0.36457953">
        <time>2022-07-06T08:34:59Z</time>
      </trkpt>
      <trkpt lat="42.097317" lon="-0.36453918">
        <time>2022-07-06T08:35:00Z</time>
      </trkpt>
      <trkpt lat="42.097237" lon="-0.36445352">
        <time>2022-07-06T08:35:02Z</time>
      </trkpt>
      <trkpt lat="42.097202" lon="-0.36440688">
        <time>2022-07-06T08:35:03Z</time>
      </trkpt>
      <trkpt lat="42.097153" lon="-0.36430186">
        <time>2022-07-06T08:35:05Z</time>
      </trkpt>
      <trkpt lat="42.09713" lon="-0.36418486">
        <time>2022-07-06T08:35:07Z</time>
      </trkpt>
      <trkpt lat="42.097134" lon="-0.36406454">
        <time>2022-07-06T08:35:09Z</time>
      </trkpt>
      <trkpt lat="42.097145" lon="-0.3639429">
        <time>2022-07-06T08:35:11Z</time>
      </trkpt>
      <trkpt lat="42.097145" lon="-0.36375287">
        <time>2022-07-06T08:35:14Z</time>
      </trkpt>
      <trkpt lat="42.097126" lon="-0.36362654">
        <time>2022-07-06T08:35:16Z</time>
      </trkpt>
      <trkpt lat="42.0971" lon="-0.36350122">
        <time>2022-07-06T08:35:18Z</time>
      </trkpt>
      <trkpt lat="42.097084" lon="-0.36343923">
        <time>2022-07-06T08:35:19Z</time>
      </trkpt>
      <trkpt lat="42.09705" lon="-0.36332288">
        <time>2022-07-06T08:35:21Z</time>
      </trkpt>
      <trkpt lat="42.09703" lon="-0.36326388">
        <time>2022-07-06T08:35:22Z</time>
      </trkpt>
      <trkpt lat="42.09699" lon="-0.36313957">
        <time>2022-07-06T08:35:24Z</time>
      </trkpt>
      <trkpt lat="42.096962" lon="-0.36307722">
        <time>2022-07-06T08:35:25Z</time>
      </trkpt>
      <trkpt lat="42.09694" lon="-0.3630149">
        <time>2022-07-06T08:35:26Z</time>
      </trkpt>
      <trkpt lat="42.096916" lon="-0.3629519">
        <time>2022-07-06T08:35:27Z</time>
      </trkpt>
      <trkpt lat="42.096893" lon="-0.3628879">
        <time>2022-07-06T08:35:28Z</time>
      </trkpt>
      <trkpt lat="42.09687" lon="-0.36282557">
        <time>2022-07-06T08:35:29Z</time>
      </trkpt>
      <trkpt lat="42.09683" lon="-0.36270392">
        <time>2022-07-06T08:35:31Z</time>
      </trkpt>
      <trkpt lat="42.096786" lon="-0.36258924">
        <time>2022-07-06T08:35:33Z</time>
      </trkpt>
      <trkpt lat="42.096752" lon="-0.36248025">
        <time>2022-07-06T08:35:35Z</time>
      </trkpt>
      <trkpt lat="42.096745" lon="-0.3623779">
        <time>2022-07-06T08:35:37Z</time>
      </trkpt>
      <trkpt lat="42.09676" lon="-0.36228493">
        <time>2022-07-06T08:35:39Z</time>
      </trkpt>
      <trkpt lat="42.09679" lon="-0.36220625">
        <time>2022-07-06T08:35:41Z</time>
      </trkpt>
      <trkpt lat="42.09682" lon="-0.36214527">
        <time>2022-07-06T08:35:43Z</time>
      </trkpt>
      <trkpt lat="42.09684" lon="-0.36210194">
        <time>2022-07-06T08:35:48Z</time>
      </trkpt>
      <trkpt lat="42.096916" lon="-0.36213294">
        <time>2022-07-06T08:42:38Z</time>
      </trkpt>
      <trkpt lat="42.096916" lon="-0.3622036">
        <time>2022-07-06T08:50:26Z</time>
      </trkpt>
      <trkpt lat="42.096848" lon="-0.36223024">
        <time>2022-07-06T08:50:28Z</time>
      </trkpt>
      <trkpt lat="42.09677" lon="-0.36221525">
        <time>2022-07-06T08:50:30Z</time>
      </trkpt>
      <trkpt lat="42.0967" lon="-0.36216325">
        <time>2022-07-06T08:50:32Z</time>
      </trkpt>
      <trkpt lat="42.096638" lon="-0.3620879">
        <time>2022-07-06T08:50:34Z</time>
      </trkpt>
      <trkpt lat="42.096584" lon="-0.3619976">
        <time>2022-07-06T08:50:36Z</time>
      </trkpt>
      <trkpt lat="42.09653" lon="-0.36189926">
        <time>2022-07-06T08:50:38Z</time>
      </trkpt>
      <trkpt lat="42.09648" lon="-0.36179826">
        <time>2022-07-06T08:50:40Z</time>
      </trkpt>
      <trkpt lat="42.096428" lon="-0.36169225">
        <time>2022-07-06T08:50:42Z</time>
      </trkpt>
      <trkpt lat="42.096375" lon="-0.36158493">
        <time>2022-07-06T08:50:44Z</time>
      </trkpt>
      <trkpt lat="42.096348" lon="-0.36153093">
        <time>2022-07-06T08:50:45Z</time>
      </trkpt>
      <trkpt lat="42.09629" lon="-0.3614246">
        <time>2022-07-06T08:50:47Z</time>
      </trkpt>
      <trkpt lat="42.096264" lon="-0.36137328">
        <time>2022-07-06T08:50:48Z</time>
      </trkpt>
      <trkpt lat="42.096203" lon="-0.36127228">
        <time>2022-07-06T08:50:50Z</time>
      </trkpt>
      <trkpt lat="42.09617" lon="-0.3612216">
        <time>2022-07-06T08:50:51Z</time>
      </trkpt>
      <trkpt lat="42.096104" lon="-0.36112195">
        <time>2022-07-06T08:50:53Z</time>
      </trkpt>
      <trkpt lat="42.09604" lon="-0.36102462">
        <time>2022-07-06T08:50:55Z</time>
      </trkpt>
      <trkpt lat="42.09597" lon="-0.36093095">
        <time>2022-07-06T08:50:57Z</time>
      </trkpt>
      <trkpt lat="42.095936" lon="-0.36088496">
        <time>2022-07-06T08:50:58Z</time>
      </trkpt>
      <trkpt lat="42.095863" lon="-0.36079296">
        <time>2022-07-06T08:51:00Z</time>
      </trkpt>
      <trkpt lat="42.09579" lon="-0.36070597">
        <time>2022-07-06T08:51:02Z</time>
      </trkpt>
      <trkpt lat="42.095722" lon="-0.36062297">
        <time>2022-07-06T08:51:04Z</time>
      </trkpt>
      <trkpt lat="42.095684" lon="-0.3605813">
        <time>2022-07-06T08:51:05Z</time>
      </trkpt>
      <trkpt lat="42.095608" lon="-0.36049864">
        <time>2022-07-06T08:51:07Z</time>
      </trkpt>
      <trkpt lat="42.095566" lon="-0.3604573">
        <time>2022-07-06T08:51:08Z</time>
      </trkpt>
      <trkpt lat="42.095486" lon="-0.3603773">
        <time>2022-07-06T08:51:10Z</time>
      </trkpt>
      <trkpt lat="42.095444" lon="-0.3603383">
        <time>2022-07-06T08:51:11Z</time>
      </trkpt>
      <trkpt lat="42.09536" lon="-0.3602603">
        <time>2022-07-06T08:51:13Z</time>
      </trkpt>
      <trkpt lat="42.095318" lon="-0.3602223">
        <time>2022-07-06T08:51:14Z</time>
      </trkpt>
      <trkpt lat="42.095234" lon="-0.36015165">
        <time>2022-07-06T08:51:16Z</time>
      </trkpt>
      <trkpt lat="42.095146" lon="-0.3600873">
        <time>2022-07-06T08:51:18Z</time>
      </trkpt>
      <trkpt lat="42.09506" lon="-0.360023">
        <time>2022-07-06T08:51:20Z</time>
      </trkpt>
      <trkpt lat="42.09497" lon="-0.35995898">
        <time>2022-07-06T08:51:22Z</time>
      </trkpt>
      <trkpt lat="42.094925" lon="-0.35992733">
        <time>2022-07-06T08:51:23Z</time>
      </trkpt>
      <trkpt lat="42.094837" lon="-0.359865">
        <time>2022-07-06T08:51:25Z</time>
      </trkpt>
      <trkpt lat="42.09475" lon="-0.359803">
        <time>2022-07-06T08:51:27Z</time>
      </trkpt>
      <trkpt lat="42.09466" lon="-0.359739">
        <time>2022-07-06T08:51:29Z</time>
      </trkpt>
      <trkpt lat="42.094574" lon="-0.35967934">
        <time>2022-07-06T08:51:31Z</time>
      </trkpt>
      <trkpt lat="42.094486" lon="-0.35962135">
        <time>2022-07-06T08:51:33Z</time>
      </trkpt>
      <trkpt lat="42.0944" lon="-0.35956135">
        <time>2022-07-06T08:51:35Z</time>
      </trkpt>
      <trkpt lat="42.09431" lon="-0.359501">
        <time>2022-07-06T08:51:37Z</time>
      </trkpt>
      <trkpt lat="42.09427" lon="-0.35947102">
        <time>2022-07-06T08:51:38Z</time>
      </trkpt>
      <trkpt lat="42.094177" lon="-0.35940936">
        <time>2022-07-06T08:51:40Z</time>
      </trkpt>
      <trkpt lat="42.094135" lon="-0.35938135">
        <time>2022-07-06T08:51:41Z</time>
      </trkpt>
      <trkpt lat="42.09405" lon="-0.35932535">
        <time>2022-07-06T08:51:43Z</time>
      </trkpt>
      <trkpt lat="42.093967" lon="-0.35926968">
        <time>2022-07-06T08:51:45Z</time>
      </trkpt>
      <trkpt lat="42.09388" lon="-0.35921237">
        <time>2022-07-06T08:51:47Z</time>
      </trkpt>
      <trkpt lat="42.093796" lon="-0.35915703">
        <time>2022-07-06T08:51:49Z</time>
      </trkpt>
      <trkpt lat="42.093754" lon="-0.35912836">
        <time>2022-07-06T08:51:50Z</time>
      </trkpt>
      <trkpt lat="42.09367" lon="-0.35906804">
        <time>2022-07-06T08:51:52Z</time>
      </trkpt>
      <trkpt lat="42.093628" lon="-0.35903937">
        <time>2022-07-06T08:51:53Z</time>
      </trkpt>
      <trkpt lat="42.093544" lon="-0.35898438">
        <time>2022-07-06T08:51:55Z</time>
      </trkpt>
      <trkpt lat="42.09346" lon="-0.35893106">
        <time>2022-07-06T08:51:57Z</time>
      </trkpt>
      <trkpt lat="42.09338" lon="-0.35887906">
        <time>2022-07-06T08:51:59Z</time>
      </trkpt>
      <trkpt lat="42.0933" lon="-0.35882673">
        <time>2022-07-06T08:52:01Z</time>
      </trkpt>
      <trkpt lat="42.093216" lon="-0.35877207">
        <time>2022-07-06T08:52:03Z</time>
      </trkpt>
      <trkpt lat="42.093136" lon="-0.35871905">
        <time>2022-07-06T08:52:05Z</time>
      </trkpt>
      <trkpt lat="42.093052" lon="-0.3586694">
        <time>2022-07-06T08:52:07Z</time>
      </trkpt>
      <trkpt lat="42.09298" lon="-0.35860708">
        <time>2022-07-06T08:52:09Z</time>
      </trkpt>
      <trkpt lat="42.092922" lon="-0.35852742">
        <time>2022-07-06T08:52:11Z</time>
      </trkpt>
      <trkpt lat="42.092888" lon="-0.35842976">
        <time>2022-07-06T08:52:13Z</time>
      </trkpt>
      <trkpt lat="42.09287" lon="-0.3583191">
        <time>2022-07-06T08:52:15Z</time>
      </trkpt>
      <trkpt lat="42.092865" lon="-0.35820976">
        <time>2022-07-06T08:52:17Z</time>
      </trkpt>
      <trkpt lat="42.092865" lon="-0.35810277">
        <time>2022-07-06T08:52:19Z</time>
      </trkpt>
      <trkpt lat="42.092873" lon="-0.35799643">
        <time>2022-07-06T08:52:21Z</time>
      </trkpt>
      <trkpt lat="42.09289" lon="-0.35790277">
        <time>2022-07-06T08:52:23Z</time>
      </trkpt>
      <trkpt lat="42.092934" lon="-0.35781476">
        <time>2022-07-06T08:52:25Z</time>
      </trkpt>
      <trkpt lat="42.09299" lon="-0.35773945">
        <time>2022-07-06T08:52:27Z</time>
      </trkpt>
      <trkpt lat="42.093052" lon="-0.3576811">
        <time>2022-07-06T08:52:29Z</time>
      </trkpt>
      <trkpt lat="42.093117" lon="-0.3576218">
        <time>2022-07-06T08:52:31Z</time>
      </trkpt>
      <trkpt lat="42.09318" lon="-0.35756013">
        <time>2022-07-06T08:52:33Z</time>
      </trkpt>
      <trkpt lat="42.093243" lon="-0.35751045">
        <time>2022-07-06T08:52:35Z</time>
      </trkpt>
      <trkpt lat="42.093307" lon="-0.3574678">
        <time>2022-07-06T08:52:37Z</time>
      </trkpt>
      <trkpt lat="42.09336" lon="-0.3574378">
        <time>2022-07-06T08:52:39Z</time>
      </trkpt>
      <trkpt lat="42.093403" lon="-0.35741547">
        <time>2022-07-06T08:52:41Z</time>
      </trkpt>
      <trkpt lat="42.09346" lon="-0.35738346">
        <time>2022-07-06T08:52:44Z</time>
      </trkpt>
      <trkpt lat="42.09352" lon="-0.35735115">
        <time>2022-07-06T08:52:47Z</time>
      </trkpt>
      <trkpt lat="42.09357" lon="-0.35735148">
        <time>2022-07-06T08:52:50Z</time>
      </trkpt>
      <trkpt lat="42.093594" lon="-0.35740948">
        <time>2022-07-06T08:52:56Z</time>
      </trkpt>
      <trkpt lat="42.093582" lon="-0.3573428">
        <time>2022-07-06T08:56:41Z</time>
      </trkpt>
      <trkpt lat="42.09364" lon="-0.3573448">
        <time>2022-07-06T09:04:14Z</time>
      </trkpt>
      <trkpt lat="42.093636" lon="-0.35742015">
        <time>2022-07-06T09:04:22Z</time>
      </trkpt>
      <trkpt lat="42.093758" lon="-0.35750246">
        <time>2022-07-06T09:04:30Z</time>
      </trkpt>
      <trkpt lat="42.093796" lon="-0.3575188">
        <time>2022-07-06T09:04:33Z</time>
      </trkpt>
      <trkpt lat="42.093796" lon="-0.35744414">
        <time>2022-07-06T09:04:38Z</time>
      </trkpt>
      <trkpt lat="42.093777" lon="-0.3573835">
        <time>2022-07-06T09:04:41Z</time>
      </trkpt>
      <trkpt lat="42.093487" lon="-0.35740447">
        <time>2022-07-06T09:09:05Z</time>
      </trkpt>
      <trkpt lat="42.09351" lon="-0.35732916">
        <time>2022-07-06T09:09:40Z</time>
      </trkpt>
      <trkpt lat="42.09353" lon="-0.35728648">
        <time>2022-07-06T09:10:43Z</time>
      </trkpt>
      <trkpt lat="42.093567" lon="-0.35724482">
        <time>2022-07-06T09:10:48Z</time>
      </trkpt>
      <trkpt lat="42.09355" lon="-0.35728282">
        <time>2022-07-06T09:10:55Z</time>
      </trkpt>
      <trkpt lat="42.09352" lon="-0.35725284">
        <time>2022-07-06T09:11:04Z</time>
      </trkpt>
      <trkpt lat="42.09359" lon="-0.35738948">
        <time>2022-07-06T09:16:36Z</time>
      </trkpt>
      <trkpt lat="42.09354" lon="-0.35768214">
        <time>2022-07-06T09:25:09Z</time>
      </trkpt>
      <trkpt lat="42.09356" lon="-0.35771015">
        <time>2022-07-06T09:25:12Z</time>
      </trkpt>
      <trkpt lat="42.09359" lon="-0.3576438">
        <time>2022-07-06T09:25:17Z</time>
      </trkpt>
      <trkpt lat="42.093643" lon="-0.35735548">
        <time>2022-07-06T09:36:31Z</time>
      </trkpt>
      <trkpt lat="42.093662" lon="-0.35727116">
        <time>2022-07-06T09:36:34Z</time>
      </trkpt>
      <trkpt lat="42.09372" lon="-0.3572135">
        <time>2022-07-06T09:36:37Z</time>
      </trkpt>
      <trkpt lat="42.093773" lon="-0.35716784">
        <time>2022-07-06T09:36:39Z</time>
      </trkpt>
      <trkpt lat="42.09383" lon="-0.3571195">
        <time>2022-07-06T09:36:41Z</time>
      </trkpt>
      <trkpt lat="42.09389" lon="-0.3570655">
        <time>2022-07-06T09:36:43Z</time>
      </trkpt>
      <trkpt lat="42.093945" lon="-0.3570055">
        <time>2022-07-06T09:36:45Z</time>
      </trkpt>
      <trkpt lat="42.093994" lon="-0.3569335">
        <time>2022-07-06T09:36:47Z</time>
      </trkpt>
      <trkpt lat="42.094044" lon="-0.35687318">
        <time>2022-07-06T09:36:49Z</time>
      </trkpt>
      <trkpt lat="42.094093" lon="-0.3568242">
        <time>2022-07-06T09:36:51Z</time>
      </trkpt>
      <trkpt lat="42.094143" lon="-0.35678685">
        <time>2022-07-06T09:36:53Z</time>
      </trkpt>
      <trkpt lat="42.094196" lon="-0.35675284">
        <time>2022-07-06T09:36:55Z</time>
      </trkpt>
      <trkpt lat="42.094246" lon="-0.3567242">
        <time>2022-07-06T09:36:57Z</time>
      </trkpt>
      <trkpt lat="42.0943" lon="-0.35669518">
        <time>2022-07-06T09:36:59Z</time>
      </trkpt>
      <trkpt lat="42.094357" lon="-0.35666785">
        <time>2022-07-06T09:37:01Z</time>
      </trkpt>
      <trkpt lat="42.09441" lon="-0.3566452">
        <time>2022-07-06T09:37:03Z</time>
      </trkpt>
      <trkpt lat="42.094467" lon="-0.35661986">
        <time>2022-07-06T09:37:05Z</time>
      </trkpt>
      <trkpt lat="42.094517" lon="-0.35658586">
        <time>2022-07-06T09:37:07Z</time>
      </trkpt>
      <trkpt lat="42.09456" lon="-0.35653988">
        <time>2022-07-06T09:37:09Z</time>
      </trkpt>
      <trkpt lat="42.094578" lon="-0.3564772">
        <time>2022-07-06T09:37:11Z</time>
      </trkpt>
      <trkpt lat="42.09457" lon="-0.35635754">
        <time>2022-07-06T09:37:14Z</time>
      </trkpt>
      <trkpt lat="42.09455" lon="-0.3562679">
        <time>2022-07-06T09:37:16Z</time>
      </trkpt>
      <trkpt lat="42.094517" lon="-0.35612056">
        <time>2022-07-06T09:37:19Z</time>
      </trkpt>
      <trkpt lat="42.094505" lon="-0.35601756">
        <time>2022-07-06T09:37:21Z</time>
      </trkpt>
      <trkpt lat="42.094498" lon="-0.35591823">
        <time>2022-07-06T09:37:23Z</time>
      </trkpt>
      <trkpt lat="42.09449" lon="-0.35582358">
        <time>2022-07-06T09:37:25Z</time>
      </trkpt>
      <trkpt lat="42.094482" lon="-0.35573357">
        <time>2022-07-06T09:37:27Z</time>
      </trkpt>
      <trkpt lat="42.09448" lon="-0.3556489">
        <time>2022-07-06T09:37:29Z</time>
      </trkpt>
      <trkpt lat="42.094486" lon="-0.35556558">
        <time>2022-07-06T09:37:31Z</time>
      </trkpt>
      <trkpt lat="42.094498" lon="-0.35548526">
        <time>2022-07-06T09:37:33Z</time>
      </trkpt>
      <trkpt lat="42.09451" lon="-0.35541058">
        <time>2022-07-06T09:37:35Z</time>
      </trkpt>
      <trkpt lat="42.09452" lon="-0.35533226">
        <time>2022-07-06T09:37:37Z</time>
      </trkpt>
      <trkpt lat="42.094524" lon="-0.35525194">
        <time>2022-07-06T09:37:39Z</time>
      </trkpt>
      <trkpt lat="42.094532" lon="-0.3551726">
        <time>2022-07-06T09:37:41Z</time>
      </trkpt>
      <trkpt lat="42.094536" lon="-0.35509327">
        <time>2022-07-06T09:37:43Z</time>
      </trkpt>
      <trkpt lat="42.094543" lon="-0.35501128">
        <time>2022-07-06T09:37:45Z</time>
      </trkpt>
      <trkpt lat="42.094543" lon="-0.35492793">
        <time>2022-07-06T09:37:47Z</time>
      </trkpt>
      <trkpt lat="42.094543" lon="-0.35484594">
        <time>2022-07-06T09:37:49Z</time>
      </trkpt>
      <trkpt lat="42.094543" lon="-0.35477293">
        <time>2022-07-06T09:37:51Z</time>
      </trkpt>
      <trkpt lat="42.09454" lon="-0.35470194">
        <time>2022-07-06T09:37:53Z</time>
      </trkpt>
      <trkpt lat="42.09454" lon="-0.35462895">
        <time>2022-07-06T09:37:55Z</time>
      </trkpt>
      <trkpt lat="42.094547" lon="-0.35455227">
        <time>2022-07-06T09:37:57Z</time>
      </trkpt>
      <trkpt lat="42.09455" lon="-0.35447463">
        <time>2022-07-06T09:37:59Z</time>
      </trkpt>
      <trkpt lat="42.09455" lon="-0.35439596">
        <time>2022-07-06T09:38:01Z</time>
      </trkpt>
      <trkpt lat="42.094555" lon="-0.3543173">
        <time>2022-07-06T09:38:03Z</time>
      </trkpt>
      <trkpt lat="42.09456" lon="-0.35423863">
        <time>2022-07-06T09:38:05Z</time>
      </trkpt>
      <trkpt lat="42.094563" lon="-0.35415763">
        <time>2022-07-06T09:38:07Z</time>
      </trkpt>
      <trkpt lat="42.094566" lon="-0.35407564">
        <time>2022-07-06T09:38:09Z</time>
      </trkpt>
      <trkpt lat="42.09457" lon="-0.3539923">
        <time>2022-07-06T09:38:11Z</time>
      </trkpt>
      <trkpt lat="42.094574" lon="-0.3539093">
        <time>2022-07-06T09:38:13Z</time>
      </trkpt>
      <trkpt lat="42.094578" lon="-0.35382432">
        <time>2022-07-06T09:38:15Z</time>
      </trkpt>
      <trkpt lat="42.094585" lon="-0.35373697">
        <time>2022-07-06T09:38:17Z</time>
      </trkpt>
      <trkpt lat="42.094593" lon="-0.35364932">
        <time>2022-07-06T09:38:19Z</time>
      </trkpt>
      <trkpt lat="42.0946" lon="-0.35351798">
        <time>2022-07-06T09:38:22Z</time>
      </trkpt>
      <trkpt lat="42.09461" lon="-0.35343334">
        <time>2022-07-06T09:38:24Z</time>
      </trkpt>
      <trkpt lat="42.094616" lon="-0.35334867">
        <time>2022-07-06T09:38:26Z</time>
      </trkpt>
      <trkpt lat="42.09462" lon="-0.353267">
        <time>2022-07-06T09:38:28Z</time>
      </trkpt>
      <trkpt lat="42.094624" lon="-0.353183">
        <time>2022-07-06T09:38:30Z</time>
      </trkpt>
      <trkpt lat="42.094627" lon="-0.35309836">
        <time>2022-07-06T09:38:32Z</time>
      </trkpt>
      <trkpt lat="42.094627" lon="-0.35301402">
        <time>2022-07-06T09:38:34Z</time>
      </trkpt>
      <trkpt lat="42.094627" lon="-0.35292968">
        <time>2022-07-06T09:38:36Z</time>
      </trkpt>
      <trkpt lat="42.094627" lon="-0.35284504">
        <time>2022-07-06T09:38:38Z</time>
      </trkpt>
      <trkpt lat="42.094627" lon="-0.3527577">
        <time>2022-07-06T09:38:40Z</time>
      </trkpt>
      <trkpt lat="42.094635" lon="-0.35266703">
        <time>2022-07-06T09:38:42Z</time>
      </trkpt>
      <trkpt lat="42.09464" lon="-0.35257438">
        <time>2022-07-06T09:38:44Z</time>
      </trkpt>
      <trkpt lat="42.094646" lon="-0.3524787">
        <time>2022-07-06T09:38:46Z</time>
      </trkpt>
      <trkpt lat="42.094654" lon="-0.3523804">
        <time>2022-07-06T09:38:48Z</time>
      </trkpt>
      <trkpt lat="42.094666" lon="-0.35228106">
        <time>2022-07-06T09:38:50Z</time>
      </trkpt>
      <trkpt lat="42.094673" lon="-0.35217872">
        <time>2022-07-06T09:38:52Z</time>
      </trkpt>
      <trkpt lat="42.09468" lon="-0.3520744">
        <time>2022-07-06T09:38:54Z</time>
      </trkpt>
      <trkpt lat="42.09468" lon="-0.3519714">
        <time>2022-07-06T09:38:56Z</time>
      </trkpt>
      <trkpt lat="42.094666" lon="-0.35187373">
        <time>2022-07-06T09:38:58Z</time>
      </trkpt>
      <trkpt lat="42.09465" lon="-0.3517804">
        <time>2022-07-06T09:39:00Z</time>
      </trkpt>
      <trkpt lat="42.09464" lon="-0.35169175">
        <time>2022-07-06T09:39:02Z</time>
      </trkpt>
      <trkpt lat="42.094627" lon="-0.35160276">
        <time>2022-07-06T09:39:04Z</time>
      </trkpt>
      <trkpt lat="42.09462" lon="-0.35151508">
        <time>2022-07-06T09:39:06Z</time>
      </trkpt>
      <trkpt lat="42.094612" lon="-0.35143143">
        <time>2022-07-06T09:39:08Z</time>
      </trkpt>
      <trkpt lat="42.09461" lon="-0.3513531">
        <time>2022-07-06T09:39:10Z</time>
      </trkpt>
      <trkpt lat="42.094616" lon="-0.35128245">
        <time>2022-07-06T09:39:12Z</time>
      </trkpt>
      <trkpt lat="42.09464" lon="-0.35122278">
        <time>2022-07-06T09:39:14Z</time>
      </trkpt>
      <trkpt lat="42.0947" lon="-0.35115445">
        <time>2022-07-06T09:39:17Z</time>
      </trkpt>
      <trkpt lat="42.094753" lon="-0.3511151">
        <time>2022-07-06T09:39:19Z</time>
      </trkpt>
      <trkpt lat="42.09481" lon="-0.35107046">
        <time>2022-07-06T09:39:21Z</time>
      </trkpt>
      <trkpt lat="42.094864" lon="-0.35100812">
        <time>2022-07-06T09:39:23Z</time>
      </trkpt>
      <trkpt lat="42.094925" lon="-0.35088548">
        <time>2022-07-06T09:39:26Z</time>
      </trkpt>
      <trkpt lat="42.094955" lon="-0.35078713">
        <time>2022-07-06T09:39:28Z</time>
      </trkpt>
      <trkpt lat="42.094982" lon="-0.35068715">
        <time>2022-07-06T09:39:30Z</time>
      </trkpt>
      <trkpt lat="42.09501" lon="-0.3505875">
        <time>2022-07-06T09:39:32Z</time>
      </trkpt>
      <trkpt lat="42.095036" lon="-0.35048681">
        <time>2022-07-06T09:39:34Z</time>
      </trkpt>
      <trkpt lat="42.095066" lon="-0.35038516">
        <time>2022-07-06T09:39:36Z</time>
      </trkpt>
      <trkpt lat="42.095104" lon="-0.35028583">
        <time>2022-07-06T09:39:38Z</time>
      </trkpt>
      <trkpt lat="42.095146" lon="-0.3501895">
        <time>2022-07-06T09:39:40Z</time>
      </trkpt>
      <trkpt lat="42.09519" lon="-0.35009485">
        <time>2022-07-06T09:39:42Z</time>
      </trkpt>
      <trkpt lat="42.09523" lon="-0.35000384">
        <time>2022-07-06T09:39:44Z</time>
      </trkpt>
      <trkpt lat="42.095276" lon="-0.34991452">
        <time>2022-07-06T09:39:46Z</time>
      </trkpt>
      <trkpt lat="42.095325" lon="-0.34982485">
        <time>2022-07-06T09:39:48Z</time>
      </trkpt>
      <trkpt lat="42.095375" lon="-0.34973553">
        <time>2022-07-06T09:39:50Z</time>
      </trkpt>
      <trkpt lat="42.095432" lon="-0.3496472">
        <time>2022-07-06T09:39:52Z</time>
      </trkpt>
      <trkpt lat="42.095486" lon="-0.34955886">
        <time>2022-07-06T09:39:54Z</time>
      </trkpt>
      <trkpt lat="42.095547" lon="-0.34946853">
        <time>2022-07-06T09:39:56Z</time>
      </trkpt>
      <trkpt lat="42.0956" lon="-0.3493842">
        <time>2022-07-06T09:39:58Z</time>
      </trkpt>
      <trkpt lat="42.095657" lon="-0.3492982">
        <time>2022-07-06T09:40:00Z</time>
      </trkpt>
      <trkpt lat="42.095715" lon="-0.3492092">
        <time>2022-07-06T09:40:02Z</time>
      </trkpt>
      <trkpt lat="42.095764" lon="-0.34911588">
        <time>2022-07-06T09:40:04Z</time>
      </trkpt>
      <trkpt lat="42.09581" lon="-0.34902254">
        <time>2022-07-06T09:40:06Z</time>
      </trkpt>
      <trkpt lat="42.095856" lon="-0.34892887">
        <time>2022-07-06T09:40:08Z</time>
      </trkpt>
      <trkpt lat="42.095898" lon="-0.34884056">
        <time>2022-07-06T09:40:10Z</time>
      </trkpt>
      <trkpt lat="42.095943" lon="-0.34876356">
        <time>2022-07-06T09:40:12Z</time>
      </trkpt>
      <trkpt lat="42.09598" lon="-0.3486909">
        <time>2022-07-06T09:40:14Z</time>
      </trkpt>
      <trkpt lat="42.09602" lon="-0.34861857">
        <time>2022-07-06T09:40:16Z</time>
      </trkpt>
      <trkpt lat="42.09606" lon="-0.34854457">
        <time>2022-07-06T09:40:18Z</time>
      </trkpt>
      <trkpt lat="42.096104" lon="-0.3484679">
        <time>2022-07-06T09:40:20Z</time>
      </trkpt>
      <trkpt lat="42.096146" lon="-0.34838858">
        <time>2022-07-06T09:40:22Z</time>
      </trkpt>
      <trkpt lat="42.09619" lon="-0.34830925">
        <time>2022-07-06T09:40:24Z</time>
      </trkpt>
      <trkpt lat="42.096237" lon="-0.34822723">
        <time>2022-07-06T09:40:26Z</time>
      </trkpt>
      <trkpt lat="42.09627" lon="-0.34814325">
        <time>2022-07-06T09:40:28Z</time>
      </trkpt>
      <trkpt lat="42.096294" lon="-0.34806857">
        <time>2022-07-06T09:40:30Z</time>
      </trkpt>
      <trkpt lat="42.09632" lon="-0.34800524">
        <time>2022-07-06T09:40:32Z</time>
      </trkpt>
      <trkpt lat="42.09637" lon="-0.34788924">
        <time>2022-07-06T09:40:36Z</time>
      </trkpt>
      <trkpt lat="42.096375" lon="-0.3477796">
        <time>2022-07-06T09:40:39Z</time>
      </trkpt>
      <trkpt lat="42.09637" lon="-0.34769458">
        <time>2022-07-06T09:40:41Z</time>
      </trkpt>
      <trkpt lat="42.096363" lon="-0.34760493">
        <time>2022-07-06T09:40:43Z</time>
      </trkpt>
      <trkpt lat="42.09636" lon="-0.34751227">
        <time>2022-07-06T09:40:45Z</time>
      </trkpt>
      <trkpt lat="42.096355" lon="-0.34741926">
        <time>2022-07-06T09:40:47Z</time>
      </trkpt>
      <trkpt lat="42.09635" lon="-0.34732494">
        <time>2022-07-06T09:40:49Z</time>
      </trkpt>
      <trkpt lat="42.096344" lon="-0.34723094">
        <time>2022-07-06T09:40:51Z</time>
      </trkpt>
      <trkpt lat="42.09634" lon="-0.34713694">
        <time>2022-07-06T09:40:53Z</time>
      </trkpt>
      <trkpt lat="42.096336" lon="-0.3470423">
        <time>2022-07-06T09:40:55Z</time>
      </trkpt>
      <trkpt lat="42.096333" lon="-0.34694728">
        <time>2022-07-06T09:40:57Z</time>
      </trkpt>
      <trkpt lat="42.09633" lon="-0.34685427">
        <time>2022-07-06T09:40:59Z</time>
      </trkpt>
      <trkpt lat="42.096325" lon="-0.34675962">
        <time>2022-07-06T09:41:01Z</time>
      </trkpt>
      <trkpt lat="42.09632" lon="-0.34666863">
        <time>2022-07-06T09:41:03Z</time>
      </trkpt>
      <trkpt lat="42.096317" lon="-0.34657863">
        <time>2022-07-06T09:41:05Z</time>
      </trkpt>
      <trkpt lat="42.096313" lon="-0.34648862">
        <time>2022-07-06T09:41:07Z</time>
      </trkpt>
      <trkpt lat="42.09631" lon="-0.34639862">
        <time>2022-07-06T09:41:09Z</time>
      </trkpt>
      <trkpt lat="42.096306" lon="-0.34630963">
        <time>2022-07-06T09:41:11Z</time>
      </trkpt>
      <trkpt lat="42.096302" lon="-0.34622195">
        <time>2022-07-06T09:41:13Z</time>
      </trkpt>
      <trkpt lat="42.096294" lon="-0.3461373">
        <time>2022-07-06T09:41:15Z</time>
      </trkpt>
      <trkpt lat="42.09629" lon="-0.3460553">
        <time>2022-07-06T09:41:17Z</time>
      </trkpt>
      <trkpt lat="42.096287" lon="-0.3459733">
        <time>2022-07-06T09:41:19Z</time>
      </trkpt>
      <trkpt lat="42.096283" lon="-0.34589264">
        <time>2022-07-06T09:41:21Z</time>
      </trkpt>
      <trkpt lat="42.09628" lon="-0.34581298">
        <time>2022-07-06T09:41:23Z</time>
      </trkpt>
      <trkpt lat="42.09627" lon="-0.34573165">
        <time>2022-07-06T09:41:25Z</time>
      </trkpt>
      <trkpt lat="42.096268" lon="-0.34564966">
        <time>2022-07-06T09:41:27Z</time>
      </trkpt>
      <trkpt lat="42.096268" lon="-0.34556666">
        <time>2022-07-06T09:41:29Z</time>
      </trkpt>
      <trkpt lat="42.096268" lon="-0.34548265">
        <time>2022-07-06T09:41:31Z</time>
      </trkpt>
      <trkpt lat="42.096264" lon="-0.34539932">
        <time>2022-07-06T09:41:33Z</time>
      </trkpt>
      <trkpt lat="42.09626" lon="-0.34531698">
        <time>2022-07-06T09:41:35Z</time>
      </trkpt>
      <trkpt lat="42.096256" lon="-0.34523398">
        <time>2022-07-06T09:41:37Z</time>
      </trkpt>
      <trkpt lat="42.096252" lon="-0.34515134">
        <time>2022-07-06T09:41:39Z</time>
      </trkpt>
      <trkpt lat="42.096252" lon="-0.34506932">
        <time>2022-07-06T09:41:41Z</time>
      </trkpt>
      <trkpt lat="42.09625" lon="-0.344987">
        <time>2022-07-06T09:41:43Z</time>
      </trkpt>
      <trkpt lat="42.096245" lon="-0.34490466">
        <time>2022-07-06T09:41:45Z</time>
      </trkpt>
      <trkpt lat="42.096245" lon="-0.344821">
        <time>2022-07-06T09:41:47Z</time>
      </trkpt>
      <trkpt lat="42.09624" lon="-0.34473568">
        <time>2022-07-06T09:41:49Z</time>
      </trkpt>
      <trkpt lat="42.096237" lon="-0.34465003">
        <time>2022-07-06T09:41:51Z</time>
      </trkpt>
      <trkpt lat="42.096237" lon="-0.34456635">
        <time>2022-07-06T09:41:53Z</time>
      </trkpt>
      <trkpt lat="42.096233" lon="-0.34448135">
        <time>2022-07-06T09:41:55Z</time>
      </trkpt>
      <trkpt lat="42.09623" lon="-0.34439737">
        <time>2022-07-06T09:41:57Z</time>
      </trkpt>
      <trkpt lat="42.096226" lon="-0.3443137">
        <time>2022-07-06T09:41:59Z</time>
      </trkpt>
      <trkpt lat="42.096222" lon="-0.34422937">
        <time>2022-07-06T09:42:01Z</time>
      </trkpt>
      <trkpt lat="42.09622" lon="-0.34409437">
        <time>2022-07-06T09:42:04Z</time>
      </trkpt>
      <trkpt lat="42.096214" lon="-0.34401304">
        <time>2022-07-06T09:42:06Z</time>
      </trkpt>
      <trkpt lat="42.09621" lon="-0.34393704">
        <time>2022-07-06T09:42:08Z</time>
      </trkpt>
      <trkpt lat="42.096207" lon="-0.34385738">
        <time>2022-07-06T09:42:10Z</time>
      </trkpt>
      <trkpt lat="42.096203" lon="-0.34377572">
        <time>2022-07-06T09:42:12Z</time>
      </trkpt>
      <trkpt lat="42.0962" lon="-0.34369138">
        <time>2022-07-06T09:42:14Z</time>
      </trkpt>
      <trkpt lat="42.096195" lon="-0.34360674">
        <time>2022-07-06T09:42:16Z</time>
      </trkpt>
      <trkpt lat="42.09619" lon="-0.3435224">
        <time>2022-07-06T09:42:18Z</time>
      </trkpt>
      <trkpt lat="42.096188" lon="-0.3434414">
        <time>2022-07-06T09:42:20Z</time>
      </trkpt>
      <trkpt lat="42.096184" lon="-0.34335873">
        <time>2022-07-06T09:42:22Z</time>
      </trkpt>
      <trkpt lat="42.09618" lon="-0.34327373">
        <time>2022-07-06T09:42:24Z</time>
      </trkpt>
      <trkpt lat="42.096176" lon="-0.34318942">
        <time>2022-07-06T09:42:26Z</time>
      </trkpt>
      <trkpt lat="42.096172" lon="-0.34310576">
        <time>2022-07-06T09:42:28Z</time>
      </trkpt>
      <trkpt lat="42.09617" lon="-0.34301975">
        <time>2022-07-06T09:42:30Z</time>
      </trkpt>
      <trkpt lat="42.096165" lon="-0.34293443">
        <time>2022-07-06T09:42:32Z</time>
      </trkpt>
      <trkpt lat="42.09616" lon="-0.34285077">
        <time>2022-07-06T09:42:34Z</time>
      </trkpt>
      <trkpt lat="42.096153" lon="-0.34276575">
        <time>2022-07-06T09:42:36Z</time>
      </trkpt>
      <trkpt lat="42.09615" lon="-0.34268042">
        <time>2022-07-06T09:42:38Z</time>
      </trkpt>
      <trkpt lat="42.096146" lon="-0.34255177">
        <time>2022-07-06T09:42:41Z</time>
      </trkpt>
      <trkpt lat="42.09614" lon="-0.3424671">
        <time>2022-07-06T09:42:43Z</time>
      </trkpt>
      <trkpt lat="42.096134" lon="-0.34238178">
        <time>2022-07-06T09:42:45Z</time>
      </trkpt>
      <trkpt lat="42.09613" lon="-0.34229445">
        <time>2022-07-06T09:42:47Z</time>
      </trkpt>
      <trkpt lat="42.096127" lon="-0.3422051">
        <time>2022-07-06T09:42:49Z</time>
      </trkpt>
      <trkpt lat="42.096127" lon="-0.3421188">
        <time>2022-07-06T09:42:51Z</time>
      </trkpt>
      <trkpt lat="42.096123" lon="-0.34203178">
        <time>2022-07-06T09:42:53Z</time>
      </trkpt>
      <trkpt lat="42.09612" lon="-0.34194678">
        <time>2022-07-06T09:42:55Z</time>
      </trkpt>
      <trkpt lat="42.096115" lon="-0.34186113">
        <time>2022-07-06T09:42:57Z</time>
      </trkpt>
      <trkpt lat="42.09611" lon="-0.34177747">
        <time>2022-07-06T09:42:59Z</time>
      </trkpt>
      <trkpt lat="42.096107" lon="-0.34169346">
        <time>2022-07-06T09:43:01Z</time>
      </trkpt>
      <trkpt lat="42.0961" lon="-0.3416098">
        <time>2022-07-06T09:43:03Z</time>
      </trkpt>
      <trkpt lat="42.096096" lon="-0.34152514">
        <time>2022-07-06T09:43:05Z</time>
      </trkpt>
      <trkpt lat="42.096096" lon="-0.3414395">
        <time>2022-07-06T09:43:07Z</time>
      </trkpt>
      <trkpt lat="42.09609" lon="-0.34135684">
        <time>2022-07-06T09:43:09Z</time>
      </trkpt>
      <trkpt lat="42.096085" lon="-0.34127617">
        <time>2022-07-06T09:43:11Z</time>
      </trkpt>
      <trkpt lat="42.096085" lon="-0.34119716">
        <time>2022-07-06T09:43:13Z</time>
      </trkpt>
      <trkpt lat="42.09608" lon="-0.34111783">
        <time>2022-07-06T09:43:15Z</time>
      </trkpt>
      <trkpt lat="42.096077" lon="-0.3410402">
        <time>2022-07-06T09:43:17Z</time>
      </trkpt>
      <trkpt lat="42.096077" lon="-0.34096253">
        <time>2022-07-06T09:43:19Z</time>
      </trkpt>
      <trkpt lat="42.096073" lon="-0.34088552">
        <time>2022-07-06T09:43:21Z</time>
      </trkpt>
      <trkpt lat="42.09607" lon="-0.34081087">
        <time>2022-07-06T09:43:23Z</time>
      </trkpt>
      <trkpt lat="42.096066" lon="-0.3407372">
        <time>2022-07-06T09:43:25Z</time>
      </trkpt>
      <trkpt lat="42.096066" lon="-0.34066388">
        <time>2022-07-06T09:43:27Z</time>
      </trkpt>
      <trkpt lat="42.09606" lon="-0.34059286">
        <time>2022-07-06T09:43:29Z</time>
      </trkpt>
      <trkpt lat="42.096058" lon="-0.34052086">
        <time>2022-07-06T09:43:31Z</time>
      </trkpt>
      <trkpt lat="42.096054" lon="-0.34041855">
        <time>2022-07-06T09:43:34Z</time>
      </trkpt>
      <trkpt lat="42.09605" lon="-0.34035453">
        <time>2022-07-06T09:43:36Z</time>
      </trkpt>
      <trkpt lat="42.096046" lon="-0.34025353">
        <time>2022-07-06T09:43:39Z</time>
      </trkpt>
      <trkpt lat="42.09604" lon="-0.34015188">
        <time>2022-07-06T09:43:42Z</time>
      </trkpt>
      <trkpt lat="42.096035" lon="-0.34008387">
        <time>2022-07-06T09:43:44Z</time>
      </trkpt>
      <trkpt lat="42.096035" lon="-0.3399799">
        <time>2022-07-06T09:43:47Z</time>
      </trkpt>
      <trkpt lat="42.09603" lon="-0.3399122">
        <time>2022-07-06T09:43:49Z</time>
      </trkpt>
      <trkpt lat="42.096027" lon="-0.33984455">
        <time>2022-07-06T09:43:51Z</time>
      </trkpt>
      <trkpt lat="42.096027" lon="-0.3397419">
        <time>2022-07-06T09:43:54Z</time>
      </trkpt>
      <trkpt lat="42.096027" lon="-0.3396719">
        <time>2022-07-06T09:43:56Z</time>
      </trkpt>
      <trkpt lat="42.096024" lon="-0.33960256">
        <time>2022-07-06T09:43:58Z</time>
      </trkpt>
      <trkpt lat="42.09602" lon="-0.33949757">
        <time>2022-07-06T09:44:01Z</time>
      </trkpt>
      <trkpt lat="42.096016" lon="-0.33942392">
        <time>2022-07-06T09:44:03Z</time>
      </trkpt>
      <trkpt lat="42.096016" lon="-0.3393499">
        <time>2022-07-06T09:44:05Z</time>
      </trkpt>
      <trkpt lat="42.096012" lon="-0.33927625">
        <time>2022-07-06T09:44:07Z</time>
      </trkpt>
      <trkpt lat="42.09601" lon="-0.33920193">
        <time>2022-07-06T09:44:09Z</time>
      </trkpt>
      <trkpt lat="42.096004" lon="-0.33912858">
        <time>2022-07-06T09:44:11Z</time>
      </trkpt>
      <trkpt lat="42.096004" lon="-0.33905527">
        <time>2022-07-06T09:44:13Z</time>
      </trkpt>
      <trkpt lat="42.096004" lon="-0.33898327">
        <time>2022-07-06T09:44:15Z</time>
      </trkpt>
      <trkpt lat="42.096" lon="-0.33891094">
        <time>2022-07-06T09:44:17Z</time>
      </trkpt>
      <trkpt lat="42.095997" lon="-0.3388386">
        <time>2022-07-06T09:44:19Z</time>
      </trkpt>
      <trkpt lat="42.095993" lon="-0.33876428">
        <time>2022-07-06T09:44:21Z</time>
      </trkpt>
      <trkpt lat="42.095993" lon="-0.33869094">
        <time>2022-07-06T09:44:23Z</time>
      </trkpt>
      <trkpt lat="42.09599" lon="-0.33861795">
        <time>2022-07-06T09:44:25Z</time>
      </trkpt>
      <trkpt lat="42.095985" lon="-0.33854595">
        <time>2022-07-06T09:44:27Z</time>
      </trkpt>
      <trkpt lat="42.095985" lon="-0.3384746">
        <time>2022-07-06T09:44:29Z</time>
      </trkpt>
      <trkpt lat="42.095978" lon="-0.3384036">
        <time>2022-07-06T09:44:31Z</time>
      </trkpt>
      <trkpt lat="42.095974" lon="-0.3383316">
        <time>2022-07-06T09:44:33Z</time>
      </trkpt>
      <trkpt lat="42.095966" lon="-0.3382616">
        <time>2022-07-06T09:44:35Z</time>
      </trkpt>
      <trkpt lat="42.09596" lon="-0.33815694">
        <time>2022-07-06T09:44:38Z</time>
      </trkpt>
      <trkpt lat="42.095955" lon="-0.3380853">
        <time>2022-07-06T09:44:40Z</time>
      </trkpt>
      <trkpt lat="42.09595" lon="-0.3380133">
        <time>2022-07-06T09:44:42Z</time>
      </trkpt>
      <trkpt lat="42.095947" lon="-0.33793995">
        <time>2022-07-06T09:44:44Z</time>
      </trkpt>
      <trkpt lat="42.095943" lon="-0.33786663">
        <time>2022-07-06T09:44:46Z</time>
      </trkpt>
      <trkpt lat="42.095936" lon="-0.33779263">
        <time>2022-07-06T09:44:48Z</time>
      </trkpt>
      <trkpt lat="42.09593" lon="-0.3377193">
        <time>2022-07-06T09:44:50Z</time>
      </trkpt>
      <trkpt lat="42.09592" lon="-0.33764598">
        <time>2022-07-06T09:44:52Z</time>
      </trkpt>
      <trkpt lat="42.095913" lon="-0.33757463">
        <time>2022-07-06T09:44:54Z</time>
      </trkpt>
      <trkpt lat="42.095905" lon="-0.3375043">
        <time>2022-07-06T09:44:56Z</time>
      </trkpt>
      <trkpt lat="42.095894" lon="-0.33739865">
        <time>2022-07-06T09:44:59Z</time>
      </trkpt>
      <trkpt lat="42.095886" lon="-0.33732665">
        <time>2022-07-06T09:45:01Z</time>
      </trkpt>
      <trkpt lat="42.09587" lon="-0.33725166">
        <time>2022-07-06T09:45:03Z</time>
      </trkpt>
      <trkpt lat="42.09586" lon="-0.33718365">
        <time>2022-07-06T09:45:05Z</time>
      </trkpt>
      <trkpt lat="42.095833" lon="-0.3370763">
        <time>2022-07-06T09:45:08Z</time>
      </trkpt>
      <trkpt lat="42.095814" lon="-0.33700767">
        <time>2022-07-06T09:45:10Z</time>
      </trkpt>
      <trkpt lat="42.0958" lon="-0.336938">
        <time>2022-07-06T09:45:12Z</time>
      </trkpt>
      <trkpt lat="42.09578" lon="-0.336868">
        <time>2022-07-06T09:45:14Z</time>
      </trkpt>
      <trkpt lat="42.09576" lon="-0.3368">
        <time>2022-07-06T09:45:16Z</time>
      </trkpt>
      <trkpt lat="42.09574" lon="-0.336733">
        <time>2022-07-06T09:45:18Z</time>
      </trkpt>
      <trkpt lat="42.095715" lon="-0.336668">
        <time>2022-07-06T09:45:20Z</time>
      </trkpt>
      <trkpt lat="42.095688" lon="-0.33660334">
        <time>2022-07-06T09:45:22Z</time>
      </trkpt>
      <trkpt lat="42.09566" lon="-0.3365357">
        <time>2022-07-06T09:45:24Z</time>
      </trkpt>
      <trkpt lat="42.095634" lon="-0.33647135">
        <time>2022-07-06T09:45:26Z</time>
      </trkpt>
      <trkpt lat="42.09561" lon="-0.3364097">
        <time>2022-07-06T09:45:28Z</time>
      </trkpt>
      <trkpt lat="42.095577" lon="-0.33634803">
        <time>2022-07-06T09:45:30Z</time>
      </trkpt>
      <trkpt lat="42.095547" lon="-0.33628637">
        <time>2022-07-06T09:45:32Z</time>
      </trkpt>
      <trkpt lat="42.095516" lon="-0.33622503">
        <time>2022-07-06T09:45:34Z</time>
      </trkpt>
      <trkpt lat="42.095486" lon="-0.3361657">
        <time>2022-07-06T09:45:36Z</time>
      </trkpt>
      <trkpt lat="42.095455" lon="-0.3361077">
        <time>2022-07-06T09:45:38Z</time>
      </trkpt>
      <trkpt lat="42.09541" lon="-0.33602506">
        <time>2022-07-06T09:45:41Z</time>
      </trkpt>
      <trkpt lat="42.095375" lon="-0.3359737">
        <time>2022-07-06T09:45:43Z</time>
      </trkpt>
      <trkpt lat="42.095325" lon="-0.33590072">
        <time>2022-07-06T09:45:46Z</time>
      </trkpt>
      <trkpt lat="42.095295" lon="-0.3358534">
        <time>2022-07-06T09:45:48Z</time>
      </trkpt>
      <trkpt lat="42.095245" lon="-0.33577773">
        <time>2022-07-06T09:45:51Z</time>
      </trkpt>
      <trkpt lat="42.09519" lon="-0.3356774">
        <time>2022-07-06T09:45:55Z</time>
      </trkpt>
      <trkpt lat="42.095158" lon="-0.3356264">
        <time>2022-07-06T09:45:57Z</time>
      </trkpt>
      <trkpt lat="42.095108" lon="-0.33555207">
        <time>2022-07-06T09:46:00Z</time>
      </trkpt>
      <trkpt lat="42.095062" lon="-0.3354784">
        <time>2022-07-06T09:46:03Z</time>
      </trkpt>
      <trkpt lat="42.095016" lon="-0.33540475">
        <time>2022-07-06T09:46:06Z</time>
      </trkpt>
      <trkpt lat="42.094975" lon="-0.33533576">
        <time>2022-07-06T09:46:09Z</time>
      </trkpt>
      <trkpt lat="42.094925" lon="-0.3352641">
        <time>2022-07-06T09:46:12Z</time>
      </trkpt>
      <trkpt lat="42.094894" lon="-0.33521244">
        <time>2022-07-06T09:46:14Z</time>
      </trkpt>
      <trkpt lat="42.094845" lon="-0.33513576">
        <time>2022-07-06T09:46:17Z</time>
      </trkpt>
      <trkpt lat="42.094795" lon="-0.3350611">
        <time>2022-07-06T09:46:20Z</time>
      </trkpt>
      <trkpt lat="42.094765" lon="-0.3350121">
        <time>2022-07-06T09:46:22Z</time>
      </trkpt>
      <trkpt lat="42.094715" lon="-0.33494046">
        <time>2022-07-06T09:46:25Z</time>
      </trkpt>
      <trkpt lat="42.094666" lon="-0.33486846">
        <time>2022-07-06T09:46:28Z</time>
      </trkpt>
      <trkpt lat="42.09462" lon="-0.3347978">
        <time>2022-07-06T09:46:31Z</time>
      </trkpt>
      <trkpt lat="42.094574" lon="-0.3347238">
        <time>2022-07-06T09:46:34Z</time>
      </trkpt>
      <trkpt lat="42.094543" lon="-0.33467513">
        <time>2022-07-06T09:46:36Z</time>
      </trkpt>
      <trkpt lat="42.094494" lon="-0.3346008">
        <time>2022-07-06T09:46:39Z</time>
      </trkpt>
      <trkpt lat="42.094448" lon="-0.33452547">
        <time>2022-07-06T09:46:42Z</time>
      </trkpt>
      <trkpt lat="42.0944" lon="-0.3344508">
        <time>2022-07-06T09:46:45Z</time>
      </trkpt>
      <trkpt lat="42.094368" lon="-0.3343995">
        <time>2022-07-06T09:46:47Z</time>
      </trkpt>
      <trkpt lat="42.09432" lon="-0.33432347">
        <time>2022-07-06T09:46:50Z</time>
      </trkpt>
      <trkpt lat="42.094273" lon="-0.33424947">
        <time>2022-07-06T09:46:53Z</time>
      </trkpt>
      <trkpt lat="42.094193" lon="-0.3341318">
        <time>2022-07-06T09:46:58Z</time>
      </trkpt>
      <trkpt lat="42.09416" lon="-0.33407882">
        <time>2022-07-06T09:47:00Z</time>
      </trkpt>
      <trkpt lat="42.094105" lon="-0.33400282">
        <time>2022-07-06T09:47:03Z</time>
      </trkpt>
      <trkpt lat="42.094074" lon="-0.33395448">
        <time>2022-07-06T09:47:05Z</time>
      </trkpt>
      <trkpt lat="42.094032" lon="-0.33388084">
        <time>2022-07-06T09:47:08Z</time>
      </trkpt>
      <trkpt lat="42.093987" lon="-0.33381018">
        <time>2022-07-06T09:47:11Z</time>
      </trkpt>
      <trkpt lat="42.093952" lon="-0.3337625">
        <time>2022-07-06T09:47:13Z</time>
      </trkpt>
      <trkpt lat="42.093906" lon="-0.3336872">
        <time>2022-07-06T09:47:16Z</time>
      </trkpt>
      <trkpt lat="42.09388" lon="-0.33363885">
        <time>2022-07-06T09:47:18Z</time>
      </trkpt>
      <trkpt lat="42.093834" lon="-0.3335692">
        <time>2022-07-06T09:47:21Z</time>
      </trkpt>
      <trkpt lat="42.09379" lon="-0.33349887">
        <time>2022-07-06T09:47:24Z</time>
      </trkpt>
      <trkpt lat="42.093742" lon="-0.33342585">
        <time>2022-07-06T09:47:27Z</time>
      </trkpt>
      <trkpt lat="42.093697" lon="-0.33335054">
        <time>2022-07-06T09:47:30Z</time>
      </trkpt>
      <trkpt lat="42.09365" lon="-0.33327788">
        <time>2022-07-06T09:47:33Z</time>
      </trkpt>
      <trkpt lat="42.09361" lon="-0.33320653">
        <time>2022-07-06T09:47:36Z</time>
      </trkpt>
      <trkpt lat="42.09358" lon="-0.33315453">
        <time>2022-07-06T09:47:38Z</time>
      </trkpt>
      <trkpt lat="42.09354" lon="-0.33308354">
        <time>2022-07-06T09:47:41Z</time>
      </trkpt>
      <trkpt lat="42.093502" lon="-0.3330132">
        <time>2022-07-06T09:47:44Z</time>
      </trkpt>
      <trkpt lat="42.093468" lon="-0.3329462">
        <time>2022-07-06T09:47:47Z</time>
      </trkpt>
      <trkpt lat="42.093437" lon="-0.33288154">
        <time>2022-07-06T09:47:50Z</time>
      </trkpt>
      <trkpt lat="42.093403" lon="-0.33280888">
        <time>2022-07-06T09:47:53Z</time>
      </trkpt>
      <trkpt lat="42.093372" lon="-0.33273423">
        <time>2022-07-06T09:47:56Z</time>
      </trkpt>
      <trkpt lat="42.09334" lon="-0.33266124">
        <time>2022-07-06T09:47:59Z</time>
      </trkpt>
      <trkpt lat="42.093315" lon="-0.33258322">
        <time>2022-07-06T09:48:02Z</time>
      </trkpt>
      <trkpt lat="42.093277" lon="-0.3324749">
        <time>2022-07-06T09:48:06Z</time>
      </trkpt>
      <trkpt lat="42.093254" lon="-0.3323949">
        <time>2022-07-06T09:48:09Z</time>
      </trkpt>
      <trkpt lat="42.093224" lon="-0.33231625">
        <time>2022-07-06T09:48:12Z</time>
      </trkpt>
      <trkpt lat="42.093193" lon="-0.3322339">
        <time>2022-07-06T09:48:15Z</time>
      </trkpt>
      <trkpt lat="42.09316" lon="-0.3321549">
        <time>2022-07-06T09:48:18Z</time>
      </trkpt>
      <trkpt lat="42.093132" lon="-0.3320739">
        <time>2022-07-06T09:48:21Z</time>
      </trkpt>
      <trkpt lat="42.093098" lon="-0.33199325">
        <time>2022-07-06T09:48:24Z</time>
      </trkpt>
      <trkpt lat="42.09307" lon="-0.33191192">
        <time>2022-07-06T09:48:27Z</time>
      </trkpt>
      <trkpt lat="42.09304" lon="-0.33182725">
        <time>2022-07-06T09:48:30Z</time>
      </trkpt>
      <trkpt lat="42.093006" lon="-0.33173993">
        <time>2022-07-06T09:48:33Z</time>
      </trkpt>
      <trkpt lat="42.092968" lon="-0.33165127">
        <time>2022-07-06T09:48:36Z</time>
      </trkpt>
      <trkpt lat="42.09294" lon="-0.3315936">
        <time>2022-07-06T09:48:38Z</time>
      </trkpt>
      <trkpt lat="42.092903" lon="-0.33151394">
        <time>2022-07-06T09:48:41Z</time>
      </trkpt>
      <trkpt lat="42.092857" lon="-0.3314333">
        <time>2022-07-06T09:48:44Z</time>
      </trkpt>
      <trkpt lat="42.092815" lon="-0.33135128">
        <time>2022-07-06T09:48:47Z</time>
      </trkpt>
      <trkpt lat="42.092785" lon="-0.3313003">
        <time>2022-07-06T09:48:49Z</time>
      </trkpt>
      <trkpt lat="42.09274" lon="-0.33122864">
        <time>2022-07-06T09:48:52Z</time>
      </trkpt>
      <trkpt lat="42.092693" lon="-0.33115664">
        <time>2022-07-06T09:48:55Z</time>
      </trkpt>
      <trkpt lat="42.092663" lon="-0.33110964">
        <time>2022-07-06T09:48:57Z</time>
      </trkpt>
      <trkpt lat="42.09261" lon="-0.33104196">
        <time>2022-07-06T09:49:00Z</time>
      </trkpt>
      <trkpt lat="42.092575" lon="-0.3310033">
        <time>2022-07-06T09:49:02Z</time>
      </trkpt>
      <trkpt lat="42.09252" lon="-0.33094198">
        <time>2022-07-06T09:49:05Z</time>
      </trkpt>
      <trkpt lat="42.09245" lon="-0.33085898">
        <time>2022-07-06T09:49:09Z</time>
      </trkpt>
      <trkpt lat="42.092396" lon="-0.33079666">
        <time>2022-07-06T09:49:12Z</time>
      </trkpt>
      <trkpt lat="42.09236" lon="-0.33075333">
        <time>2022-07-06T09:49:14Z</time>
      </trkpt>
      <trkpt lat="42.092308" lon="-0.33068967">
        <time>2022-07-06T09:49:17Z</time>
      </trkpt>
      <trkpt lat="42.092255" lon="-0.33063066">
        <time>2022-07-06T09:49:20Z</time>
      </trkpt>
      <trkpt lat="42.0922" lon="-0.33056867">
        <time>2022-07-06T09:49:23Z</time>
      </trkpt>
      <trkpt lat="42.092163" lon="-0.33052665">
        <time>2022-07-06T09:49:25Z</time>
      </trkpt>
      <trkpt lat="42.092113" lon="-0.33046934">
        <time>2022-07-06T09:49:28Z</time>
      </trkpt>
      <trkpt lat="42.09206" lon="-0.33041534">
        <time>2022-07-06T09:49:31Z</time>
      </trkpt>
      <trkpt lat="42.092007" lon="-0.33035567">
        <time>2022-07-06T09:49:34Z</time>
      </trkpt>
      <trkpt lat="42.09197" lon="-0.33031735">
        <time>2022-07-06T09:49:36Z</time>
      </trkpt>
      <trkpt lat="42.091915" lon="-0.33025733">
        <time>2022-07-06T09:49:39Z</time>
      </trkpt>
      <trkpt lat="42.09186" lon="-0.33019868">
        <time>2022-07-06T09:49:42Z</time>
      </trkpt>
      <trkpt lat="42.091812" lon="-0.33013767">
        <time>2022-07-06T09:49:45Z</time>
      </trkpt>
      <trkpt lat="42.09176" lon="-0.3300807">
        <time>2022-07-06T09:49:48Z</time>
      </trkpt>
      <trkpt lat="42.0917" lon="-0.33002067">
        <time>2022-07-06T09:49:51Z</time>
      </trkpt>
      <trkpt lat="42.09165" lon="-0.32995734">
        <time>2022-07-06T09:49:54Z</time>
      </trkpt>
      <trkpt lat="42.0916" lon="-0.32989103">
        <time>2022-07-06T09:49:57Z</time>
      </trkpt>
      <trkpt lat="42.091545" lon="-0.32982668">
        <time>2022-07-06T09:50:00Z</time>
      </trkpt>
      <trkpt lat="42.091515" lon="-0.32978404">
        <time>2022-07-06T09:50:02Z</time>
      </trkpt>
      <trkpt lat="42.09146" lon="-0.32972136">
        <time>2022-07-06T09:50:05Z</time>
      </trkpt>
      <trkpt lat="42.09141" lon="-0.3296577">
        <time>2022-07-06T09:50:08Z</time>
      </trkpt>
      <trkpt lat="42.091362" lon="-0.3295927">
        <time>2022-07-06T09:50:11Z</time>
      </trkpt>
      <trkpt lat="42.091312" lon="-0.3295257">
        <time>2022-07-06T09:50:14Z</time>
      </trkpt>
      <trkpt lat="42.09126" lon="-0.32946238">
        <time>2022-07-06T09:50:17Z</time>
      </trkpt>
      <trkpt lat="42.09122" lon="-0.32941672">
        <time>2022-07-06T09:50:19Z</time>
      </trkpt>
      <trkpt lat="42.091175" lon="-0.3293417">
        <time>2022-07-06T09:50:22Z</time>
      </trkpt>
      <trkpt lat="42.09114" lon="-0.32928973">
        <time>2022-07-06T09:50:24Z</time>
      </trkpt>
      <trkpt lat="42.091095" lon="-0.32920605">
        <time>2022-07-06T09:50:27Z</time>
      </trkpt>
      <trkpt lat="42.09107" lon="-0.3291524">
        <time>2022-07-06T09:50:29Z</time>
      </trkpt>
      <trkpt lat="42.091026" lon="-0.32907206">
        <time>2022-07-06T09:50:32Z</time>
      </trkpt>
      <trkpt lat="42.090984" lon="-0.32898808">
        <time>2022-07-06T09:50:35Z</time>
      </trkpt>
      <trkpt lat="42.090942" lon="-0.32890508">
        <time>2022-07-06T09:50:38Z</time>
      </trkpt>
      <trkpt lat="42.090916" lon="-0.32885006">
        <time>2022-07-06T09:50:40Z</time>
      </trkpt>
      <trkpt lat="42.090878" lon="-0.32876375">
        <time>2022-07-06T09:50:43Z</time>
      </trkpt>
      <trkpt lat="42.090843" lon="-0.3286794">
        <time>2022-07-06T09:50:46Z</time>
      </trkpt>
      <trkpt lat="42.09081" lon="-0.32859442">
        <time>2022-07-06T09:50:49Z</time>
      </trkpt>
      <trkpt lat="42.09078" lon="-0.32850942">
        <time>2022-07-06T09:50:52Z</time>
      </trkpt>
      <trkpt lat="42.090748" lon="-0.32842675">
        <time>2022-07-06T09:50:55Z</time>
      </trkpt>
      <trkpt lat="42.09072" lon="-0.32836875">
        <time>2022-07-06T09:50:57Z</time>
      </trkpt>
      <trkpt lat="42.090687" lon="-0.3282801">
        <time>2022-07-06T09:51:00Z</time>
      </trkpt>
      <trkpt lat="42.090664" lon="-0.32821944">
        <time>2022-07-06T09:51:02Z</time>
      </trkpt>
      <trkpt lat="42.090637" lon="-0.32812676">
        <time>2022-07-06T09:51:05Z</time>
      </trkpt>
      <trkpt lat="42.09062" lon="-0.32803676">
        <time>2022-07-06T09:51:08Z</time>
      </trkpt>
      <trkpt lat="42.090595" lon="-0.32794744">
        <time>2022-07-06T09:51:11Z</time>
      </trkpt>
      <trkpt lat="42.09057" lon="-0.32785678">
        <time>2022-07-06T09:51:14Z</time>
      </trkpt>
      <trkpt lat="42.09054" lon="-0.32776478">
        <time>2022-07-06T09:51:17Z</time>
      </trkpt>
      <trkpt lat="42.09052" lon="-0.32767478">
        <time>2022-07-06T09:51:20Z</time>
      </trkpt>
      <trkpt lat="42.090496" lon="-0.32758278">
        <time>2022-07-06T09:51:23Z</time>
      </trkpt>
      <trkpt lat="42.090473" lon="-0.32748646">
        <time>2022-07-06T09:51:26Z</time>
      </trkpt>
      <trkpt lat="42.090458" lon="-0.3273888">
        <time>2022-07-06T09:51:29Z</time>
      </trkpt>
      <trkpt lat="42.090446" lon="-0.32732514">
        <time>2022-07-06T09:51:31Z</time>
      </trkpt>
      <trkpt lat="42.09043" lon="-0.3272298">
        <time>2022-07-06T09:51:34Z</time>
      </trkpt>
      <trkpt lat="42.090412" lon="-0.32713547">
        <time>2022-07-06T09:51:37Z</time>
      </trkpt>
      <trkpt lat="42.090397" lon="-0.32703915">
        <time>2022-07-06T09:51:40Z</time>
      </trkpt>
      <trkpt lat="42.090378" lon="-0.32694647">
        <time>2022-07-06T09:51:43Z</time>
      </trkpt>
      <trkpt lat="42.09036" lon="-0.32685283">
        <time>2022-07-06T09:51:46Z</time>
      </trkpt>
      <trkpt lat="42.090343" lon="-0.3267575">
        <time>2022-07-06T09:51:49Z</time>
      </trkpt>
      <trkpt lat="42.090324" lon="-0.32666016">
        <time>2022-07-06T09:51:52Z</time>
      </trkpt>
      <trkpt lat="42.09031" lon="-0.32659617">
        <time>2022-07-06T09:51:54Z</time>
      </trkpt>
      <trkpt lat="42.09029" lon="-0.3264995">
        <time>2022-07-06T09:51:57Z</time>
      </trkpt>
      <trkpt lat="42.09028" lon="-0.32639983">
        <time>2022-07-06T09:52:00Z</time>
      </trkpt>
      <trkpt lat="42.090267" lon="-0.32633218">
        <time>2022-07-06T09:52:02Z</time>
      </trkpt>
      <trkpt lat="42.090252" lon="-0.32626486">
        <time>2022-07-06T09:52:04Z</time>
      </trkpt>
      <trkpt lat="42.09023" lon="-0.32619652">
        <time>2022-07-06T09:52:06Z</time>
      </trkpt>
      <trkpt lat="42.090206" lon="-0.32612553">
        <time>2022-07-06T09:52:08Z</time>
      </trkpt>
      <trkpt lat="42.090183" lon="-0.32605052">
        <time>2022-07-06T09:52:10Z</time>
      </trkpt>
      <trkpt lat="42.09016" lon="-0.32597753">
        <time>2022-07-06T09:52:12Z</time>
      </trkpt>
      <trkpt lat="42.090137" lon="-0.32590452">
        <time>2022-07-06T09:52:14Z</time>
      </trkpt>
      <trkpt lat="42.09011" lon="-0.3258295">
        <time>2022-07-06T09:52:16Z</time>
      </trkpt>
      <trkpt lat="42.090084" lon="-0.3257555">
        <time>2022-07-06T09:52:18Z</time>
      </trkpt>
      <trkpt lat="42.090046" lon="-0.3256415">
        <time>2022-07-06T09:52:21Z</time>
      </trkpt>
      <trkpt lat="42.090023" lon="-0.3255682">
        <time>2022-07-06T09:52:23Z</time>
      </trkpt>
      <trkpt lat="42.089993" lon="-0.3255022">
        <time>2022-07-06T09:52:25Z</time>
      </trkpt>
      <trkpt lat="42.089966" lon="-0.32543886">
        <time>2022-07-06T09:52:27Z</time>
      </trkpt>
      <trkpt lat="42.089943" lon="-0.3253762">
        <time>2022-07-06T09:52:29Z</time>
      </trkpt>
      <trkpt lat="42.089916" lon="-0.32531354">
        <time>2022-07-06T09:52:31Z</time>
      </trkpt>
      <trkpt lat="42.08989" lon="-0.3252509">
        <time>2022-07-06T09:52:33Z</time>
      </trkpt>
      <trkpt lat="42.089863" lon="-0.32519323">
        <time>2022-07-06T09:52:35Z</time>
      </trkpt>
      <trkpt lat="42.08982" lon="-0.32511356">
        <time>2022-07-06T09:52:38Z</time>
      </trkpt>
      <trkpt lat="42.08978" lon="-0.32503757">
        <time>2022-07-06T09:52:41Z</time>
      </trkpt>
      <trkpt lat="42.089737" lon="-0.32496157">
        <time>2022-07-06T09:52:44Z</time>
      </trkpt>
      <trkpt lat="42.089706" lon="-0.32491055">
        <time>2022-07-06T09:52:46Z</time>
      </trkpt>
      <trkpt lat="42.089657" lon="-0.32483622">
        <time>2022-07-06T09:52:49Z</time>
      </trkpt>
      <trkpt lat="42.08961" lon="-0.32476023">
        <time>2022-07-06T09:52:52Z</time>
      </trkpt>
      <trkpt lat="42.089577" lon="-0.32471156">
        <time>2022-07-06T09:52:54Z</time>
      </trkpt>
      <trkpt lat="42.089527" lon="-0.3246409">
        <time>2022-07-06T09:52:57Z</time>
      </trkpt>
      <trkpt lat="42.089478" lon="-0.32457325">
        <time>2022-07-06T09:53:00Z</time>
      </trkpt>
      <trkpt lat="42.089447" lon="-0.3245236">
        <time>2022-07-06T09:53:02Z</time>
      </trkpt>
      <trkpt lat="42.08941" lon="-0.32445493">
        <time>2022-07-06T09:53:05Z</time>
      </trkpt>
      <trkpt lat="42.089367" lon="-0.32438827">
        <time>2022-07-06T09:53:08Z</time>
      </trkpt>
      <trkpt lat="42.08932" lon="-0.32431793">
        <time>2022-07-06T09:53:11Z</time>
      </trkpt>
      <trkpt lat="42.089275" lon="-0.32424694">
        <time>2022-07-06T09:53:14Z</time>
      </trkpt>
      <trkpt lat="42.089245" lon="-0.32420194">
        <time>2022-07-06T09:53:16Z</time>
      </trkpt>
      <trkpt lat="42.089188" lon="-0.32413694">
        <time>2022-07-06T09:53:19Z</time>
      </trkpt>
      <trkpt lat="42.08914" lon="-0.32409227">
        <time>2022-07-06T09:53:21Z</time>
      </trkpt>
      <trkpt lat="42.089096" lon="-0.32404763">
        <time>2022-07-06T09:53:23Z</time>
      </trkpt>
      <trkpt lat="42.089043" lon="-0.32399595">
        <time>2022-07-06T09:53:25Z</time>
      </trkpt>
      <trkpt lat="42.08898" lon="-0.3239373">
        <time>2022-07-06T09:53:27Z</time>
      </trkpt>
      <trkpt lat="42.088913" lon="-0.32387298">
        <time>2022-07-06T09:53:29Z</time>
      </trkpt>
      <trkpt lat="42.08884" lon="-0.32380465">
        <time>2022-07-06T09:53:31Z</time>
      </trkpt>
      <trkpt lat="42.088768" lon="-0.32373363">
        <time>2022-07-06T09:53:33Z</time>
      </trkpt>
      <trkpt lat="42.08869" lon="-0.32365897">
        <time>2022-07-06T09:53:35Z</time>
      </trkpt>
      <trkpt lat="42.088608" lon="-0.32358265">
        <time>2022-07-06T09:53:37Z</time>
      </trkpt>
      <trkpt lat="42.088566" lon="-0.32354364">
        <time>2022-07-06T09:53:38Z</time>
      </trkpt>
      <trkpt lat="42.088524" lon="-0.3235073">
        <time>2022-07-06T09:53:39Z</time>
      </trkpt>
      <trkpt lat="42.088486" lon="-0.32346866">
        <time>2022-07-06T09:53:40Z</time>
      </trkpt>
      <trkpt lat="42.0884" lon="-0.32337934">
        <time>2022-07-06T09:53:42Z</time>
      </trkpt>
      <trkpt lat="42.08836" lon="-0.32333434">
        <time>2022-07-06T09:53:43Z</time>
      </trkpt>
      <trkpt lat="42.08832" lon="-0.32329166">
        <time>2022-07-06T09:53:44Z</time>
      </trkpt>
      <trkpt lat="42.08824" lon="-0.32319668">
        <time>2022-07-06T09:53:46Z</time>
      </trkpt>
      <trkpt lat="42.088203" lon="-0.32314834">
        <time>2022-07-06T09:53:47Z</time>
      </trkpt>
      <trkpt lat="42.08817" lon="-0.32310167">
        <time>2022-07-06T09:53:48Z</time>
      </trkpt>
      <trkpt lat="42.088093" lon="-0.32299802">
        <time>2022-07-06T09:53:50Z</time>
      </trkpt>
      <trkpt lat="42.08805" lon="-0.32294336">
        <time>2022-07-06T09:53:51Z</time>
      </trkpt>
      <trkpt lat="42.088013" lon="-0.3228917">
        <time>2022-07-06T09:53:52Z</time>
      </trkpt>
      <trkpt lat="42.08797" lon="-0.32283503">
        <time>2022-07-06T09:53:53Z</time>
      </trkpt>
      <trkpt lat="42.08793" lon="-0.32277972">
        <time>2022-07-06T09:53:54Z</time>
      </trkpt>
      <trkpt lat="42.087887" lon="-0.32272306">
        <time>2022-07-06T09:53:55Z</time>
      </trkpt>
      <trkpt lat="42.087845" lon="-0.3226694">
        <time>2022-07-06T09:53:56Z</time>
      </trkpt>
      <trkpt lat="42.087807" lon="-0.32261372">
        <time>2022-07-06T09:53:57Z</time>
      </trkpt>
      <trkpt lat="42.087765" lon="-0.3225564">
        <time>2022-07-06T09:53:58Z</time>
      </trkpt>
      <trkpt lat="42.08772" lon="-0.32249507">
        <time>2022-07-06T09:53:59Z</time>
      </trkpt>
      <trkpt lat="42.087677" lon="-0.32243374">
        <time>2022-07-06T09:54:00Z</time>
      </trkpt>
      <trkpt lat="42.08763" lon="-0.32237273">
        <time>2022-07-06T09:54:01Z</time>
      </trkpt>
      <trkpt lat="42.08759" lon="-0.3223164">
        <time>2022-07-06T09:54:02Z</time>
      </trkpt>
      <trkpt lat="42.087543" lon="-0.32225507">
        <time>2022-07-06T09:54:03Z</time>
      </trkpt>
      <trkpt lat="42.087498" lon="-0.32219407">
        <time>2022-07-06T09:54:04Z</time>
      </trkpt>
      <trkpt lat="42.087452" lon="-0.32213342">
        <time>2022-07-06T09:54:05Z</time>
      </trkpt>
      <trkpt lat="42.08741" lon="-0.32207677">
        <time>2022-07-06T09:54:06Z</time>
      </trkpt>
      <trkpt lat="42.087368" lon="-0.3220181">
        <time>2022-07-06T09:54:07Z</time>
      </trkpt>
      <trkpt lat="42.087326" lon="-0.32195777">
        <time>2022-07-06T09:54:08Z</time>
      </trkpt>
      <trkpt lat="42.08728" lon="-0.32189712">
        <time>2022-07-06T09:54:09Z</time>
      </trkpt>
      <trkpt lat="42.08724" lon="-0.3218381">
        <time>2022-07-06T09:54:10Z</time>
      </trkpt>
      <trkpt lat="42.087193" lon="-0.32177746">
        <time>2022-07-06T09:54:11Z</time>
      </trkpt>
      <trkpt lat="42.087147" lon="-0.3217168">
        <time>2022-07-06T09:54:12Z</time>
      </trkpt>
      <trkpt lat="42.0871" lon="-0.3216548">
        <time>2022-07-06T09:54:13Z</time>
      </trkpt>
      <trkpt lat="42.087055" lon="-0.3215938">
        <time>2022-07-06T09:54:14Z</time>
      </trkpt>
      <trkpt lat="42.08701" lon="-0.3215328">
        <time>2022-07-06T09:54:15Z</time>
      </trkpt>
      <trkpt lat="42.086967" lon="-0.3214728">
        <time>2022-07-06T09:54:16Z</time>
      </trkpt>
      <trkpt lat="42.08692" lon="-0.32141212">
        <time>2022-07-06T09:54:17Z</time>
      </trkpt>
      <trkpt lat="42.086876" lon="-0.32135046">
        <time>2022-07-06T09:54:18Z</time>
      </trkpt>
      <trkpt lat="42.08683" lon="-0.32128382">
        <time>2022-07-06T09:54:19Z</time>
      </trkpt>
      <trkpt lat="42.08679" lon="-0.32122347">
        <time>2022-07-06T09:54:20Z</time>
      </trkpt>
      <trkpt lat="42.086746" lon="-0.3211618">
        <time>2022-07-06T09:54:21Z</time>
      </trkpt>
      <trkpt lat="42.086697" lon="-0.32109815">
        <time>2022-07-06T09:54:22Z</time>
      </trkpt>
      <trkpt lat="42.08665" lon="-0.32103616">
        <time>2022-07-06T09:54:23Z</time>
      </trkpt>
      <trkpt lat="42.08661" lon="-0.32097617">
        <time>2022-07-06T09:54:24Z</time>
      </trkpt>
      <trkpt lat="42.086563" lon="-0.32091984">
        <time>2022-07-06T09:54:25Z</time>
      </trkpt>
      <trkpt lat="42.08652" lon="-0.32086384">
        <time>2022-07-06T09:54:26Z</time>
      </trkpt>
      <trkpt lat="42.086433" lon="-0.32074618">
        <time>2022-07-06T09:54:28Z</time>
      </trkpt>
      <trkpt lat="42.08639" lon="-0.32068652">
        <time>2022-07-06T09:54:29Z</time>
      </trkpt>
      <trkpt lat="42.08635" lon="-0.32063052">
        <time>2022-07-06T09:54:30Z</time>
      </trkpt>
      <trkpt lat="42.086308" lon="-0.32057217">
        <time>2022-07-06T09:54:31Z</time>
      </trkpt>
      <trkpt lat="42.086266" lon="-0.32050684">
        <time>2022-07-06T09:54:32Z</time>
      </trkpt>
      <trkpt lat="42.086224" lon="-0.3204415">
        <time>2022-07-06T09:54:33Z</time>
      </trkpt>
      <trkpt lat="42.08619" lon="-0.32037953">
        <time>2022-07-06T09:54:34Z</time>
      </trkpt>
      <trkpt lat="42.086155" lon="-0.32031518">
        <time>2022-07-06T09:54:35Z</time>
      </trkpt>
      <trkpt lat="42.08612" lon="-0.3202422">
        <time>2022-07-06T09:54:36Z</time>
      </trkpt>
      <trkpt lat="42.086086" lon="-0.32016686">
        <time>2022-07-06T09:54:37Z</time>
      </trkpt>
      <trkpt lat="42.08606" lon="-0.32008952">
        <time>2022-07-06T09:54:38Z</time>
      </trkpt>
      <trkpt lat="42.08604" lon="-0.3200142">
        <time>2022-07-06T09:54:39Z</time>
      </trkpt>
      <trkpt lat="42.08602" lon="-0.31992888">
        <time>2022-07-06T09:54:40Z</time>
      </trkpt>
      <trkpt lat="42.086002" lon="-0.3198432">
        <time>2022-07-06T09:54:41Z</time>
      </trkpt>
      <trkpt lat="42.085987" lon="-0.31975788">
        <time>2022-07-06T09:54:42Z</time>
      </trkpt>
      <trkpt lat="42.085976" lon="-0.3196779">
        <time>2022-07-06T09:54:43Z</time>
      </trkpt>
      <trkpt lat="42.085964" lon="-0.31959522">
        <time>2022-07-06T09:54:44Z</time>
      </trkpt>
      <trkpt lat="42.085957" lon="-0.31950656">
        <time>2022-07-06T09:54:45Z</time>
      </trkpt>
      <trkpt lat="42.085945" lon="-0.3194199">
        <time>2022-07-06T09:54:46Z</time>
      </trkpt>
      <trkpt lat="42.085934" lon="-0.3193339">
        <time>2022-07-06T09:54:47Z</time>
      </trkpt>
      <trkpt lat="42.085926" lon="-0.31925425">
        <time>2022-07-06T09:54:48Z</time>
      </trkpt>
      <trkpt lat="42.08592" lon="-0.3191679">
        <time>2022-07-06T09:54:49Z</time>
      </trkpt>
      <trkpt lat="42.08591" lon="-0.3190826">
        <time>2022-07-06T09:54:50Z</time>
      </trkpt>
      <trkpt lat="42.085903" lon="-0.31900358">
        <time>2022-07-06T09:54:51Z</time>
      </trkpt>
      <trkpt lat="42.085896" lon="-0.31892225">
        <time>2022-07-06T09:54:52Z</time>
      </trkpt>
      <trkpt lat="42.085884" lon="-0.3188356">
        <time>2022-07-06T09:54:53Z</time>
      </trkpt>
      <trkpt lat="42.085876" lon="-0.31874892">
        <time>2022-07-06T09:54:54Z</time>
      </trkpt>
      <trkpt lat="42.08587" lon="-0.3186616">
        <time>2022-07-06T09:54:55Z</time>
      </trkpt>
      <trkpt lat="42.085857" lon="-0.31857494">
        <time>2022-07-06T09:54:56Z</time>
      </trkpt>
      <trkpt lat="42.08585" lon="-0.3184956">
        <time>2022-07-06T09:54:57Z</time>
      </trkpt>
      <trkpt lat="42.085842" lon="-0.31841427">
        <time>2022-07-06T09:54:58Z</time>
      </trkpt>
      <trkpt lat="42.085835" lon="-0.31833228">
        <time>2022-07-06T09:54:59Z</time>
      </trkpt>
      <trkpt lat="42.08583" lon="-0.31824994">
        <time>2022-07-06T09:55:00Z</time>
      </trkpt>
      <trkpt lat="42.085827" lon="-0.3181673">
        <time>2022-07-06T09:55:01Z</time>
      </trkpt>
      <trkpt lat="42.085823" lon="-0.31808263">
        <time>2022-07-06T09:55:02Z</time>
      </trkpt>
      <trkpt lat="42.085823" lon="-0.31799698">
        <time>2022-07-06T09:55:03Z</time>
      </trkpt>
      <trkpt lat="42.08582" lon="-0.3179113">
        <time>2022-07-06T09:55:04Z</time>
      </trkpt>
      <trkpt lat="42.085823" lon="-0.31782597">
        <time>2022-07-06T09:55:05Z</time>
      </trkpt>
      <trkpt lat="42.085827" lon="-0.31774098">
        <time>2022-07-06T09:55:06Z</time>
      </trkpt>
      <trkpt lat="42.08583" lon="-0.3176563">
        <time>2022-07-06T09:55:07Z</time>
      </trkpt>
      <trkpt lat="42.08584" lon="-0.31756333">
        <time>2022-07-06T09:55:08Z</time>
      </trkpt>
      <trkpt lat="42.085846" lon="-0.3174703">
        <time>2022-07-06T09:55:09Z</time>
      </trkpt>
      <trkpt lat="42.085854" lon="-0.317377">
        <time>2022-07-06T09:55:10Z</time>
      </trkpt>
      <trkpt lat="42.08586" lon="-0.31729034">
        <time>2022-07-06T09:55:11Z</time>
      </trkpt>
      <trkpt lat="42.08587" lon="-0.317202">
        <time>2022-07-06T09:55:12Z</time>
      </trkpt>
      <trkpt lat="42.085873" lon="-0.31711233">
        <time>2022-07-06T09:55:13Z</time>
      </trkpt>
      <trkpt lat="42.08588" lon="-0.3170167">
        <time>2022-07-06T09:55:14Z</time>
      </trkpt>
      <trkpt lat="42.08588" lon="-0.31692967">
        <time>2022-07-06T09:55:15Z</time>
      </trkpt>
      <trkpt lat="42.08588" lon="-0.31684336">
        <time>2022-07-06T09:55:16Z</time>
      </trkpt>
      <trkpt lat="42.085876" lon="-0.31675902">
        <time>2022-07-06T09:55:17Z</time>
      </trkpt>
      <trkpt lat="42.08587" lon="-0.3166777">
        <time>2022-07-06T09:55:18Z</time>
      </trkpt>
      <trkpt lat="42.085857" lon="-0.31659737">
        <time>2022-07-06T09:55:19Z</time>
      </trkpt>
      <trkpt lat="42.085842" lon="-0.3165277">
        <time>2022-07-06T09:55:20Z</time>
      </trkpt>
      <trkpt lat="42.085827" lon="-0.31646037">
        <time>2022-07-06T09:55:21Z</time>
      </trkpt>
      <trkpt lat="42.085804" lon="-0.31639838">
        <time>2022-07-06T09:55:22Z</time>
      </trkpt>
      <trkpt lat="42.085747" lon="-0.31628972">
        <time>2022-07-06T09:55:24Z</time>
      </trkpt>
      <trkpt lat="42.08569" lon="-0.3162057">
        <time>2022-07-06T09:55:26Z</time>
      </trkpt>
      <trkpt lat="42.085625" lon="-0.31613672">
        <time>2022-07-06T09:55:28Z</time>
      </trkpt>
      <trkpt lat="42.085567" lon="-0.31608137">
        <time>2022-07-06T09:55:30Z</time>
      </trkpt>
      <trkpt lat="42.085506" lon="-0.31603205">
        <time>2022-07-06T09:55:32Z</time>
      </trkpt>
      <trkpt lat="42.085445" lon="-0.31598604">
        <time>2022-07-06T09:55:34Z</time>
      </trkpt>
      <trkpt lat="42.08538" lon="-0.31594405">
        <time>2022-07-06T09:55:36Z</time>
      </trkpt>
      <trkpt lat="42.08532" lon="-0.31590405">
        <time>2022-07-06T09:55:38Z</time>
      </trkpt>
      <trkpt lat="42.08526" lon="-0.3158634">
        <time>2022-07-06T09:55:40Z</time>
      </trkpt>
      <trkpt lat="42.085205" lon="-0.31582206">
        <time>2022-07-06T09:55:42Z</time>
      </trkpt>
      <trkpt lat="42.085155" lon="-0.31578907">
        <time>2022-07-06T09:55:44Z</time>
      </trkpt>
      <trkpt lat="42.085117" lon="-0.31576407">
        <time>2022-07-06T09:55:48Z</time>
      </trkpt>
      <trkpt lat="42.085045" lon="-0.31569406">
        <time>2022-07-06T09:57:03Z</time>
      </trkpt>
      <trkpt lat="42.084995" lon="-0.31562606">
        <time>2022-07-06T09:57:05Z</time>
      </trkpt>
      <trkpt lat="42.084938" lon="-0.31554607">
        <time>2022-07-06T09:57:07Z</time>
      </trkpt>
      <trkpt lat="42.084873" lon="-0.31544873">
        <time>2022-07-06T09:57:09Z</time>
      </trkpt>
      <trkpt lat="42.08482" lon="-0.31533974">
        <time>2022-07-06T09:57:11Z</time>
      </trkpt>
      <trkpt lat="42.08479" lon="-0.3152784">
        <time>2022-07-06T09:57:12Z</time>
      </trkpt>
      <trkpt lat="42.084763" lon="-0.3152144">
        <time>2022-07-06T09:57:13Z</time>
      </trkpt>
      <trkpt lat="42.084732" lon="-0.31514773">
        <time>2022-07-06T09:57:14Z</time>
      </trkpt>
      <trkpt lat="42.0847" lon="-0.3150804">
        <time>2022-07-06T09:57:15Z</time>
      </trkpt>
      <trkpt lat="42.084667" lon="-0.3150134">
        <time>2022-07-06T09:57:16Z</time>
      </trkpt>
      <trkpt lat="42.084633" lon="-0.31494674">
        <time>2022-07-06T09:57:17Z</time>
      </trkpt>
      <trkpt lat="42.0846" lon="-0.31487942">
        <time>2022-07-06T09:57:18Z</time>
      </trkpt>
      <trkpt lat="42.08456" lon="-0.3148134">
        <time>2022-07-06T09:57:19Z</time>
      </trkpt>
      <trkpt lat="42.084522" lon="-0.3147491">
        <time>2022-07-06T09:57:20Z</time>
      </trkpt>
      <trkpt lat="42.08448" lon="-0.31468442">
        <time>2022-07-06T09:57:21Z</time>
      </trkpt>
      <trkpt lat="42.08444" lon="-0.31462377">
        <time>2022-07-06T09:57:22Z</time>
      </trkpt>
      <trkpt lat="42.084396" lon="-0.31456676">
        <time>2022-07-06T09:57:23Z</time>
      </trkpt>
      <trkpt lat="42.084354" lon="-0.31451178">
        <time>2022-07-06T09:57:24Z</time>
      </trkpt>
      <trkpt lat="42.084316" lon="-0.31445912">
        <time>2022-07-06T09:57:25Z</time>
      </trkpt>
      <trkpt lat="42.08428" lon="-0.31440678">
        <time>2022-07-06T09:57:26Z</time>
      </trkpt>
      <trkpt lat="42.08424" lon="-0.31435546">
        <time>2022-07-06T09:57:27Z</time>
      </trkpt>
      <trkpt lat="42.0842" lon="-0.3143041">
        <time>2022-07-06T09:57:28Z</time>
      </trkpt>
      <trkpt lat="42.084167" lon="-0.31425413">
        <time>2022-07-06T09:57:29Z</time>
      </trkpt>
      <trkpt lat="42.084133" lon="-0.31420347">
        <time>2022-07-06T09:57:30Z</time>
      </trkpt>
      <trkpt lat="42.0841" lon="-0.31415346">
        <time>2022-07-06T09:57:31Z</time>
      </trkpt>
      <trkpt lat="42.08403" lon="-0.3140548">
        <time>2022-07-06T09:57:33Z</time>
      </trkpt>
      <trkpt lat="42.08397" lon="-0.3139588">
        <time>2022-07-06T09:57:35Z</time>
      </trkpt>
      <trkpt lat="42.083942" lon="-0.31391314">
        <time>2022-07-06T09:57:36Z</time>
      </trkpt>
      <trkpt lat="42.08389" lon="-0.31381348">
        <time>2022-07-06T09:57:38Z</time>
      </trkpt>
      <trkpt lat="42.08384" lon="-0.31371647">
        <time>2022-07-06T09:57:40Z</time>
      </trkpt>
      <trkpt lat="42.0838" lon="-0.31361914">
        <time>2022-07-06T09:57:42Z</time>
      </trkpt>
      <trkpt lat="42.08377" lon="-0.31351683">
        <time>2022-07-06T09:57:44Z</time>
      </trkpt>
      <trkpt lat="42.083748" lon="-0.31341082">
        <time>2022-07-06T09:57:46Z</time>
      </trkpt>
      <trkpt lat="42.08373" lon="-0.31330448">
        <time>2022-07-06T09:57:48Z</time>
      </trkpt>
      <trkpt lat="42.08372" lon="-0.3131975">
        <time>2022-07-06T09:57:50Z</time>
      </trkpt>
      <trkpt lat="42.08372" lon="-0.31309384">
        <time>2022-07-06T09:57:52Z</time>
      </trkpt>
      <trkpt lat="42.08372" lon="-0.31299183">
        <time>2022-07-06T09:57:54Z</time>
      </trkpt>
      <trkpt lat="42.08372" lon="-0.31288818">
        <time>2022-07-06T09:57:56Z</time>
      </trkpt>
      <trkpt lat="42.083717" lon="-0.31278583">
        <time>2022-07-06T09:57:58Z</time>
      </trkpt>
      <trkpt lat="42.083714" lon="-0.31268284">
        <time>2022-07-06T09:58:00Z</time>
      </trkpt>
      <trkpt lat="42.083714" lon="-0.31257918">
        <time>2022-07-06T09:58:02Z</time>
      </trkpt>
      <trkpt lat="42.083706" lon="-0.31247652">
        <time>2022-07-06T09:58:04Z</time>
      </trkpt>
      <trkpt lat="42.083702" lon="-0.31237018">
        <time>2022-07-06T09:58:06Z</time>
      </trkpt>
      <trkpt lat="42.08369" lon="-0.31225687">
        <time>2022-07-06T09:58:08Z</time>
      </trkpt>
      <trkpt lat="42.08368" lon="-0.31213352">
        <time>2022-07-06T09:58:10Z</time>
      </trkpt>
      <trkpt lat="42.083664" lon="-0.31199652">
        <time>2022-07-06T09:58:12Z</time>
      </trkpt>
      <trkpt lat="42.083656" lon="-0.31192252">
        <time>2022-07-06T09:58:13Z</time>
      </trkpt>
      <trkpt lat="42.083645" lon="-0.3118452">
        <time>2022-07-06T09:58:14Z</time>
      </trkpt>
      <trkpt lat="42.083637" lon="-0.3117632">
        <time>2022-07-06T09:58:15Z</time>
      </trkpt>
      <trkpt lat="42.08363" lon="-0.3116772">
        <time>2022-07-06T09:58:16Z</time>
      </trkpt>
      <trkpt lat="42.08362" lon="-0.31158888">
        <time>2022-07-06T09:58:17Z</time>
      </trkpt>
      <trkpt lat="42.083607" lon="-0.31149855">
        <time>2022-07-06T09:58:18Z</time>
      </trkpt>
      <trkpt lat="42.083595" lon="-0.31140587">
        <time>2022-07-06T09:58:19Z</time>
      </trkpt>
      <trkpt lat="42.083584" lon="-0.3113109">
        <time>2022-07-06T09:58:20Z</time>
      </trkpt>
      <trkpt lat="42.08357" lon="-0.31121287">
        <time>2022-07-06T09:58:21Z</time>
      </trkpt>
      <trkpt lat="42.083553" lon="-0.3111112">
        <time>2022-07-06T09:58:22Z</time>
      </trkpt>
      <trkpt lat="42.08354" lon="-0.31100622">
        <time>2022-07-06T09:58:23Z</time>
      </trkpt>
      <trkpt lat="42.083527" lon="-0.31089857">
        <time>2022-07-06T09:58:24Z</time>
      </trkpt>
      <trkpt lat="42.08351" lon="-0.31078857">
        <time>2022-07-06T09:58:25Z</time>
      </trkpt>
      <trkpt lat="42.0835" lon="-0.31067356">
        <time>2022-07-06T09:58:26Z</time>
      </trkpt>
      <trkpt lat="42.08349" lon="-0.31055823">
        <time>2022-07-06T09:58:27Z</time>
      </trkpt>
      <trkpt lat="42.083473" lon="-0.31044057">
        <time>2022-07-06T09:58:28Z</time>
      </trkpt>
      <trkpt lat="42.083458" lon="-0.31032056">
        <time>2022-07-06T09:58:29Z</time>
      </trkpt>
      <trkpt lat="42.083447" lon="-0.31019956">
        <time>2022-07-06T09:58:30Z</time>
      </trkpt>
      <trkpt lat="42.083435" lon="-0.31007558">
        <time>2022-07-06T09:58:31Z</time>
      </trkpt>
      <trkpt lat="42.08342" lon="-0.3099529">
        <time>2022-07-06T09:58:32Z</time>
      </trkpt>
      <trkpt lat="42.08341" lon="-0.3098289">
        <time>2022-07-06T09:58:33Z</time>
      </trkpt>
      <trkpt lat="42.083397" lon="-0.30970526">
        <time>2022-07-06T09:58:34Z</time>
      </trkpt>
      <trkpt lat="42.08338" lon="-0.30958158">
        <time>2022-07-06T09:58:35Z</time>
      </trkpt>
      <trkpt lat="42.083366" lon="-0.30945858">
        <time>2022-07-06T09:58:36Z</time>
      </trkpt>
      <trkpt lat="42.083347" lon="-0.30933592">
        <time>2022-07-06T09:58:37Z</time>
      </trkpt>
      <trkpt lat="42.083332" lon="-0.3092126">
        <time>2022-07-06T09:58:38Z</time>
      </trkpt>
      <trkpt lat="42.083317" lon="-0.30909026">
        <time>2022-07-06T09:58:39Z</time>
      </trkpt>
      <trkpt lat="42.0833" lon="-0.30896828">
        <time>2022-07-06T09:58:40Z</time>
      </trkpt>
      <trkpt lat="42.083275" lon="-0.30872095">
        <time>2022-07-06T09:58:42Z</time>
      </trkpt>
      <trkpt lat="42.083263" lon="-0.30859593">
        <time>2022-07-06T09:58:43Z</time>
      </trkpt>
      <trkpt lat="42.08325" lon="-0.30846927">
        <time>2022-07-06T09:58:44Z</time>
      </trkpt>
      <trkpt lat="42.083233" lon="-0.30834228">
        <time>2022-07-06T09:58:45Z</time>
      </trkpt>
      <trkpt lat="42.083218" lon="-0.30821562">
        <time>2022-07-06T09:58:46Z</time>
      </trkpt>
      <trkpt lat="42.083206" lon="-0.3080893">
        <time>2022-07-06T09:58:47Z</time>
      </trkpt>
      <trkpt lat="42.08319" lon="-0.3079643">
        <time>2022-07-06T09:58:48Z</time>
      </trkpt>
      <trkpt lat="42.083176" lon="-0.3078403">
        <time>2022-07-06T09:58:49Z</time>
      </trkpt>
      <trkpt lat="42.08316" lon="-0.30771595">
        <time>2022-07-06T09:58:50Z</time>
      </trkpt>
      <trkpt lat="42.083145" lon="-0.30759096">
        <time>2022-07-06T09:58:51Z</time>
      </trkpt>
      <trkpt lat="42.08313" lon="-0.30746695">
        <time>2022-07-06T09:58:52Z</time>
      </trkpt>
      <trkpt lat="42.083115" lon="-0.30734295">
        <time>2022-07-06T09:58:53Z</time>
      </trkpt>
      <trkpt lat="42.0831" lon="-0.30721763">
        <time>2022-07-06T09:58:54Z</time>
      </trkpt>
      <trkpt lat="42.083084" lon="-0.30709162">
        <time>2022-07-06T09:58:55Z</time>
      </trkpt>
      <trkpt lat="42.08307" lon="-0.30696464">
        <time>2022-07-06T09:58:56Z</time>
      </trkpt>
      <trkpt lat="42.08305" lon="-0.30683696">
        <time>2022-07-06T09:58:57Z</time>
      </trkpt>
      <trkpt lat="42.083035" lon="-0.30670896">
        <time>2022-07-06T09:58:58Z</time>
      </trkpt>
      <trkpt lat="42.083015" lon="-0.30658132">
        <time>2022-07-06T09:58:59Z</time>
      </trkpt>
      <trkpt lat="42.08299" lon="-0.30645564">
        <time>2022-07-06T09:59:00Z</time>
      </trkpt>
      <trkpt lat="42.08296" lon="-0.30633998">
        <time>2022-07-06T09:59:01Z</time>
      </trkpt>
      <trkpt lat="42.08292" lon="-0.30622634">
        <time>2022-07-06T09:59:02Z</time>
      </trkpt>
      <trkpt lat="42.082867" lon="-0.306111">
        <time>2022-07-06T09:59:03Z</time>
      </trkpt>
      <trkpt lat="42.082806" lon="-0.30600533">
        <time>2022-07-06T09:59:04Z</time>
      </trkpt>
      <trkpt lat="42.08274" lon="-0.30590668">
        <time>2022-07-06T09:59:05Z</time>
      </trkpt>
      <trkpt lat="42.08267" lon="-0.30581334">
        <time>2022-07-06T09:59:06Z</time>
      </trkpt>
      <trkpt lat="42.082592" lon="-0.305723">
        <time>2022-07-06T09:59:07Z</time>
      </trkpt>
      <trkpt lat="42.082516" lon="-0.30563402">
        <time>2022-07-06T09:59:08Z</time>
      </trkpt>
      <trkpt lat="42.082436" lon="-0.30554503">
        <time>2022-07-06T09:59:09Z</time>
      </trkpt>
      <trkpt lat="42.082355" lon="-0.305458">
        <time>2022-07-06T09:59:10Z</time>
      </trkpt>
      <trkpt lat="42.08228" lon="-0.3053757">
        <time>2022-07-06T09:59:11Z</time>
      </trkpt>
      <trkpt lat="42.08219" lon="-0.3052857">
        <time>2022-07-06T09:59:12Z</time>
      </trkpt>
      <trkpt lat="42.08211" lon="-0.30520502">
        <time>2022-07-06T09:59:13Z</time>
      </trkpt>
      <trkpt lat="42.082024" lon="-0.30512404">
        <time>2022-07-06T09:59:14Z</time>
      </trkpt>
      <trkpt lat="42.081944" lon="-0.30505237">
        <time>2022-07-06T09:59:15Z</time>
      </trkpt>
      <trkpt lat="42.081863" lon="-0.30498204">
        <time>2022-07-06T09:59:16Z</time>
      </trkpt>
      <trkpt lat="42.081787" lon="-0.30491072">
        <time>2022-07-06T09:59:17Z</time>
      </trkpt>
      <trkpt lat="42.08171" lon="-0.30483472">
        <time>2022-07-06T09:59:18Z</time>
      </trkpt>
      <trkpt lat="42.081642" lon="-0.30475038">
        <time>2022-07-06T09:59:19Z</time>
      </trkpt>
      <trkpt lat="42.08158" lon="-0.30465806">
        <time>2022-07-06T09:59:20Z</time>
      </trkpt>
      <trkpt lat="42.08154" lon="-0.30455706">
        <time>2022-07-06T09:59:21Z</time>
      </trkpt>
      <trkpt lat="42.081505" lon="-0.3044567">
        <time>2022-07-06T09:59:22Z</time>
      </trkpt>
      <trkpt lat="42.08149" lon="-0.30433872">
        <time>2022-07-06T09:59:23Z</time>
      </trkpt>
      <trkpt lat="42.081493" lon="-0.3042124">
        <time>2022-07-06T09:59:24Z</time>
      </trkpt>
      <trkpt lat="42.081505" lon="-0.30408305">
        <time>2022-07-06T09:59:25Z</time>
      </trkpt>
      <trkpt lat="42.081524" lon="-0.30395073">
        <time>2022-07-06T09:59:26Z</time>
      </trkpt>
      <trkpt lat="42.081547" lon="-0.3038254">
        <time>2022-07-06T09:59:27Z</time>
      </trkpt>
      <trkpt lat="42.081577" lon="-0.3036984">
        <time>2022-07-06T09:59:28Z</time>
      </trkpt>
      <trkpt lat="42.081615" lon="-0.3035624">
        <time>2022-07-06T09:59:29Z</time>
      </trkpt>
      <trkpt lat="42.081657" lon="-0.30342275">
        <time>2022-07-06T09:59:30Z</time>
      </trkpt>
      <trkpt lat="42.081703" lon="-0.3032891">
        <time>2022-07-06T09:59:31Z</time>
      </trkpt>
      <trkpt lat="42.08174" lon="-0.30316642">
        <time>2022-07-06T09:59:32Z</time>
      </trkpt>
      <trkpt lat="42.08178" lon="-0.30304343">
        <time>2022-07-06T09:59:33Z</time>
      </trkpt>
      <trkpt lat="42.08182" lon="-0.30291975">
        <time>2022-07-06T09:59:34Z</time>
      </trkpt>
      <trkpt lat="42.08186" lon="-0.30279544">
        <time>2022-07-06T09:59:35Z</time>
      </trkpt>
      <trkpt lat="42.081898" lon="-0.30267042">
        <time>2022-07-06T09:59:36Z</time>
      </trkpt>
      <trkpt lat="42.081936" lon="-0.3025441">
        <time>2022-07-06T09:59:37Z</time>
      </trkpt>
      <trkpt lat="42.08197" lon="-0.30241543">
        <time>2022-07-06T09:59:38Z</time>
      </trkpt>
      <trkpt lat="42.081993" lon="-0.30228478">
        <time>2022-07-06T09:59:39Z</time>
      </trkpt>
      <trkpt lat="42.08201" lon="-0.30215344">
        <time>2022-07-06T09:59:40Z</time>
      </trkpt>
      <trkpt lat="42.082016" lon="-0.30202246">
        <time>2022-07-06T09:59:41Z</time>
      </trkpt>
      <trkpt lat="42.082012" lon="-0.3018938">
        <time>2022-07-06T09:59:42Z</time>
      </trkpt>
      <trkpt lat="42.082" lon="-0.30176878">
        <time>2022-07-06T09:59:43Z</time>
      </trkpt>
      <trkpt lat="42.081963" lon="-0.3015248">
        <time>2022-07-06T09:59:45Z</time>
      </trkpt>
      <trkpt lat="42.081944" lon="-0.3014068">
        <time>2022-07-06T09:59:46Z</time>
      </trkpt>
      <trkpt lat="42.08192" lon="-0.30129012">
        <time>2022-07-06T09:59:47Z</time>
      </trkpt>
      <trkpt lat="42.081898" lon="-0.30117446">
        <time>2022-07-06T09:59:48Z</time>
      </trkpt>
      <trkpt lat="42.08187" lon="-0.3010608">
        <time>2022-07-06T09:59:49Z</time>
      </trkpt>
      <trkpt lat="42.081844" lon="-0.30094814">
        <time>2022-07-06T09:59:50Z</time>
      </trkpt>
      <trkpt lat="42.08182" lon="-0.3008365">
        <time>2022-07-06T09:59:51Z</time>
      </trkpt>
      <trkpt lat="42.0818" lon="-0.30072582">
        <time>2022-07-06T09:59:52Z</time>
      </trkpt>
      <trkpt lat="42.08177" lon="-0.30061617">
        <time>2022-07-06T09:59:53Z</time>
      </trkpt>
      <trkpt lat="42.08175" lon="-0.30050752">
        <time>2022-07-06T09:59:54Z</time>
      </trkpt>
      <trkpt lat="42.081726" lon="-0.30039418">
        <time>2022-07-06T09:59:55Z</time>
      </trkpt>
      <trkpt lat="42.081703" lon="-0.30028418">
        <time>2022-07-06T09:59:56Z</time>
      </trkpt>
      <trkpt lat="42.08168" lon="-0.3001772">
        <time>2022-07-06T09:59:57Z</time>
      </trkpt>
      <trkpt lat="42.08166" lon="-0.3000742">
        <time>2022-07-06T09:59:58Z</time>
      </trkpt>
      <trkpt lat="42.08164" lon="-0.29997385">
        <time>2022-07-06T09:59:59Z</time>
      </trkpt>
      <trkpt lat="42.08162" lon="-0.29987484">
        <time>2022-07-06T10:00:00Z</time>
      </trkpt>
      <trkpt lat="42.0816" lon="-0.2997825">
        <time>2022-07-06T10:00:01Z</time>
      </trkpt>
      <trkpt lat="42.08158" lon="-0.2996822">
        <time>2022-07-06T10:00:02Z</time>
      </trkpt>
      <trkpt lat="42.081566" lon="-0.29958418">
        <time>2022-07-06T10:00:03Z</time>
      </trkpt>
      <trkpt lat="42.081547" lon="-0.2994882">
        <time>2022-07-06T10:00:04Z</time>
      </trkpt>
      <trkpt lat="42.081535" lon="-0.2993922">
        <time>2022-07-06T10:00:05Z</time>
      </trkpt>
      <trkpt lat="42.081524" lon="-0.29929754">
        <time>2022-07-06T10:00:06Z</time>
      </trkpt>
      <trkpt lat="42.081512" lon="-0.2992092">
        <time>2022-07-06T10:00:07Z</time>
      </trkpt>
      <trkpt lat="42.08151" lon="-0.29911286">
        <time>2022-07-06T10:00:08Z</time>
      </trkpt>
      <trkpt lat="42.0815" lon="-0.29902387">
        <time>2022-07-06T10:00:09Z</time>
      </trkpt>
      <trkpt lat="42.081497" lon="-0.29893288">
        <time>2022-07-06T10:00:10Z</time>
      </trkpt>
      <trkpt lat="42.081497" lon="-0.2988412">
        <time>2022-07-06T10:00:11Z</time>
      </trkpt>
      <trkpt lat="42.081493" lon="-0.2987492">
        <time>2022-07-06T10:00:12Z</time>
      </trkpt>
      <trkpt lat="42.08149" lon="-0.29865688">
        <time>2022-07-06T10:00:13Z</time>
      </trkpt>
      <trkpt lat="42.081486" lon="-0.2985652">
        <time>2022-07-06T10:00:14Z</time>
      </trkpt>
      <trkpt lat="42.081486" lon="-0.29847288">
        <time>2022-07-06T10:00:15Z</time>
      </trkpt>
      <trkpt lat="42.081482" lon="-0.29837957">
        <time>2022-07-06T10:00:16Z</time>
      </trkpt>
      <trkpt lat="42.081482" lon="-0.29828623">
        <time>2022-07-06T10:00:17Z</time>
      </trkpt>
      <trkpt lat="42.081482" lon="-0.2981939">
        <time>2022-07-06T10:00:18Z</time>
      </trkpt>
      <trkpt lat="42.081482" lon="-0.2981019">
        <time>2022-07-06T10:00:19Z</time>
      </trkpt>
      <trkpt lat="42.08148" lon="-0.29801023">
        <time>2022-07-06T10:00:20Z</time>
      </trkpt>
      <trkpt lat="42.08148" lon="-0.29791924">
        <time>2022-07-06T10:00:21Z</time>
      </trkpt>
      <trkpt lat="42.081474" lon="-0.29782957">
        <time>2022-07-06T10:00:22Z</time>
      </trkpt>
      <trkpt lat="42.081467" lon="-0.29773957">
        <time>2022-07-06T10:00:23Z</time>
      </trkpt>
      <trkpt lat="42.08146" lon="-0.2976489">
        <time>2022-07-06T10:00:24Z</time>
      </trkpt>
      <trkpt lat="42.081448" lon="-0.29755792">
        <time>2022-07-06T10:00:25Z</time>
      </trkpt>
      <trkpt lat="42.08143" lon="-0.2974676">
        <time>2022-07-06T10:00:26Z</time>
      </trkpt>
      <trkpt lat="42.081406" lon="-0.29737827">
        <time>2022-07-06T10:00:27Z</time>
      </trkpt>
      <trkpt lat="42.08138" lon="-0.29729092">
        <time>2022-07-06T10:00:28Z</time>
      </trkpt>
      <trkpt lat="42.08135" lon="-0.29720628">
        <time>2022-07-06T10:00:29Z</time>
      </trkpt>
      <trkpt lat="42.081314" lon="-0.29712728">
        <time>2022-07-06T10:00:30Z</time>
      </trkpt>
      <trkpt lat="42.081272" lon="-0.29705328">
        <time>2022-07-06T10:00:31Z</time>
      </trkpt>
      <trkpt lat="42.08123" lon="-0.29698327">
        <time>2022-07-06T10:00:32Z</time>
      </trkpt>
      <trkpt lat="42.081184" lon="-0.29691795">
        <time>2022-07-06T10:00:33Z</time>
      </trkpt>
      <trkpt lat="42.08114" lon="-0.29685527">
        <time>2022-07-06T10:00:34Z</time>
      </trkpt>
      <trkpt lat="42.081093" lon="-0.29679462">
        <time>2022-07-06T10:00:35Z</time>
      </trkpt>
      <trkpt lat="42.08105" lon="-0.29673663">
        <time>2022-07-06T10:00:36Z</time>
      </trkpt>
      <trkpt lat="42.081005" lon="-0.29668096">
        <time>2022-07-06T10:00:37Z</time>
      </trkpt>
      <trkpt lat="42.08096" lon="-0.2966273">
        <time>2022-07-06T10:00:38Z</time>
      </trkpt>
      <trkpt lat="42.080917" lon="-0.29657397">
        <time>2022-07-06T10:00:39Z</time>
      </trkpt>
      <trkpt lat="42.080875" lon="-0.2965213">
        <time>2022-07-06T10:00:40Z</time>
      </trkpt>
      <trkpt lat="42.080837" lon="-0.2964703">
        <time>2022-07-06T10:00:41Z</time>
      </trkpt>
      <trkpt lat="42.0808" lon="-0.29641864">
        <time>2022-07-06T10:00:42Z</time>
      </trkpt>
      <trkpt lat="42.08076" lon="-0.29636666">
        <time>2022-07-06T10:00:43Z</time>
      </trkpt>
      <trkpt lat="42.080727" lon="-0.29631498">
        <time>2022-07-06T10:00:44Z</time>
      </trkpt>
      <trkpt lat="42.080654" lon="-0.29621232">
        <time>2022-07-06T10:00:46Z</time>
      </trkpt>
      <trkpt lat="42.08059" lon="-0.296112">
        <time>2022-07-06T10:00:48Z</time>
      </trkpt>
      <trkpt lat="42.08053" lon="-0.29601">
        <time>2022-07-06T10:00:50Z</time>
      </trkpt>
      <trkpt lat="42.080475" lon="-0.295902">
        <time>2022-07-06T10:00:52Z</time>
      </trkpt>
      <trkpt lat="42.080433" lon="-0.29579067">
        <time>2022-07-06T10:00:54Z</time>
      </trkpt>
      <trkpt lat="42.08039" lon="-0.29568133">
        <time>2022-07-06T10:00:56Z</time>
      </trkpt>
      <trkpt lat="42.080357" lon="-0.29557502">
        <time>2022-07-06T10:00:58Z</time>
      </trkpt>
      <trkpt lat="42.080322" lon="-0.29547235">
        <time>2022-07-06T10:01:00Z</time>
      </trkpt>
      <trkpt lat="42.08029" lon="-0.29536802">
        <time>2022-07-06T10:01:02Z</time>
      </trkpt>
      <trkpt lat="42.080265" lon="-0.29527137">
        <time>2022-07-06T10:01:04Z</time>
      </trkpt>
      <trkpt lat="42.08024" lon="-0.29518703">
        <time>2022-07-06T10:01:06Z</time>
      </trkpt>
      <trkpt lat="42.08022" lon="-0.29513302">
        <time>2022-07-06T10:01:08Z</time>
      </trkpt>
      <trkpt lat="42.080124" lon="-0.2949957">
        <time>2022-07-06T10:03:41Z</time>
      </trkpt>
      <trkpt lat="42.080112" lon="-0.29490605">
        <time>2022-07-06T10:03:43Z</time>
      </trkpt>
      <trkpt lat="42.08009" lon="-0.29475704">
        <time>2022-07-06T10:03:46Z</time>
      </trkpt>
      <trkpt lat="42.08007" lon="-0.29466105">
        <time>2022-07-06T10:03:48Z</time>
      </trkpt>
      <trkpt lat="42.080055" lon="-0.29457137">
        <time>2022-07-06T10:03:50Z</time>
      </trkpt>
      <trkpt lat="42.080032" lon="-0.29448506">
        <time>2022-07-06T10:03:52Z</time>
      </trkpt>
      <trkpt lat="42.080013" lon="-0.2943997">
        <time>2022-07-06T10:03:54Z</time>
      </trkpt>
      <trkpt lat="42.07999" lon="-0.2943154">
        <time>2022-07-06T10:03:56Z</time>
      </trkpt>
      <trkpt lat="42.07997" lon="-0.29423505">
        <time>2022-07-06T10:03:58Z</time>
      </trkpt>
      <trkpt lat="42.079952" lon="-0.29415506">
        <time>2022-07-06T10:04:00Z</time>
      </trkpt>
      <trkpt lat="42.079933" lon="-0.29407373">
        <time>2022-07-06T10:04:02Z</time>
      </trkpt>
      <trkpt lat="42.07991" lon="-0.29399374">
        <time>2022-07-06T10:04:04Z</time>
      </trkpt>
      <trkpt lat="42.079884" lon="-0.29391772">
        <time>2022-07-06T10:04:06Z</time>
      </trkpt>
      <trkpt lat="42.07986" lon="-0.29383373">
        <time>2022-07-06T10:04:08Z</time>
      </trkpt>
      <trkpt lat="42.07985" lon="-0.2937524">
        <time>2022-07-06T10:04:10Z</time>
      </trkpt>
      <trkpt lat="42.079834" lon="-0.29367474">
        <time>2022-07-06T10:04:12Z</time>
      </trkpt>
      <trkpt lat="42.07982" lon="-0.2935954">
        <time>2022-07-06T10:04:14Z</time>
      </trkpt>
      <trkpt lat="42.0798" lon="-0.2935131">
        <time>2022-07-06T10:04:16Z</time>
      </trkpt>
      <trkpt lat="42.07978" lon="-0.2934321">
        <time>2022-07-06T10:04:18Z</time>
      </trkpt>
      <trkpt lat="42.07976" lon="-0.29335207">
        <time>2022-07-06T10:04:20Z</time>
      </trkpt>
      <trkpt lat="42.079742" lon="-0.29327175">
        <time>2022-07-06T10:04:22Z</time>
      </trkpt>
      <trkpt lat="42.079723" lon="-0.29318842">
        <time>2022-07-06T10:04:24Z</time>
      </trkpt>
      <trkpt lat="42.079704" lon="-0.29310608">
        <time>2022-07-06T10:04:26Z</time>
      </trkpt>
      <trkpt lat="42.07968" lon="-0.29302377">
        <time>2022-07-06T10:04:28Z</time>
      </trkpt>
      <trkpt lat="42.079662" lon="-0.29294276">
        <time>2022-07-06T10:04:30Z</time>
      </trkpt>
      <trkpt lat="42.079643" lon="-0.2928631">
        <time>2022-07-06T10:04:32Z</time>
      </trkpt>
      <trkpt lat="42.07962" lon="-0.2927841">
        <time>2022-07-06T10:04:34Z</time>
      </trkpt>
      <trkpt lat="42.0796" lon="-0.2927051">
        <time>2022-07-06T10:04:36Z</time>
      </trkpt>
      <trkpt lat="42.07958" lon="-0.29262677">
        <time>2022-07-06T10:04:38Z</time>
      </trkpt>
      <trkpt lat="42.07955" lon="-0.2925491">
        <time>2022-07-06T10:04:40Z</time>
      </trkpt>
      <trkpt lat="42.07953" lon="-0.29247245">
        <time>2022-07-06T10:04:42Z</time>
      </trkpt>
      <trkpt lat="42.079502" lon="-0.2923971">
        <time>2022-07-06T10:04:44Z</time>
      </trkpt>
      <trkpt lat="42.07947" lon="-0.29232413">
        <time>2022-07-06T10:04:46Z</time>
      </trkpt>
      <trkpt lat="42.07943" lon="-0.29223013">
        <time>2022-07-06T10:04:50Z</time>
      </trkpt>
      <trkpt lat="42.079384" lon="-0.2921321">
        <time>2022-07-06T10:04:52Z</time>
      </trkpt>
      <trkpt lat="42.07934" lon="-0.29204646">
        <time>2022-07-06T10:04:54Z</time>
      </trkpt>
      <trkpt lat="42.079296" lon="-0.29196647">
        <time>2022-07-06T10:04:56Z</time>
      </trkpt>
      <trkpt lat="42.079254" lon="-0.2918878">
        <time>2022-07-06T10:04:58Z</time>
      </trkpt>
      <trkpt lat="42.07921" lon="-0.29180613">
        <time>2022-07-06T10:05:00Z</time>
      </trkpt>
      <trkpt lat="42.07916" lon="-0.29172215">
        <time>2022-07-06T10:05:02Z</time>
      </trkpt>
      <trkpt lat="42.07911" lon="-0.29163548">
        <time>2022-07-06T10:05:04Z</time>
      </trkpt>
      <trkpt lat="42.07906" lon="-0.29154316">
        <time>2022-07-06T10:05:06Z</time>
      </trkpt>
      <trkpt lat="42.079006" lon="-0.29144883">
        <time>2022-07-06T10:05:08Z</time>
      </trkpt>
      <trkpt lat="42.07895" lon="-0.2913565">
        <time>2022-07-06T10:05:10Z</time>
      </trkpt>
      <trkpt lat="42.078896" lon="-0.29126117">
        <time>2022-07-06T10:05:12Z</time>
      </trkpt>
      <trkpt lat="42.07884" lon="-0.2911635">
        <time>2022-07-06T10:05:14Z</time>
      </trkpt>
      <trkpt lat="42.078785" lon="-0.29106417">
        <time>2022-07-06T10:05:16Z</time>
      </trkpt>
      <trkpt lat="42.078754" lon="-0.29101416">
        <time>2022-07-06T10:05:17Z</time>
      </trkpt>
      <trkpt lat="42.078697" lon="-0.29091284">
        <time>2022-07-06T10:05:19Z</time>
      </trkpt>
      <trkpt lat="42.07864" lon="-0.29080918">
        <time>2022-07-06T10:05:21Z</time>
      </trkpt>
      <trkpt lat="42.078587" lon="-0.29070485">
        <time>2022-07-06T10:05:23Z</time>
      </trkpt>
      <trkpt lat="42.078556" lon="-0.2906482">
        <time>2022-07-06T10:05:24Z</time>
      </trkpt>
      <trkpt lat="42.0785" lon="-0.29053685">
        <time>2022-07-06T10:05:26Z</time>
      </trkpt>
      <trkpt lat="42.07847" lon="-0.2904812">
        <time>2022-07-06T10:05:27Z</time>
      </trkpt>
      <trkpt lat="42.078407" lon="-0.29037187">
        <time>2022-07-06T10:05:29Z</time>
      </trkpt>
      <trkpt lat="42.07835" lon="-0.29026654">
        <time>2022-07-06T10:05:31Z</time>
      </trkpt>
      <trkpt lat="42.078323" lon="-0.2902122">
        <time>2022-07-06T10:05:32Z</time>
      </trkpt>
      <trkpt lat="42.078293" lon="-0.29015788">
        <time>2022-07-06T10:05:33Z</time>
      </trkpt>
      <trkpt lat="42.07824" lon="-0.29005456">
        <time>2022-07-06T10:05:35Z</time>
      </trkpt>
      <trkpt lat="42.07818" lon="-0.2899472">
        <time>2022-07-06T10:05:37Z</time>
      </trkpt>
      <trkpt lat="42.07815" lon="-0.28989357">
        <time>2022-07-06T10:05:38Z</time>
      </trkpt>
      <trkpt lat="42.078094" lon="-0.28978723">
        <time>2022-07-06T10:05:40Z</time>
      </trkpt>
      <trkpt lat="42.07804" lon="-0.2896819">
        <time>2022-07-06T10:05:42Z</time>
      </trkpt>
      <trkpt lat="42.07799" lon="-0.2895809">
        <time>2022-07-06T10:05:44Z</time>
      </trkpt>
      <trkpt lat="42.077946" lon="-0.28948724">
        <time>2022-07-06T10:05:46Z</time>
      </trkpt>
      <trkpt lat="42.077904" lon="-0.28940225">
        <time>2022-07-06T10:05:48Z</time>
      </trkpt>
      <trkpt lat="42.07786" lon="-0.28932658">
        <time>2022-07-06T10:05:50Z</time>
      </trkpt>
      <trkpt lat="42.077827" lon="-0.28925225">
        <time>2022-07-06T10:05:52Z</time>
      </trkpt>
      <trkpt lat="42.07779" lon="-0.28918126">
        <time>2022-07-06T10:05:54Z</time>
      </trkpt>
      <trkpt lat="42.07775" lon="-0.28911224">
        <time>2022-07-06T10:05:56Z</time>
      </trkpt>
      <trkpt lat="42.077713" lon="-0.28904593">
        <time>2022-07-06T10:05:58Z</time>
      </trkpt>
      <trkpt lat="42.077675" lon="-0.28898227">
        <time>2022-07-06T10:06:00Z</time>
      </trkpt>
      <trkpt lat="42.07764" lon="-0.28892192">
        <time>2022-07-06T10:06:02Z</time>
      </trkpt>
      <trkpt lat="42.077614" lon="-0.28885692">
        <time>2022-07-06T10:06:04Z</time>
      </trkpt>
      <trkpt lat="42.077583" lon="-0.2887946">
        <time>2022-07-06T10:06:06Z</time>
      </trkpt>
      <trkpt lat="42.07755" lon="-0.28873593">
        <time>2022-07-06T10:06:08Z</time>
      </trkpt>
      <trkpt lat="42.07752" lon="-0.28867793">
        <time>2022-07-06T10:06:10Z</time>
      </trkpt>
      <trkpt lat="42.07749" lon="-0.2886196">
        <time>2022-07-06T10:06:12Z</time>
      </trkpt>
      <trkpt lat="42.077457" lon="-0.28856227">
        <time>2022-07-06T10:06:14Z</time>
      </trkpt>
      <trkpt lat="42.077408" lon="-0.28847763">
        <time>2022-07-06T10:06:17Z</time>
      </trkpt>
      <trkpt lat="42.077374" lon="-0.28842163">
        <time>2022-07-06T10:06:19Z</time>
      </trkpt>
      <trkpt lat="42.077347" lon="-0.2883636">
        <time>2022-07-06T10:06:21Z</time>
      </trkpt>
      <trkpt lat="42.077316" lon="-0.28830463">
        <time>2022-07-06T10:06:23Z</time>
      </trkpt>
      <trkpt lat="42.07729" lon="-0.28824762">
        <time>2022-07-06T10:06:25Z</time>
      </trkpt>
      <trkpt lat="42.077244" lon="-0.28816596">
        <time>2022-07-06T10:06:28Z</time>
      </trkpt>
      <trkpt lat="42.077213" lon="-0.2881073">
        <time>2022-07-06T10:06:30Z</time>
      </trkpt>
      <trkpt lat="42.07718" lon="-0.28804097">
        <time>2022-07-06T10:06:32Z</time>
      </trkpt>
      <trkpt lat="42.07714" lon="-0.28796896">
        <time>2022-07-06T10:06:34Z</time>
      </trkpt>
      <trkpt lat="42.077103" lon="-0.28789032">
        <time>2022-07-06T10:06:36Z</time>
      </trkpt>
      <trkpt lat="42.077057" lon="-0.28780398">
        <time>2022-07-06T10:06:38Z</time>
      </trkpt>
      <trkpt lat="42.077007" lon="-0.2877123">
        <time>2022-07-06T10:06:40Z</time>
      </trkpt>
      <trkpt lat="42.076958" lon="-0.28761667">
        <time>2022-07-06T10:06:42Z</time>
      </trkpt>
      <trkpt lat="42.076904" lon="-0.287514">
        <time>2022-07-06T10:06:44Z</time>
      </trkpt>
      <trkpt lat="42.076878" lon="-0.28746033">
        <time>2022-07-06T10:06:45Z</time>
      </trkpt>
      <trkpt lat="42.076817" lon="-0.287346">
        <time>2022-07-06T10:06:47Z</time>
      </trkpt>
      <trkpt lat="42.076786" lon="-0.28728402">
        <time>2022-07-06T10:06:48Z</time>
      </trkpt>
      <trkpt lat="42.076756" lon="-0.28722435">
        <time>2022-07-06T10:06:49Z</time>
      </trkpt>
      <trkpt lat="42.076725" lon="-0.2871607">
        <time>2022-07-06T10:06:50Z</time>
      </trkpt>
      <trkpt lat="42.0767" lon="-0.28709304">
        <time>2022-07-06T10:06:51Z</time>
      </trkpt>
      <trkpt lat="42.07667" lon="-0.28702104">
        <time>2022-07-06T10:06:52Z</time>
      </trkpt>
      <trkpt lat="42.07665" lon="-0.28694704">
        <time>2022-07-06T10:06:53Z</time>
      </trkpt>
      <trkpt lat="42.07663" lon="-0.28687003">
        <time>2022-07-06T10:06:54Z</time>
      </trkpt>
      <trkpt lat="42.07661" lon="-0.28679004">
        <time>2022-07-06T10:06:55Z</time>
      </trkpt>
      <trkpt lat="42.076595" lon="-0.28670636">
        <time>2022-07-06T10:06:56Z</time>
      </trkpt>
      <trkpt lat="42.07657" lon="-0.2865327">
        <time>2022-07-06T10:06:58Z</time>
      </trkpt>
      <trkpt lat="42.076557" lon="-0.28644505">
        <time>2022-07-06T10:06:59Z</time>
      </trkpt>
      <trkpt lat="42.076546" lon="-0.28635672">
        <time>2022-07-06T10:07:00Z</time>
      </trkpt>
      <trkpt lat="42.076538" lon="-0.2862674">
        <time>2022-07-06T10:07:01Z</time>
      </trkpt>
      <trkpt lat="42.07653" lon="-0.28617638">
        <time>2022-07-06T10:07:02Z</time>
      </trkpt>
      <trkpt lat="42.076523" lon="-0.2860834">
        <time>2022-07-06T10:07:03Z</time>
      </trkpt>
      <trkpt lat="42.076515" lon="-0.28598607">
        <time>2022-07-06T10:07:04Z</time>
      </trkpt>
      <trkpt lat="42.07651" lon="-0.28588873">
        <time>2022-07-06T10:07:05Z</time>
      </trkpt>
      <trkpt lat="42.076504" lon="-0.28579274">
        <time>2022-07-06T10:07:06Z</time>
      </trkpt>
      <trkpt lat="42.076496" lon="-0.28569472">
        <time>2022-07-06T10:07:07Z</time>
      </trkpt>
      <trkpt lat="42.076485" lon="-0.28559706">
        <time>2022-07-06T10:07:08Z</time>
      </trkpt>
      <trkpt lat="42.076477" lon="-0.2855004">
        <time>2022-07-06T10:07:09Z</time>
      </trkpt>
      <trkpt lat="42.076466" lon="-0.28540307">
        <time>2022-07-06T10:07:10Z</time>
      </trkpt>
      <trkpt lat="42.076454" lon="-0.28531176">
        <time>2022-07-06T10:07:11Z</time>
      </trkpt>
      <trkpt lat="42.076443" lon="-0.2852114">
        <time>2022-07-06T10:07:12Z</time>
      </trkpt>
      <trkpt lat="42.076427" lon="-0.28511876">
        <time>2022-07-06T10:07:13Z</time>
      </trkpt>
      <trkpt lat="42.076416" lon="-0.28502643">
        <time>2022-07-06T10:07:14Z</time>
      </trkpt>
      <trkpt lat="42.0764" lon="-0.28493443">
        <time>2022-07-06T10:07:15Z</time>
      </trkpt>
      <trkpt lat="42.07639" lon="-0.28484443">
        <time>2022-07-06T10:07:16Z</time>
      </trkpt>
      <trkpt lat="42.076378" lon="-0.28475642">
        <time>2022-07-06T10:07:17Z</time>
      </trkpt>
      <trkpt lat="42.076366" lon="-0.2846691">
        <time>2022-07-06T10:07:18Z</time>
      </trkpt>
      <trkpt lat="42.07636" lon="-0.2845791">
        <time>2022-07-06T10:07:19Z</time>
      </trkpt>
      <trkpt lat="42.076347" lon="-0.2844931">
        <time>2022-07-06T10:07:20Z</time>
      </trkpt>
      <trkpt lat="42.076336" lon="-0.28441143">
        <time>2022-07-06T10:07:21Z</time>
      </trkpt>
      <trkpt lat="42.076324" lon="-0.28433245">
        <time>2022-07-06T10:07:22Z</time>
      </trkpt>
      <trkpt lat="42.076313" lon="-0.28425577">
        <time>2022-07-06T10:07:23Z</time>
      </trkpt>
      <trkpt lat="42.0763" lon="-0.28418145">
        <time>2022-07-06T10:07:24Z</time>
      </trkpt>
      <trkpt lat="42.07629" lon="-0.28410944">
        <time>2022-07-06T10:07:25Z</time>
      </trkpt>
      <trkpt lat="42.076283" lon="-0.28404012">
        <time>2022-07-06T10:07:26Z</time>
      </trkpt>
      <trkpt lat="42.07627" lon="-0.2839741">
        <time>2022-07-06T10:07:27Z</time>
      </trkpt>
      <trkpt lat="42.076252" lon="-0.28385046">
        <time>2022-07-06T10:07:29Z</time>
      </trkpt>
      <trkpt lat="42.076237" lon="-0.28373647">
        <time>2022-07-06T10:07:31Z</time>
      </trkpt>
      <trkpt lat="42.076225" lon="-0.2836328">
        <time>2022-07-06T10:07:33Z</time>
      </trkpt>
      <trkpt lat="42.076214" lon="-0.28353748">
        <time>2022-07-06T10:07:35Z</time>
      </trkpt>
      <trkpt lat="42.076202" lon="-0.28345048">
        <time>2022-07-06T10:07:37Z</time>
      </trkpt>
      <trkpt lat="42.07619" lon="-0.28337148">
        <time>2022-07-06T10:07:39Z</time>
      </trkpt>
      <trkpt lat="42.076183" lon="-0.2832978">
        <time>2022-07-06T10:07:41Z</time>
      </trkpt>
      <trkpt lat="42.076176" lon="-0.28322715">
        <time>2022-07-06T10:07:43Z</time>
      </trkpt>
      <trkpt lat="42.076164" lon="-0.28316283">
        <time>2022-07-06T10:07:45Z</time>
      </trkpt>
      <trkpt lat="42.07615" lon="-0.2831005">
        <time>2022-07-06T10:07:48Z</time>
      </trkpt>
      <trkpt lat="42.07614" lon="-0.28302917">
        <time>2022-07-06T10:09:58Z</time>
      </trkpt>
      <trkpt lat="42.07613" lon="-0.28294784">
        <time>2022-07-06T10:10:00Z</time>
      </trkpt>
      <trkpt lat="42.07612" lon="-0.28285518">
        <time>2022-07-06T10:10:02Z</time>
      </trkpt>
      <trkpt lat="42.076107" lon="-0.2827615">
        <time>2022-07-06T10:10:04Z</time>
      </trkpt>
      <trkpt lat="42.07609" lon="-0.28262419">
        <time>2022-07-06T10:10:07Z</time>
      </trkpt>
      <trkpt lat="42.076077" lon="-0.2825365">
        <time>2022-07-06T10:10:09Z</time>
      </trkpt>
      <trkpt lat="42.07606" lon="-0.28244787">
        <time>2022-07-06T10:10:11Z</time>
      </trkpt>
      <trkpt lat="42.07605" lon="-0.2823602">
        <time>2022-07-06T10:10:13Z</time>
      </trkpt>
      <trkpt lat="42.07604" lon="-0.2822732">
        <time>2022-07-06T10:10:15Z</time>
      </trkpt>
      <trkpt lat="42.07603" lon="-0.28218588">
        <time>2022-07-06T10:10:17Z</time>
      </trkpt>
      <trkpt lat="42.076023" lon="-0.28210288">
        <time>2022-07-06T10:10:19Z</time>
      </trkpt>
      <trkpt lat="42.07601" lon="-0.28201053">
        <time>2022-07-06T10:10:21Z</time>
      </trkpt>
      <trkpt lat="42.076004" lon="-0.2819219">
        <time>2022-07-06T10:10:23Z</time>
      </trkpt>
      <trkpt lat="42.075993" lon="-0.2818299">
        <time>2022-07-06T10:10:25Z</time>
      </trkpt>
      <trkpt lat="42.07598" lon="-0.2817392">
        <time>2022-07-06T10:10:27Z</time>
      </trkpt>
      <trkpt lat="42.075974" lon="-0.28165022">
        <time>2022-07-06T10:10:29Z</time>
      </trkpt>
      <trkpt lat="42.075962" lon="-0.28155488">
        <time>2022-07-06T10:10:31Z</time>
      </trkpt>
      <trkpt lat="42.07595" lon="-0.28146523">
        <time>2022-07-06T10:10:33Z</time>
      </trkpt>
      <trkpt lat="42.07594" lon="-0.28137857">
        <time>2022-07-06T10:10:35Z</time>
      </trkpt>
      <trkpt lat="42.075928" lon="-0.2812859">
        <time>2022-07-06T10:10:37Z</time>
      </trkpt>
      <trkpt lat="42.075916" lon="-0.2811999">
        <time>2022-07-06T10:10:39Z</time>
      </trkpt>
      <trkpt lat="42.075905" lon="-0.28110892">
        <time>2022-07-06T10:10:41Z</time>
      </trkpt>
      <trkpt lat="42.075886" lon="-0.28101757">
        <time>2022-07-06T10:10:43Z</time>
      </trkpt>
      <trkpt lat="42.07587" lon="-0.2809336">
        <time>2022-07-06T10:10:45Z</time>
      </trkpt>
      <trkpt lat="42.075855" lon="-0.28084326">
        <time>2022-07-06T10:10:47Z</time>
      </trkpt>
      <trkpt lat="42.07584" lon="-0.28075725">
        <time>2022-07-06T10:10:49Z</time>
      </trkpt>
      <trkpt lat="42.07583" lon="-0.2806736">
        <time>2022-07-06T10:10:51Z</time>
      </trkpt>
      <trkpt lat="42.075817" lon="-0.2805836">
        <time>2022-07-06T10:10:53Z</time>
      </trkpt>
      <trkpt lat="42.07581" lon="-0.28049925">
        <time>2022-07-06T10:10:55Z</time>
      </trkpt>
      <trkpt lat="42.0758" lon="-0.28041127">
        <time>2022-07-06T10:10:57Z</time>
      </trkpt>
      <trkpt lat="42.075794" lon="-0.28032026">
        <time>2022-07-06T10:10:59Z</time>
      </trkpt>
      <trkpt lat="42.075787" lon="-0.28023592">
        <time>2022-07-06T10:11:01Z</time>
      </trkpt>
      <trkpt lat="42.07578" lon="-0.2801466">
        <time>2022-07-06T10:11:03Z</time>
      </trkpt>
      <trkpt lat="42.075768" lon="-0.28005728">
        <time>2022-07-06T10:11:05Z</time>
      </trkpt>
      <trkpt lat="42.075756" lon="-0.27996695">
        <time>2022-07-06T10:11:07Z</time>
      </trkpt>
      <trkpt lat="42.07575" lon="-0.27987194">
        <time>2022-07-06T10:11:09Z</time>
      </trkpt>
      <trkpt lat="42.075733" lon="-0.2797626">
        <time>2022-07-06T10:11:11Z</time>
      </trkpt>
      <trkpt lat="42.075718" lon="-0.2796493">
        <time>2022-07-06T10:11:13Z</time>
      </trkpt>
      <trkpt lat="42.0757" lon="-0.27953127">
        <time>2022-07-06T10:11:15Z</time>
      </trkpt>
      <trkpt lat="42.075684" lon="-0.27940962">
        <time>2022-07-06T10:11:17Z</time>
      </trkpt>
      <trkpt lat="42.075672" lon="-0.27934763">
        <time>2022-07-06T10:11:18Z</time>
      </trkpt>
      <trkpt lat="42.075653" lon="-0.2792183">
        <time>2022-07-06T10:11:20Z</time>
      </trkpt>
      <trkpt lat="42.075645" lon="-0.2791513">
        <time>2022-07-06T10:11:21Z</time>
      </trkpt>
      <trkpt lat="42.075626" lon="-0.2790173">
        <time>2022-07-06T10:11:23Z</time>
      </trkpt>
      <trkpt lat="42.075615" lon="-0.2789503">
        <time>2022-07-06T10:11:24Z</time>
      </trkpt>
      <trkpt lat="42.075596" lon="-0.2788133">
        <time>2022-07-06T10:11:26Z</time>
      </trkpt>
      <trkpt lat="42.07559" lon="-0.27874297">
        <time>2022-07-06T10:11:27Z</time>
      </trkpt>
      <trkpt lat="42.075577" lon="-0.27867162">
        <time>2022-07-06T10:11:28Z</time>
      </trkpt>
      <trkpt lat="42.07557" lon="-0.27859864">
        <time>2022-07-06T10:11:29Z</time>
      </trkpt>
      <trkpt lat="42.075558" lon="-0.2785263">
        <time>2022-07-06T10:11:30Z</time>
      </trkpt>
      <trkpt lat="42.075546" lon="-0.2784583">
        <time>2022-07-06T10:11:31Z</time>
      </trkpt>
      <trkpt lat="42.07554" lon="-0.2783903">
        <time>2022-07-06T10:11:32Z</time>
      </trkpt>
      <trkpt lat="42.075523" lon="-0.27824965">
        <time>2022-07-06T10:11:34Z</time>
      </trkpt>
      <trkpt lat="42.075512" lon="-0.27817732">
        <time>2022-07-06T10:11:35Z</time>
      </trkpt>
      <trkpt lat="42.075504" lon="-0.27810365">
        <time>2022-07-06T10:11:36Z</time>
      </trkpt>
      <trkpt lat="42.075493" lon="-0.27802932">
        <time>2022-07-06T10:11:37Z</time>
      </trkpt>
      <trkpt lat="42.075478" lon="-0.27795398">
        <time>2022-07-06T10:11:38Z</time>
      </trkpt>
      <trkpt lat="42.075466" lon="-0.27787867">
        <time>2022-07-06T10:11:39Z</time>
      </trkpt>
      <trkpt lat="42.075455" lon="-0.27780232">
        <time>2022-07-06T10:11:40Z</time>
      </trkpt>
      <trkpt lat="42.075443" lon="-0.27772468">
        <time>2022-07-06T10:11:41Z</time>
      </trkpt>
      <trkpt lat="42.07543" lon="-0.27764633">
        <time>2022-07-06T10:11:42Z</time>
      </trkpt>
      <trkpt lat="42.075424" lon="-0.27756867">
        <time>2022-07-06T10:11:43Z</time>
      </trkpt>
      <trkpt lat="42.075413" lon="-0.27749068">
        <time>2022-07-06T10:11:44Z</time>
      </trkpt>
      <trkpt lat="42.0754" lon="-0.27741268">
        <time>2022-07-06T10:11:45Z</time>
      </trkpt>
      <trkpt lat="42.07539" lon="-0.27733436">
        <time>2022-07-06T10:11:46Z</time>
      </trkpt>
      <trkpt lat="42.075382" lon="-0.2772567">
        <time>2022-07-06T10:11:47Z</time>
      </trkpt>
      <trkpt lat="42.07537" lon="-0.27717835">
        <time>2022-07-06T10:11:48Z</time>
      </trkpt>
      <trkpt lat="42.075363" lon="-0.27710003">
        <time>2022-07-06T10:11:49Z</time>
      </trkpt>
      <trkpt lat="42.075348" lon="-0.27699703">
        <time>2022-07-06T10:11:51Z</time>
      </trkpt>
      <trkpt lat="42.075336" lon="-0.27689603">
        <time>2022-07-06T10:11:52Z</time>
      </trkpt>
      <trkpt lat="42.075325" lon="-0.27680838">
        <time>2022-07-06T10:11:53Z</time>
      </trkpt>
      <trkpt lat="42.075314" lon="-0.2767247">
        <time>2022-07-06T10:11:54Z</time>
      </trkpt>
      <trkpt lat="42.075306" lon="-0.27664205">
        <time>2022-07-06T10:11:55Z</time>
      </trkpt>
      <trkpt lat="42.075294" lon="-0.27656004">
        <time>2022-07-06T10:11:56Z</time>
      </trkpt>
      <trkpt lat="42.075287" lon="-0.27647904">
        <time>2022-07-06T10:11:57Z</time>
      </trkpt>
      <trkpt lat="42.075275" lon="-0.27639806">
        <time>2022-07-06T10:11:58Z</time>
      </trkpt>
      <trkpt lat="42.075268" lon="-0.27631873">
        <time>2022-07-06T10:11:59Z</time>
      </trkpt>
      <trkpt lat="42.075256" lon="-0.27623972">
        <time>2022-07-06T10:12:00Z</time>
      </trkpt>
      <trkpt lat="42.075245" lon="-0.27616072">
        <time>2022-07-06T10:12:01Z</time>
      </trkpt>
      <trkpt lat="42.075237" lon="-0.27608272">
        <time>2022-07-06T10:12:02Z</time>
      </trkpt>
      <trkpt lat="42.075226" lon="-0.2760044">
        <time>2022-07-06T10:12:03Z</time>
      </trkpt>
      <trkpt lat="42.075214" lon="-0.27592638">
        <time>2022-07-06T10:12:04Z</time>
      </trkpt>
      <trkpt lat="42.075207" lon="-0.27584207">
        <time>2022-07-06T10:12:05Z</time>
      </trkpt>
      <trkpt lat="42.075195" lon="-0.27576506">
        <time>2022-07-06T10:12:06Z</time>
      </trkpt>
      <trkpt lat="42.075188" lon="-0.27568772">
        <time>2022-07-06T10:12:07Z</time>
      </trkpt>
      <trkpt lat="42.075176" lon="-0.27561006">
        <time>2022-07-06T10:12:08Z</time>
      </trkpt>
      <trkpt lat="42.075165" lon="-0.27553108">
        <time>2022-07-06T10:12:09Z</time>
      </trkpt>
      <trkpt lat="42.075157" lon="-0.2754524">
        <time>2022-07-06T10:12:10Z</time>
      </trkpt>
      <trkpt lat="42.075146" lon="-0.27537307">
        <time>2022-07-06T10:12:11Z</time>
      </trkpt>
      <trkpt lat="42.075134" lon="-0.27529442">
        <time>2022-07-06T10:12:12Z</time>
      </trkpt>
      <trkpt lat="42.075123" lon="-0.2752151">
        <time>2022-07-06T10:12:13Z</time>
      </trkpt>
      <trkpt lat="42.075104" lon="-0.27505776">
        <time>2022-07-06T10:12:15Z</time>
      </trkpt>
      <trkpt lat="42.075092" lon="-0.27497977">
        <time>2022-07-06T10:12:16Z</time>
      </trkpt>
      <trkpt lat="42.075085" lon="-0.27490076">
        <time>2022-07-06T10:12:17Z</time>
      </trkpt>
      <trkpt lat="42.075073" lon="-0.27482277">
        <time>2022-07-06T10:12:18Z</time>
      </trkpt>
      <trkpt lat="42.075066" lon="-0.2747451">
        <time>2022-07-06T10:12:19Z</time>
      </trkpt>
      <trkpt lat="42.075054" lon="-0.27466676">
        <time>2022-07-06T10:12:20Z</time>
      </trkpt>
      <trkpt lat="42.07503" lon="-0.27451143">
        <time>2022-07-06T10:12:22Z</time>
      </trkpt>
      <trkpt lat="42.07502" lon="-0.2744338">
        <time>2022-07-06T10:12:23Z</time>
      </trkpt>
      <trkpt lat="42.07501" lon="-0.2743551">
        <time>2022-07-06T10:12:24Z</time>
      </trkpt>
      <trkpt lat="42.075" lon="-0.27427712">
        <time>2022-07-06T10:12:25Z</time>
      </trkpt>
      <trkpt lat="42.07499" lon="-0.2741988">
        <time>2022-07-06T10:12:26Z</time>
      </trkpt>
      <trkpt lat="42.07498" lon="-0.27411845">
        <time>2022-07-06T10:12:27Z</time>
      </trkpt>
      <trkpt lat="42.07497" lon="-0.27403912">
        <time>2022-07-06T10:12:28Z</time>
      </trkpt>
      <trkpt lat="42.07496" lon="-0.27395946">
        <time>2022-07-06T10:12:29Z</time>
      </trkpt>
      <trkpt lat="42.074947" lon="-0.2738788">
        <time>2022-07-06T10:12:30Z</time>
      </trkpt>
      <trkpt lat="42.074932" lon="-0.2737998">
        <time>2022-07-06T10:12:31Z</time>
      </trkpt>
      <trkpt lat="42.074917" lon="-0.2737208">
        <time>2022-07-06T10:12:32Z</time>
      </trkpt>
      <trkpt lat="42.074898" lon="-0.27364382">
        <time>2022-07-06T10:12:33Z</time>
      </trkpt>
      <trkpt lat="42.07488" lon="-0.27356815">
        <time>2022-07-06T10:12:34Z</time>
      </trkpt>
      <trkpt lat="42.07486" lon="-0.2734935">
        <time>2022-07-06T10:12:35Z</time>
      </trkpt>
      <trkpt lat="42.07484" lon="-0.27342483">
        <time>2022-07-06T10:12:36Z</time>
      </trkpt>
      <trkpt lat="42.07482" lon="-0.27335584">
        <time>2022-07-06T10:12:37Z</time>
      </trkpt>
      <trkpt lat="42.074802" lon="-0.2732865">
        <time>2022-07-06T10:12:38Z</time>
      </trkpt>
      <trkpt lat="42.074783" lon="-0.27321085">
        <time>2022-07-06T10:12:39Z</time>
      </trkpt>
      <trkpt lat="42.074764" lon="-0.2731355">
        <time>2022-07-06T10:12:40Z</time>
      </trkpt>
      <trkpt lat="42.07475" lon="-0.2730592">
        <time>2022-07-06T10:12:41Z</time>
      </trkpt>
      <trkpt lat="42.07474" lon="-0.27298117">
        <time>2022-07-06T10:12:42Z</time>
      </trkpt>
      <trkpt lat="42.074734" lon="-0.27290186">
        <time>2022-07-06T10:12:43Z</time>
      </trkpt>
      <trkpt lat="42.074734" lon="-0.27282053">
        <time>2022-07-06T10:12:44Z</time>
      </trkpt>
      <trkpt lat="42.074738" lon="-0.27273718">
        <time>2022-07-06T10:12:45Z</time>
      </trkpt>
      <trkpt lat="42.07474" lon="-0.27265218">
        <time>2022-07-06T10:12:46Z</time>
      </trkpt>
      <trkpt lat="42.07475" lon="-0.27256554">
        <time>2022-07-06T10:12:47Z</time>
      </trkpt>
      <trkpt lat="42.07476" lon="-0.2724772">
        <time>2022-07-06T10:12:48Z</time>
      </trkpt>
      <trkpt lat="42.074776" lon="-0.27238655">
        <time>2022-07-06T10:12:49Z</time>
      </trkpt>
      <trkpt lat="42.074787" lon="-0.27229387">
        <time>2022-07-06T10:12:50Z</time>
      </trkpt>
      <trkpt lat="42.074795" lon="-0.27219954">
        <time>2022-07-06T10:12:51Z</time>
      </trkpt>
      <trkpt lat="42.07479" lon="-0.27210456">
        <time>2022-07-06T10:12:52Z</time>
      </trkpt>
      <trkpt lat="42.074783" lon="-0.2720082">
        <time>2022-07-06T10:12:53Z</time>
      </trkpt>
      <trkpt lat="42.074768" lon="-0.2719119">
        <time>2022-07-06T10:12:54Z</time>
      </trkpt>
      <trkpt lat="42.07475" lon="-0.27182257">
        <time>2022-07-06T10:12:55Z</time>
      </trkpt>
      <trkpt lat="42.07472" lon="-0.2717269">
        <time>2022-07-06T10:12:56Z</time>
      </trkpt>
      <trkpt lat="42.074688" lon="-0.27163857">
        <time>2022-07-06T10:12:57Z</time>
      </trkpt>
      <trkpt lat="42.074654" lon="-0.27154857">
        <time>2022-07-06T10:12:58Z</time>
      </trkpt>
      <trkpt lat="42.074615" lon="-0.27145657">
        <time>2022-07-06T10:12:59Z</time>
      </trkpt>
      <trkpt lat="42.074577" lon="-0.27136257">
        <time>2022-07-06T10:13:00Z</time>
      </trkpt>
      <trkpt lat="42.07453" lon="-0.2712599">
        <time>2022-07-06T10:13:01Z</time>
      </trkpt>
      <trkpt lat="42.074486" lon="-0.27115858">
        <time>2022-07-06T10:13:02Z</time>
      </trkpt>
      <trkpt lat="42.07444" lon="-0.27105892">
        <time>2022-07-06T10:13:03Z</time>
      </trkpt>
      <trkpt lat="42.074394" lon="-0.27096027">
        <time>2022-07-06T10:13:04Z</time>
      </trkpt>
      <trkpt lat="42.07435" lon="-0.27086094">
        <time>2022-07-06T10:13:05Z</time>
      </trkpt>
      <trkpt lat="42.074303" lon="-0.27076194">
        <time>2022-07-06T10:13:06Z</time>
      </trkpt>
      <trkpt lat="42.074257" lon="-0.27066293">
        <time>2022-07-06T10:13:07Z</time>
      </trkpt>
      <trkpt lat="42.07421" lon="-0.27056327">
        <time>2022-07-06T10:13:08Z</time>
      </trkpt>
      <trkpt lat="42.07416" lon="-0.27046528">
        <time>2022-07-06T10:13:09Z</time>
      </trkpt>
      <trkpt lat="42.07412" lon="-0.27036926">
        <time>2022-07-06T10:13:10Z</time>
      </trkpt>
      <trkpt lat="42.074074" lon="-0.27027526">
        <time>2022-07-06T10:13:11Z</time>
      </trkpt>
      <trkpt lat="42.074028" lon="-0.27018094">
        <time>2022-07-06T10:13:12Z</time>
      </trkpt>
      <trkpt lat="42.073986" lon="-0.27008694">
        <time>2022-07-06T10:13:13Z</time>
      </trkpt>
      <trkpt lat="42.073944" lon="-0.26999494">
        <time>2022-07-06T10:13:14Z</time>
      </trkpt>
      <trkpt lat="42.073906" lon="-0.26990393">
        <time>2022-07-06T10:13:15Z</time>
      </trkpt>
      <trkpt lat="42.073864" lon="-0.2698146">
        <time>2022-07-06T10:13:16Z</time>
      </trkpt>
      <trkpt lat="42.073822" lon="-0.26972595">
        <time>2022-07-06T10:13:17Z</time>
      </trkpt>
      <trkpt lat="42.07378" lon="-0.26963863">
        <time>2022-07-06T10:13:18Z</time>
      </trkpt>
      <trkpt lat="42.073742" lon="-0.26955295">
        <time>2022-07-06T10:13:19Z</time>
      </trkpt>
      <trkpt lat="42.0737" lon="-0.2694683">
        <time>2022-07-06T10:13:20Z</time>
      </trkpt>
      <trkpt lat="42.073658" lon="-0.2693833">
        <time>2022-07-06T10:13:21Z</time>
      </trkpt>
      <trkpt lat="42.073578" lon="-0.26921064">
        <time>2022-07-06T10:13:23Z</time>
      </trkpt>
      <trkpt lat="42.07354" lon="-0.26912498">
        <time>2022-07-06T10:13:24Z</time>
      </trkpt>
      <trkpt lat="42.0735" lon="-0.26903898">
        <time>2022-07-06T10:13:25Z</time>
      </trkpt>
      <trkpt lat="42.073467" lon="-0.26895332">
        <time>2022-07-06T10:13:26Z</time>
      </trkpt>
      <trkpt lat="42.07343" lon="-0.268868">
        <time>2022-07-06T10:13:27Z</time>
      </trkpt>
      <trkpt lat="42.07339" lon="-0.26878333">
        <time>2022-07-06T10:13:28Z</time>
      </trkpt>
      <trkpt lat="42.073357" lon="-0.268705">
        <time>2022-07-06T10:13:29Z</time>
      </trkpt>
      <trkpt lat="42.073322" lon="-0.268619">
        <time>2022-07-06T10:13:30Z</time>
      </trkpt>
      <trkpt lat="42.073288" lon="-0.26853335">
        <time>2022-07-06T10:13:31Z</time>
      </trkpt>
      <trkpt lat="42.073257" lon="-0.26844734">
        <time>2022-07-06T10:13:32Z</time>
      </trkpt>
      <trkpt lat="42.073235" lon="-0.26836002">
        <time>2022-07-06T10:13:33Z</time>
      </trkpt>
      <trkpt lat="42.07321" lon="-0.26827136">
        <time>2022-07-06T10:13:34Z</time>
      </trkpt>
      <trkpt lat="42.073196" lon="-0.26818">
        <time>2022-07-06T10:13:35Z</time>
      </trkpt>
      <trkpt lat="42.073185" lon="-0.26808637">
        <time>2022-07-06T10:13:36Z</time>
      </trkpt>
      <trkpt lat="42.07318" lon="-0.2679907">
        <time>2022-07-06T10:13:37Z</time>
      </trkpt>
      <trkpt lat="42.073177" lon="-0.2678957">
        <time>2022-07-06T10:13:38Z</time>
      </trkpt>
      <trkpt lat="42.073177" lon="-0.26780304">
        <time>2022-07-06T10:13:39Z</time>
      </trkpt>
      <trkpt lat="42.073174" lon="-0.2677127">
        <time>2022-07-06T10:13:40Z</time>
      </trkpt>
      <trkpt lat="42.07317" lon="-0.26762605">
        <time>2022-07-06T10:13:41Z</time>
      </trkpt>
      <trkpt lat="42.07316" lon="-0.26754338">
        <time>2022-07-06T10:13:42Z</time>
      </trkpt>
      <trkpt lat="42.073147" lon="-0.26746738">
        <time>2022-07-06T10:13:43Z</time>
      </trkpt>
      <trkpt lat="42.073128" lon="-0.26739773">
        <time>2022-07-06T10:13:44Z</time>
      </trkpt>
      <trkpt lat="42.073105" lon="-0.2673344">
        <time>2022-07-06T10:13:45Z</time>
      </trkpt>
      <trkpt lat="42.07305" lon="-0.26722607">
        <time>2022-07-06T10:13:47Z</time>
      </trkpt>
      <trkpt lat="42.072983" lon="-0.2671324">
        <time>2022-07-06T10:13:49Z</time>
      </trkpt>
      <trkpt lat="42.07291" lon="-0.26704976">
        <time>2022-07-06T10:13:51Z</time>
      </trkpt>
      <trkpt lat="42.072872" lon="-0.26701143">
        <time>2022-07-06T10:13:52Z</time>
      </trkpt>
      <trkpt lat="42.072796" lon="-0.26693875">
        <time>2022-07-06T10:13:54Z</time>
      </trkpt>
      <trkpt lat="42.072716" lon="-0.26686844">
        <time>2022-07-06T10:13:56Z</time>
      </trkpt>
      <trkpt lat="42.072636" lon="-0.2667951">
        <time>2022-07-06T10:13:58Z</time>
      </trkpt>
      <trkpt lat="42.072594" lon="-0.2667591">
        <time>2022-07-06T10:13:59Z</time>
      </trkpt>
      <trkpt lat="42.072514" lon="-0.2666871">
        <time>2022-07-06T10:14:01Z</time>
      </trkpt>
      <trkpt lat="42.072433" lon="-0.2666161">
        <time>2022-07-06T10:14:03Z</time>
      </trkpt>
      <trkpt lat="42.072395" lon="-0.26658145">
        <time>2022-07-06T10:14:04Z</time>
      </trkpt>
      <trkpt lat="42.07231" lon="-0.26650777">
        <time>2022-07-06T10:14:06Z</time>
      </trkpt>
      <trkpt lat="42.072273" lon="-0.2664728">
        <time>2022-07-06T10:14:07Z</time>
      </trkpt>
      <trkpt lat="42.072193" lon="-0.2664011">
        <time>2022-07-06T10:14:09Z</time>
      </trkpt>
      <trkpt lat="42.072155" lon="-0.2663651">
        <time>2022-07-06T10:14:10Z</time>
      </trkpt>
      <trkpt lat="42.07208" lon="-0.2662938">
        <time>2022-07-06T10:14:12Z</time>
      </trkpt>
      <trkpt lat="42.072" lon="-0.26622313">
        <time>2022-07-06T10:14:14Z</time>
      </trkpt>
      <trkpt lat="42.071915" lon="-0.26614946">
        <time>2022-07-06T10:14:16Z</time>
      </trkpt>
      <trkpt lat="42.071873" lon="-0.2661128">
        <time>2022-07-06T10:14:17Z</time>
      </trkpt>
      <trkpt lat="42.071835" lon="-0.26607847">
        <time>2022-07-06T10:14:18Z</time>
      </trkpt>
      <trkpt lat="42.071754" lon="-0.26600683">
        <time>2022-07-06T10:14:20Z</time>
      </trkpt>
      <trkpt lat="42.071674" lon="-0.26593348">
        <time>2022-07-06T10:14:22Z</time>
      </trkpt>
      <trkpt lat="42.071594" lon="-0.26586315">
        <time>2022-07-06T10:14:24Z</time>
      </trkpt>
      <trkpt lat="42.07155" lon="-0.26582515">
        <time>2022-07-06T10:14:25Z</time>
      </trkpt>
      <trkpt lat="42.07147" lon="-0.26575184">
        <time>2022-07-06T10:14:27Z</time>
      </trkpt>
      <trkpt lat="42.071354" lon="-0.2656495">
        <time>2022-07-06T10:14:30Z</time>
      </trkpt>
      <trkpt lat="42.071274" lon="-0.26557684">
        <time>2022-07-06T10:14:32Z</time>
      </trkpt>
      <trkpt lat="42.071198" lon="-0.26550683">
        <time>2022-07-06T10:14:34Z</time>
      </trkpt>
      <trkpt lat="42.071117" lon="-0.2654375">
        <time>2022-07-06T10:14:36Z</time>
      </trkpt>
      <trkpt lat="42.071037" lon="-0.26536718">
        <time>2022-07-06T10:14:38Z</time>
      </trkpt>
      <trkpt lat="42.070957" lon="-0.26529685">
        <time>2022-07-06T10:14:40Z</time>
      </trkpt>
      <trkpt lat="42.070873" lon="-0.26522285">
        <time>2022-07-06T10:14:42Z</time>
      </trkpt>
      <trkpt lat="42.070797" lon="-0.2651532">
        <time>2022-07-06T10:14:44Z</time>
      </trkpt>
      <trkpt lat="42.07072" lon="-0.26508218">
        <time>2022-07-06T10:14:46Z</time>
      </trkpt>
      <trkpt lat="42.070637" lon="-0.26500887">
        <time>2022-07-06T10:14:48Z</time>
      </trkpt>
      <trkpt lat="42.07056" lon="-0.2649372">
        <time>2022-07-06T10:14:50Z</time>
      </trkpt>
      <trkpt lat="42.070522" lon="-0.26490188">
        <time>2022-07-06T10:14:51Z</time>
      </trkpt>
      <trkpt lat="42.070446" lon="-0.26483122">
        <time>2022-07-06T10:14:53Z</time>
      </trkpt>
      <trkpt lat="42.070366" lon="-0.2647582">
        <time>2022-07-06T10:14:55Z</time>
      </trkpt>
      <trkpt lat="42.070328" lon="-0.26472154">
        <time>2022-07-06T10:14:56Z</time>
      </trkpt>
      <trkpt lat="42.070244" lon="-0.26464823">
        <time>2022-07-06T10:14:58Z</time>
      </trkpt>
      <trkpt lat="42.070164" lon="-0.2645752">
        <time>2022-07-06T10:15:00Z</time>
      </trkpt>
      <trkpt lat="42.070126" lon="-0.26453888">
        <time>2022-07-06T10:15:01Z</time>
      </trkpt>
      <trkpt lat="42.070045" lon="-0.26446557">
        <time>2022-07-06T10:15:03Z</time>
      </trkpt>
      <trkpt lat="42.07" lon="-0.26442656">
        <time>2022-07-06T10:15:04Z</time>
      </trkpt>
      <trkpt lat="42.069958" lon="-0.26438755">
        <time>2022-07-06T10:15:05Z</time>
      </trkpt>
      <trkpt lat="42.06988" lon="-0.2643149">
        <time>2022-07-06T10:15:07Z</time>
      </trkpt>
      <trkpt lat="42.0698" lon="-0.26424256">
        <time>2022-07-06T10:15:09Z</time>
      </trkpt>
      <trkpt lat="42.06972" lon="-0.26416823">
        <time>2022-07-06T10:15:11Z</time>
      </trkpt>
      <trkpt lat="42.06964" lon="-0.2640939">
        <time>2022-07-06T10:15:13Z</time>
      </trkpt>
      <trkpt lat="42.069557" lon="-0.26401657">
        <time>2022-07-06T10:15:15Z</time>
      </trkpt>
      <trkpt lat="42.069477" lon="-0.26394257">
        <time>2022-07-06T10:15:17Z</time>
      </trkpt>
      <trkpt lat="42.069393" lon="-0.2638676">
        <time>2022-07-06T10:15:19Z</time>
      </trkpt>
      <trkpt lat="42.06931" lon="-0.26379326">
        <time>2022-07-06T10:15:21Z</time>
      </trkpt>
      <trkpt lat="42.06923" lon="-0.26372024">
        <time>2022-07-06T10:15:23Z</time>
      </trkpt>
      <trkpt lat="42.069145" lon="-0.26364458">
        <time>2022-07-06T10:15:25Z</time>
      </trkpt>
      <trkpt lat="42.069103" lon="-0.26360592">
        <time>2022-07-06T10:15:26Z</time>
      </trkpt>
      <trkpt lat="42.06906" lon="-0.26356727">
        <time>2022-07-06T10:15:27Z</time>
      </trkpt>
      <trkpt lat="42.069023" lon="-0.26353094">
        <time>2022-07-06T10:15:28Z</time>
      </trkpt>
      <trkpt lat="42.06894" lon="-0.26345327">
        <time>2022-07-06T10:15:30Z</time>
      </trkpt>
      <trkpt lat="42.068897" lon="-0.26341262">
        <time>2022-07-06T10:15:31Z</time>
      </trkpt>
      <trkpt lat="42.068855" lon="-0.26337296">
        <time>2022-07-06T10:15:32Z</time>
      </trkpt>
      <trkpt lat="42.068817" lon="-0.26333696">
        <time>2022-07-06T10:15:33Z</time>
      </trkpt>
      <trkpt lat="42.068737" lon="-0.26326263">
        <time>2022-07-06T10:15:35Z</time>
      </trkpt>
      <trkpt lat="42.06869" lon="-0.26322162">
        <time>2022-07-06T10:15:36Z</time>
      </trkpt>
      <trkpt lat="42.06861" lon="-0.26314697">
        <time>2022-07-06T10:15:38Z</time>
      </trkpt>
      <trkpt lat="42.06857" lon="-0.26310965">
        <time>2022-07-06T10:15:39Z</time>
      </trkpt>
      <trkpt lat="42.068485" lon="-0.2630333">
        <time>2022-07-06T10:15:41Z</time>
      </trkpt>
      <trkpt lat="42.068405" lon="-0.2629593">
        <time>2022-07-06T10:15:43Z</time>
      </trkpt>
      <trkpt lat="42.068325" lon="-0.26288798">
        <time>2022-07-06T10:15:45Z</time>
      </trkpt>
      <trkpt lat="42.068245" lon="-0.2628163">
        <time>2022-07-06T10:15:47Z</time>
      </trkpt>
      <trkpt lat="42.06817" lon="-0.26274467">
        <time>2022-07-06T10:15:49Z</time>
      </trkpt>
      <trkpt lat="42.068085" lon="-0.262671">
        <time>2022-07-06T10:15:51Z</time>
      </trkpt>
      <trkpt lat="42.068043" lon="-0.262633">
        <time>2022-07-06T10:15:52Z</time>
      </trkpt>
      <trkpt lat="42.068005" lon="-0.262598">
        <time>2022-07-06T10:15:53Z</time>
      </trkpt>
      <trkpt lat="42.067932" lon="-0.26252767">
        <time>2022-07-06T10:15:55Z</time>
      </trkpt>
      <trkpt lat="42.067856" lon="-0.262458">
        <time>2022-07-06T10:15:57Z</time>
      </trkpt>
      <trkpt lat="42.06778" lon="-0.2623877">
        <time>2022-07-06T10:15:59Z</time>
      </trkpt>
      <trkpt lat="42.067707" lon="-0.26231802">
        <time>2022-07-06T10:16:01Z</time>
      </trkpt>
      <trkpt lat="42.06763" lon="-0.26225036">
        <time>2022-07-06T10:16:03Z</time>
      </trkpt>
      <trkpt lat="42.06756" lon="-0.26218402">
        <time>2022-07-06T10:16:05Z</time>
      </trkpt>
      <trkpt lat="42.067486" lon="-0.26211938">
        <time>2022-07-06T10:16:07Z</time>
      </trkpt>
      <trkpt lat="42.067413" lon="-0.26205736">
        <time>2022-07-06T10:16:09Z</time>
      </trkpt>
      <trkpt lat="42.06734" lon="-0.2619987">
        <time>2022-07-06T10:16:11Z</time>
      </trkpt>
      <trkpt lat="42.06727" lon="-0.2619427">
        <time>2022-07-06T10:16:13Z</time>
      </trkpt>
      <trkpt lat="42.067196" lon="-0.26188704">
        <time>2022-07-06T10:16:15Z</time>
      </trkpt>
      <trkpt lat="42.06712" lon="-0.2618334">
        <time>2022-07-06T10:16:17Z</time>
      </trkpt>
      <trkpt lat="42.06705" lon="-0.26178205">
        <time>2022-07-06T10:16:19Z</time>
      </trkpt>
      <trkpt lat="42.06698" lon="-0.26173007">
        <time>2022-07-06T10:16:21Z</time>
      </trkpt>
      <trkpt lat="42.06691" lon="-0.26167873">
        <time>2022-07-06T10:16:23Z</time>
      </trkpt>
      <trkpt lat="42.06684" lon="-0.26162872">
        <time>2022-07-06T10:16:25Z</time>
      </trkpt>
      <trkpt lat="42.066776" lon="-0.26158172">
        <time>2022-07-06T10:16:27Z</time>
      </trkpt>
      <trkpt lat="42.066715" lon="-0.2615274">
        <time>2022-07-06T10:16:29Z</time>
      </trkpt>
      <trkpt lat="42.06666" lon="-0.26146406">
        <time>2022-07-06T10:16:31Z</time>
      </trkpt>
      <trkpt lat="42.066616" lon="-0.26138908">
        <time>2022-07-06T10:16:33Z</time>
      </trkpt>
      <trkpt lat="42.06658" lon="-0.26130706">
        <time>2022-07-06T10:16:35Z</time>
      </trkpt>
      <trkpt lat="42.06655" lon="-0.26121306">
        <time>2022-07-06T10:16:37Z</time>
      </trkpt>
      <trkpt lat="42.066525" lon="-0.26111642">
        <time>2022-07-06T10:16:39Z</time>
      </trkpt>
      <trkpt lat="42.0665" lon="-0.26101476">
        <time>2022-07-06T10:16:41Z</time>
      </trkpt>
      <trkpt lat="42.066483" lon="-0.26091874">
        <time>2022-07-06T10:16:43Z</time>
      </trkpt>
      <trkpt lat="42.066452" lon="-0.26077375">
        <time>2022-07-06T10:16:46Z</time>
      </trkpt>
      <trkpt lat="42.066433" lon="-0.26067576">
        <time>2022-07-06T10:16:48Z</time>
      </trkpt>
      <trkpt lat="42.066418" lon="-0.26057708">
        <time>2022-07-06T10:16:50Z</time>
      </trkpt>
      <trkpt lat="42.0664" lon="-0.26048008">
        <time>2022-07-06T10:16:52Z</time>
      </trkpt>
      <trkpt lat="42.06638" lon="-0.26038477">
        <time>2022-07-06T10:16:54Z</time>
      </trkpt>
      <trkpt lat="42.06636" lon="-0.26028675">
        <time>2022-07-06T10:16:56Z</time>
      </trkpt>
      <trkpt lat="42.06634" lon="-0.26018575">
        <time>2022-07-06T10:16:58Z</time>
      </trkpt>
      <trkpt lat="42.06632" lon="-0.26009142">
        <time>2022-07-06T10:17:00Z</time>
      </trkpt>
      <trkpt lat="42.066296" lon="-0.25999478">
        <time>2022-07-06T10:17:02Z</time>
      </trkpt>
      <trkpt lat="42.066277" lon="-0.2599101">
        <time>2022-07-06T10:17:04Z</time>
      </trkpt>
      <trkpt lat="42.06626" lon="-0.25983012">
        <time>2022-07-06T10:17:06Z</time>
      </trkpt>
      <trkpt lat="42.066242" lon="-0.25975946">
        <time>2022-07-06T10:17:08Z</time>
      </trkpt>
      <trkpt lat="42.066216" lon="-0.25966713">
        <time>2022-07-06T10:17:11Z</time>
      </trkpt>
      <trkpt lat="42.066185" lon="-0.25959447">
        <time>2022-07-06T10:17:14Z</time>
      </trkpt>
      <trkpt lat="42.066162" lon="-0.2595188">
        <time>2022-07-06T10:17:17Z</time>
      </trkpt>
      <trkpt lat="42.066143" lon="-0.2594418">
        <time>2022-07-06T10:17:20Z</time>
      </trkpt>
      <trkpt lat="42.06612" lon="-0.2593618">
        <time>2022-07-06T10:17:23Z</time>
      </trkpt>
      <trkpt lat="42.066093" lon="-0.25927946">
        <time>2022-07-06T10:17:26Z</time>
      </trkpt>
      <trkpt lat="42.066067" lon="-0.2592028">
        <time>2022-07-06T10:17:29Z</time>
      </trkpt>
      <trkpt lat="42.066036" lon="-0.25913447">
        <time>2022-07-06T10:17:32Z</time>
      </trkpt>
      <trkpt lat="42.065998" lon="-0.2590708">
        <time>2022-07-06T10:17:35Z</time>
      </trkpt>
      <trkpt lat="42.065952" lon="-0.25901583">
        <time>2022-07-06T10:17:38Z</time>
      </trkpt>
      <trkpt lat="42.065903" lon="-0.25896817">
        <time>2022-07-06T10:17:41Z</time>
      </trkpt>
      <trkpt lat="42.065853" lon="-0.25892016">
        <time>2022-07-06T10:17:44Z</time>
      </trkpt>
      <trkpt lat="42.065804" lon="-0.25887582">
        <time>2022-07-06T10:17:47Z</time>
      </trkpt>
      <trkpt lat="42.065754" lon="-0.2588365">
        <time>2022-07-06T10:17:50Z</time>
      </trkpt>
      <trkpt lat="42.06571" lon="-0.2587935">
        <time>2022-07-06T10:17:53Z</time>
      </trkpt>
      <trkpt lat="42.06565" lon="-0.25874183">
        <time>2022-07-06T10:17:56Z</time>
      </trkpt>
      <trkpt lat="42.0656" lon="-0.2587015">
        <time>2022-07-06T10:17:58Z</time>
      </trkpt>
      <trkpt lat="42.06555" lon="-0.25865552">
        <time>2022-07-06T10:18:00Z</time>
      </trkpt>
      <trkpt lat="42.065483" lon="-0.25860485">
        <time>2022-07-06T10:18:02Z</time>
      </trkpt>
      <trkpt lat="42.065414" lon="-0.25854984">
        <time>2022-07-06T10:18:04Z</time>
      </trkpt>
      <trkpt lat="42.065342" lon="-0.25849152">
        <time>2022-07-06T10:18:06Z</time>
      </trkpt>
      <trkpt lat="42.065266" lon="-0.25842953">
        <time>2022-07-06T10:18:08Z</time>
      </trkpt>
      <trkpt lat="42.06519" lon="-0.25835752">
        <time>2022-07-06T10:18:10Z</time>
      </trkpt>
      <trkpt lat="42.06512" lon="-0.2582702">
        <time>2022-07-06T10:18:12Z</time>
      </trkpt>
      <trkpt lat="42.06509" lon="-0.25822085">
        <time>2022-07-06T10:18:13Z</time>
      </trkpt>
      <trkpt lat="42.065025" lon="-0.25811353">
        <time>2022-07-06T10:18:15Z</time>
      </trkpt>
      <trkpt lat="42.06497" lon="-0.25799552">
        <time>2022-07-06T10:18:17Z</time>
      </trkpt>
      <trkpt lat="42.064938" lon="-0.2579332">
        <time>2022-07-06T10:18:18Z</time>
      </trkpt>
      <trkpt lat="42.064907" lon="-0.2578692">
        <time>2022-07-06T10:18:19Z</time>
      </trkpt>
      <trkpt lat="42.064877" lon="-0.25780386">
        <time>2022-07-06T10:18:20Z</time>
      </trkpt>
      <trkpt lat="42.064846" lon="-0.25773722">
        <time>2022-07-06T10:18:21Z</time>
      </trkpt>
      <trkpt lat="42.064816" lon="-0.25766987">
        <time>2022-07-06T10:18:22Z</time>
      </trkpt>
      <trkpt lat="42.064785" lon="-0.2576022">
        <time>2022-07-06T10:18:23Z</time>
      </trkpt>
      <trkpt lat="42.064754" lon="-0.2575342">
        <time>2022-07-06T10:18:24Z</time>
      </trkpt>
      <trkpt lat="42.064728" lon="-0.25746557">
        <time>2022-07-06T10:18:25Z</time>
      </trkpt>
      <trkpt lat="42.064705" lon="-0.2573959">
        <time>2022-07-06T10:18:26Z</time>
      </trkpt>
      <trkpt lat="42.064686" lon="-0.2573269">
        <time>2022-07-06T10:18:27Z</time>
      </trkpt>
      <trkpt lat="42.06467" lon="-0.25725758">
        <time>2022-07-06T10:18:28Z</time>
      </trkpt>
      <trkpt lat="42.064655" lon="-0.25718957">
        <time>2022-07-06T10:18:29Z</time>
      </trkpt>
      <trkpt lat="42.064644" lon="-0.25712258">
        <time>2022-07-06T10:18:30Z</time>
      </trkpt>
      <trkpt lat="42.064625" lon="-0.25699192">
        <time>2022-07-06T10:18:32Z</time>
      </trkpt>
      <trkpt lat="42.064606" lon="-0.2568709">
        <time>2022-07-06T10:18:34Z</time>
      </trkpt>
      <trkpt lat="42.064583" lon="-0.2567646">
        <time>2022-07-06T10:18:36Z</time>
      </trkpt>
      <trkpt lat="42.064556" lon="-0.25666592">
        <time>2022-07-06T10:18:38Z</time>
      </trkpt>
      <trkpt lat="42.06452" lon="-0.25657827">
        <time>2022-07-06T10:18:40Z</time>
      </trkpt>
      <trkpt lat="42.064484" lon="-0.2565026">
        <time>2022-07-06T10:18:42Z</time>
      </trkpt>
      <trkpt lat="42.06444" lon="-0.25644028">
        <time>2022-07-06T10:18:44Z</time>
      </trkpt>
      <trkpt lat="42.0644" lon="-0.25638926">
        <time>2022-07-06T10:18:46Z</time>
      </trkpt>
      <trkpt lat="42.06436" lon="-0.25634295">
        <time>2022-07-06T10:18:48Z</time>
      </trkpt>
      <trkpt lat="42.064316" lon="-0.25629827">
        <time>2022-07-06T10:18:50Z</time>
      </trkpt>
      <trkpt lat="42.064274" lon="-0.2562566">
        <time>2022-07-06T10:18:52Z</time>
      </trkpt>
      <trkpt lat="42.06423" lon="-0.25621396">
        <time>2022-07-06T10:18:54Z</time>
      </trkpt>
      <trkpt lat="42.06419" lon="-0.25617096">
        <time>2022-07-06T10:18:56Z</time>
      </trkpt>
      <trkpt lat="42.064144" lon="-0.2561273">
        <time>2022-07-06T10:18:58Z</time>
      </trkpt>
      <trkpt lat="42.064106" lon="-0.2560823">
        <time>2022-07-06T10:19:00Z</time>
      </trkpt>
      <trkpt lat="42.064053" lon="-0.25601363">
        <time>2022-07-06T10:19:03Z</time>
      </trkpt>
      <trkpt lat="42.064003" lon="-0.25593832">
        <time>2022-07-06T10:19:06Z</time>
      </trkpt>
      <trkpt lat="42.063957" lon="-0.25585666">
        <time>2022-07-06T10:19:09Z</time>
      </trkpt>
      <trkpt lat="42.06392" lon="-0.255768">
        <time>2022-07-06T10:19:12Z</time>
      </trkpt>
      <trkpt lat="42.063896" lon="-0.25570232">
        <time>2022-07-06T10:19:14Z</time>
      </trkpt>
      <trkpt lat="42.063873" lon="-0.255634">
        <time>2022-07-06T10:19:16Z</time>
      </trkpt>
      <trkpt lat="42.063854" lon="-0.255566">
        <time>2022-07-06T10:19:18Z</time>
      </trkpt>
      <trkpt lat="42.063835" lon="-0.25549567">
        <time>2022-07-06T10:19:20Z</time>
      </trkpt>
      <trkpt lat="42.063816" lon="-0.25542402">
        <time>2022-07-06T10:19:22Z</time>
      </trkpt>
      <trkpt lat="42.0638" lon="-0.25535202">
        <time>2022-07-06T10:19:24Z</time>
      </trkpt>
      <trkpt lat="42.06378" lon="-0.2552817">
        <time>2022-07-06T10:19:26Z</time>
      </trkpt>
      <trkpt lat="42.063763" lon="-0.2552127">
        <time>2022-07-06T10:19:28Z</time>
      </trkpt>
      <trkpt lat="42.063747" lon="-0.25514835">
        <time>2022-07-06T10:19:30Z</time>
      </trkpt>
      <trkpt lat="42.06373" lon="-0.25507903">
        <time>2022-07-06T10:19:32Z</time>
      </trkpt>
      <trkpt lat="42.063713" lon="-0.2550107">
        <time>2022-07-06T10:19:34Z</time>
      </trkpt>
      <trkpt lat="42.063694" lon="-0.25493935">
        <time>2022-07-06T10:19:36Z</time>
      </trkpt>
      <trkpt lat="42.06367" lon="-0.25486404">
        <time>2022-07-06T10:19:38Z</time>
      </trkpt>
      <trkpt lat="42.06365" lon="-0.25478938">
        <time>2022-07-06T10:19:40Z</time>
      </trkpt>
      <trkpt lat="42.063625" lon="-0.25472203">
        <time>2022-07-06T10:19:42Z</time>
      </trkpt>
      <trkpt lat="42.063606" lon="-0.2546727">
        <time>2022-07-06T10:19:45Z</time>
      </trkpt>
      <trkpt lat="42.063606" lon="-0.25470772">
        <time>2022-07-06T10:21:54Z</time>
      </trkpt>
      <trkpt lat="42.06365" lon="-0.25480872">
        <time>2022-07-06T10:21:57Z</time>
      </trkpt>
      <trkpt lat="42.063675" lon="-0.25488272">
        <time>2022-07-06T10:21:59Z</time>
      </trkpt>
      <trkpt lat="42.063705" lon="-0.25496772">
        <time>2022-07-06T10:22:01Z</time>
      </trkpt>
      <trkpt lat="42.063736" lon="-0.25504836">
        <time>2022-07-06T10:22:03Z</time>
      </trkpt>
      <trkpt lat="42.063778" lon="-0.25510904">
        <time>2022-07-06T10:22:05Z</time>
      </trkpt>
      <trkpt lat="42.063824" lon="-0.2551367">
        <time>2022-07-06T10:22:07Z</time>
      </trkpt>
      <trkpt lat="42.06387" lon="-0.25514236">
        <time>2022-07-06T10:22:09Z</time>
      </trkpt>
      <trkpt lat="42.063957" lon="-0.25514334">
        <time>2022-07-06T10:22:13Z</time>
      </trkpt>
      <trkpt lat="42.064022" lon="-0.25514835">
        <time>2022-07-06T10:22:16Z</time>
      </trkpt>
      <trkpt lat="42.064083" lon="-0.25515702">
        <time>2022-07-06T10:22:19Z</time>
      </trkpt>
      <trkpt lat="42.064144" lon="-0.255167">
        <time>2022-07-06T10:22:22Z</time>
      </trkpt>
      <trkpt lat="42.06419" lon="-0.25517833">
        <time>2022-07-06T10:22:25Z</time>
      </trkpt>
      <trkpt lat="42.064156" lon="-0.25518566">
        <time>2022-07-06T10:22:32Z</time>
      </trkpt>
      <trkpt lat="42.0641" lon="-0.25517502">
        <time>2022-07-06T10:22:35Z</time>
      </trkpt>
      <trkpt lat="42.06402" lon="-0.255164">
        <time>2022-07-06T10:22:38Z</time>
      </trkpt>
      <trkpt lat="42.06396" lon="-0.25515968">
        <time>2022-07-06T10:22:40Z</time>
      </trkpt>
      <trkpt lat="42.0639" lon="-0.255165">
        <time>2022-07-06T10:22:42Z</time>
      </trkpt>
      <trkpt lat="42.063847" lon="-0.25519133">
        <time>2022-07-06T10:22:44Z</time>
      </trkpt>
      <trkpt lat="42.06382" lon="-0.255244">
        <time>2022-07-06T10:22:46Z</time>
      </trkpt>
      <trkpt lat="42.063824" lon="-0.25535566">
        <time>2022-07-06T10:22:49Z</time>
      </trkpt>
      <trkpt lat="42.063843" lon="-0.2554483">
        <time>2022-07-06T10:22:51Z</time>
      </trkpt>
      <trkpt lat="42.063873" lon="-0.25556365">
        <time>2022-07-06T10:22:53Z</time>
      </trkpt>
      <trkpt lat="42.063915" lon="-0.25568932">
        <time>2022-07-06T10:22:55Z</time>
      </trkpt>
      <trkpt lat="42.06394" lon="-0.25575465">
        <time>2022-07-06T10:22:56Z</time>
      </trkpt>
      <trkpt lat="42.063965" lon="-0.25581965">
        <time>2022-07-06T10:22:57Z</time>
      </trkpt>
      <trkpt lat="42.064" lon="-0.2558833">
        <time>2022-07-06T10:22:58Z</time>
      </trkpt>
      <trkpt lat="42.06404" lon="-0.25594497">
        <time>2022-07-06T10:22:59Z</time>
      </trkpt>
      <trkpt lat="42.064083" lon="-0.2560053">
        <time>2022-07-06T10:23:00Z</time>
      </trkpt>
      <trkpt lat="42.06413" lon="-0.25606096">
        <time>2022-07-06T10:23:01Z</time>
      </trkpt>
      <trkpt lat="42.064182" lon="-0.25612128">
        <time>2022-07-06T10:23:02Z</time>
      </trkpt>
      <trkpt lat="42.06423" lon="-0.25617728">
        <time>2022-07-06T10:23:03Z</time>
      </trkpt>
      <trkpt lat="42.064285" lon="-0.25623462">
        <time>2022-07-06T10:23:04Z</time>
      </trkpt>
      <trkpt lat="42.064342" lon="-0.25629428">
        <time>2022-07-06T10:23:05Z</time>
      </trkpt>
      <trkpt lat="42.0644" lon="-0.25636327">
        <time>2022-07-06T10:23:06Z</time>
      </trkpt>
      <trkpt lat="42.064453" lon="-0.25643328">
        <time>2022-07-06T10:23:07Z</time>
      </trkpt>
      <trkpt lat="42.0645" lon="-0.25651693">
        <time>2022-07-06T10:23:08Z</time>
      </trkpt>
      <trkpt lat="42.06454" lon="-0.2566056">
        <time>2022-07-06T10:23:09Z</time>
      </trkpt>
      <trkpt lat="42.064575" lon="-0.25669825">
        <time>2022-07-06T10:23:10Z</time>
      </trkpt>
      <trkpt lat="42.064606" lon="-0.2567949">
        <time>2022-07-06T10:23:11Z</time>
      </trkpt>
      <trkpt lat="42.064632" lon="-0.25689557">
        <time>2022-07-06T10:23:12Z</time>
      </trkpt>
      <trkpt lat="42.06465" lon="-0.25699824">
        <time>2022-07-06T10:23:13Z</time>
      </trkpt>
      <trkpt lat="42.06467" lon="-0.25710157">
        <time>2022-07-06T10:23:14Z</time>
      </trkpt>
      <trkpt lat="42.064713" lon="-0.2573032">
        <time>2022-07-06T10:23:16Z</time>
      </trkpt>
      <trkpt lat="42.06474" lon="-0.2573979">
        <time>2022-07-06T10:23:17Z</time>
      </trkpt>
      <trkpt lat="42.064766" lon="-0.25748253">
        <time>2022-07-06T10:23:18Z</time>
      </trkpt>
      <trkpt lat="42.064796" lon="-0.2575702">
        <time>2022-07-06T10:23:19Z</time>
      </trkpt>
      <trkpt lat="42.06483" lon="-0.25765386">
        <time>2022-07-06T10:23:20Z</time>
      </trkpt>
      <trkpt lat="42.06487" lon="-0.25773418">
        <time>2022-07-06T10:23:21Z</time>
      </trkpt>
      <trkpt lat="42.064903" lon="-0.25781184">
        <time>2022-07-06T10:23:22Z</time>
      </trkpt>
      <trkpt lat="42.064938" lon="-0.25788784">
        <time>2022-07-06T10:23:23Z</time>
      </trkpt>
      <trkpt lat="42.064972" lon="-0.25796217">
        <time>2022-07-06T10:23:24Z</time>
      </trkpt>
      <trkpt lat="42.065006" lon="-0.2580355">
        <time>2022-07-06T10:23:25Z</time>
      </trkpt>
      <trkpt lat="42.065044" lon="-0.25810584">
        <time>2022-07-06T10:23:26Z</time>
      </trkpt>
      <trkpt lat="42.06508" lon="-0.25817385">
        <time>2022-07-06T10:23:27Z</time>
      </trkpt>
      <trkpt lat="42.06512" lon="-0.25823885">
        <time>2022-07-06T10:23:28Z</time>
      </trkpt>
      <trkpt lat="42.065163" lon="-0.25829917">
        <time>2022-07-06T10:23:29Z</time>
      </trkpt>
      <trkpt lat="42.0652" lon="-0.25835317">
        <time>2022-07-06T10:23:30Z</time>
      </trkpt>
      <trkpt lat="42.06525" lon="-0.25840616">
        <time>2022-07-06T10:23:31Z</time>
      </trkpt>
      <trkpt lat="42.065296" lon="-0.25845483">
        <time>2022-07-06T10:23:32Z</time>
      </trkpt>
      <trkpt lat="42.065342" lon="-0.2585005">
        <time>2022-07-06T10:23:33Z</time>
      </trkpt>
      <trkpt lat="42.065388" lon="-0.25854015">
        <time>2022-07-06T10:23:34Z</time>
      </trkpt>
      <trkpt lat="42.065437" lon="-0.25858048">
        <time>2022-07-06T10:23:35Z</time>
      </trkpt>
      <trkpt lat="42.065483" lon="-0.25861815">
        <time>2022-07-06T10:23:36Z</time>
      </trkpt>
      <trkpt lat="42.06553" lon="-0.25865313">
        <time>2022-07-06T10:23:37Z</time>
      </trkpt>
      <trkpt lat="42.06558" lon="-0.25868714">
        <time>2022-07-06T10:23:38Z</time>
      </trkpt>
      <trkpt lat="42.06562" lon="-0.25871846">
        <time>2022-07-06T10:23:39Z</time>
      </trkpt>
      <trkpt lat="42.065662" lon="-0.2587508">
        <time>2022-07-06T10:23:40Z</time>
      </trkpt>
      <trkpt lat="42.06575" lon="-0.25881946">
        <time>2022-07-06T10:23:42Z</time>
      </trkpt>
      <trkpt lat="42.065796" lon="-0.25885546">
        <time>2022-07-06T10:23:43Z</time>
      </trkpt>
      <trkpt lat="42.065845" lon="-0.25889313">
        <time>2022-07-06T10:23:44Z</time>
      </trkpt>
      <trkpt lat="42.065895" lon="-0.2589341">
        <time>2022-07-06T10:23:45Z</time>
      </trkpt>
      <trkpt lat="42.06594" lon="-0.25898245">
        <time>2022-07-06T10:23:46Z</time>
      </trkpt>
      <trkpt lat="42.06599" lon="-0.25903946">
        <time>2022-07-06T10:23:47Z</time>
      </trkpt>
      <trkpt lat="42.066032" lon="-0.25910577">
        <time>2022-07-06T10:23:48Z</time>
      </trkpt>
      <trkpt lat="42.06607" lon="-0.25918144">
        <time>2022-07-06T10:23:49Z</time>
      </trkpt>
      <trkpt lat="42.0661" lon="-0.25926578">
        <time>2022-07-06T10:23:50Z</time>
      </trkpt>
      <trkpt lat="42.06613" lon="-0.2593551">
        <time>2022-07-06T10:23:51Z</time>
      </trkpt>
      <trkpt lat="42.066154" lon="-0.25944576">
        <time>2022-07-06T10:23:52Z</time>
      </trkpt>
      <trkpt lat="42.066177" lon="-0.2595351">
        <time>2022-07-06T10:23:53Z</time>
      </trkpt>
      <trkpt lat="42.066196" lon="-0.25961876">
        <time>2022-07-06T10:23:54Z</time>
      </trkpt>
      <trkpt lat="42.066216" lon="-0.25969508">
        <time>2022-07-06T10:23:55Z</time>
      </trkpt>
      <trkpt lat="42.06624" lon="-0.25976107">
        <time>2022-07-06T10:23:56Z</time>
      </trkpt>
      <trkpt lat="42.06626" lon="-0.25981274">
        <time>2022-07-06T10:23:57Z</time>
      </trkpt>
      <trkpt lat="42.06633" lon="-0.25987506">
        <time>2022-07-06T10:23:59Z</time>
      </trkpt>
      <trkpt lat="42.0664" lon="-0.2598804">
        <time>2022-07-06T10:24:01Z</time>
      </trkpt>
      <trkpt lat="42.066463" lon="-0.25984707">
        <time>2022-07-06T10:24:03Z</time>
      </trkpt>
      <trkpt lat="42.066525" lon="-0.25979808">
        <time>2022-07-06T10:24:05Z</time>
      </trkpt>
      <trkpt lat="42.06658" lon="-0.2597444">
        <time>2022-07-06T10:24:07Z</time>
      </trkpt>
      <trkpt lat="42.06664" lon="-0.25968575">
        <time>2022-07-06T10:24:09Z</time>
      </trkpt>
      <trkpt lat="42.06669" lon="-0.25961974">
        <time>2022-07-06T10:24:11Z</time>
      </trkpt>
      <trkpt lat="42.06674" lon="-0.25954542">
        <time>2022-07-06T10:24:13Z</time>
      </trkpt>
      <trkpt lat="42.06678" lon="-0.2594621">
        <time>2022-07-06T10:24:15Z</time>
      </trkpt>
      <trkpt lat="42.06681" lon="-0.25938544">
        <time>2022-07-06T10:24:17Z</time>
      </trkpt>
      <trkpt lat="42.066833" lon="-0.2593061">
        <time>2022-07-06T10:24:19Z</time>
      </trkpt>
      <trkpt lat="42.06686" lon="-0.25922245">
        <time>2022-07-06T10:24:21Z</time>
      </trkpt>
      <trkpt lat="42.066883" lon="-0.2591471">
        <time>2022-07-06T10:24:23Z</time>
      </trkpt>
      <trkpt lat="42.0669" lon="-0.2590771">
        <time>2022-07-06T10:24:25Z</time>
      </trkpt>
      <trkpt lat="42.066906" lon="-0.25900644">
        <time>2022-07-06T10:24:27Z</time>
      </trkpt>
      <trkpt lat="42.066917" lon="-0.25893012">
        <time>2022-07-06T10:24:29Z</time>
      </trkpt>
      <trkpt lat="42.06692" lon="-0.2588511">
        <time>2022-07-06T10:24:31Z</time>
      </trkpt>
      <trkpt lat="42.066925" lon="-0.25877178">
        <time>2022-07-06T10:24:33Z</time>
      </trkpt>
      <trkpt lat="42.06693" lon="-0.25869447">
        <time>2022-07-06T10:24:35Z</time>
      </trkpt>
      <trkpt lat="42.06693" lon="-0.2586188">
        <time>2022-07-06T10:24:37Z</time>
      </trkpt>
      <trkpt lat="42.06693" lon="-0.2585498">
        <time>2022-07-06T10:24:39Z</time>
      </trkpt>
      <trkpt lat="42.066925" lon="-0.2584798">
        <time>2022-07-06T10:24:41Z</time>
      </trkpt>
      <trkpt lat="42.066925" lon="-0.25841513">
        <time>2022-07-06T10:24:43Z</time>
      </trkpt>
      <trkpt lat="42.066925" lon="-0.25832048">
        <time>2022-07-06T10:24:46Z</time>
      </trkpt>
      <trkpt lat="42.06692" lon="-0.2582558">
        <time>2022-07-06T10:24:48Z</time>
      </trkpt>
      <trkpt lat="42.06691" lon="-0.25816083">
        <time>2022-07-06T10:24:51Z</time>
      </trkpt>
      <trkpt lat="42.0669" lon="-0.25806716">
        <time>2022-07-06T10:24:54Z</time>
      </trkpt>
      <trkpt lat="42.066887" lon="-0.25797617">
        <time>2022-07-06T10:24:57Z</time>
      </trkpt>
      <trkpt lat="42.066875" lon="-0.25788483">
        <time>2022-07-06T10:25:00Z</time>
      </trkpt>
      <trkpt lat="42.066856" lon="-0.25780383">
        <time>2022-07-06T10:25:03Z</time>
      </trkpt>
      <trkpt lat="42.066837" lon="-0.2577185">
        <time>2022-07-06T10:25:06Z</time>
      </trkpt>
      <trkpt lat="42.066814" lon="-0.25762916">
        <time>2022-07-06T10:25:09Z</time>
      </trkpt>
      <trkpt lat="42.066788" lon="-0.25754252">
        <time>2022-07-06T10:25:12Z</time>
      </trkpt>
      <trkpt lat="42.066757" lon="-0.25745586">
        <time>2022-07-06T10:25:15Z</time>
      </trkpt>
      <trkpt lat="42.06674" lon="-0.2573702">
        <time>2022-07-06T10:25:18Z</time>
      </trkpt>
      <trkpt lat="42.066727" lon="-0.25728285">
        <time>2022-07-06T10:25:21Z</time>
      </trkpt>
      <trkpt lat="42.066723" lon="-0.2571832">
        <time>2022-07-06T10:25:24Z</time>
      </trkpt>
      <trkpt lat="42.06673" lon="-0.2570782">
        <time>2022-07-06T10:25:27Z</time>
      </trkpt>
      <trkpt lat="42.066742" lon="-0.25700155">
        <time>2022-07-06T10:25:29Z</time>
      </trkpt>
      <trkpt lat="42.066753" lon="-0.2569192">
        <time>2022-07-06T10:25:31Z</time>
      </trkpt>
      <trkpt lat="42.066765" lon="-0.25683156">
        <time>2022-07-06T10:25:33Z</time>
      </trkpt>
      <trkpt lat="42.06678" lon="-0.25673154">
        <time>2022-07-06T10:25:35Z</time>
      </trkpt>
      <trkpt lat="42.0668" lon="-0.25662923">
        <time>2022-07-06T10:25:37Z</time>
      </trkpt>
      <trkpt lat="42.06682" lon="-0.25652456">
        <time>2022-07-06T10:25:39Z</time>
      </trkpt>
      <trkpt lat="42.066837" lon="-0.25641456">
        <time>2022-07-06T10:25:41Z</time>
      </trkpt>
      <trkpt lat="42.06686" lon="-0.2563069">
        <time>2022-07-06T10:25:43Z</time>
      </trkpt>
      <trkpt lat="42.06688" lon="-0.2561929">
        <time>2022-07-06T10:25:45Z</time>
      </trkpt>
      <trkpt lat="42.066895" lon="-0.25608057">
        <time>2022-07-06T10:25:47Z</time>
      </trkpt>
      <trkpt lat="42.066906" lon="-0.2559699">
        <time>2022-07-06T10:25:49Z</time>
      </trkpt>
      <trkpt lat="42.06691" lon="-0.25584826">
        <time>2022-07-06T10:25:51Z</time>
      </trkpt>
      <trkpt lat="42.066902" lon="-0.25573593">
        <time>2022-07-06T10:25:53Z</time>
      </trkpt>
      <trkpt lat="42.06687" lon="-0.25563058">
        <time>2022-07-06T10:25:55Z</time>
      </trkpt>
      <trkpt lat="42.066837" lon="-0.25553226">
        <time>2022-07-06T10:25:57Z</time>
      </trkpt>
      <trkpt lat="42.06681" lon="-0.2554386">
        <time>2022-07-06T10:25:59Z</time>
      </trkpt>
      <trkpt lat="42.066788" lon="-0.25534427">
        <time>2022-07-06T10:26:01Z</time>
      </trkpt>
      <trkpt lat="42.066776" lon="-0.2552466">
        <time>2022-07-06T10:26:03Z</time>
      </trkpt>
      <trkpt lat="42.06678" lon="-0.25515527">
        <time>2022-07-06T10:26:05Z</time>
      </trkpt>
      <trkpt lat="42.06679" lon="-0.25506896">
        <time>2022-07-06T10:26:07Z</time>
      </trkpt>
      <trkpt lat="42.06681" lon="-0.2549886">
        <time>2022-07-06T10:26:09Z</time>
      </trkpt>
      <trkpt lat="42.066837" lon="-0.2549123">
        <time>2022-07-06T10:26:11Z</time>
      </trkpt>
      <trkpt lat="42.066868" lon="-0.25484163">
        <time>2022-07-06T10:26:13Z</time>
      </trkpt>
      <trkpt lat="42.0669" lon="-0.25477362">
        <time>2022-07-06T10:26:15Z</time>
      </trkpt>
      <trkpt lat="42.066933" lon="-0.25470662">
        <time>2022-07-06T10:26:17Z</time>
      </trkpt>
      <trkpt lat="42.066963" lon="-0.25463864">
        <time>2022-07-06T10:26:19Z</time>
      </trkpt>
      <trkpt lat="42.066994" lon="-0.25456864">
        <time>2022-07-06T10:26:21Z</time>
      </trkpt>
      <trkpt lat="42.067024" lon="-0.25449896">
        <time>2022-07-06T10:26:23Z</time>
      </trkpt>
      <trkpt lat="42.06705" lon="-0.25442964">
        <time>2022-07-06T10:26:25Z</time>
      </trkpt>
      <trkpt lat="42.067078" lon="-0.25436231">
        <time>2022-07-06T10:26:27Z</time>
      </trkpt>
      <trkpt lat="42.067104" lon="-0.2542963">
        <time>2022-07-06T10:26:29Z</time>
      </trkpt>
      <trkpt lat="42.06713" lon="-0.2542333">
        <time>2022-07-06T10:26:31Z</time>
      </trkpt>
      <trkpt lat="42.067158" lon="-0.25416866">
        <time>2022-07-06T10:26:33Z</time>
      </trkpt>
      <trkpt lat="42.06718" lon="-0.25410798">
        <time>2022-07-06T10:26:35Z</time>
      </trkpt>
      <trkpt lat="42.067207" lon="-0.25404766">
        <time>2022-07-06T10:26:37Z</time>
      </trkpt>
      <trkpt lat="42.06723" lon="-0.25398532">
        <time>2022-07-06T10:26:39Z</time>
      </trkpt>
      <trkpt lat="42.06727" lon="-0.25389934">
        <time>2022-07-06T10:26:42Z</time>
      </trkpt>
      <trkpt lat="42.06729" lon="-0.253841">
        <time>2022-07-06T10:26:44Z</time>
      </trkpt>
      <trkpt lat="42.06733" lon="-0.25375068">
        <time>2022-07-06T10:26:47Z</time>
      </trkpt>
      <trkpt lat="42.067356" lon="-0.25369066">
        <time>2022-07-06T10:26:49Z</time>
      </trkpt>
      <trkpt lat="42.067394" lon="-0.25360033">
        <time>2022-07-06T10:26:52Z</time>
      </trkpt>
      <trkpt lat="42.06742" lon="-0.25353768">
        <time>2022-07-06T10:26:54Z</time>
      </trkpt>
      <trkpt lat="42.067448" lon="-0.25347534">
        <time>2022-07-06T10:26:56Z</time>
      </trkpt>
      <trkpt lat="42.067474" lon="-0.25341335">
        <time>2022-07-06T10:26:58Z</time>
      </trkpt>
      <trkpt lat="42.067505" lon="-0.25335202">
        <time>2022-07-06T10:27:00Z</time>
      </trkpt>
      <trkpt lat="42.06753" lon="-0.25329036">
        <time>2022-07-06T10:27:02Z</time>
      </trkpt>
      <trkpt lat="42.06756" lon="-0.25322735">
        <time>2022-07-06T10:27:04Z</time>
      </trkpt>
      <trkpt lat="42.06759" lon="-0.25315636">
        <time>2022-07-06T10:27:06Z</time>
      </trkpt>
      <trkpt lat="42.067616" lon="-0.25309435">
        <time>2022-07-06T10:27:08Z</time>
      </trkpt>
      <trkpt lat="42.067642" lon="-0.25303003">
        <time>2022-07-06T10:27:10Z</time>
      </trkpt>
      <trkpt lat="42.06767" lon="-0.2529627">
        <time>2022-07-06T10:27:12Z</time>
      </trkpt>
      <trkpt lat="42.067696" lon="-0.25290036">
        <time>2022-07-06T10:27:14Z</time>
      </trkpt>
      <trkpt lat="42.067722" lon="-0.25283504">
        <time>2022-07-06T10:27:16Z</time>
      </trkpt>
      <trkpt lat="42.06775" lon="-0.25277305">
        <time>2022-07-06T10:27:18Z</time>
      </trkpt>
      <trkpt lat="42.067772" lon="-0.25270903">
        <time>2022-07-06T10:27:20Z</time>
      </trkpt>
      <trkpt lat="42.0678" lon="-0.2526437">
        <time>2022-07-06T10:27:22Z</time>
      </trkpt>
      <trkpt lat="42.06783" lon="-0.2525787">
        <time>2022-07-06T10:27:24Z</time>
      </trkpt>
      <trkpt lat="42.067856" lon="-0.25251272">
        <time>2022-07-06T10:27:26Z</time>
      </trkpt>
      <trkpt lat="42.067883" lon="-0.25244504">
        <time>2022-07-06T10:27:28Z</time>
      </trkpt>
      <trkpt lat="42.06791" lon="-0.2523784">
        <time>2022-07-06T10:27:30Z</time>
      </trkpt>
      <trkpt lat="42.067932" lon="-0.25231138">
        <time>2022-07-06T10:27:32Z</time>
      </trkpt>
      <trkpt lat="42.067955" lon="-0.2522434">
        <time>2022-07-06T10:27:34Z</time>
      </trkpt>
      <trkpt lat="42.067974" lon="-0.25217006">
        <time>2022-07-06T10:27:36Z</time>
      </trkpt>
      <trkpt lat="42.06799" lon="-0.25209373">
        <time>2022-07-06T10:27:38Z</time>
      </trkpt>
      <trkpt lat="42.068" lon="-0.25201774">
        <time>2022-07-06T10:27:40Z</time>
      </trkpt>
      <trkpt lat="42.06801" lon="-0.25194308">
        <time>2022-07-06T10:27:42Z</time>
      </trkpt>
      <trkpt lat="42.068016" lon="-0.25186807">
        <time>2022-07-06T10:27:44Z</time>
      </trkpt>
      <trkpt lat="42.068024" lon="-0.2517974">
        <time>2022-07-06T10:27:46Z</time>
      </trkpt>
      <trkpt lat="42.068027" lon="-0.25169107">
        <time>2022-07-06T10:27:49Z</time>
      </trkpt>
      <trkpt lat="42.068027" lon="-0.25161707">
        <time>2022-07-06T10:27:51Z</time>
      </trkpt>
      <trkpt lat="42.068024" lon="-0.25154376">
        <time>2022-07-06T10:27:53Z</time>
      </trkpt>
      <trkpt lat="42.068024" lon="-0.2514661">
        <time>2022-07-06T10:27:55Z</time>
      </trkpt>
      <trkpt lat="42.068024" lon="-0.25139308">
        <time>2022-07-06T10:27:57Z</time>
      </trkpt>
      <trkpt lat="42.068024" lon="-0.25131708">
        <time>2022-07-06T10:27:59Z</time>
      </trkpt>
      <trkpt lat="42.06802" lon="-0.25124276">
        <time>2022-07-06T10:28:01Z</time>
      </trkpt>
      <trkpt lat="42.06802" lon="-0.2511691">
        <time>2022-07-06T10:28:03Z</time>
      </trkpt>
      <trkpt lat="42.06802" lon="-0.25109378">
        <time>2022-07-06T10:28:05Z</time>
      </trkpt>
      <trkpt lat="42.06802" lon="-0.25101945">
        <time>2022-07-06T10:28:07Z</time>
      </trkpt>
      <trkpt lat="42.06802" lon="-0.25094578">
        <time>2022-07-06T10:28:09Z</time>
      </trkpt>
      <trkpt lat="42.06802" lon="-0.25086778">
        <time>2022-07-06T10:28:11Z</time>
      </trkpt>
      <trkpt lat="42.06802" lon="-0.25079644">
        <time>2022-07-06T10:28:13Z</time>
      </trkpt>
      <trkpt lat="42.068016" lon="-0.2507188">
        <time>2022-07-06T10:28:15Z</time>
      </trkpt>
      <trkpt lat="42.068016" lon="-0.25064647">
        <time>2022-07-06T10:28:17Z</time>
      </trkpt>
      <trkpt lat="42.06802" lon="-0.25057447">
        <time>2022-07-06T10:28:19Z</time>
      </trkpt>
      <trkpt lat="42.06802" lon="-0.25049546">
        <time>2022-07-06T10:28:21Z</time>
      </trkpt>
      <trkpt lat="42.06802" lon="-0.25042114">
        <time>2022-07-06T10:28:23Z</time>
      </trkpt>
      <trkpt lat="42.06802" lon="-0.2503408">
        <time>2022-07-06T10:28:25Z</time>
      </trkpt>
      <trkpt lat="42.068016" lon="-0.2502608">
        <time>2022-07-06T10:28:27Z</time>
      </trkpt>
      <trkpt lat="42.068016" lon="-0.2501858">
        <time>2022-07-06T10:28:29Z</time>
      </trkpt>
      <trkpt lat="42.068012" lon="-0.25010914">
        <time>2022-07-06T10:28:31Z</time>
      </trkpt>
      <trkpt lat="42.068012" lon="-0.2500348">
        <time>2022-07-06T10:28:33Z</time>
      </trkpt>
      <trkpt lat="42.068012" lon="-0.2499278">
        <time>2022-07-06T10:28:36Z</time>
      </trkpt>
      <trkpt lat="42.068012" lon="-0.24985448">
        <time>2022-07-06T10:28:38Z</time>
      </trkpt>
      <trkpt lat="42.068012" lon="-0.24978215">
        <time>2022-07-06T10:28:40Z</time>
      </trkpt>
      <trkpt lat="42.068016" lon="-0.24970682">
        <time>2022-07-06T10:28:42Z</time>
      </trkpt>
      <trkpt lat="42.068016" lon="-0.24963182">
        <time>2022-07-06T10:28:44Z</time>
      </trkpt>
      <trkpt lat="42.068012" lon="-0.24955583">
        <time>2022-07-06T10:28:46Z</time>
      </trkpt>
      <trkpt lat="42.068012" lon="-0.24947816">
        <time>2022-07-06T10:28:48Z</time>
      </trkpt>
      <trkpt lat="42.068012" lon="-0.24940616">
        <time>2022-07-06T10:28:50Z</time>
      </trkpt>
      <trkpt lat="42.068016" lon="-0.2493325">
        <time>2022-07-06T10:28:52Z</time>
      </trkpt>
      <trkpt lat="42.06802" lon="-0.2492575">
        <time>2022-07-06T10:28:54Z</time>
      </trkpt>
      <trkpt lat="42.068027" lon="-0.24918485">
        <time>2022-07-06T10:28:56Z</time>
      </trkpt>
      <trkpt lat="42.06804" lon="-0.24910818">
        <time>2022-07-06T10:28:58Z</time>
      </trkpt>
      <trkpt lat="42.068054" lon="-0.24903618">
        <time>2022-07-06T10:29:00Z</time>
      </trkpt>
      <trkpt lat="42.068073" lon="-0.24896584">
        <time>2022-07-06T10:29:02Z</time>
      </trkpt>
      <trkpt lat="42.068092" lon="-0.24889252">
        <time>2022-07-06T10:29:04Z</time>
      </trkpt>
      <trkpt lat="42.068115" lon="-0.2488232">
        <time>2022-07-06T10:29:06Z</time>
      </trkpt>
      <trkpt lat="42.068134" lon="-0.24874952">
        <time>2022-07-06T10:29:08Z</time>
      </trkpt>
      <trkpt lat="42.06816" lon="-0.2486692">
        <time>2022-07-06T10:29:10Z</time>
      </trkpt>
      <trkpt lat="42.06819" lon="-0.24859187">
        <time>2022-07-06T10:29:12Z</time>
      </trkpt>
      <trkpt lat="42.068222" lon="-0.24851021">
        <time>2022-07-06T10:29:14Z</time>
      </trkpt>
      <trkpt lat="42.068253" lon="-0.24842921">
        <time>2022-07-06T10:29:16Z</time>
      </trkpt>
      <trkpt lat="42.06828" lon="-0.24834456">
        <time>2022-07-06T10:29:18Z</time>
      </trkpt>
      <trkpt lat="42.068306" lon="-0.24825922">
        <time>2022-07-06T10:29:20Z</time>
      </trkpt>
      <trkpt lat="42.068333" lon="-0.24817489">
        <time>2022-07-06T10:29:22Z</time>
      </trkpt>
      <trkpt lat="42.06836" lon="-0.24809024">
        <time>2022-07-06T10:29:24Z</time>
      </trkpt>
      <trkpt lat="42.068386" lon="-0.2480049">
        <time>2022-07-06T10:29:26Z</time>
      </trkpt>
      <trkpt lat="42.068413" lon="-0.24792024">
        <time>2022-07-06T10:29:28Z</time>
      </trkpt>
      <trkpt lat="42.06844" lon="-0.2478359">
        <time>2022-07-06T10:29:30Z</time>
      </trkpt>
      <trkpt lat="42.06847" lon="-0.2477539">
        <time>2022-07-06T10:29:32Z</time>
      </trkpt>
      <trkpt lat="42.068497" lon="-0.24767224">
        <time>2022-07-06T10:29:34Z</time>
      </trkpt>
      <trkpt lat="42.068527" lon="-0.24758525">
        <time>2022-07-06T10:29:36Z</time>
      </trkpt>
      <trkpt lat="42.06855" lon="-0.24750459">
        <time>2022-07-06T10:29:38Z</time>
      </trkpt>
      <trkpt lat="42.06858" lon="-0.24741925">
        <time>2022-07-06T10:29:40Z</time>
      </trkpt>
      <trkpt lat="42.06861" lon="-0.24734393">
        <time>2022-07-06T10:29:42Z</time>
      </trkpt>
      <trkpt lat="42.068638" lon="-0.24727027">
        <time>2022-07-06T10:29:44Z</time>
      </trkpt>
      <trkpt lat="42.06867" lon="-0.24719994">
        <time>2022-07-06T10:29:46Z</time>
      </trkpt>
      <trkpt lat="42.0687" lon="-0.24713261">
        <time>2022-07-06T10:29:48Z</time>
      </trkpt>
      <trkpt lat="42.06873" lon="-0.24706395">
        <time>2022-07-06T10:29:50Z</time>
      </trkpt>
      <trkpt lat="42.068768" lon="-0.24699062">
        <time>2022-07-06T10:29:52Z</time>
      </trkpt>
      <trkpt lat="42.068806" lon="-0.24691062">
        <time>2022-07-06T10:29:54Z</time>
      </trkpt>
      <trkpt lat="42.068848" lon="-0.24682462">
        <time>2022-07-06T10:29:56Z</time>
      </trkpt>
      <trkpt lat="42.06889" lon="-0.2467333">
        <time>2022-07-06T10:29:58Z</time>
      </trkpt>
      <trkpt lat="42.06893" lon="-0.24663863">
        <time>2022-07-06T10:30:00Z</time>
      </trkpt>
      <trkpt lat="42.06898" lon="-0.24653897">
        <time>2022-07-06T10:30:02Z</time>
      </trkpt>
      <trkpt lat="42.069027" lon="-0.24643297">
        <time>2022-07-06T10:30:04Z</time>
      </trkpt>
      <trkpt lat="42.069077" lon="-0.24632464">
        <time>2022-07-06T10:30:06Z</time>
      </trkpt>
      <trkpt lat="42.0691" lon="-0.24627064">
        <time>2022-07-06T10:30:07Z</time>
      </trkpt>
      <trkpt lat="42.069153" lon="-0.2461643">
        <time>2022-07-06T10:30:09Z</time>
      </trkpt>
      <trkpt lat="42.069202" lon="-0.24606198">
        <time>2022-07-06T10:30:11Z</time>
      </trkpt>
      <trkpt lat="42.069252" lon="-0.24595998">
        <time>2022-07-06T10:30:13Z</time>
      </trkpt>
      <trkpt lat="42.069305" lon="-0.24585599">
        <time>2022-07-06T10:30:15Z</time>
      </trkpt>
      <trkpt lat="42.06936" lon="-0.24575032">
        <time>2022-07-06T10:30:17Z</time>
      </trkpt>
      <trkpt lat="42.06941" lon="-0.24564566">
        <time>2022-07-06T10:30:19Z</time>
      </trkpt>
      <trkpt lat="42.06946" lon="-0.24554">
        <time>2022-07-06T10:30:21Z</time>
      </trkpt>
      <trkpt lat="42.06951" lon="-0.24543335">
        <time>2022-07-06T10:30:23Z</time>
      </trkpt>
      <trkpt lat="42.069565" lon="-0.24532668">
        <time>2022-07-06T10:30:25Z</time>
      </trkpt>
      <trkpt lat="42.06959" lon="-0.24527203">
        <time>2022-07-06T10:30:26Z</time>
      </trkpt>
      <trkpt lat="42.069645" lon="-0.24516502">
        <time>2022-07-06T10:30:28Z</time>
      </trkpt>
      <trkpt lat="42.06967" lon="-0.24511169">
        <time>2022-07-06T10:30:29Z</time>
      </trkpt>
      <trkpt lat="42.06972" lon="-0.24500336">
        <time>2022-07-06T10:30:31Z</time>
      </trkpt>
      <trkpt lat="42.06977" lon="-0.24489336">
        <time>2022-07-06T10:30:33Z</time>
      </trkpt>
      <trkpt lat="42.069824" lon="-0.24478003">
        <time>2022-07-06T10:30:35Z</time>
      </trkpt>
      <trkpt lat="42.06985" lon="-0.24472703">
        <time>2022-07-06T10:30:36Z</time>
      </trkpt>
      <trkpt lat="42.069878" lon="-0.24467403">
        <time>2022-07-06T10:30:37Z</time>
      </trkpt>
      <trkpt lat="42.069935" lon="-0.24456804">
        <time>2022-07-06T10:30:39Z</time>
      </trkpt>
      <trkpt lat="42.06999" lon="-0.24445838">
        <time>2022-07-06T10:30:41Z</time>
      </trkpt>
      <trkpt lat="42.070065" lon="-0.24429871">
        <time>2022-07-06T10:30:44Z</time>
      </trkpt>
      <trkpt lat="42.07011" lon="-0.24419305">
        <time>2022-07-06T10:30:46Z</time>
      </trkpt>
      <trkpt lat="42.070168" lon="-0.2440884">
        <time>2022-07-06T10:30:48Z</time>
      </trkpt>
      <trkpt lat="42.070217" lon="-0.24398974">
        <time>2022-07-06T10:30:50Z</time>
      </trkpt>
      <trkpt lat="42.070263" lon="-0.2438974">
        <time>2022-07-06T10:30:52Z</time>
      </trkpt>
      <trkpt lat="42.07031" lon="-0.24380673">
        <time>2022-07-06T10:30:54Z</time>
      </trkpt>
      <trkpt lat="42.07035" lon="-0.24371941">
        <time>2022-07-06T10:30:56Z</time>
      </trkpt>
      <trkpt lat="42.070393" lon="-0.24363407">
        <time>2022-07-06T10:30:58Z</time>
      </trkpt>
      <trkpt lat="42.07043" lon="-0.24355142">
        <time>2022-07-06T10:31:00Z</time>
      </trkpt>
      <trkpt lat="42.070473" lon="-0.24347208">
        <time>2022-07-06T10:31:02Z</time>
      </trkpt>
      <trkpt lat="42.070515" lon="-0.24339277">
        <time>2022-07-06T10:31:04Z</time>
      </trkpt>
      <trkpt lat="42.070553" lon="-0.2433141">
        <time>2022-07-06T10:31:06Z</time>
      </trkpt>
      <trkpt lat="42.070595" lon="-0.2432341">
        <time>2022-07-06T10:31:08Z</time>
      </trkpt>
      <trkpt lat="42.070633" lon="-0.24315377">
        <time>2022-07-06T10:31:10Z</time>
      </trkpt>
      <trkpt lat="42.070675" lon="-0.2430721">
        <time>2022-07-06T10:31:12Z</time>
      </trkpt>
      <trkpt lat="42.070713" lon="-0.2429911">
        <time>2022-07-06T10:31:14Z</time>
      </trkpt>
      <trkpt lat="42.07075" lon="-0.24291278">
        <time>2022-07-06T10:31:16Z</time>
      </trkpt>
      <trkpt lat="42.070793" lon="-0.24283245">
        <time>2022-07-06T10:31:18Z</time>
      </trkpt>
      <trkpt lat="42.07083" lon="-0.2427488">
        <time>2022-07-06T10:31:20Z</time>
      </trkpt>
      <trkpt lat="42.07087" lon="-0.24265979">
        <time>2022-07-06T10:31:22Z</time>
      </trkpt>
      <trkpt lat="42.070908" lon="-0.24257246">
        <time>2022-07-06T10:31:24Z</time>
      </trkpt>
      <trkpt lat="42.070942" lon="-0.24248447">
        <time>2022-07-06T10:31:26Z</time>
      </trkpt>
      <trkpt lat="42.07098" lon="-0.24239546">
        <time>2022-07-06T10:31:28Z</time>
      </trkpt>
      <trkpt lat="42.07102" lon="-0.2423078">
        <time>2022-07-06T10:31:30Z</time>
      </trkpt>
      <trkpt lat="42.07105" lon="-0.24222215">
        <time>2022-07-06T10:31:32Z</time>
      </trkpt>
      <trkpt lat="42.07108" lon="-0.24213548">
        <time>2022-07-06T10:31:34Z</time>
      </trkpt>
      <trkpt lat="42.07111" lon="-0.24204482">
        <time>2022-07-06T10:31:36Z</time>
      </trkpt>
      <trkpt lat="42.07114" lon="-0.24195182">
        <time>2022-07-06T10:31:38Z</time>
      </trkpt>
      <trkpt lat="42.071167" lon="-0.24185549">
        <time>2022-07-06T10:31:40Z</time>
      </trkpt>
      <trkpt lat="42.071198" lon="-0.24175715">
        <time>2022-07-06T10:31:42Z</time>
      </trkpt>
      <trkpt lat="42.071236" lon="-0.24165817">
        <time>2022-07-06T10:31:44Z</time>
      </trkpt>
      <trkpt lat="42.071278" lon="-0.2415585">
        <time>2022-07-06T10:31:46Z</time>
      </trkpt>
      <trkpt lat="42.071323" lon="-0.2414535">
        <time>2022-07-06T10:31:48Z</time>
      </trkpt>
      <trkpt lat="42.071384" lon="-0.2413435">
        <time>2022-07-06T10:31:50Z</time>
      </trkpt>
      <trkpt lat="42.07142" lon="-0.2412905">
        <time>2022-07-06T10:31:51Z</time>
      </trkpt>
      <trkpt lat="42.071453" lon="-0.24123918">
        <time>2022-07-06T10:31:52Z</time>
      </trkpt>
      <trkpt lat="42.07149" lon="-0.24119051">
        <time>2022-07-06T10:31:53Z</time>
      </trkpt>
      <trkpt lat="42.07153" lon="-0.24114318">
        <time>2022-07-06T10:31:54Z</time>
      </trkpt>
      <trkpt lat="42.07161" lon="-0.24104884">
        <time>2022-07-06T10:31:56Z</time>
      </trkpt>
      <trkpt lat="42.071655" lon="-0.24100251">
        <time>2022-07-06T10:31:57Z</time>
      </trkpt>
      <trkpt lat="42.071697" lon="-0.24095686">
        <time>2022-07-06T10:31:58Z</time>
      </trkpt>
      <trkpt lat="42.07174" lon="-0.24091186">
        <time>2022-07-06T10:31:59Z</time>
      </trkpt>
      <trkpt lat="42.07178" lon="-0.24086653">
        <time>2022-07-06T10:32:00Z</time>
      </trkpt>
      <trkpt lat="42.07182" lon="-0.24082153">
        <time>2022-07-06T10:32:01Z</time>
      </trkpt>
      <trkpt lat="42.07186" lon="-0.24077652">
        <time>2022-07-06T10:32:02Z</time>
      </trkpt>
      <trkpt lat="42.071903" lon="-0.24073187">
        <time>2022-07-06T10:32:03Z</time>
      </trkpt>
      <trkpt lat="42.07194" lon="-0.2406882">
        <time>2022-07-06T10:32:04Z</time>
      </trkpt>
      <trkpt lat="42.071983" lon="-0.24064387">
        <time>2022-07-06T10:32:05Z</time>
      </trkpt>
      <trkpt lat="42.072025" lon="-0.24060056">
        <time>2022-07-06T10:32:06Z</time>
      </trkpt>
      <trkpt lat="42.072098" lon="-0.24052389">
        <time>2022-07-06T10:32:08Z</time>
      </trkpt>
      <trkpt lat="42.072163" lon="-0.24045089">
        <time>2022-07-06T10:32:10Z</time>
      </trkpt>
      <trkpt lat="42.072224" lon="-0.24038088">
        <time>2022-07-06T10:32:12Z</time>
      </trkpt>
      <trkpt lat="42.07228" lon="-0.2403089">
        <time>2022-07-06T10:32:14Z</time>
      </trkpt>
      <trkpt lat="42.07233" lon="-0.24023023">
        <time>2022-07-06T10:32:16Z</time>
      </trkpt>
      <trkpt lat="42.07238" lon="-0.24014422">
        <time>2022-07-06T10:32:18Z</time>
      </trkpt>
      <trkpt lat="42.07242" lon="-0.2400519">
        <time>2022-07-06T10:32:20Z</time>
      </trkpt>
      <trkpt lat="42.07245" lon="-0.2399539">
        <time>2022-07-06T10:32:22Z</time>
      </trkpt>
      <trkpt lat="42.072475" lon="-0.23985323">
        <time>2022-07-06T10:32:24Z</time>
      </trkpt>
      <trkpt lat="42.0725" lon="-0.23974891">
        <time>2022-07-06T10:32:26Z</time>
      </trkpt>
      <trkpt lat="42.07252" lon="-0.23964392">
        <time>2022-07-06T10:32:28Z</time>
      </trkpt>
      <trkpt lat="42.072544" lon="-0.23953858">
        <time>2022-07-06T10:32:30Z</time>
      </trkpt>
      <trkpt lat="42.072567" lon="-0.23942992">
        <time>2022-07-06T10:32:32Z</time>
      </trkpt>
      <trkpt lat="42.07259" lon="-0.23932259">
        <time>2022-07-06T10:32:34Z</time>
      </trkpt>
      <trkpt lat="42.072617" lon="-0.23921727">
        <time>2022-07-06T10:32:36Z</time>
      </trkpt>
      <trkpt lat="42.072643" lon="-0.23911525">
        <time>2022-07-06T10:32:38Z</time>
      </trkpt>
      <trkpt lat="42.072674" lon="-0.23901993">
        <time>2022-07-06T10:32:40Z</time>
      </trkpt>
      <trkpt lat="42.07271" lon="-0.23893093">
        <time>2022-07-06T10:32:42Z</time>
      </trkpt>
      <trkpt lat="42.072746" lon="-0.23884627">
        <time>2022-07-06T10:32:44Z</time>
      </trkpt>
      <trkpt lat="42.072796" lon="-0.23876494">
        <time>2022-07-06T10:32:46Z</time>
      </trkpt>
      <trkpt lat="42.072845" lon="-0.2386876">
        <time>2022-07-06T10:32:48Z</time>
      </trkpt>
      <trkpt lat="42.072895" lon="-0.23861428">
        <time>2022-07-06T10:32:50Z</time>
      </trkpt>
      <trkpt lat="42.072945" lon="-0.23854095">
        <time>2022-07-06T10:32:52Z</time>
      </trkpt>
      <trkpt lat="42.072994" lon="-0.23845929">
        <time>2022-07-06T10:32:54Z</time>
      </trkpt>
      <trkpt lat="42.07304" lon="-0.2383813">
        <time>2022-07-06T10:32:56Z</time>
      </trkpt>
      <trkpt lat="42.073093" lon="-0.23830196">
        <time>2022-07-06T10:32:58Z</time>
      </trkpt>
      <trkpt lat="42.073143" lon="-0.23822863">
        <time>2022-07-06T10:33:00Z</time>
      </trkpt>
      <trkpt lat="42.073193" lon="-0.2381603">
        <time>2022-07-06T10:33:02Z</time>
      </trkpt>
      <trkpt lat="42.07324" lon="-0.23808697">
        <time>2022-07-06T10:33:04Z</time>
      </trkpt>
      <trkpt lat="42.073284" lon="-0.23801231">
        <time>2022-07-06T10:33:06Z</time>
      </trkpt>
      <trkpt lat="42.07333" lon="-0.23794098">
        <time>2022-07-06T10:33:08Z</time>
      </trkpt>
      <trkpt lat="42.073376" lon="-0.23786932">
        <time>2022-07-06T10:33:10Z</time>
      </trkpt>
      <trkpt lat="42.07342" lon="-0.23779699">
        <time>2022-07-06T10:33:12Z</time>
      </trkpt>
      <trkpt lat="42.073467" lon="-0.23772466">
        <time>2022-07-06T10:33:14Z</time>
      </trkpt>
      <trkpt lat="42.073513" lon="-0.237652">
        <time>2022-07-06T10:33:16Z</time>
      </trkpt>
      <trkpt lat="42.07356" lon="-0.237578">
        <time>2022-07-06T10:33:18Z</time>
      </trkpt>
      <trkpt lat="42.07361" lon="-0.23750634">
        <time>2022-07-06T10:33:20Z</time>
      </trkpt>
      <trkpt lat="42.073654" lon="-0.23743369">
        <time>2022-07-06T10:33:22Z</time>
      </trkpt>
      <trkpt lat="42.0737" lon="-0.23736136">
        <time>2022-07-06T10:33:24Z</time>
      </trkpt>
      <trkpt lat="42.073742" lon="-0.2372907">
        <time>2022-07-06T10:33:26Z</time>
      </trkpt>
      <trkpt lat="42.073784" lon="-0.23722368">
        <time>2022-07-06T10:33:28Z</time>
      </trkpt>
      <trkpt lat="42.07383" lon="-0.23715936">
        <time>2022-07-06T10:33:30Z</time>
      </trkpt>
      <trkpt lat="42.07387" lon="-0.23709536">
        <time>2022-07-06T10:33:32Z</time>
      </trkpt>
      <trkpt lat="42.07391" lon="-0.23702903">
        <time>2022-07-06T10:33:34Z</time>
      </trkpt>
      <trkpt lat="42.073948" lon="-0.23696437">
        <time>2022-07-06T10:33:36Z</time>
      </trkpt>
      <trkpt lat="42.073982" lon="-0.2368977">
        <time>2022-07-06T10:33:38Z</time>
      </trkpt>
      <trkpt lat="42.074017" lon="-0.23682839">
        <time>2022-07-06T10:33:40Z</time>
      </trkpt>
      <trkpt lat="42.074043" lon="-0.23675606">
        <time>2022-07-06T10:33:42Z</time>
      </trkpt>
      <trkpt lat="42.074066" lon="-0.23668139">
        <time>2022-07-06T10:33:44Z</time>
      </trkpt>
      <trkpt lat="42.074093" lon="-0.23660673">
        <time>2022-07-06T10:33:46Z</time>
      </trkpt>
      <trkpt lat="42.074112" lon="-0.23653308">
        <time>2022-07-06T10:33:48Z</time>
      </trkpt>
      <trkpt lat="42.074135" lon="-0.23645741">
        <time>2022-07-06T10:33:50Z</time>
      </trkpt>
      <trkpt lat="42.074158" lon="-0.23638076">
        <time>2022-07-06T10:33:52Z</time>
      </trkpt>
      <trkpt lat="42.074177" lon="-0.23630175">
        <time>2022-07-06T10:33:54Z</time>
      </trkpt>
      <trkpt lat="42.0742" lon="-0.23618574">
        <time>2022-07-06T10:33:57Z</time>
      </trkpt>
      <trkpt lat="42.07421" lon="-0.23610942">
        <time>2022-07-06T10:33:59Z</time>
      </trkpt>
      <trkpt lat="42.074226" lon="-0.23603208">
        <time>2022-07-06T10:34:01Z</time>
      </trkpt>
      <trkpt lat="42.07424" lon="-0.23595476">
        <time>2022-07-06T10:34:03Z</time>
      </trkpt>
      <trkpt lat="42.07426" lon="-0.2358761">
        <time>2022-07-06T10:34:05Z</time>
      </trkpt>
      <trkpt lat="42.07428" lon="-0.23579843">
        <time>2022-07-06T10:34:07Z</time>
      </trkpt>
      <trkpt lat="42.0743" lon="-0.23571844">
        <time>2022-07-06T10:34:09Z</time>
      </trkpt>
      <trkpt lat="42.07431" lon="-0.23563911">
        <time>2022-07-06T10:34:11Z</time>
      </trkpt>
      <trkpt lat="42.074326" lon="-0.23555778">
        <time>2022-07-06T10:34:13Z</time>
      </trkpt>
      <trkpt lat="42.074345" lon="-0.23547712">
        <time>2022-07-06T10:34:15Z</time>
      </trkpt>
      <trkpt lat="42.07436" lon="-0.23539712">
        <time>2022-07-06T10:34:17Z</time>
      </trkpt>
      <trkpt lat="42.07438" lon="-0.23531713">
        <time>2022-07-06T10:34:19Z</time>
      </trkpt>
      <trkpt lat="42.074398" lon="-0.23523512">
        <time>2022-07-06T10:34:21Z</time>
      </trkpt>
      <trkpt lat="42.074413" lon="-0.23515145">
        <time>2022-07-06T10:34:23Z</time>
      </trkpt>
      <trkpt lat="42.074425" lon="-0.23506945">
        <time>2022-07-06T10:34:25Z</time>
      </trkpt>
      <trkpt lat="42.074436" lon="-0.23498613">
        <time>2022-07-06T10:34:27Z</time>
      </trkpt>
      <trkpt lat="42.074448" lon="-0.23490013">
        <time>2022-07-06T10:34:29Z</time>
      </trkpt>
      <trkpt lat="42.07446" lon="-0.2348128">
        <time>2022-07-06T10:34:31Z</time>
      </trkpt>
      <trkpt lat="42.074463" lon="-0.23472513">
        <time>2022-07-06T10:34:33Z</time>
      </trkpt>
      <trkpt lat="42.074467" lon="-0.23464014">
        <time>2022-07-06T10:34:35Z</time>
      </trkpt>
      <trkpt lat="42.07447" lon="-0.23455514">
        <time>2022-07-06T10:34:37Z</time>
      </trkpt>
      <trkpt lat="42.074482" lon="-0.23446614">
        <time>2022-07-06T10:34:39Z</time>
      </trkpt>
      <trkpt lat="42.07449" lon="-0.23437348">
        <time>2022-07-06T10:34:41Z</time>
      </trkpt>
      <trkpt lat="42.074497" lon="-0.23428048">
        <time>2022-07-06T10:34:43Z</time>
      </trkpt>
      <trkpt lat="42.074505" lon="-0.23418783">
        <time>2022-07-06T10:34:45Z</time>
      </trkpt>
      <trkpt lat="42.07451" lon="-0.23409382">
        <time>2022-07-06T10:34:47Z</time>
      </trkpt>
      <trkpt lat="42.074516" lon="-0.23400016">
        <time>2022-07-06T10:34:49Z</time>
      </trkpt>
      <trkpt lat="42.074524" lon="-0.2339065">
        <time>2022-07-06T10:34:51Z</time>
      </trkpt>
      <trkpt lat="42.07453" lon="-0.2338105">
        <time>2022-07-06T10:34:53Z</time>
      </trkpt>
      <trkpt lat="42.074543" lon="-0.23371685">
        <time>2022-07-06T10:34:55Z</time>
      </trkpt>
      <trkpt lat="42.07455" lon="-0.23362584">
        <time>2022-07-06T10:34:57Z</time>
      </trkpt>
      <trkpt lat="42.074562" lon="-0.23353352">
        <time>2022-07-06T10:34:59Z</time>
      </trkpt>
      <trkpt lat="42.074577" lon="-0.2333935">
        <time>2022-07-06T10:35:02Z</time>
      </trkpt>
      <trkpt lat="42.074585" lon="-0.23330085">
        <time>2022-07-06T10:35:04Z</time>
      </trkpt>
      <trkpt lat="42.074593" lon="-0.23320752">
        <time>2022-07-06T10:35:06Z</time>
      </trkpt>
      <trkpt lat="42.074608" lon="-0.23311219">
        <time>2022-07-06T10:35:08Z</time>
      </trkpt>
      <trkpt lat="42.074623" lon="-0.23301587">
        <time>2022-07-06T10:35:10Z</time>
      </trkpt>
      <trkpt lat="42.074642" lon="-0.23292086">
        <time>2022-07-06T10:35:12Z</time>
      </trkpt>
      <trkpt lat="42.074665" lon="-0.23282853">
        <time>2022-07-06T10:35:14Z</time>
      </trkpt>
      <trkpt lat="42.074684" lon="-0.23273887">
        <time>2022-07-06T10:35:16Z</time>
      </trkpt>
      <trkpt lat="42.074707" lon="-0.2326512">
        <time>2022-07-06T10:35:18Z</time>
      </trkpt>
      <trkpt lat="42.074738" lon="-0.23256154">
        <time>2022-07-06T10:35:20Z</time>
      </trkpt>
      <trkpt lat="42.074764" lon="-0.23247223">
        <time>2022-07-06T10:35:22Z</time>
      </trkpt>
      <trkpt lat="42.0748" lon="-0.23238389">
        <time>2022-07-06T10:35:24Z</time>
      </trkpt>
      <trkpt lat="42.074825" lon="-0.23230056">
        <time>2022-07-06T10:35:26Z</time>
      </trkpt>
      <trkpt lat="42.074852" lon="-0.2322159">
        <time>2022-07-06T10:35:28Z</time>
      </trkpt>
      <trkpt lat="42.07488" lon="-0.23213524">
        <time>2022-07-06T10:35:30Z</time>
      </trkpt>
      <trkpt lat="42.07491" lon="-0.23205324">
        <time>2022-07-06T10:35:32Z</time>
      </trkpt>
      <trkpt lat="42.07494" lon="-0.23197123">
        <time>2022-07-06T10:35:34Z</time>
      </trkpt>
      <trkpt lat="42.074966" lon="-0.2318879">
        <time>2022-07-06T10:35:36Z</time>
      </trkpt>
      <trkpt lat="42.074997" lon="-0.23180458">
        <time>2022-07-06T10:35:38Z</time>
      </trkpt>
      <trkpt lat="42.075024" lon="-0.23172358">
        <time>2022-07-06T10:35:40Z</time>
      </trkpt>
      <trkpt lat="42.075054" lon="-0.23164725">
        <time>2022-07-06T10:35:42Z</time>
      </trkpt>
      <trkpt lat="42.075073" lon="-0.23158792">
        <time>2022-07-06T10:35:44Z</time>
      </trkpt>
      <trkpt lat="42.07513" lon="-0.23144059">
        <time>2022-07-06T10:36:03Z</time>
      </trkpt>
      <trkpt lat="42.075176" lon="-0.23132627">
        <time>2022-07-06T10:36:07Z</time>
      </trkpt>
      <trkpt lat="42.075203" lon="-0.23125292">
        <time>2022-07-06T10:36:09Z</time>
      </trkpt>
      <trkpt lat="42.07523" lon="-0.23116893">
        <time>2022-07-06T10:36:11Z</time>
      </trkpt>
      <trkpt lat="42.075256" lon="-0.23107792">
        <time>2022-07-06T10:36:13Z</time>
      </trkpt>
      <trkpt lat="42.075283" lon="-0.23098193">
        <time>2022-07-06T10:36:15Z</time>
      </trkpt>
      <trkpt lat="42.075314" lon="-0.2308786">
        <time>2022-07-06T10:36:17Z</time>
      </trkpt>
      <trkpt lat="42.075348" lon="-0.23076726">
        <time>2022-07-06T10:36:19Z</time>
      </trkpt>
      <trkpt lat="42.07538" lon="-0.23065127">
        <time>2022-07-06T10:36:21Z</time>
      </trkpt>
      <trkpt lat="42.075413" lon="-0.23053461">
        <time>2022-07-06T10:36:23Z</time>
      </trkpt>
      <trkpt lat="42.07544" lon="-0.23041195">
        <time>2022-07-06T10:36:25Z</time>
      </trkpt>
      <trkpt lat="42.07547" lon="-0.23028494">
        <time>2022-07-06T10:36:27Z</time>
      </trkpt>
      <trkpt lat="42.0755" lon="-0.23015895">
        <time>2022-07-06T10:36:29Z</time>
      </trkpt>
      <trkpt lat="42.07553" lon="-0.23003295">
        <time>2022-07-06T10:36:31Z</time>
      </trkpt>
      <trkpt lat="42.075565" lon="-0.22990695">
        <time>2022-07-06T10:36:33Z</time>
      </trkpt>
      <trkpt lat="42.0756" lon="-0.22978061">
        <time>2022-07-06T10:36:35Z</time>
      </trkpt>
      <trkpt lat="42.075634" lon="-0.2296553">
        <time>2022-07-06T10:36:37Z</time>
      </trkpt>
      <trkpt lat="42.07567" lon="-0.22953229">
        <time>2022-07-06T10:36:39Z</time>
      </trkpt>
      <trkpt lat="42.075703" lon="-0.22940762">
        <time>2022-07-06T10:36:41Z</time>
      </trkpt>
      <trkpt lat="42.07574" lon="-0.2292833">
        <time>2022-07-06T10:36:43Z</time>
      </trkpt>
      <trkpt lat="42.075775" lon="-0.22915964">
        <time>2022-07-06T10:36:45Z</time>
      </trkpt>
      <trkpt lat="42.07581" lon="-0.2290333">
        <time>2022-07-06T10:36:47Z</time>
      </trkpt>
      <trkpt lat="42.07584" lon="-0.22889864">
        <time>2022-07-06T10:36:49Z</time>
      </trkpt>
      <trkpt lat="42.07586" lon="-0.228829">
        <time>2022-07-06T10:36:50Z</time>
      </trkpt>
      <trkpt lat="42.075874" lon="-0.22876365">
        <time>2022-07-06T10:36:51Z</time>
      </trkpt>
      <trkpt lat="42.075893" lon="-0.22869666">
        <time>2022-07-06T10:36:52Z</time>
      </trkpt>
      <trkpt lat="42.07591" lon="-0.22862934">
        <time>2022-07-06T10:36:53Z</time>
      </trkpt>
      <trkpt lat="42.075928" lon="-0.22855566">
        <time>2022-07-06T10:36:54Z</time>
      </trkpt>
      <trkpt lat="42.07595" lon="-0.22848201">
        <time>2022-07-06T10:36:55Z</time>
      </trkpt>
      <trkpt lat="42.07597" lon="-0.228409">
        <time>2022-07-06T10:36:56Z</time>
      </trkpt>
      <trkpt lat="42.07599" lon="-0.22833635">
        <time>2022-07-06T10:36:57Z</time>
      </trkpt>
      <trkpt lat="42.076008" lon="-0.22826369">
        <time>2022-07-06T10:36:58Z</time>
      </trkpt>
      <trkpt lat="42.07603" lon="-0.22819136">
        <time>2022-07-06T10:36:59Z</time>
      </trkpt>
      <trkpt lat="42.07605" lon="-0.2281187">
        <time>2022-07-06T10:37:00Z</time>
      </trkpt>
      <trkpt lat="42.07607" lon="-0.22804505">
        <time>2022-07-06T10:37:01Z</time>
      </trkpt>
      <trkpt lat="42.076084" lon="-0.2279717">
        <time>2022-07-06T10:37:02Z</time>
      </trkpt>
      <trkpt lat="42.076103" lon="-0.22790271">
        <time>2022-07-06T10:37:03Z</time>
      </trkpt>
      <trkpt lat="42.07612" lon="-0.2278317">
        <time>2022-07-06T10:37:04Z</time>
      </trkpt>
      <trkpt lat="42.076138" lon="-0.22775671">
        <time>2022-07-06T10:37:05Z</time>
      </trkpt>
      <trkpt lat="42.07616" lon="-0.22768338">
        <time>2022-07-06T10:37:06Z</time>
      </trkpt>
      <trkpt lat="42.07618" lon="-0.22761105">
        <time>2022-07-06T10:37:07Z</time>
      </trkpt>
      <trkpt lat="42.0762" lon="-0.22753939">
        <time>2022-07-06T10:37:08Z</time>
      </trkpt>
      <trkpt lat="42.076214" lon="-0.22746906">
        <time>2022-07-06T10:37:09Z</time>
      </trkpt>
      <trkpt lat="42.076233" lon="-0.22739872">
        <time>2022-07-06T10:37:10Z</time>
      </trkpt>
      <trkpt lat="42.076252" lon="-0.2273274">
        <time>2022-07-06T10:37:11Z</time>
      </trkpt>
      <trkpt lat="42.07627" lon="-0.2272554">
        <time>2022-07-06T10:37:12Z</time>
      </trkpt>
      <trkpt lat="42.07629" lon="-0.22718906">
        <time>2022-07-06T10:37:13Z</time>
      </trkpt>
      <trkpt lat="42.076332" lon="-0.22705074">
        <time>2022-07-06T10:37:15Z</time>
      </trkpt>
      <trkpt lat="42.07635" lon="-0.22697975">
        <time>2022-07-06T10:37:16Z</time>
      </trkpt>
      <trkpt lat="42.076366" lon="-0.22690974">
        <time>2022-07-06T10:37:17Z</time>
      </trkpt>
      <trkpt lat="42.076385" lon="-0.2268404">
        <time>2022-07-06T10:37:18Z</time>
      </trkpt>
      <trkpt lat="42.0764" lon="-0.22677176">
        <time>2022-07-06T10:37:19Z</time>
      </trkpt>
      <trkpt lat="42.076416" lon="-0.22670776">
        <time>2022-07-06T10:37:20Z</time>
      </trkpt>
      <trkpt lat="42.07645" lon="-0.2265731">
        <time>2022-07-06T10:37:22Z</time>
      </trkpt>
      <trkpt lat="42.07647" lon="-0.22650543">
        <time>2022-07-06T10:37:23Z</time>
      </trkpt>
      <trkpt lat="42.07649" lon="-0.22643778">
        <time>2022-07-06T10:37:24Z</time>
      </trkpt>
      <trkpt lat="42.07651" lon="-0.22637276">
        <time>2022-07-06T10:37:25Z</time>
      </trkpt>
      <trkpt lat="42.07653" lon="-0.22630776">
        <time>2022-07-06T10:37:26Z</time>
      </trkpt>
      <trkpt lat="42.07655" lon="-0.22624244">
        <time>2022-07-06T10:37:27Z</time>
      </trkpt>
      <trkpt lat="42.07657" lon="-0.22617377">
        <time>2022-07-06T10:37:28Z</time>
      </trkpt>
      <trkpt lat="42.076584" lon="-0.22610612">
        <time>2022-07-06T10:37:29Z</time>
      </trkpt>
      <trkpt lat="42.076595" lon="-0.22604012">
        <time>2022-07-06T10:37:30Z</time>
      </trkpt>
      <trkpt lat="42.076614" lon="-0.22591512">
        <time>2022-07-06T10:37:32Z</time>
      </trkpt>
      <trkpt lat="42.076626" lon="-0.22578979">
        <time>2022-07-06T10:37:34Z</time>
      </trkpt>
      <trkpt lat="42.076637" lon="-0.22566213">
        <time>2022-07-06T10:37:36Z</time>
      </trkpt>
      <trkpt lat="42.07665" lon="-0.22553113">
        <time>2022-07-06T10:37:38Z</time>
      </trkpt>
      <trkpt lat="42.076653" lon="-0.22546947">
        <time>2022-07-06T10:37:39Z</time>
      </trkpt>
      <trkpt lat="42.076656" lon="-0.22534446">
        <time>2022-07-06T10:37:41Z</time>
      </trkpt>
      <trkpt lat="42.07666" lon="-0.22522414">
        <time>2022-07-06T10:37:43Z</time>
      </trkpt>
      <trkpt lat="42.07666" lon="-0.22510748">
        <time>2022-07-06T10:37:45Z</time>
      </trkpt>
      <trkpt lat="42.076664" lon="-0.22499949">
        <time>2022-07-06T10:37:47Z</time>
      </trkpt>
      <trkpt lat="42.076675" lon="-0.22489248">
        <time>2022-07-06T10:37:49Z</time>
      </trkpt>
      <trkpt lat="42.076683" lon="-0.22478248">
        <time>2022-07-06T10:37:51Z</time>
      </trkpt>
      <trkpt lat="42.076687" lon="-0.22466747">
        <time>2022-07-06T10:37:53Z</time>
      </trkpt>
      <trkpt lat="42.076687" lon="-0.22455715">
        <time>2022-07-06T10:37:55Z</time>
      </trkpt>
      <trkpt lat="42.076694" lon="-0.2244265">
        <time>2022-07-06T10:37:58Z</time>
      </trkpt>
      <trkpt lat="42.076694" lon="-0.22435683">
        <time>2022-07-06T10:37:59Z</time>
      </trkpt>
      <trkpt lat="42.0767" lon="-0.22429118">
        <time>2022-07-06T10:38:00Z</time>
      </trkpt>
      <trkpt lat="42.0767" lon="-0.22422718">
        <time>2022-07-06T10:38:01Z</time>
      </trkpt>
      <trkpt lat="42.076702" lon="-0.22410384">
        <time>2022-07-06T10:38:03Z</time>
      </trkpt>
      <trkpt lat="42.076706" lon="-0.22398418">
        <time>2022-07-06T10:38:05Z</time>
      </trkpt>
      <trkpt lat="42.07672" lon="-0.22387186">
        <time>2022-07-06T10:38:07Z</time>
      </trkpt>
      <trkpt lat="42.076736" lon="-0.2237652">
        <time>2022-07-06T10:38:09Z</time>
      </trkpt>
      <trkpt lat="42.07676" lon="-0.22367086">
        <time>2022-07-06T10:38:11Z</time>
      </trkpt>
      <trkpt lat="42.076775" lon="-0.22361086">
        <time>2022-07-06T10:38:13Z</time>
      </trkpt>
      <trkpt lat="42.07679" lon="-0.2235612">
        <time>2022-07-06T10:38:17Z</time>
      </trkpt>
      <trkpt lat="42.07686" lon="-0.22347587">
        <time>2022-07-06T10:39:38Z</time>
      </trkpt>
      <trkpt lat="42.076904" lon="-0.22341621">
        <time>2022-07-06T10:39:40Z</time>
      </trkpt>
      <trkpt lat="42.076954" lon="-0.22335587">
        <time>2022-07-06T10:39:42Z</time>
      </trkpt>
      <trkpt lat="42.07701" lon="-0.22329354">
        <time>2022-07-06T10:39:44Z</time>
      </trkpt>
      <trkpt lat="42.077072" lon="-0.2232239">
        <time>2022-07-06T10:39:46Z</time>
      </trkpt>
      <trkpt lat="42.077133" lon="-0.22315423">
        <time>2022-07-06T10:39:48Z</time>
      </trkpt>
      <trkpt lat="42.077194" lon="-0.22307958">
        <time>2022-07-06T10:39:50Z</time>
      </trkpt>
      <trkpt lat="42.07726" lon="-0.22300257">
        <time>2022-07-06T10:39:52Z</time>
      </trkpt>
      <trkpt lat="42.077324" lon="-0.2229249">
        <time>2022-07-06T10:39:54Z</time>
      </trkpt>
      <trkpt lat="42.077393" lon="-0.22284459">
        <time>2022-07-06T10:39:56Z</time>
      </trkpt>
      <trkpt lat="42.07746" lon="-0.22276393">
        <time>2022-07-06T10:39:58Z</time>
      </trkpt>
      <trkpt lat="42.07753" lon="-0.22268227">
        <time>2022-07-06T10:40:00Z</time>
      </trkpt>
      <trkpt lat="42.0776" lon="-0.2225996">
        <time>2022-07-06T10:40:02Z</time>
      </trkpt>
      <trkpt lat="42.077667" lon="-0.2225166">
        <time>2022-07-06T10:40:04Z</time>
      </trkpt>
      <trkpt lat="42.07774" lon="-0.22243294">
        <time>2022-07-06T10:40:06Z</time>
      </trkpt>
      <trkpt lat="42.077805" lon="-0.2223456">
        <time>2022-07-06T10:40:08Z</time>
      </trkpt>
      <trkpt lat="42.07784" lon="-0.22230095">
        <time>2022-07-06T10:40:09Z</time>
      </trkpt>
      <trkpt lat="42.077908" lon="-0.22221161">
        <time>2022-07-06T10:40:11Z</time>
      </trkpt>
      <trkpt lat="42.07794" lon="-0.22216728">
        <time>2022-07-06T10:40:12Z</time>
      </trkpt>
      <trkpt lat="42.07801" lon="-0.22207797">
        <time>2022-07-06T10:40:14Z</time>
      </trkpt>
      <trkpt lat="42.078075" lon="-0.22198562">
        <time>2022-07-06T10:40:16Z</time>
      </trkpt>
      <trkpt lat="42.078136" lon="-0.22189097">
        <time>2022-07-06T10:40:18Z</time>
      </trkpt>
      <trkpt lat="42.078197" lon="-0.22179364">
        <time>2022-07-06T10:40:20Z</time>
      </trkpt>
      <trkpt lat="42.07826" lon="-0.22169565">
        <time>2022-07-06T10:40:22Z</time>
      </trkpt>
      <trkpt lat="42.078316" lon="-0.22159497">
        <time>2022-07-06T10:40:24Z</time>
      </trkpt>
      <trkpt lat="42.07837" lon="-0.22149397">
        <time>2022-07-06T10:40:26Z</time>
      </trkpt>
      <trkpt lat="42.07844" lon="-0.22133999">
        <time>2022-07-06T10:40:29Z</time>
      </trkpt>
      <trkpt lat="42.078484" lon="-0.22123899">
        <time>2022-07-06T10:40:31Z</time>
      </trkpt>
      <trkpt lat="42.078526" lon="-0.22113965">
        <time>2022-07-06T10:40:33Z</time>
      </trkpt>
      <trkpt lat="42.078564" lon="-0.22104464">
        <time>2022-07-06T10:40:35Z</time>
      </trkpt>
      <trkpt lat="42.0786" lon="-0.22095332">
        <time>2022-07-06T10:40:37Z</time>
      </trkpt>
      <trkpt lat="42.078636" lon="-0.22086398">
        <time>2022-07-06T10:40:39Z</time>
      </trkpt>
      <trkpt lat="42.07867" lon="-0.22077332">
        <time>2022-07-06T10:40:41Z</time>
      </trkpt>
      <trkpt lat="42.078705" lon="-0.22068667">
        <time>2022-07-06T10:40:43Z</time>
      </trkpt>
      <trkpt lat="42.07874" lon="-0.22060567">
        <time>2022-07-06T10:40:45Z</time>
      </trkpt>
      <trkpt lat="42.07877" lon="-0.22052933">
        <time>2022-07-06T10:40:47Z</time>
      </trkpt>
      <trkpt lat="42.0788" lon="-0.22045234">
        <time>2022-07-06T10:40:49Z</time>
      </trkpt>
      <trkpt lat="42.078827" lon="-0.22038133">
        <time>2022-07-06T10:40:51Z</time>
      </trkpt>
      <trkpt lat="42.078854" lon="-0.22031035">
        <time>2022-07-06T10:40:53Z</time>
      </trkpt>
      <trkpt lat="42.078876" lon="-0.22024034">
        <time>2022-07-06T10:40:55Z</time>
      </trkpt>
      <trkpt lat="42.078896" lon="-0.220179">
        <time>2022-07-06T10:40:57Z</time>
      </trkpt>
      <trkpt lat="42.078915" lon="-0.22012001">
        <time>2022-07-06T10:40:59Z</time>
      </trkpt>
      <trkpt lat="42.078938" lon="-0.22002968">
        <time>2022-07-06T10:41:02Z</time>
      </trkpt>
      <trkpt lat="42.078957" lon="-0.21997067">
        <time>2022-07-06T10:41:04Z</time>
      </trkpt>
      <trkpt lat="42.078976" lon="-0.21987969">
        <time>2022-07-06T10:41:07Z</time>
      </trkpt>
      <trkpt lat="42.078995" lon="-0.21978769">
        <time>2022-07-06T10:41:10Z</time>
      </trkpt>
      <trkpt lat="42.079006" lon="-0.21972635">
        <time>2022-07-06T10:41:12Z</time>
      </trkpt>
      <trkpt lat="42.079025" lon="-0.2196347">
        <time>2022-07-06T10:41:15Z</time>
      </trkpt>
      <trkpt lat="42.07904" lon="-0.21954069">
        <time>2022-07-06T10:41:18Z</time>
      </trkpt>
      <trkpt lat="42.079052" lon="-0.21947937">
        <time>2022-07-06T10:41:20Z</time>
      </trkpt>
      <trkpt lat="42.07907" lon="-0.21938936">
        <time>2022-07-06T10:41:23Z</time>
      </trkpt>
      <trkpt lat="42.07909" lon="-0.2193027">
        <time>2022-07-06T10:41:26Z</time>
      </trkpt>
      <trkpt lat="42.079105" lon="-0.2192127">
        <time>2022-07-06T10:41:29Z</time>
      </trkpt>
      <trkpt lat="42.07912" lon="-0.21912336">
        <time>2022-07-06T10:41:32Z</time>
      </trkpt>
      <trkpt lat="42.07914" lon="-0.21903338">
        <time>2022-07-06T10:41:35Z</time>
      </trkpt>
      <trkpt lat="42.07917" lon="-0.21894272">
        <time>2022-07-06T10:41:38Z</time>
      </trkpt>
      <trkpt lat="42.079205" lon="-0.21886037">
        <time>2022-07-06T10:41:41Z</time>
      </trkpt>
      <trkpt lat="42.079247" lon="-0.21878272">
        <time>2022-07-06T10:41:44Z</time>
      </trkpt>
      <trkpt lat="42.079292" lon="-0.21871471">
        <time>2022-07-06T10:41:47Z</time>
      </trkpt>
      <trkpt lat="42.07934" lon="-0.21864839">
        <time>2022-07-06T10:41:50Z</time>
      </trkpt>
      <trkpt lat="42.07938" lon="-0.2186074">
        <time>2022-07-06T10:41:52Z</time>
      </trkpt>
      <trkpt lat="42.07944" lon="-0.2185434">
        <time>2022-07-06T10:41:55Z</time>
      </trkpt>
      <trkpt lat="42.07948" lon="-0.21849973">
        <time>2022-07-06T10:41:57Z</time>
      </trkpt>
      <trkpt lat="42.079533" lon="-0.21843807">
        <time>2022-07-06T10:42:00Z</time>
      </trkpt>
      <trkpt lat="42.07959" lon="-0.21837507">
        <time>2022-07-06T10:42:03Z</time>
      </trkpt>
      <trkpt lat="42.079643" lon="-0.21831474">
        <time>2022-07-06T10:42:06Z</time>
      </trkpt>
      <trkpt lat="42.079697" lon="-0.21825375">
        <time>2022-07-06T10:42:09Z</time>
      </trkpt>
      <trkpt lat="42.079754" lon="-0.21820174">
        <time>2022-07-06T10:42:12Z</time>
      </trkpt>
      <trkpt lat="42.07982" lon="-0.21814741">
        <time>2022-07-06T10:42:15Z</time>
      </trkpt>
      <trkpt lat="42.079857" lon="-0.21811076">
        <time>2022-07-06T10:42:17Z</time>
      </trkpt>
      <trkpt lat="42.07992" lon="-0.2180581">
        <time>2022-07-06T10:42:20Z</time>
      </trkpt>
      <trkpt lat="42.079967" lon="-0.21801943">
        <time>2022-07-06T10:42:22Z</time>
      </trkpt>
      <trkpt lat="42.080013" lon="-0.2179781">
        <time>2022-07-06T10:42:24Z</time>
      </trkpt>
      <trkpt lat="42.08006" lon="-0.21792944">
        <time>2022-07-06T10:42:26Z</time>
      </trkpt>
      <trkpt lat="42.08011" lon="-0.21787979">
        <time>2022-07-06T10:42:28Z</time>
      </trkpt>
      <trkpt lat="42.080162" lon="-0.21782646">
        <time>2022-07-06T10:42:30Z</time>
      </trkpt>
      <trkpt lat="42.08022" lon="-0.21777345">
        <time>2022-07-06T10:42:32Z</time>
      </trkpt>
      <trkpt lat="42.080273" lon="-0.21772045">
        <time>2022-07-06T10:42:34Z</time>
      </trkpt>
      <trkpt lat="42.080326" lon="-0.21765745">
        <time>2022-07-06T10:42:36Z</time>
      </trkpt>
      <trkpt lat="42.0804" lon="-0.2175538">
        <time>2022-07-06T10:42:39Z</time>
      </trkpt>
      <trkpt lat="42.080444" lon="-0.21747778">
        <time>2022-07-06T10:42:41Z</time>
      </trkpt>
      <trkpt lat="42.08049" lon="-0.21739879">
        <time>2022-07-06T10:42:43Z</time>
      </trkpt>
      <trkpt lat="42.08054" lon="-0.21732046">
        <time>2022-07-06T10:42:45Z</time>
      </trkpt>
      <trkpt lat="42.080593" lon="-0.21723646">
        <time>2022-07-06T10:42:47Z</time>
      </trkpt>
      <trkpt lat="42.080647" lon="-0.2171548">
        <time>2022-07-06T10:42:49Z</time>
      </trkpt>
      <trkpt lat="42.080696" lon="-0.21706913">
        <time>2022-07-06T10:42:51Z</time>
      </trkpt>
      <trkpt lat="42.080753" lon="-0.21697915">
        <time>2022-07-06T10:42:53Z</time>
      </trkpt>
      <trkpt lat="42.08081" lon="-0.21689248">
        <time>2022-07-06T10:42:55Z</time>
      </trkpt>
      <trkpt lat="42.08087" lon="-0.21679547">
        <time>2022-07-06T10:42:57Z</time>
      </trkpt>
      <trkpt lat="42.080902" lon="-0.21674515">
        <time>2022-07-06T10:42:58Z</time>
      </trkpt>
      <trkpt lat="42.080967" lon="-0.21664114">
        <time>2022-07-06T10:43:00Z</time>
      </trkpt>
      <trkpt lat="42.081" lon="-0.21658415">
        <time>2022-07-06T10:43:01Z</time>
      </trkpt>
      <trkpt lat="42.08103" lon="-0.21652682">
        <time>2022-07-06T10:43:02Z</time>
      </trkpt>
      <trkpt lat="42.081066" lon="-0.2164705">
        <time>2022-07-06T10:43:03Z</time>
      </trkpt>
      <trkpt lat="42.081104" lon="-0.2164145">
        <time>2022-07-06T10:43:04Z</time>
      </trkpt>
      <trkpt lat="42.08114" lon="-0.21635848">
        <time>2022-07-06T10:43:05Z</time>
      </trkpt>
      <trkpt lat="42.081173" lon="-0.21630216">
        <time>2022-07-06T10:43:06Z</time>
      </trkpt>
      <trkpt lat="42.081207" lon="-0.2162445">
        <time>2022-07-06T10:43:07Z</time>
      </trkpt>
      <trkpt lat="42.081245" lon="-0.21618584">
        <time>2022-07-06T10:43:08Z</time>
      </trkpt>
      <trkpt lat="42.08128" lon="-0.21612585">
        <time>2022-07-06T10:43:09Z</time>
      </trkpt>
      <trkpt lat="42.081318" lon="-0.21606551">
        <time>2022-07-06T10:43:10Z</time>
      </trkpt>
      <trkpt lat="42.081352" lon="-0.21600951">
        <time>2022-07-06T10:43:11Z</time>
      </trkpt>
      <trkpt lat="42.08139" lon="-0.21594785">
        <time>2022-07-06T10:43:12Z</time>
      </trkpt>
      <trkpt lat="42.08143" lon="-0.21588685">
        <time>2022-07-06T10:43:13Z</time>
      </trkpt>
      <trkpt lat="42.081463" lon="-0.21582551">
        <time>2022-07-06T10:43:14Z</time>
      </trkpt>
      <trkpt lat="42.0815" lon="-0.2157632">
        <time>2022-07-06T10:43:15Z</time>
      </trkpt>
      <trkpt lat="42.081535" lon="-0.21570419">
        <time>2022-07-06T10:43:16Z</time>
      </trkpt>
      <trkpt lat="42.08157" lon="-0.21564487">
        <time>2022-07-06T10:43:17Z</time>
      </trkpt>
      <trkpt lat="42.081608" lon="-0.21558253">
        <time>2022-07-06T10:43:18Z</time>
      </trkpt>
      <trkpt lat="42.081642" lon="-0.21552153">
        <time>2022-07-06T10:43:19Z</time>
      </trkpt>
      <trkpt lat="42.08168" lon="-0.21546553">
        <time>2022-07-06T10:43:20Z</time>
      </trkpt>
      <trkpt lat="42.08172" lon="-0.21540853">
        <time>2022-07-06T10:43:21Z</time>
      </trkpt>
      <trkpt lat="42.081753" lon="-0.21535154">
        <time>2022-07-06T10:43:22Z</time>
      </trkpt>
      <trkpt lat="42.081787" lon="-0.2152932">
        <time>2022-07-06T10:43:23Z</time>
      </trkpt>
      <trkpt lat="42.08183" lon="-0.2152282">
        <time>2022-07-06T10:43:24Z</time>
      </trkpt>
      <trkpt lat="42.081867" lon="-0.2151632">
        <time>2022-07-06T10:43:25Z</time>
      </trkpt>
      <trkpt lat="42.081905" lon="-0.21510354">
        <time>2022-07-06T10:43:26Z</time>
      </trkpt>
      <trkpt lat="42.08194" lon="-0.21504387">
        <time>2022-07-06T10:43:27Z</time>
      </trkpt>
      <trkpt lat="42.081978" lon="-0.21498054">
        <time>2022-07-06T10:43:28Z</time>
      </trkpt>
      <trkpt lat="42.082016" lon="-0.21491955">
        <time>2022-07-06T10:43:29Z</time>
      </trkpt>
      <trkpt lat="42.082054" lon="-0.21486121">
        <time>2022-07-06T10:43:30Z</time>
      </trkpt>
      <trkpt lat="42.082092" lon="-0.21480522">
        <time>2022-07-06T10:43:31Z</time>
      </trkpt>
      <trkpt lat="42.082123" lon="-0.21475422">
        <time>2022-07-06T10:43:32Z</time>
      </trkpt>
      <trkpt lat="42.082157" lon="-0.21470489">
        <time>2022-07-06T10:43:33Z</time>
      </trkpt>
      <trkpt lat="42.08222" lon="-0.21460655">
        <time>2022-07-06T10:43:35Z</time>
      </trkpt>
      <trkpt lat="42.08225" lon="-0.2145589">
        <time>2022-07-06T10:43:36Z</time>
      </trkpt>
      <trkpt lat="42.08231" lon="-0.21447124">
        <time>2022-07-06T10:43:38Z</time>
      </trkpt>
      <trkpt lat="42.082363" lon="-0.21439125">
        <time>2022-07-06T10:43:40Z</time>
      </trkpt>
      <trkpt lat="42.082417" lon="-0.21431324">
        <time>2022-07-06T10:43:42Z</time>
      </trkpt>
      <trkpt lat="42.082466" lon="-0.21423891">
        <time>2022-07-06T10:43:44Z</time>
      </trkpt>
      <trkpt lat="42.08251" lon="-0.21417192">
        <time>2022-07-06T10:43:46Z</time>
      </trkpt>
      <trkpt lat="42.08255" lon="-0.2141149">
        <time>2022-07-06T10:43:48Z</time>
      </trkpt>
      <trkpt lat="42.08258" lon="-0.2140609">
        <time>2022-07-06T10:43:50Z</time>
      </trkpt>
      <trkpt lat="42.08262" lon="-0.21398024">
        <time>2022-07-06T10:43:53Z</time>
      </trkpt>
      <trkpt lat="42.08265" lon="-0.21392992">
        <time>2022-07-06T10:43:55Z</time>
      </trkpt>
      <trkpt lat="42.08268" lon="-0.2138736">
        <time>2022-07-06T10:43:58Z</time>
      </trkpt>
      <trkpt lat="42.08272" lon="-0.21372359">
        <time>2022-07-06T10:44:18Z</time>
      </trkpt>
      <trkpt lat="42.08274" lon="-0.21364926">
        <time>2022-07-06T10:44:20Z</time>
      </trkpt>
      <trkpt lat="42.082764" lon="-0.21356294">
        <time>2022-07-06T10:44:22Z</time>
      </trkpt>
      <trkpt lat="42.08279" lon="-0.21346428">
        <time>2022-07-06T10:44:24Z</time>
      </trkpt>
      <trkpt lat="42.082813" lon="-0.21335594">
        <time>2022-07-06T10:44:26Z</time>
      </trkpt>
      <trkpt lat="42.082836" lon="-0.2132426">
        <time>2022-07-06T10:44:28Z</time>
      </trkpt>
      <trkpt lat="42.082863" lon="-0.2131226">
        <time>2022-07-06T10:44:30Z</time>
      </trkpt>
      <trkpt lat="42.082886" lon="-0.21299762">
        <time>2022-07-06T10:44:32Z</time>
      </trkpt>
      <trkpt lat="42.082905" lon="-0.21293294">
        <time>2022-07-06T10:44:33Z</time>
      </trkpt>
      <trkpt lat="42.082935" lon="-0.21278962">
        <time>2022-07-06T10:44:35Z</time>
      </trkpt>
      <trkpt lat="42.08295" lon="-0.21272162">
        <time>2022-07-06T10:44:36Z</time>
      </trkpt>
      <trkpt lat="42.08297" lon="-0.21264529">
        <time>2022-07-06T10:44:37Z</time>
      </trkpt>
      <trkpt lat="42.08299" lon="-0.21256763">
        <time>2022-07-06T10:44:38Z</time>
      </trkpt>
      <trkpt lat="42.083008" lon="-0.2124893">
        <time>2022-07-06T10:44:39Z</time>
      </trkpt>
      <trkpt lat="42.083023" lon="-0.21240965">
        <time>2022-07-06T10:44:40Z</time>
      </trkpt>
      <trkpt lat="42.083042" lon="-0.21232964">
        <time>2022-07-06T10:44:41Z</time>
      </trkpt>
      <trkpt lat="42.08306" lon="-0.21224998">
        <time>2022-07-06T10:44:42Z</time>
      </trkpt>
      <trkpt lat="42.083076" lon="-0.21217565">
        <time>2022-07-06T10:44:43Z</time>
      </trkpt>
      <trkpt lat="42.08309" lon="-0.21209966">
        <time>2022-07-06T10:44:44Z</time>
      </trkpt>
      <trkpt lat="42.083107" lon="-0.21202365">
        <time>2022-07-06T10:44:45Z</time>
      </trkpt>
      <trkpt lat="42.083122" lon="-0.21194665">
        <time>2022-07-06T10:44:46Z</time>
      </trkpt>
      <trkpt lat="42.08316" lon="-0.21179065">
        <time>2022-07-06T10:44:48Z</time>
      </trkpt>
      <trkpt lat="42.08318" lon="-0.21171199">
        <time>2022-07-06T10:44:49Z</time>
      </trkpt>
      <trkpt lat="42.0832" lon="-0.211633">
        <time>2022-07-06T10:44:50Z</time>
      </trkpt>
      <trkpt lat="42.083218" lon="-0.21155466">
        <time>2022-07-06T10:44:51Z</time>
      </trkpt>
      <trkpt lat="42.08324" lon="-0.21147566">
        <time>2022-07-06T10:44:52Z</time>
      </trkpt>
      <trkpt lat="42.08326" lon="-0.211396">
        <time>2022-07-06T10:44:53Z</time>
      </trkpt>
      <trkpt lat="42.08328" lon="-0.211315">
        <time>2022-07-06T10:44:54Z</time>
      </trkpt>
      <trkpt lat="42.083298" lon="-0.21123134">
        <time>2022-07-06T10:44:55Z</time>
      </trkpt>
      <trkpt lat="42.083313" lon="-0.21114534">
        <time>2022-07-06T10:44:56Z</time>
      </trkpt>
      <trkpt lat="42.08333" lon="-0.21105601">
        <time>2022-07-06T10:44:57Z</time>
      </trkpt>
      <trkpt lat="42.083344" lon="-0.21096335">
        <time>2022-07-06T10:44:58Z</time>
      </trkpt>
      <trkpt lat="42.08335" lon="-0.21086735">
        <time>2022-07-06T10:44:59Z</time>
      </trkpt>
      <trkpt lat="42.08336" lon="-0.21076769">
        <time>2022-07-06T10:45:00Z</time>
      </trkpt>
      <trkpt lat="42.083363" lon="-0.21066536">
        <time>2022-07-06T10:45:01Z</time>
      </trkpt>
      <trkpt lat="42.083363" lon="-0.21056037">
        <time>2022-07-06T10:45:02Z</time>
      </trkpt>
      <trkpt lat="42.083363" lon="-0.2104527">
        <time>2022-07-06T10:45:03Z</time>
      </trkpt>
      <trkpt lat="42.08336" lon="-0.21034238">
        <time>2022-07-06T10:45:04Z</time>
      </trkpt>
      <trkpt lat="42.083355" lon="-0.21023136">
        <time>2022-07-06T10:45:05Z</time>
      </trkpt>
      <trkpt lat="42.083347" lon="-0.21011771">
        <time>2022-07-06T10:45:06Z</time>
      </trkpt>
      <trkpt lat="42.083344" lon="-0.21000105">
        <time>2022-07-06T10:45:07Z</time>
      </trkpt>
      <trkpt lat="42.08334" lon="-0.20988172">
        <time>2022-07-06T10:45:08Z</time>
      </trkpt>
      <trkpt lat="42.083336" lon="-0.20976038">
        <time>2022-07-06T10:45:09Z</time>
      </trkpt>
      <trkpt lat="42.083332" lon="-0.20963973">
        <time>2022-07-06T10:45:10Z</time>
      </trkpt>
      <trkpt lat="42.083332" lon="-0.20952073">
        <time>2022-07-06T10:45:11Z</time>
      </trkpt>
      <trkpt lat="42.083344" lon="-0.20940506">
        <time>2022-07-06T10:45:12Z</time>
      </trkpt>
      <trkpt lat="42.083366" lon="-0.20929708">
        <time>2022-07-06T10:45:13Z</time>
      </trkpt>
      <trkpt lat="42.083405" lon="-0.20919974">
        <time>2022-07-06T10:45:14Z</time>
      </trkpt>
      <trkpt lat="42.083454" lon="-0.20911475">
        <time>2022-07-06T10:45:15Z</time>
      </trkpt>
      <trkpt lat="42.08351" lon="-0.20903873">
        <time>2022-07-06T10:45:16Z</time>
      </trkpt>
      <trkpt lat="42.08358" lon="-0.20897141">
        <time>2022-07-06T10:45:17Z</time>
      </trkpt>
      <trkpt lat="42.083652" lon="-0.2089114">
        <time>2022-07-06T10:45:18Z</time>
      </trkpt>
      <trkpt lat="42.08373" lon="-0.2088564">
        <time>2022-07-06T10:45:19Z</time>
      </trkpt>
      <trkpt lat="42.08381" lon="-0.20880075">
        <time>2022-07-06T10:45:20Z</time>
      </trkpt>
      <trkpt lat="42.083885" lon="-0.20874175">
        <time>2022-07-06T10:45:21Z</time>
      </trkpt>
      <trkpt lat="42.083965" lon="-0.20867075">
        <time>2022-07-06T10:45:22Z</time>
      </trkpt>
      <trkpt lat="42.08404" lon="-0.2085951">
        <time>2022-07-06T10:45:23Z</time>
      </trkpt>
      <trkpt lat="42.084118" lon="-0.20851444">
        <time>2022-07-06T10:45:24Z</time>
      </trkpt>
      <trkpt lat="42.084187" lon="-0.20842977">
        <time>2022-07-06T10:45:25Z</time>
      </trkpt>
      <trkpt lat="42.084255" lon="-0.20834243">
        <time>2022-07-06T10:45:26Z</time>
      </trkpt>
      <trkpt lat="42.08432" lon="-0.20825177">
        <time>2022-07-06T10:45:27Z</time>
      </trkpt>
      <trkpt lat="42.08438" lon="-0.20816313">
        <time>2022-07-06T10:45:28Z</time>
      </trkpt>
      <trkpt lat="42.08444" lon="-0.20806979">
        <time>2022-07-06T10:45:29Z</time>
      </trkpt>
      <trkpt lat="42.08449" lon="-0.2079738">
        <time>2022-07-06T10:45:30Z</time>
      </trkpt>
      <trkpt lat="42.084545" lon="-0.20787713">
        <time>2022-07-06T10:45:31Z</time>
      </trkpt>
      <trkpt lat="42.08459" lon="-0.2077798">
        <time>2022-07-06T10:45:32Z</time>
      </trkpt>
      <trkpt lat="42.084633" lon="-0.20768113">
        <time>2022-07-06T10:45:33Z</time>
      </trkpt>
      <trkpt lat="42.084663" lon="-0.20758013">
        <time>2022-07-06T10:45:34Z</time>
      </trkpt>
      <trkpt lat="42.084686" lon="-0.20747548">
        <time>2022-07-06T10:45:35Z</time>
      </trkpt>
      <trkpt lat="42.084694" lon="-0.20735882">
        <time>2022-07-06T10:45:36Z</time>
      </trkpt>
      <trkpt lat="42.084694" lon="-0.20724282">
        <time>2022-07-06T10:45:37Z</time>
      </trkpt>
      <trkpt lat="42.084682" lon="-0.20713715">
        <time>2022-07-06T10:45:38Z</time>
      </trkpt>
      <trkpt lat="42.08467" lon="-0.2070295">
        <time>2022-07-06T10:45:39Z</time>
      </trkpt>
      <trkpt lat="42.084652" lon="-0.2069195">
        <time>2022-07-06T10:45:40Z</time>
      </trkpt>
      <trkpt lat="42.08464" lon="-0.2068065">
        <time>2022-07-06T10:45:41Z</time>
      </trkpt>
      <trkpt lat="42.084637" lon="-0.2066825">
        <time>2022-07-06T10:45:42Z</time>
      </trkpt>
      <trkpt lat="42.084644" lon="-0.2065605">
        <time>2022-07-06T10:45:43Z</time>
      </trkpt>
      <trkpt lat="42.084663" lon="-0.20644884">
        <time>2022-07-06T10:45:44Z</time>
      </trkpt>
      <trkpt lat="42.084698" lon="-0.20634018">
        <time>2022-07-06T10:45:45Z</time>
      </trkpt>
      <trkpt lat="42.084743" lon="-0.20623586">
        <time>2022-07-06T10:45:46Z</time>
      </trkpt>
      <trkpt lat="42.084797" lon="-0.20613386">
        <time>2022-07-06T10:45:47Z</time>
      </trkpt>
      <trkpt lat="42.084866" lon="-0.2060272">
        <time>2022-07-06T10:45:48Z</time>
      </trkpt>
      <trkpt lat="42.084927" lon="-0.20592786">
        <time>2022-07-06T10:45:49Z</time>
      </trkpt>
      <trkpt lat="42.084995" lon="-0.2058252">
        <time>2022-07-06T10:45:50Z</time>
      </trkpt>
      <trkpt lat="42.085068" lon="-0.2057222">
        <time>2022-07-06T10:45:51Z</time>
      </trkpt>
      <trkpt lat="42.085148" lon="-0.20561387">
        <time>2022-07-06T10:45:52Z</time>
      </trkpt>
      <trkpt lat="42.08523" lon="-0.20550954">
        <time>2022-07-06T10:45:53Z</time>
      </trkpt>
      <trkpt lat="42.08539" lon="-0.20531854">
        <time>2022-07-06T10:45:55Z</time>
      </trkpt>
      <trkpt lat="42.085476" lon="-0.20523287">
        <time>2022-07-06T10:45:56Z</time>
      </trkpt>
      <trkpt lat="42.085564" lon="-0.20515887">
        <time>2022-07-06T10:45:57Z</time>
      </trkpt>
      <trkpt lat="42.085655" lon="-0.20509855">
        <time>2022-07-06T10:45:58Z</time>
      </trkpt>
      <trkpt lat="42.08575" lon="-0.20505054">
        <time>2022-07-06T10:45:59Z</time>
      </trkpt>
      <trkpt lat="42.085846" lon="-0.20501456">
        <time>2022-07-06T10:46:00Z</time>
      </trkpt>
      <trkpt lat="42.08595" lon="-0.20498955">
        <time>2022-07-06T10:46:01Z</time>
      </trkpt>
      <trkpt lat="42.086052" lon="-0.20497355">
        <time>2022-07-06T10:46:02Z</time>
      </trkpt>
      <trkpt lat="42.08615" lon="-0.20496422">
        <time>2022-07-06T10:46:03Z</time>
      </trkpt>
      <trkpt lat="42.08625" lon="-0.20495856">
        <time>2022-07-06T10:46:04Z</time>
      </trkpt>
      <trkpt lat="42.086346" lon="-0.2049559">
        <time>2022-07-06T10:46:05Z</time>
      </trkpt>
      <trkpt lat="42.086433" lon="-0.20495456">
        <time>2022-07-06T10:46:06Z</time>
      </trkpt>
      <trkpt lat="42.086517" lon="-0.20495257">
        <time>2022-07-06T10:46:07Z</time>
      </trkpt>
      <trkpt lat="42.086597" lon="-0.20494857">
        <time>2022-07-06T10:46:08Z</time>
      </trkpt>
      <trkpt lat="42.086678" lon="-0.20494157">
        <time>2022-07-06T10:46:09Z</time>
      </trkpt>
      <trkpt lat="42.086754" lon="-0.20493124">
        <time>2022-07-06T10:46:10Z</time>
      </trkpt>
      <trkpt lat="42.08683" lon="-0.20491858">
        <time>2022-07-06T10:46:11Z</time>
      </trkpt>
      <trkpt lat="42.0869" lon="-0.20490324">
        <time>2022-07-06T10:46:12Z</time>
      </trkpt>
      <trkpt lat="42.086967" lon="-0.20488925">
        <time>2022-07-06T10:46:13Z</time>
      </trkpt>
      <trkpt lat="42.087032" lon="-0.20487592">
        <time>2022-07-06T10:46:14Z</time>
      </trkpt>
      <trkpt lat="42.087116" lon="-0.20486227">
        <time>2022-07-06T10:46:16Z</time>
      </trkpt>
      <trkpt lat="42.08719" lon="-0.2048486">
        <time>2022-07-06T10:46:17Z</time>
      </trkpt>
      <trkpt lat="42.087257" lon="-0.20483427">
        <time>2022-07-06T10:46:18Z</time>
      </trkpt>
      <trkpt lat="42.087322" lon="-0.20481993">
        <time>2022-07-06T10:46:19Z</time>
      </trkpt>
      <trkpt lat="42.08738" lon="-0.20480494">
        <time>2022-07-06T10:46:20Z</time>
      </trkpt>
      <trkpt lat="42.08744" lon="-0.20478961">
        <time>2022-07-06T10:46:21Z</time>
      </trkpt>
      <trkpt lat="42.0875" lon="-0.20477395">
        <time>2022-07-06T10:46:22Z</time>
      </trkpt>
      <trkpt lat="42.08756" lon="-0.20475861">
        <time>2022-07-06T10:46:23Z</time>
      </trkpt>
      <trkpt lat="42.087616" lon="-0.2047433">
        <time>2022-07-06T10:46:24Z</time>
      </trkpt>
      <trkpt lat="42.087673" lon="-0.20472896">
        <time>2022-07-06T10:46:25Z</time>
      </trkpt>
      <trkpt lat="42.087734" lon="-0.20471463">
        <time>2022-07-06T10:46:26Z</time>
      </trkpt>
      <trkpt lat="42.087795" lon="-0.20470063">
        <time>2022-07-06T10:46:27Z</time>
      </trkpt>
      <trkpt lat="42.087856" lon="-0.20468597">
        <time>2022-07-06T10:46:28Z</time>
      </trkpt>
      <trkpt lat="42.087917" lon="-0.20467263">
        <time>2022-07-06T10:46:29Z</time>
      </trkpt>
      <trkpt lat="42.087982" lon="-0.20465864">
        <time>2022-07-06T10:46:30Z</time>
      </trkpt>
      <trkpt lat="42.08805" lon="-0.20464398">
        <time>2022-07-06T10:46:31Z</time>
      </trkpt>
      <trkpt lat="42.088123" lon="-0.20462765">
        <time>2022-07-06T10:46:32Z</time>
      </trkpt>
      <trkpt lat="42.088196" lon="-0.20460932">
        <time>2022-07-06T10:46:33Z</time>
      </trkpt>
      <trkpt lat="42.08827" lon="-0.204589">
        <time>2022-07-06T10:46:34Z</time>
      </trkpt>
      <trkpt lat="42.088345" lon="-0.20456766">
        <time>2022-07-06T10:46:35Z</time>
      </trkpt>
      <trkpt lat="42.08843" lon="-0.20454334">
        <time>2022-07-06T10:46:36Z</time>
      </trkpt>
      <trkpt lat="42.088512" lon="-0.20451634">
        <time>2022-07-06T10:46:37Z</time>
      </trkpt>
      <trkpt lat="42.088593" lon="-0.20448367">
        <time>2022-07-06T10:46:38Z</time>
      </trkpt>
      <trkpt lat="42.08867" lon="-0.204445">
        <time>2022-07-06T10:46:39Z</time>
      </trkpt>
      <trkpt lat="42.08874" lon="-0.20439868">
        <time>2022-07-06T10:46:40Z</time>
      </trkpt>
      <trkpt lat="42.08881" lon="-0.20434535">
        <time>2022-07-06T10:46:41Z</time>
      </trkpt>
      <trkpt lat="42.08887" lon="-0.20428902">
        <time>2022-07-06T10:46:42Z</time>
      </trkpt>
      <trkpt lat="42.08893" lon="-0.20421901">
        <time>2022-07-06T10:46:43Z</time>
      </trkpt>
      <trkpt lat="42.088978" lon="-0.20414469">
        <time>2022-07-06T10:46:44Z</time>
      </trkpt>
      <trkpt lat="42.08902" lon="-0.2040667">
        <time>2022-07-06T10:46:45Z</time>
      </trkpt>
      <trkpt lat="42.089054" lon="-0.20398703">
        <time>2022-07-06T10:46:46Z</time>
      </trkpt>
      <trkpt lat="42.089085" lon="-0.20390803">
        <time>2022-07-06T10:46:47Z</time>
      </trkpt>
      <trkpt lat="42.089108" lon="-0.20383337">
        <time>2022-07-06T10:46:48Z</time>
      </trkpt>
      <trkpt lat="42.089127" lon="-0.2037577">
        <time>2022-07-06T10:46:49Z</time>
      </trkpt>
      <trkpt lat="42.089146" lon="-0.20368305">
        <time>2022-07-06T10:46:50Z</time>
      </trkpt>
      <trkpt lat="42.089165" lon="-0.20360672">
        <time>2022-07-06T10:46:51Z</time>
      </trkpt>
      <trkpt lat="42.089184" lon="-0.20353971">
        <time>2022-07-06T10:46:52Z</time>
      </trkpt>
      <trkpt lat="42.0892" lon="-0.20347506">
        <time>2022-07-06T10:46:53Z</time>
      </trkpt>
      <trkpt lat="42.089214" lon="-0.20340906">
        <time>2022-07-06T10:46:54Z</time>
      </trkpt>
      <trkpt lat="42.089237" lon="-0.2032874">
        <time>2022-07-06T10:46:56Z</time>
      </trkpt>
      <trkpt lat="42.089264" lon="-0.2031804">
        <time>2022-07-06T10:46:58Z</time>
      </trkpt>
      <trkpt lat="42.089287" lon="-0.20308007">
        <time>2022-07-06T10:47:00Z</time>
      </trkpt>
      <trkpt lat="42.089306" lon="-0.20298675">
        <time>2022-07-06T10:47:02Z</time>
      </trkpt>
      <trkpt lat="42.089325" lon="-0.2029034">
        <time>2022-07-06T10:47:04Z</time>
      </trkpt>
      <trkpt lat="42.08934" lon="-0.20282476">
        <time>2022-07-06T10:47:06Z</time>
      </trkpt>
      <trkpt lat="42.08936" lon="-0.20274675">
        <time>2022-07-06T10:47:08Z</time>
      </trkpt>
      <trkpt lat="42.08938" lon="-0.20266674">
        <time>2022-07-06T10:47:10Z</time>
      </trkpt>
      <trkpt lat="42.089394" lon="-0.20258309">
        <time>2022-07-06T10:47:12Z</time>
      </trkpt>
      <trkpt lat="42.08941" lon="-0.20250408">
        <time>2022-07-06T10:47:14Z</time>
      </trkpt>
      <trkpt lat="42.089424" lon="-0.20242876">
        <time>2022-07-06T10:47:16Z</time>
      </trkpt>
      <trkpt lat="42.08944" lon="-0.20235176">
        <time>2022-07-06T10:47:18Z</time>
      </trkpt>
      <trkpt lat="42.08946" lon="-0.2022701">
        <time>2022-07-06T10:47:20Z</time>
      </trkpt>
      <trkpt lat="42.089474" lon="-0.2021941">
        <time>2022-07-06T10:47:22Z</time>
      </trkpt>
      <trkpt lat="42.089497" lon="-0.2021161">
        <time>2022-07-06T10:47:24Z</time>
      </trkpt>
      <trkpt lat="42.08951" lon="-0.20204444">
        <time>2022-07-06T10:47:26Z</time>
      </trkpt>
      <trkpt lat="42.089527" lon="-0.20196778">
        <time>2022-07-06T10:47:28Z</time>
      </trkpt>
      <trkpt lat="42.089542" lon="-0.20189045">
        <time>2022-07-06T10:47:30Z</time>
      </trkpt>
      <trkpt lat="42.089554" lon="-0.20180845">
        <time>2022-07-06T10:47:32Z</time>
      </trkpt>
      <trkpt lat="42.089565" lon="-0.20172513">
        <time>2022-07-06T10:47:34Z</time>
      </trkpt>
      <trkpt lat="42.089573" lon="-0.2016338">
        <time>2022-07-06T10:47:36Z</time>
      </trkpt>
      <trkpt lat="42.089577" lon="-0.2015438">
        <time>2022-07-06T10:47:38Z</time>
      </trkpt>
      <trkpt lat="42.08958" lon="-0.20145246">
        <time>2022-07-06T10:47:40Z</time>
      </trkpt>
      <trkpt lat="42.089584" lon="-0.20136213">
        <time>2022-07-06T10:47:42Z</time>
      </trkpt>
      <trkpt lat="42.089584" lon="-0.20127347">
        <time>2022-07-06T10:47:44Z</time>
      </trkpt>
      <trkpt lat="42.08958" lon="-0.20118546">
        <time>2022-07-06T10:47:46Z</time>
      </trkpt>
      <trkpt lat="42.089573" lon="-0.20108981">
        <time>2022-07-06T10:47:48Z</time>
      </trkpt>
      <trkpt lat="42.089565" lon="-0.20099647">
        <time>2022-07-06T10:47:50Z</time>
      </trkpt>
      <trkpt lat="42.08956" lon="-0.20089915">
        <time>2022-07-06T10:47:52Z</time>
      </trkpt>
      <trkpt lat="42.089558" lon="-0.20080715">
        <time>2022-07-06T10:47:54Z</time>
      </trkpt>
      <trkpt lat="42.089554" lon="-0.20070982">
        <time>2022-07-06T10:47:56Z</time>
      </trkpt>
      <trkpt lat="42.08955" lon="-0.20060916">
        <time>2022-07-06T10:47:58Z</time>
      </trkpt>
      <trkpt lat="42.08955" lon="-0.20050816">
        <time>2022-07-06T10:48:00Z</time>
      </trkpt>
      <trkpt lat="42.089558" lon="-0.20039916">
        <time>2022-07-06T10:48:02Z</time>
      </trkpt>
      <trkpt lat="42.08957" lon="-0.2002905">
        <time>2022-07-06T10:48:04Z</time>
      </trkpt>
      <trkpt lat="42.0896" lon="-0.20012884">
        <time>2022-07-06T10:48:07Z</time>
      </trkpt>
      <trkpt lat="42.089626" lon="-0.20001283">
        <time>2022-07-06T10:48:09Z</time>
      </trkpt>
      <trkpt lat="42.089657" lon="-0.19988951">
        <time>2022-07-06T10:48:11Z</time>
      </trkpt>
      <trkpt lat="42.089676" lon="-0.19982651">
        <time>2022-07-06T10:48:12Z</time>
      </trkpt>
      <trkpt lat="42.0897" lon="-0.1997635">
        <time>2022-07-06T10:48:13Z</time>
      </trkpt>
      <trkpt lat="42.089737" lon="-0.19963717">
        <time>2022-07-06T10:48:15Z</time>
      </trkpt>
      <trkpt lat="42.089775" lon="-0.19950952">
        <time>2022-07-06T10:48:17Z</time>
      </trkpt>
      <trkpt lat="42.08979" lon="-0.19944419">
        <time>2022-07-06T10:48:18Z</time>
      </trkpt>
      <trkpt lat="42.08981" lon="-0.19937919">
        <time>2022-07-06T10:48:19Z</time>
      </trkpt>
      <trkpt lat="42.08985" lon="-0.19924752">
        <time>2022-07-06T10:48:21Z</time>
      </trkpt>
      <trkpt lat="42.08987" lon="-0.19918187">
        <time>2022-07-06T10:48:22Z</time>
      </trkpt>
      <trkpt lat="42.089893" lon="-0.19911821">
        <time>2022-07-06T10:48:23Z</time>
      </trkpt>
      <trkpt lat="42.089912" lon="-0.19905555">
        <time>2022-07-06T10:48:24Z</time>
      </trkpt>
      <trkpt lat="42.089954" lon="-0.19893955">
        <time>2022-07-06T10:48:26Z</time>
      </trkpt>
      <trkpt lat="42.089996" lon="-0.19881421">
        <time>2022-07-06T10:48:28Z</time>
      </trkpt>
      <trkpt lat="42.09003" lon="-0.19869222">
        <time>2022-07-06T10:48:30Z</time>
      </trkpt>
      <trkpt lat="42.090057" lon="-0.1985689">
        <time>2022-07-06T10:48:32Z</time>
      </trkpt>
      <trkpt lat="42.090073" lon="-0.19850656">
        <time>2022-07-06T10:48:33Z</time>
      </trkpt>
      <trkpt lat="42.090107" lon="-0.19838156">
        <time>2022-07-06T10:48:35Z</time>
      </trkpt>
      <trkpt lat="42.09014" lon="-0.19826123">
        <time>2022-07-06T10:48:37Z</time>
      </trkpt>
      <trkpt lat="42.09018" lon="-0.1981429">
        <time>2022-07-06T10:48:39Z</time>
      </trkpt>
      <trkpt lat="42.0902" lon="-0.19808456">
        <time>2022-07-06T10:48:40Z</time>
      </trkpt>
      <trkpt lat="42.090237" lon="-0.19796924">
        <time>2022-07-06T10:48:42Z</time>
      </trkpt>
      <trkpt lat="42.09028" lon="-0.19785258">
        <time>2022-07-06T10:48:44Z</time>
      </trkpt>
      <trkpt lat="42.09032" lon="-0.19773225">
        <time>2022-07-06T10:48:46Z</time>
      </trkpt>
      <trkpt lat="42.090374" lon="-0.19761159">
        <time>2022-07-06T10:48:48Z</time>
      </trkpt>
      <trkpt lat="42.090405" lon="-0.19754925">
        <time>2022-07-06T10:48:49Z</time>
      </trkpt>
      <trkpt lat="42.09044" lon="-0.19748794">
        <time>2022-07-06T10:48:50Z</time>
      </trkpt>
      <trkpt lat="42.090473" lon="-0.1974266">
        <time>2022-07-06T10:48:51Z</time>
      </trkpt>
      <trkpt lat="42.090508" lon="-0.19736394">
        <time>2022-07-06T10:48:52Z</time>
      </trkpt>
      <trkpt lat="42.090538" lon="-0.19730394">
        <time>2022-07-06T10:48:53Z</time>
      </trkpt>
      <trkpt lat="42.090565" lon="-0.1972406">
        <time>2022-07-06T10:48:54Z</time>
      </trkpt>
      <trkpt lat="42.09059" lon="-0.19717328">
        <time>2022-07-06T10:48:55Z</time>
      </trkpt>
      <trkpt lat="42.090614" lon="-0.19710162">
        <time>2022-07-06T10:48:56Z</time>
      </trkpt>
      <trkpt lat="42.09063" lon="-0.19702528">
        <time>2022-07-06T10:48:57Z</time>
      </trkpt>
      <trkpt lat="42.090645" lon="-0.19694462">
        <time>2022-07-06T10:48:58Z</time>
      </trkpt>
      <trkpt lat="42.090656" lon="-0.19685963">
        <time>2022-07-06T10:48:59Z</time>
      </trkpt>
      <trkpt lat="42.090668" lon="-0.19677164">
        <time>2022-07-06T10:49:00Z</time>
      </trkpt>
      <trkpt lat="42.090675" lon="-0.19668064">
        <time>2022-07-06T10:49:01Z</time>
      </trkpt>
      <trkpt lat="42.090687" lon="-0.1965873">
        <time>2022-07-06T10:49:02Z</time>
      </trkpt>
      <trkpt lat="42.0907" lon="-0.19649164">
        <time>2022-07-06T10:49:03Z</time>
      </trkpt>
      <trkpt lat="42.090714" lon="-0.19639398">
        <time>2022-07-06T10:49:04Z</time>
      </trkpt>
      <trkpt lat="42.090736" lon="-0.19629565">
        <time>2022-07-06T10:49:05Z</time>
      </trkpt>
      <trkpt lat="42.090767" lon="-0.19619098">
        <time>2022-07-06T10:49:06Z</time>
      </trkpt>
      <trkpt lat="42.0908" lon="-0.19608933">
        <time>2022-07-06T10:49:07Z</time>
      </trkpt>
      <trkpt lat="42.09083" lon="-0.19599733">
        <time>2022-07-06T10:49:08Z</time>
      </trkpt>
      <trkpt lat="42.090866" lon="-0.195906">
        <time>2022-07-06T10:49:09Z</time>
      </trkpt>
      <trkpt lat="42.0909" lon="-0.19581534">
        <time>2022-07-06T10:49:10Z</time>
      </trkpt>
      <trkpt lat="42.090935" lon="-0.19572534">
        <time>2022-07-06T10:49:11Z</time>
      </trkpt>
      <trkpt lat="42.091003" lon="-0.19555034">
        <time>2022-07-06T10:49:13Z</time>
      </trkpt>
      <trkpt lat="42.09104" lon="-0.19546033">
        <time>2022-07-06T10:49:14Z</time>
      </trkpt>
      <trkpt lat="42.091076" lon="-0.19538067">
        <time>2022-07-06T10:49:15Z</time>
      </trkpt>
      <trkpt lat="42.09112" lon="-0.19530036">
        <time>2022-07-06T10:49:16Z</time>
      </trkpt>
      <trkpt lat="42.091164" lon="-0.19522835">
        <time>2022-07-06T10:49:17Z</time>
      </trkpt>
      <trkpt lat="42.091213" lon="-0.1951647">
        <time>2022-07-06T10:49:18Z</time>
      </trkpt>
      <trkpt lat="42.091255" lon="-0.19511169">
        <time>2022-07-06T10:49:19Z</time>
      </trkpt>
      <trkpt lat="42.091297" lon="-0.1950637">
        <time>2022-07-06T10:49:20Z</time>
      </trkpt>
      <trkpt lat="42.09134" lon="-0.19502003">
        <time>2022-07-06T10:49:21Z</time>
      </trkpt>
      <trkpt lat="42.091377" lon="-0.19498037">
        <time>2022-07-06T10:49:22Z</time>
      </trkpt>
      <trkpt lat="42.09144" lon="-0.19491272">
        <time>2022-07-06T10:49:24Z</time>
      </trkpt>
      <trkpt lat="42.091496" lon="-0.1948567">
        <time>2022-07-06T10:49:26Z</time>
      </trkpt>
      <trkpt lat="42.091545" lon="-0.19480339">
        <time>2022-07-06T10:49:28Z</time>
      </trkpt>
      <trkpt lat="42.09159" lon="-0.19474205">
        <time>2022-07-06T10:49:30Z</time>
      </trkpt>
      <trkpt lat="42.09164" lon="-0.19467773">
        <time>2022-07-06T10:49:32Z</time>
      </trkpt>
      <trkpt lat="42.091686" lon="-0.19461039">
        <time>2022-07-06T10:49:34Z</time>
      </trkpt>
      <trkpt lat="42.091732" lon="-0.19453806">
        <time>2022-07-06T10:49:36Z</time>
      </trkpt>
      <trkpt lat="42.091774" lon="-0.1944644">
        <time>2022-07-06T10:49:38Z</time>
      </trkpt>
      <trkpt lat="42.09182" lon="-0.19439407">
        <time>2022-07-06T10:49:40Z</time>
      </trkpt>
      <trkpt lat="42.091858" lon="-0.19432274">
        <time>2022-07-06T10:49:42Z</time>
      </trkpt>
      <trkpt lat="42.09189" lon="-0.19425441">
        <time>2022-07-06T10:49:44Z</time>
      </trkpt>
      <trkpt lat="42.09192" lon="-0.19419408">
        <time>2022-07-06T10:49:46Z</time>
      </trkpt>
      <trkpt lat="42.091953" lon="-0.19411142">
        <time>2022-07-06T10:49:49Z</time>
      </trkpt>
      <trkpt lat="42.09199" lon="-0.19404176">
        <time>2022-07-06T10:49:52Z</time>
      </trkpt>
      <trkpt lat="42.09203" lon="-0.1939741">
        <time>2022-07-06T10:49:55Z</time>
      </trkpt>
      <trkpt lat="42.092083" lon="-0.19390944">
        <time>2022-07-06T10:49:58Z</time>
      </trkpt>
      <trkpt lat="42.092125" lon="-0.19386812">
        <time>2022-07-06T10:50:00Z</time>
      </trkpt>
      <trkpt lat="42.092175" lon="-0.19384079">
        <time>2022-07-06T10:50:02Z</time>
      </trkpt>
      <trkpt lat="42.092247" lon="-0.19383112">
        <time>2022-07-06T10:50:04Z</time>
      </trkpt>
      <trkpt lat="42.09232" lon="-0.19382446">
        <time>2022-07-06T10:50:06Z</time>
      </trkpt>
      <trkpt lat="42.092396" lon="-0.19380745">
        <time>2022-07-06T10:50:08Z</time>
      </trkpt>
      <trkpt lat="42.092453" lon="-0.1937848">
        <time>2022-07-06T10:50:10Z</time>
      </trkpt>
      <trkpt lat="42.092503" lon="-0.19376314">
        <time>2022-07-06T10:50:14Z</time>
      </trkpt>
      <trkpt lat="42.092514" lon="-0.19365048">
        <time>2022-07-06T10:52:11Z</time>
      </trkpt>
      <trkpt lat="42.09248" lon="-0.19357248">
        <time>2022-07-06T10:52:13Z</time>
      </trkpt>
      <trkpt lat="42.09244" lon="-0.19348314">
        <time>2022-07-06T10:52:15Z</time>
      </trkpt>
      <trkpt lat="42.0924" lon="-0.1933875">
        <time>2022-07-06T10:52:17Z</time>
      </trkpt>
      <trkpt lat="42.092342" lon="-0.19325516">
        <time>2022-07-06T10:52:20Z</time>
      </trkpt>
      <trkpt lat="42.0923" lon="-0.19315884">
        <time>2022-07-06T10:52:22Z</time>
      </trkpt>
      <trkpt lat="42.092255" lon="-0.19305883">
        <time>2022-07-06T10:52:24Z</time>
      </trkpt>
      <trkpt lat="42.09222" lon="-0.19295117">
        <time>2022-07-06T10:52:26Z</time>
      </trkpt>
      <trkpt lat="42.092213" lon="-0.1928395">
        <time>2022-07-06T10:52:28Z</time>
      </trkpt>
      <trkpt lat="42.092243" lon="-0.19274884">
        <time>2022-07-06T10:52:30Z</time>
      </trkpt>
      <trkpt lat="42.092297" lon="-0.19267584">
        <time>2022-07-06T10:52:32Z</time>
      </trkpt>
      <trkpt lat="42.092358" lon="-0.19261685">
        <time>2022-07-06T10:52:34Z</time>
      </trkpt>
      <trkpt lat="42.092407" lon="-0.19257219">
        <time>2022-07-06T10:52:36Z</time>
      </trkpt>
      <trkpt lat="42.09244" lon="-0.19252953">
        <time>2022-07-06T10:52:38Z</time>
      </trkpt>
      <trkpt lat="42.09248" lon="-0.1924762">
        <time>2022-07-06T10:52:41Z</time>
      </trkpt>
      <trkpt lat="42.09251" lon="-0.19242054">
        <time>2022-07-06T10:52:44Z</time>
      </trkpt>
      <trkpt lat="42.092575" lon="-0.19230954">
        <time>2022-07-06T10:53:37Z</time>
      </trkpt>
      <trkpt lat="42.09261" lon="-0.19221722">
        <time>2022-07-06T10:53:39Z</time>
      </trkpt>
      <trkpt lat="42.09264" lon="-0.19210956">
        <time>2022-07-06T10:53:41Z</time>
      </trkpt>
      <trkpt lat="42.092667" lon="-0.19199389">
        <time>2022-07-06T10:53:43Z</time>
      </trkpt>
      <trkpt lat="42.092686" lon="-0.19187424">
        <time>2022-07-06T10:53:45Z</time>
      </trkpt>
      <trkpt lat="42.09271" lon="-0.19175157">
        <time>2022-07-06T10:53:47Z</time>
      </trkpt>
      <trkpt lat="42.092716" lon="-0.19168857">
        <time>2022-07-06T10:53:48Z</time>
      </trkpt>
      <trkpt lat="42.092743" lon="-0.19156323">
        <time>2022-07-06T10:53:50Z</time>
      </trkpt>
      <trkpt lat="42.09276" lon="-0.19150057">
        <time>2022-07-06T10:53:51Z</time>
      </trkpt>
      <trkpt lat="42.092785" lon="-0.19137758">
        <time>2022-07-06T10:53:53Z</time>
      </trkpt>
      <trkpt lat="42.09281" lon="-0.19125693">
        <time>2022-07-06T10:53:55Z</time>
      </trkpt>
      <trkpt lat="42.09284" lon="-0.19114026">
        <time>2022-07-06T10:53:57Z</time>
      </trkpt>
      <trkpt lat="42.09286" lon="-0.1910296">
        <time>2022-07-06T10:53:59Z</time>
      </trkpt>
      <trkpt lat="42.092888" lon="-0.1909246">
        <time>2022-07-06T10:54:01Z</time>
      </trkpt>
      <trkpt lat="42.092907" lon="-0.1908136">
        <time>2022-07-06T10:54:03Z</time>
      </trkpt>
      <trkpt lat="42.09292" lon="-0.19071227">
        <time>2022-07-06T10:54:05Z</time>
      </trkpt>
      <trkpt lat="42.092922" lon="-0.19060494">
        <time>2022-07-06T10:54:07Z</time>
      </trkpt>
      <trkpt lat="42.092922" lon="-0.1904986">
        <time>2022-07-06T10:54:09Z</time>
      </trkpt>
      <trkpt lat="42.09292" lon="-0.19040328">
        <time>2022-07-06T10:54:11Z</time>
      </trkpt>
      <trkpt lat="42.09291" lon="-0.19030827">
        <time>2022-07-06T10:54:13Z</time>
      </trkpt>
      <trkpt lat="42.0929" lon="-0.19021328">
        <time>2022-07-06T10:54:15Z</time>
      </trkpt>
      <trkpt lat="42.09288" lon="-0.19011928">
        <time>2022-07-06T10:54:17Z</time>
      </trkpt>
      <trkpt lat="42.092854" lon="-0.19002394">
        <time>2022-07-06T10:54:19Z</time>
      </trkpt>
      <trkpt lat="42.092823" lon="-0.18992795">
        <time>2022-07-06T10:54:21Z</time>
      </trkpt>
      <trkpt lat="42.09279" lon="-0.18983029">
        <time>2022-07-06T10:54:23Z</time>
      </trkpt>
      <trkpt lat="42.092747" lon="-0.18973228">
        <time>2022-07-06T10:54:25Z</time>
      </trkpt>
      <trkpt lat="42.092674" lon="-0.18957628">
        <time>2022-07-06T10:54:28Z</time>
      </trkpt>
      <trkpt lat="42.092625" lon="-0.18946129">
        <time>2022-07-06T10:54:30Z</time>
      </trkpt>
      <trkpt lat="42.09257" lon="-0.18934229">
        <time>2022-07-06T10:54:32Z</time>
      </trkpt>
      <trkpt lat="42.092518" lon="-0.1892203">
        <time>2022-07-06T10:54:34Z</time>
      </trkpt>
      <trkpt lat="42.09249" lon="-0.18915763">
        <time>2022-07-06T10:54:35Z</time>
      </trkpt>
      <trkpt lat="42.09246" lon="-0.1890943">
        <time>2022-07-06T10:54:36Z</time>
      </trkpt>
      <trkpt lat="42.09243" lon="-0.18902896">
        <time>2022-07-06T10:54:37Z</time>
      </trkpt>
      <trkpt lat="42.092396" lon="-0.18896197">
        <time>2022-07-06T10:54:38Z</time>
      </trkpt>
      <trkpt lat="42.092365" lon="-0.1888933">
        <time>2022-07-06T10:54:39Z</time>
      </trkpt>
      <trkpt lat="42.092335" lon="-0.18882366">
        <time>2022-07-06T10:54:40Z</time>
      </trkpt>
      <trkpt lat="42.092304" lon="-0.188753">
        <time>2022-07-06T10:54:41Z</time>
      </trkpt>
      <trkpt lat="42.092274" lon="-0.18868133">
        <time>2022-07-06T10:54:42Z</time>
      </trkpt>
      <trkpt lat="42.09224" lon="-0.18860734">
        <time>2022-07-06T10:54:43Z</time>
      </trkpt>
      <trkpt lat="42.092205" lon="-0.18852668">
        <time>2022-07-06T10:54:44Z</time>
      </trkpt>
      <trkpt lat="42.09217" lon="-0.18844567">
        <time>2022-07-06T10:54:45Z</time>
      </trkpt>
      <trkpt lat="42.09214" lon="-0.18836933">
        <time>2022-07-06T10:54:46Z</time>
      </trkpt>
      <trkpt lat="42.092113" lon="-0.18829001">
        <time>2022-07-06T10:54:47Z</time>
      </trkpt>
      <trkpt lat="42.092083" lon="-0.18821001">
        <time>2022-07-06T10:54:48Z</time>
      </trkpt>
      <trkpt lat="42.092052" lon="-0.18812801">
        <time>2022-07-06T10:54:49Z</time>
      </trkpt>
      <trkpt lat="42.09202" lon="-0.18803935">
        <time>2022-07-06T10:54:50Z</time>
      </trkpt>
      <trkpt lat="42.091988" lon="-0.18795569">
        <time>2022-07-06T10:54:51Z</time>
      </trkpt>
      <trkpt lat="42.091953" lon="-0.1878707">
        <time>2022-07-06T10:54:52Z</time>
      </trkpt>
      <trkpt lat="42.091923" lon="-0.18778403">
        <time>2022-07-06T10:54:53Z</time>
      </trkpt>
      <trkpt lat="42.091892" lon="-0.1876957">
        <time>2022-07-06T10:54:54Z</time>
      </trkpt>
      <trkpt lat="42.09186" lon="-0.18760504">
        <time>2022-07-06T10:54:55Z</time>
      </trkpt>
      <trkpt lat="42.091835" lon="-0.18751304">
        <time>2022-07-06T10:54:56Z</time>
      </trkpt>
      <trkpt lat="42.09181" lon="-0.18741804">
        <time>2022-07-06T10:54:57Z</time>
      </trkpt>
      <trkpt lat="42.091785" lon="-0.18732004">
        <time>2022-07-06T10:54:58Z</time>
      </trkpt>
      <trkpt lat="42.091763" lon="-0.18722004">
        <time>2022-07-06T10:54:59Z</time>
      </trkpt>
      <trkpt lat="42.091747" lon="-0.18711704">
        <time>2022-07-06T10:55:00Z</time>
      </trkpt>
      <trkpt lat="42.091732" lon="-0.18701237">
        <time>2022-07-06T10:55:01Z</time>
      </trkpt>
      <trkpt lat="42.091724" lon="-0.18690605">
        <time>2022-07-06T10:55:02Z</time>
      </trkpt>
      <trkpt lat="42.09172" lon="-0.1867974">
        <time>2022-07-06T10:55:03Z</time>
      </trkpt>
      <trkpt lat="42.09172" lon="-0.18668538">
        <time>2022-07-06T10:55:04Z</time>
      </trkpt>
      <trkpt lat="42.091724" lon="-0.18657139">
        <time>2022-07-06T10:55:05Z</time>
      </trkpt>
      <trkpt lat="42.091732" lon="-0.18645605">
        <time>2022-07-06T10:55:06Z</time>
      </trkpt>
      <trkpt lat="42.091743" lon="-0.18633872">
        <time>2022-07-06T10:55:07Z</time>
      </trkpt>
      <trkpt lat="42.09176" lon="-0.1862194">
        <time>2022-07-06T10:55:08Z</time>
      </trkpt>
      <trkpt lat="42.09177" lon="-0.1860984">
        <time>2022-07-06T10:55:09Z</time>
      </trkpt>
      <trkpt lat="42.091778" lon="-0.18597707">
        <time>2022-07-06T10:55:10Z</time>
      </trkpt>
      <trkpt lat="42.091774" lon="-0.18584707">
        <time>2022-07-06T10:55:11Z</time>
      </trkpt>
      <trkpt lat="42.091763" lon="-0.18572107">
        <time>2022-07-06T10:55:12Z</time>
      </trkpt>
      <trkpt lat="42.091743" lon="-0.18560807">
        <time>2022-07-06T10:55:13Z</time>
      </trkpt>
      <trkpt lat="42.09171" lon="-0.18549041">
        <time>2022-07-06T10:55:14Z</time>
      </trkpt>
      <trkpt lat="42.091667" lon="-0.18537708">
        <time>2022-07-06T10:55:15Z</time>
      </trkpt>
      <trkpt lat="42.09162" lon="-0.18526575">
        <time>2022-07-06T10:55:16Z</time>
      </trkpt>
      <trkpt lat="42.09158" lon="-0.18515342">
        <time>2022-07-06T10:55:17Z</time>
      </trkpt>
      <trkpt lat="42.09154" lon="-0.18504676">
        <time>2022-07-06T10:55:18Z</time>
      </trkpt>
      <trkpt lat="42.091507" lon="-0.18493275">
        <time>2022-07-06T10:55:19Z</time>
      </trkpt>
      <trkpt lat="42.09148" lon="-0.18481477">
        <time>2022-07-06T10:55:20Z</time>
      </trkpt>
      <trkpt lat="42.091465" lon="-0.1846851">
        <time>2022-07-06T10:55:21Z</time>
      </trkpt>
      <trkpt lat="42.091454" lon="-0.18455777">
        <time>2022-07-06T10:55:22Z</time>
      </trkpt>
      <trkpt lat="42.091446" lon="-0.18443277">
        <time>2022-07-06T10:55:23Z</time>
      </trkpt>
      <trkpt lat="42.091442" lon="-0.18431076">
        <time>2022-07-06T10:55:24Z</time>
      </trkpt>
      <trkpt lat="42.091442" lon="-0.18419345">
        <time>2022-07-06T10:55:25Z</time>
      </trkpt>
      <trkpt lat="42.091446" lon="-0.18408078">
        <time>2022-07-06T10:55:26Z</time>
      </trkpt>
      <trkpt lat="42.09145" lon="-0.18398045">
        <time>2022-07-06T10:55:27Z</time>
      </trkpt>
      <trkpt lat="42.091454" lon="-0.18388379">
        <time>2022-07-06T10:55:28Z</time>
      </trkpt>
      <trkpt lat="42.09146" lon="-0.18379278">
        <time>2022-07-06T10:55:29Z</time>
      </trkpt>
      <trkpt lat="42.091473" lon="-0.18370779">
        <time>2022-07-06T10:55:30Z</time>
      </trkpt>
      <trkpt lat="42.091488" lon="-0.18362746">
        <time>2022-07-06T10:55:31Z</time>
      </trkpt>
      <trkpt lat="42.091503" lon="-0.1835488">
        <time>2022-07-06T10:55:32Z</time>
      </trkpt>
      <trkpt lat="42.091522" lon="-0.18347713">
        <time>2022-07-06T10:55:33Z</time>
      </trkpt>
      <trkpt lat="42.09154" lon="-0.18341014">
        <time>2022-07-06T10:55:34Z</time>
      </trkpt>
      <trkpt lat="42.09156" lon="-0.18335082">
        <time>2022-07-06T10:55:35Z</time>
      </trkpt>
      <trkpt lat="42.09158" lon="-0.18329315">
        <time>2022-07-06T10:55:36Z</time>
      </trkpt>
      <trkpt lat="42.091625" lon="-0.18318349">
        <time>2022-07-06T10:55:38Z</time>
      </trkpt>
      <trkpt lat="42.091667" lon="-0.18308748">
        <time>2022-07-06T10:55:40Z</time>
      </trkpt>
      <trkpt lat="42.09173" lon="-0.18295583">
        <time>2022-07-06T10:55:43Z</time>
      </trkpt>
      <trkpt lat="42.09177" lon="-0.1828725">
        <time>2022-07-06T10:55:45Z</time>
      </trkpt>
      <trkpt lat="42.09181" lon="-0.18279018">
        <time>2022-07-06T10:55:47Z</time>
      </trkpt>
      <trkpt lat="42.091846" lon="-0.18270952">
        <time>2022-07-06T10:55:49Z</time>
      </trkpt>
      <trkpt lat="42.09188" lon="-0.1826345">
        <time>2022-07-06T10:55:51Z</time>
      </trkpt>
      <trkpt lat="42.09191" lon="-0.18256351">
        <time>2022-07-06T10:55:53Z</time>
      </trkpt>
      <trkpt lat="42.091938" lon="-0.18249752">
        <time>2022-07-06T10:55:55Z</time>
      </trkpt>
      <trkpt lat="42.091965" lon="-0.18243985">
        <time>2022-07-06T10:55:57Z</time>
      </trkpt>
      <trkpt lat="42.092007" lon="-0.18236186">
        <time>2022-07-06T10:56:00Z</time>
      </trkpt>
      <trkpt lat="42.092052" lon="-0.18229285">
        <time>2022-07-06T10:56:03Z</time>
      </trkpt>
      <trkpt lat="42.092094" lon="-0.1822272">
        <time>2022-07-06T10:56:06Z</time>
      </trkpt>
      <trkpt lat="42.092136" lon="-0.18215553">
        <time>2022-07-06T10:56:09Z</time>
      </trkpt>
      <trkpt lat="42.09218" lon="-0.18208288">
        <time>2022-07-06T10:56:12Z</time>
      </trkpt>
      <trkpt lat="42.09222" lon="-0.1820102">
        <time>2022-07-06T10:56:15Z</time>
      </trkpt>
      <trkpt lat="42.09225" lon="-0.18196088">
        <time>2022-07-06T10:56:17Z</time>
      </trkpt>
      <trkpt lat="42.092293" lon="-0.18188988">
        <time>2022-07-06T10:56:20Z</time>
      </trkpt>
      <trkpt lat="42.09234" lon="-0.18182655">
        <time>2022-07-06T10:56:23Z</time>
      </trkpt>
      <trkpt lat="42.09239" lon="-0.18176521">
        <time>2022-07-06T10:56:26Z</time>
      </trkpt>
      <trkpt lat="42.092434" lon="-0.18169689">
        <time>2022-07-06T10:56:29Z</time>
      </trkpt>
      <trkpt lat="42.092476" lon="-0.18162623">
        <time>2022-07-06T10:56:32Z</time>
      </trkpt>
      <trkpt lat="42.092518" lon="-0.18155657">
        <time>2022-07-06T10:56:35Z</time>
      </trkpt>
      <trkpt lat="42.09256" lon="-0.18148457">
        <time>2022-07-06T10:56:38Z</time>
      </trkpt>
      <trkpt lat="42.092598" lon="-0.1814139">
        <time>2022-07-06T10:56:41Z</time>
      </trkpt>
      <trkpt lat="42.09264" lon="-0.1813409">
        <time>2022-07-06T10:56:44Z</time>
      </trkpt>
      <trkpt lat="42.092678" lon="-0.1812659">
        <time>2022-07-06T10:56:47Z</time>
      </trkpt>
      <trkpt lat="42.092705" lon="-0.18121292">
        <time>2022-07-06T10:56:49Z</time>
      </trkpt>
      <trkpt lat="42.09274" lon="-0.1811379">
        <time>2022-07-06T10:56:52Z</time>
      </trkpt>
      <trkpt lat="42.09277" lon="-0.18106592">
        <time>2022-07-06T10:56:55Z</time>
      </trkpt>
      <trkpt lat="42.092808" lon="-0.18100558">
        <time>2022-07-06T10:56:58Z</time>
      </trkpt>
      <trkpt lat="42.092842" lon="-0.18094026">
        <time>2022-07-06T10:57:01Z</time>
      </trkpt>
      <trkpt lat="42.092873" lon="-0.18086992">
        <time>2022-07-06T10:57:04Z</time>
      </trkpt>
      <trkpt lat="42.092903" lon="-0.18079826">
        <time>2022-07-06T10:57:07Z</time>
      </trkpt>
      <trkpt lat="42.092937" lon="-0.1807296">
        <time>2022-07-06T10:57:10Z</time>
      </trkpt>
      <trkpt lat="42.09296" lon="-0.1806726">
        <time>2022-07-06T10:57:13Z</time>
      </trkpt>
      <trkpt lat="42.092995" lon="-0.18059693">
        <time>2022-07-06T10:57:17Z</time>
      </trkpt>
      <trkpt lat="42.09303" lon="-0.18054128">
        <time>2022-07-06T10:57:20Z</time>
      </trkpt>
      <trkpt lat="42.093063" lon="-0.18046562">
        <time>2022-07-06T10:57:24Z</time>
      </trkpt>
      <trkpt lat="42.093082" lon="-0.18041062">
        <time>2022-07-06T10:57:27Z</time>
      </trkpt>
      <trkpt lat="42.09311" lon="-0.18033329">
        <time>2022-07-06T10:57:31Z</time>
      </trkpt>
      <trkpt lat="42.093136" lon="-0.1802733">
        <time>2022-07-06T10:57:34Z</time>
      </trkpt>
      <trkpt lat="42.093163" lon="-0.18021762">
        <time>2022-07-06T10:57:37Z</time>
      </trkpt>
      <trkpt lat="42.093193" lon="-0.18014798">
        <time>2022-07-06T10:57:41Z</time>
      </trkpt>
      <trkpt lat="42.09322" lon="-0.18007731">
        <time>2022-07-06T10:57:45Z</time>
      </trkpt>
      <trkpt lat="42.09325" lon="-0.18000765">
        <time>2022-07-06T10:57:49Z</time>
      </trkpt>
      <trkpt lat="42.09328" lon="-0.17993632">
        <time>2022-07-06T10:57:53Z</time>
      </trkpt>
      <trkpt lat="42.093307" lon="-0.17986299">
        <time>2022-07-06T10:57:57Z</time>
      </trkpt>
      <trkpt lat="42.093334" lon="-0.17980866">
        <time>2022-07-06T10:58:00Z</time>
      </trkpt>
      <trkpt lat="42.093372" lon="-0.17973833">
        <time>2022-07-06T10:58:04Z</time>
      </trkpt>
      <trkpt lat="42.093403" lon="-0.17966034">
        <time>2022-07-06T10:58:08Z</time>
      </trkpt>
      <trkpt lat="42.093433" lon="-0.17959">
        <time>2022-07-06T10:58:12Z</time>
      </trkpt>
      <trkpt lat="42.093468" lon="-0.17952266">
        <time>2022-07-06T10:58:16Z</time>
      </trkpt>
      <trkpt lat="42.093502" lon="-0.17945135">
        <time>2022-07-06T10:58:20Z</time>
      </trkpt>
      <trkpt lat="42.093533" lon="-0.17937633">
        <time>2022-07-06T10:58:24Z</time>
      </trkpt>
      <trkpt lat="42.093563" lon="-0.17930034">
        <time>2022-07-06T10:58:28Z</time>
      </trkpt>
      <trkpt lat="42.093597" lon="-0.17922369">
        <time>2022-07-06T10:58:32Z</time>
      </trkpt>
      <trkpt lat="42.093628" lon="-0.17915136">
        <time>2022-07-06T10:58:36Z</time>
      </trkpt>
      <trkpt lat="42.093666" lon="-0.17908269">
        <time>2022-07-06T10:58:40Z</time>
      </trkpt>
      <trkpt lat="42.093697" lon="-0.17903103">
        <time>2022-07-06T10:58:43Z</time>
      </trkpt>
      <trkpt lat="42.093723" lon="-0.1789517">
        <time>2022-07-06T10:58:47Z</time>
      </trkpt>
      <trkpt lat="42.09375" lon="-0.17886837">
        <time>2022-07-06T10:58:51Z</time>
      </trkpt>
      <trkpt lat="42.093773" lon="-0.17880972">
        <time>2022-07-06T10:58:54Z</time>
      </trkpt>
      <trkpt lat="42.09381" lon="-0.17873971">
        <time>2022-07-06T10:58:58Z</time>
      </trkpt>
      <trkpt lat="42.09384" lon="-0.17866471">
        <time>2022-07-06T10:59:02Z</time>
      </trkpt>
      <trkpt lat="42.09387" lon="-0.1786047">
        <time>2022-07-06T10:59:05Z</time>
      </trkpt>
      <trkpt lat="42.0939" lon="-0.17852738">
        <time>2022-07-06T10:59:09Z</time>
      </trkpt>
      <trkpt lat="42.093933" lon="-0.17845272">
        <time>2022-07-06T10:59:13Z</time>
      </trkpt>
      <trkpt lat="42.093956" lon="-0.17839639">
        <time>2022-07-06T10:59:16Z</time>
      </trkpt>
      <trkpt lat="42.093994" lon="-0.17832506">
        <time>2022-07-06T10:59:20Z</time>
      </trkpt>
      <trkpt lat="42.094025" lon="-0.17825273">
        <time>2022-07-06T10:59:24Z</time>
      </trkpt>
      <trkpt lat="42.094055" lon="-0.17818172">
        <time>2022-07-06T10:59:28Z</time>
      </trkpt>
      <trkpt lat="42.094086" lon="-0.1781064">
        <time>2022-07-06T10:59:32Z</time>
      </trkpt>
      <trkpt lat="42.094124" lon="-0.1780364">
        <time>2022-07-06T10:59:36Z</time>
      </trkpt>
      <trkpt lat="42.09415" lon="-0.17795774">
        <time>2022-07-06T10:59:40Z</time>
      </trkpt>
      <trkpt lat="42.094173" lon="-0.17789508">
        <time>2022-07-06T10:59:43Z</time>
      </trkpt>
      <trkpt lat="42.09421" lon="-0.17780042">
        <time>2022-07-06T10:59:48Z</time>
      </trkpt>
      <trkpt lat="42.094242" lon="-0.17772609">
        <time>2022-07-06T10:59:52Z</time>
      </trkpt>
      <trkpt lat="42.094273" lon="-0.17765144">
        <time>2022-07-06T10:59:56Z</time>
      </trkpt>
      <trkpt lat="42.094303" lon="-0.17757143">
        <time>2022-07-06T11:00:00Z</time>
      </trkpt>
      <trkpt lat="42.094326" lon="-0.1775141">
        <time>2022-07-06T11:00:03Z</time>
      </trkpt>
      <trkpt lat="42.094357" lon="-0.1774351">
        <time>2022-07-06T11:00:07Z</time>
      </trkpt>
      <trkpt lat="42.09438" lon="-0.17737544">
        <time>2022-07-06T11:00:10Z</time>
      </trkpt>
      <trkpt lat="42.094414" lon="-0.17729811">
        <time>2022-07-06T11:00:14Z</time>
      </trkpt>
      <trkpt lat="42.094437" lon="-0.17723711">
        <time>2022-07-06T11:00:17Z</time>
      </trkpt>
      <trkpt lat="42.09446" lon="-0.1771551">
        <time>2022-07-06T11:00:21Z</time>
      </trkpt>
      <trkpt lat="42.09449" lon="-0.17707278">
        <time>2022-07-06T11:00:25Z</time>
      </trkpt>
      <trkpt lat="42.09451" lon="-0.17700878">
        <time>2022-07-06T11:00:28Z</time>
      </trkpt>
      <trkpt lat="42.094532" lon="-0.17694345">
        <time>2022-07-06T11:00:31Z</time>
      </trkpt>
      <trkpt lat="42.09455" lon="-0.17688245">
        <time>2022-07-06T11:00:34Z</time>
      </trkpt>
      <trkpt lat="42.094574" lon="-0.17679645">
        <time>2022-07-06T11:00:38Z</time>
      </trkpt>
      <trkpt lat="42.094597" lon="-0.1767228">
        <time>2022-07-06T11:00:41Z</time>
      </trkpt>
      <trkpt lat="42.094616" lon="-0.17663679">
        <time>2022-07-06T11:00:44Z</time>
      </trkpt>
      <trkpt lat="42.09464" lon="-0.17654413">
        <time>2022-07-06T11:00:47Z</time>
      </trkpt>
      <trkpt lat="42.094654" lon="-0.17648312">
        <time>2022-07-06T11:00:49Z</time>
      </trkpt>
      <trkpt lat="42.094673" lon="-0.17639513">
        <time>2022-07-06T11:00:52Z</time>
      </trkpt>
      <trkpt lat="42.094692" lon="-0.17631248">
        <time>2022-07-06T11:00:55Z</time>
      </trkpt>
      <trkpt lat="42.094715" lon="-0.17622148">
        <time>2022-07-06T11:00:58Z</time>
      </trkpt>
      <trkpt lat="42.09473" lon="-0.17616014">
        <time>2022-07-06T11:01:00Z</time>
      </trkpt>
      <trkpt lat="42.09475" lon="-0.1760638">
        <time>2022-07-06T11:01:03Z</time>
      </trkpt>
      <trkpt lat="42.094776" lon="-0.17596948">
        <time>2022-07-06T11:01:06Z</time>
      </trkpt>
      <trkpt lat="42.09479" lon="-0.17589782">
        <time>2022-07-06T11:01:08Z</time>
      </trkpt>
      <trkpt lat="42.094807" lon="-0.17582716">
        <time>2022-07-06T11:01:10Z</time>
      </trkpt>
      <trkpt lat="42.094822" lon="-0.1757555">
        <time>2022-07-06T11:01:12Z</time>
      </trkpt>
      <trkpt lat="42.09484" lon="-0.17568018">
        <time>2022-07-06T11:01:14Z</time>
      </trkpt>
      <trkpt lat="42.09486" lon="-0.17560217">
        <time>2022-07-06T11:01:16Z</time>
      </trkpt>
      <trkpt lat="42.094887" lon="-0.1755225">
        <time>2022-07-06T11:01:18Z</time>
      </trkpt>
      <trkpt lat="42.09491" lon="-0.17544252">
        <time>2022-07-06T11:01:20Z</time>
      </trkpt>
      <trkpt lat="42.094936" lon="-0.17535917">
        <time>2022-07-06T11:01:22Z</time>
      </trkpt>
      <trkpt lat="42.094967" lon="-0.17527252">
        <time>2022-07-06T11:01:24Z</time>
      </trkpt>
      <trkpt lat="42.095" lon="-0.17518853">
        <time>2022-07-06T11:01:26Z</time>
      </trkpt>
      <trkpt lat="42.095047" lon="-0.17510319">
        <time>2022-07-06T11:01:28Z</time>
      </trkpt>
      <trkpt lat="42.095093" lon="-0.17501654">
        <time>2022-07-06T11:01:30Z</time>
      </trkpt>
      <trkpt lat="42.09514" lon="-0.1749302">
        <time>2022-07-06T11:01:32Z</time>
      </trkpt>
      <trkpt lat="42.095196" lon="-0.17484987">
        <time>2022-07-06T11:01:34Z</time>
      </trkpt>
      <trkpt lat="42.095257" lon="-0.17477787">
        <time>2022-07-06T11:01:36Z</time>
      </trkpt>
      <trkpt lat="42.09532" lon="-0.17470922">
        <time>2022-07-06T11:01:38Z</time>
      </trkpt>
      <trkpt lat="42.095383" lon="-0.17463921">
        <time>2022-07-06T11:01:40Z</time>
      </trkpt>
      <trkpt lat="42.09545" lon="-0.17457221">
        <time>2022-07-06T11:01:42Z</time>
      </trkpt>
      <trkpt lat="42.09552" lon="-0.17450587">
        <time>2022-07-06T11:01:44Z</time>
      </trkpt>
      <trkpt lat="42.09559" lon="-0.17443655">
        <time>2022-07-06T11:01:46Z</time>
      </trkpt>
      <trkpt lat="42.095657" lon="-0.17437021">
        <time>2022-07-06T11:01:48Z</time>
      </trkpt>
      <trkpt lat="42.09573" lon="-0.17430057">
        <time>2022-07-06T11:01:50Z</time>
      </trkpt>
      <trkpt lat="42.095795" lon="-0.1742269">
        <time>2022-07-06T11:01:52Z</time>
      </trkpt>
      <trkpt lat="42.095856" lon="-0.17414723">
        <time>2022-07-06T11:01:54Z</time>
      </trkpt>
      <trkpt lat="42.095917" lon="-0.17406358">
        <time>2022-07-06T11:01:56Z</time>
      </trkpt>
      <trkpt lat="42.09597" lon="-0.17397691">
        <time>2022-07-06T11:01:58Z</time>
      </trkpt>
      <trkpt lat="42.096024" lon="-0.17388426">
        <time>2022-07-06T11:02:00Z</time>
      </trkpt>
      <trkpt lat="42.09607" lon="-0.1737846">
        <time>2022-07-06T11:02:02Z</time>
      </trkpt>
      <trkpt lat="42.096115" lon="-0.17368294">
        <time>2022-07-06T11:02:04Z</time>
      </trkpt>
      <trkpt lat="42.09616" lon="-0.1735776">
        <time>2022-07-06T11:02:06Z</time>
      </trkpt>
      <trkpt lat="42.09621" lon="-0.17346895">
        <time>2022-07-06T11:02:08Z</time>
      </trkpt>
      <trkpt lat="42.096237" lon="-0.17341262">
        <time>2022-07-06T11:02:09Z</time>
      </trkpt>
      <trkpt lat="42.096287" lon="-0.17329496">
        <time>2022-07-06T11:02:11Z</time>
      </trkpt>
      <trkpt lat="42.09634" lon="-0.1731733">
        <time>2022-07-06T11:02:13Z</time>
      </trkpt>
      <trkpt lat="42.096367" lon="-0.1731093">
        <time>2022-07-06T11:02:14Z</time>
      </trkpt>
      <trkpt lat="42.096394" lon="-0.17304464">
        <time>2022-07-06T11:02:15Z</time>
      </trkpt>
      <trkpt lat="42.096424" lon="-0.1729733">
        <time>2022-07-06T11:02:16Z</time>
      </trkpt>
      <trkpt lat="42.09645" lon="-0.17290598">
        <time>2022-07-06T11:02:17Z</time>
      </trkpt>
      <trkpt lat="42.096478" lon="-0.17283732">
        <time>2022-07-06T11:02:18Z</time>
      </trkpt>
      <trkpt lat="42.096508" lon="-0.17276832">
        <time>2022-07-06T11:02:19Z</time>
      </trkpt>
      <trkpt lat="42.09654" lon="-0.17269832">
        <time>2022-07-06T11:02:20Z</time>
      </trkpt>
      <trkpt lat="42.0966" lon="-0.17255767">
        <time>2022-07-06T11:02:22Z</time>
      </trkpt>
      <trkpt lat="42.096626" lon="-0.17248733">
        <time>2022-07-06T11:02:23Z</time>
      </trkpt>
      <trkpt lat="42.096653" lon="-0.17241733">
        <time>2022-07-06T11:02:24Z</time>
      </trkpt>
      <trkpt lat="42.096684" lon="-0.17234834">
        <time>2022-07-06T11:02:25Z</time>
      </trkpt>
      <trkpt lat="42.09671" lon="-0.17227933">
        <time>2022-07-06T11:02:26Z</time>
      </trkpt>
      <trkpt lat="42.096737" lon="-0.172212">
        <time>2022-07-06T11:02:27Z</time>
      </trkpt>
      <trkpt lat="42.096764" lon="-0.17214134">
        <time>2022-07-06T11:02:28Z</time>
      </trkpt>
      <trkpt lat="42.09679" lon="-0.17207868">
        <time>2022-07-06T11:02:29Z</time>
      </trkpt>
      <trkpt lat="42.096836" lon="-0.17195502">
        <time>2022-07-06T11:02:31Z</time>
      </trkpt>
      <trkpt lat="42.096863" lon="-0.17189336">
        <time>2022-07-06T11:02:32Z</time>
      </trkpt>
      <trkpt lat="42.096886" lon="-0.17183235">
        <time>2022-07-06T11:02:33Z</time>
      </trkpt>
      <trkpt lat="42.096935" lon="-0.17171337">
        <time>2022-07-06T11:02:35Z</time>
      </trkpt>
      <trkpt lat="42.09696" lon="-0.1716567">
        <time>2022-07-06T11:02:36Z</time>
      </trkpt>
      <trkpt lat="42.097008" lon="-0.17154504">
        <time>2022-07-06T11:02:38Z</time>
      </trkpt>
      <trkpt lat="42.097034" lon="-0.17149039">
        <time>2022-07-06T11:02:39Z</time>
      </trkpt>
      <trkpt lat="42.097088" lon="-0.17138538">
        <time>2022-07-06T11:02:41Z</time>
      </trkpt>
      <trkpt lat="42.097115" lon="-0.17133638">
        <time>2022-07-06T11:02:42Z</time>
      </trkpt>
      <trkpt lat="42.09717" lon="-0.17124473">
        <time>2022-07-06T11:02:44Z</time>
      </trkpt>
      <trkpt lat="42.097233" lon="-0.17116173">
        <time>2022-07-06T11:02:46Z</time>
      </trkpt>
      <trkpt lat="42.097294" lon="-0.17108472">
        <time>2022-07-06T11:02:48Z</time>
      </trkpt>
      <trkpt lat="42.09736" lon="-0.17101505">
        <time>2022-07-06T11:02:50Z</time>
      </trkpt>
      <trkpt lat="42.097424" lon="-0.17095172">
        <time>2022-07-06T11:02:52Z</time>
      </trkpt>
      <trkpt lat="42.09749" lon="-0.17089573">
        <time>2022-07-06T11:02:54Z</time>
      </trkpt>
      <trkpt lat="42.097553" lon="-0.17084907">
        <time>2022-07-06T11:02:56Z</time>
      </trkpt>
      <trkpt lat="42.09762" lon="-0.17080975">
        <time>2022-07-06T11:02:58Z</time>
      </trkpt>
      <trkpt lat="42.09768" lon="-0.1707724">
        <time>2022-07-06T11:03:00Z</time>
      </trkpt>
      <trkpt lat="42.097736" lon="-0.17073941">
        <time>2022-07-06T11:03:02Z</time>
      </trkpt>
      <trkpt lat="42.097794" lon="-0.17071575">
        <time>2022-07-06T11:03:04Z</time>
      </trkpt>
      <trkpt lat="42.09785" lon="-0.17069575">
        <time>2022-07-06T11:03:06Z</time>
      </trkpt>
      <trkpt lat="42.097916" lon="-0.17067675">
        <time>2022-07-06T11:03:08Z</time>
      </trkpt>
      <trkpt lat="42.097973" lon="-0.17065942">
        <time>2022-07-06T11:03:10Z</time>
      </trkpt>
      <trkpt lat="42.098034" lon="-0.17064242">
        <time>2022-07-06T11:03:12Z</time>
      </trkpt>
      <trkpt lat="42.098087" lon="-0.17062376">
        <time>2022-07-06T11:03:14Z</time>
      </trkpt>
      <trkpt lat="42.098137" lon="-0.17060442">
        <time>2022-07-06T11:03:16Z</time>
      </trkpt>
      <trkpt lat="42.09819" lon="-0.1705881">
        <time>2022-07-06T11:03:18Z</time>
      </trkpt>
      <trkpt lat="42.09824" lon="-0.17057644">
        <time>2022-07-06T11:03:20Z</time>
      </trkpt>
      <trkpt lat="42.09829" lon="-0.17056245">
        <time>2022-07-06T11:03:22Z</time>
      </trkpt>
      <trkpt lat="42.09836" lon="-0.17053811">
        <time>2022-07-06T11:03:25Z</time>
      </trkpt>
      <trkpt lat="42.09842" lon="-0.17052011">
        <time>2022-07-06T11:03:28Z</time>
      </trkpt>
      <trkpt lat="42.098484" lon="-0.17050211">
        <time>2022-07-06T11:03:31Z</time>
      </trkpt>
      <trkpt lat="42.09854" lon="-0.17047845">
        <time>2022-07-06T11:03:34Z</time>
      </trkpt>
      <trkpt lat="42.0986" lon="-0.17045845">
        <time>2022-07-06T11:03:37Z</time>
      </trkpt>
      <trkpt lat="42.09866" lon="-0.17044412">
        <time>2022-07-06T11:03:40Z</time>
      </trkpt>
      <trkpt lat="42.09873" lon="-0.17042845">
        <time>2022-07-06T11:03:43Z</time>
      </trkpt>
      <trkpt lat="42.09879" lon="-0.17041045">
        <time>2022-07-06T11:03:46Z</time>
      </trkpt>
      <trkpt lat="42.09885" lon="-0.17039347">
        <time>2022-07-06T11:03:49Z</time>
      </trkpt>
      <trkpt lat="42.098915" lon="-0.17037646">
        <time>2022-07-06T11:03:52Z</time>
      </trkpt>
      <trkpt lat="42.098976" lon="-0.17036046">
        <time>2022-07-06T11:03:55Z</time>
      </trkpt>
      <trkpt lat="42.099045" lon="-0.17034146">
        <time>2022-07-06T11:03:58Z</time>
      </trkpt>
      <trkpt lat="42.099106" lon="-0.1703188">
        <time>2022-07-06T11:04:01Z</time>
      </trkpt>
      <trkpt lat="42.099163" lon="-0.1702898">
        <time>2022-07-06T11:04:04Z</time>
      </trkpt>
      <trkpt lat="42.099224" lon="-0.1702598">
        <time>2022-07-06T11:04:07Z</time>
      </trkpt>
      <trkpt lat="42.09928" lon="-0.17023814">
        <time>2022-07-06T11:04:10Z</time>
      </trkpt>
      <trkpt lat="42.099346" lon="-0.1702128">
        <time>2022-07-06T11:04:13Z</time>
      </trkpt>
      <trkpt lat="42.099415" lon="-0.17018515">
        <time>2022-07-06T11:04:16Z</time>
      </trkpt>
      <trkpt lat="42.099483" lon="-0.17016582">
        <time>2022-07-06T11:04:19Z</time>
      </trkpt>
      <trkpt lat="42.099556" lon="-0.17014483">
        <time>2022-07-06T11:04:22Z</time>
      </trkpt>
      <trkpt lat="42.09963" lon="-0.17011516">
        <time>2022-07-06T11:04:25Z</time>
      </trkpt>
      <trkpt lat="42.099678" lon="-0.17009217">
        <time>2022-07-06T11:04:27Z</time>
      </trkpt>
      <trkpt lat="42.099728" lon="-0.17006783">
        <time>2022-07-06T11:04:29Z</time>
      </trkpt>
      <trkpt lat="42.099777" lon="-0.17004482">
        <time>2022-07-06T11:04:31Z</time>
      </trkpt>
      <trkpt lat="42.09983" lon="-0.17002016">
        <time>2022-07-06T11:04:33Z</time>
      </trkpt>
      <trkpt lat="42.099884" lon="-0.16999051">
        <time>2022-07-06T11:04:35Z</time>
      </trkpt>
      <trkpt lat="42.09994" lon="-0.16995485">
        <time>2022-07-06T11:04:37Z</time>
      </trkpt>
      <trkpt lat="42.1" lon="-0.16991451">
        <time>2022-07-06T11:04:39Z</time>
      </trkpt>
      <trkpt lat="42.100063" lon="-0.16986986">
        <time>2022-07-06T11:04:41Z</time>
      </trkpt>
      <trkpt lat="42.100124" lon="-0.1698222">
        <time>2022-07-06T11:04:43Z</time>
      </trkpt>
      <trkpt lat="42.100185" lon="-0.16977286">
        <time>2022-07-06T11:04:45Z</time>
      </trkpt>
      <trkpt lat="42.100254" lon="-0.16971487">
        <time>2022-07-06T11:04:47Z</time>
      </trkpt>
      <trkpt lat="42.100315" lon="-0.16965887">
        <time>2022-07-06T11:04:49Z</time>
      </trkpt>
      <trkpt lat="42.100376" lon="-0.16959888">
        <time>2022-07-06T11:04:51Z</time>
      </trkpt>
      <trkpt lat="42.100437" lon="-0.16953687">
        <time>2022-07-06T11:04:53Z</time>
      </trkpt>
      <trkpt lat="42.1005" lon="-0.16947354">
        <time>2022-07-06T11:04:55Z</time>
      </trkpt>
      <trkpt lat="42.100563" lon="-0.16941121">
        <time>2022-07-06T11:04:57Z</time>
      </trkpt>
      <trkpt lat="42.100628" lon="-0.16934755">
        <time>2022-07-06T11:04:59Z</time>
      </trkpt>
      <trkpt lat="42.100727" lon="-0.16925189">
        <time>2022-07-06T11:05:02Z</time>
      </trkpt>
      <trkpt lat="42.100792" lon="-0.16919088">
        <time>2022-07-06T11:05:04Z</time>
      </trkpt>
      <trkpt lat="42.100853" lon="-0.16912922">
        <time>2022-07-06T11:05:06Z</time>
      </trkpt>
      <trkpt lat="42.100918" lon="-0.16906357">
        <time>2022-07-06T11:05:08Z</time>
      </trkpt>
      <trkpt lat="42.100983" lon="-0.16899525">
        <time>2022-07-06T11:05:10Z</time>
      </trkpt>
      <trkpt lat="42.101044" lon="-0.16892658">
        <time>2022-07-06T11:05:12Z</time>
      </trkpt>
      <trkpt lat="42.101105" lon="-0.16885492">
        <time>2022-07-06T11:05:14Z</time>
      </trkpt>
      <trkpt lat="42.101162" lon="-0.16878226">
        <time>2022-07-06T11:05:16Z</time>
      </trkpt>
      <trkpt lat="42.10122" lon="-0.16870593">
        <time>2022-07-06T11:05:18Z</time>
      </trkpt>
      <trkpt lat="42.101273" lon="-0.16863027">
        <time>2022-07-06T11:05:20Z</time>
      </trkpt>
      <trkpt lat="42.101322" lon="-0.16855727">
        <time>2022-07-06T11:05:22Z</time>
      </trkpt>
      <trkpt lat="42.10137" lon="-0.16847993">
        <time>2022-07-06T11:05:24Z</time>
      </trkpt>
      <trkpt lat="42.10142" lon="-0.16839693">
        <time>2022-07-06T11:05:26Z</time>
      </trkpt>
      <trkpt lat="42.10147" lon="-0.16831161">
        <time>2022-07-06T11:05:28Z</time>
      </trkpt>
      <trkpt lat="42.10152" lon="-0.16822195">
        <time>2022-07-06T11:05:30Z</time>
      </trkpt>
      <trkpt lat="42.10157" lon="-0.16812795">
        <time>2022-07-06T11:05:32Z</time>
      </trkpt>
      <trkpt lat="42.10162" lon="-0.16803162">
        <time>2022-07-06T11:05:34Z</time>
      </trkpt>
      <trkpt lat="42.10167" lon="-0.16793096">
        <time>2022-07-06T11:05:36Z</time>
      </trkpt>
      <trkpt lat="42.10171" lon="-0.1678353">
        <time>2022-07-06T11:05:38Z</time>
      </trkpt>
      <trkpt lat="42.101753" lon="-0.16773663">
        <time>2022-07-06T11:05:40Z</time>
      </trkpt>
      <trkpt lat="42.101795" lon="-0.16763331">
        <time>2022-07-06T11:05:42Z</time>
      </trkpt>
      <trkpt lat="42.10184" lon="-0.16753732">
        <time>2022-07-06T11:05:44Z</time>
      </trkpt>
      <trkpt lat="42.10188" lon="-0.16745432">
        <time>2022-07-06T11:05:46Z</time>
      </trkpt>
      <trkpt lat="42.101913" lon="-0.16737232">
        <time>2022-07-06T11:05:48Z</time>
      </trkpt>
      <trkpt lat="42.10194" lon="-0.16729598">
        <time>2022-07-06T11:05:50Z</time>
      </trkpt>
      <trkpt lat="42.10197" lon="-0.16722631">
        <time>2022-07-06T11:05:52Z</time>
      </trkpt>
      <trkpt lat="42.101997" lon="-0.16716132">
        <time>2022-07-06T11:05:54Z</time>
      </trkpt>
      <trkpt lat="42.102024" lon="-0.16710232">
        <time>2022-07-06T11:05:56Z</time>
      </trkpt>
      <trkpt lat="42.10205" lon="-0.16704667">
        <time>2022-07-06T11:05:58Z</time>
      </trkpt>
      <trkpt lat="42.102085" lon="-0.16696633">
        <time>2022-07-06T11:06:01Z</time>
      </trkpt>
      <trkpt lat="42.10212" lon="-0.16689">
        <time>2022-07-06T11:06:04Z</time>
      </trkpt>
      <trkpt lat="42.102146" lon="-0.16681634">
        <time>2022-07-06T11:06:07Z</time>
      </trkpt>
      <trkpt lat="42.102173" lon="-0.16674268">
        <time>2022-07-06T11:06:10Z</time>
      </trkpt>
      <trkpt lat="42.102207" lon="-0.16667068">
        <time>2022-07-06T11:06:13Z</time>
      </trkpt>
      <trkpt lat="42.102238" lon="-0.16659535">
        <time>2022-07-06T11:06:16Z</time>
      </trkpt>
      <trkpt lat="42.10227" lon="-0.16651969">
        <time>2022-07-06T11:06:19Z</time>
      </trkpt>
      <trkpt lat="42.102318" lon="-0.16641769">
        <time>2022-07-06T11:06:23Z</time>
      </trkpt>
      <trkpt lat="42.102356" lon="-0.16634203">
        <time>2022-07-06T11:06:26Z</time>
      </trkpt>
      <trkpt lat="42.102394" lon="-0.16626804">
        <time>2022-07-06T11:06:29Z</time>
      </trkpt>
      <trkpt lat="42.102432" lon="-0.16619837">
        <time>2022-07-06T11:06:32Z</time>
      </trkpt>
      <trkpt lat="42.102474" lon="-0.16612904">
        <time>2022-07-06T11:06:35Z</time>
      </trkpt>
      <trkpt lat="42.102524" lon="-0.16605704">
        <time>2022-07-06T11:06:38Z</time>
      </trkpt>
      <trkpt lat="42.102577" lon="-0.16599204">
        <time>2022-07-06T11:06:41Z</time>
      </trkpt>
      <trkpt lat="42.102627" lon="-0.16592938">
        <time>2022-07-06T11:06:44Z</time>
      </trkpt>
      <trkpt lat="42.10266" lon="-0.16588238">
        <time>2022-07-06T11:06:46Z</time>
      </trkpt>
      <trkpt lat="42.102707" lon="-0.16581672">
        <time>2022-07-06T11:06:49Z</time>
      </trkpt>
      <trkpt lat="42.10275" lon="-0.1657544">
        <time>2022-07-06T11:06:52Z</time>
      </trkpt>
      <trkpt lat="42.1028" lon="-0.16569506">
        <time>2022-07-06T11:06:55Z</time>
      </trkpt>
      <trkpt lat="42.102848" lon="-0.16563305">
        <time>2022-07-06T11:06:58Z</time>
      </trkpt>
      <trkpt lat="42.102898" lon="-0.1655704">
        <time>2022-07-06T11:07:01Z</time>
      </trkpt>
      <trkpt lat="42.10295" lon="-0.16551107">
        <time>2022-07-06T11:07:04Z</time>
      </trkpt>
      <trkpt lat="42.103" lon="-0.16545007">
        <time>2022-07-06T11:07:07Z</time>
      </trkpt>
      <trkpt lat="42.103046" lon="-0.16539142">
        <time>2022-07-06T11:07:10Z</time>
      </trkpt>
      <trkpt lat="42.103092" lon="-0.16532876">
        <time>2022-07-06T11:07:13Z</time>
      </trkpt>
      <trkpt lat="42.103138" lon="-0.16526175">
        <time>2022-07-06T11:07:16Z</time>
      </trkpt>
      <trkpt lat="42.10318" lon="-0.16519941">
        <time>2022-07-06T11:07:19Z</time>
      </trkpt>
      <trkpt lat="42.10323" lon="-0.16514109">
        <time>2022-07-06T11:07:22Z</time>
      </trkpt>
      <trkpt lat="42.103283" lon="-0.16508242">
        <time>2022-07-06T11:07:25Z</time>
      </trkpt>
      <trkpt lat="42.103336" lon="-0.16502044">
        <time>2022-07-06T11:07:28Z</time>
      </trkpt>
      <trkpt lat="42.103386" lon="-0.16495843">
        <time>2022-07-06T11:07:31Z</time>
      </trkpt>
      <trkpt lat="42.10344" lon="-0.1648981">
        <time>2022-07-06T11:07:34Z</time>
      </trkpt>
      <trkpt lat="42.103485" lon="-0.16483743">
        <time>2022-07-06T11:07:37Z</time>
      </trkpt>
      <trkpt lat="42.103535" lon="-0.16477811">
        <time>2022-07-06T11:07:40Z</time>
      </trkpt>
      <trkpt lat="42.103584" lon="-0.16472045">
        <time>2022-07-06T11:07:43Z</time>
      </trkpt>
      <trkpt lat="42.10363" lon="-0.1646628">
        <time>2022-07-06T11:07:46Z</time>
      </trkpt>
      <trkpt lat="42.103672" lon="-0.16460346">
        <time>2022-07-06T11:07:49Z</time>
      </trkpt>
      <trkpt lat="42.103706" lon="-0.16454646">
        <time>2022-07-06T11:07:52Z</time>
      </trkpt>
      <trkpt lat="42.10374" lon="-0.16449413">
        <time>2022-07-06T11:07:55Z</time>
      </trkpt>
      <trkpt lat="42.10379" lon="-0.16443747">
        <time>2022-07-06T11:07:59Z</time>
      </trkpt>
      <trkpt lat="42.103832" lon="-0.16439646">
        <time>2022-07-06T11:08:02Z</time>
      </trkpt>
      <trkpt lat="42.103874" lon="-0.16435213">
        <time>2022-07-06T11:08:05Z</time>
      </trkpt>
      <trkpt lat="42.103916" lon="-0.16430815">
        <time>2022-07-06T11:08:08Z</time>
      </trkpt>
      <trkpt lat="42.10396" lon="-0.16426247">
        <time>2022-07-06T11:08:11Z</time>
      </trkpt>
      <trkpt lat="42.104" lon="-0.16421182">
        <time>2022-07-06T11:08:14Z</time>
      </trkpt>
      <trkpt lat="42.104042" lon="-0.16415949">
        <time>2022-07-06T11:08:17Z</time>
      </trkpt>
      <trkpt lat="42.10408" lon="-0.16410848">
        <time>2022-07-06T11:08:20Z</time>
      </trkpt>
      <trkpt lat="42.10412" lon="-0.16405916">
        <time>2022-07-06T11:08:23Z</time>
      </trkpt>
      <trkpt lat="42.10416" lon="-0.16400683">
        <time>2022-07-06T11:08:26Z</time>
      </trkpt>
      <trkpt lat="42.104195" lon="-0.16395083">
        <time>2022-07-06T11:08:29Z</time>
      </trkpt>
      <trkpt lat="42.104233" lon="-0.1638925">
        <time>2022-07-06T11:08:32Z</time>
      </trkpt>
      <trkpt lat="42.104275" lon="-0.1638365">
        <time>2022-07-06T11:08:35Z</time>
      </trkpt>
      <trkpt lat="42.104317" lon="-0.1637805">
        <time>2022-07-06T11:08:38Z</time>
      </trkpt>
      <trkpt lat="42.104355" lon="-0.16372284">
        <time>2022-07-06T11:08:41Z</time>
      </trkpt>
      <trkpt lat="42.10439" lon="-0.16366418">
        <time>2022-07-06T11:08:44Z</time>
      </trkpt>
      <trkpt lat="42.10443" lon="-0.16360785">
        <time>2022-07-06T11:08:47Z</time>
      </trkpt>
      <trkpt lat="42.10447" lon="-0.1635512">
        <time>2022-07-06T11:08:50Z</time>
      </trkpt>
      <trkpt lat="42.104507" lon="-0.16349153">
        <time>2022-07-06T11:08:53Z</time>
      </trkpt>
      <trkpt lat="42.10455" lon="-0.16342454">
        <time>2022-07-06T11:08:56Z</time>
      </trkpt>
      <trkpt lat="42.104588" lon="-0.16336387">
        <time>2022-07-06T11:08:59Z</time>
      </trkpt>
      <trkpt lat="42.104614" lon="-0.16331954">
        <time>2022-07-06T11:09:03Z</time>
      </trkpt>
      <trkpt lat="42.104664" lon="-0.16319989">
        <time>2022-07-06T11:13:16Z</time>
      </trkpt>
      <trkpt lat="42.10471" lon="-0.16312222">
        <time>2022-07-06T11:13:19Z</time>
      </trkpt>
      <trkpt lat="42.104763" lon="-0.16303957">
        <time>2022-07-06T11:13:22Z</time>
      </trkpt>
      <trkpt lat="42.1048" lon="-0.16298623">
        <time>2022-07-06T11:13:24Z</time>
      </trkpt>
      <trkpt lat="42.104836" lon="-0.1629329">
        <time>2022-07-06T11:13:26Z</time>
      </trkpt>
      <trkpt lat="42.104874" lon="-0.1628799">
        <time>2022-07-06T11:13:28Z</time>
      </trkpt>
      <trkpt lat="42.10491" lon="-0.1628249">
        <time>2022-07-06T11:13:30Z</time>
      </trkpt>
      <trkpt lat="42.10495" lon="-0.16276924">
        <time>2022-07-06T11:13:32Z</time>
      </trkpt>
      <trkpt lat="42.104992" lon="-0.16271225">
        <time>2022-07-06T11:13:34Z</time>
      </trkpt>
      <trkpt lat="42.10503" lon="-0.16265358">
        <time>2022-07-06T11:13:36Z</time>
      </trkpt>
      <trkpt lat="42.105064" lon="-0.16259558">
        <time>2022-07-06T11:13:38Z</time>
      </trkpt>
      <trkpt lat="42.105103" lon="-0.16253625">
        <time>2022-07-06T11:13:40Z</time>
      </trkpt>
      <trkpt lat="42.105145" lon="-0.16247658">
        <time>2022-07-06T11:13:42Z</time>
      </trkpt>
      <trkpt lat="42.105183" lon="-0.16241926">
        <time>2022-07-06T11:13:44Z</time>
      </trkpt>
      <trkpt lat="42.105225" lon="-0.1623596">
        <time>2022-07-06T11:13:46Z</time>
      </trkpt>
      <trkpt lat="42.10527" lon="-0.16230094">
        <time>2022-07-06T11:13:48Z</time>
      </trkpt>
      <trkpt lat="42.105312" lon="-0.16224495">
        <time>2022-07-06T11:13:50Z</time>
      </trkpt>
      <trkpt lat="42.105362" lon="-0.16219027">
        <time>2022-07-06T11:13:52Z</time>
      </trkpt>
      <trkpt lat="42.10541" lon="-0.16213696">
        <time>2022-07-06T11:13:54Z</time>
      </trkpt>
      <trkpt lat="42.105465" lon="-0.16208228">
        <time>2022-07-06T11:13:56Z</time>
      </trkpt>
      <trkpt lat="42.105515" lon="-0.16202863">
        <time>2022-07-06T11:13:58Z</time>
      </trkpt>
      <trkpt lat="42.105564" lon="-0.16197763">
        <time>2022-07-06T11:14:00Z</time>
      </trkpt>
      <trkpt lat="42.105614" lon="-0.16192763">
        <time>2022-07-06T11:14:02Z</time>
      </trkpt>
      <trkpt lat="42.105667" lon="-0.16187863">
        <time>2022-07-06T11:14:04Z</time>
      </trkpt>
      <trkpt lat="42.10572" lon="-0.16182797">
        <time>2022-07-06T11:14:06Z</time>
      </trkpt>
      <trkpt lat="42.10577" lon="-0.1617773">
        <time>2022-07-06T11:14:08Z</time>
      </trkpt>
      <trkpt lat="42.105824" lon="-0.16172998">
        <time>2022-07-06T11:14:10Z</time>
      </trkpt>
      <trkpt lat="42.105873" lon="-0.16168432">
        <time>2022-07-06T11:14:12Z</time>
      </trkpt>
      <trkpt lat="42.10592" lon="-0.16164333">
        <time>2022-07-06T11:14:14Z</time>
      </trkpt>
      <trkpt lat="42.105965" lon="-0.161599">
        <time>2022-07-06T11:14:16Z</time>
      </trkpt>
      <trkpt lat="42.106007" lon="-0.16155699">
        <time>2022-07-06T11:14:18Z</time>
      </trkpt>
      <trkpt lat="42.106045" lon="-0.161518">
        <time>2022-07-06T11:14:20Z</time>
      </trkpt>
      <trkpt lat="42.106106" lon="-0.16145799">
        <time>2022-07-06T11:14:23Z</time>
      </trkpt>
      <trkpt lat="42.10615" lon="-0.16141666">
        <time>2022-07-06T11:14:25Z</time>
      </trkpt>
      <trkpt lat="42.106197" lon="-0.16137733">
        <time>2022-07-06T11:14:27Z</time>
      </trkpt>
      <trkpt lat="42.106243" lon="-0.16133867">
        <time>2022-07-06T11:14:29Z</time>
      </trkpt>
      <trkpt lat="42.106285" lon="-0.16129634">
        <time>2022-07-06T11:14:31Z</time>
      </trkpt>
      <trkpt lat="42.106327" lon="-0.16125068">
        <time>2022-07-06T11:14:33Z</time>
      </trkpt>
      <trkpt lat="42.106365" lon="-0.16120002">
        <time>2022-07-06T11:14:35Z</time>
      </trkpt>
      <trkpt lat="42.1064" lon="-0.16115102">
        <time>2022-07-06T11:14:37Z</time>
      </trkpt>
      <trkpt lat="42.10645" lon="-0.16107202">
        <time>2022-07-06T11:14:40Z</time>
      </trkpt>
      <trkpt lat="42.106483" lon="-0.16101569">
        <time>2022-07-06T11:14:42Z</time>
      </trkpt>
      <trkpt lat="42.106514" lon="-0.1609577">
        <time>2022-07-06T11:14:44Z</time>
      </trkpt>
      <trkpt lat="42.106544" lon="-0.16090003">
        <time>2022-07-06T11:14:46Z</time>
      </trkpt>
      <trkpt lat="42.10658" lon="-0.1608447">
        <time>2022-07-06T11:14:48Z</time>
      </trkpt>
      <trkpt lat="42.10661" lon="-0.16078705">
        <time>2022-07-06T11:14:50Z</time>
      </trkpt>
      <trkpt lat="42.106636" lon="-0.16072871">
        <time>2022-07-06T11:14:52Z</time>
      </trkpt>
      <trkpt lat="42.10668" lon="-0.16064204">
        <time>2022-07-06T11:14:55Z</time>
      </trkpt>
      <trkpt lat="42.106716" lon="-0.16058305">
        <time>2022-07-06T11:14:57Z</time>
      </trkpt>
      <trkpt lat="42.106747" lon="-0.16052406">
        <time>2022-07-06T11:14:59Z</time>
      </trkpt>
      <trkpt lat="42.106785" lon="-0.16046272">
        <time>2022-07-06T11:15:01Z</time>
      </trkpt>
      <trkpt lat="42.10682" lon="-0.16039605">
        <time>2022-07-06T11:15:03Z</time>
      </trkpt>
      <trkpt lat="42.10686" lon="-0.1603294">
        <time>2022-07-06T11:15:05Z</time>
      </trkpt>
      <trkpt lat="42.106895" lon="-0.16026106">
        <time>2022-07-06T11:15:07Z</time>
      </trkpt>
      <trkpt lat="42.106934" lon="-0.16019274">
        <time>2022-07-06T11:15:09Z</time>
      </trkpt>
      <trkpt lat="42.10697" lon="-0.16012341">
        <time>2022-07-06T11:15:11Z</time>
      </trkpt>
      <trkpt lat="42.10701" lon="-0.16005541">
        <time>2022-07-06T11:15:13Z</time>
      </trkpt>
      <trkpt lat="42.10705" lon="-0.1599884">
        <time>2022-07-06T11:15:15Z</time>
      </trkpt>
      <trkpt lat="42.107094" lon="-0.15991776">
        <time>2022-07-06T11:15:17Z</time>
      </trkpt>
      <trkpt lat="42.107136" lon="-0.15984508">
        <time>2022-07-06T11:15:19Z</time>
      </trkpt>
      <trkpt lat="42.107178" lon="-0.15976676">
        <time>2022-07-06T11:15:21Z</time>
      </trkpt>
      <trkpt lat="42.10722" lon="-0.15968543">
        <time>2022-07-06T11:15:23Z</time>
      </trkpt>
      <trkpt lat="42.10726" lon="-0.1596011">
        <time>2022-07-06T11:15:25Z</time>
      </trkpt>
      <trkpt lat="42.107307" lon="-0.1595161">
        <time>2022-07-06T11:15:27Z</time>
      </trkpt>
      <trkpt lat="42.107353" lon="-0.15943044">
        <time>2022-07-06T11:15:29Z</time>
      </trkpt>
      <trkpt lat="42.107403" lon="-0.1593451">
        <time>2022-07-06T11:15:31Z</time>
      </trkpt>
      <trkpt lat="42.10745" lon="-0.15926045">
        <time>2022-07-06T11:15:33Z</time>
      </trkpt>
      <trkpt lat="42.107494" lon="-0.1591768">
        <time>2022-07-06T11:15:35Z</time>
      </trkpt>
      <trkpt lat="42.107544" lon="-0.15909313">
        <time>2022-07-06T11:15:37Z</time>
      </trkpt>
      <trkpt lat="42.107594" lon="-0.15901314">
        <time>2022-07-06T11:15:39Z</time>
      </trkpt>
      <trkpt lat="42.10764" lon="-0.15893114">
        <time>2022-07-06T11:15:41Z</time>
      </trkpt>
      <trkpt lat="42.10769" lon="-0.15884547">
        <time>2022-07-06T11:15:43Z</time>
      </trkpt>
      <trkpt lat="42.107735" lon="-0.15875947">
        <time>2022-07-06T11:15:45Z</time>
      </trkpt>
      <trkpt lat="42.107788" lon="-0.15867281">
        <time>2022-07-06T11:15:47Z</time>
      </trkpt>
      <trkpt lat="42.107834" lon="-0.15858681">
        <time>2022-07-06T11:15:49Z</time>
      </trkpt>
      <trkpt lat="42.107883" lon="-0.15850282">
        <time>2022-07-06T11:15:51Z</time>
      </trkpt>
      <trkpt lat="42.10793" lon="-0.1584188">
        <time>2022-07-06T11:15:53Z</time>
      </trkpt>
      <trkpt lat="42.10798" lon="-0.15833548">
        <time>2022-07-06T11:15:55Z</time>
      </trkpt>
      <trkpt lat="42.10802" lon="-0.15824883">
        <time>2022-07-06T11:15:57Z</time>
      </trkpt>
      <trkpt lat="42.108067" lon="-0.15816316">
        <time>2022-07-06T11:15:59Z</time>
      </trkpt>
      <trkpt lat="42.108112" lon="-0.15807883">
        <time>2022-07-06T11:16:01Z</time>
      </trkpt>
      <trkpt lat="42.108162" lon="-0.15799317">
        <time>2022-07-06T11:16:03Z</time>
      </trkpt>
      <trkpt lat="42.10821" lon="-0.1579035">
        <time>2022-07-06T11:16:05Z</time>
      </trkpt>
      <trkpt lat="42.10826" lon="-0.15781985">
        <time>2022-07-06T11:16:07Z</time>
      </trkpt>
      <trkpt lat="42.10831" lon="-0.15773652">
        <time>2022-07-06T11:16:09Z</time>
      </trkpt>
      <trkpt lat="42.10836" lon="-0.15765119">
        <time>2022-07-06T11:16:11Z</time>
      </trkpt>
      <trkpt lat="42.108406" lon="-0.15756519">
        <time>2022-07-06T11:16:13Z</time>
      </trkpt>
      <trkpt lat="42.10845" lon="-0.15747987">
        <time>2022-07-06T11:16:15Z</time>
      </trkpt>
      <trkpt lat="42.108498" lon="-0.15739653">
        <time>2022-07-06T11:16:17Z</time>
      </trkpt>
      <trkpt lat="42.108547" lon="-0.15730953">
        <time>2022-07-06T11:16:19Z</time>
      </trkpt>
      <trkpt lat="42.108597" lon="-0.15722588">
        <time>2022-07-06T11:16:21Z</time>
      </trkpt>
      <trkpt lat="42.108643" lon="-0.15714754">
        <time>2022-07-06T11:16:23Z</time>
      </trkpt>
      <trkpt lat="42.108692" lon="-0.15706953">
        <time>2022-07-06T11:16:25Z</time>
      </trkpt>
      <trkpt lat="42.108746" lon="-0.15698954">
        <time>2022-07-06T11:16:27Z</time>
      </trkpt>
      <trkpt lat="42.1088" lon="-0.15691088">
        <time>2022-07-06T11:16:29Z</time>
      </trkpt>
      <trkpt lat="42.108856" lon="-0.15683354">
        <time>2022-07-06T11:16:31Z</time>
      </trkpt>
      <trkpt lat="42.10891" lon="-0.15676022">
        <time>2022-07-06T11:16:33Z</time>
      </trkpt>
      <trkpt lat="42.108963" lon="-0.15668556">
        <time>2022-07-06T11:16:35Z</time>
      </trkpt>
      <trkpt lat="42.109024" lon="-0.15661056">
        <time>2022-07-06T11:16:37Z</time>
      </trkpt>
      <trkpt lat="42.10908" lon="-0.15654656">
        <time>2022-07-06T11:16:39Z</time>
      </trkpt>
      <trkpt lat="42.109146" lon="-0.15647723">
        <time>2022-07-06T11:16:41Z</time>
      </trkpt>
      <trkpt lat="42.109203" lon="-0.1564119">
        <time>2022-07-06T11:16:43Z</time>
      </trkpt>
      <trkpt lat="42.10926" lon="-0.1563499">
        <time>2022-07-06T11:16:45Z</time>
      </trkpt>
      <trkpt lat="42.10932" lon="-0.1562869">
        <time>2022-07-06T11:16:47Z</time>
      </trkpt>
      <trkpt lat="42.10938" lon="-0.15622725">
        <time>2022-07-06T11:16:49Z</time>
      </trkpt>
      <trkpt lat="42.10944" lon="-0.15616392">
        <time>2022-07-06T11:16:51Z</time>
      </trkpt>
      <trkpt lat="42.109497" lon="-0.15610225">
        <time>2022-07-06T11:16:53Z</time>
      </trkpt>
      <trkpt lat="42.10955" lon="-0.15604825">
        <time>2022-07-06T11:16:55Z</time>
      </trkpt>
      <trkpt lat="42.1096" lon="-0.1559926">
        <time>2022-07-06T11:16:57Z</time>
      </trkpt>
      <trkpt lat="42.10965" lon="-0.15593792">
        <time>2022-07-06T11:16:59Z</time>
      </trkpt>
      <trkpt lat="42.1097" lon="-0.1558896">
        <time>2022-07-06T11:17:01Z</time>
      </trkpt>
      <trkpt lat="42.109745" lon="-0.1558416">
        <time>2022-07-06T11:17:03Z</time>
      </trkpt>
      <trkpt lat="42.109783" lon="-0.15579994">
        <time>2022-07-06T11:17:05Z</time>
      </trkpt>
      <trkpt lat="42.10982" lon="-0.15575995">
        <time>2022-07-06T11:17:07Z</time>
      </trkpt>
      <trkpt lat="42.10988" lon="-0.15570293">
        <time>2022-07-06T11:17:10Z</time>
      </trkpt>
      <trkpt lat="42.10993" lon="-0.15564927">
        <time>2022-07-06T11:17:13Z</time>
      </trkpt>
      <trkpt lat="42.10997" lon="-0.15559328">
        <time>2022-07-06T11:17:16Z</time>
      </trkpt>
      <trkpt lat="42.110012" lon="-0.15554027">
        <time>2022-07-06T11:17:19Z</time>
      </trkpt>
      <trkpt lat="42.110058" lon="-0.15549228">
        <time>2022-07-06T11:17:22Z</time>
      </trkpt>
      <trkpt lat="42.110104" lon="-0.15544727">
        <time>2022-07-06T11:17:25Z</time>
      </trkpt>
      <trkpt lat="42.11012" lon="-0.15536395">
        <time>2022-07-06T11:17:29Z</time>
      </trkpt>
      <trkpt lat="42.110107" lon="-0.15528294">
        <time>2022-07-06T11:17:32Z</time>
      </trkpt>
      <trkpt lat="42.110096" lon="-0.15519929">
        <time>2022-07-06T11:17:35Z</time>
      </trkpt>
      <trkpt lat="42.110077" lon="-0.15511563">
        <time>2022-07-06T11:17:38Z</time>
      </trkpt>
      <trkpt lat="42.110058" lon="-0.15502797">
        <time>2022-07-06T11:17:41Z</time>
      </trkpt>
      <trkpt lat="42.11004" lon="-0.15494096">
        <time>2022-07-06T11:17:44Z</time>
      </trkpt>
      <trkpt lat="42.110023" lon="-0.15485796">
        <time>2022-07-06T11:17:47Z</time>
      </trkpt>
      <trkpt lat="42.11" lon="-0.15477598">
        <time>2022-07-06T11:17:50Z</time>
      </trkpt>
      <trkpt lat="42.10998" lon="-0.15468897">
        <time>2022-07-06T11:17:53Z</time>
      </trkpt>
      <trkpt lat="42.109966" lon="-0.15460597">
        <time>2022-07-06T11:17:56Z</time>
      </trkpt>
      <trkpt lat="42.109955" lon="-0.15451965">
        <time>2022-07-06T11:17:59Z</time>
      </trkpt>
      <trkpt lat="42.10995" lon="-0.1544263">
        <time>2022-07-06T11:18:02Z</time>
      </trkpt>
      <trkpt lat="42.109936" lon="-0.15434165">
        <time>2022-07-06T11:18:05Z</time>
      </trkpt>
      <trkpt lat="42.10991" lon="-0.15424833">
        <time>2022-07-06T11:18:08Z</time>
      </trkpt>
      <trkpt lat="42.10989" lon="-0.15418532">
        <time>2022-07-06T11:18:10Z</time>
      </trkpt>
      <trkpt lat="42.109867" lon="-0.154094">
        <time>2022-07-06T11:18:13Z</time>
      </trkpt>
      <trkpt lat="42.109848" lon="-0.15400499">
        <time>2022-07-06T11:18:16Z</time>
      </trkpt>
      <trkpt lat="42.109833" lon="-0.15394665">
        <time>2022-07-06T11:18:18Z</time>
      </trkpt>
      <trkpt lat="42.109814" lon="-0.153838">
        <time>2022-07-06T11:18:22Z</time>
      </trkpt>
      <trkpt lat="42.109802" lon="-0.153745">
        <time>2022-07-06T11:18:25Z</time>
      </trkpt>
      <trkpt lat="42.10979" lon="-0.15364566">
        <time>2022-07-06T11:18:28Z</time>
      </trkpt>
      <trkpt lat="42.109768" lon="-0.153536">
        <time>2022-07-06T11:18:31Z</time>
      </trkpt>
      <trkpt lat="42.10976" lon="-0.15345769">
        <time>2022-07-06T11:18:33Z</time>
      </trkpt>
      <trkpt lat="42.109756" lon="-0.15337636">
        <time>2022-07-06T11:18:35Z</time>
      </trkpt>
      <trkpt lat="42.109756" lon="-0.15330102">
        <time>2022-07-06T11:18:37Z</time>
      </trkpt>
      <trkpt lat="42.10975" lon="-0.15323469">
        <time>2022-07-06T11:18:39Z</time>
      </trkpt>
      <trkpt lat="42.10974" lon="-0.15316737">
        <time>2022-07-06T11:18:41Z</time>
      </trkpt>
      <trkpt lat="42.109734" lon="-0.15308203">
        <time>2022-07-06T11:18:44Z</time>
      </trkpt>
      <trkpt lat="42.10973" lon="-0.15299737">
        <time>2022-07-06T11:18:47Z</time>
      </trkpt>
      <trkpt lat="42.109715" lon="-0.15293671">
        <time>2022-07-06T11:18:50Z</time>
      </trkpt>
      <trkpt lat="42.10971" lon="-0.15296237">
        <time>2022-07-06T11:21:53Z</time>
      </trkpt>
      <trkpt lat="42.109756" lon="-0.1529787">
        <time>2022-07-06T11:21:59Z</time>
      </trkpt>
      <trkpt lat="42.109795" lon="-0.15307803">
        <time>2022-07-06T11:23:57Z</time>
      </trkpt>
      <trkpt lat="42.10982" lon="-0.15286803">
        <time>2022-07-06T11:40:21Z</time>
      </trkpt>
      <trkpt lat="42.10974" lon="-0.15288703">
        <time>2022-07-06T11:44:11Z</time>
      </trkpt>
      <trkpt lat="42.10969" lon="-0.15281104">
        <time>2022-07-06T11:44:15Z</time>
      </trkpt>
      <trkpt lat="42.109657" lon="-0.15273237">
        <time>2022-07-06T11:44:18Z</time>
      </trkpt>
      <trkpt lat="42.109634" lon="-0.15265137">
        <time>2022-07-06T11:44:21Z</time>
      </trkpt>
      <trkpt lat="42.109615" lon="-0.15257804">
        <time>2022-07-06T11:44:24Z</time>
      </trkpt>
      <trkpt lat="42.109592" lon="-0.15247472">
        <time>2022-07-06T11:44:28Z</time>
      </trkpt>
      <trkpt lat="42.10957" lon="-0.15238339">
        <time>2022-07-06T11:44:31Z</time>
      </trkpt>
      <trkpt lat="42.109554" lon="-0.15231138">
        <time>2022-07-06T11:44:33Z</time>
      </trkpt>
      <trkpt lat="42.10954" lon="-0.15223739">
        <time>2022-07-06T11:44:35Z</time>
      </trkpt>
      <trkpt lat="42.109524" lon="-0.15215538">
        <time>2022-07-06T11:44:37Z</time>
      </trkpt>
      <trkpt lat="42.10951" lon="-0.15207905">
        <time>2022-07-06T11:44:39Z</time>
      </trkpt>
      <trkpt lat="42.109493" lon="-0.15200073">
        <time>2022-07-06T11:44:41Z</time>
      </trkpt>
      <trkpt lat="42.10948" lon="-0.15192571">
        <time>2022-07-06T11:44:43Z</time>
      </trkpt>
      <trkpt lat="42.109467" lon="-0.15184706">
        <time>2022-07-06T11:44:45Z</time>
      </trkpt>
      <trkpt lat="42.109447" lon="-0.15176272">
        <time>2022-07-06T11:44:47Z</time>
      </trkpt>
      <trkpt lat="42.109432" lon="-0.1516744">
        <time>2022-07-06T11:44:49Z</time>
      </trkpt>
      <trkpt lat="42.109417" lon="-0.1515794">
        <time>2022-07-06T11:44:51Z</time>
      </trkpt>
      <trkpt lat="42.109398" lon="-0.15148108">
        <time>2022-07-06T11:44:53Z</time>
      </trkpt>
      <trkpt lat="42.10938" lon="-0.15138008">
        <time>2022-07-06T11:44:55Z</time>
      </trkpt>
      <trkpt lat="42.109352" lon="-0.15127307">
        <time>2022-07-06T11:44:57Z</time>
      </trkpt>
      <trkpt lat="42.10933" lon="-0.1511684">
        <time>2022-07-06T11:44:59Z</time>
      </trkpt>
      <trkpt lat="42.10931" lon="-0.15105875">
        <time>2022-07-06T11:45:01Z</time>
      </trkpt>
      <trkpt lat="42.109287" lon="-0.15094075">
        <time>2022-07-06T11:45:03Z</time>
      </trkpt>
      <trkpt lat="42.10927" lon="-0.1508261">
        <time>2022-07-06T11:45:05Z</time>
      </trkpt>
      <trkpt lat="42.109245" lon="-0.15071508">
        <time>2022-07-06T11:45:07Z</time>
      </trkpt>
      <trkpt lat="42.109222" lon="-0.15060109">
        <time>2022-07-06T11:45:09Z</time>
      </trkpt>
      <trkpt lat="42.109203" lon="-0.15048508">
        <time>2022-07-06T11:45:11Z</time>
      </trkpt>
      <trkpt lat="42.109177" lon="-0.15036976">
        <time>2022-07-06T11:45:13Z</time>
      </trkpt>
      <trkpt lat="42.10915" lon="-0.15024842">
        <time>2022-07-06T11:45:15Z</time>
      </trkpt>
      <trkpt lat="42.10914" lon="-0.15018643">
        <time>2022-07-06T11:45:16Z</time>
      </trkpt>
      <trkpt lat="42.10911" lon="-0.1500661">
        <time>2022-07-06T11:45:18Z</time>
      </trkpt>
      <trkpt lat="42.109085" lon="-0.14994945">
        <time>2022-07-06T11:45:20Z</time>
      </trkpt>
      <trkpt lat="42.10905" lon="-0.14977778">
        <time>2022-07-06T11:45:23Z</time>
      </trkpt>
      <trkpt lat="42.109028" lon="-0.14965811">
        <time>2022-07-06T11:45:25Z</time>
      </trkpt>
      <trkpt lat="42.109005" lon="-0.14954612">
        <time>2022-07-06T11:45:27Z</time>
      </trkpt>
      <trkpt lat="42.108986" lon="-0.14943013">
        <time>2022-07-06T11:45:29Z</time>
      </trkpt>
      <trkpt lat="42.10896" lon="-0.14931878">
        <time>2022-07-06T11:45:31Z</time>
      </trkpt>
      <trkpt lat="42.108936" lon="-0.14920646">
        <time>2022-07-06T11:45:33Z</time>
      </trkpt>
      <trkpt lat="42.108917" lon="-0.1490928">
        <time>2022-07-06T11:45:35Z</time>
      </trkpt>
      <trkpt lat="42.1089" lon="-0.1489778">
        <time>2022-07-06T11:45:37Z</time>
      </trkpt>
      <trkpt lat="42.10887" lon="-0.14886346">
        <time>2022-07-06T11:45:39Z</time>
      </trkpt>
      <trkpt lat="42.10885" lon="-0.14874747">
        <time>2022-07-06T11:45:41Z</time>
      </trkpt>
      <trkpt lat="42.108826" lon="-0.14862947">
        <time>2022-07-06T11:45:43Z</time>
      </trkpt>
      <trkpt lat="42.1088" lon="-0.14851181">
        <time>2022-07-06T11:45:45Z</time>
      </trkpt>
      <trkpt lat="42.108776" lon="-0.14839481">
        <time>2022-07-06T11:45:47Z</time>
      </trkpt>
      <trkpt lat="42.10875" lon="-0.14827548">
        <time>2022-07-06T11:45:49Z</time>
      </trkpt>
      <trkpt lat="42.108727" lon="-0.14815383">
        <time>2022-07-06T11:45:51Z</time>
      </trkpt>
      <trkpt lat="42.108704" lon="-0.14803182">
        <time>2022-07-06T11:45:53Z</time>
      </trkpt>
      <trkpt lat="42.10869" lon="-0.14797048">
        <time>2022-07-06T11:45:54Z</time>
      </trkpt>
      <trkpt lat="42.108665" lon="-0.14784649">
        <time>2022-07-06T11:45:56Z</time>
      </trkpt>
      <trkpt lat="42.108643" lon="-0.14772049">
        <time>2022-07-06T11:45:58Z</time>
      </trkpt>
      <trkpt lat="42.10862" lon="-0.14759849">
        <time>2022-07-06T11:46:00Z</time>
      </trkpt>
      <trkpt lat="42.10861" lon="-0.14753748">
        <time>2022-07-06T11:46:01Z</time>
      </trkpt>
      <trkpt lat="42.108585" lon="-0.14741483">
        <time>2022-07-06T11:46:03Z</time>
      </trkpt>
      <trkpt lat="42.108562" lon="-0.14729217">
        <time>2022-07-06T11:46:05Z</time>
      </trkpt>
      <trkpt lat="42.10855" lon="-0.14723118">
        <time>2022-07-06T11:46:06Z</time>
      </trkpt>
      <trkpt lat="42.10853" lon="-0.14710917">
        <time>2022-07-06T11:46:08Z</time>
      </trkpt>
      <trkpt lat="42.108505" lon="-0.14698751">
        <time>2022-07-06T11:46:10Z</time>
      </trkpt>
      <trkpt lat="42.10848" lon="-0.14686485">
        <time>2022-07-06T11:46:12Z</time>
      </trkpt>
      <trkpt lat="42.108456" lon="-0.14674285">
        <time>2022-07-06T11:46:14Z</time>
      </trkpt>
      <trkpt lat="42.108444" lon="-0.14668284">
        <time>2022-07-06T11:46:15Z</time>
      </trkpt>
      <trkpt lat="42.108425" lon="-0.14656252">
        <time>2022-07-06T11:46:17Z</time>
      </trkpt>
      <trkpt lat="42.108406" lon="-0.14644052">
        <time>2022-07-06T11:46:19Z</time>
      </trkpt>
      <trkpt lat="42.108387" lon="-0.14631753">
        <time>2022-07-06T11:46:21Z</time>
      </trkpt>
      <trkpt lat="42.108376" lon="-0.14625587">
        <time>2022-07-06T11:46:22Z</time>
      </trkpt>
      <trkpt lat="42.108353" lon="-0.1461322">
        <time>2022-07-06T11:46:24Z</time>
      </trkpt>
      <trkpt lat="42.108326" lon="-0.14600487">
        <time>2022-07-06T11:46:26Z</time>
      </trkpt>
      <trkpt lat="42.108303" lon="-0.14587387">
        <time>2022-07-06T11:46:28Z</time>
      </trkpt>
      <trkpt lat="42.10829" lon="-0.14580853">
        <time>2022-07-06T11:46:29Z</time>
      </trkpt>
      <trkpt lat="42.108265" lon="-0.14567521">
        <time>2022-07-06T11:46:31Z</time>
      </trkpt>
      <trkpt lat="42.10824" lon="-0.14554721">
        <time>2022-07-06T11:46:33Z</time>
      </trkpt>
      <trkpt lat="42.10821" lon="-0.14541756">
        <time>2022-07-06T11:46:35Z</time>
      </trkpt>
      <trkpt lat="42.1082" lon="-0.14534722">
        <time>2022-07-06T11:46:36Z</time>
      </trkpt>
      <trkpt lat="42.108185" lon="-0.14527822">
        <time>2022-07-06T11:46:37Z</time>
      </trkpt>
      <trkpt lat="42.10816" lon="-0.14514756">
        <time>2022-07-06T11:46:39Z</time>
      </trkpt>
      <trkpt lat="42.108147" lon="-0.14507556">
        <time>2022-07-06T11:46:40Z</time>
      </trkpt>
      <trkpt lat="42.10813" lon="-0.1450049">
        <time>2022-07-06T11:46:41Z</time>
      </trkpt>
      <trkpt lat="42.108116" lon="-0.1449349">
        <time>2022-07-06T11:46:42Z</time>
      </trkpt>
      <trkpt lat="42.108105" lon="-0.1448699">
        <time>2022-07-06T11:46:43Z</time>
      </trkpt>
      <trkpt lat="42.108063" lon="-0.14466557">
        <time>2022-07-06T11:46:46Z</time>
      </trkpt>
      <trkpt lat="42.108044" lon="-0.14459524">
        <time>2022-07-06T11:46:47Z</time>
      </trkpt>
      <trkpt lat="42.108032" lon="-0.14452891">
        <time>2022-07-06T11:46:48Z</time>
      </trkpt>
      <trkpt lat="42.108017" lon="-0.14446025">
        <time>2022-07-06T11:46:49Z</time>
      </trkpt>
      <trkpt lat="42.108" lon="-0.14438926">
        <time>2022-07-06T11:46:50Z</time>
      </trkpt>
      <trkpt lat="42.107986" lon="-0.14431125">
        <time>2022-07-06T11:46:51Z</time>
      </trkpt>
      <trkpt lat="42.10797" lon="-0.14423458">
        <time>2022-07-06T11:46:52Z</time>
      </trkpt>
      <trkpt lat="42.10796" lon="-0.14415993">
        <time>2022-07-06T11:46:53Z</time>
      </trkpt>
      <trkpt lat="42.10795" lon="-0.14408927">
        <time>2022-07-06T11:46:54Z</time>
      </trkpt>
      <trkpt lat="42.107933" lon="-0.14401627">
        <time>2022-07-06T11:46:55Z</time>
      </trkpt>
      <trkpt lat="42.107918" lon="-0.14394194">
        <time>2022-07-06T11:46:56Z</time>
      </trkpt>
      <trkpt lat="42.107903" lon="-0.14386594">
        <time>2022-07-06T11:46:57Z</time>
      </trkpt>
      <trkpt lat="42.107887" lon="-0.14378893">
        <time>2022-07-06T11:46:58Z</time>
      </trkpt>
      <trkpt lat="42.107876" lon="-0.14371161">
        <time>2022-07-06T11:46:59Z</time>
      </trkpt>
      <trkpt lat="42.10786" lon="-0.14363295">
        <time>2022-07-06T11:47:00Z</time>
      </trkpt>
      <trkpt lat="42.10785" lon="-0.14355329">
        <time>2022-07-06T11:47:01Z</time>
      </trkpt>
      <trkpt lat="42.107834" lon="-0.14347228">
        <time>2022-07-06T11:47:02Z</time>
      </trkpt>
      <trkpt lat="42.10782" lon="-0.14338496">
        <time>2022-07-06T11:47:03Z</time>
      </trkpt>
      <trkpt lat="42.107803" lon="-0.14330296">
        <time>2022-07-06T11:47:04Z</time>
      </trkpt>
      <trkpt lat="42.107788" lon="-0.14321996">
        <time>2022-07-06T11:47:05Z</time>
      </trkpt>
      <trkpt lat="42.107773" lon="-0.1431363">
        <time>2022-07-06T11:47:06Z</time>
      </trkpt>
      <trkpt lat="42.107758" lon="-0.1430523">
        <time>2022-07-06T11:47:07Z</time>
      </trkpt>
      <trkpt lat="42.107742" lon="-0.1429683">
        <time>2022-07-06T11:47:08Z</time>
      </trkpt>
      <trkpt lat="42.107723" lon="-0.1428853">
        <time>2022-07-06T11:47:09Z</time>
      </trkpt>
      <trkpt lat="42.107708" lon="-0.14280197">
        <time>2022-07-06T11:47:10Z</time>
      </trkpt>
      <trkpt lat="42.10769" lon="-0.14271931">
        <time>2022-07-06T11:47:11Z</time>
      </trkpt>
      <trkpt lat="42.107674" lon="-0.14263698">
        <time>2022-07-06T11:47:12Z</time>
      </trkpt>
      <trkpt lat="42.10766" lon="-0.14255466">
        <time>2022-07-06T11:47:13Z</time>
      </trkpt>
      <trkpt lat="42.10764" lon="-0.142473">
        <time>2022-07-06T11:47:14Z</time>
      </trkpt>
      <trkpt lat="42.10762" lon="-0.14239033">
        <time>2022-07-06T11:47:15Z</time>
      </trkpt>
      <trkpt lat="42.107605" lon="-0.142307">
        <time>2022-07-06T11:47:16Z</time>
      </trkpt>
      <trkpt lat="42.107586" lon="-0.142224">
        <time>2022-07-06T11:47:17Z</time>
      </trkpt>
      <trkpt lat="42.107567" lon="-0.14214">
        <time>2022-07-06T11:47:18Z</time>
      </trkpt>
      <trkpt lat="42.107548" lon="-0.142054">
        <time>2022-07-06T11:47:19Z</time>
      </trkpt>
      <trkpt lat="42.10753" lon="-0.141968">
        <time>2022-07-06T11:47:20Z</time>
      </trkpt>
      <trkpt lat="42.107513" lon="-0.14188235">
        <time>2022-07-06T11:47:21Z</time>
      </trkpt>
      <trkpt lat="42.107494" lon="-0.14179668">
        <time>2022-07-06T11:47:22Z</time>
      </trkpt>
      <trkpt lat="42.107475" lon="-0.14170635">
        <time>2022-07-06T11:47:23Z</time>
      </trkpt>
      <trkpt lat="42.107456" lon="-0.14162402">
        <time>2022-07-06T11:47:24Z</time>
      </trkpt>
      <trkpt lat="42.107437" lon="-0.14154169">
        <time>2022-07-06T11:47:25Z</time>
      </trkpt>
      <trkpt lat="42.107418" lon="-0.14146069">
        <time>2022-07-06T11:47:26Z</time>
      </trkpt>
      <trkpt lat="42.107395" lon="-0.14138003">
        <time>2022-07-06T11:47:27Z</time>
      </trkpt>
      <trkpt lat="42.107376" lon="-0.1412997">
        <time>2022-07-06T11:47:28Z</time>
      </trkpt>
      <trkpt lat="42.107353" lon="-0.14122003">
        <time>2022-07-06T11:47:29Z</time>
      </trkpt>
      <trkpt lat="42.107334" lon="-0.14114071">
        <time>2022-07-06T11:47:30Z</time>
      </trkpt>
      <trkpt lat="42.10731" lon="-0.14106105">
        <time>2022-07-06T11:47:31Z</time>
      </trkpt>
      <trkpt lat="42.107292" lon="-0.14098272">
        <time>2022-07-06T11:47:32Z</time>
      </trkpt>
      <trkpt lat="42.10727" lon="-0.14089972">
        <time>2022-07-06T11:47:33Z</time>
      </trkpt>
      <trkpt lat="42.107246" lon="-0.14082372">
        <time>2022-07-06T11:47:34Z</time>
      </trkpt>
      <trkpt lat="42.107224" lon="-0.14074773">
        <time>2022-07-06T11:47:35Z</time>
      </trkpt>
      <trkpt lat="42.107204" lon="-0.14067039">
        <time>2022-07-06T11:47:36Z</time>
      </trkpt>
      <trkpt lat="42.10718" lon="-0.14059307">
        <time>2022-07-06T11:47:37Z</time>
      </trkpt>
      <trkpt lat="42.107155" lon="-0.1405154">
        <time>2022-07-06T11:47:38Z</time>
      </trkpt>
      <trkpt lat="42.107132" lon="-0.14043607">
        <time>2022-07-06T11:47:39Z</time>
      </trkpt>
      <trkpt lat="42.107105" lon="-0.1403564">
        <time>2022-07-06T11:47:40Z</time>
      </trkpt>
      <trkpt lat="42.107082" lon="-0.14027674">
        <time>2022-07-06T11:47:41Z</time>
      </trkpt>
      <trkpt lat="42.107056" lon="-0.14019676">
        <time>2022-07-06T11:47:42Z</time>
      </trkpt>
      <trkpt lat="42.10703" lon="-0.14011575">
        <time>2022-07-06T11:47:43Z</time>
      </trkpt>
      <trkpt lat="42.107002" lon="-0.14003475">
        <time>2022-07-06T11:47:44Z</time>
      </trkpt>
      <trkpt lat="42.106976" lon="-0.13995275">
        <time>2022-07-06T11:47:45Z</time>
      </trkpt>
      <trkpt lat="42.10695" lon="-0.13987042">
        <time>2022-07-06T11:47:46Z</time>
      </trkpt>
      <trkpt lat="42.106922" lon="-0.1397871">
        <time>2022-07-06T11:47:47Z</time>
      </trkpt>
      <trkpt lat="42.10689" lon="-0.13969743">
        <time>2022-07-06T11:47:48Z</time>
      </trkpt>
      <trkpt lat="42.106857" lon="-0.1396091">
        <time>2022-07-06T11:47:49Z</time>
      </trkpt>
      <trkpt lat="42.10683" lon="-0.13952744">
        <time>2022-07-06T11:47:50Z</time>
      </trkpt>
      <trkpt lat="42.106796" lon="-0.13944478">
        <time>2022-07-06T11:47:51Z</time>
      </trkpt>
      <trkpt lat="42.106766" lon="-0.13936044">
        <time>2022-07-06T11:47:52Z</time>
      </trkpt>
      <trkpt lat="42.10673" lon="-0.13926978">
        <time>2022-07-06T11:47:53Z</time>
      </trkpt>
      <trkpt lat="42.106693" lon="-0.13917845">
        <time>2022-07-06T11:47:54Z</time>
      </trkpt>
      <trkpt lat="42.106663" lon="-0.1390938">
        <time>2022-07-06T11:47:55Z</time>
      </trkpt>
      <trkpt lat="42.10663" lon="-0.13900714">
        <time>2022-07-06T11:47:56Z</time>
      </trkpt>
      <trkpt lat="42.10659" lon="-0.13891914">
        <time>2022-07-06T11:47:57Z</time>
      </trkpt>
      <trkpt lat="42.106552" lon="-0.13883014">
        <time>2022-07-06T11:47:58Z</time>
      </trkpt>
      <trkpt lat="42.106514" lon="-0.13874148">
        <time>2022-07-06T11:47:59Z</time>
      </trkpt>
      <trkpt lat="42.106476" lon="-0.13865247">
        <time>2022-07-06T11:48:00Z</time>
      </trkpt>
      <trkpt lat="42.106438" lon="-0.13856249">
        <time>2022-07-06T11:48:01Z</time>
      </trkpt>
      <trkpt lat="42.106396" lon="-0.13847283">
        <time>2022-07-06T11:48:02Z</time>
      </trkpt>
      <trkpt lat="42.106354" lon="-0.13838282">
        <time>2022-07-06T11:48:03Z</time>
      </trkpt>
      <trkpt lat="42.10631" lon="-0.13829216">
        <time>2022-07-06T11:48:04Z</time>
      </trkpt>
      <trkpt lat="42.10623" lon="-0.13810916">
        <time>2022-07-06T11:48:06Z</time>
      </trkpt>
      <trkpt lat="42.10619" lon="-0.13801716">
        <time>2022-07-06T11:48:07Z</time>
      </trkpt>
      <trkpt lat="42.106148" lon="-0.13792583">
        <time>2022-07-06T11:48:08Z</time>
      </trkpt>
      <trkpt lat="42.10611" lon="-0.13783517">
        <time>2022-07-06T11:48:09Z</time>
      </trkpt>
      <trkpt lat="42.106068" lon="-0.13774551">
        <time>2022-07-06T11:48:10Z</time>
      </trkpt>
      <trkpt lat="42.10603" lon="-0.13765585">
        <time>2022-07-06T11:48:11Z</time>
      </trkpt>
      <trkpt lat="42.10599" lon="-0.13756585">
        <time>2022-07-06T11:48:12Z</time>
      </trkpt>
      <trkpt lat="42.10595" lon="-0.13747652">
        <time>2022-07-06T11:48:13Z</time>
      </trkpt>
      <trkpt lat="42.10591" lon="-0.13738853">
        <time>2022-07-06T11:48:14Z</time>
      </trkpt>
      <trkpt lat="42.105873" lon="-0.13729551">
        <time>2022-07-06T11:48:15Z</time>
      </trkpt>
      <trkpt lat="42.10583" lon="-0.13720518">
        <time>2022-07-06T11:48:16Z</time>
      </trkpt>
      <trkpt lat="42.105797" lon="-0.13712218">
        <time>2022-07-06T11:48:17Z</time>
      </trkpt>
      <trkpt lat="42.10576" lon="-0.13703986">
        <time>2022-07-06T11:48:18Z</time>
      </trkpt>
      <trkpt lat="42.10572" lon="-0.13695753">
        <time>2022-07-06T11:48:19Z</time>
      </trkpt>
      <trkpt lat="42.105682" lon="-0.1368752">
        <time>2022-07-06T11:48:20Z</time>
      </trkpt>
      <trkpt lat="42.10564" lon="-0.1367872">
        <time>2022-07-06T11:48:21Z</time>
      </trkpt>
      <trkpt lat="42.105606" lon="-0.13670655">
        <time>2022-07-06T11:48:22Z</time>
      </trkpt>
      <trkpt lat="42.105568" lon="-0.13662589">
        <time>2022-07-06T11:48:23Z</time>
      </trkpt>
      <trkpt lat="42.105534" lon="-0.13654421">
        <time>2022-07-06T11:48:24Z</time>
      </trkpt>
      <trkpt lat="42.105495" lon="-0.1364629">
        <time>2022-07-06T11:48:25Z</time>
      </trkpt>
      <trkpt lat="42.10546" lon="-0.13638224">
        <time>2022-07-06T11:48:26Z</time>
      </trkpt>
      <trkpt lat="42.105423" lon="-0.13630056">
        <time>2022-07-06T11:48:27Z</time>
      </trkpt>
      <trkpt lat="42.10539" lon="-0.13621958">
        <time>2022-07-06T11:48:28Z</time>
      </trkpt>
      <trkpt lat="42.105354" lon="-0.13613825">
        <time>2022-07-06T11:48:29Z</time>
      </trkpt>
      <trkpt lat="42.105316" lon="-0.13605691">
        <time>2022-07-06T11:48:30Z</time>
      </trkpt>
      <trkpt lat="42.10528" lon="-0.13597591">
        <time>2022-07-06T11:48:31Z</time>
      </trkpt>
      <trkpt lat="42.105244" lon="-0.13589425">
        <time>2022-07-06T11:48:32Z</time>
      </trkpt>
      <trkpt lat="42.10521" lon="-0.13581325">
        <time>2022-07-06T11:48:33Z</time>
      </trkpt>
      <trkpt lat="42.10517" lon="-0.13573125">
        <time>2022-07-06T11:48:34Z</time>
      </trkpt>
      <trkpt lat="42.105137" lon="-0.13564925">
        <time>2022-07-06T11:48:35Z</time>
      </trkpt>
      <trkpt lat="42.1051" lon="-0.13556725">
        <time>2022-07-06T11:48:36Z</time>
      </trkpt>
      <trkpt lat="42.105064" lon="-0.13548392">
        <time>2022-07-06T11:48:37Z</time>
      </trkpt>
      <trkpt lat="42.10503" lon="-0.13540292">
        <time>2022-07-06T11:48:38Z</time>
      </trkpt>
      <trkpt lat="42.104992" lon="-0.13532159">
        <time>2022-07-06T11:48:39Z</time>
      </trkpt>
      <trkpt lat="42.104954" lon="-0.13524026">
        <time>2022-07-06T11:48:40Z</time>
      </trkpt>
      <trkpt lat="42.104916" lon="-0.1351516">
        <time>2022-07-06T11:48:41Z</time>
      </trkpt>
      <trkpt lat="42.10488" lon="-0.13507026">
        <time>2022-07-06T11:48:42Z</time>
      </trkpt>
      <trkpt lat="42.104843" lon="-0.13498761">
        <time>2022-07-06T11:48:43Z</time>
      </trkpt>
      <trkpt lat="42.104805" lon="-0.13490361">
        <time>2022-07-06T11:48:44Z</time>
      </trkpt>
      <trkpt lat="42.104767" lon="-0.13481995">
        <time>2022-07-06T11:48:45Z</time>
      </trkpt>
      <trkpt lat="42.104733" lon="-0.13473596">
        <time>2022-07-06T11:48:46Z</time>
      </trkpt>
      <trkpt lat="42.10469" lon="-0.13465162">
        <time>2022-07-06T11:48:47Z</time>
      </trkpt>
      <trkpt lat="42.104652" lon="-0.13456562">
        <time>2022-07-06T11:48:48Z</time>
      </trkpt>
      <trkpt lat="42.104614" lon="-0.13447928">
        <time>2022-07-06T11:48:49Z</time>
      </trkpt>
      <trkpt lat="42.104576" lon="-0.13439097">
        <time>2022-07-06T11:48:50Z</time>
      </trkpt>
      <trkpt lat="42.10454" lon="-0.13430163">
        <time>2022-07-06T11:48:51Z</time>
      </trkpt>
      <trkpt lat="42.104504" lon="-0.13421163">
        <time>2022-07-06T11:48:52Z</time>
      </trkpt>
      <trkpt lat="42.104465" lon="-0.1341203">
        <time>2022-07-06T11:48:53Z</time>
      </trkpt>
      <trkpt lat="42.104424" lon="-0.13402964">
        <time>2022-07-06T11:48:54Z</time>
      </trkpt>
      <trkpt lat="42.104385" lon="-0.13393831">
        <time>2022-07-06T11:48:55Z</time>
      </trkpt>
      <trkpt lat="42.104347" lon="-0.13384731">
        <time>2022-07-06T11:48:56Z</time>
      </trkpt>
      <trkpt lat="42.10431" lon="-0.13375698">
        <time>2022-07-06T11:48:57Z</time>
      </trkpt>
      <trkpt lat="42.104267" lon="-0.13366732">
        <time>2022-07-06T11:48:58Z</time>
      </trkpt>
      <trkpt lat="42.10423" lon="-0.13357699">
        <time>2022-07-06T11:48:59Z</time>
      </trkpt>
      <trkpt lat="42.104187" lon="-0.13348566">
        <time>2022-07-06T11:49:00Z</time>
      </trkpt>
      <trkpt lat="42.104145" lon="-0.13339466">
        <time>2022-07-06T11:49:01Z</time>
      </trkpt>
      <trkpt lat="42.104107" lon="-0.13330366">
        <time>2022-07-06T11:49:02Z</time>
      </trkpt>
      <trkpt lat="42.104065" lon="-0.13321233">
        <time>2022-07-06T11:49:03Z</time>
      </trkpt>
      <trkpt lat="42.104023" lon="-0.13311867">
        <time>2022-07-06T11:49:04Z</time>
      </trkpt>
      <trkpt lat="42.10398" lon="-0.133024">
        <time>2022-07-06T11:49:05Z</time>
      </trkpt>
      <trkpt lat="42.103935" lon="-0.13292868">
        <time>2022-07-06T11:49:06Z</time>
      </trkpt>
      <trkpt lat="42.103893" lon="-0.13283534">
        <time>2022-07-06T11:49:07Z</time>
      </trkpt>
      <trkpt lat="42.10385" lon="-0.13274135">
        <time>2022-07-06T11:49:08Z</time>
      </trkpt>
      <trkpt lat="42.10381" lon="-0.13264869">
        <time>2022-07-06T11:49:09Z</time>
      </trkpt>
      <trkpt lat="42.103767" lon="-0.13255604">
        <time>2022-07-06T11:49:10Z</time>
      </trkpt>
      <trkpt lat="42.103687" lon="-0.13237102">
        <time>2022-07-06T11:49:12Z</time>
      </trkpt>
      <trkpt lat="42.103645" lon="-0.13227902">
        <time>2022-07-06T11:49:13Z</time>
      </trkpt>
      <trkpt lat="42.103607" lon="-0.1321857">
        <time>2022-07-06T11:49:14Z</time>
      </trkpt>
      <trkpt lat="42.10357" lon="-0.1320927">
        <time>2022-07-06T11:49:15Z</time>
      </trkpt>
      <trkpt lat="42.103527" lon="-0.1320007">
        <time>2022-07-06T11:49:16Z</time>
      </trkpt>
      <trkpt lat="42.10349" lon="-0.1319097">
        <time>2022-07-06T11:49:17Z</time>
      </trkpt>
      <trkpt lat="42.10345" lon="-0.1318197">
        <time>2022-07-06T11:49:18Z</time>
      </trkpt>
      <trkpt lat="42.10341" lon="-0.13173036">
        <time>2022-07-06T11:49:19Z</time>
      </trkpt>
      <trkpt lat="42.10337" lon="-0.13164172">
        <time>2022-07-06T11:49:20Z</time>
      </trkpt>
      <trkpt lat="42.10333" lon="-0.13155271">
        <time>2022-07-06T11:49:21Z</time>
      </trkpt>
      <trkpt lat="42.10329" lon="-0.13146238">
        <time>2022-07-06T11:49:22Z</time>
      </trkpt>
      <trkpt lat="42.10325" lon="-0.13136639">
        <time>2022-07-06T11:49:23Z</time>
      </trkpt>
      <trkpt lat="42.103207" lon="-0.13127972">
        <time>2022-07-06T11:49:24Z</time>
      </trkpt>
      <trkpt lat="42.10317" lon="-0.13119239">
        <time>2022-07-06T11:49:25Z</time>
      </trkpt>
      <trkpt lat="42.103127" lon="-0.13110372">
        <time>2022-07-06T11:49:26Z</time>
      </trkpt>
      <trkpt lat="42.103085" lon="-0.13100907">
        <time>2022-07-06T11:49:27Z</time>
      </trkpt>
      <trkpt lat="42.103046" lon="-0.13092273">
        <time>2022-07-06T11:49:28Z</time>
      </trkpt>
      <trkpt lat="42.10301" lon="-0.13083509">
        <time>2022-07-06T11:49:29Z</time>
      </trkpt>
      <trkpt lat="42.10297" lon="-0.13074608">
        <time>2022-07-06T11:49:30Z</time>
      </trkpt>
      <trkpt lat="42.10293" lon="-0.13065608">
        <time>2022-07-06T11:49:31Z</time>
      </trkpt>
      <trkpt lat="42.10289" lon="-0.13055976">
        <time>2022-07-06T11:49:32Z</time>
      </trkpt>
      <trkpt lat="42.102848" lon="-0.13047075">
        <time>2022-07-06T11:49:33Z</time>
      </trkpt>
      <trkpt lat="42.10281" lon="-0.13037442">
        <time>2022-07-06T11:49:34Z</time>
      </trkpt>
      <trkpt lat="42.102768" lon="-0.13028575">
        <time>2022-07-06T11:49:35Z</time>
      </trkpt>
      <trkpt lat="42.10273" lon="-0.13019577">
        <time>2022-07-06T11:49:36Z</time>
      </trkpt>
      <trkpt lat="42.102688" lon="-0.13010544">
        <time>2022-07-06T11:49:37Z</time>
      </trkpt>
      <trkpt lat="42.102646" lon="-0.1300141">
        <time>2022-07-06T11:49:38Z</time>
      </trkpt>
      <trkpt lat="42.102604" lon="-0.1299161">
        <time>2022-07-06T11:49:39Z</time>
      </trkpt>
      <trkpt lat="42.102562" lon="-0.12982577">
        <time>2022-07-06T11:49:40Z</time>
      </trkpt>
      <trkpt lat="42.102524" lon="-0.12973444">
        <time>2022-07-06T11:49:41Z</time>
      </trkpt>
      <trkpt lat="42.10248" lon="-0.12964211">
        <time>2022-07-06T11:49:42Z</time>
      </trkpt>
      <trkpt lat="42.10244" lon="-0.12954979">
        <time>2022-07-06T11:49:43Z</time>
      </trkpt>
      <trkpt lat="42.1024" lon="-0.12945645">
        <time>2022-07-06T11:49:44Z</time>
      </trkpt>
      <trkpt lat="42.10236" lon="-0.12936279">
        <time>2022-07-06T11:49:45Z</time>
      </trkpt>
      <trkpt lat="42.102318" lon="-0.12926847">
        <time>2022-07-06T11:49:46Z</time>
      </trkpt>
      <trkpt lat="42.10228" lon="-0.12917346">
        <time>2022-07-06T11:49:47Z</time>
      </trkpt>
      <trkpt lat="42.102238" lon="-0.1290778">
        <time>2022-07-06T11:49:48Z</time>
      </trkpt>
      <trkpt lat="42.102196" lon="-0.1289818">
        <time>2022-07-06T11:49:49Z</time>
      </trkpt>
      <trkpt lat="42.102154" lon="-0.1288858">
        <time>2022-07-06T11:49:50Z</time>
      </trkpt>
      <trkpt lat="42.10211" lon="-0.1287888">
        <time>2022-07-06T11:49:51Z</time>
      </trkpt>
      <trkpt lat="42.102066" lon="-0.12869214">
        <time>2022-07-06T11:49:52Z</time>
      </trkpt>
      <trkpt lat="42.102024" lon="-0.12858881">
        <time>2022-07-06T11:49:53Z</time>
      </trkpt>
      <trkpt lat="42.10198" lon="-0.12848815">
        <time>2022-07-06T11:49:54Z</time>
      </trkpt>
      <trkpt lat="42.101936" lon="-0.1283895">
        <time>2022-07-06T11:49:55Z</time>
      </trkpt>
      <trkpt lat="42.101894" lon="-0.1282975">
        <time>2022-07-06T11:49:56Z</time>
      </trkpt>
      <trkpt lat="42.101852" lon="-0.12820315">
        <time>2022-07-06T11:49:57Z</time>
      </trkpt>
      <trkpt lat="42.10181" lon="-0.12810816">
        <time>2022-07-06T11:49:58Z</time>
      </trkpt>
      <trkpt lat="42.10177" lon="-0.12801284">
        <time>2022-07-06T11:49:59Z</time>
      </trkpt>
      <trkpt lat="42.101723" lon="-0.1279115">
        <time>2022-07-06T11:50:00Z</time>
      </trkpt>
      <trkpt lat="42.101685" lon="-0.12781884">
        <time>2022-07-06T11:50:01Z</time>
      </trkpt>
      <trkpt lat="42.101643" lon="-0.12772584">
        <time>2022-07-06T11:50:02Z</time>
      </trkpt>
      <trkpt lat="42.1016" lon="-0.12763318">
        <time>2022-07-06T11:50:03Z</time>
      </trkpt>
      <trkpt lat="42.101562" lon="-0.12753984">
        <time>2022-07-06T11:50:04Z</time>
      </trkpt>
      <trkpt lat="42.10152" lon="-0.12743951">
        <time>2022-07-06T11:50:05Z</time>
      </trkpt>
      <trkpt lat="42.101475" lon="-0.12734085">
        <time>2022-07-06T11:50:06Z</time>
      </trkpt>
      <trkpt lat="42.101437" lon="-0.12725054">
        <time>2022-07-06T11:50:07Z</time>
      </trkpt>
      <trkpt lat="42.1014" lon="-0.1271592">
        <time>2022-07-06T11:50:08Z</time>
      </trkpt>
      <trkpt lat="42.101357" lon="-0.1270612">
        <time>2022-07-06T11:50:09Z</time>
      </trkpt>
      <trkpt lat="42.101315" lon="-0.12696487">
        <time>2022-07-06T11:50:10Z</time>
      </trkpt>
      <trkpt lat="42.101273" lon="-0.12687653">
        <time>2022-07-06T11:50:11Z</time>
      </trkpt>
      <trkpt lat="42.101234" lon="-0.12678687">
        <time>2022-07-06T11:50:12Z</time>
      </trkpt>
      <trkpt lat="42.101192" lon="-0.12669756">
        <time>2022-07-06T11:50:13Z</time>
      </trkpt>
      <trkpt lat="42.10115" lon="-0.12660722">
        <time>2022-07-06T11:50:14Z</time>
      </trkpt>
      <trkpt lat="42.10111" lon="-0.12651356">
        <time>2022-07-06T11:50:15Z</time>
      </trkpt>
      <trkpt lat="42.10107" lon="-0.12641923">
        <time>2022-07-06T11:50:16Z</time>
      </trkpt>
      <trkpt lat="42.100986" lon="-0.12623458">
        <time>2022-07-06T11:50:18Z</time>
      </trkpt>
      <trkpt lat="42.100945" lon="-0.12614223">
        <time>2022-07-06T11:50:19Z</time>
      </trkpt>
      <trkpt lat="42.100903" lon="-0.12605058">
        <time>2022-07-06T11:50:20Z</time>
      </trkpt>
      <trkpt lat="42.100864" lon="-0.12595958">
        <time>2022-07-06T11:50:21Z</time>
      </trkpt>
      <trkpt lat="42.100822" lon="-0.12586392">
        <time>2022-07-06T11:50:22Z</time>
      </trkpt>
      <trkpt lat="42.10078" lon="-0.12576991">
        <time>2022-07-06T11:50:23Z</time>
      </trkpt>
      <trkpt lat="42.100742" lon="-0.12567759">
        <time>2022-07-06T11:50:24Z</time>
      </trkpt>
      <trkpt lat="42.100704" lon="-0.12558793">
        <time>2022-07-06T11:50:25Z</time>
      </trkpt>
      <trkpt lat="42.100666" lon="-0.1254986">
        <time>2022-07-06T11:50:26Z</time>
      </trkpt>
      <trkpt lat="42.100624" lon="-0.12540995">
        <time>2022-07-06T11:50:27Z</time>
      </trkpt>
      <trkpt lat="42.10059" lon="-0.12532827">
        <time>2022-07-06T11:50:28Z</time>
      </trkpt>
      <trkpt lat="42.100555" lon="-0.12524427">
        <time>2022-07-06T11:50:29Z</time>
      </trkpt>
      <trkpt lat="42.100513" lon="-0.12515561">
        <time>2022-07-06T11:50:30Z</time>
      </trkpt>
      <trkpt lat="42.100475" lon="-0.12506862">
        <time>2022-07-06T11:50:31Z</time>
      </trkpt>
      <trkpt lat="42.100437" lon="-0.12498829">
        <time>2022-07-06T11:50:32Z</time>
      </trkpt>
      <trkpt lat="42.100403" lon="-0.12490596">
        <time>2022-07-06T11:50:33Z</time>
      </trkpt>
      <trkpt lat="42.100365" lon="-0.12482263">
        <time>2022-07-06T11:50:34Z</time>
      </trkpt>
      <trkpt lat="42.10033" lon="-0.1247383">
        <time>2022-07-06T11:50:35Z</time>
      </trkpt>
      <trkpt lat="42.10029" lon="-0.1246473">
        <time>2022-07-06T11:50:36Z</time>
      </trkpt>
      <trkpt lat="42.10025" lon="-0.12455797">
        <time>2022-07-06T11:50:37Z</time>
      </trkpt>
      <trkpt lat="42.100212" lon="-0.12447597">
        <time>2022-07-06T11:50:38Z</time>
      </trkpt>
      <trkpt lat="42.100174" lon="-0.12439164">
        <time>2022-07-06T11:50:39Z</time>
      </trkpt>
      <trkpt lat="42.10014" lon="-0.12430698">
        <time>2022-07-06T11:50:40Z</time>
      </trkpt>
      <trkpt lat="42.1001" lon="-0.12422165">
        <time>2022-07-06T11:50:41Z</time>
      </trkpt>
      <trkpt lat="42.10006" lon="-0.12412999">
        <time>2022-07-06T11:50:42Z</time>
      </trkpt>
      <trkpt lat="42.10002" lon="-0.12404433">
        <time>2022-07-06T11:50:43Z</time>
      </trkpt>
      <trkpt lat="42.099987" lon="-0.123958">
        <time>2022-07-06T11:50:44Z</time>
      </trkpt>
      <trkpt lat="42.099945" lon="-0.12387067">
        <time>2022-07-06T11:50:45Z</time>
      </trkpt>
      <trkpt lat="42.099903" lon="-0.12377667">
        <time>2022-07-06T11:50:46Z</time>
      </trkpt>
      <trkpt lat="42.09986" lon="-0.12368434">
        <time>2022-07-06T11:50:47Z</time>
      </trkpt>
      <trkpt lat="42.099823" lon="-0.12359834">
        <time>2022-07-06T11:50:48Z</time>
      </trkpt>
      <trkpt lat="42.09978" lon="-0.12351001">
        <time>2022-07-06T11:50:49Z</time>
      </trkpt>
      <trkpt lat="42.09974" lon="-0.12341935">
        <time>2022-07-06T11:50:50Z</time>
      </trkpt>
      <trkpt lat="42.099697" lon="-0.12332102">
        <time>2022-07-06T11:50:51Z</time>
      </trkpt>
      <trkpt lat="42.099655" lon="-0.12322302">
        <time>2022-07-06T11:50:52Z</time>
      </trkpt>
      <trkpt lat="42.099613" lon="-0.12313136">
        <time>2022-07-06T11:50:53Z</time>
      </trkpt>
      <trkpt lat="42.09957" lon="-0.1230387">
        <time>2022-07-06T11:50:54Z</time>
      </trkpt>
      <trkpt lat="42.099533" lon="-0.12294537">
        <time>2022-07-06T11:50:55Z</time>
      </trkpt>
      <trkpt lat="42.099487" lon="-0.12284537">
        <time>2022-07-06T11:50:56Z</time>
      </trkpt>
      <trkpt lat="42.09945" lon="-0.12275371">
        <time>2022-07-06T11:50:57Z</time>
      </trkpt>
      <trkpt lat="42.09941" lon="-0.12266071">
        <time>2022-07-06T11:50:58Z</time>
      </trkpt>
      <trkpt lat="42.09937" lon="-0.12256738">
        <time>2022-07-06T11:50:59Z</time>
      </trkpt>
      <trkpt lat="42.09933" lon="-0.12247505">
        <time>2022-07-06T11:51:00Z</time>
      </trkpt>
      <trkpt lat="42.09929" lon="-0.12238272">
        <time>2022-07-06T11:51:01Z</time>
      </trkpt>
      <trkpt lat="42.099247" lon="-0.12229172">
        <time>2022-07-06T11:51:02Z</time>
      </trkpt>
      <trkpt lat="42.09921" lon="-0.12220239">
        <time>2022-07-06T11:51:03Z</time>
      </trkpt>
      <trkpt lat="42.099167" lon="-0.12211306">
        <time>2022-07-06T11:51:04Z</time>
      </trkpt>
      <trkpt lat="42.099125" lon="-0.12202506">
        <time>2022-07-06T11:51:05Z</time>
      </trkpt>
      <trkpt lat="42.099087" lon="-0.12193706">
        <time>2022-07-06T11:51:06Z</time>
      </trkpt>
      <trkpt lat="42.09905" lon="-0.12184973">
        <time>2022-07-06T11:51:07Z</time>
      </trkpt>
      <trkpt lat="42.09901" lon="-0.12176307">
        <time>2022-07-06T11:51:08Z</time>
      </trkpt>
      <trkpt lat="42.098976" lon="-0.12167707">
        <time>2022-07-06T11:51:09Z</time>
      </trkpt>
      <trkpt lat="42.098938" lon="-0.12159241">
        <time>2022-07-06T11:51:10Z</time>
      </trkpt>
      <trkpt lat="42.0989" lon="-0.12150941">
        <time>2022-07-06T11:51:11Z</time>
      </trkpt>
      <trkpt lat="42.098866" lon="-0.12142841">
        <time>2022-07-06T11:51:12Z</time>
      </trkpt>
      <trkpt lat="42.09883" lon="-0.12134875">
        <time>2022-07-06T11:51:13Z</time>
      </trkpt>
      <trkpt lat="42.098793" lon="-0.12127009">
        <time>2022-07-06T11:51:14Z</time>
      </trkpt>
      <trkpt lat="42.09876" lon="-0.12119309">
        <time>2022-07-06T11:51:15Z</time>
      </trkpt>
      <trkpt lat="42.098724" lon="-0.12111676">
        <time>2022-07-06T11:51:16Z</time>
      </trkpt>
      <trkpt lat="42.098686" lon="-0.12104043">
        <time>2022-07-06T11:51:17Z</time>
      </trkpt>
      <trkpt lat="42.09865" lon="-0.12096343">
        <time>2022-07-06T11:51:18Z</time>
      </trkpt>
      <trkpt lat="42.098618" lon="-0.12088643">
        <time>2022-07-06T11:51:19Z</time>
      </trkpt>
      <trkpt lat="42.098583" lon="-0.1208091">
        <time>2022-07-06T11:51:20Z</time>
      </trkpt>
      <trkpt lat="42.098515" lon="-0.12065577">
        <time>2022-07-06T11:51:22Z</time>
      </trkpt>
      <trkpt lat="42.09848" lon="-0.12058177">
        <time>2022-07-06T11:51:23Z</time>
      </trkpt>
      <trkpt lat="42.098446" lon="-0.12050944">
        <time>2022-07-06T11:51:24Z</time>
      </trkpt>
      <trkpt lat="42.098415" lon="-0.12043811">
        <time>2022-07-06T11:51:25Z</time>
      </trkpt>
      <trkpt lat="42.098385" lon="-0.12036911">
        <time>2022-07-06T11:51:26Z</time>
      </trkpt>
      <trkpt lat="42.098354" lon="-0.12030078">
        <time>2022-07-06T11:51:27Z</time>
      </trkpt>
      <trkpt lat="42.098324" lon="-0.12023278">
        <time>2022-07-06T11:51:28Z</time>
      </trkpt>
      <trkpt lat="42.098293" lon="-0.12016278">
        <time>2022-07-06T11:51:29Z</time>
      </trkpt>
      <trkpt lat="42.098267" lon="-0.12009878">
        <time>2022-07-06T11:51:30Z</time>
      </trkpt>
      <trkpt lat="42.09824" lon="-0.12003578">
        <time>2022-07-06T11:51:31Z</time>
      </trkpt>
      <trkpt lat="42.098213" lon="-0.11997412">
        <time>2022-07-06T11:51:32Z</time>
      </trkpt>
      <trkpt lat="42.098186" lon="-0.11991346">
        <time>2022-07-06T11:51:33Z</time>
      </trkpt>
      <trkpt lat="42.098133" lon="-0.1197928">
        <time>2022-07-06T11:51:35Z</time>
      </trkpt>
      <trkpt lat="42.098106" lon="-0.11973214">
        <time>2022-07-06T11:51:36Z</time>
      </trkpt>
      <trkpt lat="42.09808" lon="-0.11967081">
        <time>2022-07-06T11:51:37Z</time>
      </trkpt>
      <trkpt lat="42.098057" lon="-0.11961081">
        <time>2022-07-06T11:51:38Z</time>
      </trkpt>
      <trkpt lat="42.098003" lon="-0.11948848">
        <time>2022-07-06T11:51:40Z</time>
      </trkpt>
      <trkpt lat="42.097977" lon="-0.11942648">
        <time>2022-07-06T11:51:41Z</time>
      </trkpt>
      <trkpt lat="42.09795" lon="-0.11936315">
        <time>2022-07-06T11:51:42Z</time>
      </trkpt>
      <trkpt lat="42.097923" lon="-0.11929915">
        <time>2022-07-06T11:51:43Z</time>
      </trkpt>
      <trkpt lat="42.097897" lon="-0.11923449">
        <time>2022-07-06T11:51:44Z</time>
      </trkpt>
      <trkpt lat="42.09787" lon="-0.11916983">
        <time>2022-07-06T11:51:45Z</time>
      </trkpt>
      <trkpt lat="42.097843" lon="-0.1191045">
        <time>2022-07-06T11:51:46Z</time>
      </trkpt>
      <trkpt lat="42.097813" lon="-0.11903817">
        <time>2022-07-06T11:51:47Z</time>
      </trkpt>
      <trkpt lat="42.097782" lon="-0.11897184">
        <time>2022-07-06T11:51:48Z</time>
      </trkpt>
      <trkpt lat="42.09775" lon="-0.11890518">
        <time>2022-07-06T11:51:49Z</time>
      </trkpt>
      <trkpt lat="42.09772" lon="-0.11883885">
        <time>2022-07-06T11:51:50Z</time>
      </trkpt>
      <trkpt lat="42.097694" lon="-0.11877052">
        <time>2022-07-06T11:51:51Z</time>
      </trkpt>
      <trkpt lat="42.097664" lon="-0.11870186">
        <time>2022-07-06T11:51:52Z</time>
      </trkpt>
      <trkpt lat="42.09763" lon="-0.1186332">
        <time>2022-07-06T11:51:53Z</time>
      </trkpt>
      <trkpt lat="42.0976" lon="-0.11856354">
        <time>2022-07-06T11:51:54Z</time>
      </trkpt>
      <trkpt lat="42.09757" lon="-0.11849154">
        <time>2022-07-06T11:51:55Z</time>
      </trkpt>
      <trkpt lat="42.097538" lon="-0.11841754">
        <time>2022-07-06T11:51:56Z</time>
      </trkpt>
      <trkpt lat="42.097507" lon="-0.11834188">
        <time>2022-07-06T11:51:57Z</time>
      </trkpt>
      <trkpt lat="42.097473" lon="-0.11826622">
        <time>2022-07-06T11:51:58Z</time>
      </trkpt>
      <trkpt lat="42.097443" lon="-0.11818856">
        <time>2022-07-06T11:51:59Z</time>
      </trkpt>
      <trkpt lat="42.09741" lon="-0.1181099">
        <time>2022-07-06T11:52:00Z</time>
      </trkpt>
      <trkpt lat="42.097378" lon="-0.11803057">
        <time>2022-07-06T11:52:01Z</time>
      </trkpt>
      <trkpt lat="42.09734" lon="-0.11794957">
        <time>2022-07-06T11:52:02Z</time>
      </trkpt>
      <trkpt lat="42.097305" lon="-0.11786757">
        <time>2022-07-06T11:52:03Z</time>
      </trkpt>
      <trkpt lat="42.09727" lon="-0.11778391">
        <time>2022-07-06T11:52:04Z</time>
      </trkpt>
      <trkpt lat="42.097233" lon="-0.11769991">
        <time>2022-07-06T11:52:05Z</time>
      </trkpt>
      <trkpt lat="42.097195" lon="-0.11761058">
        <time>2022-07-06T11:52:06Z</time>
      </trkpt>
      <trkpt lat="42.097157" lon="-0.11752958">
        <time>2022-07-06T11:52:07Z</time>
      </trkpt>
      <trkpt lat="42.097115" lon="-0.11744958">
        <time>2022-07-06T11:52:08Z</time>
      </trkpt>
      <trkpt lat="42.097073" lon="-0.11737092">
        <time>2022-07-06T11:52:09Z</time>
      </trkpt>
      <trkpt lat="42.09703" lon="-0.11729326">
        <time>2022-07-06T11:52:10Z</time>
      </trkpt>
      <trkpt lat="42.09699" lon="-0.11721626">
        <time>2022-07-06T11:52:11Z</time>
      </trkpt>
      <trkpt lat="42.096943" lon="-0.1171396">
        <time>2022-07-06T11:52:12Z</time>
      </trkpt>
      <trkpt lat="42.096897" lon="-0.1170636">
        <time>2022-07-06T11:52:13Z</time>
      </trkpt>
      <trkpt lat="42.096855" lon="-0.1169876">
        <time>2022-07-06T11:52:14Z</time>
      </trkpt>
      <trkpt lat="42.09681" lon="-0.11691327">
        <time>2022-07-06T11:52:15Z</time>
      </trkpt>
      <trkpt lat="42.096764" lon="-0.11684127">
        <time>2022-07-06T11:52:16Z</time>
      </trkpt>
      <trkpt lat="42.09672" lon="-0.11677194">
        <time>2022-07-06T11:52:17Z</time>
      </trkpt>
      <trkpt lat="42.096676" lon="-0.11670328">
        <time>2022-07-06T11:52:18Z</time>
      </trkpt>
      <trkpt lat="42.096634" lon="-0.11663562">
        <time>2022-07-06T11:52:19Z</time>
      </trkpt>
      <trkpt lat="42.096592" lon="-0.11657196">
        <time>2022-07-06T11:52:20Z</time>
      </trkpt>
      <trkpt lat="42.09655" lon="-0.11650963">
        <time>2022-07-06T11:52:21Z</time>
      </trkpt>
      <trkpt lat="42.096504" lon="-0.11644597">
        <time>2022-07-06T11:52:22Z</time>
      </trkpt>
      <trkpt lat="42.096466" lon="-0.11638931">
        <time>2022-07-06T11:52:23Z</time>
      </trkpt>
      <trkpt lat="42.096428" lon="-0.11633331">
        <time>2022-07-06T11:52:24Z</time>
      </trkpt>
      <trkpt lat="42.096386" lon="-0.11627898">
        <time>2022-07-06T11:52:25Z</time>
      </trkpt>
      <trkpt lat="42.096348" lon="-0.11622565">
        <time>2022-07-06T11:52:26Z</time>
      </trkpt>
      <trkpt lat="42.096268" lon="-0.11611665">
        <time>2022-07-06T11:52:28Z</time>
      </trkpt>
      <trkpt lat="42.096226" lon="-0.11606232">
        <time>2022-07-06T11:52:29Z</time>
      </trkpt>
      <trkpt lat="42.09618" lon="-0.11600732">
        <time>2022-07-06T11:52:30Z</time>
      </trkpt>
      <trkpt lat="42.096138" lon="-0.11595166">
        <time>2022-07-06T11:52:31Z</time>
      </trkpt>
      <trkpt lat="42.096092" lon="-0.115895">
        <time>2022-07-06T11:52:32Z</time>
      </trkpt>
      <trkpt lat="42.096043" lon="-0.115838">
        <time>2022-07-06T11:52:33Z</time>
      </trkpt>
      <trkpt lat="42.095993" lon="-0.11578034">
        <time>2022-07-06T11:52:34Z</time>
      </trkpt>
      <trkpt lat="42.09594" lon="-0.11572168">
        <time>2022-07-06T11:52:35Z</time>
      </trkpt>
      <trkpt lat="42.095886" lon="-0.11566235">
        <time>2022-07-06T11:52:36Z</time>
      </trkpt>
      <trkpt lat="42.09583" lon="-0.11560169">
        <time>2022-07-06T11:52:37Z</time>
      </trkpt>
      <trkpt lat="42.095764" lon="-0.11553636">
        <time>2022-07-06T11:52:38Z</time>
      </trkpt>
      <trkpt lat="42.095707" lon="-0.1154757">
        <time>2022-07-06T11:52:39Z</time>
      </trkpt>
      <trkpt lat="42.095646" lon="-0.11541404">
        <time>2022-07-06T11:52:40Z</time>
      </trkpt>
      <trkpt lat="42.09558" lon="-0.11535171">
        <time>2022-07-06T11:52:41Z</time>
      </trkpt>
      <trkpt lat="42.095512" lon="-0.11528971">
        <time>2022-07-06T11:52:42Z</time>
      </trkpt>
      <trkpt lat="42.095444" lon="-0.11522771">
        <time>2022-07-06T11:52:43Z</time>
      </trkpt>
      <trkpt lat="42.095375" lon="-0.11516538">
        <time>2022-07-06T11:52:44Z</time>
      </trkpt>
      <trkpt lat="42.095306" lon="-0.11510205">
        <time>2022-07-06T11:52:45Z</time>
      </trkpt>
      <trkpt lat="42.09523" lon="-0.11503939">
        <time>2022-07-06T11:52:46Z</time>
      </trkpt>
      <trkpt lat="42.095158" lon="-0.11497806">
        <time>2022-07-06T11:52:47Z</time>
      </trkpt>
      <trkpt lat="42.09508" lon="-0.1149184">
        <time>2022-07-06T11:52:48Z</time>
      </trkpt>
      <trkpt lat="42.095005" lon="-0.11486007">
        <time>2022-07-06T11:52:49Z</time>
      </trkpt>
      <trkpt lat="42.09493" lon="-0.11480307">
        <time>2022-07-06T11:52:50Z</time>
      </trkpt>
      <trkpt lat="42.094852" lon="-0.11474674">
        <time>2022-07-06T11:52:51Z</time>
      </trkpt>
      <trkpt lat="42.094772" lon="-0.11469108">
        <time>2022-07-06T11:52:52Z</time>
      </trkpt>
      <trkpt lat="42.094692" lon="-0.11463642">
        <time>2022-07-06T11:52:53Z</time>
      </trkpt>
      <trkpt lat="42.094612" lon="-0.11458342">
        <time>2022-07-06T11:52:54Z</time>
      </trkpt>
      <trkpt lat="42.094532" lon="-0.11453042">
        <time>2022-07-06T11:52:55Z</time>
      </trkpt>
      <trkpt lat="42.094448" lon="-0.11447876">
        <time>2022-07-06T11:52:56Z</time>
      </trkpt>
      <trkpt lat="42.094364" lon="-0.11442743">
        <time>2022-07-06T11:52:57Z</time>
      </trkpt>
      <trkpt lat="42.094276" lon="-0.11437577">
        <time>2022-07-06T11:52:58Z</time>
      </trkpt>
      <trkpt lat="42.094185" lon="-0.11432644">
        <time>2022-07-06T11:52:59Z</time>
      </trkpt>
      <trkpt lat="42.094097" lon="-0.11428044">
        <time>2022-07-06T11:53:00Z</time>
      </trkpt>
      <trkpt lat="42.094017" lon="-0.11424011">
        <time>2022-07-06T11:53:01Z</time>
      </trkpt>
      <trkpt lat="42.093933" lon="-0.11420178">
        <time>2022-07-06T11:53:02Z</time>
      </trkpt>
      <trkpt lat="42.09385" lon="-0.11416412">
        <time>2022-07-06T11:53:03Z</time>
      </trkpt>
      <trkpt lat="42.093765" lon="-0.11412812">
        <time>2022-07-06T11:53:04Z</time>
      </trkpt>
      <trkpt lat="42.093674" lon="-0.11409179">
        <time>2022-07-06T11:53:05Z</time>
      </trkpt>
      <trkpt lat="42.093594" lon="-0.11405979">
        <time>2022-07-06T11:53:06Z</time>
      </trkpt>
      <trkpt lat="42.09351" lon="-0.11402979">
        <time>2022-07-06T11:53:07Z</time>
      </trkpt>
      <trkpt lat="42.09343" lon="-0.11400113">
        <time>2022-07-06T11:53:08Z</time>
      </trkpt>
      <trkpt lat="42.09334" lon="-0.1139728">
        <time>2022-07-06T11:53:09Z</time>
      </trkpt>
      <trkpt lat="42.093258" lon="-0.11394414">
        <time>2022-07-06T11:53:10Z</time>
      </trkpt>
      <trkpt lat="42.093178" lon="-0.11391681">
        <time>2022-07-06T11:53:11Z</time>
      </trkpt>
      <trkpt lat="42.093098" lon="-0.11389048">
        <time>2022-07-06T11:53:12Z</time>
      </trkpt>
      <trkpt lat="42.093025" lon="-0.11386648">
        <time>2022-07-06T11:53:13Z</time>
      </trkpt>
      <trkpt lat="42.09295" lon="-0.11384282">
        <time>2022-07-06T11:53:14Z</time>
      </trkpt>
      <trkpt lat="42.092876" lon="-0.11381916">
        <time>2022-07-06T11:53:15Z</time>
      </trkpt>
      <trkpt lat="42.092808" lon="-0.11379583">
        <time>2022-07-06T11:53:16Z</time>
      </trkpt>
      <trkpt lat="42.092743" lon="-0.1137735">
        <time>2022-07-06T11:53:17Z</time>
      </trkpt>
      <trkpt lat="42.092678" lon="-0.11375017">
        <time>2022-07-06T11:53:18Z</time>
      </trkpt>
      <trkpt lat="42.092613" lon="-0.11372551">
        <time>2022-07-06T11:53:19Z</time>
      </trkpt>
      <trkpt lat="42.09255" lon="-0.11369885">
        <time>2022-07-06T11:53:20Z</time>
      </trkpt>
      <trkpt lat="42.092487" lon="-0.11366985">
        <time>2022-07-06T11:53:21Z</time>
      </trkpt>
      <trkpt lat="42.092426" lon="-0.11363752">
        <time>2022-07-06T11:53:22Z</time>
      </trkpt>
      <trkpt lat="42.092365" lon="-0.11360252">
        <time>2022-07-06T11:53:23Z</time>
      </trkpt>
      <trkpt lat="42.092304" lon="-0.11356552">
        <time>2022-07-06T11:53:24Z</time>
      </trkpt>
      <trkpt lat="42.092243" lon="-0.11352686">
        <time>2022-07-06T11:53:25Z</time>
      </trkpt>
      <trkpt lat="42.092182" lon="-0.1134872">
        <time>2022-07-06T11:53:26Z</time>
      </trkpt>
      <trkpt lat="42.09212" lon="-0.11344754">
        <time>2022-07-06T11:53:27Z</time>
      </trkpt>
      <trkpt lat="42.09206" lon="-0.11340721">
        <time>2022-07-06T11:53:28Z</time>
      </trkpt>
      <trkpt lat="42.092" lon="-0.11336588">
        <time>2022-07-06T11:53:29Z</time>
      </trkpt>
      <trkpt lat="42.091938" lon="-0.11332422">
        <time>2022-07-06T11:53:30Z</time>
      </trkpt>
      <trkpt lat="42.091877" lon="-0.11328289">
        <time>2022-07-06T11:53:31Z</time>
      </trkpt>
      <trkpt lat="42.091816" lon="-0.11324189">
        <time>2022-07-06T11:53:32Z</time>
      </trkpt>
      <trkpt lat="42.09169" lon="-0.11315856">
        <time>2022-07-06T11:53:34Z</time>
      </trkpt>
      <trkpt lat="42.09163" lon="-0.11311623">
        <time>2022-07-06T11:53:35Z</time>
      </trkpt>
      <trkpt lat="42.09156" lon="-0.11307123">
        <time>2022-07-06T11:53:36Z</time>
      </trkpt>
      <trkpt lat="42.0915" lon="-0.1130309">
        <time>2022-07-06T11:53:37Z</time>
      </trkpt>
      <trkpt lat="42.091434" lon="-0.1129899">
        <time>2022-07-06T11:53:38Z</time>
      </trkpt>
      <trkpt lat="42.09137" lon="-0.1129489">
        <time>2022-07-06T11:53:39Z</time>
      </trkpt>
      <trkpt lat="42.0913" lon="-0.1129059">
        <time>2022-07-06T11:53:40Z</time>
      </trkpt>
      <trkpt lat="42.09123" lon="-0.11285957">
        <time>2022-07-06T11:53:41Z</time>
      </trkpt>
      <trkpt lat="42.091156" lon="-0.11281291">
        <time>2022-07-06T11:53:42Z</time>
      </trkpt>
      <trkpt lat="42.09109" lon="-0.11276858">
        <time>2022-07-06T11:53:43Z</time>
      </trkpt>
      <trkpt lat="42.091022" lon="-0.11272192">
        <time>2022-07-06T11:53:44Z</time>
      </trkpt>
      <trkpt lat="42.09095" lon="-0.11267292">
        <time>2022-07-06T11:53:45Z</time>
      </trkpt>
      <trkpt lat="42.090874" lon="-0.11261992">
        <time>2022-07-06T11:53:46Z</time>
      </trkpt>
      <trkpt lat="42.090797" lon="-0.11256659">
        <time>2022-07-06T11:53:47Z</time>
      </trkpt>
      <trkpt lat="42.090717" lon="-0.11251393">
        <time>2022-07-06T11:53:48Z</time>
      </trkpt>
      <trkpt lat="42.090645" lon="-0.11246493">
        <time>2022-07-06T11:53:49Z</time>
      </trkpt>
      <trkpt lat="42.09057" lon="-0.11241393">
        <time>2022-07-06T11:53:50Z</time>
      </trkpt>
      <trkpt lat="42.090492" lon="-0.11236227">
        <time>2022-07-06T11:53:51Z</time>
      </trkpt>
      <trkpt lat="42.09041" lon="-0.11230561">
        <time>2022-07-06T11:53:52Z</time>
      </trkpt>
      <trkpt lat="42.090324" lon="-0.11224828">
        <time>2022-07-06T11:53:53Z</time>
      </trkpt>
      <trkpt lat="42.09025" lon="-0.11219362">
        <time>2022-07-06T11:53:54Z</time>
      </trkpt>
      <trkpt lat="42.090168" lon="-0.11213362">
        <time>2022-07-06T11:53:55Z</time>
      </trkpt>
      <trkpt lat="42.09009" lon="-0.11206662">
        <time>2022-07-06T11:53:56Z</time>
      </trkpt>
      <trkpt lat="42.09001" lon="-0.11198662">
        <time>2022-07-06T11:53:57Z</time>
      </trkpt>
      <trkpt lat="42.08994" lon="-0.11190796">
        <time>2022-07-06T11:53:58Z</time>
      </trkpt>
      <trkpt lat="42.08987" lon="-0.11182196">
        <time>2022-07-06T11:53:59Z</time>
      </trkpt>
      <trkpt lat="42.089806" lon="-0.1117283">
        <time>2022-07-06T11:54:00Z</time>
      </trkpt>
      <trkpt lat="42.08975" lon="-0.1116263">
        <time>2022-07-06T11:54:01Z</time>
      </trkpt>
      <trkpt lat="42.0897" lon="-0.11151697">
        <time>2022-07-06T11:54:02Z</time>
      </trkpt>
      <trkpt lat="42.089657" lon="-0.11139931">
        <time>2022-07-06T11:54:03Z</time>
      </trkpt>
      <trkpt lat="42.089615" lon="-0.11126765">
        <time>2022-07-06T11:54:04Z</time>
      </trkpt>
      <trkpt lat="42.08959" lon="-0.11114299">
        <time>2022-07-06T11:54:05Z</time>
      </trkpt>
      <trkpt lat="42.089565" lon="-0.11101333">
        <time>2022-07-06T11:54:06Z</time>
      </trkpt>
      <trkpt lat="42.089554" lon="-0.11088">
        <time>2022-07-06T11:54:07Z</time>
      </trkpt>
      <trkpt lat="42.089546" lon="-0.110743">
        <time>2022-07-06T11:54:08Z</time>
      </trkpt>
      <trkpt lat="42.089542" lon="-0.11060434">
        <time>2022-07-06T11:54:09Z</time>
      </trkpt>
      <trkpt lat="42.089542" lon="-0.11046334">
        <time>2022-07-06T11:54:10Z</time>
      </trkpt>
      <trkpt lat="42.089546" lon="-0.11032101">
        <time>2022-07-06T11:54:11Z</time>
      </trkpt>
      <trkpt lat="42.089542" lon="-0.11017735">
        <time>2022-07-06T11:54:12Z</time>
      </trkpt>
      <trkpt lat="42.08953" lon="-0.11003269">
        <time>2022-07-06T11:54:13Z</time>
      </trkpt>
      <trkpt lat="42.08951" lon="-0.10988736">
        <time>2022-07-06T11:54:14Z</time>
      </trkpt>
      <trkpt lat="42.08948" lon="-0.10974336">
        <time>2022-07-06T11:54:15Z</time>
      </trkpt>
      <trkpt lat="42.08943" lon="-0.10960636">
        <time>2022-07-06T11:54:16Z</time>
      </trkpt>
      <trkpt lat="42.089375" lon="-0.10947903">
        <time>2022-07-06T11:54:17Z</time>
      </trkpt>
      <trkpt lat="42.0893" lon="-0.1093607">
        <time>2022-07-06T11:54:18Z</time>
      </trkpt>
      <trkpt lat="42.089214" lon="-0.1092497">
        <time>2022-07-06T11:54:19Z</time>
      </trkpt>
      <trkpt lat="42.089127" lon="-0.10914604">
        <time>2022-07-06T11:54:20Z</time>
      </trkpt>
      <trkpt lat="42.08903" lon="-0.10904804">
        <time>2022-07-06T11:54:21Z</time>
      </trkpt>
      <trkpt lat="42.088932" lon="-0.10895404">
        <time>2022-07-06T11:54:22Z</time>
      </trkpt>
      <trkpt lat="42.08883" lon="-0.10886404">
        <time>2022-07-06T11:54:23Z</time>
      </trkpt>
      <trkpt lat="42.088726" lon="-0.10877638">
        <time>2022-07-06T11:54:24Z</time>
      </trkpt>
      <trkpt lat="42.088623" lon="-0.10869105">
        <time>2022-07-06T11:54:25Z</time>
      </trkpt>
      <trkpt lat="42.088524" lon="-0.10860805">
        <time>2022-07-06T11:54:26Z</time>
      </trkpt>
      <trkpt lat="42.088425" lon="-0.10852939">
        <time>2022-07-06T11:54:27Z</time>
      </trkpt>
      <trkpt lat="42.088326" lon="-0.10845273">
        <time>2022-07-06T11:54:28Z</time>
      </trkpt>
      <trkpt lat="42.08823" lon="-0.1083774">
        <time>2022-07-06T11:54:29Z</time>
      </trkpt>
      <trkpt lat="42.08814" lon="-0.10830507">
        <time>2022-07-06T11:54:30Z</time>
      </trkpt>
      <trkpt lat="42.088047" lon="-0.10823441">
        <time>2022-07-06T11:54:31Z</time>
      </trkpt>
      <trkpt lat="42.08796" lon="-0.10816708">
        <time>2022-07-06T11:54:32Z</time>
      </trkpt>
      <trkpt lat="42.08787" lon="-0.10810408">
        <time>2022-07-06T11:54:33Z</time>
      </trkpt>
      <trkpt lat="42.087788" lon="-0.10804408">
        <time>2022-07-06T11:54:34Z</time>
      </trkpt>
      <trkpt lat="42.087708" lon="-0.10798508">
        <time>2022-07-06T11:54:35Z</time>
      </trkpt>
      <trkpt lat="42.087635" lon="-0.10792642">
        <time>2022-07-06T11:54:36Z</time>
      </trkpt>
      <trkpt lat="42.087563" lon="-0.10786642">
        <time>2022-07-06T11:54:37Z</time>
      </trkpt>
      <trkpt lat="42.087498" lon="-0.10780342">
        <time>2022-07-06T11:54:38Z</time>
      </trkpt>
      <trkpt lat="42.08739" lon="-0.10767342">
        <time>2022-07-06T11:54:40Z</time>
      </trkpt>
      <trkpt lat="42.08735" lon="-0.10760642">
        <time>2022-07-06T11:54:41Z</time>
      </trkpt>
      <trkpt lat="42.087315" lon="-0.10754142">
        <time>2022-07-06T11:54:42Z</time>
      </trkpt>
      <trkpt lat="42.087288" lon="-0.10747942">
        <time>2022-07-06T11:54:43Z</time>
      </trkpt>
      <trkpt lat="42.087265" lon="-0.10742042">
        <time>2022-07-06T11:54:44Z</time>
      </trkpt>
      <trkpt lat="42.08723" lon="-0.10731009">
        <time>2022-07-06T11:54:46Z</time>
      </trkpt>
      <trkpt lat="42.087215" lon="-0.10721109">
        <time>2022-07-06T11:54:48Z</time>
      </trkpt>
      <trkpt lat="42.08721" lon="-0.10712509">
        <time>2022-07-06T11:54:50Z</time>
      </trkpt>
      <trkpt lat="42.08722" lon="-0.10705676">
        <time>2022-07-06T11:54:52Z</time>
      </trkpt>
      <trkpt lat="42.087227" lon="-0.10697243">
        <time>2022-07-06T11:54:55Z</time>
      </trkpt>
      <trkpt lat="42.08724" lon="-0.10689677">
        <time>2022-07-06T11:54:58Z</time>
      </trkpt>
      <trkpt lat="42.08725" lon="-0.10682711">
        <time>2022-07-06T11:55:01Z</time>
      </trkpt>
      <trkpt lat="42.08727" lon="-0.10675945">
        <time>2022-07-06T11:55:04Z</time>
      </trkpt>
      <trkpt lat="42.0873" lon="-0.10668045">
        <time>2022-07-06T11:55:08Z</time>
      </trkpt>
      <trkpt lat="42.08733" lon="-0.10662045">
        <time>2022-07-06T11:55:11Z</time>
      </trkpt>
      <trkpt lat="42.08736" lon="-0.10656212">
        <time>2022-07-06T11:55:14Z</time>
      </trkpt>
      <trkpt lat="42.0874" lon="-0.10650812">
        <time>2022-07-06T11:55:17Z</time>
      </trkpt>
      <trkpt lat="42.087437" lon="-0.10646012">
        <time>2022-07-06T11:55:20Z</time>
      </trkpt>
      <trkpt lat="42.08748" lon="-0.10641312">
        <time>2022-07-06T11:55:23Z</time>
      </trkpt>
      <trkpt lat="42.08752" lon="-0.10637446">
        <time>2022-07-06T11:55:26Z</time>
      </trkpt>
      <trkpt lat="42.087563" lon="-0.10633346">
        <time>2022-07-06T11:55:29Z</time>
      </trkpt>
      <trkpt lat="42.087605" lon="-0.10629313">
        <time>2022-07-06T11:55:32Z</time>
      </trkpt>
      <trkpt lat="42.087654" lon="-0.10626147">
        <time>2022-07-06T11:55:35Z</time>
      </trkpt>
      <trkpt lat="42.08771" lon="-0.10624147">
        <time>2022-07-06T11:55:38Z</time>
      </trkpt>
      <trkpt lat="42.087765" lon="-0.10622347">
        <time>2022-07-06T11:55:41Z</time>
      </trkpt>
      <trkpt lat="42.087822" lon="-0.10620114">
        <time>2022-07-06T11:55:44Z</time>
      </trkpt>
      <trkpt lat="42.08787" lon="-0.10618548">
        <time>2022-07-06T11:55:47Z</time>
      </trkpt>
      <trkpt lat="42.087925" lon="-0.10616848">
        <time>2022-07-06T11:55:50Z</time>
      </trkpt>
      <trkpt lat="42.08798" lon="-0.10615215">
        <time>2022-07-06T11:55:53Z</time>
      </trkpt>
      <trkpt lat="42.088043" lon="-0.10613149">
        <time>2022-07-06T11:55:57Z</time>
      </trkpt>
      <trkpt lat="42.08809" lon="-0.10611449">
        <time>2022-07-06T11:56:00Z</time>
      </trkpt>
      <trkpt lat="42.08815" lon="-0.10610349">
        <time>2022-07-06T11:56:04Z</time>
      </trkpt>
      <trkpt lat="42.08821" lon="-0.10608783">
        <time>2022-07-06T11:56:08Z</time>
      </trkpt>
      <trkpt lat="42.088257" lon="-0.10607817">
        <time>2022-07-06T11:56:11Z</time>
      </trkpt>
      <trkpt lat="42.088318" lon="-0.10606284">
        <time>2022-07-06T11:56:15Z</time>
      </trkpt>
      <trkpt lat="42.088375" lon="-0.10604584">
        <time>2022-07-06T11:56:19Z</time>
      </trkpt>
      <trkpt lat="42.088436" lon="-0.10602618">
        <time>2022-07-06T11:56:23Z</time>
      </trkpt>
      <trkpt lat="42.0885" lon="-0.10601385">
        <time>2022-07-06T11:56:27Z</time>
      </trkpt>
      <trkpt lat="42.08856" lon="-0.10600485">
        <time>2022-07-06T11:56:31Z</time>
      </trkpt>
      <trkpt lat="42.08862" lon="-0.10598485">
        <time>2022-07-06T11:56:35Z</time>
      </trkpt>
      <trkpt lat="42.088673" lon="-0.10596152">
        <time>2022-07-06T11:56:39Z</time>
      </trkpt>
      <trkpt lat="42.088726" lon="-0.10594586">
        <time>2022-07-06T11:56:43Z</time>
      </trkpt>
      <trkpt lat="42.088787" lon="-0.1059292">
        <time>2022-07-06T11:56:47Z</time>
      </trkpt>
      <trkpt lat="42.08885" lon="-0.10591254">
        <time>2022-07-06T11:56:51Z</time>
      </trkpt>
      <trkpt lat="42.08891" lon="-0.10589454">
        <time>2022-07-06T11:56:55Z</time>
      </trkpt>
      <trkpt lat="42.088974" lon="-0.10587821">
        <time>2022-07-06T11:56:59Z</time>
      </trkpt>
      <trkpt lat="42.089027" lon="-0.10586488">
        <time>2022-07-06T11:57:02Z</time>
      </trkpt>
      <trkpt lat="42.089073" lon="-0.10585055">
        <time>2022-07-06T11:57:05Z</time>
      </trkpt>
      <trkpt lat="42.08914" lon="-0.10583389">
        <time>2022-07-06T11:57:09Z</time>
      </trkpt>
      <trkpt lat="42.089188" lon="-0.10581923">
        <time>2022-07-06T11:57:12Z</time>
      </trkpt>
      <trkpt lat="42.089252" lon="-0.10579157">
        <time>2022-07-06T11:57:16Z</time>
      </trkpt>
      <trkpt lat="42.089306" lon="-0.10577691">
        <time>2022-07-06T11:57:20Z</time>
      </trkpt>
      <trkpt lat="42.089367" lon="-0.10576725">
        <time>2022-07-06T11:57:24Z</time>
      </trkpt>
      <trkpt lat="42.089424" lon="-0.10575392">
        <time>2022-07-06T11:57:28Z</time>
      </trkpt>
      <trkpt lat="42.08948" lon="-0.10573126">
        <time>2022-07-06T11:57:32Z</time>
      </trkpt>
      <trkpt lat="42.089558" lon="-0.10570626">
        <time>2022-07-06T11:57:36Z</time>
      </trkpt>
      <trkpt lat="42.08961" lon="-0.10569393">
        <time>2022-07-06T11:57:39Z</time>
      </trkpt>
      <trkpt lat="42.08967" lon="-0.10567993">
        <time>2022-07-06T11:57:43Z</time>
      </trkpt>
      <trkpt lat="42.089733" lon="-0.1056596">
        <time>2022-07-06T11:57:47Z</time>
      </trkpt>
      <trkpt lat="42.089794" lon="-0.10563827">
        <time>2022-07-06T11:57:51Z</time>
      </trkpt>
      <trkpt lat="42.089855" lon="-0.10561861">
        <time>2022-07-06T11:57:55Z</time>
      </trkpt>
      <trkpt lat="42.089905" lon="-0.10560528">
        <time>2022-07-06T11:57:58Z</time>
      </trkpt>
      <trkpt lat="42.08997" lon="-0.10559295">
        <time>2022-07-06T11:58:02Z</time>
      </trkpt>
      <trkpt lat="42.09002" lon="-0.10557895">
        <time>2022-07-06T11:58:05Z</time>
      </trkpt>
      <trkpt lat="42.09008" lon="-0.10555995">
        <time>2022-07-06T11:58:09Z</time>
      </trkpt>
      <trkpt lat="42.090137" lon="-0.10554529">
        <time>2022-07-06T11:58:13Z</time>
      </trkpt>
      <trkpt lat="42.0902" lon="-0.10552263">
        <time>2022-07-06T11:58:17Z</time>
      </trkpt>
      <trkpt lat="42.090252" lon="-0.1054963">
        <time>2022-07-06T11:58:21Z</time>
      </trkpt>
      <trkpt lat="42.090305" lon="-0.10547297">
        <time>2022-07-06T11:58:25Z</time>
      </trkpt>
      <trkpt lat="42.090355" lon="-0.10544497">
        <time>2022-07-06T11:58:29Z</time>
      </trkpt>
      <trkpt lat="42.090412" lon="-0.10541031">
        <time>2022-07-06T11:58:33Z</time>
      </trkpt>
      <trkpt lat="42.090473" lon="-0.10536665">
        <time>2022-07-06T11:58:37Z</time>
      </trkpt>
      <trkpt lat="42.09052" lon="-0.10533132">
        <time>2022-07-06T11:58:40Z</time>
      </trkpt>
      <trkpt lat="42.09056" lon="-0.10529399">
        <time>2022-07-06T11:58:43Z</time>
      </trkpt>
      <trkpt lat="42.090614" lon="-0.10524066">
        <time>2022-07-06T11:58:47Z</time>
      </trkpt>
      <trkpt lat="42.090645" lon="-0.105195">
        <time>2022-07-06T11:58:50Z</time>
      </trkpt>
      <trkpt lat="42.090694" lon="-0.10513434">
        <time>2022-07-06T11:58:54Z</time>
      </trkpt>
      <trkpt lat="42.090755" lon="-0.10506134">
        <time>2022-07-06T11:58:59Z</time>
      </trkpt>
      <trkpt lat="42.090797" lon="-0.10501401">
        <time>2022-07-06T11:59:02Z</time>
      </trkpt>
      <trkpt lat="42.09084" lon="-0.10494935">
        <time>2022-07-06T11:59:06Z</time>
      </trkpt>
      <trkpt lat="42.090874" lon="-0.10490402">
        <time>2022-07-06T11:59:09Z</time>
      </trkpt>
      <trkpt lat="42.09092" lon="-0.10484902">
        <time>2022-07-06T11:59:13Z</time>
      </trkpt>
      <trkpt lat="42.090958" lon="-0.10480836">
        <time>2022-07-06T11:59:16Z</time>
      </trkpt>
      <trkpt lat="42.091003" lon="-0.10474403">
        <time>2022-07-06T11:59:20Z</time>
      </trkpt>
      <trkpt lat="42.09104" lon="-0.10468037">
        <time>2022-07-06T11:59:24Z</time>
      </trkpt>
      <trkpt lat="42.091084" lon="-0.10461771">
        <time>2022-07-06T11:59:28Z</time>
      </trkpt>
      <trkpt lat="42.091118" lon="-0.10455538">
        <time>2022-07-06T11:59:32Z</time>
      </trkpt>
      <trkpt lat="42.091164" lon="-0.10449405">
        <time>2022-07-06T11:59:36Z</time>
      </trkpt>
      <trkpt lat="42.091198" lon="-0.10444905">
        <time>2022-07-06T11:59:39Z</time>
      </trkpt>
      <trkpt lat="42.091244" lon="-0.10438972">
        <time>2022-07-06T11:59:43Z</time>
      </trkpt>
      <trkpt lat="42.09129" lon="-0.10432506">
        <time>2022-07-06T11:59:47Z</time>
      </trkpt>
      <trkpt lat="42.091328" lon="-0.10427806">
        <time>2022-07-06T11:59:50Z</time>
      </trkpt>
      <trkpt lat="42.091362" lon="-0.10423206">
        <time>2022-07-06T11:59:53Z</time>
      </trkpt>
      <trkpt lat="42.091415" lon="-0.10417173">
        <time>2022-07-06T11:59:57Z</time>
      </trkpt>
      <trkpt lat="42.091454" lon="-0.1041244">
        <time>2022-07-06T12:00:00Z</time>
      </trkpt>
      <trkpt lat="42.091488" lon="-0.10407607">
        <time>2022-07-06T12:00:03Z</time>
      </trkpt>
      <trkpt lat="42.09153" lon="-0.10400674">
        <time>2022-07-06T12:00:07Z</time>
      </trkpt>
      <trkpt lat="42.091568" lon="-0.10393474">
        <time>2022-07-06T12:00:11Z</time>
      </trkpt>
      <trkpt lat="42.091595" lon="-0.10387974">
        <time>2022-07-06T12:00:14Z</time>
      </trkpt>
      <trkpt lat="42.09164" lon="-0.10381108">
        <time>2022-07-06T12:00:18Z</time>
      </trkpt>
      <trkpt lat="42.09167" lon="-0.10375608">
        <time>2022-07-06T12:00:21Z</time>
      </trkpt>
      <trkpt lat="42.091705" lon="-0.10370575">
        <time>2022-07-06T12:00:24Z</time>
      </trkpt>
      <trkpt lat="42.091743" lon="-0.10364009">
        <time>2022-07-06T12:00:28Z</time>
      </trkpt>
      <trkpt lat="42.09178" lon="-0.10357276">
        <time>2022-07-06T12:00:32Z</time>
      </trkpt>
      <trkpt lat="42.091812" lon="-0.10349876">
        <time>2022-07-06T12:00:36Z</time>
      </trkpt>
      <trkpt lat="42.091835" lon="-0.10341776">
        <time>2022-07-06T12:00:40Z</time>
      </trkpt>
      <trkpt lat="42.09186" lon="-0.1033341">
        <time>2022-07-06T12:00:44Z</time>
      </trkpt>
      <trkpt lat="42.091885" lon="-0.1032771">
        <time>2022-07-06T12:00:47Z</time>
      </trkpt>
      <trkpt lat="42.09192" lon="-0.1032371">
        <time>2022-07-06T12:00:51Z</time>
      </trkpt>
      <trkpt lat="42.091938" lon="-0.10320377">
        <time>2022-07-06T12:02:05Z</time>
      </trkpt>
      <trkpt lat="42.091934" lon="-0.10310944">
        <time>2022-07-06T12:02:09Z</time>
      </trkpt>
      <trkpt lat="42.09194" lon="-0.10300944">
        <time>2022-07-06T12:02:13Z</time>
      </trkpt>
      <trkpt lat="42.09195" lon="-0.10293511">
        <time>2022-07-06T12:02:16Z</time>
      </trkpt>
      <trkpt lat="42.091957" lon="-0.10286078">
        <time>2022-07-06T12:02:19Z</time>
      </trkpt>
      <trkpt lat="42.091965" lon="-0.10278478">
        <time>2022-07-06T12:02:22Z</time>
      </trkpt>
      <trkpt lat="42.09197" lon="-0.10270878">
        <time>2022-07-06T12:02:25Z</time>
      </trkpt>
      <trkpt lat="42.091972" lon="-0.10263612">
        <time>2022-07-06T12:02:28Z</time>
      </trkpt>
      <trkpt lat="42.091972" lon="-0.10256312">
        <time>2022-07-06T12:02:31Z</time>
      </trkpt>
      <trkpt lat="42.09197" lon="-0.10249179">
        <time>2022-07-06T12:02:34Z</time>
      </trkpt>
      <trkpt lat="42.091965" lon="-0.10241879">
        <time>2022-07-06T12:02:37Z</time>
      </trkpt>
      <trkpt lat="42.091957" lon="-0.10234413">
        <time>2022-07-06T12:02:40Z</time>
      </trkpt>
      <trkpt lat="42.09194" lon="-0.10226713">
        <time>2022-07-06T12:02:43Z</time>
      </trkpt>
      <trkpt lat="42.09192" lon="-0.1021928">
        <time>2022-07-06T12:02:46Z</time>
      </trkpt>
      <trkpt lat="42.0919" lon="-0.1021218">
        <time>2022-07-06T12:02:49Z</time>
      </trkpt>
      <trkpt lat="42.091885" lon="-0.10205214">
        <time>2022-07-06T12:02:52Z</time>
      </trkpt>
      <trkpt lat="42.09187" lon="-0.10197814">
        <time>2022-07-06T12:02:55Z</time>
      </trkpt>
      <trkpt lat="42.09184" lon="-0.10190781">
        <time>2022-07-06T12:02:58Z</time>
      </trkpt>
      <trkpt lat="42.091812" lon="-0.10183848">
        <time>2022-07-06T12:03:01Z</time>
      </trkpt>
      <trkpt lat="42.091785" lon="-0.10177248">
        <time>2022-07-06T12:03:04Z</time>
      </trkpt>
      <trkpt lat="42.091755" lon="-0.10171115">
        <time>2022-07-06T12:03:07Z</time>
      </trkpt>
      <trkpt lat="42.091724" lon="-0.10165249">
        <time>2022-07-06T12:03:10Z</time>
      </trkpt>
      <trkpt lat="42.091686" lon="-0.10157683">
        <time>2022-07-06T12:03:14Z</time>
      </trkpt>
      <trkpt lat="42.09165" lon="-0.1015205">
        <time>2022-07-06T12:03:17Z</time>
      </trkpt>
      <trkpt lat="42.091614" lon="-0.1014655">
        <time>2022-07-06T12:03:20Z</time>
      </trkpt>
      <trkpt lat="42.091576" lon="-0.1014155">
        <time>2022-07-06T12:03:23Z</time>
      </trkpt>
      <trkpt lat="42.091534" lon="-0.10136717">
        <time>2022-07-06T12:03:26Z</time>
      </trkpt>
      <trkpt lat="42.09148" lon="-0.10130384">
        <time>2022-07-06T12:03:30Z</time>
      </trkpt>
      <trkpt lat="42.09144" lon="-0.10125684">
        <time>2022-07-06T12:03:33Z</time>
      </trkpt>
      <trkpt lat="42.091393" lon="-0.10121084">
        <time>2022-07-06T12:03:36Z</time>
      </trkpt>
      <trkpt lat="42.09135" lon="-0.10116784">
        <time>2022-07-06T12:03:39Z</time>
      </trkpt>
      <trkpt lat="42.0913" lon="-0.10112618">
        <time>2022-07-06T12:03:42Z</time>
      </trkpt>
      <trkpt lat="42.09125" lon="-0.10108652">
        <time>2022-07-06T12:03:45Z</time>
      </trkpt>
      <trkpt lat="42.0912" lon="-0.10105019">
        <time>2022-07-06T12:03:48Z</time>
      </trkpt>
      <trkpt lat="42.09115" lon="-0.10101886">
        <time>2022-07-06T12:03:51Z</time>
      </trkpt>
      <trkpt lat="42.091095" lon="-0.10098953">
        <time>2022-07-06T12:03:54Z</time>
      </trkpt>
      <trkpt lat="42.091038" lon="-0.10096487">
        <time>2022-07-06T12:03:57Z</time>
      </trkpt>
      <trkpt lat="42.09098" lon="-0.10093554">
        <time>2022-07-06T12:04:00Z</time>
      </trkpt>
      <trkpt lat="42.090927" lon="-0.10090754">
        <time>2022-07-06T12:04:03Z</time>
      </trkpt>
      <trkpt lat="42.09087" lon="-0.10088388">
        <time>2022-07-06T12:04:06Z</time>
      </trkpt>
      <trkpt lat="42.090813" lon="-0.10086255">
        <time>2022-07-06T12:04:09Z</time>
      </trkpt>
      <trkpt lat="42.090748" lon="-0.10084655">
        <time>2022-07-06T12:04:12Z</time>
      </trkpt>
      <trkpt lat="42.090702" lon="-0.10083289">
        <time>2022-07-06T12:04:14Z</time>
      </trkpt>
      <trkpt lat="42.090614" lon="-0.10080289">
        <time>2022-07-06T12:04:18Z</time>
      </trkpt>
      <trkpt lat="42.090546" lon="-0.10077756">
        <time>2022-07-06T12:04:21Z</time>
      </trkpt>
      <trkpt lat="42.090496" lon="-0.10075923">
        <time>2022-07-06T12:04:23Z</time>
      </trkpt>
      <trkpt lat="42.090446" lon="-0.10074157">
        <time>2022-07-06T12:04:25Z</time>
      </trkpt>
      <trkpt lat="42.090393" lon="-0.10072191">
        <time>2022-07-06T12:04:27Z</time>
      </trkpt>
      <trkpt lat="42.09034" lon="-0.10070058">
        <time>2022-07-06T12:04:29Z</time>
      </trkpt>
      <trkpt lat="42.090282" lon="-0.10067892">
        <time>2022-07-06T12:04:31Z</time>
      </trkpt>
      <trkpt lat="42.09023" lon="-0.10065892">
        <time>2022-07-06T12:04:33Z</time>
      </trkpt>
      <trkpt lat="42.09017" lon="-0.10064126">
        <time>2022-07-06T12:04:35Z</time>
      </trkpt>
      <trkpt lat="42.09012" lon="-0.1006246">
        <time>2022-07-06T12:04:37Z</time>
      </trkpt>
      <trkpt lat="42.090057" lon="-0.1006066">
        <time>2022-07-06T12:04:39Z</time>
      </trkpt>
      <trkpt lat="42.09" lon="-0.10058627">
        <time>2022-07-06T12:04:41Z</time>
      </trkpt>
      <trkpt lat="42.08994" lon="-0.10056394">
        <time>2022-07-06T12:04:43Z</time>
      </trkpt>
      <trkpt lat="42.08988" lon="-0.10053761">
        <time>2022-07-06T12:04:45Z</time>
      </trkpt>
      <trkpt lat="42.08982" lon="-0.10050661">
        <time>2022-07-06T12:04:47Z</time>
      </trkpt>
      <trkpt lat="42.089764" lon="-0.10047028">
        <time>2022-07-06T12:04:49Z</time>
      </trkpt>
      <trkpt lat="42.089706" lon="-0.10042728">
        <time>2022-07-06T12:04:51Z</time>
      </trkpt>
      <trkpt lat="42.089653" lon="-0.10038162">
        <time>2022-07-06T12:04:53Z</time>
      </trkpt>
      <trkpt lat="42.089596" lon="-0.10033596">
        <time>2022-07-06T12:04:55Z</time>
      </trkpt>
      <trkpt lat="42.089546" lon="-0.10028963">
        <time>2022-07-06T12:04:57Z</time>
      </trkpt>
      <trkpt lat="42.08949" lon="-0.10024963">
        <time>2022-07-06T12:04:59Z</time>
      </trkpt>
      <trkpt lat="42.089428" lon="-0.10022263">
        <time>2022-07-06T12:05:01Z</time>
      </trkpt>
      <trkpt lat="42.089363" lon="-0.10020763">
        <time>2022-07-06T12:05:03Z</time>
      </trkpt>
      <trkpt lat="42.089294" lon="-0.1001993">
        <time>2022-07-06T12:05:05Z</time>
      </trkpt>
      <trkpt lat="42.089222" lon="-0.10019164">
        <time>2022-07-06T12:05:07Z</time>
      </trkpt>
      <trkpt lat="42.089146" lon="-0.10017564">
        <time>2022-07-06T12:05:09Z</time>
      </trkpt>
      <trkpt lat="42.089073" lon="-0.10015164">
        <time>2022-07-06T12:05:11Z</time>
      </trkpt>
      <trkpt lat="42.088997" lon="-0.10011998">
        <time>2022-07-06T12:05:13Z</time>
      </trkpt>
      <trkpt lat="42.08892" lon="-0.10008932">
        <time>2022-07-06T12:05:15Z</time>
      </trkpt>
      <trkpt lat="42.088844" lon="-0.10006632">
        <time>2022-07-06T12:05:17Z</time>
      </trkpt>
      <trkpt lat="42.088764" lon="-0.10005032">
        <time>2022-07-06T12:05:19Z</time>
      </trkpt>
      <trkpt lat="42.088684" lon="-0.10003399">
        <time>2022-07-06T12:05:21Z</time>
      </trkpt>
      <trkpt lat="42.088562" lon="-0.09999233">
        <time>2022-07-06T12:05:24Z</time>
      </trkpt>
      <trkpt lat="42.088478" lon="-0.09995067">
        <time>2022-07-06T12:05:26Z</time>
      </trkpt>
      <trkpt lat="42.088432" lon="-0.09992534">
        <time>2022-07-06T12:05:27Z</time>
      </trkpt>
      <trkpt lat="42.08832" lon="-0.09983734">
        <time>2022-07-06T12:05:30Z</time>
      </trkpt>
      <trkpt lat="42.088226" lon="-0.09972668">
        <time>2022-07-06T12:05:33Z</time>
      </trkpt>
      <trkpt lat="42.088177" lon="-0.09964435">
        <time>2022-07-06T12:05:35Z</time>
      </trkpt>
      <trkpt lat="42.08814" lon="-0.09955435">
        <time>2022-07-06T12:05:37Z</time>
      </trkpt>
      <trkpt lat="42.088104" lon="-0.09945869">
        <time>2022-07-06T12:05:39Z</time>
      </trkpt>
      <trkpt lat="42.088085" lon="-0.09936169">
        <time>2022-07-06T12:05:41Z</time>
      </trkpt>
      <trkpt lat="42.08807" lon="-0.09926269">
        <time>2022-07-06T12:05:43Z</time>
      </trkpt>
      <trkpt lat="42.08806" lon="-0.09916836">
        <time>2022-07-06T12:05:45Z</time>
      </trkpt>
      <trkpt lat="42.088047" lon="-0.09907736">
        <time>2022-07-06T12:05:47Z</time>
      </trkpt>
      <trkpt lat="42.08804" lon="-0.09899303">
        <time>2022-07-06T12:05:49Z</time>
      </trkpt>
      <trkpt lat="42.08803" lon="-0.09891303">
        <time>2022-07-06T12:05:51Z</time>
      </trkpt>
      <trkpt lat="42.088024" lon="-0.09883903">
        <time>2022-07-06T12:05:53Z</time>
      </trkpt>
      <trkpt lat="42.08802" lon="-0.09877337">
        <time>2022-07-06T12:05:55Z</time>
      </trkpt>
      <trkpt lat="42.08801" lon="-0.09868337">
        <time>2022-07-06T12:05:58Z</time>
      </trkpt>
      <trkpt lat="42.087994" lon="-0.09859737">
        <time>2022-07-06T12:06:01Z</time>
      </trkpt>
      <trkpt lat="42.087982" lon="-0.09851104">
        <time>2022-07-06T12:06:04Z</time>
      </trkpt>
      <trkpt lat="42.087967" lon="-0.09842338">
        <time>2022-07-06T12:06:07Z</time>
      </trkpt>
      <trkpt lat="42.08795" lon="-0.09833705">
        <time>2022-07-06T12:06:10Z</time>
      </trkpt>
      <trkpt lat="42.087933" lon="-0.09825272">
        <time>2022-07-06T12:06:13Z</time>
      </trkpt>
      <trkpt lat="42.087906" lon="-0.09816872">
        <time>2022-07-06T12:06:16Z</time>
      </trkpt>
      <trkpt lat="42.08788" lon="-0.09808372">
        <time>2022-07-06T12:06:19Z</time>
      </trkpt>
      <trkpt lat="42.08786" lon="-0.09802739">
        <time>2022-07-06T12:06:21Z</time>
      </trkpt>
      <trkpt lat="42.087833" lon="-0.09795139">
        <time>2022-07-06T12:06:24Z</time>
      </trkpt>
      <trkpt lat="42.087807" lon="-0.09787639">
        <time>2022-07-06T12:06:27Z</time>
      </trkpt>
      <trkpt lat="42.08778" lon="-0.09780939">
        <time>2022-07-06T12:06:30Z</time>
      </trkpt>
      <trkpt lat="42.08775" lon="-0.09774539">
        <time>2022-07-06T12:06:33Z</time>
      </trkpt>
      <trkpt lat="42.087723" lon="-0.09768006">
        <time>2022-07-06T12:06:36Z</time>
      </trkpt>
      <trkpt lat="42.087692" lon="-0.09761606">
        <time>2022-07-06T12:06:39Z</time>
      </trkpt>
      <trkpt lat="42.08766" lon="-0.09755306">
        <time>2022-07-06T12:06:42Z</time>
      </trkpt>
      <trkpt lat="42.087627" lon="-0.0974954">
        <time>2022-07-06T12:06:45Z</time>
      </trkpt>
      <trkpt lat="42.087597" lon="-0.0974354">
        <time>2022-07-06T12:06:48Z</time>
      </trkpt>
      <trkpt lat="42.087563" lon="-0.09737474">
        <time>2022-07-06T12:06:51Z</time>
      </trkpt>
      <trkpt lat="42.087524" lon="-0.09732074">
        <time>2022-07-06T12:06:54Z</time>
      </trkpt>
      <trkpt lat="42.087486" lon="-0.09726374">
        <time>2022-07-06T12:06:57Z</time>
      </trkpt>
      <trkpt lat="42.087444" lon="-0.09720808">
        <time>2022-07-06T12:07:00Z</time>
      </trkpt>
      <trkpt lat="42.087402" lon="-0.09715875">
        <time>2022-07-06T12:07:03Z</time>
      </trkpt>
      <trkpt lat="42.087357" lon="-0.09710609">
        <time>2022-07-06T12:07:06Z</time>
      </trkpt>
      <trkpt lat="42.087315" lon="-0.09705309">
        <time>2022-07-06T12:07:09Z</time>
      </trkpt>
      <trkpt lat="42.08727" lon="-0.09700609">
        <time>2022-07-06T12:07:12Z</time>
      </trkpt>
      <trkpt lat="42.087223" lon="-0.09695709">
        <time>2022-07-06T12:07:15Z</time>
      </trkpt>
      <trkpt lat="42.087177" lon="-0.09691009">
        <time>2022-07-06T12:07:18Z</time>
      </trkpt>
      <trkpt lat="42.08713" lon="-0.09686476">
        <time>2022-07-06T12:07:21Z</time>
      </trkpt>
      <trkpt lat="42.087082" lon="-0.0968211">
        <time>2022-07-06T12:07:24Z</time>
      </trkpt>
      <trkpt lat="42.087036" lon="-0.0967781">
        <time>2022-07-06T12:07:27Z</time>
      </trkpt>
      <trkpt lat="42.086983" lon="-0.0967341">
        <time>2022-07-06T12:07:30Z</time>
      </trkpt>
      <trkpt lat="42.08693" lon="-0.09669644">
        <time>2022-07-06T12:07:33Z</time>
      </trkpt>
      <trkpt lat="42.086872" lon="-0.09666544">
        <time>2022-07-06T12:07:36Z</time>
      </trkpt>
      <trkpt lat="42.08682" lon="-0.09663211">
        <time>2022-07-06T12:07:39Z</time>
      </trkpt>
      <trkpt lat="42.08676" lon="-0.09660345">
        <time>2022-07-06T12:07:42Z</time>
      </trkpt>
      <trkpt lat="42.086704" lon="-0.09657012">
        <time>2022-07-06T12:07:45Z</time>
      </trkpt>
      <trkpt lat="42.086647" lon="-0.09654712">
        <time>2022-07-06T12:07:48Z</time>
      </trkpt>
      <trkpt lat="42.086586" lon="-0.09652279">
        <time>2022-07-06T12:07:51Z</time>
      </trkpt>
      <trkpt lat="42.08653" lon="-0.09649179">
        <time>2022-07-06T12:07:54Z</time>
      </trkpt>
      <trkpt lat="42.08647" lon="-0.09645746">
        <time>2022-07-06T12:07:57Z</time>
      </trkpt>
      <trkpt lat="42.086414" lon="-0.0964268">
        <time>2022-07-06T12:08:00Z</time>
      </trkpt>
      <trkpt lat="42.08635" lon="-0.09639547">
        <time>2022-07-06T12:08:03Z</time>
      </trkpt>
      <trkpt lat="42.086285" lon="-0.09636681">
        <time>2022-07-06T12:08:06Z</time>
      </trkpt>
      <trkpt lat="42.08622" lon="-0.09633715">
        <time>2022-07-06T12:08:09Z</time>
      </trkpt>
      <trkpt lat="42.086155" lon="-0.09630382">
        <time>2022-07-06T12:08:12Z</time>
      </trkpt>
      <trkpt lat="42.086086" lon="-0.09626682">
        <time>2022-07-06T12:08:15Z</time>
      </trkpt>
      <trkpt lat="42.086014" lon="-0.09622349">
        <time>2022-07-06T12:08:18Z</time>
      </trkpt>
      <trkpt lat="42.085968" lon="-0.09619149">
        <time>2022-07-06T12:08:20Z</time>
      </trkpt>
      <trkpt lat="42.085915" lon="-0.09615649">
        <time>2022-07-06T12:08:22Z</time>
      </trkpt>
      <trkpt lat="42.08586" lon="-0.09612016">
        <time>2022-07-06T12:08:24Z</time>
      </trkpt>
      <trkpt lat="42.085808" lon="-0.09608216">
        <time>2022-07-06T12:08:26Z</time>
      </trkpt>
      <trkpt lat="42.085747" lon="-0.09604516">
        <time>2022-07-06T12:08:28Z</time>
      </trkpt>
      <trkpt lat="42.085686" lon="-0.0960095">
        <time>2022-07-06T12:08:30Z</time>
      </trkpt>
      <trkpt lat="42.08562" lon="-0.09597284">
        <time>2022-07-06T12:08:32Z</time>
      </trkpt>
      <trkpt lat="42.085552" lon="-0.09593484">
        <time>2022-07-06T12:08:34Z</time>
      </trkpt>
      <trkpt lat="42.08548" lon="-0.09589518">
        <time>2022-07-06T12:08:36Z</time>
      </trkpt>
      <trkpt lat="42.0854" lon="-0.09585218">
        <time>2022-07-06T12:08:38Z</time>
      </trkpt>
      <trkpt lat="42.08531" lon="-0.09580718">
        <time>2022-07-06T12:08:40Z</time>
      </trkpt>
      <trkpt lat="42.08527" lon="-0.09578452">
        <time>2022-07-06T12:08:41Z</time>
      </trkpt>
      <trkpt lat="42.085186" lon="-0.09573786">
        <time>2022-07-06T12:08:43Z</time>
      </trkpt>
      <trkpt lat="42.085106" lon="-0.09569286">
        <time>2022-07-06T12:08:45Z</time>
      </trkpt>
      <trkpt lat="42.085026" lon="-0.0956512">
        <time>2022-07-06T12:08:47Z</time>
      </trkpt>
      <trkpt lat="42.08495" lon="-0.09560887">
        <time>2022-07-06T12:08:49Z</time>
      </trkpt>
      <trkpt lat="42.084873" lon="-0.09556554">
        <time>2022-07-06T12:08:51Z</time>
      </trkpt>
      <trkpt lat="42.084793" lon="-0.09552188">
        <time>2022-07-06T12:08:53Z</time>
      </trkpt>
      <trkpt lat="42.084713" lon="-0.09547622">
        <time>2022-07-06T12:08:55Z</time>
      </trkpt>
      <trkpt lat="42.08467" lon="-0.09545356">
        <time>2022-07-06T12:08:56Z</time>
      </trkpt>
      <trkpt lat="42.08458" lon="-0.09540656">
        <time>2022-07-06T12:08:58Z</time>
      </trkpt>
      <trkpt lat="42.08449" lon="-0.0953609">
        <time>2022-07-06T12:09:00Z</time>
      </trkpt>
      <trkpt lat="42.08445" lon="-0.0953389">
        <time>2022-07-06T12:09:01Z</time>
      </trkpt>
      <trkpt lat="42.084362" lon="-0.09529557">
        <time>2022-07-06T12:09:03Z</time>
      </trkpt>
      <trkpt lat="42.084282" lon="-0.09525191">
        <time>2022-07-06T12:09:05Z</time>
      </trkpt>
      <trkpt lat="42.084194" lon="-0.09520658">
        <time>2022-07-06T12:09:07Z</time>
      </trkpt>
      <trkpt lat="42.084106" lon="-0.09515858">
        <time>2022-07-06T12:09:09Z</time>
      </trkpt>
      <trkpt lat="42.084064" lon="-0.09513358">
        <time>2022-07-06T12:09:10Z</time>
      </trkpt>
      <trkpt lat="42.083973" lon="-0.09508325">
        <time>2022-07-06T12:09:12Z</time>
      </trkpt>
      <trkpt lat="42.083927" lon="-0.09505725">
        <time>2022-07-06T12:09:13Z</time>
      </trkpt>
      <trkpt lat="42.08384" lon="-0.09500325">
        <time>2022-07-06T12:09:15Z</time>
      </trkpt>
      <trkpt lat="42.083755" lon="-0.09495192">
        <time>2022-07-06T12:09:17Z</time>
      </trkpt>
      <trkpt lat="42.083675" lon="-0.09490426">
        <time>2022-07-06T12:09:19Z</time>
      </trkpt>
      <trkpt lat="42.083595" lon="-0.09486093">
        <time>2022-07-06T12:09:21Z</time>
      </trkpt>
      <trkpt lat="42.08352" lon="-0.09481727">
        <time>2022-07-06T12:09:23Z</time>
      </trkpt>
      <trkpt lat="42.083435" lon="-0.09476827">
        <time>2022-07-06T12:09:25Z</time>
      </trkpt>
      <trkpt lat="42.08335" lon="-0.09471761">
        <time>2022-07-06T12:09:27Z</time>
      </trkpt>
      <trkpt lat="42.083263" lon="-0.09466528">
        <time>2022-07-06T12:09:29Z</time>
      </trkpt>
      <trkpt lat="42.08322" lon="-0.09463695">
        <time>2022-07-06T12:09:30Z</time>
      </trkpt>
      <trkpt lat="42.08314" lon="-0.09457729">
        <time>2022-07-06T12:09:32Z</time>
      </trkpt>
      <trkpt lat="42.083065" lon="-0.09451496">
        <time>2022-07-06T12:09:34Z</time>
      </trkpt>
      <trkpt lat="42.082993" lon="-0.09445296">
        <time>2022-07-06T12:09:36Z</time>
      </trkpt>
      <trkpt lat="42.082924" lon="-0.09438796">
        <time>2022-07-06T12:09:38Z</time>
      </trkpt>
      <trkpt lat="42.082855" lon="-0.09432096">
        <time>2022-07-06T12:09:40Z</time>
      </trkpt>
      <trkpt lat="42.08279" lon="-0.09425196">
        <time>2022-07-06T12:09:42Z</time>
      </trkpt>
      <trkpt lat="42.08273" lon="-0.09417996">
        <time>2022-07-06T12:09:44Z</time>
      </trkpt>
      <trkpt lat="42.08267" lon="-0.09410496">
        <time>2022-07-06T12:09:46Z</time>
      </trkpt>
      <trkpt lat="42.08261" lon="-0.09402663">
        <time>2022-07-06T12:09:48Z</time>
      </trkpt>
      <trkpt lat="42.082558" lon="-0.09394763">
        <time>2022-07-06T12:09:50Z</time>
      </trkpt>
      <trkpt lat="42.082508" lon="-0.09387063">
        <time>2022-07-06T12:09:52Z</time>
      </trkpt>
      <trkpt lat="42.082455" lon="-0.09379463">
        <time>2022-07-06T12:09:54Z</time>
      </trkpt>
      <trkpt lat="42.082405" lon="-0.09372097">
        <time>2022-07-06T12:09:56Z</time>
      </trkpt>
      <trkpt lat="42.082355" lon="-0.09364464">
        <time>2022-07-06T12:09:58Z</time>
      </trkpt>
      <trkpt lat="42.082306" lon="-0.09356798">
        <time>2022-07-06T12:10:00Z</time>
      </trkpt>
      <trkpt lat="42.082256" lon="-0.09348898">
        <time>2022-07-06T12:10:02Z</time>
      </trkpt>
      <trkpt lat="42.082207" lon="-0.09340998">
        <time>2022-07-06T12:10:04Z</time>
      </trkpt>
      <trkpt lat="42.08216" lon="-0.09332998">
        <time>2022-07-06T12:10:06Z</time>
      </trkpt>
      <trkpt lat="42.08212" lon="-0.09325598">
        <time>2022-07-06T12:10:08Z</time>
      </trkpt>
      <trkpt lat="42.082077" lon="-0.09318132">
        <time>2022-07-06T12:10:10Z</time>
      </trkpt>
      <trkpt lat="42.08203" lon="-0.09310232">
        <time>2022-07-06T12:10:12Z</time>
      </trkpt>
      <trkpt lat="42.08199" lon="-0.09302632">
        <time>2022-07-06T12:10:14Z</time>
      </trkpt>
      <trkpt lat="42.08195" lon="-0.09294732">
        <time>2022-07-06T12:10:16Z</time>
      </trkpt>
      <trkpt lat="42.08191" lon="-0.09286132">
        <time>2022-07-06T12:10:18Z</time>
      </trkpt>
      <trkpt lat="42.081875" lon="-0.09278132">
        <time>2022-07-06T12:10:20Z</time>
      </trkpt>
      <trkpt lat="42.081837" lon="-0.09269666">
        <time>2022-07-06T12:10:22Z</time>
      </trkpt>
      <trkpt lat="42.081802" lon="-0.09261633">
        <time>2022-07-06T12:10:24Z</time>
      </trkpt>
      <trkpt lat="42.081768" lon="-0.09253733">
        <time>2022-07-06T12:10:26Z</time>
      </trkpt>
      <trkpt lat="42.081734" lon="-0.09244933">
        <time>2022-07-06T12:10:28Z</time>
      </trkpt>
      <trkpt lat="42.081703" lon="-0.09236867">
        <time>2022-07-06T12:10:30Z</time>
      </trkpt>
      <trkpt lat="42.081673" lon="-0.09228801">
        <time>2022-07-06T12:10:32Z</time>
      </trkpt>
      <trkpt lat="42.081642" lon="-0.09220835">
        <time>2022-07-06T12:10:34Z</time>
      </trkpt>
      <trkpt lat="42.081615" lon="-0.09213235">
        <time>2022-07-06T12:10:36Z</time>
      </trkpt>
      <trkpt lat="42.08159" lon="-0.09205735">
        <time>2022-07-06T12:10:38Z</time>
      </trkpt>
      <trkpt lat="42.081562" lon="-0.09198169">
        <time>2022-07-06T12:10:40Z</time>
      </trkpt>
      <trkpt lat="42.081535" lon="-0.09190636">
        <time>2022-07-06T12:10:42Z</time>
      </trkpt>
      <trkpt lat="42.08151" lon="-0.09182836">
        <time>2022-07-06T12:10:44Z</time>
      </trkpt>
      <trkpt lat="42.081482" lon="-0.09175136">
        <time>2022-07-06T12:10:46Z</time>
      </trkpt>
      <trkpt lat="42.081455" lon="-0.0916727">
        <time>2022-07-06T12:10:48Z</time>
      </trkpt>
      <trkpt lat="42.08143" lon="-0.09159404">
        <time>2022-07-06T12:10:50Z</time>
      </trkpt>
      <trkpt lat="42.0814" lon="-0.09151638">
        <time>2022-07-06T12:10:52Z</time>
      </trkpt>
      <trkpt lat="42.08138" lon="-0.09144038">
        <time>2022-07-06T12:10:54Z</time>
      </trkpt>
      <trkpt lat="42.081352" lon="-0.09136638">
        <time>2022-07-06T12:10:56Z</time>
      </trkpt>
      <trkpt lat="42.08133" lon="-0.09129405">
        <time>2022-07-06T12:10:58Z</time>
      </trkpt>
      <trkpt lat="42.081303" lon="-0.09122405">
        <time>2022-07-06T12:11:00Z</time>
      </trkpt>
      <trkpt lat="42.081272" lon="-0.09115205">
        <time>2022-07-06T12:11:02Z</time>
      </trkpt>
      <trkpt lat="42.081245" lon="-0.09107572">
        <time>2022-07-06T12:11:04Z</time>
      </trkpt>
      <trkpt lat="42.081215" lon="-0.09099672">
        <time>2022-07-06T12:11:06Z</time>
      </trkpt>
      <trkpt lat="42.08119" lon="-0.09092172">
        <time>2022-07-06T12:11:08Z</time>
      </trkpt>
      <trkpt lat="42.08116" lon="-0.09084439">
        <time>2022-07-06T12:11:10Z</time>
      </trkpt>
      <trkpt lat="42.081135" lon="-0.09076806">
        <time>2022-07-06T12:11:12Z</time>
      </trkpt>
      <trkpt lat="42.081112" lon="-0.0906954">
        <time>2022-07-06T12:11:14Z</time>
      </trkpt>
      <trkpt lat="42.081085" lon="-0.09062207">
        <time>2022-07-06T12:11:16Z</time>
      </trkpt>
      <trkpt lat="42.081062" lon="-0.09054874">
        <time>2022-07-06T12:11:18Z</time>
      </trkpt>
      <trkpt lat="42.081036" lon="-0.09047508">
        <time>2022-07-06T12:11:20Z</time>
      </trkpt>
      <trkpt lat="42.08101" lon="-0.09039842">
        <time>2022-07-06T12:11:22Z</time>
      </trkpt>
      <trkpt lat="42.080982" lon="-0.09031976">
        <time>2022-07-06T12:11:24Z</time>
      </trkpt>
      <trkpt lat="42.08095" lon="-0.0902401">
        <time>2022-07-06T12:11:26Z</time>
      </trkpt>
      <trkpt lat="42.080925" lon="-0.09016044">
        <time>2022-07-06T12:11:28Z</time>
      </trkpt>
      <trkpt lat="42.0809" lon="-0.09008311">
        <time>2022-07-06T12:11:30Z</time>
      </trkpt>
      <trkpt lat="42.08087" lon="-0.09000445">
        <time>2022-07-06T12:11:32Z</time>
      </trkpt>
      <trkpt lat="42.080845" lon="-0.08992879">
        <time>2022-07-06T12:11:34Z</time>
      </trkpt>
      <trkpt lat="42.08082" lon="-0.08985413">
        <time>2022-07-06T12:11:36Z</time>
      </trkpt>
      <trkpt lat="42.08079" lon="-0.0897788">
        <time>2022-07-06T12:11:38Z</time>
      </trkpt>
      <trkpt lat="42.080765" lon="-0.0897048">
        <time>2022-07-06T12:11:40Z</time>
      </trkpt>
      <trkpt lat="42.080738" lon="-0.08962947">
        <time>2022-07-06T12:11:42Z</time>
      </trkpt>
      <trkpt lat="42.08071" lon="-0.08955147">
        <time>2022-07-06T12:11:44Z</time>
      </trkpt>
      <trkpt lat="42.08068" lon="-0.08947014">
        <time>2022-07-06T12:11:46Z</time>
      </trkpt>
      <trkpt lat="42.080647" lon="-0.08938481">
        <time>2022-07-06T12:11:48Z</time>
      </trkpt>
      <trkpt lat="42.080616" lon="-0.08929215">
        <time>2022-07-06T12:11:50Z</time>
      </trkpt>
      <trkpt lat="42.080578" lon="-0.08919349">
        <time>2022-07-06T12:11:52Z</time>
      </trkpt>
      <trkpt lat="42.08054" lon="-0.08908583">
        <time>2022-07-06T12:11:54Z</time>
      </trkpt>
      <trkpt lat="42.0805" lon="-0.08896717">
        <time>2022-07-06T12:11:56Z</time>
      </trkpt>
      <trkpt lat="42.08046" lon="-0.08884084">
        <time>2022-07-06T12:11:58Z</time>
      </trkpt>
      <trkpt lat="42.080414" lon="-0.08870884">
        <time>2022-07-06T12:12:00Z</time>
      </trkpt>
      <trkpt lat="42.08039" lon="-0.08864184">
        <time>2022-07-06T12:12:01Z</time>
      </trkpt>
      <trkpt lat="42.080368" lon="-0.08857351">
        <time>2022-07-06T12:12:02Z</time>
      </trkpt>
      <trkpt lat="42.08034" lon="-0.08850051">
        <time>2022-07-06T12:12:03Z</time>
      </trkpt>
      <trkpt lat="42.08032" lon="-0.08842885">
        <time>2022-07-06T12:12:04Z</time>
      </trkpt>
      <trkpt lat="42.08029" lon="-0.08835752">
        <time>2022-07-06T12:12:05Z</time>
      </trkpt>
      <trkpt lat="42.08027" lon="-0.08829086">
        <time>2022-07-06T12:12:06Z</time>
      </trkpt>
      <trkpt lat="42.080242" lon="-0.08822253">
        <time>2022-07-06T12:12:07Z</time>
      </trkpt>
      <trkpt lat="42.080215" lon="-0.08814687">
        <time>2022-07-06T12:12:08Z</time>
      </trkpt>
      <trkpt lat="42.08019" lon="-0.08807221">
        <time>2022-07-06T12:12:09Z</time>
      </trkpt>
      <trkpt lat="42.080162" lon="-0.08799688">
        <time>2022-07-06T12:12:10Z</time>
      </trkpt>
      <trkpt lat="42.08013" lon="-0.08792122">
        <time>2022-07-06T12:12:11Z</time>
      </trkpt>
      <trkpt lat="42.080105" lon="-0.08784456">
        <time>2022-07-06T12:12:12Z</time>
      </trkpt>
      <trkpt lat="42.080074" lon="-0.08777223">
        <time>2022-07-06T12:12:13Z</time>
      </trkpt>
      <trkpt lat="42.080044" lon="-0.08769357">
        <time>2022-07-06T12:12:14Z</time>
      </trkpt>
      <trkpt lat="42.08001" lon="-0.08761624">
        <time>2022-07-06T12:12:15Z</time>
      </trkpt>
      <trkpt lat="42.07998" lon="-0.08754424">
        <time>2022-07-06T12:12:16Z</time>
      </trkpt>
      <trkpt lat="42.07995" lon="-0.08747424">
        <time>2022-07-06T12:12:17Z</time>
      </trkpt>
      <trkpt lat="42.079914" lon="-0.08740391">
        <time>2022-07-06T12:12:18Z</time>
      </trkpt>
      <trkpt lat="42.079876" lon="-0.08732958">
        <time>2022-07-06T12:12:19Z</time>
      </trkpt>
      <trkpt lat="42.079834" lon="-0.08725792">
        <time>2022-07-06T12:12:20Z</time>
      </trkpt>
      <trkpt lat="42.079796" lon="-0.08718926">
        <time>2022-07-06T12:12:21Z</time>
      </trkpt>
      <trkpt lat="42.079754" lon="-0.0871226">
        <time>2022-07-06T12:12:22Z</time>
      </trkpt>
      <trkpt lat="42.079712" lon="-0.0870576">
        <time>2022-07-06T12:12:23Z</time>
      </trkpt>
      <trkpt lat="42.07967" lon="-0.0869936">
        <time>2022-07-06T12:12:24Z</time>
      </trkpt>
      <trkpt lat="42.079628" lon="-0.08693194">
        <time>2022-07-06T12:12:25Z</time>
      </trkpt>
      <trkpt lat="42.079582" lon="-0.08687261">
        <time>2022-07-06T12:12:26Z</time>
      </trkpt>
      <trkpt lat="42.07954" lon="-0.08681895">
        <time>2022-07-06T12:12:27Z</time>
      </trkpt>
      <trkpt lat="42.079494" lon="-0.08676662">
        <time>2022-07-06T12:12:28Z</time>
      </trkpt>
      <trkpt lat="42.07945" lon="-0.08671262">
        <time>2022-07-06T12:12:29Z</time>
      </trkpt>
      <trkpt lat="42.0794" lon="-0.08666196">
        <time>2022-07-06T12:12:30Z</time>
      </trkpt>
      <trkpt lat="42.079353" lon="-0.0866123">
        <time>2022-07-06T12:12:31Z</time>
      </trkpt>
      <trkpt lat="42.079308" lon="-0.08656764">
        <time>2022-07-06T12:12:32Z</time>
      </trkpt>
      <trkpt lat="42.079266" lon="-0.08652331">
        <time>2022-07-06T12:12:33Z</time>
      </trkpt>
      <trkpt lat="42.07922" lon="-0.08647865">
        <time>2022-07-06T12:12:34Z</time>
      </trkpt>
      <trkpt lat="42.07917" lon="-0.08643065">
        <time>2022-07-06T12:12:35Z</time>
      </trkpt>
      <trkpt lat="42.079124" lon="-0.08638499">
        <time>2022-07-06T12:12:36Z</time>
      </trkpt>
      <trkpt lat="42.079075" lon="-0.08634266">
        <time>2022-07-06T12:12:37Z</time>
      </trkpt>
      <trkpt lat="42.079025" lon="-0.08629666">
        <time>2022-07-06T12:12:38Z</time>
      </trkpt>
      <trkpt lat="42.078976" lon="-0.08625">
        <time>2022-07-06T12:12:39Z</time>
      </trkpt>
      <trkpt lat="42.078922" lon="-0.08620267">
        <time>2022-07-06T12:12:40Z</time>
      </trkpt>
      <trkpt lat="42.07887" lon="-0.08615501">
        <time>2022-07-06T12:12:41Z</time>
      </trkpt>
      <trkpt lat="42.078815" lon="-0.08610768">
        <time>2022-07-06T12:12:42Z</time>
      </trkpt>
      <trkpt lat="42.07876" lon="-0.08605835">
        <time>2022-07-06T12:12:43Z</time>
      </trkpt>
      <trkpt lat="42.0787" lon="-0.08600802">
        <time>2022-07-06T12:12:44Z</time>
      </trkpt>
      <trkpt lat="42.078644" lon="-0.08595602">
        <time>2022-07-06T12:12:45Z</time>
      </trkpt>
      <trkpt lat="42.078587" lon="-0.08590269">
        <time>2022-07-06T12:12:46Z</time>
      </trkpt>
      <trkpt lat="42.078526" lon="-0.08584969">
        <time>2022-07-06T12:12:47Z</time>
      </trkpt>
      <trkpt lat="42.078465" lon="-0.08579769">
        <time>2022-07-06T12:12:48Z</time>
      </trkpt>
      <trkpt lat="42.078403" lon="-0.08574669">
        <time>2022-07-06T12:12:49Z</time>
      </trkpt>
      <trkpt lat="42.078342" lon="-0.08569503">
        <time>2022-07-06T12:12:50Z</time>
      </trkpt>
      <trkpt lat="42.078278" lon="-0.08564237">
        <time>2022-07-06T12:12:51Z</time>
      </trkpt>
      <trkpt lat="42.078213" lon="-0.08558771">
        <time>2022-07-06T12:12:52Z</time>
      </trkpt>
      <trkpt lat="42.078148" lon="-0.08553238">
        <time>2022-07-06T12:12:53Z</time>
      </trkpt>
      <trkpt lat="42.078083" lon="-0.08547638">
        <time>2022-07-06T12:12:54Z</time>
      </trkpt>
      <trkpt lat="42.07802" lon="-0.08541938">
        <time>2022-07-06T12:12:55Z</time>
      </trkpt>
      <trkpt lat="42.077953" lon="-0.08536072">
        <time>2022-07-06T12:12:56Z</time>
      </trkpt>
      <trkpt lat="42.07789" lon="-0.08530172">
        <time>2022-07-06T12:12:57Z</time>
      </trkpt>
      <trkpt lat="42.07776" lon="-0.08517872">
        <time>2022-07-06T12:12:59Z</time>
      </trkpt>
      <trkpt lat="42.077694" lon="-0.08511706">
        <time>2022-07-06T12:13:00Z</time>
      </trkpt>
      <trkpt lat="42.07763" lon="-0.08505673">
        <time>2022-07-06T12:13:01Z</time>
      </trkpt>
      <trkpt lat="42.077568" lon="-0.08500107">
        <time>2022-07-06T12:13:02Z</time>
      </trkpt>
      <trkpt lat="42.077503" lon="-0.08494307">
        <time>2022-07-06T12:13:03Z</time>
      </trkpt>
      <trkpt lat="42.077442" lon="-0.08489107">
        <time>2022-07-06T12:13:04Z</time>
      </trkpt>
      <trkpt lat="42.077385" lon="-0.08483907">
        <time>2022-07-06T12:13:05Z</time>
      </trkpt>
      <trkpt lat="42.077324" lon="-0.08478674">
        <time>2022-07-06T12:13:06Z</time>
      </trkpt>
      <trkpt lat="42.077267" lon="-0.08473508">
        <time>2022-07-06T12:13:07Z</time>
      </trkpt>
      <trkpt lat="42.077206" lon="-0.08468108">
        <time>2022-07-06T12:13:08Z</time>
      </trkpt>
      <trkpt lat="42.077152" lon="-0.08463342">
        <time>2022-07-06T12:13:09Z</time>
      </trkpt>
      <trkpt lat="42.077103" lon="-0.08458676">
        <time>2022-07-06T12:13:10Z</time>
      </trkpt>
      <trkpt lat="42.07705" lon="-0.08454076">
        <time>2022-07-06T12:13:11Z</time>
      </trkpt>
      <trkpt lat="42.076996" lon="-0.0844921">
        <time>2022-07-06T12:13:12Z</time>
      </trkpt>
      <trkpt lat="42.076946" lon="-0.08444644">
        <time>2022-07-06T12:13:13Z</time>
      </trkpt>
      <trkpt lat="42.0769" lon="-0.08440244">
        <time>2022-07-06T12:13:14Z</time>
      </trkpt>
      <trkpt lat="42.07686" lon="-0.08436044">
        <time>2022-07-06T12:13:15Z</time>
      </trkpt>
      <trkpt lat="42.076817" lon="-0.08431978">
        <time>2022-07-06T12:13:16Z</time>
      </trkpt>
      <trkpt lat="42.07678" lon="-0.08427912">
        <time>2022-07-06T12:13:17Z</time>
      </trkpt>
      <trkpt lat="42.076702" lon="-0.08420246">
        <time>2022-07-06T12:13:19Z</time>
      </trkpt>
      <trkpt lat="42.076637" lon="-0.08413246">
        <time>2022-07-06T12:13:21Z</time>
      </trkpt>
      <trkpt lat="42.076572" lon="-0.08406113">
        <time>2022-07-06T12:13:23Z</time>
      </trkpt>
      <trkpt lat="42.07651" lon="-0.08398547">
        <time>2022-07-06T12:13:25Z</time>
      </trkpt>
      <trkpt lat="42.07645" lon="-0.08390581">
        <time>2022-07-06T12:13:27Z</time>
      </trkpt>
      <trkpt lat="42.076393" lon="-0.08382481">
        <time>2022-07-06T12:13:29Z</time>
      </trkpt>
      <trkpt lat="42.07634" lon="-0.08374181">
        <time>2022-07-06T12:13:31Z</time>
      </trkpt>
      <trkpt lat="42.07629" lon="-0.08365448">
        <time>2022-07-06T12:13:33Z</time>
      </trkpt>
      <trkpt lat="42.076244" lon="-0.08356648">
        <time>2022-07-06T12:13:35Z</time>
      </trkpt>
      <trkpt lat="42.076202" lon="-0.08348082">
        <time>2022-07-06T12:13:37Z</time>
      </trkpt>
      <trkpt lat="42.076164" lon="-0.08340049">
        <time>2022-07-06T12:13:39Z</time>
      </trkpt>
      <trkpt lat="42.07613" lon="-0.08332616">
        <time>2022-07-06T12:13:41Z</time>
      </trkpt>
      <trkpt lat="42.076103" lon="-0.08325583">
        <time>2022-07-06T12:13:43Z</time>
      </trkpt>
      <trkpt lat="42.076077" lon="-0.0831895">
        <time>2022-07-06T12:13:45Z</time>
      </trkpt>
      <trkpt lat="42.07605" lon="-0.08313084">
        <time>2022-07-06T12:13:47Z</time>
      </trkpt>
      <trkpt lat="42.07602" lon="-0.08304651">
        <time>2022-07-06T12:13:50Z</time>
      </trkpt>
      <trkpt lat="42.075993" lon="-0.08296451">
        <time>2022-07-06T12:13:53Z</time>
      </trkpt>
      <trkpt lat="42.07597" lon="-0.08288718">
        <time>2022-07-06T12:13:56Z</time>
      </trkpt>
      <trkpt lat="42.075943" lon="-0.08281585">
        <time>2022-07-06T12:13:59Z</time>
      </trkpt>
      <trkpt lat="42.07592" lon="-0.08274419">
        <time>2022-07-06T12:14:02Z</time>
      </trkpt>
      <trkpt lat="42.075897" lon="-0.08267086">
        <time>2022-07-06T12:14:05Z</time>
      </trkpt>
      <trkpt lat="42.075874" lon="-0.08260053">
        <time>2022-07-06T12:14:08Z</time>
      </trkpt>
      <trkpt lat="42.07585" lon="-0.08252887">
        <time>2022-07-06T12:14:11Z</time>
      </trkpt>
      <trkpt lat="42.07583" lon="-0.08245921">
        <time>2022-07-06T12:14:14Z</time>
      </trkpt>
      <trkpt lat="42.0758" lon="-0.08238855">
        <time>2022-07-06T12:14:17Z</time>
      </trkpt>
      <trkpt lat="42.075775" lon="-0.08231555">
        <time>2022-07-06T12:14:20Z</time>
      </trkpt>
      <trkpt lat="42.07575" lon="-0.08223889">
        <time>2022-07-06T12:14:23Z</time>
      </trkpt>
      <trkpt lat="42.075718" lon="-0.08216489">
        <time>2022-07-06T12:14:26Z</time>
      </trkpt>
      <trkpt lat="42.075687" lon="-0.08208923">
        <time>2022-07-06T12:14:29Z</time>
      </trkpt>
      <trkpt lat="42.075657" lon="-0.08201923">
        <time>2022-07-06T12:14:32Z</time>
      </trkpt>
      <trkpt lat="42.075626" lon="-0.08194923">
        <time>2022-07-06T12:14:35Z</time>
      </trkpt>
      <trkpt lat="42.075596" lon="-0.0818759">
        <time>2022-07-06T12:14:38Z</time>
      </trkpt>
      <trkpt lat="42.075565" lon="-0.08180524">
        <time>2022-07-06T12:14:41Z</time>
      </trkpt>
      <trkpt lat="42.07553" lon="-0.08174024">
        <time>2022-07-06T12:14:44Z</time>
      </trkpt>
      <trkpt lat="42.075497" lon="-0.08167558">
        <time>2022-07-06T12:14:47Z</time>
      </trkpt>
      <trkpt lat="42.07546" lon="-0.08161158">
        <time>2022-07-06T12:14:50Z</time>
      </trkpt>
      <trkpt lat="42.07542" lon="-0.08155292">
        <time>2022-07-06T12:14:53Z</time>
      </trkpt>
      <trkpt lat="42.07538" lon="-0.08149259">
        <time>2022-07-06T12:14:56Z</time>
      </trkpt>
      <trkpt lat="42.075336" lon="-0.08143326">
        <time>2022-07-06T12:14:59Z</time>
      </trkpt>
      <trkpt lat="42.075294" lon="-0.08136826">
        <time>2022-07-06T12:15:02Z</time>
      </trkpt>
      <trkpt lat="42.075245" lon="-0.08130326">
        <time>2022-07-06T12:15:05Z</time>
      </trkpt>
      <trkpt lat="42.07519" lon="-0.08124326">
        <time>2022-07-06T12:15:08Z</time>
      </trkpt>
      <trkpt lat="42.075153" lon="-0.0812026">
        <time>2022-07-06T12:15:10Z</time>
      </trkpt>
      <trkpt lat="42.0751" lon="-0.0811386">
        <time>2022-07-06T12:15:13Z</time>
      </trkpt>
      <trkpt lat="42.07504" lon="-0.0810726">
        <time>2022-07-06T12:15:16Z</time>
      </trkpt>
      <trkpt lat="42.074997" lon="-0.08102727">
        <time>2022-07-06T12:15:18Z</time>
      </trkpt>
      <trkpt lat="42.074955" lon="-0.08098261">
        <time>2022-07-06T12:15:20Z</time>
      </trkpt>
      <trkpt lat="42.074913" lon="-0.08093861">
        <time>2022-07-06T12:15:22Z</time>
      </trkpt>
      <trkpt lat="42.074867" lon="-0.08089195">
        <time>2022-07-06T12:15:24Z</time>
      </trkpt>
      <trkpt lat="42.074825" lon="-0.08084762">
        <time>2022-07-06T12:15:26Z</time>
      </trkpt>
      <trkpt lat="42.074783" lon="-0.08080496">
        <time>2022-07-06T12:15:28Z</time>
      </trkpt>
      <trkpt lat="42.07474" lon="-0.08075796">
        <time>2022-07-06T12:15:30Z</time>
      </trkpt>
      <trkpt lat="42.0747" lon="-0.0807123">
        <time>2022-07-06T12:15:32Z</time>
      </trkpt>
      <trkpt lat="42.074657" lon="-0.0806693">
        <time>2022-07-06T12:15:34Z</time>
      </trkpt>
      <trkpt lat="42.07462" lon="-0.08062297">
        <time>2022-07-06T12:15:36Z</time>
      </trkpt>
      <trkpt lat="42.07458" lon="-0.08057364">
        <time>2022-07-06T12:15:38Z</time>
      </trkpt>
      <trkpt lat="42.074535" lon="-0.08052031">
        <time>2022-07-06T12:15:40Z</time>
      </trkpt>
      <trkpt lat="42.074493" lon="-0.08046998">
        <time>2022-07-06T12:15:42Z</time>
      </trkpt>
      <trkpt lat="42.074455" lon="-0.08041932">
        <time>2022-07-06T12:15:44Z</time>
      </trkpt>
      <trkpt lat="42.07442" lon="-0.08036299">
        <time>2022-07-06T12:15:46Z</time>
      </trkpt>
      <trkpt lat="42.074383" lon="-0.08030633">
        <time>2022-07-06T12:15:48Z</time>
      </trkpt>
      <trkpt lat="42.07435" lon="-0.080249">
        <time>2022-07-06T12:15:50Z</time>
      </trkpt>
      <trkpt lat="42.074314" lon="-0.080191">
        <time>2022-07-06T12:15:52Z</time>
      </trkpt>
      <trkpt lat="42.07428" lon="-0.08013134">
        <time>2022-07-06T12:15:54Z</time>
      </trkpt>
      <trkpt lat="42.074245" lon="-0.08007134">
        <time>2022-07-06T12:15:56Z</time>
      </trkpt>
      <trkpt lat="42.07421" lon="-0.08001068">
        <time>2022-07-06T12:15:58Z</time>
      </trkpt>
      <trkpt lat="42.07418" lon="-0.07995068">
        <time>2022-07-06T12:16:00Z</time>
      </trkpt>
      <trkpt lat="42.074146" lon="-0.07989068">
        <time>2022-07-06T12:16:02Z</time>
      </trkpt>
      <trkpt lat="42.074112" lon="-0.07983202">
        <time>2022-07-06T12:16:04Z</time>
      </trkpt>
      <trkpt lat="42.074078" lon="-0.07977502">
        <time>2022-07-06T12:16:06Z</time>
      </trkpt>
      <trkpt lat="42.074043" lon="-0.07971369">
        <time>2022-07-06T12:16:08Z</time>
      </trkpt>
      <trkpt lat="42.07401" lon="-0.07965203">
        <time>2022-07-06T12:16:10Z</time>
      </trkpt>
      <trkpt lat="42.073956" lon="-0.0795587">
        <time>2022-07-06T12:16:13Z</time>
      </trkpt>
      <trkpt lat="42.073917" lon="-0.07949237">
        <time>2022-07-06T12:16:15Z</time>
      </trkpt>
      <trkpt lat="42.073883" lon="-0.07942371">
        <time>2022-07-06T12:16:17Z</time>
      </trkpt>
      <trkpt lat="42.07385" lon="-0.07935738">
        <time>2022-07-06T12:16:19Z</time>
      </trkpt>
      <trkpt lat="42.073795" lon="-0.07925938">
        <time>2022-07-06T12:16:22Z</time>
      </trkpt>
      <trkpt lat="42.07376" lon="-0.07919472">
        <time>2022-07-06T12:16:24Z</time>
      </trkpt>
      <trkpt lat="42.07373" lon="-0.07912906">
        <time>2022-07-06T12:16:26Z</time>
      </trkpt>
      <trkpt lat="42.073692" lon="-0.0790644">
        <time>2022-07-06T12:16:28Z</time>
      </trkpt>
      <trkpt lat="42.07366" lon="-0.07900074">
        <time>2022-07-06T12:16:30Z</time>
      </trkpt>
      <trkpt lat="42.07363" lon="-0.07894041">
        <time>2022-07-06T12:16:32Z</time>
      </trkpt>
      <trkpt lat="42.0736" lon="-0.07887708">
        <time>2022-07-06T12:16:34Z</time>
      </trkpt>
      <trkpt lat="42.073574" lon="-0.07881508">
        <time>2022-07-06T12:16:36Z</time>
      </trkpt>
      <trkpt lat="42.073544" lon="-0.07875208">
        <time>2022-07-06T12:16:38Z</time>
      </trkpt>
      <trkpt lat="42.073513" lon="-0.07868975">
        <time>2022-07-06T12:16:40Z</time>
      </trkpt>
      <trkpt lat="42.073483" lon="-0.07862875">
        <time>2022-07-06T12:16:42Z</time>
      </trkpt>
      <trkpt lat="42.073456" lon="-0.07857042">
        <time>2022-07-06T12:16:44Z</time>
      </trkpt>
      <trkpt lat="42.073406" lon="-0.07848642">
        <time>2022-07-06T12:16:47Z</time>
      </trkpt>
      <trkpt lat="42.073376" lon="-0.07842676">
        <time>2022-07-06T12:16:49Z</time>
      </trkpt>
      <trkpt lat="42.073345" lon="-0.07836743">
        <time>2022-07-06T12:16:51Z</time>
      </trkpt>
      <trkpt lat="42.073315" lon="-0.07831043">
        <time>2022-07-06T12:16:53Z</time>
      </trkpt>
      <trkpt lat="42.07328" lon="-0.0782521">
        <time>2022-07-06T12:16:55Z</time>
      </trkpt>
      <trkpt lat="42.07325" lon="-0.0781931">
        <time>2022-07-06T12:16:57Z</time>
      </trkpt>
      <trkpt lat="42.073215" lon="-0.07813177">
        <time>2022-07-06T12:16:59Z</time>
      </trkpt>
      <trkpt lat="42.07318" lon="-0.07806944">
        <time>2022-07-06T12:17:01Z</time>
      </trkpt>
      <trkpt lat="42.073147" lon="-0.07800478">
        <time>2022-07-06T12:17:03Z</time>
      </trkpt>
      <trkpt lat="42.073112" lon="-0.07793745">
        <time>2022-07-06T12:17:05Z</time>
      </trkpt>
      <trkpt lat="42.073074" lon="-0.07787045">
        <time>2022-07-06T12:17:07Z</time>
      </trkpt>
      <trkpt lat="42.073032" lon="-0.07780412">
        <time>2022-07-06T12:17:09Z</time>
      </trkpt>
      <trkpt lat="42.072998" lon="-0.07773612">
        <time>2022-07-06T12:17:11Z</time>
      </trkpt>
      <trkpt lat="42.07296" lon="-0.07766846">
        <time>2022-07-06T12:17:13Z</time>
      </trkpt>
      <trkpt lat="42.07293" lon="-0.0776028">
        <time>2022-07-06T12:17:15Z</time>
      </trkpt>
      <trkpt lat="42.072895" lon="-0.0775348">
        <time>2022-07-06T12:17:17Z</time>
      </trkpt>
      <trkpt lat="42.072865" lon="-0.07747047">
        <time>2022-07-06T12:17:19Z</time>
      </trkpt>
      <trkpt lat="42.07283" lon="-0.07740714">
        <time>2022-07-06T12:17:21Z</time>
      </trkpt>
      <trkpt lat="42.072803" lon="-0.07735981">
        <time>2022-07-06T12:17:23Z</time>
      </trkpt>
      <trkpt lat="42.072727" lon="-0.07731481">
        <time>2022-07-06T12:22:01Z</time>
      </trkpt>
      <trkpt lat="42.072693" lon="-0.07723048">
        <time>2022-07-06T12:22:03Z</time>
      </trkpt>
      <trkpt lat="42.072655" lon="-0.07713348">
        <time>2022-07-06T12:22:05Z</time>
      </trkpt>
      <trkpt lat="42.072605" lon="-0.07702515">
        <time>2022-07-06T12:22:07Z</time>
      </trkpt>
      <trkpt lat="42.07256" lon="-0.07691882">
        <time>2022-07-06T12:22:09Z</time>
      </trkpt>
      <trkpt lat="42.07251" lon="-0.07680882">
        <time>2022-07-06T12:22:11Z</time>
      </trkpt>
      <trkpt lat="42.072456" lon="-0.07669882">
        <time>2022-07-06T12:22:13Z</time>
      </trkpt>
      <trkpt lat="42.0724" lon="-0.07658949">
        <time>2022-07-06T12:22:15Z</time>
      </trkpt>
      <trkpt lat="42.072342" lon="-0.07647716">
        <time>2022-07-06T12:22:17Z</time>
      </trkpt>
      <trkpt lat="42.072285" lon="-0.07636216">
        <time>2022-07-06T12:22:19Z</time>
      </trkpt>
      <trkpt lat="42.07225" lon="-0.0763045">
        <time>2022-07-06T12:22:20Z</time>
      </trkpt>
      <trkpt lat="42.07222" lon="-0.07624884">
        <time>2022-07-06T12:22:21Z</time>
      </trkpt>
      <trkpt lat="42.072163" lon="-0.07613818">
        <time>2022-07-06T12:22:23Z</time>
      </trkpt>
      <trkpt lat="42.072132" lon="-0.07608185">
        <time>2022-07-06T12:22:24Z</time>
      </trkpt>
      <trkpt lat="42.07205" lon="-0.07591219">
        <time>2022-07-06T12:22:27Z</time>
      </trkpt>
      <trkpt lat="42.07199" lon="-0.07579853">
        <time>2022-07-06T12:22:29Z</time>
      </trkpt>
      <trkpt lat="42.07196" lon="-0.07574153">
        <time>2022-07-06T12:22:30Z</time>
      </trkpt>
      <trkpt lat="42.071903" lon="-0.0756262">
        <time>2022-07-06T12:22:32Z</time>
      </trkpt>
      <trkpt lat="42.071873" lon="-0.07556854">
        <time>2022-07-06T12:22:33Z</time>
      </trkpt>
      <trkpt lat="42.071846" lon="-0.07551021">
        <time>2022-07-06T12:22:34Z</time>
      </trkpt>
      <trkpt lat="42.071785" lon="-0.07539588">
        <time>2022-07-06T12:22:36Z</time>
      </trkpt>
      <trkpt lat="42.071754" lon="-0.07533988">
        <time>2022-07-06T12:22:37Z</time>
      </trkpt>
      <trkpt lat="42.071728" lon="-0.07528722">
        <time>2022-07-06T12:22:38Z</time>
      </trkpt>
      <trkpt lat="42.07167" lon="-0.07517822">
        <time>2022-07-06T12:22:40Z</time>
      </trkpt>
      <trkpt lat="42.07164" lon="-0.07512622">
        <time>2022-07-06T12:22:41Z</time>
      </trkpt>
      <trkpt lat="42.071583" lon="-0.07502022">
        <time>2022-07-06T12:22:43Z</time>
      </trkpt>
      <trkpt lat="42.07153" lon="-0.07491156">
        <time>2022-07-06T12:22:45Z</time>
      </trkpt>
      <trkpt lat="42.071472" lon="-0.07480023">
        <time>2022-07-06T12:22:47Z</time>
      </trkpt>
      <trkpt lat="42.071415" lon="-0.0746799">
        <time>2022-07-06T12:22:49Z</time>
      </trkpt>
      <trkpt lat="42.07139" lon="-0.0746269">
        <time>2022-07-06T12:22:50Z</time>
      </trkpt>
      <trkpt lat="42.071327" lon="-0.0745159">
        <time>2022-07-06T12:22:52Z</time>
      </trkpt>
      <trkpt lat="42.071297" lon="-0.07445924">
        <time>2022-07-06T12:22:53Z</time>
      </trkpt>
      <trkpt lat="42.07124" lon="-0.07434824">
        <time>2022-07-06T12:22:55Z</time>
      </trkpt>
      <trkpt lat="42.07121" lon="-0.07429858">
        <time>2022-07-06T12:22:56Z</time>
      </trkpt>
      <trkpt lat="42.071156" lon="-0.07419358">
        <time>2022-07-06T12:22:58Z</time>
      </trkpt>
      <trkpt lat="42.071125" lon="-0.07413658">
        <time>2022-07-06T12:22:59Z</time>
      </trkpt>
      <trkpt lat="42.071068" lon="-0.07402992">
        <time>2022-07-06T12:23:01Z</time>
      </trkpt>
      <trkpt lat="42.071014" lon="-0.07392259">
        <time>2022-07-06T12:23:03Z</time>
      </trkpt>
      <trkpt lat="42.070957" lon="-0.07381426">
        <time>2022-07-06T12:23:05Z</time>
      </trkpt>
      <trkpt lat="42.07093" lon="-0.07376193">
        <time>2022-07-06T12:23:06Z</time>
      </trkpt>
      <trkpt lat="42.070873" lon="-0.07365527">
        <time>2022-07-06T12:23:08Z</time>
      </trkpt>
      <trkpt lat="42.070847" lon="-0.07360494">
        <time>2022-07-06T12:23:09Z</time>
      </trkpt>
      <trkpt lat="42.070793" lon="-0.07350328">
        <time>2022-07-06T12:23:11Z</time>
      </trkpt>
      <trkpt lat="42.07074" lon="-0.07340095">
        <time>2022-07-06T12:23:13Z</time>
      </trkpt>
      <trkpt lat="42.070683" lon="-0.07330062">
        <time>2022-07-06T12:23:15Z</time>
      </trkpt>
      <trkpt lat="42.07063" lon="-0.07319896">
        <time>2022-07-06T12:23:17Z</time>
      </trkpt>
      <trkpt lat="42.07058" lon="-0.07309896">
        <time>2022-07-06T12:23:19Z</time>
      </trkpt>
      <trkpt lat="42.07053" lon="-0.07299996">
        <time>2022-07-06T12:23:21Z</time>
      </trkpt>
      <trkpt lat="42.070477" lon="-0.0729023">
        <time>2022-07-06T12:23:23Z</time>
      </trkpt>
      <trkpt lat="42.070427" lon="-0.07280497">
        <time>2022-07-06T12:23:25Z</time>
      </trkpt>
      <trkpt lat="42.07038" lon="-0.07271264">
        <time>2022-07-06T12:23:27Z</time>
      </trkpt>
      <trkpt lat="42.07033" lon="-0.07262231">
        <time>2022-07-06T12:23:29Z</time>
      </trkpt>
      <trkpt lat="42.07028" lon="-0.07253298">
        <time>2022-07-06T12:23:31Z</time>
      </trkpt>
      <trkpt lat="42.07023" lon="-0.07244332">
        <time>2022-07-06T12:23:33Z</time>
      </trkpt>
      <trkpt lat="42.070183" lon="-0.07235166">
        <time>2022-07-06T12:23:35Z</time>
      </trkpt>
      <trkpt lat="42.070137" lon="-0.072258">
        <time>2022-07-06T12:23:37Z</time>
      </trkpt>
      <trkpt lat="42.07009" lon="-0.072163">
        <time>2022-07-06T12:23:39Z</time>
      </trkpt>
      <trkpt lat="42.070045" lon="-0.072069">
        <time>2022-07-06T12:23:41Z</time>
      </trkpt>
      <trkpt lat="42.069996" lon="-0.07197734">
        <time>2022-07-06T12:23:43Z</time>
      </trkpt>
      <trkpt lat="42.069946" lon="-0.07188768">
        <time>2022-07-06T12:23:45Z</time>
      </trkpt>
      <trkpt lat="42.069904" lon="-0.07179302">
        <time>2022-07-06T12:23:47Z</time>
      </trkpt>
      <trkpt lat="42.06986" lon="-0.07169769">
        <time>2022-07-06T12:23:49Z</time>
      </trkpt>
      <trkpt lat="42.069813" lon="-0.07161536">
        <time>2022-07-06T12:23:51Z</time>
      </trkpt>
      <trkpt lat="42.069767" lon="-0.0715397">
        <time>2022-07-06T12:23:53Z</time>
      </trkpt>
      <trkpt lat="42.069725" lon="-0.0714647">
        <time>2022-07-06T12:23:55Z</time>
      </trkpt>
      <trkpt lat="42.069687" lon="-0.07139237">
        <time>2022-07-06T12:23:57Z</time>
      </trkpt>
      <trkpt lat="42.069653" lon="-0.07132104">
        <time>2022-07-06T12:23:59Z</time>
      </trkpt>
      <trkpt lat="42.069614" lon="-0.07124738">
        <time>2022-07-06T12:24:01Z</time>
      </trkpt>
      <trkpt lat="42.069576" lon="-0.07117572">
        <time>2022-07-06T12:24:03Z</time>
      </trkpt>
      <trkpt lat="42.069542" lon="-0.07110839">
        <time>2022-07-06T12:24:05Z</time>
      </trkpt>
      <trkpt lat="42.069504" lon="-0.07103973">
        <time>2022-07-06T12:24:07Z</time>
      </trkpt>
      <trkpt lat="42.06947" lon="-0.07097073">
        <time>2022-07-06T12:24:09Z</time>
      </trkpt>
      <trkpt lat="42.06943" lon="-0.07090207">
        <time>2022-07-06T12:24:11Z</time>
      </trkpt>
      <trkpt lat="42.069393" lon="-0.07083274">
        <time>2022-07-06T12:24:13Z</time>
      </trkpt>
      <trkpt lat="42.069355" lon="-0.07076241">
        <time>2022-07-06T12:24:15Z</time>
      </trkpt>
      <trkpt lat="42.069317" lon="-0.07069075">
        <time>2022-07-06T12:24:17Z</time>
      </trkpt>
      <trkpt lat="42.069283" lon="-0.07061709">
        <time>2022-07-06T12:24:19Z</time>
      </trkpt>
      <trkpt lat="42.06925" lon="-0.07054776">
        <time>2022-07-06T12:24:21Z</time>
      </trkpt>
      <trkpt lat="42.06921" lon="-0.0704781">
        <time>2022-07-06T12:24:23Z</time>
      </trkpt>
      <trkpt lat="42.069176" lon="-0.07040877">
        <time>2022-07-06T12:24:25Z</time>
      </trkpt>
      <trkpt lat="42.069138" lon="-0.07033877">
        <time>2022-07-06T12:24:27Z</time>
      </trkpt>
      <trkpt lat="42.069103" lon="-0.07027044">
        <time>2022-07-06T12:24:29Z</time>
      </trkpt>
      <trkpt lat="42.069065" lon="-0.07019811">
        <time>2022-07-06T12:24:31Z</time>
      </trkpt>
      <trkpt lat="42.069035" lon="-0.07012545">
        <time>2022-07-06T12:24:33Z</time>
      </trkpt>
      <trkpt lat="42.069" lon="-0.07005512">
        <time>2022-07-06T12:24:35Z</time>
      </trkpt>
      <trkpt lat="42.068966" lon="-0.06998579">
        <time>2022-07-06T12:24:37Z</time>
      </trkpt>
      <trkpt lat="42.06891" lon="-0.06988146">
        <time>2022-07-06T12:24:40Z</time>
      </trkpt>
      <trkpt lat="42.06887" lon="-0.06980613">
        <time>2022-07-06T12:24:42Z</time>
      </trkpt>
      <trkpt lat="42.068832" lon="-0.06972713">
        <time>2022-07-06T12:24:44Z</time>
      </trkpt>
      <trkpt lat="42.068794" lon="-0.06964747">
        <time>2022-07-06T12:24:46Z</time>
      </trkpt>
      <trkpt lat="42.068752" lon="-0.06956881">
        <time>2022-07-06T12:24:48Z</time>
      </trkpt>
      <trkpt lat="42.06871" lon="-0.06948948">
        <time>2022-07-06T12:24:50Z</time>
      </trkpt>
      <trkpt lat="42.06867" lon="-0.06941148">
        <time>2022-07-06T12:24:52Z</time>
      </trkpt>
      <trkpt lat="42.068626" lon="-0.06933315">
        <time>2022-07-06T12:24:54Z</time>
      </trkpt>
      <trkpt lat="42.068584" lon="-0.06925315">
        <time>2022-07-06T12:24:56Z</time>
      </trkpt>
      <trkpt lat="42.068546" lon="-0.06917082">
        <time>2022-07-06T12:24:58Z</time>
      </trkpt>
      <trkpt lat="42.068504" lon="-0.06909216">
        <time>2022-07-06T12:25:00Z</time>
      </trkpt>
      <trkpt lat="42.068462" lon="-0.06901483">
        <time>2022-07-06T12:25:02Z</time>
      </trkpt>
      <trkpt lat="42.06842" lon="-0.06893683">
        <time>2022-07-06T12:25:04Z</time>
      </trkpt>
      <trkpt lat="42.068375" lon="-0.06885817">
        <time>2022-07-06T12:25:06Z</time>
      </trkpt>
      <trkpt lat="42.068333" lon="-0.06877851">
        <time>2022-07-06T12:25:08Z</time>
      </trkpt>
      <trkpt lat="42.06829" lon="-0.06869751">
        <time>2022-07-06T12:25:10Z</time>
      </trkpt>
      <trkpt lat="42.06825" lon="-0.06861518">
        <time>2022-07-06T12:25:12Z</time>
      </trkpt>
      <trkpt lat="42.068207" lon="-0.06853218">
        <time>2022-07-06T12:25:14Z</time>
      </trkpt>
      <trkpt lat="42.06816" lon="-0.06844985">
        <time>2022-07-06T12:25:16Z</time>
      </trkpt>
      <trkpt lat="42.068115" lon="-0.06836852">
        <time>2022-07-06T12:25:18Z</time>
      </trkpt>
      <trkpt lat="42.068073" lon="-0.06828519">
        <time>2022-07-06T12:25:20Z</time>
      </trkpt>
      <trkpt lat="42.068027" lon="-0.06820019">
        <time>2022-07-06T12:25:22Z</time>
      </trkpt>
      <trkpt lat="42.06798" lon="-0.06811353">
        <time>2022-07-06T12:25:24Z</time>
      </trkpt>
      <trkpt lat="42.067932" lon="-0.0680272">
        <time>2022-07-06T12:25:26Z</time>
      </trkpt>
      <trkpt lat="42.067886" lon="-0.06793887">
        <time>2022-07-06T12:25:28Z</time>
      </trkpt>
      <trkpt lat="42.067844" lon="-0.06785087">
        <time>2022-07-06T12:25:30Z</time>
      </trkpt>
      <trkpt lat="42.067802" lon="-0.06776487">
        <time>2022-07-06T12:25:32Z</time>
      </trkpt>
      <trkpt lat="42.067757" lon="-0.06767587">
        <time>2022-07-06T12:25:34Z</time>
      </trkpt>
      <trkpt lat="42.067715" lon="-0.06758754">
        <time>2022-07-06T12:25:36Z</time>
      </trkpt>
      <trkpt lat="42.06767" lon="-0.06750121">
        <time>2022-07-06T12:25:38Z</time>
      </trkpt>
      <trkpt lat="42.067623" lon="-0.06741588">
        <time>2022-07-06T12:25:40Z</time>
      </trkpt>
      <trkpt lat="42.06755" lon="-0.06728088">
        <time>2022-07-06T12:25:43Z</time>
      </trkpt>
      <trkpt lat="42.0675" lon="-0.06719055">
        <time>2022-07-06T12:25:45Z</time>
      </trkpt>
      <trkpt lat="42.067455" lon="-0.06710389">
        <time>2022-07-06T12:25:47Z</time>
      </trkpt>
      <trkpt lat="42.06741" lon="-0.06701223">
        <time>2022-07-06T12:25:49Z</time>
      </trkpt>
      <trkpt lat="42.067364" lon="-0.0669269">
        <time>2022-07-06T12:25:51Z</time>
      </trkpt>
      <trkpt lat="42.067318" lon="-0.06684057">
        <time>2022-07-06T12:25:53Z</time>
      </trkpt>
      <trkpt lat="42.067272" lon="-0.06675691">
        <time>2022-07-06T12:25:55Z</time>
      </trkpt>
      <trkpt lat="42.06723" lon="-0.06667591">
        <time>2022-07-06T12:25:57Z</time>
      </trkpt>
      <trkpt lat="42.06719" lon="-0.06659725">
        <time>2022-07-06T12:25:59Z</time>
      </trkpt>
      <trkpt lat="42.067146" lon="-0.06652059">
        <time>2022-07-06T12:26:01Z</time>
      </trkpt>
      <trkpt lat="42.06711" lon="-0.06645359">
        <time>2022-07-06T12:26:03Z</time>
      </trkpt>
      <trkpt lat="42.06707" lon="-0.06638459">
        <time>2022-07-06T12:26:05Z</time>
      </trkpt>
      <trkpt lat="42.067036" lon="-0.06631826">
        <time>2022-07-06T12:26:07Z</time>
      </trkpt>
      <trkpt lat="42.067" lon="-0.06625093">
        <time>2022-07-06T12:26:09Z</time>
      </trkpt>
      <trkpt lat="42.066967" lon="-0.06618127">
        <time>2022-07-06T12:26:11Z</time>
      </trkpt>
      <trkpt lat="42.066933" lon="-0.06611627">
        <time>2022-07-06T12:26:13Z</time>
      </trkpt>
      <trkpt lat="42.066895" lon="-0.06605261">
        <time>2022-07-06T12:26:15Z</time>
      </trkpt>
      <trkpt lat="42.06686" lon="-0.06598628">
        <time>2022-07-06T12:26:17Z</time>
      </trkpt>
      <trkpt lat="42.066822" lon="-0.06591962">
        <time>2022-07-06T12:26:19Z</time>
      </trkpt>
      <trkpt lat="42.066788" lon="-0.06585362">
        <time>2022-07-06T12:26:21Z</time>
      </trkpt>
      <trkpt lat="42.066753" lon="-0.06578896">
        <time>2022-07-06T12:26:23Z</time>
      </trkpt>
      <trkpt lat="42.06672" lon="-0.06572596">
        <time>2022-07-06T12:26:25Z</time>
      </trkpt>
      <trkpt lat="42.06669" lon="-0.0656663">
        <time>2022-07-06T12:26:27Z</time>
      </trkpt>
      <trkpt lat="42.066658" lon="-0.06560997">
        <time>2022-07-06T12:26:29Z</time>
      </trkpt>
      <trkpt lat="42.066624" lon="-0.06555097">
        <time>2022-07-06T12:26:31Z</time>
      </trkpt>
      <trkpt lat="42.066593" lon="-0.06548731">
        <time>2022-07-06T12:26:33Z</time>
      </trkpt>
      <trkpt lat="42.066563" lon="-0.06542965">
        <time>2022-07-06T12:26:35Z</time>
      </trkpt>
      <trkpt lat="42.066532" lon="-0.06537165">
        <time>2022-07-06T12:26:37Z</time>
      </trkpt>
      <trkpt lat="42.0665" lon="-0.06531332">
        <time>2022-07-06T12:26:39Z</time>
      </trkpt>
      <trkpt lat="42.066452" lon="-0.06522699">
        <time>2022-07-06T12:26:42Z</time>
      </trkpt>
      <trkpt lat="42.06642" lon="-0.06516766">
        <time>2022-07-06T12:26:44Z</time>
      </trkpt>
      <trkpt lat="42.066395" lon="-0.06510933">
        <time>2022-07-06T12:26:46Z</time>
      </trkpt>
      <trkpt lat="42.066364" lon="-0.06504967">
        <time>2022-07-06T12:26:48Z</time>
      </trkpt>
      <trkpt lat="42.066334" lon="-0.06499401">
        <time>2022-07-06T12:26:50Z</time>
      </trkpt>
      <trkpt lat="42.066303" lon="-0.06493535">
        <time>2022-07-06T12:26:52Z</time>
      </trkpt>
      <trkpt lat="42.066273" lon="-0.06487569">
        <time>2022-07-06T12:26:54Z</time>
      </trkpt>
      <trkpt lat="42.066227" lon="-0.06479669">
        <time>2022-07-06T12:26:57Z</time>
      </trkpt>
      <trkpt lat="42.066196" lon="-0.06474003">
        <time>2022-07-06T12:26:59Z</time>
      </trkpt>
      <trkpt lat="42.066166" lon="-0.0646807">
        <time>2022-07-06T12:27:01Z</time>
      </trkpt>
      <trkpt lat="42.06613" lon="-0.0646197">
        <time>2022-07-06T12:27:03Z</time>
      </trkpt>
      <trkpt lat="42.0661" lon="-0.0645577">
        <time>2022-07-06T12:27:05Z</time>
      </trkpt>
      <trkpt lat="42.06607" lon="-0.06449404">
        <time>2022-07-06T12:27:07Z</time>
      </trkpt>
      <trkpt lat="42.06604" lon="-0.06443071">
        <time>2022-07-06T12:27:09Z</time>
      </trkpt>
      <trkpt lat="42.066006" lon="-0.06436805">
        <time>2022-07-06T12:27:11Z</time>
      </trkpt>
      <trkpt lat="42.065975" lon="-0.06430739">
        <time>2022-07-06T12:27:13Z</time>
      </trkpt>
      <trkpt lat="42.06595" lon="-0.06425173">
        <time>2022-07-06T12:27:15Z</time>
      </trkpt>
      <trkpt lat="42.065914" lon="-0.06419407">
        <time>2022-07-06T12:27:17Z</time>
      </trkpt>
      <trkpt lat="42.065884" lon="-0.06413507">
        <time>2022-07-06T12:27:19Z</time>
      </trkpt>
      <trkpt lat="42.065857" lon="-0.06407341">
        <time>2022-07-06T12:27:21Z</time>
      </trkpt>
      <trkpt lat="42.065826" lon="-0.06401108">
        <time>2022-07-06T12:27:23Z</time>
      </trkpt>
      <trkpt lat="42.065796" lon="-0.06394842">
        <time>2022-07-06T12:27:25Z</time>
      </trkpt>
      <trkpt lat="42.06576" lon="-0.06388909">
        <time>2022-07-06T12:27:27Z</time>
      </trkpt>
      <trkpt lat="42.06573" lon="-0.06383043">
        <time>2022-07-06T12:27:29Z</time>
      </trkpt>
      <trkpt lat="42.0657" lon="-0.0637701">
        <time>2022-07-06T12:27:31Z</time>
      </trkpt>
      <trkpt lat="42.06567" lon="-0.0637091">
        <time>2022-07-06T12:27:33Z</time>
      </trkpt>
      <trkpt lat="42.06564" lon="-0.06364877">
        <time>2022-07-06T12:27:35Z</time>
      </trkpt>
      <trkpt lat="42.06561" lon="-0.06358911">
        <time>2022-07-06T12:27:37Z</time>
      </trkpt>
      <trkpt lat="42.06558" lon="-0.06352911">
        <time>2022-07-06T12:27:39Z</time>
      </trkpt>
      <trkpt lat="42.065548" lon="-0.06346745">
        <time>2022-07-06T12:27:41Z</time>
      </trkpt>
      <trkpt lat="42.065514" lon="-0.06340512">
        <time>2022-07-06T12:27:43Z</time>
      </trkpt>
      <trkpt lat="42.065483" lon="-0.06334212">
        <time>2022-07-06T12:27:45Z</time>
      </trkpt>
      <trkpt lat="42.065453" lon="-0.06327879">
        <time>2022-07-06T12:27:47Z</time>
      </trkpt>
      <trkpt lat="42.065422" lon="-0.06321446">
        <time>2022-07-06T12:27:49Z</time>
      </trkpt>
      <trkpt lat="42.065388" lon="-0.0631548">
        <time>2022-07-06T12:27:51Z</time>
      </trkpt>
      <trkpt lat="42.065353" lon="-0.06309747">
        <time>2022-07-06T12:27:53Z</time>
      </trkpt>
      <trkpt lat="42.065315" lon="-0.06303881">
        <time>2022-07-06T12:27:55Z</time>
      </trkpt>
      <trkpt lat="42.06528" lon="-0.06297881">
        <time>2022-07-06T12:27:57Z</time>
      </trkpt>
      <trkpt lat="42.065243" lon="-0.06292115">
        <time>2022-07-06T12:27:59Z</time>
      </trkpt>
      <trkpt lat="42.06521" lon="-0.06286615">
        <time>2022-07-06T12:28:01Z</time>
      </trkpt>
      <trkpt lat="42.06517" lon="-0.06281115">
        <time>2022-07-06T12:28:03Z</time>
      </trkpt>
      <trkpt lat="42.065136" lon="-0.06275282">
        <time>2022-07-06T12:28:05Z</time>
      </trkpt>
      <trkpt lat="42.0651" lon="-0.06269082">
        <time>2022-07-06T12:28:07Z</time>
      </trkpt>
      <trkpt lat="42.065067" lon="-0.06262582">
        <time>2022-07-06T12:28:09Z</time>
      </trkpt>
      <trkpt lat="42.065033" lon="-0.06256749">
        <time>2022-07-06T12:28:11Z</time>
      </trkpt>
      <trkpt lat="42.06499" lon="-0.06251183">
        <time>2022-07-06T12:28:13Z</time>
      </trkpt>
      <trkpt lat="42.06495" lon="-0.0624605">
        <time>2022-07-06T12:28:15Z</time>
      </trkpt>
      <trkpt lat="42.064903" lon="-0.06241317">
        <time>2022-07-06T12:28:17Z</time>
      </trkpt>
      <trkpt lat="42.064857" lon="-0.06236851">
        <time>2022-07-06T12:28:19Z</time>
      </trkpt>
      <trkpt lat="42.06481" lon="-0.06232551">
        <time>2022-07-06T12:28:21Z</time>
      </trkpt>
      <trkpt lat="42.064766" lon="-0.06228618">
        <time>2022-07-06T12:28:23Z</time>
      </trkpt>
      <trkpt lat="42.06472" lon="-0.06224752">
        <time>2022-07-06T12:28:25Z</time>
      </trkpt>
      <trkpt lat="42.064674" lon="-0.06220519">
        <time>2022-07-06T12:28:27Z</time>
      </trkpt>
      <trkpt lat="42.064632" lon="-0.06215419">
        <time>2022-07-06T12:28:29Z</time>
      </trkpt>
      <trkpt lat="42.064594" lon="-0.06209286">
        <time>2022-07-06T12:28:31Z</time>
      </trkpt>
      <trkpt lat="42.06456" lon="-0.0620222">
        <time>2022-07-06T12:28:33Z</time>
      </trkpt>
      <trkpt lat="42.06453" lon="-0.06194354">
        <time>2022-07-06T12:28:35Z</time>
      </trkpt>
      <trkpt lat="42.064507" lon="-0.06185821">
        <time>2022-07-06T12:28:37Z</time>
      </trkpt>
      <trkpt lat="42.064487" lon="-0.06176921">
        <time>2022-07-06T12:28:39Z</time>
      </trkpt>
      <trkpt lat="42.06446" lon="-0.06167988">
        <time>2022-07-06T12:28:41Z</time>
      </trkpt>
      <trkpt lat="42.06443" lon="-0.06159188">
        <time>2022-07-06T12:28:43Z</time>
      </trkpt>
      <trkpt lat="42.064392" lon="-0.06150855">
        <time>2022-07-06T12:28:45Z</time>
      </trkpt>
      <trkpt lat="42.064358" lon="-0.06142689">
        <time>2022-07-06T12:28:47Z</time>
      </trkpt>
      <trkpt lat="42.064316" lon="-0.06134189">
        <time>2022-07-06T12:28:49Z</time>
      </trkpt>
      <trkpt lat="42.064274" lon="-0.06125389">
        <time>2022-07-06T12:28:51Z</time>
      </trkpt>
      <trkpt lat="42.064228" lon="-0.06116856">
        <time>2022-07-06T12:28:53Z</time>
      </trkpt>
      <trkpt lat="42.064186" lon="-0.06107523">
        <time>2022-07-06T12:28:55Z</time>
      </trkpt>
      <trkpt lat="42.064144" lon="-0.06098057">
        <time>2022-07-06T12:28:57Z</time>
      </trkpt>
      <trkpt lat="42.0641" lon="-0.06089257">
        <time>2022-07-06T12:28:59Z</time>
      </trkpt>
      <trkpt lat="42.06405" lon="-0.06080324">
        <time>2022-07-06T12:29:01Z</time>
      </trkpt>
      <trkpt lat="42.064003" lon="-0.06072024">
        <time>2022-07-06T12:29:03Z</time>
      </trkpt>
      <trkpt lat="42.06395" lon="-0.06063591">
        <time>2022-07-06T12:29:05Z</time>
      </trkpt>
      <trkpt lat="42.0639" lon="-0.06055025">
        <time>2022-07-06T12:29:07Z</time>
      </trkpt>
      <trkpt lat="42.06385" lon="-0.06046125">
        <time>2022-07-06T12:29:09Z</time>
      </trkpt>
      <trkpt lat="42.0638" lon="-0.06037092">
        <time>2022-07-06T12:29:11Z</time>
      </trkpt>
      <trkpt lat="42.06375" lon="-0.06028092">
        <time>2022-07-06T12:29:13Z</time>
      </trkpt>
      <trkpt lat="42.063698" lon="-0.06019192">
        <time>2022-07-06T12:29:15Z</time>
      </trkpt>
      <trkpt lat="42.06364" lon="-0.06010626">
        <time>2022-07-06T12:29:17Z</time>
      </trkpt>
      <trkpt lat="42.06359" lon="-0.0600266">
        <time>2022-07-06T12:29:19Z</time>
      </trkpt>
      <trkpt lat="42.06354" lon="-0.05994594">
        <time>2022-07-06T12:29:21Z</time>
      </trkpt>
      <trkpt lat="42.06349" lon="-0.05986494">
        <time>2022-07-06T12:29:23Z</time>
      </trkpt>
      <trkpt lat="42.063446" lon="-0.05978728">
        <time>2022-07-06T12:29:25Z</time>
      </trkpt>
      <trkpt lat="42.0634" lon="-0.05970862">
        <time>2022-07-06T12:29:27Z</time>
      </trkpt>
      <trkpt lat="42.063354" lon="-0.05962796">
        <time>2022-07-06T12:29:29Z</time>
      </trkpt>
      <trkpt lat="42.063305" lon="-0.05954396">
        <time>2022-07-06T12:29:31Z</time>
      </trkpt>
      <trkpt lat="42.063263" lon="-0.0594713">
        <time>2022-07-06T12:29:33Z</time>
      </trkpt>
      <trkpt lat="42.06322" lon="-0.05939664">
        <time>2022-07-06T12:29:35Z</time>
      </trkpt>
      <trkpt lat="42.06318" lon="-0.05931698">
        <time>2022-07-06T12:29:37Z</time>
      </trkpt>
      <trkpt lat="42.063137" lon="-0.05923832">
        <time>2022-07-06T12:29:39Z</time>
      </trkpt>
      <trkpt lat="42.063095" lon="-0.05916166">
        <time>2022-07-06T12:29:41Z</time>
      </trkpt>
      <trkpt lat="42.06305" lon="-0.05908433">
        <time>2022-07-06T12:29:43Z</time>
      </trkpt>
      <trkpt lat="42.063004" lon="-0.059007">
        <time>2022-07-06T12:29:45Z</time>
      </trkpt>
      <trkpt lat="42.062958" lon="-0.05892667">
        <time>2022-07-06T12:29:47Z</time>
      </trkpt>
      <trkpt lat="42.062912" lon="-0.05884601">
        <time>2022-07-06T12:29:49Z</time>
      </trkpt>
      <trkpt lat="42.062866" lon="-0.05876501">
        <time>2022-07-06T12:29:51Z</time>
      </trkpt>
      <trkpt lat="42.06282" lon="-0.05868368">
        <time>2022-07-06T12:29:53Z</time>
      </trkpt>
      <trkpt lat="42.062775" lon="-0.05860535">
        <time>2022-07-06T12:29:55Z</time>
      </trkpt>
      <trkpt lat="42.06273" lon="-0.05852769">
        <time>2022-07-06T12:29:57Z</time>
      </trkpt>
      <trkpt lat="42.06268" lon="-0.05844803">
        <time>2022-07-06T12:29:59Z</time>
      </trkpt>
      <trkpt lat="42.062634" lon="-0.05837303">
        <time>2022-07-06T12:30:01Z</time>
      </trkpt>
      <trkpt lat="42.062584" lon="-0.05829703">
        <time>2022-07-06T12:30:03Z</time>
      </trkpt>
      <trkpt lat="42.06254" lon="-0.05822203">
        <time>2022-07-06T12:30:05Z</time>
      </trkpt>
      <trkpt lat="42.062496" lon="-0.05814437">
        <time>2022-07-06T12:30:07Z</time>
      </trkpt>
      <trkpt lat="42.06245" lon="-0.05806437">
        <time>2022-07-06T12:30:09Z</time>
      </trkpt>
      <trkpt lat="42.062405" lon="-0.05798671">
        <time>2022-07-06T12:30:11Z</time>
      </trkpt>
      <trkpt lat="42.06236" lon="-0.05791538">
        <time>2022-07-06T12:30:13Z</time>
      </trkpt>
      <trkpt lat="42.062317" lon="-0.05784438">
        <time>2022-07-06T12:30:15Z</time>
      </trkpt>
      <trkpt lat="42.06227" lon="-0.05777038">
        <time>2022-07-06T12:30:17Z</time>
      </trkpt>
      <trkpt lat="42.062225" lon="-0.05769438">
        <time>2022-07-06T12:30:19Z</time>
      </trkpt>
      <trkpt lat="42.062183" lon="-0.05762105">
        <time>2022-07-06T12:30:21Z</time>
      </trkpt>
      <trkpt lat="42.062138" lon="-0.05754439">
        <time>2022-07-06T12:30:23Z</time>
      </trkpt>
      <trkpt lat="42.06209" lon="-0.05746573">
        <time>2022-07-06T12:30:25Z</time>
      </trkpt>
      <trkpt lat="42.06205" lon="-0.0573894">
        <time>2022-07-06T12:30:27Z</time>
      </trkpt>
      <trkpt lat="42.062004" lon="-0.05731407">
        <time>2022-07-06T12:30:29Z</time>
      </trkpt>
      <trkpt lat="42.06196" lon="-0.05723641">
        <time>2022-07-06T12:30:31Z</time>
      </trkpt>
      <trkpt lat="42.061913" lon="-0.05715508">
        <time>2022-07-06T12:30:33Z</time>
      </trkpt>
      <trkpt lat="42.061863" lon="-0.05707208">
        <time>2022-07-06T12:30:35Z</time>
      </trkpt>
      <trkpt lat="42.06181" lon="-0.05698775">
        <time>2022-07-06T12:30:37Z</time>
      </trkpt>
      <trkpt lat="42.061752" lon="-0.05689909">
        <time>2022-07-06T12:30:39Z</time>
      </trkpt>
      <trkpt lat="42.0617" lon="-0.05680643">
        <time>2022-07-06T12:30:41Z</time>
      </trkpt>
      <trkpt lat="42.06164" lon="-0.0567091">
        <time>2022-07-06T12:30:43Z</time>
      </trkpt>
      <trkpt lat="42.061584" lon="-0.05660977">
        <time>2022-07-06T12:30:45Z</time>
      </trkpt>
      <trkpt lat="42.061523" lon="-0.05650877">
        <time>2022-07-06T12:30:47Z</time>
      </trkpt>
      <trkpt lat="42.061462" lon="-0.05640277">
        <time>2022-07-06T12:30:49Z</time>
      </trkpt>
      <trkpt lat="42.06143" lon="-0.05635344">
        <time>2022-07-06T12:30:50Z</time>
      </trkpt>
      <trkpt lat="42.06137" lon="-0.05625278">
        <time>2022-07-06T12:30:52Z</time>
      </trkpt>
      <trkpt lat="42.06134" lon="-0.05620178">
        <time>2022-07-06T12:30:53Z</time>
      </trkpt>
      <trkpt lat="42.06128" lon="-0.05609778">
        <time>2022-07-06T12:30:55Z</time>
      </trkpt>
      <trkpt lat="42.06125" lon="-0.05604512">
        <time>2022-07-06T12:30:56Z</time>
      </trkpt>
      <trkpt lat="42.06122" lon="-0.05599212">
        <time>2022-07-06T12:30:57Z</time>
      </trkpt>
      <trkpt lat="42.061153" lon="-0.05588346">
        <time>2022-07-06T12:30:59Z</time>
      </trkpt>
      <trkpt lat="42.061123" lon="-0.05583213">
        <time>2022-07-06T12:31:00Z</time>
      </trkpt>
      <trkpt lat="42.06106" lon="-0.0557308">
        <time>2022-07-06T12:31:02Z</time>
      </trkpt>
      <trkpt lat="42.061028" lon="-0.05568014">
        <time>2022-07-06T12:31:03Z</time>
      </trkpt>
      <trkpt lat="42.060963" lon="-0.05557414">
        <time>2022-07-06T12:31:05Z</time>
      </trkpt>
      <trkpt lat="42.060936" lon="-0.05552448">
        <time>2022-07-06T12:31:06Z</time>
      </trkpt>
      <trkpt lat="42.060844" lon="-0.05537582">
        <time>2022-07-06T12:31:09Z</time>
      </trkpt>
      <trkpt lat="42.060814" lon="-0.05532716">
        <time>2022-07-06T12:31:10Z</time>
      </trkpt>
      <trkpt lat="42.060757" lon="-0.05523116">
        <time>2022-07-06T12:31:12Z</time>
      </trkpt>
      <trkpt lat="42.0607" lon="-0.05513316">
        <time>2022-07-06T12:31:14Z</time>
      </trkpt>
      <trkpt lat="42.06067" lon="-0.05508416">
        <time>2022-07-06T12:31:15Z</time>
      </trkpt>
      <trkpt lat="42.06061" lon="-0.0549875">
        <time>2022-07-06T12:31:17Z</time>
      </trkpt>
      <trkpt lat="42.06055" lon="-0.0548905">
        <time>2022-07-06T12:31:19Z</time>
      </trkpt>
      <trkpt lat="42.06049" lon="-0.05478917">
        <time>2022-07-06T12:31:21Z</time>
      </trkpt>
      <trkpt lat="42.060432" lon="-0.05468617">
        <time>2022-07-06T12:31:23Z</time>
      </trkpt>
      <trkpt lat="42.060375" lon="-0.05458551">
        <time>2022-07-06T12:31:25Z</time>
      </trkpt>
      <trkpt lat="42.06032" lon="-0.05448385">
        <time>2022-07-06T12:31:27Z</time>
      </trkpt>
      <trkpt lat="42.060265" lon="-0.05438585">
        <time>2022-07-06T12:31:29Z</time>
      </trkpt>
      <trkpt lat="42.06021" lon="-0.05429252">
        <time>2022-07-06T12:31:31Z</time>
      </trkpt>
      <trkpt lat="42.060158" lon="-0.05420119">
        <time>2022-07-06T12:31:33Z</time>
      </trkpt>
      <trkpt lat="42.06011" lon="-0.05411219">
        <time>2022-07-06T12:31:35Z</time>
      </trkpt>
      <trkpt lat="42.06006" lon="-0.05402453">
        <time>2022-07-06T12:31:37Z</time>
      </trkpt>
      <trkpt lat="42.060013" lon="-0.05393453">
        <time>2022-07-06T12:31:39Z</time>
      </trkpt>
      <trkpt lat="42.059963" lon="-0.05384353">
        <time>2022-07-06T12:31:41Z</time>
      </trkpt>
      <trkpt lat="42.059914" lon="-0.05375553">
        <time>2022-07-06T12:31:43Z</time>
      </trkpt>
      <trkpt lat="42.059868" lon="-0.05366787">
        <time>2022-07-06T12:31:45Z</time>
      </trkpt>
      <trkpt lat="42.059826" lon="-0.05357754">
        <time>2022-07-06T12:31:47Z</time>
      </trkpt>
      <trkpt lat="42.059784" lon="-0.05348121">
        <time>2022-07-06T12:31:49Z</time>
      </trkpt>
      <trkpt lat="42.059742" lon="-0.05338221">
        <time>2022-07-06T12:31:51Z</time>
      </trkpt>
      <trkpt lat="42.059704" lon="-0.05328221">
        <time>2022-07-06T12:31:53Z</time>
      </trkpt>
      <trkpt lat="42.059673" lon="-0.05318921">
        <time>2022-07-06T12:31:55Z</time>
      </trkpt>
      <trkpt lat="42.05965" lon="-0.05309888">
        <time>2022-07-06T12:31:57Z</time>
      </trkpt>
      <trkpt lat="42.059624" lon="-0.05300855">
        <time>2022-07-06T12:31:59Z</time>
      </trkpt>
      <trkpt lat="42.059597" lon="-0.05291655">
        <time>2022-07-06T12:32:01Z</time>
      </trkpt>
      <trkpt lat="42.059566" lon="-0.05281922">
        <time>2022-07-06T12:32:03Z</time>
      </trkpt>
      <trkpt lat="42.059532" lon="-0.05271956">
        <time>2022-07-06T12:32:05Z</time>
      </trkpt>
      <trkpt lat="42.059494" lon="-0.05261623">
        <time>2022-07-06T12:32:07Z</time>
      </trkpt>
      <trkpt lat="42.05946" lon="-0.05250923">
        <time>2022-07-06T12:32:09Z</time>
      </trkpt>
      <trkpt lat="42.059418" lon="-0.05239857">
        <time>2022-07-06T12:32:11Z</time>
      </trkpt>
      <trkpt lat="42.05938" lon="-0.05228457">
        <time>2022-07-06T12:32:13Z</time>
      </trkpt>
      <trkpt lat="42.059338" lon="-0.05216924">
        <time>2022-07-06T12:32:15Z</time>
      </trkpt>
      <trkpt lat="42.059296" lon="-0.05205024">
        <time>2022-07-06T12:32:17Z</time>
      </trkpt>
      <trkpt lat="42.059254" lon="-0.05192891">
        <time>2022-07-06T12:32:19Z</time>
      </trkpt>
      <trkpt lat="42.05921" lon="-0.05180625">
        <time>2022-07-06T12:32:21Z</time>
      </trkpt>
      <trkpt lat="42.05917" lon="-0.05167559">
        <time>2022-07-06T12:32:23Z</time>
      </trkpt>
      <trkpt lat="42.059147" lon="-0.05161359">
        <time>2022-07-06T12:32:24Z</time>
      </trkpt>
      <trkpt lat="42.059124" lon="-0.05154593">
        <time>2022-07-06T12:32:25Z</time>
      </trkpt>
      <trkpt lat="42.0591" lon="-0.05148393">
        <time>2022-07-06T12:32:26Z</time>
      </trkpt>
      <trkpt lat="42.059082" lon="-0.05142227">
        <time>2022-07-06T12:32:27Z</time>
      </trkpt>
      <trkpt lat="42.059036" lon="-0.05129894">
        <time>2022-07-06T12:32:29Z</time>
      </trkpt>
      <trkpt lat="42.059013" lon="-0.05123728">
        <time>2022-07-06T12:32:30Z</time>
      </trkpt>
      <trkpt lat="42.05897" lon="-0.05111228">
        <time>2022-07-06T12:32:32Z</time>
      </trkpt>
      <trkpt lat="42.05895" lon="-0.05104828">
        <time>2022-07-06T12:32:33Z</time>
      </trkpt>
      <trkpt lat="42.05893" lon="-0.05098362">
        <time>2022-07-06T12:32:34Z</time>
      </trkpt>
      <trkpt lat="42.058884" lon="-0.05084796">
        <time>2022-07-06T12:32:36Z</time>
      </trkpt>
      <trkpt lat="42.058865" lon="-0.05078563">
        <time>2022-07-06T12:32:37Z</time>
      </trkpt>
      <trkpt lat="42.05882" lon="-0.05065263">
        <time>2022-07-06T12:32:39Z</time>
      </trkpt>
      <trkpt lat="42.058796" lon="-0.05058363">
        <time>2022-07-06T12:32:40Z</time>
      </trkpt>
      <trkpt lat="42.058773" lon="-0.0505133">
        <time>2022-07-06T12:32:41Z</time>
      </trkpt>
      <trkpt lat="42.058746" lon="-0.05044097">
        <time>2022-07-06T12:32:42Z</time>
      </trkpt>
      <trkpt lat="42.05872" lon="-0.05036664">
        <time>2022-07-06T12:32:43Z</time>
      </trkpt>
      <trkpt lat="42.058697" lon="-0.05028931">
        <time>2022-07-06T12:32:44Z</time>
      </trkpt>
      <trkpt lat="42.05867" lon="-0.05020931">
        <time>2022-07-06T12:32:45Z</time>
      </trkpt>
      <trkpt lat="42.058643" lon="-0.05012665">
        <time>2022-07-06T12:32:46Z</time>
      </trkpt>
      <trkpt lat="42.058617" lon="-0.05004232">
        <time>2022-07-06T12:32:47Z</time>
      </trkpt>
      <trkpt lat="42.05859" lon="-0.04995666">
        <time>2022-07-06T12:32:48Z</time>
      </trkpt>
      <trkpt lat="42.058563" lon="-0.04987">
        <time>2022-07-06T12:32:49Z</time>
      </trkpt>
      <trkpt lat="42.058533" lon="-0.04978167">
        <time>2022-07-06T12:32:50Z</time>
      </trkpt>
      <trkpt lat="42.058502" lon="-0.04968634">
        <time>2022-07-06T12:32:51Z</time>
      </trkpt>
      <trkpt lat="42.058475" lon="-0.04959768">
        <time>2022-07-06T12:32:52Z</time>
      </trkpt>
      <trkpt lat="42.05845" lon="-0.04950802">
        <time>2022-07-06T12:32:53Z</time>
      </trkpt>
      <trkpt lat="42.05842" lon="-0.04941836">
        <time>2022-07-06T12:32:54Z</time>
      </trkpt>
      <trkpt lat="42.05839" lon="-0.0493277">
        <time>2022-07-06T12:32:55Z</time>
      </trkpt>
      <trkpt lat="42.058365" lon="-0.04923637">
        <time>2022-07-06T12:32:56Z</time>
      </trkpt>
      <trkpt lat="42.058334" lon="-0.04914504">
        <time>2022-07-06T12:32:57Z</time>
      </trkpt>
      <trkpt lat="42.058308" lon="-0.04905304">
        <time>2022-07-06T12:32:58Z</time>
      </trkpt>
      <trkpt lat="42.05828" lon="-0.04896104">
        <time>2022-07-06T12:32:59Z</time>
      </trkpt>
      <trkpt lat="42.05825" lon="-0.04886904">
        <time>2022-07-06T12:33:00Z</time>
      </trkpt>
      <trkpt lat="42.058224" lon="-0.04877738">
        <time>2022-07-06T12:33:01Z</time>
      </trkpt>
      <trkpt lat="42.058193" lon="-0.04868505">
        <time>2022-07-06T12:33:02Z</time>
      </trkpt>
      <trkpt lat="42.058163" lon="-0.04859339">
        <time>2022-07-06T12:33:03Z</time>
      </trkpt>
      <trkpt lat="42.058132" lon="-0.04850206">
        <time>2022-07-06T12:33:04Z</time>
      </trkpt>
      <trkpt lat="42.058105" lon="-0.04840873">
        <time>2022-07-06T12:33:05Z</time>
      </trkpt>
      <trkpt lat="42.058075" lon="-0.04831607">
        <time>2022-07-06T12:33:06Z</time>
      </trkpt>
      <trkpt lat="42.058044" lon="-0.04822407">
        <time>2022-07-06T12:33:07Z</time>
      </trkpt>
      <trkpt lat="42.058014" lon="-0.04813241">
        <time>2022-07-06T12:33:08Z</time>
      </trkpt>
      <trkpt lat="42.057983" lon="-0.04804108">
        <time>2022-07-06T12:33:09Z</time>
      </trkpt>
      <trkpt lat="42.057953" lon="-0.04795075">
        <time>2022-07-06T12:33:10Z</time>
      </trkpt>
      <trkpt lat="42.057926" lon="-0.04786142">
        <time>2022-07-06T12:33:11Z</time>
      </trkpt>
      <trkpt lat="42.057896" lon="-0.04777209">
        <time>2022-07-06T12:33:12Z</time>
      </trkpt>
      <trkpt lat="42.05787" lon="-0.04768309">
        <time>2022-07-06T12:33:13Z</time>
      </trkpt>
      <trkpt lat="42.05784" lon="-0.04759443">
        <time>2022-07-06T12:33:14Z</time>
      </trkpt>
      <trkpt lat="42.05781" lon="-0.04750543">
        <time>2022-07-06T12:33:15Z</time>
      </trkpt>
      <trkpt lat="42.05778" lon="-0.0474171">
        <time>2022-07-06T12:33:16Z</time>
      </trkpt>
      <trkpt lat="42.05775" lon="-0.0473281">
        <time>2022-07-06T12:33:17Z</time>
      </trkpt>
      <trkpt lat="42.05772" lon="-0.0472401">
        <time>2022-07-06T12:33:18Z</time>
      </trkpt>
      <trkpt lat="42.057693" lon="-0.04715244">
        <time>2022-07-06T12:33:19Z</time>
      </trkpt>
      <trkpt lat="42.057632" lon="-0.04697444">
        <time>2022-07-06T12:33:21Z</time>
      </trkpt>
      <trkpt lat="42.057602" lon="-0.04688411">
        <time>2022-07-06T12:33:22Z</time>
      </trkpt>
      <trkpt lat="42.05757" lon="-0.04679411">
        <time>2022-07-06T12:33:23Z</time>
      </trkpt>
      <trkpt lat="42.05754" lon="-0.04670345">
        <time>2022-07-06T12:33:24Z</time>
      </trkpt>
      <trkpt lat="42.05751" lon="-0.04661179">
        <time>2022-07-06T12:33:25Z</time>
      </trkpt>
      <trkpt lat="42.05748" lon="-0.04652046">
        <time>2022-07-06T12:33:26Z</time>
      </trkpt>
      <trkpt lat="42.05745" lon="-0.04642913">
        <time>2022-07-06T12:33:27Z</time>
      </trkpt>
      <trkpt lat="42.05742" lon="-0.04633747">
        <time>2022-07-06T12:33:28Z</time>
      </trkpt>
      <trkpt lat="42.05739" lon="-0.04624514">
        <time>2022-07-06T12:33:29Z</time>
      </trkpt>
      <trkpt lat="42.05736" lon="-0.04615248">
        <time>2022-07-06T12:33:30Z</time>
      </trkpt>
      <trkpt lat="42.05733" lon="-0.04605915">
        <time>2022-07-06T12:33:31Z</time>
      </trkpt>
      <trkpt lat="42.0573" lon="-0.04596582">
        <time>2022-07-06T12:33:32Z</time>
      </trkpt>
      <trkpt lat="42.05727" lon="-0.04587182">
        <time>2022-07-06T12:33:33Z</time>
      </trkpt>
      <trkpt lat="42.05724" lon="-0.04577916">
        <time>2022-07-06T12:33:34Z</time>
      </trkpt>
      <trkpt lat="42.057205" lon="-0.0456885">
        <time>2022-07-06T12:33:35Z</time>
      </trkpt>
      <trkpt lat="42.05717" lon="-0.04559817">
        <time>2022-07-06T12:33:36Z</time>
      </trkpt>
      <trkpt lat="42.05714" lon="-0.04550651">
        <time>2022-07-06T12:33:37Z</time>
      </trkpt>
      <trkpt lat="42.057106" lon="-0.04541418">
        <time>2022-07-06T12:33:38Z</time>
      </trkpt>
      <trkpt lat="42.057076" lon="-0.04532185">
        <time>2022-07-06T12:33:39Z</time>
      </trkpt>
      <trkpt lat="42.057045" lon="-0.04522919">
        <time>2022-07-06T12:33:40Z</time>
      </trkpt>
      <trkpt lat="42.05701" lon="-0.04513753">
        <time>2022-07-06T12:33:41Z</time>
      </trkpt>
      <trkpt lat="42.05698" lon="-0.0450462">
        <time>2022-07-06T12:33:42Z</time>
      </trkpt>
      <trkpt lat="42.05695" lon="-0.04495554">
        <time>2022-07-06T12:33:43Z</time>
      </trkpt>
      <trkpt lat="42.05692" lon="-0.04486654">
        <time>2022-07-06T12:33:44Z</time>
      </trkpt>
      <trkpt lat="42.05689" lon="-0.04477888">
        <time>2022-07-06T12:33:45Z</time>
      </trkpt>
      <trkpt lat="42.05686" lon="-0.04469222">
        <time>2022-07-06T12:33:46Z</time>
      </trkpt>
      <trkpt lat="42.05683" lon="-0.04460589">
        <time>2022-07-06T12:33:47Z</time>
      </trkpt>
      <trkpt lat="42.056805" lon="-0.04452023">
        <time>2022-07-06T12:33:48Z</time>
      </trkpt>
      <trkpt lat="42.056778" lon="-0.0444359">
        <time>2022-07-06T12:33:49Z</time>
      </trkpt>
      <trkpt lat="42.05675" lon="-0.04435224">
        <time>2022-07-06T12:33:50Z</time>
      </trkpt>
      <trkpt lat="42.056725" lon="-0.04426924">
        <time>2022-07-06T12:33:51Z</time>
      </trkpt>
      <trkpt lat="42.056698" lon="-0.04418691">
        <time>2022-07-06T12:33:52Z</time>
      </trkpt>
      <trkpt lat="42.05667" lon="-0.04410458">
        <time>2022-07-06T12:33:53Z</time>
      </trkpt>
      <trkpt lat="42.056644" lon="-0.04402258">
        <time>2022-07-06T12:33:54Z</time>
      </trkpt>
      <trkpt lat="42.056618" lon="-0.04394058">
        <time>2022-07-06T12:33:55Z</time>
      </trkpt>
      <trkpt lat="42.05659" lon="-0.04385892">
        <time>2022-07-06T12:33:56Z</time>
      </trkpt>
      <trkpt lat="42.056564" lon="-0.04377592">
        <time>2022-07-06T12:33:57Z</time>
      </trkpt>
      <trkpt lat="42.056534" lon="-0.04369392">
        <time>2022-07-06T12:33:58Z</time>
      </trkpt>
      <trkpt lat="42.056507" lon="-0.04361159">
        <time>2022-07-06T12:33:59Z</time>
      </trkpt>
      <trkpt lat="42.056477" lon="-0.04352893">
        <time>2022-07-06T12:34:00Z</time>
      </trkpt>
      <trkpt lat="42.056446" lon="-0.04344593">
        <time>2022-07-06T12:34:01Z</time>
      </trkpt>
      <trkpt lat="42.05642" lon="-0.04336293">
        <time>2022-07-06T12:34:02Z</time>
      </trkpt>
      <trkpt lat="42.05639" lon="-0.04327993">
        <time>2022-07-06T12:34:03Z</time>
      </trkpt>
      <trkpt lat="42.056362" lon="-0.04319593">
        <time>2022-07-06T12:34:04Z</time>
      </trkpt>
      <trkpt lat="42.056335" lon="-0.0431126">
        <time>2022-07-06T12:34:05Z</time>
      </trkpt>
      <trkpt lat="42.05631" lon="-0.0430296">
        <time>2022-07-06T12:34:06Z</time>
      </trkpt>
      <trkpt lat="42.056282" lon="-0.04294594">
        <time>2022-07-06T12:34:07Z</time>
      </trkpt>
      <trkpt lat="42.056255" lon="-0.04286328">
        <time>2022-07-06T12:34:08Z</time>
      </trkpt>
      <trkpt lat="42.05623" lon="-0.04278128">
        <time>2022-07-06T12:34:09Z</time>
      </trkpt>
      <trkpt lat="42.056202" lon="-0.04270095">
        <time>2022-07-06T12:34:10Z</time>
      </trkpt>
      <trkpt lat="42.05618" lon="-0.04262062">
        <time>2022-07-06T12:34:11Z</time>
      </trkpt>
      <trkpt lat="42.056152" lon="-0.04254029">
        <time>2022-07-06T12:34:12Z</time>
      </trkpt>
      <trkpt lat="42.056126" lon="-0.04246029">
        <time>2022-07-06T12:34:13Z</time>
      </trkpt>
      <trkpt lat="42.0561" lon="-0.04238063">
        <time>2022-07-06T12:34:14Z</time>
      </trkpt>
      <trkpt lat="42.056072" lon="-0.04229997">
        <time>2022-07-06T12:34:15Z</time>
      </trkpt>
      <trkpt lat="42.056046" lon="-0.04221831">
        <time>2022-07-06T12:34:16Z</time>
      </trkpt>
      <trkpt lat="42.05602" lon="-0.04213665">
        <time>2022-07-06T12:34:17Z</time>
      </trkpt>
      <trkpt lat="42.055992" lon="-0.04205565">
        <time>2022-07-06T12:34:18Z</time>
      </trkpt>
      <trkpt lat="42.05596" lon="-0.04197599">
        <time>2022-07-06T12:34:19Z</time>
      </trkpt>
      <trkpt lat="42.055935" lon="-0.04189699">
        <time>2022-07-06T12:34:20Z</time>
      </trkpt>
      <trkpt lat="42.05591" lon="-0.04181733">
        <time>2022-07-06T12:34:21Z</time>
      </trkpt>
      <trkpt lat="42.05588" lon="-0.04173767">
        <time>2022-07-06T12:34:22Z</time>
      </trkpt>
      <trkpt lat="42.055855" lon="-0.04165867">
        <time>2022-07-06T12:34:23Z</time>
      </trkpt>
      <trkpt lat="42.05583" lon="-0.04157967">
        <time>2022-07-06T12:34:24Z</time>
      </trkpt>
      <trkpt lat="42.0558" lon="-0.04150201">
        <time>2022-07-06T12:34:25Z</time>
      </trkpt>
      <trkpt lat="42.055775" lon="-0.04141935">
        <time>2022-07-06T12:34:26Z</time>
      </trkpt>
      <trkpt lat="42.055744" lon="-0.04133802">
        <time>2022-07-06T12:34:27Z</time>
      </trkpt>
      <trkpt lat="42.05572" lon="-0.04125736">
        <time>2022-07-06T12:34:28Z</time>
      </trkpt>
      <trkpt lat="42.05567" lon="-0.04110803">
        <time>2022-07-06T12:34:30Z</time>
      </trkpt>
      <trkpt lat="42.05565" lon="-0.04103237">
        <time>2022-07-06T12:34:31Z</time>
      </trkpt>
      <trkpt lat="42.055626" lon="-0.04095671">
        <time>2022-07-06T12:34:32Z</time>
      </trkpt>
      <trkpt lat="42.055603" lon="-0.04088105">
        <time>2022-07-06T12:34:33Z</time>
      </trkpt>
      <trkpt lat="42.055576" lon="-0.04080639">
        <time>2022-07-06T12:34:34Z</time>
      </trkpt>
      <trkpt lat="42.055553" lon="-0.04073073">
        <time>2022-07-06T12:34:35Z</time>
      </trkpt>
      <trkpt lat="42.05553" lon="-0.04065507">
        <time>2022-07-06T12:34:36Z</time>
      </trkpt>
      <trkpt lat="42.055504" lon="-0.04057874">
        <time>2022-07-06T12:34:37Z</time>
      </trkpt>
      <trkpt lat="42.05548" lon="-0.04050208">
        <time>2022-07-06T12:34:38Z</time>
      </trkpt>
      <trkpt lat="42.055454" lon="-0.04042475">
        <time>2022-07-06T12:34:39Z</time>
      </trkpt>
      <trkpt lat="42.055428" lon="-0.04034609">
        <time>2022-07-06T12:34:40Z</time>
      </trkpt>
      <trkpt lat="42.055405" lon="-0.04026643">
        <time>2022-07-06T12:34:41Z</time>
      </trkpt>
      <trkpt lat="42.055378" lon="-0.0401861">
        <time>2022-07-06T12:34:42Z</time>
      </trkpt>
      <trkpt lat="42.055347" lon="-0.04010477">
        <time>2022-07-06T12:34:43Z</time>
      </trkpt>
      <trkpt lat="42.05532" lon="-0.04002277">
        <time>2022-07-06T12:34:44Z</time>
      </trkpt>
      <trkpt lat="42.05529" lon="-0.03994011">
        <time>2022-07-06T12:34:45Z</time>
      </trkpt>
      <trkpt lat="42.055264" lon="-0.03985645">
        <time>2022-07-06T12:34:46Z</time>
      </trkpt>
      <trkpt lat="42.055233" lon="-0.03977045">
        <time>2022-07-06T12:34:47Z</time>
      </trkpt>
      <trkpt lat="42.055202" lon="-0.03967912">
        <time>2022-07-06T12:34:48Z</time>
      </trkpt>
      <trkpt lat="42.055176" lon="-0.03959446">
        <time>2022-07-06T12:34:49Z</time>
      </trkpt>
      <trkpt lat="42.055145" lon="-0.03950913">
        <time>2022-07-06T12:34:50Z</time>
      </trkpt>
      <trkpt lat="42.05512" lon="-0.03942313">
        <time>2022-07-06T12:34:51Z</time>
      </trkpt>
      <trkpt lat="42.05509" lon="-0.0393368">
        <time>2022-07-06T12:34:52Z</time>
      </trkpt>
      <trkpt lat="42.05506" lon="-0.03925014">
        <time>2022-07-06T12:34:53Z</time>
      </trkpt>
      <trkpt lat="42.055035" lon="-0.03915881">
        <time>2022-07-06T12:34:54Z</time>
      </trkpt>
      <trkpt lat="42.055008" lon="-0.03907481">
        <time>2022-07-06T12:34:55Z</time>
      </trkpt>
      <trkpt lat="42.054977" lon="-0.03899048">
        <time>2022-07-06T12:34:56Z</time>
      </trkpt>
      <trkpt lat="42.05495" lon="-0.03890548">
        <time>2022-07-06T12:34:57Z</time>
      </trkpt>
      <trkpt lat="42.05492" lon="-0.03881415">
        <time>2022-07-06T12:34:58Z</time>
      </trkpt>
      <trkpt lat="42.05489" lon="-0.03872349">
        <time>2022-07-06T12:34:59Z</time>
      </trkpt>
      <trkpt lat="42.05486" lon="-0.03863249">
        <time>2022-07-06T12:35:00Z</time>
      </trkpt>
      <trkpt lat="42.05483" lon="-0.03854316">
        <time>2022-07-06T12:35:01Z</time>
      </trkpt>
      <trkpt lat="42.0548" lon="-0.0384535">
        <time>2022-07-06T12:35:02Z</time>
      </trkpt>
      <trkpt lat="42.054768" lon="-0.03836317">
        <time>2022-07-06T12:35:03Z</time>
      </trkpt>
      <trkpt lat="42.054737" lon="-0.03827284">
        <time>2022-07-06T12:35:04Z</time>
      </trkpt>
      <trkpt lat="42.05471" lon="-0.03818218">
        <time>2022-07-06T12:35:05Z</time>
      </trkpt>
      <trkpt lat="42.05468" lon="-0.03809052">
        <time>2022-07-06T12:35:06Z</time>
      </trkpt>
      <trkpt lat="42.054653" lon="-0.03799852">
        <time>2022-07-06T12:35:07Z</time>
      </trkpt>
      <trkpt lat="42.054623" lon="-0.03790652">
        <time>2022-07-06T12:35:08Z</time>
      </trkpt>
      <trkpt lat="42.054592" lon="-0.03781519">
        <time>2022-07-06T12:35:09Z</time>
      </trkpt>
      <trkpt lat="42.05456" lon="-0.03772419">
        <time>2022-07-06T12:35:10Z</time>
      </trkpt>
      <trkpt lat="42.05453" lon="-0.03763386">
        <time>2022-07-06T12:35:11Z</time>
      </trkpt>
      <trkpt lat="42.0545" lon="-0.03754286">
        <time>2022-07-06T12:35:12Z</time>
      </trkpt>
      <trkpt lat="42.05447" lon="-0.0374522">
        <time>2022-07-06T12:35:13Z</time>
      </trkpt>
      <trkpt lat="42.05444" lon="-0.0373612">
        <time>2022-07-06T12:35:14Z</time>
      </trkpt>
      <trkpt lat="42.05441" lon="-0.03726887">
        <time>2022-07-06T12:35:15Z</time>
      </trkpt>
      <trkpt lat="42.054375" lon="-0.03717721">
        <time>2022-07-06T12:35:16Z</time>
      </trkpt>
      <trkpt lat="42.054348" lon="-0.03708588">
        <time>2022-07-06T12:35:17Z</time>
      </trkpt>
      <trkpt lat="42.054317" lon="-0.03699422">
        <time>2022-07-06T12:35:18Z</time>
      </trkpt>
      <trkpt lat="42.054287" lon="-0.03690322">
        <time>2022-07-06T12:35:19Z</time>
      </trkpt>
      <trkpt lat="42.054253" lon="-0.03681289">
        <time>2022-07-06T12:35:20Z</time>
      </trkpt>
      <trkpt lat="42.054222" lon="-0.03672289">
        <time>2022-07-06T12:35:21Z</time>
      </trkpt>
      <trkpt lat="42.05419" lon="-0.03663423">
        <time>2022-07-06T12:35:22Z</time>
      </trkpt>
      <trkpt lat="42.05416" lon="-0.03654757">
        <time>2022-07-06T12:35:23Z</time>
      </trkpt>
      <trkpt lat="42.054127" lon="-0.03646191">
        <time>2022-07-06T12:35:24Z</time>
      </trkpt>
      <trkpt lat="42.054092" lon="-0.03637691">
        <time>2022-07-06T12:35:25Z</time>
      </trkpt>
      <trkpt lat="42.054058" lon="-0.03629425">
        <time>2022-07-06T12:35:26Z</time>
      </trkpt>
      <trkpt lat="42.054024" lon="-0.03621292">
        <time>2022-07-06T12:35:27Z</time>
      </trkpt>
      <trkpt lat="42.05399" lon="-0.03613326">
        <time>2022-07-06T12:35:28Z</time>
      </trkpt>
      <trkpt lat="42.053955" lon="-0.03605493">
        <time>2022-07-06T12:35:29Z</time>
      </trkpt>
      <trkpt lat="42.053917" lon="-0.0359786">
        <time>2022-07-06T12:35:30Z</time>
      </trkpt>
      <trkpt lat="42.05388" lon="-0.03590294">
        <time>2022-07-06T12:35:31Z</time>
      </trkpt>
      <trkpt lat="42.05384" lon="-0.03582861">
        <time>2022-07-06T12:35:32Z</time>
      </trkpt>
      <trkpt lat="42.0538" lon="-0.03575595">
        <time>2022-07-06T12:35:33Z</time>
      </trkpt>
      <trkpt lat="42.05372" lon="-0.03561195">
        <time>2022-07-06T12:35:35Z</time>
      </trkpt>
      <trkpt lat="42.053673" lon="-0.03554029">
        <time>2022-07-06T12:35:36Z</time>
      </trkpt>
      <trkpt lat="42.05363" lon="-0.03546863">
        <time>2022-07-06T12:35:37Z</time>
      </trkpt>
      <trkpt lat="42.05359" lon="-0.03539663">
        <time>2022-07-06T12:35:38Z</time>
      </trkpt>
      <trkpt lat="42.053547" lon="-0.03532497">
        <time>2022-07-06T12:35:39Z</time>
      </trkpt>
      <trkpt lat="42.053505" lon="-0.03525397">
        <time>2022-07-06T12:35:40Z</time>
      </trkpt>
      <trkpt lat="42.05346" lon="-0.03518264">
        <time>2022-07-06T12:35:41Z</time>
      </trkpt>
      <trkpt lat="42.053417" lon="-0.03511298">
        <time>2022-07-06T12:35:42Z</time>
      </trkpt>
      <trkpt lat="42.053375" lon="-0.03504398">
        <time>2022-07-06T12:35:43Z</time>
      </trkpt>
      <trkpt lat="42.053333" lon="-0.03497532">
        <time>2022-07-06T12:35:44Z</time>
      </trkpt>
      <trkpt lat="42.053295" lon="-0.03490732">
        <time>2022-07-06T12:35:45Z</time>
      </trkpt>
      <trkpt lat="42.053253" lon="-0.03483932">
        <time>2022-07-06T12:35:46Z</time>
      </trkpt>
      <trkpt lat="42.05321" lon="-0.03477132">
        <time>2022-07-06T12:35:47Z</time>
      </trkpt>
      <trkpt lat="42.053173" lon="-0.03470366">
        <time>2022-07-06T12:35:48Z</time>
      </trkpt>
      <trkpt lat="42.05313" lon="-0.03463733">
        <time>2022-07-06T12:35:49Z</time>
      </trkpt>
      <trkpt lat="42.053093" lon="-0.03457567">
        <time>2022-07-06T12:35:50Z</time>
      </trkpt>
      <trkpt lat="42.05305" lon="-0.03450834">
        <time>2022-07-06T12:35:51Z</time>
      </trkpt>
      <trkpt lat="42.053013" lon="-0.03444034">
        <time>2022-07-06T12:35:52Z</time>
      </trkpt>
      <trkpt lat="42.05297" lon="-0.03437234">
        <time>2022-07-06T12:35:53Z</time>
      </trkpt>
      <trkpt lat="42.052933" lon="-0.03431001">
        <time>2022-07-06T12:35:54Z</time>
      </trkpt>
      <trkpt lat="42.052895" lon="-0.03424701">
        <time>2022-07-06T12:35:55Z</time>
      </trkpt>
      <trkpt lat="42.052856" lon="-0.03417901">
        <time>2022-07-06T12:35:56Z</time>
      </trkpt>
      <trkpt lat="42.052814" lon="-0.03411201">
        <time>2022-07-06T12:35:57Z</time>
      </trkpt>
      <trkpt lat="42.052776" lon="-0.03404635">
        <time>2022-07-06T12:35:58Z</time>
      </trkpt>
      <trkpt lat="42.05274" lon="-0.03398135">
        <time>2022-07-06T12:35:59Z</time>
      </trkpt>
      <trkpt lat="42.0527" lon="-0.03392135">
        <time>2022-07-06T12:36:00Z</time>
      </trkpt>
      <trkpt lat="42.05266" lon="-0.03385635">
        <time>2022-07-06T12:36:01Z</time>
      </trkpt>
      <trkpt lat="42.052624" lon="-0.03379235">
        <time>2022-07-06T12:36:02Z</time>
      </trkpt>
      <trkpt lat="42.052586" lon="-0.03372969">
        <time>2022-07-06T12:36:03Z</time>
      </trkpt>
      <trkpt lat="42.052547" lon="-0.03366703">
        <time>2022-07-06T12:36:04Z</time>
      </trkpt>
      <trkpt lat="42.052513" lon="-0.0336077">
        <time>2022-07-06T12:36:05Z</time>
      </trkpt>
      <trkpt lat="42.05248" lon="-0.0335477">
        <time>2022-07-06T12:36:06Z</time>
      </trkpt>
      <trkpt lat="42.05244" lon="-0.0334877">
        <time>2022-07-06T12:36:07Z</time>
      </trkpt>
      <trkpt lat="42.052402" lon="-0.03342304">
        <time>2022-07-06T12:36:08Z</time>
      </trkpt>
      <trkpt lat="42.05236" lon="-0.03335738">
        <time>2022-07-06T12:36:09Z</time>
      </trkpt>
      <trkpt lat="42.052322" lon="-0.03329005">
        <time>2022-07-06T12:36:10Z</time>
      </trkpt>
      <trkpt lat="42.052277" lon="-0.03322105">
        <time>2022-07-06T12:36:11Z</time>
      </trkpt>
      <trkpt lat="42.052235" lon="-0.03315239">
        <time>2022-07-06T12:36:12Z</time>
      </trkpt>
      <trkpt lat="42.05219" lon="-0.03308439">
        <time>2022-07-06T12:36:13Z</time>
      </trkpt>
      <trkpt lat="42.052147" lon="-0.03301606">
        <time>2022-07-06T12:36:14Z</time>
      </trkpt>
      <trkpt lat="42.0521" lon="-0.03294806">
        <time>2022-07-06T12:36:15Z</time>
      </trkpt>
      <trkpt lat="42.052055" lon="-0.03288073">
        <time>2022-07-06T12:36:16Z</time>
      </trkpt>
      <trkpt lat="42.052006" lon="-0.03281507">
        <time>2022-07-06T12:36:17Z</time>
      </trkpt>
      <trkpt lat="42.051956" lon="-0.03275007">
        <time>2022-07-06T12:36:18Z</time>
      </trkpt>
      <trkpt lat="42.051907" lon="-0.03268607">
        <time>2022-07-06T12:36:19Z</time>
      </trkpt>
      <trkpt lat="42.051853" lon="-0.03262341">
        <time>2022-07-06T12:36:20Z</time>
      </trkpt>
      <trkpt lat="42.0518" lon="-0.03256141">
        <time>2022-07-06T12:36:21Z</time>
      </trkpt>
      <trkpt lat="42.051746" lon="-0.03250408">
        <time>2022-07-06T12:36:22Z</time>
      </trkpt>
      <trkpt lat="42.051685" lon="-0.03244275">
        <time>2022-07-06T12:36:23Z</time>
      </trkpt>
      <trkpt lat="42.051624" lon="-0.03238209">
        <time>2022-07-06T12:36:24Z</time>
      </trkpt>
      <trkpt lat="42.05156" lon="-0.03232409">
        <time>2022-07-06T12:36:25Z</time>
      </trkpt>
      <trkpt lat="42.051495" lon="-0.03226876">
        <time>2022-07-06T12:36:26Z</time>
      </trkpt>
      <trkpt lat="42.05143" lon="-0.03221443">
        <time>2022-07-06T12:36:27Z</time>
      </trkpt>
      <trkpt lat="42.051365" lon="-0.03215977">
        <time>2022-07-06T12:36:28Z</time>
      </trkpt>
      <trkpt lat="42.0513" lon="-0.03210577">
        <time>2022-07-06T12:36:29Z</time>
      </trkpt>
      <trkpt lat="42.051235" lon="-0.03205377">
        <time>2022-07-06T12:36:30Z</time>
      </trkpt>
      <trkpt lat="42.05117" lon="-0.03200311">
        <time>2022-07-06T12:36:31Z</time>
      </trkpt>
      <trkpt lat="42.051105" lon="-0.03195245">
        <time>2022-07-06T12:36:32Z</time>
      </trkpt>
      <trkpt lat="42.05104" lon="-0.03190012">
        <time>2022-07-06T12:36:33Z</time>
      </trkpt>
      <trkpt lat="42.050976" lon="-0.03184646">
        <time>2022-07-06T12:36:34Z</time>
      </trkpt>
      <trkpt lat="42.05091" lon="-0.03179146">
        <time>2022-07-06T12:36:35Z</time>
      </trkpt>
      <trkpt lat="42.050846" lon="-0.03173413">
        <time>2022-07-06T12:36:36Z</time>
      </trkpt>
      <trkpt lat="42.05072" lon="-0.03161313">
        <time>2022-07-06T12:36:38Z</time>
      </trkpt>
      <trkpt lat="42.05066" lon="-0.0315498">
        <time>2022-07-06T12:36:39Z</time>
      </trkpt>
      <trkpt lat="42.050594" lon="-0.03148547">
        <time>2022-07-06T12:36:40Z</time>
      </trkpt>
      <trkpt lat="42.050533" lon="-0.03141814">
        <time>2022-07-06T12:36:41Z</time>
      </trkpt>
      <trkpt lat="42.050476" lon="-0.03134881">
        <time>2022-07-06T12:36:42Z</time>
      </trkpt>
      <trkpt lat="42.05042" lon="-0.03127681">
        <time>2022-07-06T12:36:43Z</time>
      </trkpt>
      <trkpt lat="42.05036" lon="-0.03120348">
        <time>2022-07-06T12:36:44Z</time>
      </trkpt>
      <trkpt lat="42.05031" lon="-0.03112915">
        <time>2022-07-06T12:36:45Z</time>
      </trkpt>
      <trkpt lat="42.050255" lon="-0.03105349">
        <time>2022-07-06T12:36:46Z</time>
      </trkpt>
      <trkpt lat="42.0502" lon="-0.03097649">
        <time>2022-07-06T12:36:47Z</time>
      </trkpt>
      <trkpt lat="42.050156" lon="-0.03090383">
        <time>2022-07-06T12:36:48Z</time>
      </trkpt>
      <trkpt lat="42.050106" lon="-0.03082883">
        <time>2022-07-06T12:36:49Z</time>
      </trkpt>
      <trkpt lat="42.050064" lon="-0.03075217">
        <time>2022-07-06T12:36:50Z</time>
      </trkpt>
      <trkpt lat="42.05002" lon="-0.03066951">
        <time>2022-07-06T12:36:51Z</time>
      </trkpt>
      <trkpt lat="42.049973" lon="-0.03058651">
        <time>2022-07-06T12:36:52Z</time>
      </trkpt>
      <trkpt lat="42.04994" lon="-0.03050851">
        <time>2022-07-06T12:36:53Z</time>
      </trkpt>
      <trkpt lat="42.049904" lon="-0.03042818">
        <time>2022-07-06T12:36:54Z</time>
      </trkpt>
      <trkpt lat="42.049873" lon="-0.03034552">
        <time>2022-07-06T12:36:55Z</time>
      </trkpt>
      <trkpt lat="42.049843" lon="-0.03025919">
        <time>2022-07-06T12:36:56Z</time>
      </trkpt>
      <trkpt lat="42.049812" lon="-0.03017319">
        <time>2022-07-06T12:36:57Z</time>
      </trkpt>
      <trkpt lat="42.04979" lon="-0.03008786">
        <time>2022-07-06T12:36:58Z</time>
      </trkpt>
      <trkpt lat="42.049767" lon="-0.03000286">
        <time>2022-07-06T12:36:59Z</time>
      </trkpt>
      <trkpt lat="42.049747" lon="-0.02991886">
        <time>2022-07-06T12:37:00Z</time>
      </trkpt>
      <trkpt lat="42.04973" lon="-0.02983653">
        <time>2022-07-06T12:37:01Z</time>
      </trkpt>
      <trkpt lat="42.049713" lon="-0.02975587">
        <time>2022-07-06T12:37:02Z</time>
      </trkpt>
      <trkpt lat="42.049694" lon="-0.02967687">
        <time>2022-07-06T12:37:03Z</time>
      </trkpt>
      <trkpt lat="42.04968" lon="-0.02959854">
        <time>2022-07-06T12:37:04Z</time>
      </trkpt>
      <trkpt lat="42.049667" lon="-0.02952054">
        <time>2022-07-06T12:37:05Z</time>
      </trkpt>
      <trkpt lat="42.049652" lon="-0.02944221">
        <time>2022-07-06T12:37:06Z</time>
      </trkpt>
      <trkpt lat="42.04964" lon="-0.02936455">
        <time>2022-07-06T12:37:07Z</time>
      </trkpt>
      <trkpt lat="42.049633" lon="-0.02928655">
        <time>2022-07-06T12:37:08Z</time>
      </trkpt>
      <trkpt lat="42.04963" lon="-0.02920622">
        <time>2022-07-06T12:37:09Z</time>
      </trkpt>
      <trkpt lat="42.049625" lon="-0.02912589">
        <time>2022-07-06T12:37:10Z</time>
      </trkpt>
      <trkpt lat="42.04962" lon="-0.02904423">
        <time>2022-07-06T12:37:11Z</time>
      </trkpt>
      <trkpt lat="42.04962" lon="-0.02896157">
        <time>2022-07-06T12:37:12Z</time>
      </trkpt>
      <trkpt lat="42.049618" lon="-0.02888024">
        <time>2022-07-06T12:37:13Z</time>
      </trkpt>
      <trkpt lat="42.049618" lon="-0.02879924">
        <time>2022-07-06T12:37:14Z</time>
      </trkpt>
      <trkpt lat="42.049618" lon="-0.02871758">
        <time>2022-07-06T12:37:15Z</time>
      </trkpt>
      <trkpt lat="42.049618" lon="-0.02863458">
        <time>2022-07-06T12:37:16Z</time>
      </trkpt>
      <trkpt lat="42.049618" lon="-0.02855192">
        <time>2022-07-06T12:37:17Z</time>
      </trkpt>
      <trkpt lat="42.049618" lon="-0.02846859">
        <time>2022-07-06T12:37:18Z</time>
      </trkpt>
      <trkpt lat="42.049625" lon="-0.02838493">
        <time>2022-07-06T12:37:19Z</time>
      </trkpt>
      <trkpt lat="42.04963" lon="-0.02830093">
        <time>2022-07-06T12:37:20Z</time>
      </trkpt>
      <trkpt lat="42.049637" lon="-0.02822193">
        <time>2022-07-06T12:37:21Z</time>
      </trkpt>
      <trkpt lat="42.049644" lon="-0.02813993">
        <time>2022-07-06T12:37:22Z</time>
      </trkpt>
      <trkpt lat="42.049656" lon="-0.02805593">
        <time>2022-07-06T12:37:23Z</time>
      </trkpt>
      <trkpt lat="42.049667" lon="-0.0279696">
        <time>2022-07-06T12:37:24Z</time>
      </trkpt>
      <trkpt lat="42.04968" lon="-0.02788227">
        <time>2022-07-06T12:37:25Z</time>
      </trkpt>
      <trkpt lat="42.049694" lon="-0.02778827">
        <time>2022-07-06T12:37:26Z</time>
      </trkpt>
      <trkpt lat="42.049713" lon="-0.02769494">
        <time>2022-07-06T12:37:27Z</time>
      </trkpt>
      <trkpt lat="42.049736" lon="-0.02760094">
        <time>2022-07-06T12:37:28Z</time>
      </trkpt>
      <trkpt lat="42.04976" lon="-0.02750661">
        <time>2022-07-06T12:37:29Z</time>
      </trkpt>
      <trkpt lat="42.04978" lon="-0.02741228">
        <time>2022-07-06T12:37:30Z</time>
      </trkpt>
      <trkpt lat="42.04981" lon="-0.02731695">
        <time>2022-07-06T12:37:31Z</time>
      </trkpt>
      <trkpt lat="42.04984" lon="-0.02722062">
        <time>2022-07-06T12:37:32Z</time>
      </trkpt>
      <trkpt lat="42.04987" lon="-0.02712429">
        <time>2022-07-06T12:37:33Z</time>
      </trkpt>
      <trkpt lat="42.049904" lon="-0.02702896">
        <time>2022-07-06T12:37:34Z</time>
      </trkpt>
      <trkpt lat="42.049942" lon="-0.02693463">
        <time>2022-07-06T12:37:35Z</time>
      </trkpt>
      <trkpt lat="42.049984" lon="-0.02684097">
        <time>2022-07-06T12:37:36Z</time>
      </trkpt>
      <trkpt lat="42.050026" lon="-0.02674664">
        <time>2022-07-06T12:37:37Z</time>
      </trkpt>
      <trkpt lat="42.05007" lon="-0.02665331">
        <time>2022-07-06T12:37:38Z</time>
      </trkpt>
      <trkpt lat="42.05012" lon="-0.02656165">
        <time>2022-07-06T12:37:39Z</time>
      </trkpt>
      <trkpt lat="42.05017" lon="-0.02647032">
        <time>2022-07-06T12:37:40Z</time>
      </trkpt>
      <trkpt lat="42.050224" lon="-0.02637999">
        <time>2022-07-06T12:37:41Z</time>
      </trkpt>
      <trkpt lat="42.050335" lon="-0.02619866">
        <time>2022-07-06T12:37:43Z</time>
      </trkpt>
      <trkpt lat="42.050392" lon="-0.02610833">
        <time>2022-07-06T12:37:44Z</time>
      </trkpt>
      <trkpt lat="42.050453" lon="-0.026019">
        <time>2022-07-06T12:37:45Z</time>
      </trkpt>
      <trkpt lat="42.050514" lon="-0.02592967">
        <time>2022-07-06T12:37:46Z</time>
      </trkpt>
      <trkpt lat="42.05058" lon="-0.02584034">
        <time>2022-07-06T12:37:47Z</time>
      </trkpt>
      <trkpt lat="42.050644" lon="-0.02575068">
        <time>2022-07-06T12:37:48Z</time>
      </trkpt>
      <trkpt lat="42.05071" lon="-0.02565968">
        <time>2022-07-06T12:37:49Z</time>
      </trkpt>
      <trkpt lat="42.050777" lon="-0.02556735">
        <time>2022-07-06T12:37:50Z</time>
      </trkpt>
      <trkpt lat="42.050846" lon="-0.02547435">
        <time>2022-07-06T12:37:51Z</time>
      </trkpt>
      <trkpt lat="42.050915" lon="-0.02538069">
        <time>2022-07-06T12:37:52Z</time>
      </trkpt>
      <trkpt lat="42.050983" lon="-0.02528603">
        <time>2022-07-06T12:37:53Z</time>
      </trkpt>
      <trkpt lat="42.051052" lon="-0.0251907">
        <time>2022-07-06T12:37:54Z</time>
      </trkpt>
      <trkpt lat="42.051125" lon="-0.0250947">
        <time>2022-07-06T12:37:55Z</time>
      </trkpt>
      <trkpt lat="42.051197" lon="-0.02499837">
        <time>2022-07-06T12:37:56Z</time>
      </trkpt>
      <trkpt lat="42.05127" lon="-0.02490171">
        <time>2022-07-06T12:37:57Z</time>
      </trkpt>
      <trkpt lat="42.051342" lon="-0.02480371">
        <time>2022-07-06T12:37:58Z</time>
      </trkpt>
      <trkpt lat="42.051414" lon="-0.02470471">
        <time>2022-07-06T12:37:59Z</time>
      </trkpt>
      <trkpt lat="42.051487" lon="-0.02460438">
        <time>2022-07-06T12:38:00Z</time>
      </trkpt>
      <trkpt lat="42.051563" lon="-0.02450305">
        <time>2022-07-06T12:38:01Z</time>
      </trkpt>
      <trkpt lat="42.051636" lon="-0.02440105">
        <time>2022-07-06T12:38:02Z</time>
      </trkpt>
      <trkpt lat="42.051712" lon="-0.02429805">
        <time>2022-07-06T12:38:03Z</time>
      </trkpt>
      <trkpt lat="42.05179" lon="-0.02419372">
        <time>2022-07-06T12:38:04Z</time>
      </trkpt>
      <trkpt lat="42.051865" lon="-0.02408839">
        <time>2022-07-06T12:38:05Z</time>
      </trkpt>
      <trkpt lat="42.05194" lon="-0.02398273">
        <time>2022-07-06T12:38:06Z</time>
      </trkpt>
      <trkpt lat="42.052017" lon="-0.0238764">
        <time>2022-07-06T12:38:07Z</time>
      </trkpt>
      <trkpt lat="42.052094" lon="-0.02376907">
        <time>2022-07-06T12:38:08Z</time>
      </trkpt>
      <trkpt lat="42.052166" lon="-0.02365841">
        <time>2022-07-06T12:38:09Z</time>
      </trkpt>
      <trkpt lat="42.05224" lon="-0.02354541">
        <time>2022-07-06T12:38:10Z</time>
      </trkpt>
      <trkpt lat="42.052307" lon="-0.02342775">
        <time>2022-07-06T12:38:11Z</time>
      </trkpt>
      <trkpt lat="42.052372" lon="-0.02330675">
        <time>2022-07-06T12:38:12Z</time>
      </trkpt>
      <trkpt lat="42.052433" lon="-0.02318175">
        <time>2022-07-06T12:38:13Z</time>
      </trkpt>
      <trkpt lat="42.052494" lon="-0.02305375">
        <time>2022-07-06T12:38:14Z</time>
      </trkpt>
      <trkpt lat="42.052547" lon="-0.02292275">
        <time>2022-07-06T12:38:15Z</time>
      </trkpt>
      <trkpt lat="42.0526" lon="-0.02278942">
        <time>2022-07-06T12:38:16Z</time>
      </trkpt>
      <trkpt lat="42.052647" lon="-0.02265309">
        <time>2022-07-06T12:38:17Z</time>
      </trkpt>
      <trkpt lat="42.052692" lon="-0.02251409">
        <time>2022-07-06T12:38:18Z</time>
      </trkpt>
      <trkpt lat="42.052734" lon="-0.02237176">
        <time>2022-07-06T12:38:19Z</time>
      </trkpt>
      <trkpt lat="42.05277" lon="-0.02222643">
        <time>2022-07-06T12:38:20Z</time>
      </trkpt>
      <trkpt lat="42.0528" lon="-0.0220791">
        <time>2022-07-06T12:38:21Z</time>
      </trkpt>
      <trkpt lat="42.052826" lon="-0.0219301">
        <time>2022-07-06T12:38:22Z</time>
      </trkpt>
      <trkpt lat="42.05285" lon="-0.0217801">
        <time>2022-07-06T12:38:23Z</time>
      </trkpt>
      <trkpt lat="42.052868" lon="-0.02162977">
        <time>2022-07-06T12:38:24Z</time>
      </trkpt>
      <trkpt lat="42.052883" lon="-0.02147744">
        <time>2022-07-06T12:38:25Z</time>
      </trkpt>
      <trkpt lat="42.052895" lon="-0.02132544">
        <time>2022-07-06T12:38:26Z</time>
      </trkpt>
      <trkpt lat="42.0529" lon="-0.02117511">
        <time>2022-07-06T12:38:27Z</time>
      </trkpt>
      <trkpt lat="42.0529" lon="-0.02102578">
        <time>2022-07-06T12:38:28Z</time>
      </trkpt>
      <trkpt lat="42.052895" lon="-0.02087912">
        <time>2022-07-06T12:38:29Z</time>
      </trkpt>
      <trkpt lat="42.052887" lon="-0.02073479">
        <time>2022-07-06T12:38:30Z</time>
      </trkpt>
      <trkpt lat="42.05287" lon="-0.02059346">
        <time>2022-07-06T12:38:31Z</time>
      </trkpt>
      <trkpt lat="42.052856" lon="-0.0204558">
        <time>2022-07-06T12:38:32Z</time>
      </trkpt>
      <trkpt lat="42.05284" lon="-0.02032047">
        <time>2022-07-06T12:38:33Z</time>
      </trkpt>
      <trkpt lat="42.052822" lon="-0.02018814">
        <time>2022-07-06T12:38:34Z</time>
      </trkpt>
      <trkpt lat="42.0528" lon="-0.02005814">
        <time>2022-07-06T12:38:35Z</time>
      </trkpt>
      <trkpt lat="42.05278" lon="-0.01993148">
        <time>2022-07-06T12:38:36Z</time>
      </trkpt>
      <trkpt lat="42.05276" lon="-0.01980882">
        <time>2022-07-06T12:38:37Z</time>
      </trkpt>
      <trkpt lat="42.052742" lon="-0.01968782">
        <time>2022-07-06T12:38:38Z</time>
      </trkpt>
      <trkpt lat="42.05272" lon="-0.01957016">
        <time>2022-07-06T12:38:39Z</time>
      </trkpt>
      <trkpt lat="42.0527" lon="-0.0194555">
        <time>2022-07-06T12:38:40Z</time>
      </trkpt>
      <trkpt lat="42.052677" lon="-0.0193435">
        <time>2022-07-06T12:38:41Z</time>
      </trkpt>
      <trkpt lat="42.052654" lon="-0.01923317">
        <time>2022-07-06T12:38:42Z</time>
      </trkpt>
      <trkpt lat="42.05263" lon="-0.01912384">
        <time>2022-07-06T12:38:43Z</time>
      </trkpt>
      <trkpt lat="42.052612" lon="-0.01901551">
        <time>2022-07-06T12:38:44Z</time>
      </trkpt>
      <trkpt lat="42.052593" lon="-0.01890685">
        <time>2022-07-06T12:38:45Z</time>
      </trkpt>
      <trkpt lat="42.05257" lon="-0.01880085">
        <time>2022-07-06T12:38:46Z</time>
      </trkpt>
      <trkpt lat="42.052532" lon="-0.01859385">
        <time>2022-07-06T12:38:48Z</time>
      </trkpt>
      <trkpt lat="42.052513" lon="-0.01849319">
        <time>2022-07-06T12:38:49Z</time>
      </trkpt>
      <trkpt lat="42.05249" lon="-0.01839386">
        <time>2022-07-06T12:38:50Z</time>
      </trkpt>
      <trkpt lat="42.05247" lon="-0.01829386">
        <time>2022-07-06T12:38:51Z</time>
      </trkpt>
      <trkpt lat="42.052452" lon="-0.01819386">
        <time>2022-07-06T12:38:52Z</time>
      </trkpt>
      <trkpt lat="42.052437" lon="-0.01809686">
        <time>2022-07-06T12:38:53Z</time>
      </trkpt>
      <trkpt lat="42.05242" lon="-0.01799986">
        <time>2022-07-06T12:38:54Z</time>
      </trkpt>
      <trkpt lat="42.052406" lon="-0.01790386">
        <time>2022-07-06T12:38:55Z</time>
      </trkpt>
      <trkpt lat="42.05239" lon="-0.01780986">
        <time>2022-07-06T12:38:56Z</time>
      </trkpt>
      <trkpt lat="42.05238" lon="-0.01771753">
        <time>2022-07-06T12:38:57Z</time>
      </trkpt>
      <trkpt lat="42.052364" lon="-0.01763053">
        <time>2022-07-06T12:38:58Z</time>
      </trkpt>
      <trkpt lat="42.05235" lon="-0.01754787">
        <time>2022-07-06T12:38:59Z</time>
      </trkpt>
      <trkpt lat="42.052334" lon="-0.01746954">
        <time>2022-07-06T12:39:00Z</time>
      </trkpt>
      <trkpt lat="42.052322" lon="-0.01739388">
        <time>2022-07-06T12:39:01Z</time>
      </trkpt>
      <trkpt lat="42.052307" lon="-0.01732155">
        <time>2022-07-06T12:39:02Z</time>
      </trkpt>
      <trkpt lat="42.0523" lon="-0.01725122">
        <time>2022-07-06T12:39:03Z</time>
      </trkpt>
      <trkpt lat="42.052288" lon="-0.01718322">
        <time>2022-07-06T12:39:04Z</time>
      </trkpt>
      <trkpt lat="42.05228" lon="-0.01711722">
        <time>2022-07-06T12:39:05Z</time>
      </trkpt>
      <trkpt lat="42.05226" lon="-0.01699322">
        <time>2022-07-06T12:39:07Z</time>
      </trkpt>
      <trkpt lat="42.05224" lon="-0.01687656">
        <time>2022-07-06T12:39:09Z</time>
      </trkpt>
      <trkpt lat="42.052216" lon="-0.01676423">
        <time>2022-07-06T12:39:11Z</time>
      </trkpt>
      <trkpt lat="42.052193" lon="-0.01666157">
        <time>2022-07-06T12:39:13Z</time>
      </trkpt>
      <trkpt lat="42.05218" lon="-0.01657357">
        <time>2022-07-06T12:39:15Z</time>
      </trkpt>
      <trkpt lat="42.052193" lon="-0.01651924">
        <time>2022-07-06T12:39:17Z</time>
      </trkpt>
      <trkpt lat="42.05223" lon="-0.01654324">
        <time>2022-07-06T12:39:21Z</time>
      </trkpt>
      <trkpt lat="42.05225" lon="-0.0166379">
        <time>2022-07-06T12:39:24Z</time>
      </trkpt>
      <trkpt lat="42.05226" lon="-0.01671756">
        <time>2022-07-06T12:39:26Z</time>
      </trkpt>
      <trkpt lat="42.05228" lon="-0.01680056">
        <time>2022-07-06T12:39:28Z</time>
      </trkpt>
      <trkpt lat="42.052296" lon="-0.01689156">
        <time>2022-07-06T12:39:30Z</time>
      </trkpt>
      <trkpt lat="42.05231" lon="-0.01698289">
        <time>2022-07-06T12:39:32Z</time>
      </trkpt>
      <trkpt lat="42.05233" lon="-0.01707555">
        <time>2022-07-06T12:39:34Z</time>
      </trkpt>
      <trkpt lat="42.05234" lon="-0.01717155">
        <time>2022-07-06T12:39:36Z</time>
      </trkpt>
      <trkpt lat="42.052357" lon="-0.01727255">
        <time>2022-07-06T12:39:38Z</time>
      </trkpt>
      <trkpt lat="42.052372" lon="-0.01736855">
        <time>2022-07-06T12:39:40Z</time>
      </trkpt>
      <trkpt lat="42.052387" lon="-0.01747255">
        <time>2022-07-06T12:39:42Z</time>
      </trkpt>
      <trkpt lat="42.052402" lon="-0.01757355">
        <time>2022-07-06T12:39:44Z</time>
      </trkpt>
      <trkpt lat="42.052402" lon="-0.01767555">
        <time>2022-07-06T12:39:46Z</time>
      </trkpt>
      <trkpt lat="42.052387" lon="-0.01776788">
        <time>2022-07-06T12:39:48Z</time>
      </trkpt>
      <trkpt lat="42.052353" lon="-0.01785388">
        <time>2022-07-06T12:39:50Z</time>
      </trkpt>
      <trkpt lat="42.05232" lon="-0.01793454">
        <time>2022-07-06T12:39:52Z</time>
      </trkpt>
      <trkpt lat="42.052303" lon="-0.0180092">
        <time>2022-07-06T12:39:54Z</time>
      </trkpt>
      <trkpt lat="42.052338" lon="-0.01806486">
        <time>2022-07-06T12:39:57Z</time>
      </trkpt>
      <trkpt lat="42.0524" lon="-0.01810152">
        <time>2022-07-06T12:40:00Z</time>
      </trkpt>
      <trkpt lat="42.05245" lon="-0.01817218">
        <time>2022-07-06T12:40:03Z</time>
      </trkpt>
      <trkpt lat="42.052483" lon="-0.01823551">
        <time>2022-07-06T12:40:05Z</time>
      </trkpt>
      <trkpt lat="42.05251" lon="-0.01830751">
        <time>2022-07-06T12:40:07Z</time>
      </trkpt>
      <trkpt lat="42.052532" lon="-0.01838417">
        <time>2022-07-06T12:40:09Z</time>
      </trkpt>
      <trkpt lat="42.05255" lon="-0.01846683">
        <time>2022-07-06T12:40:11Z</time>
      </trkpt>
      <trkpt lat="42.052563" lon="-0.01855449">
        <time>2022-07-06T12:40:13Z</time>
      </trkpt>
      <trkpt lat="42.052578" lon="-0.01864615">
        <time>2022-07-06T12:40:15Z</time>
      </trkpt>
      <trkpt lat="42.052593" lon="-0.01873248">
        <time>2022-07-06T12:40:17Z</time>
      </trkpt>
      <trkpt lat="42.05261" lon="-0.01881814">
        <time>2022-07-06T12:40:19Z</time>
      </trkpt>
      <trkpt lat="42.052624" lon="-0.01890514">
        <time>2022-07-06T12:40:21Z</time>
      </trkpt>
      <trkpt lat="42.05264" lon="-0.01898914">
        <time>2022-07-06T12:40:23Z</time>
      </trkpt>
      <trkpt lat="42.05265" lon="-0.0190688">
        <time>2022-07-06T12:40:25Z</time>
      </trkpt>
      <trkpt lat="42.05266" lon="-0.01915013">
        <time>2022-07-06T12:40:27Z</time>
      </trkpt>
      <trkpt lat="42.052673" lon="-0.01923246">
        <time>2022-07-06T12:40:29Z</time>
      </trkpt>
      <trkpt lat="42.052685" lon="-0.01931979">
        <time>2022-07-06T12:40:31Z</time>
      </trkpt>
      <trkpt lat="42.052692" lon="-0.01940045">
        <time>2022-07-06T12:40:33Z</time>
      </trkpt>
      <trkpt lat="42.05269" lon="-0.01947845">
        <time>2022-07-06T12:40:35Z</time>
      </trkpt>
      <trkpt lat="42.05267" lon="-0.01954778">
        <time>2022-07-06T12:40:37Z</time>
      </trkpt>
      <trkpt lat="42.052635" lon="-0.01960678">
        <time>2022-07-06T12:40:39Z</time>
      </trkpt>
      <trkpt lat="42.052586" lon="-0.01965544">
        <time>2022-07-06T12:40:41Z</time>
      </trkpt>
      <trkpt lat="42.05253" lon="-0.01968944">
        <time>2022-07-06T12:40:43Z</time>
      </trkpt>
      <trkpt lat="42.05246" lon="-0.01970977">
        <time>2022-07-06T12:40:45Z</time>
      </trkpt>
      <trkpt lat="42.05239" lon="-0.0197231">
        <time>2022-07-06T12:40:47Z</time>
      </trkpt>
      <trkpt lat="42.05233" lon="-0.0197291">
        <time>2022-07-06T12:40:49Z</time>
      </trkpt>
      <trkpt lat="42.052277" lon="-0.01973176">
        <time>2022-07-06T12:40:51Z</time>
      </trkpt>
      <trkpt lat="42.052223" lon="-0.0197301">
        <time>2022-07-06T12:40:53Z</time>
      </trkpt>
      <trkpt lat="42.052177" lon="-0.01972377">
        <time>2022-07-06T12:40:55Z</time>
      </trkpt>
      <trkpt lat="42.05211" lon="-0.01971411">
        <time>2022-07-06T12:40:59Z</time>
      </trkpt>
      <trkpt lat="42.05204" lon="-0.01965078">
        <time>2022-07-06T12:42:47Z</time>
      </trkpt>
      <trkpt lat="42.05196" lon="-0.01961878">
        <time>2022-07-06T12:42:50Z</time>
      </trkpt>
      <trkpt lat="42.0519" lon="-0.01959512">
        <time>2022-07-06T12:42:52Z</time>
      </trkpt>
      <trkpt lat="42.05184" lon="-0.01956846">
        <time>2022-07-06T12:42:54Z</time>
      </trkpt>
      <trkpt lat="42.05179" lon="-0.0195388">
        <time>2022-07-06T12:42:56Z</time>
      </trkpt>
      <trkpt lat="42.05171" lon="-0.0194998">
        <time>2022-07-06T12:42:59Z</time>
      </trkpt>
      <trkpt lat="42.05166" lon="-0.0194708">
        <time>2022-07-06T12:43:01Z</time>
      </trkpt>
      <trkpt lat="42.05161" lon="-0.01943847">
        <time>2022-07-06T12:43:03Z</time>
      </trkpt>
      <trkpt lat="42.051556" lon="-0.01940381">
        <time>2022-07-06T12:43:05Z</time>
      </trkpt>
      <trkpt lat="42.051502" lon="-0.01936715">
        <time>2022-07-06T12:43:07Z</time>
      </trkpt>
      <trkpt lat="42.05145" lon="-0.01932749">
        <time>2022-07-06T12:43:09Z</time>
      </trkpt>
      <trkpt lat="42.051388" lon="-0.01928983">
        <time>2022-07-06T12:43:11Z</time>
      </trkpt>
      <trkpt lat="42.05133" lon="-0.01925183">
        <time>2022-07-06T12:43:13Z</time>
      </trkpt>
      <trkpt lat="42.05127" lon="-0.0192135">
        <time>2022-07-06T12:43:15Z</time>
      </trkpt>
      <trkpt lat="42.051212" lon="-0.01917684">
        <time>2022-07-06T12:43:17Z</time>
      </trkpt>
      <trkpt lat="42.05115" lon="-0.01913918">
        <time>2022-07-06T12:43:19Z</time>
      </trkpt>
      <trkpt lat="42.05109" lon="-0.01910552">
        <time>2022-07-06T12:43:21Z</time>
      </trkpt>
      <trkpt lat="42.05103" lon="-0.01906952">
        <time>2022-07-06T12:43:23Z</time>
      </trkpt>
      <trkpt lat="42.050964" lon="-0.01903286">
        <time>2022-07-06T12:43:25Z</time>
      </trkpt>
      <trkpt lat="42.050903" lon="-0.0189962">
        <time>2022-07-06T12:43:27Z</time>
      </trkpt>
      <trkpt lat="42.050842" lon="-0.01895887">
        <time>2022-07-06T12:43:29Z</time>
      </trkpt>
      <trkpt lat="42.05078" lon="-0.01892021">
        <time>2022-07-06T12:43:31Z</time>
      </trkpt>
      <trkpt lat="42.050716" lon="-0.01888188">
        <time>2022-07-06T12:43:33Z</time>
      </trkpt>
      <trkpt lat="42.050655" lon="-0.01884222">
        <time>2022-07-06T12:43:35Z</time>
      </trkpt>
      <trkpt lat="42.05059" lon="-0.01880222">
        <time>2022-07-06T12:43:37Z</time>
      </trkpt>
      <trkpt lat="42.050526" lon="-0.01876756">
        <time>2022-07-06T12:43:39Z</time>
      </trkpt>
      <trkpt lat="42.05046" lon="-0.0187389">
        <time>2022-07-06T12:43:41Z</time>
      </trkpt>
      <trkpt lat="42.050396" lon="-0.01871357">
        <time>2022-07-06T12:43:43Z</time>
      </trkpt>
      <trkpt lat="42.05033" lon="-0.01868724">
        <time>2022-07-06T12:43:45Z</time>
      </trkpt>
      <trkpt lat="42.05027" lon="-0.01866091">
        <time>2022-07-06T12:43:47Z</time>
      </trkpt>
      <trkpt lat="42.050205" lon="-0.01863058">
        <time>2022-07-06T12:43:49Z</time>
      </trkpt>
      <trkpt lat="42.050137" lon="-0.01858925">
        <time>2022-07-06T12:43:51Z</time>
      </trkpt>
      <trkpt lat="42.05008" lon="-0.01851925">
        <time>2022-07-06T12:43:53Z</time>
      </trkpt>
      <trkpt lat="42.050045" lon="-0.01842425">
        <time>2022-07-06T12:43:55Z</time>
      </trkpt>
      <trkpt lat="42.05" lon="-0.01832625">
        <time>2022-07-06T12:43:57Z</time>
      </trkpt>
      <trkpt lat="42.04993" lon="-0.01826092">
        <time>2022-07-06T12:43:59Z</time>
      </trkpt>
      <trkpt lat="42.049847" lon="-0.01822359">
        <time>2022-07-06T12:44:01Z</time>
      </trkpt>
      <trkpt lat="42.049755" lon="-0.01819859">
        <time>2022-07-06T12:44:03Z</time>
      </trkpt>
      <trkpt lat="42.04966" lon="-0.01817926">
        <time>2022-07-06T12:44:05Z</time>
      </trkpt>
      <trkpt lat="42.049564" lon="-0.0181606">
        <time>2022-07-06T12:44:07Z</time>
      </trkpt>
      <trkpt lat="42.049465" lon="-0.01814027">
        <time>2022-07-06T12:44:09Z</time>
      </trkpt>
      <trkpt lat="42.049366" lon="-0.01811694">
        <time>2022-07-06T12:44:11Z</time>
      </trkpt>
      <trkpt lat="42.049274" lon="-0.01809161">
        <time>2022-07-06T12:44:13Z</time>
      </trkpt>
      <trkpt lat="42.04918" lon="-0.01806461">
        <time>2022-07-06T12:44:15Z</time>
      </trkpt>
      <trkpt lat="42.049084" lon="-0.01803761">
        <time>2022-07-06T12:44:17Z</time>
      </trkpt>
      <trkpt lat="42.04899" lon="-0.01801228">
        <time>2022-07-06T12:44:19Z</time>
      </trkpt>
      <trkpt lat="42.048893" lon="-0.01798828">
        <time>2022-07-06T12:44:21Z</time>
      </trkpt>
      <trkpt lat="42.0488" lon="-0.01796395">
        <time>2022-07-06T12:44:23Z</time>
      </trkpt>
      <trkpt lat="42.048756" lon="-0.01795195">
        <time>2022-07-06T12:44:24Z</time>
      </trkpt>
      <trkpt lat="42.048668" lon="-0.01792895">
        <time>2022-07-06T12:44:26Z</time>
      </trkpt>
      <trkpt lat="42.0486" lon="-0.01790929">
        <time>2022-07-06T12:44:28Z</time>
      </trkpt>
      <trkpt lat="42.048386" lon="-0.01784063">
        <time>2022-07-06T12:44:31Z</time>
      </trkpt>
      <trkpt lat="42.048378" lon="-0.0178383">
        <time>2022-07-06T12:44:32Z</time>
      </trkpt>
      <trkpt lat="42.04829" lon="-0.01781397">
        <time>2022-07-06T12:44:35Z</time>
      </trkpt>
      <trkpt lat="42.04821" lon="-0.01779097">
        <time>2022-07-06T12:44:37Z</time>
      </trkpt>
      <trkpt lat="42.04812" lon="-0.01776564">
        <time>2022-07-06T12:44:39Z</time>
      </trkpt>
      <trkpt lat="42.048027" lon="-0.01773831">
        <time>2022-07-06T12:44:41Z</time>
      </trkpt>
      <trkpt lat="42.047977" lon="-0.01772665">
        <time>2022-07-06T12:44:42Z</time>
      </trkpt>
      <trkpt lat="42.047882" lon="-0.01770332">
        <time>2022-07-06T12:44:44Z</time>
      </trkpt>
      <trkpt lat="42.047836" lon="-0.01769332">
        <time>2022-07-06T12:44:45Z</time>
      </trkpt>
      <trkpt lat="42.04774" lon="-0.01767466">
        <time>2022-07-06T12:44:47Z</time>
      </trkpt>
      <trkpt lat="42.04765" lon="-0.017656">
        <time>2022-07-06T12:44:49Z</time>
      </trkpt>
      <trkpt lat="42.047554" lon="-0.01763534">
        <time>2022-07-06T12:44:51Z</time>
      </trkpt>
      <trkpt lat="42.04751" lon="-0.01762401">
        <time>2022-07-06T12:44:52Z</time>
      </trkpt>
      <trkpt lat="42.047413" lon="-0.01759468">
        <time>2022-07-06T12:44:54Z</time>
      </trkpt>
      <trkpt lat="42.04732" lon="-0.01756568">
        <time>2022-07-06T12:44:56Z</time>
      </trkpt>
      <trkpt lat="42.047226" lon="-0.01754202">
        <time>2022-07-06T12:44:58Z</time>
      </trkpt>
      <trkpt lat="42.04718" lon="-0.01753102">
        <time>2022-07-06T12:44:59Z</time>
      </trkpt>
      <trkpt lat="42.047085" lon="-0.01751036">
        <time>2022-07-06T12:45:01Z</time>
      </trkpt>
      <trkpt lat="42.047035" lon="-0.0175037">
        <time>2022-07-06T12:45:02Z</time>
      </trkpt>
      <trkpt lat="42.04694" lon="-0.01750337">
        <time>2022-07-06T12:45:04Z</time>
      </trkpt>
      <trkpt lat="42.0468" lon="-0.01752837">
        <time>2022-07-06T12:45:07Z</time>
      </trkpt>
      <trkpt lat="42.046753" lon="-0.01754437">
        <time>2022-07-06T12:45:08Z</time>
      </trkpt>
      <trkpt lat="42.046665" lon="-0.0175897">
        <time>2022-07-06T12:45:10Z</time>
      </trkpt>
      <trkpt lat="42.04658" lon="-0.0176517">
        <time>2022-07-06T12:45:12Z</time>
      </trkpt>
      <trkpt lat="42.046543" lon="-0.01768736">
        <time>2022-07-06T12:45:13Z</time>
      </trkpt>
      <trkpt lat="42.04647" lon="-0.01776902">
        <time>2022-07-06T12:45:15Z</time>
      </trkpt>
      <trkpt lat="42.046413" lon="-0.01785535">
        <time>2022-07-06T12:45:17Z</time>
      </trkpt>
      <trkpt lat="42.046364" lon="-0.01794968">
        <time>2022-07-06T12:45:19Z</time>
      </trkpt>
      <trkpt lat="42.046318" lon="-0.01804701">
        <time>2022-07-06T12:45:21Z</time>
      </trkpt>
      <trkpt lat="42.046265" lon="-0.01814867">
        <time>2022-07-06T12:45:23Z</time>
      </trkpt>
      <trkpt lat="42.04621" lon="-0.01826">
        <time>2022-07-06T12:45:25Z</time>
      </trkpt>
      <trkpt lat="42.046158" lon="-0.01837966">
        <time>2022-07-06T12:45:27Z</time>
      </trkpt>
      <trkpt lat="42.046135" lon="-0.01844066">
        <time>2022-07-06T12:45:28Z</time>
      </trkpt>
      <trkpt lat="42.046112" lon="-0.01850066">
        <time>2022-07-06T12:45:29Z</time>
      </trkpt>
      <trkpt lat="42.04607" lon="-0.01862132">
        <time>2022-07-06T12:45:31Z</time>
      </trkpt>
      <trkpt lat="42.04602" lon="-0.01874132">
        <time>2022-07-06T12:45:33Z</time>
      </trkpt>
      <trkpt lat="42.045994" lon="-0.01879898">
        <time>2022-07-06T12:45:34Z</time>
      </trkpt>
      <trkpt lat="42.045933" lon="-0.01890598">
        <time>2022-07-06T12:45:36Z</time>
      </trkpt>
      <trkpt lat="42.04586" lon="-0.01899698">
        <time>2022-07-06T12:45:38Z</time>
      </trkpt>
      <trkpt lat="42.04582" lon="-0.01903631">
        <time>2022-07-06T12:45:39Z</time>
      </trkpt>
      <trkpt lat="42.04573" lon="-0.01910331">
        <time>2022-07-06T12:45:41Z</time>
      </trkpt>
      <trkpt lat="42.04564" lon="-0.01914931">
        <time>2022-07-06T12:45:43Z</time>
      </trkpt>
      <trkpt lat="42.045547" lon="-0.01917531">
        <time>2022-07-06T12:45:45Z</time>
      </trkpt>
      <trkpt lat="42.045498" lon="-0.01918197">
        <time>2022-07-06T12:45:46Z</time>
      </trkpt>
      <trkpt lat="42.045403" lon="-0.01918297">
        <time>2022-07-06T12:45:48Z</time>
      </trkpt>
      <trkpt lat="42.045353" lon="-0.01917664">
        <time>2022-07-06T12:45:49Z</time>
      </trkpt>
      <trkpt lat="42.045258" lon="-0.01915298">
        <time>2022-07-06T12:45:51Z</time>
      </trkpt>
      <trkpt lat="42.045155" lon="-0.01912132">
        <time>2022-07-06T12:45:53Z</time>
      </trkpt>
      <trkpt lat="42.045105" lon="-0.01910366">
        <time>2022-07-06T12:45:54Z</time>
      </trkpt>
      <trkpt lat="42.04501" lon="-0.019067">
        <time>2022-07-06T12:45:56Z</time>
      </trkpt>
      <trkpt lat="42.044918" lon="-0.01903134">
        <time>2022-07-06T12:45:58Z</time>
      </trkpt>
      <trkpt lat="42.044827" lon="-0.01899834">
        <time>2022-07-06T12:46:00Z</time>
      </trkpt>
      <trkpt lat="42.04474" lon="-0.01896401">
        <time>2022-07-06T12:46:02Z</time>
      </trkpt>
      <trkpt lat="42.044647" lon="-0.01893001">
        <time>2022-07-06T12:46:04Z</time>
      </trkpt>
      <trkpt lat="42.04456" lon="-0.01889468">
        <time>2022-07-06T12:46:06Z</time>
      </trkpt>
      <trkpt lat="42.04447" lon="-0.01885668">
        <time>2022-07-06T12:46:08Z</time>
      </trkpt>
      <trkpt lat="42.044426" lon="-0.01883768">
        <time>2022-07-06T12:46:09Z</time>
      </trkpt>
      <trkpt lat="42.044342" lon="-0.01880135">
        <time>2022-07-06T12:46:11Z</time>
      </trkpt>
      <trkpt lat="42.044216" lon="-0.01875235">
        <time>2022-07-06T12:46:14Z</time>
      </trkpt>
      <trkpt lat="42.044132" lon="-0.01872169">
        <time>2022-07-06T12:46:16Z</time>
      </trkpt>
      <trkpt lat="42.044052" lon="-0.01868903">
        <time>2022-07-06T12:46:18Z</time>
      </trkpt>
      <trkpt lat="42.043972" lon="-0.01865637">
        <time>2022-07-06T12:46:20Z</time>
      </trkpt>
      <trkpt lat="42.04389" lon="-0.01862237">
        <time>2022-07-06T12:46:22Z</time>
      </trkpt>
      <trkpt lat="42.043816" lon="-0.01858137">
        <time>2022-07-06T12:46:24Z</time>
      </trkpt>
      <trkpt lat="42.043743" lon="-0.01853271">
        <time>2022-07-06T12:46:26Z</time>
      </trkpt>
      <trkpt lat="42.043674" lon="-0.01848138">
        <time>2022-07-06T12:46:28Z</time>
      </trkpt>
      <trkpt lat="42.043602" lon="-0.01842472">
        <time>2022-07-06T12:46:30Z</time>
      </trkpt>
      <trkpt lat="42.04353" lon="-0.01836872">
        <time>2022-07-06T12:46:32Z</time>
      </trkpt>
      <trkpt lat="42.04346" lon="-0.01830906">
        <time>2022-07-06T12:46:34Z</time>
      </trkpt>
      <trkpt lat="42.04339" lon="-0.01825273">
        <time>2022-07-06T12:46:36Z</time>
      </trkpt>
      <trkpt lat="42.043316" lon="-0.01819707">
        <time>2022-07-06T12:46:38Z</time>
      </trkpt>
      <trkpt lat="42.04324" lon="-0.01813907">
        <time>2022-07-06T12:46:40Z</time>
      </trkpt>
      <trkpt lat="42.043167" lon="-0.01807874">
        <time>2022-07-06T12:46:42Z</time>
      </trkpt>
      <trkpt lat="42.0431" lon="-0.01802341">
        <time>2022-07-06T12:46:44Z</time>
      </trkpt>
      <trkpt lat="42.04303" lon="-0.01796541">
        <time>2022-07-06T12:46:46Z</time>
      </trkpt>
      <trkpt lat="42.04296" lon="-0.01790775">
        <time>2022-07-06T12:46:48Z</time>
      </trkpt>
      <trkpt lat="42.042896" lon="-0.01785242">
        <time>2022-07-06T12:46:50Z</time>
      </trkpt>
      <trkpt lat="42.04282" lon="-0.01779276">
        <time>2022-07-06T12:46:52Z</time>
      </trkpt>
      <trkpt lat="42.042747" lon="-0.01773543">
        <time>2022-07-06T12:46:54Z</time>
      </trkpt>
      <trkpt lat="42.042675" lon="-0.01768143">
        <time>2022-07-06T12:46:56Z</time>
      </trkpt>
      <trkpt lat="42.0426" lon="-0.01762577">
        <time>2022-07-06T12:46:58Z</time>
      </trkpt>
      <trkpt lat="42.042522" lon="-0.01757111">
        <time>2022-07-06T12:47:00Z</time>
      </trkpt>
      <trkpt lat="42.04245" lon="-0.01751678">
        <time>2022-07-06T12:47:02Z</time>
      </trkpt>
      <trkpt lat="42.042377" lon="-0.01745778">
        <time>2022-07-06T12:47:04Z</time>
      </trkpt>
      <trkpt lat="42.04231" lon="-0.01739812">
        <time>2022-07-06T12:47:06Z</time>
      </trkpt>
      <trkpt lat="42.042233" lon="-0.01733479">
        <time>2022-07-06T12:47:08Z</time>
      </trkpt>
      <trkpt lat="42.04216" lon="-0.01727346">
        <time>2022-07-06T12:47:10Z</time>
      </trkpt>
      <trkpt lat="42.042084" lon="-0.01721146">
        <time>2022-07-06T12:47:12Z</time>
      </trkpt>
      <trkpt lat="42.042007" lon="-0.01715046">
        <time>2022-07-06T12:47:14Z</time>
      </trkpt>
      <trkpt lat="42.041927" lon="-0.01709046">
        <time>2022-07-06T12:47:16Z</time>
      </trkpt>
      <trkpt lat="42.04185" lon="-0.0170318">
        <time>2022-07-06T12:47:18Z</time>
      </trkpt>
      <trkpt lat="42.04177" lon="-0.0169728">
        <time>2022-07-06T12:47:20Z</time>
      </trkpt>
      <trkpt lat="42.04169" lon="-0.01691014">
        <time>2022-07-06T12:47:22Z</time>
      </trkpt>
      <trkpt lat="42.04161" lon="-0.01684548">
        <time>2022-07-06T12:47:24Z</time>
      </trkpt>
      <trkpt lat="42.04157" lon="-0.01681348">
        <time>2022-07-06T12:47:25Z</time>
      </trkpt>
      <trkpt lat="42.041492" lon="-0.01674948">
        <time>2022-07-06T12:47:27Z</time>
      </trkpt>
      <trkpt lat="42.041416" lon="-0.01668782">
        <time>2022-07-06T12:47:29Z</time>
      </trkpt>
      <trkpt lat="42.041344" lon="-0.01662982">
        <time>2022-07-06T12:47:31Z</time>
      </trkpt>
      <trkpt lat="42.041267" lon="-0.01657116">
        <time>2022-07-06T12:47:33Z</time>
      </trkpt>
      <trkpt lat="42.041195" lon="-0.01651316">
        <time>2022-07-06T12:47:35Z</time>
      </trkpt>
      <trkpt lat="42.041122" lon="-0.01645383">
        <time>2022-07-06T12:47:37Z</time>
      </trkpt>
      <trkpt lat="42.04105" lon="-0.01639217">
        <time>2022-07-06T12:47:39Z</time>
      </trkpt>
      <trkpt lat="42.04098" lon="-0.01633317">
        <time>2022-07-06T12:47:41Z</time>
      </trkpt>
      <trkpt lat="42.040913" lon="-0.01627784">
        <time>2022-07-06T12:47:43Z</time>
      </trkpt>
      <trkpt lat="42.04084" lon="-0.01622551">
        <time>2022-07-06T12:47:45Z</time>
      </trkpt>
      <trkpt lat="42.040768" lon="-0.01616985">
        <time>2022-07-06T12:47:47Z</time>
      </trkpt>
      <trkpt lat="42.0407" lon="-0.01611285">
        <time>2022-07-06T12:47:49Z</time>
      </trkpt>
      <trkpt lat="42.040627" lon="-0.01605552">
        <time>2022-07-06T12:47:51Z</time>
      </trkpt>
      <trkpt lat="42.040554" lon="-0.01600119">
        <time>2022-07-06T12:47:53Z</time>
      </trkpt>
      <trkpt lat="42.040478" lon="-0.01594386">
        <time>2022-07-06T12:47:55Z</time>
      </trkpt>
      <trkpt lat="42.040405" lon="-0.01588853">
        <time>2022-07-06T12:47:57Z</time>
      </trkpt>
      <trkpt lat="42.04033" lon="-0.0158302">
        <time>2022-07-06T12:47:59Z</time>
      </trkpt>
      <trkpt lat="42.040253" lon="-0.0157702">
        <time>2022-07-06T12:48:01Z</time>
      </trkpt>
      <trkpt lat="42.040173" lon="-0.01570754">
        <time>2022-07-06T12:48:03Z</time>
      </trkpt>
      <trkpt lat="42.040096" lon="-0.01564754">
        <time>2022-07-06T12:48:05Z</time>
      </trkpt>
      <trkpt lat="42.040024" lon="-0.01559154">
        <time>2022-07-06T12:48:07Z</time>
      </trkpt>
      <trkpt lat="42.039955" lon="-0.01553788">
        <time>2022-07-06T12:48:09Z</time>
      </trkpt>
      <trkpt lat="42.039886" lon="-0.01548488">
        <time>2022-07-06T12:48:11Z</time>
      </trkpt>
      <trkpt lat="42.03982" lon="-0.01543522">
        <time>2022-07-06T12:48:13Z</time>
      </trkpt>
      <trkpt lat="42.039753" lon="-0.01538289">
        <time>2022-07-06T12:48:15Z</time>
      </trkpt>
      <trkpt lat="42.039677" lon="-0.01532556">
        <time>2022-07-06T12:48:17Z</time>
      </trkpt>
      <trkpt lat="42.039597" lon="-0.0152599">
        <time>2022-07-06T12:48:19Z</time>
      </trkpt>
      <trkpt lat="42.03955" lon="-0.0152229">
        <time>2022-07-06T12:48:20Z</time>
      </trkpt>
      <trkpt lat="42.039505" lon="-0.0151879">
        <time>2022-07-06T12:48:21Z</time>
      </trkpt>
      <trkpt lat="42.039413" lon="-0.01511824">
        <time>2022-07-06T12:48:23Z</time>
      </trkpt>
      <trkpt lat="42.03937" lon="-0.01508791">
        <time>2022-07-06T12:48:24Z</time>
      </trkpt>
      <trkpt lat="42.039284" lon="-0.01502058">
        <time>2022-07-06T12:48:26Z</time>
      </trkpt>
      <trkpt lat="42.039234" lon="-0.01498225">
        <time>2022-07-06T12:48:27Z</time>
      </trkpt>
      <trkpt lat="42.039185" lon="-0.01494259">
        <time>2022-07-06T12:48:28Z</time>
      </trkpt>
      <trkpt lat="42.039135" lon="-0.01490426">
        <time>2022-07-06T12:48:29Z</time>
      </trkpt>
      <trkpt lat="42.03909" lon="-0.01486693">
        <time>2022-07-06T12:48:30Z</time>
      </trkpt>
      <trkpt lat="42.039005" lon="-0.01479827">
        <time>2022-07-06T12:48:32Z</time>
      </trkpt>
      <trkpt lat="42.038956" lon="-0.01476194">
        <time>2022-07-06T12:48:33Z</time>
      </trkpt>
      <trkpt lat="42.03891" lon="-0.01472694">
        <time>2022-07-06T12:48:34Z</time>
      </trkpt>
      <trkpt lat="42.038864" lon="-0.01469594">
        <time>2022-07-06T12:48:35Z</time>
      </trkpt>
      <trkpt lat="42.038776" lon="-0.01463261">
        <time>2022-07-06T12:48:37Z</time>
      </trkpt>
      <trkpt lat="42.03873" lon="-0.01460261">
        <time>2022-07-06T12:48:38Z</time>
      </trkpt>
      <trkpt lat="42.03865" lon="-0.01454095">
        <time>2022-07-06T12:48:40Z</time>
      </trkpt>
      <trkpt lat="42.038567" lon="-0.01447995">
        <time>2022-07-06T12:48:42Z</time>
      </trkpt>
      <trkpt lat="42.038483" lon="-0.01441795">
        <time>2022-07-06T12:48:44Z</time>
      </trkpt>
      <trkpt lat="42.038403" lon="-0.01435262">
        <time>2022-07-06T12:48:46Z</time>
      </trkpt>
      <trkpt lat="42.03836" lon="-0.01432096">
        <time>2022-07-06T12:48:47Z</time>
      </trkpt>
      <trkpt lat="42.038284" lon="-0.01425663">
        <time>2022-07-06T12:48:49Z</time>
      </trkpt>
      <trkpt lat="42.0382" lon="-0.01419263">
        <time>2022-07-06T12:48:51Z</time>
      </trkpt>
      <trkpt lat="42.038124" lon="-0.01413063">
        <time>2022-07-06T12:48:53Z</time>
      </trkpt>
      <trkpt lat="42.038048" lon="-0.01407263">
        <time>2022-07-06T12:48:55Z</time>
      </trkpt>
      <trkpt lat="42.037975" lon="-0.01401663">
        <time>2022-07-06T12:48:57Z</time>
      </trkpt>
      <trkpt lat="42.0379" lon="-0.01396097">
        <time>2022-07-06T12:48:59Z</time>
      </trkpt>
      <trkpt lat="42.037815" lon="-0.01390831">
        <time>2022-07-06T12:49:01Z</time>
      </trkpt>
      <trkpt lat="42.037727" lon="-0.01386598">
        <time>2022-07-06T12:49:03Z</time>
      </trkpt>
      <trkpt lat="42.03764" lon="-0.01383298">
        <time>2022-07-06T12:49:05Z</time>
      </trkpt>
      <trkpt lat="42.037548" lon="-0.01380898">
        <time>2022-07-06T12:49:07Z</time>
      </trkpt>
      <trkpt lat="42.03746" lon="-0.01379532">
        <time>2022-07-06T12:49:09Z</time>
      </trkpt>
      <trkpt lat="42.03737" lon="-0.01379332">
        <time>2022-07-06T12:49:11Z</time>
      </trkpt>
      <trkpt lat="42.037277" lon="-0.01380365">
        <time>2022-07-06T12:49:13Z</time>
      </trkpt>
      <trkpt lat="42.037186" lon="-0.01382531">
        <time>2022-07-06T12:49:15Z</time>
      </trkpt>
      <trkpt lat="42.037098" lon="-0.01385797">
        <time>2022-07-06T12:49:17Z</time>
      </trkpt>
      <trkpt lat="42.03701" lon="-0.01390263">
        <time>2022-07-06T12:49:19Z</time>
      </trkpt>
      <trkpt lat="42.036926" lon="-0.01395863">
        <time>2022-07-06T12:49:21Z</time>
      </trkpt>
      <trkpt lat="42.036846" lon="-0.01402196">
        <time>2022-07-06T12:49:23Z</time>
      </trkpt>
      <trkpt lat="42.036766" lon="-0.01408896">
        <time>2022-07-06T12:49:25Z</time>
      </trkpt>
      <trkpt lat="42.036728" lon="-0.01412296">
        <time>2022-07-06T12:49:26Z</time>
      </trkpt>
      <trkpt lat="42.03665" lon="-0.01419362">
        <time>2022-07-06T12:49:28Z</time>
      </trkpt>
      <trkpt lat="42.036575" lon="-0.01426528">
        <time>2022-07-06T12:49:30Z</time>
      </trkpt>
      <trkpt lat="42.036537" lon="-0.01430028">
        <time>2022-07-06T12:49:31Z</time>
      </trkpt>
      <trkpt lat="42.03646" lon="-0.01437061">
        <time>2022-07-06T12:49:33Z</time>
      </trkpt>
      <trkpt lat="42.03638" lon="-0.01444061">
        <time>2022-07-06T12:49:35Z</time>
      </trkpt>
      <trkpt lat="42.036304" lon="-0.01451027">
        <time>2022-07-06T12:49:37Z</time>
      </trkpt>
      <trkpt lat="42.03622" lon="-0.01458027">
        <time>2022-07-06T12:49:39Z</time>
      </trkpt>
      <trkpt lat="42.036182" lon="-0.01461593">
        <time>2022-07-06T12:49:40Z</time>
      </trkpt>
      <trkpt lat="42.036102" lon="-0.01468926">
        <time>2022-07-06T12:49:42Z</time>
      </trkpt>
      <trkpt lat="42.036026" lon="-0.01476526">
        <time>2022-07-06T12:49:44Z</time>
      </trkpt>
      <trkpt lat="42.03595" lon="-0.01483959">
        <time>2022-07-06T12:49:46Z</time>
      </trkpt>
      <trkpt lat="42.035908" lon="-0.01487559">
        <time>2022-07-06T12:49:47Z</time>
      </trkpt>
      <trkpt lat="42.035828" lon="-0.01494692">
        <time>2022-07-06T12:49:49Z</time>
      </trkpt>
      <trkpt lat="42.03579" lon="-0.01498258">
        <time>2022-07-06T12:49:50Z</time>
      </trkpt>
      <trkpt lat="42.03571" lon="-0.01505358">
        <time>2022-07-06T12:49:52Z</time>
      </trkpt>
      <trkpt lat="42.035667" lon="-0.01508924">
        <time>2022-07-06T12:49:53Z</time>
      </trkpt>
      <trkpt lat="42.03559" lon="-0.0151599">
        <time>2022-07-06T12:49:55Z</time>
      </trkpt>
      <trkpt lat="42.035507" lon="-0.0152309">
        <time>2022-07-06T12:49:57Z</time>
      </trkpt>
      <trkpt lat="42.035427" lon="-0.01530123">
        <time>2022-07-06T12:49:59Z</time>
      </trkpt>
      <trkpt lat="42.035343" lon="-0.01537189">
        <time>2022-07-06T12:50:01Z</time>
      </trkpt>
      <trkpt lat="42.035263" lon="-0.01544055">
        <time>2022-07-06T12:50:03Z</time>
      </trkpt>
      <trkpt lat="42.03522" lon="-0.01547288">
        <time>2022-07-06T12:50:04Z</time>
      </trkpt>
      <trkpt lat="42.035137" lon="-0.01553488">
        <time>2022-07-06T12:50:06Z</time>
      </trkpt>
      <trkpt lat="42.03509" lon="-0.01556354">
        <time>2022-07-06T12:50:07Z</time>
      </trkpt>
      <trkpt lat="42.035004" lon="-0.0156152">
        <time>2022-07-06T12:50:09Z</time>
      </trkpt>
      <trkpt lat="42.034954" lon="-0.01563553">
        <time>2022-07-06T12:50:10Z</time>
      </trkpt>
      <trkpt lat="42.03486" lon="-0.01566053">
        <time>2022-07-06T12:50:12Z</time>
      </trkpt>
      <trkpt lat="42.03476" lon="-0.01566919">
        <time>2022-07-06T12:50:14Z</time>
      </trkpt>
      <trkpt lat="42.034664" lon="-0.01566253">
        <time>2022-07-06T12:50:16Z</time>
      </trkpt>
      <trkpt lat="42.03457" lon="-0.0156452">
        <time>2022-07-06T12:50:18Z</time>
      </trkpt>
      <trkpt lat="42.034523" lon="-0.01563387">
        <time>2022-07-06T12:50:19Z</time>
      </trkpt>
      <trkpt lat="42.034435" lon="-0.01560621">
        <time>2022-07-06T12:50:21Z</time>
      </trkpt>
      <trkpt lat="42.034344" lon="-0.01557188">
        <time>2022-07-06T12:50:23Z</time>
      </trkpt>
      <trkpt lat="42.034256" lon="-0.01553888">
        <time>2022-07-06T12:50:25Z</time>
      </trkpt>
      <trkpt lat="42.034164" lon="-0.01550655">
        <time>2022-07-06T12:50:27Z</time>
      </trkpt>
      <trkpt lat="42.034073" lon="-0.01547322">
        <time>2022-07-06T12:50:29Z</time>
      </trkpt>
      <trkpt lat="42.034027" lon="-0.01545822">
        <time>2022-07-06T12:50:30Z</time>
      </trkpt>
      <trkpt lat="42.03393" lon="-0.01543556">
        <time>2022-07-06T12:50:32Z</time>
      </trkpt>
      <trkpt lat="42.033836" lon="-0.0154229">
        <time>2022-07-06T12:50:34Z</time>
      </trkpt>
      <trkpt lat="42.03374" lon="-0.01541857">
        <time>2022-07-06T12:50:36Z</time>
      </trkpt>
      <trkpt lat="42.03369" lon="-0.0154199">
        <time>2022-07-06T12:50:37Z</time>
      </trkpt>
      <trkpt lat="42.03355" lon="-0.01543523">
        <time>2022-07-06T12:50:40Z</time>
      </trkpt>
      <trkpt lat="42.03346" lon="-0.01544923">
        <time>2022-07-06T12:50:42Z</time>
      </trkpt>
      <trkpt lat="42.03337" lon="-0.01546489">
        <time>2022-07-06T12:50:44Z</time>
      </trkpt>
      <trkpt lat="42.033276" lon="-0.01548422">
        <time>2022-07-06T12:50:46Z</time>
      </trkpt>
      <trkpt lat="42.033234" lon="-0.01549588">
        <time>2022-07-06T12:50:47Z</time>
      </trkpt>
      <trkpt lat="42.033142" lon="-0.01552021">
        <time>2022-07-06T12:50:49Z</time>
      </trkpt>
      <trkpt lat="42.03305" lon="-0.01554754">
        <time>2022-07-06T12:50:51Z</time>
      </trkpt>
      <trkpt lat="42.03296" lon="-0.01558187">
        <time>2022-07-06T12:50:53Z</time>
      </trkpt>
      <trkpt lat="42.032867" lon="-0.0156252">
        <time>2022-07-06T12:50:55Z</time>
      </trkpt>
      <trkpt lat="42.032825" lon="-0.0156512">
        <time>2022-07-06T12:50:56Z</time>
      </trkpt>
      <trkpt lat="42.032738" lon="-0.01571053">
        <time>2022-07-06T12:50:58Z</time>
      </trkpt>
      <trkpt lat="42.032658" lon="-0.01578086">
        <time>2022-07-06T12:51:00Z</time>
      </trkpt>
      <trkpt lat="42.032574" lon="-0.01586052">
        <time>2022-07-06T12:51:02Z</time>
      </trkpt>
      <trkpt lat="42.032536" lon="-0.01590318">
        <time>2022-07-06T12:51:03Z</time>
      </trkpt>
      <trkpt lat="42.03246" lon="-0.01599218">
        <time>2022-07-06T12:51:05Z</time>
      </trkpt>
      <trkpt lat="42.032417" lon="-0.01603818">
        <time>2022-07-06T12:51:06Z</time>
      </trkpt>
      <trkpt lat="42.03234" lon="-0.01613318">
        <time>2022-07-06T12:51:08Z</time>
      </trkpt>
      <trkpt lat="42.032303" lon="-0.01618084">
        <time>2022-07-06T12:51:09Z</time>
      </trkpt>
      <trkpt lat="42.032265" lon="-0.01622984">
        <time>2022-07-06T12:51:10Z</time>
      </trkpt>
      <trkpt lat="42.032192" lon="-0.0163295">
        <time>2022-07-06T12:51:12Z</time>
      </trkpt>
      <trkpt lat="42.032154" lon="-0.01638016">
        <time>2022-07-06T12:51:13Z</time>
      </trkpt>
      <trkpt lat="42.03212" lon="-0.01643049">
        <time>2022-07-06T12:51:14Z</time>
      </trkpt>
      <trkpt lat="42.03208" lon="-0.01648082">
        <time>2022-07-06T12:51:15Z</time>
      </trkpt>
      <trkpt lat="42.032047" lon="-0.01653115">
        <time>2022-07-06T12:51:16Z</time>
      </trkpt>
      <trkpt lat="42.031975" lon="-0.01663081">
        <time>2022-07-06T12:51:18Z</time>
      </trkpt>
      <trkpt lat="42.031937" lon="-0.01668047">
        <time>2022-07-06T12:51:19Z</time>
      </trkpt>
      <trkpt lat="42.031902" lon="-0.0167298">
        <time>2022-07-06T12:51:20Z</time>
      </trkpt>
      <trkpt lat="42.03183" lon="-0.01682746">
        <time>2022-07-06T12:51:22Z</time>
      </trkpt>
      <trkpt lat="42.03179" lon="-0.01687479">
        <time>2022-07-06T12:51:23Z</time>
      </trkpt>
      <trkpt lat="42.03175" lon="-0.01692045">
        <time>2022-07-06T12:51:24Z</time>
      </trkpt>
      <trkpt lat="42.03167" lon="-0.01700378">
        <time>2022-07-06T12:51:26Z</time>
      </trkpt>
      <trkpt lat="42.031628" lon="-0.01704078">
        <time>2022-07-06T12:51:27Z</time>
      </trkpt>
      <trkpt lat="42.031536" lon="-0.01710611">
        <time>2022-07-06T12:51:29Z</time>
      </trkpt>
      <trkpt lat="42.03149" lon="-0.01713277">
        <time>2022-07-06T12:51:30Z</time>
      </trkpt>
      <trkpt lat="42.03144" lon="-0.01715477">
        <time>2022-07-06T12:51:31Z</time>
      </trkpt>
      <trkpt lat="42.03134" lon="-0.0171881">
        <time>2022-07-06T12:51:33Z</time>
      </trkpt>
      <trkpt lat="42.031246" lon="-0.01720376">
        <time>2022-07-06T12:51:35Z</time>
      </trkpt>
      <trkpt lat="42.031097" lon="-0.01719443">
        <time>2022-07-06T12:51:38Z</time>
      </trkpt>
      <trkpt lat="42.031048" lon="-0.01718277">
        <time>2022-07-06T12:51:39Z</time>
      </trkpt>
      <trkpt lat="42.030956" lon="-0.01714811">
        <time>2022-07-06T12:51:41Z</time>
      </trkpt>
      <trkpt lat="42.030865" lon="-0.01710445">
        <time>2022-07-06T12:51:43Z</time>
      </trkpt>
      <trkpt lat="42.03082" lon="-0.01708179">
        <time>2022-07-06T12:51:44Z</time>
      </trkpt>
      <trkpt lat="42.03073" lon="-0.01703646">
        <time>2022-07-06T12:51:46Z</time>
      </trkpt>
      <trkpt lat="42.030685" lon="-0.01701346">
        <time>2022-07-06T12:51:47Z</time>
      </trkpt>
      <trkpt lat="42.030598" lon="-0.0169658">
        <time>2022-07-06T12:51:49Z</time>
      </trkpt>
      <trkpt lat="42.030552" lon="-0.01694047">
        <time>2022-07-06T12:51:50Z</time>
      </trkpt>
      <trkpt lat="42.030464" lon="-0.01689047">
        <time>2022-07-06T12:51:52Z</time>
      </trkpt>
      <trkpt lat="42.03042" lon="-0.01686481">
        <time>2022-07-06T12:51:53Z</time>
      </trkpt>
      <trkpt lat="42.03033" lon="-0.01681415">
        <time>2022-07-06T12:51:55Z</time>
      </trkpt>
      <trkpt lat="42.03029" lon="-0.01678849">
        <time>2022-07-06T12:51:56Z</time>
      </trkpt>
      <trkpt lat="42.030197" lon="-0.01673716">
        <time>2022-07-06T12:51:58Z</time>
      </trkpt>
      <trkpt lat="42.03015" lon="-0.0167125">
        <time>2022-07-06T12:51:59Z</time>
      </trkpt>
      <trkpt lat="42.030064" lon="-0.0166635">
        <time>2022-07-06T12:52:01Z</time>
      </trkpt>
      <trkpt lat="42.030018" lon="-0.0166385">
        <time>2022-07-06T12:52:02Z</time>
      </trkpt>
      <trkpt lat="42.029934" lon="-0.0165905">
        <time>2022-07-06T12:52:04Z</time>
      </trkpt>
      <trkpt lat="42.029842" lon="-0.01654017">
        <time>2022-07-06T12:52:06Z</time>
      </trkpt>
      <trkpt lat="42.029747" lon="-0.01648751">
        <time>2022-07-06T12:52:08Z</time>
      </trkpt>
      <trkpt lat="42.0297" lon="-0.01646218">
        <time>2022-07-06T12:52:09Z</time>
      </trkpt>
      <trkpt lat="42.02961" lon="-0.01641418">
        <time>2022-07-06T12:52:11Z</time>
      </trkpt>
      <trkpt lat="42.02952" lon="-0.01636485">
        <time>2022-07-06T12:52:13Z</time>
      </trkpt>
      <trkpt lat="42.02943" lon="-0.01631652">
        <time>2022-07-06T12:52:15Z</time>
      </trkpt>
      <trkpt lat="42.02939" lon="-0.01629152">
        <time>2022-07-06T12:52:16Z</time>
      </trkpt>
      <trkpt lat="42.029305" lon="-0.01624352">
        <time>2022-07-06T12:52:18Z</time>
      </trkpt>
      <trkpt lat="42.02922" lon="-0.01620086">
        <time>2022-07-06T12:52:20Z</time>
      </trkpt>
      <trkpt lat="42.029144" lon="-0.01616886">
        <time>2022-07-06T12:52:22Z</time>
      </trkpt>
      <trkpt lat="42.029076" lon="-0.01614586">
        <time>2022-07-06T12:52:24Z</time>
      </trkpt>
      <trkpt lat="42.02902" lon="-0.01613086">
        <time>2022-07-06T12:52:26Z</time>
      </trkpt>
      <trkpt lat="42.028908" lon="-0.01605386">
        <time>2022-07-06T12:54:10Z</time>
      </trkpt>
      <trkpt lat="42.028862" lon="-0.0160002">
        <time>2022-07-06T12:54:12Z</time>
      </trkpt>
      <trkpt lat="42.02881" lon="-0.0159432">
        <time>2022-07-06T12:54:14Z</time>
      </trkpt>
      <trkpt lat="42.028755" lon="-0.01587754">
        <time>2022-07-06T12:54:16Z</time>
      </trkpt>
      <trkpt lat="42.028694" lon="-0.01580754">
        <time>2022-07-06T12:54:18Z</time>
      </trkpt>
      <trkpt lat="42.028637" lon="-0.01573921">
        <time>2022-07-06T12:54:20Z</time>
      </trkpt>
      <trkpt lat="42.028576" lon="-0.01566821">
        <time>2022-07-06T12:54:22Z</time>
      </trkpt>
      <trkpt lat="42.02851" lon="-0.01559688">
        <time>2022-07-06T12:54:24Z</time>
      </trkpt>
      <trkpt lat="42.028442" lon="-0.01552322">
        <time>2022-07-06T12:54:26Z</time>
      </trkpt>
      <trkpt lat="42.028378" lon="-0.01544422">
        <time>2022-07-06T12:54:28Z</time>
      </trkpt>
      <trkpt lat="42.02831" lon="-0.01536189">
        <time>2022-07-06T12:54:30Z</time>
      </trkpt>
      <trkpt lat="42.02824" lon="-0.01528089">
        <time>2022-07-06T12:54:32Z</time>
      </trkpt>
      <trkpt lat="42.02817" lon="-0.01520023">
        <time>2022-07-06T12:54:34Z</time>
      </trkpt>
      <trkpt lat="42.028103" lon="-0.01512257">
        <time>2022-07-06T12:54:36Z</time>
      </trkpt>
      <trkpt lat="42.028034" lon="-0.01504357">
        <time>2022-07-06T12:54:38Z</time>
      </trkpt>
      <trkpt lat="42.027966" lon="-0.01496357">
        <time>2022-07-06T12:54:40Z</time>
      </trkpt>
      <trkpt lat="42.027893" lon="-0.01488124">
        <time>2022-07-06T12:54:42Z</time>
      </trkpt>
      <trkpt lat="42.02782" lon="-0.01480024">
        <time>2022-07-06T12:54:44Z</time>
      </trkpt>
      <trkpt lat="42.02775" lon="-0.01471491">
        <time>2022-07-06T12:54:46Z</time>
      </trkpt>
      <trkpt lat="42.027714" lon="-0.01467225">
        <time>2022-07-06T12:54:47Z</time>
      </trkpt>
      <trkpt lat="42.027645" lon="-0.01458492">
        <time>2022-07-06T12:54:49Z</time>
      </trkpt>
      <trkpt lat="42.027607" lon="-0.01454192">
        <time>2022-07-06T12:54:50Z</time>
      </trkpt>
      <trkpt lat="42.027542" lon="-0.01446026">
        <time>2022-07-06T12:54:52Z</time>
      </trkpt>
      <trkpt lat="42.027473" lon="-0.0143816">
        <time>2022-07-06T12:54:54Z</time>
      </trkpt>
      <trkpt lat="42.027412" lon="-0.01430327">
        <time>2022-07-06T12:54:56Z</time>
      </trkpt>
      <trkpt lat="42.027348" lon="-0.01422894">
        <time>2022-07-06T12:54:58Z</time>
      </trkpt>
      <trkpt lat="42.027283" lon="-0.01415761">
        <time>2022-07-06T12:55:00Z</time>
      </trkpt>
      <trkpt lat="42.02723" lon="-0.01409028">
        <time>2022-07-06T12:55:02Z</time>
      </trkpt>
      <trkpt lat="42.027187" lon="-0.01404262">
        <time>2022-07-06T12:55:04Z</time>
      </trkpt>
      <trkpt lat="42.02711" lon="-0.01395496">
        <time>2022-07-06T12:55:28Z</time>
      </trkpt>
      <trkpt lat="42.02706" lon="-0.01390263">
        <time>2022-07-06T12:55:30Z</time>
      </trkpt>
      <trkpt lat="42.027016" lon="-0.01383563">
        <time>2022-07-06T12:55:32Z</time>
      </trkpt>
      <trkpt lat="42.026966" lon="-0.01376597">
        <time>2022-07-06T12:55:34Z</time>
      </trkpt>
      <trkpt lat="42.026913" lon="-0.01369964">
        <time>2022-07-06T12:55:36Z</time>
      </trkpt>
      <trkpt lat="42.02686" lon="-0.01363998">
        <time>2022-07-06T12:55:38Z</time>
      </trkpt>
      <trkpt lat="42.026802" lon="-0.01357732">
        <time>2022-07-06T12:55:40Z</time>
      </trkpt>
      <trkpt lat="42.026707" lon="-0.01347599">
        <time>2022-07-06T12:55:43Z</time>
      </trkpt>
      <trkpt lat="42.02663" lon="-0.01339366">
        <time>2022-07-06T12:55:45Z</time>
      </trkpt>
      <trkpt lat="42.02655" lon="-0.01330666">
        <time>2022-07-06T12:55:47Z</time>
      </trkpt>
      <trkpt lat="42.02651" lon="-0.013263">
        <time>2022-07-06T12:55:48Z</time>
      </trkpt>
      <trkpt lat="42.026463" lon="-0.01321967">
        <time>2022-07-06T12:55:49Z</time>
      </trkpt>
      <trkpt lat="42.02642" lon="-0.01317901">
        <time>2022-07-06T12:55:50Z</time>
      </trkpt>
      <trkpt lat="42.02637" lon="-0.01313668">
        <time>2022-07-06T12:55:51Z</time>
      </trkpt>
      <trkpt lat="42.026318" lon="-0.01309535">
        <time>2022-07-06T12:55:52Z</time>
      </trkpt>
      <trkpt lat="42.026268" lon="-0.01305435">
        <time>2022-07-06T12:55:53Z</time>
      </trkpt>
      <trkpt lat="42.026215" lon="-0.01301169">
        <time>2022-07-06T12:55:54Z</time>
      </trkpt>
      <trkpt lat="42.026165" lon="-0.01296669">
        <time>2022-07-06T12:55:55Z</time>
      </trkpt>
      <trkpt lat="42.02611" lon="-0.01292103">
        <time>2022-07-06T12:55:56Z</time>
      </trkpt>
      <trkpt lat="42.026062" lon="-0.01287737">
        <time>2022-07-06T12:55:57Z</time>
      </trkpt>
      <trkpt lat="42.02601" lon="-0.01283204">
        <time>2022-07-06T12:55:58Z</time>
      </trkpt>
      <trkpt lat="42.025955" lon="-0.01278471">
        <time>2022-07-06T12:55:59Z</time>
      </trkpt>
      <trkpt lat="42.0259" lon="-0.01273638">
        <time>2022-07-06T12:56:00Z</time>
      </trkpt>
      <trkpt lat="42.025845" lon="-0.01268438">
        <time>2022-07-06T12:56:01Z</time>
      </trkpt>
      <trkpt lat="42.025787" lon="-0.01263172">
        <time>2022-07-06T12:56:02Z</time>
      </trkpt>
      <trkpt lat="42.02573" lon="-0.01258006">
        <time>2022-07-06T12:56:03Z</time>
      </trkpt>
      <trkpt lat="42.025673" lon="-0.0125284">
        <time>2022-07-06T12:56:04Z</time>
      </trkpt>
      <trkpt lat="42.025616" lon="-0.0124764">
        <time>2022-07-06T12:56:05Z</time>
      </trkpt>
      <trkpt lat="42.025562" lon="-0.0124274">
        <time>2022-07-06T12:56:06Z</time>
      </trkpt>
      <trkpt lat="42.025513" lon="-0.01237874">
        <time>2022-07-06T12:56:07Z</time>
      </trkpt>
      <trkpt lat="42.02546" lon="-0.01233041">
        <time>2022-07-06T12:56:08Z</time>
      </trkpt>
      <trkpt lat="42.025406" lon="-0.01228175">
        <time>2022-07-06T12:56:09Z</time>
      </trkpt>
      <trkpt lat="42.025352" lon="-0.01223175">
        <time>2022-07-06T12:56:10Z</time>
      </trkpt>
      <trkpt lat="42.0253" lon="-0.01217742">
        <time>2022-07-06T12:56:11Z</time>
      </trkpt>
      <trkpt lat="42.025246" lon="-0.01212442">
        <time>2022-07-06T12:56:12Z</time>
      </trkpt>
      <trkpt lat="42.025196" lon="-0.01207342">
        <time>2022-07-06T12:56:13Z</time>
      </trkpt>
      <trkpt lat="42.025143" lon="-0.01202409">
        <time>2022-07-06T12:56:14Z</time>
      </trkpt>
      <trkpt lat="42.02509" lon="-0.01197543">
        <time>2022-07-06T12:56:15Z</time>
      </trkpt>
      <trkpt lat="42.02504" lon="-0.01193043">
        <time>2022-07-06T12:56:16Z</time>
      </trkpt>
      <trkpt lat="42.024986" lon="-0.01188177">
        <time>2022-07-06T12:56:17Z</time>
      </trkpt>
      <trkpt lat="42.024933" lon="-0.01183344">
        <time>2022-07-06T12:56:18Z</time>
      </trkpt>
      <trkpt lat="42.024883" lon="-0.01178711">
        <time>2022-07-06T12:56:19Z</time>
      </trkpt>
      <trkpt lat="42.02483" lon="-0.01174145">
        <time>2022-07-06T12:56:20Z</time>
      </trkpt>
      <trkpt lat="42.024776" lon="-0.01169545">
        <time>2022-07-06T12:56:21Z</time>
      </trkpt>
      <trkpt lat="42.024723" lon="-0.01164979">
        <time>2022-07-06T12:56:22Z</time>
      </trkpt>
      <trkpt lat="42.024673" lon="-0.01160646">
        <time>2022-07-06T12:56:23Z</time>
      </trkpt>
      <trkpt lat="42.024624" lon="-0.0115608">
        <time>2022-07-06T12:56:24Z</time>
      </trkpt>
      <trkpt lat="42.02457" lon="-0.01151047">
        <time>2022-07-06T12:56:25Z</time>
      </trkpt>
      <trkpt lat="42.024517" lon="-0.01145947">
        <time>2022-07-06T12:56:26Z</time>
      </trkpt>
      <trkpt lat="42.024467" lon="-0.01141181">
        <time>2022-07-06T12:56:27Z</time>
      </trkpt>
      <trkpt lat="42.024414" lon="-0.01136015">
        <time>2022-07-06T12:56:28Z</time>
      </trkpt>
      <trkpt lat="42.024357" lon="-0.01131082">
        <time>2022-07-06T12:56:29Z</time>
      </trkpt>
      <trkpt lat="42.0243" lon="-0.01126216">
        <time>2022-07-06T12:56:30Z</time>
      </trkpt>
      <trkpt lat="42.024246" lon="-0.01121316">
        <time>2022-07-06T12:56:31Z</time>
      </trkpt>
      <trkpt lat="42.024193" lon="-0.01116383">
        <time>2022-07-06T12:56:32Z</time>
      </trkpt>
      <trkpt lat="42.024136" lon="-0.01111383">
        <time>2022-07-06T12:56:33Z</time>
      </trkpt>
      <trkpt lat="42.024082" lon="-0.01106317">
        <time>2022-07-06T12:56:34Z</time>
      </trkpt>
      <trkpt lat="42.024025" lon="-0.01101151">
        <time>2022-07-06T12:56:35Z</time>
      </trkpt>
      <trkpt lat="42.02397" lon="-0.01095951">
        <time>2022-07-06T12:56:36Z</time>
      </trkpt>
      <trkpt lat="42.023914" lon="-0.01090685">
        <time>2022-07-06T12:56:37Z</time>
      </trkpt>
      <trkpt lat="42.02386" lon="-0.01085752">
        <time>2022-07-06T12:56:38Z</time>
      </trkpt>
      <trkpt lat="42.023808" lon="-0.01080619">
        <time>2022-07-06T12:56:39Z</time>
      </trkpt>
      <trkpt lat="42.02375" lon="-0.01074986">
        <time>2022-07-06T12:56:40Z</time>
      </trkpt>
      <trkpt lat="42.023697" lon="-0.01069386">
        <time>2022-07-06T12:56:41Z</time>
      </trkpt>
      <trkpt lat="42.02364" lon="-0.0106382">
        <time>2022-07-06T12:56:42Z</time>
      </trkpt>
      <trkpt lat="42.023586" lon="-0.01058387">
        <time>2022-07-06T12:56:43Z</time>
      </trkpt>
      <trkpt lat="42.02353" lon="-0.01053054">
        <time>2022-07-06T12:56:44Z</time>
      </trkpt>
      <trkpt lat="42.023476" lon="-0.01047888">
        <time>2022-07-06T12:56:45Z</time>
      </trkpt>
      <trkpt lat="42.023422" lon="-0.01042888">
        <time>2022-07-06T12:56:46Z</time>
      </trkpt>
      <trkpt lat="42.02331" lon="-0.01033088">
        <time>2022-07-06T12:56:48Z</time>
      </trkpt>
      <trkpt lat="42.023262" lon="-0.01028622">
        <time>2022-07-06T12:56:49Z</time>
      </trkpt>
      <trkpt lat="42.023212" lon="-0.01024022">
        <time>2022-07-06T12:56:50Z</time>
      </trkpt>
      <trkpt lat="42.02316" lon="-0.01019389">
        <time>2022-07-06T12:56:51Z</time>
      </trkpt>
      <trkpt lat="42.02311" lon="-0.01014756">
        <time>2022-07-06T12:56:52Z</time>
      </trkpt>
      <trkpt lat="42.02306" lon="-0.01010056">
        <time>2022-07-06T12:56:53Z</time>
      </trkpt>
      <trkpt lat="42.023014" lon="-0.0100539">
        <time>2022-07-06T12:56:54Z</time>
      </trkpt>
      <trkpt lat="42.022964" lon="-0.01000824">
        <time>2022-07-06T12:56:55Z</time>
      </trkpt>
      <trkpt lat="42.02292" lon="-0.00996358">
        <time>2022-07-06T12:56:56Z</time>
      </trkpt>
      <trkpt lat="42.022873" lon="-0.00992025">
        <time>2022-07-06T12:56:57Z</time>
      </trkpt>
      <trkpt lat="42.022823" lon="-0.00987459">
        <time>2022-07-06T12:56:58Z</time>
      </trkpt>
      <trkpt lat="42.02278" lon="-0.00983359">
        <time>2022-07-06T12:56:59Z</time>
      </trkpt>
      <trkpt lat="42.02269" lon="-0.00975026">
        <time>2022-07-06T12:57:01Z</time>
      </trkpt>
      <trkpt lat="42.02265" lon="-0.0097136">
        <time>2022-07-06T12:57:02Z</time>
      </trkpt>
      <trkpt lat="42.02257" lon="-0.00963794">
        <time>2022-07-06T12:57:04Z</time>
      </trkpt>
      <trkpt lat="42.022533" lon="-0.00960228">
        <time>2022-07-06T12:57:05Z</time>
      </trkpt>
      <trkpt lat="42.022453" lon="-0.00954062">
        <time>2022-07-06T12:57:07Z</time>
      </trkpt>
      <trkpt lat="42.022377" lon="-0.00948962">
        <time>2022-07-06T12:57:09Z</time>
      </trkpt>
      <trkpt lat="42.0223" lon="-0.00944829">
        <time>2022-07-06T12:57:11Z</time>
      </trkpt>
      <trkpt lat="42.022224" lon="-0.00941263">
        <time>2022-07-06T12:57:13Z</time>
      </trkpt>
      <trkpt lat="42.022144" lon="-0.00937863">
        <time>2022-07-06T12:57:15Z</time>
      </trkpt>
      <trkpt lat="42.022068" lon="-0.0093463">
        <time>2022-07-06T12:57:17Z</time>
      </trkpt>
      <trkpt lat="42.021988" lon="-0.00931364">
        <time>2022-07-06T12:57:19Z</time>
      </trkpt>
      <trkpt lat="42.021908" lon="-0.00928098">
        <time>2022-07-06T12:57:21Z</time>
      </trkpt>
      <trkpt lat="42.021828" lon="-0.00924832">
        <time>2022-07-06T12:57:23Z</time>
      </trkpt>
      <trkpt lat="42.021748" lon="-0.00921699">
        <time>2022-07-06T12:57:25Z</time>
      </trkpt>
      <trkpt lat="42.02167" lon="-0.00918933">
        <time>2022-07-06T12:57:27Z</time>
      </trkpt>
      <trkpt lat="42.021603" lon="-0.00916367">
        <time>2022-07-06T12:57:29Z</time>
      </trkpt>
      <trkpt lat="42.021534" lon="-0.00913867">
        <time>2022-07-06T12:57:31Z</time>
      </trkpt>
      <trkpt lat="42.021473" lon="-0.00911567">
        <time>2022-07-06T12:57:33Z</time>
      </trkpt>
      <trkpt lat="42.02141" lon="-0.00909501">
        <time>2022-07-06T12:57:35Z</time>
      </trkpt>
      <trkpt lat="42.021366" lon="-0.00907701">
        <time>2022-07-06T12:57:37Z</time>
      </trkpt>
      <trkpt lat="42.021408" lon="-0.00907535">
        <time>2022-07-06T13:02:21Z</time>
      </trkpt>
      <trkpt lat="42.021477" lon="-0.00910201">
        <time>2022-07-06T13:02:23Z</time>
      </trkpt>
      <trkpt lat="42.02155" lon="-0.00913434">
        <time>2022-07-06T13:02:25Z</time>
      </trkpt>
      <trkpt lat="42.02162" lon="-0.00916667">
        <time>2022-07-06T13:02:27Z</time>
      </trkpt>
      <trkpt lat="42.02169" lon="-0.009192">
        <time>2022-07-06T13:02:29Z</time>
      </trkpt>
      <trkpt lat="42.021748" lon="-0.00921366">
        <time>2022-07-06T13:02:31Z</time>
      </trkpt>
      <trkpt lat="42.02181" lon="-0.00923732">
        <time>2022-07-06T13:02:33Z</time>
      </trkpt>
      <trkpt lat="42.021873" lon="-0.00925998">
        <time>2022-07-06T13:02:35Z</time>
      </trkpt>
      <trkpt lat="42.02193" lon="-0.00928098">
        <time>2022-07-06T13:02:37Z</time>
      </trkpt>
      <trkpt lat="42.021988" lon="-0.00930231">
        <time>2022-07-06T13:02:39Z</time>
      </trkpt>
      <trkpt lat="42.022038" lon="-0.00932997">
        <time>2022-07-06T13:02:41Z</time>
      </trkpt>
      <trkpt lat="42.022076" lon="-0.0093713">
        <time>2022-07-06T13:02:43Z</time>
      </trkpt>
      <trkpt lat="42.0221" lon="-0.00945363">
        <time>2022-07-06T13:02:46Z</time>
      </trkpt>
      <trkpt lat="42.022068" lon="-0.00955129">
        <time>2022-07-06T13:02:49Z</time>
      </trkpt>
      <trkpt lat="42.02203" lon="-0.00962029">
        <time>2022-07-06T13:02:51Z</time>
      </trkpt>
      <trkpt lat="42.02198" lon="-0.00969029">
        <time>2022-07-06T13:02:53Z</time>
      </trkpt>
      <trkpt lat="42.021927" lon="-0.00976329">
        <time>2022-07-06T13:02:55Z</time>
      </trkpt>
      <trkpt lat="42.021873" lon="-0.00984162">
        <time>2022-07-06T13:02:57Z</time>
      </trkpt>
      <trkpt lat="42.02182" lon="-0.00992262">
        <time>2022-07-06T13:02:59Z</time>
      </trkpt>
      <trkpt lat="42.021763" lon="-0.01000462">
        <time>2022-07-06T13:03:01Z</time>
      </trkpt>
      <trkpt lat="42.021706" lon="-0.01008895">
        <time>2022-07-06T13:03:03Z</time>
      </trkpt>
      <trkpt lat="42.021645" lon="-0.01017261">
        <time>2022-07-06T13:03:05Z</time>
      </trkpt>
      <trkpt lat="42.021584" lon="-0.01025494">
        <time>2022-07-06T13:03:07Z</time>
      </trkpt>
      <trkpt lat="42.02152" lon="-0.01033327">
        <time>2022-07-06T13:03:09Z</time>
      </trkpt>
      <trkpt lat="42.021458" lon="-0.01040893">
        <time>2022-07-06T13:03:11Z</time>
      </trkpt>
      <trkpt lat="42.021397" lon="-0.01048626">
        <time>2022-07-06T13:03:13Z</time>
      </trkpt>
      <trkpt lat="42.02133" lon="-0.01056559">
        <time>2022-07-06T13:03:15Z</time>
      </trkpt>
      <trkpt lat="42.021275" lon="-0.01065159">
        <time>2022-07-06T13:03:17Z</time>
      </trkpt>
      <trkpt lat="42.021217" lon="-0.01074359">
        <time>2022-07-06T13:03:19Z</time>
      </trkpt>
      <trkpt lat="42.02116" lon="-0.01084359">
        <time>2022-07-06T13:03:21Z</time>
      </trkpt>
      <trkpt lat="42.021103" lon="-0.01094392">
        <time>2022-07-06T13:03:23Z</time>
      </trkpt>
      <trkpt lat="42.02105" lon="-0.01104158">
        <time>2022-07-06T13:03:25Z</time>
      </trkpt>
      <trkpt lat="42.02102" lon="-0.01109158">
        <time>2022-07-06T13:03:26Z</time>
      </trkpt>
      <trkpt lat="42.02096" lon="-0.01119591">
        <time>2022-07-06T13:03:28Z</time>
      </trkpt>
      <trkpt lat="42.020905" lon="-0.01129657">
        <time>2022-07-06T13:03:30Z</time>
      </trkpt>
      <trkpt lat="42.020844" lon="-0.01140257">
        <time>2022-07-06T13:03:32Z</time>
      </trkpt>
      <trkpt lat="42.020817" lon="-0.0114529">
        <time>2022-07-06T13:03:33Z</time>
      </trkpt>
      <trkpt lat="42.02076" lon="-0.01155423">
        <time>2022-07-06T13:03:35Z</time>
      </trkpt>
      <trkpt lat="42.0207" lon="-0.01165556">
        <time>2022-07-06T13:03:37Z</time>
      </trkpt>
      <trkpt lat="42.020668" lon="-0.01170722">
        <time>2022-07-06T13:03:38Z</time>
      </trkpt>
      <trkpt lat="42.020607" lon="-0.01181022">
        <time>2022-07-06T13:03:40Z</time>
      </trkpt>
      <trkpt lat="42.020546" lon="-0.01191455">
        <time>2022-07-06T13:03:42Z</time>
      </trkpt>
      <trkpt lat="42.02052" lon="-0.01196688">
        <time>2022-07-06T13:03:43Z</time>
      </trkpt>
      <trkpt lat="42.02046" lon="-0.01207254">
        <time>2022-07-06T13:03:45Z</time>
      </trkpt>
      <trkpt lat="42.020397" lon="-0.01217954">
        <time>2022-07-06T13:03:47Z</time>
      </trkpt>
      <trkpt lat="42.02034" lon="-0.01228754">
        <time>2022-07-06T13:03:49Z</time>
      </trkpt>
      <trkpt lat="42.02031" lon="-0.01234154">
        <time>2022-07-06T13:03:50Z</time>
      </trkpt>
      <trkpt lat="42.02025" lon="-0.01245487">
        <time>2022-07-06T13:03:52Z</time>
      </trkpt>
      <trkpt lat="42.02019" lon="-0.0125672">
        <time>2022-07-06T13:03:54Z</time>
      </trkpt>
      <trkpt lat="42.02016" lon="-0.01262153">
        <time>2022-07-06T13:03:55Z</time>
      </trkpt>
      <trkpt lat="42.020103" lon="-0.01272119">
        <time>2022-07-06T13:03:57Z</time>
      </trkpt>
      <trkpt lat="42.020046" lon="-0.01282485">
        <time>2022-07-06T13:03:59Z</time>
      </trkpt>
      <trkpt lat="42.02002" lon="-0.01287485">
        <time>2022-07-06T13:04:00Z</time>
      </trkpt>
      <trkpt lat="42.019962" lon="-0.01297451">
        <time>2022-07-06T13:04:02Z</time>
      </trkpt>
      <trkpt lat="42.0199" lon="-0.01307351">
        <time>2022-07-06T13:04:04Z</time>
      </trkpt>
      <trkpt lat="42.019875" lon="-0.01312284">
        <time>2022-07-06T13:04:05Z</time>
      </trkpt>
      <trkpt lat="42.019817" lon="-0.01322217">
        <time>2022-07-06T13:04:07Z</time>
      </trkpt>
      <trkpt lat="42.01976" lon="-0.01332017">
        <time>2022-07-06T13:04:09Z</time>
      </trkpt>
      <trkpt lat="42.019695" lon="-0.0134235">
        <time>2022-07-06T13:04:11Z</time>
      </trkpt>
      <trkpt lat="42.01967" lon="-0.01347183">
        <time>2022-07-06T13:04:12Z</time>
      </trkpt>
      <trkpt lat="42.019615" lon="-0.01356816">
        <time>2022-07-06T13:04:14Z</time>
      </trkpt>
      <trkpt lat="42.019558" lon="-0.01366949">
        <time>2022-07-06T13:04:16Z</time>
      </trkpt>
      <trkpt lat="42.01951" lon="-0.01376382">
        <time>2022-07-06T13:04:18Z</time>
      </trkpt>
      <trkpt lat="42.019455" lon="-0.01386182">
        <time>2022-07-06T13:04:20Z</time>
      </trkpt>
      <trkpt lat="42.0194" lon="-0.01394882">
        <time>2022-07-06T13:04:22Z</time>
      </trkpt>
      <trkpt lat="42.019352" lon="-0.01402482">
        <time>2022-07-06T13:04:24Z</time>
      </trkpt>
      <trkpt lat="42.019302" lon="-0.01409948">
        <time>2022-07-06T13:04:26Z</time>
      </trkpt>
      <trkpt lat="42.01926" lon="-0.01417381">
        <time>2022-07-06T13:04:28Z</time>
      </trkpt>
      <trkpt lat="42.01922" lon="-0.01424481">
        <time>2022-07-06T13:04:30Z</time>
      </trkpt>
      <trkpt lat="42.01918" lon="-0.01431381">
        <time>2022-07-06T13:04:32Z</time>
      </trkpt>
      <trkpt lat="42.019142" lon="-0.01438014">
        <time>2022-07-06T13:04:34Z</time>
      </trkpt>
      <trkpt lat="42.0191" lon="-0.01444547">
        <time>2022-07-06T13:04:36Z</time>
      </trkpt>
      <trkpt lat="42.019066" lon="-0.01451113">
        <time>2022-07-06T13:04:38Z</time>
      </trkpt>
      <trkpt lat="42.019028" lon="-0.01457613">
        <time>2022-07-06T13:04:40Z</time>
      </trkpt>
      <trkpt lat="42.01899" lon="-0.01464246">
        <time>2022-07-06T13:04:42Z</time>
      </trkpt>
      <trkpt lat="42.01895" lon="-0.01470512">
        <time>2022-07-06T13:04:44Z</time>
      </trkpt>
      <trkpt lat="42.018917" lon="-0.01476845">
        <time>2022-07-06T13:04:46Z</time>
      </trkpt>
      <trkpt lat="42.01888" lon="-0.01483045">
        <time>2022-07-06T13:04:48Z</time>
      </trkpt>
      <trkpt lat="42.01885" lon="-0.01488945">
        <time>2022-07-06T13:04:50Z</time>
      </trkpt>
      <trkpt lat="42.018814" lon="-0.01494778">
        <time>2022-07-06T13:04:52Z</time>
      </trkpt>
      <trkpt lat="42.018784" lon="-0.01500578">
        <time>2022-07-06T13:04:54Z</time>
      </trkpt>
      <trkpt lat="42.018734" lon="-0.01509178">
        <time>2022-07-06T13:04:57Z</time>
      </trkpt>
      <trkpt lat="42.0187" lon="-0.01514511">
        <time>2022-07-06T13:04:59Z</time>
      </trkpt>
      <trkpt lat="42.018665" lon="-0.01519477">
        <time>2022-07-06T13:05:01Z</time>
      </trkpt>
      <trkpt lat="42.01863" lon="-0.01525043">
        <time>2022-07-06T13:05:03Z</time>
      </trkpt>
      <trkpt lat="42.018585" lon="-0.01532876">
        <time>2022-07-06T13:05:06Z</time>
      </trkpt>
      <trkpt lat="42.018555" lon="-0.01538409">
        <time>2022-07-06T13:05:08Z</time>
      </trkpt>
      <trkpt lat="42.018524" lon="-0.01543875">
        <time>2022-07-06T13:05:10Z</time>
      </trkpt>
      <trkpt lat="42.018475" lon="-0.01552208">
        <time>2022-07-06T13:05:13Z</time>
      </trkpt>
      <trkpt lat="42.018444" lon="-0.01557708">
        <time>2022-07-06T13:05:15Z</time>
      </trkpt>
      <trkpt lat="42.0184" lon="-0.01565574">
        <time>2022-07-06T13:05:18Z</time>
      </trkpt>
      <trkpt lat="42.018364" lon="-0.0157154">
        <time>2022-07-06T13:05:20Z</time>
      </trkpt>
      <trkpt lat="42.018337" lon="-0.01577206">
        <time>2022-07-06T13:05:22Z</time>
      </trkpt>
      <trkpt lat="42.018307" lon="-0.01583106">
        <time>2022-07-06T13:05:24Z</time>
      </trkpt>
      <trkpt lat="42.01828" lon="-0.01588806">
        <time>2022-07-06T13:05:26Z</time>
      </trkpt>
      <trkpt lat="42.01823" lon="-0.01597439">
        <time>2022-07-06T13:05:29Z</time>
      </trkpt>
      <trkpt lat="42.0182" lon="-0.01603105">
        <time>2022-07-06T13:05:31Z</time>
      </trkpt>
      <trkpt lat="42.018166" lon="-0.01609205">
        <time>2022-07-06T13:05:33Z</time>
      </trkpt>
      <trkpt lat="42.018127" lon="-0.01615605">
        <time>2022-07-06T13:05:35Z</time>
      </trkpt>
      <trkpt lat="42.01809" lon="-0.01622171">
        <time>2022-07-06T13:05:37Z</time>
      </trkpt>
      <trkpt lat="42.01805" lon="-0.01629137">
        <time>2022-07-06T13:05:39Z</time>
      </trkpt>
      <trkpt lat="42.018005" lon="-0.0163707">
        <time>2022-07-06T13:05:41Z</time>
      </trkpt>
      <trkpt lat="42.017963" lon="-0.0164497">
        <time>2022-07-06T13:05:43Z</time>
      </trkpt>
      <trkpt lat="42.017914" lon="-0.01653103">
        <time>2022-07-06T13:05:45Z</time>
      </trkpt>
      <trkpt lat="42.01786" lon="-0.01661903">
        <time>2022-07-06T13:05:47Z</time>
      </trkpt>
      <trkpt lat="42.017807" lon="-0.01670869">
        <time>2022-07-06T13:05:49Z</time>
      </trkpt>
      <trkpt lat="42.017754" lon="-0.01680469">
        <time>2022-07-06T13:05:51Z</time>
      </trkpt>
      <trkpt lat="42.0177" lon="-0.01689935">
        <time>2022-07-06T13:05:53Z</time>
      </trkpt>
      <trkpt lat="42.017647" lon="-0.01699768">
        <time>2022-07-06T13:05:55Z</time>
      </trkpt>
      <trkpt lat="42.01759" lon="-0.01709968">
        <time>2022-07-06T13:05:57Z</time>
      </trkpt>
      <trkpt lat="42.01756" lon="-0.01715101">
        <time>2022-07-06T13:05:58Z</time>
      </trkpt>
      <trkpt lat="42.017498" lon="-0.01725234">
        <time>2022-07-06T13:06:00Z</time>
      </trkpt>
      <trkpt lat="42.01747" lon="-0.01730334">
        <time>2022-07-06T13:06:01Z</time>
      </trkpt>
      <trkpt lat="42.01741" lon="-0.017405">
        <time>2022-07-06T13:06:03Z</time>
      </trkpt>
      <trkpt lat="42.01735" lon="-0.01750533">
        <time>2022-07-06T13:06:05Z</time>
      </trkpt>
      <trkpt lat="42.017292" lon="-0.01760533">
        <time>2022-07-06T13:06:07Z</time>
      </trkpt>
      <trkpt lat="42.01723" lon="-0.01770899">
        <time>2022-07-06T13:06:09Z</time>
      </trkpt>
      <trkpt lat="42.0172" lon="-0.01776099">
        <time>2022-07-06T13:06:10Z</time>
      </trkpt>
      <trkpt lat="42.017143" lon="-0.01786365">
        <time>2022-07-06T13:06:12Z</time>
      </trkpt>
      <trkpt lat="42.017082" lon="-0.01796531">
        <time>2022-07-06T13:06:14Z</time>
      </trkpt>
      <trkpt lat="42.01702" lon="-0.01806464">
        <time>2022-07-06T13:06:16Z</time>
      </trkpt>
      <trkpt lat="42.016956" lon="-0.0181663">
        <time>2022-07-06T13:06:18Z</time>
      </trkpt>
      <trkpt lat="42.0169" lon="-0.0182623">
        <time>2022-07-06T13:06:20Z</time>
      </trkpt>
      <trkpt lat="42.016846" lon="-0.0183573">
        <time>2022-07-06T13:06:22Z</time>
      </trkpt>
      <trkpt lat="42.016796" lon="-0.01844963">
        <time>2022-07-06T13:06:24Z</time>
      </trkpt>
      <trkpt lat="42.01675" lon="-0.01853229">
        <time>2022-07-06T13:06:26Z</time>
      </trkpt>
      <trkpt lat="42.016705" lon="-0.01861395">
        <time>2022-07-06T13:06:28Z</time>
      </trkpt>
      <trkpt lat="42.016663" lon="-0.01869195">
        <time>2022-07-06T13:06:30Z</time>
      </trkpt>
      <trkpt lat="42.01662" lon="-0.01876628">
        <time>2022-07-06T13:06:32Z</time>
      </trkpt>
      <trkpt lat="42.016575" lon="-0.01884361">
        <time>2022-07-06T13:06:34Z</time>
      </trkpt>
      <trkpt lat="42.016537" lon="-0.01891827">
        <time>2022-07-06T13:06:36Z</time>
      </trkpt>
      <trkpt lat="42.01649" lon="-0.0189926">
        <time>2022-07-06T13:06:38Z</time>
      </trkpt>
      <trkpt lat="42.016453" lon="-0.0190646">
        <time>2022-07-06T13:06:40Z</time>
      </trkpt>
      <trkpt lat="42.01641" lon="-0.01912993">
        <time>2022-07-06T13:06:42Z</time>
      </trkpt>
      <trkpt lat="42.016373" lon="-0.01919359">
        <time>2022-07-06T13:06:44Z</time>
      </trkpt>
      <trkpt lat="42.01633" lon="-0.01925892">
        <time>2022-07-06T13:06:46Z</time>
      </trkpt>
      <trkpt lat="42.016293" lon="-0.01932525">
        <time>2022-07-06T13:06:48Z</time>
      </trkpt>
      <trkpt lat="42.01625" lon="-0.01939525">
        <time>2022-07-06T13:06:50Z</time>
      </trkpt>
      <trkpt lat="42.016212" lon="-0.01946958">
        <time>2022-07-06T13:06:52Z</time>
      </trkpt>
      <trkpt lat="42.01617" lon="-0.01954291">
        <time>2022-07-06T13:06:54Z</time>
      </trkpt>
      <trkpt lat="42.01613" lon="-0.01961657">
        <time>2022-07-06T13:06:56Z</time>
      </trkpt>
      <trkpt lat="42.016083" lon="-0.01969257">
        <time>2022-07-06T13:06:58Z</time>
      </trkpt>
      <trkpt lat="42.01604" lon="-0.01977057">
        <time>2022-07-06T13:07:00Z</time>
      </trkpt>
      <trkpt lat="42.015995" lon="-0.0198469">
        <time>2022-07-06T13:07:02Z</time>
      </trkpt>
      <trkpt lat="42.01595" lon="-0.0199239">
        <time>2022-07-06T13:07:04Z</time>
      </trkpt>
      <trkpt lat="42.0159" lon="-0.02000356">
        <time>2022-07-06T13:07:06Z</time>
      </trkpt>
      <trkpt lat="42.015854" lon="-0.02008322">
        <time>2022-07-06T13:07:08Z</time>
      </trkpt>
      <trkpt lat="42.015816" lon="-0.02015988">
        <time>2022-07-06T13:07:10Z</time>
      </trkpt>
      <trkpt lat="42.015774" lon="-0.02023721">
        <time>2022-07-06T13:07:12Z</time>
      </trkpt>
      <trkpt lat="42.01573" lon="-0.02031154">
        <time>2022-07-06T13:07:14Z</time>
      </trkpt>
      <trkpt lat="42.01569" lon="-0.02038554">
        <time>2022-07-06T13:07:16Z</time>
      </trkpt>
      <trkpt lat="42.015644" lon="-0.0204642">
        <time>2022-07-06T13:07:18Z</time>
      </trkpt>
      <trkpt lat="42.0156" lon="-0.0205422">
        <time>2022-07-06T13:07:20Z</time>
      </trkpt>
      <trkpt lat="42.015553" lon="-0.02062086">
        <time>2022-07-06T13:07:22Z</time>
      </trkpt>
      <trkpt lat="42.015507" lon="-0.02070052">
        <time>2022-07-06T13:07:24Z</time>
      </trkpt>
      <trkpt lat="42.01546" lon="-0.02077985">
        <time>2022-07-06T13:07:26Z</time>
      </trkpt>
      <trkpt lat="42.01542" lon="-0.02085451">
        <time>2022-07-06T13:07:28Z</time>
      </trkpt>
      <trkpt lat="42.01538" lon="-0.02092717">
        <time>2022-07-06T13:07:30Z</time>
      </trkpt>
      <trkpt lat="42.015343" lon="-0.0209945">
        <time>2022-07-06T13:07:32Z</time>
      </trkpt>
      <trkpt lat="42.01531" lon="-0.0210565">
        <time>2022-07-06T13:07:34Z</time>
      </trkpt>
      <trkpt lat="42.015274" lon="-0.02111583">
        <time>2022-07-06T13:07:36Z</time>
      </trkpt>
      <trkpt lat="42.015244" lon="-0.02117149">
        <time>2022-07-06T13:07:38Z</time>
      </trkpt>
      <trkpt lat="42.015217" lon="-0.02122149">
        <time>2022-07-06T13:07:40Z</time>
      </trkpt>
      <trkpt lat="42.015175" lon="-0.02129015">
        <time>2022-07-06T13:07:43Z</time>
      </trkpt>
      <trkpt lat="42.015133" lon="-0.02136115">
        <time>2022-07-06T13:07:46Z</time>
      </trkpt>
      <trkpt lat="42.015095" lon="-0.02143015">
        <time>2022-07-06T13:07:49Z</time>
      </trkpt>
      <trkpt lat="42.015057" lon="-0.02149681">
        <time>2022-07-06T13:07:52Z</time>
      </trkpt>
      <trkpt lat="42.015015" lon="-0.02156347">
        <time>2022-07-06T13:07:55Z</time>
      </trkpt>
      <trkpt lat="42.01498" lon="-0.02163413">
        <time>2022-07-06T13:07:58Z</time>
      </trkpt>
      <trkpt lat="42.01494" lon="-0.02170613">
        <time>2022-07-06T13:08:01Z</time>
      </trkpt>
      <trkpt lat="42.014893" lon="-0.02177279">
        <time>2022-07-06T13:08:04Z</time>
      </trkpt>
      <trkpt lat="42.01485" lon="-0.02184045">
        <time>2022-07-06T13:08:07Z</time>
      </trkpt>
      <trkpt lat="42.01481" lon="-0.02190945">
        <time>2022-07-06T13:08:10Z</time>
      </trkpt>
      <trkpt lat="42.01477" lon="-0.02197311">
        <time>2022-07-06T13:08:13Z</time>
      </trkpt>
      <trkpt lat="42.014732" lon="-0.02203344">
        <time>2022-07-06T13:08:16Z</time>
      </trkpt>
      <trkpt lat="42.014698" lon="-0.0220951">
        <time>2022-07-06T13:08:19Z</time>
      </trkpt>
      <trkpt lat="42.01466" lon="-0.02215743">
        <time>2022-07-06T13:08:22Z</time>
      </trkpt>
      <trkpt lat="42.014626" lon="-0.02222209">
        <time>2022-07-06T13:08:25Z</time>
      </trkpt>
      <trkpt lat="42.014587" lon="-0.02228575">
        <time>2022-07-06T13:08:28Z</time>
      </trkpt>
      <trkpt lat="42.01455" lon="-0.02235241">
        <time>2022-07-06T13:08:31Z</time>
      </trkpt>
      <trkpt lat="42.014515" lon="-0.02241641">
        <time>2022-07-06T13:08:34Z</time>
      </trkpt>
      <trkpt lat="42.014477" lon="-0.02247507">
        <time>2022-07-06T13:08:37Z</time>
      </trkpt>
      <trkpt lat="42.014442" lon="-0.0225354">
        <time>2022-07-06T13:08:40Z</time>
      </trkpt>
      <trkpt lat="42.01441" lon="-0.02259873">
        <time>2022-07-06T13:08:43Z</time>
      </trkpt>
      <trkpt lat="42.014374" lon="-0.02266406">
        <time>2022-07-06T13:08:46Z</time>
      </trkpt>
      <trkpt lat="42.01433" lon="-0.02273006">
        <time>2022-07-06T13:08:49Z</time>
      </trkpt>
      <trkpt lat="42.014294" lon="-0.02279239">
        <time>2022-07-06T13:08:52Z</time>
      </trkpt>
      <trkpt lat="42.01425" lon="-0.02285139">
        <time>2022-07-06T13:08:55Z</time>
      </trkpt>
      <trkpt lat="42.014214" lon="-0.02290539">
        <time>2022-07-06T13:08:58Z</time>
      </trkpt>
      <trkpt lat="42.01417" lon="-0.02295172">
        <time>2022-07-06T13:09:01Z</time>
      </trkpt>
      <trkpt lat="42.014107" lon="-0.02298838">
        <time>2022-07-06T13:09:05Z</time>
      </trkpt>
      <trkpt lat="42.01405" lon="-0.02299671">
        <time>2022-07-06T13:09:08Z</time>
      </trkpt>
      <trkpt lat="42.01399" lon="-0.02298705">
        <time>2022-07-06T13:09:11Z</time>
      </trkpt>
      <trkpt lat="42.01393" lon="-0.02295639">
        <time>2022-07-06T13:09:14Z</time>
      </trkpt>
      <trkpt lat="42.01387" lon="-0.02290406">
        <time>2022-07-06T13:09:17Z</time>
      </trkpt>
      <trkpt lat="42.013813" lon="-0.0228484">
        <time>2022-07-06T13:09:20Z</time>
      </trkpt>
      <trkpt lat="42.013763" lon="-0.02278807">
        <time>2022-07-06T13:09:23Z</time>
      </trkpt>
      <trkpt lat="42.01371" lon="-0.02272807">
        <time>2022-07-06T13:09:26Z</time>
      </trkpt>
      <trkpt lat="42.013664" lon="-0.02267541">
        <time>2022-07-06T13:09:29Z</time>
      </trkpt>
      <trkpt lat="42.01362" lon="-0.02261875">
        <time>2022-07-06T13:09:32Z</time>
      </trkpt>
      <trkpt lat="42.013565" lon="-0.02256009">
        <time>2022-07-06T13:09:35Z</time>
      </trkpt>
      <trkpt lat="42.013508" lon="-0.02249576">
        <time>2022-07-06T13:09:38Z</time>
      </trkpt>
      <trkpt lat="42.01347" lon="-0.02244976">
        <time>2022-07-06T13:09:40Z</time>
      </trkpt>
      <trkpt lat="42.013416" lon="-0.02238376">
        <time>2022-07-06T13:09:43Z</time>
      </trkpt>
      <trkpt lat="42.013367" lon="-0.0223171">
        <time>2022-07-06T13:09:46Z</time>
      </trkpt>
      <trkpt lat="42.013313" lon="-0.0222491">
        <time>2022-07-06T13:09:49Z</time>
      </trkpt>
      <trkpt lat="42.013252" lon="-0.0221811">
        <time>2022-07-06T13:09:52Z</time>
      </trkpt>
      <trkpt lat="42.013218" lon="-0.02212177">
        <time>2022-07-06T13:09:54Z</time>
      </trkpt>
      <trkpt lat="42.013184" lon="-0.02204944">
        <time>2022-07-06T13:09:56Z</time>
      </trkpt>
      <trkpt lat="42.01316" lon="-0.02196811">
        <time>2022-07-06T13:09:58Z</time>
      </trkpt>
      <trkpt lat="42.013145" lon="-0.02187711">
        <time>2022-07-06T13:10:00Z</time>
      </trkpt>
      <trkpt lat="42.013145" lon="-0.02178211">
        <time>2022-07-06T13:10:02Z</time>
      </trkpt>
      <trkpt lat="42.013153" lon="-0.02168078">
        <time>2022-07-06T13:10:04Z</time>
      </trkpt>
      <trkpt lat="42.013172" lon="-0.02158512">
        <time>2022-07-06T13:10:06Z</time>
      </trkpt>
      <trkpt lat="42.013187" lon="-0.02148912">
        <time>2022-07-06T13:10:08Z</time>
      </trkpt>
      <trkpt lat="42.013206" lon="-0.02139346">
        <time>2022-07-06T13:10:10Z</time>
      </trkpt>
      <trkpt lat="42.01322" lon="-0.0212908">
        <time>2022-07-06T13:10:12Z</time>
      </trkpt>
      <trkpt lat="42.013233" lon="-0.02118647">
        <time>2022-07-06T13:10:14Z</time>
      </trkpt>
      <trkpt lat="42.01324" lon="-0.02108481">
        <time>2022-07-06T13:10:16Z</time>
      </trkpt>
      <trkpt lat="42.013245" lon="-0.02098381">
        <time>2022-07-06T13:10:18Z</time>
      </trkpt>
      <trkpt lat="42.013245" lon="-0.02087948">
        <time>2022-07-06T13:10:20Z</time>
      </trkpt>
      <trkpt lat="42.013233" lon="-0.02077448">
        <time>2022-07-06T13:10:22Z</time>
      </trkpt>
      <trkpt lat="42.013218" lon="-0.02066782">
        <time>2022-07-06T13:10:24Z</time>
      </trkpt>
      <trkpt lat="42.013195" lon="-0.02056216">
        <time>2022-07-06T13:10:26Z</time>
      </trkpt>
      <trkpt lat="42.013165" lon="-0.0204585">
        <time>2022-07-06T13:10:28Z</time>
      </trkpt>
      <trkpt lat="42.01313" lon="-0.02035484">
        <time>2022-07-06T13:10:30Z</time>
      </trkpt>
      <trkpt lat="42.01309" lon="-0.02025484">
        <time>2022-07-06T13:10:32Z</time>
      </trkpt>
      <trkpt lat="42.01304" lon="-0.02015684">
        <time>2022-07-06T13:10:34Z</time>
      </trkpt>
      <trkpt lat="42.01298" lon="-0.02006151">
        <time>2022-07-06T13:10:36Z</time>
      </trkpt>
      <trkpt lat="42.01292" lon="-0.01996585">
        <time>2022-07-06T13:10:38Z</time>
      </trkpt>
      <trkpt lat="42.01289" lon="-0.01991719">
        <time>2022-07-06T13:10:39Z</time>
      </trkpt>
      <trkpt lat="42.01283" lon="-0.01981853">
        <time>2022-07-06T13:10:41Z</time>
      </trkpt>
      <trkpt lat="42.0128" lon="-0.0197692">
        <time>2022-07-06T13:10:42Z</time>
      </trkpt>
      <trkpt lat="42.01274" lon="-0.01966987">
        <time>2022-07-06T13:10:44Z</time>
      </trkpt>
      <trkpt lat="42.012684" lon="-0.01957087">
        <time>2022-07-06T13:10:46Z</time>
      </trkpt>
      <trkpt lat="42.012653" lon="-0.01952154">
        <time>2022-07-06T13:10:47Z</time>
      </trkpt>
      <trkpt lat="42.012592" lon="-0.01942154">
        <time>2022-07-06T13:10:49Z</time>
      </trkpt>
      <trkpt lat="42.012566" lon="-0.01937088">
        <time>2022-07-06T13:10:50Z</time>
      </trkpt>
      <trkpt lat="42.012505" lon="-0.01926822">
        <time>2022-07-06T13:10:52Z</time>
      </trkpt>
      <trkpt lat="42.012478" lon="-0.01921722">
        <time>2022-07-06T13:10:53Z</time>
      </trkpt>
      <trkpt lat="42.012424" lon="-0.01911489">
        <time>2022-07-06T13:10:55Z</time>
      </trkpt>
      <trkpt lat="42.012375" lon="-0.01902056">
        <time>2022-07-06T13:10:57Z</time>
      </trkpt>
      <trkpt lat="42.01232" lon="-0.01893323">
        <time>2022-07-06T13:10:59Z</time>
      </trkpt>
      <trkpt lat="42.01227" lon="-0.01884957">
        <time>2022-07-06T13:11:01Z</time>
      </trkpt>
      <trkpt lat="42.012226" lon="-0.01876924">
        <time>2022-07-06T13:11:03Z</time>
      </trkpt>
      <trkpt lat="42.012184" lon="-0.01869591">
        <time>2022-07-06T13:11:05Z</time>
      </trkpt>
      <trkpt lat="42.012142" lon="-0.01863425">
        <time>2022-07-06T13:11:07Z</time>
      </trkpt>
      <trkpt lat="42.01211" lon="-0.01859759">
        <time>2022-07-06T13:11:09Z</time>
      </trkpt>
      <trkpt lat="42.012062" lon="-0.01867959">
        <time>2022-07-06T13:12:44Z</time>
      </trkpt>
      <trkpt lat="42.01207" lon="-0.01876692">
        <time>2022-07-06T13:12:46Z</time>
      </trkpt>
      <trkpt lat="42.012077" lon="-0.01887258">
        <time>2022-07-06T13:12:48Z</time>
      </trkpt>
      <trkpt lat="42.01209" lon="-0.01898858">
        <time>2022-07-06T13:12:50Z</time>
      </trkpt>
      <trkpt lat="42.0121" lon="-0.01911058">
        <time>2022-07-06T13:12:52Z</time>
      </trkpt>
      <trkpt lat="42.012115" lon="-0.01923558">
        <time>2022-07-06T13:12:54Z</time>
      </trkpt>
      <trkpt lat="42.012127" lon="-0.01936158">
        <time>2022-07-06T13:12:56Z</time>
      </trkpt>
      <trkpt lat="42.01214" lon="-0.01948691">
        <time>2022-07-06T13:12:58Z</time>
      </trkpt>
      <trkpt lat="42.01215" lon="-0.01960857">
        <time>2022-07-06T13:13:00Z</time>
      </trkpt>
      <trkpt lat="42.012154" lon="-0.01972657">
        <time>2022-07-06T13:13:02Z</time>
      </trkpt>
      <trkpt lat="42.01216" lon="-0.01984357">
        <time>2022-07-06T13:13:04Z</time>
      </trkpt>
      <trkpt lat="42.01217" lon="-0.0199579">
        <time>2022-07-06T13:13:06Z</time>
      </trkpt>
      <trkpt lat="42.012177" lon="-0.02007223">
        <time>2022-07-06T13:13:08Z</time>
      </trkpt>
      <trkpt lat="42.012177" lon="-0.02018689">
        <time>2022-07-06T13:13:10Z</time>
      </trkpt>
      <trkpt lat="42.012184" lon="-0.02029555">
        <time>2022-07-06T13:13:12Z</time>
      </trkpt>
      <trkpt lat="42.012188" lon="-0.02039855">
        <time>2022-07-06T13:13:14Z</time>
      </trkpt>
      <trkpt lat="42.012196" lon="-0.02049321">
        <time>2022-07-06T13:13:16Z</time>
      </trkpt>
      <trkpt lat="42.012203" lon="-0.02058687">
        <time>2022-07-06T13:13:18Z</time>
      </trkpt>
      <trkpt lat="42.01221" lon="-0.02067987">
        <time>2022-07-06T13:13:20Z</time>
      </trkpt>
      <trkpt lat="42.01222" lon="-0.02076953">
        <time>2022-07-06T13:13:22Z</time>
      </trkpt>
      <trkpt lat="42.01223" lon="-0.02085653">
        <time>2022-07-06T13:13:24Z</time>
      </trkpt>
      <trkpt lat="42.01224" lon="-0.02094219">
        <time>2022-07-06T13:13:26Z</time>
      </trkpt>
      <trkpt lat="42.012257" lon="-0.02107219">
        <time>2022-07-06T13:13:29Z</time>
      </trkpt>
      <trkpt lat="42.012268" lon="-0.02115952">
        <time>2022-07-06T13:13:31Z</time>
      </trkpt>
      <trkpt lat="42.01228" lon="-0.02124752">
        <time>2022-07-06T13:13:33Z</time>
      </trkpt>
      <trkpt lat="42.01229" lon="-0.02133485">
        <time>2022-07-06T13:13:35Z</time>
      </trkpt>
      <trkpt lat="42.012302" lon="-0.02142251">
        <time>2022-07-06T13:13:37Z</time>
      </trkpt>
      <trkpt lat="42.012314" lon="-0.02150984">
        <time>2022-07-06T13:13:39Z</time>
      </trkpt>
      <trkpt lat="42.012325" lon="-0.0215955">
        <time>2022-07-06T13:13:41Z</time>
      </trkpt>
      <trkpt lat="42.012333" lon="-0.02167916">
        <time>2022-07-06T13:13:43Z</time>
      </trkpt>
      <trkpt lat="42.01234" lon="-0.02176316">
        <time>2022-07-06T13:13:45Z</time>
      </trkpt>
      <trkpt lat="42.01235" lon="-0.02184916">
        <time>2022-07-06T13:13:47Z</time>
      </trkpt>
      <trkpt lat="42.012352" lon="-0.02193616">
        <time>2022-07-06T13:13:49Z</time>
      </trkpt>
      <trkpt lat="42.01236" lon="-0.02202016">
        <time>2022-07-06T13:13:51Z</time>
      </trkpt>
      <trkpt lat="42.012363" lon="-0.02210716">
        <time>2022-07-06T13:13:53Z</time>
      </trkpt>
      <trkpt lat="42.012367" lon="-0.02219349">
        <time>2022-07-06T13:13:55Z</time>
      </trkpt>
      <trkpt lat="42.01237" lon="-0.02228049">
        <time>2022-07-06T13:13:57Z</time>
      </trkpt>
      <trkpt lat="42.01238" lon="-0.02236649">
        <time>2022-07-06T13:13:59Z</time>
      </trkpt>
      <trkpt lat="42.012383" lon="-0.02244782">
        <time>2022-07-06T13:14:01Z</time>
      </trkpt>
      <trkpt lat="42.012386" lon="-0.02252848">
        <time>2022-07-06T13:14:03Z</time>
      </trkpt>
      <trkpt lat="42.012394" lon="-0.02261314">
        <time>2022-07-06T13:14:05Z</time>
      </trkpt>
      <trkpt lat="42.012405" lon="-0.02270014">
        <time>2022-07-06T13:14:07Z</time>
      </trkpt>
      <trkpt lat="42.012417" lon="-0.0227878">
        <time>2022-07-06T13:14:09Z</time>
      </trkpt>
      <trkpt lat="42.012424" lon="-0.0228768">
        <time>2022-07-06T13:14:11Z</time>
      </trkpt>
      <trkpt lat="42.012432" lon="-0.02296346">
        <time>2022-07-06T13:14:13Z</time>
      </trkpt>
      <trkpt lat="42.01244" lon="-0.02305079">
        <time>2022-07-06T13:14:15Z</time>
      </trkpt>
      <trkpt lat="42.012447" lon="-0.02313879">
        <time>2022-07-06T13:14:17Z</time>
      </trkpt>
      <trkpt lat="42.01245" lon="-0.02322679">
        <time>2022-07-06T13:14:19Z</time>
      </trkpt>
      <trkpt lat="42.01246" lon="-0.02331579">
        <time>2022-07-06T13:14:21Z</time>
      </trkpt>
      <trkpt lat="42.012466" lon="-0.02340345">
        <time>2022-07-06T13:14:23Z</time>
      </trkpt>
      <trkpt lat="42.012478" lon="-0.02349078">
        <time>2022-07-06T13:14:25Z</time>
      </trkpt>
      <trkpt lat="42.012486" lon="-0.02357444">
        <time>2022-07-06T13:14:27Z</time>
      </trkpt>
      <trkpt lat="42.01249" lon="-0.02366244">
        <time>2022-07-06T13:14:29Z</time>
      </trkpt>
      <trkpt lat="42.012497" lon="-0.02374977">
        <time>2022-07-06T13:14:31Z</time>
      </trkpt>
      <trkpt lat="42.01251" lon="-0.0238351">
        <time>2022-07-06T13:14:33Z</time>
      </trkpt>
      <trkpt lat="42.012516" lon="-0.0239211">
        <time>2022-07-06T13:14:35Z</time>
      </trkpt>
      <trkpt lat="42.012524" lon="-0.0240041">
        <time>2022-07-06T13:14:37Z</time>
      </trkpt>
      <trkpt lat="42.012527" lon="-0.0240871">
        <time>2022-07-06T13:14:39Z</time>
      </trkpt>
      <trkpt lat="42.01253" lon="-0.02421143">
        <time>2022-07-06T13:14:42Z</time>
      </trkpt>
      <trkpt lat="42.01254" lon="-0.02428976">
        <time>2022-07-06T13:14:44Z</time>
      </trkpt>
      <trkpt lat="42.012543" lon="-0.02436442">
        <time>2022-07-06T13:14:46Z</time>
      </trkpt>
      <trkpt lat="42.01255" lon="-0.02444008">
        <time>2022-07-06T13:14:48Z</time>
      </trkpt>
      <trkpt lat="42.01256" lon="-0.02451274">
        <time>2022-07-06T13:14:50Z</time>
      </trkpt>
      <trkpt lat="42.012573" lon="-0.0245864">
        <time>2022-07-06T13:14:52Z</time>
      </trkpt>
      <trkpt lat="42.01258" lon="-0.02466006">
        <time>2022-07-06T13:14:54Z</time>
      </trkpt>
      <trkpt lat="42.01259" lon="-0.02473606">
        <time>2022-07-06T13:14:56Z</time>
      </trkpt>
      <trkpt lat="42.012596" lon="-0.02481306">
        <time>2022-07-06T13:14:58Z</time>
      </trkpt>
      <trkpt lat="42.012604" lon="-0.02488906">
        <time>2022-07-06T13:15:00Z</time>
      </trkpt>
      <trkpt lat="42.012608" lon="-0.02496606">
        <time>2022-07-06T13:15:02Z</time>
      </trkpt>
      <trkpt lat="42.012615" lon="-0.02504272">
        <time>2022-07-06T13:15:04Z</time>
      </trkpt>
      <trkpt lat="42.01262" lon="-0.02511972">
        <time>2022-07-06T13:15:06Z</time>
      </trkpt>
      <trkpt lat="42.012623" lon="-0.02519905">
        <time>2022-07-06T13:15:08Z</time>
      </trkpt>
      <trkpt lat="42.012627" lon="-0.02527671">
        <time>2022-07-06T13:15:10Z</time>
      </trkpt>
      <trkpt lat="42.01263" lon="-0.02535204">
        <time>2022-07-06T13:15:12Z</time>
      </trkpt>
      <trkpt lat="42.012634" lon="-0.02542737">
        <time>2022-07-06T13:15:14Z</time>
      </trkpt>
      <trkpt lat="42.012638" lon="-0.0255017">
        <time>2022-07-06T13:15:16Z</time>
      </trkpt>
      <trkpt lat="42.01265" lon="-0.02557803">
        <time>2022-07-06T13:15:18Z</time>
      </trkpt>
      <trkpt lat="42.012657" lon="-0.02565669">
        <time>2022-07-06T13:15:20Z</time>
      </trkpt>
      <trkpt lat="42.012665" lon="-0.02573435">
        <time>2022-07-06T13:15:22Z</time>
      </trkpt>
      <trkpt lat="42.01267" lon="-0.02580968">
        <time>2022-07-06T13:15:24Z</time>
      </trkpt>
      <trkpt lat="42.012672" lon="-0.02588868">
        <time>2022-07-06T13:15:26Z</time>
      </trkpt>
      <trkpt lat="42.012672" lon="-0.02596468">
        <time>2022-07-06T13:15:28Z</time>
      </trkpt>
      <trkpt lat="42.012676" lon="-0.02604168">
        <time>2022-07-06T13:15:30Z</time>
      </trkpt>
      <trkpt lat="42.012684" lon="-0.02611768">
        <time>2022-07-06T13:15:32Z</time>
      </trkpt>
      <trkpt lat="42.012695" lon="-0.02619168">
        <time>2022-07-06T13:15:34Z</time>
      </trkpt>
      <trkpt lat="42.012703" lon="-0.02626468">
        <time>2022-07-06T13:15:36Z</time>
      </trkpt>
      <trkpt lat="42.012707" lon="-0.02633634">
        <time>2022-07-06T13:15:38Z</time>
      </trkpt>
      <trkpt lat="42.01271" lon="-0.02640334">
        <time>2022-07-06T13:15:40Z</time>
      </trkpt>
      <trkpt lat="42.012722" lon="-0.02650234">
        <time>2022-07-06T13:15:43Z</time>
      </trkpt>
      <trkpt lat="42.01273" lon="-0.02656567">
        <time>2022-07-06T13:15:45Z</time>
      </trkpt>
      <trkpt lat="42.01274" lon="-0.02665967">
        <time>2022-07-06T13:15:48Z</time>
      </trkpt>
      <trkpt lat="42.01275" lon="-0.026722">
        <time>2022-07-06T13:15:50Z</time>
      </trkpt>
      <trkpt lat="42.012753" lon="-0.02682">
        <time>2022-07-06T13:15:53Z</time>
      </trkpt>
      <trkpt lat="42.012756" lon="-0.026922">
        <time>2022-07-06T13:15:56Z</time>
      </trkpt>
      <trkpt lat="42.01276" lon="-0.02698666">
        <time>2022-07-06T13:15:58Z</time>
      </trkpt>
      <trkpt lat="42.012764" lon="-0.02708066">
        <time>2022-07-06T13:16:01Z</time>
      </trkpt>
      <trkpt lat="42.01277" lon="-0.02717366">
        <time>2022-07-06T13:16:04Z</time>
      </trkpt>
      <trkpt lat="42.01278" lon="-0.02723666">
        <time>2022-07-06T13:16:06Z</time>
      </trkpt>
      <trkpt lat="42.01279" lon="-0.02732866">
        <time>2022-07-06T13:16:09Z</time>
      </trkpt>
      <trkpt lat="42.012794" lon="-0.02739599">
        <time>2022-07-06T13:16:11Z</time>
      </trkpt>
      <trkpt lat="42.0128" lon="-0.02749399">
        <time>2022-07-06T13:16:14Z</time>
      </trkpt>
      <trkpt lat="42.01281" lon="-0.02759299">
        <time>2022-07-06T13:16:17Z</time>
      </trkpt>
      <trkpt lat="42.012814" lon="-0.02765565">
        <time>2022-07-06T13:16:19Z</time>
      </trkpt>
      <trkpt lat="42.01282" lon="-0.02774831">
        <time>2022-07-06T13:16:22Z</time>
      </trkpt>
      <trkpt lat="42.012825" lon="-0.02784231">
        <time>2022-07-06T13:16:25Z</time>
      </trkpt>
      <trkpt lat="42.01283" lon="-0.02793564">
        <time>2022-07-06T13:16:28Z</time>
      </trkpt>
      <trkpt lat="42.01284" lon="-0.02802897">
        <time>2022-07-06T13:16:31Z</time>
      </trkpt>
      <trkpt lat="42.01285" lon="-0.02812497">
        <time>2022-07-06T13:16:34Z</time>
      </trkpt>
      <trkpt lat="42.01285" lon="-0.0282183">
        <time>2022-07-06T13:16:37Z</time>
      </trkpt>
      <trkpt lat="42.012848" lon="-0.02830863">
        <time>2022-07-06T13:16:40Z</time>
      </trkpt>
      <trkpt lat="42.012848" lon="-0.02839263">
        <time>2022-07-06T13:16:43Z</time>
      </trkpt>
      <trkpt lat="42.01286" lon="-0.02847563">
        <time>2022-07-06T13:16:46Z</time>
      </trkpt>
      <trkpt lat="42.012875" lon="-0.02855996">
        <time>2022-07-06T13:16:49Z</time>
      </trkpt>
      <trkpt lat="42.012886" lon="-0.02864329">
        <time>2022-07-06T13:16:52Z</time>
      </trkpt>
      <trkpt lat="42.01289" lon="-0.02872062">
        <time>2022-07-06T13:16:55Z</time>
      </trkpt>
      <trkpt lat="42.012897" lon="-0.02880462">
        <time>2022-07-06T13:16:58Z</time>
      </trkpt>
      <trkpt lat="42.01291" lon="-0.02888628">
        <time>2022-07-06T13:17:01Z</time>
      </trkpt>
      <trkpt lat="42.012917" lon="-0.02896528">
        <time>2022-07-06T13:17:04Z</time>
      </trkpt>
      <trkpt lat="42.012924" lon="-0.02904428">
        <time>2022-07-06T13:17:07Z</time>
      </trkpt>
      <trkpt lat="42.01293" lon="-0.02912461">
        <time>2022-07-06T13:17:10Z</time>
      </trkpt>
      <trkpt lat="42.01294" lon="-0.02920594">
        <time>2022-07-06T13:17:13Z</time>
      </trkpt>
      <trkpt lat="42.012947" lon="-0.0292896">
        <time>2022-07-06T13:17:16Z</time>
      </trkpt>
      <trkpt lat="42.012955" lon="-0.02937426">
        <time>2022-07-06T13:17:19Z</time>
      </trkpt>
      <trkpt lat="42.012966" lon="-0.02946326">
        <time>2022-07-06T13:17:22Z</time>
      </trkpt>
      <trkpt lat="42.012978" lon="-0.02955126">
        <time>2022-07-06T13:17:25Z</time>
      </trkpt>
      <trkpt lat="42.01299" lon="-0.02964326">
        <time>2022-07-06T13:17:28Z</time>
      </trkpt>
      <trkpt lat="42.012997" lon="-0.02973292">
        <time>2022-07-06T13:17:31Z</time>
      </trkpt>
      <trkpt lat="42.013004" lon="-0.02981892">
        <time>2022-07-06T13:17:34Z</time>
      </trkpt>
      <trkpt lat="42.013016" lon="-0.02990092">
        <time>2022-07-06T13:17:37Z</time>
      </trkpt>
      <trkpt lat="42.01302" lon="-0.02997925">
        <time>2022-07-06T13:17:40Z</time>
      </trkpt>
      <trkpt lat="42.013023" lon="-0.03005991">
        <time>2022-07-06T13:17:43Z</time>
      </trkpt>
      <trkpt lat="42.013035" lon="-0.03014324">
        <time>2022-07-06T13:17:46Z</time>
      </trkpt>
      <trkpt lat="42.013042" lon="-0.0302269">
        <time>2022-07-06T13:17:49Z</time>
      </trkpt>
      <trkpt lat="42.013042" lon="-0.03031323">
        <time>2022-07-06T13:17:52Z</time>
      </trkpt>
      <trkpt lat="42.01304" lon="-0.03040223">
        <time>2022-07-06T13:17:55Z</time>
      </trkpt>
      <trkpt lat="42.013035" lon="-0.03048923">
        <time>2022-07-06T13:17:58Z</time>
      </trkpt>
      <trkpt lat="42.013027" lon="-0.03057723">
        <time>2022-07-06T13:18:01Z</time>
      </trkpt>
      <trkpt lat="42.01302" lon="-0.03066756">
        <time>2022-07-06T13:18:04Z</time>
      </trkpt>
      <trkpt lat="42.013" lon="-0.03075322">
        <time>2022-07-06T13:18:07Z</time>
      </trkpt>
      <trkpt lat="42.012974" lon="-0.03083588">
        <time>2022-07-06T13:18:10Z</time>
      </trkpt>
      <trkpt lat="42.012947" lon="-0.03092188">
        <time>2022-07-06T13:18:13Z</time>
      </trkpt>
      <trkpt lat="42.012924" lon="-0.03100721">
        <time>2022-07-06T13:18:16Z</time>
      </trkpt>
      <trkpt lat="42.012905" lon="-0.03106321">
        <time>2022-07-06T13:18:18Z</time>
      </trkpt>
      <trkpt lat="42.01288" lon="-0.03114421">
        <time>2022-07-06T13:18:21Z</time>
      </trkpt>
      <trkpt lat="42.01285" lon="-0.03122654">
        <time>2022-07-06T13:18:24Z</time>
      </trkpt>
      <trkpt lat="42.01283" lon="-0.03130787">
        <time>2022-07-06T13:18:27Z</time>
      </trkpt>
      <trkpt lat="42.012802" lon="-0.03138587">
        <time>2022-07-06T13:18:30Z</time>
      </trkpt>
      <trkpt lat="42.012775" lon="-0.0314622">
        <time>2022-07-06T13:18:33Z</time>
      </trkpt>
      <trkpt lat="42.01274" lon="-0.0315372">
        <time>2022-07-06T13:18:36Z</time>
      </trkpt>
      <trkpt lat="42.012707" lon="-0.03161986">
        <time>2022-07-06T13:18:39Z</time>
      </trkpt>
      <trkpt lat="42.012684" lon="-0.03167786">
        <time>2022-07-06T13:18:41Z</time>
      </trkpt>
      <trkpt lat="42.012653" lon="-0.03176519">
        <time>2022-07-06T13:18:44Z</time>
      </trkpt>
      <trkpt lat="42.012634" lon="-0.03183119">
        <time>2022-07-06T13:18:46Z</time>
      </trkpt>
      <trkpt lat="42.012608" lon="-0.03193352">
        <time>2022-07-06T13:18:49Z</time>
      </trkpt>
      <trkpt lat="42.012585" lon="-0.03200385">
        <time>2022-07-06T13:18:51Z</time>
      </trkpt>
      <trkpt lat="42.01256" lon="-0.03208018">
        <time>2022-07-06T13:18:53Z</time>
      </trkpt>
      <trkpt lat="42.012535" lon="-0.03216151">
        <time>2022-07-06T13:18:55Z</time>
      </trkpt>
      <trkpt lat="42.01251" lon="-0.03224417">
        <time>2022-07-06T13:18:57Z</time>
      </trkpt>
      <trkpt lat="42.01248" lon="-0.0323305">
        <time>2022-07-06T13:18:59Z</time>
      </trkpt>
      <trkpt lat="42.012455" lon="-0.0324215">
        <time>2022-07-06T13:19:01Z</time>
      </trkpt>
      <trkpt lat="42.012432" lon="-0.03251516">
        <time>2022-07-06T13:19:03Z</time>
      </trkpt>
      <trkpt lat="42.012405" lon="-0.03260816">
        <time>2022-07-06T13:19:05Z</time>
      </trkpt>
      <trkpt lat="42.012375" lon="-0.03270182">
        <time>2022-07-06T13:19:07Z</time>
      </trkpt>
      <trkpt lat="42.01235" lon="-0.03279915">
        <time>2022-07-06T13:19:09Z</time>
      </trkpt>
      <trkpt lat="42.012314" lon="-0.03290148">
        <time>2022-07-06T13:19:11Z</time>
      </trkpt>
      <trkpt lat="42.01228" lon="-0.03300848">
        <time>2022-07-06T13:19:13Z</time>
      </trkpt>
      <trkpt lat="42.01225" lon="-0.03311681">
        <time>2022-07-06T13:19:15Z</time>
      </trkpt>
      <trkpt lat="42.012215" lon="-0.03323047">
        <time>2022-07-06T13:19:17Z</time>
      </trkpt>
      <trkpt lat="42.012196" lon="-0.03328613">
        <time>2022-07-06T13:19:18Z</time>
      </trkpt>
      <trkpt lat="42.012165" lon="-0.03339546">
        <time>2022-07-06T13:19:20Z</time>
      </trkpt>
      <trkpt lat="42.01213" lon="-0.03349979">
        <time>2022-07-06T13:19:22Z</time>
      </trkpt>
      <trkpt lat="42.0121" lon="-0.03359979">
        <time>2022-07-06T13:19:24Z</time>
      </trkpt>
      <trkpt lat="42.01207" lon="-0.03369812">
        <time>2022-07-06T13:19:26Z</time>
      </trkpt>
      <trkpt lat="42.012028" lon="-0.03380612">
        <time>2022-07-06T13:19:28Z</time>
      </trkpt>
      <trkpt lat="42.012012" lon="-0.03385712">
        <time>2022-07-06T13:19:29Z</time>
      </trkpt>
      <trkpt lat="42.01197" lon="-0.03397345">
        <time>2022-07-06T13:19:31Z</time>
      </trkpt>
      <trkpt lat="42.01195" lon="-0.03403145">
        <time>2022-07-06T13:19:32Z</time>
      </trkpt>
      <trkpt lat="42.011913" lon="-0.03415411">
        <time>2022-07-06T13:19:34Z</time>
      </trkpt>
      <trkpt lat="42.01187" lon="-0.03427711">
        <time>2022-07-06T13:19:36Z</time>
      </trkpt>
      <trkpt lat="42.011833" lon="-0.03440511">
        <time>2022-07-06T13:19:38Z</time>
      </trkpt>
      <trkpt lat="42.011814" lon="-0.03446744">
        <time>2022-07-06T13:19:39Z</time>
      </trkpt>
      <trkpt lat="42.011776" lon="-0.0345831">
        <time>2022-07-06T13:19:41Z</time>
      </trkpt>
      <trkpt lat="42.011734" lon="-0.03468976">
        <time>2022-07-06T13:19:43Z</time>
      </trkpt>
      <trkpt lat="42.011696" lon="-0.03479542">
        <time>2022-07-06T13:19:45Z</time>
      </trkpt>
      <trkpt lat="42.01166" lon="-0.03491008">
        <time>2022-07-06T13:19:47Z</time>
      </trkpt>
      <trkpt lat="42.011623" lon="-0.03504041">
        <time>2022-07-06T13:19:49Z</time>
      </trkpt>
      <trkpt lat="42.011604" lon="-0.03510874">
        <time>2022-07-06T13:19:50Z</time>
      </trkpt>
      <trkpt lat="42.011585" lon="-0.03517074">
        <time>2022-07-06T13:19:51Z</time>
      </trkpt>
      <trkpt lat="42.011562" lon="-0.03523674">
        <time>2022-07-06T13:19:52Z</time>
      </trkpt>
      <trkpt lat="42.011536" lon="-0.03530074">
        <time>2022-07-06T13:19:53Z</time>
      </trkpt>
      <trkpt lat="42.011513" lon="-0.03536407">
        <time>2022-07-06T13:19:54Z</time>
      </trkpt>
      <trkpt lat="42.011494" lon="-0.0354274">
        <time>2022-07-06T13:19:55Z</time>
      </trkpt>
      <trkpt lat="42.011475" lon="-0.03549106">
        <time>2022-07-06T13:19:56Z</time>
      </trkpt>
      <trkpt lat="42.011436" lon="-0.03561806">
        <time>2022-07-06T13:19:58Z</time>
      </trkpt>
      <trkpt lat="42.0114" lon="-0.03574872">
        <time>2022-07-06T13:20:00Z</time>
      </trkpt>
      <trkpt lat="42.01138" lon="-0.03581305">
        <time>2022-07-06T13:20:01Z</time>
      </trkpt>
      <trkpt lat="42.01136" lon="-0.03587771">
        <time>2022-07-06T13:20:02Z</time>
      </trkpt>
      <trkpt lat="42.01134" lon="-0.03594204">
        <time>2022-07-06T13:20:03Z</time>
      </trkpt>
      <trkpt lat="42.01128" lon="-0.03614537">
        <time>2022-07-06T13:20:06Z</time>
      </trkpt>
      <trkpt lat="42.011257" lon="-0.0362127">
        <time>2022-07-06T13:20:07Z</time>
      </trkpt>
      <trkpt lat="42.011234" lon="-0.0362797">
        <time>2022-07-06T13:20:08Z</time>
      </trkpt>
      <trkpt lat="42.011215" lon="-0.0363477">
        <time>2022-07-06T13:20:09Z</time>
      </trkpt>
      <trkpt lat="42.011192" lon="-0.03641603">
        <time>2022-07-06T13:20:10Z</time>
      </trkpt>
      <trkpt lat="42.01117" lon="-0.03648536">
        <time>2022-07-06T13:20:11Z</time>
      </trkpt>
      <trkpt lat="42.011147" lon="-0.03655236">
        <time>2022-07-06T13:20:12Z</time>
      </trkpt>
      <trkpt lat="42.01112" lon="-0.03661836">
        <time>2022-07-06T13:20:13Z</time>
      </trkpt>
      <trkpt lat="42.011097" lon="-0.03668336">
        <time>2022-07-06T13:20:14Z</time>
      </trkpt>
      <trkpt lat="42.01107" lon="-0.03674869">
        <time>2022-07-06T13:20:15Z</time>
      </trkpt>
      <trkpt lat="42.011044" lon="-0.03681402">
        <time>2022-07-06T13:20:16Z</time>
      </trkpt>
      <trkpt lat="42.01102" lon="-0.03688068">
        <time>2022-07-06T13:20:17Z</time>
      </trkpt>
      <trkpt lat="42.010998" lon="-0.03694868">
        <time>2022-07-06T13:20:18Z</time>
      </trkpt>
      <trkpt lat="42.010975" lon="-0.03701768">
        <time>2022-07-06T13:20:19Z</time>
      </trkpt>
      <trkpt lat="42.010956" lon="-0.03708768">
        <time>2022-07-06T13:20:20Z</time>
      </trkpt>
      <trkpt lat="42.010933" lon="-0.03716501">
        <time>2022-07-06T13:20:21Z</time>
      </trkpt>
      <trkpt lat="42.010914" lon="-0.03723734">
        <time>2022-07-06T13:20:22Z</time>
      </trkpt>
      <trkpt lat="42.01089" lon="-0.03730867">
        <time>2022-07-06T13:20:23Z</time>
      </trkpt>
      <trkpt lat="42.010868" lon="-0.03737967">
        <time>2022-07-06T13:20:24Z</time>
      </trkpt>
      <trkpt lat="42.01085" lon="-0.03745133">
        <time>2022-07-06T13:20:25Z</time>
      </trkpt>
      <trkpt lat="42.010826" lon="-0.03752333">
        <time>2022-07-06T13:20:26Z</time>
      </trkpt>
      <trkpt lat="42.010803" lon="-0.03759499">
        <time>2022-07-06T13:20:27Z</time>
      </trkpt>
      <trkpt lat="42.01078" lon="-0.03766665">
        <time>2022-07-06T13:20:28Z</time>
      </trkpt>
      <trkpt lat="42.010757" lon="-0.03773765">
        <time>2022-07-06T13:20:29Z</time>
      </trkpt>
      <trkpt lat="42.010735" lon="-0.03780831">
        <time>2022-07-06T13:20:30Z</time>
      </trkpt>
      <trkpt lat="42.01071" lon="-0.03787831">
        <time>2022-07-06T13:20:31Z</time>
      </trkpt>
      <trkpt lat="42.01069" lon="-0.03794831">
        <time>2022-07-06T13:20:32Z</time>
      </trkpt>
      <trkpt lat="42.01067" lon="-0.03801897">
        <time>2022-07-06T13:20:33Z</time>
      </trkpt>
      <trkpt lat="42.010647" lon="-0.0380893">
        <time>2022-07-06T13:20:34Z</time>
      </trkpt>
      <trkpt lat="42.010624" lon="-0.03816063">
        <time>2022-07-06T13:20:35Z</time>
      </trkpt>
      <trkpt lat="42.0106" lon="-0.03823263">
        <time>2022-07-06T13:20:36Z</time>
      </trkpt>
      <trkpt lat="42.010582" lon="-0.03830463">
        <time>2022-07-06T13:20:37Z</time>
      </trkpt>
      <trkpt lat="42.01056" lon="-0.03837696">
        <time>2022-07-06T13:20:38Z</time>
      </trkpt>
      <trkpt lat="42.010536" lon="-0.03844962">
        <time>2022-07-06T13:20:39Z</time>
      </trkpt>
      <trkpt lat="42.010513" lon="-0.03852195">
        <time>2022-07-06T13:20:40Z</time>
      </trkpt>
      <trkpt lat="42.010494" lon="-0.03859395">
        <time>2022-07-06T13:20:41Z</time>
      </trkpt>
      <trkpt lat="42.01047" lon="-0.03866528">
        <time>2022-07-06T13:20:42Z</time>
      </trkpt>
      <trkpt lat="42.01045" lon="-0.03873694">
        <time>2022-07-06T13:20:43Z</time>
      </trkpt>
      <trkpt lat="42.010426" lon="-0.03880894">
        <time>2022-07-06T13:20:44Z</time>
      </trkpt>
      <trkpt lat="42.010403" lon="-0.03888427">
        <time>2022-07-06T13:20:45Z</time>
      </trkpt>
      <trkpt lat="42.010384" lon="-0.0389576">
        <time>2022-07-06T13:20:46Z</time>
      </trkpt>
      <trkpt lat="42.01036" lon="-0.0390296">
        <time>2022-07-06T13:20:47Z</time>
      </trkpt>
      <trkpt lat="42.010338" lon="-0.0390996">
        <time>2022-07-06T13:20:48Z</time>
      </trkpt>
      <trkpt lat="42.010315" lon="-0.03916493">
        <time>2022-07-06T13:20:49Z</time>
      </trkpt>
      <trkpt lat="42.010296" lon="-0.03923093">
        <time>2022-07-06T13:20:50Z</time>
      </trkpt>
      <trkpt lat="42.010273" lon="-0.03930193">
        <time>2022-07-06T13:20:51Z</time>
      </trkpt>
      <trkpt lat="42.01025" lon="-0.03936693">
        <time>2022-07-06T13:20:52Z</time>
      </trkpt>
      <trkpt lat="42.01023" lon="-0.03943126">
        <time>2022-07-06T13:20:53Z</time>
      </trkpt>
      <trkpt lat="42.01021" lon="-0.03949526">
        <time>2022-07-06T13:20:54Z</time>
      </trkpt>
      <trkpt lat="42.01019" lon="-0.03955992">
        <time>2022-07-06T13:20:55Z</time>
      </trkpt>
      <trkpt lat="42.010147" lon="-0.03968792">
        <time>2022-07-06T13:20:57Z</time>
      </trkpt>
      <trkpt lat="42.010128" lon="-0.03975092">
        <time>2022-07-06T13:20:58Z</time>
      </trkpt>
      <trkpt lat="42.010105" lon="-0.03981292">
        <time>2022-07-06T13:20:59Z</time>
      </trkpt>
      <trkpt lat="42.010063" lon="-0.03993525">
        <time>2022-07-06T13:21:01Z</time>
      </trkpt>
      <trkpt lat="42.01004" lon="-0.03999591">
        <time>2022-07-06T13:21:02Z</time>
      </trkpt>
      <trkpt lat="42.01" lon="-0.04011457">
        <time>2022-07-06T13:21:04Z</time>
      </trkpt>
      <trkpt lat="42.00996" lon="-0.04023223">
        <time>2022-07-06T13:21:06Z</time>
      </trkpt>
      <trkpt lat="42.00994" lon="-0.04029089">
        <time>2022-07-06T13:21:07Z</time>
      </trkpt>
      <trkpt lat="42.009903" lon="-0.04040922">
        <time>2022-07-06T13:21:09Z</time>
      </trkpt>
      <trkpt lat="42.009888" lon="-0.04046855">
        <time>2022-07-06T13:21:10Z</time>
      </trkpt>
      <trkpt lat="42.00985" lon="-0.04058621">
        <time>2022-07-06T13:21:12Z</time>
      </trkpt>
      <trkpt lat="42.009815" lon="-0.04070287">
        <time>2022-07-06T13:21:14Z</time>
      </trkpt>
      <trkpt lat="42.00978" lon="-0.04082053">
        <time>2022-07-06T13:21:16Z</time>
      </trkpt>
      <trkpt lat="42.009747" lon="-0.04093619">
        <time>2022-07-06T13:21:18Z</time>
      </trkpt>
      <trkpt lat="42.009727" lon="-0.04099152">
        <time>2022-07-06T13:21:19Z</time>
      </trkpt>
      <trkpt lat="42.009693" lon="-0.04110085">
        <time>2022-07-06T13:21:21Z</time>
      </trkpt>
      <trkpt lat="42.00966" lon="-0.04121018">
        <time>2022-07-06T13:21:23Z</time>
      </trkpt>
      <trkpt lat="42.00963" lon="-0.04131984">
        <time>2022-07-06T13:21:25Z</time>
      </trkpt>
      <trkpt lat="42.00958" lon="-0.04148184">
        <time>2022-07-06T13:21:28Z</time>
      </trkpt>
      <trkpt lat="42.00954" lon="-0.04159117">
        <time>2022-07-06T13:21:30Z</time>
      </trkpt>
      <trkpt lat="42.009502" lon="-0.0416995">
        <time>2022-07-06T13:21:32Z</time>
      </trkpt>
      <trkpt lat="42.009468" lon="-0.04180716">
        <time>2022-07-06T13:21:34Z</time>
      </trkpt>
      <trkpt lat="42.009434" lon="-0.04191749">
        <time>2022-07-06T13:21:36Z</time>
      </trkpt>
      <trkpt lat="42.009407" lon="-0.04202815">
        <time>2022-07-06T13:21:38Z</time>
      </trkpt>
      <trkpt lat="42.009384" lon="-0.04213548">
        <time>2022-07-06T13:21:40Z</time>
      </trkpt>
      <trkpt lat="42.009365" lon="-0.04223581">
        <time>2022-07-06T13:21:42Z</time>
      </trkpt>
      <trkpt lat="42.009342" lon="-0.04232714">
        <time>2022-07-06T13:21:44Z</time>
      </trkpt>
      <trkpt lat="42.00931" lon="-0.04240714">
        <time>2022-07-06T13:21:46Z</time>
      </trkpt>
      <trkpt lat="42.009274" lon="-0.04247647">
        <time>2022-07-06T13:21:48Z</time>
      </trkpt>
      <trkpt lat="42.009228" lon="-0.04253713">
        <time>2022-07-06T13:21:50Z</time>
      </trkpt>
      <trkpt lat="42.009174" lon="-0.04258879">
        <time>2022-07-06T13:21:52Z</time>
      </trkpt>
      <trkpt lat="42.00912" lon="-0.04263512">
        <time>2022-07-06T13:21:54Z</time>
      </trkpt>
      <trkpt lat="42.009064" lon="-0.04267512">
        <time>2022-07-06T13:21:56Z</time>
      </trkpt>
      <trkpt lat="42.009003" lon="-0.04271078">
        <time>2022-07-06T13:21:58Z</time>
      </trkpt>
      <trkpt lat="42.00894" lon="-0.04274111">
        <time>2022-07-06T13:22:00Z</time>
      </trkpt>
      <trkpt lat="42.008873" lon="-0.04277111">
        <time>2022-07-06T13:22:02Z</time>
      </trkpt>
      <trkpt lat="42.00881" lon="-0.04280244">
        <time>2022-07-06T13:22:04Z</time>
      </trkpt>
      <trkpt lat="42.00874" lon="-0.04282744">
        <time>2022-07-06T13:22:06Z</time>
      </trkpt>
      <trkpt lat="42.00867" lon="-0.0428521">
        <time>2022-07-06T13:22:08Z</time>
      </trkpt>
      <trkpt lat="42.008602" lon="-0.0428771">
        <time>2022-07-06T13:22:10Z</time>
      </trkpt>
      <trkpt lat="42.00853" lon="-0.04290076">
        <time>2022-07-06T13:22:12Z</time>
      </trkpt>
      <trkpt lat="42.00847" lon="-0.04292342">
        <time>2022-07-06T13:22:14Z</time>
      </trkpt>
      <trkpt lat="42.008396" lon="-0.04294975">
        <time>2022-07-06T13:22:16Z</time>
      </trkpt>
      <trkpt lat="42.008327" lon="-0.04297908">
        <time>2022-07-06T13:22:18Z</time>
      </trkpt>
      <trkpt lat="42.008263" lon="-0.04301774">
        <time>2022-07-06T13:22:20Z</time>
      </trkpt>
      <trkpt lat="42.008194" lon="-0.0430694">
        <time>2022-07-06T13:22:22Z</time>
      </trkpt>
      <trkpt lat="42.00813" lon="-0.04312973">
        <time>2022-07-06T13:22:24Z</time>
      </trkpt>
      <trkpt lat="42.008064" lon="-0.04319773">
        <time>2022-07-06T13:22:26Z</time>
      </trkpt>
      <trkpt lat="42.007996" lon="-0.04327639">
        <time>2022-07-06T13:22:28Z</time>
      </trkpt>
      <trkpt lat="42.007923" lon="-0.04335572">
        <time>2022-07-06T13:22:30Z</time>
      </trkpt>
      <trkpt lat="42.007843" lon="-0.04344038">
        <time>2022-07-06T13:22:32Z</time>
      </trkpt>
      <trkpt lat="42.0078" lon="-0.04348504">
        <time>2022-07-06T13:22:33Z</time>
      </trkpt>
      <trkpt lat="42.007725" lon="-0.04357004">
        <time>2022-07-06T13:22:35Z</time>
      </trkpt>
      <trkpt lat="42.007687" lon="-0.0436107">
        <time>2022-07-06T13:22:36Z</time>
      </trkpt>
      <trkpt lat="42.00761" lon="-0.04369536">
        <time>2022-07-06T13:22:38Z</time>
      </trkpt>
      <trkpt lat="42.00753" lon="-0.04378236">
        <time>2022-07-06T13:22:40Z</time>
      </trkpt>
      <trkpt lat="42.007454" lon="-0.04387202">
        <time>2022-07-06T13:22:42Z</time>
      </trkpt>
      <trkpt lat="42.007412" lon="-0.04391802">
        <time>2022-07-06T13:22:43Z</time>
      </trkpt>
      <trkpt lat="42.007336" lon="-0.04400702">
        <time>2022-07-06T13:22:45Z</time>
      </trkpt>
      <trkpt lat="42.007298" lon="-0.04405235">
        <time>2022-07-06T13:22:46Z</time>
      </trkpt>
      <trkpt lat="42.007225" lon="-0.04414501">
        <time>2022-07-06T13:22:48Z</time>
      </trkpt>
      <trkpt lat="42.00719" lon="-0.04419401">
        <time>2022-07-06T13:22:49Z</time>
      </trkpt>
      <trkpt lat="42.007122" lon="-0.04428534">
        <time>2022-07-06T13:22:51Z</time>
      </trkpt>
      <trkpt lat="42.007057" lon="-0.044376">
        <time>2022-07-06T13:22:53Z</time>
      </trkpt>
      <trkpt lat="42.006992" lon="-0.044466">
        <time>2022-07-06T13:22:55Z</time>
      </trkpt>
      <trkpt lat="42.00696" lon="-0.04450733">
        <time>2022-07-06T13:22:56Z</time>
      </trkpt>
      <trkpt lat="42.0069" lon="-0.04459266">
        <time>2022-07-06T13:22:58Z</time>
      </trkpt>
      <trkpt lat="42.006844" lon="-0.04467166">
        <time>2022-07-06T13:23:00Z</time>
      </trkpt>
      <trkpt lat="42.00679" lon="-0.04474599">
        <time>2022-07-06T13:23:02Z</time>
      </trkpt>
      <trkpt lat="42.006737" lon="-0.04481532">
        <time>2022-07-06T13:23:04Z</time>
      </trkpt>
      <trkpt lat="42.006687" lon="-0.04487865">
        <time>2022-07-06T13:23:06Z</time>
      </trkpt>
      <trkpt lat="42.006634" lon="-0.04493731">
        <time>2022-07-06T13:23:08Z</time>
      </trkpt>
      <trkpt lat="42.006584" lon="-0.04499297">
        <time>2022-07-06T13:23:10Z</time>
      </trkpt>
      <trkpt lat="42.006542" lon="-0.0450463">
        <time>2022-07-06T13:23:12Z</time>
      </trkpt>
      <trkpt lat="42.0065" lon="-0.04509963">
        <time>2022-07-06T13:23:14Z</time>
      </trkpt>
      <trkpt lat="42.006462" lon="-0.04514896">
        <time>2022-07-06T13:23:16Z</time>
      </trkpt>
      <trkpt lat="42.006405" lon="-0.04522162">
        <time>2022-07-06T13:23:19Z</time>
      </trkpt>
      <trkpt lat="42.00637" lon="-0.04527095">
        <time>2022-07-06T13:23:21Z</time>
      </trkpt>
      <trkpt lat="42.006336" lon="-0.04532295">
        <time>2022-07-06T13:23:23Z</time>
      </trkpt>
      <trkpt lat="42.00629" lon="-0.04540228">
        <time>2022-07-06T13:23:26Z</time>
      </trkpt>
      <trkpt lat="42.00626" lon="-0.04545728">
        <time>2022-07-06T13:23:28Z</time>
      </trkpt>
      <trkpt lat="42.006226" lon="-0.04554794">
        <time>2022-07-06T13:23:31Z</time>
      </trkpt>
      <trkpt lat="42.006207" lon="-0.0456116">
        <time>2022-07-06T13:23:33Z</time>
      </trkpt>
      <trkpt lat="42.00619" lon="-0.04570393">
        <time>2022-07-06T13:23:36Z</time>
      </trkpt>
      <trkpt lat="42.00618" lon="-0.04579726">
        <time>2022-07-06T13:23:39Z</time>
      </trkpt>
      <trkpt lat="42.006176" lon="-0.04589726">
        <time>2022-07-06T13:23:42Z</time>
      </trkpt>
      <trkpt lat="42.006172" lon="-0.04599692">
        <time>2022-07-06T13:23:45Z</time>
      </trkpt>
      <trkpt lat="42.00617" lon="-0.04609292">
        <time>2022-07-06T13:23:48Z</time>
      </trkpt>
      <trkpt lat="42.006165" lon="-0.04618825">
        <time>2022-07-06T13:23:51Z</time>
      </trkpt>
      <trkpt lat="42.006145" lon="-0.04628158">
        <time>2022-07-06T13:23:54Z</time>
      </trkpt>
      <trkpt lat="42.00611" lon="-0.04635958">
        <time>2022-07-06T13:23:57Z</time>
      </trkpt>
      <trkpt lat="42.006054" lon="-0.04641891">
        <time>2022-07-06T13:24:00Z</time>
      </trkpt>
      <trkpt lat="42.005993" lon="-0.04646957">
        <time>2022-07-06T13:24:03Z</time>
      </trkpt>
      <trkpt lat="42.005962" lon="-0.0465049">
        <time>2022-07-06T13:24:06Z</time>
      </trkpt>
      <trkpt lat="42.005905" lon="-0.0465739">
        <time>2022-07-06T13:25:30Z</time>
      </trkpt>
      <trkpt lat="42.00584" lon="-0.04660623">
        <time>2022-07-06T13:25:33Z</time>
      </trkpt>
      <trkpt lat="42.005775" lon="-0.04662723">
        <time>2022-07-06T13:25:36Z</time>
      </trkpt>
      <trkpt lat="42.00571" lon="-0.04664089">
        <time>2022-07-06T13:25:39Z</time>
      </trkpt>
      <trkpt lat="42.005615" lon="-0.04665755">
        <time>2022-07-06T13:25:42Z</time>
      </trkpt>
      <trkpt lat="42.00553" lon="-0.04667388">
        <time>2022-07-06T13:25:44Z</time>
      </trkpt>
      <trkpt lat="42.005436" lon="-0.04670788">
        <time>2022-07-06T13:25:46Z</time>
      </trkpt>
      <trkpt lat="42.00533" lon="-0.04675554">
        <time>2022-07-06T13:25:48Z</time>
      </trkpt>
      <trkpt lat="42.005272" lon="-0.04677554">
        <time>2022-07-06T13:25:49Z</time>
      </trkpt>
      <trkpt lat="42.005215" lon="-0.04678887">
        <time>2022-07-06T13:25:50Z</time>
      </trkpt>
      <trkpt lat="42.005157" lon="-0.0467952">
        <time>2022-07-06T13:25:51Z</time>
      </trkpt>
      <trkpt lat="42.0051" lon="-0.04679354">
        <time>2022-07-06T13:25:52Z</time>
      </trkpt>
      <trkpt lat="42.005035" lon="-0.04678121">
        <time>2022-07-06T13:25:53Z</time>
      </trkpt>
      <trkpt lat="42.00497" lon="-0.04676155">
        <time>2022-07-06T13:25:54Z</time>
      </trkpt>
      <trkpt lat="42.004906" lon="-0.04673655">
        <time>2022-07-06T13:25:55Z</time>
      </trkpt>
      <trkpt lat="42.00485" lon="-0.04670855">
        <time>2022-07-06T13:25:56Z</time>
      </trkpt>
      <trkpt lat="42.004784" lon="-0.04667655">
        <time>2022-07-06T13:25:57Z</time>
      </trkpt>
      <trkpt lat="42.00472" lon="-0.04664222">
        <time>2022-07-06T13:25:58Z</time>
      </trkpt>
      <trkpt lat="42.00465" lon="-0.04660789">
        <time>2022-07-06T13:25:59Z</time>
      </trkpt>
      <trkpt lat="42.00458" lon="-0.04657456">
        <time>2022-07-06T13:26:00Z</time>
      </trkpt>
      <trkpt lat="42.004517" lon="-0.0465429">
        <time>2022-07-06T13:26:01Z</time>
      </trkpt>
      <trkpt lat="42.00445" lon="-0.04650924">
        <time>2022-07-06T13:26:02Z</time>
      </trkpt>
      <trkpt lat="42.00438" lon="-0.04647158">
        <time>2022-07-06T13:26:03Z</time>
      </trkpt>
      <trkpt lat="42.00431" lon="-0.04643558">
        <time>2022-07-06T13:26:04Z</time>
      </trkpt>
      <trkpt lat="42.00424" lon="-0.04640025">
        <time>2022-07-06T13:26:05Z</time>
      </trkpt>
      <trkpt lat="42.004166" lon="-0.04636692">
        <time>2022-07-06T13:26:06Z</time>
      </trkpt>
      <trkpt lat="42.004093" lon="-0.04633592">
        <time>2022-07-06T13:26:07Z</time>
      </trkpt>
      <trkpt lat="42.00402" lon="-0.04631059">
        <time>2022-07-06T13:26:08Z</time>
      </trkpt>
      <trkpt lat="42.003944" lon="-0.04629293">
        <time>2022-07-06T13:26:09Z</time>
      </trkpt>
      <trkpt lat="42.00387" lon="-0.0462846">
        <time>2022-07-06T13:26:10Z</time>
      </trkpt>
      <trkpt lat="42.00379" lon="-0.0462876">
        <time>2022-07-06T13:26:11Z</time>
      </trkpt>
      <trkpt lat="42.003723" lon="-0.04630093">
        <time>2022-07-06T13:26:12Z</time>
      </trkpt>
      <trkpt lat="42.00366" lon="-0.04632893">
        <time>2022-07-06T13:26:13Z</time>
      </trkpt>
      <trkpt lat="42.003597" lon="-0.04637193">
        <time>2022-07-06T13:26:14Z</time>
      </trkpt>
      <trkpt lat="42.003544" lon="-0.04642859">
        <time>2022-07-06T13:26:15Z</time>
      </trkpt>
      <trkpt lat="42.003498" lon="-0.04650259">
        <time>2022-07-06T13:26:16Z</time>
      </trkpt>
      <trkpt lat="42.00346" lon="-0.04657825">
        <time>2022-07-06T13:26:17Z</time>
      </trkpt>
      <trkpt lat="42.00343" lon="-0.04666025">
        <time>2022-07-06T13:26:18Z</time>
      </trkpt>
      <trkpt lat="42.003407" lon="-0.04674458">
        <time>2022-07-06T13:26:19Z</time>
      </trkpt>
      <trkpt lat="42.003387" lon="-0.04683158">
        <time>2022-07-06T13:26:20Z</time>
      </trkpt>
      <trkpt lat="42.00337" lon="-0.04691958">
        <time>2022-07-06T13:26:21Z</time>
      </trkpt>
      <trkpt lat="42.003353" lon="-0.04700858">
        <time>2022-07-06T13:26:22Z</time>
      </trkpt>
      <trkpt lat="42.003334" lon="-0.04709824">
        <time>2022-07-06T13:26:23Z</time>
      </trkpt>
      <trkpt lat="42.003315" lon="-0.0471849">
        <time>2022-07-06T13:26:24Z</time>
      </trkpt>
      <trkpt lat="42.003296" lon="-0.04726356">
        <time>2022-07-06T13:26:25Z</time>
      </trkpt>
      <trkpt lat="42.003277" lon="-0.04732889">
        <time>2022-07-06T13:26:26Z</time>
      </trkpt>
      <trkpt lat="42.003258" lon="-0.04737889">
        <time>2022-07-06T13:26:27Z</time>
      </trkpt>
      <trkpt lat="42.00324" lon="-0.04743655">
        <time>2022-07-06T13:26:29Z</time>
      </trkpt>
      <trkpt lat="42.003178" lon="-0.04750788">
        <time>2022-07-06T13:27:06Z</time>
      </trkpt>
      <trkpt lat="42.003124" lon="-0.04753754">
        <time>2022-07-06T13:27:08Z</time>
      </trkpt>
      <trkpt lat="42.003067" lon="-0.0475762">
        <time>2022-07-06T13:27:10Z</time>
      </trkpt>
      <trkpt lat="42.003006" lon="-0.0476192">
        <time>2022-07-06T13:27:12Z</time>
      </trkpt>
      <trkpt lat="42.002945" lon="-0.04767086">
        <time>2022-07-06T13:27:14Z</time>
      </trkpt>
      <trkpt lat="42.002888" lon="-0.04773152">
        <time>2022-07-06T13:27:16Z</time>
      </trkpt>
      <trkpt lat="42.00284" lon="-0.04779952">
        <time>2022-07-06T13:27:18Z</time>
      </trkpt>
      <trkpt lat="42.002792" lon="-0.04787685">
        <time>2022-07-06T13:27:20Z</time>
      </trkpt>
      <trkpt lat="42.002747" lon="-0.04795785">
        <time>2022-07-06T13:27:22Z</time>
      </trkpt>
      <trkpt lat="42.0027" lon="-0.04804118">
        <time>2022-07-06T13:27:24Z</time>
      </trkpt>
      <trkpt lat="42.00265" lon="-0.04812651">
        <time>2022-07-06T13:27:26Z</time>
      </trkpt>
      <trkpt lat="42.002598" lon="-0.04821151">
        <time>2022-07-06T13:27:28Z</time>
      </trkpt>
      <trkpt lat="42.002537" lon="-0.04829151">
        <time>2022-07-06T13:27:30Z</time>
      </trkpt>
      <trkpt lat="42.002476" lon="-0.04836917">
        <time>2022-07-06T13:27:32Z</time>
      </trkpt>
      <trkpt lat="42.00241" lon="-0.0484445">
        <time>2022-07-06T13:27:34Z</time>
      </trkpt>
      <trkpt lat="42.002346" lon="-0.04851816">
        <time>2022-07-06T13:27:36Z</time>
      </trkpt>
      <trkpt lat="42.002285" lon="-0.04858782">
        <time>2022-07-06T13:27:38Z</time>
      </trkpt>
      <trkpt lat="42.002224" lon="-0.04865215">
        <time>2022-07-06T13:27:40Z</time>
      </trkpt>
      <trkpt lat="42.00216" lon="-0.04871648">
        <time>2022-07-06T13:27:42Z</time>
      </trkpt>
      <trkpt lat="42.0021" lon="-0.04878281">
        <time>2022-07-06T13:27:44Z</time>
      </trkpt>
      <trkpt lat="42.002045" lon="-0.04885447">
        <time>2022-07-06T13:27:46Z</time>
      </trkpt>
      <trkpt lat="42.00199" lon="-0.04893313">
        <time>2022-07-06T13:27:48Z</time>
      </trkpt>
      <trkpt lat="42.001938" lon="-0.04902179">
        <time>2022-07-06T13:27:50Z</time>
      </trkpt>
      <trkpt lat="42.00188" lon="-0.04911379">
        <time>2022-07-06T13:27:52Z</time>
      </trkpt>
      <trkpt lat="42.00181" lon="-0.04919545">
        <time>2022-07-06T13:27:54Z</time>
      </trkpt>
      <trkpt lat="42.001717" lon="-0.04925678">
        <time>2022-07-06T13:27:56Z</time>
      </trkpt>
      <trkpt lat="42.001667" lon="-0.04927411">
        <time>2022-07-06T13:27:57Z</time>
      </trkpt>
      <trkpt lat="42.001617" lon="-0.04928311">
        <time>2022-07-06T13:27:58Z</time>
      </trkpt>
      <trkpt lat="42.001495" lon="-0.04928111">
        <time>2022-07-06T13:28:00Z</time>
      </trkpt>
      <trkpt lat="42.001434" lon="-0.04927578">
        <time>2022-07-06T13:28:01Z</time>
      </trkpt>
      <trkpt lat="42.00137" lon="-0.04926978">
        <time>2022-07-06T13:28:02Z</time>
      </trkpt>
      <trkpt lat="42.0013" lon="-0.04926378">
        <time>2022-07-06T13:28:03Z</time>
      </trkpt>
      <trkpt lat="42.001236" lon="-0.04925645">
        <time>2022-07-06T13:28:04Z</time>
      </trkpt>
      <trkpt lat="42.001163" lon="-0.04924745">
        <time>2022-07-06T13:28:05Z</time>
      </trkpt>
      <trkpt lat="42.001095" lon="-0.04923745">
        <time>2022-07-06T13:28:06Z</time>
      </trkpt>
      <trkpt lat="42.00102" lon="-0.04922545">
        <time>2022-07-06T13:28:07Z</time>
      </trkpt>
      <trkpt lat="42.000946" lon="-0.04921312">
        <time>2022-07-06T13:28:08Z</time>
      </trkpt>
      <trkpt lat="42.000874" lon="-0.04920212">
        <time>2022-07-06T13:28:09Z</time>
      </trkpt>
      <trkpt lat="42.0008" lon="-0.04919112">
        <time>2022-07-06T13:28:10Z</time>
      </trkpt>
      <trkpt lat="42.000725" lon="-0.04918012">
        <time>2022-07-06T13:28:11Z</time>
      </trkpt>
      <trkpt lat="42.000652" lon="-0.04916946">
        <time>2022-07-06T13:28:12Z</time>
      </trkpt>
      <trkpt lat="42.000584" lon="-0.04915913">
        <time>2022-07-06T13:28:13Z</time>
      </trkpt>
      <trkpt lat="42.000515" lon="-0.04915113">
        <time>2022-07-06T13:28:14Z</time>
      </trkpt>
      <trkpt lat="42.000446" lon="-0.04914347">
        <time>2022-07-06T13:28:15Z</time>
      </trkpt>
      <trkpt lat="42.00038" lon="-0.04913581">
        <time>2022-07-06T13:28:16Z</time>
      </trkpt>
      <trkpt lat="42.000313" lon="-0.04912715">
        <time>2022-07-06T13:28:17Z</time>
      </trkpt>
      <trkpt lat="42.00025" lon="-0.04911915">
        <time>2022-07-06T13:28:18Z</time>
      </trkpt>
      <trkpt lat="42.000187" lon="-0.04911115">
        <time>2022-07-06T13:28:19Z</time>
      </trkpt>
      <trkpt lat="42.00013" lon="-0.04910315">
        <time>2022-07-06T13:28:20Z</time>
      </trkpt>
      <trkpt lat="42.000065" lon="-0.04909382">
        <time>2022-07-06T13:28:21Z</time>
      </trkpt>
      <trkpt lat="42.000004" lon="-0.04908349">
        <time>2022-07-06T13:28:22Z</time>
      </trkpt>
      <trkpt lat="41.999943" lon="-0.04907416">
        <time>2022-07-06T13:28:23Z</time>
      </trkpt>
      <trkpt lat="41.999886" lon="-0.0490655">
        <time>2022-07-06T13:28:24Z</time>
      </trkpt>
      <trkpt lat="41.999832" lon="-0.0490555">
        <time>2022-07-06T13:28:25Z</time>
      </trkpt>
      <trkpt lat="41.999775" lon="-0.0490455">
        <time>2022-07-06T13:28:26Z</time>
      </trkpt>
      <trkpt lat="41.999718" lon="-0.04903484">
        <time>2022-07-06T13:28:27Z</time>
      </trkpt>
      <trkpt lat="41.999657" lon="-0.04902318">
        <time>2022-07-06T13:28:28Z</time>
      </trkpt>
      <trkpt lat="41.9996" lon="-0.04901218">
        <time>2022-07-06T13:28:29Z</time>
      </trkpt>
      <trkpt lat="41.999546" lon="-0.04900218">
        <time>2022-07-06T13:28:30Z</time>
      </trkpt>
      <trkpt lat="41.99949" lon="-0.04899252">
        <time>2022-07-06T13:28:31Z</time>
      </trkpt>
      <trkpt lat="41.999435" lon="-0.04898352">
        <time>2022-07-06T13:28:32Z</time>
      </trkpt>
      <trkpt lat="41.999382" lon="-0.04897452">
        <time>2022-07-06T13:28:33Z</time>
      </trkpt>
      <trkpt lat="41.999325" lon="-0.04896586">
        <time>2022-07-06T13:28:34Z</time>
      </trkpt>
      <trkpt lat="41.99927" lon="-0.0489552">
        <time>2022-07-06T13:28:35Z</time>
      </trkpt>
      <trkpt lat="41.99921" lon="-0.04894354">
        <time>2022-07-06T13:28:36Z</time>
      </trkpt>
      <trkpt lat="41.99915" lon="-0.04893254">
        <time>2022-07-06T13:28:37Z</time>
      </trkpt>
      <trkpt lat="41.999096" lon="-0.04892321">
        <time>2022-07-06T13:28:38Z</time>
      </trkpt>
      <trkpt lat="41.99904" lon="-0.04891188">
        <time>2022-07-06T13:28:39Z</time>
      </trkpt>
      <trkpt lat="41.99898" lon="-0.04890122">
        <time>2022-07-06T13:28:40Z</time>
      </trkpt>
      <trkpt lat="41.998924" lon="-0.04889089">
        <time>2022-07-06T13:28:41Z</time>
      </trkpt>
      <trkpt lat="41.998867" lon="-0.04887956">
        <time>2022-07-06T13:28:42Z</time>
      </trkpt>
      <trkpt lat="41.99881" lon="-0.0488699">
        <time>2022-07-06T13:28:43Z</time>
      </trkpt>
      <trkpt lat="41.998756" lon="-0.04885957">
        <time>2022-07-06T13:28:44Z</time>
      </trkpt>
      <trkpt lat="41.9987" lon="-0.04884857">
        <time>2022-07-06T13:28:45Z</time>
      </trkpt>
      <trkpt lat="41.998642" lon="-0.04883857">
        <time>2022-07-06T13:28:46Z</time>
      </trkpt>
      <trkpt lat="41.998585" lon="-0.04882957">
        <time>2022-07-06T13:28:47Z</time>
      </trkpt>
      <trkpt lat="41.998528" lon="-0.04881991">
        <time>2022-07-06T13:28:48Z</time>
      </trkpt>
      <trkpt lat="41.99847" lon="-0.04881058">
        <time>2022-07-06T13:28:49Z</time>
      </trkpt>
      <trkpt lat="41.998413" lon="-0.04880158">
        <time>2022-07-06T13:28:50Z</time>
      </trkpt>
      <trkpt lat="41.99836" lon="-0.04879392">
        <time>2022-07-06T13:28:51Z</time>
      </trkpt>
      <trkpt lat="41.998306" lon="-0.04878592">
        <time>2022-07-06T13:28:52Z</time>
      </trkpt>
      <trkpt lat="41.998253" lon="-0.04877726">
        <time>2022-07-06T13:28:53Z</time>
      </trkpt>
      <trkpt lat="41.9982" lon="-0.04876893">
        <time>2022-07-06T13:28:54Z</time>
      </trkpt>
      <trkpt lat="41.9981" lon="-0.04875193">
        <time>2022-07-06T13:28:56Z</time>
      </trkpt>
      <trkpt lat="41.998043" lon="-0.04874293">
        <time>2022-07-06T13:28:57Z</time>
      </trkpt>
      <trkpt lat="41.99799" lon="-0.04873393">
        <time>2022-07-06T13:28:58Z</time>
      </trkpt>
      <trkpt lat="41.997936" lon="-0.04872427">
        <time>2022-07-06T13:28:59Z</time>
      </trkpt>
      <trkpt lat="41.99788" lon="-0.04871461">
        <time>2022-07-06T13:29:00Z</time>
      </trkpt>
      <trkpt lat="41.99783" lon="-0.04870661">
        <time>2022-07-06T13:29:01Z</time>
      </trkpt>
      <trkpt lat="41.997776" lon="-0.04869761">
        <time>2022-07-06T13:29:02Z</time>
      </trkpt>
      <trkpt lat="41.997723" lon="-0.04868861">
        <time>2022-07-06T13:29:03Z</time>
      </trkpt>
      <trkpt lat="41.99767" lon="-0.04867928">
        <time>2022-07-06T13:29:04Z</time>
      </trkpt>
      <trkpt lat="41.997616" lon="-0.04866995">
        <time>2022-07-06T13:29:05Z</time>
      </trkpt>
      <trkpt lat="41.99756" lon="-0.04866295">
        <time>2022-07-06T13:29:06Z</time>
      </trkpt>
      <trkpt lat="41.997505" lon="-0.04865529">
        <time>2022-07-06T13:29:07Z</time>
      </trkpt>
      <trkpt lat="41.997456" lon="-0.04864763">
        <time>2022-07-06T13:29:08Z</time>
      </trkpt>
      <trkpt lat="41.9974" lon="-0.04863897">
        <time>2022-07-06T13:29:09Z</time>
      </trkpt>
      <trkpt lat="41.997345" lon="-0.04862997">
        <time>2022-07-06T13:29:10Z</time>
      </trkpt>
      <trkpt lat="41.997288" lon="-0.04862064">
        <time>2022-07-06T13:29:11Z</time>
      </trkpt>
      <trkpt lat="41.997234" lon="-0.04861164">
        <time>2022-07-06T13:29:12Z</time>
      </trkpt>
      <trkpt lat="41.997185" lon="-0.04860431">
        <time>2022-07-06T13:29:13Z</time>
      </trkpt>
      <trkpt lat="41.997128" lon="-0.04859798">
        <time>2022-07-06T13:29:14Z</time>
      </trkpt>
      <trkpt lat="41.997074" lon="-0.04859098">
        <time>2022-07-06T13:29:15Z</time>
      </trkpt>
      <trkpt lat="41.99702" lon="-0.04858465">
        <time>2022-07-06T13:29:16Z</time>
      </trkpt>
      <trkpt lat="41.996967" lon="-0.04857799">
        <time>2022-07-06T13:29:17Z</time>
      </trkpt>
      <trkpt lat="41.996914" lon="-0.04857199">
        <time>2022-07-06T13:29:18Z</time>
      </trkpt>
      <trkpt lat="41.996857" lon="-0.04856366">
        <time>2022-07-06T13:29:19Z</time>
      </trkpt>
      <trkpt lat="41.996742" lon="-0.048545">
        <time>2022-07-06T13:29:21Z</time>
      </trkpt>
      <trkpt lat="41.996685" lon="-0.04853534">
        <time>2022-07-06T13:29:22Z</time>
      </trkpt>
      <trkpt lat="41.996624" lon="-0.04852268">
        <time>2022-07-06T13:29:23Z</time>
      </trkpt>
      <trkpt lat="41.996555" lon="-0.04850902">
        <time>2022-07-06T13:29:24Z</time>
      </trkpt>
      <trkpt lat="41.996487" lon="-0.04849569">
        <time>2022-07-06T13:29:25Z</time>
      </trkpt>
      <trkpt lat="41.996414" lon="-0.04848236">
        <time>2022-07-06T13:29:26Z</time>
      </trkpt>
      <trkpt lat="41.99634" lon="-0.04846936">
        <time>2022-07-06T13:29:27Z</time>
      </trkpt>
      <trkpt lat="41.99627" lon="-0.04845703">
        <time>2022-07-06T13:29:28Z</time>
      </trkpt>
      <trkpt lat="41.996193" lon="-0.0484437">
        <time>2022-07-06T13:29:29Z</time>
      </trkpt>
      <trkpt lat="41.996113" lon="-0.04843037">
        <time>2022-07-06T13:29:30Z</time>
      </trkpt>
      <trkpt lat="41.996033" lon="-0.04841704">
        <time>2022-07-06T13:29:31Z</time>
      </trkpt>
      <trkpt lat="41.995956" lon="-0.04840371">
        <time>2022-07-06T13:29:32Z</time>
      </trkpt>
      <trkpt lat="41.995876" lon="-0.04839105">
        <time>2022-07-06T13:29:33Z</time>
      </trkpt>
      <trkpt lat="41.995792" lon="-0.04837905">
        <time>2022-07-06T13:29:34Z</time>
      </trkpt>
      <trkpt lat="41.995712" lon="-0.04836672">
        <time>2022-07-06T13:29:35Z</time>
      </trkpt>
      <trkpt lat="41.995625" lon="-0.04835472">
        <time>2022-07-06T13:29:36Z</time>
      </trkpt>
      <trkpt lat="41.995537" lon="-0.04834272">
        <time>2022-07-06T13:29:37Z</time>
      </trkpt>
      <trkpt lat="41.995453" lon="-0.04833239">
        <time>2022-07-06T13:29:38Z</time>
      </trkpt>
      <trkpt lat="41.995365" lon="-0.04832173">
        <time>2022-07-06T13:29:39Z</time>
      </trkpt>
      <trkpt lat="41.995277" lon="-0.04830907">
        <time>2022-07-06T13:29:40Z</time>
      </trkpt>
      <trkpt lat="41.99519" lon="-0.04829474">
        <time>2022-07-06T13:29:41Z</time>
      </trkpt>
      <trkpt lat="41.9951" lon="-0.04827874">
        <time>2022-07-06T13:29:42Z</time>
      </trkpt>
      <trkpt lat="41.99501" lon="-0.04826341">
        <time>2022-07-06T13:29:43Z</time>
      </trkpt>
      <trkpt lat="41.994923" lon="-0.04824741">
        <time>2022-07-06T13:29:44Z</time>
      </trkpt>
      <trkpt lat="41.99484" lon="-0.04822975">
        <time>2022-07-06T13:29:45Z</time>
      </trkpt>
      <trkpt lat="41.99475" lon="-0.04821242">
        <time>2022-07-06T13:29:46Z</time>
      </trkpt>
      <trkpt lat="41.994663" lon="-0.04819509">
        <time>2022-07-06T13:29:47Z</time>
      </trkpt>
      <trkpt lat="41.99458" lon="-0.04817743">
        <time>2022-07-06T13:29:48Z</time>
      </trkpt>
      <trkpt lat="41.99449" lon="-0.04815977">
        <time>2022-07-06T13:29:49Z</time>
      </trkpt>
      <trkpt lat="41.994408" lon="-0.04814344">
        <time>2022-07-06T13:29:50Z</time>
      </trkpt>
      <trkpt lat="41.99432" lon="-0.04812811">
        <time>2022-07-06T13:29:51Z</time>
      </trkpt>
      <trkpt lat="41.994232" lon="-0.04811345">
        <time>2022-07-06T13:29:52Z</time>
      </trkpt>
      <trkpt lat="41.99415" lon="-0.04809979">
        <time>2022-07-06T13:29:53Z</time>
      </trkpt>
      <trkpt lat="41.994072" lon="-0.04808779">
        <time>2022-07-06T13:29:54Z</time>
      </trkpt>
      <trkpt lat="41.993996" lon="-0.04807579">
        <time>2022-07-06T13:29:55Z</time>
      </trkpt>
      <trkpt lat="41.993916" lon="-0.04806246">
        <time>2022-07-06T13:29:56Z</time>
      </trkpt>
      <trkpt lat="41.99384" lon="-0.04805013">
        <time>2022-07-06T13:29:57Z</time>
      </trkpt>
      <trkpt lat="41.993763" lon="-0.04803747">
        <time>2022-07-06T13:29:58Z</time>
      </trkpt>
      <trkpt lat="41.99369" lon="-0.04802581">
        <time>2022-07-06T13:29:59Z</time>
      </trkpt>
      <trkpt lat="41.99362" lon="-0.04801515">
        <time>2022-07-06T13:30:00Z</time>
      </trkpt>
      <trkpt lat="41.993553" lon="-0.04800482">
        <time>2022-07-06T13:30:01Z</time>
      </trkpt>
      <trkpt lat="41.993484" lon="-0.04799216">
        <time>2022-07-06T13:30:02Z</time>
      </trkpt>
      <trkpt lat="41.993423" lon="-0.04798183">
        <time>2022-07-06T13:30:03Z</time>
      </trkpt>
      <trkpt lat="41.993366" lon="-0.04797283">
        <time>2022-07-06T13:30:04Z</time>
      </trkpt>
      <trkpt lat="41.99331" lon="-0.04796483">
        <time>2022-07-06T13:30:05Z</time>
      </trkpt>
      <trkpt lat="41.99325" lon="-0.04795683">
        <time>2022-07-06T13:30:06Z</time>
      </trkpt>
      <trkpt lat="41.993195" lon="-0.04794783">
        <time>2022-07-06T13:30:07Z</time>
      </trkpt>
      <trkpt lat="41.99314" lon="-0.04793817">
        <time>2022-07-06T13:30:08Z</time>
      </trkpt>
      <trkpt lat="41.99309" lon="-0.04792884">
        <time>2022-07-06T13:30:09Z</time>
      </trkpt>
      <trkpt lat="41.993042" lon="-0.04792118">
        <time>2022-07-06T13:30:10Z</time>
      </trkpt>
      <trkpt lat="41.992996" lon="-0.04791418">
        <time>2022-07-06T13:30:11Z</time>
      </trkpt>
      <trkpt lat="41.992897" lon="-0.04790218">
        <time>2022-07-06T13:30:13Z</time>
      </trkpt>
      <trkpt lat="41.992844" lon="-0.04789552">
        <time>2022-07-06T13:30:14Z</time>
      </trkpt>
      <trkpt lat="41.992756" lon="-0.04788219">
        <time>2022-07-06T13:30:16Z</time>
      </trkpt>
      <trkpt lat="41.99266" lon="-0.04786553">
        <time>2022-07-06T13:30:18Z</time>
      </trkpt>
      <trkpt lat="41.99257" lon="-0.04784953">
        <time>2022-07-06T13:30:20Z</time>
      </trkpt>
      <trkpt lat="41.992477" lon="-0.04783553">
        <time>2022-07-06T13:30:22Z</time>
      </trkpt>
      <trkpt lat="41.992428" lon="-0.0478282">
        <time>2022-07-06T13:30:23Z</time>
      </trkpt>
      <trkpt lat="41.992332" lon="-0.04781287">
        <time>2022-07-06T13:30:25Z</time>
      </trkpt>
      <trkpt lat="41.992283" lon="-0.04780487">
        <time>2022-07-06T13:30:26Z</time>
      </trkpt>
      <trkpt lat="41.99218" lon="-0.04778887">
        <time>2022-07-06T13:30:28Z</time>
      </trkpt>
      <trkpt lat="41.992123" lon="-0.04777987">
        <time>2022-07-06T13:30:29Z</time>
      </trkpt>
      <trkpt lat="41.992065" lon="-0.04777121">
        <time>2022-07-06T13:30:30Z</time>
      </trkpt>
      <trkpt lat="41.992004" lon="-0.04776221">
        <time>2022-07-06T13:30:31Z</time>
      </trkpt>
      <trkpt lat="41.991943" lon="-0.04775255">
        <time>2022-07-06T13:30:32Z</time>
      </trkpt>
      <trkpt lat="41.991882" lon="-0.04774322">
        <time>2022-07-06T13:30:33Z</time>
      </trkpt>
      <trkpt lat="41.991817" lon="-0.04773289">
        <time>2022-07-06T13:30:34Z</time>
      </trkpt>
      <trkpt lat="41.99175" lon="-0.04772256">
        <time>2022-07-06T13:30:35Z</time>
      </trkpt>
      <trkpt lat="41.991684" lon="-0.04771256">
        <time>2022-07-06T13:30:36Z</time>
      </trkpt>
      <trkpt lat="41.991615" lon="-0.0477019">
        <time>2022-07-06T13:30:37Z</time>
      </trkpt>
      <trkpt lat="41.991543" lon="-0.04769024">
        <time>2022-07-06T13:30:38Z</time>
      </trkpt>
      <trkpt lat="41.991474" lon="-0.04767924">
        <time>2022-07-06T13:30:39Z</time>
      </trkpt>
      <trkpt lat="41.9914" lon="-0.04766924">
        <time>2022-07-06T13:30:40Z</time>
      </trkpt>
      <trkpt lat="41.991253" lon="-0.04764658">
        <time>2022-07-06T13:30:42Z</time>
      </trkpt>
      <trkpt lat="41.99118" lon="-0.04763458">
        <time>2022-07-06T13:30:43Z</time>
      </trkpt>
      <trkpt lat="41.991108" lon="-0.04762158">
        <time>2022-07-06T13:30:44Z</time>
      </trkpt>
      <trkpt lat="41.991035" lon="-0.04761025">
        <time>2022-07-06T13:30:45Z</time>
      </trkpt>
      <trkpt lat="41.990963" lon="-0.04759925">
        <time>2022-07-06T13:30:46Z</time>
      </trkpt>
      <trkpt lat="41.990894" lon="-0.04758925">
        <time>2022-07-06T13:30:47Z</time>
      </trkpt>
      <trkpt lat="41.99082" lon="-0.04757959">
        <time>2022-07-06T13:30:48Z</time>
      </trkpt>
      <trkpt lat="41.990753" lon="-0.04756926">
        <time>2022-07-06T13:30:49Z</time>
      </trkpt>
      <trkpt lat="41.990685" lon="-0.0475586">
        <time>2022-07-06T13:30:50Z</time>
      </trkpt>
      <trkpt lat="41.99062" lon="-0.04754827">
        <time>2022-07-06T13:30:51Z</time>
      </trkpt>
      <trkpt lat="41.990555" lon="-0.04753727">
        <time>2022-07-06T13:30:52Z</time>
      </trkpt>
      <trkpt lat="41.990494" lon="-0.04752627">
        <time>2022-07-06T13:30:53Z</time>
      </trkpt>
      <trkpt lat="41.990437" lon="-0.04751427">
        <time>2022-07-06T13:30:54Z</time>
      </trkpt>
      <trkpt lat="41.990383" lon="-0.04750027">
        <time>2022-07-06T13:30:55Z</time>
      </trkpt>
      <trkpt lat="41.990334" lon="-0.04748227">
        <time>2022-07-06T13:30:56Z</time>
      </trkpt>
      <trkpt lat="41.990253" lon="-0.04743194">
        <time>2022-07-06T13:30:58Z</time>
      </trkpt>
      <trkpt lat="41.9902" lon="-0.04736594">
        <time>2022-07-06T13:31:00Z</time>
      </trkpt>
      <trkpt lat="41.99016" lon="-0.04730094">
        <time>2022-07-06T13:31:02Z</time>
      </trkpt>
      <trkpt lat="41.990124" lon="-0.04724461">
        <time>2022-07-06T13:31:04Z</time>
      </trkpt>
      <trkpt lat="41.990097" lon="-0.04719195">
        <time>2022-07-06T13:31:06Z</time>
      </trkpt>
      <trkpt lat="41.990063" lon="-0.04714029">
        <time>2022-07-06T13:32:11Z</time>
      </trkpt>
      <trkpt lat="41.99013" lon="-0.04715862">
        <time>2022-07-06T13:34:01Z</time>
      </trkpt>
      <trkpt lat="41.990112" lon="-0.04716062">
        <time>2022-07-06T13:34:15Z</time>
      </trkpt>
      <trkpt lat="41.990074" lon="-0.04712829">
        <time>2022-07-06T13:34:20Z</time>
      </trkpt>
      <trkpt lat="41.990116" lon="-0.04714829">
        <time>2022-07-06T13:34:46Z</time>
      </trkpt>
      <trkpt lat="41.99016" lon="-0.04719829">
        <time>2022-07-06T13:34:51Z</time>
      </trkpt>
      <trkpt lat="41.990196" lon="-0.04722462">
        <time>2022-07-06T13:34:56Z</time>
      </trkpt>
      <trkpt lat="41.990215" lon="-0.04732495">
        <time>2022-07-06T13:55:59Z</time>
      </trkpt>
      <trkpt lat="41.99018" lon="-0.04736761">
        <time>2022-07-06T13:56:05Z</time>
      </trkpt>
      <trkpt lat="41.990253" lon="-0.04725395">
        <time>2022-07-06T14:27:18Z</time>
      </trkpt>
      <trkpt lat="41.990257" lon="-0.04728795">
        <time>2022-07-06T14:27:28Z</time>
      </trkpt>
      <trkpt lat="41.990192" lon="-0.04708795">
        <time>2022-07-06T14:28:06Z</time>
      </trkpt>
      <trkpt lat="41.990173" lon="-0.04700529">
        <time>2022-07-06T14:28:11Z</time>
      </trkpt>
      <trkpt lat="41.990173" lon="-0.04736362">
        <time>2022-07-06T14:31:33Z</time>
      </trkpt>
      <trkpt lat="41.990334" lon="-0.04701262">
        <time>2022-07-06T15:06:43Z</time>
      </trkpt>
      <trkpt lat="41.990326" lon="-0.04698862">
        <time>2022-07-06T15:11:53Z</time>
      </trkpt>
      <trkpt lat="41.99026" lon="-0.04703528">
        <time>2022-07-06T15:11:56Z</time>
      </trkpt>
      <trkpt lat="41.99026" lon="-0.04702595">
        <time>2022-07-06T15:12:01Z</time>
      </trkpt>
      <trkpt lat="41.990307" lon="-0.04698262">
        <time>2022-07-06T15:12:04Z</time>
      </trkpt>
      <trkpt lat="41.990387" lon="-0.04694929">
        <time>2022-07-06T15:12:07Z</time>
      </trkpt>
      <trkpt lat="41.990402" lon="-0.04697662">
        <time>2022-07-06T15:12:11Z</time>
      </trkpt>
      <trkpt lat="41.990368" lon="-0.04703295">
        <time>2022-07-06T15:12:17Z</time>
      </trkpt>
      <trkpt lat="41.99022" lon="-0.04717861">
        <time>2022-07-06T15:12:27Z</time>
      </trkpt>
      <trkpt lat="41.990158" lon="-0.04718494">
        <time>2022-07-06T15:13:10Z</time>
      </trkpt>
      <trkpt lat="41.99015" lon="-0.04726094">
        <time>2022-07-06T15:13:14Z</time>
      </trkpt>
      <trkpt lat="41.990116" lon="-0.04725628">
        <time>2022-07-06T15:13:18Z</time>
      </trkpt>
      <trkpt lat="41.990105" lon="-0.04730294">
        <time>2022-07-06T15:13:24Z</time>
      </trkpt>
      <trkpt lat="41.990124" lon="-0.04716294">
        <time>2022-07-06T15:16:13Z</time>
      </trkpt>
      <trkpt lat="41.99018" lon="-0.0471646">
        <time>2022-07-06T15:16:33Z</time>
      </trkpt>
      <trkpt lat="41.990177" lon="-0.0471706">
        <time>2022-07-06T15:49:55Z</time>
      </trkpt>
      <trkpt lat="41.990257" lon="-0.04705494">
        <time>2022-07-06T15:52:00Z</time>
      </trkpt>
      <trkpt lat="41.990227" lon="-0.0470986">
        <time>2022-07-06T15:52:06Z</time>
      </trkpt>
      <trkpt lat="41.99017" lon="-0.04710393">
        <time>2022-07-06T15:52:12Z</time>
      </trkpt>
      <trkpt lat="41.99014" lon="-0.04714593">
        <time>2022-07-06T15:52:18Z</time>
      </trkpt>
      <trkpt lat="41.990196" lon="-0.04718159">
        <time>2022-07-06T15:53:11Z</time>
      </trkpt>
      <trkpt lat="41.99023" lon="-0.04722659">
        <time>2022-07-06T15:53:17Z</time>
      </trkpt>
      <trkpt lat="41.99019" lon="-0.04737359">
        <time>2022-07-06T15:57:12Z</time>
      </trkpt>
      <trkpt lat="41.990135" lon="-0.04738359">
        <time>2022-07-06T15:57:16Z</time>
      </trkpt>
      <trkpt lat="41.990078" lon="-0.04740925">
        <time>2022-07-06T15:58:05Z</time>
      </trkpt>
      <trkpt lat="41.990005" lon="-0.04745058">
        <time>2022-07-06T15:58:09Z</time>
      </trkpt>
      <trkpt lat="41.989937" lon="-0.04744592">
        <time>2022-07-06T15:58:11Z</time>
      </trkpt>
      <trkpt lat="41.989853" lon="-0.04743826">
        <time>2022-07-06T15:58:13Z</time>
      </trkpt>
      <trkpt lat="41.989746" lon="-0.04743693">
        <time>2022-07-06T15:58:15Z</time>
      </trkpt>
      <trkpt lat="41.989693" lon="-0.04743693">
        <time>2022-07-06T15:58:16Z</time>
      </trkpt>
      <trkpt lat="41.98963" lon="-0.04743593">
        <time>2022-07-06T15:58:17Z</time>
      </trkpt>
      <trkpt lat="41.989574" lon="-0.04743393">
        <time>2022-07-06T15:58:18Z</time>
      </trkpt>
      <trkpt lat="41.98951" lon="-0.04743093">
        <time>2022-07-06T15:58:19Z</time>
      </trkpt>
      <trkpt lat="41.989445" lon="-0.0474286">
        <time>2022-07-06T15:58:20Z</time>
      </trkpt>
      <trkpt lat="41.989376" lon="-0.04742627">
        <time>2022-07-06T15:58:21Z</time>
      </trkpt>
      <trkpt lat="41.989307" lon="-0.04742427">
        <time>2022-07-06T15:58:22Z</time>
      </trkpt>
      <trkpt lat="41.98924" lon="-0.04742194">
        <time>2022-07-06T15:58:23Z</time>
      </trkpt>
      <trkpt lat="41.98917" lon="-0.04741728">
        <time>2022-07-06T15:58:24Z</time>
      </trkpt>
      <trkpt lat="41.9891" lon="-0.04741228">
        <time>2022-07-06T15:58:25Z</time>
      </trkpt>
      <trkpt lat="41.989033" lon="-0.04740728">
        <time>2022-07-06T15:58:26Z</time>
      </trkpt>
      <trkpt lat="41.988964" lon="-0.04740228">
        <time>2022-07-06T15:58:27Z</time>
      </trkpt>
      <trkpt lat="41.988895" lon="-0.04739762">
        <time>2022-07-06T15:58:28Z</time>
      </trkpt>
      <trkpt lat="41.988823" lon="-0.04739396">
        <time>2022-07-06T15:58:29Z</time>
      </trkpt>
      <trkpt lat="41.98875" lon="-0.04739163">
        <time>2022-07-06T15:58:30Z</time>
      </trkpt>
      <trkpt lat="41.988674" lon="-0.04738963">
        <time>2022-07-06T15:58:31Z</time>
      </trkpt>
      <trkpt lat="41.9886" lon="-0.04738797">
        <time>2022-07-06T15:58:32Z</time>
      </trkpt>
      <trkpt lat="41.988533" lon="-0.04738664">
        <time>2022-07-06T15:58:33Z</time>
      </trkpt>
      <trkpt lat="41.98846" lon="-0.04738464">
        <time>2022-07-06T15:58:34Z</time>
      </trkpt>
      <trkpt lat="41.988388" lon="-0.04738264">
        <time>2022-07-06T15:58:35Z</time>
      </trkpt>
      <trkpt lat="41.988316" lon="-0.04738064">
        <time>2022-07-06T15:58:36Z</time>
      </trkpt>
      <trkpt lat="41.988243" lon="-0.04737931">
        <time>2022-07-06T15:58:37Z</time>
      </trkpt>
      <trkpt lat="41.988174" lon="-0.04737698">
        <time>2022-07-06T15:58:38Z</time>
      </trkpt>
      <trkpt lat="41.988106" lon="-0.04737298">
        <time>2022-07-06T15:58:39Z</time>
      </trkpt>
      <trkpt lat="41.988033" lon="-0.04736898">
        <time>2022-07-06T15:58:40Z</time>
      </trkpt>
      <trkpt lat="41.98797" lon="-0.04736532">
        <time>2022-07-06T15:58:41Z</time>
      </trkpt>
      <trkpt lat="41.987904" lon="-0.04736199">
        <time>2022-07-06T15:58:42Z</time>
      </trkpt>
      <trkpt lat="41.98784" lon="-0.04735933">
        <time>2022-07-06T15:58:43Z</time>
      </trkpt>
      <trkpt lat="41.987766" lon="-0.04735633">
        <time>2022-07-06T15:58:44Z</time>
      </trkpt>
      <trkpt lat="41.9877" lon="-0.04735333">
        <time>2022-07-06T15:58:45Z</time>
      </trkpt>
      <trkpt lat="41.987633" lon="-0.04735">
        <time>2022-07-06T15:58:46Z</time>
      </trkpt>
      <trkpt lat="41.987568" lon="-0.04734734">
        <time>2022-07-06T15:58:47Z</time>
      </trkpt>
      <trkpt lat="41.987507" lon="-0.04734434">
        <time>2022-07-06T15:58:48Z</time>
      </trkpt>
      <trkpt lat="41.987442" lon="-0.04734234">
        <time>2022-07-06T15:58:49Z</time>
      </trkpt>
      <trkpt lat="41.987377" lon="-0.04734068">
        <time>2022-07-06T15:58:50Z</time>
      </trkpt>
      <trkpt lat="41.987312" lon="-0.04733902">
        <time>2022-07-06T15:58:51Z</time>
      </trkpt>
      <trkpt lat="41.98725" lon="-0.04733702">
        <time>2022-07-06T15:58:52Z</time>
      </trkpt>
      <trkpt lat="41.987186" lon="-0.04733636">
        <time>2022-07-06T15:58:53Z</time>
      </trkpt>
      <trkpt lat="41.98712" lon="-0.04733603">
        <time>2022-07-06T15:58:54Z</time>
      </trkpt>
      <trkpt lat="41.987057" lon="-0.0473357">
        <time>2022-07-06T15:58:55Z</time>
      </trkpt>
      <trkpt lat="41.986996" lon="-0.04733437">
        <time>2022-07-06T15:58:56Z</time>
      </trkpt>
      <trkpt lat="41.986935" lon="-0.04732937">
        <time>2022-07-06T15:58:57Z</time>
      </trkpt>
      <trkpt lat="41.986874" lon="-0.04731704">
        <time>2022-07-06T15:58:58Z</time>
      </trkpt>
      <trkpt lat="41.986816" lon="-0.04729571">
        <time>2022-07-06T15:58:59Z</time>
      </trkpt>
      <trkpt lat="41.986763" lon="-0.04726338">
        <time>2022-07-06T15:59:00Z</time>
      </trkpt>
      <trkpt lat="41.986713" lon="-0.04721972">
        <time>2022-07-06T15:59:01Z</time>
      </trkpt>
      <trkpt lat="41.98667" lon="-0.04716672">
        <time>2022-07-06T15:59:02Z</time>
      </trkpt>
      <trkpt lat="41.986633" lon="-0.04710672">
        <time>2022-07-06T15:59:03Z</time>
      </trkpt>
      <trkpt lat="41.9866" lon="-0.04704006">
        <time>2022-07-06T15:59:04Z</time>
      </trkpt>
      <trkpt lat="41.986572" lon="-0.0469674">
        <time>2022-07-06T15:59:05Z</time>
      </trkpt>
      <trkpt lat="41.98654" lon="-0.04688374">
        <time>2022-07-06T15:59:06Z</time>
      </trkpt>
      <trkpt lat="41.986515" lon="-0.04680374">
        <time>2022-07-06T15:59:07Z</time>
      </trkpt>
      <trkpt lat="41.986492" lon="-0.04672174">
        <time>2022-07-06T15:59:08Z</time>
      </trkpt>
      <trkpt lat="41.986465" lon="-0.04663774">
        <time>2022-07-06T15:59:09Z</time>
      </trkpt>
      <trkpt lat="41.986416" lon="-0.04646541">
        <time>2022-07-06T15:59:11Z</time>
      </trkpt>
      <trkpt lat="41.986393" lon="-0.04637641">
        <time>2022-07-06T15:59:12Z</time>
      </trkpt>
      <trkpt lat="41.986366" lon="-0.04628641">
        <time>2022-07-06T15:59:13Z</time>
      </trkpt>
      <trkpt lat="41.986343" lon="-0.04619575">
        <time>2022-07-06T15:59:14Z</time>
      </trkpt>
      <trkpt lat="41.986317" lon="-0.04610475">
        <time>2022-07-06T15:59:15Z</time>
      </trkpt>
      <trkpt lat="41.98629" lon="-0.04601442">
        <time>2022-07-06T15:59:16Z</time>
      </trkpt>
      <trkpt lat="41.986267" lon="-0.04592342">
        <time>2022-07-06T15:59:17Z</time>
      </trkpt>
      <trkpt lat="41.98624" lon="-0.04583176">
        <time>2022-07-06T15:59:18Z</time>
      </trkpt>
      <trkpt lat="41.986214" lon="-0.04573943">
        <time>2022-07-06T15:59:19Z</time>
      </trkpt>
      <trkpt lat="41.986187" lon="-0.04564577">
        <time>2022-07-06T15:59:20Z</time>
      </trkpt>
      <trkpt lat="41.986164" lon="-0.04555144">
        <time>2022-07-06T15:59:21Z</time>
      </trkpt>
      <trkpt lat="41.986137" lon="-0.04545778">
        <time>2022-07-06T15:59:22Z</time>
      </trkpt>
      <trkpt lat="41.98611" lon="-0.04536445">
        <time>2022-07-06T15:59:23Z</time>
      </trkpt>
      <trkpt lat="41.986084" lon="-0.04527145">
        <time>2022-07-06T15:59:24Z</time>
      </trkpt>
      <trkpt lat="41.986057" lon="-0.04517845">
        <time>2022-07-06T15:59:25Z</time>
      </trkpt>
      <trkpt lat="41.98603" lon="-0.04508579">
        <time>2022-07-06T15:59:26Z</time>
      </trkpt>
      <trkpt lat="41.986004" lon="-0.04499213">
        <time>2022-07-06T15:59:27Z</time>
      </trkpt>
      <trkpt lat="41.985977" lon="-0.04489847">
        <time>2022-07-06T15:59:28Z</time>
      </trkpt>
      <trkpt lat="41.98595" lon="-0.04480447">
        <time>2022-07-06T15:59:29Z</time>
      </trkpt>
      <trkpt lat="41.98592" lon="-0.04471014">
        <time>2022-07-06T15:59:30Z</time>
      </trkpt>
      <trkpt lat="41.985893" lon="-0.04461514">
        <time>2022-07-06T15:59:31Z</time>
      </trkpt>
      <trkpt lat="41.985867" lon="-0.04452014">
        <time>2022-07-06T15:59:32Z</time>
      </trkpt>
      <trkpt lat="41.98584" lon="-0.04442414">
        <time>2022-07-06T15:59:33Z</time>
      </trkpt>
      <trkpt lat="41.985813" lon="-0.04432814">
        <time>2022-07-06T15:59:34Z</time>
      </trkpt>
      <trkpt lat="41.985783" lon="-0.04423214">
        <time>2022-07-06T15:59:35Z</time>
      </trkpt>
      <trkpt lat="41.985756" lon="-0.04413548">
        <time>2022-07-06T15:59:36Z</time>
      </trkpt>
      <trkpt lat="41.98573" lon="-0.04403848">
        <time>2022-07-06T15:59:37Z</time>
      </trkpt>
      <trkpt lat="41.9857" lon="-0.04393548">
        <time>2022-07-06T15:59:38Z</time>
      </trkpt>
      <trkpt lat="41.98567" lon="-0.04384015">
        <time>2022-07-06T15:59:39Z</time>
      </trkpt>
      <trkpt lat="41.98564" lon="-0.04374449">
        <time>2022-07-06T15:59:40Z</time>
      </trkpt>
      <trkpt lat="41.985615" lon="-0.04364749">
        <time>2022-07-06T15:59:41Z</time>
      </trkpt>
      <trkpt lat="41.985588" lon="-0.04354949">
        <time>2022-07-06T15:59:42Z</time>
      </trkpt>
      <trkpt lat="41.985558" lon="-0.04345183">
        <time>2022-07-06T15:59:43Z</time>
      </trkpt>
      <trkpt lat="41.98553" lon="-0.04335417">
        <time>2022-07-06T15:59:44Z</time>
      </trkpt>
      <trkpt lat="41.985504" lon="-0.04325617">
        <time>2022-07-06T15:59:45Z</time>
      </trkpt>
      <trkpt lat="41.985474" lon="-0.04315817">
        <time>2022-07-06T15:59:46Z</time>
      </trkpt>
      <trkpt lat="41.985447" lon="-0.04305984">
        <time>2022-07-06T15:59:47Z</time>
      </trkpt>
      <trkpt lat="41.985416" lon="-0.04296118">
        <time>2022-07-06T15:59:48Z</time>
      </trkpt>
      <trkpt lat="41.98539" lon="-0.04286252">
        <time>2022-07-06T15:59:49Z</time>
      </trkpt>
      <trkpt lat="41.98536" lon="-0.04276452">
        <time>2022-07-06T15:59:50Z</time>
      </trkpt>
      <trkpt lat="41.98533" lon="-0.04266686">
        <time>2022-07-06T15:59:51Z</time>
      </trkpt>
      <trkpt lat="41.985302" lon="-0.0425692">
        <time>2022-07-06T15:59:52Z</time>
      </trkpt>
      <trkpt lat="41.98527" lon="-0.04247054">
        <time>2022-07-06T15:59:53Z</time>
      </trkpt>
      <trkpt lat="41.98524" lon="-0.04236688">
        <time>2022-07-06T15:59:54Z</time>
      </trkpt>
      <trkpt lat="41.985214" lon="-0.04227188">
        <time>2022-07-06T15:59:55Z</time>
      </trkpt>
      <trkpt lat="41.985188" lon="-0.04217622">
        <time>2022-07-06T15:59:56Z</time>
      </trkpt>
      <trkpt lat="41.985157" lon="-0.04208089">
        <time>2022-07-06T15:59:57Z</time>
      </trkpt>
      <trkpt lat="41.98513" lon="-0.04198623">
        <time>2022-07-06T15:59:58Z</time>
      </trkpt>
      <trkpt lat="41.985104" lon="-0.04189123">
        <time>2022-07-06T15:59:59Z</time>
      </trkpt>
      <trkpt lat="41.985073" lon="-0.0417969">
        <time>2022-07-06T16:00:00Z</time>
      </trkpt>
      <trkpt lat="41.985046" lon="-0.0417029">
        <time>2022-07-06T16:00:01Z</time>
      </trkpt>
      <trkpt lat="41.98502" lon="-0.0416099">
        <time>2022-07-06T16:00:02Z</time>
      </trkpt>
      <trkpt lat="41.984993" lon="-0.04151757">
        <time>2022-07-06T16:00:03Z</time>
      </trkpt>
      <trkpt lat="41.984966" lon="-0.04142624">
        <time>2022-07-06T16:00:04Z</time>
      </trkpt>
      <trkpt lat="41.98494" lon="-0.04133524">
        <time>2022-07-06T16:00:05Z</time>
      </trkpt>
      <trkpt lat="41.984913" lon="-0.04124391">
        <time>2022-07-06T16:00:06Z</time>
      </trkpt>
      <trkpt lat="41.984886" lon="-0.04115325">
        <time>2022-07-06T16:00:07Z</time>
      </trkpt>
      <trkpt lat="41.98486" lon="-0.04106259">
        <time>2022-07-06T16:00:08Z</time>
      </trkpt>
      <trkpt lat="41.984833" lon="-0.04097326">
        <time>2022-07-06T16:00:09Z</time>
      </trkpt>
      <trkpt lat="41.984806" lon="-0.0408846">
        <time>2022-07-06T16:00:10Z</time>
      </trkpt>
      <trkpt lat="41.984776" lon="-0.04079694">
        <time>2022-07-06T16:00:11Z</time>
      </trkpt>
      <trkpt lat="41.984745" lon="-0.04070928">
        <time>2022-07-06T16:00:12Z</time>
      </trkpt>
      <trkpt lat="41.98472" lon="-0.04062295">
        <time>2022-07-06T16:00:13Z</time>
      </trkpt>
      <trkpt lat="41.984688" lon="-0.04053129">
        <time>2022-07-06T16:00:14Z</time>
      </trkpt>
      <trkpt lat="41.984657" lon="-0.04044263">
        <time>2022-07-06T16:00:15Z</time>
      </trkpt>
      <trkpt lat="41.98459" lon="-0.04027363">
        <time>2022-07-06T16:00:17Z</time>
      </trkpt>
      <trkpt lat="41.98455" lon="-0.04019897">
        <time>2022-07-06T16:00:18Z</time>
      </trkpt>
      <trkpt lat="41.98451" lon="-0.04012664">
        <time>2022-07-06T16:00:19Z</time>
      </trkpt>
      <trkpt lat="41.984463" lon="-0.04005898">
        <time>2022-07-06T16:00:20Z</time>
      </trkpt>
      <trkpt lat="41.984413" lon="-0.03999565">
        <time>2022-07-06T16:00:21Z</time>
      </trkpt>
      <trkpt lat="41.98436" lon="-0.03993765">
        <time>2022-07-06T16:00:22Z</time>
      </trkpt>
      <trkpt lat="41.984306" lon="-0.03988399">
        <time>2022-07-06T16:00:23Z</time>
      </trkpt>
      <trkpt lat="41.984245" lon="-0.03983033">
        <time>2022-07-06T16:00:24Z</time>
      </trkpt>
      <trkpt lat="41.984184" lon="-0.039784">
        <time>2022-07-06T16:00:25Z</time>
      </trkpt>
      <trkpt lat="41.984127" lon="-0.039739">
        <time>2022-07-06T16:00:26Z</time>
      </trkpt>
      <trkpt lat="41.984066" lon="-0.03969567">
        <time>2022-07-06T16:00:27Z</time>
      </trkpt>
      <trkpt lat="41.984005" lon="-0.03965367">
        <time>2022-07-06T16:00:28Z</time>
      </trkpt>
      <trkpt lat="41.983944" lon="-0.03961201">
        <time>2022-07-06T16:00:29Z</time>
      </trkpt>
      <trkpt lat="41.98388" lon="-0.03957168">
        <time>2022-07-06T16:00:30Z</time>
      </trkpt>
      <trkpt lat="41.983818" lon="-0.03953268">
        <time>2022-07-06T16:00:31Z</time>
      </trkpt>
      <trkpt lat="41.983753" lon="-0.03949402">
        <time>2022-07-06T16:00:32Z</time>
      </trkpt>
      <trkpt lat="41.983692" lon="-0.03945569">
        <time>2022-07-06T16:00:33Z</time>
      </trkpt>
      <trkpt lat="41.983627" lon="-0.03941736">
        <time>2022-07-06T16:00:34Z</time>
      </trkpt>
      <trkpt lat="41.983566" lon="-0.0393787">
        <time>2022-07-06T16:00:35Z</time>
      </trkpt>
      <trkpt lat="41.9835" lon="-0.03933937">
        <time>2022-07-06T16:00:36Z</time>
      </trkpt>
      <trkpt lat="41.983437" lon="-0.03930037">
        <time>2022-07-06T16:00:37Z</time>
      </trkpt>
      <trkpt lat="41.983376" lon="-0.03926104">
        <time>2022-07-06T16:00:38Z</time>
      </trkpt>
      <trkpt lat="41.98331" lon="-0.03922204">
        <time>2022-07-06T16:00:39Z</time>
      </trkpt>
      <trkpt lat="41.983246" lon="-0.03918338">
        <time>2022-07-06T16:00:40Z</time>
      </trkpt>
      <trkpt lat="41.983185" lon="-0.03914472">
        <time>2022-07-06T16:00:41Z</time>
      </trkpt>
      <trkpt lat="41.983124" lon="-0.03910572">
        <time>2022-07-06T16:00:42Z</time>
      </trkpt>
      <trkpt lat="41.98306" lon="-0.03906639">
        <time>2022-07-06T16:00:43Z</time>
      </trkpt>
      <trkpt lat="41.982998" lon="-0.03902739">
        <time>2022-07-06T16:00:44Z</time>
      </trkpt>
      <trkpt lat="41.982937" lon="-0.03898773">
        <time>2022-07-06T16:00:45Z</time>
      </trkpt>
      <trkpt lat="41.98287" lon="-0.03894507">
        <time>2022-07-06T16:00:46Z</time>
      </trkpt>
      <trkpt lat="41.9828" lon="-0.03890274">
        <time>2022-07-06T16:00:47Z</time>
      </trkpt>
      <trkpt lat="41.98274" lon="-0.03886208">
        <time>2022-07-06T16:00:48Z</time>
      </trkpt>
      <trkpt lat="41.982677" lon="-0.03882508">
        <time>2022-07-06T16:00:49Z</time>
      </trkpt>
      <trkpt lat="41.982616" lon="-0.03878742">
        <time>2022-07-06T16:00:50Z</time>
      </trkpt>
      <trkpt lat="41.982555" lon="-0.03874909">
        <time>2022-07-06T16:00:51Z</time>
      </trkpt>
      <trkpt lat="41.982494" lon="-0.03871143">
        <time>2022-07-06T16:00:52Z</time>
      </trkpt>
      <trkpt lat="41.982426" lon="-0.0386711">
        <time>2022-07-06T16:00:53Z</time>
      </trkpt>
      <trkpt lat="41.982365" lon="-0.0386351">
        <time>2022-07-06T16:00:54Z</time>
      </trkpt>
      <trkpt lat="41.982304" lon="-0.03859677">
        <time>2022-07-06T16:00:55Z</time>
      </trkpt>
      <trkpt lat="41.98224" lon="-0.03855644">
        <time>2022-07-06T16:00:56Z</time>
      </trkpt>
      <trkpt lat="41.982178" lon="-0.03851244">
        <time>2022-07-06T16:00:57Z</time>
      </trkpt>
      <trkpt lat="41.982117" lon="-0.03846878">
        <time>2022-07-06T16:00:58Z</time>
      </trkpt>
      <trkpt lat="41.98205" lon="-0.03842578">
        <time>2022-07-06T16:00:59Z</time>
      </trkpt>
      <trkpt lat="41.981987" lon="-0.03838012">
        <time>2022-07-06T16:01:00Z</time>
      </trkpt>
      <trkpt lat="41.981922" lon="-0.03833846">
        <time>2022-07-06T16:01:01Z</time>
      </trkpt>
      <trkpt lat="41.981853" lon="-0.03829813">
        <time>2022-07-06T16:01:02Z</time>
      </trkpt>
      <trkpt lat="41.981792" lon="-0.03825847">
        <time>2022-07-06T16:01:03Z</time>
      </trkpt>
      <trkpt lat="41.98173" lon="-0.03822147">
        <time>2022-07-06T16:01:04Z</time>
      </trkpt>
      <trkpt lat="41.98167" lon="-0.03818347">
        <time>2022-07-06T16:01:05Z</time>
      </trkpt>
      <trkpt lat="41.98161" lon="-0.03814481">
        <time>2022-07-06T16:01:06Z</time>
      </trkpt>
      <trkpt lat="41.98155" lon="-0.03810615">
        <time>2022-07-06T16:01:07Z</time>
      </trkpt>
      <trkpt lat="41.981487" lon="-0.03806715">
        <time>2022-07-06T16:01:08Z</time>
      </trkpt>
      <trkpt lat="41.981426" lon="-0.03802782">
        <time>2022-07-06T16:01:09Z</time>
      </trkpt>
      <trkpt lat="41.981365" lon="-0.03798882">
        <time>2022-07-06T16:01:10Z</time>
      </trkpt>
      <trkpt lat="41.981304" lon="-0.03795116">
        <time>2022-07-06T16:01:11Z</time>
      </trkpt>
      <trkpt lat="41.981243" lon="-0.03791383">
        <time>2022-07-06T16:01:12Z</time>
      </trkpt>
      <trkpt lat="41.981182" lon="-0.03787717">
        <time>2022-07-06T16:01:13Z</time>
      </trkpt>
      <trkpt lat="41.98112" lon="-0.03784084">
        <time>2022-07-06T16:01:14Z</time>
      </trkpt>
      <trkpt lat="41.98106" lon="-0.03780418">
        <time>2022-07-06T16:01:15Z</time>
      </trkpt>
      <trkpt lat="41.981003" lon="-0.03776785">
        <time>2022-07-06T16:01:16Z</time>
      </trkpt>
      <trkpt lat="41.980946" lon="-0.03773019">
        <time>2022-07-06T16:01:17Z</time>
      </trkpt>
      <trkpt lat="41.98083" lon="-0.03765253">
        <time>2022-07-06T16:01:19Z</time>
      </trkpt>
      <trkpt lat="41.980778" lon="-0.03761687">
        <time>2022-07-06T16:01:20Z</time>
      </trkpt>
      <trkpt lat="41.98072" lon="-0.03758054">
        <time>2022-07-06T16:01:21Z</time>
      </trkpt>
      <trkpt lat="41.980663" lon="-0.03754554">
        <time>2022-07-06T16:01:22Z</time>
      </trkpt>
      <trkpt lat="41.980606" lon="-0.03751121">
        <time>2022-07-06T16:01:23Z</time>
      </trkpt>
      <trkpt lat="41.980553" lon="-0.03747721">
        <time>2022-07-06T16:01:24Z</time>
      </trkpt>
      <trkpt lat="41.980495" lon="-0.03744321">
        <time>2022-07-06T16:01:25Z</time>
      </trkpt>
      <trkpt lat="41.980442" lon="-0.03740921">
        <time>2022-07-06T16:01:26Z</time>
      </trkpt>
      <trkpt lat="41.98039" lon="-0.03737521">
        <time>2022-07-06T16:01:27Z</time>
      </trkpt>
      <trkpt lat="41.980335" lon="-0.03734221">
        <time>2022-07-06T16:01:28Z</time>
      </trkpt>
      <trkpt lat="41.98028" lon="-0.03730921">
        <time>2022-07-06T16:01:29Z</time>
      </trkpt>
      <trkpt lat="41.98023" lon="-0.03727688">
        <time>2022-07-06T16:01:30Z</time>
      </trkpt>
      <trkpt lat="41.980175" lon="-0.03724388">
        <time>2022-07-06T16:01:31Z</time>
      </trkpt>
      <trkpt lat="41.980125" lon="-0.03720988">
        <time>2022-07-06T16:01:32Z</time>
      </trkpt>
      <trkpt lat="41.980076" lon="-0.03717922">
        <time>2022-07-06T16:01:33Z</time>
      </trkpt>
      <trkpt lat="41.980022" lon="-0.03714589">
        <time>2022-07-06T16:01:34Z</time>
      </trkpt>
      <trkpt lat="41.97997" lon="-0.03711356">
        <time>2022-07-06T16:01:35Z</time>
      </trkpt>
      <trkpt lat="41.97992" lon="-0.03708356">
        <time>2022-07-06T16:01:36Z</time>
      </trkpt>
      <trkpt lat="41.97987" lon="-0.03705323">
        <time>2022-07-06T16:01:37Z</time>
      </trkpt>
      <trkpt lat="41.979816" lon="-0.03701957">
        <time>2022-07-06T16:01:38Z</time>
      </trkpt>
      <trkpt lat="41.979767" lon="-0.03698657">
        <time>2022-07-06T16:01:39Z</time>
      </trkpt>
      <trkpt lat="41.979713" lon="-0.03695424">
        <time>2022-07-06T16:01:40Z</time>
      </trkpt>
      <trkpt lat="41.97966" lon="-0.03692224">
        <time>2022-07-06T16:01:41Z</time>
      </trkpt>
      <trkpt lat="41.97961" lon="-0.03689358">
        <time>2022-07-06T16:01:42Z</time>
      </trkpt>
      <trkpt lat="41.979557" lon="-0.03686192">
        <time>2022-07-06T16:01:43Z</time>
      </trkpt>
      <trkpt lat="41.979504" lon="-0.03683092">
        <time>2022-07-06T16:01:44Z</time>
      </trkpt>
      <trkpt lat="41.97945" lon="-0.03680026">
        <time>2022-07-06T16:01:45Z</time>
      </trkpt>
      <trkpt lat="41.979397" lon="-0.03676926">
        <time>2022-07-06T16:01:46Z</time>
      </trkpt>
      <trkpt lat="41.979347" lon="-0.0367376">
        <time>2022-07-06T16:01:47Z</time>
      </trkpt>
      <trkpt lat="41.979294" lon="-0.03670527">
        <time>2022-07-06T16:01:48Z</time>
      </trkpt>
      <trkpt lat="41.979244" lon="-0.03667194">
        <time>2022-07-06T16:01:49Z</time>
      </trkpt>
      <trkpt lat="41.979195" lon="-0.03663928">
        <time>2022-07-06T16:01:50Z</time>
      </trkpt>
      <trkpt lat="41.97915" lon="-0.03660828">
        <time>2022-07-06T16:01:51Z</time>
      </trkpt>
      <trkpt lat="41.979103" lon="-0.03657995">
        <time>2022-07-06T16:01:52Z</time>
      </trkpt>
      <trkpt lat="41.979008" lon="-0.03652362">
        <time>2022-07-06T16:01:54Z</time>
      </trkpt>
      <trkpt lat="41.978916" lon="-0.03646696">
        <time>2022-07-06T16:01:56Z</time>
      </trkpt>
      <trkpt lat="41.978874" lon="-0.03643996">
        <time>2022-07-06T16:01:57Z</time>
      </trkpt>
      <trkpt lat="41.97878" lon="-0.03638363">
        <time>2022-07-06T16:01:59Z</time>
      </trkpt>
      <trkpt lat="41.97873" lon="-0.03635497">
        <time>2022-07-06T16:02:00Z</time>
      </trkpt>
      <trkpt lat="41.978683" lon="-0.03632831">
        <time>2022-07-06T16:02:01Z</time>
      </trkpt>
      <trkpt lat="41.97864" lon="-0.03630031">
        <time>2022-07-06T16:02:02Z</time>
      </trkpt>
      <trkpt lat="41.978554" lon="-0.03624098">
        <time>2022-07-06T16:02:04Z</time>
      </trkpt>
      <trkpt lat="41.978466" lon="-0.03618132">
        <time>2022-07-06T16:02:06Z</time>
      </trkpt>
      <trkpt lat="41.97838" lon="-0.03612466">
        <time>2022-07-06T16:02:08Z</time>
      </trkpt>
      <trkpt lat="41.978333" lon="-0.03609666">
        <time>2022-07-06T16:02:09Z</time>
      </trkpt>
      <trkpt lat="41.978245" lon="-0.03604333">
        <time>2022-07-06T16:02:11Z</time>
      </trkpt>
      <trkpt lat="41.97816" lon="-0.03599233">
        <time>2022-07-06T16:02:13Z</time>
      </trkpt>
      <trkpt lat="41.978077" lon="-0.03594067">
        <time>2022-07-06T16:02:15Z</time>
      </trkpt>
      <trkpt lat="41.977993" lon="-0.03588767">
        <time>2022-07-06T16:02:17Z</time>
      </trkpt>
      <trkpt lat="41.97791" lon="-0.03583101">
        <time>2022-07-06T16:02:19Z</time>
      </trkpt>
      <trkpt lat="41.97778" lon="-0.03574935">
        <time>2022-07-06T16:02:22Z</time>
      </trkpt>
      <trkpt lat="41.977695" lon="-0.03570035">
        <time>2022-07-06T16:02:24Z</time>
      </trkpt>
      <trkpt lat="41.97761" lon="-0.03565069">
        <time>2022-07-06T16:02:26Z</time>
      </trkpt>
      <trkpt lat="41.977528" lon="-0.03559869">
        <time>2022-07-06T16:02:28Z</time>
      </trkpt>
      <trkpt lat="41.977444" lon="-0.03554536">
        <time>2022-07-06T16:02:30Z</time>
      </trkpt>
      <trkpt lat="41.97736" lon="-0.03549403">
        <time>2022-07-06T16:02:32Z</time>
      </trkpt>
      <trkpt lat="41.977276" lon="-0.03544337">
        <time>2022-07-06T16:02:34Z</time>
      </trkpt>
      <trkpt lat="41.97719" lon="-0.03539204">
        <time>2022-07-06T16:02:36Z</time>
      </trkpt>
      <trkpt lat="41.977108" lon="-0.03533804">
        <time>2022-07-06T16:02:38Z</time>
      </trkpt>
      <trkpt lat="41.977024" lon="-0.03528338">
        <time>2022-07-06T16:02:40Z</time>
      </trkpt>
      <trkpt lat="41.97693" lon="-0.03521972">
        <time>2022-07-06T16:02:43Z</time>
      </trkpt>
      <trkpt lat="41.97688" lon="-0.03518572">
        <time>2022-07-06T16:02:44Z</time>
      </trkpt>
      <trkpt lat="41.976833" lon="-0.03515306">
        <time>2022-07-06T16:02:45Z</time>
      </trkpt>
      <trkpt lat="41.976788" lon="-0.03512106">
        <time>2022-07-06T16:02:46Z</time>
      </trkpt>
      <trkpt lat="41.976746" lon="-0.03508673">
        <time>2022-07-06T16:02:47Z</time>
      </trkpt>
      <trkpt lat="41.9767" lon="-0.03505307">
        <time>2022-07-06T16:02:48Z</time>
      </trkpt>
      <trkpt lat="41.97662" lon="-0.03498341">
        <time>2022-07-06T16:02:50Z</time>
      </trkpt>
      <trkpt lat="41.97658" lon="-0.03494875">
        <time>2022-07-06T16:02:51Z</time>
      </trkpt>
      <trkpt lat="41.9765" lon="-0.03486609">
        <time>2022-07-06T16:02:53Z</time>
      </trkpt>
      <trkpt lat="41.976425" lon="-0.03477576">
        <time>2022-07-06T16:02:55Z</time>
      </trkpt>
      <trkpt lat="41.976357" lon="-0.0346811">
        <time>2022-07-06T16:02:57Z</time>
      </trkpt>
      <trkpt lat="41.976284" lon="-0.03457177">
        <time>2022-07-06T16:02:59Z</time>
      </trkpt>
      <trkpt lat="41.97625" lon="-0.03451344">
        <time>2022-07-06T16:03:00Z</time>
      </trkpt>
      <trkpt lat="41.97622" lon="-0.03445744">
        <time>2022-07-06T16:03:01Z</time>
      </trkpt>
      <trkpt lat="41.97619" lon="-0.03439678">
        <time>2022-07-06T16:03:02Z</time>
      </trkpt>
      <trkpt lat="41.976154" lon="-0.03433278">
        <time>2022-07-06T16:03:03Z</time>
      </trkpt>
      <trkpt lat="41.97612" lon="-0.03426612">
        <time>2022-07-06T16:03:04Z</time>
      </trkpt>
      <trkpt lat="41.976086" lon="-0.03419712">
        <time>2022-07-06T16:03:05Z</time>
      </trkpt>
      <trkpt lat="41.97605" lon="-0.03412679">
        <time>2022-07-06T16:03:06Z</time>
      </trkpt>
      <trkpt lat="41.976017" lon="-0.03405446">
        <time>2022-07-06T16:03:07Z</time>
      </trkpt>
      <trkpt lat="41.97598" lon="-0.03398046">
        <time>2022-07-06T16:03:08Z</time>
      </trkpt>
      <trkpt lat="41.97594" lon="-0.03390146">
        <time>2022-07-06T16:03:09Z</time>
      </trkpt>
      <trkpt lat="41.975903" lon="-0.03382213">
        <time>2022-07-06T16:03:10Z</time>
      </trkpt>
      <trkpt lat="41.97586" lon="-0.03374347">
        <time>2022-07-06T16:03:11Z</time>
      </trkpt>
      <trkpt lat="41.975822" lon="-0.03366447">
        <time>2022-07-06T16:03:12Z</time>
      </trkpt>
      <trkpt lat="41.975784" lon="-0.03358514">
        <time>2022-07-06T16:03:13Z</time>
      </trkpt>
      <trkpt lat="41.975746" lon="-0.03350448">
        <time>2022-07-06T16:03:14Z</time>
      </trkpt>
      <trkpt lat="41.975708" lon="-0.03342182">
        <time>2022-07-06T16:03:15Z</time>
      </trkpt>
      <trkpt lat="41.97567" lon="-0.03333849">
        <time>2022-07-06T16:03:16Z</time>
      </trkpt>
      <trkpt lat="41.97563" lon="-0.03325483">
        <time>2022-07-06T16:03:17Z</time>
      </trkpt>
      <trkpt lat="41.975594" lon="-0.0331765">
        <time>2022-07-06T16:03:18Z</time>
      </trkpt>
      <trkpt lat="41.97555" lon="-0.0330915">
        <time>2022-07-06T16:03:19Z</time>
      </trkpt>
      <trkpt lat="41.975513" lon="-0.03300784">
        <time>2022-07-06T16:03:20Z</time>
      </trkpt>
      <trkpt lat="41.975468" lon="-0.03292518">
        <time>2022-07-06T16:03:21Z</time>
      </trkpt>
      <trkpt lat="41.975426" lon="-0.03284252">
        <time>2022-07-06T16:03:22Z</time>
      </trkpt>
      <trkpt lat="41.975384" lon="-0.03275886">
        <time>2022-07-06T16:03:23Z</time>
      </trkpt>
      <trkpt lat="41.975338" lon="-0.03267486">
        <time>2022-07-06T16:03:24Z</time>
      </trkpt>
      <trkpt lat="41.975296" lon="-0.03258986">
        <time>2022-07-06T16:03:25Z</time>
      </trkpt>
      <trkpt lat="41.975212" lon="-0.03241786">
        <time>2022-07-06T16:03:27Z</time>
      </trkpt>
      <trkpt lat="41.97517" lon="-0.03233153">
        <time>2022-07-06T16:03:28Z</time>
      </trkpt>
      <trkpt lat="41.97513" lon="-0.03224553">
        <time>2022-07-06T16:03:29Z</time>
      </trkpt>
      <trkpt lat="41.975086" lon="-0.0321592">
        <time>2022-07-06T16:03:30Z</time>
      </trkpt>
      <trkpt lat="41.97504" lon="-0.03207254">
        <time>2022-07-06T16:03:31Z</time>
      </trkpt>
      <trkpt lat="41.975" lon="-0.03198621">
        <time>2022-07-06T16:03:32Z</time>
      </trkpt>
      <trkpt lat="41.974953" lon="-0.03190021">
        <time>2022-07-06T16:03:33Z</time>
      </trkpt>
      <trkpt lat="41.97491" lon="-0.03181421">
        <time>2022-07-06T16:03:34Z</time>
      </trkpt>
      <trkpt lat="41.97487" lon="-0.03172721">
        <time>2022-07-06T16:03:35Z</time>
      </trkpt>
      <trkpt lat="41.974823" lon="-0.03163888">
        <time>2022-07-06T16:03:36Z</time>
      </trkpt>
      <trkpt lat="41.974785" lon="-0.03155555">
        <time>2022-07-06T16:03:37Z</time>
      </trkpt>
      <trkpt lat="41.974743" lon="-0.03146989">
        <time>2022-07-06T16:03:38Z</time>
      </trkpt>
      <trkpt lat="41.9747" lon="-0.03138323">
        <time>2022-07-06T16:03:39Z</time>
      </trkpt>
      <trkpt lat="41.97466" lon="-0.03129557">
        <time>2022-07-06T16:03:40Z</time>
      </trkpt>
      <trkpt lat="41.974613" lon="-0.03120791">
        <time>2022-07-06T16:03:41Z</time>
      </trkpt>
      <trkpt lat="41.974567" lon="-0.03111925">
        <time>2022-07-06T16:03:42Z</time>
      </trkpt>
      <trkpt lat="41.974518" lon="-0.03103025">
        <time>2022-07-06T16:03:43Z</time>
      </trkpt>
      <trkpt lat="41.974472" lon="-0.03094025">
        <time>2022-07-06T16:03:44Z</time>
      </trkpt>
      <trkpt lat="41.974426" lon="-0.03084992">
        <time>2022-07-06T16:03:45Z</time>
      </trkpt>
      <trkpt lat="41.97438" lon="-0.03075959">
        <time>2022-07-06T16:03:46Z</time>
      </trkpt>
      <trkpt lat="41.974335" lon="-0.03066826">
        <time>2022-07-06T16:03:47Z</time>
      </trkpt>
      <trkpt lat="41.974285" lon="-0.03057626">
        <time>2022-07-06T16:03:48Z</time>
      </trkpt>
      <trkpt lat="41.97424" lon="-0.03048426">
        <time>2022-07-06T16:03:49Z</time>
      </trkpt>
      <trkpt lat="41.97419" lon="-0.03039193">
        <time>2022-07-06T16:03:50Z</time>
      </trkpt>
      <trkpt lat="41.974144" lon="-0.03029993">
        <time>2022-07-06T16:03:51Z</time>
      </trkpt>
      <trkpt lat="41.974094" lon="-0.03020693">
        <time>2022-07-06T16:03:52Z</time>
      </trkpt>
      <trkpt lat="41.97405" lon="-0.03011427">
        <time>2022-07-06T16:03:53Z</time>
      </trkpt>
      <trkpt lat="41.974003" lon="-0.03002194">
        <time>2022-07-06T16:03:54Z</time>
      </trkpt>
      <trkpt lat="41.973957" lon="-0.02992928">
        <time>2022-07-06T16:03:55Z</time>
      </trkpt>
      <trkpt lat="41.97391" lon="-0.02983628">
        <time>2022-07-06T16:03:56Z</time>
      </trkpt>
      <trkpt lat="41.97386" lon="-0.02974395">
        <time>2022-07-06T16:03:57Z</time>
      </trkpt>
      <trkpt lat="41.973816" lon="-0.02965129">
        <time>2022-07-06T16:03:58Z</time>
      </trkpt>
      <trkpt lat="41.97377" lon="-0.02955829">
        <time>2022-07-06T16:03:59Z</time>
      </trkpt>
      <trkpt lat="41.97373" lon="-0.02946629">
        <time>2022-07-06T16:04:00Z</time>
      </trkpt>
      <trkpt lat="41.973682" lon="-0.02937729">
        <time>2022-07-06T16:04:01Z</time>
      </trkpt>
      <trkpt lat="41.97364" lon="-0.02928996">
        <time>2022-07-06T16:04:02Z</time>
      </trkpt>
      <trkpt lat="41.973595" lon="-0.02920463">
        <time>2022-07-06T16:04:03Z</time>
      </trkpt>
      <trkpt lat="41.97355" lon="-0.02912097">
        <time>2022-07-06T16:04:04Z</time>
      </trkpt>
      <trkpt lat="41.973507" lon="-0.02903897">
        <time>2022-07-06T16:04:05Z</time>
      </trkpt>
      <trkpt lat="41.973465" lon="-0.02895831">
        <time>2022-07-06T16:04:06Z</time>
      </trkpt>
      <trkpt lat="41.973423" lon="-0.02887898">
        <time>2022-07-06T16:04:07Z</time>
      </trkpt>
      <trkpt lat="41.97338" lon="-0.02880098">
        <time>2022-07-06T16:04:08Z</time>
      </trkpt>
      <trkpt lat="41.973343" lon="-0.02872432">
        <time>2022-07-06T16:04:09Z</time>
      </trkpt>
      <trkpt lat="41.9733" lon="-0.02864866">
        <time>2022-07-06T16:04:10Z</time>
      </trkpt>
      <trkpt lat="41.973263" lon="-0.028573">
        <time>2022-07-06T16:04:11Z</time>
      </trkpt>
      <trkpt lat="41.973225" lon="-0.028498">
        <time>2022-07-06T16:04:12Z</time>
      </trkpt>
      <trkpt lat="41.97319" lon="-0.028424">
        <time>2022-07-06T16:04:13Z</time>
      </trkpt>
      <trkpt lat="41.973152" lon="-0.02835034">
        <time>2022-07-06T16:04:14Z</time>
      </trkpt>
      <trkpt lat="41.973118" lon="-0.02827701">
        <time>2022-07-06T16:04:15Z</time>
      </trkpt>
      <trkpt lat="41.973083" lon="-0.02820401">
        <time>2022-07-06T16:04:16Z</time>
      </trkpt>
      <trkpt lat="41.97305" lon="-0.02813201">
        <time>2022-07-06T16:04:17Z</time>
      </trkpt>
      <trkpt lat="41.973015" lon="-0.02806168">
        <time>2022-07-06T16:04:18Z</time>
      </trkpt>
      <trkpt lat="41.97298" lon="-0.02799235">
        <time>2022-07-06T16:04:19Z</time>
      </trkpt>
      <trkpt lat="41.972946" lon="-0.02792369">
        <time>2022-07-06T16:04:20Z</time>
      </trkpt>
      <trkpt lat="41.97291" lon="-0.02785669">
        <time>2022-07-06T16:04:21Z</time>
      </trkpt>
      <trkpt lat="41.972878" lon="-0.02779136">
        <time>2022-07-06T16:04:22Z</time>
      </trkpt>
      <trkpt lat="41.972847" lon="-0.02772803">
        <time>2022-07-06T16:04:23Z</time>
      </trkpt>
      <trkpt lat="41.972813" lon="-0.02766603">
        <time>2022-07-06T16:04:24Z</time>
      </trkpt>
      <trkpt lat="41.972782" lon="-0.02760537">
        <time>2022-07-06T16:04:25Z</time>
      </trkpt>
      <trkpt lat="41.97272" lon="-0.02748837">
        <time>2022-07-06T16:04:27Z</time>
      </trkpt>
      <trkpt lat="41.97269" lon="-0.02743137">
        <time>2022-07-06T16:04:28Z</time>
      </trkpt>
      <trkpt lat="41.972664" lon="-0.02737537">
        <time>2022-07-06T16:04:29Z</time>
      </trkpt>
      <trkpt lat="41.97261" lon="-0.02726604">
        <time>2022-07-06T16:04:31Z</time>
      </trkpt>
      <trkpt lat="41.972557" lon="-0.02716038">
        <time>2022-07-06T16:04:33Z</time>
      </trkpt>
      <trkpt lat="41.972507" lon="-0.02705705">
        <time>2022-07-06T16:04:35Z</time>
      </trkpt>
      <trkpt lat="41.972458" lon="-0.02695472">
        <time>2022-07-06T16:04:37Z</time>
      </trkpt>
      <trkpt lat="41.97241" lon="-0.02685606">
        <time>2022-07-06T16:04:39Z</time>
      </trkpt>
      <trkpt lat="41.972363" lon="-0.02676006">
        <time>2022-07-06T16:04:41Z</time>
      </trkpt>
      <trkpt lat="41.972317" lon="-0.0266664">
        <time>2022-07-06T16:04:43Z</time>
      </trkpt>
      <trkpt lat="41.972275" lon="-0.02657574">
        <time>2022-07-06T16:04:45Z</time>
      </trkpt>
      <trkpt lat="41.972237" lon="-0.02648441">
        <time>2022-07-06T16:04:47Z</time>
      </trkpt>
      <trkpt lat="41.972195" lon="-0.02639141">
        <time>2022-07-06T16:04:49Z</time>
      </trkpt>
      <trkpt lat="41.97216" lon="-0.02629608">
        <time>2022-07-06T16:04:51Z</time>
      </trkpt>
      <trkpt lat="41.97213" lon="-0.02620175">
        <time>2022-07-06T16:04:53Z</time>
      </trkpt>
      <trkpt lat="41.9721" lon="-0.02610809">
        <time>2022-07-06T16:04:55Z</time>
      </trkpt>
      <trkpt lat="41.972065" lon="-0.02601476">
        <time>2022-07-06T16:04:57Z</time>
      </trkpt>
      <trkpt lat="41.972034" lon="-0.02592176">
        <time>2022-07-06T16:04:59Z</time>
      </trkpt>
      <trkpt lat="41.972004" lon="-0.02582576">
        <time>2022-07-06T16:05:01Z</time>
      </trkpt>
      <trkpt lat="41.971973" lon="-0.02572776">
        <time>2022-07-06T16:05:03Z</time>
      </trkpt>
      <trkpt lat="41.971947" lon="-0.02563143">
        <time>2022-07-06T16:05:05Z</time>
      </trkpt>
      <trkpt lat="41.97192" lon="-0.0255391">
        <time>2022-07-06T16:05:07Z</time>
      </trkpt>
      <trkpt lat="41.971897" lon="-0.02544777">
        <time>2022-07-06T16:05:09Z</time>
      </trkpt>
      <trkpt lat="41.971878" lon="-0.02535777">
        <time>2022-07-06T16:05:11Z</time>
      </trkpt>
      <trkpt lat="41.971855" lon="-0.02527044">
        <time>2022-07-06T16:05:13Z</time>
      </trkpt>
      <trkpt lat="41.971832" lon="-0.02518511">
        <time>2022-07-06T16:05:15Z</time>
      </trkpt>
      <trkpt lat="41.971806" lon="-0.02509978">
        <time>2022-07-06T16:05:17Z</time>
      </trkpt>
      <trkpt lat="41.97178" lon="-0.02501578">
        <time>2022-07-06T16:05:19Z</time>
      </trkpt>
      <trkpt lat="41.971752" lon="-0.02493045">
        <time>2022-07-06T16:05:21Z</time>
      </trkpt>
      <trkpt lat="41.97172" lon="-0.02484345">
        <time>2022-07-06T16:05:23Z</time>
      </trkpt>
      <trkpt lat="41.971695" lon="-0.02475212">
        <time>2022-07-06T16:05:25Z</time>
      </trkpt>
      <trkpt lat="41.971672" lon="-0.02466012">
        <time>2022-07-06T16:05:27Z</time>
      </trkpt>
      <trkpt lat="41.971645" lon="-0.02457012">
        <time>2022-07-06T16:05:29Z</time>
      </trkpt>
      <trkpt lat="41.97162" lon="-0.02448112">
        <time>2022-07-06T16:05:31Z</time>
      </trkpt>
      <trkpt lat="41.971592" lon="-0.02439312">
        <time>2022-07-06T16:05:33Z</time>
      </trkpt>
      <trkpt lat="41.97157" lon="-0.02430512">
        <time>2022-07-06T16:05:35Z</time>
      </trkpt>
      <trkpt lat="41.971546" lon="-0.02422012">
        <time>2022-07-06T16:05:37Z</time>
      </trkpt>
      <trkpt lat="41.97152" lon="-0.02413446">
        <time>2022-07-06T16:05:39Z</time>
      </trkpt>
      <trkpt lat="41.97149" lon="-0.02404646">
        <time>2022-07-06T16:05:41Z</time>
      </trkpt>
      <trkpt lat="41.97146" lon="-0.0239548">
        <time>2022-07-06T16:05:43Z</time>
      </trkpt>
      <trkpt lat="41.97143" lon="-0.02385447">
        <time>2022-07-06T16:05:45Z</time>
      </trkpt>
      <trkpt lat="41.9714" lon="-0.02374981">
        <time>2022-07-06T16:05:47Z</time>
      </trkpt>
      <trkpt lat="41.97137" lon="-0.02364215">
        <time>2022-07-06T16:05:49Z</time>
      </trkpt>
      <trkpt lat="41.971336" lon="-0.02353315">
        <time>2022-07-06T16:05:51Z</time>
      </trkpt>
      <trkpt lat="41.9713" lon="-0.02342282">
        <time>2022-07-06T16:05:53Z</time>
      </trkpt>
      <trkpt lat="41.971264" lon="-0.02331116">
        <time>2022-07-06T16:05:55Z</time>
      </trkpt>
      <trkpt lat="41.971207" lon="-0.02313416">
        <time>2022-07-06T16:05:58Z</time>
      </trkpt>
      <trkpt lat="41.971188" lon="-0.0230775">
        <time>2022-07-06T16:05:59Z</time>
      </trkpt>
      <trkpt lat="41.97115" lon="-0.0229635">
        <time>2022-07-06T16:06:01Z</time>
      </trkpt>
      <trkpt lat="41.971115" lon="-0.0228465">
        <time>2022-07-06T16:06:03Z</time>
      </trkpt>
      <trkpt lat="41.971096" lon="-0.02278517">
        <time>2022-07-06T16:06:04Z</time>
      </trkpt>
      <trkpt lat="41.97106" lon="-0.02266251">
        <time>2022-07-06T16:06:06Z</time>
      </trkpt>
      <trkpt lat="41.971043" lon="-0.02260018">
        <time>2022-07-06T16:06:07Z</time>
      </trkpt>
      <trkpt lat="41.971" lon="-0.02247552">
        <time>2022-07-06T16:06:09Z</time>
      </trkpt>
      <trkpt lat="41.97098" lon="-0.02241186">
        <time>2022-07-06T16:06:10Z</time>
      </trkpt>
      <trkpt lat="41.97094" lon="-0.02228186">
        <time>2022-07-06T16:06:12Z</time>
      </trkpt>
      <trkpt lat="41.970917" lon="-0.02221553">
        <time>2022-07-06T16:06:13Z</time>
      </trkpt>
      <trkpt lat="41.970894" lon="-0.0221482">
        <time>2022-07-06T16:06:14Z</time>
      </trkpt>
      <trkpt lat="41.97087" lon="-0.0220792">
        <time>2022-07-06T16:06:15Z</time>
      </trkpt>
      <trkpt lat="41.970848" lon="-0.02200954">
        <time>2022-07-06T16:06:16Z</time>
      </trkpt>
      <trkpt lat="41.97083" lon="-0.02193854">
        <time>2022-07-06T16:06:17Z</time>
      </trkpt>
      <trkpt lat="41.970806" lon="-0.02186688">
        <time>2022-07-06T16:06:18Z</time>
      </trkpt>
      <trkpt lat="41.97078" lon="-0.02179455">
        <time>2022-07-06T16:06:19Z</time>
      </trkpt>
      <trkpt lat="41.970757" lon="-0.02172189">
        <time>2022-07-06T16:06:20Z</time>
      </trkpt>
      <trkpt lat="41.970734" lon="-0.02164856">
        <time>2022-07-06T16:06:21Z</time>
      </trkpt>
      <trkpt lat="41.970707" lon="-0.0215739">
        <time>2022-07-06T16:06:22Z</time>
      </trkpt>
      <trkpt lat="41.97068" lon="-0.0214989">
        <time>2022-07-06T16:06:23Z</time>
      </trkpt>
      <trkpt lat="41.970657" lon="-0.02142324">
        <time>2022-07-06T16:06:24Z</time>
      </trkpt>
      <trkpt lat="41.97063" lon="-0.02134658">
        <time>2022-07-06T16:06:25Z</time>
      </trkpt>
      <trkpt lat="41.970604" lon="-0.02126892">
        <time>2022-07-06T16:06:26Z</time>
      </trkpt>
      <trkpt lat="41.970577" lon="-0.02119059">
        <time>2022-07-06T16:06:27Z</time>
      </trkpt>
      <trkpt lat="41.97055" lon="-0.02111093">
        <time>2022-07-06T16:06:28Z</time>
      </trkpt>
      <trkpt lat="41.970528" lon="-0.02103027">
        <time>2022-07-06T16:06:29Z</time>
      </trkpt>
      <trkpt lat="41.9705" lon="-0.02094761">
        <time>2022-07-06T16:06:30Z</time>
      </trkpt>
      <trkpt lat="41.970474" lon="-0.02086428">
        <time>2022-07-06T16:06:31Z</time>
      </trkpt>
      <trkpt lat="41.970448" lon="-0.02078062">
        <time>2022-07-06T16:06:32Z</time>
      </trkpt>
      <trkpt lat="41.97042" lon="-0.02069629">
        <time>2022-07-06T16:06:33Z</time>
      </trkpt>
      <trkpt lat="41.970394" lon="-0.02061163">
        <time>2022-07-06T16:06:34Z</time>
      </trkpt>
      <trkpt lat="41.970364" lon="-0.02052697">
        <time>2022-07-06T16:06:35Z</time>
      </trkpt>
      <trkpt lat="41.970337" lon="-0.02044431">
        <time>2022-07-06T16:06:36Z</time>
      </trkpt>
      <trkpt lat="41.970314" lon="-0.02036231">
        <time>2022-07-06T16:06:37Z</time>
      </trkpt>
      <trkpt lat="41.970287" lon="-0.02028131">
        <time>2022-07-06T16:06:38Z</time>
      </trkpt>
      <trkpt lat="41.970264" lon="-0.02020031">
        <time>2022-07-06T16:06:39Z</time>
      </trkpt>
      <trkpt lat="41.970215" lon="-0.02004165">
        <time>2022-07-06T16:06:41Z</time>
      </trkpt>
      <trkpt lat="41.970192" lon="-0.01996232">
        <time>2022-07-06T16:06:42Z</time>
      </trkpt>
      <trkpt lat="41.970165" lon="-0.01988332">
        <time>2022-07-06T16:06:43Z</time>
      </trkpt>
      <trkpt lat="41.970142" lon="-0.01980566">
        <time>2022-07-06T16:06:44Z</time>
      </trkpt>
      <trkpt lat="41.97012" lon="-0.01973">
        <time>2022-07-06T16:06:45Z</time>
      </trkpt>
      <trkpt lat="41.9701" lon="-0.019656">
        <time>2022-07-06T16:06:46Z</time>
      </trkpt>
      <trkpt lat="41.970074" lon="-0.019583">
        <time>2022-07-06T16:06:47Z</time>
      </trkpt>
      <trkpt lat="41.97005" lon="-0.019511">
        <time>2022-07-06T16:06:48Z</time>
      </trkpt>
      <trkpt lat="41.970028" lon="-0.019439">
        <time>2022-07-06T16:06:49Z</time>
      </trkpt>
      <trkpt lat="41.97" lon="-0.01936867">
        <time>2022-07-06T16:06:50Z</time>
      </trkpt>
      <trkpt lat="41.969975" lon="-0.01929901">
        <time>2022-07-06T16:06:51Z</time>
      </trkpt>
      <trkpt lat="41.969948" lon="-0.01923001">
        <time>2022-07-06T16:06:52Z</time>
      </trkpt>
      <trkpt lat="41.96992" lon="-0.01916068">
        <time>2022-07-06T16:06:53Z</time>
      </trkpt>
      <trkpt lat="41.969894" lon="-0.01909102">
        <time>2022-07-06T16:06:54Z</time>
      </trkpt>
      <trkpt lat="41.969864" lon="-0.01902169">
        <time>2022-07-06T16:06:55Z</time>
      </trkpt>
      <trkpt lat="41.969837" lon="-0.01895336">
        <time>2022-07-06T16:06:56Z</time>
      </trkpt>
      <trkpt lat="41.96981" lon="-0.01888536">
        <time>2022-07-06T16:06:57Z</time>
      </trkpt>
      <trkpt lat="41.96978" lon="-0.01881803">
        <time>2022-07-06T16:06:58Z</time>
      </trkpt>
      <trkpt lat="41.969753" lon="-0.01875037">
        <time>2022-07-06T16:06:59Z</time>
      </trkpt>
      <trkpt lat="41.969723" lon="-0.01868304">
        <time>2022-07-06T16:07:00Z</time>
      </trkpt>
      <trkpt lat="41.969692" lon="-0.01861471">
        <time>2022-07-06T16:07:01Z</time>
      </trkpt>
      <trkpt lat="41.969654" lon="-0.01852171">
        <time>2022-07-06T16:07:03Z</time>
      </trkpt>
      <trkpt lat="41.96962" lon="-0.01843638">
        <time>2022-07-06T16:07:04Z</time>
      </trkpt>
      <trkpt lat="41.96959" lon="-0.01835605">
        <time>2022-07-06T16:07:05Z</time>
      </trkpt>
      <trkpt lat="41.96956" lon="-0.01827972">
        <time>2022-07-06T16:07:06Z</time>
      </trkpt>
      <trkpt lat="41.96953" lon="-0.01820506">
        <time>2022-07-06T16:07:07Z</time>
      </trkpt>
      <trkpt lat="41.969498" lon="-0.01813073">
        <time>2022-07-06T16:07:08Z</time>
      </trkpt>
      <trkpt lat="41.96947" lon="-0.01805673">
        <time>2022-07-06T16:07:09Z</time>
      </trkpt>
      <trkpt lat="41.969444" lon="-0.0179824">
        <time>2022-07-06T16:07:10Z</time>
      </trkpt>
      <trkpt lat="41.969418" lon="-0.0179084">
        <time>2022-07-06T16:07:11Z</time>
      </trkpt>
      <trkpt lat="41.96939" lon="-0.01783507">
        <time>2022-07-06T16:07:12Z</time>
      </trkpt>
      <trkpt lat="41.969368" lon="-0.01776274">
        <time>2022-07-06T16:07:13Z</time>
      </trkpt>
      <trkpt lat="41.969345" lon="-0.01768974">
        <time>2022-07-06T16:07:14Z</time>
      </trkpt>
      <trkpt lat="41.969322" lon="-0.01761641">
        <time>2022-07-06T16:07:15Z</time>
      </trkpt>
      <trkpt lat="41.9693" lon="-0.01754275">
        <time>2022-07-06T16:07:16Z</time>
      </trkpt>
      <trkpt lat="41.969276" lon="-0.01746875">
        <time>2022-07-06T16:07:17Z</time>
      </trkpt>
      <trkpt lat="41.969257" lon="-0.01739309">
        <time>2022-07-06T16:07:18Z</time>
      </trkpt>
      <trkpt lat="41.969242" lon="-0.01731709">
        <time>2022-07-06T16:07:19Z</time>
      </trkpt>
      <trkpt lat="41.969223" lon="-0.01723943">
        <time>2022-07-06T16:07:20Z</time>
      </trkpt>
      <trkpt lat="41.969208" lon="-0.01716043">
        <time>2022-07-06T16:07:21Z</time>
      </trkpt>
      <trkpt lat="41.969193" lon="-0.0170811">
        <time>2022-07-06T16:07:22Z</time>
      </trkpt>
      <trkpt lat="41.96918" lon="-0.01700144">
        <time>2022-07-06T16:07:23Z</time>
      </trkpt>
      <trkpt lat="41.96917" lon="-0.01692178">
        <time>2022-07-06T16:07:24Z</time>
      </trkpt>
      <trkpt lat="41.969154" lon="-0.01684178">
        <time>2022-07-06T16:07:25Z</time>
      </trkpt>
      <trkpt lat="41.96914" lon="-0.01676245">
        <time>2022-07-06T16:07:26Z</time>
      </trkpt>
      <trkpt lat="41.969124" lon="-0.01668479">
        <time>2022-07-06T16:07:27Z</time>
      </trkpt>
      <trkpt lat="41.969105" lon="-0.01660646">
        <time>2022-07-06T16:07:28Z</time>
      </trkpt>
      <trkpt lat="41.969086" lon="-0.01652846">
        <time>2022-07-06T16:07:29Z</time>
      </trkpt>
      <trkpt lat="41.969063" lon="-0.01645013">
        <time>2022-07-06T16:07:30Z</time>
      </trkpt>
      <trkpt lat="41.96904" lon="-0.01637413">
        <time>2022-07-06T16:07:31Z</time>
      </trkpt>
      <trkpt lat="41.969017" lon="-0.01629913">
        <time>2022-07-06T16:07:32Z</time>
      </trkpt>
      <trkpt lat="41.96899" lon="-0.01622547">
        <time>2022-07-06T16:07:33Z</time>
      </trkpt>
      <trkpt lat="41.968964" lon="-0.01615281">
        <time>2022-07-06T16:07:34Z</time>
      </trkpt>
      <trkpt lat="41.968933" lon="-0.01608081">
        <time>2022-07-06T16:07:35Z</time>
      </trkpt>
      <trkpt lat="41.968903" lon="-0.01601015">
        <time>2022-07-06T16:07:36Z</time>
      </trkpt>
      <trkpt lat="41.968872" lon="-0.01594015">
        <time>2022-07-06T16:07:37Z</time>
      </trkpt>
      <trkpt lat="41.96884" lon="-0.01587049">
        <time>2022-07-06T16:07:38Z</time>
      </trkpt>
      <trkpt lat="41.96881" lon="-0.01580149">
        <time>2022-07-06T16:07:39Z</time>
      </trkpt>
      <trkpt lat="41.968784" lon="-0.01573316">
        <time>2022-07-06T16:07:40Z</time>
      </trkpt>
      <trkpt lat="41.968754" lon="-0.01566616">
        <time>2022-07-06T16:07:41Z</time>
      </trkpt>
      <trkpt lat="41.968693" lon="-0.01553283">
        <time>2022-07-06T16:07:43Z</time>
      </trkpt>
      <trkpt lat="41.968662" lon="-0.01546583">
        <time>2022-07-06T16:07:44Z</time>
      </trkpt>
      <trkpt lat="41.968636" lon="-0.01539817">
        <time>2022-07-06T16:07:45Z</time>
      </trkpt>
      <trkpt lat="41.968605" lon="-0.01533117">
        <time>2022-07-06T16:07:46Z</time>
      </trkpt>
      <trkpt lat="41.968575" lon="-0.01526351">
        <time>2022-07-06T16:07:47Z</time>
      </trkpt>
      <trkpt lat="41.968548" lon="-0.01519685">
        <time>2022-07-06T16:07:48Z</time>
      </trkpt>
      <trkpt lat="41.968517" lon="-0.01513052">
        <time>2022-07-06T16:07:49Z</time>
      </trkpt>
      <trkpt lat="41.968483" lon="-0.01506652">
        <time>2022-07-06T16:07:50Z</time>
      </trkpt>
      <trkpt lat="41.96845" lon="-0.01500419">
        <time>2022-07-06T16:07:51Z</time>
      </trkpt>
      <trkpt lat="41.96841" lon="-0.01494486">
        <time>2022-07-06T16:07:52Z</time>
      </trkpt>
      <trkpt lat="41.96837" lon="-0.0148892">
        <time>2022-07-06T16:07:53Z</time>
      </trkpt>
      <trkpt lat="41.968327" lon="-0.01483854">
        <time>2022-07-06T16:07:54Z</time>
      </trkpt>
      <trkpt lat="41.96828" lon="-0.01479154">
        <time>2022-07-06T16:07:55Z</time>
      </trkpt>
      <trkpt lat="41.968235" lon="-0.01474788">
        <time>2022-07-06T16:07:56Z</time>
      </trkpt>
      <trkpt lat="41.968193" lon="-0.01470755">
        <time>2022-07-06T16:07:57Z</time>
      </trkpt>
      <trkpt lat="41.968147" lon="-0.01466922">
        <time>2022-07-06T16:07:58Z</time>
      </trkpt>
      <trkpt lat="41.9681" lon="-0.01463056">
        <time>2022-07-06T16:07:59Z</time>
      </trkpt>
      <trkpt lat="41.968056" lon="-0.01459156">
        <time>2022-07-06T16:08:00Z</time>
      </trkpt>
      <trkpt lat="41.96797" lon="-0.01450956">
        <time>2022-07-06T16:08:02Z</time>
      </trkpt>
      <trkpt lat="41.96793" lon="-0.01446456">
        <time>2022-07-06T16:08:03Z</time>
      </trkpt>
      <trkpt lat="41.96789" lon="-0.0144159">
        <time>2022-07-06T16:08:04Z</time>
      </trkpt>
      <trkpt lat="41.967857" lon="-0.0143649">
        <time>2022-07-06T16:08:05Z</time>
      </trkpt>
      <trkpt lat="41.967823" lon="-0.01431124">
        <time>2022-07-06T16:08:06Z</time>
      </trkpt>
      <trkpt lat="41.967766" lon="-0.01420091">
        <time>2022-07-06T16:08:08Z</time>
      </trkpt>
      <trkpt lat="41.967712" lon="-0.01408525">
        <time>2022-07-06T16:08:10Z</time>
      </trkpt>
      <trkpt lat="41.96769" lon="-0.01402525">
        <time>2022-07-06T16:08:11Z</time>
      </trkpt>
      <trkpt lat="41.967648" lon="-0.01390159">
        <time>2022-07-06T16:08:13Z</time>
      </trkpt>
      <trkpt lat="41.967625" lon="-0.01383926">
        <time>2022-07-06T16:08:14Z</time>
      </trkpt>
      <trkpt lat="41.967587" lon="-0.0137126">
        <time>2022-07-06T16:08:16Z</time>
      </trkpt>
      <trkpt lat="41.967567" lon="-0.01364894">
        <time>2022-07-06T16:08:17Z</time>
      </trkpt>
      <trkpt lat="41.96753" lon="-0.01352161">
        <time>2022-07-06T16:08:19Z</time>
      </trkpt>
      <trkpt lat="41.967514" lon="-0.01345695">
        <time>2022-07-06T16:08:20Z</time>
      </trkpt>
      <trkpt lat="41.967476" lon="-0.01332762">
        <time>2022-07-06T16:08:22Z</time>
      </trkpt>
      <trkpt lat="41.967457" lon="-0.01326229">
        <time>2022-07-06T16:08:23Z</time>
      </trkpt>
      <trkpt lat="41.967438" lon="-0.01319729">
        <time>2022-07-06T16:08:24Z</time>
      </trkpt>
      <trkpt lat="41.967396" lon="-0.01306696">
        <time>2022-07-06T16:08:26Z</time>
      </trkpt>
      <trkpt lat="41.967373" lon="-0.01300196">
        <time>2022-07-06T16:08:27Z</time>
      </trkpt>
      <trkpt lat="41.967354" lon="-0.0129363">
        <time>2022-07-06T16:08:28Z</time>
      </trkpt>
      <trkpt lat="41.96733" lon="-0.0128693">
        <time>2022-07-06T16:08:29Z</time>
      </trkpt>
      <trkpt lat="41.96731" lon="-0.0128013">
        <time>2022-07-06T16:08:30Z</time>
      </trkpt>
      <trkpt lat="41.96729" lon="-0.0127313">
        <time>2022-07-06T16:08:31Z</time>
      </trkpt>
      <trkpt lat="41.96727" lon="-0.01265997">
        <time>2022-07-06T16:08:32Z</time>
      </trkpt>
      <trkpt lat="41.96725" lon="-0.01258731">
        <time>2022-07-06T16:08:33Z</time>
      </trkpt>
      <trkpt lat="41.967228" lon="-0.01251298">
        <time>2022-07-06T16:08:34Z</time>
      </trkpt>
      <trkpt lat="41.967205" lon="-0.01243698">
        <time>2022-07-06T16:08:35Z</time>
      </trkpt>
      <trkpt lat="41.967182" lon="-0.01236032">
        <time>2022-07-06T16:08:36Z</time>
      </trkpt>
      <trkpt lat="41.96716" lon="-0.01228332">
        <time>2022-07-06T16:08:37Z</time>
      </trkpt>
      <trkpt lat="41.967133" lon="-0.01220532">
        <time>2022-07-06T16:08:38Z</time>
      </trkpt>
      <trkpt lat="41.967106" lon="-0.01212666">
        <time>2022-07-06T16:08:39Z</time>
      </trkpt>
      <trkpt lat="41.96708" lon="-0.012048">
        <time>2022-07-06T16:08:40Z</time>
      </trkpt>
      <trkpt lat="41.967052" lon="-0.011971">
        <time>2022-07-06T16:08:41Z</time>
      </trkpt>
      <trkpt lat="41.96702" lon="-0.011898">
        <time>2022-07-06T16:08:42Z</time>
      </trkpt>
      <trkpt lat="41.966984" lon="-0.01182834">
        <time>2022-07-06T16:08:43Z</time>
      </trkpt>
      <trkpt lat="41.96695" lon="-0.01176068">
        <time>2022-07-06T16:08:44Z</time>
      </trkpt>
      <trkpt lat="41.966877" lon="-0.01162968">
        <time>2022-07-06T16:08:46Z</time>
      </trkpt>
      <trkpt lat="41.96684" lon="-0.01156568">
        <time>2022-07-06T16:08:47Z</time>
      </trkpt>
      <trkpt lat="41.966805" lon="-0.01150102">
        <time>2022-07-06T16:08:48Z</time>
      </trkpt>
      <trkpt lat="41.966766" lon="-0.01143702">
        <time>2022-07-06T16:08:49Z</time>
      </trkpt>
      <trkpt lat="41.966732" lon="-0.01137336">
        <time>2022-07-06T16:08:50Z</time>
      </trkpt>
      <trkpt lat="41.966694" lon="-0.01131103">
        <time>2022-07-06T16:08:51Z</time>
      </trkpt>
      <trkpt lat="41.96666" lon="-0.01125037">
        <time>2022-07-06T16:08:52Z</time>
      </trkpt>
      <trkpt lat="41.96662" lon="-0.01119104">
        <time>2022-07-06T16:08:53Z</time>
      </trkpt>
      <trkpt lat="41.966583" lon="-0.01113404">
        <time>2022-07-06T16:08:54Z</time>
      </trkpt>
      <trkpt lat="41.966545" lon="-0.01107771">
        <time>2022-07-06T16:08:55Z</time>
      </trkpt>
      <trkpt lat="41.96651" lon="-0.01102271">
        <time>2022-07-06T16:08:56Z</time>
      </trkpt>
      <trkpt lat="41.966476" lon="-0.01096771">
        <time>2022-07-06T16:08:57Z</time>
      </trkpt>
      <trkpt lat="41.966442" lon="-0.01091171">
        <time>2022-07-06T16:08:58Z</time>
      </trkpt>
      <trkpt lat="41.96641" lon="-0.01085538">
        <time>2022-07-06T16:08:59Z</time>
      </trkpt>
      <trkpt lat="41.966354" lon="-0.01074272">
        <time>2022-07-06T16:09:01Z</time>
      </trkpt>
      <trkpt lat="41.96632" lon="-0.01068706">
        <time>2022-07-06T16:09:02Z</time>
      </trkpt>
      <trkpt lat="41.96629" lon="-0.01063473">
        <time>2022-07-06T16:09:03Z</time>
      </trkpt>
      <trkpt lat="41.96622" lon="-0.01053473">
        <time>2022-07-06T16:09:05Z</time>
      </trkpt>
      <trkpt lat="41.966156" lon="-0.01045007">
        <time>2022-07-06T16:09:07Z</time>
      </trkpt>
      <trkpt lat="41.96612" lon="-0.01041141">
        <time>2022-07-06T16:09:08Z</time>
      </trkpt>
      <trkpt lat="41.96605" lon="-0.01033408">
        <time>2022-07-06T16:09:10Z</time>
      </trkpt>
      <trkpt lat="41.965977" lon="-0.01025142">
        <time>2022-07-06T16:09:12Z</time>
      </trkpt>
      <trkpt lat="41.965897" lon="-0.01016176">
        <time>2022-07-06T16:09:14Z</time>
      </trkpt>
      <trkpt lat="41.96586" lon="-0.01011476">
        <time>2022-07-06T16:09:15Z</time>
      </trkpt>
      <trkpt lat="41.965786" lon="-0.01001876">
        <time>2022-07-06T16:09:17Z</time>
      </trkpt>
      <trkpt lat="41.96575" lon="-0.00996776">
        <time>2022-07-06T16:09:18Z</time>
      </trkpt>
      <trkpt lat="41.965717" lon="-0.00991443">
        <time>2022-07-06T16:09:19Z</time>
      </trkpt>
      <trkpt lat="41.965652" lon="-0.00980377">
        <time>2022-07-06T16:09:21Z</time>
      </trkpt>
      <trkpt lat="41.96562" lon="-0.00974644">
        <time>2022-07-06T16:09:22Z</time>
      </trkpt>
      <trkpt lat="41.965588" lon="-0.00968811">
        <time>2022-07-06T16:09:23Z</time>
      </trkpt>
      <trkpt lat="41.965553" lon="-0.00962978">
        <time>2022-07-06T16:09:24Z</time>
      </trkpt>
      <trkpt lat="41.965523" lon="-0.00957145">
        <time>2022-07-06T16:09:25Z</time>
      </trkpt>
      <trkpt lat="41.965485" lon="-0.00951545">
        <time>2022-07-06T16:09:26Z</time>
      </trkpt>
      <trkpt lat="41.96545" lon="-0.00945945">
        <time>2022-07-06T16:09:27Z</time>
      </trkpt>
      <trkpt lat="41.96541" lon="-0.00940512">
        <time>2022-07-06T16:09:28Z</time>
      </trkpt>
      <trkpt lat="41.96537" lon="-0.00935212">
        <time>2022-07-06T16:09:29Z</time>
      </trkpt>
      <trkpt lat="41.96533" lon="-0.00930012">
        <time>2022-07-06T16:09:30Z</time>
      </trkpt>
      <trkpt lat="41.965286" lon="-0.00925146">
        <time>2022-07-06T16:09:31Z</time>
      </trkpt>
      <trkpt lat="41.96524" lon="-0.00920646">
        <time>2022-07-06T16:09:32Z</time>
      </trkpt>
      <trkpt lat="41.9652" lon="-0.0091638">
        <time>2022-07-06T16:09:33Z</time>
      </trkpt>
      <trkpt lat="41.965153" lon="-0.00912347">
        <time>2022-07-06T16:09:34Z</time>
      </trkpt>
      <trkpt lat="41.96511" lon="-0.00908414">
        <time>2022-07-06T16:09:35Z</time>
      </trkpt>
      <trkpt lat="41.965027" lon="-0.00900748">
        <time>2022-07-06T16:09:37Z</time>
      </trkpt>
      <trkpt lat="41.96499" lon="-0.00896948">
        <time>2022-07-06T16:09:38Z</time>
      </trkpt>
      <trkpt lat="41.964912" lon="-0.00889648">
        <time>2022-07-06T16:09:40Z</time>
      </trkpt>
      <trkpt lat="41.964836" lon="-0.00882482">
        <time>2022-07-06T16:09:42Z</time>
      </trkpt>
      <trkpt lat="41.96477" lon="-0.00875382">
        <time>2022-07-06T16:09:44Z</time>
      </trkpt>
      <trkpt lat="41.964706" lon="-0.00868282">
        <time>2022-07-06T16:09:46Z</time>
      </trkpt>
      <trkpt lat="41.964645" lon="-0.00860916">
        <time>2022-07-06T16:09:48Z</time>
      </trkpt>
      <trkpt lat="41.964584" lon="-0.00853616">
        <time>2022-07-06T16:09:50Z</time>
      </trkpt>
      <trkpt lat="41.964523" lon="-0.0084595">
        <time>2022-07-06T16:09:52Z</time>
      </trkpt>
      <trkpt lat="41.964462" lon="-0.0083785">
        <time>2022-07-06T16:09:54Z</time>
      </trkpt>
      <trkpt lat="41.964397" lon="-0.00829117">
        <time>2022-07-06T16:09:56Z</time>
      </trkpt>
      <trkpt lat="41.964363" lon="-0.00824717">
        <time>2022-07-06T16:09:57Z</time>
      </trkpt>
      <trkpt lat="41.964294" lon="-0.00815851">
        <time>2022-07-06T16:09:59Z</time>
      </trkpt>
      <trkpt lat="41.96423" lon="-0.00806718">
        <time>2022-07-06T16:10:01Z</time>
      </trkpt>
      <trkpt lat="41.964195" lon="-0.00801918">
        <time>2022-07-06T16:10:02Z</time>
      </trkpt>
      <trkpt lat="41.964134" lon="-0.00792152">
        <time>2022-07-06T16:10:04Z</time>
      </trkpt>
      <trkpt lat="41.964104" lon="-0.00787219">
        <time>2022-07-06T16:10:05Z</time>
      </trkpt>
      <trkpt lat="41.964046" lon="-0.00776719">
        <time>2022-07-06T16:10:07Z</time>
      </trkpt>
      <trkpt lat="41.96402" lon="-0.00771353">
        <time>2022-07-06T16:10:08Z</time>
      </trkpt>
      <trkpt lat="41.96397" lon="-0.0076012">
        <time>2022-07-06T16:10:10Z</time>
      </trkpt>
      <trkpt lat="41.963943" lon="-0.00754354">
        <time>2022-07-06T16:10:11Z</time>
      </trkpt>
      <trkpt lat="41.9639" lon="-0.00742521">
        <time>2022-07-06T16:10:13Z</time>
      </trkpt>
      <trkpt lat="41.96388" lon="-0.00736455">
        <time>2022-07-06T16:10:14Z</time>
      </trkpt>
      <trkpt lat="41.963833" lon="-0.00724055">
        <time>2022-07-06T16:10:16Z</time>
      </trkpt>
      <trkpt lat="41.963787" lon="-0.00711822">
        <time>2022-07-06T16:10:18Z</time>
      </trkpt>
      <trkpt lat="41.96376" lon="-0.00705722">
        <time>2022-07-06T16:10:19Z</time>
      </trkpt>
      <trkpt lat="41.963737" lon="-0.00699656">
        <time>2022-07-06T16:10:20Z</time>
      </trkpt>
      <trkpt lat="41.96369" lon="-0.00687323">
        <time>2022-07-06T16:10:22Z</time>
      </trkpt>
      <trkpt lat="41.96367" lon="-0.00681123">
        <time>2022-07-06T16:10:23Z</time>
      </trkpt>
      <trkpt lat="41.963627" lon="-0.00668423">
        <time>2022-07-06T16:10:25Z</time>
      </trkpt>
      <trkpt lat="41.963604" lon="-0.00662057">
        <time>2022-07-06T16:10:26Z</time>
      </trkpt>
      <trkpt lat="41.96358" lon="-0.00655791">
        <time>2022-07-06T16:10:27Z</time>
      </trkpt>
      <trkpt lat="41.96356" lon="-0.00649425">
        <time>2022-07-06T16:10:28Z</time>
      </trkpt>
      <trkpt lat="41.96351" lon="-0.00636759">
        <time>2022-07-06T16:10:30Z</time>
      </trkpt>
      <trkpt lat="41.963486" lon="-0.00630526">
        <time>2022-07-06T16:10:31Z</time>
      </trkpt>
      <trkpt lat="41.963463" lon="-0.0062436">
        <time>2022-07-06T16:10:32Z</time>
      </trkpt>
      <trkpt lat="41.963436" lon="-0.0061836">
        <time>2022-07-06T16:10:33Z</time>
      </trkpt>
      <trkpt lat="41.96339" lon="-0.00606394">
        <time>2022-07-06T16:10:35Z</time>
      </trkpt>
      <trkpt lat="41.963367" lon="-0.00600328">
        <time>2022-07-06T16:10:36Z</time>
      </trkpt>
      <trkpt lat="41.96332" lon="-0.00588228">
        <time>2022-07-06T16:10:38Z</time>
      </trkpt>
      <trkpt lat="41.963276" lon="-0.00576195">
        <time>2022-07-06T16:10:40Z</time>
      </trkpt>
      <trkpt lat="41.963257" lon="-0.00570295">
        <time>2022-07-06T16:10:41Z</time>
      </trkpt>
      <trkpt lat="41.963215" lon="-0.00558262">
        <time>2022-07-06T16:10:43Z</time>
      </trkpt>
      <trkpt lat="41.96318" lon="-0.00545729">
        <time>2022-07-06T16:10:45Z</time>
      </trkpt>
      <trkpt lat="41.96316" lon="-0.00532663">
        <time>2022-07-06T16:10:47Z</time>
      </trkpt>
      <trkpt lat="41.963165" lon="-0.00519397">
        <time>2022-07-06T16:10:49Z</time>
      </trkpt>
      <trkpt lat="41.96319" lon="-0.00506497">
        <time>2022-07-06T16:10:51Z</time>
      </trkpt>
      <trkpt lat="41.963257" lon="-0.00488164">
        <time>2022-07-06T16:10:54Z</time>
      </trkpt>
      <trkpt lat="41.963287" lon="-0.00482264">
        <time>2022-07-06T16:10:55Z</time>
      </trkpt>
      <trkpt lat="41.96332" lon="-0.00476398">
        <time>2022-07-06T16:10:56Z</time>
      </trkpt>
      <trkpt lat="41.96336" lon="-0.00470598">
        <time>2022-07-06T16:10:57Z</time>
      </trkpt>
      <trkpt lat="41.963398" lon="-0.00464832">
        <time>2022-07-06T16:10:58Z</time>
      </trkpt>
      <trkpt lat="41.963436" lon="-0.00459066">
        <time>2022-07-06T16:10:59Z</time>
      </trkpt>
      <trkpt lat="41.963474" lon="-0.00453266">
        <time>2022-07-06T16:11:00Z</time>
      </trkpt>
      <trkpt lat="41.963512" lon="-0.004474">
        <time>2022-07-06T16:11:01Z</time>
      </trkpt>
      <trkpt lat="41.963547" lon="-0.00441434">
        <time>2022-07-06T16:11:02Z</time>
      </trkpt>
      <trkpt lat="41.963585" lon="-0.00435368">
        <time>2022-07-06T16:11:03Z</time>
      </trkpt>
      <trkpt lat="41.963615" lon="-0.00429035">
        <time>2022-07-06T16:11:04Z</time>
      </trkpt>
      <trkpt lat="41.963646" lon="-0.00422435">
        <time>2022-07-06T16:11:05Z</time>
      </trkpt>
      <trkpt lat="41.963673" lon="-0.00415635">
        <time>2022-07-06T16:11:06Z</time>
      </trkpt>
      <trkpt lat="41.963696" lon="-0.00408735">
        <time>2022-07-06T16:11:07Z</time>
      </trkpt>
      <trkpt lat="41.96372" lon="-0.00401902">
        <time>2022-07-06T16:11:08Z</time>
      </trkpt>
      <trkpt lat="41.963734" lon="-0.00395102">
        <time>2022-07-06T16:11:09Z</time>
      </trkpt>
      <trkpt lat="41.96375" lon="-0.00388269">
        <time>2022-07-06T16:11:10Z</time>
      </trkpt>
      <trkpt lat="41.96378" lon="-0.00374536">
        <time>2022-07-06T16:11:12Z</time>
      </trkpt>
      <trkpt lat="41.96379" lon="-0.00367836">
        <time>2022-07-06T16:11:13Z</time>
      </trkpt>
      <trkpt lat="41.963802" lon="-0.00361236">
        <time>2022-07-06T16:11:14Z</time>
      </trkpt>
      <trkpt lat="41.963814" lon="-0.0035477">
        <time>2022-07-06T16:11:15Z</time>
      </trkpt>
      <trkpt lat="41.96384" lon="-0.00342004">
        <time>2022-07-06T16:11:17Z</time>
      </trkpt>
      <trkpt lat="41.963867" lon="-0.00329071">
        <time>2022-07-06T16:11:19Z</time>
      </trkpt>
      <trkpt lat="41.96389" lon="-0.00315905">
        <time>2022-07-06T16:11:21Z</time>
      </trkpt>
      <trkpt lat="41.963913" lon="-0.00303005">
        <time>2022-07-06T16:11:23Z</time>
      </trkpt>
      <trkpt lat="41.963932" lon="-0.00290072">
        <time>2022-07-06T16:11:25Z</time>
      </trkpt>
      <trkpt lat="41.963955" lon="-0.00276939">
        <time>2022-07-06T16:11:27Z</time>
      </trkpt>
      <trkpt lat="41.963963" lon="-0.00270306">
        <time>2022-07-06T16:11:28Z</time>
      </trkpt>
      <trkpt lat="41.96398" lon="-0.0025714">
        <time>2022-07-06T16:11:30Z</time>
      </trkpt>
      <trkpt lat="41.964" lon="-0.00243974">
        <time>2022-07-06T16:11:32Z</time>
      </trkpt>
      <trkpt lat="41.96402" lon="-0.00230641">
        <time>2022-07-06T16:11:34Z</time>
      </trkpt>
      <trkpt lat="41.96403" lon="-0.00224108">
        <time>2022-07-06T16:11:35Z</time>
      </trkpt>
      <trkpt lat="41.964054" lon="-0.00211008">
        <time>2022-07-06T16:11:37Z</time>
      </trkpt>
      <trkpt lat="41.964077" lon="-0.00197775">
        <time>2022-07-06T16:11:39Z</time>
      </trkpt>
      <trkpt lat="41.964092" lon="-0.00191242">
        <time>2022-07-06T16:11:40Z</time>
      </trkpt>
      <trkpt lat="41.964127" lon="-0.00178442">
        <time>2022-07-06T16:11:42Z</time>
      </trkpt>
      <trkpt lat="41.96415" lon="-0.00172242">
        <time>2022-07-06T16:11:43Z</time>
      </trkpt>
      <trkpt lat="41.964207" lon="-0.00160676">
        <time>2022-07-06T16:11:45Z</time>
      </trkpt>
      <trkpt lat="41.96424" lon="-0.00155276">
        <time>2022-07-06T16:11:46Z</time>
      </trkpt>
      <trkpt lat="41.964275" lon="-0.0015001">
        <time>2022-07-06T16:11:47Z</time>
      </trkpt>
      <trkpt lat="41.964344" lon="-0.00140044">
        <time>2022-07-06T16:11:49Z</time>
      </trkpt>
      <trkpt lat="41.964382" lon="-0.00135178">
        <time>2022-07-06T16:11:50Z</time>
      </trkpt>
      <trkpt lat="41.96442" lon="-0.00130345">
        <time>2022-07-06T16:11:51Z</time>
      </trkpt>
      <trkpt lat="41.9645" lon="-0.00121279">
        <time>2022-07-06T16:11:53Z</time>
      </trkpt>
      <trkpt lat="41.96454" lon="-0.00116679">
        <time>2022-07-06T16:11:54Z</time>
      </trkpt>
      <trkpt lat="41.964577" lon="-0.00111979">
        <time>2022-07-06T16:11:55Z</time>
      </trkpt>
      <trkpt lat="41.964615" lon="-0.00107146">
        <time>2022-07-06T16:11:56Z</time>
      </trkpt>
      <trkpt lat="41.964684" lon="-9.6846E-4">
        <time>2022-07-06T16:11:58Z</time>
      </trkpt>
      <trkpt lat="41.964745" lon="-8.6013E-4">
        <time>2022-07-06T16:12:00Z</time>
      </trkpt>
      <trkpt lat="41.964794" lon="-7.508E-4">
        <time>2022-07-06T16:12:02Z</time>
      </trkpt>
      <trkpt lat="41.96484" lon="-6.3247E-4">
        <time>2022-07-06T16:12:04Z</time>
      </trkpt>
      <trkpt lat="41.964855" lon="-5.7014E-4">
        <time>2022-07-06T16:12:05Z</time>
      </trkpt>
      <trkpt lat="41.964878" lon="-4.4848E-4">
        <time>2022-07-06T16:12:07Z</time>
      </trkpt>
      <trkpt lat="41.964886" lon="-3.8615E-4">
        <time>2022-07-06T16:12:08Z</time>
      </trkpt>
      <trkpt lat="41.96489" lon="-2.5849E-4">
        <time>2022-07-06T16:12:10Z</time>
      </trkpt>
      <trkpt lat="41.964878" lon="-1.3349E-4">
        <time>2022-07-06T16:12:12Z</time>
      </trkpt>
      <trkpt lat="41.96485" lon="1.17E-6">
        <time>2022-07-06T16:12:14Z</time>
      </trkpt>
      <trkpt lat="41.964813" lon="1.4717E-4">
        <time>2022-07-06T16:12:16Z</time>
      </trkpt>
      <trkpt lat="41.964787" lon="2.2083E-4">
        <time>2022-07-06T16:12:17Z</time>
      </trkpt>
      <trkpt lat="41.964752" lon="2.9683E-4">
        <time>2022-07-06T16:12:18Z</time>
      </trkpt>
      <trkpt lat="41.964714" lon="3.6749E-4">
        <time>2022-07-06T16:12:19Z</time>
      </trkpt>
      <trkpt lat="41.964672" lon="4.4382E-4">
        <time>2022-07-06T16:12:20Z</time>
      </trkpt>
      <trkpt lat="41.964634" lon="5.1682E-4">
        <time>2022-07-06T16:12:21Z</time>
      </trkpt>
      <trkpt lat="41.964592" lon="5.9782E-4">
        <time>2022-07-06T16:12:22Z</time>
      </trkpt>
      <trkpt lat="41.96455" lon="6.7948E-4">
        <time>2022-07-06T16:12:23Z</time>
      </trkpt>
      <trkpt lat="41.964508" lon="7.6348E-4">
        <time>2022-07-06T16:12:24Z</time>
      </trkpt>
      <trkpt lat="41.964466" lon="8.5014E-4">
        <time>2022-07-06T16:12:25Z</time>
      </trkpt>
      <trkpt lat="41.96443" lon="9.408E-4">
        <time>2022-07-06T16:12:26Z</time>
      </trkpt>
      <trkpt lat="41.964397" lon="0.0010358">
        <time>2022-07-06T16:12:27Z</time>
      </trkpt>
      <trkpt lat="41.964367" lon="0.0011348">
        <time>2022-07-06T16:12:28Z</time>
      </trkpt>
      <trkpt lat="41.964336" lon="0.0012378">
        <time>2022-07-06T16:12:29Z</time>
      </trkpt>
      <trkpt lat="41.96431" lon="0.00134246">
        <time>2022-07-06T16:12:30Z</time>
      </trkpt>
      <trkpt lat="41.964283" lon="0.00144779">
        <time>2022-07-06T16:12:31Z</time>
      </trkpt>
      <trkpt lat="41.964256" lon="0.00155445">
        <time>2022-07-06T16:12:32Z</time>
      </trkpt>
      <trkpt lat="41.96423" lon="0.00165245">
        <time>2022-07-06T16:12:33Z</time>
      </trkpt>
      <trkpt lat="41.9642" lon="0.00175245">
        <time>2022-07-06T16:12:34Z</time>
      </trkpt>
      <trkpt lat="41.96417" lon="0.00185311">
        <time>2022-07-06T16:12:35Z</time>
      </trkpt>
      <trkpt lat="41.964134" lon="0.00196411">
        <time>2022-07-06T16:12:36Z</time>
      </trkpt>
      <trkpt lat="41.964104" lon="0.00207577">
        <time>2022-07-06T16:12:37Z</time>
      </trkpt>
      <trkpt lat="41.96407" lon="0.00218443">
        <time>2022-07-06T16:12:38Z</time>
      </trkpt>
      <trkpt lat="41.964035" lon="0.00228309">
        <time>2022-07-06T16:12:39Z</time>
      </trkpt>
      <trkpt lat="41.963993" lon="0.00237975">
        <time>2022-07-06T16:12:40Z</time>
      </trkpt>
      <trkpt lat="41.963947" lon="0.00247175">
        <time>2022-07-06T16:12:41Z</time>
      </trkpt>
      <trkpt lat="41.963894" lon="0.00255941">
        <time>2022-07-06T16:12:42Z</time>
      </trkpt>
      <trkpt lat="41.963837" lon="0.00264074">
        <time>2022-07-06T16:12:43Z</time>
      </trkpt>
      <trkpt lat="41.96377" lon="0.00271274">
        <time>2022-07-06T16:12:44Z</time>
      </trkpt>
      <trkpt lat="41.963696" lon="0.00278074">
        <time>2022-07-06T16:12:45Z</time>
      </trkpt>
      <trkpt lat="41.96362" lon="0.0028404">
        <time>2022-07-06T16:12:46Z</time>
      </trkpt>
      <trkpt lat="41.96354" lon="0.0028924">
        <time>2022-07-06T16:12:47Z</time>
      </trkpt>
      <trkpt lat="41.96346" lon="0.00293773">
        <time>2022-07-06T16:12:48Z</time>
      </trkpt>
      <trkpt lat="41.96338" lon="0.00297839">
        <time>2022-07-06T16:12:49Z</time>
      </trkpt>
      <trkpt lat="41.9633" lon="0.00301572">
        <time>2022-07-06T16:12:50Z</time>
      </trkpt>
      <trkpt lat="41.96322" lon="0.00305405">
        <time>2022-07-06T16:12:51Z</time>
      </trkpt>
      <trkpt lat="41.963135" lon="0.00309371">
        <time>2022-07-06T16:12:52Z</time>
      </trkpt>
      <trkpt lat="41.963055" lon="0.00313471">
        <time>2022-07-06T16:12:53Z</time>
      </trkpt>
      <trkpt lat="41.96297" lon="0.00317937">
        <time>2022-07-06T16:12:54Z</time>
      </trkpt>
      <trkpt lat="41.962894" lon="0.00323003">
        <time>2022-07-06T16:12:55Z</time>
      </trkpt>
      <trkpt lat="41.962826" lon="0.00328303">
        <time>2022-07-06T16:12:56Z</time>
      </trkpt>
      <trkpt lat="41.96276" lon="0.00334569">
        <time>2022-07-06T16:12:57Z</time>
      </trkpt>
      <trkpt lat="41.9627" lon="0.00341735">
        <time>2022-07-06T16:12:58Z</time>
      </trkpt>
      <trkpt lat="41.962643" lon="0.00350401">
        <time>2022-07-06T16:12:59Z</time>
      </trkpt>
      <trkpt lat="41.9626" lon="0.00358967">
        <time>2022-07-06T16:13:00Z</time>
      </trkpt>
      <trkpt lat="41.962566" lon="0.00368067">
        <time>2022-07-06T16:13:01Z</time>
      </trkpt>
      <trkpt lat="41.962543" lon="0.00378833">
        <time>2022-07-06T16:13:02Z</time>
      </trkpt>
      <trkpt lat="41.96253" lon="0.00389933">
        <time>2022-07-06T16:13:03Z</time>
      </trkpt>
      <trkpt lat="41.962517" lon="0.00401199">
        <time>2022-07-06T16:13:04Z</time>
      </trkpt>
      <trkpt lat="41.96251" lon="0.00423032">
        <time>2022-07-06T16:13:06Z</time>
      </trkpt>
      <trkpt lat="41.962505" lon="0.00434232">
        <time>2022-07-06T16:13:07Z</time>
      </trkpt>
      <trkpt lat="41.9625" lon="0.00445332">
        <time>2022-07-06T16:13:08Z</time>
      </trkpt>
      <trkpt lat="41.962498" lon="0.00456232">
        <time>2022-07-06T16:13:09Z</time>
      </trkpt>
      <trkpt lat="41.962494" lon="0.00467032">
        <time>2022-07-06T16:13:10Z</time>
      </trkpt>
      <trkpt lat="41.96249" lon="0.00476932">
        <time>2022-07-06T16:13:11Z</time>
      </trkpt>
      <trkpt lat="41.962486" lon="0.00487465">
        <time>2022-07-06T16:13:12Z</time>
      </trkpt>
      <trkpt lat="41.962486" lon="0.00497698">
        <time>2022-07-06T16:13:13Z</time>
      </trkpt>
      <trkpt lat="41.96248" lon="0.00507664">
        <time>2022-07-06T16:13:14Z</time>
      </trkpt>
      <trkpt lat="41.962475" lon="0.00517397">
        <time>2022-07-06T16:13:15Z</time>
      </trkpt>
      <trkpt lat="41.96247" lon="0.00526897">
        <time>2022-07-06T16:13:16Z</time>
      </trkpt>
      <trkpt lat="41.962463" lon="0.00536197">
        <time>2022-07-06T16:13:17Z</time>
      </trkpt>
      <trkpt lat="41.962456" lon="0.00545363">
        <time>2022-07-06T16:13:18Z</time>
      </trkpt>
      <trkpt lat="41.962452" lon="0.00554029">
        <time>2022-07-06T16:13:19Z</time>
      </trkpt>
      <trkpt lat="41.962444" lon="0.00563362">
        <time>2022-07-06T16:13:20Z</time>
      </trkpt>
      <trkpt lat="41.96244" lon="0.00571995">
        <time>2022-07-06T16:13:21Z</time>
      </trkpt>
      <trkpt lat="41.962437" lon="0.00581428">
        <time>2022-07-06T16:13:22Z</time>
      </trkpt>
      <trkpt lat="41.96243" lon="0.00590628">
        <time>2022-07-06T16:13:23Z</time>
      </trkpt>
      <trkpt lat="41.96242" lon="0.00599094">
        <time>2022-07-06T16:13:24Z</time>
      </trkpt>
      <trkpt lat="41.962414" lon="0.00608194">
        <time>2022-07-06T16:13:25Z</time>
      </trkpt>
      <trkpt lat="41.962406" lon="0.00617327">
        <time>2022-07-06T16:13:26Z</time>
      </trkpt>
      <trkpt lat="41.962402" lon="0.0062636">
        <time>2022-07-06T16:13:27Z</time>
      </trkpt>
      <trkpt lat="41.9624" lon="0.0063526">
        <time>2022-07-06T16:13:28Z</time>
      </trkpt>
      <trkpt lat="41.96239" lon="0.00644093">
        <time>2022-07-06T16:13:29Z</time>
      </trkpt>
      <trkpt lat="41.962387" lon="0.00652893">
        <time>2022-07-06T16:13:30Z</time>
      </trkpt>
      <trkpt lat="41.96238" lon="0.00661559">
        <time>2022-07-06T16:13:31Z</time>
      </trkpt>
      <trkpt lat="41.962368" lon="0.00670159">
        <time>2022-07-06T16:13:32Z</time>
      </trkpt>
      <trkpt lat="41.962353" lon="0.00678359">
        <time>2022-07-06T16:13:33Z</time>
      </trkpt>
      <trkpt lat="41.962337" lon="0.00685459">
        <time>2022-07-06T16:13:34Z</time>
      </trkpt>
      <trkpt lat="41.962322" lon="0.00691359">
        <time>2022-07-06T16:13:35Z</time>
      </trkpt>
      <trkpt lat="41.962303" lon="0.00695992">
        <time>2022-07-06T16:13:36Z</time>
      </trkpt>
      <trkpt lat="41.962273" lon="0.00703058">
        <time>2022-07-06T16:13:38Z</time>
      </trkpt>
      <trkpt lat="41.96225" lon="0.00709958">
        <time>2022-07-06T16:13:40Z</time>
      </trkpt>
      <trkpt lat="41.962242" lon="0.00718124">
        <time>2022-07-06T16:13:42Z</time>
      </trkpt>
      <trkpt lat="41.962265" lon="0.00728224">
        <time>2022-07-06T16:13:44Z</time>
      </trkpt>
      <trkpt lat="41.962307" lon="0.0074039">
        <time>2022-07-06T16:13:46Z</time>
      </trkpt>
      <trkpt lat="41.962326" lon="0.0074709">
        <time>2022-07-06T16:13:47Z</time>
      </trkpt>
      <trkpt lat="41.96235" lon="0.0075409">
        <time>2022-07-06T16:13:48Z</time>
      </trkpt>
      <trkpt lat="41.96237" lon="0.00761156">
        <time>2022-07-06T16:13:49Z</time>
      </trkpt>
      <trkpt lat="41.962395" lon="0.00768356">
        <time>2022-07-06T16:13:50Z</time>
      </trkpt>
      <trkpt lat="41.96242" lon="0.00775622">
        <time>2022-07-06T16:13:51Z</time>
      </trkpt>
      <trkpt lat="41.962452" lon="0.00783022">
        <time>2022-07-06T16:13:52Z</time>
      </trkpt>
      <trkpt lat="41.96248" lon="0.00790555">
        <time>2022-07-06T16:13:53Z</time>
      </trkpt>
      <trkpt lat="41.96251" lon="0.00798255">
        <time>2022-07-06T16:13:54Z</time>
      </trkpt>
      <trkpt lat="41.96254" lon="0.00806021">
        <time>2022-07-06T16:13:55Z</time>
      </trkpt>
      <trkpt lat="41.96257" lon="0.00813721">
        <time>2022-07-06T16:13:56Z</time>
      </trkpt>
      <trkpt lat="41.9626" lon="0.00821487">
        <time>2022-07-06T16:13:57Z</time>
      </trkpt>
      <trkpt lat="41.96263" lon="0.0082932">
        <time>2022-07-06T16:13:58Z</time>
      </trkpt>
      <trkpt lat="41.96266" lon="0.00837186">
        <time>2022-07-06T16:13:59Z</time>
      </trkpt>
      <trkpt lat="41.962696" lon="0.00845186">
        <time>2022-07-06T16:14:00Z</time>
      </trkpt>
      <trkpt lat="41.962727" lon="0.00853152">
        <time>2022-07-06T16:14:01Z</time>
      </trkpt>
      <trkpt lat="41.96276" lon="0.00861218">
        <time>2022-07-06T16:14:02Z</time>
      </trkpt>
      <trkpt lat="41.962795" lon="0.00869351">
        <time>2022-07-06T16:14:03Z</time>
      </trkpt>
      <trkpt lat="41.96283" lon="0.00877717">
        <time>2022-07-06T16:14:04Z</time>
      </trkpt>
      <trkpt lat="41.962864" lon="0.00886283">
        <time>2022-07-06T16:14:05Z</time>
      </trkpt>
      <trkpt lat="41.9629" lon="0.00895183">
        <time>2022-07-06T16:14:06Z</time>
      </trkpt>
      <trkpt lat="41.96293" lon="0.00904249">
        <time>2022-07-06T16:14:07Z</time>
      </trkpt>
      <trkpt lat="41.962963" lon="0.00913515">
        <time>2022-07-06T16:14:08Z</time>
      </trkpt>
      <trkpt lat="41.962997" lon="0.00922881">
        <time>2022-07-06T16:14:09Z</time>
      </trkpt>
      <trkpt lat="41.96303" lon="0.00932481">
        <time>2022-07-06T16:14:10Z</time>
      </trkpt>
      <trkpt lat="41.963062" lon="0.00942214">
        <time>2022-07-06T16:14:11Z</time>
      </trkpt>
      <trkpt lat="41.963097" lon="0.0095218">
        <time>2022-07-06T16:14:12Z</time>
      </trkpt>
      <trkpt lat="41.96316" lon="0.0097248">
        <time>2022-07-06T16:14:14Z</time>
      </trkpt>
      <trkpt lat="41.963196" lon="0.0098278">
        <time>2022-07-06T16:14:15Z</time>
      </trkpt>
      <trkpt lat="41.96323" lon="0.0099318">
        <time>2022-07-06T16:14:16Z</time>
      </trkpt>
      <trkpt lat="41.963264" lon="0.01003613">
        <time>2022-07-06T16:14:17Z</time>
      </trkpt>
      <trkpt lat="41.963295" lon="0.01014046">
        <time>2022-07-06T16:14:18Z</time>
      </trkpt>
      <trkpt lat="41.963333" lon="0.01024512">
        <time>2022-07-06T16:14:19Z</time>
      </trkpt>
      <trkpt lat="41.963367" lon="0.01035145">
        <time>2022-07-06T16:14:20Z</time>
      </trkpt>
      <trkpt lat="41.9634" lon="0.01045811">
        <time>2022-07-06T16:14:21Z</time>
      </trkpt>
      <trkpt lat="41.963436" lon="0.01056544">
        <time>2022-07-06T16:14:22Z</time>
      </trkpt>
      <trkpt lat="41.963474" lon="0.0106731">
        <time>2022-07-06T16:14:23Z</time>
      </trkpt>
      <trkpt lat="41.963512" lon="0.0107821">
        <time>2022-07-06T16:14:24Z</time>
      </trkpt>
      <trkpt lat="41.96355" lon="0.0108911">
        <time>2022-07-06T16:14:25Z</time>
      </trkpt>
      <trkpt lat="41.963585" lon="0.01100076">
        <time>2022-07-06T16:14:26Z</time>
      </trkpt>
      <trkpt lat="41.96362" lon="0.01110942">
        <time>2022-07-06T16:14:27Z</time>
      </trkpt>
      <trkpt lat="41.963654" lon="0.01121575">
        <time>2022-07-06T16:14:28Z</time>
      </trkpt>
      <trkpt lat="41.963688" lon="0.01131675">
        <time>2022-07-06T16:14:29Z</time>
      </trkpt>
      <trkpt lat="41.96372" lon="0.01141175">
        <time>2022-07-06T16:14:30Z</time>
      </trkpt>
      <trkpt lat="41.96375" lon="0.01150208">
        <time>2022-07-06T16:14:31Z</time>
      </trkpt>
      <trkpt lat="41.96377" lon="0.01158674">
        <time>2022-07-06T16:14:32Z</time>
      </trkpt>
      <trkpt lat="41.963795" lon="0.0116654">
        <time>2022-07-06T16:14:33Z</time>
      </trkpt>
      <trkpt lat="41.963814" lon="0.01174073">
        <time>2022-07-06T16:14:34Z</time>
      </trkpt>
      <trkpt lat="41.96383" lon="0.01181173">
        <time>2022-07-06T16:14:35Z</time>
      </trkpt>
      <trkpt lat="41.963837" lon="0.01187739">
        <time>2022-07-06T16:14:36Z</time>
      </trkpt>
      <trkpt lat="41.96385" lon="0.01199305">
        <time>2022-07-06T16:14:38Z</time>
      </trkpt>
      <trkpt lat="41.963856" lon="0.01207405">
        <time>2022-07-06T16:14:40Z</time>
      </trkpt>
      <trkpt lat="41.96386" lon="0.01213071">
        <time>2022-07-06T16:14:43Z</time>
      </trkpt>
      <trkpt lat="41.963898" lon="0.01217371">
        <time>2022-07-06T16:15:35Z</time>
      </trkpt>
      <trkpt lat="41.963966" lon="0.01226037">
        <time>2022-07-06T16:15:38Z</time>
      </trkpt>
      <trkpt lat="41.964012" lon="0.0123467">
        <time>2022-07-06T16:15:40Z</time>
      </trkpt>
      <trkpt lat="41.964054" lon="0.0124567">
        <time>2022-07-06T16:15:42Z</time>
      </trkpt>
      <trkpt lat="41.964096" lon="0.01258403">
        <time>2022-07-06T16:15:44Z</time>
      </trkpt>
      <trkpt lat="41.964115" lon="0.01265269">
        <time>2022-07-06T16:15:45Z</time>
      </trkpt>
      <trkpt lat="41.964138" lon="0.01272502">
        <time>2022-07-06T16:15:46Z</time>
      </trkpt>
      <trkpt lat="41.964157" lon="0.01280068">
        <time>2022-07-06T16:15:47Z</time>
      </trkpt>
      <trkpt lat="41.96418" lon="0.01288468">
        <time>2022-07-06T16:15:48Z</time>
      </trkpt>
      <trkpt lat="41.9642" lon="0.01296401">
        <time>2022-07-06T16:15:49Z</time>
      </trkpt>
      <trkpt lat="41.964222" lon="0.01304601">
        <time>2022-07-06T16:15:50Z</time>
      </trkpt>
      <trkpt lat="41.96424" lon="0.01312967">
        <time>2022-07-06T16:15:51Z</time>
      </trkpt>
      <trkpt lat="41.96426" lon="0.01321567">
        <time>2022-07-06T16:15:52Z</time>
      </trkpt>
      <trkpt lat="41.964283" lon="0.013304">
        <time>2022-07-06T16:15:53Z</time>
      </trkpt>
      <trkpt lat="41.9643" lon="0.013394">
        <time>2022-07-06T16:15:54Z</time>
      </trkpt>
      <trkpt lat="41.964317" lon="0.01348733">
        <time>2022-07-06T16:15:55Z</time>
      </trkpt>
      <trkpt lat="41.964333" lon="0.01358233">
        <time>2022-07-06T16:15:56Z</time>
      </trkpt>
      <trkpt lat="41.964348" lon="0.01367899">
        <time>2022-07-06T16:15:57Z</time>
      </trkpt>
      <trkpt lat="41.964363" lon="0.01377765">
        <time>2022-07-06T16:15:58Z</time>
      </trkpt>
      <trkpt lat="41.96438" lon="0.01387731">
        <time>2022-07-06T16:15:59Z</time>
      </trkpt>
      <trkpt lat="41.964394" lon="0.01397731">
        <time>2022-07-06T16:16:00Z</time>
      </trkpt>
      <trkpt lat="41.964405" lon="0.01408431">
        <time>2022-07-06T16:16:01Z</time>
      </trkpt>
      <trkpt lat="41.96442" lon="0.01418464">
        <time>2022-07-06T16:16:02Z</time>
      </trkpt>
      <trkpt lat="41.96443" lon="0.01429397">
        <time>2022-07-06T16:16:03Z</time>
      </trkpt>
      <trkpt lat="41.964443" lon="0.01439663">
        <time>2022-07-06T16:16:04Z</time>
      </trkpt>
      <trkpt lat="41.964455" lon="0.01450829">
        <time>2022-07-06T16:16:05Z</time>
      </trkpt>
      <trkpt lat="41.964462" lon="0.01461962">
        <time>2022-07-06T16:16:06Z</time>
      </trkpt>
      <trkpt lat="41.964474" lon="0.01473095">
        <time>2022-07-06T16:16:07Z</time>
      </trkpt>
      <trkpt lat="41.96448" lon="0.01483395">
        <time>2022-07-06T16:16:08Z</time>
      </trkpt>
      <trkpt lat="41.964493" lon="0.01493961">
        <time>2022-07-06T16:16:09Z</time>
      </trkpt>
      <trkpt lat="41.964504" lon="0.01505461">
        <time>2022-07-06T16:16:10Z</time>
      </trkpt>
      <trkpt lat="41.96451" lon="0.01516861">
        <time>2022-07-06T16:16:11Z</time>
      </trkpt>
      <trkpt lat="41.96452" lon="0.01527627">
        <time>2022-07-06T16:16:12Z</time>
      </trkpt>
      <trkpt lat="41.964523" lon="0.0153866">
        <time>2022-07-06T16:16:13Z</time>
      </trkpt>
      <trkpt lat="41.96453" lon="0.01550026">
        <time>2022-07-06T16:16:14Z</time>
      </trkpt>
      <trkpt lat="41.964535" lon="0.01561626">
        <time>2022-07-06T16:16:15Z</time>
      </trkpt>
      <trkpt lat="41.96454" lon="0.01573326">
        <time>2022-07-06T16:16:16Z</time>
      </trkpt>
      <trkpt lat="41.964546" lon="0.01585126">
        <time>2022-07-06T16:16:17Z</time>
      </trkpt>
      <trkpt lat="41.964558" lon="0.01608959">
        <time>2022-07-06T16:16:19Z</time>
      </trkpt>
      <trkpt lat="41.964565" lon="0.01620825">
        <time>2022-07-06T16:16:20Z</time>
      </trkpt>
      <trkpt lat="41.96457" lon="0.01632691">
        <time>2022-07-06T16:16:21Z</time>
      </trkpt>
      <trkpt lat="41.964577" lon="0.01644557">
        <time>2022-07-06T16:16:22Z</time>
      </trkpt>
      <trkpt lat="41.964584" lon="0.01656357">
        <time>2022-07-06T16:16:23Z</time>
      </trkpt>
      <trkpt lat="41.96459" lon="0.0166819">
        <time>2022-07-06T16:16:24Z</time>
      </trkpt>
      <trkpt lat="41.964596" lon="0.0168009">
        <time>2022-07-06T16:16:25Z</time>
      </trkpt>
      <trkpt lat="41.964607" lon="0.0169209">
        <time>2022-07-06T16:16:26Z</time>
      </trkpt>
      <trkpt lat="41.964615" lon="0.01704156">
        <time>2022-07-06T16:16:27Z</time>
      </trkpt>
      <trkpt lat="41.96463" lon="0.01716122">
        <time>2022-07-06T16:16:28Z</time>
      </trkpt>
      <trkpt lat="41.96464" lon="0.01728122">
        <time>2022-07-06T16:16:29Z</time>
      </trkpt>
      <trkpt lat="41.964653" lon="0.01739988">
        <time>2022-07-06T16:16:30Z</time>
      </trkpt>
      <trkpt lat="41.96467" lon="0.01752621">
        <time>2022-07-06T16:16:31Z</time>
      </trkpt>
      <trkpt lat="41.964684" lon="0.01764287">
        <time>2022-07-06T16:16:32Z</time>
      </trkpt>
      <trkpt lat="41.964703" lon="0.01776053">
        <time>2022-07-06T16:16:33Z</time>
      </trkpt>
      <trkpt lat="41.964718" lon="0.01787786">
        <time>2022-07-06T16:16:34Z</time>
      </trkpt>
      <trkpt lat="41.96474" lon="0.01799486">
        <time>2022-07-06T16:16:35Z</time>
      </trkpt>
      <trkpt lat="41.96476" lon="0.01811152">
        <time>2022-07-06T16:16:36Z</time>
      </trkpt>
      <trkpt lat="41.96478" lon="0.01822718">
        <time>2022-07-06T16:16:37Z</time>
      </trkpt>
      <trkpt lat="41.9648" lon="0.01834284">
        <time>2022-07-06T16:16:38Z</time>
      </trkpt>
      <trkpt lat="41.964825" lon="0.0184585">
        <time>2022-07-06T16:16:39Z</time>
      </trkpt>
      <trkpt lat="41.964848" lon="0.01857416">
        <time>2022-07-06T16:16:40Z</time>
      </trkpt>
      <trkpt lat="41.96487" lon="0.01868982">
        <time>2022-07-06T16:16:41Z</time>
      </trkpt>
      <trkpt lat="41.964897" lon="0.01880448">
        <time>2022-07-06T16:16:42Z</time>
      </trkpt>
      <trkpt lat="41.96492" lon="0.01891881">
        <time>2022-07-06T16:16:43Z</time>
      </trkpt>
      <trkpt lat="41.964943" lon="0.01903181">
        <time>2022-07-06T16:16:44Z</time>
      </trkpt>
      <trkpt lat="41.96497" lon="0.01914547">
        <time>2022-07-06T16:16:45Z</time>
      </trkpt>
      <trkpt lat="41.964996" lon="0.01925947">
        <time>2022-07-06T16:16:46Z</time>
      </trkpt>
      <trkpt lat="41.96502" lon="0.0193728">
        <time>2022-07-06T16:16:47Z</time>
      </trkpt>
      <trkpt lat="41.965046" lon="0.0194868">
        <time>2022-07-06T16:16:48Z</time>
      </trkpt>
      <trkpt lat="41.965076" lon="0.0196008">
        <time>2022-07-06T16:16:49Z</time>
      </trkpt>
      <trkpt lat="41.965103" lon="0.01971413">
        <time>2022-07-06T16:16:50Z</time>
      </trkpt>
      <trkpt lat="41.96513" lon="0.01982646">
        <time>2022-07-06T16:16:51Z</time>
      </trkpt>
      <trkpt lat="41.965157" lon="0.01993846">
        <time>2022-07-06T16:16:52Z</time>
      </trkpt>
      <trkpt lat="41.965183" lon="0.02005046">
        <time>2022-07-06T16:16:53Z</time>
      </trkpt>
      <trkpt lat="41.96521" lon="0.02016179">
        <time>2022-07-06T16:16:54Z</time>
      </trkpt>
      <trkpt lat="41.965237" lon="0.02027279">
        <time>2022-07-06T16:16:55Z</time>
      </trkpt>
      <trkpt lat="41.965267" lon="0.02038379">
        <time>2022-07-06T16:16:56Z</time>
      </trkpt>
      <trkpt lat="41.96529" lon="0.02049579">
        <time>2022-07-06T16:16:57Z</time>
      </trkpt>
      <trkpt lat="41.965317" lon="0.02060745">
        <time>2022-07-06T16:16:58Z</time>
      </trkpt>
      <trkpt lat="41.965347" lon="0.02071978">
        <time>2022-07-06T16:16:59Z</time>
      </trkpt>
      <trkpt lat="41.965374" lon="0.02083178">
        <time>2022-07-06T16:17:00Z</time>
      </trkpt>
      <trkpt lat="41.9654" lon="0.02094344">
        <time>2022-07-06T16:17:01Z</time>
      </trkpt>
      <trkpt lat="41.965427" lon="0.02105477">
        <time>2022-07-06T16:17:02Z</time>
      </trkpt>
      <trkpt lat="41.965454" lon="0.0211651">
        <time>2022-07-06T16:17:03Z</time>
      </trkpt>
      <trkpt lat="41.965477" lon="0.0212751">
        <time>2022-07-06T16:17:04Z</time>
      </trkpt>
      <trkpt lat="41.9655" lon="0.02138476">
        <time>2022-07-06T16:17:05Z</time>
      </trkpt>
      <trkpt lat="41.965527" lon="0.02149409">
        <time>2022-07-06T16:17:06Z</time>
      </trkpt>
      <trkpt lat="41.96555" lon="0.02160275">
        <time>2022-07-06T16:17:07Z</time>
      </trkpt>
      <trkpt lat="41.965572" lon="0.02171008">
        <time>2022-07-06T16:17:08Z</time>
      </trkpt>
      <trkpt lat="41.965595" lon="0.02181708">
        <time>2022-07-06T16:17:09Z</time>
      </trkpt>
      <trkpt lat="41.965622" lon="0.02192308">
        <time>2022-07-06T16:17:10Z</time>
      </trkpt>
      <trkpt lat="41.965645" lon="0.02202841">
        <time>2022-07-06T16:17:11Z</time>
      </trkpt>
      <trkpt lat="41.96567" lon="0.02213274">
        <time>2022-07-06T16:17:12Z</time>
      </trkpt>
      <trkpt lat="41.965694" lon="0.02223674">
        <time>2022-07-06T16:17:13Z</time>
      </trkpt>
      <trkpt lat="41.96572" lon="0.0223404">
        <time>2022-07-06T16:17:14Z</time>
      </trkpt>
      <trkpt lat="41.965744" lon="0.02244473">
        <time>2022-07-06T16:17:15Z</time>
      </trkpt>
      <trkpt lat="41.965767" lon="0.02254973">
        <time>2022-07-06T16:17:16Z</time>
      </trkpt>
      <trkpt lat="41.965786" lon="0.02265639">
        <time>2022-07-06T16:17:17Z</time>
      </trkpt>
      <trkpt lat="41.965805" lon="0.02276405">
        <time>2022-07-06T16:17:18Z</time>
      </trkpt>
      <trkpt lat="41.965824" lon="0.02287138">
        <time>2022-07-06T16:17:19Z</time>
      </trkpt>
      <trkpt lat="41.96584" lon="0.02297904">
        <time>2022-07-06T16:17:20Z</time>
      </trkpt>
      <trkpt lat="41.965855" lon="0.02308604">
        <time>2022-07-06T16:17:21Z</time>
      </trkpt>
      <trkpt lat="41.965878" lon="0.02330337">
        <time>2022-07-06T16:17:23Z</time>
      </trkpt>
      <trkpt lat="41.965885" lon="0.0234137">
        <time>2022-07-06T16:17:24Z</time>
      </trkpt>
      <trkpt lat="41.96589" lon="0.02352403">
        <time>2022-07-06T16:17:25Z</time>
      </trkpt>
      <trkpt lat="41.96589" lon="0.02363469">
        <time>2022-07-06T16:17:26Z</time>
      </trkpt>
      <trkpt lat="41.96589" lon="0.02374569">
        <time>2022-07-06T16:17:27Z</time>
      </trkpt>
      <trkpt lat="41.96588" lon="0.02385702">
        <time>2022-07-06T16:17:28Z</time>
      </trkpt>
      <trkpt lat="41.965874" lon="0.02396702">
        <time>2022-07-06T16:17:29Z</time>
      </trkpt>
      <trkpt lat="41.965866" lon="0.02407668">
        <time>2022-07-06T16:17:30Z</time>
      </trkpt>
      <trkpt lat="41.96585" lon="0.02419301">
        <time>2022-07-06T16:17:31Z</time>
      </trkpt>
      <trkpt lat="41.965836" lon="0.02430034">
        <time>2022-07-06T16:17:32Z</time>
      </trkpt>
      <trkpt lat="41.965816" lon="0.02440734">
        <time>2022-07-06T16:17:33Z</time>
      </trkpt>
      <trkpt lat="41.965794" lon="0.02451467">
        <time>2022-07-06T16:17:34Z</time>
      </trkpt>
      <trkpt lat="41.96577" lon="0.02462233">
        <time>2022-07-06T16:17:35Z</time>
      </trkpt>
      <trkpt lat="41.965748" lon="0.02472933">
        <time>2022-07-06T16:17:36Z</time>
      </trkpt>
      <trkpt lat="41.965717" lon="0.02483533">
        <time>2022-07-06T16:17:37Z</time>
      </trkpt>
      <trkpt lat="41.965687" lon="0.02494033">
        <time>2022-07-06T16:17:38Z</time>
      </trkpt>
      <trkpt lat="41.965656" lon="0.02504333">
        <time>2022-07-06T16:17:39Z</time>
      </trkpt>
      <trkpt lat="41.96562" lon="0.02514499">
        <time>2022-07-06T16:17:40Z</time>
      </trkpt>
      <trkpt lat="41.96558" lon="0.02524532">
        <time>2022-07-06T16:17:41Z</time>
      </trkpt>
      <trkpt lat="41.965538" lon="0.02535065">
        <time>2022-07-06T16:17:42Z</time>
      </trkpt>
      <trkpt lat="41.965496" lon="0.02544565">
        <time>2022-07-06T16:17:43Z</time>
      </trkpt>
      <trkpt lat="41.965454" lon="0.02553998">
        <time>2022-07-06T16:17:44Z</time>
      </trkpt>
      <trkpt lat="41.965412" lon="0.02563331">
        <time>2022-07-06T16:17:45Z</time>
      </trkpt>
      <trkpt lat="41.965366" lon="0.02572564">
        <time>2022-07-06T16:17:46Z</time>
      </trkpt>
      <trkpt lat="41.96532" lon="0.02581597">
        <time>2022-07-06T16:17:47Z</time>
      </trkpt>
      <trkpt lat="41.96527" lon="0.0259053">
        <time>2022-07-06T16:17:48Z</time>
      </trkpt>
      <trkpt lat="41.965225" lon="0.02599263">
        <time>2022-07-06T16:17:49Z</time>
      </trkpt>
      <trkpt lat="41.965176" lon="0.02608396">
        <time>2022-07-06T16:17:50Z</time>
      </trkpt>
      <trkpt lat="41.965122" lon="0.02617229">
        <time>2022-07-06T16:17:51Z</time>
      </trkpt>
      <trkpt lat="41.965076" lon="0.02625229">
        <time>2022-07-06T16:17:52Z</time>
      </trkpt>
      <trkpt lat="41.965027" lon="0.02633362">
        <time>2022-07-06T16:17:53Z</time>
      </trkpt>
      <trkpt lat="41.964973" lon="0.02641495">
        <time>2022-07-06T16:17:54Z</time>
      </trkpt>
      <trkpt lat="41.964924" lon="0.02649528">
        <time>2022-07-06T16:17:55Z</time>
      </trkpt>
      <trkpt lat="41.96487" lon="0.02657494">
        <time>2022-07-06T16:17:56Z</time>
      </trkpt>
      <trkpt lat="41.964817" lon="0.02665394">
        <time>2022-07-06T16:17:57Z</time>
      </trkpt>
      <trkpt lat="41.964767" lon="0.0267336">
        <time>2022-07-06T16:17:58Z</time>
      </trkpt>
      <trkpt lat="41.964714" lon="0.02681326">
        <time>2022-07-06T16:17:59Z</time>
      </trkpt>
      <trkpt lat="41.964664" lon="0.02689192">
        <time>2022-07-06T16:18:00Z</time>
      </trkpt>
      <trkpt lat="41.96461" lon="0.02696925">
        <time>2022-07-06T16:18:01Z</time>
      </trkpt>
      <trkpt lat="41.964558" lon="0.02704758">
        <time>2022-07-06T16:18:02Z</time>
      </trkpt>
      <trkpt lat="41.96451" lon="0.02712858">
        <time>2022-07-06T16:18:03Z</time>
      </trkpt>
      <trkpt lat="41.964462" lon="0.02721158">
        <time>2022-07-06T16:18:04Z</time>
      </trkpt>
      <trkpt lat="41.964417" lon="0.02729524">
        <time>2022-07-06T16:18:05Z</time>
      </trkpt>
      <trkpt lat="41.96437" lon="0.02737924">
        <time>2022-07-06T16:18:06Z</time>
      </trkpt>
      <trkpt lat="41.964325" lon="0.02746457">
        <time>2022-07-06T16:18:07Z</time>
      </trkpt>
      <trkpt lat="41.96428" lon="0.02755057">
        <time>2022-07-06T16:18:08Z</time>
      </trkpt>
      <trkpt lat="41.964233" lon="0.02763723">
        <time>2022-07-06T16:18:09Z</time>
      </trkpt>
      <trkpt lat="41.96419" lon="0.02772556">
        <time>2022-07-06T16:18:10Z</time>
      </trkpt>
      <trkpt lat="41.964146" lon="0.02781489">
        <time>2022-07-06T16:18:11Z</time>
      </trkpt>
      <trkpt lat="41.964108" lon="0.02790655">
        <time>2022-07-06T16:18:12Z</time>
      </trkpt>
      <trkpt lat="41.964066" lon="0.02799988">
        <time>2022-07-06T16:18:13Z</time>
      </trkpt>
      <trkpt lat="41.964027" lon="0.02809488">
        <time>2022-07-06T16:18:14Z</time>
      </trkpt>
      <trkpt lat="41.96399" lon="0.02819221">
        <time>2022-07-06T16:18:15Z</time>
      </trkpt>
      <trkpt lat="41.963955" lon="0.02829154">
        <time>2022-07-06T16:18:16Z</time>
      </trkpt>
      <trkpt lat="41.963917" lon="0.02839287">
        <time>2022-07-06T16:18:17Z</time>
      </trkpt>
      <trkpt lat="41.963886" lon="0.02849787">
        <time>2022-07-06T16:18:18Z</time>
      </trkpt>
      <trkpt lat="41.963852" lon="0.0286052">
        <time>2022-07-06T16:18:19Z</time>
      </trkpt>
      <trkpt lat="41.96382" lon="0.0287142">
        <time>2022-07-06T16:18:20Z</time>
      </trkpt>
      <trkpt lat="41.96379" lon="0.02882586">
        <time>2022-07-06T16:18:21Z</time>
      </trkpt>
      <trkpt lat="41.963757" lon="0.02893819">
        <time>2022-07-06T16:18:22Z</time>
      </trkpt>
      <trkpt lat="41.96373" lon="0.02905185">
        <time>2022-07-06T16:18:23Z</time>
      </trkpt>
      <trkpt lat="41.9637" lon="0.02916685">
        <time>2022-07-06T16:18:24Z</time>
      </trkpt>
      <trkpt lat="41.96364" lon="0.02939985">
        <time>2022-07-06T16:18:26Z</time>
      </trkpt>
      <trkpt lat="41.96361" lon="0.02951651">
        <time>2022-07-06T16:18:27Z</time>
      </trkpt>
      <trkpt lat="41.96358" lon="0.02962584">
        <time>2022-07-06T16:18:28Z</time>
      </trkpt>
      <trkpt lat="41.96355" lon="0.02974417">
        <time>2022-07-06T16:18:29Z</time>
      </trkpt>
      <trkpt lat="41.963516" lon="0.02986217">
        <time>2022-07-06T16:18:30Z</time>
      </trkpt>
      <trkpt lat="41.96348" lon="0.02998783">
        <time>2022-07-06T16:18:31Z</time>
      </trkpt>
      <trkpt lat="41.96345" lon="0.03010216">
        <time>2022-07-06T16:18:32Z</time>
      </trkpt>
      <trkpt lat="41.963417" lon="0.03021716">
        <time>2022-07-06T16:18:33Z</time>
      </trkpt>
      <trkpt lat="41.963387" lon="0.03033149">
        <time>2022-07-06T16:18:34Z</time>
      </trkpt>
      <trkpt lat="41.963352" lon="0.03044582">
        <time>2022-07-06T16:18:35Z</time>
      </trkpt>
      <trkpt lat="41.963318" lon="0.03055915">
        <time>2022-07-06T16:18:36Z</time>
      </trkpt>
      <trkpt lat="41.963287" lon="0.03067181">
        <time>2022-07-06T16:18:37Z</time>
      </trkpt>
      <trkpt lat="41.963253" lon="0.03078547">
        <time>2022-07-06T16:18:38Z</time>
      </trkpt>
      <trkpt lat="41.96322" lon="0.03089947">
        <time>2022-07-06T16:18:39Z</time>
      </trkpt>
      <trkpt lat="41.963184" lon="0.03101313">
        <time>2022-07-06T16:18:40Z</time>
      </trkpt>
      <trkpt lat="41.963154" lon="0.03112679">
        <time>2022-07-06T16:18:41Z</time>
      </trkpt>
      <trkpt lat="41.963123" lon="0.03123245">
        <time>2022-07-06T16:18:42Z</time>
      </trkpt>
      <trkpt lat="41.96309" lon="0.03134045">
        <time>2022-07-06T16:18:43Z</time>
      </trkpt>
      <trkpt lat="41.963055" lon="0.03145711">
        <time>2022-07-06T16:18:44Z</time>
      </trkpt>
      <trkpt lat="41.963024" lon="0.03157211">
        <time>2022-07-06T16:18:45Z</time>
      </trkpt>
      <trkpt lat="41.96299" lon="0.03168544">
        <time>2022-07-06T16:18:46Z</time>
      </trkpt>
      <trkpt lat="41.96296" lon="0.03179844">
        <time>2022-07-06T16:18:47Z</time>
      </trkpt>
      <trkpt lat="41.962925" lon="0.03191144">
        <time>2022-07-06T16:18:48Z</time>
      </trkpt>
      <trkpt lat="41.962894" lon="0.03202377">
        <time>2022-07-06T16:18:49Z</time>
      </trkpt>
      <trkpt lat="41.96286" lon="0.0321361">
        <time>2022-07-06T16:18:50Z</time>
      </trkpt>
      <trkpt lat="41.96283" lon="0.03224776">
        <time>2022-07-06T16:18:51Z</time>
      </trkpt>
      <trkpt lat="41.9628" lon="0.03235809">
        <time>2022-07-06T16:18:52Z</time>
      </trkpt>
      <trkpt lat="41.962765" lon="0.03246842">
        <time>2022-07-06T16:18:53Z</time>
      </trkpt>
      <trkpt lat="41.962734" lon="0.03257808">
        <time>2022-07-06T16:18:54Z</time>
      </trkpt>
      <trkpt lat="41.9627" lon="0.03268741">
        <time>2022-07-06T16:18:55Z</time>
      </trkpt>
      <trkpt lat="41.96267" lon="0.03279641">
        <time>2022-07-06T16:18:56Z</time>
      </trkpt>
      <trkpt lat="41.96264" lon="0.03290507">
        <time>2022-07-06T16:18:57Z</time>
      </trkpt>
      <trkpt lat="41.962605" lon="0.03301373">
        <time>2022-07-06T16:18:58Z</time>
      </trkpt>
      <trkpt lat="41.962574" lon="0.03312039">
        <time>2022-07-06T16:18:59Z</time>
      </trkpt>
      <trkpt lat="41.96254" lon="0.03322639">
        <time>2022-07-06T16:19:00Z</time>
      </trkpt>
      <trkpt lat="41.962505" lon="0.03333172">
        <time>2022-07-06T16:19:01Z</time>
      </trkpt>
      <trkpt lat="41.962475" lon="0.03343805">
        <time>2022-07-06T16:19:02Z</time>
      </trkpt>
      <trkpt lat="41.96244" lon="0.03354405">
        <time>2022-07-06T16:19:03Z</time>
      </trkpt>
      <trkpt lat="41.96241" lon="0.03365138">
        <time>2022-07-06T16:19:04Z</time>
      </trkpt>
      <trkpt lat="41.962376" lon="0.03375838">
        <time>2022-07-06T16:19:05Z</time>
      </trkpt>
      <trkpt lat="41.962345" lon="0.03386538">
        <time>2022-07-06T16:19:06Z</time>
      </trkpt>
      <trkpt lat="41.962315" lon="0.03397271">
        <time>2022-07-06T16:19:07Z</time>
      </trkpt>
      <trkpt lat="41.962284" lon="0.03408004">
        <time>2022-07-06T16:19:08Z</time>
      </trkpt>
      <trkpt lat="41.962254" lon="0.03418704">
        <time>2022-07-06T16:19:09Z</time>
      </trkpt>
      <trkpt lat="41.962223" lon="0.03429437">
        <time>2022-07-06T16:19:10Z</time>
      </trkpt>
      <trkpt lat="41.96219" lon="0.03440303">
        <time>2022-07-06T16:19:11Z</time>
      </trkpt>
      <trkpt lat="41.96216" lon="0.03451303">
        <time>2022-07-06T16:19:12Z</time>
      </trkpt>
      <trkpt lat="41.962128" lon="0.03462336">
        <time>2022-07-06T16:19:13Z</time>
      </trkpt>
      <trkpt lat="41.9621" lon="0.03473302">
        <time>2022-07-06T16:19:14Z</time>
      </trkpt>
      <trkpt lat="41.96207" lon="0.03484168">
        <time>2022-07-06T16:19:15Z</time>
      </trkpt>
      <trkpt lat="41.96204" lon="0.03495034">
        <time>2022-07-06T16:19:16Z</time>
      </trkpt>
      <trkpt lat="41.962006" lon="0.035057">
        <time>2022-07-06T16:19:17Z</time>
      </trkpt>
      <trkpt lat="41.961975" lon="0.03516333">
        <time>2022-07-06T16:19:18Z</time>
      </trkpt>
      <trkpt lat="41.961945" lon="0.03526933">
        <time>2022-07-06T16:19:19Z</time>
      </trkpt>
      <trkpt lat="41.961914" lon="0.03537366">
        <time>2022-07-06T16:19:20Z</time>
      </trkpt>
      <trkpt lat="41.961884" lon="0.03547899">
        <time>2022-07-06T16:19:21Z</time>
      </trkpt>
      <trkpt lat="41.961853" lon="0.03558299">
        <time>2022-07-06T16:19:22Z</time>
      </trkpt>
      <trkpt lat="41.961823" lon="0.03568565">
        <time>2022-07-06T16:19:23Z</time>
      </trkpt>
      <trkpt lat="41.961792" lon="0.03578731">
        <time>2022-07-06T16:19:24Z</time>
      </trkpt>
      <trkpt lat="41.96176" lon="0.03588797">
        <time>2022-07-06T16:19:25Z</time>
      </trkpt>
      <trkpt lat="41.96173" lon="0.03598897">
        <time>2022-07-06T16:19:26Z</time>
      </trkpt>
      <trkpt lat="41.9617" lon="0.0360913">
        <time>2022-07-06T16:19:27Z</time>
      </trkpt>
      <trkpt lat="41.961674" lon="0.0361953">
        <time>2022-07-06T16:19:28Z</time>
      </trkpt>
      <trkpt lat="41.961643" lon="0.0363003">
        <time>2022-07-06T16:19:29Z</time>
      </trkpt>
      <trkpt lat="41.961582" lon="0.03651563">
        <time>2022-07-06T16:19:31Z</time>
      </trkpt>
      <trkpt lat="41.961548" lon="0.03662496">
        <time>2022-07-06T16:19:32Z</time>
      </trkpt>
      <trkpt lat="41.961517" lon="0.03673629">
        <time>2022-07-06T16:19:33Z</time>
      </trkpt>
      <trkpt lat="41.961483" lon="0.03684829">
        <time>2022-07-06T16:19:34Z</time>
      </trkpt>
      <trkpt lat="41.96145" lon="0.03696195">
        <time>2022-07-06T16:19:35Z</time>
      </trkpt>
      <trkpt lat="41.961414" lon="0.03707628">
        <time>2022-07-06T16:19:36Z</time>
      </trkpt>
      <trkpt lat="41.96138" lon="0.03719161">
        <time>2022-07-06T16:19:37Z</time>
      </trkpt>
      <trkpt lat="41.961346" lon="0.03730794">
        <time>2022-07-06T16:19:38Z</time>
      </trkpt>
      <trkpt lat="41.96131" lon="0.03742494">
        <time>2022-07-06T16:19:39Z</time>
      </trkpt>
      <trkpt lat="41.961277" lon="0.03754327">
        <time>2022-07-06T16:19:40Z</time>
      </trkpt>
      <trkpt lat="41.961246" lon="0.03766293">
        <time>2022-07-06T16:19:41Z</time>
      </trkpt>
      <trkpt lat="41.961212" lon="0.03778193">
        <time>2022-07-06T16:19:42Z</time>
      </trkpt>
      <trkpt lat="41.961178" lon="0.03790126">
        <time>2022-07-06T16:19:43Z</time>
      </trkpt>
      <trkpt lat="41.961143" lon="0.03802092">
        <time>2022-07-06T16:19:44Z</time>
      </trkpt>
      <trkpt lat="41.96111" lon="0.03813858">
        <time>2022-07-06T16:19:45Z</time>
      </trkpt>
      <trkpt lat="41.961075" lon="0.03825458">
        <time>2022-07-06T16:19:46Z</time>
      </trkpt>
      <trkpt lat="41.96104" lon="0.03837091">
        <time>2022-07-06T16:19:47Z</time>
      </trkpt>
      <trkpt lat="41.96101" lon="0.03848691">
        <time>2022-07-06T16:19:48Z</time>
      </trkpt>
      <trkpt lat="41.960976" lon="0.03860124">
        <time>2022-07-06T16:19:49Z</time>
      </trkpt>
      <trkpt lat="41.960945" lon="0.03871557">
        <time>2022-07-06T16:19:50Z</time>
      </trkpt>
      <trkpt lat="41.96091" lon="0.03882923">
        <time>2022-07-06T16:19:51Z</time>
      </trkpt>
      <trkpt lat="41.96088" lon="0.03894256">
        <time>2022-07-06T16:19:52Z</time>
      </trkpt>
      <trkpt lat="41.960846" lon="0.03905422">
        <time>2022-07-06T16:19:53Z</time>
      </trkpt>
      <trkpt lat="41.960815" lon="0.03916455">
        <time>2022-07-06T16:19:54Z</time>
      </trkpt>
      <trkpt lat="41.96078" lon="0.03927388">
        <time>2022-07-06T16:19:55Z</time>
      </trkpt>
      <trkpt lat="41.96075" lon="0.03938221">
        <time>2022-07-06T16:19:56Z</time>
      </trkpt>
      <trkpt lat="41.96072" lon="0.03948987">
        <time>2022-07-06T16:19:57Z</time>
      </trkpt>
      <trkpt lat="41.96069" lon="0.03959787">
        <time>2022-07-06T16:19:58Z</time>
      </trkpt>
      <trkpt lat="41.960655" lon="0.03970553">
        <time>2022-07-06T16:19:59Z</time>
      </trkpt>
      <trkpt lat="41.960625" lon="0.03981286">
        <time>2022-07-06T16:20:00Z</time>
      </trkpt>
      <trkpt lat="41.960594" lon="0.03991986">
        <time>2022-07-06T16:20:01Z</time>
      </trkpt>
      <trkpt lat="41.960564" lon="0.04002586">
        <time>2022-07-06T16:20:02Z</time>
      </trkpt>
      <trkpt lat="41.96053" lon="0.04013086">
        <time>2022-07-06T16:20:03Z</time>
      </trkpt>
      <trkpt lat="41.9605" lon="0.04023619">
        <time>2022-07-06T16:20:04Z</time>
      </trkpt>
      <trkpt lat="41.96047" lon="0.04034185">
        <time>2022-07-06T16:20:05Z</time>
      </trkpt>
      <trkpt lat="41.960438" lon="0.04044585">
        <time>2022-07-06T16:20:06Z</time>
      </trkpt>
      <trkpt lat="41.960407" lon="0.04055018">
        <time>2022-07-06T16:20:07Z</time>
      </trkpt>
      <trkpt lat="41.960377" lon="0.04065451">
        <time>2022-07-06T16:20:08Z</time>
      </trkpt>
      <trkpt lat="41.96035" lon="0.04075751">
        <time>2022-07-06T16:20:09Z</time>
      </trkpt>
      <trkpt lat="41.96032" lon="0.04085984">
        <time>2022-07-06T16:20:10Z</time>
      </trkpt>
      <trkpt lat="41.96029" lon="0.04096184">
        <time>2022-07-06T16:20:11Z</time>
      </trkpt>
      <trkpt lat="41.960262" lon="0.04106317">
        <time>2022-07-06T16:20:12Z</time>
      </trkpt>
      <trkpt lat="41.96023" lon="0.0411625">
        <time>2022-07-06T16:20:13Z</time>
      </trkpt>
      <trkpt lat="41.9602" lon="0.04125983">
        <time>2022-07-06T16:20:14Z</time>
      </trkpt>
      <trkpt lat="41.960175" lon="0.04135683">
        <time>2022-07-06T16:20:15Z</time>
      </trkpt>
      <trkpt lat="41.960144" lon="0.04145383">
        <time>2022-07-06T16:20:16Z</time>
      </trkpt>
      <trkpt lat="41.960114" lon="0.04155016">
        <time>2022-07-06T16:20:17Z</time>
      </trkpt>
      <trkpt lat="41.960083" lon="0.04164682">
        <time>2022-07-06T16:20:18Z</time>
      </trkpt>
      <trkpt lat="41.960052" lon="0.04174315">
        <time>2022-07-06T16:20:19Z</time>
      </trkpt>
      <trkpt lat="41.960022" lon="0.04184015">
        <time>2022-07-06T16:20:20Z</time>
      </trkpt>
      <trkpt lat="41.959995" lon="0.04193781">
        <time>2022-07-06T16:20:21Z</time>
      </trkpt>
      <trkpt lat="41.95997" lon="0.04203514">
        <time>2022-07-06T16:20:22Z</time>
      </trkpt>
      <trkpt lat="41.95994" lon="0.04213147">
        <time>2022-07-06T16:20:23Z</time>
      </trkpt>
      <trkpt lat="41.959915" lon="0.04222713">
        <time>2022-07-06T16:20:24Z</time>
      </trkpt>
      <trkpt lat="41.95989" lon="0.04232213">
        <time>2022-07-06T16:20:25Z</time>
      </trkpt>
      <trkpt lat="41.959858" lon="0.04241813">
        <time>2022-07-06T16:20:26Z</time>
      </trkpt>
      <trkpt lat="41.95983" lon="0.04251346">
        <time>2022-07-06T16:20:27Z</time>
      </trkpt>
      <trkpt lat="41.959805" lon="0.04260879">
        <time>2022-07-06T16:20:28Z</time>
      </trkpt>
      <trkpt lat="41.959778" lon="0.04270412">
        <time>2022-07-06T16:20:29Z</time>
      </trkpt>
      <trkpt lat="41.95975" lon="0.04279878">
        <time>2022-07-06T16:20:30Z</time>
      </trkpt>
      <trkpt lat="41.959724" lon="0.04289244">
        <time>2022-07-06T16:20:31Z</time>
      </trkpt>
      <trkpt lat="41.95967" lon="0.04307744">
        <time>2022-07-06T16:20:33Z</time>
      </trkpt>
      <trkpt lat="41.959644" lon="0.0431681">
        <time>2022-07-06T16:20:34Z</time>
      </trkpt>
      <trkpt lat="41.959618" lon="0.04325776">
        <time>2022-07-06T16:20:35Z</time>
      </trkpt>
      <trkpt lat="41.95959" lon="0.04334609">
        <time>2022-07-06T16:20:36Z</time>
      </trkpt>
      <trkpt lat="41.95956" lon="0.04343475">
        <time>2022-07-06T16:20:37Z</time>
      </trkpt>
      <trkpt lat="41.959534" lon="0.04352308">
        <time>2022-07-06T16:20:38Z</time>
      </trkpt>
      <trkpt lat="41.959507" lon="0.04361141">
        <time>2022-07-06T16:20:39Z</time>
      </trkpt>
      <trkpt lat="41.959484" lon="0.04369907">
        <time>2022-07-06T16:20:40Z</time>
      </trkpt>
      <trkpt lat="41.959457" lon="0.04378607">
        <time>2022-07-06T16:20:41Z</time>
      </trkpt>
      <trkpt lat="41.95943" lon="0.0438724">
        <time>2022-07-06T16:20:42Z</time>
      </trkpt>
      <trkpt lat="41.959408" lon="0.0439584">
        <time>2022-07-06T16:20:43Z</time>
      </trkpt>
      <trkpt lat="41.959385" lon="0.0440434">
        <time>2022-07-06T16:20:44Z</time>
      </trkpt>
      <trkpt lat="41.959362" lon="0.04412773">
        <time>2022-07-06T16:20:45Z</time>
      </trkpt>
      <trkpt lat="41.959335" lon="0.04421139">
        <time>2022-07-06T16:20:46Z</time>
      </trkpt>
      <trkpt lat="41.959312" lon="0.04429439">
        <time>2022-07-06T16:20:47Z</time>
      </trkpt>
      <trkpt lat="41.95929" lon="0.04437739">
        <time>2022-07-06T16:20:48Z</time>
      </trkpt>
      <trkpt lat="41.959263" lon="0.04445939">
        <time>2022-07-06T16:20:49Z</time>
      </trkpt>
      <trkpt lat="41.95924" lon="0.04454172">
        <time>2022-07-06T16:20:50Z</time>
      </trkpt>
      <trkpt lat="41.959213" lon="0.04462505">
        <time>2022-07-06T16:20:51Z</time>
      </trkpt>
      <trkpt lat="41.95919" lon="0.04470838">
        <time>2022-07-06T16:20:52Z</time>
      </trkpt>
      <trkpt lat="41.959164" lon="0.04479238">
        <time>2022-07-06T16:20:53Z</time>
      </trkpt>
      <trkpt lat="41.95914" lon="0.04487604">
        <time>2022-07-06T16:20:54Z</time>
      </trkpt>
      <trkpt lat="41.959114" lon="0.04496004">
        <time>2022-07-06T16:20:55Z</time>
      </trkpt>
      <trkpt lat="41.959087" lon="0.0450447">
        <time>2022-07-06T16:20:56Z</time>
      </trkpt>
      <trkpt lat="41.959064" lon="0.04512903">
        <time>2022-07-06T16:20:57Z</time>
      </trkpt>
      <trkpt lat="41.959038" lon="0.04521436">
        <time>2022-07-06T16:20:58Z</time>
      </trkpt>
      <trkpt lat="41.959015" lon="0.04530069">
        <time>2022-07-06T16:20:59Z</time>
      </trkpt>
      <trkpt lat="41.95899" lon="0.04538835">
        <time>2022-07-06T16:21:00Z</time>
      </trkpt>
      <trkpt lat="41.958965" lon="0.04547535">
        <time>2022-07-06T16:21:01Z</time>
      </trkpt>
      <trkpt lat="41.958942" lon="0.04556301">
        <time>2022-07-06T16:21:02Z</time>
      </trkpt>
      <trkpt lat="41.958916" lon="0.04565034">
        <time>2022-07-06T16:21:03Z</time>
      </trkpt>
      <trkpt lat="41.958893" lon="0.04573634">
        <time>2022-07-06T16:21:04Z</time>
      </trkpt>
      <trkpt lat="41.958866" lon="0.04582234">
        <time>2022-07-06T16:21:05Z</time>
      </trkpt>
      <trkpt lat="41.958843" lon="0.04591">
        <time>2022-07-06T16:21:06Z</time>
      </trkpt>
      <trkpt lat="41.95882" lon="0.045997">
        <time>2022-07-06T16:21:07Z</time>
      </trkpt>
      <trkpt lat="41.958794" lon="0.04608366">
        <time>2022-07-06T16:21:08Z</time>
      </trkpt>
      <trkpt lat="41.958767" lon="0.04616899">
        <time>2022-07-06T16:21:09Z</time>
      </trkpt>
      <trkpt lat="41.958744" lon="0.04625365">
        <time>2022-07-06T16:21:10Z</time>
      </trkpt>
      <trkpt lat="41.958717" lon="0.04633765">
        <time>2022-07-06T16:21:11Z</time>
      </trkpt>
      <trkpt lat="41.95869" lon="0.04642098">
        <time>2022-07-06T16:21:12Z</time>
      </trkpt>
      <trkpt lat="41.958664" lon="0.04650464">
        <time>2022-07-06T16:21:13Z</time>
      </trkpt>
      <trkpt lat="41.958637" lon="0.04658764">
        <time>2022-07-06T16:21:14Z</time>
      </trkpt>
      <trkpt lat="41.958614" lon="0.0466713">
        <time>2022-07-06T16:21:15Z</time>
      </trkpt>
      <trkpt lat="41.95859" lon="0.04675463">
        <time>2022-07-06T16:21:16Z</time>
      </trkpt>
      <trkpt lat="41.958565" lon="0.04683863">
        <time>2022-07-06T16:21:17Z</time>
      </trkpt>
      <trkpt lat="41.95854" lon="0.04692229">
        <time>2022-07-06T16:21:18Z</time>
      </trkpt>
      <trkpt lat="41.95852" lon="0.04700595">
        <time>2022-07-06T16:21:19Z</time>
      </trkpt>
      <trkpt lat="41.958492" lon="0.04708961">
        <time>2022-07-06T16:21:20Z</time>
      </trkpt>
      <trkpt lat="41.95847" lon="0.04717294">
        <time>2022-07-06T16:21:21Z</time>
      </trkpt>
      <trkpt lat="41.958443" lon="0.04725527">
        <time>2022-07-06T16:21:22Z</time>
      </trkpt>
      <trkpt lat="41.95842" lon="0.0473376">
        <time>2022-07-06T16:21:23Z</time>
      </trkpt>
      <trkpt lat="41.958393" lon="0.04741993">
        <time>2022-07-06T16:21:24Z</time>
      </trkpt>
      <trkpt lat="41.95837" lon="0.04750326">
        <time>2022-07-06T16:21:25Z</time>
      </trkpt>
      <trkpt lat="41.958347" lon="0.04758626">
        <time>2022-07-06T16:21:26Z</time>
      </trkpt>
      <trkpt lat="41.95832" lon="0.04766859">
        <time>2022-07-06T16:21:27Z</time>
      </trkpt>
      <trkpt lat="41.958298" lon="0.04775059">
        <time>2022-07-06T16:21:28Z</time>
      </trkpt>
      <trkpt lat="41.958275" lon="0.04783259">
        <time>2022-07-06T16:21:29Z</time>
      </trkpt>
      <trkpt lat="41.958252" lon="0.04791459">
        <time>2022-07-06T16:21:30Z</time>
      </trkpt>
      <trkpt lat="41.958225" lon="0.04799625">
        <time>2022-07-06T16:21:31Z</time>
      </trkpt>
      <trkpt lat="41.958202" lon="0.04807758">
        <time>2022-07-06T16:21:32Z</time>
      </trkpt>
      <trkpt lat="41.95818" lon="0.04815891">
        <time>2022-07-06T16:21:33Z</time>
      </trkpt>
      <trkpt lat="41.958153" lon="0.04824057">
        <time>2022-07-06T16:21:34Z</time>
      </trkpt>
      <trkpt lat="41.95813" lon="0.0483229">
        <time>2022-07-06T16:21:35Z</time>
      </trkpt>
      <trkpt lat="41.958084" lon="0.0484929">
        <time>2022-07-06T16:21:37Z</time>
      </trkpt>
      <trkpt lat="41.958057" lon="0.0485779">
        <time>2022-07-06T16:21:38Z</time>
      </trkpt>
      <trkpt lat="41.958008" lon="0.04875123">
        <time>2022-07-06T16:21:40Z</time>
      </trkpt>
      <trkpt lat="41.95798" lon="0.04883456">
        <time>2022-07-06T16:21:41Z</time>
      </trkpt>
      <trkpt lat="41.957954" lon="0.04891956">
        <time>2022-07-06T16:21:42Z</time>
      </trkpt>
      <trkpt lat="41.957928" lon="0.04900656">
        <time>2022-07-06T16:21:43Z</time>
      </trkpt>
      <trkpt lat="41.957905" lon="0.04909422">
        <time>2022-07-06T16:21:44Z</time>
      </trkpt>
      <trkpt lat="41.957882" lon="0.04918255">
        <time>2022-07-06T16:21:45Z</time>
      </trkpt>
      <trkpt lat="41.95786" lon="0.04927288">
        <time>2022-07-06T16:21:46Z</time>
      </trkpt>
      <trkpt lat="41.957832" lon="0.04936221">
        <time>2022-07-06T16:21:47Z</time>
      </trkpt>
      <trkpt lat="41.957806" lon="0.04945154">
        <time>2022-07-06T16:21:48Z</time>
      </trkpt>
      <trkpt lat="41.957783" lon="0.0495402">
        <time>2022-07-06T16:21:49Z</time>
      </trkpt>
      <trkpt lat="41.957756" lon="0.04962886">
        <time>2022-07-06T16:21:50Z</time>
      </trkpt>
      <trkpt lat="41.957726" lon="0.04971686">
        <time>2022-07-06T16:21:51Z</time>
      </trkpt>
      <trkpt lat="41.9577" lon="0.04980519">
        <time>2022-07-06T16:21:52Z</time>
      </trkpt>
      <trkpt lat="41.957672" lon="0.04989319">
        <time>2022-07-06T16:21:53Z</time>
      </trkpt>
      <trkpt lat="41.957645" lon="0.04998385">
        <time>2022-07-06T16:21:54Z</time>
      </trkpt>
      <trkpt lat="41.95762" lon="0.05007518">
        <time>2022-07-06T16:21:55Z</time>
      </trkpt>
      <trkpt lat="41.957592" lon="0.05016751">
        <time>2022-07-06T16:21:56Z</time>
      </trkpt>
      <trkpt lat="41.957565" lon="0.05026084">
        <time>2022-07-06T16:21:57Z</time>
      </trkpt>
      <trkpt lat="41.95754" lon="0.0503555">
        <time>2022-07-06T16:21:58Z</time>
      </trkpt>
      <trkpt lat="41.957508" lon="0.05045016">
        <time>2022-07-06T16:21:59Z</time>
      </trkpt>
      <trkpt lat="41.95748" lon="0.05054682">
        <time>2022-07-06T16:22:00Z</time>
      </trkpt>
      <trkpt lat="41.957455" lon="0.05064548">
        <time>2022-07-06T16:22:01Z</time>
      </trkpt>
      <trkpt lat="41.957424" lon="0.05074514">
        <time>2022-07-06T16:22:02Z</time>
      </trkpt>
      <trkpt lat="41.957394" lon="0.0508458">
        <time>2022-07-06T16:22:03Z</time>
      </trkpt>
      <trkpt lat="41.957363" lon="0.05094613">
        <time>2022-07-06T16:22:04Z</time>
      </trkpt>
      <trkpt lat="41.957333" lon="0.05104779">
        <time>2022-07-06T16:22:05Z</time>
      </trkpt>
      <trkpt lat="41.9573" lon="0.05114979">
        <time>2022-07-06T16:22:06Z</time>
      </trkpt>
      <trkpt lat="41.957268" lon="0.05125212">
        <time>2022-07-06T16:22:07Z</time>
      </trkpt>
      <trkpt lat="41.957237" lon="0.05135512">
        <time>2022-07-06T16:22:08Z</time>
      </trkpt>
      <trkpt lat="41.957203" lon="0.05145845">
        <time>2022-07-06T16:22:09Z</time>
      </trkpt>
      <trkpt lat="41.957172" lon="0.05156245">
        <time>2022-07-06T16:22:10Z</time>
      </trkpt>
      <trkpt lat="41.95714" lon="0.05166678">
        <time>2022-07-06T16:22:11Z</time>
      </trkpt>
      <trkpt lat="41.957108" lon="0.05177178">
        <time>2022-07-06T16:22:12Z</time>
      </trkpt>
      <trkpt lat="41.957077" lon="0.05187644">
        <time>2022-07-06T16:22:13Z</time>
      </trkpt>
      <trkpt lat="41.957047" lon="0.05197944">
        <time>2022-07-06T16:22:14Z</time>
      </trkpt>
      <trkpt lat="41.957016" lon="0.0520821">
        <time>2022-07-06T16:22:15Z</time>
      </trkpt>
      <trkpt lat="41.956985" lon="0.05218476">
        <time>2022-07-06T16:22:16Z</time>
      </trkpt>
      <trkpt lat="41.956955" lon="0.05228742">
        <time>2022-07-06T16:22:17Z</time>
      </trkpt>
      <trkpt lat="41.956924" lon="0.05239008">
        <time>2022-07-06T16:22:18Z</time>
      </trkpt>
      <trkpt lat="41.956894" lon="0.05249308">
        <time>2022-07-06T16:22:19Z</time>
      </trkpt>
      <trkpt lat="41.956863" lon="0.05259641">
        <time>2022-07-06T16:22:20Z</time>
      </trkpt>
      <trkpt lat="41.956833" lon="0.05270074">
        <time>2022-07-06T16:22:21Z</time>
      </trkpt>
      <trkpt lat="41.956802" lon="0.05280374">
        <time>2022-07-06T16:22:22Z</time>
      </trkpt>
      <trkpt lat="41.95677" lon="0.05290707">
        <time>2022-07-06T16:22:23Z</time>
      </trkpt>
      <trkpt lat="41.956745" lon="0.05301107">
        <time>2022-07-06T16:22:24Z</time>
      </trkpt>
      <trkpt lat="41.956715" lon="0.05311473">
        <time>2022-07-06T16:22:25Z</time>
      </trkpt>
      <trkpt lat="41.956684" lon="0.05321773">
        <time>2022-07-06T16:22:26Z</time>
      </trkpt>
      <trkpt lat="41.956654" lon="0.05331973">
        <time>2022-07-06T16:22:27Z</time>
      </trkpt>
      <trkpt lat="41.956623" lon="0.05342173">
        <time>2022-07-06T16:22:28Z</time>
      </trkpt>
      <trkpt lat="41.956593" lon="0.05352239">
        <time>2022-07-06T16:22:29Z</time>
      </trkpt>
      <trkpt lat="41.956566" lon="0.05362172">
        <time>2022-07-06T16:22:30Z</time>
      </trkpt>
      <trkpt lat="41.956535" lon="0.05372038">
        <time>2022-07-06T16:22:31Z</time>
      </trkpt>
      <trkpt lat="41.956505" lon="0.05381771">
        <time>2022-07-06T16:22:32Z</time>
      </trkpt>
      <trkpt lat="41.95648" lon="0.05391537">
        <time>2022-07-06T16:22:33Z</time>
      </trkpt>
      <trkpt lat="41.956448" lon="0.05401203">
        <time>2022-07-06T16:22:34Z</time>
      </trkpt>
      <trkpt lat="41.95642" lon="0.05411003">
        <time>2022-07-06T16:22:35Z</time>
      </trkpt>
      <trkpt lat="41.956394" lon="0.05420869">
        <time>2022-07-06T16:22:36Z</time>
      </trkpt>
      <trkpt lat="41.956364" lon="0.05430702">
        <time>2022-07-06T16:22:37Z</time>
      </trkpt>
      <trkpt lat="41.956337" lon="0.05440535">
        <time>2022-07-06T16:22:38Z</time>
      </trkpt>
      <trkpt lat="41.956306" lon="0.05450368">
        <time>2022-07-06T16:22:39Z</time>
      </trkpt>
      <trkpt lat="41.95628" lon="0.05460234">
        <time>2022-07-06T16:22:40Z</time>
      </trkpt>
      <trkpt lat="41.956253" lon="0.05469467">
        <time>2022-07-06T16:22:41Z</time>
      </trkpt>
      <trkpt lat="41.956223" lon="0.054789">
        <time>2022-07-06T16:22:42Z</time>
      </trkpt>
      <trkpt lat="41.956192" lon="0.05489066">
        <time>2022-07-06T16:22:43Z</time>
      </trkpt>
      <trkpt lat="41.956165" lon="0.05499066">
        <time>2022-07-06T16:22:44Z</time>
      </trkpt>
      <trkpt lat="41.95611" lon="0.05518399">
        <time>2022-07-06T16:22:46Z</time>
      </trkpt>
      <trkpt lat="41.95608" lon="0.05528132">
        <time>2022-07-06T16:22:47Z</time>
      </trkpt>
      <trkpt lat="41.956055" lon="0.05538032">
        <time>2022-07-06T16:22:48Z</time>
      </trkpt>
      <trkpt lat="41.956024" lon="0.05548598">
        <time>2022-07-06T16:22:49Z</time>
      </trkpt>
      <trkpt lat="41.955994" lon="0.05558898">
        <time>2022-07-06T16:22:50Z</time>
      </trkpt>
      <trkpt lat="41.955967" lon="0.05568398">
        <time>2022-07-06T16:22:51Z</time>
      </trkpt>
      <trkpt lat="41.95594" lon="0.05578064">
        <time>2022-07-06T16:22:52Z</time>
      </trkpt>
      <trkpt lat="41.95591" lon="0.05587864">
        <time>2022-07-06T16:22:53Z</time>
      </trkpt>
      <trkpt lat="41.95588" lon="0.05598297">
        <time>2022-07-06T16:22:54Z</time>
      </trkpt>
      <trkpt lat="41.95585" lon="0.05608597">
        <time>2022-07-06T16:22:55Z</time>
      </trkpt>
      <trkpt lat="41.95582" lon="0.05618263">
        <time>2022-07-06T16:22:56Z</time>
      </trkpt>
      <trkpt lat="41.955788" lon="0.05628063">
        <time>2022-07-06T16:22:57Z</time>
      </trkpt>
      <trkpt lat="41.95576" lon="0.05637963">
        <time>2022-07-06T16:22:58Z</time>
      </trkpt>
      <trkpt lat="41.95573" lon="0.05648629">
        <time>2022-07-06T16:22:59Z</time>
      </trkpt>
      <trkpt lat="41.955704" lon="0.05658495">
        <time>2022-07-06T16:23:00Z</time>
      </trkpt>
      <trkpt lat="41.955673" lon="0.05669128">
        <time>2022-07-06T16:23:01Z</time>
      </trkpt>
      <trkpt lat="41.955643" lon="0.05678894">
        <time>2022-07-06T16:23:02Z</time>
      </trkpt>
      <trkpt lat="41.955616" lon="0.05688727">
        <time>2022-07-06T16:23:03Z</time>
      </trkpt>
      <trkpt lat="41.955585" lon="0.05699193">
        <time>2022-07-06T16:23:04Z</time>
      </trkpt>
      <trkpt lat="41.95556" lon="0.05709593">
        <time>2022-07-06T16:23:05Z</time>
      </trkpt>
      <trkpt lat="41.955532" lon="0.05719259">
        <time>2022-07-06T16:23:06Z</time>
      </trkpt>
      <trkpt lat="41.955505" lon="0.05729125">
        <time>2022-07-06T16:23:07Z</time>
      </trkpt>
      <trkpt lat="41.955475" lon="0.05739058">
        <time>2022-07-06T16:23:08Z</time>
      </trkpt>
      <trkpt lat="41.955444" lon="0.05749491">
        <time>2022-07-06T16:23:09Z</time>
      </trkpt>
      <trkpt lat="41.955414" lon="0.05759657">
        <time>2022-07-06T16:23:10Z</time>
      </trkpt>
      <trkpt lat="41.955383" lon="0.0576969">
        <time>2022-07-06T16:23:11Z</time>
      </trkpt>
      <trkpt lat="41.955353" lon="0.0577969">
        <time>2022-07-06T16:23:12Z</time>
      </trkpt>
      <trkpt lat="41.955326" lon="0.0578959">
        <time>2022-07-06T16:23:13Z</time>
      </trkpt>
      <trkpt lat="41.955296" lon="0.05799523">
        <time>2022-07-06T16:23:14Z</time>
      </trkpt>
      <trkpt lat="41.955265" lon="0.05809423">
        <time>2022-07-06T16:23:15Z</time>
      </trkpt>
      <trkpt lat="41.955235" lon="0.05819356">
        <time>2022-07-06T16:23:16Z</time>
      </trkpt>
      <trkpt lat="41.955208" lon="0.05829422">
        <time>2022-07-06T16:23:17Z</time>
      </trkpt>
      <trkpt lat="41.955177" lon="0.05839455">
        <time>2022-07-06T16:23:18Z</time>
      </trkpt>
      <trkpt lat="41.95515" lon="0.05849421">
        <time>2022-07-06T16:23:19Z</time>
      </trkpt>
      <trkpt lat="41.95509" lon="0.05869354">
        <time>2022-07-06T16:23:21Z</time>
      </trkpt>
      <trkpt lat="41.955063" lon="0.05879287">
        <time>2022-07-06T16:23:22Z</time>
      </trkpt>
      <trkpt lat="41.955032" lon="0.05889253">
        <time>2022-07-06T16:23:23Z</time>
      </trkpt>
      <trkpt lat="41.955" lon="0.05899086">
        <time>2022-07-06T16:23:24Z</time>
      </trkpt>
      <trkpt lat="41.95497" lon="0.05908952">
        <time>2022-07-06T16:23:25Z</time>
      </trkpt>
      <trkpt lat="41.95494" lon="0.05918885">
        <time>2022-07-06T16:23:26Z</time>
      </trkpt>
      <trkpt lat="41.95491" lon="0.05928885">
        <time>2022-07-06T16:23:27Z</time>
      </trkpt>
      <trkpt lat="41.954884" lon="0.05938985">
        <time>2022-07-06T16:23:28Z</time>
      </trkpt>
      <trkpt lat="41.954853" lon="0.05949151">
        <time>2022-07-06T16:23:29Z</time>
      </trkpt>
      <trkpt lat="41.954826" lon="0.05959351">
        <time>2022-07-06T16:23:30Z</time>
      </trkpt>
      <trkpt lat="41.954792" lon="0.05970117">
        <time>2022-07-06T16:23:31Z</time>
      </trkpt>
      <trkpt lat="41.954765" lon="0.05979983">
        <time>2022-07-06T16:23:32Z</time>
      </trkpt>
      <trkpt lat="41.954735" lon="0.05989883">
        <time>2022-07-06T16:23:33Z</time>
      </trkpt>
      <trkpt lat="41.954704" lon="0.05999949">
        <time>2022-07-06T16:23:34Z</time>
      </trkpt>
      <trkpt lat="41.954678" lon="0.06010149">
        <time>2022-07-06T16:23:35Z</time>
      </trkpt>
      <trkpt lat="41.954647" lon="0.06020415">
        <time>2022-07-06T16:23:36Z</time>
      </trkpt>
      <trkpt lat="41.95462" lon="0.06030081">
        <time>2022-07-06T16:23:37Z</time>
      </trkpt>
      <trkpt lat="41.95459" lon="0.06039947">
        <time>2022-07-06T16:23:38Z</time>
      </trkpt>
      <trkpt lat="41.95456" lon="0.06050813">
        <time>2022-07-06T16:23:39Z</time>
      </trkpt>
      <trkpt lat="41.95453" lon="0.06061546">
        <time>2022-07-06T16:23:40Z</time>
      </trkpt>
      <trkpt lat="41.9545" lon="0.06072179">
        <time>2022-07-06T16:23:41Z</time>
      </trkpt>
      <trkpt lat="41.954468" lon="0.06082779">
        <time>2022-07-06T16:23:42Z</time>
      </trkpt>
      <trkpt lat="41.954437" lon="0.06093379">
        <time>2022-07-06T16:23:43Z</time>
      </trkpt>
      <trkpt lat="41.954407" lon="0.06103845">
        <time>2022-07-06T16:23:44Z</time>
      </trkpt>
      <trkpt lat="41.954372" lon="0.06114345">
        <time>2022-07-06T16:23:45Z</time>
      </trkpt>
      <trkpt lat="41.95434" lon="0.06124845">
        <time>2022-07-06T16:23:46Z</time>
      </trkpt>
      <trkpt lat="41.95431" lon="0.06135245">
        <time>2022-07-06T16:23:47Z</time>
      </trkpt>
      <trkpt lat="41.95428" lon="0.06145545">
        <time>2022-07-06T16:23:48Z</time>
      </trkpt>
      <trkpt lat="41.95425" lon="0.06155778">
        <time>2022-07-06T16:23:49Z</time>
      </trkpt>
      <trkpt lat="41.95422" lon="0.06165911">
        <time>2022-07-06T16:23:50Z</time>
      </trkpt>
      <trkpt lat="41.954193" lon="0.06175944">
        <time>2022-07-06T16:23:51Z</time>
      </trkpt>
      <trkpt lat="41.954163" lon="0.0618591">
        <time>2022-07-06T16:23:52Z</time>
      </trkpt>
      <trkpt lat="41.954132" lon="0.06195743">
        <time>2022-07-06T16:23:53Z</time>
      </trkpt>
      <trkpt lat="41.954105" lon="0.06205443">
        <time>2022-07-06T16:23:54Z</time>
      </trkpt>
      <trkpt lat="41.95408" lon="0.06215109">
        <time>2022-07-06T16:23:55Z</time>
      </trkpt>
      <trkpt lat="41.954052" lon="0.06224642">
        <time>2022-07-06T16:23:56Z</time>
      </trkpt>
      <trkpt lat="41.95402" lon="0.06234108">
        <time>2022-07-06T16:23:57Z</time>
      </trkpt>
      <trkpt lat="41.953995" lon="0.06243441">
        <time>2022-07-06T16:23:58Z</time>
      </trkpt>
      <trkpt lat="41.953968" lon="0.06252641">
        <time>2022-07-06T16:23:59Z</time>
      </trkpt>
      <trkpt lat="41.953938" lon="0.06261774">
        <time>2022-07-06T16:24:00Z</time>
      </trkpt>
      <trkpt lat="41.95391" lon="0.0627094">
        <time>2022-07-06T16:24:01Z</time>
      </trkpt>
      <trkpt lat="41.953884" lon="0.0628004">
        <time>2022-07-06T16:24:02Z</time>
      </trkpt>
      <trkpt lat="41.953857" lon="0.06288606">
        <time>2022-07-06T16:24:03Z</time>
      </trkpt>
      <trkpt lat="41.95383" lon="0.06297539">
        <time>2022-07-06T16:24:04Z</time>
      </trkpt>
      <trkpt lat="41.953804" lon="0.06307205">
        <time>2022-07-06T16:24:05Z</time>
      </trkpt>
      <trkpt lat="41.953773" lon="0.06316171">
        <time>2022-07-06T16:24:06Z</time>
      </trkpt>
      <trkpt lat="41.953747" lon="0.06325304">
        <time>2022-07-06T16:24:07Z</time>
      </trkpt>
      <trkpt lat="41.95372" lon="0.06334504">
        <time>2022-07-06T16:24:08Z</time>
      </trkpt>
      <trkpt lat="41.95369" lon="0.06343804">
        <time>2022-07-06T16:24:09Z</time>
      </trkpt>
      <trkpt lat="41.95366" lon="0.06353804">
        <time>2022-07-06T16:24:10Z</time>
      </trkpt>
      <trkpt lat="41.953632" lon="0.0636307">
        <time>2022-07-06T16:24:11Z</time>
      </trkpt>
      <trkpt lat="41.953606" lon="0.06372336">
        <time>2022-07-06T16:24:12Z</time>
      </trkpt>
      <trkpt lat="41.953575" lon="0.06382169">
        <time>2022-07-06T16:24:13Z</time>
      </trkpt>
      <trkpt lat="41.95355" lon="0.06391735">
        <time>2022-07-06T16:24:14Z</time>
      </trkpt>
      <trkpt lat="41.95352" lon="0.06401168">
        <time>2022-07-06T16:24:15Z</time>
      </trkpt>
      <trkpt lat="41.953495" lon="0.06410534">
        <time>2022-07-06T16:24:16Z</time>
      </trkpt>
      <trkpt lat="41.95347" lon="0.064198">
        <time>2022-07-06T16:24:17Z</time>
      </trkpt>
      <trkpt lat="41.953445" lon="0.06429066">
        <time>2022-07-06T16:24:18Z</time>
      </trkpt>
      <trkpt lat="41.95342" lon="0.06438332">
        <time>2022-07-06T16:24:19Z</time>
      </trkpt>
      <trkpt lat="41.953392" lon="0.06447698">
        <time>2022-07-06T16:24:20Z</time>
      </trkpt>
      <trkpt lat="41.953365" lon="0.06457098">
        <time>2022-07-06T16:24:21Z</time>
      </trkpt>
      <trkpt lat="41.953335" lon="0.06466398">
        <time>2022-07-06T16:24:22Z</time>
      </trkpt>
      <trkpt lat="41.95331" lon="0.06475664">
        <time>2022-07-06T16:24:23Z</time>
      </trkpt>
      <trkpt lat="41.95328" lon="0.06484964">
        <time>2022-07-06T16:24:24Z</time>
      </trkpt>
      <trkpt lat="41.953255" lon="0.06494264">
        <time>2022-07-06T16:24:25Z</time>
      </trkpt>
      <trkpt lat="41.953228" lon="0.0650363">
        <time>2022-07-06T16:24:26Z</time>
      </trkpt>
      <trkpt lat="41.9532" lon="0.06512996">
        <time>2022-07-06T16:24:27Z</time>
      </trkpt>
      <trkpt lat="41.953175" lon="0.06521762">
        <time>2022-07-06T16:24:28Z</time>
      </trkpt>
      <trkpt lat="41.953144" lon="0.06531195">
        <time>2022-07-06T16:24:29Z</time>
      </trkpt>
      <trkpt lat="41.953114" lon="0.06540528">
        <time>2022-07-06T16:24:30Z</time>
      </trkpt>
      <trkpt lat="41.953087" lon="0.06549928">
        <time>2022-07-06T16:24:31Z</time>
      </trkpt>
      <trkpt lat="41.95306" lon="0.06559294">
        <time>2022-07-06T16:24:32Z</time>
      </trkpt>
      <trkpt lat="41.953033" lon="0.0656856">
        <time>2022-07-06T16:24:33Z</time>
      </trkpt>
      <trkpt lat="41.953007" lon="0.06577726">
        <time>2022-07-06T16:24:34Z</time>
      </trkpt>
      <trkpt lat="41.95298" lon="0.06586826">
        <time>2022-07-06T16:24:35Z</time>
      </trkpt>
      <trkpt lat="41.95293" lon="0.06604759">
        <time>2022-07-06T16:24:37Z</time>
      </trkpt>
      <trkpt lat="41.952904" lon="0.06613692">
        <time>2022-07-06T16:24:38Z</time>
      </trkpt>
      <trkpt lat="41.952877" lon="0.06622725">
        <time>2022-07-06T16:24:39Z</time>
      </trkpt>
      <trkpt lat="41.95285" lon="0.06631825">
        <time>2022-07-06T16:24:40Z</time>
      </trkpt>
      <trkpt lat="41.952824" lon="0.06641025">
        <time>2022-07-06T16:24:41Z</time>
      </trkpt>
      <trkpt lat="41.952797" lon="0.06650258">
        <time>2022-07-06T16:24:42Z</time>
      </trkpt>
      <trkpt lat="41.95277" lon="0.06659558">
        <time>2022-07-06T16:24:43Z</time>
      </trkpt>
      <trkpt lat="41.952747" lon="0.06668891">
        <time>2022-07-06T16:24:44Z</time>
      </trkpt>
      <trkpt lat="41.95272" lon="0.06678157">
        <time>2022-07-06T16:24:45Z</time>
      </trkpt>
      <trkpt lat="41.952694" lon="0.0668739">
        <time>2022-07-06T16:24:46Z</time>
      </trkpt>
      <trkpt lat="41.952667" lon="0.06696623">
        <time>2022-07-06T16:24:47Z</time>
      </trkpt>
      <trkpt lat="41.95264" lon="0.06705823">
        <time>2022-07-06T16:24:48Z</time>
      </trkpt>
      <trkpt lat="41.95261" lon="0.06715123">
        <time>2022-07-06T16:24:49Z</time>
      </trkpt>
      <trkpt lat="41.952583" lon="0.06724423">
        <time>2022-07-06T16:24:50Z</time>
      </trkpt>
      <trkpt lat="41.952553" lon="0.06733789">
        <time>2022-07-06T16:24:51Z</time>
      </trkpt>
      <trkpt lat="41.952526" lon="0.06743222">
        <time>2022-07-06T16:24:52Z</time>
      </trkpt>
      <trkpt lat="41.952496" lon="0.06752655">
        <time>2022-07-06T16:24:53Z</time>
      </trkpt>
      <trkpt lat="41.95247" lon="0.06761955">
        <time>2022-07-06T16:24:54Z</time>
      </trkpt>
      <trkpt lat="41.952442" lon="0.06771321">
        <time>2022-07-06T16:24:55Z</time>
      </trkpt>
      <trkpt lat="41.95241" lon="0.06780721">
        <time>2022-07-06T16:24:56Z</time>
      </trkpt>
      <trkpt lat="41.952385" lon="0.06790154">
        <time>2022-07-06T16:24:57Z</time>
      </trkpt>
      <trkpt lat="41.95236" lon="0.06799554">
        <time>2022-07-06T16:24:58Z</time>
      </trkpt>
      <trkpt lat="41.952328" lon="0.06808954">
        <time>2022-07-06T16:24:59Z</time>
      </trkpt>
      <trkpt lat="41.9523" lon="0.0681832">
        <time>2022-07-06T16:25:00Z</time>
      </trkpt>
      <trkpt lat="41.952274" lon="0.06827786">
        <time>2022-07-06T16:25:01Z</time>
      </trkpt>
      <trkpt lat="41.952248" lon="0.06837252">
        <time>2022-07-06T16:25:02Z</time>
      </trkpt>
      <trkpt lat="41.95222" lon="0.06846718">
        <time>2022-07-06T16:25:03Z</time>
      </trkpt>
      <trkpt lat="41.952194" lon="0.06856118">
        <time>2022-07-06T16:25:04Z</time>
      </trkpt>
      <trkpt lat="41.952164" lon="0.06865418">
        <time>2022-07-06T16:25:05Z</time>
      </trkpt>
      <trkpt lat="41.952133" lon="0.06874751">
        <time>2022-07-06T16:25:06Z</time>
      </trkpt>
      <trkpt lat="41.952103" lon="0.06884017">
        <time>2022-07-06T16:25:07Z</time>
      </trkpt>
      <trkpt lat="41.952076" lon="0.0689335">
        <time>2022-07-06T16:25:08Z</time>
      </trkpt>
      <trkpt lat="41.952045" lon="0.0690275">
        <time>2022-07-06T16:25:09Z</time>
      </trkpt>
      <trkpt lat="41.95202" lon="0.06912116">
        <time>2022-07-06T16:25:10Z</time>
      </trkpt>
      <trkpt lat="41.951992" lon="0.06921582">
        <time>2022-07-06T16:25:11Z</time>
      </trkpt>
      <trkpt lat="41.951965" lon="0.06931015">
        <time>2022-07-06T16:25:12Z</time>
      </trkpt>
      <trkpt lat="41.95194" lon="0.06940415">
        <time>2022-07-06T16:25:13Z</time>
      </trkpt>
      <trkpt lat="41.95191" lon="0.06949681">
        <time>2022-07-06T16:25:14Z</time>
      </trkpt>
      <trkpt lat="41.951885" lon="0.06959014">
        <time>2022-07-06T16:25:15Z</time>
      </trkpt>
      <trkpt lat="41.95186" lon="0.06968414">
        <time>2022-07-06T16:25:16Z</time>
      </trkpt>
      <trkpt lat="41.95183" lon="0.06977847">
        <time>2022-07-06T16:25:17Z</time>
      </trkpt>
      <trkpt lat="41.95181" lon="0.0698728">
        <time>2022-07-06T16:25:18Z</time>
      </trkpt>
      <trkpt lat="41.951782" lon="0.06996646">
        <time>2022-07-06T16:25:19Z</time>
      </trkpt>
      <trkpt lat="41.951756" lon="0.07005879">
        <time>2022-07-06T16:25:20Z</time>
      </trkpt>
      <trkpt lat="41.95173" lon="0.07015045">
        <time>2022-07-06T16:25:21Z</time>
      </trkpt>
      <trkpt lat="41.951702" lon="0.07024145">
        <time>2022-07-06T16:25:22Z</time>
      </trkpt>
      <trkpt lat="41.951675" lon="0.07033178">
        <time>2022-07-06T16:25:23Z</time>
      </trkpt>
      <trkpt lat="41.95165" lon="0.07042311">
        <time>2022-07-06T16:25:24Z</time>
      </trkpt>
      <trkpt lat="41.951622" lon="0.07051477">
        <time>2022-07-06T16:25:25Z</time>
      </trkpt>
      <trkpt lat="41.9516" lon="0.07060743">
        <time>2022-07-06T16:25:26Z</time>
      </trkpt>
      <trkpt lat="41.951572" lon="0.07069876">
        <time>2022-07-06T16:25:27Z</time>
      </trkpt>
      <trkpt lat="41.951546" lon="0.07078442">
        <time>2022-07-06T16:25:28Z</time>
      </trkpt>
      <trkpt lat="41.951523" lon="0.07087208">
        <time>2022-07-06T16:25:29Z</time>
      </trkpt>
      <trkpt lat="41.951492" lon="0.07096641">
        <time>2022-07-06T16:25:30Z</time>
      </trkpt>
      <trkpt lat="41.951466" lon="0.07105407">
        <time>2022-07-06T16:25:31Z</time>
      </trkpt>
      <trkpt lat="41.95144" lon="0.07114273">
        <time>2022-07-06T16:25:32Z</time>
      </trkpt>
      <trkpt lat="41.95141" lon="0.07123373">
        <time>2022-07-06T16:25:33Z</time>
      </trkpt>
      <trkpt lat="41.95138" lon="0.07133139">
        <time>2022-07-06T16:25:34Z</time>
      </trkpt>
      <trkpt lat="41.951355" lon="0.07142772">
        <time>2022-07-06T16:25:35Z</time>
      </trkpt>
      <trkpt lat="41.95133" lon="0.07152238">
        <time>2022-07-06T16:25:36Z</time>
      </trkpt>
      <trkpt lat="41.9513" lon="0.07161671">
        <time>2022-07-06T16:25:37Z</time>
      </trkpt>
      <trkpt lat="41.951275" lon="0.07171004">
        <time>2022-07-06T16:25:38Z</time>
      </trkpt>
      <trkpt lat="41.951252" lon="0.07179637">
        <time>2022-07-06T16:25:39Z</time>
      </trkpt>
      <trkpt lat="41.95122" lon="0.0718897">
        <time>2022-07-06T16:25:40Z</time>
      </trkpt>
      <trkpt lat="41.951195" lon="0.0719777">
        <time>2022-07-06T16:25:41Z</time>
      </trkpt>
      <trkpt lat="41.951168" lon="0.07206703">
        <time>2022-07-06T16:25:42Z</time>
      </trkpt>
      <trkpt lat="41.95114" lon="0.07215703">
        <time>2022-07-06T16:25:43Z</time>
      </trkpt>
      <trkpt lat="41.951115" lon="0.07224636">
        <time>2022-07-06T16:25:44Z</time>
      </trkpt>
      <trkpt lat="41.951088" lon="0.07234202">
        <time>2022-07-06T16:25:45Z</time>
      </trkpt>
      <trkpt lat="41.95106" lon="0.07242935">
        <time>2022-07-06T16:25:46Z</time>
      </trkpt>
      <trkpt lat="41.951035" lon="0.07251768">
        <time>2022-07-06T16:25:47Z</time>
      </trkpt>
      <trkpt lat="41.951008" lon="0.07260668">
        <time>2022-07-06T16:25:48Z</time>
      </trkpt>
      <trkpt lat="41.95098" lon="0.07269634">
        <time>2022-07-06T16:25:49Z</time>
      </trkpt>
      <trkpt lat="41.950954" lon="0.072786">
        <time>2022-07-06T16:25:50Z</time>
      </trkpt>
      <trkpt lat="41.950928" lon="0.07287466">
        <time>2022-07-06T16:25:51Z</time>
      </trkpt>
      <trkpt lat="41.9509" lon="0.07296332">
        <time>2022-07-06T16:25:52Z</time>
      </trkpt>
      <trkpt lat="41.950848" lon="0.07314032">
        <time>2022-07-06T16:25:54Z</time>
      </trkpt>
      <trkpt lat="41.95082" lon="0.07322865">
        <time>2022-07-06T16:25:55Z</time>
      </trkpt>
      <trkpt lat="41.950794" lon="0.07331631">
        <time>2022-07-06T16:25:56Z</time>
      </trkpt>
      <trkpt lat="41.950764" lon="0.07341031">
        <time>2022-07-06T16:25:57Z</time>
      </trkpt>
      <trkpt lat="41.950737" lon="0.07350264">
        <time>2022-07-06T16:25:58Z</time>
      </trkpt>
      <trkpt lat="41.95071" lon="0.07359297">
        <time>2022-07-06T16:25:59Z</time>
      </trkpt>
      <trkpt lat="41.950684" lon="0.07368163">
        <time>2022-07-06T16:26:00Z</time>
      </trkpt>
      <trkpt lat="41.95066" lon="0.07376996">
        <time>2022-07-06T16:26:01Z</time>
      </trkpt>
      <trkpt lat="41.950634" lon="0.07385796">
        <time>2022-07-06T16:26:02Z</time>
      </trkpt>
      <trkpt lat="41.950607" lon="0.07394562">
        <time>2022-07-06T16:26:03Z</time>
      </trkpt>
      <trkpt lat="41.95058" lon="0.07403262">
        <time>2022-07-06T16:26:04Z</time>
      </trkpt>
      <trkpt lat="41.950554" lon="0.07411962">
        <time>2022-07-06T16:26:05Z</time>
      </trkpt>
      <trkpt lat="41.950527" lon="0.07420662">
        <time>2022-07-06T16:26:06Z</time>
      </trkpt>
      <trkpt lat="41.9505" lon="0.07429362">
        <time>2022-07-06T16:26:07Z</time>
      </trkpt>
      <trkpt lat="41.950474" lon="0.07438028">
        <time>2022-07-06T16:26:08Z</time>
      </trkpt>
      <trkpt lat="41.95045" lon="0.07446761">
        <time>2022-07-06T16:26:09Z</time>
      </trkpt>
      <trkpt lat="41.950428" lon="0.07455461">
        <time>2022-07-06T16:26:10Z</time>
      </trkpt>
      <trkpt lat="41.950405" lon="0.07464227">
        <time>2022-07-06T16:26:11Z</time>
      </trkpt>
      <trkpt lat="41.95038" lon="0.07472927">
        <time>2022-07-06T16:26:12Z</time>
      </trkpt>
      <trkpt lat="41.950356" lon="0.07481593">
        <time>2022-07-06T16:26:13Z</time>
      </trkpt>
      <trkpt lat="41.950333" lon="0.07490126">
        <time>2022-07-06T16:26:14Z</time>
      </trkpt>
      <trkpt lat="41.950306" lon="0.07498726">
        <time>2022-07-06T16:26:15Z</time>
      </trkpt>
      <trkpt lat="41.950283" lon="0.07507326">
        <time>2022-07-06T16:26:16Z</time>
      </trkpt>
      <trkpt lat="41.950256" lon="0.07515859">
        <time>2022-07-06T16:26:17Z</time>
      </trkpt>
      <trkpt lat="41.95023" lon="0.07524359">
        <time>2022-07-06T16:26:18Z</time>
      </trkpt>
      <trkpt lat="41.950203" lon="0.07532925">
        <time>2022-07-06T16:26:19Z</time>
      </trkpt>
      <trkpt lat="41.950176" lon="0.07541425">
        <time>2022-07-06T16:26:20Z</time>
      </trkpt>
      <trkpt lat="41.950153" lon="0.07549958">
        <time>2022-07-06T16:26:21Z</time>
      </trkpt>
      <trkpt lat="41.950127" lon="0.07558658">
        <time>2022-07-06T16:26:22Z</time>
      </trkpt>
      <trkpt lat="41.950104" lon="0.07567491">
        <time>2022-07-06T16:26:23Z</time>
      </trkpt>
      <trkpt lat="41.95008" lon="0.07576357">
        <time>2022-07-06T16:26:24Z</time>
      </trkpt>
      <trkpt lat="41.950058" lon="0.07585257">
        <time>2022-07-06T16:26:25Z</time>
      </trkpt>
      <trkpt lat="41.950035" lon="0.07594023">
        <time>2022-07-06T16:26:26Z</time>
      </trkpt>
      <trkpt lat="41.95001" lon="0.07602756">
        <time>2022-07-06T16:26:27Z</time>
      </trkpt>
      <trkpt lat="41.949986" lon="0.07611289">
        <time>2022-07-06T16:26:28Z</time>
      </trkpt>
      <trkpt lat="41.94996" lon="0.07619822">
        <time>2022-07-06T16:26:29Z</time>
      </trkpt>
      <trkpt lat="41.949932" lon="0.07628188">
        <time>2022-07-06T16:26:30Z</time>
      </trkpt>
      <trkpt lat="41.949905" lon="0.07636421">
        <time>2022-07-06T16:26:31Z</time>
      </trkpt>
      <trkpt lat="41.94988" lon="0.07644621">
        <time>2022-07-06T16:26:32Z</time>
      </trkpt>
      <trkpt lat="41.949856" lon="0.07652821">
        <time>2022-07-06T16:26:33Z</time>
      </trkpt>
      <trkpt lat="41.94983" lon="0.07661021">
        <time>2022-07-06T16:26:34Z</time>
      </trkpt>
      <trkpt lat="41.949806" lon="0.07668721">
        <time>2022-07-06T16:26:35Z</time>
      </trkpt>
      <trkpt lat="41.949787" lon="0.07676654">
        <time>2022-07-06T16:26:36Z</time>
      </trkpt>
      <trkpt lat="41.949764" lon="0.0768462">
        <time>2022-07-06T16:26:37Z</time>
      </trkpt>
      <trkpt lat="41.94974" lon="0.0769262">
        <time>2022-07-06T16:26:38Z</time>
      </trkpt>
      <trkpt lat="41.949715" lon="0.07701086">
        <time>2022-07-06T16:26:39Z</time>
      </trkpt>
      <trkpt lat="41.94969" lon="0.07709419">
        <time>2022-07-06T16:26:40Z</time>
      </trkpt>
      <trkpt lat="41.94967" lon="0.07717752">
        <time>2022-07-06T16:26:41Z</time>
      </trkpt>
      <trkpt lat="41.949646" lon="0.07725518">
        <time>2022-07-06T16:26:42Z</time>
      </trkpt>
      <trkpt lat="41.949623" lon="0.07733584">
        <time>2022-07-06T16:26:43Z</time>
      </trkpt>
      <trkpt lat="41.9496" lon="0.0774175">
        <time>2022-07-06T16:26:44Z</time>
      </trkpt>
      <trkpt lat="41.949577" lon="0.0774995">
        <time>2022-07-06T16:26:45Z</time>
      </trkpt>
      <trkpt lat="41.94955" lon="0.0775815">
        <time>2022-07-06T16:26:46Z</time>
      </trkpt>
      <trkpt lat="41.949528" lon="0.07766416">
        <time>2022-07-06T16:26:47Z</time>
      </trkpt>
      <trkpt lat="41.9495" lon="0.07774682">
        <time>2022-07-06T16:26:48Z</time>
      </trkpt>
      <trkpt lat="41.94948" lon="0.07783615">
        <time>2022-07-06T16:26:49Z</time>
      </trkpt>
      <trkpt lat="41.94945" lon="0.07791815">
        <time>2022-07-06T16:26:50Z</time>
      </trkpt>
      <trkpt lat="41.94943" lon="0.07800015">
        <time>2022-07-06T16:26:51Z</time>
      </trkpt>
      <trkpt lat="41.9494" lon="0.07808315">
        <time>2022-07-06T16:26:52Z</time>
      </trkpt>
      <trkpt lat="41.94938" lon="0.07816548">
        <time>2022-07-06T16:26:53Z</time>
      </trkpt>
      <trkpt lat="41.949352" lon="0.07824881">
        <time>2022-07-06T16:26:54Z</time>
      </trkpt>
      <trkpt lat="41.94933" lon="0.07833281">
        <time>2022-07-06T16:26:55Z</time>
      </trkpt>
      <trkpt lat="41.949303" lon="0.07842314">
        <time>2022-07-06T16:26:56Z</time>
      </trkpt>
      <trkpt lat="41.94928" lon="0.07851114">
        <time>2022-07-06T16:26:57Z</time>
      </trkpt>
      <trkpt lat="41.949253" lon="0.07859747">
        <time>2022-07-06T16:26:58Z</time>
      </trkpt>
      <trkpt lat="41.94923" lon="0.07867913">
        <time>2022-07-06T16:26:59Z</time>
      </trkpt>
      <trkpt lat="41.949207" lon="0.07876246">
        <time>2022-07-06T16:27:00Z</time>
      </trkpt>
      <trkpt lat="41.949184" lon="0.07884679">
        <time>2022-07-06T16:27:01Z</time>
      </trkpt>
      <trkpt lat="41.949158" lon="0.07893779">
        <time>2022-07-06T16:27:02Z</time>
      </trkpt>
      <trkpt lat="41.949135" lon="0.07902312">
        <time>2022-07-06T16:27:03Z</time>
      </trkpt>
      <trkpt lat="41.94911" lon="0.07911112">
        <time>2022-07-06T16:27:04Z</time>
      </trkpt>
      <trkpt lat="41.94908" lon="0.07920612">
        <time>2022-07-06T16:27:05Z</time>
      </trkpt>
      <trkpt lat="41.94905" lon="0.07930145">
        <time>2022-07-06T16:27:06Z</time>
      </trkpt>
      <trkpt lat="41.949024" lon="0.07938945">
        <time>2022-07-06T16:27:07Z</time>
      </trkpt>
      <trkpt lat="41.948997" lon="0.07947845">
        <time>2022-07-06T16:27:08Z</time>
      </trkpt>
      <trkpt lat="41.948944" lon="0.07966011">
        <time>2022-07-06T16:27:10Z</time>
      </trkpt>
      <trkpt lat="41.948917" lon="0.07975011">
        <time>2022-07-06T16:27:11Z</time>
      </trkpt>
      <trkpt lat="41.94889" lon="0.07983911">
        <time>2022-07-06T16:27:12Z</time>
      </trkpt>
      <trkpt lat="41.948864" lon="0.07992777">
        <time>2022-07-06T16:27:13Z</time>
      </trkpt>
      <trkpt lat="41.948833" lon="0.08002243">
        <time>2022-07-06T16:27:14Z</time>
      </trkpt>
      <trkpt lat="41.948807" lon="0.08011476">
        <time>2022-07-06T16:27:15Z</time>
      </trkpt>
      <trkpt lat="41.94878" lon="0.08019942">
        <time>2022-07-06T16:27:16Z</time>
      </trkpt>
      <trkpt lat="41.948757" lon="0.08028475">
        <time>2022-07-06T16:27:17Z</time>
      </trkpt>
      <trkpt lat="41.94873" lon="0.08037041">
        <time>2022-07-06T16:27:18Z</time>
      </trkpt>
      <trkpt lat="41.948704" lon="0.08046274">
        <time>2022-07-06T16:27:19Z</time>
      </trkpt>
      <trkpt lat="41.948677" lon="0.08054674">
        <time>2022-07-06T16:27:20Z</time>
      </trkpt>
      <trkpt lat="41.94865" lon="0.0806324">
        <time>2022-07-06T16:27:21Z</time>
      </trkpt>
      <trkpt lat="41.948624" lon="0.08071673">
        <time>2022-07-06T16:27:22Z</time>
      </trkpt>
      <trkpt lat="41.948597" lon="0.08079973">
        <time>2022-07-06T16:27:23Z</time>
      </trkpt>
      <trkpt lat="41.94857" lon="0.08088273">
        <time>2022-07-06T16:27:24Z</time>
      </trkpt>
      <trkpt lat="41.948547" lon="0.08096539">
        <time>2022-07-06T16:27:25Z</time>
      </trkpt>
      <trkpt lat="41.94852" lon="0.08104772">
        <time>2022-07-06T16:27:26Z</time>
      </trkpt>
      <trkpt lat="41.948498" lon="0.08113005">
        <time>2022-07-06T16:27:27Z</time>
      </trkpt>
      <trkpt lat="41.94847" lon="0.08121838">
        <time>2022-07-06T16:27:28Z</time>
      </trkpt>
      <trkpt lat="41.94845" lon="0.08130571">
        <time>2022-07-06T16:27:29Z</time>
      </trkpt>
      <trkpt lat="41.948425" lon="0.08139271">
        <time>2022-07-06T16:27:30Z</time>
      </trkpt>
      <trkpt lat="41.9484" lon="0.08147904">
        <time>2022-07-06T16:27:31Z</time>
      </trkpt>
      <trkpt lat="41.948376" lon="0.0815587">
        <time>2022-07-06T16:27:32Z</time>
      </trkpt>
      <trkpt lat="41.948353" lon="0.0816387">
        <time>2022-07-06T16:27:33Z</time>
      </trkpt>
      <trkpt lat="41.948326" lon="0.0817187">
        <time>2022-07-06T16:27:34Z</time>
      </trkpt>
      <trkpt lat="41.9483" lon="0.0818027">
        <time>2022-07-06T16:27:35Z</time>
      </trkpt>
      <trkpt lat="41.948277" lon="0.08188536">
        <time>2022-07-06T16:27:36Z</time>
      </trkpt>
      <trkpt lat="41.948254" lon="0.08196636">
        <time>2022-07-06T16:27:37Z</time>
      </trkpt>
      <trkpt lat="41.94823" lon="0.08204669">
        <time>2022-07-06T16:27:38Z</time>
      </trkpt>
      <trkpt lat="41.94821" lon="0.08212735">
        <time>2022-07-06T16:27:39Z</time>
      </trkpt>
      <trkpt lat="41.94819" lon="0.08220835">
        <time>2022-07-06T16:27:40Z</time>
      </trkpt>
      <trkpt lat="41.948166" lon="0.08228868">
        <time>2022-07-06T16:27:41Z</time>
      </trkpt>
      <trkpt lat="41.948147" lon="0.08236801">
        <time>2022-07-06T16:27:42Z</time>
      </trkpt>
      <trkpt lat="41.948124" lon="0.08244667">
        <time>2022-07-06T16:27:43Z</time>
      </trkpt>
      <trkpt lat="41.948097" lon="0.08252533">
        <time>2022-07-06T16:27:44Z</time>
      </trkpt>
      <trkpt lat="41.948074" lon="0.08260466">
        <time>2022-07-06T16:27:45Z</time>
      </trkpt>
      <trkpt lat="41.948048" lon="0.08268499">
        <time>2022-07-06T16:27:46Z</time>
      </trkpt>
      <trkpt lat="41.94802" lon="0.08276532">
        <time>2022-07-06T16:27:47Z</time>
      </trkpt>
      <trkpt lat="41.94799" lon="0.08284532">
        <time>2022-07-06T16:27:48Z</time>
      </trkpt>
      <trkpt lat="41.947964" lon="0.08292598">
        <time>2022-07-06T16:27:49Z</time>
      </trkpt>
      <trkpt lat="41.947933" lon="0.08300631">
        <time>2022-07-06T16:27:50Z</time>
      </trkpt>
      <trkpt lat="41.9479" lon="0.08308564">
        <time>2022-07-06T16:27:51Z</time>
      </trkpt>
      <trkpt lat="41.947865" lon="0.08316397">
        <time>2022-07-06T16:27:52Z</time>
      </trkpt>
      <trkpt lat="41.947826" lon="0.08324097">
        <time>2022-07-06T16:27:53Z</time>
      </trkpt>
      <trkpt lat="41.947784" lon="0.08331863">
        <time>2022-07-06T16:27:54Z</time>
      </trkpt>
      <trkpt lat="41.947746" lon="0.08339663">
        <time>2022-07-06T16:27:55Z</time>
      </trkpt>
      <trkpt lat="41.947704" lon="0.08347829">
        <time>2022-07-06T16:27:56Z</time>
      </trkpt>
      <trkpt lat="41.947666" lon="0.08356062">
        <time>2022-07-06T16:27:57Z</time>
      </trkpt>
      <trkpt lat="41.947624" lon="0.08364562">
        <time>2022-07-06T16:27:58Z</time>
      </trkpt>
      <trkpt lat="41.947586" lon="0.08372428">
        <time>2022-07-06T16:27:59Z</time>
      </trkpt>
      <trkpt lat="41.947544" lon="0.08380594">
        <time>2022-07-06T16:28:00Z</time>
      </trkpt>
      <trkpt lat="41.947502" lon="0.08389494">
        <time>2022-07-06T16:28:01Z</time>
      </trkpt>
      <trkpt lat="41.947456" lon="0.08398394">
        <time>2022-07-06T16:28:02Z</time>
      </trkpt>
      <trkpt lat="41.947414" lon="0.0840676">
        <time>2022-07-06T16:28:03Z</time>
      </trkpt>
      <trkpt lat="41.94737" lon="0.08415693">
        <time>2022-07-06T16:28:04Z</time>
      </trkpt>
      <trkpt lat="41.947323" lon="0.08423926">
        <time>2022-07-06T16:28:05Z</time>
      </trkpt>
      <trkpt lat="41.94728" lon="0.08432159">
        <time>2022-07-06T16:28:06Z</time>
      </trkpt>
      <trkpt lat="41.94723" lon="0.08441125">
        <time>2022-07-06T16:28:07Z</time>
      </trkpt>
      <trkpt lat="41.947186" lon="0.08449958">
        <time>2022-07-06T16:28:08Z</time>
      </trkpt>
      <trkpt lat="41.94714" lon="0.08458858">
        <time>2022-07-06T16:28:09Z</time>
      </trkpt>
      <trkpt lat="41.947094" lon="0.08467691">
        <time>2022-07-06T16:28:10Z</time>
      </trkpt>
      <trkpt lat="41.94705" lon="0.08476524">
        <time>2022-07-06T16:28:11Z</time>
      </trkpt>
      <trkpt lat="41.947002" lon="0.0848539">
        <time>2022-07-06T16:28:12Z</time>
      </trkpt>
      <trkpt lat="41.946953" lon="0.0849439">
        <time>2022-07-06T16:28:13Z</time>
      </trkpt>
      <trkpt lat="41.946907" lon="0.08503356">
        <time>2022-07-06T16:28:14Z</time>
      </trkpt>
      <trkpt lat="41.94686" lon="0.08512289">
        <time>2022-07-06T16:28:15Z</time>
      </trkpt>
      <trkpt lat="41.94681" lon="0.08521255">
        <time>2022-07-06T16:28:16Z</time>
      </trkpt>
      <trkpt lat="41.946766" lon="0.08530288">
        <time>2022-07-06T16:28:17Z</time>
      </trkpt>
      <trkpt lat="41.946716" lon="0.08539354">
        <time>2022-07-06T16:28:18Z</time>
      </trkpt>
      <trkpt lat="41.946667" lon="0.08548554">
        <time>2022-07-06T16:28:19Z</time>
      </trkpt>
      <trkpt lat="41.946617" lon="0.08557687">
        <time>2022-07-06T16:28:20Z</time>
      </trkpt>
      <trkpt lat="41.946568" lon="0.08566953">
        <time>2022-07-06T16:28:21Z</time>
      </trkpt>
      <trkpt lat="41.946518" lon="0.08576253">
        <time>2022-07-06T16:28:22Z</time>
      </trkpt>
      <trkpt lat="41.946476" lon="0.08584986">
        <time>2022-07-06T16:28:23Z</time>
      </trkpt>
      <trkpt lat="41.94643" lon="0.08593986">
        <time>2022-07-06T16:28:24Z</time>
      </trkpt>
      <trkpt lat="41.94639" lon="0.08602952">
        <time>2022-07-06T16:28:25Z</time>
      </trkpt>
      <trkpt lat="41.946342" lon="0.08611852">
        <time>2022-07-06T16:28:26Z</time>
      </trkpt>
      <trkpt lat="41.946297" lon="0.08620785">
        <time>2022-07-06T16:28:27Z</time>
      </trkpt>
      <trkpt lat="41.94625" lon="0.08629685">
        <time>2022-07-06T16:28:28Z</time>
      </trkpt>
      <trkpt lat="41.9462" lon="0.08639018">
        <time>2022-07-06T16:28:29Z</time>
      </trkpt>
      <trkpt lat="41.946117" lon="0.08656118">
        <time>2022-07-06T16:28:31Z</time>
      </trkpt>
      <trkpt lat="41.94607" lon="0.08664651">
        <time>2022-07-06T16:28:32Z</time>
      </trkpt>
      <trkpt lat="41.946022" lon="0.08673651">
        <time>2022-07-06T16:28:33Z</time>
      </trkpt>
      <trkpt lat="41.945972" lon="0.08682384">
        <time>2022-07-06T16:28:34Z</time>
      </trkpt>
      <trkpt lat="41.945923" lon="0.08690917">
        <time>2022-07-06T16:28:35Z</time>
      </trkpt>
      <trkpt lat="41.94588" lon="0.08699517">
        <time>2022-07-06T16:28:36Z</time>
      </trkpt>
      <trkpt lat="41.94584" lon="0.08707583">
        <time>2022-07-06T16:28:37Z</time>
      </trkpt>
      <trkpt lat="41.945797" lon="0.08715883">
        <time>2022-07-06T16:28:38Z</time>
      </trkpt>
      <trkpt lat="41.945755" lon="0.08724216">
        <time>2022-07-06T16:28:39Z</time>
      </trkpt>
      <trkpt lat="41.945713" lon="0.08732482">
        <time>2022-07-06T16:28:40Z</time>
      </trkpt>
      <trkpt lat="41.945667" lon="0.08741148">
        <time>2022-07-06T16:28:41Z</time>
      </trkpt>
      <trkpt lat="41.945625" lon="0.08749114">
        <time>2022-07-06T16:28:42Z</time>
      </trkpt>
      <trkpt lat="41.94558" lon="0.08757747">
        <time>2022-07-06T16:28:43Z</time>
      </trkpt>
      <trkpt lat="41.945534" lon="0.0876628">
        <time>2022-07-06T16:28:44Z</time>
      </trkpt>
      <trkpt lat="41.945488" lon="0.08774313">
        <time>2022-07-06T16:28:45Z</time>
      </trkpt>
      <trkpt lat="41.945446" lon="0.08782546">
        <time>2022-07-06T16:28:46Z</time>
      </trkpt>
      <trkpt lat="41.945404" lon="0.08790812">
        <time>2022-07-06T16:28:47Z</time>
      </trkpt>
      <trkpt lat="41.94536" lon="0.08799045">
        <time>2022-07-06T16:28:48Z</time>
      </trkpt>
      <trkpt lat="41.94532" lon="0.08807211">
        <time>2022-07-06T16:28:49Z</time>
      </trkpt>
      <trkpt lat="41.94528" lon="0.08815144">
        <time>2022-07-06T16:28:50Z</time>
      </trkpt>
      <trkpt lat="41.945232" lon="0.08823377">
        <time>2022-07-06T16:28:51Z</time>
      </trkpt>
      <trkpt lat="41.94519" lon="0.08830843">
        <time>2022-07-06T16:28:52Z</time>
      </trkpt>
      <trkpt lat="41.94515" lon="0.08838776">
        <time>2022-07-06T16:28:53Z</time>
      </trkpt>
      <trkpt lat="41.94511" lon="0.08846476">
        <time>2022-07-06T16:28:54Z</time>
      </trkpt>
      <trkpt lat="41.945072" lon="0.08854009">
        <time>2022-07-06T16:28:55Z</time>
      </trkpt>
      <trkpt lat="41.945034" lon="0.08860975">
        <time>2022-07-06T16:28:56Z</time>
      </trkpt>
      <trkpt lat="41.944996" lon="0.08868441">
        <time>2022-07-06T16:28:57Z</time>
      </trkpt>
      <trkpt lat="41.94496" lon="0.08875274">
        <time>2022-07-06T16:28:58Z</time>
      </trkpt>
      <trkpt lat="41.944923" lon="0.0888244">
        <time>2022-07-06T16:28:59Z</time>
      </trkpt>
      <trkpt lat="41.94489" lon="0.0888904">
        <time>2022-07-06T16:29:00Z</time>
      </trkpt>
      <trkpt lat="41.944855" lon="0.08896273">
        <time>2022-07-06T16:29:01Z</time>
      </trkpt>
      <trkpt lat="41.94482" lon="0.08903539">
        <time>2022-07-06T16:29:02Z</time>
      </trkpt>
      <trkpt lat="41.94479" lon="0.08910672">
        <time>2022-07-06T16:29:03Z</time>
      </trkpt>
      <trkpt lat="41.94475" lon="0.08917805">
        <time>2022-07-06T16:29:04Z</time>
      </trkpt>
      <trkpt lat="41.944717" lon="0.08924938">
        <time>2022-07-06T16:29:05Z</time>
      </trkpt>
      <trkpt lat="41.94468" lon="0.08931871">
        <time>2022-07-06T16:29:06Z</time>
      </trkpt>
      <trkpt lat="41.944645" lon="0.08938504">
        <time>2022-07-06T16:29:07Z</time>
      </trkpt>
      <trkpt lat="41.944607" lon="0.08945737">
        <time>2022-07-06T16:29:08Z</time>
      </trkpt>
      <trkpt lat="41.94457" lon="0.08952837">
        <time>2022-07-06T16:29:09Z</time>
      </trkpt>
      <trkpt lat="41.944534" lon="0.08959937">
        <time>2022-07-06T16:29:10Z</time>
      </trkpt>
      <trkpt lat="41.9445" lon="0.08966603">
        <time>2022-07-06T16:29:11Z</time>
      </trkpt>
      <trkpt lat="41.94447" lon="0.08973369">
        <time>2022-07-06T16:29:12Z</time>
      </trkpt>
      <trkpt lat="41.944435" lon="0.08980169">
        <time>2022-07-06T16:29:13Z</time>
      </trkpt>
      <trkpt lat="41.9444" lon="0.08987202">
        <time>2022-07-06T16:29:14Z</time>
      </trkpt>
      <trkpt lat="41.944366" lon="0.08993935">
        <time>2022-07-06T16:29:15Z</time>
      </trkpt>
      <trkpt lat="41.944336" lon="0.09000001">
        <time>2022-07-06T16:29:16Z</time>
      </trkpt>
      <trkpt lat="41.9443" lon="0.09005967">
        <time>2022-07-06T16:29:17Z</time>
      </trkpt>
      <trkpt lat="41.944267" lon="0.090119">
        <time>2022-07-06T16:29:18Z</time>
      </trkpt>
      <trkpt lat="41.944233" lon="0.090181">
        <time>2022-07-06T16:29:19Z</time>
      </trkpt>
      <trkpt lat="41.944202" lon="0.09024366">
        <time>2022-07-06T16:29:20Z</time>
      </trkpt>
      <trkpt lat="41.944176" lon="0.09030299">
        <time>2022-07-06T16:29:21Z</time>
      </trkpt>
      <trkpt lat="41.944145" lon="0.09036665">
        <time>2022-07-06T16:29:22Z</time>
      </trkpt>
      <trkpt lat="41.944115" lon="0.09042865">
        <time>2022-07-06T16:29:23Z</time>
      </trkpt>
      <trkpt lat="41.944084" lon="0.09049131">
        <time>2022-07-06T16:29:24Z</time>
      </trkpt>
      <trkpt lat="41.94405" lon="0.09055431">
        <time>2022-07-06T16:29:25Z</time>
      </trkpt>
      <trkpt lat="41.94402" lon="0.09061931">
        <time>2022-07-06T16:29:26Z</time>
      </trkpt>
      <trkpt lat="41.943985" lon="0.09068497">
        <time>2022-07-06T16:29:27Z</time>
      </trkpt>
      <trkpt lat="41.943954" lon="0.09074963">
        <time>2022-07-06T16:29:28Z</time>
      </trkpt>
      <trkpt lat="41.94392" lon="0.09081496">
        <time>2022-07-06T16:29:29Z</time>
      </trkpt>
      <trkpt lat="41.943886" lon="0.09088029">
        <time>2022-07-06T16:29:30Z</time>
      </trkpt>
      <trkpt lat="41.94385" lon="0.09094662">
        <time>2022-07-06T16:29:31Z</time>
      </trkpt>
      <trkpt lat="41.943813" lon="0.09101362">
        <time>2022-07-06T16:29:32Z</time>
      </trkpt>
      <trkpt lat="41.94378" lon="0.09108162">
        <time>2022-07-06T16:29:33Z</time>
      </trkpt>
      <trkpt lat="41.94374" lon="0.09115028">
        <time>2022-07-06T16:29:34Z</time>
      </trkpt>
      <trkpt lat="41.943703" lon="0.09121961">
        <time>2022-07-06T16:29:35Z</time>
      </trkpt>
      <trkpt lat="41.94367" lon="0.09128994">
        <time>2022-07-06T16:29:36Z</time>
      </trkpt>
      <trkpt lat="41.94363" lon="0.09136027">
        <time>2022-07-06T16:29:37Z</time>
      </trkpt>
      <trkpt lat="41.943592" lon="0.09143093">
        <time>2022-07-06T16:29:38Z</time>
      </trkpt>
      <trkpt lat="41.943554" lon="0.09150293">
        <time>2022-07-06T16:29:39Z</time>
      </trkpt>
      <trkpt lat="41.943516" lon="0.09157593">
        <time>2022-07-06T16:29:40Z</time>
      </trkpt>
      <trkpt lat="41.943478" lon="0.09164859">
        <time>2022-07-06T16:29:41Z</time>
      </trkpt>
      <trkpt lat="41.94344" lon="0.09172192">
        <time>2022-07-06T16:29:42Z</time>
      </trkpt>
      <trkpt lat="41.9434" lon="0.09179592">
        <time>2022-07-06T16:29:43Z</time>
      </trkpt>
      <trkpt lat="41.943363" lon="0.09187058">
        <time>2022-07-06T16:29:44Z</time>
      </trkpt>
      <trkpt lat="41.94332" lon="0.09194624">
        <time>2022-07-06T16:29:45Z</time>
      </trkpt>
      <trkpt lat="41.94324" lon="0.09209757">
        <time>2022-07-06T16:29:47Z</time>
      </trkpt>
      <trkpt lat="41.943203" lon="0.09217357">
        <time>2022-07-06T16:29:48Z</time>
      </trkpt>
      <trkpt lat="41.943165" lon="0.09224923">
        <time>2022-07-06T16:29:49Z</time>
      </trkpt>
      <trkpt lat="41.943123" lon="0.09232556">
        <time>2022-07-06T16:29:50Z</time>
      </trkpt>
      <trkpt lat="41.943085" lon="0.09240289">
        <time>2022-07-06T16:29:51Z</time>
      </trkpt>
      <trkpt lat="41.943043" lon="0.09248022">
        <time>2022-07-06T16:29:52Z</time>
      </trkpt>
      <trkpt lat="41.943005" lon="0.09255688">
        <time>2022-07-06T16:29:53Z</time>
      </trkpt>
      <trkpt lat="41.942963" lon="0.09263354">
        <time>2022-07-06T16:29:54Z</time>
      </trkpt>
      <trkpt lat="41.94292" lon="0.0927112">
        <time>2022-07-06T16:29:55Z</time>
      </trkpt>
      <trkpt lat="41.942883" lon="0.09278886">
        <time>2022-07-06T16:29:56Z</time>
      </trkpt>
      <trkpt lat="41.94284" lon="0.09286586">
        <time>2022-07-06T16:29:57Z</time>
      </trkpt>
      <trkpt lat="41.9428" lon="0.09294386">
        <time>2022-07-06T16:29:58Z</time>
      </trkpt>
      <trkpt lat="41.942757" lon="0.09302219">
        <time>2022-07-06T16:29:59Z</time>
      </trkpt>
      <trkpt lat="41.94272" lon="0.09310085">
        <time>2022-07-06T16:30:00Z</time>
      </trkpt>
      <trkpt lat="41.94268" lon="0.09317951">
        <time>2022-07-06T16:30:01Z</time>
      </trkpt>
      <trkpt lat="41.94264" lon="0.09325684">
        <time>2022-07-06T16:30:02Z</time>
      </trkpt>
      <trkpt lat="41.942596" lon="0.09333417">
        <time>2022-07-06T16:30:03Z</time>
      </trkpt>
      <trkpt lat="41.94256" lon="0.09341117">
        <time>2022-07-06T16:30:04Z</time>
      </trkpt>
      <trkpt lat="41.942516" lon="0.0934885">
        <time>2022-07-06T16:30:05Z</time>
      </trkpt>
      <trkpt lat="41.94248" lon="0.0935665">
        <time>2022-07-06T16:30:06Z</time>
      </trkpt>
      <trkpt lat="41.942436" lon="0.09364383">
        <time>2022-07-06T16:30:07Z</time>
      </trkpt>
      <trkpt lat="41.942394" lon="0.09372083">
        <time>2022-07-06T16:30:08Z</time>
      </trkpt>
      <trkpt lat="41.942356" lon="0.09379949">
        <time>2022-07-06T16:30:09Z</time>
      </trkpt>
      <trkpt lat="41.942314" lon="0.09387815">
        <time>2022-07-06T16:30:10Z</time>
      </trkpt>
      <trkpt lat="41.942276" lon="0.09395581">
        <time>2022-07-06T16:30:11Z</time>
      </trkpt>
      <trkpt lat="41.942234" lon="0.09403347">
        <time>2022-07-06T16:30:12Z</time>
      </trkpt>
      <trkpt lat="41.942192" lon="0.09411113">
        <time>2022-07-06T16:30:13Z</time>
      </trkpt>
      <trkpt lat="41.942154" lon="0.09418879">
        <time>2022-07-06T16:30:14Z</time>
      </trkpt>
      <trkpt lat="41.942112" lon="0.09426645">
        <time>2022-07-06T16:30:15Z</time>
      </trkpt>
      <trkpt lat="41.942074" lon="0.09434378">
        <time>2022-07-06T16:30:16Z</time>
      </trkpt>
      <trkpt lat="41.94203" lon="0.09441978">
        <time>2022-07-06T16:30:17Z</time>
      </trkpt>
      <trkpt lat="41.941994" lon="0.09449611">
        <time>2022-07-06T16:30:18Z</time>
      </trkpt>
      <trkpt lat="41.94195" lon="0.09457144">
        <time>2022-07-06T16:30:19Z</time>
      </trkpt>
      <trkpt lat="41.941914" lon="0.09464544">
        <time>2022-07-06T16:30:20Z</time>
      </trkpt>
      <trkpt lat="41.941875" lon="0.09471877">
        <time>2022-07-06T16:30:21Z</time>
      </trkpt>
      <trkpt lat="41.941833" lon="0.09479143">
        <time>2022-07-06T16:30:22Z</time>
      </trkpt>
      <trkpt lat="41.941795" lon="0.09486376">
        <time>2022-07-06T16:30:23Z</time>
      </trkpt>
      <trkpt lat="41.941757" lon="0.09493642">
        <time>2022-07-06T16:30:24Z</time>
      </trkpt>
      <trkpt lat="41.941715" lon="0.09500942">
        <time>2022-07-06T16:30:25Z</time>
      </trkpt>
      <trkpt lat="41.941677" lon="0.09508308">
        <time>2022-07-06T16:30:26Z</time>
      </trkpt>
      <trkpt lat="41.94164" lon="0.09515708">
        <time>2022-07-06T16:30:27Z</time>
      </trkpt>
      <trkpt lat="41.941597" lon="0.09523141">
        <time>2022-07-06T16:30:28Z</time>
      </trkpt>
      <trkpt lat="41.94156" lon="0.09530607">
        <time>2022-07-06T16:30:29Z</time>
      </trkpt>
      <trkpt lat="41.941517" lon="0.09538073">
        <time>2022-07-06T16:30:30Z</time>
      </trkpt>
      <trkpt lat="41.94148" lon="0.09545573">
        <time>2022-07-06T16:30:31Z</time>
      </trkpt>
      <trkpt lat="41.94144" lon="0.09553139">
        <time>2022-07-06T16:30:32Z</time>
      </trkpt>
      <trkpt lat="41.941402" lon="0.09560772">
        <time>2022-07-06T16:30:33Z</time>
      </trkpt>
      <trkpt lat="41.941364" lon="0.09568405">
        <time>2022-07-06T16:30:34Z</time>
      </trkpt>
      <trkpt lat="41.941326" lon="0.09576171">
        <time>2022-07-06T16:30:35Z</time>
      </trkpt>
      <trkpt lat="41.941288" lon="0.09583771">
        <time>2022-07-06T16:30:36Z</time>
      </trkpt>
      <trkpt lat="41.94125" lon="0.09591304">
        <time>2022-07-06T16:30:37Z</time>
      </trkpt>
      <trkpt lat="41.94121" lon="0.09598937">
        <time>2022-07-06T16:30:38Z</time>
      </trkpt>
      <trkpt lat="41.94117" lon="0.0960657">
        <time>2022-07-06T16:30:39Z</time>
      </trkpt>
      <trkpt lat="41.94113" lon="0.09614203">
        <time>2022-07-06T16:30:40Z</time>
      </trkpt>
      <trkpt lat="41.941093" lon="0.09621803">
        <time>2022-07-06T16:30:41Z</time>
      </trkpt>
      <trkpt lat="41.94105" lon="0.09629369">
        <time>2022-07-06T16:30:42Z</time>
      </trkpt>
      <trkpt lat="41.941013" lon="0.09637102">
        <time>2022-07-06T16:30:43Z</time>
      </trkpt>
      <trkpt lat="41.940975" lon="0.09644935">
        <time>2022-07-06T16:30:44Z</time>
      </trkpt>
      <trkpt lat="41.940937" lon="0.09652801">
        <time>2022-07-06T16:30:45Z</time>
      </trkpt>
      <trkpt lat="41.9409" lon="0.09660601">
        <time>2022-07-06T16:30:46Z</time>
      </trkpt>
      <trkpt lat="41.940857" lon="0.09668334">
        <time>2022-07-06T16:30:47Z</time>
      </trkpt>
      <trkpt lat="41.94082" lon="0.096761">
        <time>2022-07-06T16:30:48Z</time>
      </trkpt>
      <trkpt lat="41.940777" lon="0.09683966">
        <time>2022-07-06T16:30:49Z</time>
      </trkpt>
      <trkpt lat="41.940735" lon="0.09691532">
        <time>2022-07-06T16:30:50Z</time>
      </trkpt>
      <trkpt lat="41.940693" lon="0.09699032">
        <time>2022-07-06T16:30:51Z</time>
      </trkpt>
      <trkpt lat="41.940655" lon="0.09706698">
        <time>2022-07-06T16:30:52Z</time>
      </trkpt>
      <trkpt lat="41.940613" lon="0.09714464">
        <time>2022-07-06T16:30:53Z</time>
      </trkpt>
      <trkpt lat="41.940575" lon="0.09722197">
        <time>2022-07-06T16:30:54Z</time>
      </trkpt>
      <trkpt lat="41.940536" lon="0.09729797">
        <time>2022-07-06T16:30:55Z</time>
      </trkpt>
      <trkpt lat="41.940495" lon="0.09737363">
        <time>2022-07-06T16:30:56Z</time>
      </trkpt>
      <trkpt lat="41.940456" lon="0.09744963">
        <time>2022-07-06T16:30:57Z</time>
      </trkpt>
      <trkpt lat="41.94042" lon="0.09752796">
        <time>2022-07-06T16:30:58Z</time>
      </trkpt>
      <trkpt lat="41.94038" lon="0.09760696">
        <time>2022-07-06T16:30:59Z</time>
      </trkpt>
      <trkpt lat="41.94034" lon="0.09768562">
        <time>2022-07-06T16:31:00Z</time>
      </trkpt>
      <trkpt lat="41.9403" lon="0.09776395">
        <time>2022-07-06T16:31:01Z</time>
      </trkpt>
      <trkpt lat="41.940258" lon="0.09784128">
        <time>2022-07-06T16:31:02Z</time>
      </trkpt>
      <trkpt lat="41.940216" lon="0.09791761">
        <time>2022-07-06T16:31:03Z</time>
      </trkpt>
      <trkpt lat="41.940174" lon="0.09799227">
        <time>2022-07-06T16:31:04Z</time>
      </trkpt>
      <trkpt lat="41.940094" lon="0.09814093">
        <time>2022-07-06T16:31:06Z</time>
      </trkpt>
      <trkpt lat="41.940052" lon="0.09821626">
        <time>2022-07-06T16:31:07Z</time>
      </trkpt>
      <trkpt lat="41.940014" lon="0.09829092">
        <time>2022-07-06T16:31:08Z</time>
      </trkpt>
      <trkpt lat="41.939976" lon="0.09836558">
        <time>2022-07-06T16:31:09Z</time>
      </trkpt>
      <trkpt lat="41.939938" lon="0.09843991">
        <time>2022-07-06T16:31:10Z</time>
      </trkpt>
      <trkpt lat="41.9399" lon="0.09851491">
        <time>2022-07-06T16:31:11Z</time>
      </trkpt>
      <trkpt lat="41.93986" lon="0.09858991">
        <time>2022-07-06T16:31:12Z</time>
      </trkpt>
      <trkpt lat="41.939823" lon="0.09866491">
        <time>2022-07-06T16:31:13Z</time>
      </trkpt>
      <trkpt lat="41.939785" lon="0.09874391">
        <time>2022-07-06T16:31:14Z</time>
      </trkpt>
      <trkpt lat="41.939747" lon="0.09881657">
        <time>2022-07-06T16:31:15Z</time>
      </trkpt>
      <trkpt lat="41.93971" lon="0.0988949">
        <time>2022-07-06T16:31:16Z</time>
      </trkpt>
      <trkpt lat="41.93967" lon="0.09896823">
        <time>2022-07-06T16:31:17Z</time>
      </trkpt>
      <trkpt lat="41.939636" lon="0.09904423">
        <time>2022-07-06T16:31:18Z</time>
      </trkpt>
      <trkpt lat="41.939598" lon="0.09911856">
        <time>2022-07-06T16:31:19Z</time>
      </trkpt>
      <trkpt lat="41.93956" lon="0.09919556">
        <time>2022-07-06T16:31:20Z</time>
      </trkpt>
      <trkpt lat="41.93952" lon="0.09927056">
        <time>2022-07-06T16:31:21Z</time>
      </trkpt>
      <trkpt lat="41.939487" lon="0.09933989">
        <time>2022-07-06T16:31:22Z</time>
      </trkpt>
      <trkpt lat="41.93945" lon="0.09940822">
        <time>2022-07-06T16:31:23Z</time>
      </trkpt>
      <trkpt lat="41.939415" lon="0.09947622">
        <time>2022-07-06T16:31:24Z</time>
      </trkpt>
      <trkpt lat="41.939377" lon="0.09954355">
        <time>2022-07-06T16:31:25Z</time>
      </trkpt>
      <trkpt lat="41.93934" lon="0.09961521">
        <time>2022-07-06T16:31:26Z</time>
      </trkpt>
      <trkpt lat="41.939304" lon="0.09968021">
        <time>2022-07-06T16:31:27Z</time>
      </trkpt>
      <trkpt lat="41.939274" lon="0.09974654">
        <time>2022-07-06T16:31:28Z</time>
      </trkpt>
      <trkpt lat="41.93924" lon="0.0998132">
        <time>2022-07-06T16:31:29Z</time>
      </trkpt>
      <trkpt lat="41.9392" lon="0.09988453">
        <time>2022-07-06T16:31:30Z</time>
      </trkpt>
      <trkpt lat="41.939167" lon="0.09994919">
        <time>2022-07-06T16:31:31Z</time>
      </trkpt>
      <trkpt lat="41.939133" lon="0.10001419">
        <time>2022-07-06T16:31:32Z</time>
      </trkpt>
      <trkpt lat="41.9391" lon="0.10008385">
        <time>2022-07-06T16:31:33Z</time>
      </trkpt>
      <trkpt lat="41.939064" lon="0.10014951">
        <time>2022-07-06T16:31:34Z</time>
      </trkpt>
      <trkpt lat="41.939034" lon="0.10021651">
        <time>2022-07-06T16:31:35Z</time>
      </trkpt>
      <trkpt lat="41.939" lon="0.10028284">
        <time>2022-07-06T16:31:36Z</time>
      </trkpt>
      <trkpt lat="41.938965" lon="0.1003475">
        <time>2022-07-06T16:31:37Z</time>
      </trkpt>
      <trkpt lat="41.938927" lon="0.10041683">
        <time>2022-07-06T16:31:38Z</time>
      </trkpt>
      <trkpt lat="41.938892" lon="0.10048116">
        <time>2022-07-06T16:31:39Z</time>
      </trkpt>
      <trkpt lat="41.938854" lon="0.10054549">
        <time>2022-07-06T16:31:40Z</time>
      </trkpt>
      <trkpt lat="41.938824" lon="0.10061115">
        <time>2022-07-06T16:31:41Z</time>
      </trkpt>
      <trkpt lat="41.93879" lon="0.10067648">
        <time>2022-07-06T16:31:42Z</time>
      </trkpt>
      <trkpt lat="41.93876" lon="0.10074148">
        <time>2022-07-06T16:31:43Z</time>
      </trkpt>
      <trkpt lat="41.938725" lon="0.10080614">
        <time>2022-07-06T16:31:44Z</time>
      </trkpt>
      <trkpt lat="41.93869" lon="0.10086947">
        <time>2022-07-06T16:31:45Z</time>
      </trkpt>
      <trkpt lat="41.938656" lon="0.10093247">
        <time>2022-07-06T16:31:46Z</time>
      </trkpt>
      <trkpt lat="41.938625" lon="0.10099613">
        <time>2022-07-06T16:31:47Z</time>
      </trkpt>
      <trkpt lat="41.938587" lon="0.10106046">
        <time>2022-07-06T16:31:48Z</time>
      </trkpt>
      <trkpt lat="41.938553" lon="0.10112479">
        <time>2022-07-06T16:31:49Z</time>
      </trkpt>
      <trkpt lat="41.93852" lon="0.10119012">
        <time>2022-07-06T16:31:50Z</time>
      </trkpt>
      <trkpt lat="41.938484" lon="0.10125945">
        <time>2022-07-06T16:31:51Z</time>
      </trkpt>
      <trkpt lat="41.93845" lon="0.10132378">
        <time>2022-07-06T16:31:52Z</time>
      </trkpt>
      <trkpt lat="41.938416" lon="0.10139311">
        <time>2022-07-06T16:31:53Z</time>
      </trkpt>
      <trkpt lat="41.938385" lon="0.10145677">
        <time>2022-07-06T16:31:54Z</time>
      </trkpt>
      <trkpt lat="41.93835" lon="0.1015211">
        <time>2022-07-06T16:31:55Z</time>
      </trkpt>
      <trkpt lat="41.938316" lon="0.10158643">
        <time>2022-07-06T16:31:56Z</time>
      </trkpt>
      <trkpt lat="41.938282" lon="0.10165176">
        <time>2022-07-06T16:31:57Z</time>
      </trkpt>
      <trkpt lat="41.938248" lon="0.10171742">
        <time>2022-07-06T16:31:58Z</time>
      </trkpt>
      <trkpt lat="41.938217" lon="0.10178342">
        <time>2022-07-06T16:31:59Z</time>
      </trkpt>
      <trkpt lat="41.938183" lon="0.10184942">
        <time>2022-07-06T16:32:00Z</time>
      </trkpt>
      <trkpt lat="41.93815" lon="0.10191708">
        <time>2022-07-06T16:32:01Z</time>
      </trkpt>
      <trkpt lat="41.938114" lon="0.10198374">
        <time>2022-07-06T16:32:02Z</time>
      </trkpt>
      <trkpt lat="41.938084" lon="0.10204907">
        <time>2022-07-06T16:32:03Z</time>
      </trkpt>
      <trkpt lat="41.93805" lon="0.10211473">
        <time>2022-07-06T16:32:04Z</time>
      </trkpt>
      <trkpt lat="41.938015" lon="0.10217973">
        <time>2022-07-06T16:32:05Z</time>
      </trkpt>
      <trkpt lat="41.93798" lon="0.10224539">
        <time>2022-07-06T16:32:06Z</time>
      </trkpt>
      <trkpt lat="41.93795" lon="0.10231205">
        <time>2022-07-06T16:32:07Z</time>
      </trkpt>
      <trkpt lat="41.937916" lon="0.10237805">
        <time>2022-07-06T16:32:08Z</time>
      </trkpt>
      <trkpt lat="41.93788" lon="0.10244338">
        <time>2022-07-06T16:32:09Z</time>
      </trkpt>
      <trkpt lat="41.937847" lon="0.10250838">
        <time>2022-07-06T16:32:10Z</time>
      </trkpt>
      <trkpt lat="41.937813" lon="0.10257338">
        <time>2022-07-06T16:32:11Z</time>
      </trkpt>
      <trkpt lat="41.93778" lon="0.10263871">
        <time>2022-07-06T16:32:12Z</time>
      </trkpt>
      <trkpt lat="41.937748" lon="0.10270304">
        <time>2022-07-06T16:32:13Z</time>
      </trkpt>
      <trkpt lat="41.937714" lon="0.10276837">
        <time>2022-07-06T16:32:14Z</time>
      </trkpt>
      <trkpt lat="41.93768" lon="0.10283337">
        <time>2022-07-06T16:32:15Z</time>
      </trkpt>
      <trkpt lat="41.937645" lon="0.10289903">
        <time>2022-07-06T16:32:16Z</time>
      </trkpt>
      <trkpt lat="41.93761" lon="0.10296403">
        <time>2022-07-06T16:32:17Z</time>
      </trkpt>
      <trkpt lat="41.937542" lon="0.10309369">
        <time>2022-07-06T16:32:19Z</time>
      </trkpt>
      <trkpt lat="41.937508" lon="0.10315802">
        <time>2022-07-06T16:32:20Z</time>
      </trkpt>
      <trkpt lat="41.937473" lon="0.10322235">
        <time>2022-07-06T16:32:21Z</time>
      </trkpt>
      <trkpt lat="41.93744" lon="0.10328601">
        <time>2022-07-06T16:32:22Z</time>
      </trkpt>
      <trkpt lat="41.937405" lon="0.10335034">
        <time>2022-07-06T16:32:23Z</time>
      </trkpt>
      <trkpt lat="41.93737" lon="0.10342034">
        <time>2022-07-06T16:32:24Z</time>
      </trkpt>
      <trkpt lat="41.937336" lon="0.10348467">
        <time>2022-07-06T16:32:25Z</time>
      </trkpt>
      <trkpt lat="41.9373" lon="0.10355">
        <time>2022-07-06T16:32:26Z</time>
      </trkpt>
      <trkpt lat="41.937267" lon="0.103615">
        <time>2022-07-06T16:32:27Z</time>
      </trkpt>
      <trkpt lat="41.937233" lon="0.103679">
        <time>2022-07-06T16:32:28Z</time>
      </trkpt>
      <trkpt lat="41.9372" lon="0.10374333">
        <time>2022-07-06T16:32:29Z</time>
      </trkpt>
      <trkpt lat="41.937164" lon="0.10380733">
        <time>2022-07-06T16:32:30Z</time>
      </trkpt>
      <trkpt lat="41.937134" lon="0.10386633">
        <time>2022-07-06T16:32:31Z</time>
      </trkpt>
      <trkpt lat="41.9371" lon="0.10393099">
        <time>2022-07-06T16:32:32Z</time>
      </trkpt>
      <trkpt lat="41.93706" lon="0.10399499">
        <time>2022-07-06T16:32:33Z</time>
      </trkpt>
      <trkpt lat="41.93703" lon="0.10405865">
        <time>2022-07-06T16:32:34Z</time>
      </trkpt>
      <trkpt lat="41.936996" lon="0.10412131">
        <time>2022-07-06T16:32:35Z</time>
      </trkpt>
      <trkpt lat="41.936966" lon="0.10418431">
        <time>2022-07-06T16:32:36Z</time>
      </trkpt>
      <trkpt lat="41.93693" lon="0.10424731">
        <time>2022-07-06T16:32:37Z</time>
      </trkpt>
      <trkpt lat="41.9369" lon="0.10431131">
        <time>2022-07-06T16:32:38Z</time>
      </trkpt>
      <trkpt lat="41.93687" lon="0.10437631">
        <time>2022-07-06T16:32:39Z</time>
      </trkpt>
      <trkpt lat="41.93684" lon="0.10443997">
        <time>2022-07-06T16:32:40Z</time>
      </trkpt>
      <trkpt lat="41.93681" lon="0.10450497">
        <time>2022-07-06T16:32:41Z</time>
      </trkpt>
      <trkpt lat="41.936783" lon="0.10456997">
        <time>2022-07-06T16:32:42Z</time>
      </trkpt>
      <trkpt lat="41.93675" lon="0.10463297">
        <time>2022-07-06T16:32:43Z</time>
      </trkpt>
      <trkpt lat="41.936714" lon="0.1046943">
        <time>2022-07-06T16:32:44Z</time>
      </trkpt>
      <trkpt lat="41.93668" lon="0.10475463">
        <time>2022-07-06T16:32:45Z</time>
      </trkpt>
      <trkpt lat="41.936646" lon="0.10481496">
        <time>2022-07-06T16:32:46Z</time>
      </trkpt>
      <trkpt lat="41.936607" lon="0.10487362">
        <time>2022-07-06T16:32:47Z</time>
      </trkpt>
      <trkpt lat="41.936573" lon="0.10492962">
        <time>2022-07-06T16:32:48Z</time>
      </trkpt>
      <trkpt lat="41.936535" lon="0.10498628">
        <time>2022-07-06T16:32:49Z</time>
      </trkpt>
      <trkpt lat="41.9365" lon="0.10503828">
        <time>2022-07-06T16:32:50Z</time>
      </trkpt>
      <trkpt lat="41.936462" lon="0.10509461">
        <time>2022-07-06T16:32:51Z</time>
      </trkpt>
      <trkpt lat="41.936428" lon="0.10515061">
        <time>2022-07-06T16:32:52Z</time>
      </trkpt>
      <trkpt lat="41.93639" lon="0.10520661">
        <time>2022-07-06T16:32:53Z</time>
      </trkpt>
      <trkpt lat="41.936356" lon="0.10526261">
        <time>2022-07-06T16:32:54Z</time>
      </trkpt>
      <trkpt lat="41.936287" lon="0.10536994">
        <time>2022-07-06T16:32:56Z</time>
      </trkpt>
      <trkpt lat="41.936253" lon="0.10542194">
        <time>2022-07-06T16:32:57Z</time>
      </trkpt>
      <trkpt lat="41.93622" lon="0.10547327">
        <time>2022-07-06T16:32:58Z</time>
      </trkpt>
      <trkpt lat="41.936184" lon="0.1055246">
        <time>2022-07-06T16:32:59Z</time>
      </trkpt>
      <trkpt lat="41.93615" lon="0.10557626">
        <time>2022-07-06T16:33:00Z</time>
      </trkpt>
      <trkpt lat="41.93608" lon="0.10567392">
        <time>2022-07-06T16:33:02Z</time>
      </trkpt>
      <trkpt lat="41.936016" lon="0.10577658">
        <time>2022-07-06T16:33:04Z</time>
      </trkpt>
      <trkpt lat="41.93598" lon="0.10582858">
        <time>2022-07-06T16:33:05Z</time>
      </trkpt>
      <trkpt lat="41.935913" lon="0.10592924">
        <time>2022-07-06T16:33:07Z</time>
      </trkpt>
      <trkpt lat="41.93585" lon="0.10602957">
        <time>2022-07-06T16:33:09Z</time>
      </trkpt>
      <trkpt lat="41.93581" lon="0.10607957">
        <time>2022-07-06T16:33:10Z</time>
      </trkpt>
      <trkpt lat="41.93574" lon="0.1061799">
        <time>2022-07-06T16:33:12Z</time>
      </trkpt>
      <trkpt lat="41.935707" lon="0.1062309">
        <time>2022-07-06T16:33:13Z</time>
      </trkpt>
      <trkpt lat="41.93567" lon="0.1062829">
        <time>2022-07-06T16:33:14Z</time>
      </trkpt>
      <trkpt lat="41.935562" lon="0.10644123">
        <time>2022-07-06T16:33:17Z</time>
      </trkpt>
      <trkpt lat="41.935528" lon="0.10649823">
        <time>2022-07-06T16:33:18Z</time>
      </trkpt>
      <trkpt lat="41.93549" lon="0.10655989">
        <time>2022-07-06T16:33:19Z</time>
      </trkpt>
      <trkpt lat="41.93545" lon="0.10661622">
        <time>2022-07-06T16:33:20Z</time>
      </trkpt>
      <trkpt lat="41.93542" lon="0.10666822">
        <time>2022-07-06T16:33:21Z</time>
      </trkpt>
      <trkpt lat="41.935383" lon="0.10672588">
        <time>2022-07-06T16:33:22Z</time>
      </trkpt>
      <trkpt lat="41.935345" lon="0.10678288">
        <time>2022-07-06T16:33:23Z</time>
      </trkpt>
      <trkpt lat="41.935303" lon="0.10683988">
        <time>2022-07-06T16:33:24Z</time>
      </trkpt>
      <trkpt lat="41.935265" lon="0.10689621">
        <time>2022-07-06T16:33:25Z</time>
      </trkpt>
      <trkpt lat="41.935226" lon="0.10695254">
        <time>2022-07-06T16:33:26Z</time>
      </trkpt>
      <trkpt lat="41.93519" lon="0.10700554">
        <time>2022-07-06T16:33:27Z</time>
      </trkpt>
      <trkpt lat="41.935146" lon="0.10706254">
        <time>2022-07-06T16:33:28Z</time>
      </trkpt>
      <trkpt lat="41.93511" lon="0.1071212">
        <time>2022-07-06T16:33:29Z</time>
      </trkpt>
      <trkpt lat="41.935066" lon="0.10717986">
        <time>2022-07-06T16:33:30Z</time>
      </trkpt>
      <trkpt lat="41.93503" lon="0.10723786">
        <time>2022-07-06T16:33:31Z</time>
      </trkpt>
      <trkpt lat="41.934994" lon="0.10729586">
        <time>2022-07-06T16:33:32Z</time>
      </trkpt>
      <trkpt lat="41.934956" lon="0.10735419">
        <time>2022-07-06T16:33:33Z</time>
      </trkpt>
      <trkpt lat="41.934917" lon="0.10741185">
        <time>2022-07-06T16:33:34Z</time>
      </trkpt>
      <trkpt lat="41.934883" lon="0.10746918">
        <time>2022-07-06T16:33:35Z</time>
      </trkpt>
      <trkpt lat="41.934845" lon="0.10752684">
        <time>2022-07-06T16:33:36Z</time>
      </trkpt>
      <trkpt lat="41.934807" lon="0.10758484">
        <time>2022-07-06T16:33:37Z</time>
      </trkpt>
      <trkpt lat="41.93477" lon="0.1076415">
        <time>2022-07-06T16:33:38Z</time>
      </trkpt>
      <trkpt lat="41.934727" lon="0.1076985">
        <time>2022-07-06T16:33:39Z</time>
      </trkpt>
      <trkpt lat="41.93469" lon="0.10775516">
        <time>2022-07-06T16:33:40Z</time>
      </trkpt>
      <trkpt lat="41.93465" lon="0.10781216">
        <time>2022-07-06T16:33:41Z</time>
      </trkpt>
      <trkpt lat="41.934612" lon="0.10786982">
        <time>2022-07-06T16:33:42Z</time>
      </trkpt>
      <trkpt lat="41.934578" lon="0.10792382">
        <time>2022-07-06T16:33:43Z</time>
      </trkpt>
      <trkpt lat="41.934536" lon="0.10798448">
        <time>2022-07-06T16:33:44Z</time>
      </trkpt>
      <trkpt lat="41.934498" lon="0.10804348">
        <time>2022-07-06T16:33:45Z</time>
      </trkpt>
      <trkpt lat="41.93446" lon="0.10810248">
        <time>2022-07-06T16:33:46Z</time>
      </trkpt>
      <trkpt lat="41.93442" lon="0.10816114">
        <time>2022-07-06T16:33:47Z</time>
      </trkpt>
      <trkpt lat="41.934383" lon="0.10822047">
        <time>2022-07-06T16:33:48Z</time>
      </trkpt>
      <trkpt lat="41.934345" lon="0.1082788">
        <time>2022-07-06T16:33:49Z</time>
      </trkpt>
      <trkpt lat="41.934307" lon="0.10833646">
        <time>2022-07-06T16:33:50Z</time>
      </trkpt>
      <trkpt lat="41.93427" lon="0.10839346">
        <time>2022-07-06T16:33:51Z</time>
      </trkpt>
      <trkpt lat="41.934196" lon="0.10850712">
        <time>2022-07-06T16:33:53Z</time>
      </trkpt>
      <trkpt lat="41.934162" lon="0.10856245">
        <time>2022-07-06T16:33:54Z</time>
      </trkpt>
      <trkpt lat="41.934124" lon="0.10861745">
        <time>2022-07-06T16:33:55Z</time>
      </trkpt>
      <trkpt lat="41.93409" lon="0.10867145">
        <time>2022-07-06T16:33:56Z</time>
      </trkpt>
      <trkpt lat="41.93405" lon="0.10872445">
        <time>2022-07-06T16:33:57Z</time>
      </trkpt>
      <trkpt lat="41.934017" lon="0.10877311">
        <time>2022-07-06T16:33:58Z</time>
      </trkpt>
      <trkpt lat="41.933952" lon="0.10887044">
        <time>2022-07-06T16:34:00Z</time>
      </trkpt>
      <trkpt lat="41.933887" lon="0.10896577">
        <time>2022-07-06T16:34:02Z</time>
      </trkpt>
      <trkpt lat="41.933826" lon="0.1090601">
        <time>2022-07-06T16:34:04Z</time>
      </trkpt>
      <trkpt lat="41.93376" lon="0.10915343">
        <time>2022-07-06T16:34:06Z</time>
      </trkpt>
      <trkpt lat="41.9337" lon="0.10924643">
        <time>2022-07-06T16:34:08Z</time>
      </trkpt>
      <trkpt lat="41.93364" lon="0.10934009">
        <time>2022-07-06T16:34:10Z</time>
      </trkpt>
      <trkpt lat="41.93361" lon="0.10938709">
        <time>2022-07-06T16:34:11Z</time>
      </trkpt>
      <trkpt lat="41.933548" lon="0.10947909">
        <time>2022-07-06T16:34:13Z</time>
      </trkpt>
      <trkpt lat="41.933487" lon="0.10956942">
        <time>2022-07-06T16:34:15Z</time>
      </trkpt>
      <trkpt lat="41.933422" lon="0.10966342">
        <time>2022-07-06T16:34:17Z</time>
      </trkpt>
      <trkpt lat="41.933365" lon="0.10975375">
        <time>2022-07-06T16:34:19Z</time>
      </trkpt>
      <trkpt lat="41.933304" lon="0.10984841">
        <time>2022-07-06T16:34:21Z</time>
      </trkpt>
      <trkpt lat="41.933273" lon="0.10989574">
        <time>2022-07-06T16:34:22Z</time>
      </trkpt>
      <trkpt lat="41.93321" lon="0.10999107">
        <time>2022-07-06T16:34:24Z</time>
      </trkpt>
      <trkpt lat="41.933144" lon="0.11008607">
        <time>2022-07-06T16:34:26Z</time>
      </trkpt>
      <trkpt lat="41.933075" lon="0.11018207">
        <time>2022-07-06T16:34:28Z</time>
      </trkpt>
      <trkpt lat="41.933014" lon="0.11028373">
        <time>2022-07-06T16:34:30Z</time>
      </trkpt>
      <trkpt lat="41.93295" lon="0.11038073">
        <time>2022-07-06T16:34:32Z</time>
      </trkpt>
      <trkpt lat="41.932915" lon="0.11042806">
        <time>2022-07-06T16:34:33Z</time>
      </trkpt>
      <trkpt lat="41.93285" lon="0.11052339">
        <time>2022-07-06T16:34:35Z</time>
      </trkpt>
      <trkpt lat="41.93278" lon="0.11061772">
        <time>2022-07-06T16:34:37Z</time>
      </trkpt>
      <trkpt lat="41.932747" lon="0.11066805">
        <time>2022-07-06T16:34:38Z</time>
      </trkpt>
      <trkpt lat="41.932682" lon="0.11076071">
        <time>2022-07-06T16:34:40Z</time>
      </trkpt>
      <trkpt lat="41.932613" lon="0.11085471">
        <time>2022-07-06T16:34:42Z</time>
      </trkpt>
      <trkpt lat="41.93258" lon="0.11090571">
        <time>2022-07-06T16:34:43Z</time>
      </trkpt>
      <trkpt lat="41.93254" lon="0.11095571">
        <time>2022-07-06T16:34:44Z</time>
      </trkpt>
      <trkpt lat="41.93248" lon="0.11105237">
        <time>2022-07-06T16:34:46Z</time>
      </trkpt>
      <trkpt lat="41.932415" lon="0.11114937">
        <time>2022-07-06T16:34:48Z</time>
      </trkpt>
      <trkpt lat="41.93238" lon="0.1111997">
        <time>2022-07-06T16:34:49Z</time>
      </trkpt>
      <trkpt lat="41.932316" lon="0.11130336">
        <time>2022-07-06T16:34:51Z</time>
      </trkpt>
      <trkpt lat="41.93228" lon="0.11135902">
        <time>2022-07-06T16:34:52Z</time>
      </trkpt>
      <trkpt lat="41.932243" lon="0.11141402">
        <time>2022-07-06T16:34:53Z</time>
      </trkpt>
      <trkpt lat="41.93221" lon="0.11146902">
        <time>2022-07-06T16:34:54Z</time>
      </trkpt>
      <trkpt lat="41.932137" lon="0.11157835">
        <time>2022-07-06T16:34:56Z</time>
      </trkpt>
      <trkpt lat="41.9321" lon="0.11163235">
        <time>2022-07-06T16:34:57Z</time>
      </trkpt>
      <trkpt lat="41.93206" lon="0.11168668">
        <time>2022-07-06T16:34:58Z</time>
      </trkpt>
      <trkpt lat="41.932026" lon="0.11174201">
        <time>2022-07-06T16:34:59Z</time>
      </trkpt>
      <trkpt lat="41.931988" lon="0.11179901">
        <time>2022-07-06T16:35:00Z</time>
      </trkpt>
      <trkpt lat="41.93195" lon="0.11185901">
        <time>2022-07-06T16:35:01Z</time>
      </trkpt>
      <trkpt lat="41.93191" lon="0.11191834">
        <time>2022-07-06T16:35:02Z</time>
      </trkpt>
      <trkpt lat="41.931873" lon="0.11197734">
        <time>2022-07-06T16:35:03Z</time>
      </trkpt>
      <trkpt lat="41.931835" lon="0.11203534">
        <time>2022-07-06T16:35:04Z</time>
      </trkpt>
      <trkpt lat="41.931793" lon="0.11209367">
        <time>2022-07-06T16:35:05Z</time>
      </trkpt>
      <trkpt lat="41.931755" lon="0.11215033">
        <time>2022-07-06T16:35:06Z</time>
      </trkpt>
      <trkpt lat="41.931717" lon="0.11220699">
        <time>2022-07-06T16:35:07Z</time>
      </trkpt>
      <trkpt lat="41.93168" lon="0.11226265">
        <time>2022-07-06T16:35:08Z</time>
      </trkpt>
      <trkpt lat="41.93164" lon="0.11231898">
        <time>2022-07-06T16:35:09Z</time>
      </trkpt>
      <trkpt lat="41.931602" lon="0.11237564">
        <time>2022-07-06T16:35:10Z</time>
      </trkpt>
      <trkpt lat="41.931564" lon="0.1124323">
        <time>2022-07-06T16:35:11Z</time>
      </trkpt>
      <trkpt lat="41.93153" lon="0.1124883">
        <time>2022-07-06T16:35:12Z</time>
      </trkpt>
      <trkpt lat="41.931496" lon="0.11254663">
        <time>2022-07-06T16:35:13Z</time>
      </trkpt>
      <trkpt lat="41.93146" lon="0.11260663">
        <time>2022-07-06T16:35:14Z</time>
      </trkpt>
      <trkpt lat="41.931427" lon="0.11266796">
        <time>2022-07-06T16:35:15Z</time>
      </trkpt>
      <trkpt lat="41.931393" lon="0.11272629">
        <time>2022-07-06T16:35:16Z</time>
      </trkpt>
      <trkpt lat="41.93136" lon="0.11278095">
        <time>2022-07-06T16:35:17Z</time>
      </trkpt>
      <trkpt lat="41.931324" lon="0.11283328">
        <time>2022-07-06T16:35:18Z</time>
      </trkpt>
      <trkpt lat="41.93129" lon="0.11288394">
        <time>2022-07-06T16:35:19Z</time>
      </trkpt>
      <trkpt lat="41.931225" lon="0.11298294">
        <time>2022-07-06T16:35:21Z</time>
      </trkpt>
      <trkpt lat="41.93116" lon="0.11307827">
        <time>2022-07-06T16:35:23Z</time>
      </trkpt>
      <trkpt lat="41.93113" lon="0.11312393">
        <time>2022-07-06T16:35:24Z</time>
      </trkpt>
      <trkpt lat="41.931065" lon="0.11321859">
        <time>2022-07-06T16:35:26Z</time>
      </trkpt>
      <trkpt lat="41.931007" lon="0.11331259">
        <time>2022-07-06T16:35:28Z</time>
      </trkpt>
      <trkpt lat="41.930946" lon="0.11340159">
        <time>2022-07-06T16:35:30Z</time>
      </trkpt>
      <trkpt lat="41.93088" lon="0.11349392">
        <time>2022-07-06T16:35:32Z</time>
      </trkpt>
      <trkpt lat="41.930817" lon="0.11358925">
        <time>2022-07-06T16:35:34Z</time>
      </trkpt>
      <trkpt lat="41.930786" lon="0.11363825">
        <time>2022-07-06T16:35:35Z</time>
      </trkpt>
      <trkpt lat="41.93072" lon="0.11373691">
        <time>2022-07-06T16:35:37Z</time>
      </trkpt>
      <trkpt lat="41.930687" lon="0.11378691">
        <time>2022-07-06T16:35:38Z</time>
      </trkpt>
      <trkpt lat="41.930622" lon="0.11388991">
        <time>2022-07-06T16:35:40Z</time>
      </trkpt>
      <trkpt lat="41.930588" lon="0.11394291">
        <time>2022-07-06T16:35:41Z</time>
      </trkpt>
      <trkpt lat="41.930523" lon="0.11404857">
        <time>2022-07-06T16:35:43Z</time>
      </trkpt>
      <trkpt lat="41.93049" lon="0.11410157">
        <time>2022-07-06T16:35:44Z</time>
      </trkpt>
      <trkpt lat="41.930454" lon="0.1141549">
        <time>2022-07-06T16:35:45Z</time>
      </trkpt>
      <trkpt lat="41.93042" lon="0.1142129">
        <time>2022-07-06T16:35:46Z</time>
      </trkpt>
      <trkpt lat="41.930386" lon="0.11426656">
        <time>2022-07-06T16:35:47Z</time>
      </trkpt>
      <trkpt lat="41.93035" lon="0.11432056">
        <time>2022-07-06T16:35:48Z</time>
      </trkpt>
      <trkpt lat="41.930313" lon="0.11437556">
        <time>2022-07-06T16:35:49Z</time>
      </trkpt>
      <trkpt lat="41.93028" lon="0.11443156">
        <time>2022-07-06T16:35:50Z</time>
      </trkpt>
      <trkpt lat="41.93024" lon="0.11448822">
        <time>2022-07-06T16:35:51Z</time>
      </trkpt>
      <trkpt lat="41.930206" lon="0.11454388">
        <time>2022-07-06T16:35:52Z</time>
      </trkpt>
      <trkpt lat="41.93017" lon="0.11459954">
        <time>2022-07-06T16:35:53Z</time>
      </trkpt>
      <trkpt lat="41.93013" lon="0.11465454">
        <time>2022-07-06T16:35:54Z</time>
      </trkpt>
      <trkpt lat="41.93009" lon="0.1147142">
        <time>2022-07-06T16:35:55Z</time>
      </trkpt>
      <trkpt lat="41.930054" lon="0.1147702">
        <time>2022-07-06T16:35:56Z</time>
      </trkpt>
      <trkpt lat="41.92998" lon="0.1148822">
        <time>2022-07-06T16:35:58Z</time>
      </trkpt>
      <trkpt lat="41.929943" lon="0.1149372">
        <time>2022-07-06T16:35:59Z</time>
      </trkpt>
      <trkpt lat="41.929905" lon="0.11499186">
        <time>2022-07-06T16:36:00Z</time>
      </trkpt>
      <trkpt lat="41.929867" lon="0.11504686">
        <time>2022-07-06T16:36:01Z</time>
      </trkpt>
      <trkpt lat="41.92983" lon="0.11510252">
        <time>2022-07-06T16:36:02Z</time>
      </trkpt>
      <trkpt lat="41.929794" lon="0.11515885">
        <time>2022-07-06T16:36:03Z</time>
      </trkpt>
      <trkpt lat="41.929756" lon="0.11521551">
        <time>2022-07-06T16:36:04Z</time>
      </trkpt>
      <trkpt lat="41.929718" lon="0.11527151">
        <time>2022-07-06T16:36:05Z</time>
      </trkpt>
      <trkpt lat="41.929684" lon="0.11532717">
        <time>2022-07-06T16:36:06Z</time>
      </trkpt>
      <trkpt lat="41.92965" lon="0.11538317">
        <time>2022-07-06T16:36:07Z</time>
      </trkpt>
      <trkpt lat="41.92961" lon="0.11543783">
        <time>2022-07-06T16:36:08Z</time>
      </trkpt>
      <trkpt lat="41.929577" lon="0.11549083">
        <time>2022-07-06T16:36:09Z</time>
      </trkpt>
      <trkpt lat="41.92954" lon="0.11554249">
        <time>2022-07-06T16:36:10Z</time>
      </trkpt>
      <trkpt lat="41.929504" lon="0.11559449">
        <time>2022-07-06T16:36:11Z</time>
      </trkpt>
      <trkpt lat="41.929466" lon="0.11564715">
        <time>2022-07-06T16:36:12Z</time>
      </trkpt>
      <trkpt lat="41.929432" lon="0.11569915">
        <time>2022-07-06T16:36:13Z</time>
      </trkpt>
      <trkpt lat="41.929398" lon="0.11575248">
        <time>2022-07-06T16:36:14Z</time>
      </trkpt>
      <trkpt lat="41.929363" lon="0.11580548">
        <time>2022-07-06T16:36:15Z</time>
      </trkpt>
      <trkpt lat="41.92929" lon="0.11590914">
        <time>2022-07-06T16:36:17Z</time>
      </trkpt>
      <trkpt lat="41.92926" lon="0.11596114">
        <time>2022-07-06T16:36:18Z</time>
      </trkpt>
      <trkpt lat="41.929226" lon="0.11601314">
        <time>2022-07-06T16:36:19Z</time>
      </trkpt>
      <trkpt lat="41.929165" lon="0.11611314">
        <time>2022-07-06T16:36:21Z</time>
      </trkpt>
      <trkpt lat="41.9291" lon="0.11621047">
        <time>2022-07-06T16:36:23Z</time>
      </trkpt>
      <trkpt lat="41.92907" lon="0.1162588">
        <time>2022-07-06T16:36:24Z</time>
      </trkpt>
      <trkpt lat="41.929" lon="0.1163588">
        <time>2022-07-06T16:36:26Z</time>
      </trkpt>
      <trkpt lat="41.928932" lon="0.11646013">
        <time>2022-07-06T16:36:28Z</time>
      </trkpt>
      <trkpt lat="41.928864" lon="0.11655946">
        <time>2022-07-06T16:36:30Z</time>
      </trkpt>
      <trkpt lat="41.92883" lon="0.11660979">
        <time>2022-07-06T16:36:31Z</time>
      </trkpt>
      <trkpt lat="41.92877" lon="0.11670979">
        <time>2022-07-06T16:36:33Z</time>
      </trkpt>
      <trkpt lat="41.928707" lon="0.11680545">
        <time>2022-07-06T16:36:35Z</time>
      </trkpt>
      <trkpt lat="41.928646" lon="0.11689745">
        <time>2022-07-06T16:36:37Z</time>
      </trkpt>
      <trkpt lat="41.92859" lon="0.11698078">
        <time>2022-07-06T16:36:39Z</time>
      </trkpt>
      <trkpt lat="41.928528" lon="0.11706878">
        <time>2022-07-06T16:36:41Z</time>
      </trkpt>
      <trkpt lat="41.928467" lon="0.11716011">
        <time>2022-07-06T16:36:43Z</time>
      </trkpt>
      <trkpt lat="41.928406" lon="0.11725111">
        <time>2022-07-06T16:36:45Z</time>
      </trkpt>
      <trkpt lat="41.928345" lon="0.11734344">
        <time>2022-07-06T16:36:47Z</time>
      </trkpt>
      <trkpt lat="41.928314" lon="0.11739044">
        <time>2022-07-06T16:36:48Z</time>
      </trkpt>
      <trkpt lat="41.92825" lon="0.11748244">
        <time>2022-07-06T16:36:50Z</time>
      </trkpt>
      <trkpt lat="41.928185" lon="0.1175761">
        <time>2022-07-06T16:36:52Z</time>
      </trkpt>
      <trkpt lat="41.92812" lon="0.1176701">
        <time>2022-07-06T16:36:54Z</time>
      </trkpt>
      <trkpt lat="41.92806" lon="0.11776576">
        <time>2022-07-06T16:36:56Z</time>
      </trkpt>
      <trkpt lat="41.927998" lon="0.11786342">
        <time>2022-07-06T16:36:58Z</time>
      </trkpt>
      <trkpt lat="41.927963" lon="0.11791175">
        <time>2022-07-06T16:36:59Z</time>
      </trkpt>
      <trkpt lat="41.927906" lon="0.11800141">
        <time>2022-07-06T16:37:01Z</time>
      </trkpt>
      <trkpt lat="41.927853" lon="0.11808441">
        <time>2022-07-06T16:37:03Z</time>
      </trkpt>
      <trkpt lat="41.9278" lon="0.11816407">
        <time>2022-07-06T16:37:05Z</time>
      </trkpt>
      <trkpt lat="41.927746" lon="0.11824007">
        <time>2022-07-06T16:37:07Z</time>
      </trkpt>
      <trkpt lat="41.9277" lon="0.11831073">
        <time>2022-07-06T16:37:09Z</time>
      </trkpt>
      <trkpt lat="41.92765" lon="0.11838606">
        <time>2022-07-06T16:37:11Z</time>
      </trkpt>
      <trkpt lat="41.927605" lon="0.11844806">
        <time>2022-07-06T16:37:13Z</time>
      </trkpt>
      <trkpt lat="41.927563" lon="0.11848272">
        <time>2022-07-06T16:37:15Z</time>
      </trkpt>
      <trkpt lat="41.927525" lon="0.11850305">
        <time>2022-07-06T16:37:18Z</time>
      </trkpt>
      <trkpt lat="41.927467" lon="0.11860405">
        <time>2022-07-06T16:41:24Z</time>
      </trkpt>
      <trkpt lat="41.927425" lon="0.11867338">
        <time>2022-07-06T16:41:26Z</time>
      </trkpt>
      <trkpt lat="41.927376" lon="0.11875504">
        <time>2022-07-06T16:41:28Z</time>
      </trkpt>
      <trkpt lat="41.92732" lon="0.1188447">
        <time>2022-07-06T16:41:30Z</time>
      </trkpt>
      <trkpt lat="41.927258" lon="0.11893936">
        <time>2022-07-06T16:41:32Z</time>
      </trkpt>
      <trkpt lat="41.927223" lon="0.11898902">
        <time>2022-07-06T16:41:33Z</time>
      </trkpt>
      <trkpt lat="41.92715" lon="0.11909335">
        <time>2022-07-06T16:41:35Z</time>
      </trkpt>
      <trkpt lat="41.927113" lon="0.11914935">
        <time>2022-07-06T16:41:36Z</time>
      </trkpt>
      <trkpt lat="41.92707" lon="0.11920735">
        <time>2022-07-06T16:41:37Z</time>
      </trkpt>
      <trkpt lat="41.927032" lon="0.11926701">
        <time>2022-07-06T16:41:38Z</time>
      </trkpt>
      <trkpt lat="41.92699" lon="0.11932867">
        <time>2022-07-06T16:41:39Z</time>
      </trkpt>
      <trkpt lat="41.92695" lon="0.11939167">
        <time>2022-07-06T16:41:40Z</time>
      </trkpt>
      <trkpt lat="41.926907" lon="0.119456">
        <time>2022-07-06T16:41:41Z</time>
      </trkpt>
      <trkpt lat="41.926865" lon="0.11952">
        <time>2022-07-06T16:41:42Z</time>
      </trkpt>
      <trkpt lat="41.926826" lon="0.11958433">
        <time>2022-07-06T16:41:43Z</time>
      </trkpt>
      <trkpt lat="41.926785" lon="0.11964833">
        <time>2022-07-06T16:41:44Z</time>
      </trkpt>
      <trkpt lat="41.926746" lon="0.11971266">
        <time>2022-07-06T16:41:45Z</time>
      </trkpt>
      <trkpt lat="41.926704" lon="0.11977732">
        <time>2022-07-06T16:41:46Z</time>
      </trkpt>
      <trkpt lat="41.92666" lon="0.11984232">
        <time>2022-07-06T16:41:47Z</time>
      </trkpt>
      <trkpt lat="41.926617" lon="0.11990798">
        <time>2022-07-06T16:41:48Z</time>
      </trkpt>
      <trkpt lat="41.926575" lon="0.11997431">
        <time>2022-07-06T16:41:49Z</time>
      </trkpt>
      <trkpt lat="41.926533" lon="0.12004097">
        <time>2022-07-06T16:41:50Z</time>
      </trkpt>
      <trkpt lat="41.926487" lon="0.12010663">
        <time>2022-07-06T16:41:51Z</time>
      </trkpt>
      <trkpt lat="41.92644" lon="0.12017296">
        <time>2022-07-06T16:41:52Z</time>
      </trkpt>
      <trkpt lat="41.9264" lon="0.12024129">
        <time>2022-07-06T16:41:53Z</time>
      </trkpt>
      <trkpt lat="41.926353" lon="0.12031062">
        <time>2022-07-06T16:41:54Z</time>
      </trkpt>
      <trkpt lat="41.92631" lon="0.12038028">
        <time>2022-07-06T16:41:55Z</time>
      </trkpt>
      <trkpt lat="41.926266" lon="0.12044928">
        <time>2022-07-06T16:41:56Z</time>
      </trkpt>
      <trkpt lat="41.92622" lon="0.12051828">
        <time>2022-07-06T16:41:57Z</time>
      </trkpt>
      <trkpt lat="41.926174" lon="0.12058628">
        <time>2022-07-06T16:41:58Z</time>
      </trkpt>
      <trkpt lat="41.92613" lon="0.12065561">
        <time>2022-07-06T16:41:59Z</time>
      </trkpt>
      <trkpt lat="41.926083" lon="0.12072594">
        <time>2022-07-06T16:42:00Z</time>
      </trkpt>
      <trkpt lat="41.926037" lon="0.12079527">
        <time>2022-07-06T16:42:01Z</time>
      </trkpt>
      <trkpt lat="41.92599" lon="0.1208656">
        <time>2022-07-06T16:42:02Z</time>
      </trkpt>
      <trkpt lat="41.925945" lon="0.12093526">
        <time>2022-07-06T16:42:03Z</time>
      </trkpt>
      <trkpt lat="41.9259" lon="0.12100526">
        <time>2022-07-06T16:42:04Z</time>
      </trkpt>
      <trkpt lat="41.92585" lon="0.12107492">
        <time>2022-07-06T16:42:05Z</time>
      </trkpt>
      <trkpt lat="41.925804" lon="0.12114358">
        <time>2022-07-06T16:42:06Z</time>
      </trkpt>
      <trkpt lat="41.92576" lon="0.12121158">
        <time>2022-07-06T16:42:07Z</time>
      </trkpt>
      <trkpt lat="41.925713" lon="0.12127991">
        <time>2022-07-06T16:42:08Z</time>
      </trkpt>
      <trkpt lat="41.925625" lon="0.12141524">
        <time>2022-07-06T16:42:10Z</time>
      </trkpt>
      <trkpt lat="41.92558" lon="0.12148324">
        <time>2022-07-06T16:42:11Z</time>
      </trkpt>
      <trkpt lat="41.925533" lon="0.12155157">
        <time>2022-07-06T16:42:12Z</time>
      </trkpt>
      <trkpt lat="41.925488" lon="0.12161923">
        <time>2022-07-06T16:42:13Z</time>
      </trkpt>
      <trkpt lat="41.925446" lon="0.12168689">
        <time>2022-07-06T16:42:14Z</time>
      </trkpt>
      <trkpt lat="41.925404" lon="0.12175389">
        <time>2022-07-06T16:42:15Z</time>
      </trkpt>
      <trkpt lat="41.92536" lon="0.12182022">
        <time>2022-07-06T16:42:16Z</time>
      </trkpt>
      <trkpt lat="41.92532" lon="0.12188555">
        <time>2022-07-06T16:42:17Z</time>
      </trkpt>
      <trkpt lat="41.925278" lon="0.12195088">
        <time>2022-07-06T16:42:18Z</time>
      </trkpt>
      <trkpt lat="41.925236" lon="0.12201588">
        <time>2022-07-06T16:42:19Z</time>
      </trkpt>
      <trkpt lat="41.925194" lon="0.12208154">
        <time>2022-07-06T16:42:20Z</time>
      </trkpt>
      <trkpt lat="41.92515" lon="0.12214654">
        <time>2022-07-06T16:42:21Z</time>
      </trkpt>
      <trkpt lat="41.92511" lon="0.1222102">
        <time>2022-07-06T16:42:22Z</time>
      </trkpt>
      <trkpt lat="41.925068" lon="0.1222732">
        <time>2022-07-06T16:42:23Z</time>
      </trkpt>
      <trkpt lat="41.925026" lon="0.1223372">
        <time>2022-07-06T16:42:24Z</time>
      </trkpt>
      <trkpt lat="41.924984" lon="0.12240053">
        <time>2022-07-06T16:42:25Z</time>
      </trkpt>
      <trkpt lat="41.924942" lon="0.12246486">
        <time>2022-07-06T16:42:26Z</time>
      </trkpt>
      <trkpt lat="41.9249" lon="0.12252852">
        <time>2022-07-06T16:42:27Z</time>
      </trkpt>
      <trkpt lat="41.924862" lon="0.12259218">
        <time>2022-07-06T16:42:28Z</time>
      </trkpt>
      <trkpt lat="41.924824" lon="0.12265518">
        <time>2022-07-06T16:42:29Z</time>
      </trkpt>
      <trkpt lat="41.92478" lon="0.12271784">
        <time>2022-07-06T16:42:30Z</time>
      </trkpt>
      <trkpt lat="41.924744" lon="0.12277884">
        <time>2022-07-06T16:42:31Z</time>
      </trkpt>
      <trkpt lat="41.9247" lon="0.12283917">
        <time>2022-07-06T16:42:32Z</time>
      </trkpt>
      <trkpt lat="41.924664" lon="0.12289817">
        <time>2022-07-06T16:42:33Z</time>
      </trkpt>
      <trkpt lat="41.92462" lon="0.1229575">
        <time>2022-07-06T16:42:34Z</time>
      </trkpt>
      <trkpt lat="41.92458" lon="0.12301783">
        <time>2022-07-06T16:42:35Z</time>
      </trkpt>
      <trkpt lat="41.92454" lon="0.12307883">
        <time>2022-07-06T16:42:36Z</time>
      </trkpt>
      <trkpt lat="41.9245" lon="0.12313983">
        <time>2022-07-06T16:42:37Z</time>
      </trkpt>
      <trkpt lat="41.92446" lon="0.12320016">
        <time>2022-07-06T16:42:38Z</time>
      </trkpt>
      <trkpt lat="41.924423" lon="0.12325949">
        <time>2022-07-06T16:42:39Z</time>
      </trkpt>
      <trkpt lat="41.924385" lon="0.12331849">
        <time>2022-07-06T16:42:40Z</time>
      </trkpt>
      <trkpt lat="41.924343" lon="0.12337715">
        <time>2022-07-06T16:42:41Z</time>
      </trkpt>
      <trkpt lat="41.924305" lon="0.12343581">
        <time>2022-07-06T16:42:42Z</time>
      </trkpt>
      <trkpt lat="41.924267" lon="0.12349547">
        <time>2022-07-06T16:42:43Z</time>
      </trkpt>
      <trkpt lat="41.92423" lon="0.12355747">
        <time>2022-07-06T16:42:44Z</time>
      </trkpt>
      <trkpt lat="41.92419" lon="0.12361913">
        <time>2022-07-06T16:42:45Z</time>
      </trkpt>
      <trkpt lat="41.924152" lon="0.12368113">
        <time>2022-07-06T16:42:46Z</time>
      </trkpt>
      <trkpt lat="41.924114" lon="0.12374313">
        <time>2022-07-06T16:42:47Z</time>
      </trkpt>
      <trkpt lat="41.924076" lon="0.12380479">
        <time>2022-07-06T16:42:48Z</time>
      </trkpt>
      <trkpt lat="41.924038" lon="0.12386545">
        <time>2022-07-06T16:42:49Z</time>
      </trkpt>
      <trkpt lat="41.923996" lon="0.12392578">
        <time>2022-07-06T16:42:50Z</time>
      </trkpt>
      <trkpt lat="41.923958" lon="0.12398544">
        <time>2022-07-06T16:42:51Z</time>
      </trkpt>
      <trkpt lat="41.92392" lon="0.1240451">
        <time>2022-07-06T16:42:52Z</time>
      </trkpt>
      <trkpt lat="41.923878" lon="0.12410376">
        <time>2022-07-06T16:42:53Z</time>
      </trkpt>
      <trkpt lat="41.92384" lon="0.12416676">
        <time>2022-07-06T16:42:54Z</time>
      </trkpt>
      <trkpt lat="41.9238" lon="0.12422442">
        <time>2022-07-06T16:42:55Z</time>
      </trkpt>
      <trkpt lat="41.923763" lon="0.12428175">
        <time>2022-07-06T16:42:56Z</time>
      </trkpt>
      <trkpt lat="41.923725" lon="0.12433875">
        <time>2022-07-06T16:42:57Z</time>
      </trkpt>
      <trkpt lat="41.923687" lon="0.12439475">
        <time>2022-07-06T16:42:58Z</time>
      </trkpt>
      <trkpt lat="41.92365" lon="0.12445075">
        <time>2022-07-06T16:42:59Z</time>
      </trkpt>
      <trkpt lat="41.923615" lon="0.12450708">
        <time>2022-07-06T16:43:00Z</time>
      </trkpt>
      <trkpt lat="41.923576" lon="0.12456374">
        <time>2022-07-06T16:43:01Z</time>
      </trkpt>
      <trkpt lat="41.92354" lon="0.1246184">
        <time>2022-07-06T16:43:02Z</time>
      </trkpt>
      <trkpt lat="41.9235" lon="0.12467406">
        <time>2022-07-06T16:43:03Z</time>
      </trkpt>
      <trkpt lat="41.923462" lon="0.12472972">
        <time>2022-07-06T16:43:04Z</time>
      </trkpt>
      <trkpt lat="41.923424" lon="0.12478705">
        <time>2022-07-06T16:43:05Z</time>
      </trkpt>
      <trkpt lat="41.923386" lon="0.12484438">
        <time>2022-07-06T16:43:06Z</time>
      </trkpt>
      <trkpt lat="41.923344" lon="0.12490171">
        <time>2022-07-06T16:43:07Z</time>
      </trkpt>
      <trkpt lat="41.923306" lon="0.12495937">
        <time>2022-07-06T16:43:08Z</time>
      </trkpt>
      <trkpt lat="41.923267" lon="0.1250167">
        <time>2022-07-06T16:43:09Z</time>
      </trkpt>
      <trkpt lat="41.923233" lon="0.12507236">
        <time>2022-07-06T16:43:10Z</time>
      </trkpt>
      <trkpt lat="41.923195" lon="0.12512802">
        <time>2022-07-06T16:43:11Z</time>
      </trkpt>
      <trkpt lat="41.923157" lon="0.12518468">
        <time>2022-07-06T16:43:12Z</time>
      </trkpt>
      <trkpt lat="41.92308" lon="0.1253">
        <time>2022-07-06T16:43:14Z</time>
      </trkpt>
      <trkpt lat="41.923042" lon="0.12535867">
        <time>2022-07-06T16:43:15Z</time>
      </trkpt>
      <trkpt lat="41.923004" lon="0.12541734">
        <time>2022-07-06T16:43:16Z</time>
      </trkpt>
      <trkpt lat="41.922962" lon="0.12547533">
        <time>2022-07-06T16:43:17Z</time>
      </trkpt>
      <trkpt lat="41.922924" lon="0.12553298">
        <time>2022-07-06T16:43:18Z</time>
      </trkpt>
      <trkpt lat="41.922882" lon="0.12559">
        <time>2022-07-06T16:43:19Z</time>
      </trkpt>
      <trkpt lat="41.922844" lon="0.12564732">
        <time>2022-07-06T16:43:20Z</time>
      </trkpt>
      <trkpt lat="41.922806" lon="0.12570465">
        <time>2022-07-06T16:43:21Z</time>
      </trkpt>
      <trkpt lat="41.922768" lon="0.12576231">
        <time>2022-07-06T16:43:22Z</time>
      </trkpt>
      <trkpt lat="41.922726" lon="0.12582365">
        <time>2022-07-06T16:43:23Z</time>
      </trkpt>
      <trkpt lat="41.922688" lon="0.12587897">
        <time>2022-07-06T16:43:24Z</time>
      </trkpt>
      <trkpt lat="41.922653" lon="0.1259343">
        <time>2022-07-06T16:43:25Z</time>
      </trkpt>
      <trkpt lat="41.922615" lon="0.1259883">
        <time>2022-07-06T16:43:26Z</time>
      </trkpt>
      <trkpt lat="41.92258" lon="0.1260433">
        <time>2022-07-06T16:43:27Z</time>
      </trkpt>
      <trkpt lat="41.922543" lon="0.12610362">
        <time>2022-07-06T16:43:28Z</time>
      </trkpt>
      <trkpt lat="41.92251" lon="0.12616163">
        <time>2022-07-06T16:43:29Z</time>
      </trkpt>
      <trkpt lat="41.92247" lon="0.12622096">
        <time>2022-07-06T16:43:30Z</time>
      </trkpt>
      <trkpt lat="41.922436" lon="0.12628062">
        <time>2022-07-06T16:43:31Z</time>
      </trkpt>
      <trkpt lat="41.922394" lon="0.12634295">
        <time>2022-07-06T16:43:32Z</time>
      </trkpt>
      <trkpt lat="41.922356" lon="0.12640294">
        <time>2022-07-06T16:43:33Z</time>
      </trkpt>
      <trkpt lat="41.922318" lon="0.12645695">
        <time>2022-07-06T16:43:34Z</time>
      </trkpt>
      <trkpt lat="41.92228" lon="0.1265096">
        <time>2022-07-06T16:43:35Z</time>
      </trkpt>
      <trkpt lat="41.922245" lon="0.12656194">
        <time>2022-07-06T16:43:36Z</time>
      </trkpt>
      <trkpt lat="41.922207" lon="0.12661394">
        <time>2022-07-06T16:43:37Z</time>
      </trkpt>
      <trkpt lat="41.92217" lon="0.12666927">
        <time>2022-07-06T16:43:38Z</time>
      </trkpt>
      <trkpt lat="41.922134" lon="0.1267196">
        <time>2022-07-06T16:43:39Z</time>
      </trkpt>
      <trkpt lat="41.922096" lon="0.12677026">
        <time>2022-07-06T16:43:40Z</time>
      </trkpt>
      <trkpt lat="41.922028" lon="0.12687293">
        <time>2022-07-06T16:43:42Z</time>
      </trkpt>
      <trkpt lat="41.921993" lon="0.12692392">
        <time>2022-07-06T16:43:43Z</time>
      </trkpt>
      <trkpt lat="41.92196" lon="0.12697558">
        <time>2022-07-06T16:43:44Z</time>
      </trkpt>
      <trkpt lat="41.92192" lon="0.12702525">
        <time>2022-07-06T16:43:45Z</time>
      </trkpt>
      <trkpt lat="41.921856" lon="0.12712257">
        <time>2022-07-06T16:43:47Z</time>
      </trkpt>
      <trkpt lat="41.92179" lon="0.1272189">
        <time>2022-07-06T16:43:49Z</time>
      </trkpt>
      <trkpt lat="41.92176" lon="0.1272659">
        <time>2022-07-06T16:43:50Z</time>
      </trkpt>
      <trkpt lat="41.9217" lon="0.12736057">
        <time>2022-07-06T16:43:52Z</time>
      </trkpt>
      <trkpt lat="41.921635" lon="0.12745656">
        <time>2022-07-06T16:43:54Z</time>
      </trkpt>
      <trkpt lat="41.921574" lon="0.12754689">
        <time>2022-07-06T16:43:56Z</time>
      </trkpt>
      <trkpt lat="41.92151" lon="0.12763622">
        <time>2022-07-06T16:43:58Z</time>
      </trkpt>
      <trkpt lat="41.92145" lon="0.12772788">
        <time>2022-07-06T16:44:00Z</time>
      </trkpt>
      <trkpt lat="41.92139" lon="0.12781921">
        <time>2022-07-06T16:44:02Z</time>
      </trkpt>
      <trkpt lat="41.92136" lon="0.12786387">
        <time>2022-07-06T16:44:03Z</time>
      </trkpt>
      <trkpt lat="41.9213" lon="0.1279532">
        <time>2022-07-06T16:44:05Z</time>
      </trkpt>
      <trkpt lat="41.921238" lon="0.12804386">
        <time>2022-07-06T16:44:07Z</time>
      </trkpt>
      <trkpt lat="41.92118" lon="0.12813386">
        <time>2022-07-06T16:44:09Z</time>
      </trkpt>
      <trkpt lat="41.92112" lon="0.12822019">
        <time>2022-07-06T16:44:11Z</time>
      </trkpt>
      <trkpt lat="41.921062" lon="0.12830351">
        <time>2022-07-06T16:44:13Z</time>
      </trkpt>
      <trkpt lat="41.921005" lon="0.12838885">
        <time>2022-07-06T16:44:15Z</time>
      </trkpt>
      <trkpt lat="41.920948" lon="0.12847285">
        <time>2022-07-06T16:44:17Z</time>
      </trkpt>
      <trkpt lat="41.920868" lon="0.12859686">
        <time>2022-07-06T16:44:20Z</time>
      </trkpt>
      <trkpt lat="41.920815" lon="0.12867785">
        <time>2022-07-06T16:44:22Z</time>
      </trkpt>
      <trkpt lat="41.92076" lon="0.1287575">
        <time>2022-07-06T16:44:24Z</time>
      </trkpt>
      <trkpt lat="41.920708" lon="0.12883651">
        <time>2022-07-06T16:44:26Z</time>
      </trkpt>
      <trkpt lat="41.920654" lon="0.12891585">
        <time>2022-07-06T16:44:28Z</time>
      </trkpt>
      <trkpt lat="41.920605" lon="0.12899683">
        <time>2022-07-06T16:44:30Z</time>
      </trkpt>
      <trkpt lat="41.92055" lon="0.12907584">
        <time>2022-07-06T16:44:32Z</time>
      </trkpt>
      <trkpt lat="41.920494" lon="0.12915216">
        <time>2022-07-06T16:44:34Z</time>
      </trkpt>
      <trkpt lat="41.920437" lon="0.12922983">
        <time>2022-07-06T16:44:36Z</time>
      </trkpt>
      <trkpt lat="41.920383" lon="0.12931116">
        <time>2022-07-06T16:44:38Z</time>
      </trkpt>
      <trkpt lat="41.920334" lon="0.12939449">
        <time>2022-07-06T16:44:40Z</time>
      </trkpt>
      <trkpt lat="41.92028" lon="0.12947682">
        <time>2022-07-06T16:44:42Z</time>
      </trkpt>
      <trkpt lat="41.92023" lon="0.12955448">
        <time>2022-07-06T16:44:44Z</time>
      </trkpt>
      <trkpt lat="41.92018" lon="0.12962714">
        <time>2022-07-06T16:44:46Z</time>
      </trkpt>
      <trkpt lat="41.92013" lon="0.1297008">
        <time>2022-07-06T16:44:48Z</time>
      </trkpt>
      <trkpt lat="41.920082" lon="0.1297768">
        <time>2022-07-06T16:44:50Z</time>
      </trkpt>
      <trkpt lat="41.920033" lon="0.12985612">
        <time>2022-07-06T16:44:52Z</time>
      </trkpt>
      <trkpt lat="41.91998" lon="0.12993613">
        <time>2022-07-06T16:44:54Z</time>
      </trkpt>
      <trkpt lat="41.91993" lon="0.13001713">
        <time>2022-07-06T16:44:56Z</time>
      </trkpt>
      <trkpt lat="41.919872" lon="0.13010013">
        <time>2022-07-06T16:44:58Z</time>
      </trkpt>
      <trkpt lat="41.91982" lon="0.13018712">
        <time>2022-07-06T16:45:00Z</time>
      </trkpt>
      <trkpt lat="41.91976" lon="0.13027513">
        <time>2022-07-06T16:45:02Z</time>
      </trkpt>
      <trkpt lat="41.919704" lon="0.13036579">
        <time>2022-07-06T16:45:04Z</time>
      </trkpt>
      <trkpt lat="41.91965" lon="0.13045111">
        <time>2022-07-06T16:45:06Z</time>
      </trkpt>
      <trkpt lat="41.919594" lon="0.13053346">
        <time>2022-07-06T16:45:08Z</time>
      </trkpt>
      <trkpt lat="41.91954" lon="0.13061711">
        <time>2022-07-06T16:45:10Z</time>
      </trkpt>
      <trkpt lat="41.91948" lon="0.13070211">
        <time>2022-07-06T16:45:12Z</time>
      </trkpt>
      <trkpt lat="41.919422" lon="0.13079044">
        <time>2022-07-06T16:45:14Z</time>
      </trkpt>
      <trkpt lat="41.91936" lon="0.1308841">
        <time>2022-07-06T16:45:16Z</time>
      </trkpt>
      <trkpt lat="41.9193" lon="0.13097876">
        <time>2022-07-06T16:45:18Z</time>
      </trkpt>
      <trkpt lat="41.919243" lon="0.13107376">
        <time>2022-07-06T16:45:20Z</time>
      </trkpt>
      <trkpt lat="41.919186" lon="0.1311611">
        <time>2022-07-06T16:45:22Z</time>
      </trkpt>
      <trkpt lat="41.919132" lon="0.13124675">
        <time>2022-07-06T16:45:24Z</time>
      </trkpt>
      <trkpt lat="41.91907" lon="0.13133341">
        <time>2022-07-06T16:45:26Z</time>
      </trkpt>
      <trkpt lat="41.91901" lon="0.13141873">
        <time>2022-07-06T16:45:28Z</time>
      </trkpt>
      <trkpt lat="41.918953" lon="0.13150507">
        <time>2022-07-06T16:45:30Z</time>
      </trkpt>
      <trkpt lat="41.91889" lon="0.13159174">
        <time>2022-07-06T16:45:32Z</time>
      </trkpt>
      <trkpt lat="41.91883" lon="0.13167806">
        <time>2022-07-06T16:45:34Z</time>
      </trkpt>
      <trkpt lat="41.918774" lon="0.13176607">
        <time>2022-07-06T16:45:36Z</time>
      </trkpt>
      <trkpt lat="41.918713" lon="0.1318564">
        <time>2022-07-06T16:45:38Z</time>
      </trkpt>
      <trkpt lat="41.918655" lon="0.13194638">
        <time>2022-07-06T16:45:40Z</time>
      </trkpt>
      <trkpt lat="41.91859" lon="0.13203472">
        <time>2022-07-06T16:45:42Z</time>
      </trkpt>
      <trkpt lat="41.91853" lon="0.13212638">
        <time>2022-07-06T16:45:44Z</time>
      </trkpt>
      <trkpt lat="41.918472" lon="0.13221972">
        <time>2022-07-06T16:45:46Z</time>
      </trkpt>
      <trkpt lat="41.91841" lon="0.13231204">
        <time>2022-07-06T16:45:48Z</time>
      </trkpt>
      <trkpt lat="41.91835" lon="0.13240138">
        <time>2022-07-06T16:45:50Z</time>
      </trkpt>
      <trkpt lat="41.91829" lon="0.1324947">
        <time>2022-07-06T16:45:52Z</time>
      </trkpt>
      <trkpt lat="41.918224" lon="0.1325947">
        <time>2022-07-06T16:45:54Z</time>
      </trkpt>
      <trkpt lat="41.918194" lon="0.13264535">
        <time>2022-07-06T16:45:55Z</time>
      </trkpt>
      <trkpt lat="41.918137" lon="0.13274369">
        <time>2022-07-06T16:45:57Z</time>
      </trkpt>
      <trkpt lat="41.918106" lon="0.13279068">
        <time>2022-07-06T16:45:58Z</time>
      </trkpt>
      <trkpt lat="41.91805" lon="0.13288635">
        <time>2022-07-06T16:46:00Z</time>
      </trkpt>
      <trkpt lat="41.917984" lon="0.13298102">
        <time>2022-07-06T16:46:02Z</time>
      </trkpt>
      <trkpt lat="41.917923" lon="0.13307601">
        <time>2022-07-06T16:46:04Z</time>
      </trkpt>
      <trkpt lat="41.917854" lon="0.13317268">
        <time>2022-07-06T16:46:06Z</time>
      </trkpt>
      <trkpt lat="41.917824" lon="0.133221">
        <time>2022-07-06T16:46:07Z</time>
      </trkpt>
      <trkpt lat="41.91776" lon="0.133316">
        <time>2022-07-06T16:46:09Z</time>
      </trkpt>
      <trkpt lat="41.917694" lon="0.13340966">
        <time>2022-07-06T16:46:11Z</time>
      </trkpt>
      <trkpt lat="41.91763" lon="0.13350199">
        <time>2022-07-06T16:46:13Z</time>
      </trkpt>
      <trkpt lat="41.917564" lon="0.13359632">
        <time>2022-07-06T16:46:15Z</time>
      </trkpt>
      <trkpt lat="41.917534" lon="0.13364398">
        <time>2022-07-06T16:46:16Z</time>
      </trkpt>
      <trkpt lat="41.91747" lon="0.1337403">
        <time>2022-07-06T16:46:18Z</time>
      </trkpt>
      <trkpt lat="41.917435" lon="0.13378832">
        <time>2022-07-06T16:46:19Z</time>
      </trkpt>
      <trkpt lat="41.917366" lon="0.13388631">
        <time>2022-07-06T16:46:21Z</time>
      </trkpt>
      <trkpt lat="41.917267" lon="0.13403732">
        <time>2022-07-06T16:46:24Z</time>
      </trkpt>
      <trkpt lat="41.917233" lon="0.13408796">
        <time>2022-07-06T16:46:25Z</time>
      </trkpt>
      <trkpt lat="41.917194" lon="0.13414197">
        <time>2022-07-06T16:46:26Z</time>
      </trkpt>
      <trkpt lat="41.917164" lon="0.13419163">
        <time>2022-07-06T16:46:27Z</time>
      </trkpt>
      <trkpt lat="41.917095" lon="0.13429096">
        <time>2022-07-06T16:46:29Z</time>
      </trkpt>
      <trkpt lat="41.917027" lon="0.13439262">
        <time>2022-07-06T16:46:31Z</time>
      </trkpt>
      <trkpt lat="41.91696" lon="0.13449527">
        <time>2022-07-06T16:46:33Z</time>
      </trkpt>
      <trkpt lat="41.916927" lon="0.1345476">
        <time>2022-07-06T16:46:34Z</time>
      </trkpt>
      <trkpt lat="41.91686" lon="0.13465127">
        <time>2022-07-06T16:46:36Z</time>
      </trkpt>
      <trkpt lat="41.916824" lon="0.13470092">
        <time>2022-07-06T16:46:37Z</time>
      </trkpt>
      <trkpt lat="41.916756" lon="0.13479926">
        <time>2022-07-06T16:46:39Z</time>
      </trkpt>
      <trkpt lat="41.916725" lon="0.13484927">
        <time>2022-07-06T16:46:40Z</time>
      </trkpt>
      <trkpt lat="41.916656" lon="0.13494892">
        <time>2022-07-06T16:46:42Z</time>
      </trkpt>
      <trkpt lat="41.916595" lon="0.13504592">
        <time>2022-07-06T16:46:44Z</time>
      </trkpt>
      <trkpt lat="41.91653" lon="0.13514425">
        <time>2022-07-06T16:46:46Z</time>
      </trkpt>
      <trkpt lat="41.916496" lon="0.13519292">
        <time>2022-07-06T16:46:47Z</time>
      </trkpt>
      <trkpt lat="41.916435" lon="0.13528824">
        <time>2022-07-06T16:46:49Z</time>
      </trkpt>
      <trkpt lat="41.916405" lon="0.1353349">
        <time>2022-07-06T16:46:50Z</time>
      </trkpt>
      <trkpt lat="41.916344" lon="0.13543156">
        <time>2022-07-06T16:46:52Z</time>
      </trkpt>
      <trkpt lat="41.91628" lon="0.13553122">
        <time>2022-07-06T16:46:54Z</time>
      </trkpt>
      <trkpt lat="41.91622" lon="0.13562955">
        <time>2022-07-06T16:46:56Z</time>
      </trkpt>
      <trkpt lat="41.91619" lon="0.13567688">
        <time>2022-07-06T16:46:57Z</time>
      </trkpt>
      <trkpt lat="41.91613" lon="0.13576955">
        <time>2022-07-06T16:46:59Z</time>
      </trkpt>
      <trkpt lat="41.91607" lon="0.13586254">
        <time>2022-07-06T16:47:01Z</time>
      </trkpt>
      <trkpt lat="41.916004" lon="0.13596088">
        <time>2022-07-06T16:47:03Z</time>
      </trkpt>
      <trkpt lat="41.915974" lon="0.1360082">
        <time>2022-07-06T16:47:04Z</time>
      </trkpt>
      <trkpt lat="41.91591" lon="0.13609886">
        <time>2022-07-06T16:47:06Z</time>
      </trkpt>
      <trkpt lat="41.915848" lon="0.13619052">
        <time>2022-07-06T16:47:08Z</time>
      </trkpt>
      <trkpt lat="41.915783" lon="0.13628586">
        <time>2022-07-06T16:47:10Z</time>
      </trkpt>
      <trkpt lat="41.91572" lon="0.13637517">
        <time>2022-07-06T16:47:12Z</time>
      </trkpt>
      <trkpt lat="41.915665" lon="0.13646284">
        <time>2022-07-06T16:47:14Z</time>
      </trkpt>
      <trkpt lat="41.915607" lon="0.1365465">
        <time>2022-07-06T16:47:16Z</time>
      </trkpt>
      <trkpt lat="41.915543" lon="0.1366395">
        <time>2022-07-06T16:47:18Z</time>
      </trkpt>
      <trkpt lat="41.915478" lon="0.13673383">
        <time>2022-07-06T16:47:20Z</time>
      </trkpt>
      <trkpt lat="41.91541" lon="0.13683683">
        <time>2022-07-06T16:47:22Z</time>
      </trkpt>
      <trkpt lat="41.915375" lon="0.13688983">
        <time>2022-07-06T16:47:23Z</time>
      </trkpt>
      <trkpt lat="41.91534" lon="0.13694416">
        <time>2022-07-06T16:47:24Z</time>
      </trkpt>
      <trkpt lat="41.915268" lon="0.13705316">
        <time>2022-07-06T16:47:26Z</time>
      </trkpt>
      <trkpt lat="41.91523" lon="0.13710849">
        <time>2022-07-06T16:47:27Z</time>
      </trkpt>
      <trkpt lat="41.915195" lon="0.13716482">
        <time>2022-07-06T16:47:28Z</time>
      </trkpt>
      <trkpt lat="41.915157" lon="0.13722248">
        <time>2022-07-06T16:47:29Z</time>
      </trkpt>
      <trkpt lat="41.915123" lon="0.1372808">
        <time>2022-07-06T16:47:30Z</time>
      </trkpt>
      <trkpt lat="41.91509" lon="0.13733748">
        <time>2022-07-06T16:47:31Z</time>
      </trkpt>
      <trkpt lat="41.915054" lon="0.13739146">
        <time>2022-07-06T16:47:32Z</time>
      </trkpt>
      <trkpt lat="41.91502" lon="0.13744247">
        <time>2022-07-06T16:47:33Z</time>
      </trkpt>
      <trkpt lat="41.91498" lon="0.13749214">
        <time>2022-07-06T16:47:34Z</time>
      </trkpt>
      <trkpt lat="41.914917" lon="0.13758913">
        <time>2022-07-06T16:47:36Z</time>
      </trkpt>
      <trkpt lat="41.914852" lon="0.13768145">
        <time>2022-07-06T16:47:38Z</time>
      </trkpt>
      <trkpt lat="41.91479" lon="0.13777912">
        <time>2022-07-06T16:47:40Z</time>
      </trkpt>
      <trkpt lat="41.914726" lon="0.13788246">
        <time>2022-07-06T16:47:42Z</time>
      </trkpt>
      <trkpt lat="41.914658" lon="0.13798311">
        <time>2022-07-06T16:47:44Z</time>
      </trkpt>
      <trkpt lat="41.914623" lon="0.13802911">
        <time>2022-07-06T16:47:45Z</time>
      </trkpt>
      <trkpt lat="41.914555" lon="0.1381261">
        <time>2022-07-06T16:47:47Z</time>
      </trkpt>
      <trkpt lat="41.914486" lon="0.13822544">
        <time>2022-07-06T16:47:49Z</time>
      </trkpt>
      <trkpt lat="41.914417" lon="0.13833077">
        <time>2022-07-06T16:47:51Z</time>
      </trkpt>
      <trkpt lat="41.91438" lon="0.13838343">
        <time>2022-07-06T16:47:52Z</time>
      </trkpt>
      <trkpt lat="41.914345" lon="0.13843709">
        <time>2022-07-06T16:47:53Z</time>
      </trkpt>
      <trkpt lat="41.91431" lon="0.13848741">
        <time>2022-07-06T16:47:54Z</time>
      </trkpt>
      <trkpt lat="41.91424" lon="0.13859275">
        <time>2022-07-06T16:47:56Z</time>
      </trkpt>
      <trkpt lat="41.914207" lon="0.13864207">
        <time>2022-07-06T16:47:57Z</time>
      </trkpt>
      <trkpt lat="41.914173" lon="0.13869575">
        <time>2022-07-06T16:47:58Z</time>
      </trkpt>
      <trkpt lat="41.914135" lon="0.13874973">
        <time>2022-07-06T16:47:59Z</time>
      </trkpt>
      <trkpt lat="41.9141" lon="0.1387994">
        <time>2022-07-06T16:48:00Z</time>
      </trkpt>
      <trkpt lat="41.914032" lon="0.1389064">
        <time>2022-07-06T16:48:02Z</time>
      </trkpt>
      <trkpt lat="41.913994" lon="0.13896273">
        <time>2022-07-06T16:48:03Z</time>
      </trkpt>
      <trkpt lat="41.913956" lon="0.13901873">
        <time>2022-07-06T16:48:04Z</time>
      </trkpt>
      <trkpt lat="41.91392" lon="0.13907006">
        <time>2022-07-06T16:48:05Z</time>
      </trkpt>
      <trkpt lat="41.913887" lon="0.13912205">
        <time>2022-07-06T16:48:06Z</time>
      </trkpt>
      <trkpt lat="41.91385" lon="0.1391784">
        <time>2022-07-06T16:48:07Z</time>
      </trkpt>
      <trkpt lat="41.91381" lon="0.13923472">
        <time>2022-07-06T16:48:08Z</time>
      </trkpt>
      <trkpt lat="41.913773" lon="0.13929105">
        <time>2022-07-06T16:48:09Z</time>
      </trkpt>
      <trkpt lat="41.91374" lon="0.13934438">
        <time>2022-07-06T16:48:10Z</time>
      </trkpt>
      <trkpt lat="41.9137" lon="0.13939838">
        <time>2022-07-06T16:48:11Z</time>
      </trkpt>
      <trkpt lat="41.913662" lon="0.1394557">
        <time>2022-07-06T16:48:12Z</time>
      </trkpt>
      <trkpt lat="41.913624" lon="0.13951237">
        <time>2022-07-06T16:48:13Z</time>
      </trkpt>
      <trkpt lat="41.913586" lon="0.13956903">
        <time>2022-07-06T16:48:14Z</time>
      </trkpt>
      <trkpt lat="41.913548" lon="0.13962568">
        <time>2022-07-06T16:48:15Z</time>
      </trkpt>
      <trkpt lat="41.91351" lon="0.13968235">
        <time>2022-07-06T16:48:16Z</time>
      </trkpt>
      <trkpt lat="41.91347" lon="0.13973968">
        <time>2022-07-06T16:48:17Z</time>
      </trkpt>
      <trkpt lat="41.913437" lon="0.13979334">
        <time>2022-07-06T16:48:18Z</time>
      </trkpt>
      <trkpt lat="41.913403" lon="0.139848">
        <time>2022-07-06T16:48:19Z</time>
      </trkpt>
      <trkpt lat="41.91337" lon="0.13990133">
        <time>2022-07-06T16:48:20Z</time>
      </trkpt>
      <trkpt lat="41.91333" lon="0.13995598">
        <time>2022-07-06T16:48:21Z</time>
      </trkpt>
      <trkpt lat="41.913296" lon="0.140013">
        <time>2022-07-06T16:48:22Z</time>
      </trkpt>
      <trkpt lat="41.913254" lon="0.14007565">
        <time>2022-07-06T16:48:23Z</time>
      </trkpt>
      <trkpt lat="41.913216" lon="0.1401333">
        <time>2022-07-06T16:48:24Z</time>
      </trkpt>
      <trkpt lat="41.913177" lon="0.1401903">
        <time>2022-07-06T16:48:25Z</time>
      </trkpt>
      <trkpt lat="41.91314" lon="0.14024664">
        <time>2022-07-06T16:48:26Z</time>
      </trkpt>
      <trkpt lat="41.913097" lon="0.14030664">
        <time>2022-07-06T16:48:27Z</time>
      </trkpt>
      <trkpt lat="41.91306" lon="0.14036565">
        <time>2022-07-06T16:48:28Z</time>
      </trkpt>
      <trkpt lat="41.91302" lon="0.14042397">
        <time>2022-07-06T16:48:29Z</time>
      </trkpt>
      <trkpt lat="41.912945" lon="0.1405333">
        <time>2022-07-06T16:48:31Z</time>
      </trkpt>
      <trkpt lat="41.912907" lon="0.14058962">
        <time>2022-07-06T16:48:32Z</time>
      </trkpt>
      <trkpt lat="41.912865" lon="0.14065096">
        <time>2022-07-06T16:48:33Z</time>
      </trkpt>
      <trkpt lat="41.912827" lon="0.1407113">
        <time>2022-07-06T16:48:34Z</time>
      </trkpt>
      <trkpt lat="41.912785" lon="0.14077163">
        <time>2022-07-06T16:48:35Z</time>
      </trkpt>
      <trkpt lat="41.91275" lon="0.14082728">
        <time>2022-07-06T16:48:36Z</time>
      </trkpt>
      <trkpt lat="41.912712" lon="0.14088461">
        <time>2022-07-06T16:48:37Z</time>
      </trkpt>
      <trkpt lat="41.91267" lon="0.14094694">
        <time>2022-07-06T16:48:38Z</time>
      </trkpt>
      <trkpt lat="41.912632" lon="0.14100493">
        <time>2022-07-06T16:48:39Z</time>
      </trkpt>
      <trkpt lat="41.912594" lon="0.14106727">
        <time>2022-07-06T16:48:40Z</time>
      </trkpt>
      <trkpt lat="41.912556" lon="0.1411256">
        <time>2022-07-06T16:48:41Z</time>
      </trkpt>
      <trkpt lat="41.912518" lon="0.14118493">
        <time>2022-07-06T16:48:42Z</time>
      </trkpt>
      <trkpt lat="41.912476" lon="0.14124893">
        <time>2022-07-06T16:48:43Z</time>
      </trkpt>
      <trkpt lat="41.912434" lon="0.14131226">
        <time>2022-07-06T16:48:44Z</time>
      </trkpt>
      <trkpt lat="41.91239" lon="0.14137492">
        <time>2022-07-06T16:48:45Z</time>
      </trkpt>
      <trkpt lat="41.91235" lon="0.14143725">
        <time>2022-07-06T16:48:46Z</time>
      </trkpt>
      <trkpt lat="41.912308" lon="0.14149491">
        <time>2022-07-06T16:48:47Z</time>
      </trkpt>
      <trkpt lat="41.91227" lon="0.14155391">
        <time>2022-07-06T16:48:48Z</time>
      </trkpt>
      <trkpt lat="41.91223" lon="0.14161491">
        <time>2022-07-06T16:48:49Z</time>
      </trkpt>
      <trkpt lat="41.91219" lon="0.14168191">
        <time>2022-07-06T16:48:50Z</time>
      </trkpt>
      <trkpt lat="41.91215" lon="0.14174724">
        <time>2022-07-06T16:48:51Z</time>
      </trkpt>
      <trkpt lat="41.912113" lon="0.1418079">
        <time>2022-07-06T16:48:52Z</time>
      </trkpt>
      <trkpt lat="41.91207" lon="0.1418699">
        <time>2022-07-06T16:48:53Z</time>
      </trkpt>
      <trkpt lat="41.912033" lon="0.14193223">
        <time>2022-07-06T16:48:54Z</time>
      </trkpt>
      <trkpt lat="41.91199" lon="0.14199823">
        <time>2022-07-06T16:48:55Z</time>
      </trkpt>
      <trkpt lat="41.911945" lon="0.14206256">
        <time>2022-07-06T16:48:56Z</time>
      </trkpt>
      <trkpt lat="41.911907" lon="0.14212088">
        <time>2022-07-06T16:48:57Z</time>
      </trkpt>
      <trkpt lat="41.911865" lon="0.14217922">
        <time>2022-07-06T16:48:58Z</time>
      </trkpt>
      <trkpt lat="41.911823" lon="0.14223789">
        <time>2022-07-06T16:48:59Z</time>
      </trkpt>
      <trkpt lat="41.911785" lon="0.14229721">
        <time>2022-07-06T16:49:00Z</time>
      </trkpt>
      <trkpt lat="41.911743" lon="0.14235921">
        <time>2022-07-06T16:49:01Z</time>
      </trkpt>
      <trkpt lat="41.9117" lon="0.14242022">
        <time>2022-07-06T16:49:02Z</time>
      </trkpt>
      <trkpt lat="41.911663" lon="0.14247654">
        <time>2022-07-06T16:49:03Z</time>
      </trkpt>
      <trkpt lat="41.911625" lon="0.1425322">
        <time>2022-07-06T16:49:04Z</time>
      </trkpt>
      <trkpt lat="41.911583" lon="0.1425922">
        <time>2022-07-06T16:49:05Z</time>
      </trkpt>
      <trkpt lat="41.911545" lon="0.14265153">
        <time>2022-07-06T16:49:06Z</time>
      </trkpt>
      <trkpt lat="41.911507" lon="0.14271119">
        <time>2022-07-06T16:49:07Z</time>
      </trkpt>
      <trkpt lat="41.91147" lon="0.14276719">
        <time>2022-07-06T16:49:08Z</time>
      </trkpt>
      <trkpt lat="41.911427" lon="0.14282753">
        <time>2022-07-06T16:49:09Z</time>
      </trkpt>
      <trkpt lat="41.91139" lon="0.14288785">
        <time>2022-07-06T16:49:10Z</time>
      </trkpt>
      <trkpt lat="41.91135" lon="0.14294718">
        <time>2022-07-06T16:49:11Z</time>
      </trkpt>
      <trkpt lat="41.911312" lon="0.14300218">
        <time>2022-07-06T16:49:12Z</time>
      </trkpt>
      <trkpt lat="41.911274" lon="0.14306384">
        <time>2022-07-06T16:49:13Z</time>
      </trkpt>
      <trkpt lat="41.91124" lon="0.1431255">
        <time>2022-07-06T16:49:14Z</time>
      </trkpt>
      <trkpt lat="41.9112" lon="0.14318717">
        <time>2022-07-06T16:49:15Z</time>
      </trkpt>
      <trkpt lat="41.91116" lon="0.14324749">
        <time>2022-07-06T16:49:16Z</time>
      </trkpt>
      <trkpt lat="41.91112" lon="0.14330682">
        <time>2022-07-06T16:49:17Z</time>
      </trkpt>
      <trkpt lat="41.911083" lon="0.14336582">
        <time>2022-07-06T16:49:18Z</time>
      </trkpt>
      <trkpt lat="41.911045" lon="0.14342515">
        <time>2022-07-06T16:49:19Z</time>
      </trkpt>
      <trkpt lat="41.911007" lon="0.14348081">
        <time>2022-07-06T16:49:20Z</time>
      </trkpt>
      <trkpt lat="41.910973" lon="0.1435378">
        <time>2022-07-06T16:49:21Z</time>
      </trkpt>
      <trkpt lat="41.910934" lon="0.14359547">
        <time>2022-07-06T16:49:22Z</time>
      </trkpt>
      <trkpt lat="41.910896" lon="0.1436528">
        <time>2022-07-06T16:49:23Z</time>
      </trkpt>
      <trkpt lat="41.91086" lon="0.1437098">
        <time>2022-07-06T16:49:24Z</time>
      </trkpt>
      <trkpt lat="41.91082" lon="0.14376613">
        <time>2022-07-06T16:49:25Z</time>
      </trkpt>
      <trkpt lat="41.91078" lon="0.14382213">
        <time>2022-07-06T16:49:26Z</time>
      </trkpt>
      <trkpt lat="41.910744" lon="0.14387813">
        <time>2022-07-06T16:49:27Z</time>
      </trkpt>
      <trkpt lat="41.910706" lon="0.14393446">
        <time>2022-07-06T16:49:28Z</time>
      </trkpt>
      <trkpt lat="41.91067" lon="0.14399078">
        <time>2022-07-06T16:49:29Z</time>
      </trkpt>
      <trkpt lat="41.910633" lon="0.14404745">
        <time>2022-07-06T16:49:30Z</time>
      </trkpt>
      <trkpt lat="41.910595" lon="0.14410411">
        <time>2022-07-06T16:49:31Z</time>
      </trkpt>
      <trkpt lat="41.910557" lon="0.1441611">
        <time>2022-07-06T16:49:32Z</time>
      </trkpt>
      <trkpt lat="41.91052" lon="0.14422244">
        <time>2022-07-06T16:49:33Z</time>
      </trkpt>
      <trkpt lat="41.91048" lon="0.1442791">
        <time>2022-07-06T16:49:34Z</time>
      </trkpt>
      <trkpt lat="41.910446" lon="0.1443351">
        <time>2022-07-06T16:49:35Z</time>
      </trkpt>
      <trkpt lat="41.91037" lon="0.14445476">
        <time>2022-07-06T16:49:37Z</time>
      </trkpt>
      <trkpt lat="41.91033" lon="0.14451276">
        <time>2022-07-06T16:49:38Z</time>
      </trkpt>
      <trkpt lat="41.910297" lon="0.14456642">
        <time>2022-07-06T16:49:39Z</time>
      </trkpt>
      <trkpt lat="41.91026" lon="0.14462443">
        <time>2022-07-06T16:49:40Z</time>
      </trkpt>
      <trkpt lat="41.91022" lon="0.14468075">
        <time>2022-07-06T16:49:41Z</time>
      </trkpt>
      <trkpt lat="41.910183" lon="0.14473641">
        <time>2022-07-06T16:49:42Z</time>
      </trkpt>
      <trkpt lat="41.91014" lon="0.14479174">
        <time>2022-07-06T16:49:43Z</time>
      </trkpt>
      <trkpt lat="41.910103" lon="0.1448474">
        <time>2022-07-06T16:49:44Z</time>
      </trkpt>
      <trkpt lat="41.91007" lon="0.14490406">
        <time>2022-07-06T16:49:45Z</time>
      </trkpt>
      <trkpt lat="41.91003" lon="0.14496006">
        <time>2022-07-06T16:49:46Z</time>
      </trkpt>
      <trkpt lat="41.909996" lon="0.14501172">
        <time>2022-07-06T16:49:47Z</time>
      </trkpt>
      <trkpt lat="41.909958" lon="0.14506438">
        <time>2022-07-06T16:49:48Z</time>
      </trkpt>
      <trkpt lat="41.90992" lon="0.14512004">
        <time>2022-07-06T16:49:49Z</time>
      </trkpt>
      <trkpt lat="41.90988" lon="0.1451757">
        <time>2022-07-06T16:49:50Z</time>
      </trkpt>
      <trkpt lat="41.909843" lon="0.1452317">
        <time>2022-07-06T16:49:51Z</time>
      </trkpt>
      <trkpt lat="41.90981" lon="0.1452847">
        <time>2022-07-06T16:49:52Z</time>
      </trkpt>
      <trkpt lat="41.90977" lon="0.14534336">
        <time>2022-07-06T16:49:53Z</time>
      </trkpt>
      <trkpt lat="41.909733" lon="0.14540236">
        <time>2022-07-06T16:49:54Z</time>
      </trkpt>
      <trkpt lat="41.9097" lon="0.14546202">
        <time>2022-07-06T16:49:55Z</time>
      </trkpt>
      <trkpt lat="41.909664" lon="0.14551868">
        <time>2022-07-06T16:49:56Z</time>
      </trkpt>
      <trkpt lat="41.90963" lon="0.14557701">
        <time>2022-07-06T16:49:57Z</time>
      </trkpt>
      <trkpt lat="41.909595" lon="0.14564034">
        <time>2022-07-06T16:49:58Z</time>
      </trkpt>
      <trkpt lat="41.90956" lon="0.145703">
        <time>2022-07-06T16:49:59Z</time>
      </trkpt>
      <trkpt lat="41.909527" lon="0.14576165">
        <time>2022-07-06T16:50:00Z</time>
      </trkpt>
      <trkpt lat="41.909496" lon="0.14582232">
        <time>2022-07-06T16:50:01Z</time>
      </trkpt>
      <trkpt lat="41.909462" lon="0.14588465">
        <time>2022-07-06T16:50:02Z</time>
      </trkpt>
      <trkpt lat="41.90943" lon="0.14595032">
        <time>2022-07-06T16:50:03Z</time>
      </trkpt>
      <trkpt lat="41.9094" lon="0.14601731">
        <time>2022-07-06T16:50:04Z</time>
      </trkpt>
      <trkpt lat="41.909374" lon="0.1460853">
        <time>2022-07-06T16:50:05Z</time>
      </trkpt>
      <trkpt lat="41.909344" lon="0.14615397">
        <time>2022-07-06T16:50:06Z</time>
      </trkpt>
      <trkpt lat="41.909313" lon="0.14622797">
        <time>2022-07-06T16:50:07Z</time>
      </trkpt>
      <trkpt lat="41.909286" lon="0.1462963">
        <time>2022-07-06T16:50:08Z</time>
      </trkpt>
      <trkpt lat="41.90926" lon="0.14637063">
        <time>2022-07-06T16:50:09Z</time>
      </trkpt>
      <trkpt lat="41.909237" lon="0.14643995">
        <time>2022-07-06T16:50:10Z</time>
      </trkpt>
      <trkpt lat="41.90921" lon="0.14650929">
        <time>2022-07-06T16:50:11Z</time>
      </trkpt>
      <trkpt lat="41.909184" lon="0.1465793">
        <time>2022-07-06T16:50:12Z</time>
      </trkpt>
      <trkpt lat="41.90916" lon="0.14664961">
        <time>2022-07-06T16:50:13Z</time>
      </trkpt>
      <trkpt lat="41.909138" lon="0.14672428">
        <time>2022-07-06T16:50:14Z</time>
      </trkpt>
      <trkpt lat="41.909115" lon="0.14679728">
        <time>2022-07-06T16:50:15Z</time>
      </trkpt>
      <trkpt lat="41.909096" lon="0.14686428">
        <time>2022-07-06T16:50:16Z</time>
      </trkpt>
      <trkpt lat="41.909077" lon="0.14693262">
        <time>2022-07-06T16:50:17Z</time>
      </trkpt>
      <trkpt lat="41.909058" lon="0.14700595">
        <time>2022-07-06T16:50:18Z</time>
      </trkpt>
      <trkpt lat="41.90904" lon="0.14707828">
        <time>2022-07-06T16:50:19Z</time>
      </trkpt>
      <trkpt lat="41.90902" lon="0.14714994">
        <time>2022-07-06T16:50:20Z</time>
      </trkpt>
      <trkpt lat="41.909004" lon="0.14721693">
        <time>2022-07-06T16:50:21Z</time>
      </trkpt>
      <trkpt lat="41.908974" lon="0.14735726">
        <time>2022-07-06T16:50:23Z</time>
      </trkpt>
      <trkpt lat="41.90896" lon="0.1474336">
        <time>2022-07-06T16:50:24Z</time>
      </trkpt>
      <trkpt lat="41.908943" lon="0.14750859">
        <time>2022-07-06T16:50:25Z</time>
      </trkpt>
      <trkpt lat="41.90893" lon="0.14757793">
        <time>2022-07-06T16:50:26Z</time>
      </trkpt>
      <trkpt lat="41.908916" lon="0.14764792">
        <time>2022-07-06T16:50:27Z</time>
      </trkpt>
      <trkpt lat="41.908905" lon="0.14771858">
        <time>2022-07-06T16:50:28Z</time>
      </trkpt>
      <trkpt lat="41.908894" lon="0.14779557">
        <time>2022-07-06T16:50:29Z</time>
      </trkpt>
      <trkpt lat="41.908882" lon="0.14787124">
        <time>2022-07-06T16:50:30Z</time>
      </trkpt>
      <trkpt lat="41.90887" lon="0.1479419">
        <time>2022-07-06T16:50:31Z</time>
      </trkpt>
      <trkpt lat="41.90886" lon="0.1480149">
        <time>2022-07-06T16:50:32Z</time>
      </trkpt>
      <trkpt lat="41.908844" lon="0.14808923">
        <time>2022-07-06T16:50:33Z</time>
      </trkpt>
      <trkpt lat="41.90883" lon="0.14816256">
        <time>2022-07-06T16:50:34Z</time>
      </trkpt>
      <trkpt lat="41.908802" lon="0.14823756">
        <time>2022-07-06T16:50:35Z</time>
      </trkpt>
      <trkpt lat="41.90877" lon="0.14830288">
        <time>2022-07-06T16:50:36Z</time>
      </trkpt>
      <trkpt lat="41.908737" lon="0.14836589">
        <time>2022-07-06T16:50:37Z</time>
      </trkpt>
      <trkpt lat="41.90867" lon="0.14849289">
        <time>2022-07-06T16:50:39Z</time>
      </trkpt>
      <trkpt lat="41.908607" lon="0.14863755">
        <time>2022-07-06T16:50:41Z</time>
      </trkpt>
      <trkpt lat="41.908585" lon="0.14871354">
        <time>2022-07-06T16:50:42Z</time>
      </trkpt>
      <trkpt lat="41.908573" lon="0.1487852">
        <time>2022-07-06T16:50:43Z</time>
      </trkpt>
      <trkpt lat="41.90857" lon="0.14885587">
        <time>2022-07-06T16:50:44Z</time>
      </trkpt>
      <trkpt lat="41.908596" lon="0.14899386">
        <time>2022-07-06T16:50:46Z</time>
      </trkpt>
      <trkpt lat="41.908653" lon="0.14909352">
        <time>2022-07-06T16:50:48Z</time>
      </trkpt>
      <trkpt lat="41.90874" lon="0.14915752">
        <time>2022-07-06T16:50:50Z</time>
      </trkpt>
      <trkpt lat="41.908825" lon="0.14917652">
        <time>2022-07-06T16:50:52Z</time>
      </trkpt>
      <trkpt lat="41.90891" lon="0.14915287">
        <time>2022-07-06T16:50:54Z</time>
      </trkpt>
      <trkpt lat="41.908978" lon="0.14909121">
        <time>2022-07-06T16:50:56Z</time>
      </trkpt>
      <trkpt lat="41.909027" lon="0.14899889">
        <time>2022-07-06T16:50:58Z</time>
      </trkpt>
      <trkpt lat="41.909054" lon="0.14888822">
        <time>2022-07-06T16:51:00Z</time>
      </trkpt>
      <trkpt lat="41.909054" lon="0.14876921">
        <time>2022-07-06T16:51:02Z</time>
      </trkpt>
      <trkpt lat="41.909046" lon="0.14871322">
        <time>2022-07-06T16:51:03Z</time>
      </trkpt>
      <trkpt lat="41.909008" lon="0.14860623">
        <time>2022-07-06T16:51:05Z</time>
      </trkpt>
      <trkpt lat="41.90895" lon="0.14852622">
        <time>2022-07-06T16:51:07Z</time>
      </trkpt>
      <trkpt lat="41.90888" lon="0.14848222">
        <time>2022-07-06T16:51:09Z</time>
      </trkpt>
      <trkpt lat="41.9088" lon="0.14847922">
        <time>2022-07-06T16:51:11Z</time>
      </trkpt>
      <trkpt lat="41.908714" lon="0.14851555">
        <time>2022-07-06T16:51:13Z</time>
      </trkpt>
      <trkpt lat="41.908646" lon="0.14858821">
        <time>2022-07-06T16:51:15Z</time>
      </trkpt>
      <trkpt lat="41.9086" lon="0.14869086">
        <time>2022-07-06T16:51:17Z</time>
      </trkpt>
      <trkpt lat="41.90857" lon="0.14882053">
        <time>2022-07-06T16:51:19Z</time>
      </trkpt>
      <trkpt lat="41.908546" lon="0.14899053">
        <time>2022-07-06T16:51:22Z</time>
      </trkpt>
      <trkpt lat="41.908527" lon="0.14908253">
        <time>2022-07-06T16:51:23Z</time>
      </trkpt>
      <trkpt lat="41.90851" lon="0.14916518">
        <time>2022-07-06T16:51:24Z</time>
      </trkpt>
      <trkpt lat="41.90848" lon="0.14923519">
        <time>2022-07-06T16:51:25Z</time>
      </trkpt>
      <trkpt lat="41.908447" lon="0.14930286">
        <time>2022-07-06T16:51:26Z</time>
      </trkpt>
      <trkpt lat="41.908413" lon="0.14936519">
        <time>2022-07-06T16:51:27Z</time>
      </trkpt>
      <trkpt lat="41.90837" lon="0.14942451">
        <time>2022-07-06T16:51:28Z</time>
      </trkpt>
      <trkpt lat="41.908333" lon="0.1494825">
        <time>2022-07-06T16:51:29Z</time>
      </trkpt>
      <trkpt lat="41.90829" lon="0.14953952">
        <time>2022-07-06T16:51:30Z</time>
      </trkpt>
      <trkpt lat="41.908245" lon="0.14959584">
        <time>2022-07-06T16:51:31Z</time>
      </trkpt>
      <trkpt lat="41.908203" lon="0.14965184">
        <time>2022-07-06T16:51:32Z</time>
      </trkpt>
      <trkpt lat="41.90816" lon="0.14970285">
        <time>2022-07-06T16:51:33Z</time>
      </trkpt>
      <trkpt lat="41.90812" lon="0.1497545">
        <time>2022-07-06T16:51:34Z</time>
      </trkpt>
      <trkpt lat="41.90807" lon="0.1498085">
        <time>2022-07-06T16:51:35Z</time>
      </trkpt>
      <trkpt lat="41.908024" lon="0.14986016">
        <time>2022-07-06T16:51:36Z</time>
      </trkpt>
      <trkpt lat="41.907978" lon="0.1499105">
        <time>2022-07-06T16:51:37Z</time>
      </trkpt>
      <trkpt lat="41.907932" lon="0.14995782">
        <time>2022-07-06T16:51:38Z</time>
      </trkpt>
      <trkpt lat="41.90789" lon="0.15000315">
        <time>2022-07-06T16:51:39Z</time>
      </trkpt>
      <trkpt lat="41.907845" lon="0.15004748">
        <time>2022-07-06T16:51:40Z</time>
      </trkpt>
      <trkpt lat="41.907803" lon="0.15009014">
        <time>2022-07-06T16:51:41Z</time>
      </trkpt>
      <trkpt lat="41.907764" lon="0.15012814">
        <time>2022-07-06T16:51:42Z</time>
      </trkpt>
      <trkpt lat="41.90768" lon="0.15020546">
        <time>2022-07-06T16:51:44Z</time>
      </trkpt>
      <trkpt lat="41.907566" lon="0.1502998">
        <time>2022-07-06T16:51:47Z</time>
      </trkpt>
      <trkpt lat="41.907486" lon="0.15035813">
        <time>2022-07-06T16:51:49Z</time>
      </trkpt>
      <trkpt lat="41.907413" lon="0.15041547">
        <time>2022-07-06T16:51:51Z</time>
      </trkpt>
      <trkpt lat="41.90734" lon="0.1504708">
        <time>2022-07-06T16:51:53Z</time>
      </trkpt>
      <trkpt lat="41.907272" lon="0.15052012">
        <time>2022-07-06T16:51:55Z</time>
      </trkpt>
      <trkpt lat="41.907204" lon="0.15056477">
        <time>2022-07-06T16:51:57Z</time>
      </trkpt>
      <trkpt lat="41.90713" lon="0.15060744">
        <time>2022-07-06T16:51:59Z</time>
      </trkpt>
      <trkpt lat="41.90706" lon="0.15065077">
        <time>2022-07-06T16:52:01Z</time>
      </trkpt>
      <trkpt lat="41.906986" lon="0.1506901">
        <time>2022-07-06T16:52:03Z</time>
      </trkpt>
      <trkpt lat="41.90691" lon="0.15072744">
        <time>2022-07-06T16:52:05Z</time>
      </trkpt>
      <trkpt lat="41.906834" lon="0.15076476">
        <time>2022-07-06T16:52:07Z</time>
      </trkpt>
      <trkpt lat="41.906754" lon="0.15080142">
        <time>2022-07-06T16:52:09Z</time>
      </trkpt>
      <trkpt lat="41.906673" lon="0.15083942">
        <time>2022-07-06T16:52:11Z</time>
      </trkpt>
      <trkpt lat="41.906593" lon="0.15087508">
        <time>2022-07-06T16:52:13Z</time>
      </trkpt>
      <trkpt lat="41.906513" lon="0.15090941">
        <time>2022-07-06T16:52:15Z</time>
      </trkpt>
      <trkpt lat="41.906425" lon="0.15094507">
        <time>2022-07-06T16:52:17Z</time>
      </trkpt>
      <trkpt lat="41.90633" lon="0.1509834">
        <time>2022-07-06T16:52:19Z</time>
      </trkpt>
      <trkpt lat="41.906227" lon="0.15102907">
        <time>2022-07-06T16:52:21Z</time>
      </trkpt>
      <trkpt lat="41.906178" lon="0.15105338">
        <time>2022-07-06T16:52:22Z</time>
      </trkpt>
      <trkpt lat="41.906124" lon="0.15108038">
        <time>2022-07-06T16:52:23Z</time>
      </trkpt>
      <trkpt lat="41.906067" lon="0.15110472">
        <time>2022-07-06T16:52:24Z</time>
      </trkpt>
      <trkpt lat="41.906013" lon="0.15112938">
        <time>2022-07-06T16:52:25Z</time>
      </trkpt>
      <trkpt lat="41.905952" lon="0.15115571">
        <time>2022-07-06T16:52:26Z</time>
      </trkpt>
      <trkpt lat="41.90589" lon="0.15117805">
        <time>2022-07-06T16:52:27Z</time>
      </trkpt>
      <trkpt lat="41.90583" lon="0.15120336">
        <time>2022-07-06T16:52:28Z</time>
      </trkpt>
      <trkpt lat="41.905766" lon="0.15123136">
        <time>2022-07-06T16:52:29Z</time>
      </trkpt>
      <trkpt lat="41.9057" lon="0.15125836">
        <time>2022-07-06T16:52:30Z</time>
      </trkpt>
      <trkpt lat="41.905632" lon="0.15128636">
        <time>2022-07-06T16:52:31Z</time>
      </trkpt>
      <trkpt lat="41.90556" lon="0.15131538">
        <time>2022-07-06T16:52:32Z</time>
      </trkpt>
      <trkpt lat="41.90549" lon="0.15134503">
        <time>2022-07-06T16:52:33Z</time>
      </trkpt>
      <trkpt lat="41.90541" lon="0.1513777">
        <time>2022-07-06T16:52:34Z</time>
      </trkpt>
      <trkpt lat="41.905334" lon="0.15141103">
        <time>2022-07-06T16:52:35Z</time>
      </trkpt>
      <trkpt lat="41.905254" lon="0.15144502">
        <time>2022-07-06T16:52:36Z</time>
      </trkpt>
      <trkpt lat="41.90518" lon="0.15147768">
        <time>2022-07-06T16:52:37Z</time>
      </trkpt>
      <trkpt lat="41.905106" lon="0.15151101">
        <time>2022-07-06T16:52:38Z</time>
      </trkpt>
      <trkpt lat="41.905025" lon="0.15154567">
        <time>2022-07-06T16:52:39Z</time>
      </trkpt>
      <trkpt lat="41.90495" lon="0.15158068">
        <time>2022-07-06T16:52:40Z</time>
      </trkpt>
      <trkpt lat="41.90487" lon="0.15161633">
        <time>2022-07-06T16:52:41Z</time>
      </trkpt>
      <trkpt lat="41.90479" lon="0.15165234">
        <time>2022-07-06T16:52:42Z</time>
      </trkpt>
      <trkpt lat="41.90471" lon="0.151688">
        <time>2022-07-06T16:52:43Z</time>
      </trkpt>
      <trkpt lat="41.90463" lon="0.15172465">
        <time>2022-07-06T16:52:44Z</time>
      </trkpt>
      <trkpt lat="41.904545" lon="0.1517643">
        <time>2022-07-06T16:52:45Z</time>
      </trkpt>
      <trkpt lat="41.90447" lon="0.15179831">
        <time>2022-07-06T16:52:46Z</time>
      </trkpt>
      <trkpt lat="41.90439" lon="0.15182865">
        <time>2022-07-06T16:52:47Z</time>
      </trkpt>
      <trkpt lat="41.904312" lon="0.15184797">
        <time>2022-07-06T16:52:48Z</time>
      </trkpt>
      <trkpt lat="41.904217" lon="0.15184464">
        <time>2022-07-06T16:52:50Z</time>
      </trkpt>
      <trkpt lat="41.904133" lon="0.15183164">
        <time>2022-07-06T16:52:51Z</time>
      </trkpt>
      <trkpt lat="41.904057" lon="0.15181398">
        <time>2022-07-06T16:52:52Z</time>
      </trkpt>
      <trkpt lat="41.903988" lon="0.15179765">
        <time>2022-07-06T16:52:53Z</time>
      </trkpt>
      <trkpt lat="41.903923" lon="0.15178733">
        <time>2022-07-06T16:52:54Z</time>
      </trkpt>
      <trkpt lat="41.90386" lon="0.15178598">
        <time>2022-07-06T16:52:55Z</time>
      </trkpt>
      <trkpt lat="41.903793" lon="0.15179633">
        <time>2022-07-06T16:52:56Z</time>
      </trkpt>
      <trkpt lat="41.90374" lon="0.15182097">
        <time>2022-07-06T16:52:57Z</time>
      </trkpt>
      <trkpt lat="41.90369" lon="0.15185799">
        <time>2022-07-06T16:52:58Z</time>
      </trkpt>
      <trkpt lat="41.90365" lon="0.15190831">
        <time>2022-07-06T16:52:59Z</time>
      </trkpt>
      <trkpt lat="41.903618" lon="0.15196864">
        <time>2022-07-06T16:53:00Z</time>
      </trkpt>
      <trkpt lat="41.903587" lon="0.15210097">
        <time>2022-07-06T16:53:02Z</time>
      </trkpt>
      <trkpt lat="41.90359" lon="0.15217297">
        <time>2022-07-06T16:53:03Z</time>
      </trkpt>
      <trkpt lat="41.903606" lon="0.1522453">
        <time>2022-07-06T16:53:04Z</time>
      </trkpt>
      <trkpt lat="41.90363" lon="0.1523093">
        <time>2022-07-06T16:53:05Z</time>
      </trkpt>
      <trkpt lat="41.903667" lon="0.15236296">
        <time>2022-07-06T16:53:06Z</time>
      </trkpt>
      <trkpt lat="41.903713" lon="0.15240496">
        <time>2022-07-06T16:53:07Z</time>
      </trkpt>
      <trkpt lat="41.903763" lon="0.15243496">
        <time>2022-07-06T16:53:08Z</time>
      </trkpt>
      <trkpt lat="41.90382" lon="0.15245663">
        <time>2022-07-06T16:53:09Z</time>
      </trkpt>
      <trkpt lat="41.90388" lon="0.15247294">
        <time>2022-07-06T16:53:10Z</time>
      </trkpt>
      <trkpt lat="41.903934" lon="0.1524896">
        <time>2022-07-06T16:53:11Z</time>
      </trkpt>
      <trkpt lat="41.904" lon="0.15251361">
        <time>2022-07-06T16:53:12Z</time>
      </trkpt>
      <trkpt lat="41.90406" lon="0.15254495">
        <time>2022-07-06T16:53:13Z</time>
      </trkpt>
      <trkpt lat="41.90411" lon="0.15258095">
        <time>2022-07-06T16:53:14Z</time>
      </trkpt>
      <trkpt lat="41.904163" lon="0.15262526">
        <time>2022-07-06T16:53:15Z</time>
      </trkpt>
      <trkpt lat="41.904213" lon="0.1526746">
        <time>2022-07-06T16:53:16Z</time>
      </trkpt>
      <trkpt lat="41.904263" lon="0.1527276">
        <time>2022-07-06T16:53:17Z</time>
      </trkpt>
      <trkpt lat="41.904312" lon="0.15278326">
        <time>2022-07-06T16:53:18Z</time>
      </trkpt>
      <trkpt lat="41.90436" lon="0.15284158">
        <time>2022-07-06T16:53:19Z</time>
      </trkpt>
      <trkpt lat="41.904408" lon="0.15290159">
        <time>2022-07-06T16:53:20Z</time>
      </trkpt>
      <trkpt lat="41.90446" lon="0.15296659">
        <time>2022-07-06T16:53:21Z</time>
      </trkpt>
      <trkpt lat="41.904507" lon="0.1530266">
        <time>2022-07-06T16:53:22Z</time>
      </trkpt>
      <trkpt lat="41.90456" lon="0.15308958">
        <time>2022-07-06T16:53:23Z</time>
      </trkpt>
      <trkpt lat="41.904606" lon="0.15314825">
        <time>2022-07-06T16:53:24Z</time>
      </trkpt>
      <trkpt lat="41.904655" lon="0.15320592">
        <time>2022-07-06T16:53:25Z</time>
      </trkpt>
      <trkpt lat="41.90471" lon="0.15326823">
        <time>2022-07-06T16:53:26Z</time>
      </trkpt>
      <trkpt lat="41.90476" lon="0.15333024">
        <time>2022-07-06T16:53:27Z</time>
      </trkpt>
      <trkpt lat="41.904804" lon="0.15338857">
        <time>2022-07-06T16:53:28Z</time>
      </trkpt>
      <trkpt lat="41.904854" lon="0.15344723">
        <time>2022-07-06T16:53:29Z</time>
      </trkpt>
      <trkpt lat="41.9049" lon="0.15350656">
        <time>2022-07-06T16:53:30Z</time>
      </trkpt>
      <trkpt lat="41.90495" lon="0.15356588">
        <time>2022-07-06T16:53:31Z</time>
      </trkpt>
      <trkpt lat="41.905" lon="0.15362555">
        <time>2022-07-06T16:53:32Z</time>
      </trkpt>
      <trkpt lat="41.90505" lon="0.15368588">
        <time>2022-07-06T16:53:33Z</time>
      </trkpt>
      <trkpt lat="41.905098" lon="0.15374722">
        <time>2022-07-06T16:53:34Z</time>
      </trkpt>
      <trkpt lat="41.90515" lon="0.1538092">
        <time>2022-07-06T16:53:35Z</time>
      </trkpt>
      <trkpt lat="41.9052" lon="0.15387087">
        <time>2022-07-06T16:53:36Z</time>
      </trkpt>
      <trkpt lat="41.905254" lon="0.1539332">
        <time>2022-07-06T16:53:37Z</time>
      </trkpt>
      <trkpt lat="41.905304" lon="0.15399553">
        <time>2022-07-06T16:53:38Z</time>
      </trkpt>
      <trkpt lat="41.905354" lon="0.15405719">
        <time>2022-07-06T16:53:39Z</time>
      </trkpt>
      <trkpt lat="41.905407" lon="0.15412351">
        <time>2022-07-06T16:53:40Z</time>
      </trkpt>
      <trkpt lat="41.905453" lon="0.15418053">
        <time>2022-07-06T16:53:41Z</time>
      </trkpt>
      <trkpt lat="41.9055" lon="0.15424252">
        <time>2022-07-06T16:53:42Z</time>
      </trkpt>
      <trkpt lat="41.90555" lon="0.15430318">
        <time>2022-07-06T16:53:43Z</time>
      </trkpt>
      <trkpt lat="41.905598" lon="0.15436384">
        <time>2022-07-06T16:53:44Z</time>
      </trkpt>
      <trkpt lat="41.905643" lon="0.15442418">
        <time>2022-07-06T16:53:45Z</time>
      </trkpt>
      <trkpt lat="41.905693" lon="0.15448417">
        <time>2022-07-06T16:53:46Z</time>
      </trkpt>
      <trkpt lat="41.905743" lon="0.15454383">
        <time>2022-07-06T16:53:47Z</time>
      </trkpt>
      <trkpt lat="41.90579" lon="0.15460315">
        <time>2022-07-06T16:53:48Z</time>
      </trkpt>
      <trkpt lat="41.905838" lon="0.15466149">
        <time>2022-07-06T16:53:49Z</time>
      </trkpt>
      <trkpt lat="41.905884" lon="0.15471981">
        <time>2022-07-06T16:53:50Z</time>
      </trkpt>
      <trkpt lat="41.90593" lon="0.15477815">
        <time>2022-07-06T16:53:51Z</time>
      </trkpt>
      <trkpt lat="41.905975" lon="0.15483648">
        <time>2022-07-06T16:53:52Z</time>
      </trkpt>
      <trkpt lat="41.90602" lon="0.15489514">
        <time>2022-07-06T16:53:53Z</time>
      </trkpt>
      <trkpt lat="41.90607" lon="0.15495346">
        <time>2022-07-06T16:53:54Z</time>
      </trkpt>
      <trkpt lat="41.906116" lon="0.1550128">
        <time>2022-07-06T16:53:55Z</time>
      </trkpt>
      <trkpt lat="41.906166" lon="0.1550728">
        <time>2022-07-06T16:53:56Z</time>
      </trkpt>
      <trkpt lat="41.90621" lon="0.15513445">
        <time>2022-07-06T16:53:57Z</time>
      </trkpt>
      <trkpt lat="41.906258" lon="0.15519778">
        <time>2022-07-06T16:53:58Z</time>
      </trkpt>
      <trkpt lat="41.906303" lon="0.15526178">
        <time>2022-07-06T16:53:59Z</time>
      </trkpt>
      <trkpt lat="41.90635" lon="0.15532579">
        <time>2022-07-06T16:54:00Z</time>
      </trkpt>
      <trkpt lat="41.906395" lon="0.15539113">
        <time>2022-07-06T16:54:01Z</time>
      </trkpt>
      <trkpt lat="41.906437" lon="0.15545712">
        <time>2022-07-06T16:54:02Z</time>
      </trkpt>
      <trkpt lat="41.906483" lon="0.15552512">
        <time>2022-07-06T16:54:03Z</time>
      </trkpt>
      <trkpt lat="41.906525" lon="0.15559413">
        <time>2022-07-06T16:54:04Z</time>
      </trkpt>
      <trkpt lat="41.906567" lon="0.15566479">
        <time>2022-07-06T16:54:05Z</time>
      </trkpt>
      <trkpt lat="41.90661" lon="0.15573677">
        <time>2022-07-06T16:54:06Z</time>
      </trkpt>
      <trkpt lat="41.90665" lon="0.1558101">
        <time>2022-07-06T16:54:07Z</time>
      </trkpt>
      <trkpt lat="41.90669" lon="0.15588477">
        <time>2022-07-06T16:54:08Z</time>
      </trkpt>
      <trkpt lat="41.90673" lon="0.15596043">
        <time>2022-07-06T16:54:09Z</time>
      </trkpt>
      <trkpt lat="41.90677" lon="0.15603676">
        <time>2022-07-06T16:54:10Z</time>
      </trkpt>
      <trkpt lat="41.906803" lon="0.15611342">
        <time>2022-07-06T16:54:11Z</time>
      </trkpt>
      <trkpt lat="41.90684" lon="0.15619075">
        <time>2022-07-06T16:54:12Z</time>
      </trkpt>
      <trkpt lat="41.906876" lon="0.1562684">
        <time>2022-07-06T16:54:13Z</time>
      </trkpt>
      <trkpt lat="41.90691" lon="0.15634641">
        <time>2022-07-06T16:54:14Z</time>
      </trkpt>
      <trkpt lat="41.90694" lon="0.15642607">
        <time>2022-07-06T16:54:15Z</time>
      </trkpt>
      <trkpt lat="41.906975" lon="0.15650673">
        <time>2022-07-06T16:54:16Z</time>
      </trkpt>
      <trkpt lat="41.907005" lon="0.15658806">
        <time>2022-07-06T16:54:17Z</time>
      </trkpt>
      <trkpt lat="41.907032" lon="0.15666972">
        <time>2022-07-06T16:54:18Z</time>
      </trkpt>
      <trkpt lat="41.907063" lon="0.15675205">
        <time>2022-07-06T16:54:19Z</time>
      </trkpt>
      <trkpt lat="41.907112" lon="0.1569177">
        <time>2022-07-06T16:54:21Z</time>
      </trkpt>
      <trkpt lat="41.90714" lon="0.15700237">
        <time>2022-07-06T16:54:22Z</time>
      </trkpt>
      <trkpt lat="41.90716" lon="0.1570877">
        <time>2022-07-06T16:54:23Z</time>
      </trkpt>
      <trkpt lat="41.907185" lon="0.15717337">
        <time>2022-07-06T16:54:24Z</time>
      </trkpt>
      <trkpt lat="41.907207" lon="0.15726002">
        <time>2022-07-06T16:54:25Z</time>
      </trkpt>
      <trkpt lat="41.907227" lon="0.15734668">
        <time>2022-07-06T16:54:26Z</time>
      </trkpt>
      <trkpt lat="41.90725" lon="0.15743335">
        <time>2022-07-06T16:54:27Z</time>
      </trkpt>
      <trkpt lat="41.90727" lon="0.15751934">
        <time>2022-07-06T16:54:28Z</time>
      </trkpt>
      <trkpt lat="41.907288" lon="0.15760566">
        <time>2022-07-06T16:54:29Z</time>
      </trkpt>
      <trkpt lat="41.907307" lon="0.157692">
        <time>2022-07-06T16:54:30Z</time>
      </trkpt>
      <trkpt lat="41.90734" lon="0.15787034">
        <time>2022-07-06T16:54:32Z</time>
      </trkpt>
      <trkpt lat="41.90736" lon="0.15795733">
        <time>2022-07-06T16:54:33Z</time>
      </trkpt>
      <trkpt lat="41.90738" lon="0.15805098">
        <time>2022-07-06T16:54:34Z</time>
      </trkpt>
      <trkpt lat="41.907394" lon="0.15814333">
        <time>2022-07-06T16:54:35Z</time>
      </trkpt>
      <trkpt lat="41.907413" lon="0.15822932">
        <time>2022-07-06T16:54:36Z</time>
      </trkpt>
      <trkpt lat="41.90743" lon="0.15831666">
        <time>2022-07-06T16:54:37Z</time>
      </trkpt>
      <trkpt lat="41.907444" lon="0.15840597">
        <time>2022-07-06T16:54:38Z</time>
      </trkpt>
      <trkpt lat="41.907463" lon="0.15849563">
        <time>2022-07-06T16:54:39Z</time>
      </trkpt>
      <trkpt lat="41.90748" lon="0.1585843">
        <time>2022-07-06T16:54:40Z</time>
      </trkpt>
      <trkpt lat="41.907494" lon="0.15867396">
        <time>2022-07-06T16:54:41Z</time>
      </trkpt>
      <trkpt lat="41.907513" lon="0.15876362">
        <time>2022-07-06T16:54:42Z</time>
      </trkpt>
      <trkpt lat="41.90753" lon="0.15885495">
        <time>2022-07-06T16:54:43Z</time>
      </trkpt>
      <trkpt lat="41.907547" lon="0.15894528">
        <time>2022-07-06T16:54:44Z</time>
      </trkpt>
      <trkpt lat="41.907562" lon="0.15903628">
        <time>2022-07-06T16:54:45Z</time>
      </trkpt>
      <trkpt lat="41.907578" lon="0.15912561">
        <time>2022-07-06T16:54:46Z</time>
      </trkpt>
      <trkpt lat="41.907593" lon="0.15921594">
        <time>2022-07-06T16:54:47Z</time>
      </trkpt>
      <trkpt lat="41.90761" lon="0.1593056">
        <time>2022-07-06T16:54:48Z</time>
      </trkpt>
      <trkpt lat="41.907627" lon="0.1593956">
        <time>2022-07-06T16:54:49Z</time>
      </trkpt>
      <trkpt lat="41.907642" lon="0.1594866">
        <time>2022-07-06T16:54:50Z</time>
      </trkpt>
      <trkpt lat="41.907658" lon="0.1595776">
        <time>2022-07-06T16:54:51Z</time>
      </trkpt>
      <trkpt lat="41.907677" lon="0.15966827">
        <time>2022-07-06T16:54:52Z</time>
      </trkpt>
      <trkpt lat="41.907692" lon="0.15975858">
        <time>2022-07-06T16:54:53Z</time>
      </trkpt>
      <trkpt lat="41.907707" lon="0.15984993">
        <time>2022-07-06T16:54:54Z</time>
      </trkpt>
      <trkpt lat="41.907722" lon="0.15994158">
        <time>2022-07-06T16:54:55Z</time>
      </trkpt>
      <trkpt lat="41.907738" lon="0.16002724">
        <time>2022-07-06T16:54:56Z</time>
      </trkpt>
      <trkpt lat="41.907757" lon="0.16012023">
        <time>2022-07-06T16:54:57Z</time>
      </trkpt>
      <trkpt lat="41.907772" lon="0.16021223">
        <time>2022-07-06T16:54:58Z</time>
      </trkpt>
      <trkpt lat="41.907787" lon="0.1602979">
        <time>2022-07-06T16:54:59Z</time>
      </trkpt>
      <trkpt lat="41.907803" lon="0.1603859">
        <time>2022-07-06T16:55:00Z</time>
      </trkpt>
      <trkpt lat="41.907818" lon="0.1604759">
        <time>2022-07-06T16:55:01Z</time>
      </trkpt>
      <trkpt lat="41.907837" lon="0.16057423">
        <time>2022-07-06T16:55:02Z</time>
      </trkpt>
      <trkpt lat="41.907852" lon="0.16067156">
        <time>2022-07-06T16:55:03Z</time>
      </trkpt>
      <trkpt lat="41.90787" lon="0.16076855">
        <time>2022-07-06T16:55:04Z</time>
      </trkpt>
      <trkpt lat="41.907887" lon="0.16086556">
        <time>2022-07-06T16:55:05Z</time>
      </trkpt>
      <trkpt lat="41.907906" lon="0.16096222">
        <time>2022-07-06T16:55:06Z</time>
      </trkpt>
      <trkpt lat="41.907925" lon="0.16105954">
        <time>2022-07-06T16:55:07Z</time>
      </trkpt>
      <trkpt lat="41.90794" lon="0.1611572">
        <time>2022-07-06T16:55:08Z</time>
      </trkpt>
      <trkpt lat="41.907955" lon="0.16125554">
        <time>2022-07-06T16:55:09Z</time>
      </trkpt>
      <trkpt lat="41.907967" lon="0.1613552">
        <time>2022-07-06T16:55:10Z</time>
      </trkpt>
      <trkpt lat="41.907974" lon="0.16145353">
        <time>2022-07-06T16:55:11Z</time>
      </trkpt>
      <trkpt lat="41.907978" lon="0.16155219">
        <time>2022-07-06T16:55:12Z</time>
      </trkpt>
      <trkpt lat="41.907974" lon="0.16165052">
        <time>2022-07-06T16:55:13Z</time>
      </trkpt>
      <trkpt lat="41.907967" lon="0.16175018">
        <time>2022-07-06T16:55:14Z</time>
      </trkpt>
      <trkpt lat="41.90796" lon="0.16185018">
        <time>2022-07-06T16:55:15Z</time>
      </trkpt>
      <trkpt lat="41.90795" lon="0.16195084">
        <time>2022-07-06T16:55:16Z</time>
      </trkpt>
      <trkpt lat="41.907944" lon="0.1620525">
        <time>2022-07-06T16:55:17Z</time>
      </trkpt>
      <trkpt lat="41.90794" lon="0.16215482">
        <time>2022-07-06T16:55:18Z</time>
      </trkpt>
      <trkpt lat="41.90794" lon="0.16225883">
        <time>2022-07-06T16:55:19Z</time>
      </trkpt>
      <trkpt lat="41.907944" lon="0.16236448">
        <time>2022-07-06T16:55:20Z</time>
      </trkpt>
      <trkpt lat="41.907948" lon="0.16247149">
        <time>2022-07-06T16:55:21Z</time>
      </trkpt>
      <trkpt lat="41.907955" lon="0.16258082">
        <time>2022-07-06T16:55:22Z</time>
      </trkpt>
      <trkpt lat="41.90795" lon="0.16269249">
        <time>2022-07-06T16:55:23Z</time>
      </trkpt>
      <trkpt lat="41.907944" lon="0.16280381">
        <time>2022-07-06T16:55:24Z</time>
      </trkpt>
      <trkpt lat="41.90793" lon="0.16291481">
        <time>2022-07-06T16:55:25Z</time>
      </trkpt>
      <trkpt lat="41.90791" lon="0.16302381">
        <time>2022-07-06T16:55:26Z</time>
      </trkpt>
      <trkpt lat="41.907883" lon="0.16313215">
        <time>2022-07-06T16:55:27Z</time>
      </trkpt>
      <trkpt lat="41.907856" lon="0.1632408">
        <time>2022-07-06T16:55:28Z</time>
      </trkpt>
      <trkpt lat="41.90783" lon="0.16335113">
        <time>2022-07-06T16:55:29Z</time>
      </trkpt>
      <trkpt lat="41.90781" lon="0.16346313">
        <time>2022-07-06T16:55:30Z</time>
      </trkpt>
      <trkpt lat="41.9078" lon="0.16357712">
        <time>2022-07-06T16:55:31Z</time>
      </trkpt>
      <trkpt lat="41.907795" lon="0.16369313">
        <time>2022-07-06T16:55:32Z</time>
      </trkpt>
      <trkpt lat="41.907803" lon="0.16381146">
        <time>2022-07-06T16:55:33Z</time>
      </trkpt>
      <trkpt lat="41.907818" lon="0.16393079">
        <time>2022-07-06T16:55:34Z</time>
      </trkpt>
      <trkpt lat="41.907837" lon="0.16405044">
        <time>2022-07-06T16:55:35Z</time>
      </trkpt>
      <trkpt lat="41.907887" lon="0.16428578">
        <time>2022-07-06T16:55:37Z</time>
      </trkpt>
      <trkpt lat="41.90792" lon="0.16439778">
        <time>2022-07-06T16:55:38Z</time>
      </trkpt>
      <trkpt lat="41.90796" lon="0.16450244">
        <time>2022-07-06T16:55:39Z</time>
      </trkpt>
      <trkpt lat="41.90801" lon="0.1645971">
        <time>2022-07-06T16:55:40Z</time>
      </trkpt>
      <trkpt lat="41.908066" lon="0.1646801">
        <time>2022-07-06T16:55:41Z</time>
      </trkpt>
      <trkpt lat="41.908134" lon="0.16475643">
        <time>2022-07-06T16:55:42Z</time>
      </trkpt>
      <trkpt lat="41.90821" lon="0.16482009">
        <time>2022-07-06T16:55:43Z</time>
      </trkpt>
      <trkpt lat="41.90829" lon="0.16487043">
        <time>2022-07-06T16:55:44Z</time>
      </trkpt>
      <trkpt lat="41.908375" lon="0.16490775">
        <time>2022-07-06T16:55:45Z</time>
      </trkpt>
      <trkpt lat="41.908463" lon="0.16493209">
        <time>2022-07-06T16:55:46Z</time>
      </trkpt>
      <trkpt lat="41.90855" lon="0.16494708">
        <time>2022-07-06T16:55:47Z</time>
      </trkpt>
      <trkpt lat="41.908638" lon="0.16495508">
        <time>2022-07-06T16:55:48Z</time>
      </trkpt>
      <trkpt lat="41.908722" lon="0.16496041">
        <time>2022-07-06T16:55:49Z</time>
      </trkpt>
      <trkpt lat="41.908806" lon="0.16496241">
        <time>2022-07-06T16:55:50Z</time>
      </trkpt>
      <trkpt lat="41.908894" lon="0.16496241">
        <time>2022-07-06T16:55:51Z</time>
      </trkpt>
      <trkpt lat="41.90898" lon="0.16496009">
        <time>2022-07-06T16:55:52Z</time>
      </trkpt>
      <trkpt lat="41.909073" lon="0.16495275">
        <time>2022-07-06T16:55:53Z</time>
      </trkpt>
      <trkpt lat="41.90916" lon="0.16494042">
        <time>2022-07-06T16:55:54Z</time>
      </trkpt>
      <trkpt lat="41.909252" lon="0.16492742">
        <time>2022-07-06T16:55:55Z</time>
      </trkpt>
      <trkpt lat="41.909344" lon="0.16491476">
        <time>2022-07-06T16:55:56Z</time>
      </trkpt>
      <trkpt lat="41.909435" lon="0.16490343">
        <time>2022-07-06T16:55:57Z</time>
      </trkpt>
      <trkpt lat="41.909527" lon="0.16489378">
        <time>2022-07-06T16:55:58Z</time>
      </trkpt>
      <trkpt lat="41.909615" lon="0.16488777">
        <time>2022-07-06T16:55:59Z</time>
      </trkpt>
      <trkpt lat="41.909706" lon="0.16488612">
        <time>2022-07-06T16:56:00Z</time>
      </trkpt>
      <trkpt lat="41.9098" lon="0.16488977">
        <time>2022-07-06T16:56:01Z</time>
      </trkpt>
      <trkpt lat="41.90989" lon="0.1648961">
        <time>2022-07-06T16:56:02Z</time>
      </trkpt>
      <trkpt lat="41.909977" lon="0.1649061">
        <time>2022-07-06T16:56:03Z</time>
      </trkpt>
      <trkpt lat="41.91007" lon="0.1649191">
        <time>2022-07-06T16:56:04Z</time>
      </trkpt>
      <trkpt lat="41.91016" lon="0.16493276">
        <time>2022-07-06T16:56:05Z</time>
      </trkpt>
      <trkpt lat="41.910248" lon="0.1649461">
        <time>2022-07-06T16:56:06Z</time>
      </trkpt>
      <trkpt lat="41.910336" lon="0.16496243">
        <time>2022-07-06T16:56:07Z</time>
      </trkpt>
      <trkpt lat="41.910423" lon="0.16498275">
        <time>2022-07-06T16:56:08Z</time>
      </trkpt>
      <trkpt lat="41.91051" lon="0.16500875">
        <time>2022-07-06T16:56:09Z</time>
      </trkpt>
      <trkpt lat="41.9106" lon="0.16504107">
        <time>2022-07-06T16:56:10Z</time>
      </trkpt>
      <trkpt lat="41.910686" lon="0.16507974">
        <time>2022-07-06T16:56:11Z</time>
      </trkpt>
      <trkpt lat="41.91077" lon="0.16512474">
        <time>2022-07-06T16:56:12Z</time>
      </trkpt>
      <trkpt lat="41.910854" lon="0.16517307">
        <time>2022-07-06T16:56:13Z</time>
      </trkpt>
      <trkpt lat="41.91094" lon="0.16522408">
        <time>2022-07-06T16:56:14Z</time>
      </trkpt>
      <trkpt lat="41.91102" lon="0.16527706">
        <time>2022-07-06T16:56:15Z</time>
      </trkpt>
      <trkpt lat="41.91111" lon="0.16533308">
        <time>2022-07-06T16:56:16Z</time>
      </trkpt>
      <trkpt lat="41.911194" lon="0.1653814">
        <time>2022-07-06T16:56:17Z</time>
      </trkpt>
      <trkpt lat="41.911278" lon="0.16542473">
        <time>2022-07-06T16:56:18Z</time>
      </trkpt>
      <trkpt lat="41.911366" lon="0.16546373">
        <time>2022-07-06T16:56:19Z</time>
      </trkpt>
      <trkpt lat="41.911453" lon="0.16550039">
        <time>2022-07-06T16:56:20Z</time>
      </trkpt>
      <trkpt lat="41.911545" lon="0.16553505">
        <time>2022-07-06T16:56:21Z</time>
      </trkpt>
      <trkpt lat="41.911625" lon="0.16556238">
        <time>2022-07-06T16:56:22Z</time>
      </trkpt>
      <trkpt lat="41.911705" lon="0.16558738">
        <time>2022-07-06T16:56:23Z</time>
      </trkpt>
      <trkpt lat="41.91179" lon="0.16561104">
        <time>2022-07-06T16:56:24Z</time>
      </trkpt>
      <trkpt lat="41.91187" lon="0.16563204">
        <time>2022-07-06T16:56:25Z</time>
      </trkpt>
      <trkpt lat="41.91195" lon="0.1656517">
        <time>2022-07-06T16:56:26Z</time>
      </trkpt>
      <trkpt lat="41.912025" lon="0.16567104">
        <time>2022-07-06T16:56:27Z</time>
      </trkpt>
      <trkpt lat="41.912098" lon="0.16568837">
        <time>2022-07-06T16:56:28Z</time>
      </trkpt>
      <trkpt lat="41.912174" lon="0.16570702">
        <time>2022-07-06T16:56:29Z</time>
      </trkpt>
      <trkpt lat="41.912247" lon="0.16572668">
        <time>2022-07-06T16:56:30Z</time>
      </trkpt>
      <trkpt lat="41.91232" lon="0.16574702">
        <time>2022-07-06T16:56:31Z</time>
      </trkpt>
      <trkpt lat="41.91239" lon="0.16577001">
        <time>2022-07-06T16:56:32Z</time>
      </trkpt>
      <trkpt lat="41.91246" lon="0.16579434">
        <time>2022-07-06T16:56:33Z</time>
      </trkpt>
      <trkpt lat="41.912533" lon="0.16581967">
        <time>2022-07-06T16:56:34Z</time>
      </trkpt>
      <trkpt lat="41.912605" lon="0.16584668">
        <time>2022-07-06T16:56:35Z</time>
      </trkpt>
      <trkpt lat="41.912674" lon="0.16587767">
        <time>2022-07-06T16:56:36Z</time>
      </trkpt>
      <trkpt lat="41.912746" lon="0.165909">
        <time>2022-07-06T16:56:37Z</time>
      </trkpt>
      <trkpt lat="41.91282" lon="0.165943">
        <time>2022-07-06T16:56:38Z</time>
      </trkpt>
      <trkpt lat="41.91289" lon="0.165977">
        <time>2022-07-06T16:56:39Z</time>
      </trkpt>
      <trkpt lat="41.91296" lon="0.16601">
        <time>2022-07-06T16:56:40Z</time>
      </trkpt>
      <trkpt lat="41.913033" lon="0.16604066">
        <time>2022-07-06T16:56:41Z</time>
      </trkpt>
      <trkpt lat="41.913097" lon="0.16606866">
        <time>2022-07-06T16:56:42Z</time>
      </trkpt>
      <trkpt lat="41.913166" lon="0.16609699">
        <time>2022-07-06T16:56:43Z</time>
      </trkpt>
      <trkpt lat="41.91323" lon="0.16612598">
        <time>2022-07-06T16:56:44Z</time>
      </trkpt>
      <trkpt lat="41.913296" lon="0.16615266">
        <time>2022-07-06T16:56:45Z</time>
      </trkpt>
      <trkpt lat="41.91336" lon="0.1661753">
        <time>2022-07-06T16:56:46Z</time>
      </trkpt>
      <trkpt lat="41.913425" lon="0.16619398">
        <time>2022-07-06T16:56:47Z</time>
      </trkpt>
      <trkpt lat="41.913494" lon="0.1662083">
        <time>2022-07-06T16:56:48Z</time>
      </trkpt>
      <trkpt lat="41.913567" lon="0.16621695">
        <time>2022-07-06T16:56:49Z</time>
      </trkpt>
      <trkpt lat="41.91364" lon="0.16622362">
        <time>2022-07-06T16:56:50Z</time>
      </trkpt>
      <trkpt lat="41.913708" lon="0.16622862">
        <time>2022-07-06T16:56:51Z</time>
      </trkpt>
      <trkpt lat="41.913837" lon="0.16623962">
        <time>2022-07-06T16:56:53Z</time>
      </trkpt>
      <trkpt lat="41.91391" lon="0.16624828">
        <time>2022-07-06T16:56:54Z</time>
      </trkpt>
      <trkpt lat="41.913986" lon="0.16626194">
        <time>2022-07-06T16:56:55Z</time>
      </trkpt>
      <trkpt lat="41.914062" lon="0.16628127">
        <time>2022-07-06T16:56:56Z</time>
      </trkpt>
      <trkpt lat="41.91413" lon="0.16630226">
        <time>2022-07-06T16:56:57Z</time>
      </trkpt>
      <trkpt lat="41.914204" lon="0.16632994">
        <time>2022-07-06T16:56:58Z</time>
      </trkpt>
      <trkpt lat="41.914276" lon="0.16636226">
        <time>2022-07-06T16:56:59Z</time>
      </trkpt>
      <trkpt lat="41.91434" lon="0.16639626">
        <time>2022-07-06T16:57:00Z</time>
      </trkpt>
      <trkpt lat="41.914413" lon="0.1664376">
        <time>2022-07-06T16:57:01Z</time>
      </trkpt>
      <trkpt lat="41.91448" lon="0.16647892">
        <time>2022-07-06T16:57:02Z</time>
      </trkpt>
      <trkpt lat="41.91454" lon="0.16652258">
        <time>2022-07-06T16:57:03Z</time>
      </trkpt>
      <trkpt lat="41.914608" lon="0.16656923">
        <time>2022-07-06T16:57:04Z</time>
      </trkpt>
      <trkpt lat="41.914677" lon="0.16661523">
        <time>2022-07-06T16:57:05Z</time>
      </trkpt>
      <trkpt lat="41.914738" lon="0.16665724">
        <time>2022-07-06T16:57:06Z</time>
      </trkpt>
      <trkpt lat="41.9148" lon="0.16669925">
        <time>2022-07-06T16:57:07Z</time>
      </trkpt>
      <trkpt lat="41.91486" lon="0.16674224">
        <time>2022-07-06T16:57:08Z</time>
      </trkpt>
      <trkpt lat="41.91492" lon="0.16678657">
        <time>2022-07-06T16:57:09Z</time>
      </trkpt>
      <trkpt lat="41.914978" lon="0.16682923">
        <time>2022-07-06T16:57:10Z</time>
      </trkpt>
      <trkpt lat="41.915035" lon="0.16687189">
        <time>2022-07-06T16:57:11Z</time>
      </trkpt>
      <trkpt lat="41.91509" lon="0.1669139">
        <time>2022-07-06T16:57:12Z</time>
      </trkpt>
      <trkpt lat="41.915146" lon="0.16695555">
        <time>2022-07-06T16:57:13Z</time>
      </trkpt>
      <trkpt lat="41.9152" lon="0.16699421">
        <time>2022-07-06T16:57:14Z</time>
      </trkpt>
      <trkpt lat="41.915253" lon="0.16703121">
        <time>2022-07-06T16:57:15Z</time>
      </trkpt>
      <trkpt lat="41.91531" lon="0.16706488">
        <time>2022-07-06T16:57:16Z</time>
      </trkpt>
      <trkpt lat="41.915363" lon="0.16709653">
        <time>2022-07-06T16:57:17Z</time>
      </trkpt>
      <trkpt lat="41.91542" lon="0.1671262">
        <time>2022-07-06T16:57:18Z</time>
      </trkpt>
      <trkpt lat="41.91547" lon="0.16715652">
        <time>2022-07-06T16:57:19Z</time>
      </trkpt>
      <trkpt lat="41.915524" lon="0.16718718">
        <time>2022-07-06T16:57:20Z</time>
      </trkpt>
      <trkpt lat="41.915573" lon="0.16721784">
        <time>2022-07-06T16:57:21Z</time>
      </trkpt>
      <trkpt lat="41.915627" lon="0.16724817">
        <time>2022-07-06T16:57:22Z</time>
      </trkpt>
      <trkpt lat="41.915676" lon="0.1672785">
        <time>2022-07-06T16:57:23Z</time>
      </trkpt>
      <trkpt lat="41.915726" lon="0.16730917">
        <time>2022-07-06T16:57:24Z</time>
      </trkpt>
      <trkpt lat="41.91578" lon="0.16734116">
        <time>2022-07-06T16:57:25Z</time>
      </trkpt>
      <trkpt lat="41.91583" lon="0.16737482">
        <time>2022-07-06T16:57:26Z</time>
      </trkpt>
      <trkpt lat="41.915882" lon="0.16740982">
        <time>2022-07-06T16:57:27Z</time>
      </trkpt>
      <trkpt lat="41.915936" lon="0.16744515">
        <time>2022-07-06T16:57:28Z</time>
      </trkpt>
      <trkpt lat="41.91599" lon="0.16747949">
        <time>2022-07-06T16:57:29Z</time>
      </trkpt>
      <trkpt lat="41.916046" lon="0.16751482">
        <time>2022-07-06T16:57:30Z</time>
      </trkpt>
      <trkpt lat="41.9161" lon="0.16754948">
        <time>2022-07-06T16:57:31Z</time>
      </trkpt>
      <trkpt lat="41.916157" lon="0.1675848">
        <time>2022-07-06T16:57:32Z</time>
      </trkpt>
      <trkpt lat="41.916214" lon="0.1676208">
        <time>2022-07-06T16:57:33Z</time>
      </trkpt>
      <trkpt lat="41.91627" lon="0.16765946">
        <time>2022-07-06T16:57:34Z</time>
      </trkpt>
      <trkpt lat="41.91633" lon="0.16769812">
        <time>2022-07-06T16:57:35Z</time>
      </trkpt>
      <trkpt lat="41.916386" lon="0.16773444">
        <time>2022-07-06T16:57:36Z</time>
      </trkpt>
      <trkpt lat="41.916443" lon="0.16776845">
        <time>2022-07-06T16:57:37Z</time>
      </trkpt>
      <trkpt lat="41.9165" lon="0.16780145">
        <time>2022-07-06T16:57:38Z</time>
      </trkpt>
      <trkpt lat="41.916553" lon="0.16783544">
        <time>2022-07-06T16:57:39Z</time>
      </trkpt>
      <trkpt lat="41.91661" lon="0.16787212">
        <time>2022-07-06T16:57:40Z</time>
      </trkpt>
      <trkpt lat="41.916664" lon="0.16790977">
        <time>2022-07-06T16:57:41Z</time>
      </trkpt>
      <trkpt lat="41.916714" lon="0.16795044">
        <time>2022-07-06T16:57:42Z</time>
      </trkpt>
      <trkpt lat="41.916767" lon="0.1679941">
        <time>2022-07-06T16:57:43Z</time>
      </trkpt>
      <trkpt lat="41.916817" lon="0.16804075">
        <time>2022-07-06T16:57:44Z</time>
      </trkpt>
      <trkpt lat="41.916862" lon="0.1680904">
        <time>2022-07-06T16:57:45Z</time>
      </trkpt>
      <trkpt lat="41.916912" lon="0.16814241">
        <time>2022-07-06T16:57:46Z</time>
      </trkpt>
      <trkpt lat="41.916954" lon="0.16819741">
        <time>2022-07-06T16:57:47Z</time>
      </trkpt>
      <trkpt lat="41.916996" lon="0.1682534">
        <time>2022-07-06T16:57:48Z</time>
      </trkpt>
      <trkpt lat="41.917038" lon="0.16831107">
        <time>2022-07-06T16:57:49Z</time>
      </trkpt>
      <trkpt lat="41.91708" lon="0.16836973">
        <time>2022-07-06T16:57:50Z</time>
      </trkpt>
      <trkpt lat="41.917118" lon="0.16842774">
        <time>2022-07-06T16:57:51Z</time>
      </trkpt>
      <trkpt lat="41.917152" lon="0.16848606">
        <time>2022-07-06T16:57:52Z</time>
      </trkpt>
      <trkpt lat="41.91719" lon="0.1685454">
        <time>2022-07-06T16:57:53Z</time>
      </trkpt>
      <trkpt lat="41.917225" lon="0.16860604">
        <time>2022-07-06T16:57:54Z</time>
      </trkpt>
      <trkpt lat="41.917255" lon="0.16866705">
        <time>2022-07-06T16:57:55Z</time>
      </trkpt>
      <trkpt lat="41.917286" lon="0.16872805">
        <time>2022-07-06T16:57:56Z</time>
      </trkpt>
      <trkpt lat="41.917316" lon="0.16878904">
        <time>2022-07-06T16:57:57Z</time>
      </trkpt>
      <trkpt lat="41.917343" lon="0.16884905">
        <time>2022-07-06T16:57:58Z</time>
      </trkpt>
      <trkpt lat="41.91737" lon="0.16890904">
        <time>2022-07-06T16:57:59Z</time>
      </trkpt>
      <trkpt lat="41.9174" lon="0.16896838">
        <time>2022-07-06T16:58:00Z</time>
      </trkpt>
      <trkpt lat="41.917427" lon="0.16902737">
        <time>2022-07-06T16:58:01Z</time>
      </trkpt>
      <trkpt lat="41.917458" lon="0.16908571">
        <time>2022-07-06T16:58:02Z</time>
      </trkpt>
      <trkpt lat="41.91752" lon="0.16920371">
        <time>2022-07-06T16:58:04Z</time>
      </trkpt>
      <trkpt lat="41.917545" lon="0.16926336">
        <time>2022-07-06T16:58:05Z</time>
      </trkpt>
      <trkpt lat="41.917576" lon="0.16932237">
        <time>2022-07-06T16:58:06Z</time>
      </trkpt>
      <trkpt lat="41.917606" lon="0.1693807">
        <time>2022-07-06T16:58:07Z</time>
      </trkpt>
      <trkpt lat="41.917667" lon="0.1694967">
        <time>2022-07-06T16:58:09Z</time>
      </trkpt>
      <trkpt lat="41.9177" lon="0.1695547">
        <time>2022-07-06T16:58:10Z</time>
      </trkpt>
      <trkpt lat="41.917736" lon="0.16961236">
        <time>2022-07-06T16:58:11Z</time>
      </trkpt>
      <trkpt lat="41.91777" lon="0.16967069">
        <time>2022-07-06T16:58:12Z</time>
      </trkpt>
      <trkpt lat="41.91781" lon="0.1697307">
        <time>2022-07-06T16:58:13Z</time>
      </trkpt>
      <trkpt lat="41.917843" lon="0.16979168">
        <time>2022-07-06T16:58:14Z</time>
      </trkpt>
      <trkpt lat="41.917873" lon="0.16984902">
        <time>2022-07-06T16:58:15Z</time>
      </trkpt>
      <trkpt lat="41.917908" lon="0.16990802">
        <time>2022-07-06T16:58:16Z</time>
      </trkpt>
      <trkpt lat="41.917946" lon="0.16997267">
        <time>2022-07-06T16:58:17Z</time>
      </trkpt>
      <trkpt lat="41.91798" lon="0.17003702">
        <time>2022-07-06T16:58:18Z</time>
      </trkpt>
      <trkpt lat="41.918015" lon="0.17010202">
        <time>2022-07-06T16:58:19Z</time>
      </trkpt>
      <trkpt lat="41.91805" lon="0.17016734">
        <time>2022-07-06T16:58:20Z</time>
      </trkpt>
      <trkpt lat="41.91808" lon="0.170229">
        <time>2022-07-06T16:58:21Z</time>
      </trkpt>
      <trkpt lat="41.91811" lon="0.170296">
        <time>2022-07-06T16:58:22Z</time>
      </trkpt>
      <trkpt lat="41.918137" lon="0.17036366">
        <time>2022-07-06T16:58:23Z</time>
      </trkpt>
      <trkpt lat="41.918167" lon="0.17043066">
        <time>2022-07-06T16:58:24Z</time>
      </trkpt>
      <trkpt lat="41.91819" lon="0.170499">
        <time>2022-07-06T16:58:25Z</time>
      </trkpt>
      <trkpt lat="41.918213" lon="0.17056665">
        <time>2022-07-06T16:58:26Z</time>
      </trkpt>
      <trkpt lat="41.918232" lon="0.17063265">
        <time>2022-07-06T16:58:27Z</time>
      </trkpt>
      <trkpt lat="41.91825" lon="0.17069697">
        <time>2022-07-06T16:58:28Z</time>
      </trkpt>
      <trkpt lat="41.918278" lon="0.17082231">
        <time>2022-07-06T16:58:30Z</time>
      </trkpt>
      <trkpt lat="41.918293" lon="0.17094731">
        <time>2022-07-06T16:58:32Z</time>
      </trkpt>
      <trkpt lat="41.918297" lon="0.17107497">
        <time>2022-07-06T16:58:34Z</time>
      </trkpt>
      <trkpt lat="41.91831" lon="0.17121263">
        <time>2022-07-06T16:58:36Z</time>
      </trkpt>
      <trkpt lat="41.918312" lon="0.17128164">
        <time>2022-07-06T16:58:37Z</time>
      </trkpt>
      <trkpt lat="41.918316" lon="0.17142129">
        <time>2022-07-06T16:58:39Z</time>
      </trkpt>
      <trkpt lat="41.91832" lon="0.17149195">
        <time>2022-07-06T16:58:40Z</time>
      </trkpt>
      <trkpt lat="41.918324" lon="0.17156361">
        <time>2022-07-06T16:58:41Z</time>
      </trkpt>
      <trkpt lat="41.918327" lon="0.17163494">
        <time>2022-07-06T16:58:42Z</time>
      </trkpt>
      <trkpt lat="41.918327" lon="0.1717076">
        <time>2022-07-06T16:58:43Z</time>
      </trkpt>
      <trkpt lat="41.91833" lon="0.1717806">
        <time>2022-07-06T16:58:44Z</time>
      </trkpt>
      <trkpt lat="41.91833" lon="0.17184994">
        <time>2022-07-06T16:58:45Z</time>
      </trkpt>
      <trkpt lat="41.91833" lon="0.17199826">
        <time>2022-07-06T16:58:47Z</time>
      </trkpt>
      <trkpt lat="41.91833" lon="0.17207359">
        <time>2022-07-06T16:58:48Z</time>
      </trkpt>
      <trkpt lat="41.91833" lon="0.17214859">
        <time>2022-07-06T16:58:49Z</time>
      </trkpt>
      <trkpt lat="41.91833" lon="0.17222293">
        <time>2022-07-06T16:58:50Z</time>
      </trkpt>
      <trkpt lat="41.91833" lon="0.17229626">
        <time>2022-07-06T16:58:51Z</time>
      </trkpt>
      <trkpt lat="41.91833" lon="0.17236458">
        <time>2022-07-06T16:58:52Z</time>
      </trkpt>
      <trkpt lat="41.91833" lon="0.17243358">
        <time>2022-07-06T16:58:53Z</time>
      </trkpt>
      <trkpt lat="41.91833" lon="0.17250124">
        <time>2022-07-06T16:58:54Z</time>
      </trkpt>
      <trkpt lat="41.918327" lon="0.1725719">
        <time>2022-07-06T16:58:55Z</time>
      </trkpt>
      <trkpt lat="41.918327" lon="0.17270023">
        <time>2022-07-06T16:58:57Z</time>
      </trkpt>
      <trkpt lat="41.918335" lon="0.17282157">
        <time>2022-07-06T16:58:59Z</time>
      </trkpt>
      <trkpt lat="41.91833" lon="0.17293689">
        <time>2022-07-06T16:59:01Z</time>
      </trkpt>
      <trkpt lat="41.918324" lon="0.17305222">
        <time>2022-07-06T16:59:03Z</time>
      </trkpt>
      <trkpt lat="41.91832" lon="0.17316088">
        <time>2022-07-06T16:59:05Z</time>
      </trkpt>
      <trkpt lat="41.918316" lon="0.17326654">
        <time>2022-07-06T16:59:07Z</time>
      </trkpt>
      <trkpt lat="41.918316" lon="0.1733742">
        <time>2022-07-06T16:59:09Z</time>
      </trkpt>
      <trkpt lat="41.918312" lon="0.1734812">
        <time>2022-07-06T16:59:11Z</time>
      </trkpt>
      <trkpt lat="41.918312" lon="0.1735882">
        <time>2022-07-06T16:59:13Z</time>
      </trkpt>
      <trkpt lat="41.918316" lon="0.17369686">
        <time>2022-07-06T16:59:15Z</time>
      </trkpt>
      <trkpt lat="41.918324" lon="0.17380719">
        <time>2022-07-06T16:59:17Z</time>
      </trkpt>
      <trkpt lat="41.91833" lon="0.17391452">
        <time>2022-07-06T16:59:19Z</time>
      </trkpt>
      <trkpt lat="41.918335" lon="0.17408384">
        <time>2022-07-06T16:59:22Z</time>
      </trkpt>
      <trkpt lat="41.91834" lon="0.17419419">
        <time>2022-07-06T16:59:24Z</time>
      </trkpt>
      <trkpt lat="41.918343" lon="0.17431751">
        <time>2022-07-06T16:59:26Z</time>
      </trkpt>
      <trkpt lat="41.918354" lon="0.17444384">
        <time>2022-07-06T16:59:28Z</time>
      </trkpt>
      <trkpt lat="41.918365" lon="0.17456783">
        <time>2022-07-06T16:59:30Z</time>
      </trkpt>
      <trkpt lat="41.91837" lon="0.17469384">
        <time>2022-07-06T16:59:32Z</time>
      </trkpt>
      <trkpt lat="41.918377" lon="0.17481984">
        <time>2022-07-06T16:59:34Z</time>
      </trkpt>
      <trkpt lat="41.918377" lon="0.17495017">
        <time>2022-07-06T16:59:36Z</time>
      </trkpt>
      <trkpt lat="41.91838" lon="0.1750845">
        <time>2022-07-06T16:59:38Z</time>
      </trkpt>
      <trkpt lat="41.91838" lon="0.1752215">
        <time>2022-07-06T16:59:40Z</time>
      </trkpt>
      <trkpt lat="41.918385" lon="0.17528915">
        <time>2022-07-06T16:59:41Z</time>
      </trkpt>
      <trkpt lat="41.91839" lon="0.17542149">
        <time>2022-07-06T16:59:43Z</time>
      </trkpt>
      <trkpt lat="41.918392" lon="0.17556049">
        <time>2022-07-06T16:59:45Z</time>
      </trkpt>
      <trkpt lat="41.918392" lon="0.17563015">
        <time>2022-07-06T16:59:46Z</time>
      </trkpt>
      <trkpt lat="41.918396" lon="0.17577015">
        <time>2022-07-06T16:59:48Z</time>
      </trkpt>
      <trkpt lat="41.918396" lon="0.17583682">
        <time>2022-07-06T16:59:49Z</time>
      </trkpt>
      <trkpt lat="41.9184" lon="0.17590813">
        <time>2022-07-06T16:59:50Z</time>
      </trkpt>
      <trkpt lat="41.918404" lon="0.1759788">
        <time>2022-07-06T16:59:51Z</time>
      </trkpt>
      <trkpt lat="41.91841" lon="0.17612013">
        <time>2022-07-06T16:59:53Z</time>
      </trkpt>
      <trkpt lat="41.91842" lon="0.17619047">
        <time>2022-07-06T16:59:54Z</time>
      </trkpt>
      <trkpt lat="41.91842" lon="0.17626145">
        <time>2022-07-06T16:59:55Z</time>
      </trkpt>
      <trkpt lat="41.918423" lon="0.17633311">
        <time>2022-07-06T16:59:56Z</time>
      </trkpt>
      <trkpt lat="41.918423" lon="0.17640512">
        <time>2022-07-06T16:59:57Z</time>
      </trkpt>
      <trkpt lat="41.918427" lon="0.17647678">
        <time>2022-07-06T16:59:58Z</time>
      </trkpt>
      <trkpt lat="41.918427" lon="0.17654778">
        <time>2022-07-06T16:59:59Z</time>
      </trkpt>
      <trkpt lat="41.918427" lon="0.17661844">
        <time>2022-07-06T17:00:00Z</time>
      </trkpt>
      <trkpt lat="41.91843" lon="0.17668878">
        <time>2022-07-06T17:00:01Z</time>
      </trkpt>
      <trkpt lat="41.918438" lon="0.17683043">
        <time>2022-07-06T17:00:03Z</time>
      </trkpt>
      <trkpt lat="41.91844" lon="0.17689642">
        <time>2022-07-06T17:00:04Z</time>
      </trkpt>
      <trkpt lat="41.918446" lon="0.17696276">
        <time>2022-07-06T17:00:05Z</time>
      </trkpt>
      <trkpt lat="41.918453" lon="0.17710076">
        <time>2022-07-06T17:00:07Z</time>
      </trkpt>
      <trkpt lat="41.918457" lon="0.17716376">
        <time>2022-07-06T17:00:08Z</time>
      </trkpt>
      <trkpt lat="41.91846" lon="0.17729875">
        <time>2022-07-06T17:00:10Z</time>
      </trkpt>
      <trkpt lat="41.91846" lon="0.17736308">
        <time>2022-07-06T17:00:11Z</time>
      </trkpt>
      <trkpt lat="41.918465" lon="0.17742875">
        <time>2022-07-06T17:00:12Z</time>
      </trkpt>
      <trkpt lat="41.91847" lon="0.17756274">
        <time>2022-07-06T17:00:14Z</time>
      </trkpt>
      <trkpt lat="41.918472" lon="0.17763776">
        <time>2022-07-06T17:00:15Z</time>
      </trkpt>
      <trkpt lat="41.918472" lon="0.17771176">
        <time>2022-07-06T17:00:16Z</time>
      </trkpt>
      <trkpt lat="41.918476" lon="0.17778175">
        <time>2022-07-06T17:00:17Z</time>
      </trkpt>
      <trkpt lat="41.918476" lon="0.17785108">
        <time>2022-07-06T17:00:18Z</time>
      </trkpt>
      <trkpt lat="41.91848" lon="0.17792074">
        <time>2022-07-06T17:00:19Z</time>
      </trkpt>
      <trkpt lat="41.91848" lon="0.1779954">
        <time>2022-07-06T17:00:20Z</time>
      </trkpt>
      <trkpt lat="41.918484" lon="0.17806906">
        <time>2022-07-06T17:00:21Z</time>
      </trkpt>
      <trkpt lat="41.918484" lon="0.17814139">
        <time>2022-07-06T17:00:22Z</time>
      </trkpt>
      <trkpt lat="41.918488" lon="0.17821239">
        <time>2022-07-06T17:00:23Z</time>
      </trkpt>
      <trkpt lat="41.918488" lon="0.1782834">
        <time>2022-07-06T17:00:24Z</time>
      </trkpt>
      <trkpt lat="41.91849" lon="0.17835306">
        <time>2022-07-06T17:00:25Z</time>
      </trkpt>
      <trkpt lat="41.91849" lon="0.17842305">
        <time>2022-07-06T17:00:26Z</time>
      </trkpt>
      <trkpt lat="41.918488" lon="0.17849305">
        <time>2022-07-06T17:00:27Z</time>
      </trkpt>
      <trkpt lat="41.918484" lon="0.17863338">
        <time>2022-07-06T17:00:29Z</time>
      </trkpt>
      <trkpt lat="41.918484" lon="0.17870438">
        <time>2022-07-06T17:00:30Z</time>
      </trkpt>
      <trkpt lat="41.918484" lon="0.17877539">
        <time>2022-07-06T17:00:31Z</time>
      </trkpt>
      <trkpt lat="41.918488" lon="0.17884739">
        <time>2022-07-06T17:00:32Z</time>
      </trkpt>
      <trkpt lat="41.918488" lon="0.1789197">
        <time>2022-07-06T17:00:33Z</time>
      </trkpt>
      <trkpt lat="41.918488" lon="0.17899138">
        <time>2022-07-06T17:00:34Z</time>
      </trkpt>
      <trkpt lat="41.918488" lon="0.1790587">
        <time>2022-07-06T17:00:35Z</time>
      </trkpt>
      <trkpt lat="41.91848" lon="0.17920104">
        <time>2022-07-06T17:00:37Z</time>
      </trkpt>
      <trkpt lat="41.918472" lon="0.17927068">
        <time>2022-07-06T17:00:38Z</time>
      </trkpt>
      <trkpt lat="41.91846" lon="0.17934401">
        <time>2022-07-06T17:00:39Z</time>
      </trkpt>
      <trkpt lat="41.918438" lon="0.17948435">
        <time>2022-07-06T17:00:41Z</time>
      </trkpt>
      <trkpt lat="41.918427" lon="0.17955168">
        <time>2022-07-06T17:00:42Z</time>
      </trkpt>
      <trkpt lat="41.918415" lon="0.17961767">
        <time>2022-07-06T17:00:43Z</time>
      </trkpt>
      <trkpt lat="41.91839" lon="0.17974333">
        <time>2022-07-06T17:00:45Z</time>
      </trkpt>
      <trkpt lat="41.91836" lon="0.17985934">
        <time>2022-07-06T17:00:47Z</time>
      </trkpt>
      <trkpt lat="41.91834" lon="0.17998034">
        <time>2022-07-06T17:00:49Z</time>
      </trkpt>
      <trkpt lat="41.918324" lon="0.18004134">
        <time>2022-07-06T17:00:50Z</time>
      </trkpt>
      <trkpt lat="41.918297" lon="0.180157">
        <time>2022-07-06T17:00:52Z</time>
      </trkpt>
      <trkpt lat="41.918266" lon="0.180273">
        <time>2022-07-06T17:00:54Z</time>
      </trkpt>
      <trkpt lat="41.91824" lon="0.18039265">
        <time>2022-07-06T17:00:56Z</time>
      </trkpt>
      <trkpt lat="41.91823" lon="0.18045232">
        <time>2022-07-06T17:00:57Z</time>
      </trkpt>
      <trkpt lat="41.91821" lon="0.18057232">
        <time>2022-07-06T17:00:59Z</time>
      </trkpt>
      <trkpt lat="41.91819" lon="0.18069164">
        <time>2022-07-06T17:01:01Z</time>
      </trkpt>
      <trkpt lat="41.918167" lon="0.18081331">
        <time>2022-07-06T17:01:03Z</time>
      </trkpt>
      <trkpt lat="41.918144" lon="0.18093964">
        <time>2022-07-06T17:01:05Z</time>
      </trkpt>
      <trkpt lat="41.918114" lon="0.1810683">
        <time>2022-07-06T17:01:07Z</time>
      </trkpt>
      <trkpt lat="41.918087" lon="0.18118896">
        <time>2022-07-06T17:01:09Z</time>
      </trkpt>
      <trkpt lat="41.918076" lon="0.18125096">
        <time>2022-07-06T17:01:10Z</time>
      </trkpt>
      <trkpt lat="41.918053" lon="0.18137662">
        <time>2022-07-06T17:01:12Z</time>
      </trkpt>
      <trkpt lat="41.918045" lon="0.18144663">
        <time>2022-07-06T17:01:13Z</time>
      </trkpt>
      <trkpt lat="41.918034" lon="0.18151528">
        <time>2022-07-06T17:01:14Z</time>
      </trkpt>
      <trkpt lat="41.91801" lon="0.18164228">
        <time>2022-07-06T17:01:16Z</time>
      </trkpt>
      <trkpt lat="41.91798" lon="0.18177028">
        <time>2022-07-06T17:01:18Z</time>
      </trkpt>
      <trkpt lat="41.917942" lon="0.18188961">
        <time>2022-07-06T17:01:20Z</time>
      </trkpt>
      <trkpt lat="41.917908" lon="0.18199794">
        <time>2022-07-06T17:01:22Z</time>
      </trkpt>
      <trkpt lat="41.917877" lon="0.1821146">
        <time>2022-07-06T17:01:24Z</time>
      </trkpt>
      <trkpt lat="41.917854" lon="0.1822296">
        <time>2022-07-06T17:01:26Z</time>
      </trkpt>
      <trkpt lat="41.917835" lon="0.18234725">
        <time>2022-07-06T17:01:28Z</time>
      </trkpt>
      <trkpt lat="41.91782" lon="0.18248291">
        <time>2022-07-06T17:01:30Z</time>
      </trkpt>
      <trkpt lat="41.917805" lon="0.18261126">
        <time>2022-07-06T17:01:32Z</time>
      </trkpt>
      <trkpt lat="41.91778" lon="0.18274091">
        <time>2022-07-06T17:01:34Z</time>
      </trkpt>
      <trkpt lat="41.917755" lon="0.1828749">
        <time>2022-07-06T17:01:36Z</time>
      </trkpt>
      <trkpt lat="41.917744" lon="0.18294024">
        <time>2022-07-06T17:01:37Z</time>
      </trkpt>
      <trkpt lat="41.91772" lon="0.18307523">
        <time>2022-07-06T17:01:39Z</time>
      </trkpt>
      <trkpt lat="41.9177" lon="0.18314157">
        <time>2022-07-06T17:01:40Z</time>
      </trkpt>
      <trkpt lat="41.917683" lon="0.1832049">
        <time>2022-07-06T17:01:41Z</time>
      </trkpt>
      <trkpt lat="41.91765" lon="0.1833209">
        <time>2022-07-06T17:01:43Z</time>
      </trkpt>
      <trkpt lat="41.91762" lon="0.18344022">
        <time>2022-07-06T17:01:45Z</time>
      </trkpt>
      <trkpt lat="41.917603" lon="0.18356723">
        <time>2022-07-06T17:01:47Z</time>
      </trkpt>
      <trkpt lat="41.91759" lon="0.18363155">
        <time>2022-07-06T17:01:48Z</time>
      </trkpt>
      <trkpt lat="41.917572" lon="0.18375756">
        <time>2022-07-06T17:01:50Z</time>
      </trkpt>
      <trkpt lat="41.91755" lon="0.18387789">
        <time>2022-07-06T17:01:52Z</time>
      </trkpt>
      <trkpt lat="41.917503" lon="0.18406054">
        <time>2022-07-06T17:01:55Z</time>
      </trkpt>
      <trkpt lat="41.917473" lon="0.18418755">
        <time>2022-07-06T17:01:57Z</time>
      </trkpt>
      <trkpt lat="41.917442" lon="0.18430956">
        <time>2022-07-06T17:01:59Z</time>
      </trkpt>
      <trkpt lat="41.917416" lon="0.18443288">
        <time>2022-07-06T17:02:01Z</time>
      </trkpt>
      <trkpt lat="41.9174" lon="0.18449254">
        <time>2022-07-06T17:02:02Z</time>
      </trkpt>
      <trkpt lat="41.917366" lon="0.18460654">
        <time>2022-07-06T17:02:04Z</time>
      </trkpt>
      <trkpt lat="41.917328" lon="0.1847142">
        <time>2022-07-06T17:02:06Z</time>
      </trkpt>
      <trkpt lat="41.917282" lon="0.18481687">
        <time>2022-07-06T17:02:08Z</time>
      </trkpt>
      <trkpt lat="41.917236" lon="0.18491887">
        <time>2022-07-06T17:02:10Z</time>
      </trkpt>
      <trkpt lat="41.917187" lon="0.18503286">
        <time>2022-07-06T17:02:12Z</time>
      </trkpt>
      <trkpt lat="41.917164" lon="0.18508652">
        <time>2022-07-06T17:02:13Z</time>
      </trkpt>
      <trkpt lat="41.917118" lon="0.18518151">
        <time>2022-07-06T17:02:15Z</time>
      </trkpt>
      <trkpt lat="41.917076" lon="0.18527718">
        <time>2022-07-06T17:02:17Z</time>
      </trkpt>
      <trkpt lat="41.917027" lon="0.18537185">
        <time>2022-07-06T17:02:19Z</time>
      </trkpt>
      <trkpt lat="41.916965" lon="0.1854565">
        <time>2022-07-06T17:02:21Z</time>
      </trkpt>
      <trkpt lat="41.916904" lon="0.1855335">
        <time>2022-07-06T17:02:23Z</time>
      </trkpt>
      <trkpt lat="41.91685" lon="0.18560684">
        <time>2022-07-06T17:02:25Z</time>
      </trkpt>
      <trkpt lat="41.9168" lon="0.18569116">
        <time>2022-07-06T17:02:27Z</time>
      </trkpt>
      <trkpt lat="41.916763" lon="0.18578216">
        <time>2022-07-06T17:02:29Z</time>
      </trkpt>
      <trkpt lat="41.916725" lon="0.18587881">
        <time>2022-07-06T17:02:31Z</time>
      </trkpt>
      <trkpt lat="41.916683" lon="0.18598048">
        <time>2022-07-06T17:02:33Z</time>
      </trkpt>
      <trkpt lat="41.916634" lon="0.18608448">
        <time>2022-07-06T17:02:35Z</time>
      </trkpt>
      <trkpt lat="41.916573" lon="0.18619148">
        <time>2022-07-06T17:02:37Z</time>
      </trkpt>
      <trkpt lat="41.91654" lon="0.18624447">
        <time>2022-07-06T17:02:38Z</time>
      </trkpt>
      <trkpt lat="41.916508" lon="0.1862958">
        <time>2022-07-06T17:02:39Z</time>
      </trkpt>
      <trkpt lat="41.916447" lon="0.18639614">
        <time>2022-07-06T17:02:41Z</time>
      </trkpt>
      <trkpt lat="41.91639" lon="0.18650047">
        <time>2022-07-06T17:02:43Z</time>
      </trkpt>
      <trkpt lat="41.916363" lon="0.1865498">
        <time>2022-07-06T17:02:44Z</time>
      </trkpt>
      <trkpt lat="41.91631" lon="0.18664312">
        <time>2022-07-06T17:02:46Z</time>
      </trkpt>
      <trkpt lat="41.91625" lon="0.18674213">
        <time>2022-07-06T17:02:48Z</time>
      </trkpt>
      <trkpt lat="41.91619" lon="0.18684046">
        <time>2022-07-06T17:02:50Z</time>
      </trkpt>
      <trkpt lat="41.916115" lon="0.18693747">
        <time>2022-07-06T17:02:52Z</time>
      </trkpt>
      <trkpt lat="41.916077" lon="0.1869828">
        <time>2022-07-06T17:02:53Z</time>
      </trkpt>
      <trkpt lat="41.916035" lon="0.18702812">
        <time>2022-07-06T17:02:54Z</time>
      </trkpt>
      <trkpt lat="41.915997" lon="0.18706977">
        <time>2022-07-06T17:02:55Z</time>
      </trkpt>
      <trkpt lat="41.915924" lon="0.18716311">
        <time>2022-07-06T17:02:57Z</time>
      </trkpt>
      <trkpt lat="41.915863" lon="0.18725044">
        <time>2022-07-06T17:02:59Z</time>
      </trkpt>
      <trkpt lat="41.91582" lon="0.18734577">
        <time>2022-07-06T17:03:01Z</time>
      </trkpt>
      <trkpt lat="41.915783" lon="0.1874411">
        <time>2022-07-06T17:03:03Z</time>
      </trkpt>
      <trkpt lat="41.915737" lon="0.1875361">
        <time>2022-07-06T17:03:05Z</time>
      </trkpt>
      <trkpt lat="41.915688" lon="0.18763076">
        <time>2022-07-06T17:03:07Z</time>
      </trkpt>
      <trkpt lat="41.915638" lon="0.18772809">
        <time>2022-07-06T17:03:09Z</time>
      </trkpt>
      <trkpt lat="41.91558" lon="0.18781975">
        <time>2022-07-06T17:03:11Z</time>
      </trkpt>
      <trkpt lat="41.915516" lon="0.18791175">
        <time>2022-07-06T17:03:13Z</time>
      </trkpt>
      <trkpt lat="41.91546" lon="0.18799475">
        <time>2022-07-06T17:03:15Z</time>
      </trkpt>
      <trkpt lat="41.91539" lon="0.18808275">
        <time>2022-07-06T17:03:17Z</time>
      </trkpt>
      <trkpt lat="41.915325" lon="0.18817408">
        <time>2022-07-06T17:03:19Z</time>
      </trkpt>
      <trkpt lat="41.915257" lon="0.18825841">
        <time>2022-07-06T17:03:21Z</time>
      </trkpt>
      <trkpt lat="41.915173" lon="0.1883444">
        <time>2022-07-06T17:03:23Z</time>
      </trkpt>
      <trkpt lat="41.915127" lon="0.18838874">
        <time>2022-07-06T17:03:24Z</time>
      </trkpt>
      <trkpt lat="41.91509" lon="0.18843007">
        <time>2022-07-06T17:03:25Z</time>
      </trkpt>
      <trkpt lat="41.91505" lon="0.18846607">
        <time>2022-07-06T17:03:26Z</time>
      </trkpt>
      <trkpt lat="41.914978" lon="0.18853973">
        <time>2022-07-06T17:03:28Z</time>
      </trkpt>
      <trkpt lat="41.914917" lon="0.18860939">
        <time>2022-07-06T17:03:30Z</time>
      </trkpt>
      <trkpt lat="41.91486" lon="0.18867873">
        <time>2022-07-06T17:03:32Z</time>
      </trkpt>
      <trkpt lat="41.9148" lon="0.18876006">
        <time>2022-07-06T17:03:34Z</time>
      </trkpt>
      <trkpt lat="41.91474" lon="0.18883938">
        <time>2022-07-06T17:03:36Z</time>
      </trkpt>
      <trkpt lat="41.914677" lon="0.18891904">
        <time>2022-07-06T17:03:38Z</time>
      </trkpt>
      <trkpt lat="41.91461" lon="0.18899637">
        <time>2022-07-06T17:03:40Z</time>
      </trkpt>
      <trkpt lat="41.914555" lon="0.18907137">
        <time>2022-07-06T17:03:42Z</time>
      </trkpt>
      <trkpt lat="41.914497" lon="0.18914837">
        <time>2022-07-06T17:03:44Z</time>
      </trkpt>
      <trkpt lat="41.914436" lon="0.1892267">
        <time>2022-07-06T17:03:46Z</time>
      </trkpt>
      <trkpt lat="41.91437" lon="0.18930303">
        <time>2022-07-06T17:03:48Z</time>
      </trkpt>
      <trkpt lat="41.914314" lon="0.18938336">
        <time>2022-07-06T17:03:50Z</time>
      </trkpt>
      <trkpt lat="41.914265" lon="0.18946236">
        <time>2022-07-06T17:03:52Z</time>
      </trkpt>
      <trkpt lat="41.914207" lon="0.18953869">
        <time>2022-07-06T17:03:54Z</time>
      </trkpt>
      <trkpt lat="41.91414" lon="0.18960503">
        <time>2022-07-06T17:03:56Z</time>
      </trkpt>
      <trkpt lat="41.91408" lon="0.18966968">
        <time>2022-07-06T17:03:58Z</time>
      </trkpt>
      <trkpt lat="41.91401" lon="0.18974268">
        <time>2022-07-06T17:04:00Z</time>
      </trkpt>
      <trkpt lat="41.913933" lon="0.18981268">
        <time>2022-07-06T17:04:02Z</time>
      </trkpt>
      <trkpt lat="41.913868" lon="0.18989268">
        <time>2022-07-06T17:04:04Z</time>
      </trkpt>
      <trkpt lat="41.913807" lon="0.18997368">
        <time>2022-07-06T17:04:06Z</time>
      </trkpt>
      <trkpt lat="41.91375" lon="0.19005768">
        <time>2022-07-06T17:04:08Z</time>
      </trkpt>
      <trkpt lat="41.913692" lon="0.19014801">
        <time>2022-07-06T17:04:10Z</time>
      </trkpt>
      <trkpt lat="41.913643" lon="0.19023134">
        <time>2022-07-06T17:04:12Z</time>
      </trkpt>
      <trkpt lat="41.91359" lon="0.19031267">
        <time>2022-07-06T17:04:14Z</time>
      </trkpt>
      <trkpt lat="41.91354" lon="0.190386">
        <time>2022-07-06T17:04:16Z</time>
      </trkpt>
      <trkpt lat="41.91349" lon="0.19044334">
        <time>2022-07-06T17:04:18Z</time>
      </trkpt>
      <trkpt lat="41.913445" lon="0.19050899">
        <time>2022-07-06T17:04:20Z</time>
      </trkpt>
      <trkpt lat="41.913406" lon="0.19057699">
        <time>2022-07-06T17:04:22Z</time>
      </trkpt>
      <trkpt lat="41.91337" lon="0.19064732">
        <time>2022-07-06T17:04:24Z</time>
      </trkpt>
      <trkpt lat="41.91333" lon="0.19070865">
        <time>2022-07-06T17:04:26Z</time>
      </trkpt>
      <trkpt lat="41.913292" lon="0.19073798">
        <time>2022-07-06T17:04:28Z</time>
      </trkpt>
      <trkpt lat="41.913242" lon="0.19071531">
        <time>2022-07-06T17:04:31Z</time>
      </trkpt>
      <trkpt lat="41.913216" lon="0.19065133">
        <time>2022-07-06T17:04:34Z</time>
      </trkpt>
      <trkpt lat="41.913197" lon="0.19057366">
        <time>2022-07-06T17:04:37Z</time>
      </trkpt>
      <trkpt lat="41.91317" lon="0.19051133">
        <time>2022-07-06T17:04:40Z</time>
      </trkpt>
      <trkpt lat="41.913116" lon="0.19074233">
        <time>2022-07-06T17:09:54Z</time>
      </trkpt>
      <trkpt lat="41.913124" lon="0.19082333">
        <time>2022-07-06T17:09:57Z</time>
      </trkpt>
      <trkpt lat="41.913124" lon="0.19090933">
        <time>2022-07-06T17:10:01Z</time>
      </trkpt>
      <trkpt lat="41.913086" lon="0.19091499">
        <time>2022-07-06T17:10:06Z</time>
      </trkpt>
      <trkpt lat="41.913036" lon="0.19088899">
        <time>2022-07-06T17:10:10Z</time>
      </trkpt>
      <trkpt lat="41.912987" lon="0.19102465">
        <time>2022-07-06T17:10:48Z</time>
      </trkpt>
      <trkpt lat="41.912975" lon="0.19112398">
        <time>2022-07-06T17:10:50Z</time>
      </trkpt>
      <trkpt lat="41.912964" lon="0.19123398">
        <time>2022-07-06T17:10:52Z</time>
      </trkpt>
      <trkpt lat="41.912964" lon="0.19134231">
        <time>2022-07-06T17:10:54Z</time>
      </trkpt>
      <trkpt lat="41.91298" lon="0.19144031">
        <time>2022-07-06T17:10:56Z</time>
      </trkpt>
      <trkpt lat="41.913" lon="0.19153596">
        <time>2022-07-06T17:10:58Z</time>
      </trkpt>
      <trkpt lat="41.913006" lon="0.19162397">
        <time>2022-07-06T17:11:00Z</time>
      </trkpt>
      <trkpt lat="41.913" lon="0.1917123">
        <time>2022-07-06T17:11:02Z</time>
      </trkpt>
      <trkpt lat="41.912983" lon="0.19181097">
        <time>2022-07-06T17:11:04Z</time>
      </trkpt>
      <trkpt lat="41.91296" lon="0.19191995">
        <time>2022-07-06T17:11:06Z</time>
      </trkpt>
      <trkpt lat="41.912945" lon="0.19202729">
        <time>2022-07-06T17:11:08Z</time>
      </trkpt>
      <trkpt lat="41.91294" lon="0.19215195">
        <time>2022-07-06T17:11:10Z</time>
      </trkpt>
      <trkpt lat="41.912933" lon="0.19228028">
        <time>2022-07-06T17:11:12Z</time>
      </trkpt>
      <trkpt lat="41.91292" lon="0.1924086">
        <time>2022-07-06T17:11:14Z</time>
      </trkpt>
      <trkpt lat="41.912914" lon="0.19247393">
        <time>2022-07-06T17:11:15Z</time>
      </trkpt>
      <trkpt lat="41.9129" lon="0.1926056">
        <time>2022-07-06T17:11:17Z</time>
      </trkpt>
      <trkpt lat="41.912884" lon="0.1927446">
        <time>2022-07-06T17:11:19Z</time>
      </trkpt>
      <trkpt lat="41.91288" lon="0.1928146">
        <time>2022-07-06T17:11:20Z</time>
      </trkpt>
      <trkpt lat="41.912872" lon="0.19288427">
        <time>2022-07-06T17:11:21Z</time>
      </trkpt>
      <trkpt lat="41.91287" lon="0.19295391">
        <time>2022-07-06T17:11:22Z</time>
      </trkpt>
      <trkpt lat="41.91286" lon="0.19302225">
        <time>2022-07-06T17:11:23Z</time>
      </trkpt>
      <trkpt lat="41.91285" lon="0.19315425">
        <time>2022-07-06T17:11:25Z</time>
      </trkpt>
      <trkpt lat="41.91283" lon="0.1932799">
        <time>2022-07-06T17:11:27Z</time>
      </trkpt>
      <trkpt lat="41.91281" lon="0.19340691">
        <time>2022-07-06T17:11:29Z</time>
      </trkpt>
      <trkpt lat="41.9128" lon="0.19346957">
        <time>2022-07-06T17:11:30Z</time>
      </trkpt>
      <trkpt lat="41.912758" lon="0.19365323">
        <time>2022-07-06T17:11:33Z</time>
      </trkpt>
      <trkpt lat="41.91273" lon="0.19377156">
        <time>2022-07-06T17:11:35Z</time>
      </trkpt>
      <trkpt lat="41.9127" lon="0.19388522">
        <time>2022-07-06T17:11:37Z</time>
      </trkpt>
      <trkpt lat="41.912674" lon="0.19400488">
        <time>2022-07-06T17:11:39Z</time>
      </trkpt>
      <trkpt lat="41.912663" lon="0.19406489">
        <time>2022-07-06T17:11:40Z</time>
      </trkpt>
      <trkpt lat="41.91264" lon="0.19418354">
        <time>2022-07-06T17:11:42Z</time>
      </trkpt>
      <trkpt lat="41.912624" lon="0.19430454">
        <time>2022-07-06T17:11:44Z</time>
      </trkpt>
      <trkpt lat="41.912605" lon="0.19442786">
        <time>2022-07-06T17:11:46Z</time>
      </trkpt>
      <trkpt lat="41.912594" lon="0.19448687">
        <time>2022-07-06T17:11:47Z</time>
      </trkpt>
      <trkpt lat="41.912567" lon="0.1945962">
        <time>2022-07-06T17:11:49Z</time>
      </trkpt>
      <trkpt lat="41.912544" lon="0.1947092">
        <time>2022-07-06T17:11:51Z</time>
      </trkpt>
      <trkpt lat="41.91252" lon="0.19482653">
        <time>2022-07-06T17:11:53Z</time>
      </trkpt>
      <trkpt lat="41.912495" lon="0.1949402">
        <time>2022-07-06T17:11:55Z</time>
      </trkpt>
      <trkpt lat="41.91246" lon="0.19504651">
        <time>2022-07-06T17:11:57Z</time>
      </trkpt>
      <trkpt lat="41.91241" lon="0.19514617">
        <time>2022-07-06T17:11:59Z</time>
      </trkpt>
      <trkpt lat="41.912357" lon="0.19525218">
        <time>2022-07-06T17:12:01Z</time>
      </trkpt>
      <trkpt lat="41.912304" lon="0.1953545">
        <time>2022-07-06T17:12:03Z</time>
      </trkpt>
      <trkpt lat="41.91225" lon="0.19545484">
        <time>2022-07-06T17:12:05Z</time>
      </trkpt>
      <trkpt lat="41.912193" lon="0.19553584">
        <time>2022-07-06T17:12:07Z</time>
      </trkpt>
      <trkpt lat="41.91213" lon="0.19559984">
        <time>2022-07-06T17:12:09Z</time>
      </trkpt>
      <trkpt lat="41.91206" lon="0.19565985">
        <time>2022-07-06T17:12:11Z</time>
      </trkpt>
      <trkpt lat="41.911983" lon="0.19572684">
        <time>2022-07-06T17:12:13Z</time>
      </trkpt>
      <trkpt lat="41.91191" lon="0.1957865">
        <time>2022-07-06T17:12:15Z</time>
      </trkpt>
      <trkpt lat="41.911835" lon="0.1958475">
        <time>2022-07-06T17:12:17Z</time>
      </trkpt>
      <trkpt lat="41.91176" lon="0.19592217">
        <time>2022-07-06T17:12:19Z</time>
      </trkpt>
      <trkpt lat="41.911716" lon="0.19596149">
        <time>2022-07-06T17:12:20Z</time>
      </trkpt>
      <trkpt lat="41.911636" lon="0.19604349">
        <time>2022-07-06T17:12:22Z</time>
      </trkpt>
      <trkpt lat="41.9116" lon="0.19607982">
        <time>2022-07-06T17:12:23Z</time>
      </trkpt>
      <trkpt lat="41.911526" lon="0.19614848">
        <time>2022-07-06T17:12:25Z</time>
      </trkpt>
      <trkpt lat="41.911453" lon="0.19621082">
        <time>2022-07-06T17:12:27Z</time>
      </trkpt>
      <trkpt lat="41.911373" lon="0.19627881">
        <time>2022-07-06T17:12:29Z</time>
      </trkpt>
      <trkpt lat="41.911335" lon="0.19632214">
        <time>2022-07-06T17:12:30Z</time>
      </trkpt>
      <trkpt lat="41.911263" lon="0.19639315">
        <time>2022-07-06T17:12:32Z</time>
      </trkpt>
      <trkpt lat="41.911182" lon="0.19645748">
        <time>2022-07-06T17:12:34Z</time>
      </trkpt>
      <trkpt lat="41.91111" lon="0.1965188">
        <time>2022-07-06T17:12:36Z</time>
      </trkpt>
      <trkpt lat="41.911045" lon="0.19657446">
        <time>2022-07-06T17:12:38Z</time>
      </trkpt>
      <trkpt lat="41.91098" lon="0.19662546">
        <time>2022-07-06T17:12:40Z</time>
      </trkpt>
      <trkpt lat="41.910908" lon="0.19667546">
        <time>2022-07-06T17:12:42Z</time>
      </trkpt>
      <trkpt lat="41.910835" lon="0.19672047">
        <time>2022-07-06T17:12:44Z</time>
      </trkpt>
      <trkpt lat="41.91075" lon="0.19677712">
        <time>2022-07-06T17:12:46Z</time>
      </trkpt>
      <trkpt lat="41.910667" lon="0.19683477">
        <time>2022-07-06T17:12:48Z</time>
      </trkpt>
      <trkpt lat="41.9106" lon="0.19688112">
        <time>2022-07-06T17:12:50Z</time>
      </trkpt>
      <trkpt lat="41.91054" lon="0.19693144">
        <time>2022-07-06T17:12:52Z</time>
      </trkpt>
      <trkpt lat="41.910477" lon="0.1969811">
        <time>2022-07-06T17:12:54Z</time>
      </trkpt>
      <trkpt lat="41.91042" lon="0.1970301">
        <time>2022-07-06T17:12:56Z</time>
      </trkpt>
      <trkpt lat="41.910362" lon="0.1970811">
        <time>2022-07-06T17:12:58Z</time>
      </trkpt>
      <trkpt lat="41.910305" lon="0.19713242">
        <time>2022-07-06T17:13:00Z</time>
      </trkpt>
      <trkpt lat="41.910248" lon="0.19719109">
        <time>2022-07-06T17:13:02Z</time>
      </trkpt>
      <trkpt lat="41.91018" lon="0.19725409">
        <time>2022-07-06T17:13:04Z</time>
      </trkpt>
      <trkpt lat="41.910114" lon="0.19730975">
        <time>2022-07-06T17:13:06Z</time>
      </trkpt>
      <trkpt lat="41.910057" lon="0.19736008">
        <time>2022-07-06T17:13:08Z</time>
      </trkpt>
      <trkpt lat="41.909996" lon="0.1974114">
        <time>2022-07-06T17:13:10Z</time>
      </trkpt>
      <trkpt lat="41.909946" lon="0.19745907">
        <time>2022-07-06T17:13:12Z</time>
      </trkpt>
      <trkpt lat="41.909885" lon="0.19750707">
        <time>2022-07-06T17:13:14Z</time>
      </trkpt>
      <trkpt lat="41.909832" lon="0.19755307">
        <time>2022-07-06T17:13:16Z</time>
      </trkpt>
      <trkpt lat="41.90978" lon="0.19760074">
        <time>2022-07-06T17:13:18Z</time>
      </trkpt>
      <trkpt lat="41.909733" lon="0.19764873">
        <time>2022-07-06T17:13:20Z</time>
      </trkpt>
      <trkpt lat="41.909683" lon="0.19769207">
        <time>2022-07-06T17:13:22Z</time>
      </trkpt>
      <trkpt lat="41.909626" lon="0.19772339">
        <time>2022-07-06T17:13:24Z</time>
      </trkpt>
      <trkpt lat="41.909565" lon="0.1977484">
        <time>2022-07-06T17:13:26Z</time>
      </trkpt>
      <trkpt lat="41.909515" lon="0.19777639">
        <time>2022-07-06T17:13:28Z</time>
      </trkpt>
      <trkpt lat="41.90947" lon="0.19780806">
        <time>2022-07-06T17:13:30Z</time>
      </trkpt>
      <trkpt lat="41.9094" lon="0.19785506">
        <time>2022-07-06T17:13:33Z</time>
      </trkpt>
      <trkpt lat="41.909355" lon="0.19788004">
        <time>2022-07-06T17:13:35Z</time>
      </trkpt>
      <trkpt lat="41.909294" lon="0.19792971">
        <time>2022-07-06T17:13:38Z</time>
      </trkpt>
      <trkpt lat="41.90925" lon="0.19800304">
        <time>2022-07-06T17:13:41Z</time>
      </trkpt>
      <trkpt lat="41.90921" lon="0.19805437">
        <time>2022-07-06T17:13:44Z</time>
      </trkpt>
      <trkpt lat="41.909153" lon="0.19809903">
        <time>2022-07-06T17:13:47Z</time>
      </trkpt>
      <trkpt lat="41.909065" lon="0.19815503">
        <time>2022-07-06T17:13:50Z</time>
      </trkpt>
      <trkpt lat="41.909008" lon="0.1982047">
        <time>2022-07-06T17:13:52Z</time>
      </trkpt>
      <trkpt lat="41.90896" lon="0.19825469">
        <time>2022-07-06T17:13:54Z</time>
      </trkpt>
      <trkpt lat="41.908913" lon="0.19830368">
        <time>2022-07-06T17:13:56Z</time>
      </trkpt>
      <trkpt lat="41.908863" lon="0.19835036">
        <time>2022-07-06T17:13:58Z</time>
      </trkpt>
      <trkpt lat="41.908813" lon="0.19839668">
        <time>2022-07-06T17:14:00Z</time>
      </trkpt>
      <trkpt lat="41.908764" lon="0.19844568">
        <time>2022-07-06T17:14:02Z</time>
      </trkpt>
      <trkpt lat="41.90871" lon="0.198502">
        <time>2022-07-06T17:14:04Z</time>
      </trkpt>
      <trkpt lat="41.90864" lon="0.19856934">
        <time>2022-07-06T17:14:06Z</time>
      </trkpt>
      <trkpt lat="41.908577" lon="0.19863734">
        <time>2022-07-06T17:14:08Z</time>
      </trkpt>
      <trkpt lat="41.908512" lon="0.198695">
        <time>2022-07-06T17:14:10Z</time>
      </trkpt>
      <trkpt lat="41.908455" lon="0.19874533">
        <time>2022-07-06T17:14:12Z</time>
      </trkpt>
      <trkpt lat="41.908405" lon="0.19878699">
        <time>2022-07-06T17:14:14Z</time>
      </trkpt>
      <trkpt lat="41.90836" lon="0.19882865">
        <time>2022-07-06T17:14:16Z</time>
      </trkpt>
      <trkpt lat="41.908314" lon="0.19887498">
        <time>2022-07-06T17:14:18Z</time>
      </trkpt>
      <trkpt lat="41.90827" lon="0.19892298">
        <time>2022-07-06T17:14:20Z</time>
      </trkpt>
      <trkpt lat="41.908226" lon="0.19897264">
        <time>2022-07-06T17:14:22Z</time>
      </trkpt>
      <trkpt lat="41.90818" lon="0.19902296">
        <time>2022-07-06T17:14:24Z</time>
      </trkpt>
      <trkpt lat="41.908134" lon="0.19906764">
        <time>2022-07-06T17:14:26Z</time>
      </trkpt>
      <trkpt lat="41.908085" lon="0.19910096">
        <time>2022-07-06T17:14:28Z</time>
      </trkpt>
      <trkpt lat="41.90804" lon="0.19912829">
        <time>2022-07-06T17:14:30Z</time>
      </trkpt>
      <trkpt lat="41.907967" lon="0.19917762">
        <time>2022-07-06T17:14:33Z</time>
      </trkpt>
      <trkpt lat="41.907917" lon="0.19922128">
        <time>2022-07-06T17:14:35Z</time>
      </trkpt>
      <trkpt lat="41.907864" lon="0.19926594">
        <time>2022-07-06T17:14:37Z</time>
      </trkpt>
      <trkpt lat="41.907818" lon="0.1993086">
        <time>2022-07-06T17:14:39Z</time>
      </trkpt>
      <trkpt lat="41.90777" lon="0.1993546">
        <time>2022-07-06T17:14:41Z</time>
      </trkpt>
      <trkpt lat="41.9077" lon="0.19942126">
        <time>2022-07-06T17:14:44Z</time>
      </trkpt>
      <trkpt lat="41.907654" lon="0.1994696">
        <time>2022-07-06T17:14:46Z</time>
      </trkpt>
      <trkpt lat="41.907604" lon="0.19952226">
        <time>2022-07-06T17:14:48Z</time>
      </trkpt>
      <trkpt lat="41.907562" lon="0.19957557">
        <time>2022-07-06T17:14:50Z</time>
      </trkpt>
      <trkpt lat="41.907513" lon="0.19962858">
        <time>2022-07-06T17:14:52Z</time>
      </trkpt>
      <trkpt lat="41.907467" lon="0.19967824">
        <time>2022-07-06T17:14:54Z</time>
      </trkpt>
      <trkpt lat="41.907417" lon="0.19972757">
        <time>2022-07-06T17:14:56Z</time>
      </trkpt>
      <trkpt lat="41.907364" lon="0.19977657">
        <time>2022-07-06T17:14:58Z</time>
      </trkpt>
      <trkpt lat="41.907314" lon="0.19982557">
        <time>2022-07-06T17:15:00Z</time>
      </trkpt>
      <trkpt lat="41.90726" lon="0.1998749">
        <time>2022-07-06T17:15:02Z</time>
      </trkpt>
      <trkpt lat="41.90721" lon="0.19992223">
        <time>2022-07-06T17:15:04Z</time>
      </trkpt>
      <trkpt lat="41.90716" lon="0.19996388">
        <time>2022-07-06T17:15:06Z</time>
      </trkpt>
      <trkpt lat="41.90711" lon="0.2000029">
        <time>2022-07-06T17:15:08Z</time>
      </trkpt>
      <trkpt lat="41.907055" lon="0.20004222">
        <time>2022-07-06T17:15:10Z</time>
      </trkpt>
      <trkpt lat="41.907005" lon="0.20008755">
        <time>2022-07-06T17:15:12Z</time>
      </trkpt>
      <trkpt lat="41.906956" lon="0.20013656">
        <time>2022-07-06T17:15:14Z</time>
      </trkpt>
      <trkpt lat="41.906914" lon="0.2001872">
        <time>2022-07-06T17:15:16Z</time>
      </trkpt>
      <trkpt lat="41.906868" lon="0.20023587">
        <time>2022-07-06T17:15:18Z</time>
      </trkpt>
      <trkpt lat="41.90683" lon="0.20027754">
        <time>2022-07-06T17:15:20Z</time>
      </trkpt>
      <trkpt lat="41.90676" lon="0.20033953">
        <time>2022-07-06T17:15:23Z</time>
      </trkpt>
      <trkpt lat="41.90671" lon="0.2003872">
        <time>2022-07-06T17:15:25Z</time>
      </trkpt>
      <trkpt lat="41.906662" lon="0.2004322">
        <time>2022-07-06T17:15:27Z</time>
      </trkpt>
      <trkpt lat="41.906597" lon="0.20048486">
        <time>2022-07-06T17:15:29Z</time>
      </trkpt>
      <trkpt lat="41.90654" lon="0.20054086">
        <time>2022-07-06T17:15:31Z</time>
      </trkpt>
      <trkpt lat="41.906483" lon="0.20059551">
        <time>2022-07-06T17:15:33Z</time>
      </trkpt>
      <trkpt lat="41.906425" lon="0.20064451">
        <time>2022-07-06T17:15:35Z</time>
      </trkpt>
      <trkpt lat="41.906364" lon="0.20069318">
        <time>2022-07-06T17:15:37Z</time>
      </trkpt>
      <trkpt lat="41.906303" lon="0.20074683">
        <time>2022-07-06T17:15:39Z</time>
      </trkpt>
      <trkpt lat="41.906246" lon="0.20080349">
        <time>2022-07-06T17:15:41Z</time>
      </trkpt>
      <trkpt lat="41.90619" lon="0.20086482">
        <time>2022-07-06T17:15:43Z</time>
      </trkpt>
      <trkpt lat="41.90613" lon="0.20092982">
        <time>2022-07-06T17:15:45Z</time>
      </trkpt>
      <trkpt lat="41.906075" lon="0.20099482">
        <time>2022-07-06T17:15:47Z</time>
      </trkpt>
      <trkpt lat="41.906017" lon="0.20104982">
        <time>2022-07-06T17:15:49Z</time>
      </trkpt>
      <trkpt lat="41.905964" lon="0.20109715">
        <time>2022-07-06T17:15:51Z</time>
      </trkpt>
      <trkpt lat="41.905895" lon="0.20115215">
        <time>2022-07-06T17:15:53Z</time>
      </trkpt>
      <trkpt lat="41.905838" lon="0.20121348">
        <time>2022-07-06T17:15:55Z</time>
      </trkpt>
      <trkpt lat="41.90578" lon="0.20127514">
        <time>2022-07-06T17:15:57Z</time>
      </trkpt>
      <trkpt lat="41.905724" lon="0.20133814">
        <time>2022-07-06T17:15:59Z</time>
      </trkpt>
      <trkpt lat="41.905666" lon="0.20139948">
        <time>2022-07-06T17:16:01Z</time>
      </trkpt>
      <trkpt lat="41.905613" lon="0.20145613">
        <time>2022-07-06T17:16:03Z</time>
      </trkpt>
      <trkpt lat="41.90556" lon="0.20150647">
        <time>2022-07-06T17:16:05Z</time>
      </trkpt>
      <trkpt lat="41.90551" lon="0.20155147">
        <time>2022-07-06T17:16:07Z</time>
      </trkpt>
      <trkpt lat="41.90546" lon="0.20160012">
        <time>2022-07-06T17:16:09Z</time>
      </trkpt>
      <trkpt lat="41.90541" lon="0.20164645">
        <time>2022-07-06T17:16:11Z</time>
      </trkpt>
      <trkpt lat="41.905365" lon="0.2016911">
        <time>2022-07-06T17:16:13Z</time>
      </trkpt>
      <trkpt lat="41.90532" lon="0.20174012">
        <time>2022-07-06T17:16:15Z</time>
      </trkpt>
      <trkpt lat="41.90528" lon="0.20178577">
        <time>2022-07-06T17:16:17Z</time>
      </trkpt>
      <trkpt lat="41.90524" lon="0.20182978">
        <time>2022-07-06T17:16:19Z</time>
      </trkpt>
      <trkpt lat="41.90519" lon="0.20187643">
        <time>2022-07-06T17:16:21Z</time>
      </trkpt>
      <trkpt lat="41.90514" lon="0.20192309">
        <time>2022-07-06T17:16:23Z</time>
      </trkpt>
      <trkpt lat="41.905094" lon="0.20196941">
        <time>2022-07-06T17:16:25Z</time>
      </trkpt>
      <trkpt lat="41.90505" lon="0.20201808">
        <time>2022-07-06T17:16:27Z</time>
      </trkpt>
      <trkpt lat="41.905003" lon="0.20206875">
        <time>2022-07-06T17:16:29Z</time>
      </trkpt>
      <trkpt lat="41.90495" lon="0.20211308">
        <time>2022-07-06T17:16:31Z</time>
      </trkpt>
      <trkpt lat="41.904896" lon="0.2021564">
        <time>2022-07-06T17:16:33Z</time>
      </trkpt>
      <trkpt lat="41.904846" lon="0.20220006">
        <time>2022-07-06T17:16:35Z</time>
      </trkpt>
      <trkpt lat="41.904797" lon="0.20224573">
        <time>2022-07-06T17:16:37Z</time>
      </trkpt>
      <trkpt lat="41.904747" lon="0.20229138">
        <time>2022-07-06T17:16:39Z</time>
      </trkpt>
      <trkpt lat="41.904705" lon="0.2023337">
        <time>2022-07-06T17:16:41Z</time>
      </trkpt>
      <trkpt lat="41.904663" lon="0.20237471">
        <time>2022-07-06T17:16:43Z</time>
      </trkpt>
      <trkpt lat="41.9046" lon="0.20244405">
        <time>2022-07-06T17:16:46Z</time>
      </trkpt>
      <trkpt lat="41.90456" lon="0.20248537">
        <time>2022-07-06T17:16:48Z</time>
      </trkpt>
      <trkpt lat="41.904522" lon="0.2025267">
        <time>2022-07-06T17:16:50Z</time>
      </trkpt>
      <trkpt lat="41.90446" lon="0.2025897">
        <time>2022-07-06T17:16:53Z</time>
      </trkpt>
      <trkpt lat="41.90442" lon="0.2026317">
        <time>2022-07-06T17:16:55Z</time>
      </trkpt>
      <trkpt lat="41.904377" lon="0.20267636">
        <time>2022-07-06T17:16:57Z</time>
      </trkpt>
      <trkpt lat="41.90433" lon="0.20271969">
        <time>2022-07-06T17:16:59Z</time>
      </trkpt>
      <trkpt lat="41.904285" lon="0.20275569">
        <time>2022-07-06T17:17:01Z</time>
      </trkpt>
      <trkpt lat="41.904243" lon="0.20279102">
        <time>2022-07-06T17:17:03Z</time>
      </trkpt>
      <trkpt lat="41.904186" lon="0.20284735">
        <time>2022-07-06T17:17:06Z</time>
      </trkpt>
      <trkpt lat="41.90415" lon="0.20289801">
        <time>2022-07-06T17:17:08Z</time>
      </trkpt>
      <trkpt lat="41.90411" lon="0.20295002">
        <time>2022-07-06T17:17:10Z</time>
      </trkpt>
      <trkpt lat="41.904064" lon="0.202994">
        <time>2022-07-06T17:17:12Z</time>
      </trkpt>
      <trkpt lat="41.90402" lon="0.20302933">
        <time>2022-07-06T17:17:14Z</time>
      </trkpt>
      <trkpt lat="41.903973" lon="0.203068">
        <time>2022-07-06T17:17:16Z</time>
      </trkpt>
      <trkpt lat="41.90393" lon="0.20311067">
        <time>2022-07-06T17:17:18Z</time>
      </trkpt>
      <trkpt lat="41.903885" lon="0.203157">
        <time>2022-07-06T17:17:20Z</time>
      </trkpt>
      <trkpt lat="41.90383" lon="0.20320664">
        <time>2022-07-06T17:17:22Z</time>
      </trkpt>
      <trkpt lat="41.903786" lon="0.20325498">
        <time>2022-07-06T17:17:24Z</time>
      </trkpt>
      <trkpt lat="41.903736" lon="0.20330799">
        <time>2022-07-06T17:17:26Z</time>
      </trkpt>
      <trkpt lat="41.903694" lon="0.20335963">
        <time>2022-07-06T17:17:28Z</time>
      </trkpt>
      <trkpt lat="41.903652" lon="0.20340797">
        <time>2022-07-06T17:17:30Z</time>
      </trkpt>
      <trkpt lat="41.90361" lon="0.2034533">
        <time>2022-07-06T17:17:32Z</time>
      </trkpt>
      <trkpt lat="41.90355" lon="0.2035173">
        <time>2022-07-06T17:17:35Z</time>
      </trkpt>
      <trkpt lat="41.90348" lon="0.20358063">
        <time>2022-07-06T17:17:38Z</time>
      </trkpt>
      <trkpt lat="41.903435" lon="0.20362397">
        <time>2022-07-06T17:17:40Z</time>
      </trkpt>
      <trkpt lat="41.90339" lon="0.20366596">
        <time>2022-07-06T17:17:42Z</time>
      </trkpt>
      <trkpt lat="41.903343" lon="0.20370929">
        <time>2022-07-06T17:17:44Z</time>
      </trkpt>
      <trkpt lat="41.903297" lon="0.2037523">
        <time>2022-07-06T17:17:46Z</time>
      </trkpt>
      <trkpt lat="41.903255" lon="0.20379329">
        <time>2022-07-06T17:17:48Z</time>
      </trkpt>
      <trkpt lat="41.90321" lon="0.20383729">
        <time>2022-07-06T17:17:50Z</time>
      </trkpt>
      <trkpt lat="41.903168" lon="0.20388329">
        <time>2022-07-06T17:17:52Z</time>
      </trkpt>
      <trkpt lat="41.903122" lon="0.20392862">
        <time>2022-07-06T17:17:54Z</time>
      </trkpt>
      <trkpt lat="41.903076" lon="0.20397195">
        <time>2022-07-06T17:17:56Z</time>
      </trkpt>
      <trkpt lat="41.903034" lon="0.20401461">
        <time>2022-07-06T17:17:58Z</time>
      </trkpt>
      <trkpt lat="41.902992" lon="0.20405795">
        <time>2022-07-06T17:18:00Z</time>
      </trkpt>
      <trkpt lat="41.902946" lon="0.20409894">
        <time>2022-07-06T17:18:02Z</time>
      </trkpt>
      <trkpt lat="41.902905" lon="0.20413928">
        <time>2022-07-06T17:18:04Z</time>
      </trkpt>
      <trkpt lat="41.902843" lon="0.20421593">
        <time>2022-07-06T17:18:07Z</time>
      </trkpt>
      <trkpt lat="41.902798" lon="0.20426093">
        <time>2022-07-06T17:18:09Z</time>
      </trkpt>
      <trkpt lat="41.902756" lon="0.2043026">
        <time>2022-07-06T17:18:11Z</time>
      </trkpt>
      <trkpt lat="41.902714" lon="0.20434693">
        <time>2022-07-06T17:18:13Z</time>
      </trkpt>
      <trkpt lat="41.90267" lon="0.20438892">
        <time>2022-07-06T17:18:15Z</time>
      </trkpt>
      <trkpt lat="41.902607" lon="0.20445092">
        <time>2022-07-06T17:18:18Z</time>
      </trkpt>
      <trkpt lat="41.90256" lon="0.20449492">
        <time>2022-07-06T17:18:20Z</time>
      </trkpt>
      <trkpt lat="41.902515" lon="0.20453992">
        <time>2022-07-06T17:18:22Z</time>
      </trkpt>
      <trkpt lat="41.902473" lon="0.20458359">
        <time>2022-07-06T17:18:24Z</time>
      </trkpt>
      <trkpt lat="41.90243" lon="0.20462391">
        <time>2022-07-06T17:18:26Z</time>
      </trkpt>
      <trkpt lat="41.90237" lon="0.20468591">
        <time>2022-07-06T17:18:29Z</time>
      </trkpt>
      <trkpt lat="41.902325" lon="0.20472924">
        <time>2022-07-06T17:18:31Z</time>
      </trkpt>
      <trkpt lat="41.902283" lon="0.20477057">
        <time>2022-07-06T17:18:33Z</time>
      </trkpt>
      <trkpt lat="41.90224" lon="0.20480824">
        <time>2022-07-06T17:18:35Z</time>
      </trkpt>
      <trkpt lat="41.90218" lon="0.20487389">
        <time>2022-07-06T17:18:38Z</time>
      </trkpt>
      <trkpt lat="41.902138" lon="0.20492122">
        <time>2022-07-06T17:18:40Z</time>
      </trkpt>
      <trkpt lat="41.902092" lon="0.20496956">
        <time>2022-07-06T17:18:42Z</time>
      </trkpt>
      <trkpt lat="41.90205" lon="0.20501988">
        <time>2022-07-06T17:18:44Z</time>
      </trkpt>
      <trkpt lat="41.902" lon="0.20507221">
        <time>2022-07-06T17:18:46Z</time>
      </trkpt>
      <trkpt lat="41.901955" lon="0.20512255">
        <time>2022-07-06T17:18:48Z</time>
      </trkpt>
      <trkpt lat="41.90191" lon="0.20517755">
        <time>2022-07-06T17:18:50Z</time>
      </trkpt>
      <trkpt lat="41.901867" lon="0.20522255">
        <time>2022-07-06T17:18:52Z</time>
      </trkpt>
      <trkpt lat="41.901814" lon="0.20526554">
        <time>2022-07-06T17:18:54Z</time>
      </trkpt>
      <trkpt lat="41.901764" lon="0.20530854">
        <time>2022-07-06T17:18:56Z</time>
      </trkpt>
      <trkpt lat="41.901707" lon="0.2053702">
        <time>2022-07-06T17:18:59Z</time>
      </trkpt>
      <trkpt lat="41.901665" lon="0.2054152">
        <time>2022-07-06T17:19:01Z</time>
      </trkpt>
      <trkpt lat="41.901627" lon="0.2054502">
        <time>2022-07-06T17:19:03Z</time>
      </trkpt>
      <trkpt lat="41.90156" lon="0.20549653">
        <time>2022-07-06T17:19:06Z</time>
      </trkpt>
      <trkpt lat="41.901497" lon="0.20555319">
        <time>2022-07-06T17:19:09Z</time>
      </trkpt>
      <trkpt lat="41.90145" lon="0.20560685">
        <time>2022-07-06T17:19:11Z</time>
      </trkpt>
      <trkpt lat="41.90141" lon="0.20567018">
        <time>2022-07-06T17:19:13Z</time>
      </trkpt>
      <trkpt lat="41.90137" lon="0.20573151">
        <time>2022-07-06T17:19:15Z</time>
      </trkpt>
      <trkpt lat="41.90133" lon="0.20578218">
        <time>2022-07-06T17:19:17Z</time>
      </trkpt>
      <trkpt lat="41.901287" lon="0.20583484">
        <time>2022-07-06T17:19:19Z</time>
      </trkpt>
      <trkpt lat="41.901245" lon="0.20589283">
        <time>2022-07-06T17:19:21Z</time>
      </trkpt>
      <trkpt lat="41.901215" lon="0.20595048">
        <time>2022-07-06T17:19:23Z</time>
      </trkpt>
      <trkpt lat="41.90117" lon="0.2060275">
        <time>2022-07-06T17:19:26Z</time>
      </trkpt>
      <trkpt lat="41.901127" lon="0.2060805">
        <time>2022-07-06T17:19:28Z</time>
      </trkpt>
      <trkpt lat="41.90109" lon="0.20613949">
        <time>2022-07-06T17:19:30Z</time>
      </trkpt>
      <trkpt lat="41.901054" lon="0.20620015">
        <time>2022-07-06T17:19:32Z</time>
      </trkpt>
      <trkpt lat="41.901024" lon="0.20626448">
        <time>2022-07-06T17:19:34Z</time>
      </trkpt>
      <trkpt lat="41.901" lon="0.20633315">
        <time>2022-07-06T17:19:36Z</time>
      </trkpt>
      <trkpt lat="41.900978" lon="0.2064008">
        <time>2022-07-06T17:19:38Z</time>
      </trkpt>
      <trkpt lat="41.90095" lon="0.20646714">
        <time>2022-07-06T17:19:40Z</time>
      </trkpt>
      <trkpt lat="41.90092" lon="0.20653313">
        <time>2022-07-06T17:19:42Z</time>
      </trkpt>
      <trkpt lat="41.90089" lon="0.20659547">
        <time>2022-07-06T17:19:44Z</time>
      </trkpt>
      <trkpt lat="41.900856" lon="0.20665246">
        <time>2022-07-06T17:19:46Z</time>
      </trkpt>
      <trkpt lat="41.900814" lon="0.20671079">
        <time>2022-07-06T17:19:48Z</time>
      </trkpt>
      <trkpt lat="41.900772" lon="0.20677212">
        <time>2022-07-06T17:19:50Z</time>
      </trkpt>
      <trkpt lat="41.900734" lon="0.20684178">
        <time>2022-07-06T17:19:52Z</time>
      </trkpt>
      <trkpt lat="41.900696" lon="0.20691411">
        <time>2022-07-06T17:19:54Z</time>
      </trkpt>
      <trkpt lat="41.90065" lon="0.20699076">
        <time>2022-07-06T17:19:56Z</time>
      </trkpt>
      <trkpt lat="41.900604" lon="0.20706443">
        <time>2022-07-06T17:19:58Z</time>
      </trkpt>
      <trkpt lat="41.900562" lon="0.20713943">
        <time>2022-07-06T17:20:00Z</time>
      </trkpt>
      <trkpt lat="41.900524" lon="0.20721443">
        <time>2022-07-06T17:20:02Z</time>
      </trkpt>
      <trkpt lat="41.90049" lon="0.20729008">
        <time>2022-07-06T17:20:04Z</time>
      </trkpt>
      <trkpt lat="41.90046" lon="0.2073571">
        <time>2022-07-06T17:20:06Z</time>
      </trkpt>
      <trkpt lat="41.900425" lon="0.20742474">
        <time>2022-07-06T17:20:08Z</time>
      </trkpt>
      <trkpt lat="41.9004" lon="0.20748974">
        <time>2022-07-06T17:20:10Z</time>
      </trkpt>
      <trkpt lat="41.90036" lon="0.20755975">
        <time>2022-07-06T17:20:12Z</time>
      </trkpt>
      <trkpt lat="41.90032" lon="0.20762208">
        <time>2022-07-06T17:20:14Z</time>
      </trkpt>
      <trkpt lat="41.900288" lon="0.2076694">
        <time>2022-07-06T17:20:16Z</time>
      </trkpt>
      <trkpt lat="41.900246" lon="0.20773807">
        <time>2022-07-06T17:20:19Z</time>
      </trkpt>
      <trkpt lat="41.90021" lon="0.2077774">
        <time>2022-07-06T17:20:21Z</time>
      </trkpt>
      <trkpt lat="41.900158" lon="0.2078264">
        <time>2022-07-06T17:20:24Z</time>
      </trkpt>
      <trkpt lat="41.900097" lon="0.20785373">
        <time>2022-07-06T17:20:27Z</time>
      </trkpt>
      <trkpt lat="41.900105" lon="0.20778774">
        <time>2022-07-06T17:22:08Z</time>
      </trkpt>
      <trkpt lat="41.900158" lon="0.2077554">
        <time>2022-07-06T17:22:11Z</time>
      </trkpt>
      <trkpt lat="41.90023" lon="0.20774907">
        <time>2022-07-06T17:22:14Z</time>
      </trkpt>
      <trkpt lat="41.900276" lon="0.20774141">
        <time>2022-07-06T17:22:16Z</time>
      </trkpt>
      <trkpt lat="41.900345" lon="0.20770608">
        <time>2022-07-06T17:22:19Z</time>
      </trkpt>
      <trkpt lat="41.90039" lon="0.20765342">
        <time>2022-07-06T17:22:21Z</time>
      </trkpt>
      <trkpt lat="41.90043" lon="0.20758642">
        <time>2022-07-06T17:22:23Z</time>
      </trkpt>
      <trkpt lat="41.90046" lon="0.20752342">
        <time>2022-07-06T17:22:25Z</time>
      </trkpt>
      <trkpt lat="41.900497" lon="0.20746809">
        <time>2022-07-06T17:22:27Z</time>
      </trkpt>
      <trkpt lat="41.90053" lon="0.20741476">
        <time>2022-07-06T17:22:29Z</time>
      </trkpt>
      <trkpt lat="41.900578" lon="0.2073361">
        <time>2022-07-06T17:22:32Z</time>
      </trkpt>
      <trkpt lat="41.900616" lon="0.2072771">
        <time>2022-07-06T17:22:34Z</time>
      </trkpt>
      <trkpt lat="41.900658" lon="0.2072101">
        <time>2022-07-06T17:22:36Z</time>
      </trkpt>
      <trkpt lat="41.9007" lon="0.20712776">
        <time>2022-07-06T17:22:38Z</time>
      </trkpt>
      <trkpt lat="41.900734" lon="0.20704877">
        <time>2022-07-06T17:22:40Z</time>
      </trkpt>
      <trkpt lat="41.900772" lon="0.20697677">
        <time>2022-07-06T17:22:42Z</time>
      </trkpt>
      <trkpt lat="41.900803" lon="0.20690843">
        <time>2022-07-06T17:22:44Z</time>
      </trkpt>
      <trkpt lat="41.90083" lon="0.20683378">
        <time>2022-07-06T17:22:46Z</time>
      </trkpt>
      <trkpt lat="41.90084" lon="0.20675679">
        <time>2022-07-06T17:22:48Z</time>
      </trkpt>
      <trkpt lat="41.900845" lon="0.20668212">
        <time>2022-07-06T17:22:50Z</time>
      </trkpt>
      <trkpt lat="41.900852" lon="0.20660011">
        <time>2022-07-06T17:22:52Z</time>
      </trkpt>
      <trkpt lat="41.90086" lon="0.20651846">
        <time>2022-07-06T17:22:54Z</time>
      </trkpt>
      <trkpt lat="41.900887" lon="0.2064368">
        <time>2022-07-06T17:22:56Z</time>
      </trkpt>
      <trkpt lat="41.90092" lon="0.2063698">
        <time>2022-07-06T17:22:58Z</time>
      </trkpt>
      <trkpt lat="41.90096" lon="0.20630914">
        <time>2022-07-06T17:23:00Z</time>
      </trkpt>
      <trkpt lat="41.90099" lon="0.20623748">
        <time>2022-07-06T17:23:02Z</time>
      </trkpt>
      <trkpt lat="41.901016" lon="0.20617048">
        <time>2022-07-06T17:23:04Z</time>
      </trkpt>
      <trkpt lat="41.90105" lon="0.20610115">
        <time>2022-07-06T17:23:06Z</time>
      </trkpt>
      <trkpt lat="41.901077" lon="0.20603515">
        <time>2022-07-06T17:23:08Z</time>
      </trkpt>
      <trkpt lat="41.901104" lon="0.20597082">
        <time>2022-07-06T17:23:10Z</time>
      </trkpt>
      <trkpt lat="41.90114" lon="0.20590316">
        <time>2022-07-06T17:23:12Z</time>
      </trkpt>
      <trkpt lat="41.90117" lon="0.2058375">
        <time>2022-07-06T17:23:14Z</time>
      </trkpt>
      <trkpt lat="41.9012" lon="0.20576283">
        <time>2022-07-06T17:23:16Z</time>
      </trkpt>
      <trkpt lat="41.901226" lon="0.20568518">
        <time>2022-07-06T17:23:18Z</time>
      </trkpt>
      <trkpt lat="41.90126" lon="0.20561884">
        <time>2022-07-06T17:23:20Z</time>
      </trkpt>
      <trkpt lat="41.901283" lon="0.20557486">
        <time>2022-07-06T17:23:22Z</time>
      </trkpt>
      <trkpt lat="41.901302" lon="0.20552585">
        <time>2022-07-06T17:23:26Z</time>
      </trkpt>
      <trkpt lat="41.90124" lon="0.20543385">
        <time>2022-07-06T17:24:54Z</time>
      </trkpt>
      <trkpt lat="41.901276" lon="0.20551784">
        <time>2022-07-06T17:25:22Z</time>
      </trkpt>
      <trkpt lat="41.90123" lon="0.20553418">
        <time>2022-07-06T17:25:28Z</time>
      </trkpt>
      <trkpt lat="41.901196" lon="0.20557384">
        <time>2022-07-06T17:25:33Z</time>
      </trkpt>
      <trkpt lat="41.90149" lon="0.2028605">
        <time>2022-07-06T17:27:26Z</time>
      </trkpt>
      <trkpt lat="41.90132" lon="0.20484751">
        <time>2022-07-06T17:27:57Z</time>
      </trkpt>
      <trkpt lat="41.901337" lon="0.20494117">
        <time>2022-07-06T17:28:01Z</time>
      </trkpt>
      <trkpt lat="41.90133" lon="0.20503983">
        <time>2022-07-06T17:28:04Z</time>
      </trkpt>
      <trkpt lat="41.901318" lon="0.20510548">
        <time>2022-07-06T17:28:06Z</time>
      </trkpt>
      <trkpt lat="41.901302" lon="0.20518015">
        <time>2022-07-06T17:28:08Z</time>
      </trkpt>
      <trkpt lat="41.901283" lon="0.20525415">
        <time>2022-07-06T17:28:10Z</time>
      </trkpt>
      <trkpt lat="41.901253" lon="0.20533781">
        <time>2022-07-06T17:28:12Z</time>
      </trkpt>
      <trkpt lat="41.901237" lon="0.20539413">
        <time>2022-07-06T17:28:14Z</time>
      </trkpt>
      <trkpt lat="41.901207" lon="0.2054828">
        <time>2022-07-06T17:28:17Z</time>
      </trkpt>
      <trkpt lat="41.901226" lon="0.20549414">
        <time>2022-07-06T17:28:23Z</time>
      </trkpt>
      <trkpt lat="41.9025" lon="0.20590046">
        <time>2022-07-06T17:31:00Z</time>
      </trkpt>
      <trkpt lat="41.901978" lon="0.20574546">
        <time>2022-07-06T17:31:36Z</time>
      </trkpt>
      <trkpt lat="41.901833" lon="0.2055938">
        <time>2022-07-06T17:31:51Z</time>
      </trkpt>
      <trkpt lat="41.901985" lon="0.20571546">
        <time>2022-07-06T17:32:06Z</time>
      </trkpt>
      <trkpt lat="41.901913" lon="0.20568046">
        <time>2022-07-06T17:32:26Z</time>
      </trkpt>
      <trkpt lat="41.901386" lon="0.20554046">
        <time>2022-07-06T17:36:41Z</time>
      </trkpt>
      <trkpt lat="41.901882" lon="0.20587713">
        <time>2022-07-06T17:37:42Z</time>
      </trkpt>
      <trkpt lat="41.90138" lon="0.20547046">
        <time>2022-07-06T17:37:48Z</time>
      </trkpt>
      <trkpt lat="41.90137" lon="0.20568378">
        <time>2022-07-06T17:48:24Z</time>
      </trkpt>
      <trkpt lat="41.89999" lon="0.20814833">
        <time>2022-07-07T07:19:20Z</time>
      </trkpt>
      <trkpt lat="41.899967" lon="0.208245">
        <time>2022-07-07T07:19:21Z</time>
      </trkpt>
      <trkpt lat="41.899975" lon="0.208235">
        <time>2022-07-07T07:19:22Z</time>
      </trkpt>
      <trkpt lat="41.89991" lon="0.20829">
        <time>2022-07-07T07:19:23Z</time>
      </trkpt>
      <trkpt lat="41.899906" lon="0.20830165">
        <time>2022-07-07T07:19:24Z</time>
      </trkpt>
      <trkpt lat="41.899864" lon="0.20834498">
        <time>2022-07-07T07:19:25Z</time>
      </trkpt>
      <trkpt lat="41.89983" lon="0.20839164">
        <time>2022-07-07T07:19:26Z</time>
      </trkpt>
      <trkpt lat="41.89981" lon="0.20841163">
        <time>2022-07-07T07:19:27Z</time>
      </trkpt>
      <trkpt lat="41.899788" lon="0.2084583">
        <time>2022-07-07T07:19:28Z</time>
      </trkpt>
      <trkpt lat="41.899765" lon="0.20850164">
        <time>2022-07-07T07:19:29Z</time>
      </trkpt>
      <trkpt lat="41.899742" lon="0.20854829">
        <time>2022-07-07T07:19:30Z</time>
      </trkpt>
      <trkpt lat="41.89972" lon="0.2085833">
        <time>2022-07-07T07:19:31Z</time>
      </trkpt>
      <trkpt lat="41.899693" lon="0.20862995">
        <time>2022-07-07T07:19:32Z</time>
      </trkpt>
      <trkpt lat="41.899666" lon="0.20867161">
        <time>2022-07-07T07:19:33Z</time>
      </trkpt>
      <trkpt lat="41.899635" lon="0.20871495">
        <time>2022-07-07T07:19:34Z</time>
      </trkpt>
      <trkpt lat="41.899605" lon="0.20877494">
        <time>2022-07-07T07:19:35Z</time>
      </trkpt>
      <trkpt lat="41.899582" lon="0.20881326">
        <time>2022-07-07T07:19:36Z</time>
      </trkpt>
      <trkpt lat="41.899574" lon="0.20882528">
        <time>2022-07-07T07:19:37Z</time>
      </trkpt>
      <trkpt lat="41.89956" lon="0.20884927">
        <time>2022-07-07T07:19:38Z</time>
      </trkpt>
      <trkpt lat="41.899536" lon="0.20888393">
        <time>2022-07-07T07:19:39Z</time>
      </trkpt>
      <trkpt lat="41.899513" lon="0.20892626">
        <time>2022-07-07T07:19:40Z</time>
      </trkpt>
      <trkpt lat="41.899456" lon="0.20902292">
        <time>2022-07-07T07:19:42Z</time>
      </trkpt>
      <trkpt lat="41.8994" lon="0.20912525">
        <time>2022-07-07T07:19:44Z</time>
      </trkpt>
      <trkpt lat="41.899338" lon="0.20923059">
        <time>2022-07-07T07:19:46Z</time>
      </trkpt>
      <trkpt lat="41.899277" lon="0.20933823">
        <time>2022-07-07T07:19:48Z</time>
      </trkpt>
      <trkpt lat="41.899246" lon="0.20939323">
        <time>2022-07-07T07:19:49Z</time>
      </trkpt>
      <trkpt lat="41.899185" lon="0.20950425">
        <time>2022-07-07T07:19:51Z</time>
      </trkpt>
      <trkpt lat="41.899155" lon="0.20955756">
        <time>2022-07-07T07:19:52Z</time>
      </trkpt>
      <trkpt lat="41.899086" lon="0.2096639">
        <time>2022-07-07T07:19:54Z</time>
      </trkpt>
      <trkpt lat="41.89905" lon="0.20971656">
        <time>2022-07-07T07:19:55Z</time>
      </trkpt>
      <trkpt lat="41.899014" lon="0.20977388">
        <time>2022-07-07T07:19:56Z</time>
      </trkpt>
      <trkpt lat="41.898975" lon="0.20983589">
        <time>2022-07-07T07:19:57Z</time>
      </trkpt>
      <trkpt lat="41.89894" lon="0.20989355">
        <time>2022-07-07T07:19:58Z</time>
      </trkpt>
      <trkpt lat="41.8989" lon="0.20995554">
        <time>2022-07-07T07:19:59Z</time>
      </trkpt>
      <trkpt lat="41.89886" lon="0.2100182">
        <time>2022-07-07T07:20:00Z</time>
      </trkpt>
      <trkpt lat="41.898827" lon="0.21008053">
        <time>2022-07-07T07:20:01Z</time>
      </trkpt>
      <trkpt lat="41.89879" lon="0.2101442">
        <time>2022-07-07T07:20:02Z</time>
      </trkpt>
      <trkpt lat="41.898754" lon="0.21020553">
        <time>2022-07-07T07:20:03Z</time>
      </trkpt>
      <trkpt lat="41.89872" lon="0.21026918">
        <time>2022-07-07T07:20:04Z</time>
      </trkpt>
      <trkpt lat="41.89868" lon="0.21033819">
        <time>2022-07-07T07:20:05Z</time>
      </trkpt>
      <trkpt lat="41.898643" lon="0.21040653">
        <time>2022-07-07T07:20:06Z</time>
      </trkpt>
      <trkpt lat="41.898605" lon="0.21046752">
        <time>2022-07-07T07:20:07Z</time>
      </trkpt>
      <trkpt lat="41.89857" lon="0.21053018">
        <time>2022-07-07T07:20:08Z</time>
      </trkpt>
      <trkpt lat="41.898533" lon="0.21059819">
        <time>2022-07-07T07:20:09Z</time>
      </trkpt>
      <trkpt lat="41.8985" lon="0.2106675">
        <time>2022-07-07T07:20:10Z</time>
      </trkpt>
      <trkpt lat="41.898457" lon="0.21073283">
        <time>2022-07-07T07:20:11Z</time>
      </trkpt>
      <trkpt lat="41.898422" lon="0.21079417">
        <time>2022-07-07T07:20:12Z</time>
      </trkpt>
      <trkpt lat="41.89838" lon="0.21085717">
        <time>2022-07-07T07:20:13Z</time>
      </trkpt>
      <trkpt lat="41.89834" lon="0.21092017">
        <time>2022-07-07T07:20:14Z</time>
      </trkpt>
      <trkpt lat="41.898296" lon="0.21098517">
        <time>2022-07-07T07:20:15Z</time>
      </trkpt>
      <trkpt lat="41.89825" lon="0.2110515">
        <time>2022-07-07T07:20:16Z</time>
      </trkpt>
      <trkpt lat="41.898212" lon="0.21111916">
        <time>2022-07-07T07:20:17Z</time>
      </trkpt>
      <trkpt lat="41.89817" lon="0.21118549">
        <time>2022-07-07T07:20:18Z</time>
      </trkpt>
      <trkpt lat="41.89813" lon="0.21125515">
        <time>2022-07-07T07:20:19Z</time>
      </trkpt>
      <trkpt lat="41.89809" lon="0.21132047">
        <time>2022-07-07T07:20:20Z</time>
      </trkpt>
      <trkpt lat="41.898052" lon="0.21138814">
        <time>2022-07-07T07:20:21Z</time>
      </trkpt>
      <trkpt lat="41.89801" lon="0.21146247">
        <time>2022-07-07T07:20:22Z</time>
      </trkpt>
      <trkpt lat="41.897972" lon="0.2115298">
        <time>2022-07-07T07:20:23Z</time>
      </trkpt>
      <trkpt lat="41.89793" lon="0.21160246">
        <time>2022-07-07T07:20:24Z</time>
      </trkpt>
      <trkpt lat="41.89789" lon="0.2116748">
        <time>2022-07-07T07:20:25Z</time>
      </trkpt>
      <trkpt lat="41.897846" lon="0.21174645">
        <time>2022-07-07T07:20:26Z</time>
      </trkpt>
      <trkpt lat="41.897808" lon="0.2118131">
        <time>2022-07-07T07:20:27Z</time>
      </trkpt>
      <trkpt lat="41.89777" lon="0.21188112">
        <time>2022-07-07T07:20:28Z</time>
      </trkpt>
      <trkpt lat="41.897728" lon="0.21195243">
        <time>2022-07-07T07:20:29Z</time>
      </trkpt>
      <trkpt lat="41.89769" lon="0.2120251">
        <time>2022-07-07T07:20:30Z</time>
      </trkpt>
      <trkpt lat="41.897644" lon="0.21210542">
        <time>2022-07-07T07:20:31Z</time>
      </trkpt>
      <trkpt lat="41.897606" lon="0.21218376">
        <time>2022-07-07T07:20:32Z</time>
      </trkpt>
      <trkpt lat="41.897568" lon="0.21225509">
        <time>2022-07-07T07:20:33Z</time>
      </trkpt>
      <trkpt lat="41.89753" lon="0.2123271">
        <time>2022-07-07T07:20:34Z</time>
      </trkpt>
      <trkpt lat="41.89749" lon="0.21240342">
        <time>2022-07-07T07:20:35Z</time>
      </trkpt>
      <trkpt lat="41.89745" lon="0.21247809">
        <time>2022-07-07T07:20:36Z</time>
      </trkpt>
      <trkpt lat="41.897415" lon="0.2125474">
        <time>2022-07-07T07:20:37Z</time>
      </trkpt>
      <trkpt lat="41.897377" lon="0.21261874">
        <time>2022-07-07T07:20:38Z</time>
      </trkpt>
      <trkpt lat="41.89734" lon="0.2126904">
        <time>2022-07-07T07:20:39Z</time>
      </trkpt>
      <trkpt lat="41.8973" lon="0.2127634">
        <time>2022-07-07T07:20:40Z</time>
      </trkpt>
      <trkpt lat="41.897263" lon="0.21283473">
        <time>2022-07-07T07:20:41Z</time>
      </trkpt>
      <trkpt lat="41.897224" lon="0.21290839">
        <time>2022-07-07T07:20:42Z</time>
      </trkpt>
      <trkpt lat="41.897182" lon="0.21298204">
        <time>2022-07-07T07:20:43Z</time>
      </trkpt>
      <trkpt lat="41.89714" lon="0.21305504">
        <time>2022-07-07T07:20:44Z</time>
      </trkpt>
      <trkpt lat="41.8971" lon="0.21312772">
        <time>2022-07-07T07:20:45Z</time>
      </trkpt>
      <trkpt lat="41.897057" lon="0.21320038">
        <time>2022-07-07T07:20:46Z</time>
      </trkpt>
      <trkpt lat="41.897015" lon="0.21327338">
        <time>2022-07-07T07:20:47Z</time>
      </trkpt>
      <trkpt lat="41.896976" lon="0.21334638">
        <time>2022-07-07T07:20:48Z</time>
      </trkpt>
      <trkpt lat="41.896935" lon="0.2134197">
        <time>2022-07-07T07:20:49Z</time>
      </trkpt>
      <trkpt lat="41.89685" lon="0.21356504">
        <time>2022-07-07T07:20:51Z</time>
      </trkpt>
      <trkpt lat="41.89681" lon="0.2136387">
        <time>2022-07-07T07:20:52Z</time>
      </trkpt>
      <trkpt lat="41.896767" lon="0.21371235">
        <time>2022-07-07T07:20:53Z</time>
      </trkpt>
      <trkpt lat="41.896725" lon="0.21378668">
        <time>2022-07-07T07:20:54Z</time>
      </trkpt>
      <trkpt lat="41.896683" lon="0.21386202">
        <time>2022-07-07T07:20:55Z</time>
      </trkpt>
      <trkpt lat="41.89664" lon="0.21393701">
        <time>2022-07-07T07:20:56Z</time>
      </trkpt>
      <trkpt lat="41.8966" lon="0.21401267">
        <time>2022-07-07T07:20:57Z</time>
      </trkpt>
      <trkpt lat="41.896557" lon="0.21408834">
        <time>2022-07-07T07:20:58Z</time>
      </trkpt>
      <trkpt lat="41.896515" lon="0.21416399">
        <time>2022-07-07T07:20:59Z</time>
      </trkpt>
      <trkpt lat="41.896477" lon="0.21424031">
        <time>2022-07-07T07:21:00Z</time>
      </trkpt>
      <trkpt lat="41.896435" lon="0.21431632">
        <time>2022-07-07T07:21:01Z</time>
      </trkpt>
      <trkpt lat="41.896393" lon="0.21439332">
        <time>2022-07-07T07:21:02Z</time>
      </trkpt>
      <trkpt lat="41.896347" lon="0.21447033">
        <time>2022-07-07T07:21:03Z</time>
      </trkpt>
      <trkpt lat="41.896305" lon="0.21454665">
        <time>2022-07-07T07:21:04Z</time>
      </trkpt>
      <trkpt lat="41.896267" lon="0.21461898">
        <time>2022-07-07T07:21:05Z</time>
      </trkpt>
      <trkpt lat="41.89622" lon="0.21469899">
        <time>2022-07-07T07:21:06Z</time>
      </trkpt>
      <trkpt lat="41.89618" lon="0.21477798">
        <time>2022-07-07T07:21:07Z</time>
      </trkpt>
      <trkpt lat="41.896133" lon="0.21485531">
        <time>2022-07-07T07:21:08Z</time>
      </trkpt>
      <trkpt lat="41.89609" lon="0.21493264">
        <time>2022-07-07T07:21:09Z</time>
      </trkpt>
      <trkpt lat="41.89605" lon="0.2150093">
        <time>2022-07-07T07:21:10Z</time>
      </trkpt>
      <trkpt lat="41.896008" lon="0.21508595">
        <time>2022-07-07T07:21:11Z</time>
      </trkpt>
      <trkpt lat="41.895966" lon="0.21516196">
        <time>2022-07-07T07:21:12Z</time>
      </trkpt>
      <trkpt lat="41.895924" lon="0.21523762">
        <time>2022-07-07T07:21:13Z</time>
      </trkpt>
      <trkpt lat="41.89588" lon="0.21531294">
        <time>2022-07-07T07:21:14Z</time>
      </trkpt>
      <trkpt lat="41.89584" lon="0.21538828">
        <time>2022-07-07T07:21:15Z</time>
      </trkpt>
      <trkpt lat="41.895798" lon="0.21546294">
        <time>2022-07-07T07:21:16Z</time>
      </trkpt>
      <trkpt lat="41.89576" lon="0.21553627">
        <time>2022-07-07T07:21:17Z</time>
      </trkpt>
      <trkpt lat="41.895718" lon="0.21560827">
        <time>2022-07-07T07:21:18Z</time>
      </trkpt>
      <trkpt lat="41.89568" lon="0.21567793">
        <time>2022-07-07T07:21:19Z</time>
      </trkpt>
      <trkpt lat="41.89564" lon="0.21574558">
        <time>2022-07-07T07:21:20Z</time>
      </trkpt>
      <trkpt lat="41.895603" lon="0.21581292">
        <time>2022-07-07T07:21:21Z</time>
      </trkpt>
      <trkpt lat="41.89557" lon="0.21587957">
        <time>2022-07-07T07:21:22Z</time>
      </trkpt>
      <trkpt lat="41.895535" lon="0.21594559">
        <time>2022-07-07T07:21:23Z</time>
      </trkpt>
      <trkpt lat="41.8955" lon="0.2160059">
        <time>2022-07-07T07:21:24Z</time>
      </trkpt>
      <trkpt lat="41.895466" lon="0.21606724">
        <time>2022-07-07T07:21:25Z</time>
      </trkpt>
      <trkpt lat="41.89543" lon="0.2161319">
        <time>2022-07-07T07:21:26Z</time>
      </trkpt>
      <trkpt lat="41.895397" lon="0.21619555">
        <time>2022-07-07T07:21:27Z</time>
      </trkpt>
      <trkpt lat="41.895363" lon="0.21625789">
        <time>2022-07-07T07:21:28Z</time>
      </trkpt>
      <trkpt lat="41.89533" lon="0.21631955">
        <time>2022-07-07T07:21:29Z</time>
      </trkpt>
      <trkpt lat="41.895294" lon="0.21638021">
        <time>2022-07-07T07:21:30Z</time>
      </trkpt>
      <trkpt lat="41.895264" lon="0.21643887">
        <time>2022-07-07T07:21:31Z</time>
      </trkpt>
      <trkpt lat="41.89523" lon="0.21649653">
        <time>2022-07-07T07:21:32Z</time>
      </trkpt>
      <trkpt lat="41.8952" lon="0.21655387">
        <time>2022-07-07T07:21:33Z</time>
      </trkpt>
      <trkpt lat="41.89517" lon="0.21660952">
        <time>2022-07-07T07:21:34Z</time>
      </trkpt>
      <trkpt lat="41.895138" lon="0.21666652">
        <time>2022-07-07T07:21:35Z</time>
      </trkpt>
      <trkpt lat="41.895107" lon="0.21672252">
        <time>2022-07-07T07:21:36Z</time>
      </trkpt>
      <trkpt lat="41.895077" lon="0.21677552">
        <time>2022-07-07T07:21:37Z</time>
      </trkpt>
      <trkpt lat="41.89501" lon="0.21689051">
        <time>2022-07-07T07:21:39Z</time>
      </trkpt>
      <trkpt lat="41.894978" lon="0.21695118">
        <time>2022-07-07T07:21:40Z</time>
      </trkpt>
      <trkpt lat="41.894943" lon="0.21701084">
        <time>2022-07-07T07:21:41Z</time>
      </trkpt>
      <trkpt lat="41.89491" lon="0.21707083">
        <time>2022-07-07T07:21:42Z</time>
      </trkpt>
      <trkpt lat="41.894875" lon="0.2171305">
        <time>2022-07-07T07:21:43Z</time>
      </trkpt>
      <trkpt lat="41.894844" lon="0.2171915">
        <time>2022-07-07T07:21:44Z</time>
      </trkpt>
      <trkpt lat="41.89481" lon="0.2172525">
        <time>2022-07-07T07:21:45Z</time>
      </trkpt>
      <trkpt lat="41.894775" lon="0.2173125">
        <time>2022-07-07T07:21:46Z</time>
      </trkpt>
      <trkpt lat="41.894745" lon="0.21737216">
        <time>2022-07-07T07:21:47Z</time>
      </trkpt>
      <trkpt lat="41.89471" lon="0.21743149">
        <time>2022-07-07T07:21:48Z</time>
      </trkpt>
      <trkpt lat="41.894676" lon="0.21749082">
        <time>2022-07-07T07:21:49Z</time>
      </trkpt>
      <trkpt lat="41.89464" lon="0.21754947">
        <time>2022-07-07T07:21:50Z</time>
      </trkpt>
      <trkpt lat="41.894608" lon="0.21760848">
        <time>2022-07-07T07:21:51Z</time>
      </trkpt>
      <trkpt lat="41.894547" lon="0.2177218">
        <time>2022-07-07T07:21:53Z</time>
      </trkpt>
      <trkpt lat="41.894478" lon="0.21783847">
        <time>2022-07-07T07:21:55Z</time>
      </trkpt>
      <trkpt lat="41.894444" lon="0.21789947">
        <time>2022-07-07T07:21:56Z</time>
      </trkpt>
      <trkpt lat="41.89441" lon="0.21795946">
        <time>2022-07-07T07:21:57Z</time>
      </trkpt>
      <trkpt lat="41.894375" lon="0.21801913">
        <time>2022-07-07T07:21:58Z</time>
      </trkpt>
      <trkpt lat="41.894344" lon="0.21807446">
        <time>2022-07-07T07:21:59Z</time>
      </trkpt>
      <trkpt lat="41.89431" lon="0.21813446">
        <time>2022-07-07T07:22:00Z</time>
      </trkpt>
      <trkpt lat="41.894276" lon="0.21819445">
        <time>2022-07-07T07:22:01Z</time>
      </trkpt>
      <trkpt lat="41.89424" lon="0.21825512">
        <time>2022-07-07T07:22:02Z</time>
      </trkpt>
      <trkpt lat="41.894207" lon="0.21831545">
        <time>2022-07-07T07:22:03Z</time>
      </trkpt>
      <trkpt lat="41.894173" lon="0.2183741">
        <time>2022-07-07T07:22:04Z</time>
      </trkpt>
      <trkpt lat="41.894142" lon="0.21843311">
        <time>2022-07-07T07:22:05Z</time>
      </trkpt>
      <trkpt lat="41.894108" lon="0.21849144">
        <time>2022-07-07T07:22:06Z</time>
      </trkpt>
      <trkpt lat="41.894077" lon="0.21855044">
        <time>2022-07-07T07:22:07Z</time>
      </trkpt>
      <trkpt lat="41.894043" lon="0.21860844">
        <time>2022-07-07T07:22:08Z</time>
      </trkpt>
      <trkpt lat="41.89401" lon="0.2186661">
        <time>2022-07-07T07:22:09Z</time>
      </trkpt>
      <trkpt lat="41.89398" lon="0.21872276">
        <time>2022-07-07T07:22:10Z</time>
      </trkpt>
      <trkpt lat="41.893944" lon="0.21878009">
        <time>2022-07-07T07:22:11Z</time>
      </trkpt>
      <trkpt lat="41.89391" lon="0.21883675">
        <time>2022-07-07T07:22:12Z</time>
      </trkpt>
      <trkpt lat="41.89385" lon="0.21894775">
        <time>2022-07-07T07:22:14Z</time>
      </trkpt>
      <trkpt lat="41.893814" lon="0.21900675">
        <time>2022-07-07T07:22:15Z</time>
      </trkpt>
      <trkpt lat="41.893784" lon="0.21906541">
        <time>2022-07-07T07:22:16Z</time>
      </trkpt>
      <trkpt lat="41.89375" lon="0.21912406">
        <time>2022-07-07T07:22:17Z</time>
      </trkpt>
      <trkpt lat="41.89372" lon="0.21918273">
        <time>2022-07-07T07:22:18Z</time>
      </trkpt>
      <trkpt lat="41.89369" lon="0.21924105">
        <time>2022-07-07T07:22:19Z</time>
      </trkpt>
      <trkpt lat="41.893654" lon="0.21929906">
        <time>2022-07-07T07:22:20Z</time>
      </trkpt>
      <trkpt lat="41.893623" lon="0.21935706">
        <time>2022-07-07T07:22:21Z</time>
      </trkpt>
      <trkpt lat="41.893593" lon="0.21941406">
        <time>2022-07-07T07:22:22Z</time>
      </trkpt>
      <trkpt lat="41.893562" lon="0.21947107">
        <time>2022-07-07T07:22:23Z</time>
      </trkpt>
      <trkpt lat="41.893528" lon="0.21952707">
        <time>2022-07-07T07:22:24Z</time>
      </trkpt>
      <trkpt lat="41.893497" lon="0.21958306">
        <time>2022-07-07T07:22:25Z</time>
      </trkpt>
      <trkpt lat="41.893436" lon="0.21969306">
        <time>2022-07-07T07:22:27Z</time>
      </trkpt>
      <trkpt lat="41.893402" lon="0.21974806">
        <time>2022-07-07T07:22:28Z</time>
      </trkpt>
      <trkpt lat="41.89337" lon="0.21980207">
        <time>2022-07-07T07:22:29Z</time>
      </trkpt>
      <trkpt lat="41.89331" lon="0.21990806">
        <time>2022-07-07T07:22:31Z</time>
      </trkpt>
      <trkpt lat="41.893253" lon="0.22001038">
        <time>2022-07-07T07:22:33Z</time>
      </trkpt>
      <trkpt lat="41.893196" lon="0.22010405">
        <time>2022-07-07T07:22:35Z</time>
      </trkpt>
      <trkpt lat="41.893143" lon="0.22020105">
        <time>2022-07-07T07:22:37Z</time>
      </trkpt>
      <trkpt lat="41.893093" lon="0.2202897">
        <time>2022-07-07T07:22:39Z</time>
      </trkpt>
      <trkpt lat="41.893047" lon="0.22037704">
        <time>2022-07-07T07:22:41Z</time>
      </trkpt>
      <trkpt lat="41.892998" lon="0.22046237">
        <time>2022-07-07T07:22:43Z</time>
      </trkpt>
      <trkpt lat="41.892952" lon="0.2205417">
        <time>2022-07-07T07:22:45Z</time>
      </trkpt>
      <trkpt lat="41.892906" lon="0.22061735">
        <time>2022-07-07T07:22:47Z</time>
      </trkpt>
      <trkpt lat="41.892864" lon="0.2206937">
        <time>2022-07-07T07:22:49Z</time>
      </trkpt>
      <trkpt lat="41.892822" lon="0.2207667">
        <time>2022-07-07T07:22:51Z</time>
      </trkpt>
      <trkpt lat="41.892757" lon="0.22087802">
        <time>2022-07-07T07:22:54Z</time>
      </trkpt>
      <trkpt lat="41.89272" lon="0.22094601">
        <time>2022-07-07T07:22:56Z</time>
      </trkpt>
      <trkpt lat="41.892677" lon="0.22101869">
        <time>2022-07-07T07:22:58Z</time>
      </trkpt>
      <trkpt lat="41.892635" lon="0.221088">
        <time>2022-07-07T07:23:00Z</time>
      </trkpt>
      <trkpt lat="41.8926" lon="0.221154">
        <time>2022-07-07T07:23:02Z</time>
      </trkpt>
      <trkpt lat="41.892563" lon="0.22122101">
        <time>2022-07-07T07:23:04Z</time>
      </trkpt>
      <trkpt lat="41.892525" lon="0.22128467">
        <time>2022-07-07T07:23:06Z</time>
      </trkpt>
      <trkpt lat="41.892487" lon="0.22135167">
        <time>2022-07-07T07:23:08Z</time>
      </trkpt>
      <trkpt lat="41.892445" lon="0.221422">
        <time>2022-07-07T07:23:10Z</time>
      </trkpt>
      <trkpt lat="41.89241" lon="0.22148666">
        <time>2022-07-07T07:23:12Z</time>
      </trkpt>
      <trkpt lat="41.89237" lon="0.22155699">
        <time>2022-07-07T07:23:14Z</time>
      </trkpt>
      <trkpt lat="41.892326" lon="0.221627">
        <time>2022-07-07T07:23:16Z</time>
      </trkpt>
      <trkpt lat="41.89229" lon="0.22169632">
        <time>2022-07-07T07:23:18Z</time>
      </trkpt>
      <trkpt lat="41.89225" lon="0.22176164">
        <time>2022-07-07T07:23:20Z</time>
      </trkpt>
      <trkpt lat="41.892212" lon="0.2218313">
        <time>2022-07-07T07:23:22Z</time>
      </trkpt>
      <trkpt lat="41.892174" lon="0.22190331">
        <time>2022-07-07T07:23:24Z</time>
      </trkpt>
      <trkpt lat="41.892136" lon="0.22197264">
        <time>2022-07-07T07:23:26Z</time>
      </trkpt>
      <trkpt lat="41.892097" lon="0.22204296">
        <time>2022-07-07T07:23:28Z</time>
      </trkpt>
      <trkpt lat="41.892056" lon="0.22211197">
        <time>2022-07-07T07:23:30Z</time>
      </trkpt>
      <trkpt lat="41.892017" lon="0.2221803">
        <time>2022-07-07T07:23:32Z</time>
      </trkpt>
      <trkpt lat="41.891975" lon="0.22225095">
        <time>2022-07-07T07:23:34Z</time>
      </trkpt>
      <trkpt lat="41.891933" lon="0.22232229">
        <time>2022-07-07T07:23:36Z</time>
      </trkpt>
      <trkpt lat="41.891895" lon="0.2223883">
        <time>2022-07-07T07:23:38Z</time>
      </trkpt>
      <trkpt lat="41.891857" lon="0.22245495">
        <time>2022-07-07T07:23:40Z</time>
      </trkpt>
      <trkpt lat="41.89182" lon="0.22252227">
        <time>2022-07-07T07:23:42Z</time>
      </trkpt>
      <trkpt lat="41.89178" lon="0.22259128">
        <time>2022-07-07T07:23:44Z</time>
      </trkpt>
      <trkpt lat="41.89174" lon="0.22266194">
        <time>2022-07-07T07:23:46Z</time>
      </trkpt>
      <trkpt lat="41.8917" lon="0.22272694">
        <time>2022-07-07T07:23:48Z</time>
      </trkpt>
      <trkpt lat="41.891663" lon="0.22279628">
        <time>2022-07-07T07:23:50Z</time>
      </trkpt>
      <trkpt lat="41.89162" lon="0.22286493">
        <time>2022-07-07T07:23:52Z</time>
      </trkpt>
      <trkpt lat="41.891582" lon="0.22293194">
        <time>2022-07-07T07:23:54Z</time>
      </trkpt>
      <trkpt lat="41.891544" lon="0.2230036">
        <time>2022-07-07T07:23:56Z</time>
      </trkpt>
      <trkpt lat="41.891502" lon="0.2230696">
        <time>2022-07-07T07:23:58Z</time>
      </trkpt>
      <trkpt lat="41.891464" lon="0.22313459">
        <time>2022-07-07T07:24:00Z</time>
      </trkpt>
      <trkpt lat="41.891422" lon="0.22320625">
        <time>2022-07-07T07:24:02Z</time>
      </trkpt>
      <trkpt lat="41.891384" lon="0.22326925">
        <time>2022-07-07T07:24:04Z</time>
      </trkpt>
      <trkpt lat="41.891346" lon="0.2233359">
        <time>2022-07-07T07:24:06Z</time>
      </trkpt>
      <trkpt lat="41.891304" lon="0.22340491">
        <time>2022-07-07T07:24:08Z</time>
      </trkpt>
      <trkpt lat="41.89127" lon="0.22346924">
        <time>2022-07-07T07:24:10Z</time>
      </trkpt>
      <trkpt lat="41.891228" lon="0.22353756">
        <time>2022-07-07T07:24:12Z</time>
      </trkpt>
      <trkpt lat="41.89119" lon="0.22360523">
        <time>2022-07-07T07:24:14Z</time>
      </trkpt>
      <trkpt lat="41.89115" lon="0.22367322">
        <time>2022-07-07T07:24:16Z</time>
      </trkpt>
      <trkpt lat="41.891113" lon="0.22374356">
        <time>2022-07-07T07:24:18Z</time>
      </trkpt>
      <trkpt lat="41.891075" lon="0.2238119">
        <time>2022-07-07T07:24:20Z</time>
      </trkpt>
      <trkpt lat="41.891033" lon="0.22388154">
        <time>2022-07-07T07:24:22Z</time>
      </trkpt>
      <trkpt lat="41.890995" lon="0.22394589">
        <time>2022-07-07T07:24:24Z</time>
      </trkpt>
      <trkpt lat="41.890957" lon="0.22401454">
        <time>2022-07-07T07:24:26Z</time>
      </trkpt>
      <trkpt lat="41.89092" lon="0.22408786">
        <time>2022-07-07T07:24:28Z</time>
      </trkpt>
      <trkpt lat="41.89088" lon="0.2241572">
        <time>2022-07-07T07:24:30Z</time>
      </trkpt>
      <trkpt lat="41.89084" lon="0.2242272">
        <time>2022-07-07T07:24:32Z</time>
      </trkpt>
      <trkpt lat="41.890804" lon="0.2242972">
        <time>2022-07-07T07:24:34Z</time>
      </trkpt>
      <trkpt lat="41.890762" lon="0.2243642">
        <time>2022-07-07T07:24:36Z</time>
      </trkpt>
      <trkpt lat="41.890724" lon="0.22443587">
        <time>2022-07-07T07:24:38Z</time>
      </trkpt>
      <trkpt lat="41.890686" lon="0.22450252">
        <time>2022-07-07T07:24:40Z</time>
      </trkpt>
      <trkpt lat="41.890648" lon="0.22457285">
        <time>2022-07-07T07:24:42Z</time>
      </trkpt>
      <trkpt lat="41.890606" lon="0.22464386">
        <time>2022-07-07T07:24:44Z</time>
      </trkpt>
      <trkpt lat="41.89057" lon="0.22470886">
        <time>2022-07-07T07:24:46Z</time>
      </trkpt>
      <trkpt lat="41.89053" lon="0.22477885">
        <time>2022-07-07T07:24:48Z</time>
      </trkpt>
      <trkpt lat="41.89049" lon="0.22485085">
        <time>2022-07-07T07:24:50Z</time>
      </trkpt>
      <trkpt lat="41.890453" lon="0.22491951">
        <time>2022-07-07T07:24:52Z</time>
      </trkpt>
      <trkpt lat="41.89041" lon="0.22499152">
        <time>2022-07-07T07:24:54Z</time>
      </trkpt>
      <trkpt lat="41.89037" lon="0.22505951">
        <time>2022-07-07T07:24:56Z</time>
      </trkpt>
      <trkpt lat="41.89033" lon="0.22513351">
        <time>2022-07-07T07:24:58Z</time>
      </trkpt>
      <trkpt lat="41.89029" lon="0.22520651">
        <time>2022-07-07T07:25:00Z</time>
      </trkpt>
      <trkpt lat="41.89025" lon="0.22527517">
        <time>2022-07-07T07:25:02Z</time>
      </trkpt>
      <trkpt lat="41.89021" lon="0.22534683">
        <time>2022-07-07T07:25:04Z</time>
      </trkpt>
      <trkpt lat="41.890167" lon="0.22542116">
        <time>2022-07-07T07:25:06Z</time>
      </trkpt>
      <trkpt lat="41.890125" lon="0.22549382">
        <time>2022-07-07T07:25:08Z</time>
      </trkpt>
      <trkpt lat="41.890083" lon="0.22556815">
        <time>2022-07-07T07:25:10Z</time>
      </trkpt>
      <trkpt lat="41.89004" lon="0.22564515">
        <time>2022-07-07T07:25:12Z</time>
      </trkpt>
      <trkpt lat="41.89" lon="0.22572248">
        <time>2022-07-07T07:25:14Z</time>
      </trkpt>
      <trkpt lat="41.889957" lon="0.22579981">
        <time>2022-07-07T07:25:16Z</time>
      </trkpt>
      <trkpt lat="41.88991" lon="0.22587913">
        <time>2022-07-07T07:25:18Z</time>
      </trkpt>
      <trkpt lat="41.889843" lon="0.2260018">
        <time>2022-07-07T07:25:21Z</time>
      </trkpt>
      <trkpt lat="41.889797" lon="0.22608246">
        <time>2022-07-07T07:25:23Z</time>
      </trkpt>
      <trkpt lat="41.889748" lon="0.22617112">
        <time>2022-07-07T07:25:25Z</time>
      </trkpt>
      <trkpt lat="41.8897" lon="0.22625545">
        <time>2022-07-07T07:25:27Z</time>
      </trkpt>
      <trkpt lat="41.889652" lon="0.22634111">
        <time>2022-07-07T07:25:29Z</time>
      </trkpt>
      <trkpt lat="41.889595" lon="0.22643244">
        <time>2022-07-07T07:25:31Z</time>
      </trkpt>
      <trkpt lat="41.88954" lon="0.22652844">
        <time>2022-07-07T07:25:33Z</time>
      </trkpt>
      <trkpt lat="41.889484" lon="0.22662877">
        <time>2022-07-07T07:25:35Z</time>
      </trkpt>
      <trkpt lat="41.889423" lon="0.2267331">
        <time>2022-07-07T07:25:37Z</time>
      </trkpt>
      <trkpt lat="41.88937" lon="0.22683243">
        <time>2022-07-07T07:25:39Z</time>
      </trkpt>
      <trkpt lat="41.88931" lon="0.22694042">
        <time>2022-07-07T07:25:41Z</time>
      </trkpt>
      <trkpt lat="41.889275" lon="0.22699644">
        <time>2022-07-07T07:25:42Z</time>
      </trkpt>
      <trkpt lat="41.889217" lon="0.22709943">
        <time>2022-07-07T07:25:44Z</time>
      </trkpt>
      <trkpt lat="41.889156" lon="0.22720976">
        <time>2022-07-07T07:25:46Z</time>
      </trkpt>
      <trkpt lat="41.88909" lon="0.22731441">
        <time>2022-07-07T07:25:48Z</time>
      </trkpt>
      <trkpt lat="41.88906" lon="0.22736008">
        <time>2022-07-07T07:25:49Z</time>
      </trkpt>
      <trkpt lat="41.888985" lon="0.22744374">
        <time>2022-07-07T07:25:51Z</time>
      </trkpt>
      <trkpt lat="41.888943" lon="0.22747807">
        <time>2022-07-07T07:25:52Z</time>
      </trkpt>
      <trkpt lat="41.888855" lon="0.22753607">
        <time>2022-07-07T07:25:54Z</time>
      </trkpt>
      <trkpt lat="41.888763" lon="0.22759573">
        <time>2022-07-07T07:25:56Z</time>
      </trkpt>
      <trkpt lat="41.88872" lon="0.22763106">
        <time>2022-07-07T07:25:57Z</time>
      </trkpt>
      <trkpt lat="41.88868" lon="0.22767138">
        <time>2022-07-07T07:25:58Z</time>
      </trkpt>
      <trkpt lat="41.888645" lon="0.22771372">
        <time>2022-07-07T07:25:59Z</time>
      </trkpt>
      <trkpt lat="41.888588" lon="0.22782038">
        <time>2022-07-07T07:26:01Z</time>
      </trkpt>
      <trkpt lat="41.88857" lon="0.2278867">
        <time>2022-07-07T07:26:02Z</time>
      </trkpt>
      <trkpt lat="41.88855" lon="0.22795571">
        <time>2022-07-07T07:26:03Z</time>
      </trkpt>
      <trkpt lat="41.888523" lon="0.22809471">
        <time>2022-07-07T07:26:05Z</time>
      </trkpt>
      <trkpt lat="41.888508" lon="0.22817037">
        <time>2022-07-07T07:26:06Z</time>
      </trkpt>
      <trkpt lat="41.88849" lon="0.2282447">
        <time>2022-07-07T07:26:07Z</time>
      </trkpt>
      <trkpt lat="41.888466" lon="0.2283167">
        <time>2022-07-07T07:26:08Z</time>
      </trkpt>
      <trkpt lat="41.88844" lon="0.22838636">
        <time>2022-07-07T07:26:09Z</time>
      </trkpt>
      <trkpt lat="41.88841" lon="0.22844936">
        <time>2022-07-07T07:26:10Z</time>
      </trkpt>
      <trkpt lat="41.88838" lon="0.22851369">
        <time>2022-07-07T07:26:11Z</time>
      </trkpt>
      <trkpt lat="41.888344" lon="0.22858202">
        <time>2022-07-07T07:26:12Z</time>
      </trkpt>
      <trkpt lat="41.88831" lon="0.22864868">
        <time>2022-07-07T07:26:13Z</time>
      </trkpt>
      <trkpt lat="41.88828" lon="0.22871001">
        <time>2022-07-07T07:26:14Z</time>
      </trkpt>
      <trkpt lat="41.888245" lon="0.22877201">
        <time>2022-07-07T07:26:15Z</time>
      </trkpt>
      <trkpt lat="41.88821" lon="0.22883368">
        <time>2022-07-07T07:26:16Z</time>
      </trkpt>
      <trkpt lat="41.888176" lon="0.22890033">
        <time>2022-07-07T07:26:17Z</time>
      </trkpt>
      <trkpt lat="41.88814" lon="0.22896598">
        <time>2022-07-07T07:26:18Z</time>
      </trkpt>
      <trkpt lat="41.888107" lon="0.22903132">
        <time>2022-07-07T07:26:19Z</time>
      </trkpt>
      <trkpt lat="41.888077" lon="0.22909231">
        <time>2022-07-07T07:26:20Z</time>
      </trkpt>
      <trkpt lat="41.888042" lon="0.22915365">
        <time>2022-07-07T07:26:21Z</time>
      </trkpt>
      <trkpt lat="41.88801" lon="0.22921965">
        <time>2022-07-07T07:26:22Z</time>
      </trkpt>
      <trkpt lat="41.887974" lon="0.22928566">
        <time>2022-07-07T07:26:23Z</time>
      </trkpt>
      <trkpt lat="41.88794" lon="0.22934932">
        <time>2022-07-07T07:26:24Z</time>
      </trkpt>
      <trkpt lat="41.887905" lon="0.22941265">
        <time>2022-07-07T07:26:25Z</time>
      </trkpt>
      <trkpt lat="41.887875" lon="0.22946997">
        <time>2022-07-07T07:26:26Z</time>
      </trkpt>
      <trkpt lat="41.88784" lon="0.2295273">
        <time>2022-07-07T07:26:27Z</time>
      </trkpt>
      <trkpt lat="41.88781" lon="0.22958463">
        <time>2022-07-07T07:26:28Z</time>
      </trkpt>
      <trkpt lat="41.88777" lon="0.2296463">
        <time>2022-07-07T07:26:29Z</time>
      </trkpt>
      <trkpt lat="41.88774" lon="0.22970594">
        <time>2022-07-07T07:26:30Z</time>
      </trkpt>
      <trkpt lat="41.88771" lon="0.22976062">
        <time>2022-07-07T07:26:31Z</time>
      </trkpt>
      <trkpt lat="41.887646" lon="0.22987361">
        <time>2022-07-07T07:26:33Z</time>
      </trkpt>
      <trkpt lat="41.887615" lon="0.22992994">
        <time>2022-07-07T07:26:34Z</time>
      </trkpt>
      <trkpt lat="41.88759" lon="0.22998095">
        <time>2022-07-07T07:26:35Z</time>
      </trkpt>
      <trkpt lat="41.887535" lon="0.23008294">
        <time>2022-07-07T07:26:37Z</time>
      </trkpt>
      <trkpt lat="41.88748" lon="0.23018128">
        <time>2022-07-07T07:26:39Z</time>
      </trkpt>
      <trkpt lat="41.88743" lon="0.2302766">
        <time>2022-07-07T07:26:41Z</time>
      </trkpt>
      <trkpt lat="41.887375" lon="0.23037127">
        <time>2022-07-07T07:26:43Z</time>
      </trkpt>
      <trkpt lat="41.88732" lon="0.23046792">
        <time>2022-07-07T07:26:45Z</time>
      </trkpt>
      <trkpt lat="41.887268" lon="0.23055892">
        <time>2022-07-07T07:26:47Z</time>
      </trkpt>
      <trkpt lat="41.887215" lon="0.23064592">
        <time>2022-07-07T07:26:49Z</time>
      </trkpt>
      <trkpt lat="41.887165" lon="0.23073125">
        <time>2022-07-07T07:26:51Z</time>
      </trkpt>
      <trkpt lat="41.88712" lon="0.23081358">
        <time>2022-07-07T07:26:53Z</time>
      </trkpt>
      <trkpt lat="41.88707" lon="0.23089623">
        <time>2022-07-07T07:26:55Z</time>
      </trkpt>
      <trkpt lat="41.887024" lon="0.2309769">
        <time>2022-07-07T07:26:57Z</time>
      </trkpt>
      <trkpt lat="41.88698" lon="0.2310549">
        <time>2022-07-07T07:26:59Z</time>
      </trkpt>
      <trkpt lat="41.886932" lon="0.23113056">
        <time>2022-07-07T07:27:01Z</time>
      </trkpt>
      <trkpt lat="41.88689" lon="0.23120289">
        <time>2022-07-07T07:27:03Z</time>
      </trkpt>
      <trkpt lat="41.88685" lon="0.23127222">
        <time>2022-07-07T07:27:05Z</time>
      </trkpt>
      <trkpt lat="41.886806" lon="0.23133855">
        <time>2022-07-07T07:27:07Z</time>
      </trkpt>
      <trkpt lat="41.886765" lon="0.23140422">
        <time>2022-07-07T07:27:09Z</time>
      </trkpt>
      <trkpt lat="41.886723" lon="0.23147054">
        <time>2022-07-07T07:27:11Z</time>
      </trkpt>
      <trkpt lat="41.886684" lon="0.23153587">
        <time>2022-07-07T07:27:13Z</time>
      </trkpt>
      <trkpt lat="41.886642" lon="0.2315992">
        <time>2022-07-07T07:27:15Z</time>
      </trkpt>
      <trkpt lat="41.8866" lon="0.2316642">
        <time>2022-07-07T07:27:17Z</time>
      </trkpt>
      <trkpt lat="41.88656" lon="0.23172887">
        <time>2022-07-07T07:27:19Z</time>
      </trkpt>
      <trkpt lat="41.886517" lon="0.23179786">
        <time>2022-07-07T07:27:21Z</time>
      </trkpt>
      <trkpt lat="41.886475" lon="0.23186453">
        <time>2022-07-07T07:27:23Z</time>
      </trkpt>
      <trkpt lat="41.886433" lon="0.23192818">
        <time>2022-07-07T07:27:25Z</time>
      </trkpt>
      <trkpt lat="41.886387" lon="0.23199384">
        <time>2022-07-07T07:27:27Z</time>
      </trkpt>
      <trkpt lat="41.88635" lon="0.23205584">
        <time>2022-07-07T07:27:29Z</time>
      </trkpt>
      <trkpt lat="41.886307" lon="0.23211516">
        <time>2022-07-07T07:27:31Z</time>
      </trkpt>
      <trkpt lat="41.886265" lon="0.23218016">
        <time>2022-07-07T07:27:33Z</time>
      </trkpt>
      <trkpt lat="41.886227" lon="0.23224083">
        <time>2022-07-07T07:27:35Z</time>
      </trkpt>
      <trkpt lat="41.88619" lon="0.23229717">
        <time>2022-07-07T07:27:37Z</time>
      </trkpt>
      <trkpt lat="41.88615" lon="0.2323535">
        <time>2022-07-07T07:27:39Z</time>
      </trkpt>
      <trkpt lat="41.88611" lon="0.2324085">
        <time>2022-07-07T07:27:41Z</time>
      </trkpt>
      <trkpt lat="41.886066" lon="0.23246749">
        <time>2022-07-07T07:27:43Z</time>
      </trkpt>
      <trkpt lat="41.88603" lon="0.23252282">
        <time>2022-07-07T07:27:45Z</time>
      </trkpt>
      <trkpt lat="41.88599" lon="0.23257315">
        <time>2022-07-07T07:27:47Z</time>
      </trkpt>
      <trkpt lat="41.885956" lon="0.23262148">
        <time>2022-07-07T07:27:49Z</time>
      </trkpt>
      <trkpt lat="41.885918" lon="0.23267214">
        <time>2022-07-07T07:27:51Z</time>
      </trkpt>
      <trkpt lat="41.885868" lon="0.23274215">
        <time>2022-07-07T07:27:54Z</time>
      </trkpt>
      <trkpt lat="41.88582" lon="0.23280947">
        <time>2022-07-07T07:27:57Z</time>
      </trkpt>
      <trkpt lat="41.885777" lon="0.23287147">
        <time>2022-07-07T07:28:00Z</time>
      </trkpt>
      <trkpt lat="41.88573" lon="0.23293713">
        <time>2022-07-07T07:28:03Z</time>
      </trkpt>
      <trkpt lat="41.885685" lon="0.2330038">
        <time>2022-07-07T07:28:06Z</time>
      </trkpt>
      <trkpt lat="41.885647" lon="0.23306344">
        <time>2022-07-07T07:28:09Z</time>
      </trkpt>
      <trkpt lat="41.8856" lon="0.23312946">
        <time>2022-07-07T07:28:12Z</time>
      </trkpt>
      <trkpt lat="41.88556" lon="0.23319578">
        <time>2022-07-07T07:28:15Z</time>
      </trkpt>
      <trkpt lat="41.88551" lon="0.23325811">
        <time>2022-07-07T07:28:18Z</time>
      </trkpt>
      <trkpt lat="41.885464" lon="0.23332077">
        <time>2022-07-07T07:28:21Z</time>
      </trkpt>
      <trkpt lat="41.885418" lon="0.23338278">
        <time>2022-07-07T07:28:24Z</time>
      </trkpt>
      <trkpt lat="41.88537" lon="0.2334481">
        <time>2022-07-07T07:28:27Z</time>
      </trkpt>
      <trkpt lat="41.885323" lon="0.2335091">
        <time>2022-07-07T07:28:30Z</time>
      </trkpt>
      <trkpt lat="41.885277" lon="0.23356676">
        <time>2022-07-07T07:28:33Z</time>
      </trkpt>
      <trkpt lat="41.885227" lon="0.23362842">
        <time>2022-07-07T07:28:36Z</time>
      </trkpt>
      <trkpt lat="41.88518" lon="0.23369142">
        <time>2022-07-07T07:28:39Z</time>
      </trkpt>
      <trkpt lat="41.885136" lon="0.23375408">
        <time>2022-07-07T07:28:42Z</time>
      </trkpt>
      <trkpt lat="41.88509" lon="0.23381841">
        <time>2022-07-07T07:28:45Z</time>
      </trkpt>
      <trkpt lat="41.885048" lon="0.23388141">
        <time>2022-07-07T07:28:48Z</time>
      </trkpt>
      <trkpt lat="41.885" lon="0.23394407">
        <time>2022-07-07T07:28:51Z</time>
      </trkpt>
      <trkpt lat="41.88495" lon="0.23400907">
        <time>2022-07-07T07:28:54Z</time>
      </trkpt>
      <trkpt lat="41.8849" lon="0.23407407">
        <time>2022-07-07T07:28:57Z</time>
      </trkpt>
      <trkpt lat="41.884853" lon="0.23413473">
        <time>2022-07-07T07:29:00Z</time>
      </trkpt>
      <trkpt lat="41.884808" lon="0.23420039">
        <time>2022-07-07T07:29:03Z</time>
      </trkpt>
      <trkpt lat="41.884758" lon="0.23426671">
        <time>2022-07-07T07:29:06Z</time>
      </trkpt>
      <trkpt lat="41.884705" lon="0.23433338">
        <time>2022-07-07T07:29:09Z</time>
      </trkpt>
      <trkpt lat="41.88466" lon="0.23439504">
        <time>2022-07-07T07:29:12Z</time>
      </trkpt>
      <trkpt lat="41.884613" lon="0.2344587">
        <time>2022-07-07T07:29:15Z</time>
      </trkpt>
      <trkpt lat="41.88456" lon="0.23452236">
        <time>2022-07-07T07:29:18Z</time>
      </trkpt>
      <trkpt lat="41.88453" lon="0.23456502">
        <time>2022-07-07T07:29:20Z</time>
      </trkpt>
      <trkpt lat="41.88448" lon="0.23462735">
        <time>2022-07-07T07:29:23Z</time>
      </trkpt>
      <trkpt lat="41.88443" lon="0.23469068">
        <time>2022-07-07T07:29:26Z</time>
      </trkpt>
      <trkpt lat="41.884384" lon="0.23475534">
        <time>2022-07-07T07:29:29Z</time>
      </trkpt>
      <trkpt lat="41.884335" lon="0.23482233">
        <time>2022-07-07T07:29:32Z</time>
      </trkpt>
      <trkpt lat="41.884285" lon="0.23489034">
        <time>2022-07-07T07:29:35Z</time>
      </trkpt>
      <trkpt lat="41.884235" lon="0.23495367">
        <time>2022-07-07T07:29:38Z</time>
      </trkpt>
      <trkpt lat="41.884186" lon="0.23501767">
        <time>2022-07-07T07:29:41Z</time>
      </trkpt>
      <trkpt lat="41.88414" lon="0.235085">
        <time>2022-07-07T07:29:44Z</time>
      </trkpt>
      <trkpt lat="41.884094" lon="0.23515">
        <time>2022-07-07T07:29:47Z</time>
      </trkpt>
      <trkpt lat="41.884045" lon="0.23521833">
        <time>2022-07-07T07:29:50Z</time>
      </trkpt>
      <trkpt lat="41.88399" lon="0.23528899">
        <time>2022-07-07T07:29:53Z</time>
      </trkpt>
      <trkpt lat="41.88395" lon="0.235344">
        <time>2022-07-07T07:29:55Z</time>
      </trkpt>
      <trkpt lat="41.883907" lon="0.235398">
        <time>2022-07-07T07:29:57Z</time>
      </trkpt>
      <trkpt lat="41.88387" lon="0.23545133">
        <time>2022-07-07T07:29:59Z</time>
      </trkpt>
      <trkpt lat="41.883823" lon="0.23551264">
        <time>2022-07-07T07:30:01Z</time>
      </trkpt>
      <trkpt lat="41.88378" lon="0.23557198">
        <time>2022-07-07T07:30:03Z</time>
      </trkpt>
      <trkpt lat="41.88374" lon="0.23563564">
        <time>2022-07-07T07:30:05Z</time>
      </trkpt>
      <trkpt lat="41.883694" lon="0.23570164">
        <time>2022-07-07T07:30:07Z</time>
      </trkpt>
      <trkpt lat="41.883648" lon="0.2357653">
        <time>2022-07-07T07:30:09Z</time>
      </trkpt>
      <trkpt lat="41.8836" lon="0.23583762">
        <time>2022-07-07T07:30:11Z</time>
      </trkpt>
      <trkpt lat="41.883545" lon="0.2359103">
        <time>2022-07-07T07:30:13Z</time>
      </trkpt>
      <trkpt lat="41.883495" lon="0.23598295">
        <time>2022-07-07T07:30:15Z</time>
      </trkpt>
      <trkpt lat="41.883442" lon="0.2360606">
        <time>2022-07-07T07:30:17Z</time>
      </trkpt>
      <trkpt lat="41.88339" lon="0.23613994">
        <time>2022-07-07T07:30:19Z</time>
      </trkpt>
      <trkpt lat="41.8833" lon="0.2362746">
        <time>2022-07-07T07:30:22Z</time>
      </trkpt>
      <trkpt lat="41.88324" lon="0.2363676">
        <time>2022-07-07T07:30:24Z</time>
      </trkpt>
      <trkpt lat="41.883175" lon="0.23646826">
        <time>2022-07-07T07:30:26Z</time>
      </trkpt>
      <trkpt lat="41.88314" lon="0.23652259">
        <time>2022-07-07T07:30:27Z</time>
      </trkpt>
      <trkpt lat="41.883106" lon="0.23657724">
        <time>2022-07-07T07:30:28Z</time>
      </trkpt>
      <trkpt lat="41.883068" lon="0.23663358">
        <time>2022-07-07T07:30:29Z</time>
      </trkpt>
      <trkpt lat="41.883034" lon="0.23668692">
        <time>2022-07-07T07:30:30Z</time>
      </trkpt>
      <trkpt lat="41.882996" lon="0.2367469">
        <time>2022-07-07T07:30:31Z</time>
      </trkpt>
      <trkpt lat="41.882957" lon="0.23680857">
        <time>2022-07-07T07:30:32Z</time>
      </trkpt>
      <trkpt lat="41.882915" lon="0.23687023">
        <time>2022-07-07T07:30:33Z</time>
      </trkpt>
      <trkpt lat="41.882877" lon="0.23693356">
        <time>2022-07-07T07:30:34Z</time>
      </trkpt>
      <trkpt lat="41.88284" lon="0.23699322">
        <time>2022-07-07T07:30:35Z</time>
      </trkpt>
      <trkpt lat="41.882797" lon="0.23705755">
        <time>2022-07-07T07:30:36Z</time>
      </trkpt>
      <trkpt lat="41.882755" lon="0.23712355">
        <time>2022-07-07T07:30:37Z</time>
      </trkpt>
      <trkpt lat="41.882717" lon="0.2371892">
        <time>2022-07-07T07:30:38Z</time>
      </trkpt>
      <trkpt lat="41.882675" lon="0.23725554">
        <time>2022-07-07T07:30:39Z</time>
      </trkpt>
      <trkpt lat="41.882633" lon="0.2373182">
        <time>2022-07-07T07:30:40Z</time>
      </trkpt>
      <trkpt lat="41.882595" lon="0.2373822">
        <time>2022-07-07T07:30:41Z</time>
      </trkpt>
      <trkpt lat="41.882553" lon="0.23745254">
        <time>2022-07-07T07:30:42Z</time>
      </trkpt>
      <trkpt lat="41.882507" lon="0.23752218">
        <time>2022-07-07T07:30:43Z</time>
      </trkpt>
      <trkpt lat="41.882465" lon="0.23759252">
        <time>2022-07-07T07:30:44Z</time>
      </trkpt>
      <trkpt lat="41.882423" lon="0.23766385">
        <time>2022-07-07T07:30:45Z</time>
      </trkpt>
      <trkpt lat="41.882378" lon="0.23773585">
        <time>2022-07-07T07:30:46Z</time>
      </trkpt>
      <trkpt lat="41.88234" lon="0.23780318">
        <time>2022-07-07T07:30:47Z</time>
      </trkpt>
      <trkpt lat="41.882298" lon="0.23787284">
        <time>2022-07-07T07:30:48Z</time>
      </trkpt>
      <trkpt lat="41.882256" lon="0.23794284">
        <time>2022-07-07T07:30:49Z</time>
      </trkpt>
      <trkpt lat="41.882214" lon="0.23801184">
        <time>2022-07-07T07:30:50Z</time>
      </trkpt>
      <trkpt lat="41.88217" lon="0.23808117">
        <time>2022-07-07T07:30:51Z</time>
      </trkpt>
      <trkpt lat="41.88213" lon="0.23815084">
        <time>2022-07-07T07:30:52Z</time>
      </trkpt>
      <trkpt lat="41.882088" lon="0.23821983">
        <time>2022-07-07T07:30:53Z</time>
      </trkpt>
      <trkpt lat="41.882046" lon="0.23829049">
        <time>2022-07-07T07:30:54Z</time>
      </trkpt>
      <trkpt lat="41.882004" lon="0.23836683">
        <time>2022-07-07T07:30:55Z</time>
      </trkpt>
      <trkpt lat="41.881958" lon="0.23844448">
        <time>2022-07-07T07:30:56Z</time>
      </trkpt>
      <trkpt lat="41.881912" lon="0.23852713">
        <time>2022-07-07T07:30:57Z</time>
      </trkpt>
      <trkpt lat="41.88187" lon="0.23860113">
        <time>2022-07-07T07:30:58Z</time>
      </trkpt>
      <trkpt lat="41.88182" lon="0.23867448">
        <time>2022-07-07T07:30:59Z</time>
      </trkpt>
      <trkpt lat="41.881775" lon="0.2387528">
        <time>2022-07-07T07:31:00Z</time>
      </trkpt>
      <trkpt lat="41.881725" lon="0.23883113">
        <time>2022-07-07T07:31:01Z</time>
      </trkpt>
      <trkpt lat="41.88168" lon="0.23890279">
        <time>2022-07-07T07:31:02Z</time>
      </trkpt>
      <trkpt lat="41.881634" lon="0.23897612">
        <time>2022-07-07T07:31:03Z</time>
      </trkpt>
      <trkpt lat="41.881584" lon="0.23905613">
        <time>2022-07-07T07:31:04Z</time>
      </trkpt>
      <trkpt lat="41.88154" lon="0.23913378">
        <time>2022-07-07T07:31:05Z</time>
      </trkpt>
      <trkpt lat="41.88149" lon="0.23920979">
        <time>2022-07-07T07:31:06Z</time>
      </trkpt>
      <trkpt lat="41.881443" lon="0.23927978">
        <time>2022-07-07T07:31:07Z</time>
      </trkpt>
      <trkpt lat="41.881397" lon="0.23935512">
        <time>2022-07-07T07:31:08Z</time>
      </trkpt>
      <trkpt lat="41.881348" lon="0.23942944">
        <time>2022-07-07T07:31:09Z</time>
      </trkpt>
      <trkpt lat="41.8813" lon="0.23950177">
        <time>2022-07-07T07:31:10Z</time>
      </trkpt>
      <trkpt lat="41.88126" lon="0.2395721">
        <time>2022-07-07T07:31:11Z</time>
      </trkpt>
      <trkpt lat="41.881214" lon="0.23964143">
        <time>2022-07-07T07:31:12Z</time>
      </trkpt>
      <trkpt lat="41.881172" lon="0.23970476">
        <time>2022-07-07T07:31:13Z</time>
      </trkpt>
      <trkpt lat="41.881134" lon="0.23976842">
        <time>2022-07-07T07:31:14Z</time>
      </trkpt>
      <trkpt lat="41.88109" lon="0.23983543">
        <time>2022-07-07T07:31:15Z</time>
      </trkpt>
      <trkpt lat="41.881046" lon="0.23990075">
        <time>2022-07-07T07:31:16Z</time>
      </trkpt>
      <trkpt lat="41.881004" lon="0.23996408">
        <time>2022-07-07T07:31:17Z</time>
      </trkpt>
      <trkpt lat="41.880966" lon="0.24002208">
        <time>2022-07-07T07:31:18Z</time>
      </trkpt>
      <trkpt lat="41.880928" lon="0.24008374">
        <time>2022-07-07T07:31:19Z</time>
      </trkpt>
      <trkpt lat="41.880886" lon="0.2401444">
        <time>2022-07-07T07:31:20Z</time>
      </trkpt>
      <trkpt lat="41.880844" lon="0.24020407">
        <time>2022-07-07T07:31:21Z</time>
      </trkpt>
      <trkpt lat="41.880806" lon="0.24026272">
        <time>2022-07-07T07:31:22Z</time>
      </trkpt>
      <trkpt lat="41.880768" lon="0.24031971">
        <time>2022-07-07T07:31:23Z</time>
      </trkpt>
      <trkpt lat="41.88073" lon="0.24037237">
        <time>2022-07-07T07:31:24Z</time>
      </trkpt>
      <trkpt lat="41.88065" lon="0.24048638">
        <time>2022-07-07T07:31:26Z</time>
      </trkpt>
      <trkpt lat="41.880608" lon="0.24054204">
        <time>2022-07-07T07:31:27Z</time>
      </trkpt>
      <trkpt lat="41.88057" lon="0.24059704">
        <time>2022-07-07T07:31:28Z</time>
      </trkpt>
      <trkpt lat="41.88053" lon="0.2406517">
        <time>2022-07-07T07:31:29Z</time>
      </trkpt>
      <trkpt lat="41.880493" lon="0.2407047">
        <time>2022-07-07T07:31:30Z</time>
      </trkpt>
      <trkpt lat="41.880455" lon="0.2407577">
        <time>2022-07-07T07:31:31Z</time>
      </trkpt>
      <trkpt lat="41.880413" lon="0.24081104">
        <time>2022-07-07T07:31:32Z</time>
      </trkpt>
      <trkpt lat="41.880375" lon="0.2408647">
        <time>2022-07-07T07:31:33Z</time>
      </trkpt>
      <trkpt lat="41.880337" lon="0.24091835">
        <time>2022-07-07T07:31:34Z</time>
      </trkpt>
      <trkpt lat="41.880302" lon="0.240968">
        <time>2022-07-07T07:31:35Z</time>
      </trkpt>
      <trkpt lat="41.88027" lon="0.24101901">
        <time>2022-07-07T07:31:36Z</time>
      </trkpt>
      <trkpt lat="41.88023" lon="0.24107002">
        <time>2022-07-07T07:31:37Z</time>
      </trkpt>
      <trkpt lat="41.88019" lon="0.241122">
        <time>2022-07-07T07:31:38Z</time>
      </trkpt>
      <trkpt lat="41.880154" lon="0.24117734">
        <time>2022-07-07T07:31:39Z</time>
      </trkpt>
      <trkpt lat="41.88012" lon="0.241228">
        <time>2022-07-07T07:31:40Z</time>
      </trkpt>
      <trkpt lat="41.88008" lon="0.24127933">
        <time>2022-07-07T07:31:41Z</time>
      </trkpt>
      <trkpt lat="41.880043" lon="0.24133132">
        <time>2022-07-07T07:31:42Z</time>
      </trkpt>
      <trkpt lat="41.880005" lon="0.24138299">
        <time>2022-07-07T07:31:43Z</time>
      </trkpt>
      <trkpt lat="41.87997" lon="0.24143365">
        <time>2022-07-07T07:31:44Z</time>
      </trkpt>
      <trkpt lat="41.879932" lon="0.24148399">
        <time>2022-07-07T07:31:45Z</time>
      </trkpt>
      <trkpt lat="41.879864" lon="0.2415823">
        <time>2022-07-07T07:31:47Z</time>
      </trkpt>
      <trkpt lat="41.87983" lon="0.24162997">
        <time>2022-07-07T07:31:48Z</time>
      </trkpt>
      <trkpt lat="41.879765" lon="0.2417263">
        <time>2022-07-07T07:31:50Z</time>
      </trkpt>
      <trkpt lat="41.879696" lon="0.24182363">
        <time>2022-07-07T07:31:52Z</time>
      </trkpt>
      <trkpt lat="41.87966" lon="0.24187095">
        <time>2022-07-07T07:31:53Z</time>
      </trkpt>
      <trkpt lat="41.879593" lon="0.24196497">
        <time>2022-07-07T07:31:55Z</time>
      </trkpt>
      <trkpt lat="41.879524" lon="0.24205862">
        <time>2022-07-07T07:31:57Z</time>
      </trkpt>
      <trkpt lat="41.87946" lon="0.24215461">
        <time>2022-07-07T07:31:59Z</time>
      </trkpt>
      <trkpt lat="41.87939" lon="0.24224928">
        <time>2022-07-07T07:32:01Z</time>
      </trkpt>
      <trkpt lat="41.879326" lon="0.24234094">
        <time>2022-07-07T07:32:03Z</time>
      </trkpt>
      <trkpt lat="41.879265" lon="0.2424316">
        <time>2022-07-07T07:32:05Z</time>
      </trkpt>
      <trkpt lat="41.879204" lon="0.24251893">
        <time>2022-07-07T07:32:07Z</time>
      </trkpt>
      <trkpt lat="41.879143" lon="0.24260525">
        <time>2022-07-07T07:32:09Z</time>
      </trkpt>
      <trkpt lat="41.879086" lon="0.24268892">
        <time>2022-07-07T07:32:11Z</time>
      </trkpt>
      <trkpt lat="41.87903" lon="0.24277058">
        <time>2022-07-07T07:32:13Z</time>
      </trkpt>
      <trkpt lat="41.87897" lon="0.24285091">
        <time>2022-07-07T07:32:15Z</time>
      </trkpt>
      <trkpt lat="41.878918" lon="0.2429289">
        <time>2022-07-07T07:32:17Z</time>
      </trkpt>
      <trkpt lat="41.87886" lon="0.24300791">
        <time>2022-07-07T07:32:19Z</time>
      </trkpt>
      <trkpt lat="41.878807" lon="0.2430859">
        <time>2022-07-07T07:32:21Z</time>
      </trkpt>
      <trkpt lat="41.878754" lon="0.24316224">
        <time>2022-07-07T07:32:23Z</time>
      </trkpt>
      <trkpt lat="41.8787" lon="0.24323624">
        <time>2022-07-07T07:32:25Z</time>
      </trkpt>
      <trkpt lat="41.878647" lon="0.24331157">
        <time>2022-07-07T07:32:27Z</time>
      </trkpt>
      <trkpt lat="41.878597" lon="0.2433819">
        <time>2022-07-07T07:32:29Z</time>
      </trkpt>
      <trkpt lat="41.878548" lon="0.2434509">
        <time>2022-07-07T07:32:31Z</time>
      </trkpt>
      <trkpt lat="41.878498" lon="0.2435189">
        <time>2022-07-07T07:32:33Z</time>
      </trkpt>
      <trkpt lat="41.87845" lon="0.2435819">
        <time>2022-07-07T07:32:35Z</time>
      </trkpt>
      <trkpt lat="41.878403" lon="0.24364123">
        <time>2022-07-07T07:32:37Z</time>
      </trkpt>
      <trkpt lat="41.878357" lon="0.24370523">
        <time>2022-07-07T07:32:39Z</time>
      </trkpt>
      <trkpt lat="41.878315" lon="0.24376556">
        <time>2022-07-07T07:32:41Z</time>
      </trkpt>
      <trkpt lat="41.87827" lon="0.24382655">
        <time>2022-07-07T07:32:43Z</time>
      </trkpt>
      <trkpt lat="41.878227" lon="0.24388656">
        <time>2022-07-07T07:32:45Z</time>
      </trkpt>
      <trkpt lat="41.87818" lon="0.24394555">
        <time>2022-07-07T07:32:47Z</time>
      </trkpt>
      <trkpt lat="41.878136" lon="0.24400656">
        <time>2022-07-07T07:32:49Z</time>
      </trkpt>
      <trkpt lat="41.878094" lon="0.24406657">
        <time>2022-07-07T07:32:51Z</time>
      </trkpt>
      <trkpt lat="41.87805" lon="0.24412389">
        <time>2022-07-07T07:32:53Z</time>
      </trkpt>
      <trkpt lat="41.878014" lon="0.24418022">
        <time>2022-07-07T07:32:55Z</time>
      </trkpt>
      <trkpt lat="41.877975" lon="0.24423689">
        <time>2022-07-07T07:32:57Z</time>
      </trkpt>
      <trkpt lat="41.877937" lon="0.24429388">
        <time>2022-07-07T07:32:59Z</time>
      </trkpt>
      <trkpt lat="41.8779" lon="0.24434921">
        <time>2022-07-07T07:33:01Z</time>
      </trkpt>
      <trkpt lat="41.877857" lon="0.24440354">
        <time>2022-07-07T07:33:03Z</time>
      </trkpt>
      <trkpt lat="41.877815" lon="0.2444612">
        <time>2022-07-07T07:33:05Z</time>
      </trkpt>
      <trkpt lat="41.877773" lon="0.24451886">
        <time>2022-07-07T07:33:07Z</time>
      </trkpt>
      <trkpt lat="41.87773" lon="0.24457718">
        <time>2022-07-07T07:33:09Z</time>
      </trkpt>
      <trkpt lat="41.87769" lon="0.2446342">
        <time>2022-07-07T07:33:11Z</time>
      </trkpt>
      <trkpt lat="41.877647" lon="0.24468952">
        <time>2022-07-07T07:33:13Z</time>
      </trkpt>
      <trkpt lat="41.877605" lon="0.24474518">
        <time>2022-07-07T07:33:15Z</time>
      </trkpt>
      <trkpt lat="41.877567" lon="0.2448025">
        <time>2022-07-07T07:33:17Z</time>
      </trkpt>
      <trkpt lat="41.877525" lon="0.24486084">
        <time>2022-07-07T07:33:19Z</time>
      </trkpt>
      <trkpt lat="41.877483" lon="0.24492016">
        <time>2022-07-07T07:33:21Z</time>
      </trkpt>
      <trkpt lat="41.87744" lon="0.2449795">
        <time>2022-07-07T07:33:23Z</time>
      </trkpt>
      <trkpt lat="41.877396" lon="0.24503782">
        <time>2022-07-07T07:33:25Z</time>
      </trkpt>
      <trkpt lat="41.877354" lon="0.2450945">
        <time>2022-07-07T07:33:27Z</time>
      </trkpt>
      <trkpt lat="41.877293" lon="0.24518383">
        <time>2022-07-07T07:33:30Z</time>
      </trkpt>
      <trkpt lat="41.87725" lon="0.24524581">
        <time>2022-07-07T07:33:32Z</time>
      </trkpt>
      <trkpt lat="41.877205" lon="0.24530782">
        <time>2022-07-07T07:33:34Z</time>
      </trkpt>
      <trkpt lat="41.877167" lon="0.24536915">
        <time>2022-07-07T07:33:36Z</time>
      </trkpt>
      <trkpt lat="41.877125" lon="0.24542814">
        <time>2022-07-07T07:33:38Z</time>
      </trkpt>
      <trkpt lat="41.877083" lon="0.24548115">
        <time>2022-07-07T07:33:40Z</time>
      </trkpt>
      <trkpt lat="41.877045" lon="0.24553381">
        <time>2022-07-07T07:33:42Z</time>
      </trkpt>
      <trkpt lat="41.877007" lon="0.24558581">
        <time>2022-07-07T07:33:44Z</time>
      </trkpt>
      <trkpt lat="41.87697" lon="0.24564281">
        <time>2022-07-07T07:33:46Z</time>
      </trkpt>
      <trkpt lat="41.87693" lon="0.24569547">
        <time>2022-07-07T07:33:48Z</time>
      </trkpt>
      <trkpt lat="41.876892" lon="0.24574614">
        <time>2022-07-07T07:33:50Z</time>
      </trkpt>
      <trkpt lat="41.876858" lon="0.24579579">
        <time>2022-07-07T07:33:52Z</time>
      </trkpt>
      <trkpt lat="41.876823" lon="0.24584645">
        <time>2022-07-07T07:33:54Z</time>
      </trkpt>
      <trkpt lat="41.87677" lon="0.24592312">
        <time>2022-07-07T07:33:57Z</time>
      </trkpt>
      <trkpt lat="41.87673" lon="0.24597576">
        <time>2022-07-07T07:33:59Z</time>
      </trkpt>
      <trkpt lat="41.876698" lon="0.2460301">
        <time>2022-07-07T07:34:01Z</time>
      </trkpt>
      <trkpt lat="41.876663" lon="0.2460831">
        <time>2022-07-07T07:34:03Z</time>
      </trkpt>
      <trkpt lat="41.87663" lon="0.24613643">
        <time>2022-07-07T07:34:05Z</time>
      </trkpt>
      <trkpt lat="41.876595" lon="0.24618943">
        <time>2022-07-07T07:34:07Z</time>
      </trkpt>
      <trkpt lat="41.876537" lon="0.24626943">
        <time>2022-07-07T07:34:10Z</time>
      </trkpt>
      <trkpt lat="41.876503" lon="0.24631976">
        <time>2022-07-07T07:34:12Z</time>
      </trkpt>
      <trkpt lat="41.87647" lon="0.24636942">
        <time>2022-07-07T07:34:14Z</time>
      </trkpt>
      <trkpt lat="41.876434" lon="0.24642175">
        <time>2022-07-07T07:34:16Z</time>
      </trkpt>
      <trkpt lat="41.876396" lon="0.24647675">
        <time>2022-07-07T07:34:18Z</time>
      </trkpt>
      <trkpt lat="41.876358" lon="0.24652842">
        <time>2022-07-07T07:34:20Z</time>
      </trkpt>
      <trkpt lat="41.876324" lon="0.24657807">
        <time>2022-07-07T07:34:22Z</time>
      </trkpt>
      <trkpt lat="41.876266" lon="0.24665007">
        <time>2022-07-07T07:34:25Z</time>
      </trkpt>
      <trkpt lat="41.876232" lon="0.24670006">
        <time>2022-07-07T07:34:27Z</time>
      </trkpt>
      <trkpt lat="41.876198" lon="0.2467504">
        <time>2022-07-07T07:34:29Z</time>
      </trkpt>
      <trkpt lat="41.87616" lon="0.24680406">
        <time>2022-07-07T07:34:31Z</time>
      </trkpt>
      <trkpt lat="41.87612" lon="0.24685806">
        <time>2022-07-07T07:34:33Z</time>
      </trkpt>
      <trkpt lat="41.876087" lon="0.24690972">
        <time>2022-07-07T07:34:35Z</time>
      </trkpt>
      <trkpt lat="41.87603" lon="0.24698637">
        <time>2022-07-07T07:34:38Z</time>
      </trkpt>
      <trkpt lat="41.875996" lon="0.24703738">
        <time>2022-07-07T07:34:40Z</time>
      </trkpt>
      <trkpt lat="41.875957" lon="0.24708872">
        <time>2022-07-07T07:34:42Z</time>
      </trkpt>
      <trkpt lat="41.875923" lon="0.24714103">
        <time>2022-07-07T07:34:44Z</time>
      </trkpt>
      <trkpt lat="41.875885" lon="0.24719404">
        <time>2022-07-07T07:34:46Z</time>
      </trkpt>
      <trkpt lat="41.87585" lon="0.24724637">
        <time>2022-07-07T07:34:48Z</time>
      </trkpt>
      <trkpt lat="41.875816" lon="0.24729536">
        <time>2022-07-07T07:34:50Z</time>
      </trkpt>
      <trkpt lat="41.87576" lon="0.24737203">
        <time>2022-07-07T07:34:53Z</time>
      </trkpt>
      <trkpt lat="41.875725" lon="0.24742135">
        <time>2022-07-07T07:34:55Z</time>
      </trkpt>
      <trkpt lat="41.875687" lon="0.24747236">
        <time>2022-07-07T07:34:57Z</time>
      </trkpt>
      <trkpt lat="41.875652" lon="0.24752101">
        <time>2022-07-07T07:34:59Z</time>
      </trkpt>
      <trkpt lat="41.875595" lon="0.24759702">
        <time>2022-07-07T07:35:02Z</time>
      </trkpt>
      <trkpt lat="41.875557" lon="0.24765068">
        <time>2022-07-07T07:35:04Z</time>
      </trkpt>
      <trkpt lat="41.87552" lon="0.24770734">
        <time>2022-07-07T07:35:06Z</time>
      </trkpt>
      <trkpt lat="41.875484" lon="0.24775934">
        <time>2022-07-07T07:35:08Z</time>
      </trkpt>
      <trkpt lat="41.875443" lon="0.247815">
        <time>2022-07-07T07:35:10Z</time>
      </trkpt>
      <trkpt lat="41.875404" lon="0.24786733">
        <time>2022-07-07T07:35:12Z</time>
      </trkpt>
      <trkpt lat="41.875362" lon="0.24791999">
        <time>2022-07-07T07:35:14Z</time>
      </trkpt>
      <trkpt lat="41.875328" lon="0.247973">
        <time>2022-07-07T07:35:16Z</time>
      </trkpt>
      <trkpt lat="41.875286" lon="0.248028">
        <time>2022-07-07T07:35:18Z</time>
      </trkpt>
      <trkpt lat="41.87525" lon="0.24807732">
        <time>2022-07-07T07:35:20Z</time>
      </trkpt>
      <trkpt lat="41.875195" lon="0.24814965">
        <time>2022-07-07T07:35:23Z</time>
      </trkpt>
      <trkpt lat="41.875156" lon="0.24819832">
        <time>2022-07-07T07:35:25Z</time>
      </trkpt>
      <trkpt lat="41.87512" lon="0.24824597">
        <time>2022-07-07T07:35:27Z</time>
      </trkpt>
      <trkpt lat="41.87508" lon="0.24829663">
        <time>2022-07-07T07:35:29Z</time>
      </trkpt>
      <trkpt lat="41.875046" lon="0.2483473">
        <time>2022-07-07T07:35:31Z</time>
      </trkpt>
      <trkpt lat="41.874992" lon="0.24842262">
        <time>2022-07-07T07:35:34Z</time>
      </trkpt>
      <trkpt lat="41.874958" lon="0.24847028">
        <time>2022-07-07T07:35:36Z</time>
      </trkpt>
      <trkpt lat="41.874916" lon="0.24851727">
        <time>2022-07-07T07:35:38Z</time>
      </trkpt>
      <trkpt lat="41.874863" lon="0.24858361">
        <time>2022-07-07T07:35:41Z</time>
      </trkpt>
      <trkpt lat="41.874825" lon="0.24862628">
        <time>2022-07-07T07:35:43Z</time>
      </trkpt>
      <trkpt lat="41.87476" lon="0.24868727">
        <time>2022-07-07T07:35:46Z</time>
      </trkpt>
      <trkpt lat="41.874714" lon="0.24871927">
        <time>2022-07-07T07:35:48Z</time>
      </trkpt>
      <trkpt lat="41.87467" lon="0.24874993">
        <time>2022-07-07T07:35:50Z</time>
      </trkpt>
      <trkpt lat="41.874603" lon="0.24879792">
        <time>2022-07-07T07:35:53Z</time>
      </trkpt>
      <trkpt lat="41.87454" lon="0.24883959">
        <time>2022-07-07T07:35:56Z</time>
      </trkpt>
      <trkpt lat="41.87448" lon="0.24887125">
        <time>2022-07-07T07:35:59Z</time>
      </trkpt>
      <trkpt lat="41.87442" lon="0.24889891">
        <time>2022-07-07T07:36:02Z</time>
      </trkpt>
      <trkpt lat="41.87436" lon="0.24892125">
        <time>2022-07-07T07:36:05Z</time>
      </trkpt>
      <trkpt lat="41.874294" lon="0.24894157">
        <time>2022-07-07T07:36:08Z</time>
      </trkpt>
      <trkpt lat="41.874233" lon="0.2489529">
        <time>2022-07-07T07:36:11Z</time>
      </trkpt>
      <trkpt lat="41.874172" lon="0.24895656">
        <time>2022-07-07T07:36:14Z</time>
      </trkpt>
      <trkpt lat="41.874107" lon="0.24895988">
        <time>2022-07-07T07:36:17Z</time>
      </trkpt>
      <trkpt lat="41.874035" lon="0.24896355">
        <time>2022-07-07T07:36:21Z</time>
      </trkpt>
      <trkpt lat="41.87398" lon="0.24896687">
        <time>2022-07-07T07:36:23Z</time>
      </trkpt>
      <trkpt lat="41.873913" lon="0.24897154">
        <time>2022-07-07T07:36:26Z</time>
      </trkpt>
      <trkpt lat="41.873844" lon="0.24897121">
        <time>2022-07-07T07:36:29Z</time>
      </trkpt>
      <trkpt lat="41.873775" lon="0.24897021">
        <time>2022-07-07T07:36:32Z</time>
      </trkpt>
      <trkpt lat="41.873707" lon="0.24896921">
        <time>2022-07-07T07:36:35Z</time>
      </trkpt>
      <trkpt lat="41.873642" lon="0.24896821">
        <time>2022-07-07T07:36:38Z</time>
      </trkpt>
      <trkpt lat="41.873573" lon="0.24896954">
        <time>2022-07-07T07:36:41Z</time>
      </trkpt>
      <trkpt lat="41.873505" lon="0.2489702">
        <time>2022-07-07T07:36:44Z</time>
      </trkpt>
      <trkpt lat="41.87343" lon="0.2489682">
        <time>2022-07-07T07:36:47Z</time>
      </trkpt>
      <trkpt lat="41.873375" lon="0.24897286">
        <time>2022-07-07T07:36:49Z</time>
      </trkpt>
      <trkpt lat="41.873318" lon="0.24897651">
        <time>2022-07-07T07:36:51Z</time>
      </trkpt>
      <trkpt lat="41.87326" lon="0.24898385">
        <time>2022-07-07T07:36:53Z</time>
      </trkpt>
      <trkpt lat="41.873196" lon="0.24899785">
        <time>2022-07-07T07:36:55Z</time>
      </trkpt>
      <trkpt lat="41.873135" lon="0.24901685">
        <time>2022-07-07T07:36:57Z</time>
      </trkpt>
      <trkpt lat="41.87307" lon="0.24903984">
        <time>2022-07-07T07:36:59Z</time>
      </trkpt>
      <trkpt lat="41.873005" lon="0.24907051">
        <time>2022-07-07T07:37:01Z</time>
      </trkpt>
      <trkpt lat="41.87294" lon="0.2491095">
        <time>2022-07-07T07:37:03Z</time>
      </trkpt>
      <trkpt lat="41.872875" lon="0.24915917">
        <time>2022-07-07T07:37:05Z</time>
      </trkpt>
      <trkpt lat="41.87281" lon="0.24921884">
        <time>2022-07-07T07:37:07Z</time>
      </trkpt>
      <trkpt lat="41.87275" lon="0.24928416">
        <time>2022-07-07T07:37:09Z</time>
      </trkpt>
      <trkpt lat="41.872692" lon="0.24935782">
        <time>2022-07-07T07:37:11Z</time>
      </trkpt>
      <trkpt lat="41.872643" lon="0.24943848">
        <time>2022-07-07T07:37:13Z</time>
      </trkpt>
      <trkpt lat="41.872597" lon="0.24952881">
        <time>2022-07-07T07:37:15Z</time>
      </trkpt>
      <trkpt lat="41.872555" lon="0.24963081">
        <time>2022-07-07T07:37:17Z</time>
      </trkpt>
      <trkpt lat="41.87252" lon="0.24973847">
        <time>2022-07-07T07:37:19Z</time>
      </trkpt>
      <trkpt lat="41.872494" lon="0.24984847">
        <time>2022-07-07T07:37:21Z</time>
      </trkpt>
      <trkpt lat="41.872467" lon="0.2499668">
        <time>2022-07-07T07:37:23Z</time>
      </trkpt>
      <trkpt lat="41.872444" lon="0.25008714">
        <time>2022-07-07T07:37:25Z</time>
      </trkpt>
      <trkpt lat="41.872433" lon="0.25015414">
        <time>2022-07-07T07:37:26Z</time>
      </trkpt>
      <trkpt lat="41.872406" lon="0.25027612">
        <time>2022-07-07T07:37:28Z</time>
      </trkpt>
      <trkpt lat="41.872383" lon="0.2503968">
        <time>2022-07-07T07:37:30Z</time>
      </trkpt>
      <trkpt lat="41.872364" lon="0.25052178">
        <time>2022-07-07T07:37:32Z</time>
      </trkpt>
      <trkpt lat="41.872353" lon="0.2505871">
        <time>2022-07-07T07:37:33Z</time>
      </trkpt>
      <trkpt lat="41.87233" lon="0.25071144">
        <time>2022-07-07T07:37:35Z</time>
      </trkpt>
      <trkpt lat="41.872307" lon="0.25084212">
        <time>2022-07-07T07:37:37Z</time>
      </trkpt>
      <trkpt lat="41.87229" lon="0.25091043">
        <time>2022-07-07T07:37:38Z</time>
      </trkpt>
      <trkpt lat="41.872276" lon="0.2509791">
        <time>2022-07-07T07:37:39Z</time>
      </trkpt>
      <trkpt lat="41.872257" lon="0.25104743">
        <time>2022-07-07T07:37:40Z</time>
      </trkpt>
      <trkpt lat="41.872234" lon="0.25111577">
        <time>2022-07-07T07:37:41Z</time>
      </trkpt>
      <trkpt lat="41.87221" lon="0.25118408">
        <time>2022-07-07T07:37:42Z</time>
      </trkpt>
      <trkpt lat="41.87219" lon="0.25125042">
        <time>2022-07-07T07:37:43Z</time>
      </trkpt>
      <trkpt lat="41.87216" lon="0.25131375">
        <time>2022-07-07T07:37:44Z</time>
      </trkpt>
      <trkpt lat="41.872135" lon="0.25137508">
        <time>2022-07-07T07:37:45Z</time>
      </trkpt>
      <trkpt lat="41.872078" lon="0.25148273">
        <time>2022-07-07T07:37:47Z</time>
      </trkpt>
      <trkpt lat="41.872017" lon="0.25158373">
        <time>2022-07-07T07:37:49Z</time>
      </trkpt>
      <trkpt lat="41.87196" lon="0.25167507">
        <time>2022-07-07T07:37:51Z</time>
      </trkpt>
      <trkpt lat="41.871902" lon="0.25176272">
        <time>2022-07-07T07:37:53Z</time>
      </trkpt>
      <trkpt lat="41.871845" lon="0.25185272">
        <time>2022-07-07T07:37:55Z</time>
      </trkpt>
      <trkpt lat="41.871788" lon="0.25194007">
        <time>2022-07-07T07:37:57Z</time>
      </trkpt>
      <trkpt lat="41.87173" lon="0.25202906">
        <time>2022-07-07T07:37:59Z</time>
      </trkpt>
      <trkpt lat="41.871677" lon="0.2521194">
        <time>2022-07-07T07:38:01Z</time>
      </trkpt>
      <trkpt lat="41.87162" lon="0.25220904">
        <time>2022-07-07T07:38:03Z</time>
      </trkpt>
      <trkpt lat="41.871563" lon="0.2523034">
        <time>2022-07-07T07:38:05Z</time>
      </trkpt>
      <trkpt lat="41.871506" lon="0.25240037">
        <time>2022-07-07T07:38:07Z</time>
      </trkpt>
      <trkpt lat="41.87148" lon="0.25244904">
        <time>2022-07-07T07:38:08Z</time>
      </trkpt>
      <trkpt lat="41.871418" lon="0.25254837">
        <time>2022-07-07T07:38:10Z</time>
      </trkpt>
      <trkpt lat="41.87136" lon="0.25265038">
        <time>2022-07-07T07:38:12Z</time>
      </trkpt>
      <trkpt lat="41.871334" lon="0.25270203">
        <time>2022-07-07T07:38:13Z</time>
      </trkpt>
      <trkpt lat="41.87128" lon="0.25280902">
        <time>2022-07-07T07:38:15Z</time>
      </trkpt>
      <trkpt lat="41.87125" lon="0.2528627">
        <time>2022-07-07T07:38:16Z</time>
      </trkpt>
      <trkpt lat="41.871197" lon="0.252968">
        <time>2022-07-07T07:38:18Z</time>
      </trkpt>
      <trkpt lat="41.87114" lon="0.25307235">
        <time>2022-07-07T07:38:20Z</time>
      </trkpt>
      <trkpt lat="41.87111" lon="0.25312436">
        <time>2022-07-07T07:38:21Z</time>
      </trkpt>
      <trkpt lat="41.87105" lon="0.2532307">
        <time>2022-07-07T07:38:23Z</time>
      </trkpt>
      <trkpt lat="41.871" lon="0.25333834">
        <time>2022-07-07T07:38:25Z</time>
      </trkpt>
      <trkpt lat="41.870968" lon="0.25339434">
        <time>2022-07-07T07:38:26Z</time>
      </trkpt>
      <trkpt lat="41.870907" lon="0.253507">
        <time>2022-07-07T07:38:28Z</time>
      </trkpt>
      <trkpt lat="41.87088" lon="0.25356">
        <time>2022-07-07T07:38:29Z</time>
      </trkpt>
      <trkpt lat="41.87081" lon="0.253676">
        <time>2022-07-07T07:38:31Z</time>
      </trkpt>
      <trkpt lat="41.870777" lon="0.253737">
        <time>2022-07-07T07:38:32Z</time>
      </trkpt>
      <trkpt lat="41.870743" lon="0.253799">
        <time>2022-07-07T07:38:33Z</time>
      </trkpt>
      <trkpt lat="41.870712" lon="0.25385767">
        <time>2022-07-07T07:38:34Z</time>
      </trkpt>
      <trkpt lat="41.870678" lon="0.25391966">
        <time>2022-07-07T07:38:35Z</time>
      </trkpt>
      <trkpt lat="41.87064" lon="0.25398967">
        <time>2022-07-07T07:38:36Z</time>
      </trkpt>
      <trkpt lat="41.8706" lon="0.25406033">
        <time>2022-07-07T07:38:37Z</time>
      </trkpt>
      <trkpt lat="41.870564" lon="0.2541333">
        <time>2022-07-07T07:38:38Z</time>
      </trkpt>
      <trkpt lat="41.870525" lon="0.2542073">
        <time>2022-07-07T07:38:39Z</time>
      </trkpt>
      <trkpt lat="41.870483" lon="0.2542813">
        <time>2022-07-07T07:38:40Z</time>
      </trkpt>
      <trkpt lat="41.87044" lon="0.25435433">
        <time>2022-07-07T07:38:41Z</time>
      </trkpt>
      <trkpt lat="41.870277" lon="0.25464264">
        <time>2022-07-07T07:38:43Z</time>
      </trkpt>
      <trkpt lat="41.87027" lon="0.25466132">
        <time>2022-07-07T07:38:44Z</time>
      </trkpt>
      <trkpt lat="41.870216" lon="0.25475463">
        <time>2022-07-07T07:38:46Z</time>
      </trkpt>
      <trkpt lat="41.870182" lon="0.25481996">
        <time>2022-07-07T07:38:47Z</time>
      </trkpt>
      <trkpt lat="41.87014" lon="0.2548933">
        <time>2022-07-07T07:38:48Z</time>
      </trkpt>
      <trkpt lat="41.870094" lon="0.25497162">
        <time>2022-07-07T07:38:49Z</time>
      </trkpt>
      <trkpt lat="41.870007" lon="0.2551353">
        <time>2022-07-07T07:38:51Z</time>
      </trkpt>
      <trkpt lat="41.869957" lon="0.25521895">
        <time>2022-07-07T07:38:52Z</time>
      </trkpt>
      <trkpt lat="41.869907" lon="0.2553086">
        <time>2022-07-07T07:38:53Z</time>
      </trkpt>
      <trkpt lat="41.86986" lon="0.25539726">
        <time>2022-07-07T07:38:54Z</time>
      </trkpt>
      <trkpt lat="41.869812" lon="0.25548694">
        <time>2022-07-07T07:38:55Z</time>
      </trkpt>
      <trkpt lat="41.86977" lon="0.25557125">
        <time>2022-07-07T07:38:56Z</time>
      </trkpt>
      <trkpt lat="41.86972" lon="0.25566226">
        <time>2022-07-07T07:38:57Z</time>
      </trkpt>
      <trkpt lat="41.86967" lon="0.2557499">
        <time>2022-07-07T07:38:58Z</time>
      </trkpt>
      <trkpt lat="41.86963" lon="0.2558306">
        <time>2022-07-07T07:38:59Z</time>
      </trkpt>
      <trkpt lat="41.869583" lon="0.25591692">
        <time>2022-07-07T07:39:00Z</time>
      </trkpt>
      <trkpt lat="41.869537" lon="0.25600025">
        <time>2022-07-07T07:39:01Z</time>
      </trkpt>
      <trkpt lat="41.869495" lon="0.25607625">
        <time>2022-07-07T07:39:02Z</time>
      </trkpt>
      <trkpt lat="41.869453" lon="0.2561569">
        <time>2022-07-07T07:39:03Z</time>
      </trkpt>
      <trkpt lat="41.869408" lon="0.25623623">
        <time>2022-07-07T07:39:04Z</time>
      </trkpt>
      <trkpt lat="41.869366" lon="0.25631323">
        <time>2022-07-07T07:39:05Z</time>
      </trkpt>
      <trkpt lat="41.86932" lon="0.25638956">
        <time>2022-07-07T07:39:06Z</time>
      </trkpt>
      <trkpt lat="41.86928" lon="0.25646323">
        <time>2022-07-07T07:39:07Z</time>
      </trkpt>
      <trkpt lat="41.86924" lon="0.25653487">
        <time>2022-07-07T07:39:08Z</time>
      </trkpt>
      <trkpt lat="41.869198" lon="0.25660753">
        <time>2022-07-07T07:39:09Z</time>
      </trkpt>
      <trkpt lat="41.86916" lon="0.25668055">
        <time>2022-07-07T07:39:10Z</time>
      </trkpt>
      <trkpt lat="41.86912" lon="0.25675288">
        <time>2022-07-07T07:39:11Z</time>
      </trkpt>
      <trkpt lat="41.869087" lon="0.2568232">
        <time>2022-07-07T07:39:12Z</time>
      </trkpt>
      <trkpt lat="41.86905" lon="0.25689286">
        <time>2022-07-07T07:39:13Z</time>
      </trkpt>
      <trkpt lat="41.869015" lon="0.25696152">
        <time>2022-07-07T07:39:14Z</time>
      </trkpt>
      <trkpt lat="41.868977" lon="0.25702953">
        <time>2022-07-07T07:39:15Z</time>
      </trkpt>
      <trkpt lat="41.868946" lon="0.25709185">
        <time>2022-07-07T07:39:16Z</time>
      </trkpt>
      <trkpt lat="41.868916" lon="0.25715518">
        <time>2022-07-07T07:39:17Z</time>
      </trkpt>
      <trkpt lat="41.86888" lon="0.2572205">
        <time>2022-07-07T07:39:18Z</time>
      </trkpt>
      <trkpt lat="41.868843" lon="0.2572905">
        <time>2022-07-07T07:39:19Z</time>
      </trkpt>
      <trkpt lat="41.868805" lon="0.2573595">
        <time>2022-07-07T07:39:20Z</time>
      </trkpt>
      <trkpt lat="41.86877" lon="0.25742716">
        <time>2022-07-07T07:39:21Z</time>
      </trkpt>
      <trkpt lat="41.868732" lon="0.25749382">
        <time>2022-07-07T07:39:22Z</time>
      </trkpt>
      <trkpt lat="41.8687" lon="0.2575605">
        <time>2022-07-07T07:39:23Z</time>
      </trkpt>
      <trkpt lat="41.868664" lon="0.25762716">
        <time>2022-07-07T07:39:24Z</time>
      </trkpt>
      <trkpt lat="41.86863" lon="0.25768915">
        <time>2022-07-07T07:39:25Z</time>
      </trkpt>
      <trkpt lat="41.8686" lon="0.2577515">
        <time>2022-07-07T07:39:26Z</time>
      </trkpt>
      <trkpt lat="41.868565" lon="0.25781515">
        <time>2022-07-07T07:39:27Z</time>
      </trkpt>
      <trkpt lat="41.868526" lon="0.25788015">
        <time>2022-07-07T07:39:28Z</time>
      </trkpt>
      <trkpt lat="41.868492" lon="0.25794715">
        <time>2022-07-07T07:39:29Z</time>
      </trkpt>
      <trkpt lat="41.868454" lon="0.2580138">
        <time>2022-07-07T07:39:30Z</time>
      </trkpt>
      <trkpt lat="41.868416" lon="0.25808045">
        <time>2022-07-07T07:39:31Z</time>
      </trkpt>
      <trkpt lat="41.868378" lon="0.25814778">
        <time>2022-07-07T07:39:32Z</time>
      </trkpt>
      <trkpt lat="41.868343" lon="0.25821644">
        <time>2022-07-07T07:39:33Z</time>
      </trkpt>
      <trkpt lat="41.868305" lon="0.2582851">
        <time>2022-07-07T07:39:34Z</time>
      </trkpt>
      <trkpt lat="41.868267" lon="0.2583541">
        <time>2022-07-07T07:39:35Z</time>
      </trkpt>
      <trkpt lat="41.86823" lon="0.25842345">
        <time>2022-07-07T07:39:36Z</time>
      </trkpt>
      <trkpt lat="41.868187" lon="0.2584981">
        <time>2022-07-07T07:39:37Z</time>
      </trkpt>
      <trkpt lat="41.86815" lon="0.2585671">
        <time>2022-07-07T07:39:38Z</time>
      </trkpt>
      <trkpt lat="41.86811" lon="0.25863776">
        <time>2022-07-07T07:39:39Z</time>
      </trkpt>
      <trkpt lat="41.868073" lon="0.25870842">
        <time>2022-07-07T07:39:40Z</time>
      </trkpt>
      <trkpt lat="41.868034" lon="0.25877976">
        <time>2022-07-07T07:39:41Z</time>
      </trkpt>
      <trkpt lat="41.867996" lon="0.25885108">
        <time>2022-07-07T07:39:42Z</time>
      </trkpt>
      <trkpt lat="41.867958" lon="0.25892207">
        <time>2022-07-07T07:39:43Z</time>
      </trkpt>
      <trkpt lat="41.867916" lon="0.2589931">
        <time>2022-07-07T07:39:44Z</time>
      </trkpt>
      <trkpt lat="41.867878" lon="0.2590644">
        <time>2022-07-07T07:39:45Z</time>
      </trkpt>
      <trkpt lat="41.86784" lon="0.25913575">
        <time>2022-07-07T07:39:46Z</time>
      </trkpt>
      <trkpt lat="41.867798" lon="0.25920773">
        <time>2022-07-07T07:39:47Z</time>
      </trkpt>
      <trkpt lat="41.86776" lon="0.25928107">
        <time>2022-07-07T07:39:48Z</time>
      </trkpt>
      <trkpt lat="41.86772" lon="0.25935408">
        <time>2022-07-07T07:39:49Z</time>
      </trkpt>
      <trkpt lat="41.867683" lon="0.25942707">
        <time>2022-07-07T07:39:50Z</time>
      </trkpt>
      <trkpt lat="41.86764" lon="0.2595004">
        <time>2022-07-07T07:39:51Z</time>
      </trkpt>
      <trkpt lat="41.867603" lon="0.25957373">
        <time>2022-07-07T07:39:52Z</time>
      </trkpt>
      <trkpt lat="41.86756" lon="0.25964773">
        <time>2022-07-07T07:39:53Z</time>
      </trkpt>
      <trkpt lat="41.86752" lon="0.2597214">
        <time>2022-07-07T07:39:54Z</time>
      </trkpt>
      <trkpt lat="41.86743" lon="0.25987706">
        <time>2022-07-07T07:39:56Z</time>
      </trkpt>
      <trkpt lat="41.86739" lon="0.25995204">
        <time>2022-07-07T07:39:57Z</time>
      </trkpt>
      <trkpt lat="41.867344" lon="0.2600347">
        <time>2022-07-07T07:39:58Z</time>
      </trkpt>
      <trkpt lat="41.8673" lon="0.26011738">
        <time>2022-07-07T07:39:59Z</time>
      </trkpt>
      <trkpt lat="41.867256" lon="0.26019537">
        <time>2022-07-07T07:40:00Z</time>
      </trkpt>
      <trkpt lat="41.86721" lon="0.2602807">
        <time>2022-07-07T07:40:01Z</time>
      </trkpt>
      <trkpt lat="41.86716" lon="0.26036537">
        <time>2022-07-07T07:40:02Z</time>
      </trkpt>
      <trkpt lat="41.867115" lon="0.26045">
        <time>2022-07-07T07:40:03Z</time>
      </trkpt>
      <trkpt lat="41.867073" lon="0.26053667">
        <time>2022-07-07T07:40:04Z</time>
      </trkpt>
      <trkpt lat="41.867027" lon="0.2606237">
        <time>2022-07-07T07:40:05Z</time>
      </trkpt>
      <trkpt lat="41.866985" lon="0.26070568">
        <time>2022-07-07T07:40:06Z</time>
      </trkpt>
      <trkpt lat="41.866943" lon="0.260793">
        <time>2022-07-07T07:40:07Z</time>
      </trkpt>
      <trkpt lat="41.866898" lon="0.26087868">
        <time>2022-07-07T07:40:08Z</time>
      </trkpt>
      <trkpt lat="41.86685" lon="0.26096234">
        <time>2022-07-07T07:40:09Z</time>
      </trkpt>
      <trkpt lat="41.86681" lon="0.26104534">
        <time>2022-07-07T07:40:10Z</time>
      </trkpt>
      <trkpt lat="41.866764" lon="0.261129">
        <time>2022-07-07T07:40:11Z</time>
      </trkpt>
      <trkpt lat="41.866726" lon="0.261206">
        <time>2022-07-07T07:40:12Z</time>
      </trkpt>
      <trkpt lat="41.866684" lon="0.26128298">
        <time>2022-07-07T07:40:13Z</time>
      </trkpt>
      <trkpt lat="41.86664" lon="0.26135865">
        <time>2022-07-07T07:40:14Z</time>
      </trkpt>
      <trkpt lat="41.866596" lon="0.26143464">
        <time>2022-07-07T07:40:15Z</time>
      </trkpt>
      <trkpt lat="41.866547" lon="0.2615093">
        <time>2022-07-07T07:40:16Z</time>
      </trkpt>
      <trkpt lat="41.8665" lon="0.26158297">
        <time>2022-07-07T07:40:17Z</time>
      </trkpt>
      <trkpt lat="41.86645" lon="0.2616553">
        <time>2022-07-07T07:40:18Z</time>
      </trkpt>
      <trkpt lat="41.866405" lon="0.2617243">
        <time>2022-07-07T07:40:19Z</time>
      </trkpt>
      <trkpt lat="41.866364" lon="0.26179397">
        <time>2022-07-07T07:40:20Z</time>
      </trkpt>
      <trkpt lat="41.866276" lon="0.26193562">
        <time>2022-07-07T07:40:22Z</time>
      </trkpt>
      <trkpt lat="41.86623" lon="0.26200894">
        <time>2022-07-07T07:40:23Z</time>
      </trkpt>
      <trkpt lat="41.866184" lon="0.26208195">
        <time>2022-07-07T07:40:24Z</time>
      </trkpt>
      <trkpt lat="41.86614" lon="0.2621546">
        <time>2022-07-07T07:40:25Z</time>
      </trkpt>
      <trkpt lat="41.866093" lon="0.26222762">
        <time>2022-07-07T07:40:26Z</time>
      </trkpt>
      <trkpt lat="41.866047" lon="0.2622996">
        <time>2022-07-07T07:40:27Z</time>
      </trkpt>
      <trkpt lat="41.866" lon="0.2623716">
        <time>2022-07-07T07:40:28Z</time>
      </trkpt>
      <trkpt lat="41.86596" lon="0.26244327">
        <time>2022-07-07T07:40:29Z</time>
      </trkpt>
      <trkpt lat="41.865917" lon="0.26251328">
        <time>2022-07-07T07:40:30Z</time>
      </trkpt>
      <trkpt lat="41.865875" lon="0.26258126">
        <time>2022-07-07T07:40:31Z</time>
      </trkpt>
      <trkpt lat="41.865837" lon="0.2626476">
        <time>2022-07-07T07:40:32Z</time>
      </trkpt>
      <trkpt lat="41.865795" lon="0.2627126">
        <time>2022-07-07T07:40:33Z</time>
      </trkpt>
      <trkpt lat="41.865757" lon="0.26277694">
        <time>2022-07-07T07:40:34Z</time>
      </trkpt>
      <trkpt lat="41.86572" lon="0.26284027">
        <time>2022-07-07T07:40:35Z</time>
      </trkpt>
      <trkpt lat="41.86568" lon="0.26290426">
        <time>2022-07-07T07:40:36Z</time>
      </trkpt>
      <trkpt lat="41.865646" lon="0.2629679">
        <time>2022-07-07T07:40:37Z</time>
      </trkpt>
      <trkpt lat="41.86561" lon="0.26303157">
        <time>2022-07-07T07:40:38Z</time>
      </trkpt>
      <trkpt lat="41.86557" lon="0.26309523">
        <time>2022-07-07T07:40:39Z</time>
      </trkpt>
      <trkpt lat="41.865532" lon="0.26315925">
        <time>2022-07-07T07:40:40Z</time>
      </trkpt>
      <trkpt lat="41.865498" lon="0.26322424">
        <time>2022-07-07T07:40:41Z</time>
      </trkpt>
      <trkpt lat="41.86546" lon="0.26328957">
        <time>2022-07-07T07:40:42Z</time>
      </trkpt>
      <trkpt lat="41.865425" lon="0.2633549">
        <time>2022-07-07T07:40:43Z</time>
      </trkpt>
      <trkpt lat="41.865387" lon="0.26341957">
        <time>2022-07-07T07:40:44Z</time>
      </trkpt>
      <trkpt lat="41.86535" lon="0.2634849">
        <time>2022-07-07T07:40:45Z</time>
      </trkpt>
      <trkpt lat="41.86531" lon="0.26354954">
        <time>2022-07-07T07:40:46Z</time>
      </trkpt>
      <trkpt lat="41.865273" lon="0.26361755">
        <time>2022-07-07T07:40:47Z</time>
      </trkpt>
      <trkpt lat="41.865234" lon="0.26368022">
        <time>2022-07-07T07:40:48Z</time>
      </trkpt>
      <trkpt lat="41.865196" lon="0.2637442">
        <time>2022-07-07T07:40:49Z</time>
      </trkpt>
      <trkpt lat="41.865158" lon="0.2638092">
        <time>2022-07-07T07:40:50Z</time>
      </trkpt>
      <trkpt lat="41.865116" lon="0.26387522">
        <time>2022-07-07T07:40:51Z</time>
      </trkpt>
      <trkpt lat="41.865074" lon="0.26394555">
        <time>2022-07-07T07:40:52Z</time>
      </trkpt>
      <trkpt lat="41.86503" lon="0.26401553">
        <time>2022-07-07T07:40:53Z</time>
      </trkpt>
      <trkpt lat="41.864983" lon="0.2640842">
        <time>2022-07-07T07:40:54Z</time>
      </trkpt>
      <trkpt lat="41.86494" lon="0.26415354">
        <time>2022-07-07T07:40:55Z</time>
      </trkpt>
      <trkpt lat="41.864853" lon="0.26428652">
        <time>2022-07-07T07:40:57Z</time>
      </trkpt>
      <trkpt lat="41.864807" lon="0.26436052">
        <time>2022-07-07T07:40:58Z</time>
      </trkpt>
      <trkpt lat="41.864765" lon="0.26442885">
        <time>2022-07-07T07:40:59Z</time>
      </trkpt>
      <trkpt lat="41.864723" lon="0.26449853">
        <time>2022-07-07T07:41:00Z</time>
      </trkpt>
      <trkpt lat="41.864677" lon="0.2645692">
        <time>2022-07-07T07:41:01Z</time>
      </trkpt>
      <trkpt lat="41.864635" lon="0.2646405">
        <time>2022-07-07T07:41:02Z</time>
      </trkpt>
      <trkpt lat="41.86459" lon="0.26471317">
        <time>2022-07-07T07:41:03Z</time>
      </trkpt>
      <trkpt lat="41.864544" lon="0.2647865">
        <time>2022-07-07T07:41:04Z</time>
      </trkpt>
      <trkpt lat="41.8645" lon="0.26486117">
        <time>2022-07-07T07:41:05Z</time>
      </trkpt>
      <trkpt lat="41.864452" lon="0.26493582">
        <time>2022-07-07T07:41:06Z</time>
      </trkpt>
      <trkpt lat="41.864403" lon="0.2650115">
        <time>2022-07-07T07:41:07Z</time>
      </trkpt>
      <trkpt lat="41.86435" lon="0.2650925">
        <time>2022-07-07T07:41:08Z</time>
      </trkpt>
      <trkpt lat="41.864304" lon="0.2651685">
        <time>2022-07-07T07:41:09Z</time>
      </trkpt>
      <trkpt lat="41.864254" lon="0.2652448">
        <time>2022-07-07T07:41:10Z</time>
      </trkpt>
      <trkpt lat="41.864204" lon="0.26532215">
        <time>2022-07-07T07:41:11Z</time>
      </trkpt>
      <trkpt lat="41.864155" lon="0.26539847">
        <time>2022-07-07T07:41:12Z</time>
      </trkpt>
      <trkpt lat="41.864105" lon="0.26547447">
        <time>2022-07-07T07:41:13Z</time>
      </trkpt>
      <trkpt lat="41.86406" lon="0.26555014">
        <time>2022-07-07T07:41:14Z</time>
      </trkpt>
      <trkpt lat="41.86401" lon="0.2656258">
        <time>2022-07-07T07:41:15Z</time>
      </trkpt>
      <trkpt lat="41.863964" lon="0.26570046">
        <time>2022-07-07T07:41:16Z</time>
      </trkpt>
      <trkpt lat="41.86392" lon="0.2657751">
        <time>2022-07-07T07:41:17Z</time>
      </trkpt>
      <trkpt lat="41.863873" lon="0.2658491">
        <time>2022-07-07T07:41:18Z</time>
      </trkpt>
      <trkpt lat="41.863827" lon="0.26592144">
        <time>2022-07-07T07:41:19Z</time>
      </trkpt>
      <trkpt lat="41.86378" lon="0.26599345">
        <time>2022-07-07T07:41:20Z</time>
      </trkpt>
      <trkpt lat="41.863735" lon="0.2660651">
        <time>2022-07-07T07:41:21Z</time>
      </trkpt>
      <trkpt lat="41.863693" lon="0.26613677">
        <time>2022-07-07T07:41:22Z</time>
      </trkpt>
      <trkpt lat="41.863647" lon="0.26620775">
        <time>2022-07-07T07:41:23Z</time>
      </trkpt>
      <trkpt lat="41.863605" lon="0.26627976">
        <time>2022-07-07T07:41:24Z</time>
      </trkpt>
      <trkpt lat="41.863564" lon="0.26635242">
        <time>2022-07-07T07:41:25Z</time>
      </trkpt>
      <trkpt lat="41.863518" lon="0.26642543">
        <time>2022-07-07T07:41:26Z</time>
      </trkpt>
      <trkpt lat="41.863476" lon="0.26649776">
        <time>2022-07-07T07:41:27Z</time>
      </trkpt>
      <trkpt lat="41.863426" lon="0.26657507">
        <time>2022-07-07T07:41:28Z</time>
      </trkpt>
      <trkpt lat="41.863384" lon="0.2666454">
        <time>2022-07-07T07:41:29Z</time>
      </trkpt>
      <trkpt lat="41.863342" lon="0.26671642">
        <time>2022-07-07T07:41:30Z</time>
      </trkpt>
      <trkpt lat="41.8633" lon="0.26678774">
        <time>2022-07-07T07:41:31Z</time>
      </trkpt>
      <trkpt lat="41.863255" lon="0.26685974">
        <time>2022-07-07T07:41:32Z</time>
      </trkpt>
      <trkpt lat="41.863213" lon="0.2669314">
        <time>2022-07-07T07:41:33Z</time>
      </trkpt>
      <trkpt lat="41.86317" lon="0.26700306">
        <time>2022-07-07T07:41:34Z</time>
      </trkpt>
      <trkpt lat="41.863125" lon="0.26707473">
        <time>2022-07-07T07:41:35Z</time>
      </trkpt>
      <trkpt lat="41.86308" lon="0.26714706">
        <time>2022-07-07T07:41:36Z</time>
      </trkpt>
      <trkpt lat="41.863037" lon="0.26721972">
        <time>2022-07-07T07:41:37Z</time>
      </trkpt>
      <trkpt lat="41.86299" lon="0.26729205">
        <time>2022-07-07T07:41:38Z</time>
      </trkpt>
      <trkpt lat="41.86295" lon="0.2673647">
        <time>2022-07-07T07:41:39Z</time>
      </trkpt>
      <trkpt lat="41.862907" lon="0.26743802">
        <time>2022-07-07T07:41:40Z</time>
      </trkpt>
      <trkpt lat="41.86286" lon="0.26751703">
        <time>2022-07-07T07:41:41Z</time>
      </trkpt>
      <trkpt lat="41.862816" lon="0.26759437">
        <time>2022-07-07T07:41:42Z</time>
      </trkpt>
      <trkpt lat="41.862774" lon="0.26766637">
        <time>2022-07-07T07:41:43Z</time>
      </trkpt>
      <trkpt lat="41.862732" lon="0.26773968">
        <time>2022-07-07T07:41:44Z</time>
      </trkpt>
      <trkpt lat="41.862686" lon="0.26781902">
        <time>2022-07-07T07:41:45Z</time>
      </trkpt>
      <trkpt lat="41.86264" lon="0.26789802">
        <time>2022-07-07T07:41:46Z</time>
      </trkpt>
      <trkpt lat="41.8626" lon="0.26797703">
        <time>2022-07-07T07:41:47Z</time>
      </trkpt>
      <trkpt lat="41.862553" lon="0.26805502">
        <time>2022-07-07T07:41:48Z</time>
      </trkpt>
      <trkpt lat="41.862507" lon="0.26813334">
        <time>2022-07-07T07:41:49Z</time>
      </trkpt>
      <trkpt lat="41.862465" lon="0.268211">
        <time>2022-07-07T07:41:50Z</time>
      </trkpt>
      <trkpt lat="41.862423" lon="0.26828334">
        <time>2022-07-07T07:41:51Z</time>
      </trkpt>
      <trkpt lat="41.862377" lon="0.268362">
        <time>2022-07-07T07:41:52Z</time>
      </trkpt>
      <trkpt lat="41.86234" lon="0.26843432">
        <time>2022-07-07T07:41:53Z</time>
      </trkpt>
      <trkpt lat="41.862297" lon="0.26850665">
        <time>2022-07-07T07:41:54Z</time>
      </trkpt>
      <trkpt lat="41.862255" lon="0.26858032">
        <time>2022-07-07T07:41:55Z</time>
      </trkpt>
      <trkpt lat="41.862167" lon="0.26873064">
        <time>2022-07-07T07:41:57Z</time>
      </trkpt>
      <trkpt lat="41.862125" lon="0.2688063">
        <time>2022-07-07T07:41:58Z</time>
      </trkpt>
      <trkpt lat="41.862083" lon="0.26888263">
        <time>2022-07-07T07:41:59Z</time>
      </trkpt>
      <trkpt lat="41.86204" lon="0.26895764">
        <time>2022-07-07T07:42:00Z</time>
      </trkpt>
      <trkpt lat="41.862003" lon="0.26903296">
        <time>2022-07-07T07:42:01Z</time>
      </trkpt>
      <trkpt lat="41.86196" lon="0.26910797">
        <time>2022-07-07T07:42:02Z</time>
      </trkpt>
      <trkpt lat="41.86192" lon="0.26918298">
        <time>2022-07-07T07:42:03Z</time>
      </trkpt>
      <trkpt lat="41.861877" lon="0.26925963">
        <time>2022-07-07T07:42:04Z</time>
      </trkpt>
      <trkpt lat="41.861835" lon="0.26933697">
        <time>2022-07-07T07:42:05Z</time>
      </trkpt>
      <trkpt lat="41.86179" lon="0.26941562">
        <time>2022-07-07T07:42:06Z</time>
      </trkpt>
      <trkpt lat="41.861748" lon="0.26949462">
        <time>2022-07-07T07:42:07Z</time>
      </trkpt>
      <trkpt lat="41.861706" lon="0.2695746">
        <time>2022-07-07T07:42:08Z</time>
      </trkpt>
      <trkpt lat="41.86166" lon="0.26965395">
        <time>2022-07-07T07:42:09Z</time>
      </trkpt>
      <trkpt lat="41.861618" lon="0.2697343">
        <time>2022-07-07T07:42:10Z</time>
      </trkpt>
      <trkpt lat="41.861572" lon="0.26981428">
        <time>2022-07-07T07:42:11Z</time>
      </trkpt>
      <trkpt lat="41.86153" lon="0.26989493">
        <time>2022-07-07T07:42:12Z</time>
      </trkpt>
      <trkpt lat="41.861485" lon="0.26998127">
        <time>2022-07-07T07:42:13Z</time>
      </trkpt>
      <trkpt lat="41.861443" lon="0.27006128">
        <time>2022-07-07T07:42:14Z</time>
      </trkpt>
      <trkpt lat="41.8614" lon="0.27014327">
        <time>2022-07-07T07:42:15Z</time>
      </trkpt>
      <trkpt lat="41.86136" lon="0.27022526">
        <time>2022-07-07T07:42:16Z</time>
      </trkpt>
      <trkpt lat="41.861313" lon="0.27030793">
        <time>2022-07-07T07:42:17Z</time>
      </trkpt>
      <trkpt lat="41.86127" lon="0.27038994">
        <time>2022-07-07T07:42:18Z</time>
      </trkpt>
      <trkpt lat="41.86123" lon="0.2704726">
        <time>2022-07-07T07:42:19Z</time>
      </trkpt>
      <trkpt lat="41.861183" lon="0.2705566">
        <time>2022-07-07T07:42:20Z</time>
      </trkpt>
      <trkpt lat="41.86114" lon="0.27064058">
        <time>2022-07-07T07:42:21Z</time>
      </trkpt>
      <trkpt lat="41.861095" lon="0.27072525">
        <time>2022-07-07T07:42:22Z</time>
      </trkpt>
      <trkpt lat="41.861053" lon="0.27080926">
        <time>2022-07-07T07:42:23Z</time>
      </trkpt>
      <trkpt lat="41.86101" lon="0.27089426">
        <time>2022-07-07T07:42:24Z</time>
      </trkpt>
      <trkpt lat="41.86097" lon="0.2709799">
        <time>2022-07-07T07:42:25Z</time>
      </trkpt>
      <trkpt lat="41.860928" lon="0.27106556">
        <time>2022-07-07T07:42:26Z</time>
      </trkpt>
      <trkpt lat="41.86088" lon="0.2711519">
        <time>2022-07-07T07:42:27Z</time>
      </trkpt>
      <trkpt lat="41.86084" lon="0.27123755">
        <time>2022-07-07T07:42:28Z</time>
      </trkpt>
      <trkpt lat="41.860798" lon="0.27132255">
        <time>2022-07-07T07:42:29Z</time>
      </trkpt>
      <trkpt lat="41.860752" lon="0.27140656">
        <time>2022-07-07T07:42:30Z</time>
      </trkpt>
      <trkpt lat="41.86071" lon="0.27149022">
        <time>2022-07-07T07:42:31Z</time>
      </trkpt>
      <trkpt lat="41.860664" lon="0.27157855">
        <time>2022-07-07T07:42:32Z</time>
      </trkpt>
      <trkpt lat="41.860622" lon="0.27165988">
        <time>2022-07-07T07:42:33Z</time>
      </trkpt>
      <trkpt lat="41.86058" lon="0.27174187">
        <time>2022-07-07T07:42:34Z</time>
      </trkpt>
      <trkpt lat="41.86054" lon="0.27182487">
        <time>2022-07-07T07:42:35Z</time>
      </trkpt>
      <trkpt lat="41.860493" lon="0.27191254">
        <time>2022-07-07T07:42:36Z</time>
      </trkpt>
      <trkpt lat="41.860447" lon="0.27199855">
        <time>2022-07-07T07:42:37Z</time>
      </trkpt>
      <trkpt lat="41.860405" lon="0.2720782">
        <time>2022-07-07T07:42:38Z</time>
      </trkpt>
      <trkpt lat="41.860363" lon="0.27215853">
        <time>2022-07-07T07:42:39Z</time>
      </trkpt>
      <trkpt lat="41.860317" lon="0.2722442">
        <time>2022-07-07T07:42:40Z</time>
      </trkpt>
      <trkpt lat="41.860275" lon="0.2723232">
        <time>2022-07-07T07:42:41Z</time>
      </trkpt>
      <trkpt lat="41.860233" lon="0.27240953">
        <time>2022-07-07T07:42:42Z</time>
      </trkpt>
      <trkpt lat="41.860188" lon="0.2724955">
        <time>2022-07-07T07:42:43Z</time>
      </trkpt>
      <trkpt lat="41.860138" lon="0.27258053">
        <time>2022-07-07T07:42:44Z</time>
      </trkpt>
      <trkpt lat="41.860092" lon="0.27266452">
        <time>2022-07-07T07:42:45Z</time>
      </trkpt>
      <trkpt lat="41.860046" lon="0.2727472">
        <time>2022-07-07T07:42:46Z</time>
      </trkpt>
      <trkpt lat="41.86" lon="0.27283084">
        <time>2022-07-07T07:42:47Z</time>
      </trkpt>
      <trkpt lat="41.85996" lon="0.27291417">
        <time>2022-07-07T07:42:48Z</time>
      </trkpt>
      <trkpt lat="41.859913" lon="0.27299684">
        <time>2022-07-07T07:42:49Z</time>
      </trkpt>
      <trkpt lat="41.859867" lon="0.27307948">
        <time>2022-07-07T07:42:50Z</time>
      </trkpt>
      <trkpt lat="41.85982" lon="0.27316114">
        <time>2022-07-07T07:42:51Z</time>
      </trkpt>
      <trkpt lat="41.85978" lon="0.27323714">
        <time>2022-07-07T07:42:52Z</time>
      </trkpt>
      <trkpt lat="41.859734" lon="0.27332115">
        <time>2022-07-07T07:42:53Z</time>
      </trkpt>
      <trkpt lat="41.859688" lon="0.2734055">
        <time>2022-07-07T07:42:54Z</time>
      </trkpt>
      <trkpt lat="41.85964" lon="0.27348948">
        <time>2022-07-07T07:42:55Z</time>
      </trkpt>
      <trkpt lat="41.859596" lon="0.2735678">
        <time>2022-07-07T07:42:56Z</time>
      </trkpt>
      <trkpt lat="41.85955" lon="0.27365315">
        <time>2022-07-07T07:42:57Z</time>
      </trkpt>
      <trkpt lat="41.859463" lon="0.27382147">
        <time>2022-07-07T07:42:59Z</time>
      </trkpt>
      <trkpt lat="41.859417" lon="0.27389947">
        <time>2022-07-07T07:43:00Z</time>
      </trkpt>
      <trkpt lat="41.859375" lon="0.27398112">
        <time>2022-07-07T07:43:01Z</time>
      </trkpt>
      <trkpt lat="41.85933" lon="0.27406445">
        <time>2022-07-07T07:43:02Z</time>
      </trkpt>
      <trkpt lat="41.85928" lon="0.27415413">
        <time>2022-07-07T07:43:03Z</time>
      </trkpt>
      <trkpt lat="41.85923" lon="0.27424246">
        <time>2022-07-07T07:43:04Z</time>
      </trkpt>
      <trkpt lat="41.859184" lon="0.2743308">
        <time>2022-07-07T07:43:05Z</time>
      </trkpt>
      <trkpt lat="41.85914" lon="0.2744131">
        <time>2022-07-07T07:43:06Z</time>
      </trkpt>
      <trkpt lat="41.859085" lon="0.27450478">
        <time>2022-07-07T07:43:07Z</time>
      </trkpt>
      <trkpt lat="41.859035" lon="0.27459678">
        <time>2022-07-07T07:43:08Z</time>
      </trkpt>
      <trkpt lat="41.858982" lon="0.27468744">
        <time>2022-07-07T07:43:09Z</time>
      </trkpt>
      <trkpt lat="41.858932" lon="0.27477843">
        <time>2022-07-07T07:43:10Z</time>
      </trkpt>
      <trkpt lat="41.858883" lon="0.27486977">
        <time>2022-07-07T07:43:11Z</time>
      </trkpt>
      <trkpt lat="41.85883" lon="0.27495942">
        <time>2022-07-07T07:43:12Z</time>
      </trkpt>
      <trkpt lat="41.85878" lon="0.27504876">
        <time>2022-07-07T07:43:13Z</time>
      </trkpt>
      <trkpt lat="41.85873" lon="0.27513775">
        <time>2022-07-07T07:43:14Z</time>
      </trkpt>
      <trkpt lat="41.85868" lon="0.2752214">
        <time>2022-07-07T07:43:15Z</time>
      </trkpt>
      <trkpt lat="41.85863" lon="0.27531174">
        <time>2022-07-07T07:43:16Z</time>
      </trkpt>
      <trkpt lat="41.858578" lon="0.27540073">
        <time>2022-07-07T07:43:17Z</time>
      </trkpt>
      <trkpt lat="41.85853" lon="0.27549008">
        <time>2022-07-07T07:43:18Z</time>
      </trkpt>
      <trkpt lat="41.858475" lon="0.27558008">
        <time>2022-07-07T07:43:19Z</time>
      </trkpt>
      <trkpt lat="41.85842" lon="0.2756714">
        <time>2022-07-07T07:43:20Z</time>
      </trkpt>
      <trkpt lat="41.85837" lon="0.27576205">
        <time>2022-07-07T07:43:21Z</time>
      </trkpt>
      <trkpt lat="41.85832" lon="0.27585205">
        <time>2022-07-07T07:43:22Z</time>
      </trkpt>
      <trkpt lat="41.858265" lon="0.2759404">
        <time>2022-07-07T07:43:23Z</time>
      </trkpt>
      <trkpt lat="41.858215" lon="0.27602872">
        <time>2022-07-07T07:43:24Z</time>
      </trkpt>
      <trkpt lat="41.858162" lon="0.27611673">
        <time>2022-07-07T07:43:25Z</time>
      </trkpt>
      <trkpt lat="41.858112" lon="0.2762034">
        <time>2022-07-07T07:43:26Z</time>
      </trkpt>
      <trkpt lat="41.858063" lon="0.27628437">
        <time>2022-07-07T07:43:27Z</time>
      </trkpt>
      <trkpt lat="41.85801" lon="0.27637303">
        <time>2022-07-07T07:43:28Z</time>
      </trkpt>
      <trkpt lat="41.857964" lon="0.27645504">
        <time>2022-07-07T07:43:29Z</time>
      </trkpt>
      <trkpt lat="41.85791" lon="0.27654505">
        <time>2022-07-07T07:43:30Z</time>
      </trkpt>
      <trkpt lat="41.857857" lon="0.27663538">
        <time>2022-07-07T07:43:31Z</time>
      </trkpt>
      <trkpt lat="41.857803" lon="0.27672538">
        <time>2022-07-07T07:43:32Z</time>
      </trkpt>
      <trkpt lat="41.85775" lon="0.2768147">
        <time>2022-07-07T07:43:33Z</time>
      </trkpt>
      <trkpt lat="41.857697" lon="0.27690402">
        <time>2022-07-07T07:43:34Z</time>
      </trkpt>
      <trkpt lat="41.857643" lon="0.27699235">
        <time>2022-07-07T07:43:35Z</time>
      </trkpt>
      <trkpt lat="41.857586" lon="0.277081">
        <time>2022-07-07T07:43:36Z</time>
      </trkpt>
      <trkpt lat="41.857533" lon="0.2771707">
        <time>2022-07-07T07:43:37Z</time>
      </trkpt>
      <trkpt lat="41.85748" lon="0.2772607">
        <time>2022-07-07T07:43:38Z</time>
      </trkpt>
      <trkpt lat="41.857426" lon="0.27734935">
        <time>2022-07-07T07:43:39Z</time>
      </trkpt>
      <trkpt lat="41.857372" lon="0.27743766">
        <time>2022-07-07T07:43:40Z</time>
      </trkpt>
      <trkpt lat="41.857315" lon="0.277524">
        <time>2022-07-07T07:43:41Z</time>
      </trkpt>
      <trkpt lat="41.857258" lon="0.27760965">
        <time>2022-07-07T07:43:42Z</time>
      </trkpt>
      <trkpt lat="41.8572" lon="0.27769333">
        <time>2022-07-07T07:43:43Z</time>
      </trkpt>
      <trkpt lat="41.85714" lon="0.27777532">
        <time>2022-07-07T07:43:44Z</time>
      </trkpt>
      <trkpt lat="41.85708" lon="0.27785364">
        <time>2022-07-07T07:43:45Z</time>
      </trkpt>
      <trkpt lat="41.857018" lon="0.27792966">
        <time>2022-07-07T07:43:46Z</time>
      </trkpt>
      <trkpt lat="41.856953" lon="0.27800232">
        <time>2022-07-07T07:43:47Z</time>
      </trkpt>
      <trkpt lat="41.856895" lon="0.27806664">
        <time>2022-07-07T07:43:48Z</time>
      </trkpt>
      <trkpt lat="41.856827" lon="0.27813265">
        <time>2022-07-07T07:43:49Z</time>
      </trkpt>
      <trkpt lat="41.856762" lon="0.27819464">
        <time>2022-07-07T07:43:50Z</time>
      </trkpt>
      <trkpt lat="41.856697" lon="0.27825165">
        <time>2022-07-07T07:43:51Z</time>
      </trkpt>
      <trkpt lat="41.856632" lon="0.2783033">
        <time>2022-07-07T07:43:52Z</time>
      </trkpt>
      <trkpt lat="41.856567" lon="0.2783513">
        <time>2022-07-07T07:43:53Z</time>
      </trkpt>
      <trkpt lat="41.856506" lon="0.27839464">
        <time>2022-07-07T07:43:54Z</time>
      </trkpt>
      <trkpt lat="41.85644" lon="0.27843195">
        <time>2022-07-07T07:43:55Z</time>
      </trkpt>
      <trkpt lat="41.856384" lon="0.27846128">
        <time>2022-07-07T07:43:56Z</time>
      </trkpt>
      <trkpt lat="41.856323" lon="0.27848262">
        <time>2022-07-07T07:43:57Z</time>
      </trkpt>
      <trkpt lat="41.856266" lon="0.27849594">
        <time>2022-07-07T07:43:58Z</time>
      </trkpt>
      <trkpt lat="41.856213" lon="0.2785016">
        <time>2022-07-07T07:43:59Z</time>
      </trkpt>
      <trkpt lat="41.85616" lon="0.2785016">
        <time>2022-07-07T07:44:00Z</time>
      </trkpt>
      <trkpt lat="41.856068" lon="0.27848494">
        <time>2022-07-07T07:44:02Z</time>
      </trkpt>
      <trkpt lat="41.85598" lon="0.27845395">
        <time>2022-07-07T07:44:04Z</time>
      </trkpt>
      <trkpt lat="41.85589" lon="0.2784153">
        <time>2022-07-07T07:44:06Z</time>
      </trkpt>
      <trkpt lat="41.855846" lon="0.2783993">
        <time>2022-07-07T07:44:07Z</time>
      </trkpt>
      <trkpt lat="41.855766" lon="0.2783883">
        <time>2022-07-07T07:44:09Z</time>
      </trkpt>
      <trkpt lat="41.85569" lon="0.2784133">
        <time>2022-07-07T07:44:11Z</time>
      </trkpt>
      <trkpt lat="41.855618" lon="0.27846396">
        <time>2022-07-07T07:44:13Z</time>
      </trkpt>
      <trkpt lat="41.855545" lon="0.27851894">
        <time>2022-07-07T07:44:15Z</time>
      </trkpt>
      <trkpt lat="41.85547" lon="0.2785736">
        <time>2022-07-07T07:44:17Z</time>
      </trkpt>
      <trkpt lat="41.855404" lon="0.2786406">
        <time>2022-07-07T07:44:19Z</time>
      </trkpt>
      <trkpt lat="41.85535" lon="0.27870327">
        <time>2022-07-07T07:44:21Z</time>
      </trkpt>
      <trkpt lat="41.855324" lon="0.27874026">
        <time>2022-07-07T07:44:23Z</time>
      </trkpt>
      <trkpt lat="41.855297" lon="0.27885127">
        <time>2022-07-07T07:45:11Z</time>
      </trkpt>
      <trkpt lat="41.855305" lon="0.27892926">
        <time>2022-07-07T07:45:13Z</time>
      </trkpt>
      <trkpt lat="41.855324" lon="0.27901128">
        <time>2022-07-07T07:45:15Z</time>
      </trkpt>
      <trkpt lat="41.85535" lon="0.27908728">
        <time>2022-07-07T07:45:17Z</time>
      </trkpt>
      <trkpt lat="41.855385" lon="0.2791496">
        <time>2022-07-07T07:45:19Z</time>
      </trkpt>
      <trkpt lat="41.855434" lon="0.27920127">
        <time>2022-07-07T07:45:21Z</time>
      </trkpt>
      <trkpt lat="41.855488" lon="0.27924392">
        <time>2022-07-07T07:45:23Z</time>
      </trkpt>
      <trkpt lat="41.855556" lon="0.27927092">
        <time>2022-07-07T07:45:25Z</time>
      </trkpt>
      <trkpt lat="41.85562" lon="0.27927893">
        <time>2022-07-07T07:45:27Z</time>
      </trkpt>
      <trkpt lat="41.855686" lon="0.2792729">
        <time>2022-07-07T07:45:29Z</time>
      </trkpt>
      <trkpt lat="41.855755" lon="0.27926025">
        <time>2022-07-07T07:45:31Z</time>
      </trkpt>
      <trkpt lat="41.85582" lon="0.27925494">
        <time>2022-07-07T07:45:33Z</time>
      </trkpt>
      <trkpt lat="41.855877" lon="0.27927026">
        <time>2022-07-07T07:45:35Z</time>
      </trkpt>
      <trkpt lat="41.855927" lon="0.27931026">
        <time>2022-07-07T07:45:37Z</time>
      </trkpt>
      <trkpt lat="41.85597" lon="0.2793546">
        <time>2022-07-07T07:45:39Z</time>
      </trkpt>
      <trkpt lat="41.856018" lon="0.2794029">
        <time>2022-07-07T07:45:41Z</time>
      </trkpt>
      <trkpt lat="41.85606" lon="0.27944925">
        <time>2022-07-07T07:45:43Z</time>
      </trkpt>
      <trkpt lat="41.856106" lon="0.27950191">
        <time>2022-07-07T07:45:45Z</time>
      </trkpt>
      <trkpt lat="41.856155" lon="0.27955356">
        <time>2022-07-07T07:45:47Z</time>
      </trkpt>
      <trkpt lat="41.856205" lon="0.27960524">
        <time>2022-07-07T07:45:49Z</time>
      </trkpt>
      <trkpt lat="41.85626" lon="0.27965724">
        <time>2022-07-07T07:45:51Z</time>
      </trkpt>
      <trkpt lat="41.856308" lon="0.2797119">
        <time>2022-07-07T07:45:53Z</time>
      </trkpt>
      <trkpt lat="41.85636" lon="0.27976555">
        <time>2022-07-07T07:45:55Z</time>
      </trkpt>
      <trkpt lat="41.856407" lon="0.2798209">
        <time>2022-07-07T07:45:57Z</time>
      </trkpt>
      <trkpt lat="41.85645" lon="0.2798859">
        <time>2022-07-07T07:45:59Z</time>
      </trkpt>
      <trkpt lat="41.856487" lon="0.27996022">
        <time>2022-07-07T07:46:01Z</time>
      </trkpt>
      <trkpt lat="41.85651" lon="0.28004488">
        <time>2022-07-07T07:46:03Z</time>
      </trkpt>
      <trkpt lat="41.856518" lon="0.28013554">
        <time>2022-07-07T07:46:05Z</time>
      </trkpt>
      <trkpt lat="41.856495" lon="0.28023452">
        <time>2022-07-07T07:46:07Z</time>
      </trkpt>
      <trkpt lat="41.856438" lon="0.2803202">
        <time>2022-07-07T07:46:09Z</time>
      </trkpt>
      <trkpt lat="41.856354" lon="0.28038085">
        <time>2022-07-07T07:46:11Z</time>
      </trkpt>
      <trkpt lat="41.856304" lon="0.28040284">
        <time>2022-07-07T07:46:12Z</time>
      </trkpt>
      <trkpt lat="41.856243" lon="0.2804225">
        <time>2022-07-07T07:46:13Z</time>
      </trkpt>
      <trkpt lat="41.856186" lon="0.28043985">
        <time>2022-07-07T07:46:14Z</time>
      </trkpt>
      <trkpt lat="41.856125" lon="0.28045884">
        <time>2022-07-07T07:46:15Z</time>
      </trkpt>
      <trkpt lat="41.856064" lon="0.2804815">
        <time>2022-07-07T07:46:16Z</time>
      </trkpt>
      <trkpt lat="41.856003" lon="0.28051084">
        <time>2022-07-07T07:46:17Z</time>
      </trkpt>
      <trkpt lat="41.85594" lon="0.28054783">
        <time>2022-07-07T07:46:18Z</time>
      </trkpt>
      <trkpt lat="41.855885" lon="0.28059384">
        <time>2022-07-07T07:46:19Z</time>
      </trkpt>
      <trkpt lat="41.85583" lon="0.28064248">
        <time>2022-07-07T07:46:20Z</time>
      </trkpt>
      <trkpt lat="41.85578" lon="0.28070682">
        <time>2022-07-07T07:46:21Z</time>
      </trkpt>
      <trkpt lat="41.855732" lon="0.28077915">
        <time>2022-07-07T07:46:22Z</time>
      </trkpt>
      <trkpt lat="41.855686" lon="0.2808598">
        <time>2022-07-07T07:46:23Z</time>
      </trkpt>
      <trkpt lat="41.855644" lon="0.28094646">
        <time>2022-07-07T07:46:24Z</time>
      </trkpt>
      <trkpt lat="41.855602" lon="0.28103846">
        <time>2022-07-07T07:46:25Z</time>
      </trkpt>
      <trkpt lat="41.855568" lon="0.28112614">
        <time>2022-07-07T07:46:26Z</time>
      </trkpt>
      <trkpt lat="41.855534" lon="0.28121814">
        <time>2022-07-07T07:46:27Z</time>
      </trkpt>
      <trkpt lat="41.8555" lon="0.28131247">
        <time>2022-07-07T07:46:28Z</time>
      </trkpt>
      <trkpt lat="41.85547" lon="0.2814078">
        <time>2022-07-07T07:46:29Z</time>
      </trkpt>
      <trkpt lat="41.855434" lon="0.28150344">
        <time>2022-07-07T07:46:30Z</time>
      </trkpt>
      <trkpt lat="41.855404" lon="0.28160012">
        <time>2022-07-07T07:46:31Z</time>
      </trkpt>
      <trkpt lat="41.85537" lon="0.28169712">
        <time>2022-07-07T07:46:32Z</time>
      </trkpt>
      <trkpt lat="41.85534" lon="0.28179243">
        <time>2022-07-07T07:46:33Z</time>
      </trkpt>
      <trkpt lat="41.85531" lon="0.28188545">
        <time>2022-07-07T07:46:34Z</time>
      </trkpt>
      <trkpt lat="41.855278" lon="0.28197777">
        <time>2022-07-07T07:46:35Z</time>
      </trkpt>
      <trkpt lat="41.855244" lon="0.2820691">
        <time>2022-07-07T07:46:36Z</time>
      </trkpt>
      <trkpt lat="41.855213" lon="0.28215975">
        <time>2022-07-07T07:46:37Z</time>
      </trkpt>
      <trkpt lat="41.85518" lon="0.28225175">
        <time>2022-07-07T07:46:38Z</time>
      </trkpt>
      <trkpt lat="41.85515" lon="0.28234175">
        <time>2022-07-07T07:46:39Z</time>
      </trkpt>
      <trkpt lat="41.855114" lon="0.28243077">
        <time>2022-07-07T07:46:40Z</time>
      </trkpt>
      <trkpt lat="41.855083" lon="0.2825231">
        <time>2022-07-07T07:46:41Z</time>
      </trkpt>
      <trkpt lat="41.855053" lon="0.28261343">
        <time>2022-07-07T07:46:42Z</time>
      </trkpt>
      <trkpt lat="41.855026" lon="0.28270075">
        <time>2022-07-07T07:46:43Z</time>
      </trkpt>
      <trkpt lat="41.855" lon="0.28278607">
        <time>2022-07-07T07:46:44Z</time>
      </trkpt>
      <trkpt lat="41.854973" lon="0.28286907">
        <time>2022-07-07T07:46:45Z</time>
      </trkpt>
      <trkpt lat="41.854946" lon="0.28295007">
        <time>2022-07-07T07:46:46Z</time>
      </trkpt>
      <trkpt lat="41.854923" lon="0.28302974">
        <time>2022-07-07T07:46:47Z</time>
      </trkpt>
      <trkpt lat="41.854897" lon="0.28310907">
        <time>2022-07-07T07:46:48Z</time>
      </trkpt>
      <trkpt lat="41.854866" lon="0.2831884">
        <time>2022-07-07T07:46:49Z</time>
      </trkpt>
      <trkpt lat="41.85484" lon="0.28326374">
        <time>2022-07-07T07:46:50Z</time>
      </trkpt>
      <trkpt lat="41.854813" lon="0.28334206">
        <time>2022-07-07T07:46:51Z</time>
      </trkpt>
      <trkpt lat="41.854786" lon="0.28342173">
        <time>2022-07-07T07:46:52Z</time>
      </trkpt>
      <trkpt lat="41.85476" lon="0.28350237">
        <time>2022-07-07T07:46:53Z</time>
      </trkpt>
      <trkpt lat="41.85473" lon="0.28358504">
        <time>2022-07-07T07:46:54Z</time>
      </trkpt>
      <trkpt lat="41.854702" lon="0.28367004">
        <time>2022-07-07T07:46:55Z</time>
      </trkpt>
      <trkpt lat="41.85467" lon="0.28375638">
        <time>2022-07-07T07:46:56Z</time>
      </trkpt>
      <trkpt lat="41.854645" lon="0.2838437">
        <time>2022-07-07T07:46:57Z</time>
      </trkpt>
      <trkpt lat="41.854614" lon="0.28393036">
        <time>2022-07-07T07:46:58Z</time>
      </trkpt>
      <trkpt lat="41.854588" lon="0.28401735">
        <time>2022-07-07T07:46:59Z</time>
      </trkpt>
      <trkpt lat="41.854557" lon="0.28410435">
        <time>2022-07-07T07:47:00Z</time>
      </trkpt>
      <trkpt lat="41.854527" lon="0.28419036">
        <time>2022-07-07T07:47:01Z</time>
      </trkpt>
      <trkpt lat="41.854496" lon="0.28427535">
        <time>2022-07-07T07:47:02Z</time>
      </trkpt>
      <trkpt lat="41.85447" lon="0.28436136">
        <time>2022-07-07T07:47:03Z</time>
      </trkpt>
      <trkpt lat="41.854443" lon="0.2844477">
        <time>2022-07-07T07:47:04Z</time>
      </trkpt>
      <trkpt lat="41.854412" lon="0.284534">
        <time>2022-07-07T07:47:05Z</time>
      </trkpt>
      <trkpt lat="41.854385" lon="0.28461936">
        <time>2022-07-07T07:47:06Z</time>
      </trkpt>
      <trkpt lat="41.85436" lon="0.28470534">
        <time>2022-07-07T07:47:07Z</time>
      </trkpt>
      <trkpt lat="41.854332" lon="0.28479135">
        <time>2022-07-07T07:47:08Z</time>
      </trkpt>
      <trkpt lat="41.8543" lon="0.28487834">
        <time>2022-07-07T07:47:09Z</time>
      </trkpt>
      <trkpt lat="41.854244" lon="0.285055">
        <time>2022-07-07T07:47:11Z</time>
      </trkpt>
      <trkpt lat="41.854218" lon="0.285146">
        <time>2022-07-07T07:47:12Z</time>
      </trkpt>
      <trkpt lat="41.854187" lon="0.285234">
        <time>2022-07-07T07:47:13Z</time>
      </trkpt>
      <trkpt lat="41.85416" lon="0.28532067">
        <time>2022-07-07T07:47:14Z</time>
      </trkpt>
      <trkpt lat="41.85413" lon="0.28540668">
        <time>2022-07-07T07:47:15Z</time>
      </trkpt>
      <trkpt lat="41.8541" lon="0.285491">
        <time>2022-07-07T07:47:16Z</time>
      </trkpt>
      <trkpt lat="41.85407" lon="0.28558066">
        <time>2022-07-07T07:47:17Z</time>
      </trkpt>
      <trkpt lat="41.85404" lon="0.28566766">
        <time>2022-07-07T07:47:18Z</time>
      </trkpt>
      <trkpt lat="41.854008" lon="0.28575367">
        <time>2022-07-07T07:47:19Z</time>
      </trkpt>
      <trkpt lat="41.85398" lon="0.28583932">
        <time>2022-07-07T07:47:20Z</time>
      </trkpt>
      <trkpt lat="41.853954" lon="0.28592464">
        <time>2022-07-07T07:47:21Z</time>
      </trkpt>
      <trkpt lat="41.853924" lon="0.28600964">
        <time>2022-07-07T07:47:22Z</time>
      </trkpt>
      <trkpt lat="41.853893" lon="0.286095">
        <time>2022-07-07T07:47:23Z</time>
      </trkpt>
      <trkpt lat="41.853867" lon="0.28618">
        <time>2022-07-07T07:47:24Z</time>
      </trkpt>
      <trkpt lat="41.85384" lon="0.28626463">
        <time>2022-07-07T07:47:25Z</time>
      </trkpt>
      <trkpt lat="41.853813" lon="0.28634965">
        <time>2022-07-07T07:47:26Z</time>
      </trkpt>
      <trkpt lat="41.853783" lon="0.28643498">
        <time>2022-07-07T07:47:27Z</time>
      </trkpt>
      <trkpt lat="41.853756" lon="0.28651962">
        <time>2022-07-07T07:47:28Z</time>
      </trkpt>
      <trkpt lat="41.85373" lon="0.28660363">
        <time>2022-07-07T07:47:29Z</time>
      </trkpt>
      <trkpt lat="41.853703" lon="0.28668764">
        <time>2022-07-07T07:47:30Z</time>
      </trkpt>
      <trkpt lat="41.853676" lon="0.28677163">
        <time>2022-07-07T07:47:31Z</time>
      </trkpt>
      <trkpt lat="41.85365" lon="0.2868563">
        <time>2022-07-07T07:47:32Z</time>
      </trkpt>
      <trkpt lat="41.853626" lon="0.2869366">
        <time>2022-07-07T07:47:33Z</time>
      </trkpt>
      <trkpt lat="41.853603" lon="0.2870243">
        <time>2022-07-07T07:47:34Z</time>
      </trkpt>
      <trkpt lat="41.85358" lon="0.2871136">
        <time>2022-07-07T07:47:35Z</time>
      </trkpt>
      <trkpt lat="41.85356" lon="0.28720295">
        <time>2022-07-07T07:47:36Z</time>
      </trkpt>
      <trkpt lat="41.853546" lon="0.28729427">
        <time>2022-07-07T07:47:37Z</time>
      </trkpt>
      <trkpt lat="41.853535" lon="0.2873796">
        <time>2022-07-07T07:47:38Z</time>
      </trkpt>
      <trkpt lat="41.853527" lon="0.28746793">
        <time>2022-07-07T07:47:39Z</time>
      </trkpt>
      <trkpt lat="41.853523" lon="0.28756458">
        <time>2022-07-07T07:47:40Z</time>
      </trkpt>
      <trkpt lat="41.853516" lon="0.2876619">
        <time>2022-07-07T07:47:41Z</time>
      </trkpt>
      <trkpt lat="41.853508" lon="0.28775892">
        <time>2022-07-07T07:47:42Z</time>
      </trkpt>
      <trkpt lat="41.8535" lon="0.28785625">
        <time>2022-07-07T07:47:43Z</time>
      </trkpt>
      <trkpt lat="41.85349" lon="0.2879536">
        <time>2022-07-07T07:47:44Z</time>
      </trkpt>
      <trkpt lat="41.853477" lon="0.2880479">
        <time>2022-07-07T07:47:45Z</time>
      </trkpt>
      <trkpt lat="41.853466" lon="0.28813756">
        <time>2022-07-07T07:47:46Z</time>
      </trkpt>
      <trkpt lat="41.853455" lon="0.2882239">
        <time>2022-07-07T07:47:47Z</time>
      </trkpt>
      <trkpt lat="41.85344" lon="0.28830755">
        <time>2022-07-07T07:47:48Z</time>
      </trkpt>
      <trkpt lat="41.853424" lon="0.28838322">
        <time>2022-07-07T07:47:49Z</time>
      </trkpt>
      <trkpt lat="41.853405" lon="0.28845787">
        <time>2022-07-07T07:47:50Z</time>
      </trkpt>
      <trkpt lat="41.853382" lon="0.28852955">
        <time>2022-07-07T07:47:51Z</time>
      </trkpt>
      <trkpt lat="41.853355" lon="0.28859654">
        <time>2022-07-07T07:47:52Z</time>
      </trkpt>
      <trkpt lat="41.85333" lon="0.28865987">
        <time>2022-07-07T07:47:53Z</time>
      </trkpt>
      <trkpt lat="41.8533" lon="0.2887182">
        <time>2022-07-07T07:47:54Z</time>
      </trkpt>
      <trkpt lat="41.853268" lon="0.2887722">
        <time>2022-07-07T07:47:55Z</time>
      </trkpt>
      <trkpt lat="41.853233" lon="0.28882754">
        <time>2022-07-07T07:47:56Z</time>
      </trkpt>
      <trkpt lat="41.853195" lon="0.28887886">
        <time>2022-07-07T07:47:57Z</time>
      </trkpt>
      <trkpt lat="41.853165" lon="0.2889272">
        <time>2022-07-07T07:47:58Z</time>
      </trkpt>
      <trkpt lat="41.853104" lon="0.28901353">
        <time>2022-07-07T07:48:00Z</time>
      </trkpt>
      <trkpt lat="41.853035" lon="0.28909418">
        <time>2022-07-07T07:48:02Z</time>
      </trkpt>
      <trkpt lat="41.852966" lon="0.2891645">
        <time>2022-07-07T07:48:04Z</time>
      </trkpt>
      <trkpt lat="41.85289" lon="0.28923985">
        <time>2022-07-07T07:48:06Z</time>
      </trkpt>
      <trkpt lat="41.852814" lon="0.2893195">
        <time>2022-07-07T07:48:08Z</time>
      </trkpt>
      <trkpt lat="41.85277" lon="0.28936315">
        <time>2022-07-07T07:48:09Z</time>
      </trkpt>
      <trkpt lat="41.852734" lon="0.28940248">
        <time>2022-07-07T07:48:10Z</time>
      </trkpt>
      <trkpt lat="41.852665" lon="0.2894755">
        <time>2022-07-07T07:48:12Z</time>
      </trkpt>
      <trkpt lat="41.85259" lon="0.28955516">
        <time>2022-07-07T07:48:14Z</time>
      </trkpt>
      <trkpt lat="41.85256" lon="0.28959247">
        <time>2022-07-07T07:48:15Z</time>
      </trkpt>
      <trkpt lat="41.852486" lon="0.2896738">
        <time>2022-07-07T07:48:17Z</time>
      </trkpt>
      <trkpt lat="41.85245" lon="0.28971982">
        <time>2022-07-07T07:48:18Z</time>
      </trkpt>
      <trkpt lat="41.85238" lon="0.2898128">
        <time>2022-07-07T07:48:20Z</time>
      </trkpt>
      <trkpt lat="41.85231" lon="0.28989914">
        <time>2022-07-07T07:48:22Z</time>
      </trkpt>
      <trkpt lat="41.852272" lon="0.2899428">
        <time>2022-07-07T07:48:23Z</time>
      </trkpt>
      <trkpt lat="41.8522" lon="0.2900278">
        <time>2022-07-07T07:48:25Z</time>
      </trkpt>
      <trkpt lat="41.852127" lon="0.29011312">
        <time>2022-07-07T07:48:27Z</time>
      </trkpt>
      <trkpt lat="41.85209" lon="0.29015946">
        <time>2022-07-07T07:48:28Z</time>
      </trkpt>
      <trkpt lat="41.852016" lon="0.29025012">
        <time>2022-07-07T07:48:30Z</time>
      </trkpt>
      <trkpt lat="41.851948" lon="0.29033512">
        <time>2022-07-07T07:48:32Z</time>
      </trkpt>
      <trkpt lat="41.851875" lon="0.29042345">
        <time>2022-07-07T07:48:34Z</time>
      </trkpt>
      <trkpt lat="41.851837" lon="0.29046845">
        <time>2022-07-07T07:48:35Z</time>
      </trkpt>
      <trkpt lat="41.851765" lon="0.29056478">
        <time>2022-07-07T07:48:37Z</time>
      </trkpt>
      <trkpt lat="41.851727" lon="0.29061112">
        <time>2022-07-07T07:48:38Z</time>
      </trkpt>
      <trkpt lat="41.85165" lon="0.29070178">
        <time>2022-07-07T07:48:40Z</time>
      </trkpt>
      <trkpt lat="41.851612" lon="0.2907501">
        <time>2022-07-07T07:48:41Z</time>
      </trkpt>
      <trkpt lat="41.851574" lon="0.2907941">
        <time>2022-07-07T07:48:42Z</time>
      </trkpt>
      <trkpt lat="41.851505" lon="0.29088476">
        <time>2022-07-07T07:48:44Z</time>
      </trkpt>
      <trkpt lat="41.851463" lon="0.29093477">
        <time>2022-07-07T07:48:45Z</time>
      </trkpt>
      <trkpt lat="41.85142" lon="0.29098275">
        <time>2022-07-07T07:48:46Z</time>
      </trkpt>
      <trkpt lat="41.851383" lon="0.29102808">
        <time>2022-07-07T07:48:47Z</time>
      </trkpt>
      <trkpt lat="41.85134" lon="0.29107374">
        <time>2022-07-07T07:48:48Z</time>
      </trkpt>
      <trkpt lat="41.8513" lon="0.29111975">
        <time>2022-07-07T07:48:49Z</time>
      </trkpt>
      <trkpt lat="41.85126" lon="0.29116774">
        <time>2022-07-07T07:48:50Z</time>
      </trkpt>
      <trkpt lat="41.85122" lon="0.29121575">
        <time>2022-07-07T07:48:51Z</time>
      </trkpt>
      <trkpt lat="41.851185" lon="0.29126176">
        <time>2022-07-07T07:48:52Z</time>
      </trkpt>
      <trkpt lat="41.851116" lon="0.2913564">
        <time>2022-07-07T07:48:54Z</time>
      </trkpt>
      <trkpt lat="41.851044" lon="0.2914504">
        <time>2022-07-07T07:48:56Z</time>
      </trkpt>
      <trkpt lat="41.85101" lon="0.29149374">
        <time>2022-07-07T07:48:57Z</time>
      </trkpt>
      <trkpt lat="41.85097" lon="0.29153606">
        <time>2022-07-07T07:48:58Z</time>
      </trkpt>
      <trkpt lat="41.85089" lon="0.2916124">
        <time>2022-07-07T07:49:00Z</time>
      </trkpt>
      <trkpt lat="41.850815" lon="0.29168972">
        <time>2022-07-07T07:49:02Z</time>
      </trkpt>
      <trkpt lat="41.850777" lon="0.29173005">
        <time>2022-07-07T07:49:03Z</time>
      </trkpt>
      <trkpt lat="41.850704" lon="0.29181173">
        <time>2022-07-07T07:49:05Z</time>
      </trkpt>
      <trkpt lat="41.850636" lon="0.2918977">
        <time>2022-07-07T07:49:07Z</time>
      </trkpt>
      <trkpt lat="41.850567" lon="0.29199073">
        <time>2022-07-07T07:49:09Z</time>
      </trkpt>
      <trkpt lat="41.850533" lon="0.29203606">
        <time>2022-07-07T07:49:10Z</time>
      </trkpt>
      <trkpt lat="41.850464" lon="0.2921237">
        <time>2022-07-07T07:49:12Z</time>
      </trkpt>
      <trkpt lat="41.85043" lon="0.29216805">
        <time>2022-07-07T07:49:13Z</time>
      </trkpt>
      <trkpt lat="41.850365" lon="0.29225203">
        <time>2022-07-07T07:49:15Z</time>
      </trkpt>
      <trkpt lat="41.85026" lon="0.29237604">
        <time>2022-07-07T07:49:18Z</time>
      </trkpt>
      <trkpt lat="41.8502" lon="0.29246438">
        <time>2022-07-07T07:49:20Z</time>
      </trkpt>
      <trkpt lat="41.85014" lon="0.29255337">
        <time>2022-07-07T07:49:22Z</time>
      </trkpt>
      <trkpt lat="41.85008" lon="0.29263937">
        <time>2022-07-07T07:49:24Z</time>
      </trkpt>
      <trkpt lat="41.850018" lon="0.29272303">
        <time>2022-07-07T07:49:26Z</time>
      </trkpt>
      <trkpt lat="41.849957" lon="0.29280868">
        <time>2022-07-07T07:49:28Z</time>
      </trkpt>
      <trkpt lat="41.849907" lon="0.29289636">
        <time>2022-07-07T07:49:30Z</time>
      </trkpt>
      <trkpt lat="41.849884" lon="0.29297936">
        <time>2022-07-07T07:49:32Z</time>
      </trkpt>
      <trkpt lat="41.849888" lon="0.2930317">
        <time>2022-07-07T07:49:34Z</time>
      </trkpt>
      <trkpt lat="41.849922" lon="0.29306233">
        <time>2022-07-07T07:49:39Z</time>
      </trkpt>
      <trkpt lat="41.849968" lon="0.29310033">
        <time>2022-07-07T07:49:49Z</time>
      </trkpt>
      <trkpt lat="41.849995" lon="0.29306734">
        <time>2022-07-07T08:06:22Z</time>
      </trkpt>
      <trkpt lat="41.850018" lon="0.2929977">
        <time>2022-07-07T08:06:27Z</time>
      </trkpt>
      <trkpt lat="41.849926" lon="0.293136">
        <time>2022-07-07T08:11:54Z</time>
      </trkpt>
      <trkpt lat="41.84989" lon="0.293103">
        <time>2022-07-07T08:17:04Z</time>
      </trkpt>
      <trkpt lat="41.849854" lon="0.29315835">
        <time>2022-07-07T08:17:06Z</time>
      </trkpt>
      <trkpt lat="41.84981" lon="0.293214">
        <time>2022-07-07T08:17:08Z</time>
      </trkpt>
      <trkpt lat="41.849762" lon="0.293264">
        <time>2022-07-07T08:17:10Z</time>
      </trkpt>
      <trkpt lat="41.849705" lon="0.293308">
        <time>2022-07-07T08:17:12Z</time>
      </trkpt>
      <trkpt lat="41.84964" lon="0.29334766">
        <time>2022-07-07T08:17:14Z</time>
      </trkpt>
      <trkpt lat="41.849567" lon="0.29338965">
        <time>2022-07-07T08:17:16Z</time>
      </trkpt>
      <trkpt lat="41.8495" lon="0.293428">
        <time>2022-07-07T08:17:18Z</time>
      </trkpt>
      <trkpt lat="41.849434" lon="0.29345864">
        <time>2022-07-07T08:17:20Z</time>
      </trkpt>
      <trkpt lat="41.849384" lon="0.29348332">
        <time>2022-07-07T08:17:22Z</time>
      </trkpt>
      <trkpt lat="41.849316" lon="0.29350597">
        <time>2022-07-07T08:17:25Z</time>
      </trkpt>
      <trkpt lat="41.84926" lon="0.29352763">
        <time>2022-07-07T08:17:27Z</time>
      </trkpt>
      <trkpt lat="41.84921" lon="0.2935533">
        <time>2022-07-07T08:17:29Z</time>
      </trkpt>
      <trkpt lat="41.84914" lon="0.2935713">
        <time>2022-07-07T08:17:32Z</time>
      </trkpt>
      <trkpt lat="41.849075" lon="0.2935853">
        <time>2022-07-07T08:17:35Z</time>
      </trkpt>
      <trkpt lat="41.849014" lon="0.2935963">
        <time>2022-07-07T08:17:38Z</time>
      </trkpt>
      <trkpt lat="41.84895" lon="0.29360396">
        <time>2022-07-07T08:17:41Z</time>
      </trkpt>
      <trkpt lat="41.848885" lon="0.29361394">
        <time>2022-07-07T08:17:44Z</time>
      </trkpt>
      <trkpt lat="41.848812" lon="0.29363394">
        <time>2022-07-07T08:17:47Z</time>
      </trkpt>
      <trkpt lat="41.848736" lon="0.29364827">
        <time>2022-07-07T08:17:50Z</time>
      </trkpt>
      <trkpt lat="41.848682" lon="0.2936586">
        <time>2022-07-07T08:17:52Z</time>
      </trkpt>
      <trkpt lat="41.848633" lon="0.2936786">
        <time>2022-07-07T08:17:54Z</time>
      </trkpt>
      <trkpt lat="41.848587" lon="0.29370862">
        <time>2022-07-07T08:17:56Z</time>
      </trkpt>
      <trkpt lat="41.84852" lon="0.29375628">
        <time>2022-07-07T08:17:59Z</time>
      </trkpt>
      <trkpt lat="41.848476" lon="0.29378226">
        <time>2022-07-07T08:18:01Z</time>
      </trkpt>
      <trkpt lat="41.848423" lon="0.29380828">
        <time>2022-07-07T08:18:04Z</time>
      </trkpt>
      <trkpt lat="41.84835" lon="0.29380992">
        <time>2022-07-07T08:18:07Z</time>
      </trkpt>
      <trkpt lat="41.848293" lon="0.29380128">
        <time>2022-07-07T08:18:10Z</time>
      </trkpt>
      <trkpt lat="41.84824" lon="0.2938186">
        <time>2022-07-07T08:18:13Z</time>
      </trkpt>
      <trkpt lat="41.84818" lon="0.29384327">
        <time>2022-07-07T08:18:16Z</time>
      </trkpt>
      <trkpt lat="41.848125" lon="0.29386258">
        <time>2022-07-07T08:18:19Z</time>
      </trkpt>
      <trkpt lat="41.848072" lon="0.29387426">
        <time>2022-07-07T08:18:22Z</time>
      </trkpt>
      <trkpt lat="41.848007" lon="0.29390392">
        <time>2022-07-07T08:18:25Z</time>
      </trkpt>
      <trkpt lat="41.84795" lon="0.29393858">
        <time>2022-07-07T08:18:28Z</time>
      </trkpt>
      <trkpt lat="41.8479" lon="0.29398224">
        <time>2022-07-07T08:18:31Z</time>
      </trkpt>
      <trkpt lat="41.847843" lon="0.29404223">
        <time>2022-07-07T08:20:08Z</time>
      </trkpt>
      <trkpt lat="41.847813" lon="0.29411057">
        <time>2022-07-07T08:20:10Z</time>
      </trkpt>
      <trkpt lat="41.84778" lon="0.2941919">
        <time>2022-07-07T08:20:12Z</time>
      </trkpt>
      <trkpt lat="41.847733" lon="0.2942832">
        <time>2022-07-07T08:20:14Z</time>
      </trkpt>
      <trkpt lat="41.84768" lon="0.2943772">
        <time>2022-07-07T08:20:16Z</time>
      </trkpt>
      <trkpt lat="41.847622" lon="0.2944629">
        <time>2022-07-07T08:20:18Z</time>
      </trkpt>
      <trkpt lat="41.847553" lon="0.2945492">
        <time>2022-07-07T08:20:20Z</time>
      </trkpt>
      <trkpt lat="41.847477" lon="0.29461753">
        <time>2022-07-07T08:20:22Z</time>
      </trkpt>
      <trkpt lat="41.84744" lon="0.2946472">
        <time>2022-07-07T08:20:23Z</time>
      </trkpt>
      <trkpt lat="41.847363" lon="0.2947092">
        <time>2022-07-07T08:20:25Z</time>
      </trkpt>
      <trkpt lat="41.847282" lon="0.29478887">
        <time>2022-07-07T08:20:27Z</time>
      </trkpt>
      <trkpt lat="41.847195" lon="0.2948722">
        <time>2022-07-07T08:20:29Z</time>
      </trkpt>
      <trkpt lat="41.847153" lon="0.2949192">
        <time>2022-07-07T08:20:30Z</time>
      </trkpt>
      <trkpt lat="41.847107" lon="0.2949655">
        <time>2022-07-07T08:20:31Z</time>
      </trkpt>
      <trkpt lat="41.847057" lon="0.2950105">
        <time>2022-07-07T08:20:32Z</time>
      </trkpt>
      <trkpt lat="41.84701" lon="0.29505417">
        <time>2022-07-07T08:20:33Z</time>
      </trkpt>
      <trkpt lat="41.846962" lon="0.29509684">
        <time>2022-07-07T08:20:34Z</time>
      </trkpt>
      <trkpt lat="41.846867" lon="0.29517883">
        <time>2022-07-07T08:20:36Z</time>
      </trkpt>
      <trkpt lat="41.846813" lon="0.29522517">
        <time>2022-07-07T08:20:37Z</time>
      </trkpt>
      <trkpt lat="41.846764" lon="0.29526818">
        <time>2022-07-07T08:20:38Z</time>
      </trkpt>
      <trkpt lat="41.84671" lon="0.2953125">
        <time>2022-07-07T08:20:39Z</time>
      </trkpt>
      <trkpt lat="41.846657" lon="0.2953605">
        <time>2022-07-07T08:20:40Z</time>
      </trkpt>
      <trkpt lat="41.846603" lon="0.29541084">
        <time>2022-07-07T08:20:41Z</time>
      </trkpt>
      <trkpt lat="41.84655" lon="0.29545683">
        <time>2022-07-07T08:20:42Z</time>
      </trkpt>
      <trkpt lat="41.846493" lon="0.29550782">
        <time>2022-07-07T08:20:43Z</time>
      </trkpt>
      <trkpt lat="41.84644" lon="0.29555583">
        <time>2022-07-07T08:20:44Z</time>
      </trkpt>
      <trkpt lat="41.846386" lon="0.29560316">
        <time>2022-07-07T08:20:45Z</time>
      </trkpt>
      <trkpt lat="41.846333" lon="0.2956495">
        <time>2022-07-07T08:20:46Z</time>
      </trkpt>
      <trkpt lat="41.846283" lon="0.29569516">
        <time>2022-07-07T08:20:47Z</time>
      </trkpt>
      <trkpt lat="41.84623" lon="0.2957418">
        <time>2022-07-07T08:20:48Z</time>
      </trkpt>
      <trkpt lat="41.846176" lon="0.29578948">
        <time>2022-07-07T08:20:49Z</time>
      </trkpt>
      <trkpt lat="41.846123" lon="0.2958378">
        <time>2022-07-07T08:20:50Z</time>
      </trkpt>
      <trkpt lat="41.84607" lon="0.2958848">
        <time>2022-07-07T08:20:51Z</time>
      </trkpt>
      <trkpt lat="41.846016" lon="0.2959308">
        <time>2022-07-07T08:20:52Z</time>
      </trkpt>
      <trkpt lat="41.84596" lon="0.2959768">
        <time>2022-07-07T08:20:53Z</time>
      </trkpt>
      <trkpt lat="41.8459" lon="0.2960218">
        <time>2022-07-07T08:20:54Z</time>
      </trkpt>
      <trkpt lat="41.845844" lon="0.2960668">
        <time>2022-07-07T08:20:55Z</time>
      </trkpt>
      <trkpt lat="41.84579" lon="0.29611212">
        <time>2022-07-07T08:20:56Z</time>
      </trkpt>
      <trkpt lat="41.84573" lon="0.29615813">
        <time>2022-07-07T08:20:57Z</time>
      </trkpt>
      <trkpt lat="41.845676" lon="0.29620478">
        <time>2022-07-07T08:20:58Z</time>
      </trkpt>
      <trkpt lat="41.84562" lon="0.29625478">
        <time>2022-07-07T08:20:59Z</time>
      </trkpt>
      <trkpt lat="41.845566" lon="0.29630646">
        <time>2022-07-07T08:21:00Z</time>
      </trkpt>
      <trkpt lat="41.84551" lon="0.29635644">
        <time>2022-07-07T08:21:01Z</time>
      </trkpt>
      <trkpt lat="41.84546" lon="0.29640445">
        <time>2022-07-07T08:21:02Z</time>
      </trkpt>
      <trkpt lat="41.8454" lon="0.29644945">
        <time>2022-07-07T08:21:03Z</time>
      </trkpt>
      <trkpt lat="41.845352" lon="0.29649377">
        <time>2022-07-07T08:21:04Z</time>
      </trkpt>
      <trkpt lat="41.845303" lon="0.2965351">
        <time>2022-07-07T08:21:05Z</time>
      </trkpt>
      <trkpt lat="41.845257" lon="0.29657745">
        <time>2022-07-07T08:21:06Z</time>
      </trkpt>
      <trkpt lat="41.845207" lon="0.2966221">
        <time>2022-07-07T08:21:07Z</time>
      </trkpt>
      <trkpt lat="41.845158" lon="0.29666644">
        <time>2022-07-07T08:21:08Z</time>
      </trkpt>
      <trkpt lat="41.84511" lon="0.29670775">
        <time>2022-07-07T08:21:09Z</time>
      </trkpt>
      <trkpt lat="41.845066" lon="0.2967501">
        <time>2022-07-07T08:21:10Z</time>
      </trkpt>
      <trkpt lat="41.845016" lon="0.29679576">
        <time>2022-07-07T08:21:11Z</time>
      </trkpt>
      <trkpt lat="41.84497" lon="0.29684108">
        <time>2022-07-07T08:21:12Z</time>
      </trkpt>
      <trkpt lat="41.84493" lon="0.2968814">
        <time>2022-07-07T08:21:13Z</time>
      </trkpt>
      <trkpt lat="41.844883" lon="0.2969214">
        <time>2022-07-07T08:21:14Z</time>
      </trkpt>
      <trkpt lat="41.84484" lon="0.29696274">
        <time>2022-07-07T08:21:15Z</time>
      </trkpt>
      <trkpt lat="41.8448" lon="0.2970034">
        <time>2022-07-07T08:21:16Z</time>
      </trkpt>
      <trkpt lat="41.844757" lon="0.29704306">
        <time>2022-07-07T08:21:17Z</time>
      </trkpt>
      <trkpt lat="41.844707" lon="0.29708472">
        <time>2022-07-07T08:21:18Z</time>
      </trkpt>
      <trkpt lat="41.84466" lon="0.2971267">
        <time>2022-07-07T08:21:19Z</time>
      </trkpt>
      <trkpt lat="41.844612" lon="0.29716772">
        <time>2022-07-07T08:21:20Z</time>
      </trkpt>
      <trkpt lat="41.84457" lon="0.29720572">
        <time>2022-07-07T08:21:21Z</time>
      </trkpt>
      <trkpt lat="41.844524" lon="0.29724738">
        <time>2022-07-07T08:21:22Z</time>
      </trkpt>
      <trkpt lat="41.844475" lon="0.29728937">
        <time>2022-07-07T08:21:23Z</time>
      </trkpt>
      <trkpt lat="41.844425" lon="0.29733005">
        <time>2022-07-07T08:21:24Z</time>
      </trkpt>
      <trkpt lat="41.844376" lon="0.29737005">
        <time>2022-07-07T08:21:25Z</time>
      </trkpt>
      <trkpt lat="41.84433" lon="0.29740804">
        <time>2022-07-07T08:21:26Z</time>
      </trkpt>
      <trkpt lat="41.844284" lon="0.2974467">
        <time>2022-07-07T08:21:27Z</time>
      </trkpt>
      <trkpt lat="41.84424" lon="0.2974857">
        <time>2022-07-07T08:21:28Z</time>
      </trkpt>
      <trkpt lat="41.84419" lon="0.29752603">
        <time>2022-07-07T08:21:29Z</time>
      </trkpt>
      <trkpt lat="41.84414" lon="0.29756904">
        <time>2022-07-07T08:21:30Z</time>
      </trkpt>
      <trkpt lat="41.844093" lon="0.29761335">
        <time>2022-07-07T08:21:31Z</time>
      </trkpt>
      <trkpt lat="41.844044" lon="0.29765868">
        <time>2022-07-07T08:21:32Z</time>
      </trkpt>
      <trkpt lat="41.843998" lon="0.29770035">
        <time>2022-07-07T08:21:33Z</time>
      </trkpt>
      <trkpt lat="41.843945" lon="0.29774368">
        <time>2022-07-07T08:21:34Z</time>
      </trkpt>
      <trkpt lat="41.843895" lon="0.29778567">
        <time>2022-07-07T08:21:35Z</time>
      </trkpt>
      <trkpt lat="41.84384" lon="0.29782668">
        <time>2022-07-07T08:21:36Z</time>
      </trkpt>
      <trkpt lat="41.843792" lon="0.29786834">
        <time>2022-07-07T08:21:37Z</time>
      </trkpt>
      <trkpt lat="41.843742" lon="0.297911">
        <time>2022-07-07T08:21:38Z</time>
      </trkpt>
      <trkpt lat="41.84369" lon="0.29795465">
        <time>2022-07-07T08:21:39Z</time>
      </trkpt>
      <trkpt lat="41.84364" lon="0.29799798">
        <time>2022-07-07T08:21:40Z</time>
      </trkpt>
      <trkpt lat="41.84359" lon="0.298042">
        <time>2022-07-07T08:21:41Z</time>
      </trkpt>
      <trkpt lat="41.843536" lon="0.29808533">
        <time>2022-07-07T08:21:42Z</time>
      </trkpt>
      <trkpt lat="41.843483" lon="0.298129">
        <time>2022-07-07T08:21:43Z</time>
      </trkpt>
      <trkpt lat="41.843437" lon="0.29816997">
        <time>2022-07-07T08:21:44Z</time>
      </trkpt>
      <trkpt lat="41.843384" lon="0.29821497">
        <time>2022-07-07T08:21:45Z</time>
      </trkpt>
      <trkpt lat="41.84333" lon="0.29825932">
        <time>2022-07-07T08:21:46Z</time>
      </trkpt>
      <trkpt lat="41.843277" lon="0.29830465">
        <time>2022-07-07T08:21:47Z</time>
      </trkpt>
      <trkpt lat="41.843227" lon="0.29835063">
        <time>2022-07-07T08:21:48Z</time>
      </trkpt>
      <trkpt lat="41.843178" lon="0.29839763">
        <time>2022-07-07T08:21:49Z</time>
      </trkpt>
      <trkpt lat="41.843082" lon="0.29848364">
        <time>2022-07-07T08:21:51Z</time>
      </trkpt>
      <trkpt lat="41.843033" lon="0.29852697">
        <time>2022-07-07T08:21:52Z</time>
      </trkpt>
      <trkpt lat="41.84298" lon="0.2985703">
        <time>2022-07-07T08:21:53Z</time>
      </trkpt>
      <trkpt lat="41.842926" lon="0.29861495">
        <time>2022-07-07T08:21:54Z</time>
      </trkpt>
      <trkpt lat="41.842873" lon="0.29865828">
        <time>2022-07-07T08:21:55Z</time>
      </trkpt>
      <trkpt lat="41.842827" lon="0.29869962">
        <time>2022-07-07T08:21:56Z</time>
      </trkpt>
      <trkpt lat="41.842773" lon="0.29874694">
        <time>2022-07-07T08:21:57Z</time>
      </trkpt>
      <trkpt lat="41.842724" lon="0.29879394">
        <time>2022-07-07T08:21:58Z</time>
      </trkpt>
      <trkpt lat="41.842678" lon="0.2988396">
        <time>2022-07-07T08:21:59Z</time>
      </trkpt>
      <trkpt lat="41.84263" lon="0.29888362">
        <time>2022-07-07T08:22:00Z</time>
      </trkpt>
      <trkpt lat="41.84258" lon="0.29892793">
        <time>2022-07-07T08:22:01Z</time>
      </trkpt>
      <trkpt lat="41.84253" lon="0.29896826">
        <time>2022-07-07T08:22:02Z</time>
      </trkpt>
      <trkpt lat="41.842484" lon="0.29900727">
        <time>2022-07-07T08:22:03Z</time>
      </trkpt>
      <trkpt lat="41.842434" lon="0.29904526">
        <time>2022-07-07T08:22:04Z</time>
      </trkpt>
      <trkpt lat="41.84239" lon="0.29907992">
        <time>2022-07-07T08:22:05Z</time>
      </trkpt>
      <trkpt lat="41.842346" lon="0.29910958">
        <time>2022-07-07T08:22:06Z</time>
      </trkpt>
      <trkpt lat="41.842293" lon="0.2991486">
        <time>2022-07-07T08:22:08Z</time>
      </trkpt>
      <trkpt lat="41.842216" lon="0.29914293">
        <time>2022-07-07T08:22:34Z</time>
      </trkpt>
      <trkpt lat="41.84218" lon="0.2991136">
        <time>2022-07-07T08:22:39Z</time>
      </trkpt>
      <trkpt lat="41.84213" lon="0.29914793">
        <time>2022-07-07T08:23:53Z</time>
      </trkpt>
      <trkpt lat="41.84209" lon="0.29919794">
        <time>2022-07-07T08:23:56Z</time>
      </trkpt>
      <trkpt lat="41.84207" lon="0.29927394">
        <time>2022-07-07T08:23:59Z</time>
      </trkpt>
      <trkpt lat="41.84203" lon="0.2993446">
        <time>2022-07-07T08:24:02Z</time>
      </trkpt>
      <trkpt lat="41.841957" lon="0.29941258">
        <time>2022-07-07T08:24:05Z</time>
      </trkpt>
      <trkpt lat="41.841896" lon="0.2994626">
        <time>2022-07-07T08:24:07Z</time>
      </trkpt>
      <trkpt lat="41.84183" lon="0.2995166">
        <time>2022-07-07T08:24:09Z</time>
      </trkpt>
      <trkpt lat="41.841766" lon="0.29957426">
        <time>2022-07-07T08:24:11Z</time>
      </trkpt>
      <trkpt lat="41.841698" lon="0.2996379">
        <time>2022-07-07T08:24:13Z</time>
      </trkpt>
      <trkpt lat="41.84163" lon="0.29970592">
        <time>2022-07-07T08:24:15Z</time>
      </trkpt>
      <trkpt lat="41.841564" lon="0.2997739">
        <time>2022-07-07T08:24:17Z</time>
      </trkpt>
      <trkpt lat="41.841488" lon="0.29984325">
        <time>2022-07-07T08:24:19Z</time>
      </trkpt>
      <trkpt lat="41.841408" lon="0.2999109">
        <time>2022-07-07T08:24:21Z</time>
      </trkpt>
      <trkpt lat="41.841324" lon="0.2999839">
        <time>2022-07-07T08:24:23Z</time>
      </trkpt>
      <trkpt lat="41.841278" lon="0.3000209">
        <time>2022-07-07T08:24:24Z</time>
      </trkpt>
      <trkpt lat="41.841232" lon="0.3000589">
        <time>2022-07-07T08:24:25Z</time>
      </trkpt>
      <trkpt lat="41.841187" lon="0.30009723">
        <time>2022-07-07T08:24:26Z</time>
      </trkpt>
      <trkpt lat="41.841137" lon="0.3001349">
        <time>2022-07-07T08:24:27Z</time>
      </trkpt>
      <trkpt lat="41.84109" lon="0.3001749">
        <time>2022-07-07T08:24:28Z</time>
      </trkpt>
      <trkpt lat="41.841045" lon="0.30021554">
        <time>2022-07-07T08:24:29Z</time>
      </trkpt>
      <trkpt lat="41.841003" lon="0.30025688">
        <time>2022-07-07T08:24:30Z</time>
      </trkpt>
      <trkpt lat="41.84096" lon="0.30029687">
        <time>2022-07-07T08:24:31Z</time>
      </trkpt>
      <trkpt lat="41.84092" lon="0.30033454">
        <time>2022-07-07T08:24:32Z</time>
      </trkpt>
      <trkpt lat="41.84084" lon="0.3004052">
        <time>2022-07-07T08:24:34Z</time>
      </trkpt>
      <trkpt lat="41.84076" lon="0.3004792">
        <time>2022-07-07T08:24:36Z</time>
      </trkpt>
      <trkpt lat="41.84072" lon="0.30051485">
        <time>2022-07-07T08:24:37Z</time>
      </trkpt>
      <trkpt lat="41.840637" lon="0.3005892">
        <time>2022-07-07T08:24:39Z</time>
      </trkpt>
      <trkpt lat="41.840557" lon="0.30065885">
        <time>2022-07-07T08:24:41Z</time>
      </trkpt>
      <trkpt lat="41.840477" lon="0.30072817">
        <time>2022-07-07T08:24:43Z</time>
      </trkpt>
      <trkpt lat="41.840435" lon="0.30076218">
        <time>2022-07-07T08:24:44Z</time>
      </trkpt>
      <trkpt lat="41.840363" lon="0.3008275">
        <time>2022-07-07T08:24:46Z</time>
      </trkpt>
      <trkpt lat="41.840286" lon="0.30089483">
        <time>2022-07-07T08:24:48Z</time>
      </trkpt>
      <trkpt lat="41.84021" lon="0.30095983">
        <time>2022-07-07T08:24:50Z</time>
      </trkpt>
      <trkpt lat="41.840134" lon="0.30102918">
        <time>2022-07-07T08:24:52Z</time>
      </trkpt>
      <trkpt lat="41.840057" lon="0.30110016">
        <time>2022-07-07T08:24:54Z</time>
      </trkpt>
      <trkpt lat="41.839985" lon="0.30116817">
        <time>2022-07-07T08:24:56Z</time>
      </trkpt>
      <trkpt lat="41.83991" lon="0.3012345">
        <time>2022-07-07T08:24:58Z</time>
      </trkpt>
      <trkpt lat="41.839832" lon="0.30129683">
        <time>2022-07-07T08:25:00Z</time>
      </trkpt>
      <trkpt lat="41.839764" lon="0.30135417">
        <time>2022-07-07T08:25:02Z</time>
      </trkpt>
      <trkpt lat="41.839695" lon="0.3014168">
        <time>2022-07-07T08:25:04Z</time>
      </trkpt>
      <trkpt lat="41.839622" lon="0.30148047">
        <time>2022-07-07T08:25:06Z</time>
      </trkpt>
      <trkpt lat="41.83955" lon="0.3015418">
        <time>2022-07-07T08:25:08Z</time>
      </trkpt>
      <trkpt lat="41.839478" lon="0.30160248">
        <time>2022-07-07T08:25:10Z</time>
      </trkpt>
      <trkpt lat="41.839405" lon="0.30166513">
        <time>2022-07-07T08:25:12Z</time>
      </trkpt>
      <trkpt lat="41.839333" lon="0.3017298">
        <time>2022-07-07T08:25:14Z</time>
      </trkpt>
      <trkpt lat="41.839256" lon="0.3017988">
        <time>2022-07-07T08:25:16Z</time>
      </trkpt>
      <trkpt lat="41.839172" lon="0.3018758">
        <time>2022-07-07T08:25:18Z</time>
      </trkpt>
      <trkpt lat="41.83913" lon="0.30191344">
        <time>2022-07-07T08:25:19Z</time>
      </trkpt>
      <trkpt lat="41.839043" lon="0.30198777">
        <time>2022-07-07T08:25:21Z</time>
      </trkpt>
      <trkpt lat="41.839" lon="0.3020251">
        <time>2022-07-07T08:25:22Z</time>
      </trkpt>
      <trkpt lat="41.838955" lon="0.30206412">
        <time>2022-07-07T08:25:23Z</time>
      </trkpt>
      <trkpt lat="41.83891" lon="0.30210444">
        <time>2022-07-07T08:25:24Z</time>
      </trkpt>
      <trkpt lat="41.83886" lon="0.30214545">
        <time>2022-07-07T08:25:25Z</time>
      </trkpt>
      <trkpt lat="41.838818" lon="0.30218545">
        <time>2022-07-07T08:25:26Z</time>
      </trkpt>
      <trkpt lat="41.83877" lon="0.30222678">
        <time>2022-07-07T08:25:27Z</time>
      </trkpt>
      <trkpt lat="41.838726" lon="0.3022701">
        <time>2022-07-07T08:25:28Z</time>
      </trkpt>
      <trkpt lat="41.83868" lon="0.30231377">
        <time>2022-07-07T08:25:29Z</time>
      </trkpt>
      <trkpt lat="41.83863" lon="0.3023574">
        <time>2022-07-07T08:25:30Z</time>
      </trkpt>
      <trkpt lat="41.83858" lon="0.30240107">
        <time>2022-07-07T08:25:31Z</time>
      </trkpt>
      <trkpt lat="41.838535" lon="0.3024444">
        <time>2022-07-07T08:25:32Z</time>
      </trkpt>
      <trkpt lat="41.838432" lon="0.30253175">
        <time>2022-07-07T08:25:34Z</time>
      </trkpt>
      <trkpt lat="41.838383" lon="0.30257675">
        <time>2022-07-07T08:25:35Z</time>
      </trkpt>
      <trkpt lat="41.83833" lon="0.30262107">
        <time>2022-07-07T08:25:36Z</time>
      </trkpt>
      <trkpt lat="41.83828" lon="0.30266607">
        <time>2022-07-07T08:25:37Z</time>
      </trkpt>
      <trkpt lat="41.83823" lon="0.3027084">
        <time>2022-07-07T08:25:38Z</time>
      </trkpt>
      <trkpt lat="41.838177" lon="0.30275205">
        <time>2022-07-07T08:25:39Z</time>
      </trkpt>
      <trkpt lat="41.838123" lon="0.30280071">
        <time>2022-07-07T08:25:40Z</time>
      </trkpt>
      <trkpt lat="41.838066" lon="0.3028497">
        <time>2022-07-07T08:25:41Z</time>
      </trkpt>
      <trkpt lat="41.83801" lon="0.30289838">
        <time>2022-07-07T08:25:42Z</time>
      </trkpt>
      <trkpt lat="41.83795" lon="0.3029484">
        <time>2022-07-07T08:25:43Z</time>
      </trkpt>
      <trkpt lat="41.8379" lon="0.30299905">
        <time>2022-07-07T08:25:44Z</time>
      </trkpt>
      <trkpt lat="41.83784" lon="0.30305105">
        <time>2022-07-07T08:25:45Z</time>
      </trkpt>
      <trkpt lat="41.837784" lon="0.30310038">
        <time>2022-07-07T08:25:46Z</time>
      </trkpt>
      <trkpt lat="41.83773" lon="0.3031507">
        <time>2022-07-07T08:25:47Z</time>
      </trkpt>
      <trkpt lat="41.83767" lon="0.30320337">
        <time>2022-07-07T08:25:48Z</time>
      </trkpt>
      <trkpt lat="41.837605" lon="0.30325603">
        <time>2022-07-07T08:25:49Z</time>
      </trkpt>
      <trkpt lat="41.83755" lon="0.3033037">
        <time>2022-07-07T08:25:50Z</time>
      </trkpt>
      <trkpt lat="41.837486" lon="0.30335134">
        <time>2022-07-07T08:25:51Z</time>
      </trkpt>
      <trkpt lat="41.837425" lon="0.303389">
        <time>2022-07-07T08:25:52Z</time>
      </trkpt>
      <trkpt lat="41.837364" lon="0.303419">
        <time>2022-07-07T08:25:53Z</time>
      </trkpt>
      <trkpt lat="41.8373" lon="0.30344">
        <time>2022-07-07T08:25:54Z</time>
      </trkpt>
      <trkpt lat="41.837234" lon="0.303455">
        <time>2022-07-07T08:25:55Z</time>
      </trkpt>
      <trkpt lat="41.83717" lon="0.30346632">
        <time>2022-07-07T08:25:56Z</time>
      </trkpt>
      <trkpt lat="41.837105" lon="0.303479">
        <time>2022-07-07T08:25:57Z</time>
      </trkpt>
      <trkpt lat="41.837044" lon="0.303497">
        <time>2022-07-07T08:25:58Z</time>
      </trkpt>
      <trkpt lat="41.836987" lon="0.30352533">
        <time>2022-07-07T08:25:59Z</time>
      </trkpt>
      <trkpt lat="41.83694" lon="0.30356398">
        <time>2022-07-07T08:26:00Z</time>
      </trkpt>
      <trkpt lat="41.836906" lon="0.30360964">
        <time>2022-07-07T08:26:01Z</time>
      </trkpt>
      <trkpt lat="41.83687" lon="0.30371597">
        <time>2022-07-07T08:26:03Z</time>
      </trkpt>
      <trkpt lat="41.83687" lon="0.30381864">
        <time>2022-07-07T08:26:05Z</time>
      </trkpt>
      <trkpt lat="41.8369" lon="0.3038913">
        <time>2022-07-07T08:26:07Z</time>
      </trkpt>
      <trkpt lat="41.836956" lon="0.30392528">
        <time>2022-07-07T08:26:09Z</time>
      </trkpt>
      <trkpt lat="41.837025" lon="0.3039333">
        <time>2022-07-07T08:26:11Z</time>
      </trkpt>
      <trkpt lat="41.83709" lon="0.30392662">
        <time>2022-07-07T08:26:13Z</time>
      </trkpt>
      <trkpt lat="41.83716" lon="0.30391163">
        <time>2022-07-07T08:26:15Z</time>
      </trkpt>
      <trkpt lat="41.837227" lon="0.30389562">
        <time>2022-07-07T08:26:17Z</time>
      </trkpt>
      <trkpt lat="41.8373" lon="0.30387798">
        <time>2022-07-07T08:26:19Z</time>
      </trkpt>
      <trkpt lat="41.837376" lon="0.30385998">
        <time>2022-07-07T08:26:21Z</time>
      </trkpt>
      <trkpt lat="41.837452" lon="0.30384165">
        <time>2022-07-07T08:26:23Z</time>
      </trkpt>
      <trkpt lat="41.83753" lon="0.3038243">
        <time>2022-07-07T08:26:25Z</time>
      </trkpt>
      <trkpt lat="41.837605" lon="0.30380565">
        <time>2022-07-07T08:26:27Z</time>
      </trkpt>
      <trkpt lat="41.837685" lon="0.30378464">
        <time>2022-07-07T08:26:29Z</time>
      </trkpt>
      <trkpt lat="41.83776" lon="0.303765">
        <time>2022-07-07T08:26:31Z</time>
      </trkpt>
      <trkpt lat="41.83783" lon="0.30374965">
        <time>2022-07-07T08:26:33Z</time>
      </trkpt>
      <trkpt lat="41.8379" lon="0.30373234">
        <time>2022-07-07T08:26:35Z</time>
      </trkpt>
      <trkpt lat="41.83797" lon="0.30371">
        <time>2022-07-07T08:26:37Z</time>
      </trkpt>
      <trkpt lat="41.83804" lon="0.30369133">
        <time>2022-07-07T08:26:39Z</time>
      </trkpt>
      <trkpt lat="41.838108" lon="0.30367634">
        <time>2022-07-07T08:26:41Z</time>
      </trkpt>
      <trkpt lat="41.838173" lon="0.30366302">
        <time>2022-07-07T08:26:43Z</time>
      </trkpt>
      <trkpt lat="41.838238" lon="0.303651">
        <time>2022-07-07T08:26:45Z</time>
      </trkpt>
      <trkpt lat="41.8383" lon="0.30363834">
        <time>2022-07-07T08:26:47Z</time>
      </trkpt>
      <trkpt lat="41.838356" lon="0.30362335">
        <time>2022-07-07T08:26:49Z</time>
      </trkpt>
      <trkpt lat="41.838413" lon="0.3036067">
        <time>2022-07-07T08:26:51Z</time>
      </trkpt>
      <trkpt lat="41.838493" lon="0.30358037">
        <time>2022-07-07T08:26:54Z</time>
      </trkpt>
      <trkpt lat="41.83855" lon="0.30356336">
        <time>2022-07-07T08:26:56Z</time>
      </trkpt>
      <trkpt lat="41.838604" lon="0.30354404">
        <time>2022-07-07T08:26:58Z</time>
      </trkpt>
      <trkpt lat="41.838657" lon="0.30352303">
        <time>2022-07-07T08:27:00Z</time>
      </trkpt>
      <trkpt lat="41.83871" lon="0.3035007">
        <time>2022-07-07T08:27:02Z</time>
      </trkpt>
      <trkpt lat="41.83876" lon="0.3034777">
        <time>2022-07-07T08:27:04Z</time>
      </trkpt>
      <trkpt lat="41.83881" lon="0.30344936">
        <time>2022-07-07T08:27:06Z</time>
      </trkpt>
      <trkpt lat="41.83887" lon="0.30340403">
        <time>2022-07-07T08:27:09Z</time>
      </trkpt>
      <trkpt lat="41.838932" lon="0.3033484">
        <time>2022-07-07T08:27:12Z</time>
      </trkpt>
      <trkpt lat="41.83899" lon="0.30329072">
        <time>2022-07-07T08:27:15Z</time>
      </trkpt>
      <trkpt lat="41.839046" lon="0.3032337">
        <time>2022-07-07T08:27:18Z</time>
      </trkpt>
      <trkpt lat="41.83911" lon="0.30317673">
        <time>2022-07-07T08:27:21Z</time>
      </trkpt>
      <trkpt lat="41.83915" lon="0.3031417">
        <time>2022-07-07T08:27:23Z</time>
      </trkpt>
      <trkpt lat="41.839214" lon="0.30309305">
        <time>2022-07-07T08:27:26Z</time>
      </trkpt>
      <trkpt lat="41.83928" lon="0.30304772">
        <time>2022-07-07T08:27:29Z</time>
      </trkpt>
      <trkpt lat="41.839344" lon="0.30300006">
        <time>2022-07-07T08:27:32Z</time>
      </trkpt>
      <trkpt lat="41.83939" lon="0.3029744">
        <time>2022-07-07T08:27:34Z</time>
      </trkpt>
      <trkpt lat="41.839462" lon="0.30294442">
        <time>2022-07-07T08:27:37Z</time>
      </trkpt>
      <trkpt lat="41.83951" lon="0.30292508">
        <time>2022-07-07T08:27:39Z</time>
      </trkpt>
      <trkpt lat="41.839565" lon="0.30290842">
        <time>2022-07-07T08:27:41Z</time>
      </trkpt>
      <trkpt lat="41.83962" lon="0.3028931">
        <time>2022-07-07T08:27:43Z</time>
      </trkpt>
      <trkpt lat="41.83967" lon="0.30287775">
        <time>2022-07-07T08:27:45Z</time>
      </trkpt>
      <trkpt lat="41.83972" lon="0.3028651">
        <time>2022-07-07T08:27:47Z</time>
      </trkpt>
      <trkpt lat="41.8398" lon="0.3028521">
        <time>2022-07-07T08:27:50Z</time>
      </trkpt>
      <trkpt lat="41.83986" lon="0.3028461">
        <time>2022-07-07T08:27:52Z</time>
      </trkpt>
      <trkpt lat="41.839912" lon="0.3028451">
        <time>2022-07-07T08:27:54Z</time>
      </trkpt>
      <trkpt lat="41.83997" lon="0.30284178">
        <time>2022-07-07T08:27:56Z</time>
      </trkpt>
      <trkpt lat="41.840027" lon="0.30283177">
        <time>2022-07-07T08:27:58Z</time>
      </trkpt>
      <trkpt lat="41.840088" lon="0.30281577">
        <time>2022-07-07T08:28:00Z</time>
      </trkpt>
      <trkpt lat="41.840145" lon="0.30279776">
        <time>2022-07-07T08:28:02Z</time>
      </trkpt>
      <trkpt lat="41.840202" lon="0.30277976">
        <time>2022-07-07T08:28:04Z</time>
      </trkpt>
      <trkpt lat="41.84026" lon="0.30276144">
        <time>2022-07-07T08:28:06Z</time>
      </trkpt>
      <trkpt lat="41.840317" lon="0.30274445">
        <time>2022-07-07T08:28:08Z</time>
      </trkpt>
      <trkpt lat="41.840363" lon="0.30272743">
        <time>2022-07-07T08:28:10Z</time>
      </trkpt>
      <trkpt lat="41.840412" lon="0.30270845">
        <time>2022-07-07T08:28:12Z</time>
      </trkpt>
      <trkpt lat="41.84048" lon="0.30267844">
        <time>2022-07-07T08:28:15Z</time>
      </trkpt>
      <trkpt lat="41.84055" lon="0.3026531">
        <time>2022-07-07T08:28:18Z</time>
      </trkpt>
      <trkpt lat="41.840595" lon="0.3026338">
        <time>2022-07-07T08:28:21Z</time>
      </trkpt>
      <trkpt lat="41.84067" lon="0.30263677">
        <time>2022-07-07T08:29:41Z</time>
      </trkpt>
      <trkpt lat="41.84072" lon="0.30260378">
        <time>2022-07-07T08:29:43Z</time>
      </trkpt>
      <trkpt lat="41.840782" lon="0.30257013">
        <time>2022-07-07T08:29:45Z</time>
      </trkpt>
      <trkpt lat="41.840847" lon="0.3025398">
        <time>2022-07-07T08:29:47Z</time>
      </trkpt>
      <trkpt lat="41.84092" lon="0.30250913">
        <time>2022-07-07T08:29:49Z</time>
      </trkpt>
      <trkpt lat="41.840984" lon="0.3024758">
        <time>2022-07-07T08:29:51Z</time>
      </trkpt>
      <trkpt lat="41.841057" lon="0.30244714">
        <time>2022-07-07T08:29:53Z</time>
      </trkpt>
      <trkpt lat="41.84113" lon="0.30241647">
        <time>2022-07-07T08:29:55Z</time>
      </trkpt>
      <trkpt lat="41.841194" lon="0.30238214">
        <time>2022-07-07T08:29:57Z</time>
      </trkpt>
      <trkpt lat="41.841263" lon="0.30235016">
        <time>2022-07-07T08:29:59Z</time>
      </trkpt>
      <trkpt lat="41.84133" lon="0.3023208">
        <time>2022-07-07T08:30:01Z</time>
      </trkpt>
      <trkpt lat="41.841396" lon="0.3022945">
        <time>2022-07-07T08:30:03Z</time>
      </trkpt>
      <trkpt lat="41.841465" lon="0.3022635">
        <time>2022-07-07T08:30:05Z</time>
      </trkpt>
      <trkpt lat="41.84153" lon="0.30222782">
        <time>2022-07-07T08:30:07Z</time>
      </trkpt>
      <trkpt lat="41.841602" lon="0.30219018">
        <time>2022-07-07T08:30:09Z</time>
      </trkpt>
      <trkpt lat="41.84167" lon="0.30214983">
        <time>2022-07-07T08:30:11Z</time>
      </trkpt>
      <trkpt lat="41.841747" lon="0.30210683">
        <time>2022-07-07T08:30:13Z</time>
      </trkpt>
      <trkpt lat="41.84182" lon="0.30206352">
        <time>2022-07-07T08:30:15Z</time>
      </trkpt>
      <trkpt lat="41.841896" lon="0.30201852">
        <time>2022-07-07T08:30:17Z</time>
      </trkpt>
      <trkpt lat="41.841965" lon="0.3019715">
        <time>2022-07-07T08:30:19Z</time>
      </trkpt>
      <trkpt lat="41.842037" lon="0.30192652">
        <time>2022-07-07T08:30:21Z</time>
      </trkpt>
      <trkpt lat="41.84211" lon="0.30187917">
        <time>2022-07-07T08:30:23Z</time>
      </trkpt>
      <trkpt lat="41.842182" lon="0.30183253">
        <time>2022-07-07T08:30:25Z</time>
      </trkpt>
      <trkpt lat="41.84226" lon="0.30178753">
        <time>2022-07-07T08:30:27Z</time>
      </trkpt>
      <trkpt lat="41.84234" lon="0.30173787">
        <time>2022-07-07T08:30:29Z</time>
      </trkpt>
      <trkpt lat="41.842415" lon="0.3016922">
        <time>2022-07-07T08:30:31Z</time>
      </trkpt>
      <trkpt lat="41.84249" lon="0.3016452">
        <time>2022-07-07T08:30:33Z</time>
      </trkpt>
      <trkpt lat="41.842567" lon="0.30159754">
        <time>2022-07-07T08:30:35Z</time>
      </trkpt>
      <trkpt lat="41.84264" lon="0.30154622">
        <time>2022-07-07T08:30:37Z</time>
      </trkpt>
      <trkpt lat="41.842747" lon="0.30147356">
        <time>2022-07-07T08:30:40Z</time>
      </trkpt>
      <trkpt lat="41.842827" lon="0.30142155">
        <time>2022-07-07T08:30:42Z</time>
      </trkpt>
      <trkpt lat="41.842907" lon="0.30136988">
        <time>2022-07-07T08:30:44Z</time>
      </trkpt>
      <trkpt lat="41.84298" lon="0.30132157">
        <time>2022-07-07T08:30:46Z</time>
      </trkpt>
      <trkpt lat="41.843056" lon="0.30127424">
        <time>2022-07-07T08:30:48Z</time>
      </trkpt>
      <trkpt lat="41.843136" lon="0.3012239">
        <time>2022-07-07T08:30:50Z</time>
      </trkpt>
      <trkpt lat="41.843212" lon="0.30117258">
        <time>2022-07-07T08:30:52Z</time>
      </trkpt>
      <trkpt lat="41.84328" lon="0.30112556">
        <time>2022-07-07T08:30:54Z</time>
      </trkpt>
      <trkpt lat="41.843357" lon="0.30107492">
        <time>2022-07-07T08:30:56Z</time>
      </trkpt>
      <trkpt lat="41.84343" lon="0.3010199">
        <time>2022-07-07T08:30:58Z</time>
      </trkpt>
      <trkpt lat="41.8435" lon="0.30096492">
        <time>2022-07-07T08:31:00Z</time>
      </trkpt>
      <trkpt lat="41.843563" lon="0.30090424">
        <time>2022-07-07T08:31:02Z</time>
      </trkpt>
      <trkpt lat="41.84363" lon="0.30084324">
        <time>2022-07-07T08:31:04Z</time>
      </trkpt>
      <trkpt lat="41.843697" lon="0.30078658">
        <time>2022-07-07T08:31:06Z</time>
      </trkpt>
      <trkpt lat="41.843758" lon="0.30073327">
        <time>2022-07-07T08:31:08Z</time>
      </trkpt>
      <trkpt lat="41.843815" lon="0.3006816">
        <time>2022-07-07T08:31:10Z</time>
      </trkpt>
      <trkpt lat="41.843872" lon="0.30063227">
        <time>2022-07-07T08:31:12Z</time>
      </trkpt>
      <trkpt lat="41.84393" lon="0.30058628">
        <time>2022-07-07T08:31:14Z</time>
      </trkpt>
      <trkpt lat="41.84398" lon="0.30054393">
        <time>2022-07-07T08:31:16Z</time>
      </trkpt>
      <trkpt lat="41.844032" lon="0.3004986">
        <time>2022-07-07T08:31:18Z</time>
      </trkpt>
      <trkpt lat="41.844086" lon="0.30045027">
        <time>2022-07-07T08:31:20Z</time>
      </trkpt>
      <trkpt lat="41.84414" lon="0.3004003">
        <time>2022-07-07T08:31:22Z</time>
      </trkpt>
      <trkpt lat="41.844193" lon="0.3003486">
        <time>2022-07-07T08:31:24Z</time>
      </trkpt>
      <trkpt lat="41.844242" lon="0.30029762">
        <time>2022-07-07T08:31:26Z</time>
      </trkpt>
      <trkpt lat="41.84429" lon="0.30024597">
        <time>2022-07-07T08:31:28Z</time>
      </trkpt>
      <trkpt lat="41.844345" lon="0.30019295">
        <time>2022-07-07T08:31:30Z</time>
      </trkpt>
      <trkpt lat="41.844402" lon="0.3001393">
        <time>2022-07-07T08:31:32Z</time>
      </trkpt>
      <trkpt lat="41.844456" lon="0.30008665">
        <time>2022-07-07T08:31:34Z</time>
      </trkpt>
      <trkpt lat="41.84451" lon="0.3000333">
        <time>2022-07-07T08:31:36Z</time>
      </trkpt>
      <trkpt lat="41.844566" lon="0.2999803">
        <time>2022-07-07T08:31:38Z</time>
      </trkpt>
      <trkpt lat="41.84462" lon="0.29992497">
        <time>2022-07-07T08:31:40Z</time>
      </trkpt>
      <trkpt lat="41.844673" lon="0.299868">
        <time>2022-07-07T08:31:42Z</time>
      </trkpt>
      <trkpt lat="41.84473" lon="0.29981065">
        <time>2022-07-07T08:31:44Z</time>
      </trkpt>
      <trkpt lat="41.844788" lon="0.29975232">
        <time>2022-07-07T08:31:46Z</time>
      </trkpt>
      <trkpt lat="41.84484" lon="0.29969165">
        <time>2022-07-07T08:31:48Z</time>
      </trkpt>
      <trkpt lat="41.8449" lon="0.29963234">
        <time>2022-07-07T08:31:50Z</time>
      </trkpt>
      <trkpt lat="41.844955" lon="0.299571">
        <time>2022-07-07T08:31:52Z</time>
      </trkpt>
      <trkpt lat="41.845043" lon="0.29948">
        <time>2022-07-07T08:31:55Z</time>
      </trkpt>
      <trkpt lat="41.845104" lon="0.299421">
        <time>2022-07-07T08:31:57Z</time>
      </trkpt>
      <trkpt lat="41.845165" lon="0.29936168">
        <time>2022-07-07T08:31:59Z</time>
      </trkpt>
      <trkpt lat="41.845226" lon="0.29930168">
        <time>2022-07-07T08:32:01Z</time>
      </trkpt>
      <trkpt lat="41.84529" lon="0.29924202">
        <time>2022-07-07T08:32:03Z</time>
      </trkpt>
      <trkpt lat="41.845352" lon="0.29918">
        <time>2022-07-07T08:32:05Z</time>
      </trkpt>
      <trkpt lat="41.845417" lon="0.29911736">
        <time>2022-07-07T08:32:07Z</time>
      </trkpt>
      <trkpt lat="41.845478" lon="0.29905468">
        <time>2022-07-07T08:32:09Z</time>
      </trkpt>
      <trkpt lat="41.845543" lon="0.29899237">
        <time>2022-07-07T08:32:11Z</time>
      </trkpt>
      <trkpt lat="41.845608" lon="0.2989297">
        <time>2022-07-07T08:32:13Z</time>
      </trkpt>
      <trkpt lat="41.845673" lon="0.2988687">
        <time>2022-07-07T08:32:15Z</time>
      </trkpt>
      <trkpt lat="41.845734" lon="0.29880437">
        <time>2022-07-07T08:32:17Z</time>
      </trkpt>
      <trkpt lat="41.8458" lon="0.2987427">
        <time>2022-07-07T08:32:19Z</time>
      </trkpt>
      <trkpt lat="41.84586" lon="0.29867804">
        <time>2022-07-07T08:32:21Z</time>
      </trkpt>
      <trkpt lat="41.845924" lon="0.29861438">
        <time>2022-07-07T08:32:23Z</time>
      </trkpt>
      <trkpt lat="41.84599" lon="0.29855207">
        <time>2022-07-07T08:32:25Z</time>
      </trkpt>
      <trkpt lat="41.846058" lon="0.2984904">
        <time>2022-07-07T08:32:27Z</time>
      </trkpt>
      <trkpt lat="41.84613" lon="0.2984314">
        <time>2022-07-07T08:32:29Z</time>
      </trkpt>
      <trkpt lat="41.8462" lon="0.29837108">
        <time>2022-07-07T08:32:31Z</time>
      </trkpt>
      <trkpt lat="41.846268" lon="0.29831174">
        <time>2022-07-07T08:32:33Z</time>
      </trkpt>
      <trkpt lat="41.846336" lon="0.29825407">
        <time>2022-07-07T08:32:35Z</time>
      </trkpt>
      <trkpt lat="41.846405" lon="0.29819807">
        <time>2022-07-07T08:32:37Z</time>
      </trkpt>
      <trkpt lat="41.846474" lon="0.29814476">
        <time>2022-07-07T08:32:39Z</time>
      </trkpt>
      <trkpt lat="41.84654" lon="0.29809475">
        <time>2022-07-07T08:32:41Z</time>
      </trkpt>
      <trkpt lat="41.846603" lon="0.2980464">
        <time>2022-07-07T08:32:43Z</time>
      </trkpt>
      <trkpt lat="41.84667" lon="0.29800177">
        <time>2022-07-07T08:32:45Z</time>
      </trkpt>
      <trkpt lat="41.84673" lon="0.29796675">
        <time>2022-07-07T08:32:47Z</time>
      </trkpt>
      <trkpt lat="41.84679" lon="0.29794142">
        <time>2022-07-07T08:32:49Z</time>
      </trkpt>
      <trkpt lat="41.84685" lon="0.2979271">
        <time>2022-07-07T08:32:51Z</time>
      </trkpt>
      <trkpt lat="41.84691" lon="0.2979391">
        <time>2022-07-07T08:32:53Z</time>
      </trkpt>
      <trkpt lat="41.846962" lon="0.29797977">
        <time>2022-07-07T08:32:55Z</time>
      </trkpt>
      <trkpt lat="41.84702" lon="0.2980394">
        <time>2022-07-07T08:32:57Z</time>
      </trkpt>
      <trkpt lat="41.84708" lon="0.2981134">
        <time>2022-07-07T08:32:59Z</time>
      </trkpt>
      <trkpt lat="41.84715" lon="0.2982014">
        <time>2022-07-07T08:33:01Z</time>
      </trkpt>
      <trkpt lat="41.847187" lon="0.29824874">
        <time>2022-07-07T08:33:02Z</time>
      </trkpt>
      <trkpt lat="41.847267" lon="0.29834676">
        <time>2022-07-07T08:33:04Z</time>
      </trkpt>
      <trkpt lat="41.84731" lon="0.2983971">
        <time>2022-07-07T08:33:05Z</time>
      </trkpt>
      <trkpt lat="41.847355" lon="0.29844975">
        <time>2022-07-07T08:33:06Z</time>
      </trkpt>
      <trkpt lat="41.8474" lon="0.29850307">
        <time>2022-07-07T08:33:07Z</time>
      </trkpt>
      <trkpt lat="41.847446" lon="0.2985584">
        <time>2022-07-07T08:33:08Z</time>
      </trkpt>
      <trkpt lat="41.847492" lon="0.2986164">
        <time>2022-07-07T08:33:09Z</time>
      </trkpt>
      <trkpt lat="41.847588" lon="0.2987364">
        <time>2022-07-07T08:33:11Z</time>
      </trkpt>
      <trkpt lat="41.847637" lon="0.29879972">
        <time>2022-07-07T08:33:12Z</time>
      </trkpt>
      <trkpt lat="41.847683" lon="0.29886174">
        <time>2022-07-07T08:33:13Z</time>
      </trkpt>
      <trkpt lat="41.847733" lon="0.29892072">
        <time>2022-07-07T08:33:14Z</time>
      </trkpt>
      <trkpt lat="41.847775" lon="0.2989764">
        <time>2022-07-07T08:33:15Z</time>
      </trkpt>
      <trkpt lat="41.847816" lon="0.2990304">
        <time>2022-07-07T08:33:16Z</time>
      </trkpt>
      <trkpt lat="41.84786" lon="0.29908273">
        <time>2022-07-07T08:33:17Z</time>
      </trkpt>
      <trkpt lat="41.8479" lon="0.2991357">
        <time>2022-07-07T08:33:18Z</time>
      </trkpt>
      <trkpt lat="41.847942" lon="0.29918805">
        <time>2022-07-07T08:33:19Z</time>
      </trkpt>
      <trkpt lat="41.847984" lon="0.29923806">
        <time>2022-07-07T08:33:20Z</time>
      </trkpt>
      <trkpt lat="41.848026" lon="0.29928806">
        <time>2022-07-07T08:33:21Z</time>
      </trkpt>
      <trkpt lat="41.84807" lon="0.2993374">
        <time>2022-07-07T08:33:22Z</time>
      </trkpt>
      <trkpt lat="41.848106" lon="0.29938504">
        <time>2022-07-07T08:33:23Z</time>
      </trkpt>
      <trkpt lat="41.84815" lon="0.29943505">
        <time>2022-07-07T08:33:24Z</time>
      </trkpt>
      <trkpt lat="41.84819" lon="0.29948604">
        <time>2022-07-07T08:33:25Z</time>
      </trkpt>
      <trkpt lat="41.848236" lon="0.2995377">
        <time>2022-07-07T08:33:26Z</time>
      </trkpt>
      <trkpt lat="41.848278" lon="0.29958937">
        <time>2022-07-07T08:33:27Z</time>
      </trkpt>
      <trkpt lat="41.848324" lon="0.2996417">
        <time>2022-07-07T08:33:28Z</time>
      </trkpt>
      <trkpt lat="41.84837" lon="0.29969868">
        <time>2022-07-07T08:33:29Z</time>
      </trkpt>
      <trkpt lat="41.848415" lon="0.29975402">
        <time>2022-07-07T08:33:30Z</time>
      </trkpt>
      <trkpt lat="41.84846" lon="0.29980868">
        <time>2022-07-07T08:33:31Z</time>
      </trkpt>
      <trkpt lat="41.848507" lon="0.29986233">
        <time>2022-07-07T08:33:32Z</time>
      </trkpt>
      <trkpt lat="41.84855" lon="0.29991734">
        <time>2022-07-07T08:33:33Z</time>
      </trkpt>
      <trkpt lat="41.84859" lon="0.299973">
        <time>2022-07-07T08:33:34Z</time>
      </trkpt>
      <trkpt lat="41.848637" lon="0.30002967">
        <time>2022-07-07T08:33:35Z</time>
      </trkpt>
      <trkpt lat="41.848682" lon="0.30008665">
        <time>2022-07-07T08:33:36Z</time>
      </trkpt>
      <trkpt lat="41.84873" lon="0.30014533">
        <time>2022-07-07T08:33:37Z</time>
      </trkpt>
      <trkpt lat="41.848778" lon="0.30020398">
        <time>2022-07-07T08:33:38Z</time>
      </trkpt>
      <trkpt lat="41.848824" lon="0.30025697">
        <time>2022-07-07T08:33:39Z</time>
      </trkpt>
      <trkpt lat="41.848873" lon="0.30031598">
        <time>2022-07-07T08:33:40Z</time>
      </trkpt>
      <trkpt lat="41.848923" lon="0.30037665">
        <time>2022-07-07T08:33:41Z</time>
      </trkpt>
      <trkpt lat="41.848972" lon="0.30043796">
        <time>2022-07-07T08:33:42Z</time>
      </trkpt>
      <trkpt lat="41.849026" lon="0.3004993">
        <time>2022-07-07T08:33:43Z</time>
      </trkpt>
      <trkpt lat="41.84908" lon="0.3005603">
        <time>2022-07-07T08:33:44Z</time>
      </trkpt>
      <trkpt lat="41.849133" lon="0.30061796">
        <time>2022-07-07T08:33:45Z</time>
      </trkpt>
      <trkpt lat="41.84919" lon="0.30067128">
        <time>2022-07-07T08:33:46Z</time>
      </trkpt>
      <trkpt lat="41.849243" lon="0.3007223">
        <time>2022-07-07T08:33:47Z</time>
      </trkpt>
      <trkpt lat="41.8493" lon="0.30077094">
        <time>2022-07-07T08:33:48Z</time>
      </trkpt>
      <trkpt lat="41.849358" lon="0.30081394">
        <time>2022-07-07T08:33:49Z</time>
      </trkpt>
      <trkpt lat="41.84941" lon="0.30085662">
        <time>2022-07-07T08:33:50Z</time>
      </trkpt>
      <trkpt lat="41.849472" lon="0.30090094">
        <time>2022-07-07T08:33:51Z</time>
      </trkpt>
      <trkpt lat="41.849537" lon="0.30094293">
        <time>2022-07-07T08:33:52Z</time>
      </trkpt>
      <trkpt lat="41.84959" lon="0.30097994">
        <time>2022-07-07T08:33:53Z</time>
      </trkpt>
      <trkpt lat="41.84965" lon="0.3010176">
        <time>2022-07-07T08:33:54Z</time>
      </trkpt>
      <trkpt lat="41.849712" lon="0.30105692">
        <time>2022-07-07T08:33:55Z</time>
      </trkpt>
      <trkpt lat="41.84977" lon="0.30109358">
        <time>2022-07-07T08:33:56Z</time>
      </trkpt>
      <trkpt lat="41.849823" lon="0.30112758">
        <time>2022-07-07T08:33:57Z</time>
      </trkpt>
      <trkpt lat="41.849876" lon="0.3011596">
        <time>2022-07-07T08:33:58Z</time>
      </trkpt>
      <trkpt lat="41.849922" lon="0.30118892">
        <time>2022-07-07T08:33:59Z</time>
      </trkpt>
      <trkpt lat="41.849964" lon="0.30121925">
        <time>2022-07-07T08:34:00Z</time>
      </trkpt>
      <trkpt lat="41.85002" lon="0.3012799">
        <time>2022-07-07T08:34:02Z</time>
      </trkpt>
      <trkpt lat="41.85005" lon="0.30131856">
        <time>2022-07-07T08:34:05Z</time>
      </trkpt>
      <trkpt lat="41.850075" lon="0.30138424">
        <time>2022-07-07T08:34:09Z</time>
      </trkpt>
      <trkpt lat="41.850082" lon="0.30145523">
        <time>2022-07-07T08:34:12Z</time>
      </trkpt>
      <trkpt lat="41.850086" lon="0.30155623">
        <time>2022-07-07T08:34:15Z</time>
      </trkpt>
      <trkpt lat="41.850094" lon="0.30163723">
        <time>2022-07-07T08:34:17Z</time>
      </trkpt>
      <trkpt lat="41.850105" lon="0.30172655">
        <time>2022-07-07T08:34:19Z</time>
      </trkpt>
      <trkpt lat="41.85011" lon="0.30182222">
        <time>2022-07-07T08:34:21Z</time>
      </trkpt>
      <trkpt lat="41.850113" lon="0.30192223">
        <time>2022-07-07T08:34:23Z</time>
      </trkpt>
      <trkpt lat="41.850117" lon="0.3020309">
        <time>2022-07-07T08:34:25Z</time>
      </trkpt>
      <trkpt lat="41.850124" lon="0.30214387">
        <time>2022-07-07T08:34:27Z</time>
      </trkpt>
      <trkpt lat="41.850136" lon="0.30225587">
        <time>2022-07-07T08:34:29Z</time>
      </trkpt>
      <trkpt lat="41.850147" lon="0.30236822">
        <time>2022-07-07T08:34:31Z</time>
      </trkpt>
      <trkpt lat="41.85016" lon="0.30254155">
        <time>2022-07-07T08:34:34Z</time>
      </trkpt>
      <trkpt lat="41.85017" lon="0.30266255">
        <time>2022-07-07T08:34:36Z</time>
      </trkpt>
      <trkpt lat="41.850178" lon="0.3027842">
        <time>2022-07-07T08:34:38Z</time>
      </trkpt>
      <trkpt lat="41.85019" lon="0.3029032">
        <time>2022-07-07T08:34:40Z</time>
      </trkpt>
      <trkpt lat="41.8502" lon="0.30302086">
        <time>2022-07-07T08:34:42Z</time>
      </trkpt>
      <trkpt lat="41.85021" lon="0.30313885">
        <time>2022-07-07T08:34:44Z</time>
      </trkpt>
      <trkpt lat="41.850212" lon="0.30325887">
        <time>2022-07-07T08:34:46Z</time>
      </trkpt>
      <trkpt lat="41.850212" lon="0.3033832">
        <time>2022-07-07T08:34:48Z</time>
      </trkpt>
      <trkpt lat="41.850216" lon="0.30357152">
        <time>2022-07-07T08:34:51Z</time>
      </trkpt>
      <trkpt lat="41.85022" lon="0.30369884">
        <time>2022-07-07T08:34:53Z</time>
      </trkpt>
      <trkpt lat="41.850227" lon="0.30382818">
        <time>2022-07-07T08:34:55Z</time>
      </trkpt>
      <trkpt lat="41.85023" lon="0.30389217">
        <time>2022-07-07T08:34:56Z</time>
      </trkpt>
      <trkpt lat="41.850235" lon="0.30402118">
        <time>2022-07-07T08:34:58Z</time>
      </trkpt>
      <trkpt lat="41.85024" lon="0.3040865">
        <time>2022-07-07T08:34:59Z</time>
      </trkpt>
      <trkpt lat="41.850246" lon="0.30421683">
        <time>2022-07-07T08:35:01Z</time>
      </trkpt>
      <trkpt lat="41.850254" lon="0.30434316">
        <time>2022-07-07T08:35:03Z</time>
      </trkpt>
      <trkpt lat="41.850258" lon="0.30440617">
        <time>2022-07-07T08:35:04Z</time>
      </trkpt>
      <trkpt lat="41.850266" lon="0.3045295">
        <time>2022-07-07T08:35:06Z</time>
      </trkpt>
      <trkpt lat="41.85027" lon="0.30465284">
        <time>2022-07-07T08:35:08Z</time>
      </trkpt>
      <trkpt lat="41.850277" lon="0.3047745">
        <time>2022-07-07T08:35:10Z</time>
      </trkpt>
      <trkpt lat="41.85028" lon="0.30489582">
        <time>2022-07-07T08:35:12Z</time>
      </trkpt>
      <trkpt lat="41.850285" lon="0.30501616">
        <time>2022-07-07T08:35:14Z</time>
      </trkpt>
      <trkpt lat="41.85029" lon="0.30513448">
        <time>2022-07-07T08:35:16Z</time>
      </trkpt>
      <trkpt lat="41.850296" lon="0.30525413">
        <time>2022-07-07T08:35:18Z</time>
      </trkpt>
      <trkpt lat="41.8503" lon="0.30537546">
        <time>2022-07-07T08:35:20Z</time>
      </trkpt>
      <trkpt lat="41.850307" lon="0.30549648">
        <time>2022-07-07T08:35:22Z</time>
      </trkpt>
      <trkpt lat="41.850315" lon="0.30561748">
        <time>2022-07-07T08:35:24Z</time>
      </trkpt>
      <trkpt lat="41.850323" lon="0.30573612">
        <time>2022-07-07T08:35:26Z</time>
      </trkpt>
      <trkpt lat="41.85033" lon="0.30585447">
        <time>2022-07-07T08:35:28Z</time>
      </trkpt>
      <trkpt lat="41.850334" lon="0.30597278">
        <time>2022-07-07T08:35:30Z</time>
      </trkpt>
      <trkpt lat="41.85034" lon="0.30608946">
        <time>2022-07-07T08:35:32Z</time>
      </trkpt>
      <trkpt lat="41.85035" lon="0.3062018">
        <time>2022-07-07T08:35:34Z</time>
      </trkpt>
      <trkpt lat="41.850353" lon="0.3063168">
        <time>2022-07-07T08:35:36Z</time>
      </trkpt>
      <trkpt lat="41.85036" lon="0.30642512">
        <time>2022-07-07T08:35:38Z</time>
      </trkpt>
      <trkpt lat="41.850372" lon="0.30654278">
        <time>2022-07-07T08:35:40Z</time>
      </trkpt>
      <trkpt lat="41.85038" lon="0.3066511">
        <time>2022-07-07T08:35:42Z</time>
      </trkpt>
      <trkpt lat="41.85039" lon="0.30676475">
        <time>2022-07-07T08:35:44Z</time>
      </trkpt>
      <trkpt lat="41.850403" lon="0.30687743">
        <time>2022-07-07T08:35:46Z</time>
      </trkpt>
      <trkpt lat="41.850414" lon="0.30698675">
        <time>2022-07-07T08:35:48Z</time>
      </trkpt>
      <trkpt lat="41.85042" lon="0.30709374">
        <time>2022-07-07T08:35:50Z</time>
      </trkpt>
      <trkpt lat="41.85043" lon="0.30719775">
        <time>2022-07-07T08:35:52Z</time>
      </trkpt>
      <trkpt lat="41.850437" lon="0.30729908">
        <time>2022-07-07T08:35:54Z</time>
      </trkpt>
      <trkpt lat="41.850433" lon="0.30739808">
        <time>2022-07-07T08:35:56Z</time>
      </trkpt>
      <trkpt lat="41.850414" lon="0.30748874">
        <time>2022-07-07T08:35:58Z</time>
      </trkpt>
      <trkpt lat="41.850388" lon="0.3075704">
        <time>2022-07-07T08:36:00Z</time>
      </trkpt>
      <trkpt lat="41.85036" lon="0.3076474">
        <time>2022-07-07T08:36:02Z</time>
      </trkpt>
      <trkpt lat="41.850346" lon="0.30772972">
        <time>2022-07-07T08:36:04Z</time>
      </trkpt>
      <trkpt lat="41.85034" lon="0.3078164">
        <time>2022-07-07T08:36:06Z</time>
      </trkpt>
      <trkpt lat="41.850353" lon="0.3078954">
        <time>2022-07-07T08:36:08Z</time>
      </trkpt>
      <trkpt lat="41.85038" lon="0.30796605">
        <time>2022-07-07T08:36:10Z</time>
      </trkpt>
      <trkpt lat="41.850418" lon="0.30803806">
        <time>2022-07-07T08:36:12Z</time>
      </trkpt>
      <trkpt lat="41.850452" lon="0.30811304">
        <time>2022-07-07T08:36:14Z</time>
      </trkpt>
      <trkpt lat="41.85047" lon="0.3081957">
        <time>2022-07-07T08:36:16Z</time>
      </trkpt>
      <trkpt lat="41.850483" lon="0.30828372">
        <time>2022-07-07T08:36:18Z</time>
      </trkpt>
      <trkpt lat="41.85049" lon="0.30837005">
        <time>2022-07-07T08:36:20Z</time>
      </trkpt>
      <trkpt lat="41.850494" lon="0.3084597">
        <time>2022-07-07T08:36:22Z</time>
      </trkpt>
      <trkpt lat="41.8505" lon="0.3085477">
        <time>2022-07-07T08:36:24Z</time>
      </trkpt>
      <trkpt lat="41.850506" lon="0.30863702">
        <time>2022-07-07T08:36:26Z</time>
      </trkpt>
      <trkpt lat="41.85051" lon="0.30872735">
        <time>2022-07-07T08:36:28Z</time>
      </trkpt>
      <trkpt lat="41.850513" lon="0.3088157">
        <time>2022-07-07T08:36:30Z</time>
      </trkpt>
      <trkpt lat="41.850513" lon="0.3089107">
        <time>2022-07-07T08:36:32Z</time>
      </trkpt>
      <trkpt lat="41.850517" lon="0.30900034">
        <time>2022-07-07T08:36:34Z</time>
      </trkpt>
      <trkpt lat="41.85052" lon="0.30909267">
        <time>2022-07-07T08:36:36Z</time>
      </trkpt>
      <trkpt lat="41.850525" lon="0.3091907">
        <time>2022-07-07T08:36:38Z</time>
      </trkpt>
      <trkpt lat="41.850533" lon="0.30928534">
        <time>2022-07-07T08:36:40Z</time>
      </trkpt>
      <trkpt lat="41.850536" lon="0.309379">
        <time>2022-07-07T08:36:42Z</time>
      </trkpt>
      <trkpt lat="41.85054" lon="0.30947265">
        <time>2022-07-07T08:36:44Z</time>
      </trkpt>
      <trkpt lat="41.85054" lon="0.30956665">
        <time>2022-07-07T08:36:46Z</time>
      </trkpt>
      <trkpt lat="41.850544" lon="0.30966198">
        <time>2022-07-07T08:36:48Z</time>
      </trkpt>
      <trkpt lat="41.850544" lon="0.30975798">
        <time>2022-07-07T08:36:50Z</time>
      </trkpt>
      <trkpt lat="41.850548" lon="0.30985364">
        <time>2022-07-07T08:36:52Z</time>
      </trkpt>
      <trkpt lat="41.85055" lon="0.30994865">
        <time>2022-07-07T08:36:54Z</time>
      </trkpt>
      <trkpt lat="41.850555" lon="0.31004098">
        <time>2022-07-07T08:36:56Z</time>
      </trkpt>
      <trkpt lat="41.850563" lon="0.31013265">
        <time>2022-07-07T08:36:58Z</time>
      </trkpt>
      <trkpt lat="41.850567" lon="0.3102253">
        <time>2022-07-07T08:37:00Z</time>
      </trkpt>
      <trkpt lat="41.85057" lon="0.31031862">
        <time>2022-07-07T08:37:02Z</time>
      </trkpt>
      <trkpt lat="41.850574" lon="0.31040895">
        <time>2022-07-07T08:37:04Z</time>
      </trkpt>
      <trkpt lat="41.85058" lon="0.31049997">
        <time>2022-07-07T08:37:06Z</time>
      </trkpt>
      <trkpt lat="41.85058" lon="0.3105923">
        <time>2022-07-07T08:37:08Z</time>
      </trkpt>
      <trkpt lat="41.850582" lon="0.31068596">
        <time>2022-07-07T08:37:10Z</time>
      </trkpt>
      <trkpt lat="41.850586" lon="0.3107803">
        <time>2022-07-07T08:37:12Z</time>
      </trkpt>
      <trkpt lat="41.850594" lon="0.31087428">
        <time>2022-07-07T08:37:14Z</time>
      </trkpt>
      <trkpt lat="41.850597" lon="0.31096628">
        <time>2022-07-07T08:37:16Z</time>
      </trkpt>
      <trkpt lat="41.8506" lon="0.3110606">
        <time>2022-07-07T08:37:18Z</time>
      </trkpt>
      <trkpt lat="41.85061" lon="0.31115562">
        <time>2022-07-07T08:37:20Z</time>
      </trkpt>
      <trkpt lat="41.850616" lon="0.31124893">
        <time>2022-07-07T08:37:22Z</time>
      </trkpt>
      <trkpt lat="41.850616" lon="0.31134093">
        <time>2022-07-07T08:37:24Z</time>
      </trkpt>
      <trkpt lat="41.85062" lon="0.31142727">
        <time>2022-07-07T08:37:26Z</time>
      </trkpt>
      <trkpt lat="41.850624" lon="0.31151992">
        <time>2022-07-07T08:37:28Z</time>
      </trkpt>
      <trkpt lat="41.850628" lon="0.31161726">
        <time>2022-07-07T08:37:30Z</time>
      </trkpt>
      <trkpt lat="41.850628" lon="0.31171426">
        <time>2022-07-07T08:37:32Z</time>
      </trkpt>
      <trkpt lat="41.85063" lon="0.3118086">
        <time>2022-07-07T08:37:34Z</time>
      </trkpt>
      <trkpt lat="41.850636" lon="0.3119009">
        <time>2022-07-07T08:37:36Z</time>
      </trkpt>
      <trkpt lat="41.850643" lon="0.31199393">
        <time>2022-07-07T08:37:38Z</time>
      </trkpt>
      <trkpt lat="41.850647" lon="0.31208792">
        <time>2022-07-07T08:37:40Z</time>
      </trkpt>
      <trkpt lat="41.85065" lon="0.31217924">
        <time>2022-07-07T08:37:42Z</time>
      </trkpt>
      <trkpt lat="41.85066" lon="0.31227425">
        <time>2022-07-07T08:37:44Z</time>
      </trkpt>
      <trkpt lat="41.850662" lon="0.31236792">
        <time>2022-07-07T08:37:46Z</time>
      </trkpt>
      <trkpt lat="41.850666" lon="0.31246123">
        <time>2022-07-07T08:37:48Z</time>
      </trkpt>
      <trkpt lat="41.85067" lon="0.3125549">
        <time>2022-07-07T08:37:50Z</time>
      </trkpt>
      <trkpt lat="41.850677" lon="0.3126479">
        <time>2022-07-07T08:37:52Z</time>
      </trkpt>
      <trkpt lat="41.850685" lon="0.31273657">
        <time>2022-07-07T08:37:54Z</time>
      </trkpt>
      <trkpt lat="41.85069" lon="0.31283155">
        <time>2022-07-07T08:37:56Z</time>
      </trkpt>
      <trkpt lat="41.850697" lon="0.31292456">
        <time>2022-07-07T08:37:58Z</time>
      </trkpt>
      <trkpt lat="41.8507" lon="0.31301588">
        <time>2022-07-07T08:38:00Z</time>
      </trkpt>
      <trkpt lat="41.850708" lon="0.31311154">
        <time>2022-07-07T08:38:02Z</time>
      </trkpt>
      <trkpt lat="41.85071" lon="0.31320554">
        <time>2022-07-07T08:38:04Z</time>
      </trkpt>
      <trkpt lat="41.850716" lon="0.3132992">
        <time>2022-07-07T08:38:06Z</time>
      </trkpt>
      <trkpt lat="41.850723" lon="0.3133902">
        <time>2022-07-07T08:38:08Z</time>
      </trkpt>
      <trkpt lat="41.850727" lon="0.3134832">
        <time>2022-07-07T08:38:10Z</time>
      </trkpt>
      <trkpt lat="41.850735" lon="0.3135732">
        <time>2022-07-07T08:38:12Z</time>
      </trkpt>
      <trkpt lat="41.85074" lon="0.31366986">
        <time>2022-07-07T08:38:14Z</time>
      </trkpt>
      <trkpt lat="41.850742" lon="0.31375787">
        <time>2022-07-07T08:38:16Z</time>
      </trkpt>
      <trkpt lat="41.850746" lon="0.31384787">
        <time>2022-07-07T08:38:18Z</time>
      </trkpt>
      <trkpt lat="41.85075" lon="0.31394488">
        <time>2022-07-07T08:38:20Z</time>
      </trkpt>
      <trkpt lat="41.850754" lon="0.31403986">
        <time>2022-07-07T08:38:22Z</time>
      </trkpt>
      <trkpt lat="41.850758" lon="0.3141352">
        <time>2022-07-07T08:38:24Z</time>
      </trkpt>
      <trkpt lat="41.85076" lon="0.31422687">
        <time>2022-07-07T08:38:26Z</time>
      </trkpt>
      <trkpt lat="41.850765" lon="0.31431487">
        <time>2022-07-07T08:38:28Z</time>
      </trkpt>
      <trkpt lat="41.85077" lon="0.3143982">
        <time>2022-07-07T08:38:30Z</time>
      </trkpt>
      <trkpt lat="41.850777" lon="0.31448886">
        <time>2022-07-07T08:38:32Z</time>
      </trkpt>
      <trkpt lat="41.85078" lon="0.31456885">
        <time>2022-07-07T08:38:34Z</time>
      </trkpt>
      <trkpt lat="41.85079" lon="0.31465217">
        <time>2022-07-07T08:38:36Z</time>
      </trkpt>
      <trkpt lat="41.850792" lon="0.3147362">
        <time>2022-07-07T08:38:38Z</time>
      </trkpt>
      <trkpt lat="41.8508" lon="0.31481785">
        <time>2022-07-07T08:38:40Z</time>
      </trkpt>
      <trkpt lat="41.850803" lon="0.3148965">
        <time>2022-07-07T08:38:42Z</time>
      </trkpt>
      <trkpt lat="41.850807" lon="0.31497616">
        <time>2022-07-07T08:38:44Z</time>
      </trkpt>
      <trkpt lat="41.85081" lon="0.31506017">
        <time>2022-07-07T08:38:46Z</time>
      </trkpt>
      <trkpt lat="41.85082" lon="0.3151475">
        <time>2022-07-07T08:38:48Z</time>
      </trkpt>
      <trkpt lat="41.850822" lon="0.31523016">
        <time>2022-07-07T08:38:50Z</time>
      </trkpt>
      <trkpt lat="41.85083" lon="0.31531715">
        <time>2022-07-07T08:38:52Z</time>
      </trkpt>
      <trkpt lat="41.850834" lon="0.31540582">
        <time>2022-07-07T08:38:54Z</time>
      </trkpt>
      <trkpt lat="41.850838" lon="0.3154908">
        <time>2022-07-07T08:38:56Z</time>
      </trkpt>
      <trkpt lat="41.85084" lon="0.31557748">
        <time>2022-07-07T08:38:58Z</time>
      </trkpt>
      <trkpt lat="41.85084" lon="0.31566048">
        <time>2022-07-07T08:39:00Z</time>
      </trkpt>
      <trkpt lat="41.850845" lon="0.3157428">
        <time>2022-07-07T08:39:02Z</time>
      </trkpt>
      <trkpt lat="41.85085" lon="0.31583112">
        <time>2022-07-07T08:39:04Z</time>
      </trkpt>
      <trkpt lat="41.850853" lon="0.31591913">
        <time>2022-07-07T08:39:06Z</time>
      </trkpt>
      <trkpt lat="41.85086" lon="0.31600645">
        <time>2022-07-07T08:39:08Z</time>
      </trkpt>
      <trkpt lat="41.850864" lon="0.31609347">
        <time>2022-07-07T08:39:10Z</time>
      </trkpt>
      <trkpt lat="41.850872" lon="0.3161821">
        <time>2022-07-07T08:39:12Z</time>
      </trkpt>
      <trkpt lat="41.850876" lon="0.31627277">
        <time>2022-07-07T08:39:14Z</time>
      </trkpt>
      <trkpt lat="41.850883" lon="0.3163661">
        <time>2022-07-07T08:39:16Z</time>
      </trkpt>
      <trkpt lat="41.850887" lon="0.31645876">
        <time>2022-07-07T08:39:18Z</time>
      </trkpt>
      <trkpt lat="41.85089" lon="0.31655878">
        <time>2022-07-07T08:39:20Z</time>
      </trkpt>
      <trkpt lat="41.8509" lon="0.3166591">
        <time>2022-07-07T08:39:22Z</time>
      </trkpt>
      <trkpt lat="41.850906" lon="0.31676242">
        <time>2022-07-07T08:39:24Z</time>
      </trkpt>
      <trkpt lat="41.850914" lon="0.31686875">
        <time>2022-07-07T08:39:26Z</time>
      </trkpt>
      <trkpt lat="41.85092" lon="0.3169761">
        <time>2022-07-07T08:39:28Z</time>
      </trkpt>
      <trkpt lat="41.85093" lon="0.31708574">
        <time>2022-07-07T08:39:30Z</time>
      </trkpt>
      <trkpt lat="41.850933" lon="0.31719708">
        <time>2022-07-07T08:39:32Z</time>
      </trkpt>
      <trkpt lat="41.85094" lon="0.3173134">
        <time>2022-07-07T08:39:34Z</time>
      </trkpt>
      <trkpt lat="41.85095" lon="0.31742975">
        <time>2022-07-07T08:39:36Z</time>
      </trkpt>
      <trkpt lat="41.850956" lon="0.3175474">
        <time>2022-07-07T08:39:38Z</time>
      </trkpt>
      <trkpt lat="41.850964" lon="0.31766805">
        <time>2022-07-07T08:39:40Z</time>
      </trkpt>
      <trkpt lat="41.85097" lon="0.31779173">
        <time>2022-07-07T08:39:42Z</time>
      </trkpt>
      <trkpt lat="41.85098" lon="0.31791738">
        <time>2022-07-07T08:39:44Z</time>
      </trkpt>
      <trkpt lat="41.850986" lon="0.31804338">
        <time>2022-07-07T08:39:46Z</time>
      </trkpt>
      <trkpt lat="41.850994" lon="0.31817305">
        <time>2022-07-07T08:39:48Z</time>
      </trkpt>
      <trkpt lat="41.851006" lon="0.31829938">
        <time>2022-07-07T08:39:50Z</time>
      </trkpt>
      <trkpt lat="41.851013" lon="0.31843337">
        <time>2022-07-07T08:39:52Z</time>
      </trkpt>
      <trkpt lat="41.851017" lon="0.31850103">
        <time>2022-07-07T08:39:53Z</time>
      </trkpt>
      <trkpt lat="41.851025" lon="0.3186367">
        <time>2022-07-07T08:39:55Z</time>
      </trkpt>
      <trkpt lat="41.85103" lon="0.31870335">
        <time>2022-07-07T08:39:56Z</time>
      </trkpt>
      <trkpt lat="41.85104" lon="0.31883702">
        <time>2022-07-07T08:39:58Z</time>
      </trkpt>
      <trkpt lat="41.851044" lon="0.318904">
        <time>2022-07-07T08:39:59Z</time>
      </trkpt>
      <trkpt lat="41.85105" lon="0.31903902">
        <time>2022-07-07T08:40:01Z</time>
      </trkpt>
      <trkpt lat="41.851063" lon="0.31917667">
        <time>2022-07-07T08:40:03Z</time>
      </trkpt>
      <trkpt lat="41.851063" lon="0.31924534">
        <time>2022-07-07T08:40:04Z</time>
      </trkpt>
      <trkpt lat="41.851067" lon="0.319314">
        <time>2022-07-07T08:40:05Z</time>
      </trkpt>
      <trkpt lat="41.851074" lon="0.31944633">
        <time>2022-07-07T08:40:07Z</time>
      </trkpt>
      <trkpt lat="41.851086" lon="0.31958565">
        <time>2022-07-07T08:40:09Z</time>
      </trkpt>
      <trkpt lat="41.85109" lon="0.31965497">
        <time>2022-07-07T08:40:10Z</time>
      </trkpt>
      <trkpt lat="41.851093" lon="0.31972364">
        <time>2022-07-07T08:40:11Z</time>
      </trkpt>
      <trkpt lat="41.8511" lon="0.31985563">
        <time>2022-07-07T08:40:13Z</time>
      </trkpt>
      <trkpt lat="41.851112" lon="0.3199893">
        <time>2022-07-07T08:40:15Z</time>
      </trkpt>
      <trkpt lat="41.851116" lon="0.32005396">
        <time>2022-07-07T08:40:16Z</time>
      </trkpt>
      <trkpt lat="41.851128" lon="0.32019228">
        <time>2022-07-07T08:40:18Z</time>
      </trkpt>
      <trkpt lat="41.85113" lon="0.32025662">
        <time>2022-07-07T08:40:19Z</time>
      </trkpt>
      <trkpt lat="41.851143" lon="0.32038996">
        <time>2022-07-07T08:40:21Z</time>
      </trkpt>
      <trkpt lat="41.851154" lon="0.32052127">
        <time>2022-07-07T08:40:23Z</time>
      </trkpt>
      <trkpt lat="41.851162" lon="0.3205876">
        <time>2022-07-07T08:40:24Z</time>
      </trkpt>
      <trkpt lat="41.851166" lon="0.32065395">
        <time>2022-07-07T08:40:25Z</time>
      </trkpt>
      <trkpt lat="41.851173" lon="0.32078928">
        <time>2022-07-07T08:40:27Z</time>
      </trkpt>
      <trkpt lat="41.85118" lon="0.32092726">
        <time>2022-07-07T08:40:29Z</time>
      </trkpt>
      <trkpt lat="41.851185" lon="0.32099527">
        <time>2022-07-07T08:40:30Z</time>
      </trkpt>
      <trkpt lat="41.85119" lon="0.3211286">
        <time>2022-07-07T08:40:32Z</time>
      </trkpt>
      <trkpt lat="41.851192" lon="0.32119393">
        <time>2022-07-07T08:40:33Z</time>
      </trkpt>
      <trkpt lat="41.8512" lon="0.32132393">
        <time>2022-07-07T08:40:35Z</time>
      </trkpt>
      <trkpt lat="41.8512" lon="0.3213876">
        <time>2022-07-07T08:40:36Z</time>
      </trkpt>
      <trkpt lat="41.851208" lon="0.32150924">
        <time>2022-07-07T08:40:38Z</time>
      </trkpt>
      <trkpt lat="41.85122" lon="0.32162592">
        <time>2022-07-07T08:40:40Z</time>
      </trkpt>
      <trkpt lat="41.851227" lon="0.3217329">
        <time>2022-07-07T08:40:42Z</time>
      </trkpt>
      <trkpt lat="41.851234" lon="0.32183525">
        <time>2022-07-07T08:40:44Z</time>
      </trkpt>
      <trkpt lat="41.851242" lon="0.32194024">
        <time>2022-07-07T08:40:46Z</time>
      </trkpt>
      <trkpt lat="41.851246" lon="0.3220399">
        <time>2022-07-07T08:40:48Z</time>
      </trkpt>
      <trkpt lat="41.851254" lon="0.32217956">
        <time>2022-07-07T08:40:51Z</time>
      </trkpt>
      <trkpt lat="41.85126" lon="0.32226688">
        <time>2022-07-07T08:40:53Z</time>
      </trkpt>
      <trkpt lat="41.85127" lon="0.32235155">
        <time>2022-07-07T08:40:55Z</time>
      </trkpt>
      <trkpt lat="41.851273" lon="0.32243788">
        <time>2022-07-07T08:40:57Z</time>
      </trkpt>
      <trkpt lat="41.851276" lon="0.3225202">
        <time>2022-07-07T08:40:59Z</time>
      </trkpt>
      <trkpt lat="41.85128" lon="0.32260287">
        <time>2022-07-07T08:41:01Z</time>
      </trkpt>
      <trkpt lat="41.851284" lon="0.32268953">
        <time>2022-07-07T08:41:03Z</time>
      </trkpt>
      <trkpt lat="41.851288" lon="0.32277486">
        <time>2022-07-07T08:41:05Z</time>
      </trkpt>
      <trkpt lat="41.851295" lon="0.32286218">
        <time>2022-07-07T08:41:07Z</time>
      </trkpt>
      <trkpt lat="41.8513" lon="0.3229482">
        <time>2022-07-07T08:41:09Z</time>
      </trkpt>
      <trkpt lat="41.8513" lon="0.3230342">
        <time>2022-07-07T08:41:11Z</time>
      </trkpt>
      <trkpt lat="41.851303" lon="0.3231262">
        <time>2022-07-07T08:41:13Z</time>
      </trkpt>
      <trkpt lat="41.851307" lon="0.32321286">
        <time>2022-07-07T08:41:15Z</time>
      </trkpt>
      <trkpt lat="41.85131" lon="0.32329318">
        <time>2022-07-07T08:41:17Z</time>
      </trkpt>
      <trkpt lat="41.851315" lon="0.32337818">
        <time>2022-07-07T08:41:19Z</time>
      </trkpt>
      <trkpt lat="41.85132" lon="0.32346752">
        <time>2022-07-07T08:41:21Z</time>
      </trkpt>
      <trkpt lat="41.85132" lon="0.32355252">
        <time>2022-07-07T08:41:23Z</time>
      </trkpt>
      <trkpt lat="41.851322" lon="0.3236315">
        <time>2022-07-07T08:41:25Z</time>
      </trkpt>
      <trkpt lat="41.851326" lon="0.32371417">
        <time>2022-07-07T08:41:27Z</time>
      </trkpt>
      <trkpt lat="41.851334" lon="0.3237985">
        <time>2022-07-07T08:41:29Z</time>
      </trkpt>
      <trkpt lat="41.851337" lon="0.32388017">
        <time>2022-07-07T08:41:31Z</time>
      </trkpt>
      <trkpt lat="41.85134" lon="0.3239585">
        <time>2022-07-07T08:41:33Z</time>
      </trkpt>
      <trkpt lat="41.851345" lon="0.3240415">
        <time>2022-07-07T08:41:35Z</time>
      </trkpt>
      <trkpt lat="41.85135" lon="0.3241295">
        <time>2022-07-07T08:41:37Z</time>
      </trkpt>
      <trkpt lat="41.851353" lon="0.3242195">
        <time>2022-07-07T08:41:39Z</time>
      </trkpt>
      <trkpt lat="41.851357" lon="0.32430583">
        <time>2022-07-07T08:41:41Z</time>
      </trkpt>
      <trkpt lat="41.85136" lon="0.32439214">
        <time>2022-07-07T08:41:43Z</time>
      </trkpt>
      <trkpt lat="41.851364" lon="0.32447815">
        <time>2022-07-07T08:41:45Z</time>
      </trkpt>
      <trkpt lat="41.85137" lon="0.32456547">
        <time>2022-07-07T08:41:47Z</time>
      </trkpt>
      <trkpt lat="41.851376" lon="0.32465014">
        <time>2022-07-07T08:41:49Z</time>
      </trkpt>
      <trkpt lat="41.851383" lon="0.32474247">
        <time>2022-07-07T08:41:51Z</time>
      </trkpt>
      <trkpt lat="41.851387" lon="0.3248298">
        <time>2022-07-07T08:41:53Z</time>
      </trkpt>
      <trkpt lat="41.85139" lon="0.32491747">
        <time>2022-07-07T08:41:55Z</time>
      </trkpt>
      <trkpt lat="41.8514" lon="0.32500678">
        <time>2022-07-07T08:41:57Z</time>
      </trkpt>
      <trkpt lat="41.851402" lon="0.3250901">
        <time>2022-07-07T08:41:59Z</time>
      </trkpt>
      <trkpt lat="41.85141" lon="0.32517546">
        <time>2022-07-07T08:42:01Z</time>
      </trkpt>
      <trkpt lat="41.851414" lon="0.3252588">
        <time>2022-07-07T08:42:03Z</time>
      </trkpt>
      <trkpt lat="41.85142" lon="0.32534143">
        <time>2022-07-07T08:42:05Z</time>
      </trkpt>
      <trkpt lat="41.85143" lon="0.32542977">
        <time>2022-07-07T08:42:07Z</time>
      </trkpt>
      <trkpt lat="41.851437" lon="0.32551342">
        <time>2022-07-07T08:42:09Z</time>
      </trkpt>
      <trkpt lat="41.85144" lon="0.32559708">
        <time>2022-07-07T08:42:11Z</time>
      </trkpt>
      <trkpt lat="41.851444" lon="0.32567874">
        <time>2022-07-07T08:42:13Z</time>
      </trkpt>
      <trkpt lat="41.851448" lon="0.32576442">
        <time>2022-07-07T08:42:15Z</time>
      </trkpt>
      <trkpt lat="41.85145" lon="0.3258514">
        <time>2022-07-07T08:42:17Z</time>
      </trkpt>
      <trkpt lat="41.85145" lon="0.32593906">
        <time>2022-07-07T08:42:19Z</time>
      </trkpt>
      <trkpt lat="41.851456" lon="0.32602507">
        <time>2022-07-07T08:42:21Z</time>
      </trkpt>
      <trkpt lat="41.851456" lon="0.3261084">
        <time>2022-07-07T08:42:23Z</time>
      </trkpt>
      <trkpt lat="41.85146" lon="0.3261994">
        <time>2022-07-07T08:42:25Z</time>
      </trkpt>
      <trkpt lat="41.851463" lon="0.32628873">
        <time>2022-07-07T08:42:27Z</time>
      </trkpt>
      <trkpt lat="41.851467" lon="0.32637805">
        <time>2022-07-07T08:42:29Z</time>
      </trkpt>
      <trkpt lat="41.85147" lon="0.32647073">
        <time>2022-07-07T08:42:31Z</time>
      </trkpt>
      <trkpt lat="41.85147" lon="0.32655373">
        <time>2022-07-07T08:42:33Z</time>
      </trkpt>
      <trkpt lat="41.85148" lon="0.32664537">
        <time>2022-07-07T08:42:35Z</time>
      </trkpt>
      <trkpt lat="41.851486" lon="0.32673803">
        <time>2022-07-07T08:42:37Z</time>
      </trkpt>
      <trkpt lat="41.85149" lon="0.3268337">
        <time>2022-07-07T08:42:39Z</time>
      </trkpt>
      <trkpt lat="41.851494" lon="0.32692704">
        <time>2022-07-07T08:42:41Z</time>
      </trkpt>
      <trkpt lat="41.851498" lon="0.32701635">
        <time>2022-07-07T08:42:43Z</time>
      </trkpt>
      <trkpt lat="41.8515" lon="0.32710835">
        <time>2022-07-07T08:42:45Z</time>
      </trkpt>
      <trkpt lat="41.851505" lon="0.3272057">
        <time>2022-07-07T08:42:47Z</time>
      </trkpt>
      <trkpt lat="41.85151" lon="0.32730302">
        <time>2022-07-07T08:42:49Z</time>
      </trkpt>
      <trkpt lat="41.851513" lon="0.32740003">
        <time>2022-07-07T08:42:51Z</time>
      </trkpt>
      <trkpt lat="41.85152" lon="0.327497">
        <time>2022-07-07T08:42:53Z</time>
      </trkpt>
      <trkpt lat="41.851524" lon="0.32759535">
        <time>2022-07-07T08:42:55Z</time>
      </trkpt>
      <trkpt lat="41.85153" lon="0.32769534">
        <time>2022-07-07T08:42:57Z</time>
      </trkpt>
      <trkpt lat="41.851532" lon="0.32779402">
        <time>2022-07-07T08:42:59Z</time>
      </trkpt>
      <trkpt lat="41.851536" lon="0.327892">
        <time>2022-07-07T08:43:01Z</time>
      </trkpt>
      <trkpt lat="41.851543" lon="0.32799068">
        <time>2022-07-07T08:43:03Z</time>
      </trkpt>
      <trkpt lat="41.85155" lon="0.328089">
        <time>2022-07-07T08:43:05Z</time>
      </trkpt>
      <trkpt lat="41.851555" lon="0.32818767">
        <time>2022-07-07T08:43:07Z</time>
      </trkpt>
      <trkpt lat="41.851562" lon="0.328284">
        <time>2022-07-07T08:43:09Z</time>
      </trkpt>
      <trkpt lat="41.851566" lon="0.32838064">
        <time>2022-07-07T08:43:11Z</time>
      </trkpt>
      <trkpt lat="41.851574" lon="0.32847697">
        <time>2022-07-07T08:43:13Z</time>
      </trkpt>
      <trkpt lat="41.851578" lon="0.3285753">
        <time>2022-07-07T08:43:15Z</time>
      </trkpt>
      <trkpt lat="41.85158" lon="0.3286753">
        <time>2022-07-07T08:43:17Z</time>
      </trkpt>
      <trkpt lat="41.85159" lon="0.32882798">
        <time>2022-07-07T08:43:20Z</time>
      </trkpt>
      <trkpt lat="41.851597" lon="0.32893297">
        <time>2022-07-07T08:43:22Z</time>
      </trkpt>
      <trkpt lat="41.8516" lon="0.32904062">
        <time>2022-07-07T08:43:24Z</time>
      </trkpt>
      <trkpt lat="41.85161" lon="0.32915163">
        <time>2022-07-07T08:43:26Z</time>
      </trkpt>
      <trkpt lat="41.851616" lon="0.32926664">
        <time>2022-07-07T08:43:28Z</time>
      </trkpt>
      <trkpt lat="41.851624" lon="0.32938063">
        <time>2022-07-07T08:43:30Z</time>
      </trkpt>
      <trkpt lat="41.851627" lon="0.3294993">
        <time>2022-07-07T08:43:32Z</time>
      </trkpt>
      <trkpt lat="41.851635" lon="0.32962063">
        <time>2022-07-07T08:43:34Z</time>
      </trkpt>
      <trkpt lat="41.85164" lon="0.32974696">
        <time>2022-07-07T08:43:36Z</time>
      </trkpt>
      <trkpt lat="41.851646" lon="0.32987362">
        <time>2022-07-07T08:43:38Z</time>
      </trkpt>
      <trkpt lat="41.85165" lon="0.32999927">
        <time>2022-07-07T08:43:40Z</time>
      </trkpt>
      <trkpt lat="41.851654" lon="0.33013394">
        <time>2022-07-07T08:43:42Z</time>
      </trkpt>
      <trkpt lat="41.851658" lon="0.3301946">
        <time>2022-07-07T08:43:43Z</time>
      </trkpt>
      <trkpt lat="41.851665" lon="0.33032158">
        <time>2022-07-07T08:43:45Z</time>
      </trkpt>
      <trkpt lat="41.85167" lon="0.33044958">
        <time>2022-07-07T08:43:47Z</time>
      </trkpt>
      <trkpt lat="41.851673" lon="0.3305806">
        <time>2022-07-07T08:43:49Z</time>
      </trkpt>
      <trkpt lat="41.851677" lon="0.33064893">
        <time>2022-07-07T08:43:50Z</time>
      </trkpt>
      <trkpt lat="41.85168" lon="0.3307169">
        <time>2022-07-07T08:43:51Z</time>
      </trkpt>
      <trkpt lat="41.851685" lon="0.33078057">
        <time>2022-07-07T08:43:52Z</time>
      </trkpt>
      <trkpt lat="41.851692" lon="0.3309159">
        <time>2022-07-07T08:43:54Z</time>
      </trkpt>
      <trkpt lat="41.851704" lon="0.3310599">
        <time>2022-07-07T08:43:56Z</time>
      </trkpt>
      <trkpt lat="41.851707" lon="0.33112958">
        <time>2022-07-07T08:43:57Z</time>
      </trkpt>
      <trkpt lat="41.85171" lon="0.33119857">
        <time>2022-07-07T08:43:58Z</time>
      </trkpt>
      <trkpt lat="41.85172" lon="0.33126658">
        <time>2022-07-07T08:43:59Z</time>
      </trkpt>
      <trkpt lat="41.851727" lon="0.33140323">
        <time>2022-07-07T08:44:01Z</time>
      </trkpt>
      <trkpt lat="41.85173" lon="0.33146924">
        <time>2022-07-07T08:44:02Z</time>
      </trkpt>
      <trkpt lat="41.851738" lon="0.33160457">
        <time>2022-07-07T08:44:04Z</time>
      </trkpt>
      <trkpt lat="41.85174" lon="0.33167288">
        <time>2022-07-07T08:44:05Z</time>
      </trkpt>
      <trkpt lat="41.85176" lon="0.3320349">
        <time>2022-07-07T08:44:09Z</time>
      </trkpt>
      <trkpt lat="41.851765" lon="0.33217055">
        <time>2022-07-07T08:44:12Z</time>
      </trkpt>
      <trkpt lat="41.85177" lon="0.33229822">
        <time>2022-07-07T08:44:14Z</time>
      </trkpt>
      <trkpt lat="41.851772" lon="0.33243486">
        <time>2022-07-07T08:44:16Z</time>
      </trkpt>
      <trkpt lat="41.851772" lon="0.3325002">
        <time>2022-07-07T08:44:17Z</time>
      </trkpt>
      <trkpt lat="41.85178" lon="0.33264154">
        <time>2022-07-07T08:44:19Z</time>
      </trkpt>
      <trkpt lat="41.85178" lon="0.33271018">
        <time>2022-07-07T08:44:20Z</time>
      </trkpt>
      <trkpt lat="41.851788" lon="0.3328512">
        <time>2022-07-07T08:44:22Z</time>
      </trkpt>
      <trkpt lat="41.851795" lon="0.33300284">
        <time>2022-07-07T08:44:24Z</time>
      </trkpt>
      <trkpt lat="41.8518" lon="0.33307284">
        <time>2022-07-07T08:44:25Z</time>
      </trkpt>
      <trkpt lat="41.851803" lon="0.33314285">
        <time>2022-07-07T08:44:26Z</time>
      </trkpt>
      <trkpt lat="41.851814" lon="0.33328986">
        <time>2022-07-07T08:44:28Z</time>
      </trkpt>
      <trkpt lat="41.851818" lon="0.33336285">
        <time>2022-07-07T08:44:29Z</time>
      </trkpt>
      <trkpt lat="41.851826" lon="0.33344218">
        <time>2022-07-07T08:44:30Z</time>
      </trkpt>
      <trkpt lat="41.851826" lon="0.33352083">
        <time>2022-07-07T08:44:31Z</time>
      </trkpt>
      <trkpt lat="41.85183" lon="0.33359483">
        <time>2022-07-07T08:44:32Z</time>
      </trkpt>
      <trkpt lat="41.851837" lon="0.3336695">
        <time>2022-07-07T08:44:33Z</time>
      </trkpt>
      <trkpt lat="41.851845" lon="0.33374584">
        <time>2022-07-07T08:44:34Z</time>
      </trkpt>
      <trkpt lat="41.851856" lon="0.3338235">
        <time>2022-07-07T08:44:35Z</time>
      </trkpt>
      <trkpt lat="41.851864" lon="0.3339015">
        <time>2022-07-07T08:44:36Z</time>
      </trkpt>
      <trkpt lat="41.851868" lon="0.3339838">
        <time>2022-07-07T08:44:37Z</time>
      </trkpt>
      <trkpt lat="41.851875" lon="0.33406547">
        <time>2022-07-07T08:44:38Z</time>
      </trkpt>
      <trkpt lat="41.85188" lon="0.33414114">
        <time>2022-07-07T08:44:39Z</time>
      </trkpt>
      <trkpt lat="41.851883" lon="0.33422413">
        <time>2022-07-07T08:44:40Z</time>
      </trkpt>
      <trkpt lat="41.851883" lon="0.33430615">
        <time>2022-07-07T08:44:41Z</time>
      </trkpt>
      <trkpt lat="41.851883" lon="0.33438846">
        <time>2022-07-07T08:44:42Z</time>
      </trkpt>
      <trkpt lat="41.851883" lon="0.33446813">
        <time>2022-07-07T08:44:43Z</time>
      </trkpt>
      <trkpt lat="41.851887" lon="0.33454445">
        <time>2022-07-07T08:44:44Z</time>
      </trkpt>
      <trkpt lat="41.851887" lon="0.3346178">
        <time>2022-07-07T08:44:45Z</time>
      </trkpt>
      <trkpt lat="41.85189" lon="0.3346891">
        <time>2022-07-07T08:44:46Z</time>
      </trkpt>
      <trkpt lat="41.85189" lon="0.33475912">
        <time>2022-07-07T08:44:47Z</time>
      </trkpt>
      <trkpt lat="41.851894" lon="0.33482713">
        <time>2022-07-07T08:44:48Z</time>
      </trkpt>
      <trkpt lat="41.851894" lon="0.33489278">
        <time>2022-07-07T08:44:49Z</time>
      </trkpt>
      <trkpt lat="41.851894" lon="0.3350218">
        <time>2022-07-07T08:44:51Z</time>
      </trkpt>
      <trkpt lat="41.8519" lon="0.33514544">
        <time>2022-07-07T08:44:53Z</time>
      </trkpt>
      <trkpt lat="41.851902" lon="0.33526576">
        <time>2022-07-07T08:44:55Z</time>
      </trkpt>
      <trkpt lat="41.851902" lon="0.3353821">
        <time>2022-07-07T08:44:57Z</time>
      </trkpt>
      <trkpt lat="41.851906" lon="0.3354931">
        <time>2022-07-07T08:44:59Z</time>
      </trkpt>
      <trkpt lat="41.851913" lon="0.3356021">
        <time>2022-07-07T08:45:01Z</time>
      </trkpt>
      <trkpt lat="41.851913" lon="0.33571142">
        <time>2022-07-07T08:45:03Z</time>
      </trkpt>
      <trkpt lat="41.851917" lon="0.33582443">
        <time>2022-07-07T08:45:05Z</time>
      </trkpt>
      <trkpt lat="41.85192" lon="0.33593443">
        <time>2022-07-07T08:45:07Z</time>
      </trkpt>
      <trkpt lat="41.851925" lon="0.33605543">
        <time>2022-07-07T08:45:09Z</time>
      </trkpt>
      <trkpt lat="41.85193" lon="0.33618242">
        <time>2022-07-07T08:45:11Z</time>
      </trkpt>
      <trkpt lat="41.851933" lon="0.3363061">
        <time>2022-07-07T08:45:13Z</time>
      </trkpt>
      <trkpt lat="41.851936" lon="0.3364401">
        <time>2022-07-07T08:45:15Z</time>
      </trkpt>
      <trkpt lat="41.851936" lon="0.33650342">
        <time>2022-07-07T08:45:16Z</time>
      </trkpt>
      <trkpt lat="41.851944" lon="0.3366334">
        <time>2022-07-07T08:45:18Z</time>
      </trkpt>
      <trkpt lat="41.851948" lon="0.33676708">
        <time>2022-07-07T08:45:20Z</time>
      </trkpt>
      <trkpt lat="41.851948" lon="0.33684042">
        <time>2022-07-07T08:45:21Z</time>
      </trkpt>
      <trkpt lat="41.85195" lon="0.33691275">
        <time>2022-07-07T08:45:22Z</time>
      </trkpt>
      <trkpt lat="41.851955" lon="0.3369844">
        <time>2022-07-07T08:45:23Z</time>
      </trkpt>
      <trkpt lat="41.851955" lon="0.33705473">
        <time>2022-07-07T08:45:24Z</time>
      </trkpt>
      <trkpt lat="41.85196" lon="0.33712506">
        <time>2022-07-07T08:45:25Z</time>
      </trkpt>
      <trkpt lat="41.851963" lon="0.3371954">
        <time>2022-07-07T08:45:26Z</time>
      </trkpt>
      <trkpt lat="41.851967" lon="0.33733106">
        <time>2022-07-07T08:45:28Z</time>
      </trkpt>
      <trkpt lat="41.85197" lon="0.33739772">
        <time>2022-07-07T08:45:29Z</time>
      </trkpt>
      <trkpt lat="41.851974" lon="0.33746436">
        <time>2022-07-07T08:45:30Z</time>
      </trkpt>
      <trkpt lat="41.85198" lon="0.33759704">
        <time>2022-07-07T08:45:32Z</time>
      </trkpt>
      <trkpt lat="41.851986" lon="0.33772868">
        <time>2022-07-07T08:45:34Z</time>
      </trkpt>
      <trkpt lat="41.851994" lon="0.33786136">
        <time>2022-07-07T08:45:36Z</time>
      </trkpt>
      <trkpt lat="41.852005" lon="0.337996">
        <time>2022-07-07T08:45:38Z</time>
      </trkpt>
      <trkpt lat="41.852013" lon="0.33813167">
        <time>2022-07-07T08:45:40Z</time>
      </trkpt>
      <trkpt lat="41.852013" lon="0.33819267">
        <time>2022-07-07T08:45:41Z</time>
      </trkpt>
      <trkpt lat="41.85202" lon="0.33831066">
        <time>2022-07-07T08:45:43Z</time>
      </trkpt>
      <trkpt lat="41.852028" lon="0.33842832">
        <time>2022-07-07T08:45:45Z</time>
      </trkpt>
      <trkpt lat="41.852036" lon="0.33854198">
        <time>2022-07-07T08:45:47Z</time>
      </trkpt>
      <trkpt lat="41.85204" lon="0.33865">
        <time>2022-07-07T08:45:49Z</time>
      </trkpt>
      <trkpt lat="41.852047" lon="0.3387533">
        <time>2022-07-07T08:45:51Z</time>
      </trkpt>
      <trkpt lat="41.85205" lon="0.33885565">
        <time>2022-07-07T08:45:53Z</time>
      </trkpt>
      <trkpt lat="41.852055" lon="0.33895898">
        <time>2022-07-07T08:45:55Z</time>
      </trkpt>
      <trkpt lat="41.852062" lon="0.33905998">
        <time>2022-07-07T08:45:57Z</time>
      </trkpt>
      <trkpt lat="41.852066" lon="0.3391583">
        <time>2022-07-07T08:45:59Z</time>
      </trkpt>
      <trkpt lat="41.85207" lon="0.33924797">
        <time>2022-07-07T08:46:01Z</time>
      </trkpt>
      <trkpt lat="41.852077" lon="0.33933198">
        <time>2022-07-07T08:46:03Z</time>
      </trkpt>
      <trkpt lat="41.85208" lon="0.33941662">
        <time>2022-07-07T08:46:05Z</time>
      </trkpt>
      <trkpt lat="41.852085" lon="0.33949795">
        <time>2022-07-07T08:46:07Z</time>
      </trkpt>
      <trkpt lat="41.852085" lon="0.3395763">
        <time>2022-07-07T08:46:09Z</time>
      </trkpt>
      <trkpt lat="41.85209" lon="0.3396583">
        <time>2022-07-07T08:46:11Z</time>
      </trkpt>
      <trkpt lat="41.852093" lon="0.33973995">
        <time>2022-07-07T08:46:13Z</time>
      </trkpt>
      <trkpt lat="41.852097" lon="0.3398216">
        <time>2022-07-07T08:46:15Z</time>
      </trkpt>
      <trkpt lat="41.852097" lon="0.33990526">
        <time>2022-07-07T08:46:17Z</time>
      </trkpt>
      <trkpt lat="41.8521" lon="0.33998793">
        <time>2022-07-07T08:46:19Z</time>
      </trkpt>
      <trkpt lat="41.852108" lon="0.34007794">
        <time>2022-07-07T08:46:21Z</time>
      </trkpt>
      <trkpt lat="41.85211" lon="0.3401646">
        <time>2022-07-07T08:46:23Z</time>
      </trkpt>
      <trkpt lat="41.852116" lon="0.34025592">
        <time>2022-07-07T08:46:25Z</time>
      </trkpt>
      <trkpt lat="41.85212" lon="0.34034458">
        <time>2022-07-07T08:46:27Z</time>
      </trkpt>
      <trkpt lat="41.852123" lon="0.3404329">
        <time>2022-07-07T08:46:29Z</time>
      </trkpt>
      <trkpt lat="41.85213" lon="0.34052092">
        <time>2022-07-07T08:46:31Z</time>
      </trkpt>
      <trkpt lat="41.852135" lon="0.34065092">
        <time>2022-07-07T08:46:34Z</time>
      </trkpt>
      <trkpt lat="41.852142" lon="0.34073824">
        <time>2022-07-07T08:46:36Z</time>
      </trkpt>
      <trkpt lat="41.852146" lon="0.34082356">
        <time>2022-07-07T08:46:38Z</time>
      </trkpt>
      <trkpt lat="41.85215" lon="0.34090722">
        <time>2022-07-07T08:46:40Z</time>
      </trkpt>
      <trkpt lat="41.852154" lon="0.34099522">
        <time>2022-07-07T08:46:42Z</time>
      </trkpt>
      <trkpt lat="41.852158" lon="0.3410809">
        <time>2022-07-07T08:46:44Z</time>
      </trkpt>
      <trkpt lat="41.85216" lon="0.34116554">
        <time>2022-07-07T08:46:46Z</time>
      </trkpt>
      <trkpt lat="41.85217" lon="0.3412502">
        <time>2022-07-07T08:46:48Z</time>
      </trkpt>
      <trkpt lat="41.852173" lon="0.34133255">
        <time>2022-07-07T08:46:50Z</time>
      </trkpt>
      <trkpt lat="41.852177" lon="0.3414152">
        <time>2022-07-07T08:46:52Z</time>
      </trkpt>
      <trkpt lat="41.85218" lon="0.3414982">
        <time>2022-07-07T08:46:54Z</time>
      </trkpt>
      <trkpt lat="41.852184" lon="0.34158054">
        <time>2022-07-07T08:46:56Z</time>
      </trkpt>
      <trkpt lat="41.85219" lon="0.34166452">
        <time>2022-07-07T08:46:58Z</time>
      </trkpt>
      <trkpt lat="41.852192" lon="0.34174818">
        <time>2022-07-07T08:47:00Z</time>
      </trkpt>
      <trkpt lat="41.852196" lon="0.34183118">
        <time>2022-07-07T08:47:02Z</time>
      </trkpt>
      <trkpt lat="41.8522" lon="0.34191418">
        <time>2022-07-07T08:47:04Z</time>
      </trkpt>
      <trkpt lat="41.852203" lon="0.34199718">
        <time>2022-07-07T08:47:06Z</time>
      </trkpt>
      <trkpt lat="41.852207" lon="0.34207985">
        <time>2022-07-07T08:47:08Z</time>
      </trkpt>
      <trkpt lat="41.85221" lon="0.34216386">
        <time>2022-07-07T08:47:10Z</time>
      </trkpt>
      <trkpt lat="41.852215" lon="0.3422472">
        <time>2022-07-07T08:47:12Z</time>
      </trkpt>
      <trkpt lat="41.852222" lon="0.34233084">
        <time>2022-07-07T08:47:14Z</time>
      </trkpt>
      <trkpt lat="41.852226" lon="0.3424155">
        <time>2022-07-07T08:47:16Z</time>
      </trkpt>
      <trkpt lat="41.852234" lon="0.34250116">
        <time>2022-07-07T08:47:18Z</time>
      </trkpt>
      <trkpt lat="41.852238" lon="0.34258783">
        <time>2022-07-07T08:47:20Z</time>
      </trkpt>
      <trkpt lat="41.85224" lon="0.34267348">
        <time>2022-07-07T08:47:22Z</time>
      </trkpt>
      <trkpt lat="41.852245" lon="0.34275982">
        <time>2022-07-07T08:47:24Z</time>
      </trkpt>
      <trkpt lat="41.85225" lon="0.34284714">
        <time>2022-07-07T08:47:26Z</time>
      </trkpt>
      <trkpt lat="41.852253" lon="0.34293446">
        <time>2022-07-07T08:47:28Z</time>
      </trkpt>
      <trkpt lat="41.852257" lon="0.34302446">
        <time>2022-07-07T08:47:30Z</time>
      </trkpt>
      <trkpt lat="41.85226" lon="0.3431158">
        <time>2022-07-07T08:47:32Z</time>
      </trkpt>
      <trkpt lat="41.85227" lon="0.34320447">
        <time>2022-07-07T08:47:34Z</time>
      </trkpt>
      <trkpt lat="41.852272" lon="0.34330112">
        <time>2022-07-07T08:47:36Z</time>
      </trkpt>
      <trkpt lat="41.852276" lon="0.34339446">
        <time>2022-07-07T08:47:38Z</time>
      </trkpt>
      <trkpt lat="41.85228" lon="0.3434958">
        <time>2022-07-07T08:47:40Z</time>
      </trkpt>
      <trkpt lat="41.852283" lon="0.34359345">
        <time>2022-07-07T08:47:42Z</time>
      </trkpt>
      <trkpt lat="41.852287" lon="0.34368843">
        <time>2022-07-07T08:47:44Z</time>
      </trkpt>
      <trkpt lat="41.852295" lon="0.34378344">
        <time>2022-07-07T08:47:46Z</time>
      </trkpt>
      <trkpt lat="41.8523" lon="0.34388044">
        <time>2022-07-07T08:47:48Z</time>
      </trkpt>
      <trkpt lat="41.8523" lon="0.3439731">
        <time>2022-07-07T08:47:50Z</time>
      </trkpt>
      <trkpt lat="41.852303" lon="0.34406844">
        <time>2022-07-07T08:47:52Z</time>
      </trkpt>
      <trkpt lat="41.852303" lon="0.34416544">
        <time>2022-07-07T08:47:54Z</time>
      </trkpt>
      <trkpt lat="41.85231" lon="0.34425977">
        <time>2022-07-07T08:47:56Z</time>
      </trkpt>
      <trkpt lat="41.852314" lon="0.34434876">
        <time>2022-07-07T08:47:58Z</time>
      </trkpt>
      <trkpt lat="41.852318" lon="0.34443575">
        <time>2022-07-07T08:48:00Z</time>
      </trkpt>
      <trkpt lat="41.85232" lon="0.3445251">
        <time>2022-07-07T08:48:02Z</time>
      </trkpt>
      <trkpt lat="41.852325" lon="0.3446081">
        <time>2022-07-07T08:48:04Z</time>
      </trkpt>
      <trkpt lat="41.852325" lon="0.34468675">
        <time>2022-07-07T08:48:06Z</time>
      </trkpt>
      <trkpt lat="41.852333" lon="0.34476507">
        <time>2022-07-07T08:48:08Z</time>
      </trkpt>
      <trkpt lat="41.852337" lon="0.3448424">
        <time>2022-07-07T08:48:10Z</time>
      </trkpt>
      <trkpt lat="41.852337" lon="0.34491774">
        <time>2022-07-07T08:48:12Z</time>
      </trkpt>
      <trkpt lat="41.85234" lon="0.34499007">
        <time>2022-07-07T08:48:14Z</time>
      </trkpt>
      <trkpt lat="41.852345" lon="0.3450684">
        <time>2022-07-07T08:48:16Z</time>
      </trkpt>
      <trkpt lat="41.852352" lon="0.34514272">
        <time>2022-07-07T08:48:18Z</time>
      </trkpt>
      <trkpt lat="41.85236" lon="0.34521374">
        <time>2022-07-07T08:48:20Z</time>
      </trkpt>
      <trkpt lat="41.852364" lon="0.34528774">
        <time>2022-07-07T08:48:22Z</time>
      </trkpt>
      <trkpt lat="41.85237" lon="0.34536174">
        <time>2022-07-07T08:48:24Z</time>
      </trkpt>
      <trkpt lat="41.852375" lon="0.3454364">
        <time>2022-07-07T08:48:26Z</time>
      </trkpt>
      <trkpt lat="41.85238" lon="0.34551004">
        <time>2022-07-07T08:48:28Z</time>
      </trkpt>
      <trkpt lat="41.85238" lon="0.34558004">
        <time>2022-07-07T08:48:30Z</time>
      </trkpt>
      <trkpt lat="41.852383" lon="0.34565204">
        <time>2022-07-07T08:48:32Z</time>
      </trkpt>
      <trkpt lat="41.852386" lon="0.34572437">
        <time>2022-07-07T08:48:34Z</time>
      </trkpt>
      <trkpt lat="41.852386" lon="0.34579837">
        <time>2022-07-07T08:48:36Z</time>
      </trkpt>
      <trkpt lat="41.85239" lon="0.34587303">
        <time>2022-07-07T08:48:38Z</time>
      </trkpt>
      <trkpt lat="41.852394" lon="0.34594804">
        <time>2022-07-07T08:48:40Z</time>
      </trkpt>
      <trkpt lat="41.852394" lon="0.34602204">
        <time>2022-07-07T08:48:42Z</time>
      </trkpt>
      <trkpt lat="41.852394" lon="0.34609604">
        <time>2022-07-07T08:48:44Z</time>
      </trkpt>
      <trkpt lat="41.852398" lon="0.34617403">
        <time>2022-07-07T08:48:46Z</time>
      </trkpt>
      <trkpt lat="41.852406" lon="0.34624803">
        <time>2022-07-07T08:48:48Z</time>
      </trkpt>
      <trkpt lat="41.85241" lon="0.3463227">
        <time>2022-07-07T08:48:50Z</time>
      </trkpt>
      <trkpt lat="41.852413" lon="0.3463917">
        <time>2022-07-07T08:48:52Z</time>
      </trkpt>
      <trkpt lat="41.852417" lon="0.34646404">
        <time>2022-07-07T08:48:54Z</time>
      </trkpt>
      <trkpt lat="41.85242" lon="0.34653637">
        <time>2022-07-07T08:48:56Z</time>
      </trkpt>
      <trkpt lat="41.852425" lon="0.34661102">
        <time>2022-07-07T08:48:58Z</time>
      </trkpt>
      <trkpt lat="41.85243" lon="0.34668934">
        <time>2022-07-07T08:49:00Z</time>
      </trkpt>
      <trkpt lat="41.852432" lon="0.346762">
        <time>2022-07-07T08:49:02Z</time>
      </trkpt>
      <trkpt lat="41.852436" lon="0.34684002">
        <time>2022-07-07T08:49:04Z</time>
      </trkpt>
      <trkpt lat="41.85244" lon="0.346913">
        <time>2022-07-07T08:49:06Z</time>
      </trkpt>
      <trkpt lat="41.852444" lon="0.34698802">
        <time>2022-07-07T08:49:08Z</time>
      </trkpt>
      <trkpt lat="41.852448" lon="0.34706333">
        <time>2022-07-07T08:49:10Z</time>
      </trkpt>
      <trkpt lat="41.85245" lon="0.34713933">
        <time>2022-07-07T08:49:12Z</time>
      </trkpt>
      <trkpt lat="41.85245" lon="0.34721568">
        <time>2022-07-07T08:49:14Z</time>
      </trkpt>
      <trkpt lat="41.85246" lon="0.34729066">
        <time>2022-07-07T08:49:16Z</time>
      </trkpt>
      <trkpt lat="41.852463" lon="0.34736466">
        <time>2022-07-07T08:49:18Z</time>
      </trkpt>
      <trkpt lat="41.852467" lon="0.34744033">
        <time>2022-07-07T08:49:20Z</time>
      </trkpt>
      <trkpt lat="41.852467" lon="0.34751567">
        <time>2022-07-07T08:49:22Z</time>
      </trkpt>
      <trkpt lat="41.852474" lon="0.3475913">
        <time>2022-07-07T08:49:24Z</time>
      </trkpt>
      <trkpt lat="41.85248" lon="0.34766832">
        <time>2022-07-07T08:49:26Z</time>
      </trkpt>
      <trkpt lat="41.852486" lon="0.34774697">
        <time>2022-07-07T08:49:28Z</time>
      </trkpt>
      <trkpt lat="41.852493" lon="0.34781832">
        <time>2022-07-07T08:49:30Z</time>
      </trkpt>
      <trkpt lat="41.852493" lon="0.34789565">
        <time>2022-07-07T08:49:32Z</time>
      </trkpt>
      <trkpt lat="41.852497" lon="0.3479703">
        <time>2022-07-07T08:49:34Z</time>
      </trkpt>
      <trkpt lat="41.8525" lon="0.34804463">
        <time>2022-07-07T08:49:36Z</time>
      </trkpt>
      <trkpt lat="41.8525" lon="0.34811962">
        <time>2022-07-07T08:49:38Z</time>
      </trkpt>
      <trkpt lat="41.85251" lon="0.34819564">
        <time>2022-07-07T08:49:40Z</time>
      </trkpt>
      <trkpt lat="41.852512" lon="0.34827095">
        <time>2022-07-07T08:49:42Z</time>
      </trkpt>
      <trkpt lat="41.85252" lon="0.34834397">
        <time>2022-07-07T08:49:44Z</time>
      </trkpt>
      <trkpt lat="41.852524" lon="0.34841597">
        <time>2022-07-07T08:49:46Z</time>
      </trkpt>
      <trkpt lat="41.852528" lon="0.34848762">
        <time>2022-07-07T08:49:48Z</time>
      </trkpt>
      <trkpt lat="41.85253" lon="0.34856296">
        <time>2022-07-07T08:49:50Z</time>
      </trkpt>
      <trkpt lat="41.852535" lon="0.3486376">
        <time>2022-07-07T08:49:52Z</time>
      </trkpt>
      <trkpt lat="41.85254" lon="0.3487116">
        <time>2022-07-07T08:49:54Z</time>
      </trkpt>
      <trkpt lat="41.852543" lon="0.3487856">
        <time>2022-07-07T08:49:56Z</time>
      </trkpt>
      <trkpt lat="41.852547" lon="0.34886026">
        <time>2022-07-07T08:49:58Z</time>
      </trkpt>
      <trkpt lat="41.85255" lon="0.3489336">
        <time>2022-07-07T08:50:00Z</time>
      </trkpt>
      <trkpt lat="41.85256" lon="0.34900826">
        <time>2022-07-07T08:50:02Z</time>
      </trkpt>
      <trkpt lat="41.852562" lon="0.3490856">
        <time>2022-07-07T08:50:04Z</time>
      </trkpt>
      <trkpt lat="41.85257" lon="0.34916326">
        <time>2022-07-07T08:50:06Z</time>
      </trkpt>
      <trkpt lat="41.852573" lon="0.34923726">
        <time>2022-07-07T08:50:08Z</time>
      </trkpt>
      <trkpt lat="41.85258" lon="0.34931126">
        <time>2022-07-07T08:50:10Z</time>
      </trkpt>
      <trkpt lat="41.85259" lon="0.3493836">
        <time>2022-07-07T08:50:12Z</time>
      </trkpt>
      <trkpt lat="41.852596" lon="0.34945858">
        <time>2022-07-07T08:50:14Z</time>
      </trkpt>
      <trkpt lat="41.852604" lon="0.34953192">
        <time>2022-07-07T08:50:16Z</time>
      </trkpt>
      <trkpt lat="41.85261" lon="0.34960756">
        <time>2022-07-07T08:50:18Z</time>
      </trkpt>
      <trkpt lat="41.85262" lon="0.34968522">
        <time>2022-07-07T08:50:20Z</time>
      </trkpt>
      <trkpt lat="41.852627" lon="0.34976023">
        <time>2022-07-07T08:50:22Z</time>
      </trkpt>
      <trkpt lat="41.852634" lon="0.34983188">
        <time>2022-07-07T08:50:24Z</time>
      </trkpt>
      <trkpt lat="41.852642" lon="0.34990323">
        <time>2022-07-07T08:50:26Z</time>
      </trkpt>
      <trkpt lat="41.85265" lon="0.34997687">
        <time>2022-07-07T08:50:28Z</time>
      </trkpt>
      <trkpt lat="41.852657" lon="0.35005122">
        <time>2022-07-07T08:50:30Z</time>
      </trkpt>
      <trkpt lat="41.852665" lon="0.35012722">
        <time>2022-07-07T08:50:32Z</time>
      </trkpt>
      <trkpt lat="41.852673" lon="0.35020322">
        <time>2022-07-07T08:50:34Z</time>
      </trkpt>
      <trkpt lat="41.852688" lon="0.3502782">
        <time>2022-07-07T08:50:36Z</time>
      </trkpt>
      <trkpt lat="41.852695" lon="0.35035753">
        <time>2022-07-07T08:50:38Z</time>
      </trkpt>
      <trkpt lat="41.852707" lon="0.35043687">
        <time>2022-07-07T08:50:40Z</time>
      </trkpt>
      <trkpt lat="41.852715" lon="0.35051486">
        <time>2022-07-07T08:50:42Z</time>
      </trkpt>
      <trkpt lat="41.852722" lon="0.35059252">
        <time>2022-07-07T08:50:44Z</time>
      </trkpt>
      <trkpt lat="41.852734" lon="0.3507092">
        <time>2022-07-07T08:50:47Z</time>
      </trkpt>
      <trkpt lat="41.852745" lon="0.35078984">
        <time>2022-07-07T08:50:49Z</time>
      </trkpt>
      <trkpt lat="41.852757" lon="0.35087085">
        <time>2022-07-07T08:50:51Z</time>
      </trkpt>
      <trkpt lat="41.85277" lon="0.35095286">
        <time>2022-07-07T08:50:53Z</time>
      </trkpt>
      <trkpt lat="41.852783" lon="0.35103318">
        <time>2022-07-07T08:50:55Z</time>
      </trkpt>
      <trkpt lat="41.85279" lon="0.35111484">
        <time>2022-07-07T08:50:57Z</time>
      </trkpt>
      <trkpt lat="41.852802" lon="0.35119784">
        <time>2022-07-07T08:50:59Z</time>
      </trkpt>
      <trkpt lat="41.852814" lon="0.3512815">
        <time>2022-07-07T08:51:01Z</time>
      </trkpt>
      <trkpt lat="41.85283" lon="0.3513655">
        <time>2022-07-07T08:51:03Z</time>
      </trkpt>
      <trkpt lat="41.85284" lon="0.3514515">
        <time>2022-07-07T08:51:05Z</time>
      </trkpt>
      <trkpt lat="41.852856" lon="0.3515415">
        <time>2022-07-07T08:51:07Z</time>
      </trkpt>
      <trkpt lat="41.85287" lon="0.3516355">
        <time>2022-07-07T08:51:09Z</time>
      </trkpt>
      <trkpt lat="41.852886" lon="0.35173216">
        <time>2022-07-07T08:51:11Z</time>
      </trkpt>
      <trkpt lat="41.8529" lon="0.35183415">
        <time>2022-07-07T08:51:13Z</time>
      </trkpt>
      <trkpt lat="41.852917" lon="0.35194016">
        <time>2022-07-07T08:51:15Z</time>
      </trkpt>
      <trkpt lat="41.852936" lon="0.35205016">
        <time>2022-07-07T08:51:17Z</time>
      </trkpt>
      <trkpt lat="41.852955" lon="0.35216415">
        <time>2022-07-07T08:51:19Z</time>
      </trkpt>
      <trkpt lat="41.852974" lon="0.35228416">
        <time>2022-07-07T08:51:21Z</time>
      </trkpt>
      <trkpt lat="41.852993" lon="0.3524075">
        <time>2022-07-07T08:51:23Z</time>
      </trkpt>
      <trkpt lat="41.853004" lon="0.3524715">
        <time>2022-07-07T08:51:24Z</time>
      </trkpt>
      <trkpt lat="41.853027" lon="0.35260314">
        <time>2022-07-07T08:51:26Z</time>
      </trkpt>
      <trkpt lat="41.85305" lon="0.35274115">
        <time>2022-07-07T08:51:28Z</time>
      </trkpt>
      <trkpt lat="41.85306" lon="0.35281247">
        <time>2022-07-07T08:51:29Z</time>
      </trkpt>
      <trkpt lat="41.853073" lon="0.3528848">
        <time>2022-07-07T08:51:30Z</time>
      </trkpt>
      <trkpt lat="41.853085" lon="0.3529598">
        <time>2022-07-07T08:51:31Z</time>
      </trkpt>
      <trkpt lat="41.853096" lon="0.35303113">
        <time>2022-07-07T08:51:32Z</time>
      </trkpt>
      <trkpt lat="41.853107" lon="0.3531068">
        <time>2022-07-07T08:51:33Z</time>
      </trkpt>
      <trkpt lat="41.85312" lon="0.35319147">
        <time>2022-07-07T08:51:34Z</time>
      </trkpt>
      <trkpt lat="41.853134" lon="0.35327646">
        <time>2022-07-07T08:51:35Z</time>
      </trkpt>
      <trkpt lat="41.853146" lon="0.3533618">
        <time>2022-07-07T08:51:36Z</time>
      </trkpt>
      <trkpt lat="41.85316" lon="0.35344812">
        <time>2022-07-07T08:51:37Z</time>
      </trkpt>
      <trkpt lat="41.853172" lon="0.35353413">
        <time>2022-07-07T08:51:38Z</time>
      </trkpt>
      <trkpt lat="41.853188" lon="0.35362145">
        <time>2022-07-07T08:51:39Z</time>
      </trkpt>
      <trkpt lat="41.853203" lon="0.3537091">
        <time>2022-07-07T08:51:40Z</time>
      </trkpt>
      <trkpt lat="41.853218" lon="0.35379678">
        <time>2022-07-07T08:51:41Z</time>
      </trkpt>
      <trkpt lat="41.853233" lon="0.3538861">
        <time>2022-07-07T08:51:42Z</time>
      </trkpt>
      <trkpt lat="41.853245" lon="0.35397542">
        <time>2022-07-07T08:51:43Z</time>
      </trkpt>
      <trkpt lat="41.85326" lon="0.3540651">
        <time>2022-07-07T08:51:44Z</time>
      </trkpt>
      <trkpt lat="41.853275" lon="0.35414875">
        <time>2022-07-07T08:51:45Z</time>
      </trkpt>
      <trkpt lat="41.853287" lon="0.35424042">
        <time>2022-07-07T08:51:46Z</time>
      </trkpt>
      <trkpt lat="41.853317" lon="0.35441375">
        <time>2022-07-07T08:51:48Z</time>
      </trkpt>
      <trkpt lat="41.853333" lon="0.3545094">
        <time>2022-07-07T08:51:49Z</time>
      </trkpt>
      <trkpt lat="41.853348" lon="0.35459772">
        <time>2022-07-07T08:51:50Z</time>
      </trkpt>
      <trkpt lat="41.853363" lon="0.35468706">
        <time>2022-07-07T08:51:51Z</time>
      </trkpt>
      <trkpt lat="41.853374" lon="0.35477772">
        <time>2022-07-07T08:51:52Z</time>
      </trkpt>
      <trkpt lat="41.85339" lon="0.3548757">
        <time>2022-07-07T08:51:53Z</time>
      </trkpt>
      <trkpt lat="41.853405" lon="0.3549724">
        <time>2022-07-07T08:51:54Z</time>
      </trkpt>
      <trkpt lat="41.85342" lon="0.35506737">
        <time>2022-07-07T08:51:55Z</time>
      </trkpt>
      <trkpt lat="41.853436" lon="0.35516238">
        <time>2022-07-07T08:51:56Z</time>
      </trkpt>
      <trkpt lat="41.85345" lon="0.35525605">
        <time>2022-07-07T08:51:57Z</time>
      </trkpt>
      <trkpt lat="41.853466" lon="0.35534805">
        <time>2022-07-07T08:51:58Z</time>
      </trkpt>
      <trkpt lat="41.85348" lon="0.35543805">
        <time>2022-07-07T08:51:59Z</time>
      </trkpt>
      <trkpt lat="41.853497" lon="0.35552004">
        <time>2022-07-07T08:52:00Z</time>
      </trkpt>
      <trkpt lat="41.85351" lon="0.3556087">
        <time>2022-07-07T08:52:01Z</time>
      </trkpt>
      <trkpt lat="41.853523" lon="0.35568935">
        <time>2022-07-07T08:52:02Z</time>
      </trkpt>
      <trkpt lat="41.85354" lon="0.3557697">
        <time>2022-07-07T08:52:03Z</time>
      </trkpt>
      <trkpt lat="41.85355" lon="0.35585436">
        <time>2022-07-07T08:52:04Z</time>
      </trkpt>
      <trkpt lat="41.853565" lon="0.35593736">
        <time>2022-07-07T08:52:05Z</time>
      </trkpt>
      <trkpt lat="41.853577" lon="0.35601735">
        <time>2022-07-07T08:52:06Z</time>
      </trkpt>
      <trkpt lat="41.853592" lon="0.35609034">
        <time>2022-07-07T08:52:07Z</time>
      </trkpt>
      <trkpt lat="41.853607" lon="0.3561687">
        <time>2022-07-07T08:52:08Z</time>
      </trkpt>
      <trkpt lat="41.85362" lon="0.356244">
        <time>2022-07-07T08:52:09Z</time>
      </trkpt>
      <trkpt lat="41.85363" lon="0.35631633">
        <time>2022-07-07T08:52:10Z</time>
      </trkpt>
      <trkpt lat="41.85364" lon="0.35638767">
        <time>2022-07-07T08:52:11Z</time>
      </trkpt>
      <trkpt lat="41.853653" lon="0.35645732">
        <time>2022-07-07T08:52:12Z</time>
      </trkpt>
      <trkpt lat="41.853664" lon="0.35652533">
        <time>2022-07-07T08:52:13Z</time>
      </trkpt>
      <trkpt lat="41.853676" lon="0.35659167">
        <time>2022-07-07T08:52:14Z</time>
      </trkpt>
      <trkpt lat="41.853695" lon="0.35672265">
        <time>2022-07-07T08:52:16Z</time>
      </trkpt>
      <trkpt lat="41.853718" lon="0.35685265">
        <time>2022-07-07T08:52:18Z</time>
      </trkpt>
      <trkpt lat="41.853737" lon="0.35698265">
        <time>2022-07-07T08:52:20Z</time>
      </trkpt>
      <trkpt lat="41.853756" lon="0.357112">
        <time>2022-07-07T08:52:22Z</time>
      </trkpt>
      <trkpt lat="41.853775" lon="0.35723764">
        <time>2022-07-07T08:52:24Z</time>
      </trkpt>
      <trkpt lat="41.853794" lon="0.35736164">
        <time>2022-07-07T08:52:26Z</time>
      </trkpt>
      <trkpt lat="41.853806" lon="0.35742298">
        <time>2022-07-07T08:52:27Z</time>
      </trkpt>
      <trkpt lat="41.853825" lon="0.35754764">
        <time>2022-07-07T08:52:29Z</time>
      </trkpt>
      <trkpt lat="41.853848" lon="0.3576763">
        <time>2022-07-07T08:52:31Z</time>
      </trkpt>
      <trkpt lat="41.85387" lon="0.35780397">
        <time>2022-07-07T08:52:33Z</time>
      </trkpt>
      <trkpt lat="41.8539" lon="0.3579716">
        <time>2022-07-07T08:52:36Z</time>
      </trkpt>
      <trkpt lat="41.853912" lon="0.3580483">
        <time>2022-07-07T08:52:37Z</time>
      </trkpt>
      <trkpt lat="41.853928" lon="0.3581216">
        <time>2022-07-07T08:52:38Z</time>
      </trkpt>
      <trkpt lat="41.85394" lon="0.35819227">
        <time>2022-07-07T08:52:39Z</time>
      </trkpt>
      <trkpt lat="41.85395" lon="0.35826093">
        <time>2022-07-07T08:52:40Z</time>
      </trkpt>
      <trkpt lat="41.853962" lon="0.35832894">
        <time>2022-07-07T08:52:41Z</time>
      </trkpt>
      <trkpt lat="41.853973" lon="0.35839692">
        <time>2022-07-07T08:52:42Z</time>
      </trkpt>
      <trkpt lat="41.853985" lon="0.3584646">
        <time>2022-07-07T08:52:43Z</time>
      </trkpt>
      <trkpt lat="41.853996" lon="0.35853258">
        <time>2022-07-07T08:52:44Z</time>
      </trkpt>
      <trkpt lat="41.85402" lon="0.35866925">
        <time>2022-07-07T08:52:46Z</time>
      </trkpt>
      <trkpt lat="41.85403" lon="0.35873726">
        <time>2022-07-07T08:52:47Z</time>
      </trkpt>
      <trkpt lat="41.854042" lon="0.35880524">
        <time>2022-07-07T08:52:48Z</time>
      </trkpt>
      <trkpt lat="41.85405" lon="0.35887358">
        <time>2022-07-07T08:52:49Z</time>
      </trkpt>
      <trkpt lat="41.85407" lon="0.35900757">
        <time>2022-07-07T08:52:51Z</time>
      </trkpt>
      <trkpt lat="41.854076" lon="0.35907358">
        <time>2022-07-07T08:52:52Z</time>
      </trkpt>
      <trkpt lat="41.8541" lon="0.35920557">
        <time>2022-07-07T08:52:54Z</time>
      </trkpt>
      <trkpt lat="41.854122" lon="0.35933492">
        <time>2022-07-07T08:52:56Z</time>
      </trkpt>
      <trkpt lat="41.85414" lon="0.35946158">
        <time>2022-07-07T08:52:58Z</time>
      </trkpt>
      <trkpt lat="41.854156" lon="0.35958257">
        <time>2022-07-07T08:53:00Z</time>
      </trkpt>
      <trkpt lat="41.854176" lon="0.3596959">
        <time>2022-07-07T08:53:02Z</time>
      </trkpt>
      <trkpt lat="41.854187" lon="0.35980055">
        <time>2022-07-07T08:53:04Z</time>
      </trkpt>
      <trkpt lat="41.854202" lon="0.35989657">
        <time>2022-07-07T08:53:06Z</time>
      </trkpt>
      <trkpt lat="41.854214" lon="0.35999423">
        <time>2022-07-07T08:53:08Z</time>
      </trkpt>
      <trkpt lat="41.854233" lon="0.3600979">
        <time>2022-07-07T08:53:10Z</time>
      </trkpt>
      <trkpt lat="41.854248" lon="0.36020154">
        <time>2022-07-07T08:53:12Z</time>
      </trkpt>
      <trkpt lat="41.854267" lon="0.36030686">
        <time>2022-07-07T08:53:14Z</time>
      </trkpt>
      <trkpt lat="41.854282" lon="0.36041152">
        <time>2022-07-07T08:53:16Z</time>
      </trkpt>
      <trkpt lat="41.8543" lon="0.3605162">
        <time>2022-07-07T08:53:18Z</time>
      </trkpt>
      <trkpt lat="41.854317" lon="0.36062184">
        <time>2022-07-07T08:53:20Z</time>
      </trkpt>
      <trkpt lat="41.85433" lon="0.36072785">
        <time>2022-07-07T08:53:22Z</time>
      </trkpt>
      <trkpt lat="41.854343" lon="0.3608352">
        <time>2022-07-07T08:53:24Z</time>
      </trkpt>
      <trkpt lat="41.854362" lon="0.36094317">
        <time>2022-07-07T08:53:26Z</time>
      </trkpt>
      <trkpt lat="41.85438" lon="0.36105117">
        <time>2022-07-07T08:53:28Z</time>
      </trkpt>
      <trkpt lat="41.8544" lon="0.36115885">
        <time>2022-07-07T08:53:30Z</time>
      </trkpt>
      <trkpt lat="41.854424" lon="0.3612735">
        <time>2022-07-07T08:53:32Z</time>
      </trkpt>
      <trkpt lat="41.854443" lon="0.3613875">
        <time>2022-07-07T08:53:34Z</time>
      </trkpt>
      <trkpt lat="41.854465" lon="0.36149982">
        <time>2022-07-07T08:53:36Z</time>
      </trkpt>
      <trkpt lat="41.85448" lon="0.36161184">
        <time>2022-07-07T08:53:38Z</time>
      </trkpt>
      <trkpt lat="41.8545" lon="0.36173117">
        <time>2022-07-07T08:53:40Z</time>
      </trkpt>
      <trkpt lat="41.85452" lon="0.3618615">
        <time>2022-07-07T08:53:42Z</time>
      </trkpt>
      <trkpt lat="41.85454" lon="0.36199316">
        <time>2022-07-07T08:53:44Z</time>
      </trkpt>
      <trkpt lat="41.85456" lon="0.3621278">
        <time>2022-07-07T08:53:46Z</time>
      </trkpt>
      <trkpt lat="41.854572" lon="0.36219713">
        <time>2022-07-07T08:53:47Z</time>
      </trkpt>
      <trkpt lat="41.854595" lon="0.3623398">
        <time>2022-07-07T08:53:49Z</time>
      </trkpt>
      <trkpt lat="41.854607" lon="0.36241314">
        <time>2022-07-07T08:53:50Z</time>
      </trkpt>
      <trkpt lat="41.854618" lon="0.36248812">
        <time>2022-07-07T08:53:51Z</time>
      </trkpt>
      <trkpt lat="41.854645" lon="0.36264446">
        <time>2022-07-07T08:53:53Z</time>
      </trkpt>
      <trkpt lat="41.854656" lon="0.36272478">
        <time>2022-07-07T08:53:54Z</time>
      </trkpt>
      <trkpt lat="41.854668" lon="0.36280644">
        <time>2022-07-07T08:53:55Z</time>
      </trkpt>
      <trkpt lat="41.854683" lon="0.36288944">
        <time>2022-07-07T08:53:56Z</time>
      </trkpt>
      <trkpt lat="41.8547" lon="0.36297312">
        <time>2022-07-07T08:53:57Z</time>
      </trkpt>
      <trkpt lat="41.85471" lon="0.36305812">
        <time>2022-07-07T08:53:58Z</time>
      </trkpt>
      <trkpt lat="41.854725" lon="0.36314344">
        <time>2022-07-07T08:53:59Z</time>
      </trkpt>
      <trkpt lat="41.854736" lon="0.36322844">
        <time>2022-07-07T08:54:00Z</time>
      </trkpt>
      <trkpt lat="41.85475" lon="0.3633131">
        <time>2022-07-07T08:54:01Z</time>
      </trkpt>
      <trkpt lat="41.854763" lon="0.36339775">
        <time>2022-07-07T08:54:02Z</time>
      </trkpt>
      <trkpt lat="41.85478" lon="0.3634821">
        <time>2022-07-07T08:54:03Z</time>
      </trkpt>
      <trkpt lat="41.85479" lon="0.3635661">
        <time>2022-07-07T08:54:04Z</time>
      </trkpt>
      <trkpt lat="41.854805" lon="0.36364976">
        <time>2022-07-07T08:54:05Z</time>
      </trkpt>
      <trkpt lat="41.854816" lon="0.3637324">
        <time>2022-07-07T08:54:06Z</time>
      </trkpt>
      <trkpt lat="41.85483" lon="0.36381373">
        <time>2022-07-07T08:54:07Z</time>
      </trkpt>
      <trkpt lat="41.854843" lon="0.36389375">
        <time>2022-07-07T08:54:08Z</time>
      </trkpt>
      <trkpt lat="41.854855" lon="0.3639734">
        <time>2022-07-07T08:54:09Z</time>
      </trkpt>
      <trkpt lat="41.85487" lon="0.36405206">
        <time>2022-07-07T08:54:10Z</time>
      </trkpt>
      <trkpt lat="41.85488" lon="0.3641294">
        <time>2022-07-07T08:54:11Z</time>
      </trkpt>
      <trkpt lat="41.854893" lon="0.36420506">
        <time>2022-07-07T08:54:12Z</time>
      </trkpt>
      <trkpt lat="41.854904" lon="0.3642787">
        <time>2022-07-07T08:54:13Z</time>
      </trkpt>
      <trkpt lat="41.854916" lon="0.36435005">
        <time>2022-07-07T08:54:14Z</time>
      </trkpt>
      <trkpt lat="41.85493" lon="0.36442003">
        <time>2022-07-07T08:54:15Z</time>
      </trkpt>
      <trkpt lat="41.85494" lon="0.36448836">
        <time>2022-07-07T08:54:16Z</time>
      </trkpt>
      <trkpt lat="41.85495" lon="0.36455536">
        <time>2022-07-07T08:54:17Z</time>
      </trkpt>
      <trkpt lat="41.85496" lon="0.36461636">
        <time>2022-07-07T08:54:18Z</time>
      </trkpt>
      <trkpt lat="41.854984" lon="0.3647407">
        <time>2022-07-07T08:54:20Z</time>
      </trkpt>
      <trkpt lat="41.854996" lon="0.36480904">
        <time>2022-07-07T08:54:21Z</time>
      </trkpt>
      <trkpt lat="41.855015" lon="0.36494336">
        <time>2022-07-07T08:54:23Z</time>
      </trkpt>
      <trkpt lat="41.855022" lon="0.36500868">
        <time>2022-07-07T08:54:24Z</time>
      </trkpt>
      <trkpt lat="41.85504" lon="0.36513603">
        <time>2022-07-07T08:54:26Z</time>
      </trkpt>
      <trkpt lat="41.855057" lon="0.36527434">
        <time>2022-07-07T08:54:28Z</time>
      </trkpt>
      <trkpt lat="41.85506" lon="0.36533767">
        <time>2022-07-07T08:54:29Z</time>
      </trkpt>
      <trkpt lat="41.855072" lon="0.3654697">
        <time>2022-07-07T08:54:31Z</time>
      </trkpt>
      <trkpt lat="41.855072" lon="0.36553535">
        <time>2022-07-07T08:54:32Z</time>
      </trkpt>
      <trkpt lat="41.85508" lon="0.36567035">
        <time>2022-07-07T08:54:34Z</time>
      </trkpt>
      <trkpt lat="41.855083" lon="0.365739">
        <time>2022-07-07T08:54:35Z</time>
      </trkpt>
      <trkpt lat="41.85509" lon="0.36588234">
        <time>2022-07-07T08:54:37Z</time>
      </trkpt>
      <trkpt lat="41.855095" lon="0.365953">
        <time>2022-07-07T08:54:38Z</time>
      </trkpt>
      <trkpt lat="41.855095" lon="0.36602265">
        <time>2022-07-07T08:54:39Z</time>
      </trkpt>
      <trkpt lat="41.855095" lon="0.36608666">
        <time>2022-07-07T08:54:40Z</time>
      </trkpt>
      <trkpt lat="41.855095" lon="0.36622497">
        <time>2022-07-07T08:54:42Z</time>
      </trkpt>
      <trkpt lat="41.855095" lon="0.36629432">
        <time>2022-07-07T08:54:43Z</time>
      </trkpt>
      <trkpt lat="41.85509" lon="0.3663623">
        <time>2022-07-07T08:54:44Z</time>
      </trkpt>
      <trkpt lat="41.855087" lon="0.36649632">
        <time>2022-07-07T08:54:46Z</time>
      </trkpt>
      <trkpt lat="41.85508" lon="0.36662596">
        <time>2022-07-07T08:54:48Z</time>
      </trkpt>
      <trkpt lat="41.85507" lon="0.36674896">
        <time>2022-07-07T08:54:50Z</time>
      </trkpt>
      <trkpt lat="41.855053" lon="0.36686662">
        <time>2022-07-07T08:54:52Z</time>
      </trkpt>
      <trkpt lat="41.855034" lon="0.3669833">
        <time>2022-07-07T08:54:54Z</time>
      </trkpt>
      <trkpt lat="41.85502" lon="0.36709562">
        <time>2022-07-07T08:54:56Z</time>
      </trkpt>
      <trkpt lat="41.855" lon="0.36720327">
        <time>2022-07-07T08:54:58Z</time>
      </trkpt>
      <trkpt lat="41.85498" lon="0.36729994">
        <time>2022-07-07T08:55:00Z</time>
      </trkpt>
      <trkpt lat="41.85496" lon="0.36739695">
        <time>2022-07-07T08:55:02Z</time>
      </trkpt>
      <trkpt lat="41.85494" lon="0.3674936">
        <time>2022-07-07T08:55:04Z</time>
      </trkpt>
      <trkpt lat="41.85491" lon="0.3675846">
        <time>2022-07-07T08:55:06Z</time>
      </trkpt>
      <trkpt lat="41.854885" lon="0.36767226">
        <time>2022-07-07T08:55:08Z</time>
      </trkpt>
      <trkpt lat="41.854862" lon="0.36775926">
        <time>2022-07-07T08:55:10Z</time>
      </trkpt>
      <trkpt lat="41.854836" lon="0.36784393">
        <time>2022-07-07T08:55:12Z</time>
      </trkpt>
      <trkpt lat="41.854813" lon="0.36792392">
        <time>2022-07-07T08:55:14Z</time>
      </trkpt>
      <trkpt lat="41.854786" lon="0.3679999">
        <time>2022-07-07T08:55:16Z</time>
      </trkpt>
      <trkpt lat="41.85476" lon="0.36807424">
        <time>2022-07-07T08:55:18Z</time>
      </trkpt>
      <trkpt lat="41.854733" lon="0.36814857">
        <time>2022-07-07T08:55:20Z</time>
      </trkpt>
      <trkpt lat="41.854706" lon="0.36821392">
        <time>2022-07-07T08:55:22Z</time>
      </trkpt>
      <trkpt lat="41.854675" lon="0.36827958">
        <time>2022-07-07T08:55:24Z</time>
      </trkpt>
      <trkpt lat="41.85465" lon="0.36834356">
        <time>2022-07-07T08:55:26Z</time>
      </trkpt>
      <trkpt lat="41.85462" lon="0.3684059">
        <time>2022-07-07T08:55:28Z</time>
      </trkpt>
      <trkpt lat="41.854588" lon="0.36849722">
        <time>2022-07-07T08:55:31Z</time>
      </trkpt>
      <trkpt lat="41.85456" lon="0.36856055">
        <time>2022-07-07T08:55:33Z</time>
      </trkpt>
      <trkpt lat="41.854534" lon="0.3686199">
        <time>2022-07-07T08:55:35Z</time>
      </trkpt>
      <trkpt lat="41.854504" lon="0.36867723">
        <time>2022-07-07T08:55:37Z</time>
      </trkpt>
      <trkpt lat="41.854465" lon="0.36876255">
        <time>2022-07-07T08:55:40Z</time>
      </trkpt>
      <trkpt lat="41.85443" lon="0.3688422">
        <time>2022-07-07T08:55:43Z</time>
      </trkpt>
      <trkpt lat="41.854397" lon="0.36891988">
        <time>2022-07-07T08:55:46Z</time>
      </trkpt>
      <trkpt lat="41.854362" lon="0.36899188">
        <time>2022-07-07T08:55:49Z</time>
      </trkpt>
      <trkpt lat="41.854324" lon="0.36906987">
        <time>2022-07-07T08:55:52Z</time>
      </trkpt>
      <trkpt lat="41.85429" lon="0.36914787">
        <time>2022-07-07T08:55:55Z</time>
      </trkpt>
      <trkpt lat="41.854256" lon="0.36922854">
        <time>2022-07-07T08:55:58Z</time>
      </trkpt>
      <trkpt lat="41.85422" lon="0.36930618">
        <time>2022-07-07T08:56:01Z</time>
      </trkpt>
      <trkpt lat="41.854187" lon="0.36938253">
        <time>2022-07-07T08:56:04Z</time>
      </trkpt>
      <trkpt lat="41.854153" lon="0.36946386">
        <time>2022-07-07T08:56:07Z</time>
      </trkpt>
      <trkpt lat="41.85412" lon="0.3695452">
        <time>2022-07-07T08:56:10Z</time>
      </trkpt>
      <trkpt lat="41.85409" lon="0.3696282">
        <time>2022-07-07T08:56:13Z</time>
      </trkpt>
      <trkpt lat="41.854046" lon="0.36974385">
        <time>2022-07-07T08:56:17Z</time>
      </trkpt>
      <trkpt lat="41.854015" lon="0.3698285">
        <time>2022-07-07T08:56:20Z</time>
      </trkpt>
      <trkpt lat="41.85398" lon="0.36991182">
        <time>2022-07-07T08:56:23Z</time>
      </trkpt>
      <trkpt lat="41.853962" lon="0.3699685">
        <time>2022-07-07T08:56:25Z</time>
      </trkpt>
      <trkpt lat="41.85394" lon="0.3700575">
        <time>2022-07-07T08:56:28Z</time>
      </trkpt>
      <trkpt lat="41.85392" lon="0.3701178">
        <time>2022-07-07T08:56:30Z</time>
      </trkpt>
      <trkpt lat="41.853897" lon="0.37020847">
        <time>2022-07-07T08:56:33Z</time>
      </trkpt>
      <trkpt lat="41.85387" lon="0.3702995">
        <time>2022-07-07T08:56:36Z</time>
      </trkpt>
      <trkpt lat="41.853848" lon="0.3703915">
        <time>2022-07-07T08:56:39Z</time>
      </trkpt>
      <trkpt lat="41.85382" lon="0.37048048">
        <time>2022-07-07T08:56:42Z</time>
      </trkpt>
      <trkpt lat="41.8538" lon="0.3705735">
        <time>2022-07-07T08:56:45Z</time>
      </trkpt>
      <trkpt lat="41.853783" lon="0.37066782">
        <time>2022-07-07T08:56:48Z</time>
      </trkpt>
      <trkpt lat="41.853767" lon="0.37076214">
        <time>2022-07-07T08:56:51Z</time>
      </trkpt>
      <trkpt lat="41.853745" lon="0.37085947">
        <time>2022-07-07T08:56:54Z</time>
      </trkpt>
      <trkpt lat="41.853737" lon="0.37092447">
        <time>2022-07-07T08:56:56Z</time>
      </trkpt>
      <trkpt lat="41.85372" lon="0.37102413">
        <time>2022-07-07T08:56:59Z</time>
      </trkpt>
      <trkpt lat="41.853706" lon="0.37111446">
        <time>2022-07-07T08:57:02Z</time>
      </trkpt>
      <trkpt lat="41.85369" lon="0.3712381">
        <time>2022-07-07T08:57:06Z</time>
      </trkpt>
      <trkpt lat="41.853687" lon="0.37130478">
        <time>2022-07-07T08:57:08Z</time>
      </trkpt>
      <trkpt lat="41.853676" lon="0.37140477">
        <time>2022-07-07T08:57:11Z</time>
      </trkpt>
      <trkpt lat="41.85367" lon="0.37147045">
        <time>2022-07-07T08:57:13Z</time>
      </trkpt>
      <trkpt lat="41.85366" lon="0.37156644">
        <time>2022-07-07T08:57:16Z</time>
      </trkpt>
      <trkpt lat="41.85366" lon="0.37166476">
        <time>2022-07-07T08:57:19Z</time>
      </trkpt>
      <trkpt lat="41.853657" lon="0.37176478">
        <time>2022-07-07T08:57:22Z</time>
      </trkpt>
      <trkpt lat="41.853657" lon="0.3718351">
        <time>2022-07-07T08:57:24Z</time>
      </trkpt>
      <trkpt lat="41.853657" lon="0.3719391">
        <time>2022-07-07T08:57:27Z</time>
      </trkpt>
      <trkpt lat="41.85366" lon="0.3720141">
        <time>2022-07-07T08:57:29Z</time>
      </trkpt>
      <trkpt lat="41.853664" lon="0.37208775">
        <time>2022-07-07T08:57:31Z</time>
      </trkpt>
      <trkpt lat="41.853664" lon="0.37216175">
        <time>2022-07-07T08:57:33Z</time>
      </trkpt>
      <trkpt lat="41.853672" lon="0.37223342">
        <time>2022-07-07T08:57:35Z</time>
      </trkpt>
      <trkpt lat="41.853676" lon="0.3723091">
        <time>2022-07-07T08:57:37Z</time>
      </trkpt>
      <trkpt lat="41.853683" lon="0.37238142">
        <time>2022-07-07T08:57:39Z</time>
      </trkpt>
      <trkpt lat="41.85369" lon="0.3724564">
        <time>2022-07-07T08:57:41Z</time>
      </trkpt>
      <trkpt lat="41.853695" lon="0.3725404">
        <time>2022-07-07T08:57:43Z</time>
      </trkpt>
      <trkpt lat="41.853706" lon="0.37262642">
        <time>2022-07-07T08:57:45Z</time>
      </trkpt>
      <trkpt lat="41.853714" lon="0.37271208">
        <time>2022-07-07T08:57:47Z</time>
      </trkpt>
      <trkpt lat="41.853725" lon="0.37279373">
        <time>2022-07-07T08:57:49Z</time>
      </trkpt>
      <trkpt lat="41.85374" lon="0.3728784">
        <time>2022-07-07T08:57:51Z</time>
      </trkpt>
      <trkpt lat="41.853752" lon="0.3729627">
        <time>2022-07-07T08:57:53Z</time>
      </trkpt>
      <trkpt lat="41.853764" lon="0.37304738">
        <time>2022-07-07T08:57:55Z</time>
      </trkpt>
      <trkpt lat="41.85378" lon="0.37313372">
        <time>2022-07-07T08:57:57Z</time>
      </trkpt>
      <trkpt lat="41.853798" lon="0.37322938">
        <time>2022-07-07T08:57:59Z</time>
      </trkpt>
      <trkpt lat="41.853817" lon="0.3733227">
        <time>2022-07-07T08:58:01Z</time>
      </trkpt>
      <trkpt lat="41.853836" lon="0.3734127">
        <time>2022-07-07T08:58:03Z</time>
      </trkpt>
      <trkpt lat="41.85386" lon="0.37350902">
        <time>2022-07-07T08:58:05Z</time>
      </trkpt>
      <trkpt lat="41.85388" lon="0.37360704">
        <time>2022-07-07T08:58:07Z</time>
      </trkpt>
      <trkpt lat="41.85391" lon="0.37371004">
        <time>2022-07-07T08:58:09Z</time>
      </trkpt>
      <trkpt lat="41.853935" lon="0.3738157">
        <time>2022-07-07T08:58:11Z</time>
      </trkpt>
      <trkpt lat="41.853962" lon="0.37392268">
        <time>2022-07-07T08:58:13Z</time>
      </trkpt>
      <trkpt lat="41.85399" lon="0.374036">
        <time>2022-07-07T08:58:15Z</time>
      </trkpt>
      <trkpt lat="41.85402" lon="0.37415534">
        <time>2022-07-07T08:58:17Z</time>
      </trkpt>
      <trkpt lat="41.85403" lon="0.37421235">
        <time>2022-07-07T08:58:18Z</time>
      </trkpt>
      <trkpt lat="41.85406" lon="0.37433168">
        <time>2022-07-07T08:58:20Z</time>
      </trkpt>
      <trkpt lat="41.854088" lon="0.37446335">
        <time>2022-07-07T08:58:22Z</time>
      </trkpt>
      <trkpt lat="41.854115" lon="0.37458968">
        <time>2022-07-07T08:58:24Z</time>
      </trkpt>
      <trkpt lat="41.854145" lon="0.374717">
        <time>2022-07-07T08:58:26Z</time>
      </trkpt>
      <trkpt lat="41.85418" lon="0.37485334">
        <time>2022-07-07T08:58:28Z</time>
      </trkpt>
      <trkpt lat="41.854195" lon="0.37492198">
        <time>2022-07-07T08:58:29Z</time>
      </trkpt>
      <trkpt lat="41.854214" lon="0.37498632">
        <time>2022-07-07T08:58:30Z</time>
      </trkpt>
      <trkpt lat="41.85423" lon="0.37505165">
        <time>2022-07-07T08:58:31Z</time>
      </trkpt>
      <trkpt lat="41.854244" lon="0.37511864">
        <time>2022-07-07T08:58:32Z</time>
      </trkpt>
      <trkpt lat="41.854275" lon="0.3752593">
        <time>2022-07-07T08:58:34Z</time>
      </trkpt>
      <trkpt lat="41.85429" lon="0.37532696">
        <time>2022-07-07T08:58:35Z</time>
      </trkpt>
      <trkpt lat="41.854324" lon="0.37546864">
        <time>2022-07-07T08:58:37Z</time>
      </trkpt>
      <trkpt lat="41.854343" lon="0.37553763">
        <time>2022-07-07T08:58:38Z</time>
      </trkpt>
      <trkpt lat="41.85436" lon="0.37560228">
        <time>2022-07-07T08:58:39Z</time>
      </trkpt>
      <trkpt lat="41.854374" lon="0.3756713">
        <time>2022-07-07T08:58:40Z</time>
      </trkpt>
      <trkpt lat="41.854393" lon="0.3757383">
        <time>2022-07-07T08:58:41Z</time>
      </trkpt>
      <trkpt lat="41.854424" lon="0.37586728">
        <time>2022-07-07T08:58:43Z</time>
      </trkpt>
      <trkpt lat="41.854443" lon="0.37592995">
        <time>2022-07-07T08:58:44Z</time>
      </trkpt>
      <trkpt lat="41.854477" lon="0.37605628">
        <time>2022-07-07T08:58:46Z</time>
      </trkpt>
      <trkpt lat="41.854507" lon="0.37618393">
        <time>2022-07-07T08:58:48Z</time>
      </trkpt>
      <trkpt lat="41.854523" lon="0.37625027">
        <time>2022-07-07T08:58:49Z</time>
      </trkpt>
      <trkpt lat="41.854553" lon="0.37637693">
        <time>2022-07-07T08:58:51Z</time>
      </trkpt>
      <trkpt lat="41.854584" lon="0.37650394">
        <time>2022-07-07T08:58:53Z</time>
      </trkpt>
      <trkpt lat="41.85462" lon="0.37663925">
        <time>2022-07-07T08:58:55Z</time>
      </trkpt>
      <trkpt lat="41.854637" lon="0.37670758">
        <time>2022-07-07T08:58:56Z</time>
      </trkpt>
      <trkpt lat="41.854652" lon="0.3767776">
        <time>2022-07-07T08:58:57Z</time>
      </trkpt>
      <trkpt lat="41.854668" lon="0.3768469">
        <time>2022-07-07T08:58:58Z</time>
      </trkpt>
      <trkpt lat="41.854687" lon="0.37691492">
        <time>2022-07-07T08:58:59Z</time>
      </trkpt>
      <trkpt lat="41.854706" lon="0.3769819">
        <time>2022-07-07T08:59:00Z</time>
      </trkpt>
      <trkpt lat="41.854725" lon="0.37704793">
        <time>2022-07-07T08:59:01Z</time>
      </trkpt>
      <trkpt lat="41.85474" lon="0.3771139">
        <time>2022-07-07T08:59:02Z</time>
      </trkpt>
      <trkpt lat="41.854755" lon="0.37717426">
        <time>2022-07-07T08:59:03Z</time>
      </trkpt>
      <trkpt lat="41.854786" lon="0.37730092">
        <time>2022-07-07T08:59:05Z</time>
      </trkpt>
      <trkpt lat="41.854813" lon="0.37742823">
        <time>2022-07-07T08:59:07Z</time>
      </trkpt>
      <trkpt lat="41.854843" lon="0.37755725">
        <time>2022-07-07T08:59:09Z</time>
      </trkpt>
      <trkpt lat="41.85486" lon="0.3776219">
        <time>2022-07-07T08:59:10Z</time>
      </trkpt>
      <trkpt lat="41.85489" lon="0.37775657">
        <time>2022-07-07T08:59:12Z</time>
      </trkpt>
      <trkpt lat="41.854904" lon="0.37782523">
        <time>2022-07-07T08:59:13Z</time>
      </trkpt>
      <trkpt lat="41.854923" lon="0.37789488">
        <time>2022-07-07T08:59:14Z</time>
      </trkpt>
      <trkpt lat="41.85494" lon="0.3779652">
        <time>2022-07-07T08:59:15Z</time>
      </trkpt>
      <trkpt lat="41.854958" lon="0.37803653">
        <time>2022-07-07T08:59:16Z</time>
      </trkpt>
      <trkpt lat="41.854977" lon="0.3781092">
        <time>2022-07-07T08:59:17Z</time>
      </trkpt>
      <trkpt lat="41.854992" lon="0.3781812">
        <time>2022-07-07T08:59:18Z</time>
      </trkpt>
      <trkpt lat="41.85501" lon="0.3782532">
        <time>2022-07-07T08:59:19Z</time>
      </trkpt>
      <trkpt lat="41.855026" lon="0.37832087">
        <time>2022-07-07T08:59:20Z</time>
      </trkpt>
      <trkpt lat="41.855045" lon="0.3783942">
        <time>2022-07-07T08:59:21Z</time>
      </trkpt>
      <trkpt lat="41.85506" lon="0.37846684">
        <time>2022-07-07T08:59:22Z</time>
      </trkpt>
      <trkpt lat="41.855076" lon="0.37853384">
        <time>2022-07-07T08:59:23Z</time>
      </trkpt>
      <trkpt lat="41.85509" lon="0.37860084">
        <time>2022-07-07T08:59:24Z</time>
      </trkpt>
      <trkpt lat="41.855106" lon="0.37866852">
        <time>2022-07-07T08:59:25Z</time>
      </trkpt>
      <trkpt lat="41.855133" lon="0.37880918">
        <time>2022-07-07T08:59:27Z</time>
      </trkpt>
      <trkpt lat="41.855156" lon="0.3789445">
        <time>2022-07-07T08:59:29Z</time>
      </trkpt>
      <trkpt lat="41.855167" lon="0.37900883">
        <time>2022-07-07T08:59:30Z</time>
      </trkpt>
      <trkpt lat="41.855194" lon="0.3791385">
        <time>2022-07-07T08:59:32Z</time>
      </trkpt>
      <trkpt lat="41.85521" lon="0.3792035">
        <time>2022-07-07T08:59:33Z</time>
      </trkpt>
      <trkpt lat="41.85524" lon="0.37932414">
        <time>2022-07-07T08:59:35Z</time>
      </trkpt>
      <trkpt lat="41.855267" lon="0.3794455">
        <time>2022-07-07T08:59:37Z</time>
      </trkpt>
      <trkpt lat="41.855297" lon="0.37956613">
        <time>2022-07-07T08:59:39Z</time>
      </trkpt>
      <trkpt lat="41.855328" lon="0.3796878">
        <time>2022-07-07T08:59:41Z</time>
      </trkpt>
      <trkpt lat="41.855343" lon="0.37975046">
        <time>2022-07-07T08:59:42Z</time>
      </trkpt>
      <trkpt lat="41.855373" lon="0.3798811">
        <time>2022-07-07T08:59:44Z</time>
      </trkpt>
      <trkpt lat="41.855404" lon="0.3800158">
        <time>2022-07-07T08:59:46Z</time>
      </trkpt>
      <trkpt lat="41.85542" lon="0.3800851">
        <time>2022-07-07T08:59:47Z</time>
      </trkpt>
      <trkpt lat="41.85544" lon="0.3801561">
        <time>2022-07-07T08:59:48Z</time>
      </trkpt>
      <trkpt lat="41.855453" lon="0.38022643">
        <time>2022-07-07T08:59:49Z</time>
      </trkpt>
      <trkpt lat="41.855473" lon="0.38029578">
        <time>2022-07-07T08:59:50Z</time>
      </trkpt>
      <trkpt lat="41.85549" lon="0.3803641">
        <time>2022-07-07T08:59:51Z</time>
      </trkpt>
      <trkpt lat="41.85551" lon="0.38043144">
        <time>2022-07-07T08:59:52Z</time>
      </trkpt>
      <trkpt lat="41.855526" lon="0.38049743">
        <time>2022-07-07T08:59:53Z</time>
      </trkpt>
      <trkpt lat="41.85556" lon="0.38062242">
        <time>2022-07-07T08:59:55Z</time>
      </trkpt>
      <trkpt lat="41.855587" lon="0.38074544">
        <time>2022-07-07T08:59:57Z</time>
      </trkpt>
      <trkpt lat="41.855618" lon="0.38087043">
        <time>2022-07-07T08:59:59Z</time>
      </trkpt>
      <trkpt lat="41.85565" lon="0.38100308">
        <time>2022-07-07T09:00:01Z</time>
      </trkpt>
      <trkpt lat="41.855667" lon="0.3810711">
        <time>2022-07-07T09:00:02Z</time>
      </trkpt>
      <trkpt lat="41.855682" lon="0.38114008">
        <time>2022-07-07T09:00:03Z</time>
      </trkpt>
      <trkpt lat="41.855698" lon="0.38120908">
        <time>2022-07-07T09:00:04Z</time>
      </trkpt>
      <trkpt lat="41.855713" lon="0.3812781">
        <time>2022-07-07T09:00:05Z</time>
      </trkpt>
      <trkpt lat="41.855732" lon="0.38134742">
        <time>2022-07-07T09:00:06Z</time>
      </trkpt>
      <trkpt lat="41.85575" lon="0.3814164">
        <time>2022-07-07T09:00:07Z</time>
      </trkpt>
      <trkpt lat="41.85577" lon="0.38148442">
        <time>2022-07-07T09:00:08Z</time>
      </trkpt>
      <trkpt lat="41.855785" lon="0.38155207">
        <time>2022-07-07T09:00:09Z</time>
      </trkpt>
      <trkpt lat="41.8558" lon="0.38161907">
        <time>2022-07-07T09:00:10Z</time>
      </trkpt>
      <trkpt lat="41.855835" lon="0.3817524">
        <time>2022-07-07T09:00:12Z</time>
      </trkpt>
      <trkpt lat="41.85585" lon="0.38181373">
        <time>2022-07-07T09:00:13Z</time>
      </trkpt>
      <trkpt lat="41.855865" lon="0.38188174">
        <time>2022-07-07T09:00:14Z</time>
      </trkpt>
      <trkpt lat="41.855896" lon="0.38202375">
        <time>2022-07-07T09:00:16Z</time>
      </trkpt>
      <trkpt lat="41.85591" lon="0.3820954">
        <time>2022-07-07T09:00:17Z</time>
      </trkpt>
      <trkpt lat="41.855927" lon="0.38216674">
        <time>2022-07-07T09:00:18Z</time>
      </trkpt>
      <trkpt lat="41.85594" lon="0.38223907">
        <time>2022-07-07T09:00:19Z</time>
      </trkpt>
      <trkpt lat="41.855957" lon="0.3823124">
        <time>2022-07-07T09:00:20Z</time>
      </trkpt>
      <trkpt lat="41.855976" lon="0.38238606">
        <time>2022-07-07T09:00:21Z</time>
      </trkpt>
      <trkpt lat="41.85599" lon="0.3824604">
        <time>2022-07-07T09:00:22Z</time>
      </trkpt>
      <trkpt lat="41.85601" lon="0.38253438">
        <time>2022-07-07T09:00:23Z</time>
      </trkpt>
      <trkpt lat="41.856026" lon="0.3826077">
        <time>2022-07-07T09:00:24Z</time>
      </trkpt>
      <trkpt lat="41.856045" lon="0.38268137">
        <time>2022-07-07T09:00:25Z</time>
      </trkpt>
      <trkpt lat="41.85606" lon="0.38275537">
        <time>2022-07-07T09:00:26Z</time>
      </trkpt>
      <trkpt lat="41.85608" lon="0.38282937">
        <time>2022-07-07T09:00:27Z</time>
      </trkpt>
      <trkpt lat="41.856094" lon="0.3829037">
        <time>2022-07-07T09:00:28Z</time>
      </trkpt>
      <trkpt lat="41.856113" lon="0.3829777">
        <time>2022-07-07T09:00:29Z</time>
      </trkpt>
      <trkpt lat="41.856133" lon="0.38305137">
        <time>2022-07-07T09:00:30Z</time>
      </trkpt>
      <trkpt lat="41.856148" lon="0.383125">
        <time>2022-07-07T09:00:31Z</time>
      </trkpt>
      <trkpt lat="41.856167" lon="0.38319835">
        <time>2022-07-07T09:00:32Z</time>
      </trkpt>
      <trkpt lat="41.856186" lon="0.38327202">
        <time>2022-07-07T09:00:33Z</time>
      </trkpt>
      <trkpt lat="41.8562" lon="0.38334602">
        <time>2022-07-07T09:00:34Z</time>
      </trkpt>
      <trkpt lat="41.85622" lon="0.38341966">
        <time>2022-07-07T09:00:35Z</time>
      </trkpt>
      <trkpt lat="41.85624" lon="0.38349333">
        <time>2022-07-07T09:00:36Z</time>
      </trkpt>
      <trkpt lat="41.856255" lon="0.38356733">
        <time>2022-07-07T09:00:37Z</time>
      </trkpt>
      <trkpt lat="41.856274" lon="0.38364232">
        <time>2022-07-07T09:00:38Z</time>
      </trkpt>
      <trkpt lat="41.85629" lon="0.38371667">
        <time>2022-07-07T09:00:39Z</time>
      </trkpt>
      <trkpt lat="41.856308" lon="0.3837903">
        <time>2022-07-07T09:00:40Z</time>
      </trkpt>
      <trkpt lat="41.856327" lon="0.3838643">
        <time>2022-07-07T09:00:41Z</time>
      </trkpt>
      <trkpt lat="41.856346" lon="0.38393798">
        <time>2022-07-07T09:00:42Z</time>
      </trkpt>
      <trkpt lat="41.85636" lon="0.38401163">
        <time>2022-07-07T09:00:43Z</time>
      </trkpt>
      <trkpt lat="41.85638" lon="0.38408464">
        <time>2022-07-07T09:00:44Z</time>
      </trkpt>
      <trkpt lat="41.8564" lon="0.3841583">
        <time>2022-07-07T09:00:45Z</time>
      </trkpt>
      <trkpt lat="41.85642" lon="0.3842323">
        <time>2022-07-07T09:00:46Z</time>
      </trkpt>
      <trkpt lat="41.856438" lon="0.38430664">
        <time>2022-07-07T09:00:47Z</time>
      </trkpt>
      <trkpt lat="41.856457" lon="0.38438195">
        <time>2022-07-07T09:00:48Z</time>
      </trkpt>
      <trkpt lat="41.856476" lon="0.38445863">
        <time>2022-07-07T09:00:49Z</time>
      </trkpt>
      <trkpt lat="41.856495" lon="0.38453794">
        <time>2022-07-07T09:00:50Z</time>
      </trkpt>
      <trkpt lat="41.856514" lon="0.38462028">
        <time>2022-07-07T09:00:51Z</time>
      </trkpt>
      <trkpt lat="41.856533" lon="0.3847036">
        <time>2022-07-07T09:00:52Z</time>
      </trkpt>
      <trkpt lat="41.856556" lon="0.38478693">
        <time>2022-07-07T09:00:53Z</time>
      </trkpt>
      <trkpt lat="41.856575" lon="0.38486993">
        <time>2022-07-07T09:00:54Z</time>
      </trkpt>
      <trkpt lat="41.856594" lon="0.38495493">
        <time>2022-07-07T09:00:55Z</time>
      </trkpt>
      <trkpt lat="41.856613" lon="0.38504094">
        <time>2022-07-07T09:00:56Z</time>
      </trkpt>
      <trkpt lat="41.856632" lon="0.38512793">
        <time>2022-07-07T09:00:57Z</time>
      </trkpt>
      <trkpt lat="41.856655" lon="0.3852156">
        <time>2022-07-07T09:00:58Z</time>
      </trkpt>
      <trkpt lat="41.856678" lon="0.38530493">
        <time>2022-07-07T09:00:59Z</time>
      </trkpt>
      <trkpt lat="41.8567" lon="0.3853876">
        <time>2022-07-07T09:01:00Z</time>
      </trkpt>
      <trkpt lat="41.85672" lon="0.38547626">
        <time>2022-07-07T09:01:01Z</time>
      </trkpt>
      <trkpt lat="41.85674" lon="0.3855629">
        <time>2022-07-07T09:01:02Z</time>
      </trkpt>
      <trkpt lat="41.85676" lon="0.3856469">
        <time>2022-07-07T09:01:03Z</time>
      </trkpt>
      <trkpt lat="41.856777" lon="0.38572857">
        <time>2022-07-07T09:01:04Z</time>
      </trkpt>
      <trkpt lat="41.8568" lon="0.38580856">
        <time>2022-07-07T09:01:05Z</time>
      </trkpt>
      <trkpt lat="41.856815" lon="0.3858869">
        <time>2022-07-07T09:01:06Z</time>
      </trkpt>
      <trkpt lat="41.856834" lon="0.38596457">
        <time>2022-07-07T09:01:07Z</time>
      </trkpt>
      <trkpt lat="41.856853" lon="0.38604155">
        <time>2022-07-07T09:01:08Z</time>
      </trkpt>
      <trkpt lat="41.85687" lon="0.3861162">
        <time>2022-07-07T09:01:09Z</time>
      </trkpt>
      <trkpt lat="41.856888" lon="0.38618654">
        <time>2022-07-07T09:01:10Z</time>
      </trkpt>
      <trkpt lat="41.856903" lon="0.38625187">
        <time>2022-07-07T09:01:11Z</time>
      </trkpt>
      <trkpt lat="41.856937" lon="0.38639322">
        <time>2022-07-07T09:01:13Z</time>
      </trkpt>
      <trkpt lat="41.856953" lon="0.38646287">
        <time>2022-07-07T09:01:14Z</time>
      </trkpt>
      <trkpt lat="41.856968" lon="0.38653287">
        <time>2022-07-07T09:01:15Z</time>
      </trkpt>
      <trkpt lat="41.856987" lon="0.38660154">
        <time>2022-07-07T09:01:16Z</time>
      </trkpt>
      <trkpt lat="41.857018" lon="0.38673553">
        <time>2022-07-07T09:01:18Z</time>
      </trkpt>
      <trkpt lat="41.85705" lon="0.38686952">
        <time>2022-07-07T09:01:20Z</time>
      </trkpt>
      <trkpt lat="41.857067" lon="0.38693586">
        <time>2022-07-07T09:01:21Z</time>
      </trkpt>
      <trkpt lat="41.857082" lon="0.38700187">
        <time>2022-07-07T09:01:22Z</time>
      </trkpt>
      <trkpt lat="41.857098" lon="0.38706818">
        <time>2022-07-07T09:01:23Z</time>
      </trkpt>
      <trkpt lat="41.857113" lon="0.3871342">
        <time>2022-07-07T09:01:24Z</time>
      </trkpt>
      <trkpt lat="41.857143" lon="0.38726452">
        <time>2022-07-07T09:01:26Z</time>
      </trkpt>
      <trkpt lat="41.857162" lon="0.38732818">
        <time>2022-07-07T09:01:27Z</time>
      </trkpt>
      <trkpt lat="41.857193" lon="0.38745385">
        <time>2022-07-07T09:01:29Z</time>
      </trkpt>
      <trkpt lat="41.857224" lon="0.38757983">
        <time>2022-07-07T09:01:31Z</time>
      </trkpt>
      <trkpt lat="41.85725" lon="0.38770083">
        <time>2022-07-07T09:01:33Z</time>
      </trkpt>
      <trkpt lat="41.85728" lon="0.38782117">
        <time>2022-07-07T09:01:35Z</time>
      </trkpt>
      <trkpt lat="41.85731" lon="0.3879455">
        <time>2022-07-07T09:01:37Z</time>
      </trkpt>
      <trkpt lat="41.85734" lon="0.3880695">
        <time>2022-07-07T09:01:39Z</time>
      </trkpt>
      <trkpt lat="41.857372" lon="0.38819283">
        <time>2022-07-07T09:01:41Z</time>
      </trkpt>
      <trkpt lat="41.857384" lon="0.38825417">
        <time>2022-07-07T09:01:42Z</time>
      </trkpt>
      <trkpt lat="41.857414" lon="0.38837615">
        <time>2022-07-07T09:01:44Z</time>
      </trkpt>
      <trkpt lat="41.85743" lon="0.38843617">
        <time>2022-07-07T09:01:45Z</time>
      </trkpt>
      <trkpt lat="41.85746" lon="0.38855916">
        <time>2022-07-07T09:01:47Z</time>
      </trkpt>
      <trkpt lat="41.85747" lon="0.38861915">
        <time>2022-07-07T09:01:48Z</time>
      </trkpt>
      <trkpt lat="41.857502" lon="0.38873848">
        <time>2022-07-07T09:01:50Z</time>
      </trkpt>
      <trkpt lat="41.857533" lon="0.38885716">
        <time>2022-07-07T09:01:52Z</time>
      </trkpt>
      <trkpt lat="41.857548" lon="0.38892016">
        <time>2022-07-07T09:01:53Z</time>
      </trkpt>
      <trkpt lat="41.85758" lon="0.3890438">
        <time>2022-07-07T09:01:55Z</time>
      </trkpt>
      <trkpt lat="41.85761" lon="0.3891668">
        <time>2022-07-07T09:01:57Z</time>
      </trkpt>
      <trkpt lat="41.857624" lon="0.3892278">
        <time>2022-07-07T09:01:58Z</time>
      </trkpt>
      <trkpt lat="41.85765" lon="0.38934615">
        <time>2022-07-07T09:02:00Z</time>
      </trkpt>
      <trkpt lat="41.857677" lon="0.38946146">
        <time>2022-07-07T09:02:02Z</time>
      </trkpt>
      <trkpt lat="41.857704" lon="0.3895788">
        <time>2022-07-07T09:02:04Z</time>
      </trkpt>
      <trkpt lat="41.85772" lon="0.3896378">
        <time>2022-07-07T09:02:05Z</time>
      </trkpt>
      <trkpt lat="41.85775" lon="0.38975847">
        <time>2022-07-07T09:02:07Z</time>
      </trkpt>
      <trkpt lat="41.857777" lon="0.3898798">
        <time>2022-07-07T09:02:09Z</time>
      </trkpt>
      <trkpt lat="41.857807" lon="0.3900028">
        <time>2022-07-07T09:02:11Z</time>
      </trkpt>
      <trkpt lat="41.857822" lon="0.39006478">
        <time>2022-07-07T09:02:12Z</time>
      </trkpt>
      <trkpt lat="41.85785" lon="0.39018744">
        <time>2022-07-07T09:02:14Z</time>
      </trkpt>
      <trkpt lat="41.857864" lon="0.39024812">
        <time>2022-07-07T09:02:15Z</time>
      </trkpt>
      <trkpt lat="41.85789" lon="0.39037076">
        <time>2022-07-07T09:02:17Z</time>
      </trkpt>
      <trkpt lat="41.857906" lon="0.39043242">
        <time>2022-07-07T09:02:18Z</time>
      </trkpt>
      <trkpt lat="41.857937" lon="0.39055377">
        <time>2022-07-07T09:02:20Z</time>
      </trkpt>
      <trkpt lat="41.857952" lon="0.3906134">
        <time>2022-07-07T09:02:21Z</time>
      </trkpt>
      <trkpt lat="41.857983" lon="0.39073342">
        <time>2022-07-07T09:02:23Z</time>
      </trkpt>
      <trkpt lat="41.858013" lon="0.39085543">
        <time>2022-07-07T09:02:25Z</time>
      </trkpt>
      <trkpt lat="41.858044" lon="0.3909794">
        <time>2022-07-07T09:02:27Z</time>
      </trkpt>
      <trkpt lat="41.858055" lon="0.3910404">
        <time>2022-07-07T09:02:28Z</time>
      </trkpt>
      <trkpt lat="41.858086" lon="0.39116508">
        <time>2022-07-07T09:02:30Z</time>
      </trkpt>
      <trkpt lat="41.858116" lon="0.39128774">
        <time>2022-07-07T09:02:32Z</time>
      </trkpt>
      <trkpt lat="41.858128" lon="0.3913494">
        <time>2022-07-07T09:02:33Z</time>
      </trkpt>
      <trkpt lat="41.85816" lon="0.3914734">
        <time>2022-07-07T09:02:35Z</time>
      </trkpt>
      <trkpt lat="41.858173" lon="0.39153606">
        <time>2022-07-07T09:02:36Z</time>
      </trkpt>
      <trkpt lat="41.8582" lon="0.39166173">
        <time>2022-07-07T09:02:38Z</time>
      </trkpt>
      <trkpt lat="41.85823" lon="0.3917877">
        <time>2022-07-07T09:02:40Z</time>
      </trkpt>
      <trkpt lat="41.85826" lon="0.3919137">
        <time>2022-07-07T09:02:42Z</time>
      </trkpt>
      <trkpt lat="41.85829" lon="0.39204073">
        <time>2022-07-07T09:02:44Z</time>
      </trkpt>
      <trkpt lat="41.858322" lon="0.3921654">
        <time>2022-07-07T09:02:46Z</time>
      </trkpt>
      <trkpt lat="41.858353" lon="0.39228904">
        <time>2022-07-07T09:02:48Z</time>
      </trkpt>
      <trkpt lat="41.858364" lon="0.3923507">
        <time>2022-07-07T09:02:49Z</time>
      </trkpt>
      <trkpt lat="41.858395" lon="0.3924747">
        <time>2022-07-07T09:02:51Z</time>
      </trkpt>
      <trkpt lat="41.858425" lon="0.3925957">
        <time>2022-07-07T09:02:53Z</time>
      </trkpt>
      <trkpt lat="41.85844" lon="0.3926557">
        <time>2022-07-07T09:02:54Z</time>
      </trkpt>
      <trkpt lat="41.85847" lon="0.39277637">
        <time>2022-07-07T09:02:56Z</time>
      </trkpt>
      <trkpt lat="41.8585" lon="0.392897">
        <time>2022-07-07T09:02:58Z</time>
      </trkpt>
      <trkpt lat="41.85853" lon="0.39301535">
        <time>2022-07-07T09:03:00Z</time>
      </trkpt>
      <trkpt lat="41.858555" lon="0.39312702">
        <time>2022-07-07T09:03:02Z</time>
      </trkpt>
      <trkpt lat="41.858578" lon="0.39323702">
        <time>2022-07-07T09:03:04Z</time>
      </trkpt>
      <trkpt lat="41.858604" lon="0.39334366">
        <time>2022-07-07T09:03:06Z</time>
      </trkpt>
      <trkpt lat="41.858627" lon="0.39344132">
        <time>2022-07-07T09:03:08Z</time>
      </trkpt>
      <trkpt lat="41.85865" lon="0.39353833">
        <time>2022-07-07T09:03:10Z</time>
      </trkpt>
      <trkpt lat="41.858673" lon="0.39363334">
        <time>2022-07-07T09:03:12Z</time>
      </trkpt>
      <trkpt lat="41.858696" lon="0.39372566">
        <time>2022-07-07T09:03:14Z</time>
      </trkpt>
      <trkpt lat="41.858715" lon="0.393814">
        <time>2022-07-07T09:03:16Z</time>
      </trkpt>
      <trkpt lat="41.858738" lon="0.393904">
        <time>2022-07-07T09:03:18Z</time>
      </trkpt>
      <trkpt lat="41.858757" lon="0.393989">
        <time>2022-07-07T09:03:20Z</time>
      </trkpt>
      <trkpt lat="41.85878" lon="0.39407164">
        <time>2022-07-07T09:03:22Z</time>
      </trkpt>
      <trkpt lat="41.8588" lon="0.3941513">
        <time>2022-07-07T09:03:24Z</time>
      </trkpt>
      <trkpt lat="41.858818" lon="0.39422864">
        <time>2022-07-07T09:03:26Z</time>
      </trkpt>
      <trkpt lat="41.858837" lon="0.3943053">
        <time>2022-07-07T09:03:28Z</time>
      </trkpt>
      <trkpt lat="41.858856" lon="0.3943823">
        <time>2022-07-07T09:03:30Z</time>
      </trkpt>
      <trkpt lat="41.858875" lon="0.3944603">
        <time>2022-07-07T09:03:32Z</time>
      </trkpt>
      <trkpt lat="41.85889" lon="0.3945393">
        <time>2022-07-07T09:03:34Z</time>
      </trkpt>
      <trkpt lat="41.85891" lon="0.39461896">
        <time>2022-07-07T09:03:36Z</time>
      </trkpt>
      <trkpt lat="41.85893" lon="0.39469796">
        <time>2022-07-07T09:03:38Z</time>
      </trkpt>
      <trkpt lat="41.858944" lon="0.39477596">
        <time>2022-07-07T09:03:40Z</time>
      </trkpt>
      <trkpt lat="41.858963" lon="0.3948526">
        <time>2022-07-07T09:03:42Z</time>
      </trkpt>
      <trkpt lat="41.858982" lon="0.39492896">
        <time>2022-07-07T09:03:44Z</time>
      </trkpt>
      <trkpt lat="41.859" lon="0.3950053">
        <time>2022-07-07T09:03:46Z</time>
      </trkpt>
      <trkpt lat="41.85902" lon="0.39508095">
        <time>2022-07-07T09:03:48Z</time>
      </trkpt>
      <trkpt lat="41.85904" lon="0.39515728">
        <time>2022-07-07T09:03:50Z</time>
      </trkpt>
      <trkpt lat="41.859062" lon="0.3952346">
        <time>2022-07-07T09:03:52Z</time>
      </trkpt>
      <trkpt lat="41.85908" lon="0.39531392">
        <time>2022-07-07T09:03:54Z</time>
      </trkpt>
      <trkpt lat="41.8591" lon="0.39539292">
        <time>2022-07-07T09:03:56Z</time>
      </trkpt>
      <trkpt lat="41.859116" lon="0.39547327">
        <time>2022-07-07T09:03:58Z</time>
      </trkpt>
      <trkpt lat="41.859135" lon="0.39555225">
        <time>2022-07-07T09:04:00Z</time>
      </trkpt>
      <trkpt lat="41.859154" lon="0.3956326">
        <time>2022-07-07T09:04:02Z</time>
      </trkpt>
      <trkpt lat="41.859173" lon="0.3957129">
        <time>2022-07-07T09:04:04Z</time>
      </trkpt>
      <trkpt lat="41.85919" lon="0.39579526">
        <time>2022-07-07T09:04:06Z</time>
      </trkpt>
      <trkpt lat="41.85921" lon="0.39587557">
        <time>2022-07-07T09:04:08Z</time>
      </trkpt>
      <trkpt lat="41.85923" lon="0.39595625">
        <time>2022-07-07T09:04:10Z</time>
      </trkpt>
      <trkpt lat="41.85925" lon="0.3960379">
        <time>2022-07-07T09:04:12Z</time>
      </trkpt>
      <trkpt lat="41.859272" lon="0.39612055">
        <time>2022-07-07T09:04:14Z</time>
      </trkpt>
      <trkpt lat="41.85929" lon="0.39620423">
        <time>2022-07-07T09:04:16Z</time>
      </trkpt>
      <trkpt lat="41.85931" lon="0.39629322">
        <time>2022-07-07T09:04:18Z</time>
      </trkpt>
      <trkpt lat="41.85933" lon="0.39638522">
        <time>2022-07-07T09:04:20Z</time>
      </trkpt>
      <trkpt lat="41.859352" lon="0.39647722">
        <time>2022-07-07T09:04:22Z</time>
      </trkpt>
      <trkpt lat="41.859375" lon="0.39656922">
        <time>2022-07-07T09:04:24Z</time>
      </trkpt>
      <trkpt lat="41.859398" lon="0.39666355">
        <time>2022-07-07T09:04:26Z</time>
      </trkpt>
      <trkpt lat="41.85942" lon="0.39675787">
        <time>2022-07-07T09:04:28Z</time>
      </trkpt>
      <trkpt lat="41.859444" lon="0.39685354">
        <time>2022-07-07T09:04:30Z</time>
      </trkpt>
      <trkpt lat="41.859467" lon="0.3969482">
        <time>2022-07-07T09:04:32Z</time>
      </trkpt>
      <trkpt lat="41.85949" lon="0.3970442">
        <time>2022-07-07T09:04:34Z</time>
      </trkpt>
      <trkpt lat="41.859516" lon="0.39714053">
        <time>2022-07-07T09:04:36Z</time>
      </trkpt>
      <trkpt lat="41.85954" lon="0.39724618">
        <time>2022-07-07T09:04:38Z</time>
      </trkpt>
      <trkpt lat="41.859566" lon="0.39735386">
        <time>2022-07-07T09:04:40Z</time>
      </trkpt>
      <trkpt lat="41.859592" lon="0.3974622">
        <time>2022-07-07T09:04:42Z</time>
      </trkpt>
      <trkpt lat="41.85962" lon="0.39757052">
        <time>2022-07-07T09:04:44Z</time>
      </trkpt>
      <trkpt lat="41.859646" lon="0.39768085">
        <time>2022-07-07T09:04:46Z</time>
      </trkpt>
      <trkpt lat="41.859673" lon="0.3978015">
        <time>2022-07-07T09:04:48Z</time>
      </trkpt>
      <trkpt lat="41.859688" lon="0.3978645">
        <time>2022-07-07T09:04:49Z</time>
      </trkpt>
      <trkpt lat="41.85972" lon="0.39799282">
        <time>2022-07-07T09:04:51Z</time>
      </trkpt>
      <trkpt lat="41.85975" lon="0.39811617">
        <time>2022-07-07T09:04:53Z</time>
      </trkpt>
      <trkpt lat="41.85978" lon="0.3982485">
        <time>2022-07-07T09:04:55Z</time>
      </trkpt>
      <trkpt lat="41.859795" lon="0.39831683">
        <time>2022-07-07T09:04:56Z</time>
      </trkpt>
      <trkpt lat="41.859814" lon="0.39838615">
        <time>2022-07-07T09:04:57Z</time>
      </trkpt>
      <trkpt lat="41.85983" lon="0.39845648">
        <time>2022-07-07T09:04:58Z</time>
      </trkpt>
      <trkpt lat="41.859844" lon="0.39852813">
        <time>2022-07-07T09:04:59Z</time>
      </trkpt>
      <trkpt lat="41.859863" lon="0.39860046">
        <time>2022-07-07T09:05:00Z</time>
      </trkpt>
      <trkpt lat="41.85988" lon="0.39867413">
        <time>2022-07-07T09:05:01Z</time>
      </trkpt>
      <trkpt lat="41.859898" lon="0.39874712">
        <time>2022-07-07T09:05:02Z</time>
      </trkpt>
      <trkpt lat="41.859913" lon="0.39882147">
        <time>2022-07-07T09:05:03Z</time>
      </trkpt>
      <trkpt lat="41.859932" lon="0.3988948">
        <time>2022-07-07T09:05:04Z</time>
      </trkpt>
      <trkpt lat="41.859947" lon="0.39896813">
        <time>2022-07-07T09:05:05Z</time>
      </trkpt>
      <trkpt lat="41.859966" lon="0.39904144">
        <time>2022-07-07T09:05:06Z</time>
      </trkpt>
      <trkpt lat="41.859985" lon="0.3991161">
        <time>2022-07-07T09:05:07Z</time>
      </trkpt>
      <trkpt lat="41.86" lon="0.3991911">
        <time>2022-07-07T09:05:08Z</time>
      </trkpt>
      <trkpt lat="41.86002" lon="0.39926645">
        <time>2022-07-07T09:05:09Z</time>
      </trkpt>
      <trkpt lat="41.860035" lon="0.3993421">
        <time>2022-07-07T09:05:10Z</time>
      </trkpt>
      <trkpt lat="41.860054" lon="0.39941844">
        <time>2022-07-07T09:05:11Z</time>
      </trkpt>
      <trkpt lat="41.860073" lon="0.39949542">
        <time>2022-07-07T09:05:12Z</time>
      </trkpt>
      <trkpt lat="41.860092" lon="0.3995731">
        <time>2022-07-07T09:05:13Z</time>
      </trkpt>
      <trkpt lat="41.86011" lon="0.39965042">
        <time>2022-07-07T09:05:14Z</time>
      </trkpt>
      <trkpt lat="41.86013" lon="0.39972743">
        <time>2022-07-07T09:05:15Z</time>
      </trkpt>
      <trkpt lat="41.86015" lon="0.39980474">
        <time>2022-07-07T09:05:16Z</time>
      </trkpt>
      <trkpt lat="41.860165" lon="0.39988208">
        <time>2022-07-07T09:05:17Z</time>
      </trkpt>
      <trkpt lat="41.860184" lon="0.3999591">
        <time>2022-07-07T09:05:18Z</time>
      </trkpt>
      <trkpt lat="41.860203" lon="0.4000354">
        <time>2022-07-07T09:05:19Z</time>
      </trkpt>
      <trkpt lat="41.86022" lon="0.40011075">
        <time>2022-07-07T09:05:20Z</time>
      </trkpt>
      <trkpt lat="41.86024" lon="0.4001854">
        <time>2022-07-07T09:05:21Z</time>
      </trkpt>
      <trkpt lat="41.86026" lon="0.40025973">
        <time>2022-07-07T09:05:22Z</time>
      </trkpt>
      <trkpt lat="41.860275" lon="0.40033305">
        <time>2022-07-07T09:05:23Z</time>
      </trkpt>
      <trkpt lat="41.860294" lon="0.40041038">
        <time>2022-07-07T09:05:24Z</time>
      </trkpt>
      <trkpt lat="41.86031" lon="0.4004804">
        <time>2022-07-07T09:05:25Z</time>
      </trkpt>
      <trkpt lat="41.86033" lon="0.40054905">
        <time>2022-07-07T09:05:26Z</time>
      </trkpt>
      <trkpt lat="41.86036" lon="0.40068272">
        <time>2022-07-07T09:05:28Z</time>
      </trkpt>
      <trkpt lat="41.860374" lon="0.40074804">
        <time>2022-07-07T09:05:29Z</time>
      </trkpt>
      <trkpt lat="41.8604" lon="0.40087304">
        <time>2022-07-07T09:05:31Z</time>
      </trkpt>
      <trkpt lat="41.86043" lon="0.40099037">
        <time>2022-07-07T09:05:33Z</time>
      </trkpt>
      <trkpt lat="41.86046" lon="0.4011017">
        <time>2022-07-07T09:05:35Z</time>
      </trkpt>
      <trkpt lat="41.86048" lon="0.4012027">
        <time>2022-07-07T09:05:37Z</time>
      </trkpt>
      <trkpt lat="41.860508" lon="0.40129837">
        <time>2022-07-07T09:05:39Z</time>
      </trkpt>
      <trkpt lat="41.86053" lon="0.4013907">
        <time>2022-07-07T09:05:41Z</time>
      </trkpt>
      <trkpt lat="41.86055" lon="0.4014777">
        <time>2022-07-07T09:05:43Z</time>
      </trkpt>
      <trkpt lat="41.86057" lon="0.40156">
        <time>2022-07-07T09:05:45Z</time>
      </trkpt>
      <trkpt lat="41.860588" lon="0.40164134">
        <time>2022-07-07T09:05:47Z</time>
      </trkpt>
      <trkpt lat="41.86061" lon="0.401722">
        <time>2022-07-07T09:05:49Z</time>
      </trkpt>
      <trkpt lat="41.86063" lon="0.40180033">
        <time>2022-07-07T09:05:51Z</time>
      </trkpt>
      <trkpt lat="41.86065" lon="0.40188166">
        <time>2022-07-07T09:05:53Z</time>
      </trkpt>
      <trkpt lat="41.86067" lon="0.40195534">
        <time>2022-07-07T09:05:55Z</time>
      </trkpt>
      <trkpt lat="41.860687" lon="0.40203667">
        <time>2022-07-07T09:05:57Z</time>
      </trkpt>
      <trkpt lat="41.860706" lon="0.40211567">
        <time>2022-07-07T09:05:59Z</time>
      </trkpt>
      <trkpt lat="41.860725" lon="0.4021933">
        <time>2022-07-07T09:06:01Z</time>
      </trkpt>
      <trkpt lat="41.860744" lon="0.40227664">
        <time>2022-07-07T09:06:03Z</time>
      </trkpt>
      <trkpt lat="41.860767" lon="0.40236598">
        <time>2022-07-07T09:06:05Z</time>
      </trkpt>
      <trkpt lat="41.860786" lon="0.4024533">
        <time>2022-07-07T09:06:07Z</time>
      </trkpt>
      <trkpt lat="41.86081" lon="0.40254465">
        <time>2022-07-07T09:06:09Z</time>
      </trkpt>
      <trkpt lat="41.860836" lon="0.4026393">
        <time>2022-07-07T09:06:11Z</time>
      </trkpt>
      <trkpt lat="41.86086" lon="0.40273795">
        <time>2022-07-07T09:06:13Z</time>
      </trkpt>
      <trkpt lat="41.860886" lon="0.4028406">
        <time>2022-07-07T09:06:15Z</time>
      </trkpt>
      <trkpt lat="41.860912" lon="0.40295196">
        <time>2022-07-07T09:06:17Z</time>
      </trkpt>
      <trkpt lat="41.860935" lon="0.40306395">
        <time>2022-07-07T09:06:19Z</time>
      </trkpt>
      <trkpt lat="41.860962" lon="0.40317827">
        <time>2022-07-07T09:06:21Z</time>
      </trkpt>
      <trkpt lat="41.86099" lon="0.40328562">
        <time>2022-07-07T09:06:23Z</time>
      </trkpt>
      <trkpt lat="41.861015" lon="0.40339395">
        <time>2022-07-07T09:06:25Z</time>
      </trkpt>
      <trkpt lat="41.861046" lon="0.40350294">
        <time>2022-07-07T09:06:27Z</time>
      </trkpt>
      <trkpt lat="41.861073" lon="0.40360728">
        <time>2022-07-07T09:06:29Z</time>
      </trkpt>
      <trkpt lat="41.861107" lon="0.4037166">
        <time>2022-07-07T09:06:31Z</time>
      </trkpt>
      <trkpt lat="41.861137" lon="0.40383527">
        <time>2022-07-07T09:06:33Z</time>
      </trkpt>
      <trkpt lat="41.861153" lon="0.40389192">
        <time>2022-07-07T09:06:34Z</time>
      </trkpt>
      <trkpt lat="41.861183" lon="0.40402058">
        <time>2022-07-07T09:06:36Z</time>
      </trkpt>
      <trkpt lat="41.861195" lon="0.40408757">
        <time>2022-07-07T09:06:37Z</time>
      </trkpt>
      <trkpt lat="41.861225" lon="0.40421858">
        <time>2022-07-07T09:06:39Z</time>
      </trkpt>
      <trkpt lat="41.86124" lon="0.40429392">
        <time>2022-07-07T09:06:40Z</time>
      </trkpt>
      <trkpt lat="41.86126" lon="0.40437156">
        <time>2022-07-07T09:06:41Z</time>
      </trkpt>
      <trkpt lat="41.86128" lon="0.4044509">
        <time>2022-07-07T09:06:42Z</time>
      </trkpt>
      <trkpt lat="41.861298" lon="0.40453255">
        <time>2022-07-07T09:06:43Z</time>
      </trkpt>
      <trkpt lat="41.86132" lon="0.40461656">
        <time>2022-07-07T09:06:44Z</time>
      </trkpt>
      <trkpt lat="41.86134" lon="0.40470222">
        <time>2022-07-07T09:06:45Z</time>
      </trkpt>
      <trkpt lat="41.861362" lon="0.40479022">
        <time>2022-07-07T09:06:46Z</time>
      </trkpt>
      <trkpt lat="41.86138" lon="0.4048792">
        <time>2022-07-07T09:06:47Z</time>
      </trkpt>
      <trkpt lat="41.861404" lon="0.40496954">
        <time>2022-07-07T09:06:48Z</time>
      </trkpt>
      <trkpt lat="41.861427" lon="0.40506256">
        <time>2022-07-07T09:06:49Z</time>
      </trkpt>
      <trkpt lat="41.861454" lon="0.40515754">
        <time>2022-07-07T09:06:50Z</time>
      </trkpt>
      <trkpt lat="41.861477" lon="0.4052539">
        <time>2022-07-07T09:06:51Z</time>
      </trkpt>
      <trkpt lat="41.861504" lon="0.40535253">
        <time>2022-07-07T09:06:52Z</time>
      </trkpt>
      <trkpt lat="41.86153" lon="0.40545288">
        <time>2022-07-07T09:06:53Z</time>
      </trkpt>
      <trkpt lat="41.861553" lon="0.40555352">
        <time>2022-07-07T09:06:54Z</time>
      </trkpt>
      <trkpt lat="41.86158" lon="0.40565187">
        <time>2022-07-07T09:06:55Z</time>
      </trkpt>
      <trkpt lat="41.861607" lon="0.4057525">
        <time>2022-07-07T09:06:56Z</time>
      </trkpt>
      <trkpt lat="41.86163" lon="0.40585384">
        <time>2022-07-07T09:06:57Z</time>
      </trkpt>
      <trkpt lat="41.861656" lon="0.4059535">
        <time>2022-07-07T09:06:58Z</time>
      </trkpt>
      <trkpt lat="41.86168" lon="0.40605184">
        <time>2022-07-07T09:06:59Z</time>
      </trkpt>
      <trkpt lat="41.861706" lon="0.4061475">
        <time>2022-07-07T09:07:00Z</time>
      </trkpt>
      <trkpt lat="41.86173" lon="0.40624082">
        <time>2022-07-07T09:07:01Z</time>
      </trkpt>
      <trkpt lat="41.86175" lon="0.40632516">
        <time>2022-07-07T09:07:02Z</time>
      </trkpt>
      <trkpt lat="41.861774" lon="0.40640882">
        <time>2022-07-07T09:07:03Z</time>
      </trkpt>
      <trkpt lat="41.8618" lon="0.40649548">
        <time>2022-07-07T09:07:04Z</time>
      </trkpt>
      <trkpt lat="41.86182" lon="0.40657282">
        <time>2022-07-07T09:07:05Z</time>
      </trkpt>
      <trkpt lat="41.86184" lon="0.40664846">
        <time>2022-07-07T09:07:06Z</time>
      </trkpt>
      <trkpt lat="41.86186" lon="0.4067218">
        <time>2022-07-07T09:07:07Z</time>
      </trkpt>
      <trkpt lat="41.861877" lon="0.40679547">
        <time>2022-07-07T09:07:08Z</time>
      </trkpt>
      <trkpt lat="41.861893" lon="0.40686345">
        <time>2022-07-07T09:07:09Z</time>
      </trkpt>
      <trkpt lat="41.86191" lon="0.40692845">
        <time>2022-07-07T09:07:10Z</time>
      </trkpt>
      <trkpt lat="41.861935" lon="0.40704945">
        <time>2022-07-07T09:07:12Z</time>
      </trkpt>
      <trkpt lat="41.861958" lon="0.40715778">
        <time>2022-07-07T09:07:14Z</time>
      </trkpt>
      <trkpt lat="41.861977" lon="0.40726078">
        <time>2022-07-07T09:07:16Z</time>
      </trkpt>
      <trkpt lat="41.861996" lon="0.4073601">
        <time>2022-07-07T09:07:18Z</time>
      </trkpt>
      <trkpt lat="41.86202" lon="0.40745944">
        <time>2022-07-07T09:07:20Z</time>
      </trkpt>
      <trkpt lat="41.86204" lon="0.40755546">
        <time>2022-07-07T09:07:22Z</time>
      </trkpt>
      <trkpt lat="41.86206" lon="0.40764946">
        <time>2022-07-07T09:07:24Z</time>
      </trkpt>
      <trkpt lat="41.862083" lon="0.40774044">
        <time>2022-07-07T09:07:26Z</time>
      </trkpt>
      <trkpt lat="41.862103" lon="0.4078291">
        <time>2022-07-07T09:07:28Z</time>
      </trkpt>
      <trkpt lat="41.86212" lon="0.40791312">
        <time>2022-07-07T09:07:30Z</time>
      </trkpt>
      <trkpt lat="41.86214" lon="0.4079951">
        <time>2022-07-07T09:07:32Z</time>
      </trkpt>
      <trkpt lat="41.86216" lon="0.40807045">
        <time>2022-07-07T09:07:34Z</time>
      </trkpt>
      <trkpt lat="41.862175" lon="0.40814376">
        <time>2022-07-07T09:07:36Z</time>
      </trkpt>
      <trkpt lat="41.86219" lon="0.4082141">
        <time>2022-07-07T09:07:38Z</time>
      </trkpt>
      <trkpt lat="41.862206" lon="0.40828076">
        <time>2022-07-07T09:07:40Z</time>
      </trkpt>
      <trkpt lat="41.86223" lon="0.40837708">
        <time>2022-07-07T09:07:43Z</time>
      </trkpt>
      <trkpt lat="41.862244" lon="0.40843976">
        <time>2022-07-07T09:07:45Z</time>
      </trkpt>
      <trkpt lat="41.862267" lon="0.4085294">
        <time>2022-07-07T09:07:48Z</time>
      </trkpt>
      <trkpt lat="41.862286" lon="0.40861642">
        <time>2022-07-07T09:07:51Z</time>
      </trkpt>
      <trkpt lat="41.862312" lon="0.40870675">
        <time>2022-07-07T09:07:54Z</time>
      </trkpt>
      <trkpt lat="41.86234" lon="0.40879706">
        <time>2022-07-07T09:07:57Z</time>
      </trkpt>
      <trkpt lat="41.862354" lon="0.40886107">
        <time>2022-07-07T09:07:59Z</time>
      </trkpt>
      <trkpt lat="41.862373" lon="0.4089484">
        <time>2022-07-07T09:08:02Z</time>
      </trkpt>
      <trkpt lat="41.862392" lon="0.4090374">
        <time>2022-07-07T09:08:05Z</time>
      </trkpt>
      <trkpt lat="41.86241" lon="0.40913174">
        <time>2022-07-07T09:08:08Z</time>
      </trkpt>
      <trkpt lat="41.862427" lon="0.40919307">
        <time>2022-07-07T09:08:10Z</time>
      </trkpt>
      <trkpt lat="41.86245" lon="0.40928307">
        <time>2022-07-07T09:08:13Z</time>
      </trkpt>
      <trkpt lat="41.862473" lon="0.4093734">
        <time>2022-07-07T09:08:16Z</time>
      </trkpt>
      <trkpt lat="41.862484" lon="0.40943605">
        <time>2022-07-07T09:08:18Z</time>
      </trkpt>
      <trkpt lat="41.862507" lon="0.40952805">
        <time>2022-07-07T09:08:21Z</time>
      </trkpt>
      <trkpt lat="41.86253" lon="0.40962505">
        <time>2022-07-07T09:08:24Z</time>
      </trkpt>
      <trkpt lat="41.862553" lon="0.40972704">
        <time>2022-07-07T09:08:27Z</time>
      </trkpt>
      <trkpt lat="41.86257" lon="0.40979338">
        <time>2022-07-07T09:08:29Z</time>
      </trkpt>
      <trkpt lat="41.862587" lon="0.40986037">
        <time>2022-07-07T09:08:31Z</time>
      </trkpt>
      <trkpt lat="41.862606" lon="0.40993303">
        <time>2022-07-07T09:08:33Z</time>
      </trkpt>
      <trkpt lat="41.86262" lon="0.41000736">
        <time>2022-07-07T09:08:35Z</time>
      </trkpt>
      <trkpt lat="41.86264" lon="0.41008303">
        <time>2022-07-07T09:08:37Z</time>
      </trkpt>
      <trkpt lat="41.862656" lon="0.41015637">
        <time>2022-07-07T09:08:39Z</time>
      </trkpt>
      <trkpt lat="41.862675" lon="0.41023037">
        <time>2022-07-07T09:08:41Z</time>
      </trkpt>
      <trkpt lat="41.862694" lon="0.4103047">
        <time>2022-07-07T09:08:43Z</time>
      </trkpt>
      <trkpt lat="41.862713" lon="0.41038236">
        <time>2022-07-07T09:08:45Z</time>
      </trkpt>
      <trkpt lat="41.862736" lon="0.41046068">
        <time>2022-07-07T09:08:47Z</time>
      </trkpt>
      <trkpt lat="41.862755" lon="0.41053867">
        <time>2022-07-07T09:08:49Z</time>
      </trkpt>
      <trkpt lat="41.862774" lon="0.41062">
        <time>2022-07-07T09:08:51Z</time>
      </trkpt>
      <trkpt lat="41.862793" lon="0.41070202">
        <time>2022-07-07T09:08:53Z</time>
      </trkpt>
      <trkpt lat="41.862812" lon="0.41078702">
        <time>2022-07-07T09:08:55Z</time>
      </trkpt>
      <trkpt lat="41.862835" lon="0.41087502">
        <time>2022-07-07T09:08:57Z</time>
      </trkpt>
      <trkpt lat="41.862858" lon="0.41096035">
        <time>2022-07-07T09:08:59Z</time>
      </trkpt>
      <trkpt lat="41.86288" lon="0.41104567">
        <time>2022-07-07T09:09:01Z</time>
      </trkpt>
      <trkpt lat="41.862904" lon="0.41113168">
        <time>2022-07-07T09:09:03Z</time>
      </trkpt>
      <trkpt lat="41.862923" lon="0.41122133">
        <time>2022-07-07T09:09:05Z</time>
      </trkpt>
      <trkpt lat="41.862946" lon="0.41130832">
        <time>2022-07-07T09:09:07Z</time>
      </trkpt>
      <trkpt lat="41.862965" lon="0.41139832">
        <time>2022-07-07T09:09:09Z</time>
      </trkpt>
      <trkpt lat="41.862984" lon="0.41148666">
        <time>2022-07-07T09:09:11Z</time>
      </trkpt>
      <trkpt lat="41.863003" lon="0.41156998">
        <time>2022-07-07T09:09:13Z</time>
      </trkpt>
      <trkpt lat="41.86302" lon="0.41164798">
        <time>2022-07-07T09:09:15Z</time>
      </trkpt>
      <trkpt lat="41.86304" lon="0.41172564">
        <time>2022-07-07T09:09:17Z</time>
      </trkpt>
      <trkpt lat="41.863064" lon="0.41180798">
        <time>2022-07-07T09:09:19Z</time>
      </trkpt>
      <trkpt lat="41.863083" lon="0.41189265">
        <time>2022-07-07T09:09:21Z</time>
      </trkpt>
      <trkpt lat="41.863102" lon="0.4119783">
        <time>2022-07-07T09:09:23Z</time>
      </trkpt>
      <trkpt lat="41.86312" lon="0.4120643">
        <time>2022-07-07T09:09:25Z</time>
      </trkpt>
      <trkpt lat="41.86314" lon="0.41215095">
        <time>2022-07-07T09:09:27Z</time>
      </trkpt>
      <trkpt lat="41.86316" lon="0.4122376">
        <time>2022-07-07T09:09:29Z</time>
      </trkpt>
      <trkpt lat="41.86318" lon="0.41232327">
        <time>2022-07-07T09:09:31Z</time>
      </trkpt>
      <trkpt lat="41.863197" lon="0.41240495">
        <time>2022-07-07T09:09:33Z</time>
      </trkpt>
      <trkpt lat="41.863216" lon="0.41248327">
        <time>2022-07-07T09:09:35Z</time>
      </trkpt>
      <trkpt lat="41.863235" lon="0.41255727">
        <time>2022-07-07T09:09:37Z</time>
      </trkpt>
      <trkpt lat="41.863255" lon="0.41262692">
        <time>2022-07-07T09:09:39Z</time>
      </trkpt>
      <trkpt lat="41.863266" lon="0.4126946">
        <time>2022-07-07T09:09:41Z</time>
      </trkpt>
      <trkpt lat="41.863285" lon="0.41279158">
        <time>2022-07-07T09:09:44Z</time>
      </trkpt>
      <trkpt lat="41.863304" lon="0.41288358">
        <time>2022-07-07T09:09:47Z</time>
      </trkpt>
      <trkpt lat="41.86333" lon="0.4129786">
        <time>2022-07-07T09:09:50Z</time>
      </trkpt>
      <trkpt lat="41.86335" lon="0.4130436">
        <time>2022-07-07T09:09:52Z</time>
      </trkpt>
      <trkpt lat="41.863365" lon="0.41310692">
        <time>2022-07-07T09:09:54Z</time>
      </trkpt>
      <trkpt lat="41.863384" lon="0.41320425">
        <time>2022-07-07T09:09:57Z</time>
      </trkpt>
      <trkpt lat="41.8634" lon="0.41327026">
        <time>2022-07-07T09:09:59Z</time>
      </trkpt>
      <trkpt lat="41.86342" lon="0.41336924">
        <time>2022-07-07T09:10:02Z</time>
      </trkpt>
      <trkpt lat="41.863434" lon="0.41343325">
        <time>2022-07-07T09:10:04Z</time>
      </trkpt>
      <trkpt lat="41.86346" lon="0.41352925">
        <time>2022-07-07T09:10:07Z</time>
      </trkpt>
      <trkpt lat="41.863472" lon="0.4135956">
        <time>2022-07-07T09:10:09Z</time>
      </trkpt>
      <trkpt lat="41.863503" lon="0.41369224">
        <time>2022-07-07T09:10:12Z</time>
      </trkpt>
      <trkpt lat="41.863518" lon="0.4137569">
        <time>2022-07-07T09:10:14Z</time>
      </trkpt>
      <trkpt lat="41.86354" lon="0.4138219">
        <time>2022-07-07T09:10:16Z</time>
      </trkpt>
      <trkpt lat="41.86356" lon="0.41388324">
        <time>2022-07-07T09:10:18Z</time>
      </trkpt>
      <trkpt lat="41.86358" lon="0.41396722">
        <time>2022-07-07T09:10:21Z</time>
      </trkpt>
      <trkpt lat="41.863598" lon="0.4140409">
        <time>2022-07-07T09:10:24Z</time>
      </trkpt>
      <trkpt lat="41.86362" lon="0.41411456">
        <time>2022-07-07T09:10:27Z</time>
      </trkpt>
      <trkpt lat="41.86364" lon="0.41418388">
        <time>2022-07-07T09:10:30Z</time>
      </trkpt>
      <trkpt lat="41.863655" lon="0.41425055">
        <time>2022-07-07T09:10:33Z</time>
      </trkpt>
      <trkpt lat="41.863674" lon="0.41432455">
        <time>2022-07-07T09:10:36Z</time>
      </trkpt>
      <trkpt lat="41.86369" lon="0.41440088">
        <time>2022-07-07T09:10:39Z</time>
      </trkpt>
      <trkpt lat="41.86371" lon="0.4144752">
        <time>2022-07-07T09:10:42Z</time>
      </trkpt>
      <trkpt lat="41.863724" lon="0.4145502">
        <time>2022-07-07T09:10:45Z</time>
      </trkpt>
      <trkpt lat="41.863743" lon="0.41462553">
        <time>2022-07-07T09:10:48Z</time>
      </trkpt>
      <trkpt lat="41.86376" lon="0.41470185">
        <time>2022-07-07T09:10:51Z</time>
      </trkpt>
      <trkpt lat="41.863777" lon="0.41477886">
        <time>2022-07-07T09:10:54Z</time>
      </trkpt>
      <trkpt lat="41.86379" lon="0.4148562">
        <time>2022-07-07T09:10:57Z</time>
      </trkpt>
      <trkpt lat="41.863804" lon="0.41493118">
        <time>2022-07-07T09:11:00Z</time>
      </trkpt>
      <trkpt lat="41.863815" lon="0.4150062">
        <time>2022-07-07T09:11:03Z</time>
      </trkpt>
      <trkpt lat="41.863834" lon="0.4150822">
        <time>2022-07-07T09:11:06Z</time>
      </trkpt>
      <trkpt lat="41.863853" lon="0.4151585">
        <time>2022-07-07T09:11:09Z</time>
      </trkpt>
      <trkpt lat="41.863876" lon="0.4152352">
        <time>2022-07-07T09:11:12Z</time>
      </trkpt>
      <trkpt lat="41.863895" lon="0.41531083">
        <time>2022-07-07T09:11:15Z</time>
      </trkpt>
      <trkpt lat="41.863914" lon="0.4153885">
        <time>2022-07-07T09:11:18Z</time>
      </trkpt>
      <trkpt lat="41.86393" lon="0.4154665">
        <time>2022-07-07T09:11:21Z</time>
      </trkpt>
      <trkpt lat="41.86395" lon="0.41554382">
        <time>2022-07-07T09:11:24Z</time>
      </trkpt>
      <trkpt lat="41.863968" lon="0.41561916">
        <time>2022-07-07T09:11:27Z</time>
      </trkpt>
      <trkpt lat="41.863987" lon="0.4156965">
        <time>2022-07-07T09:11:30Z</time>
      </trkpt>
      <trkpt lat="41.86401" lon="0.41577283">
        <time>2022-07-07T09:11:33Z</time>
      </trkpt>
      <trkpt lat="41.864025" lon="0.4158485">
        <time>2022-07-07T09:11:36Z</time>
      </trkpt>
      <trkpt lat="41.864044" lon="0.4159265">
        <time>2022-07-07T09:11:39Z</time>
      </trkpt>
      <trkpt lat="41.864063" lon="0.41600314">
        <time>2022-07-07T09:11:42Z</time>
      </trkpt>
      <trkpt lat="41.86408" lon="0.41608146">
        <time>2022-07-07T09:11:45Z</time>
      </trkpt>
      <trkpt lat="41.86409" lon="0.4161608">
        <time>2022-07-07T09:11:48Z</time>
      </trkpt>
      <trkpt lat="41.864105" lon="0.41624546">
        <time>2022-07-07T09:11:51Z</time>
      </trkpt>
      <trkpt lat="41.864117" lon="0.41632578">
        <time>2022-07-07T09:11:54Z</time>
      </trkpt>
      <trkpt lat="41.864124" lon="0.41640645">
        <time>2022-07-07T09:11:57Z</time>
      </trkpt>
      <trkpt lat="41.864143" lon="0.4164971">
        <time>2022-07-07T09:12:00Z</time>
      </trkpt>
      <trkpt lat="41.864155" lon="0.41658112">
        <time>2022-07-07T09:12:03Z</time>
      </trkpt>
      <trkpt lat="41.86417" lon="0.4166611">
        <time>2022-07-07T09:12:06Z</time>
      </trkpt>
      <trkpt lat="41.864185" lon="0.41674444">
        <time>2022-07-07T09:12:09Z</time>
      </trkpt>
      <trkpt lat="41.864193" lon="0.4168341">
        <time>2022-07-07T09:12:12Z</time>
      </trkpt>
      <trkpt lat="41.8642" lon="0.4169261">
        <time>2022-07-07T09:12:15Z</time>
      </trkpt>
      <trkpt lat="41.8642" lon="0.41701743">
        <time>2022-07-07T09:12:18Z</time>
      </trkpt>
      <trkpt lat="41.8642" lon="0.4171091">
        <time>2022-07-07T09:12:21Z</time>
      </trkpt>
      <trkpt lat="41.864193" lon="0.41719976">
        <time>2022-07-07T09:12:24Z</time>
      </trkpt>
      <trkpt lat="41.86419" lon="0.4172954">
        <time>2022-07-07T09:12:27Z</time>
      </trkpt>
      <trkpt lat="41.86418" lon="0.41736707">
        <time>2022-07-07T09:12:29Z</time>
      </trkpt>
      <trkpt lat="41.864178" lon="0.41743806">
        <time>2022-07-07T09:12:31Z</time>
      </trkpt>
      <trkpt lat="41.86417" lon="0.41751206">
        <time>2022-07-07T09:12:33Z</time>
      </trkpt>
      <trkpt lat="41.864162" lon="0.41758972">
        <time>2022-07-07T09:12:35Z</time>
      </trkpt>
      <trkpt lat="41.86415" lon="0.4176694">
        <time>2022-07-07T09:12:37Z</time>
      </trkpt>
      <trkpt lat="41.864143" lon="0.41774973">
        <time>2022-07-07T09:12:39Z</time>
      </trkpt>
      <trkpt lat="41.864136" lon="0.41783404">
        <time>2022-07-07T09:12:41Z</time>
      </trkpt>
      <trkpt lat="41.86413" lon="0.41792038">
        <time>2022-07-07T09:12:43Z</time>
      </trkpt>
      <trkpt lat="41.86412" lon="0.41800904">
        <time>2022-07-07T09:12:45Z</time>
      </trkpt>
      <trkpt lat="41.86411" lon="0.41810036">
        <time>2022-07-07T09:12:47Z</time>
      </trkpt>
      <trkpt lat="41.8641" lon="0.41819003">
        <time>2022-07-07T09:12:49Z</time>
      </trkpt>
      <trkpt lat="41.86409" lon="0.41828468">
        <time>2022-07-07T09:12:51Z</time>
      </trkpt>
      <trkpt lat="41.86408" lon="0.41838035">
        <time>2022-07-07T09:12:53Z</time>
      </trkpt>
      <trkpt lat="41.864067" lon="0.41847435">
        <time>2022-07-07T09:12:55Z</time>
      </trkpt>
      <trkpt lat="41.86406" lon="0.41856802">
        <time>2022-07-07T09:12:57Z</time>
      </trkpt>
      <trkpt lat="41.864044" lon="0.41866633">
        <time>2022-07-07T09:12:59Z</time>
      </trkpt>
      <trkpt lat="41.864033" lon="0.41875967">
        <time>2022-07-07T09:13:01Z</time>
      </trkpt>
      <trkpt lat="41.864025" lon="0.41885266">
        <time>2022-07-07T09:13:03Z</time>
      </trkpt>
      <trkpt lat="41.864014" lon="0.41894668">
        <time>2022-07-07T09:13:05Z</time>
      </trkpt>
      <trkpt lat="41.864002" lon="0.41904432">
        <time>2022-07-07T09:13:07Z</time>
      </trkpt>
      <trkpt lat="41.863987" lon="0.41914767">
        <time>2022-07-07T09:13:09Z</time>
      </trkpt>
      <trkpt lat="41.863976" lon="0.41924265">
        <time>2022-07-07T09:13:11Z</time>
      </trkpt>
      <trkpt lat="41.863968" lon="0.41933867">
        <time>2022-07-07T09:13:13Z</time>
      </trkpt>
      <trkpt lat="41.863956" lon="0.419439">
        <time>2022-07-07T09:13:15Z</time>
      </trkpt>
      <trkpt lat="41.863945" lon="0.41954064">
        <time>2022-07-07T09:13:17Z</time>
      </trkpt>
      <trkpt lat="41.86393" lon="0.41963932">
        <time>2022-07-07T09:13:19Z</time>
      </trkpt>
      <trkpt lat="41.86392" lon="0.41973397">
        <time>2022-07-07T09:13:21Z</time>
      </trkpt>
      <trkpt lat="41.863907" lon="0.41983297">
        <time>2022-07-07T09:13:23Z</time>
      </trkpt>
      <trkpt lat="41.8639" lon="0.41993296">
        <time>2022-07-07T09:13:25Z</time>
      </trkpt>
      <trkpt lat="41.86389" lon="0.4200343">
        <time>2022-07-07T09:13:27Z</time>
      </trkpt>
      <trkpt lat="41.863888" lon="0.4201353">
        <time>2022-07-07T09:13:29Z</time>
      </trkpt>
      <trkpt lat="41.863884" lon="0.4202333">
        <time>2022-07-07T09:13:31Z</time>
      </trkpt>
      <trkpt lat="41.863873" lon="0.4203293">
        <time>2022-07-07T09:13:33Z</time>
      </trkpt>
      <trkpt lat="41.86386" lon="0.4204233">
        <time>2022-07-07T09:13:35Z</time>
      </trkpt>
      <trkpt lat="41.863846" lon="0.42051697">
        <time>2022-07-07T09:13:37Z</time>
      </trkpt>
      <trkpt lat="41.86384" lon="0.4206156">
        <time>2022-07-07T09:13:39Z</time>
      </trkpt>
      <trkpt lat="41.863827" lon="0.42070627">
        <time>2022-07-07T09:13:41Z</time>
      </trkpt>
      <trkpt lat="41.863823" lon="0.42079893">
        <time>2022-07-07T09:13:43Z</time>
      </trkpt>
      <trkpt lat="41.863823" lon="0.42089528">
        <time>2022-07-07T09:13:45Z</time>
      </trkpt>
      <trkpt lat="41.863827" lon="0.42098993">
        <time>2022-07-07T09:13:47Z</time>
      </trkpt>
      <trkpt lat="41.863834" lon="0.42109427">
        <time>2022-07-07T09:13:49Z</time>
      </trkpt>
      <trkpt lat="41.86385" lon="0.4211949">
        <time>2022-07-07T09:13:51Z</time>
      </trkpt>
      <trkpt lat="41.86386" lon="0.42129493">
        <time>2022-07-07T09:13:53Z</time>
      </trkpt>
      <trkpt lat="41.863873" lon="0.42139524">
        <time>2022-07-07T09:13:55Z</time>
      </trkpt>
      <trkpt lat="41.863884" lon="0.42149225">
        <time>2022-07-07T09:13:57Z</time>
      </trkpt>
      <trkpt lat="41.863895" lon="0.4215849">
        <time>2022-07-07T09:13:59Z</time>
      </trkpt>
      <trkpt lat="41.863914" lon="0.42167324">
        <time>2022-07-07T09:14:01Z</time>
      </trkpt>
      <trkpt lat="41.863945" lon="0.4217629">
        <time>2022-07-07T09:14:03Z</time>
      </trkpt>
      <trkpt lat="41.863983" lon="0.42186055">
        <time>2022-07-07T09:14:05Z</time>
      </trkpt>
      <trkpt lat="41.864025" lon="0.42196622">
        <time>2022-07-07T09:14:07Z</time>
      </trkpt>
      <trkpt lat="41.86405" lon="0.42202088">
        <time>2022-07-07T09:14:08Z</time>
      </trkpt>
      <trkpt lat="41.864105" lon="0.4221339">
        <time>2022-07-07T09:14:10Z</time>
      </trkpt>
      <trkpt lat="41.864136" lon="0.42219153">
        <time>2022-07-07T09:14:11Z</time>
      </trkpt>
      <trkpt lat="41.86417" lon="0.42225087">
        <time>2022-07-07T09:14:12Z</time>
      </trkpt>
      <trkpt lat="41.86421" lon="0.42231154">
        <time>2022-07-07T09:14:13Z</time>
      </trkpt>
      <trkpt lat="41.864246" lon="0.42237252">
        <time>2022-07-07T09:14:14Z</time>
      </trkpt>
      <trkpt lat="41.86429" lon="0.4224332">
        <time>2022-07-07T09:14:15Z</time>
      </trkpt>
      <trkpt lat="41.864334" lon="0.42249486">
        <time>2022-07-07T09:14:16Z</time>
      </trkpt>
      <trkpt lat="41.86438" lon="0.42255652">
        <time>2022-07-07T09:14:17Z</time>
      </trkpt>
      <trkpt lat="41.864433" lon="0.42261752">
        <time>2022-07-07T09:14:18Z</time>
      </trkpt>
      <trkpt lat="41.864487" lon="0.42267784">
        <time>2022-07-07T09:14:19Z</time>
      </trkpt>
      <trkpt lat="41.86454" lon="0.42273685">
        <time>2022-07-07T09:14:20Z</time>
      </trkpt>
      <trkpt lat="41.864597" lon="0.4227965">
        <time>2022-07-07T09:14:21Z</time>
      </trkpt>
      <trkpt lat="41.864655" lon="0.42285582">
        <time>2022-07-07T09:14:22Z</time>
      </trkpt>
      <trkpt lat="41.864716" lon="0.42291617">
        <time>2022-07-07T09:14:23Z</time>
      </trkpt>
      <trkpt lat="41.864773" lon="0.42297617">
        <time>2022-07-07T09:14:24Z</time>
      </trkpt>
      <trkpt lat="41.864834" lon="0.42303616">
        <time>2022-07-07T09:14:25Z</time>
      </trkpt>
      <trkpt lat="41.864895" lon="0.4230975">
        <time>2022-07-07T09:14:26Z</time>
      </trkpt>
      <trkpt lat="41.864956" lon="0.42315915">
        <time>2022-07-07T09:14:27Z</time>
      </trkpt>
      <trkpt lat="41.865017" lon="0.42322147">
        <time>2022-07-07T09:14:28Z</time>
      </trkpt>
      <trkpt lat="41.865078" lon="0.42328414">
        <time>2022-07-07T09:14:29Z</time>
      </trkpt>
      <trkpt lat="41.865143" lon="0.42334646">
        <time>2022-07-07T09:14:30Z</time>
      </trkpt>
      <trkpt lat="41.865204" lon="0.4234098">
        <time>2022-07-07T09:14:31Z</time>
      </trkpt>
      <trkpt lat="41.865265" lon="0.42347413">
        <time>2022-07-07T09:14:32Z</time>
      </trkpt>
      <trkpt lat="41.865326" lon="0.4235398">
        <time>2022-07-07T09:14:33Z</time>
      </trkpt>
      <trkpt lat="41.865387" lon="0.4236058">
        <time>2022-07-07T09:14:34Z</time>
      </trkpt>
      <trkpt lat="41.865448" lon="0.4236701">
        <time>2022-07-07T09:14:35Z</time>
      </trkpt>
      <trkpt lat="41.865513" lon="0.42373377">
        <time>2022-07-07T09:14:36Z</time>
      </trkpt>
      <trkpt lat="41.865574" lon="0.42379645">
        <time>2022-07-07T09:14:37Z</time>
      </trkpt>
      <trkpt lat="41.86563" lon="0.42385477">
        <time>2022-07-07T09:14:38Z</time>
      </trkpt>
      <trkpt lat="41.8657" lon="0.4239191">
        <time>2022-07-07T09:14:39Z</time>
      </trkpt>
      <trkpt lat="41.865765" lon="0.4239831">
        <time>2022-07-07T09:14:40Z</time>
      </trkpt>
      <trkpt lat="41.86582" lon="0.42404243">
        <time>2022-07-07T09:14:41Z</time>
      </trkpt>
      <trkpt lat="41.86588" lon="0.4241021">
        <time>2022-07-07T09:14:42Z</time>
      </trkpt>
      <trkpt lat="41.865932" lon="0.42416275">
        <time>2022-07-07T09:14:43Z</time>
      </trkpt>
      <trkpt lat="41.86599" lon="0.42422408">
        <time>2022-07-07T09:14:44Z</time>
      </trkpt>
      <trkpt lat="41.866043" lon="0.4242901">
        <time>2022-07-07T09:14:45Z</time>
      </trkpt>
      <trkpt lat="41.866093" lon="0.42435208">
        <time>2022-07-07T09:14:46Z</time>
      </trkpt>
      <trkpt lat="41.866135" lon="0.42441675">
        <time>2022-07-07T09:14:47Z</time>
      </trkpt>
      <trkpt lat="41.866177" lon="0.42448208">
        <time>2022-07-07T09:14:48Z</time>
      </trkpt>
      <trkpt lat="41.86624" lon="0.42461774">
        <time>2022-07-07T09:14:50Z</time>
      </trkpt>
      <trkpt lat="41.86627" lon="0.42468673">
        <time>2022-07-07T09:14:51Z</time>
      </trkpt>
      <trkpt lat="41.86629" lon="0.42475373">
        <time>2022-07-07T09:14:52Z</time>
      </trkpt>
      <trkpt lat="41.86631" lon="0.42481938">
        <time>2022-07-07T09:14:53Z</time>
      </trkpt>
      <trkpt lat="41.866325" lon="0.42488506">
        <time>2022-07-07T09:14:54Z</time>
      </trkpt>
      <trkpt lat="41.866344" lon="0.42501104">
        <time>2022-07-07T09:14:56Z</time>
      </trkpt>
      <trkpt lat="41.86635" lon="0.42512837">
        <time>2022-07-07T09:14:58Z</time>
      </trkpt>
      <trkpt lat="41.866352" lon="0.42523772">
        <time>2022-07-07T09:15:00Z</time>
      </trkpt>
      <trkpt lat="41.866356" lon="0.4253217">
        <time>2022-07-07T09:15:02Z</time>
      </trkpt>
      <trkpt lat="41.866352" lon="0.42538938">
        <time>2022-07-07T09:15:07Z</time>
      </trkpt>
      <trkpt lat="41.866276" lon="0.42546538">
        <time>2022-07-07T09:16:33Z</time>
      </trkpt>
      <trkpt lat="41.86622" lon="0.4255447">
        <time>2022-07-07T09:16:36Z</time>
      </trkpt>
      <trkpt lat="41.86618" lon="0.42561203">
        <time>2022-07-07T09:16:38Z</time>
      </trkpt>
      <trkpt lat="41.866135" lon="0.42567936">
        <time>2022-07-07T09:16:40Z</time>
      </trkpt>
      <trkpt lat="41.866085" lon="0.42574802">
        <time>2022-07-07T09:16:42Z</time>
      </trkpt>
      <trkpt lat="41.866035" lon="0.42581803">
        <time>2022-07-07T09:16:44Z</time>
      </trkpt>
      <trkpt lat="41.865982" lon="0.42588934">
        <time>2022-07-07T09:16:46Z</time>
      </trkpt>
      <trkpt lat="41.86592" lon="0.42595634">
        <time>2022-07-07T09:16:48Z</time>
      </trkpt>
      <trkpt lat="41.86586" lon="0.42601436">
        <time>2022-07-07T09:16:50Z</time>
      </trkpt>
      <trkpt lat="41.86577" lon="0.42609802">
        <time>2022-07-07T09:16:53Z</time>
      </trkpt>
      <trkpt lat="41.865704" lon="0.42615166">
        <time>2022-07-07T09:16:55Z</time>
      </trkpt>
      <trkpt lat="41.86564" lon="0.426206">
        <time>2022-07-07T09:16:57Z</time>
      </trkpt>
      <trkpt lat="41.865578" lon="0.42626333">
        <time>2022-07-07T09:16:59Z</time>
      </trkpt>
      <trkpt lat="41.865517" lon="0.42631966">
        <time>2022-07-07T09:17:01Z</time>
      </trkpt>
      <trkpt lat="41.86546" lon="0.4263693">
        <time>2022-07-07T09:17:03Z</time>
      </trkpt>
      <trkpt lat="41.865406" lon="0.426412">
        <time>2022-07-07T09:17:05Z</time>
      </trkpt>
      <trkpt lat="41.86536" lon="0.42644697">
        <time>2022-07-07T09:17:07Z</time>
      </trkpt>
      <trkpt lat="41.8653" lon="0.42647332">
        <time>2022-07-07T09:17:10Z</time>
      </trkpt>
      <trkpt lat="41.865253" lon="0.42645064">
        <time>2022-07-07T09:17:14Z</time>
      </trkpt>
      <trkpt lat="41.86522" lon="0.42630798">
        <time>2022-07-07T09:21:35Z</time>
      </trkpt>
      <trkpt lat="41.865326" lon="0.42645964">
        <time>2022-07-07T09:23:18Z</time>
      </trkpt>
      <trkpt lat="41.865402" lon="0.426421">
        <time>2022-07-07T09:23:21Z</time>
      </trkpt>
      <trkpt lat="41.865456" lon="0.426379">
        <time>2022-07-07T09:23:23Z</time>
      </trkpt>
      <trkpt lat="41.865517" lon="0.42633033">
        <time>2022-07-07T09:23:25Z</time>
      </trkpt>
      <trkpt lat="41.86558" lon="0.42627868">
        <time>2022-07-07T09:23:27Z</time>
      </trkpt>
      <trkpt lat="41.865646" lon="0.42622834">
        <time>2022-07-07T09:23:29Z</time>
      </trkpt>
      <trkpt lat="41.865707" lon="0.42617968">
        <time>2022-07-07T09:23:31Z</time>
      </trkpt>
      <trkpt lat="41.86576" lon="0.426124">
        <time>2022-07-07T09:23:33Z</time>
      </trkpt>
      <trkpt lat="41.865814" lon="0.42607036">
        <time>2022-07-07T09:23:35Z</time>
      </trkpt>
      <trkpt lat="41.865864" lon="0.42601904">
        <time>2022-07-07T09:23:37Z</time>
      </trkpt>
      <trkpt lat="41.865917" lon="0.42597237">
        <time>2022-07-07T09:23:39Z</time>
      </trkpt>
      <trkpt lat="41.865974" lon="0.42592305">
        <time>2022-07-07T09:23:41Z</time>
      </trkpt>
      <trkpt lat="41.866028" lon="0.4258657">
        <time>2022-07-07T09:23:43Z</time>
      </trkpt>
      <trkpt lat="41.86607" lon="0.4258054">
        <time>2022-07-07T09:23:45Z</time>
      </trkpt>
      <trkpt lat="41.86611" lon="0.42574438">
        <time>2022-07-07T09:23:47Z</time>
      </trkpt>
      <trkpt lat="41.866146" lon="0.4256864">
        <time>2022-07-07T09:23:49Z</time>
      </trkpt>
      <trkpt lat="41.866177" lon="0.4256284">
        <time>2022-07-07T09:23:51Z</time>
      </trkpt>
      <trkpt lat="41.866207" lon="0.4255717">
        <time>2022-07-07T09:23:53Z</time>
      </trkpt>
      <trkpt lat="41.866234" lon="0.42551538">
        <time>2022-07-07T09:23:55Z</time>
      </trkpt>
      <trkpt lat="41.86627" lon="0.42543605">
        <time>2022-07-07T09:23:58Z</time>
      </trkpt>
      <trkpt lat="41.8663" lon="0.4253734">
        <time>2022-07-07T09:24:01Z</time>
      </trkpt>
      <trkpt lat="41.866337" lon="0.42537606">
        <time>2022-07-07T09:24:05Z</time>
      </trkpt>
      <trkpt lat="41.866333" lon="0.42547506">
        <time>2022-07-07T09:24:09Z</time>
      </trkpt>
      <trkpt lat="41.866314" lon="0.42557207">
        <time>2022-07-07T09:24:12Z</time>
      </trkpt>
      <trkpt lat="41.8663" lon="0.4256387">
        <time>2022-07-07T09:24:14Z</time>
      </trkpt>
      <trkpt lat="41.86628" lon="0.42570606">
        <time>2022-07-07T09:24:16Z</time>
      </trkpt>
      <trkpt lat="41.86626" lon="0.42577004">
        <time>2022-07-07T09:24:18Z</time>
      </trkpt>
      <trkpt lat="41.866226" lon="0.4258727">
        <time>2022-07-07T09:24:21Z</time>
      </trkpt>
      <trkpt lat="41.866203" lon="0.4259417">
        <time>2022-07-07T09:24:23Z</time>
      </trkpt>
      <trkpt lat="41.866177" lon="0.42601138">
        <time>2022-07-07T09:24:25Z</time>
      </trkpt>
      <trkpt lat="41.86615" lon="0.42608038">
        <time>2022-07-07T09:24:27Z</time>
      </trkpt>
      <trkpt lat="41.866123" lon="0.42614737">
        <time>2022-07-07T09:24:29Z</time>
      </trkpt>
      <trkpt lat="41.866096" lon="0.42621103">
        <time>2022-07-07T09:24:31Z</time>
      </trkpt>
      <trkpt lat="41.866074" lon="0.42627236">
        <time>2022-07-07T09:24:33Z</time>
      </trkpt>
      <trkpt lat="41.866047" lon="0.42633203">
        <time>2022-07-07T09:24:35Z</time>
      </trkpt>
      <trkpt lat="41.86602" lon="0.426391">
        <time>2022-07-07T09:24:37Z</time>
      </trkpt>
      <trkpt lat="41.865982" lon="0.42647535">
        <time>2022-07-07T09:24:40Z</time>
      </trkpt>
      <trkpt lat="41.865944" lon="0.42655736">
        <time>2022-07-07T09:24:43Z</time>
      </trkpt>
      <trkpt lat="41.865906" lon="0.42663935">
        <time>2022-07-07T09:24:46Z</time>
      </trkpt>
      <trkpt lat="41.865868" lon="0.42672136">
        <time>2022-07-07T09:24:49Z</time>
      </trkpt>
      <trkpt lat="41.86583" lon="0.42679834">
        <time>2022-07-07T09:24:52Z</time>
      </trkpt>
      <trkpt lat="41.865795" lon="0.42687434">
        <time>2022-07-07T09:24:55Z</time>
      </trkpt>
      <trkpt lat="41.86576" lon="0.42694968">
        <time>2022-07-07T09:24:58Z</time>
      </trkpt>
      <trkpt lat="41.86573" lon="0.42702267">
        <time>2022-07-07T09:25:01Z</time>
      </trkpt>
      <trkpt lat="41.865696" lon="0.427107">
        <time>2022-07-07T09:25:05Z</time>
      </trkpt>
      <trkpt lat="41.865673" lon="0.42716667">
        <time>2022-07-07T09:25:07Z</time>
      </trkpt>
      <trkpt lat="41.865643" lon="0.42724532">
        <time>2022-07-07T09:25:10Z</time>
      </trkpt>
      <trkpt lat="41.86561" lon="0.42731598">
        <time>2022-07-07T09:25:13Z</time>
      </trkpt>
      <trkpt lat="41.86557" lon="0.42739066">
        <time>2022-07-07T09:25:16Z</time>
      </trkpt>
      <trkpt lat="41.865536" lon="0.42746466">
        <time>2022-07-07T09:25:19Z</time>
      </trkpt>
      <trkpt lat="41.8655" lon="0.4275383">
        <time>2022-07-07T09:25:22Z</time>
      </trkpt>
      <trkpt lat="41.865463" lon="0.42761096">
        <time>2022-07-07T09:25:25Z</time>
      </trkpt>
      <trkpt lat="41.86543" lon="0.4276813">
        <time>2022-07-07T09:25:28Z</time>
      </trkpt>
      <trkpt lat="41.86539" lon="0.42775697">
        <time>2022-07-07T09:25:31Z</time>
      </trkpt>
      <trkpt lat="41.865356" lon="0.4278313">
        <time>2022-07-07T09:25:34Z</time>
      </trkpt>
      <trkpt lat="41.86532" lon="0.42790928">
        <time>2022-07-07T09:25:37Z</time>
      </trkpt>
      <trkpt lat="41.865284" lon="0.42799595">
        <time>2022-07-07T09:25:40Z</time>
      </trkpt>
      <trkpt lat="41.86525" lon="0.42808062">
        <time>2022-07-07T09:25:43Z</time>
      </trkpt>
      <trkpt lat="41.865215" lon="0.4281646">
        <time>2022-07-07T09:25:46Z</time>
      </trkpt>
      <trkpt lat="41.865185" lon="0.42824528">
        <time>2022-07-07T09:25:49Z</time>
      </trkpt>
      <trkpt lat="41.86516" lon="0.42830527">
        <time>2022-07-07T09:25:51Z</time>
      </trkpt>
      <trkpt lat="41.86513" lon="0.4283926">
        <time>2022-07-07T09:25:54Z</time>
      </trkpt>
      <trkpt lat="41.865097" lon="0.42848825">
        <time>2022-07-07T09:25:57Z</time>
      </trkpt>
      <trkpt lat="41.865074" lon="0.4285539">
        <time>2022-07-07T09:25:59Z</time>
      </trkpt>
      <trkpt lat="41.86505" lon="0.42862326">
        <time>2022-07-07T09:26:01Z</time>
      </trkpt>
      <trkpt lat="41.865017" lon="0.4287289">
        <time>2022-07-07T09:26:04Z</time>
      </trkpt>
      <trkpt lat="41.864994" lon="0.42879725">
        <time>2022-07-07T09:26:06Z</time>
      </trkpt>
      <trkpt lat="41.86497" lon="0.4288699">
        <time>2022-07-07T09:26:08Z</time>
      </trkpt>
      <trkpt lat="41.86495" lon="0.42894322">
        <time>2022-07-07T09:26:10Z</time>
      </trkpt>
      <trkpt lat="41.86493" lon="0.42901888">
        <time>2022-07-07T09:26:12Z</time>
      </trkpt>
      <trkpt lat="41.864914" lon="0.4290939">
        <time>2022-07-07T09:26:14Z</time>
      </trkpt>
      <trkpt lat="41.8649" lon="0.4291742">
        <time>2022-07-07T09:26:16Z</time>
      </trkpt>
      <trkpt lat="41.864883" lon="0.42926088">
        <time>2022-07-07T09:26:18Z</time>
      </trkpt>
      <trkpt lat="41.86487" lon="0.4293469">
        <time>2022-07-07T09:26:20Z</time>
      </trkpt>
      <trkpt lat="41.864857" lon="0.42944422">
        <time>2022-07-07T09:26:22Z</time>
      </trkpt>
      <trkpt lat="41.86484" lon="0.42954588">
        <time>2022-07-07T09:26:24Z</time>
      </trkpt>
      <trkpt lat="41.864834" lon="0.42965087">
        <time>2022-07-07T09:26:26Z</time>
      </trkpt>
      <trkpt lat="41.864826" lon="0.42975754">
        <time>2022-07-07T09:26:28Z</time>
      </trkpt>
      <trkpt lat="41.864822" lon="0.4298702">
        <time>2022-07-07T09:26:30Z</time>
      </trkpt>
      <trkpt lat="41.864822" lon="0.42998618">
        <time>2022-07-07T09:26:32Z</time>
      </trkpt>
      <trkpt lat="41.864822" lon="0.43010485">
        <time>2022-07-07T09:26:34Z</time>
      </trkpt>
      <trkpt lat="41.86483" lon="0.4302295">
        <time>2022-07-07T09:26:36Z</time>
      </trkpt>
      <trkpt lat="41.864834" lon="0.4303005">
        <time>2022-07-07T09:26:37Z</time>
      </trkpt>
      <trkpt lat="41.864838" lon="0.43037283">
        <time>2022-07-07T09:26:38Z</time>
      </trkpt>
      <trkpt lat="41.864845" lon="0.43044683">
        <time>2022-07-07T09:26:39Z</time>
      </trkpt>
      <trkpt lat="41.86485" lon="0.43052316">
        <time>2022-07-07T09:26:40Z</time>
      </trkpt>
      <trkpt lat="41.864857" lon="0.4306015">
        <time>2022-07-07T09:26:41Z</time>
      </trkpt>
      <trkpt lat="41.864864" lon="0.43068215">
        <time>2022-07-07T09:26:42Z</time>
      </trkpt>
      <trkpt lat="41.86487" lon="0.43075916">
        <time>2022-07-07T09:26:43Z</time>
      </trkpt>
      <trkpt lat="41.864876" lon="0.43084016">
        <time>2022-07-07T09:26:44Z</time>
      </trkpt>
      <trkpt lat="41.864887" lon="0.43092483">
        <time>2022-07-07T09:26:45Z</time>
      </trkpt>
      <trkpt lat="41.864895" lon="0.43102014">
        <time>2022-07-07T09:26:46Z</time>
      </trkpt>
      <trkpt lat="41.864902" lon="0.43111715">
        <time>2022-07-07T09:26:47Z</time>
      </trkpt>
      <trkpt lat="41.86491" lon="0.43121615">
        <time>2022-07-07T09:26:48Z</time>
      </trkpt>
      <trkpt lat="41.86492" lon="0.4313158">
        <time>2022-07-07T09:26:49Z</time>
      </trkpt>
      <trkpt lat="41.86493" lon="0.43141848">
        <time>2022-07-07T09:26:50Z</time>
      </trkpt>
      <trkpt lat="41.864937" lon="0.43152413">
        <time>2022-07-07T09:26:51Z</time>
      </trkpt>
      <trkpt lat="41.86495" lon="0.43163246">
        <time>2022-07-07T09:26:52Z</time>
      </trkpt>
      <trkpt lat="41.86496" lon="0.4317428">
        <time>2022-07-07T09:26:53Z</time>
      </trkpt>
      <trkpt lat="41.86497" lon="0.4318551">
        <time>2022-07-07T09:26:54Z</time>
      </trkpt>
      <trkpt lat="41.864983" lon="0.43197012">
        <time>2022-07-07T09:26:55Z</time>
      </trkpt>
      <trkpt lat="41.864994" lon="0.43208012">
        <time>2022-07-07T09:26:56Z</time>
      </trkpt>
      <trkpt lat="41.865" lon="0.43219513">
        <time>2022-07-07T09:26:57Z</time>
      </trkpt>
      <trkpt lat="41.865017" lon="0.4323128">
        <time>2022-07-07T09:26:58Z</time>
      </trkpt>
      <trkpt lat="41.86503" lon="0.43243378">
        <time>2022-07-07T09:26:59Z</time>
      </trkpt>
      <trkpt lat="41.865044" lon="0.43256578">
        <time>2022-07-07T09:27:00Z</time>
      </trkpt>
      <trkpt lat="41.865055" lon="0.4326961">
        <time>2022-07-07T09:27:01Z</time>
      </trkpt>
      <trkpt lat="41.865067" lon="0.43281844">
        <time>2022-07-07T09:27:02Z</time>
      </trkpt>
      <trkpt lat="41.865078" lon="0.43295044">
        <time>2022-07-07T09:27:03Z</time>
      </trkpt>
      <trkpt lat="41.86509" lon="0.43308043">
        <time>2022-07-07T09:27:04Z</time>
      </trkpt>
      <trkpt lat="41.865097" lon="0.43320844">
        <time>2022-07-07T09:27:05Z</time>
      </trkpt>
      <trkpt lat="41.8651" lon="0.43333378">
        <time>2022-07-07T09:27:06Z</time>
      </trkpt>
      <trkpt lat="41.8651" lon="0.43357578">
        <time>2022-07-07T09:27:08Z</time>
      </trkpt>
      <trkpt lat="41.865097" lon="0.4336851">
        <time>2022-07-07T09:27:09Z</time>
      </trkpt>
      <trkpt lat="41.865093" lon="0.43379942">
        <time>2022-07-07T09:27:10Z</time>
      </trkpt>
      <trkpt lat="41.86508" lon="0.4339091">
        <time>2022-07-07T09:27:11Z</time>
      </trkpt>
      <trkpt lat="41.865074" lon="0.43401575">
        <time>2022-07-07T09:27:12Z</time>
      </trkpt>
      <trkpt lat="41.865063" lon="0.4341201">
        <time>2022-07-07T09:27:13Z</time>
      </trkpt>
      <trkpt lat="41.865047" lon="0.43422073">
        <time>2022-07-07T09:27:14Z</time>
      </trkpt>
      <trkpt lat="41.865032" lon="0.4343184">
        <time>2022-07-07T09:27:15Z</time>
      </trkpt>
      <trkpt lat="41.865013" lon="0.43441305">
        <time>2022-07-07T09:27:16Z</time>
      </trkpt>
      <trkpt lat="41.86499" lon="0.4345054">
        <time>2022-07-07T09:27:17Z</time>
      </trkpt>
      <trkpt lat="41.864967" lon="0.43459505">
        <time>2022-07-07T09:27:18Z</time>
      </trkpt>
      <trkpt lat="41.864944" lon="0.4346827">
        <time>2022-07-07T09:27:19Z</time>
      </trkpt>
      <trkpt lat="41.864918" lon="0.43476704">
        <time>2022-07-07T09:27:20Z</time>
      </trkpt>
      <trkpt lat="41.86489" lon="0.43484905">
        <time>2022-07-07T09:27:21Z</time>
      </trkpt>
      <trkpt lat="41.864864" lon="0.43492937">
        <time>2022-07-07T09:27:22Z</time>
      </trkpt>
      <trkpt lat="41.864834" lon="0.43500903">
        <time>2022-07-07T09:27:23Z</time>
      </trkpt>
      <trkpt lat="41.864803" lon="0.43508768">
        <time>2022-07-07T09:27:24Z</time>
      </trkpt>
      <trkpt lat="41.86477" lon="0.4351647">
        <time>2022-07-07T09:27:25Z</time>
      </trkpt>
      <trkpt lat="41.864735" lon="0.43523934">
        <time>2022-07-07T09:27:26Z</time>
      </trkpt>
      <trkpt lat="41.8647" lon="0.43531236">
        <time>2022-07-07T09:27:27Z</time>
      </trkpt>
      <trkpt lat="41.864662" lon="0.43538234">
        <time>2022-07-07T09:27:28Z</time>
      </trkpt>
      <trkpt lat="41.864624" lon="0.43545067">
        <time>2022-07-07T09:27:29Z</time>
      </trkpt>
      <trkpt lat="41.864586" lon="0.435516">
        <time>2022-07-07T09:27:30Z</time>
      </trkpt>
      <trkpt lat="41.864548" lon="0.43557933">
        <time>2022-07-07T09:27:31Z</time>
      </trkpt>
      <trkpt lat="41.864506" lon="0.43563968">
        <time>2022-07-07T09:27:32Z</time>
      </trkpt>
      <trkpt lat="41.864464" lon="0.435699">
        <time>2022-07-07T09:27:33Z</time>
      </trkpt>
      <trkpt lat="41.86442" lon="0.435752">
        <time>2022-07-07T09:27:34Z</time>
      </trkpt>
      <trkpt lat="41.86438" lon="0.43580765">
        <time>2022-07-07T09:27:35Z</time>
      </trkpt>
      <trkpt lat="41.864338" lon="0.435859">
        <time>2022-07-07T09:27:36Z</time>
      </trkpt>
      <trkpt lat="41.864292" lon="0.4359123">
        <time>2022-07-07T09:27:37Z</time>
      </trkpt>
      <trkpt lat="41.864246" lon="0.43596265">
        <time>2022-07-07T09:27:38Z</time>
      </trkpt>
      <trkpt lat="41.8642" lon="0.43601164">
        <time>2022-07-07T09:27:39Z</time>
      </trkpt>
      <trkpt lat="41.864162" lon="0.43605766">
        <time>2022-07-07T09:27:40Z</time>
      </trkpt>
      <trkpt lat="41.86412" lon="0.436103">
        <time>2022-07-07T09:27:41Z</time>
      </trkpt>
      <trkpt lat="41.86408" lon="0.43614963">
        <time>2022-07-07T09:27:42Z</time>
      </trkpt>
      <trkpt lat="41.86404" lon="0.4361903">
        <time>2022-07-07T09:27:43Z</time>
      </trkpt>
      <trkpt lat="41.863968" lon="0.43626863">
        <time>2022-07-07T09:27:45Z</time>
      </trkpt>
      <trkpt lat="41.8639" lon="0.43633696">
        <time>2022-07-07T09:27:47Z</time>
      </trkpt>
      <trkpt lat="41.86384" lon="0.4363996">
        <time>2022-07-07T09:27:49Z</time>
      </trkpt>
      <trkpt lat="41.86378" lon="0.43646163">
        <time>2022-07-07T09:27:51Z</time>
      </trkpt>
      <trkpt lat="41.86373" lon="0.4365186">
        <time>2022-07-07T09:27:53Z</time>
      </trkpt>
      <trkpt lat="41.863678" lon="0.43656963">
        <time>2022-07-07T09:27:55Z</time>
      </trkpt>
      <trkpt lat="41.863632" lon="0.43661496">
        <time>2022-07-07T09:27:57Z</time>
      </trkpt>
      <trkpt lat="41.863586" lon="0.43665895">
        <time>2022-07-07T09:27:59Z</time>
      </trkpt>
      <trkpt lat="41.86354" lon="0.43670395">
        <time>2022-07-07T09:28:01Z</time>
      </trkpt>
      <trkpt lat="41.863503" lon="0.43674827">
        <time>2022-07-07T09:28:03Z</time>
      </trkpt>
      <trkpt lat="41.86346" lon="0.43679294">
        <time>2022-07-07T09:28:05Z</time>
      </trkpt>
      <trkpt lat="41.8634" lon="0.43685928">
        <time>2022-07-07T09:28:08Z</time>
      </trkpt>
      <trkpt lat="41.863358" lon="0.43690628">
        <time>2022-07-07T09:28:10Z</time>
      </trkpt>
      <trkpt lat="41.86332" lon="0.43695426">
        <time>2022-07-07T09:28:12Z</time>
      </trkpt>
      <trkpt lat="41.86326" lon="0.43702894">
        <time>2022-07-07T09:28:15Z</time>
      </trkpt>
      <trkpt lat="41.86322" lon="0.4370716">
        <time>2022-07-07T09:28:17Z</time>
      </trkpt>
      <trkpt lat="41.86318" lon="0.4371186">
        <time>2022-07-07T09:28:19Z</time>
      </trkpt>
      <trkpt lat="41.863136" lon="0.43717292">
        <time>2022-07-07T09:28:21Z</time>
      </trkpt>
      <trkpt lat="41.863102" lon="0.43722793">
        <time>2022-07-07T09:28:23Z</time>
      </trkpt>
      <trkpt lat="41.863064" lon="0.43728024">
        <time>2022-07-07T09:28:25Z</time>
      </trkpt>
      <trkpt lat="41.86303" lon="0.43733057">
        <time>2022-07-07T09:28:27Z</time>
      </trkpt>
      <trkpt lat="41.86299" lon="0.43738225">
        <time>2022-07-07T09:28:29Z</time>
      </trkpt>
      <trkpt lat="41.862953" lon="0.43743756">
        <time>2022-07-07T09:28:31Z</time>
      </trkpt>
      <trkpt lat="41.86292" lon="0.4374899">
        <time>2022-07-07T09:28:33Z</time>
      </trkpt>
      <trkpt lat="41.86288" lon="0.4375429">
        <time>2022-07-07T09:28:35Z</time>
      </trkpt>
      <trkpt lat="41.862843" lon="0.43759757">
        <time>2022-07-07T09:28:37Z</time>
      </trkpt>
      <trkpt lat="41.86281" lon="0.4376519">
        <time>2022-07-07T09:28:39Z</time>
      </trkpt>
      <trkpt lat="41.862774" lon="0.4377112">
        <time>2022-07-07T09:28:41Z</time>
      </trkpt>
      <trkpt lat="41.86274" lon="0.43776754">
        <time>2022-07-07T09:28:43Z</time>
      </trkpt>
      <trkpt lat="41.86269" lon="0.4378542">
        <time>2022-07-07T09:28:46Z</time>
      </trkpt>
      <trkpt lat="41.862656" lon="0.4379152">
        <time>2022-07-07T09:28:48Z</time>
      </trkpt>
      <trkpt lat="41.862625" lon="0.43797386">
        <time>2022-07-07T09:28:50Z</time>
      </trkpt>
      <trkpt lat="41.86259" lon="0.43804052">
        <time>2022-07-07T09:28:52Z</time>
      </trkpt>
      <trkpt lat="41.86256" lon="0.43810385">
        <time>2022-07-07T09:28:54Z</time>
      </trkpt>
      <trkpt lat="41.862526" lon="0.43816587">
        <time>2022-07-07T09:28:56Z</time>
      </trkpt>
      <trkpt lat="41.86249" lon="0.4382332">
        <time>2022-07-07T09:28:58Z</time>
      </trkpt>
      <trkpt lat="41.86246" lon="0.43829718">
        <time>2022-07-07T09:29:00Z</time>
      </trkpt>
      <trkpt lat="41.86243" lon="0.43836284">
        <time>2022-07-07T09:29:02Z</time>
      </trkpt>
      <trkpt lat="41.862404" lon="0.4384315">
        <time>2022-07-07T09:29:04Z</time>
      </trkpt>
      <trkpt lat="41.862373" lon="0.43849716">
        <time>2022-07-07T09:29:06Z</time>
      </trkpt>
      <trkpt lat="41.862347" lon="0.43857017">
        <time>2022-07-07T09:29:08Z</time>
      </trkpt>
      <trkpt lat="41.862316" lon="0.43863684">
        <time>2022-07-07T09:29:10Z</time>
      </trkpt>
      <trkpt lat="41.862286" lon="0.43870148">
        <time>2022-07-07T09:29:12Z</time>
      </trkpt>
      <trkpt lat="41.862255" lon="0.43876848">
        <time>2022-07-07T09:29:14Z</time>
      </trkpt>
      <trkpt lat="41.862232" lon="0.43883848">
        <time>2022-07-07T09:29:16Z</time>
      </trkpt>
      <trkpt lat="41.862194" lon="0.43894583">
        <time>2022-07-07T09:29:19Z</time>
      </trkpt>
      <trkpt lat="41.862164" lon="0.4390525">
        <time>2022-07-07T09:29:22Z</time>
      </trkpt>
      <trkpt lat="41.86214" lon="0.43912482">
        <time>2022-07-07T09:29:24Z</time>
      </trkpt>
      <trkpt lat="41.862118" lon="0.4391998">
        <time>2022-07-07T09:29:26Z</time>
      </trkpt>
      <trkpt lat="41.862095" lon="0.43927482">
        <time>2022-07-07T09:29:28Z</time>
      </trkpt>
      <trkpt lat="41.862072" lon="0.43935147">
        <time>2022-07-07T09:29:30Z</time>
      </trkpt>
      <trkpt lat="41.862053" lon="0.43942413">
        <time>2022-07-07T09:29:32Z</time>
      </trkpt>
      <trkpt lat="41.86203" lon="0.4395018">
        <time>2022-07-07T09:29:34Z</time>
      </trkpt>
      <trkpt lat="41.862003" lon="0.4395841">
        <time>2022-07-07T09:29:36Z</time>
      </trkpt>
      <trkpt lat="41.861984" lon="0.4396678">
        <time>2022-07-07T09:29:38Z</time>
      </trkpt>
      <trkpt lat="41.86196" lon="0.43976378">
        <time>2022-07-07T09:29:40Z</time>
      </trkpt>
      <trkpt lat="41.86194" lon="0.4398608">
        <time>2022-07-07T09:29:42Z</time>
      </trkpt>
      <trkpt lat="41.86192" lon="0.43996078">
        <time>2022-07-07T09:29:44Z</time>
      </trkpt>
      <trkpt lat="41.861897" lon="0.4400641">
        <time>2022-07-07T09:29:46Z</time>
      </trkpt>
      <trkpt lat="41.861874" lon="0.44016078">
        <time>2022-07-07T09:29:48Z</time>
      </trkpt>
      <trkpt lat="41.861847" lon="0.4402641">
        <time>2022-07-07T09:29:50Z</time>
      </trkpt>
      <trkpt lat="41.86182" lon="0.44037676">
        <time>2022-07-07T09:29:52Z</time>
      </trkpt>
      <trkpt lat="41.861794" lon="0.44049275">
        <time>2022-07-07T09:29:54Z</time>
      </trkpt>
      <trkpt lat="41.861767" lon="0.44061875">
        <time>2022-07-07T09:29:56Z</time>
      </trkpt>
      <trkpt lat="41.861755" lon="0.44068375">
        <time>2022-07-07T09:29:57Z</time>
      </trkpt>
      <trkpt lat="41.861725" lon="0.44081908">
        <time>2022-07-07T09:29:59Z</time>
      </trkpt>
      <trkpt lat="41.861706" lon="0.44089043">
        <time>2022-07-07T09:30:00Z</time>
      </trkpt>
      <trkpt lat="41.86169" lon="0.4409631">
        <time>2022-07-07T09:30:01Z</time>
      </trkpt>
      <trkpt lat="41.861675" lon="0.4410364">
        <time>2022-07-07T09:30:02Z</time>
      </trkpt>
      <trkpt lat="41.861656" lon="0.4411104">
        <time>2022-07-07T09:30:03Z</time>
      </trkpt>
      <trkpt lat="41.86164" lon="0.44118473">
        <time>2022-07-07T09:30:04Z</time>
      </trkpt>
      <trkpt lat="41.861626" lon="0.44126073">
        <time>2022-07-07T09:30:05Z</time>
      </trkpt>
      <trkpt lat="41.861607" lon="0.44133708">
        <time>2022-07-07T09:30:06Z</time>
      </trkpt>
      <trkpt lat="41.86159" lon="0.44141373">
        <time>2022-07-07T09:30:07Z</time>
      </trkpt>
      <trkpt lat="41.861576" lon="0.4414894">
        <time>2022-07-07T09:30:08Z</time>
      </trkpt>
      <trkpt lat="41.861557" lon="0.4415634">
        <time>2022-07-07T09:30:09Z</time>
      </trkpt>
      <trkpt lat="41.86154" lon="0.44163772">
        <time>2022-07-07T09:30:10Z</time>
      </trkpt>
      <trkpt lat="41.861526" lon="0.44171172">
        <time>2022-07-07T09:30:11Z</time>
      </trkpt>
      <trkpt lat="41.861507" lon="0.44178572">
        <time>2022-07-07T09:30:12Z</time>
      </trkpt>
      <trkpt lat="41.861492" lon="0.4418594">
        <time>2022-07-07T09:30:13Z</time>
      </trkpt>
      <trkpt lat="41.861477" lon="0.44193238">
        <time>2022-07-07T09:30:14Z</time>
      </trkpt>
      <trkpt lat="41.86146" lon="0.4420004">
        <time>2022-07-07T09:30:15Z</time>
      </trkpt>
      <trkpt lat="41.861446" lon="0.4420737">
        <time>2022-07-07T09:30:16Z</time>
      </trkpt>
      <trkpt lat="41.86143" lon="0.44214138">
        <time>2022-07-07T09:30:17Z</time>
      </trkpt>
      <trkpt lat="41.861412" lon="0.4422137">
        <time>2022-07-07T09:30:18Z</time>
      </trkpt>
      <trkpt lat="41.861397" lon="0.4422847">
        <time>2022-07-07T09:30:19Z</time>
      </trkpt>
      <trkpt lat="41.86138" lon="0.44235003">
        <time>2022-07-07T09:30:20Z</time>
      </trkpt>
      <trkpt lat="41.861347" lon="0.44248736">
        <time>2022-07-07T09:30:22Z</time>
      </trkpt>
      <trkpt lat="41.86132" lon="0.4426047">
        <time>2022-07-07T09:30:24Z</time>
      </trkpt>
      <trkpt lat="41.8613" lon="0.4426727">
        <time>2022-07-07T09:30:26Z</time>
      </trkpt>
      <trkpt lat="41.86127" lon="0.44281536">
        <time>2022-07-07T09:30:53Z</time>
      </trkpt>
      <trkpt lat="41.86125" lon="0.442904">
        <time>2022-07-07T09:30:55Z</time>
      </trkpt>
      <trkpt lat="41.86123" lon="0.44300935">
        <time>2022-07-07T09:30:57Z</time>
      </trkpt>
      <trkpt lat="41.861202" lon="0.44312668">
        <time>2022-07-07T09:30:59Z</time>
      </trkpt>
      <trkpt lat="41.861176" lon="0.44324934">
        <time>2022-07-07T09:31:01Z</time>
      </trkpt>
      <trkpt lat="41.86116" lon="0.44330698">
        <time>2022-07-07T09:31:02Z</time>
      </trkpt>
      <trkpt lat="41.86113" lon="0.4434283">
        <time>2022-07-07T09:31:04Z</time>
      </trkpt>
      <trkpt lat="41.8611" lon="0.4435633">
        <time>2022-07-07T09:31:06Z</time>
      </trkpt>
      <trkpt lat="41.861084" lon="0.44363064">
        <time>2022-07-07T09:31:07Z</time>
      </trkpt>
      <trkpt lat="41.86107" lon="0.4436953">
        <time>2022-07-07T09:31:08Z</time>
      </trkpt>
      <trkpt lat="41.86104" lon="0.44383696">
        <time>2022-07-07T09:31:10Z</time>
      </trkpt>
      <trkpt lat="41.861027" lon="0.4439113">
        <time>2022-07-07T09:31:11Z</time>
      </trkpt>
      <trkpt lat="41.86101" lon="0.44398564">
        <time>2022-07-07T09:31:12Z</time>
      </trkpt>
      <trkpt lat="41.860996" lon="0.44405997">
        <time>2022-07-07T09:31:13Z</time>
      </trkpt>
      <trkpt lat="41.86098" lon="0.44413063">
        <time>2022-07-07T09:31:14Z</time>
      </trkpt>
      <trkpt lat="41.860966" lon="0.44420728">
        <time>2022-07-07T09:31:15Z</time>
      </trkpt>
      <trkpt lat="41.860947" lon="0.44428495">
        <time>2022-07-07T09:31:16Z</time>
      </trkpt>
      <trkpt lat="41.86093" lon="0.44436193">
        <time>2022-07-07T09:31:17Z</time>
      </trkpt>
      <trkpt lat="41.860912" lon="0.44443893">
        <time>2022-07-07T09:31:18Z</time>
      </trkpt>
      <trkpt lat="41.860897" lon="0.44451627">
        <time>2022-07-07T09:31:19Z</time>
      </trkpt>
      <trkpt lat="41.86088" lon="0.4445886">
        <time>2022-07-07T09:31:20Z</time>
      </trkpt>
      <trkpt lat="41.860863" lon="0.44466725">
        <time>2022-07-07T09:31:21Z</time>
      </trkpt>
      <trkpt lat="41.860847" lon="0.4447469">
        <time>2022-07-07T09:31:22Z</time>
      </trkpt>
      <trkpt lat="41.860813" lon="0.4448969">
        <time>2022-07-07T09:31:24Z</time>
      </trkpt>
      <trkpt lat="41.860798" lon="0.44497493">
        <time>2022-07-07T09:31:25Z</time>
      </trkpt>
      <trkpt lat="41.860783" lon="0.44505793">
        <time>2022-07-07T09:31:26Z</time>
      </trkpt>
      <trkpt lat="41.860764" lon="0.44513857">
        <time>2022-07-07T09:31:27Z</time>
      </trkpt>
      <trkpt lat="41.860744" lon="0.44521824">
        <time>2022-07-07T09:31:28Z</time>
      </trkpt>
      <trkpt lat="41.86073" lon="0.44529325">
        <time>2022-07-07T09:31:29Z</time>
      </trkpt>
      <trkpt lat="41.860714" lon="0.44537458">
        <time>2022-07-07T09:31:30Z</time>
      </trkpt>
      <trkpt lat="41.860703" lon="0.44545522">
        <time>2022-07-07T09:31:31Z</time>
      </trkpt>
      <trkpt lat="41.860687" lon="0.44553557">
        <time>2022-07-07T09:31:32Z</time>
      </trkpt>
      <trkpt lat="41.860676" lon="0.44561622">
        <time>2022-07-07T09:31:33Z</time>
      </trkpt>
      <trkpt lat="41.86066" lon="0.44569722">
        <time>2022-07-07T09:31:34Z</time>
      </trkpt>
      <trkpt lat="41.860645" lon="0.4457732">
        <time>2022-07-07T09:31:35Z</time>
      </trkpt>
      <trkpt lat="41.86063" lon="0.44585556">
        <time>2022-07-07T09:31:36Z</time>
      </trkpt>
      <trkpt lat="41.860615" lon="0.4459392">
        <time>2022-07-07T09:31:37Z</time>
      </trkpt>
      <trkpt lat="41.860596" lon="0.44602254">
        <time>2022-07-07T09:31:38Z</time>
      </trkpt>
      <trkpt lat="41.86058" lon="0.44610655">
        <time>2022-07-07T09:31:39Z</time>
      </trkpt>
      <trkpt lat="41.86056" lon="0.44619188">
        <time>2022-07-07T09:31:40Z</time>
      </trkpt>
      <trkpt lat="41.860546" lon="0.4462792">
        <time>2022-07-07T09:31:41Z</time>
      </trkpt>
      <trkpt lat="41.860527" lon="0.44636786">
        <time>2022-07-07T09:31:42Z</time>
      </trkpt>
      <trkpt lat="41.860508" lon="0.4464582">
        <time>2022-07-07T09:31:43Z</time>
      </trkpt>
      <trkpt lat="41.860493" lon="0.4465442">
        <time>2022-07-07T09:31:44Z</time>
      </trkpt>
      <trkpt lat="41.860474" lon="0.4466342">
        <time>2022-07-07T09:31:45Z</time>
      </trkpt>
      <trkpt lat="41.860455" lon="0.44672784">
        <time>2022-07-07T09:31:46Z</time>
      </trkpt>
      <trkpt lat="41.860435" lon="0.44682518">
        <time>2022-07-07T09:31:47Z</time>
      </trkpt>
      <trkpt lat="41.860416" lon="0.4469335">
        <time>2022-07-07T09:31:48Z</time>
      </trkpt>
      <trkpt lat="41.860397" lon="0.44704285">
        <time>2022-07-07T09:31:49Z</time>
      </trkpt>
      <trkpt lat="41.86038" lon="0.44715285">
        <time>2022-07-07T09:31:50Z</time>
      </trkpt>
      <trkpt lat="41.86036" lon="0.44725716">
        <time>2022-07-07T09:31:51Z</time>
      </trkpt>
      <trkpt lat="41.860336" lon="0.44737417">
        <time>2022-07-07T09:31:52Z</time>
      </trkpt>
      <trkpt lat="41.860317" lon="0.4474925">
        <time>2022-07-07T09:31:53Z</time>
      </trkpt>
      <trkpt lat="41.8603" lon="0.44761115">
        <time>2022-07-07T09:31:54Z</time>
      </trkpt>
      <trkpt lat="41.86028" lon="0.44773215">
        <time>2022-07-07T09:31:55Z</time>
      </trkpt>
      <trkpt lat="41.86026" lon="0.4478555">
        <time>2022-07-07T09:31:56Z</time>
      </trkpt>
      <trkpt lat="41.860237" lon="0.4479785">
        <time>2022-07-07T09:31:57Z</time>
      </trkpt>
      <trkpt lat="41.860214" lon="0.44810116">
        <time>2022-07-07T09:31:58Z</time>
      </trkpt>
      <trkpt lat="41.86019" lon="0.44822547">
        <time>2022-07-07T09:31:59Z</time>
      </trkpt>
      <trkpt lat="41.860165" lon="0.4483498">
        <time>2022-07-07T09:32:00Z</time>
      </trkpt>
      <trkpt lat="41.860138" lon="0.44847447">
        <time>2022-07-07T09:32:01Z</time>
      </trkpt>
      <trkpt lat="41.860107" lon="0.44859913">
        <time>2022-07-07T09:32:02Z</time>
      </trkpt>
      <trkpt lat="41.860077" lon="0.44871646">
        <time>2022-07-07T09:32:03Z</time>
      </trkpt>
      <trkpt lat="41.860043" lon="0.44884378">
        <time>2022-07-07T09:32:04Z</time>
      </trkpt>
      <trkpt lat="41.86001" lon="0.44896278">
        <time>2022-07-07T09:32:05Z</time>
      </trkpt>
      <trkpt lat="41.859974" lon="0.44908378">
        <time>2022-07-07T09:32:06Z</time>
      </trkpt>
      <trkpt lat="41.859932" lon="0.4492138">
        <time>2022-07-07T09:32:07Z</time>
      </trkpt>
      <trkpt lat="41.859894" lon="0.4493338">
        <time>2022-07-07T09:32:08Z</time>
      </trkpt>
      <trkpt lat="41.859856" lon="0.44945645">
        <time>2022-07-07T09:32:09Z</time>
      </trkpt>
      <trkpt lat="41.859814" lon="0.44958112">
        <time>2022-07-07T09:32:10Z</time>
      </trkpt>
      <trkpt lat="41.859776" lon="0.44970644">
        <time>2022-07-07T09:32:11Z</time>
      </trkpt>
      <trkpt lat="41.859734" lon="0.44983277">
        <time>2022-07-07T09:32:12Z</time>
      </trkpt>
      <trkpt lat="41.85969" lon="0.44996643">
        <time>2022-07-07T09:32:13Z</time>
      </trkpt>
      <trkpt lat="41.85965" lon="0.45009744">
        <time>2022-07-07T09:32:14Z</time>
      </trkpt>
      <trkpt lat="41.859615" lon="0.4502191">
        <time>2022-07-07T09:32:15Z</time>
      </trkpt>
      <trkpt lat="41.859577" lon="0.45034343">
        <time>2022-07-07T09:32:16Z</time>
      </trkpt>
      <trkpt lat="41.85954" lon="0.45046908">
        <time>2022-07-07T09:32:17Z</time>
      </trkpt>
      <trkpt lat="41.859505" lon="0.4505961">
        <time>2022-07-07T09:32:18Z</time>
      </trkpt>
      <trkpt lat="41.859467" lon="0.45072407">
        <time>2022-07-07T09:32:19Z</time>
      </trkpt>
      <trkpt lat="41.859432" lon="0.4508541">
        <time>2022-07-07T09:32:20Z</time>
      </trkpt>
      <trkpt lat="41.8594" lon="0.45098442">
        <time>2022-07-07T09:32:21Z</time>
      </trkpt>
      <trkpt lat="41.859367" lon="0.45112342">
        <time>2022-07-07T09:32:22Z</time>
      </trkpt>
      <trkpt lat="41.85934" lon="0.4512524">
        <time>2022-07-07T09:32:23Z</time>
      </trkpt>
      <trkpt lat="41.859314" lon="0.45138308">
        <time>2022-07-07T09:32:24Z</time>
      </trkpt>
      <trkpt lat="41.859264" lon="0.45165306">
        <time>2022-07-07T09:32:26Z</time>
      </trkpt>
      <trkpt lat="41.85924" lon="0.4517914">
        <time>2022-07-07T09:32:27Z</time>
      </trkpt>
      <trkpt lat="41.85922" lon="0.4519264">
        <time>2022-07-07T09:32:28Z</time>
      </trkpt>
      <trkpt lat="41.859196" lon="0.45205873">
        <time>2022-07-07T09:32:29Z</time>
      </trkpt>
      <trkpt lat="41.859177" lon="0.45218906">
        <time>2022-07-07T09:32:30Z</time>
      </trkpt>
      <trkpt lat="41.859158" lon="0.4523174">
        <time>2022-07-07T09:32:31Z</time>
      </trkpt>
      <trkpt lat="41.85914" lon="0.45244205">
        <time>2022-07-07T09:32:32Z</time>
      </trkpt>
      <trkpt lat="41.859123" lon="0.4525577">
        <time>2022-07-07T09:32:33Z</time>
      </trkpt>
      <trkpt lat="41.859108" lon="0.45268136">
        <time>2022-07-07T09:32:34Z</time>
      </trkpt>
      <trkpt lat="41.859093" lon="0.45280004">
        <time>2022-07-07T09:32:35Z</time>
      </trkpt>
      <trkpt lat="41.859074" lon="0.45291469">
        <time>2022-07-07T09:32:36Z</time>
      </trkpt>
      <trkpt lat="41.85906" lon="0.45301935">
        <time>2022-07-07T09:32:37Z</time>
      </trkpt>
      <trkpt lat="41.85904" lon="0.45313036">
        <time>2022-07-07T09:32:38Z</time>
      </trkpt>
      <trkpt lat="41.859024" lon="0.45323834">
        <time>2022-07-07T09:32:39Z</time>
      </trkpt>
      <trkpt lat="41.85901" lon="0.45333767">
        <time>2022-07-07T09:32:40Z</time>
      </trkpt>
      <trkpt lat="41.858994" lon="0.453444">
        <time>2022-07-07T09:32:41Z</time>
      </trkpt>
      <trkpt lat="41.85898" lon="0.453547">
        <time>2022-07-07T09:32:42Z</time>
      </trkpt>
      <trkpt lat="41.858963" lon="0.453648">
        <time>2022-07-07T09:32:43Z</time>
      </trkpt>
      <trkpt lat="41.858948" lon="0.453741">
        <time>2022-07-07T09:32:44Z</time>
      </trkpt>
      <trkpt lat="41.85893" lon="0.45383933">
        <time>2022-07-07T09:32:45Z</time>
      </trkpt>
      <trkpt lat="41.858913" lon="0.453937">
        <time>2022-07-07T09:32:46Z</time>
      </trkpt>
      <trkpt lat="41.858902" lon="0.45403132">
        <time>2022-07-07T09:32:47Z</time>
      </trkpt>
      <trkpt lat="41.85889" lon="0.45412466">
        <time>2022-07-07T09:32:48Z</time>
      </trkpt>
      <trkpt lat="41.858883" lon="0.454216">
        <time>2022-07-07T09:32:49Z</time>
      </trkpt>
      <trkpt lat="41.85887" lon="0.45430532">
        <time>2022-07-07T09:32:50Z</time>
      </trkpt>
      <trkpt lat="41.858864" lon="0.45439264">
        <time>2022-07-07T09:32:51Z</time>
      </trkpt>
      <trkpt lat="41.858856" lon="0.45447797">
        <time>2022-07-07T09:32:52Z</time>
      </trkpt>
      <trkpt lat="41.85885" lon="0.45456165">
        <time>2022-07-07T09:32:53Z</time>
      </trkpt>
      <trkpt lat="41.85884" lon="0.45464364">
        <time>2022-07-07T09:32:54Z</time>
      </trkpt>
      <trkpt lat="41.858837" lon="0.4547223">
        <time>2022-07-07T09:32:55Z</time>
      </trkpt>
      <trkpt lat="41.858833" lon="0.45479962">
        <time>2022-07-07T09:32:56Z</time>
      </trkpt>
      <trkpt lat="41.85883" lon="0.45487562">
        <time>2022-07-07T09:32:57Z</time>
      </trkpt>
      <trkpt lat="41.85883" lon="0.4549513">
        <time>2022-07-07T09:32:58Z</time>
      </trkpt>
      <trkpt lat="41.85883" lon="0.4550253">
        <time>2022-07-07T09:32:59Z</time>
      </trkpt>
      <trkpt lat="41.85883" lon="0.45509395">
        <time>2022-07-07T09:33:00Z</time>
      </trkpt>
      <trkpt lat="41.85883" lon="0.4551673">
        <time>2022-07-07T09:33:01Z</time>
      </trkpt>
      <trkpt lat="41.85883" lon="0.45523828">
        <time>2022-07-07T09:33:02Z</time>
      </trkpt>
      <trkpt lat="41.85883" lon="0.45530695">
        <time>2022-07-07T09:33:03Z</time>
      </trkpt>
      <trkpt lat="41.85883" lon="0.4553746">
        <time>2022-07-07T09:33:04Z</time>
      </trkpt>
      <trkpt lat="41.85883" lon="0.4554976">
        <time>2022-07-07T09:33:06Z</time>
      </trkpt>
      <trkpt lat="41.858833" lon="0.4556216">
        <time>2022-07-07T09:33:08Z</time>
      </trkpt>
      <trkpt lat="41.858833" lon="0.4557406">
        <time>2022-07-07T09:33:10Z</time>
      </trkpt>
      <trkpt lat="41.85884" lon="0.45584527">
        <time>2022-07-07T09:33:12Z</time>
      </trkpt>
      <trkpt lat="41.858856" lon="0.4559516">
        <time>2022-07-07T09:33:14Z</time>
      </trkpt>
      <trkpt lat="41.85887" lon="0.45604658">
        <time>2022-07-07T09:33:16Z</time>
      </trkpt>
      <trkpt lat="41.858883" lon="0.45613992">
        <time>2022-07-07T09:33:18Z</time>
      </trkpt>
      <trkpt lat="41.858894" lon="0.4562316">
        <time>2022-07-07T09:33:20Z</time>
      </trkpt>
      <trkpt lat="41.858906" lon="0.45631424">
        <time>2022-07-07T09:33:22Z</time>
      </trkpt>
      <trkpt lat="41.858913" lon="0.4563969">
        <time>2022-07-07T09:33:24Z</time>
      </trkpt>
      <trkpt lat="41.85893" lon="0.45647556">
        <time>2022-07-07T09:33:26Z</time>
      </trkpt>
      <trkpt lat="41.85894" lon="0.45655355">
        <time>2022-07-07T09:33:28Z</time>
      </trkpt>
      <trkpt lat="41.858948" lon="0.4566299">
        <time>2022-07-07T09:33:30Z</time>
      </trkpt>
      <trkpt lat="41.858967" lon="0.4567059">
        <time>2022-07-07T09:33:32Z</time>
      </trkpt>
      <trkpt lat="41.858982" lon="0.45678023">
        <time>2022-07-07T09:33:34Z</time>
      </trkpt>
      <trkpt lat="41.858997" lon="0.45685455">
        <time>2022-07-07T09:33:36Z</time>
      </trkpt>
      <trkpt lat="41.85901" lon="0.45693022">
        <time>2022-07-07T09:33:38Z</time>
      </trkpt>
      <trkpt lat="41.859028" lon="0.45700553">
        <time>2022-07-07T09:33:40Z</time>
      </trkpt>
      <trkpt lat="41.859047" lon="0.4570802">
        <time>2022-07-07T09:33:42Z</time>
      </trkpt>
      <trkpt lat="41.859066" lon="0.45715287">
        <time>2022-07-07T09:33:44Z</time>
      </trkpt>
      <trkpt lat="41.85908" lon="0.45722687">
        <time>2022-07-07T09:33:46Z</time>
      </trkpt>
      <trkpt lat="41.859097" lon="0.45730153">
        <time>2022-07-07T09:33:48Z</time>
      </trkpt>
      <trkpt lat="41.859116" lon="0.45737553">
        <time>2022-07-07T09:33:50Z</time>
      </trkpt>
      <trkpt lat="41.859135" lon="0.45745018">
        <time>2022-07-07T09:33:52Z</time>
      </trkpt>
      <trkpt lat="41.85915" lon="0.4575245">
        <time>2022-07-07T09:33:54Z</time>
      </trkpt>
      <trkpt lat="41.85917" lon="0.45759884">
        <time>2022-07-07T09:33:56Z</time>
      </trkpt>
      <trkpt lat="41.859184" lon="0.45767185">
        <time>2022-07-07T09:33:58Z</time>
      </trkpt>
      <trkpt lat="41.8592" lon="0.45773816">
        <time>2022-07-07T09:34:00Z</time>
      </trkpt>
      <trkpt lat="41.85922" lon="0.45779917">
        <time>2022-07-07T09:34:02Z</time>
      </trkpt>
      <trkpt lat="41.859238" lon="0.45788983">
        <time>2022-07-07T09:34:05Z</time>
      </trkpt>
      <trkpt lat="41.859257" lon="0.4579795">
        <time>2022-07-07T09:34:08Z</time>
      </trkpt>
      <trkpt lat="41.85927" lon="0.45803982">
        <time>2022-07-07T09:34:10Z</time>
      </trkpt>
      <trkpt lat="41.85929" lon="0.4581315">
        <time>2022-07-07T09:34:13Z</time>
      </trkpt>
      <trkpt lat="41.859303" lon="0.4581938">
        <time>2022-07-07T09:34:15Z</time>
      </trkpt>
      <trkpt lat="41.859318" lon="0.45828813">
        <time>2022-07-07T09:34:18Z</time>
      </trkpt>
      <trkpt lat="41.859337" lon="0.45838246">
        <time>2022-07-07T09:34:21Z</time>
      </trkpt>
      <trkpt lat="41.859356" lon="0.4584788">
        <time>2022-07-07T09:34:24Z</time>
      </trkpt>
      <trkpt lat="41.859367" lon="0.45853946">
        <time>2022-07-07T09:34:26Z</time>
      </trkpt>
      <trkpt lat="41.859383" lon="0.45863146">
        <time>2022-07-07T09:34:29Z</time>
      </trkpt>
      <trkpt lat="41.859394" lon="0.4587228">
        <time>2022-07-07T09:34:32Z</time>
      </trkpt>
      <trkpt lat="41.859406" lon="0.4588161">
        <time>2022-07-07T09:34:35Z</time>
      </trkpt>
      <trkpt lat="41.859417" lon="0.45891145">
        <time>2022-07-07T09:34:38Z</time>
      </trkpt>
      <trkpt lat="41.859425" lon="0.4590048">
        <time>2022-07-07T09:34:41Z</time>
      </trkpt>
      <trkpt lat="41.859432" lon="0.45909712">
        <time>2022-07-07T09:34:44Z</time>
      </trkpt>
      <trkpt lat="41.85944" lon="0.4591901">
        <time>2022-07-07T09:34:47Z</time>
      </trkpt>
      <trkpt lat="41.859444" lon="0.4592831">
        <time>2022-07-07T09:34:50Z</time>
      </trkpt>
      <trkpt lat="41.859447" lon="0.45937276">
        <time>2022-07-07T09:34:53Z</time>
      </trkpt>
      <trkpt lat="41.859455" lon="0.45946443">
        <time>2022-07-07T09:34:56Z</time>
      </trkpt>
      <trkpt lat="41.85946" lon="0.45956576">
        <time>2022-07-07T09:34:59Z</time>
      </trkpt>
      <trkpt lat="41.859463" lon="0.45963076">
        <time>2022-07-07T09:35:01Z</time>
      </trkpt>
      <trkpt lat="41.859467" lon="0.45973277">
        <time>2022-07-07T09:35:04Z</time>
      </trkpt>
      <trkpt lat="41.85947" lon="0.45982975">
        <time>2022-07-07T09:35:07Z</time>
      </trkpt>
      <trkpt lat="41.85947" lon="0.4599294">
        <time>2022-07-07T09:35:10Z</time>
      </trkpt>
      <trkpt lat="41.85947" lon="0.45999643">
        <time>2022-07-07T09:35:12Z</time>
      </trkpt>
      <trkpt lat="41.859467" lon="0.46009743">
        <time>2022-07-07T09:35:15Z</time>
      </trkpt>
      <trkpt lat="41.859467" lon="0.46016708">
        <time>2022-07-07T09:35:17Z</time>
      </trkpt>
      <trkpt lat="41.859463" lon="0.46026707">
        <time>2022-07-07T09:35:20Z</time>
      </trkpt>
      <trkpt lat="41.85946" lon="0.4603374">
        <time>2022-07-07T09:35:22Z</time>
      </trkpt>
      <trkpt lat="41.85946" lon="0.4604094">
        <time>2022-07-07T09:35:24Z</time>
      </trkpt>
      <trkpt lat="41.85945" lon="0.46048474">
        <time>2022-07-07T09:35:26Z</time>
      </trkpt>
      <trkpt lat="41.859447" lon="0.4605564">
        <time>2022-07-07T09:35:28Z</time>
      </trkpt>
      <trkpt lat="41.859444" lon="0.46062806">
        <time>2022-07-07T09:35:30Z</time>
      </trkpt>
      <trkpt lat="41.859436" lon="0.4606997">
        <time>2022-07-07T09:35:32Z</time>
      </trkpt>
      <trkpt lat="41.85943" lon="0.46077204">
        <time>2022-07-07T09:35:34Z</time>
      </trkpt>
      <trkpt lat="41.859413" lon="0.46088272">
        <time>2022-07-07T09:35:37Z</time>
      </trkpt>
      <trkpt lat="41.8594" lon="0.4609577">
        <time>2022-07-07T09:35:39Z</time>
      </trkpt>
      <trkpt lat="41.85939" lon="0.46103236">
        <time>2022-07-07T09:35:41Z</time>
      </trkpt>
      <trkpt lat="41.85938" lon="0.46110937">
        <time>2022-07-07T09:35:43Z</time>
      </trkpt>
      <trkpt lat="41.859367" lon="0.46118936">
        <time>2022-07-07T09:35:45Z</time>
      </trkpt>
      <trkpt lat="41.859356" lon="0.46127102">
        <time>2022-07-07T09:35:47Z</time>
      </trkpt>
      <trkpt lat="41.85934" lon="0.4613547">
        <time>2022-07-07T09:35:49Z</time>
      </trkpt>
      <trkpt lat="41.859325" lon="0.46144003">
        <time>2022-07-07T09:35:51Z</time>
      </trkpt>
      <trkpt lat="41.859314" lon="0.46152636">
        <time>2022-07-07T09:35:53Z</time>
      </trkpt>
      <trkpt lat="41.859295" lon="0.4616117">
        <time>2022-07-07T09:35:55Z</time>
      </trkpt>
      <trkpt lat="41.859276" lon="0.46169934">
        <time>2022-07-07T09:35:57Z</time>
      </trkpt>
      <trkpt lat="41.859257" lon="0.46178666">
        <time>2022-07-07T09:35:59Z</time>
      </trkpt>
      <trkpt lat="41.85924" lon="0.46187267">
        <time>2022-07-07T09:36:01Z</time>
      </trkpt>
      <trkpt lat="41.859222" lon="0.46195966">
        <time>2022-07-07T09:36:03Z</time>
      </trkpt>
      <trkpt lat="41.859203" lon="0.462047">
        <time>2022-07-07T09:36:05Z</time>
      </trkpt>
      <trkpt lat="41.859184" lon="0.462134">
        <time>2022-07-07T09:36:07Z</time>
      </trkpt>
      <trkpt lat="41.859165" lon="0.46221966">
        <time>2022-07-07T09:36:09Z</time>
      </trkpt>
      <trkpt lat="41.859142" lon="0.46230465">
        <time>2022-07-07T09:36:11Z</time>
      </trkpt>
      <trkpt lat="41.859123" lon="0.46238866">
        <time>2022-07-07T09:36:13Z</time>
      </trkpt>
      <trkpt lat="41.8591" lon="0.46247232">
        <time>2022-07-07T09:36:15Z</time>
      </trkpt>
      <trkpt lat="41.859077" lon="0.46255565">
        <time>2022-07-07T09:36:17Z</time>
      </trkpt>
      <trkpt lat="41.859055" lon="0.46264198">
        <time>2022-07-07T09:36:19Z</time>
      </trkpt>
      <trkpt lat="41.859035" lon="0.46273032">
        <time>2022-07-07T09:36:21Z</time>
      </trkpt>
      <trkpt lat="41.859013" lon="0.4628173">
        <time>2022-07-07T09:36:23Z</time>
      </trkpt>
      <trkpt lat="41.858994" lon="0.46290165">
        <time>2022-07-07T09:36:25Z</time>
      </trkpt>
      <trkpt lat="41.85897" lon="0.46298763">
        <time>2022-07-07T09:36:27Z</time>
      </trkpt>
      <trkpt lat="41.858948" lon="0.46307263">
        <time>2022-07-07T09:36:29Z</time>
      </trkpt>
      <trkpt lat="41.858925" lon="0.46315363">
        <time>2022-07-07T09:36:31Z</time>
      </trkpt>
      <trkpt lat="41.858902" lon="0.46323964">
        <time>2022-07-07T09:36:33Z</time>
      </trkpt>
      <trkpt lat="41.858883" lon="0.4633223">
        <time>2022-07-07T09:36:35Z</time>
      </trkpt>
      <trkpt lat="41.85886" lon="0.46341264">
        <time>2022-07-07T09:36:37Z</time>
      </trkpt>
      <trkpt lat="41.858837" lon="0.46349528">
        <time>2022-07-07T09:36:39Z</time>
      </trkpt>
      <trkpt lat="41.858818" lon="0.46358362">
        <time>2022-07-07T09:36:41Z</time>
      </trkpt>
      <trkpt lat="41.8588" lon="0.4636733">
        <time>2022-07-07T09:36:43Z</time>
      </trkpt>
      <trkpt lat="41.858772" lon="0.4637556">
        <time>2022-07-07T09:36:45Z</time>
      </trkpt>
      <trkpt lat="41.85875" lon="0.46384126">
        <time>2022-07-07T09:36:47Z</time>
      </trkpt>
      <trkpt lat="41.858727" lon="0.4639286">
        <time>2022-07-07T09:36:49Z</time>
      </trkpt>
      <trkpt lat="41.858707" lon="0.46401027">
        <time>2022-07-07T09:36:51Z</time>
      </trkpt>
      <trkpt lat="41.85869" lon="0.46409658">
        <time>2022-07-07T09:36:53Z</time>
      </trkpt>
      <trkpt lat="41.85867" lon="0.46417892">
        <time>2022-07-07T09:36:55Z</time>
      </trkpt>
      <trkpt lat="41.858646" lon="0.46426392">
        <time>2022-07-07T09:36:57Z</time>
      </trkpt>
      <trkpt lat="41.858624" lon="0.46434957">
        <time>2022-07-07T09:36:59Z</time>
      </trkpt>
      <trkpt lat="41.858604" lon="0.46443424">
        <time>2022-07-07T09:37:01Z</time>
      </trkpt>
      <trkpt lat="41.85858" lon="0.46451858">
        <time>2022-07-07T09:37:03Z</time>
      </trkpt>
      <trkpt lat="41.85856" lon="0.4646029">
        <time>2022-07-07T09:37:05Z</time>
      </trkpt>
      <trkpt lat="41.858536" lon="0.46468857">
        <time>2022-07-07T09:37:07Z</time>
      </trkpt>
      <trkpt lat="41.858513" lon="0.46477556">
        <time>2022-07-07T09:37:09Z</time>
      </trkpt>
      <trkpt lat="41.858494" lon="0.4648619">
        <time>2022-07-07T09:37:11Z</time>
      </trkpt>
      <trkpt lat="41.85847" lon="0.46495354">
        <time>2022-07-07T09:37:13Z</time>
      </trkpt>
      <trkpt lat="41.858448" lon="0.46504256">
        <time>2022-07-07T09:37:15Z</time>
      </trkpt>
      <trkpt lat="41.858425" lon="0.4651239">
        <time>2022-07-07T09:37:17Z</time>
      </trkpt>
      <trkpt lat="41.858402" lon="0.46520954">
        <time>2022-07-07T09:37:19Z</time>
      </trkpt>
      <trkpt lat="41.858383" lon="0.46529487">
        <time>2022-07-07T09:37:21Z</time>
      </trkpt>
      <trkpt lat="41.858364" lon="0.4653792">
        <time>2022-07-07T09:37:23Z</time>
      </trkpt>
      <trkpt lat="41.858345" lon="0.4654682">
        <time>2022-07-07T09:37:25Z</time>
      </trkpt>
      <trkpt lat="41.858326" lon="0.46555185">
        <time>2022-07-07T09:37:27Z</time>
      </trkpt>
      <trkpt lat="41.858303" lon="0.46563485">
        <time>2022-07-07T09:37:29Z</time>
      </trkpt>
      <trkpt lat="41.85828" lon="0.46571887">
        <time>2022-07-07T09:37:31Z</time>
      </trkpt>
      <trkpt lat="41.858257" lon="0.46579587">
        <time>2022-07-07T09:37:33Z</time>
      </trkpt>
      <trkpt lat="41.85824" lon="0.46587452">
        <time>2022-07-07T09:37:35Z</time>
      </trkpt>
      <trkpt lat="41.858215" lon="0.46595886">
        <time>2022-07-07T09:37:37Z</time>
      </trkpt>
      <trkpt lat="41.85819" lon="0.46604618">
        <time>2022-07-07T09:37:39Z</time>
      </trkpt>
      <trkpt lat="41.85816" lon="0.4661355">
        <time>2022-07-07T09:37:41Z</time>
      </trkpt>
      <trkpt lat="41.85813" lon="0.46622416">
        <time>2022-07-07T09:37:43Z</time>
      </trkpt>
      <trkpt lat="41.858105" lon="0.46631783">
        <time>2022-07-07T09:37:45Z</time>
      </trkpt>
      <trkpt lat="41.85808" lon="0.46641383">
        <time>2022-07-07T09:37:47Z</time>
      </trkpt>
      <trkpt lat="41.858063" lon="0.46650916">
        <time>2022-07-07T09:37:49Z</time>
      </trkpt>
      <trkpt lat="41.85804" lon="0.46660915">
        <time>2022-07-07T09:37:51Z</time>
      </trkpt>
      <trkpt lat="41.858017" lon="0.46670982">
        <time>2022-07-07T09:37:53Z</time>
      </trkpt>
      <trkpt lat="41.857994" lon="0.46680883">
        <time>2022-07-07T09:37:55Z</time>
      </trkpt>
      <trkpt lat="41.857967" lon="0.46690783">
        <time>2022-07-07T09:37:57Z</time>
      </trkpt>
      <trkpt lat="41.85794" lon="0.46700847">
        <time>2022-07-07T09:37:59Z</time>
      </trkpt>
      <trkpt lat="41.857914" lon="0.46711382">
        <time>2022-07-07T09:38:01Z</time>
      </trkpt>
      <trkpt lat="41.857887" lon="0.46722013">
        <time>2022-07-07T09:38:03Z</time>
      </trkpt>
      <trkpt lat="41.857864" lon="0.46732348">
        <time>2022-07-07T09:38:05Z</time>
      </trkpt>
      <trkpt lat="41.857838" lon="0.46742812">
        <time>2022-07-07T09:38:07Z</time>
      </trkpt>
      <trkpt lat="41.85781" lon="0.4675358">
        <time>2022-07-07T09:38:09Z</time>
      </trkpt>
      <trkpt lat="41.857784" lon="0.46764144">
        <time>2022-07-07T09:38:11Z</time>
      </trkpt>
      <trkpt lat="41.857758" lon="0.46775144">
        <time>2022-07-07T09:38:13Z</time>
      </trkpt>
      <trkpt lat="41.857727" lon="0.4678588">
        <time>2022-07-07T09:38:15Z</time>
      </trkpt>
      <trkpt lat="41.857697" lon="0.46796712">
        <time>2022-07-07T09:38:17Z</time>
      </trkpt>
      <trkpt lat="41.857666" lon="0.46808743">
        <time>2022-07-07T09:38:19Z</time>
      </trkpt>
      <trkpt lat="41.857655" lon="0.46814445">
        <time>2022-07-07T09:38:20Z</time>
      </trkpt>
      <trkpt lat="41.857624" lon="0.46826145">
        <time>2022-07-07T09:38:22Z</time>
      </trkpt>
      <trkpt lat="41.857597" lon="0.46838778">
        <time>2022-07-07T09:38:24Z</time>
      </trkpt>
      <trkpt lat="41.857582" lon="0.46844944">
        <time>2022-07-07T09:38:25Z</time>
      </trkpt>
      <trkpt lat="41.85755" lon="0.46856475">
        <time>2022-07-07T09:38:27Z</time>
      </trkpt>
      <trkpt lat="41.857517" lon="0.4686921">
        <time>2022-07-07T09:38:29Z</time>
      </trkpt>
      <trkpt lat="41.857483" lon="0.46881476">
        <time>2022-07-07T09:38:31Z</time>
      </trkpt>
      <trkpt lat="41.857452" lon="0.4689384">
        <time>2022-07-07T09:38:33Z</time>
      </trkpt>
      <trkpt lat="41.857418" lon="0.46905875">
        <time>2022-07-07T09:38:35Z</time>
      </trkpt>
      <trkpt lat="41.857388" lon="0.46916875">
        <time>2022-07-07T09:38:37Z</time>
      </trkpt>
      <trkpt lat="41.85736" lon="0.46928006">
        <time>2022-07-07T09:38:39Z</time>
      </trkpt>
      <trkpt lat="41.85733" lon="0.4693884">
        <time>2022-07-07T09:38:41Z</time>
      </trkpt>
      <trkpt lat="41.857307" lon="0.46949205">
        <time>2022-07-07T09:38:43Z</time>
      </trkpt>
      <trkpt lat="41.857285" lon="0.46959773">
        <time>2022-07-07T09:38:45Z</time>
      </trkpt>
      <trkpt lat="41.857258" lon="0.4696997">
        <time>2022-07-07T09:38:47Z</time>
      </trkpt>
      <trkpt lat="41.857216" lon="0.46984804">
        <time>2022-07-07T09:38:50Z</time>
      </trkpt>
      <trkpt lat="41.857185" lon="0.46996072">
        <time>2022-07-07T09:38:52Z</time>
      </trkpt>
      <trkpt lat="41.85716" lon="0.4700787">
        <time>2022-07-07T09:38:54Z</time>
      </trkpt>
      <trkpt lat="41.857124" lon="0.47020537">
        <time>2022-07-07T09:38:56Z</time>
      </trkpt>
      <trkpt lat="41.857094" lon="0.47032037">
        <time>2022-07-07T09:38:58Z</time>
      </trkpt>
      <trkpt lat="41.857063" lon="0.47043404">
        <time>2022-07-07T09:39:00Z</time>
      </trkpt>
      <trkpt lat="41.857048" lon="0.47049037">
        <time>2022-07-07T09:39:01Z</time>
      </trkpt>
      <trkpt lat="41.857014" lon="0.4705957">
        <time>2022-07-07T09:39:03Z</time>
      </trkpt>
      <trkpt lat="41.856987" lon="0.4706977">
        <time>2022-07-07T09:39:05Z</time>
      </trkpt>
      <trkpt lat="41.85696" lon="0.47079903">
        <time>2022-07-07T09:39:07Z</time>
      </trkpt>
      <trkpt lat="41.856934" lon="0.47089836">
        <time>2022-07-07T09:39:09Z</time>
      </trkpt>
      <trkpt lat="41.856915" lon="0.47100502">
        <time>2022-07-07T09:39:11Z</time>
      </trkpt>
      <trkpt lat="41.856888" lon="0.47111633">
        <time>2022-07-07T09:39:13Z</time>
      </trkpt>
      <trkpt lat="41.856857" lon="0.47123066">
        <time>2022-07-07T09:39:15Z</time>
      </trkpt>
      <trkpt lat="41.85683" lon="0.47135067">
        <time>2022-07-07T09:39:17Z</time>
      </trkpt>
      <trkpt lat="41.8568" lon="0.471474">
        <time>2022-07-07T09:39:19Z</time>
      </trkpt>
      <trkpt lat="41.85679" lon="0.47153634">
        <time>2022-07-07T09:39:20Z</time>
      </trkpt>
      <trkpt lat="41.856762" lon="0.47166532">
        <time>2022-07-07T09:39:22Z</time>
      </trkpt>
      <trkpt lat="41.85674" lon="0.47180098">
        <time>2022-07-07T09:39:24Z</time>
      </trkpt>
      <trkpt lat="41.856728" lon="0.47186765">
        <time>2022-07-07T09:39:25Z</time>
      </trkpt>
      <trkpt lat="41.8567" lon="0.47201166">
        <time>2022-07-07T09:39:27Z</time>
      </trkpt>
      <trkpt lat="41.856693" lon="0.4720833">
        <time>2022-07-07T09:39:28Z</time>
      </trkpt>
      <trkpt lat="41.85668" lon="0.47215632">
        <time>2022-07-07T09:39:29Z</time>
      </trkpt>
      <trkpt lat="41.856674" lon="0.47223064">
        <time>2022-07-07T09:39:30Z</time>
      </trkpt>
      <trkpt lat="41.856667" lon="0.47230065">
        <time>2022-07-07T09:39:31Z</time>
      </trkpt>
      <trkpt lat="41.85666" lon="0.47237763">
        <time>2022-07-07T09:39:32Z</time>
      </trkpt>
      <trkpt lat="41.85665" lon="0.4724553">
        <time>2022-07-07T09:39:33Z</time>
      </trkpt>
      <trkpt lat="41.856644" lon="0.47253296">
        <time>2022-07-07T09:39:34Z</time>
      </trkpt>
      <trkpt lat="41.85664" lon="0.47260663">
        <time>2022-07-07T09:39:35Z</time>
      </trkpt>
      <trkpt lat="41.856636" lon="0.47268227">
        <time>2022-07-07T09:39:36Z</time>
      </trkpt>
      <trkpt lat="41.856632" lon="0.47276595">
        <time>2022-07-07T09:39:37Z</time>
      </trkpt>
      <trkpt lat="41.856632" lon="0.47284895">
        <time>2022-07-07T09:39:38Z</time>
      </trkpt>
      <trkpt lat="41.85663" lon="0.47293326">
        <time>2022-07-07T09:39:39Z</time>
      </trkpt>
      <trkpt lat="41.85663" lon="0.4730126">
        <time>2022-07-07T09:39:40Z</time>
      </trkpt>
      <trkpt lat="41.85663" lon="0.47309527">
        <time>2022-07-07T09:39:41Z</time>
      </trkpt>
      <trkpt lat="41.856632" lon="0.47318593">
        <time>2022-07-07T09:39:42Z</time>
      </trkpt>
      <trkpt lat="41.856632" lon="0.47327724">
        <time>2022-07-07T09:39:43Z</time>
      </trkpt>
      <trkpt lat="41.856636" lon="0.47336358">
        <time>2022-07-07T09:39:44Z</time>
      </trkpt>
      <trkpt lat="41.856644" lon="0.47345224">
        <time>2022-07-07T09:39:45Z</time>
      </trkpt>
      <trkpt lat="41.856647" lon="0.47354257">
        <time>2022-07-07T09:39:46Z</time>
      </trkpt>
      <trkpt lat="41.85666" lon="0.4736339">
        <time>2022-07-07T09:39:47Z</time>
      </trkpt>
      <trkpt lat="41.85667" lon="0.47372556">
        <time>2022-07-07T09:39:48Z</time>
      </trkpt>
      <trkpt lat="41.85668" lon="0.47382423">
        <time>2022-07-07T09:39:49Z</time>
      </trkpt>
      <trkpt lat="41.856697" lon="0.4739149">
        <time>2022-07-07T09:39:50Z</time>
      </trkpt>
      <trkpt lat="41.856712" lon="0.47400588">
        <time>2022-07-07T09:39:51Z</time>
      </trkpt>
      <trkpt lat="41.856728" lon="0.47409654">
        <time>2022-07-07T09:39:52Z</time>
      </trkpt>
      <trkpt lat="41.856747" lon="0.47419286">
        <time>2022-07-07T09:39:53Z</time>
      </trkpt>
      <trkpt lat="41.856785" lon="0.4743732">
        <time>2022-07-07T09:39:55Z</time>
      </trkpt>
      <trkpt lat="41.856808" lon="0.47446087">
        <time>2022-07-07T09:39:56Z</time>
      </trkpt>
      <trkpt lat="41.85683" lon="0.47454986">
        <time>2022-07-07T09:39:57Z</time>
      </trkpt>
      <trkpt lat="41.856853" lon="0.47463918">
        <time>2022-07-07T09:39:58Z</time>
      </trkpt>
      <trkpt lat="41.856884" lon="0.47473586">
        <time>2022-07-07T09:39:59Z</time>
      </trkpt>
      <trkpt lat="41.856907" lon="0.4748305">
        <time>2022-07-07T09:40:00Z</time>
      </trkpt>
      <trkpt lat="41.856934" lon="0.47491685">
        <time>2022-07-07T09:40:01Z</time>
      </trkpt>
      <trkpt lat="41.85696" lon="0.47500384">
        <time>2022-07-07T09:40:02Z</time>
      </trkpt>
      <trkpt lat="41.856995" lon="0.4750975">
        <time>2022-07-07T09:40:03Z</time>
      </trkpt>
      <trkpt lat="41.857025" lon="0.47519016">
        <time>2022-07-07T09:40:04Z</time>
      </trkpt>
      <trkpt lat="41.857056" lon="0.47528315">
        <time>2022-07-07T09:40:05Z</time>
      </trkpt>
      <trkpt lat="41.85709" lon="0.47537583">
        <time>2022-07-07T09:40:06Z</time>
      </trkpt>
      <trkpt lat="41.85712" lon="0.4754688">
        <time>2022-07-07T09:40:07Z</time>
      </trkpt>
      <trkpt lat="41.85715" lon="0.47556114">
        <time>2022-07-07T09:40:08Z</time>
      </trkpt>
      <trkpt lat="41.85718" lon="0.4756538">
        <time>2022-07-07T09:40:09Z</time>
      </trkpt>
      <trkpt lat="41.857216" lon="0.4757458">
        <time>2022-07-07T09:40:10Z</time>
      </trkpt>
      <trkpt lat="41.857246" lon="0.47583815">
        <time>2022-07-07T09:40:11Z</time>
      </trkpt>
      <trkpt lat="41.857277" lon="0.4759308">
        <time>2022-07-07T09:40:12Z</time>
      </trkpt>
      <trkpt lat="41.85731" lon="0.4760248">
        <time>2022-07-07T09:40:13Z</time>
      </trkpt>
      <trkpt lat="41.857338" lon="0.4761178">
        <time>2022-07-07T09:40:14Z</time>
      </trkpt>
      <trkpt lat="41.857365" lon="0.4762118">
        <time>2022-07-07T09:40:15Z</time>
      </trkpt>
      <trkpt lat="41.857395" lon="0.4763058">
        <time>2022-07-07T09:40:16Z</time>
      </trkpt>
      <trkpt lat="41.857418" lon="0.4763998">
        <time>2022-07-07T09:40:17Z</time>
      </trkpt>
      <trkpt lat="41.857445" lon="0.47649413">
        <time>2022-07-07T09:40:18Z</time>
      </trkpt>
      <trkpt lat="41.857468" lon="0.47658813">
        <time>2022-07-07T09:40:19Z</time>
      </trkpt>
      <trkpt lat="41.85749" lon="0.4766818">
        <time>2022-07-07T09:40:20Z</time>
      </trkpt>
      <trkpt lat="41.857513" lon="0.4767688">
        <time>2022-07-07T09:40:21Z</time>
      </trkpt>
      <trkpt lat="41.857533" lon="0.47686413">
        <time>2022-07-07T09:40:22Z</time>
      </trkpt>
      <trkpt lat="41.85755" lon="0.47695744">
        <time>2022-07-07T09:40:23Z</time>
      </trkpt>
      <trkpt lat="41.857567" lon="0.4770441">
        <time>2022-07-07T09:40:24Z</time>
      </trkpt>
      <trkpt lat="41.857586" lon="0.47713777">
        <time>2022-07-07T09:40:25Z</time>
      </trkpt>
      <trkpt lat="41.8576" lon="0.47722977">
        <time>2022-07-07T09:40:26Z</time>
      </trkpt>
      <trkpt lat="41.857613" lon="0.47732142">
        <time>2022-07-07T09:40:27Z</time>
      </trkpt>
      <trkpt lat="41.857624" lon="0.47741175">
        <time>2022-07-07T09:40:28Z</time>
      </trkpt>
      <trkpt lat="41.857635" lon="0.4775011">
        <time>2022-07-07T09:40:29Z</time>
      </trkpt>
      <trkpt lat="41.857647" lon="0.47758943">
        <time>2022-07-07T09:40:30Z</time>
      </trkpt>
      <trkpt lat="41.85766" lon="0.4776761">
        <time>2022-07-07T09:40:31Z</time>
      </trkpt>
      <trkpt lat="41.85767" lon="0.47776175">
        <time>2022-07-07T09:40:32Z</time>
      </trkpt>
      <trkpt lat="41.857674" lon="0.47784674">
        <time>2022-07-07T09:40:33Z</time>
      </trkpt>
      <trkpt lat="41.85768" lon="0.47793108">
        <time>2022-07-07T09:40:34Z</time>
      </trkpt>
      <trkpt lat="41.857685" lon="0.47801408">
        <time>2022-07-07T09:40:35Z</time>
      </trkpt>
      <trkpt lat="41.857693" lon="0.4780904">
        <time>2022-07-07T09:40:36Z</time>
      </trkpt>
      <trkpt lat="41.857697" lon="0.47816807">
        <time>2022-07-07T09:40:37Z</time>
      </trkpt>
      <trkpt lat="41.8577" lon="0.47824538">
        <time>2022-07-07T09:40:38Z</time>
      </trkpt>
      <trkpt lat="41.857704" lon="0.4783224">
        <time>2022-07-07T09:40:39Z</time>
      </trkpt>
      <trkpt lat="41.857704" lon="0.4783994">
        <time>2022-07-07T09:40:40Z</time>
      </trkpt>
      <trkpt lat="41.857704" lon="0.4784747">
        <time>2022-07-07T09:40:41Z</time>
      </trkpt>
      <trkpt lat="41.8577" lon="0.47855473">
        <time>2022-07-07T09:40:42Z</time>
      </trkpt>
      <trkpt lat="41.857697" lon="0.47863272">
        <time>2022-07-07T09:40:43Z</time>
      </trkpt>
      <trkpt lat="41.857697" lon="0.47870904">
        <time>2022-07-07T09:40:44Z</time>
      </trkpt>
      <trkpt lat="41.857693" lon="0.47877938">
        <time>2022-07-07T09:40:45Z</time>
      </trkpt>
      <trkpt lat="41.85769" lon="0.4788557">
        <time>2022-07-07T09:40:46Z</time>
      </trkpt>
      <trkpt lat="41.857685" lon="0.47893104">
        <time>2022-07-07T09:40:47Z</time>
      </trkpt>
      <trkpt lat="41.85768" lon="0.4790057">
        <time>2022-07-07T09:40:48Z</time>
      </trkpt>
      <trkpt lat="41.857674" lon="0.4790807">
        <time>2022-07-07T09:40:49Z</time>
      </trkpt>
      <trkpt lat="41.85767" lon="0.47915104">
        <time>2022-07-07T09:40:50Z</time>
      </trkpt>
      <trkpt lat="41.857662" lon="0.47922736">
        <time>2022-07-07T09:40:51Z</time>
      </trkpt>
      <trkpt lat="41.85765" lon="0.479299">
        <time>2022-07-07T09:40:52Z</time>
      </trkpt>
      <trkpt lat="41.857643" lon="0.47937202">
        <time>2022-07-07T09:40:53Z</time>
      </trkpt>
      <trkpt lat="41.85763" lon="0.479452">
        <time>2022-07-07T09:40:54Z</time>
      </trkpt>
      <trkpt lat="41.85761" lon="0.47960603">
        <time>2022-07-07T09:40:56Z</time>
      </trkpt>
      <trkpt lat="41.857597" lon="0.47968468">
        <time>2022-07-07T09:40:57Z</time>
      </trkpt>
      <trkpt lat="41.857582" lon="0.47976202">
        <time>2022-07-07T09:40:58Z</time>
      </trkpt>
      <trkpt lat="41.85757" lon="0.47983366">
        <time>2022-07-07T09:40:59Z</time>
      </trkpt>
      <trkpt lat="41.857555" lon="0.47991234">
        <time>2022-07-07T09:41:00Z</time>
      </trkpt>
      <trkpt lat="41.85754" lon="0.47998932">
        <time>2022-07-07T09:41:01Z</time>
      </trkpt>
      <trkpt lat="41.857525" lon="0.48006466">
        <time>2022-07-07T09:41:02Z</time>
      </trkpt>
      <trkpt lat="41.85751" lon="0.48013866">
        <time>2022-07-07T09:41:03Z</time>
      </trkpt>
      <trkpt lat="41.857494" lon="0.48020867">
        <time>2022-07-07T09:41:04Z</time>
      </trkpt>
      <trkpt lat="41.85748" lon="0.48027933">
        <time>2022-07-07T09:41:05Z</time>
      </trkpt>
      <trkpt lat="41.85746" lon="0.48035464">
        <time>2022-07-07T09:41:06Z</time>
      </trkpt>
      <trkpt lat="41.85744" lon="0.48042697">
        <time>2022-07-07T09:41:07Z</time>
      </trkpt>
      <trkpt lat="41.85742" lon="0.48049697">
        <time>2022-07-07T09:41:08Z</time>
      </trkpt>
      <trkpt lat="41.857403" lon="0.48056632">
        <time>2022-07-07T09:41:09Z</time>
      </trkpt>
      <trkpt lat="41.857384" lon="0.48063496">
        <time>2022-07-07T09:41:10Z</time>
      </trkpt>
      <trkpt lat="41.857365" lon="0.4806973">
        <time>2022-07-07T09:41:11Z</time>
      </trkpt>
      <trkpt lat="41.857346" lon="0.4807663">
        <time>2022-07-07T09:41:12Z</time>
      </trkpt>
      <trkpt lat="41.857323" lon="0.48083496">
        <time>2022-07-07T09:41:13Z</time>
      </trkpt>
      <trkpt lat="41.857304" lon="0.48090297">
        <time>2022-07-07T09:41:14Z</time>
      </trkpt>
      <trkpt lat="41.85728" lon="0.4809703">
        <time>2022-07-07T09:41:15Z</time>
      </trkpt>
      <trkpt lat="41.85726" lon="0.48103663">
        <time>2022-07-07T09:41:16Z</time>
      </trkpt>
      <trkpt lat="41.85724" lon="0.48110127">
        <time>2022-07-07T09:41:17Z</time>
      </trkpt>
      <trkpt lat="41.85722" lon="0.48116094">
        <time>2022-07-07T09:41:18Z</time>
      </trkpt>
      <trkpt lat="41.8572" lon="0.48122194">
        <time>2022-07-07T09:41:19Z</time>
      </trkpt>
      <trkpt lat="41.857162" lon="0.48134428">
        <time>2022-07-07T09:41:21Z</time>
      </trkpt>
      <trkpt lat="41.857124" lon="0.48146626">
        <time>2022-07-07T09:41:23Z</time>
      </trkpt>
      <trkpt lat="41.85709" lon="0.48159194">
        <time>2022-07-07T09:41:25Z</time>
      </trkpt>
      <trkpt lat="41.857056" lon="0.4817156">
        <time>2022-07-07T09:41:27Z</time>
      </trkpt>
      <trkpt lat="41.857025" lon="0.48183593">
        <time>2022-07-07T09:41:29Z</time>
      </trkpt>
      <trkpt lat="41.85699" lon="0.48195526">
        <time>2022-07-07T09:41:31Z</time>
      </trkpt>
      <trkpt lat="41.85695" lon="0.48207957">
        <time>2022-07-07T09:41:33Z</time>
      </trkpt>
      <trkpt lat="41.856926" lon="0.48214123">
        <time>2022-07-07T09:41:34Z</time>
      </trkpt>
      <trkpt lat="41.856876" lon="0.4822589">
        <time>2022-07-07T09:41:36Z</time>
      </trkpt>
      <trkpt lat="41.856853" lon="0.48232156">
        <time>2022-07-07T09:41:37Z</time>
      </trkpt>
      <trkpt lat="41.856808" lon="0.48244855">
        <time>2022-07-07T09:41:39Z</time>
      </trkpt>
      <trkpt lat="41.85679" lon="0.48251256">
        <time>2022-07-07T09:41:40Z</time>
      </trkpt>
      <trkpt lat="41.856766" lon="0.48257655">
        <time>2022-07-07T09:41:41Z</time>
      </trkpt>
      <trkpt lat="41.856747" lon="0.48263988">
        <time>2022-07-07T09:41:42Z</time>
      </trkpt>
      <trkpt lat="41.856705" lon="0.4827689">
        <time>2022-07-07T09:41:44Z</time>
      </trkpt>
      <trkpt lat="41.85668" lon="0.48283288">
        <time>2022-07-07T09:41:45Z</time>
      </trkpt>
      <trkpt lat="41.856663" lon="0.48289654">
        <time>2022-07-07T09:41:46Z</time>
      </trkpt>
      <trkpt lat="41.856644" lon="0.4829562">
        <time>2022-07-07T09:41:47Z</time>
      </trkpt>
      <trkpt lat="41.8566" lon="0.4830912">
        <time>2022-07-07T09:41:49Z</time>
      </trkpt>
      <trkpt lat="41.856583" lon="0.48315987">
        <time>2022-07-07T09:41:50Z</time>
      </trkpt>
      <trkpt lat="41.856564" lon="0.4832232">
        <time>2022-07-07T09:41:51Z</time>
      </trkpt>
      <trkpt lat="41.85654" lon="0.48329285">
        <time>2022-07-07T09:41:52Z</time>
      </trkpt>
      <trkpt lat="41.856518" lon="0.4833615">
        <time>2022-07-07T09:41:53Z</time>
      </trkpt>
      <trkpt lat="41.8565" lon="0.48342884">
        <time>2022-07-07T09:41:54Z</time>
      </trkpt>
      <trkpt lat="41.856476" lon="0.48349652">
        <time>2022-07-07T09:41:55Z</time>
      </trkpt>
      <trkpt lat="41.856453" lon="0.48356384">
        <time>2022-07-07T09:41:56Z</time>
      </trkpt>
      <trkpt lat="41.85643" lon="0.48363218">
        <time>2022-07-07T09:41:57Z</time>
      </trkpt>
      <trkpt lat="41.85641" lon="0.4837005">
        <time>2022-07-07T09:41:58Z</time>
      </trkpt>
      <trkpt lat="41.856388" lon="0.48376915">
        <time>2022-07-07T09:41:59Z</time>
      </trkpt>
      <trkpt lat="41.856346" lon="0.48390782">
        <time>2022-07-07T09:42:01Z</time>
      </trkpt>
      <trkpt lat="41.856323" lon="0.4839815">
        <time>2022-07-07T09:42:02Z</time>
      </trkpt>
      <trkpt lat="41.85628" lon="0.48411748">
        <time>2022-07-07T09:42:04Z</time>
      </trkpt>
      <trkpt lat="41.85626" lon="0.48418513">
        <time>2022-07-07T09:42:05Z</time>
      </trkpt>
      <trkpt lat="41.85624" lon="0.48425347">
        <time>2022-07-07T09:42:06Z</time>
      </trkpt>
      <trkpt lat="41.856216" lon="0.48431748">
        <time>2022-07-07T09:42:07Z</time>
      </trkpt>
      <trkpt lat="41.856174" lon="0.4844588">
        <time>2022-07-07T09:42:09Z</time>
      </trkpt>
      <trkpt lat="41.85615" lon="0.4845298">
        <time>2022-07-07T09:42:10Z</time>
      </trkpt>
      <trkpt lat="41.85613" lon="0.48460045">
        <time>2022-07-07T09:42:11Z</time>
      </trkpt>
      <trkpt lat="41.856106" lon="0.48467213">
        <time>2022-07-07T09:42:12Z</time>
      </trkpt>
      <trkpt lat="41.856087" lon="0.48473877">
        <time>2022-07-07T09:42:13Z</time>
      </trkpt>
      <trkpt lat="41.856064" lon="0.48481143">
        <time>2022-07-07T09:42:14Z</time>
      </trkpt>
      <trkpt lat="41.85604" lon="0.4848841">
        <time>2022-07-07T09:42:15Z</time>
      </trkpt>
      <trkpt lat="41.856018" lon="0.4849571">
        <time>2022-07-07T09:42:16Z</time>
      </trkpt>
      <trkpt lat="41.856" lon="0.48503044">
        <time>2022-07-07T09:42:17Z</time>
      </trkpt>
      <trkpt lat="41.855976" lon="0.4851031">
        <time>2022-07-07T09:42:18Z</time>
      </trkpt>
      <trkpt lat="41.855953" lon="0.48517108">
        <time>2022-07-07T09:42:19Z</time>
      </trkpt>
      <trkpt lat="41.85593" lon="0.48524442">
        <time>2022-07-07T09:42:20Z</time>
      </trkpt>
      <trkpt lat="41.855907" lon="0.48531675">
        <time>2022-07-07T09:42:21Z</time>
      </trkpt>
      <trkpt lat="41.855885" lon="0.48538908">
        <time>2022-07-07T09:42:22Z</time>
      </trkpt>
      <trkpt lat="41.85586" lon="0.4854611">
        <time>2022-07-07T09:42:23Z</time>
      </trkpt>
      <trkpt lat="41.85584" lon="0.4855324">
        <time>2022-07-07T09:42:24Z</time>
      </trkpt>
      <trkpt lat="41.85582" lon="0.48560342">
        <time>2022-07-07T09:42:25Z</time>
      </trkpt>
      <trkpt lat="41.855797" lon="0.48567274">
        <time>2022-07-07T09:42:26Z</time>
      </trkpt>
      <trkpt lat="41.855774" lon="0.48574173">
        <time>2022-07-07T09:42:27Z</time>
      </trkpt>
      <trkpt lat="41.855755" lon="0.48581174">
        <time>2022-07-07T09:42:28Z</time>
      </trkpt>
      <trkpt lat="41.855732" lon="0.48588175">
        <time>2022-07-07T09:42:29Z</time>
      </trkpt>
      <trkpt lat="41.85571" lon="0.48595008">
        <time>2022-07-07T09:42:30Z</time>
      </trkpt>
      <trkpt lat="41.855686" lon="0.48601806">
        <time>2022-07-07T09:42:31Z</time>
      </trkpt>
      <trkpt lat="41.855663" lon="0.4860864">
        <time>2022-07-07T09:42:32Z</time>
      </trkpt>
      <trkpt lat="41.855637" lon="0.4861554">
        <time>2022-07-07T09:42:33Z</time>
      </trkpt>
      <trkpt lat="41.855614" lon="0.48621973">
        <time>2022-07-07T09:42:34Z</time>
      </trkpt>
      <trkpt lat="41.85559" lon="0.48629105">
        <time>2022-07-07T09:42:35Z</time>
      </trkpt>
      <trkpt lat="41.855564" lon="0.48636073">
        <time>2022-07-07T09:42:36Z</time>
      </trkpt>
      <trkpt lat="41.85554" lon="0.48642504">
        <time>2022-07-07T09:42:37Z</time>
      </trkpt>
      <trkpt lat="41.85552" lon="0.4864897">
        <time>2022-07-07T09:42:38Z</time>
      </trkpt>
      <trkpt lat="41.85549" lon="0.48655605">
        <time>2022-07-07T09:42:39Z</time>
      </trkpt>
      <trkpt lat="41.855465" lon="0.48662305">
        <time>2022-07-07T09:42:40Z</time>
      </trkpt>
      <trkpt lat="41.855442" lon="0.48669103">
        <time>2022-07-07T09:42:41Z</time>
      </trkpt>
      <trkpt lat="41.855415" lon="0.48675838">
        <time>2022-07-07T09:42:42Z</time>
      </trkpt>
      <trkpt lat="41.85539" lon="0.48682502">
        <time>2022-07-07T09:42:43Z</time>
      </trkpt>
      <trkpt lat="41.855362" lon="0.48689136">
        <time>2022-07-07T09:42:44Z</time>
      </trkpt>
      <trkpt lat="41.855335" lon="0.48695603">
        <time>2022-07-07T09:42:45Z</time>
      </trkpt>
      <trkpt lat="41.85531" lon="0.48702168">
        <time>2022-07-07T09:42:46Z</time>
      </trkpt>
      <trkpt lat="41.855286" lon="0.48708633">
        <time>2022-07-07T09:42:47Z</time>
      </trkpt>
      <trkpt lat="41.85526" lon="0.48714834">
        <time>2022-07-07T09:42:48Z</time>
      </trkpt>
      <trkpt lat="41.855232" lon="0.48721167">
        <time>2022-07-07T09:42:49Z</time>
      </trkpt>
      <trkpt lat="41.855206" lon="0.48726967">
        <time>2022-07-07T09:42:50Z</time>
      </trkpt>
      <trkpt lat="41.855156" lon="0.48738632">
        <time>2022-07-07T09:42:52Z</time>
      </trkpt>
      <trkpt lat="41.855106" lon="0.487499">
        <time>2022-07-07T09:42:54Z</time>
      </trkpt>
      <trkpt lat="41.85506" lon="0.48760533">
        <time>2022-07-07T09:42:56Z</time>
      </trkpt>
      <trkpt lat="41.85501" lon="0.48770565">
        <time>2022-07-07T09:42:58Z</time>
      </trkpt>
      <trkpt lat="41.85497" lon="0.48780298">
        <time>2022-07-07T09:43:00Z</time>
      </trkpt>
      <trkpt lat="41.854927" lon="0.487898">
        <time>2022-07-07T09:43:02Z</time>
      </trkpt>
      <trkpt lat="41.854885" lon="0.48799297">
        <time>2022-07-07T09:43:04Z</time>
      </trkpt>
      <trkpt lat="41.854843" lon="0.4880833">
        <time>2022-07-07T09:43:06Z</time>
      </trkpt>
      <trkpt lat="41.854805" lon="0.48816898">
        <time>2022-07-07T09:43:08Z</time>
      </trkpt>
      <trkpt lat="41.854767" lon="0.4882523">
        <time>2022-07-07T09:43:10Z</time>
      </trkpt>
      <trkpt lat="41.85473" lon="0.48833764">
        <time>2022-07-07T09:43:12Z</time>
      </trkpt>
      <trkpt lat="41.854694" lon="0.48842564">
        <time>2022-07-07T09:43:14Z</time>
      </trkpt>
      <trkpt lat="41.854656" lon="0.48851362">
        <time>2022-07-07T09:43:16Z</time>
      </trkpt>
      <trkpt lat="41.85462" lon="0.48860097">
        <time>2022-07-07T09:43:18Z</time>
      </trkpt>
      <trkpt lat="41.854584" lon="0.48868895">
        <time>2022-07-07T09:43:20Z</time>
      </trkpt>
      <trkpt lat="41.854546" lon="0.48877463">
        <time>2022-07-07T09:43:22Z</time>
      </trkpt>
      <trkpt lat="41.85451" lon="0.48886028">
        <time>2022-07-07T09:43:24Z</time>
      </trkpt>
      <trkpt lat="41.854473" lon="0.4889476">
        <time>2022-07-07T09:43:26Z</time>
      </trkpt>
      <trkpt lat="41.85444" lon="0.48903495">
        <time>2022-07-07T09:43:28Z</time>
      </trkpt>
      <trkpt lat="41.854404" lon="0.4891226">
        <time>2022-07-07T09:43:30Z</time>
      </trkpt>
      <trkpt lat="41.854374" lon="0.48921192">
        <time>2022-07-07T09:43:32Z</time>
      </trkpt>
      <trkpt lat="41.854343" lon="0.4893016">
        <time>2022-07-07T09:43:34Z</time>
      </trkpt>
      <trkpt lat="41.854313" lon="0.48939192">
        <time>2022-07-07T09:43:36Z</time>
      </trkpt>
      <trkpt lat="41.854282" lon="0.48948324">
        <time>2022-07-07T09:43:38Z</time>
      </trkpt>
      <trkpt lat="41.85425" lon="0.4895749">
        <time>2022-07-07T09:43:40Z</time>
      </trkpt>
      <trkpt lat="41.854225" lon="0.48966858">
        <time>2022-07-07T09:43:42Z</time>
      </trkpt>
      <trkpt lat="41.8542" lon="0.4897629">
        <time>2022-07-07T09:43:44Z</time>
      </trkpt>
      <trkpt lat="41.85417" lon="0.48985755">
        <time>2022-07-07T09:43:46Z</time>
      </trkpt>
      <trkpt lat="41.854145" lon="0.48995388">
        <time>2022-07-07T09:43:48Z</time>
      </trkpt>
      <trkpt lat="41.854115" lon="0.4900512">
        <time>2022-07-07T09:43:50Z</time>
      </trkpt>
      <trkpt lat="41.854088" lon="0.4901459">
        <time>2022-07-07T09:43:52Z</time>
      </trkpt>
      <trkpt lat="41.85406" lon="0.4902399">
        <time>2022-07-07T09:43:54Z</time>
      </trkpt>
      <trkpt lat="41.854034" lon="0.49033353">
        <time>2022-07-07T09:43:56Z</time>
      </trkpt>
      <trkpt lat="41.85401" lon="0.49042788">
        <time>2022-07-07T09:43:58Z</time>
      </trkpt>
      <trkpt lat="41.853992" lon="0.49052453">
        <time>2022-07-07T09:44:00Z</time>
      </trkpt>
      <trkpt lat="41.85397" lon="0.49062252">
        <time>2022-07-07T09:44:02Z</time>
      </trkpt>
      <trkpt lat="41.853947" lon="0.4907192">
        <time>2022-07-07T09:44:04Z</time>
      </trkpt>
      <trkpt lat="41.85391" lon="0.49085584">
        <time>2022-07-07T09:44:07Z</time>
      </trkpt>
      <trkpt lat="41.853878" lon="0.49094686">
        <time>2022-07-07T09:44:09Z</time>
      </trkpt>
      <trkpt lat="41.853855" lon="0.4910372">
        <time>2022-07-07T09:44:11Z</time>
      </trkpt>
      <trkpt lat="41.853832" lon="0.49113017">
        <time>2022-07-07T09:44:13Z</time>
      </trkpt>
      <trkpt lat="41.853806" lon="0.4912232">
        <time>2022-07-07T09:44:15Z</time>
      </trkpt>
      <trkpt lat="41.853786" lon="0.49131918">
        <time>2022-07-07T09:44:17Z</time>
      </trkpt>
      <trkpt lat="41.85376" lon="0.49141917">
        <time>2022-07-07T09:44:19Z</time>
      </trkpt>
      <trkpt lat="41.853733" lon="0.49150917">
        <time>2022-07-07T09:44:21Z</time>
      </trkpt>
      <trkpt lat="41.85371" lon="0.4916052">
        <time>2022-07-07T09:44:23Z</time>
      </trkpt>
      <trkpt lat="41.853683" lon="0.4917015">
        <time>2022-07-07T09:44:25Z</time>
      </trkpt>
      <trkpt lat="41.85366" lon="0.49179184">
        <time>2022-07-07T09:44:27Z</time>
      </trkpt>
      <trkpt lat="41.853638" lon="0.4918885">
        <time>2022-07-07T09:44:29Z</time>
      </trkpt>
      <trkpt lat="41.85361" lon="0.4919805">
        <time>2022-07-07T09:44:31Z</time>
      </trkpt>
      <trkpt lat="41.85359" lon="0.49207217">
        <time>2022-07-07T09:44:33Z</time>
      </trkpt>
      <trkpt lat="41.853565" lon="0.49217248">
        <time>2022-07-07T09:44:35Z</time>
      </trkpt>
      <trkpt lat="41.853542" lon="0.49226683">
        <time>2022-07-07T09:44:37Z</time>
      </trkpt>
      <trkpt lat="41.853516" lon="0.49236614">
        <time>2022-07-07T09:44:39Z</time>
      </trkpt>
      <trkpt lat="41.85349" lon="0.49246448">
        <time>2022-07-07T09:44:41Z</time>
      </trkpt>
      <trkpt lat="41.853462" lon="0.4925538">
        <time>2022-07-07T09:44:43Z</time>
      </trkpt>
      <trkpt lat="41.853436" lon="0.49265182">
        <time>2022-07-07T09:44:45Z</time>
      </trkpt>
      <trkpt lat="41.85341" lon="0.49274582">
        <time>2022-07-07T09:44:47Z</time>
      </trkpt>
      <trkpt lat="41.853382" lon="0.49284148">
        <time>2022-07-07T09:44:49Z</time>
      </trkpt>
      <trkpt lat="41.85336" lon="0.4929388">
        <time>2022-07-07T09:44:51Z</time>
      </trkpt>
      <trkpt lat="41.853336" lon="0.4930308">
        <time>2022-07-07T09:44:53Z</time>
      </trkpt>
      <trkpt lat="41.85331" lon="0.49313045">
        <time>2022-07-07T09:44:55Z</time>
      </trkpt>
      <trkpt lat="41.853283" lon="0.49322578">
        <time>2022-07-07T09:44:57Z</time>
      </trkpt>
      <trkpt lat="41.853256" lon="0.49331513">
        <time>2022-07-07T09:44:59Z</time>
      </trkpt>
      <trkpt lat="41.853233" lon="0.49340945">
        <time>2022-07-07T09:45:01Z</time>
      </trkpt>
      <trkpt lat="41.853207" lon="0.49349946">
        <time>2022-07-07T09:45:03Z</time>
      </trkpt>
      <trkpt lat="41.853188" lon="0.4935828">
        <time>2022-07-07T09:45:05Z</time>
      </trkpt>
      <trkpt lat="41.853165" lon="0.49366644">
        <time>2022-07-07T09:45:07Z</time>
      </trkpt>
      <trkpt lat="41.853146" lon="0.49374643">
        <time>2022-07-07T09:45:09Z</time>
      </trkpt>
      <trkpt lat="41.853123" lon="0.49383345">
        <time>2022-07-07T09:45:11Z</time>
      </trkpt>
      <trkpt lat="41.8531" lon="0.4939211">
        <time>2022-07-07T09:45:13Z</time>
      </trkpt>
      <trkpt lat="41.853077" lon="0.49401176">
        <time>2022-07-07T09:45:15Z</time>
      </trkpt>
      <trkpt lat="41.85305" lon="0.4941041">
        <time>2022-07-07T09:45:17Z</time>
      </trkpt>
      <trkpt lat="41.853027" lon="0.4941901">
        <time>2022-07-07T09:45:19Z</time>
      </trkpt>
      <trkpt lat="41.853004" lon="0.49428475">
        <time>2022-07-07T09:45:21Z</time>
      </trkpt>
      <trkpt lat="41.852978" lon="0.49438575">
        <time>2022-07-07T09:45:23Z</time>
      </trkpt>
      <trkpt lat="41.85295" lon="0.49448776">
        <time>2022-07-07T09:45:25Z</time>
      </trkpt>
      <trkpt lat="41.852924" lon="0.4945924">
        <time>2022-07-07T09:45:27Z</time>
      </trkpt>
      <trkpt lat="41.8529" lon="0.49469906">
        <time>2022-07-07T09:45:29Z</time>
      </trkpt>
      <trkpt lat="41.852875" lon="0.49481374">
        <time>2022-07-07T09:45:31Z</time>
      </trkpt>
      <trkpt lat="41.852844" lon="0.49492538">
        <time>2022-07-07T09:45:33Z</time>
      </trkpt>
      <trkpt lat="41.852814" lon="0.49504006">
        <time>2022-07-07T09:45:35Z</time>
      </trkpt>
      <trkpt lat="41.85278" lon="0.49514338">
        <time>2022-07-07T09:45:37Z</time>
      </trkpt>
      <trkpt lat="41.852745" lon="0.49524504">
        <time>2022-07-07T09:45:39Z</time>
      </trkpt>
      <trkpt lat="41.852707" lon="0.4953477">
        <time>2022-07-07T09:45:41Z</time>
      </trkpt>
      <trkpt lat="41.85267" lon="0.4954517">
        <time>2022-07-07T09:45:43Z</time>
      </trkpt>
      <trkpt lat="41.852627" lon="0.49555436">
        <time>2022-07-07T09:45:45Z</time>
      </trkpt>
      <trkpt lat="41.85259" lon="0.49565837">
        <time>2022-07-07T09:45:47Z</time>
      </trkpt>
      <trkpt lat="41.85255" lon="0.49575937">
        <time>2022-07-07T09:45:49Z</time>
      </trkpt>
      <trkpt lat="41.85251" lon="0.4958587">
        <time>2022-07-07T09:45:51Z</time>
      </trkpt>
      <trkpt lat="41.852467" lon="0.49595502">
        <time>2022-07-07T09:45:53Z</time>
      </trkpt>
      <trkpt lat="41.852425" lon="0.49605203">
        <time>2022-07-07T09:45:55Z</time>
      </trkpt>
      <trkpt lat="41.852386" lon="0.49614534">
        <time>2022-07-07T09:45:57Z</time>
      </trkpt>
      <trkpt lat="41.852345" lon="0.49623567">
        <time>2022-07-07T09:45:59Z</time>
      </trkpt>
      <trkpt lat="41.8523" lon="0.49632168">
        <time>2022-07-07T09:46:01Z</time>
      </trkpt>
      <trkpt lat="41.852257" lon="0.49640635">
        <time>2022-07-07T09:46:03Z</time>
      </trkpt>
      <trkpt lat="41.85222" lon="0.496491">
        <time>2022-07-07T09:46:05Z</time>
      </trkpt>
      <trkpt lat="41.852177" lon="0.49657634">
        <time>2022-07-07T09:46:07Z</time>
      </trkpt>
      <trkpt lat="41.852135" lon="0.49665967">
        <time>2022-07-07T09:46:09Z</time>
      </trkpt>
      <trkpt lat="41.852093" lon="0.49674165">
        <time>2022-07-07T09:46:11Z</time>
      </trkpt>
      <trkpt lat="41.85205" lon="0.49682367">
        <time>2022-07-07T09:46:13Z</time>
      </trkpt>
      <trkpt lat="41.85201" lon="0.49690565">
        <time>2022-07-07T09:46:15Z</time>
      </trkpt>
      <trkpt lat="41.851967" lon="0.4969873">
        <time>2022-07-07T09:46:17Z</time>
      </trkpt>
      <trkpt lat="41.851925" lon="0.49707332">
        <time>2022-07-07T09:46:19Z</time>
      </trkpt>
      <trkpt lat="41.851883" lon="0.497165">
        <time>2022-07-07T09:46:21Z</time>
      </trkpt>
      <trkpt lat="41.851833" lon="0.4972623">
        <time>2022-07-07T09:46:23Z</time>
      </trkpt>
      <trkpt lat="41.851784" lon="0.4973593">
        <time>2022-07-07T09:46:25Z</time>
      </trkpt>
      <trkpt lat="41.851734" lon="0.49745563">
        <time>2022-07-07T09:46:27Z</time>
      </trkpt>
      <trkpt lat="41.85169" lon="0.49755764">
        <time>2022-07-07T09:46:29Z</time>
      </trkpt>
      <trkpt lat="41.851635" lon="0.49765697">
        <time>2022-07-07T09:46:31Z</time>
      </trkpt>
      <trkpt lat="41.85159" lon="0.49774963">
        <time>2022-07-07T09:46:33Z</time>
      </trkpt>
      <trkpt lat="41.851547" lon="0.49784663">
        <time>2022-07-07T09:46:35Z</time>
      </trkpt>
      <trkpt lat="41.8515" lon="0.49794763">
        <time>2022-07-07T09:46:37Z</time>
      </trkpt>
      <trkpt lat="41.85146" lon="0.49805528">
        <time>2022-07-07T09:46:39Z</time>
      </trkpt>
      <trkpt lat="41.851414" lon="0.49816594">
        <time>2022-07-07T09:46:41Z</time>
      </trkpt>
      <trkpt lat="41.85137" lon="0.49827895">
        <time>2022-07-07T09:46:43Z</time>
      </trkpt>
      <trkpt lat="41.85133" lon="0.4983926">
        <time>2022-07-07T09:46:45Z</time>
      </trkpt>
      <trkpt lat="41.851288" lon="0.4985066">
        <time>2022-07-07T09:46:47Z</time>
      </trkpt>
      <trkpt lat="41.851242" lon="0.4986226">
        <time>2022-07-07T09:46:49Z</time>
      </trkpt>
      <trkpt lat="41.851204" lon="0.49873927">
        <time>2022-07-07T09:46:51Z</time>
      </trkpt>
      <trkpt lat="41.851162" lon="0.49885494">
        <time>2022-07-07T09:46:53Z</time>
      </trkpt>
      <trkpt lat="41.851143" lon="0.49891394">
        <time>2022-07-07T09:46:54Z</time>
      </trkpt>
      <trkpt lat="41.851105" lon="0.49903226">
        <time>2022-07-07T09:46:56Z</time>
      </trkpt>
      <trkpt lat="41.85108" lon="0.4990916">
        <time>2022-07-07T09:46:57Z</time>
      </trkpt>
      <trkpt lat="41.851044" lon="0.49921024">
        <time>2022-07-07T09:46:59Z</time>
      </trkpt>
      <trkpt lat="41.851025" lon="0.49927026">
        <time>2022-07-07T09:47:00Z</time>
      </trkpt>
      <trkpt lat="41.850983" lon="0.49938926">
        <time>2022-07-07T09:47:02Z</time>
      </trkpt>
      <trkpt lat="41.850945" lon="0.49950224">
        <time>2022-07-07T09:47:04Z</time>
      </trkpt>
      <trkpt lat="41.850906" lon="0.49960926">
        <time>2022-07-07T09:47:06Z</time>
      </trkpt>
      <trkpt lat="41.850876" lon="0.4996946">
        <time>2022-07-07T09:47:08Z</time>
      </trkpt>
      <trkpt lat="41.850857" lon="0.4997486">
        <time>2022-07-07T09:47:10Z</time>
      </trkpt>
      <trkpt lat="41.85081" lon="0.49985957">
        <time>2022-07-07T09:47:43Z</time>
      </trkpt>
      <trkpt lat="41.85079" lon="0.49993092">
        <time>2022-07-07T09:47:45Z</time>
      </trkpt>
      <trkpt lat="41.850758" lon="0.5000209">
        <time>2022-07-07T09:47:47Z</time>
      </trkpt>
      <trkpt lat="41.85073" lon="0.5001139">
        <time>2022-07-07T09:47:49Z</time>
      </trkpt>
      <trkpt lat="41.850697" lon="0.5002189">
        <time>2022-07-07T09:47:51Z</time>
      </trkpt>
      <trkpt lat="41.850666" lon="0.5003169">
        <time>2022-07-07T09:47:53Z</time>
      </trkpt>
      <trkpt lat="41.85063" lon="0.5004219">
        <time>2022-07-07T09:47:55Z</time>
      </trkpt>
      <trkpt lat="41.850597" lon="0.5005242">
        <time>2022-07-07T09:47:57Z</time>
      </trkpt>
      <trkpt lat="41.850563" lon="0.5006246">
        <time>2022-07-07T09:47:59Z</time>
      </trkpt>
      <trkpt lat="41.85053" lon="0.50072557">
        <time>2022-07-07T09:48:01Z</time>
      </trkpt>
      <trkpt lat="41.850494" lon="0.5008306">
        <time>2022-07-07T09:48:03Z</time>
      </trkpt>
      <trkpt lat="41.85046" lon="0.5009339">
        <time>2022-07-07T09:48:05Z</time>
      </trkpt>
      <trkpt lat="41.85043" lon="0.50103724">
        <time>2022-07-07T09:48:07Z</time>
      </trkpt>
      <trkpt lat="41.85039" lon="0.5011382">
        <time>2022-07-07T09:48:09Z</time>
      </trkpt>
      <trkpt lat="41.850357" lon="0.50124055">
        <time>2022-07-07T09:48:11Z</time>
      </trkpt>
      <trkpt lat="41.850323" lon="0.50134456">
        <time>2022-07-07T09:48:13Z</time>
      </trkpt>
      <trkpt lat="41.85029" lon="0.5014496">
        <time>2022-07-07T09:48:15Z</time>
      </trkpt>
      <trkpt lat="41.85025" lon="0.50156224">
        <time>2022-07-07T09:48:17Z</time>
      </trkpt>
      <trkpt lat="41.85022" lon="0.50167054">
        <time>2022-07-07T09:48:19Z</time>
      </trkpt>
      <trkpt lat="41.850185" lon="0.5017742">
        <time>2022-07-07T09:48:21Z</time>
      </trkpt>
      <trkpt lat="41.850136" lon="0.50191987">
        <time>2022-07-07T09:48:24Z</time>
      </trkpt>
      <trkpt lat="41.850105" lon="0.5020222">
        <time>2022-07-07T09:48:26Z</time>
      </trkpt>
      <trkpt lat="41.850075" lon="0.5021222">
        <time>2022-07-07T09:48:28Z</time>
      </trkpt>
      <trkpt lat="41.850044" lon="0.50221956">
        <time>2022-07-07T09:48:30Z</time>
      </trkpt>
      <trkpt lat="41.85001" lon="0.50231385">
        <time>2022-07-07T09:48:32Z</time>
      </trkpt>
      <trkpt lat="41.84998" lon="0.50240684">
        <time>2022-07-07T09:48:34Z</time>
      </trkpt>
      <trkpt lat="41.84995" lon="0.50249916">
        <time>2022-07-07T09:48:36Z</time>
      </trkpt>
      <trkpt lat="41.84992" lon="0.5025925">
        <time>2022-07-07T09:48:38Z</time>
      </trkpt>
      <trkpt lat="41.849888" lon="0.50268483">
        <time>2022-07-07T09:48:40Z</time>
      </trkpt>
      <trkpt lat="41.849857" lon="0.5027792">
        <time>2022-07-07T09:48:42Z</time>
      </trkpt>
      <trkpt lat="41.84983" lon="0.5028742">
        <time>2022-07-07T09:48:44Z</time>
      </trkpt>
      <trkpt lat="41.849796" lon="0.50297415">
        <time>2022-07-07T09:48:46Z</time>
      </trkpt>
      <trkpt lat="41.849766" lon="0.50306916">
        <time>2022-07-07T09:48:48Z</time>
      </trkpt>
      <trkpt lat="41.849735" lon="0.5031615">
        <time>2022-07-07T09:48:50Z</time>
      </trkpt>
      <trkpt lat="41.8497" lon="0.50326186">
        <time>2022-07-07T09:48:52Z</time>
      </trkpt>
      <trkpt lat="41.849667" lon="0.50335884">
        <time>2022-07-07T09:48:54Z</time>
      </trkpt>
      <trkpt lat="41.849632" lon="0.50346017">
        <time>2022-07-07T09:48:56Z</time>
      </trkpt>
      <trkpt lat="41.849598" lon="0.5035615">
        <time>2022-07-07T09:48:58Z</time>
      </trkpt>
      <trkpt lat="41.84956" lon="0.5036632">
        <time>2022-07-07T09:49:00Z</time>
      </trkpt>
      <trkpt lat="41.84952" lon="0.50376314">
        <time>2022-07-07T09:49:02Z</time>
      </trkpt>
      <trkpt lat="41.84948" lon="0.5038612">
        <time>2022-07-07T09:49:04Z</time>
      </trkpt>
      <trkpt lat="41.849434" lon="0.50396216">
        <time>2022-07-07T09:49:06Z</time>
      </trkpt>
      <trkpt lat="41.849384" lon="0.50406617">
        <time>2022-07-07T09:49:08Z</time>
      </trkpt>
      <trkpt lat="41.84933" lon="0.5041715">
        <time>2022-07-07T09:49:10Z</time>
      </trkpt>
      <trkpt lat="41.849274" lon="0.50428116">
        <time>2022-07-07T09:49:12Z</time>
      </trkpt>
      <trkpt lat="41.849247" lon="0.5043362">
        <time>2022-07-07T09:49:13Z</time>
      </trkpt>
      <trkpt lat="41.849216" lon="0.50439215">
        <time>2022-07-07T09:49:14Z</time>
      </trkpt>
      <trkpt lat="41.84915" lon="0.5045048">
        <time>2022-07-07T09:49:16Z</time>
      </trkpt>
      <trkpt lat="41.849117" lon="0.50456214">
        <time>2022-07-07T09:49:17Z</time>
      </trkpt>
      <trkpt lat="41.84908" lon="0.5046191">
        <time>2022-07-07T09:49:18Z</time>
      </trkpt>
      <trkpt lat="41.849045" lon="0.5046768">
        <time>2022-07-07T09:49:19Z</time>
      </trkpt>
      <trkpt lat="41.849007" lon="0.5047328">
        <time>2022-07-07T09:49:20Z</time>
      </trkpt>
      <trkpt lat="41.84897" lon="0.5047888">
        <time>2022-07-07T09:49:21Z</time>
      </trkpt>
      <trkpt lat="41.84893" lon="0.5048448">
        <time>2022-07-07T09:49:22Z</time>
      </trkpt>
      <trkpt lat="41.84889" lon="0.5049021">
        <time>2022-07-07T09:49:23Z</time>
      </trkpt>
      <trkpt lat="41.84885" lon="0.5049555">
        <time>2022-07-07T09:49:24Z</time>
      </trkpt>
      <trkpt lat="41.84881" lon="0.5050108">
        <time>2022-07-07T09:49:25Z</time>
      </trkpt>
      <trkpt lat="41.848766" lon="0.5050684">
        <time>2022-07-07T09:49:26Z</time>
      </trkpt>
      <trkpt lat="41.84868" lon="0.5051881">
        <time>2022-07-07T09:49:28Z</time>
      </trkpt>
      <trkpt lat="41.84863" lon="0.50525045">
        <time>2022-07-07T09:49:29Z</time>
      </trkpt>
      <trkpt lat="41.84858" lon="0.50531244">
        <time>2022-07-07T09:49:30Z</time>
      </trkpt>
      <trkpt lat="41.848534" lon="0.50537443">
        <time>2022-07-07T09:49:31Z</time>
      </trkpt>
      <trkpt lat="41.848484" lon="0.5054361">
        <time>2022-07-07T09:49:32Z</time>
      </trkpt>
      <trkpt lat="41.848434" lon="0.5055011">
        <time>2022-07-07T09:49:33Z</time>
      </trkpt>
      <trkpt lat="41.848385" lon="0.5055681">
        <time>2022-07-07T09:49:34Z</time>
      </trkpt>
      <trkpt lat="41.848335" lon="0.5056348">
        <time>2022-07-07T09:49:35Z</time>
      </trkpt>
      <trkpt lat="41.848286" lon="0.50570244">
        <time>2022-07-07T09:49:36Z</time>
      </trkpt>
      <trkpt lat="41.84824" lon="0.50577044">
        <time>2022-07-07T09:49:37Z</time>
      </trkpt>
      <trkpt lat="41.84819" lon="0.5058411">
        <time>2022-07-07T09:49:38Z</time>
      </trkpt>
      <trkpt lat="41.84814" lon="0.50591344">
        <time>2022-07-07T09:49:39Z</time>
      </trkpt>
      <trkpt lat="41.84809" lon="0.5059864">
        <time>2022-07-07T09:49:40Z</time>
      </trkpt>
      <trkpt lat="41.84804" lon="0.50606775">
        <time>2022-07-07T09:49:41Z</time>
      </trkpt>
      <trkpt lat="41.847996" lon="0.5061444">
        <time>2022-07-07T09:49:42Z</time>
      </trkpt>
      <trkpt lat="41.84795" lon="0.5062224">
        <time>2022-07-07T09:49:43Z</time>
      </trkpt>
      <trkpt lat="41.847908" lon="0.50630075">
        <time>2022-07-07T09:49:44Z</time>
      </trkpt>
      <trkpt lat="41.847866" lon="0.5063814">
        <time>2022-07-07T09:49:45Z</time>
      </trkpt>
      <trkpt lat="41.84782" lon="0.50646436">
        <time>2022-07-07T09:49:46Z</time>
      </trkpt>
      <trkpt lat="41.84778" lon="0.5065474">
        <time>2022-07-07T09:49:47Z</time>
      </trkpt>
      <trkpt lat="41.84774" lon="0.5066324">
        <time>2022-07-07T09:49:48Z</time>
      </trkpt>
      <trkpt lat="41.847702" lon="0.5067187">
        <time>2022-07-07T09:49:49Z</time>
      </trkpt>
      <trkpt lat="41.847664" lon="0.506807">
        <time>2022-07-07T09:49:50Z</time>
      </trkpt>
      <trkpt lat="41.847626" lon="0.5068974">
        <time>2022-07-07T09:49:51Z</time>
      </trkpt>
      <trkpt lat="41.847588" lon="0.50698936">
        <time>2022-07-07T09:49:52Z</time>
      </trkpt>
      <trkpt lat="41.847553" lon="0.507089">
        <time>2022-07-07T09:49:53Z</time>
      </trkpt>
      <trkpt lat="41.847515" lon="0.507188">
        <time>2022-07-07T09:49:54Z</time>
      </trkpt>
      <trkpt lat="41.84748" lon="0.507287">
        <time>2022-07-07T09:49:55Z</time>
      </trkpt>
      <trkpt lat="41.84745" lon="0.5073867">
        <time>2022-07-07T09:49:56Z</time>
      </trkpt>
      <trkpt lat="41.84742" lon="0.50748605">
        <time>2022-07-07T09:49:57Z</time>
      </trkpt>
      <trkpt lat="41.84739" lon="0.50758505">
        <time>2022-07-07T09:49:58Z</time>
      </trkpt>
      <trkpt lat="41.847363" lon="0.5076774">
        <time>2022-07-07T09:49:59Z</time>
      </trkpt>
      <trkpt lat="41.847336" lon="0.5077714">
        <time>2022-07-07T09:50:00Z</time>
      </trkpt>
      <trkpt lat="41.84731" lon="0.50786704">
        <time>2022-07-07T09:50:01Z</time>
      </trkpt>
      <trkpt lat="41.847286" lon="0.507963">
        <time>2022-07-07T09:50:02Z</time>
      </trkpt>
      <trkpt lat="41.84726" lon="0.50805867">
        <time>2022-07-07T09:50:03Z</time>
      </trkpt>
      <trkpt lat="41.847233" lon="0.50815433">
        <time>2022-07-07T09:50:04Z</time>
      </trkpt>
      <trkpt lat="41.84721" lon="0.50824964">
        <time>2022-07-07T09:50:05Z</time>
      </trkpt>
      <trkpt lat="41.847187" lon="0.5083437">
        <time>2022-07-07T09:50:06Z</time>
      </trkpt>
      <trkpt lat="41.84716" lon="0.5084363">
        <time>2022-07-07T09:50:07Z</time>
      </trkpt>
      <trkpt lat="41.847137" lon="0.50852734">
        <time>2022-07-07T09:50:08Z</time>
      </trkpt>
      <trkpt lat="41.847115" lon="0.50861764">
        <time>2022-07-07T09:50:09Z</time>
      </trkpt>
      <trkpt lat="41.847095" lon="0.5087057">
        <time>2022-07-07T09:50:10Z</time>
      </trkpt>
      <trkpt lat="41.847073" lon="0.50879264">
        <time>2022-07-07T09:50:11Z</time>
      </trkpt>
      <trkpt lat="41.847054" lon="0.50887966">
        <time>2022-07-07T09:50:12Z</time>
      </trkpt>
      <trkpt lat="41.847034" lon="0.5089667">
        <time>2022-07-07T09:50:13Z</time>
      </trkpt>
      <trkpt lat="41.847015" lon="0.5090517">
        <time>2022-07-07T09:50:14Z</time>
      </trkpt>
      <trkpt lat="41.846996" lon="0.50913566">
        <time>2022-07-07T09:50:15Z</time>
      </trkpt>
      <trkpt lat="41.846973" lon="0.50921834">
        <time>2022-07-07T09:50:16Z</time>
      </trkpt>
      <trkpt lat="41.846954" lon="0.50929964">
        <time>2022-07-07T09:50:17Z</time>
      </trkpt>
      <trkpt lat="41.846935" lon="0.5093803">
        <time>2022-07-07T09:50:18Z</time>
      </trkpt>
      <trkpt lat="41.846912" lon="0.509461">
        <time>2022-07-07T09:50:19Z</time>
      </trkpt>
      <trkpt lat="41.846893" lon="0.509541">
        <time>2022-07-07T09:50:20Z</time>
      </trkpt>
      <trkpt lat="41.846874" lon="0.5096203">
        <time>2022-07-07T09:50:21Z</time>
      </trkpt>
      <trkpt lat="41.846855" lon="0.509698">
        <time>2022-07-07T09:50:22Z</time>
      </trkpt>
      <trkpt lat="41.846836" lon="0.5097746">
        <time>2022-07-07T09:50:23Z</time>
      </trkpt>
      <trkpt lat="41.846817" lon="0.50984997">
        <time>2022-07-07T09:50:24Z</time>
      </trkpt>
      <trkpt lat="41.846798" lon="0.5099253">
        <time>2022-07-07T09:50:25Z</time>
      </trkpt>
      <trkpt lat="41.84678" lon="0.5100003">
        <time>2022-07-07T09:50:26Z</time>
      </trkpt>
      <trkpt lat="41.846764" lon="0.5100799">
        <time>2022-07-07T09:50:27Z</time>
      </trkpt>
      <trkpt lat="41.846745" lon="0.5101569">
        <time>2022-07-07T09:50:28Z</time>
      </trkpt>
      <trkpt lat="41.84673" lon="0.5102319">
        <time>2022-07-07T09:50:29Z</time>
      </trkpt>
      <trkpt lat="41.84671" lon="0.5103056">
        <time>2022-07-07T09:50:30Z</time>
      </trkpt>
      <trkpt lat="41.846695" lon="0.51037824">
        <time>2022-07-07T09:50:31Z</time>
      </trkpt>
      <trkpt lat="41.846676" lon="0.5104509">
        <time>2022-07-07T09:50:32Z</time>
      </trkpt>
      <trkpt lat="41.846657" lon="0.5105226">
        <time>2022-07-07T09:50:33Z</time>
      </trkpt>
      <trkpt lat="41.846626" lon="0.5106589">
        <time>2022-07-07T09:50:35Z</time>
      </trkpt>
      <trkpt lat="41.846607" lon="0.51072955">
        <time>2022-07-07T09:50:36Z</time>
      </trkpt>
      <trkpt lat="41.84659" lon="0.5107996">
        <time>2022-07-07T09:50:37Z</time>
      </trkpt>
      <trkpt lat="41.846573" lon="0.51086825">
        <time>2022-07-07T09:50:38Z</time>
      </trkpt>
      <trkpt lat="41.846558" lon="0.5109359">
        <time>2022-07-07T09:50:39Z</time>
      </trkpt>
      <trkpt lat="41.846542" lon="0.51100355">
        <time>2022-07-07T09:50:40Z</time>
      </trkpt>
      <trkpt lat="41.846527" lon="0.51106685">
        <time>2022-07-07T09:50:41Z</time>
      </trkpt>
      <trkpt lat="41.846497" lon="0.51120186">
        <time>2022-07-07T09:50:43Z</time>
      </trkpt>
      <trkpt lat="41.84648" lon="0.5112659">
        <time>2022-07-07T09:50:44Z</time>
      </trkpt>
      <trkpt lat="41.846466" lon="0.51132953">
        <time>2022-07-07T09:50:45Z</time>
      </trkpt>
      <trkpt lat="41.846436" lon="0.51145256">
        <time>2022-07-07T09:50:47Z</time>
      </trkpt>
      <trkpt lat="41.846405" lon="0.5115712">
        <time>2022-07-07T09:50:49Z</time>
      </trkpt>
      <trkpt lat="41.84638" lon="0.51168156">
        <time>2022-07-07T09:50:51Z</time>
      </trkpt>
      <trkpt lat="41.846355" lon="0.5117865">
        <time>2022-07-07T09:50:53Z</time>
      </trkpt>
      <trkpt lat="41.84633" lon="0.5118859">
        <time>2022-07-07T09:50:55Z</time>
      </trkpt>
      <trkpt lat="41.846302" lon="0.5119832">
        <time>2022-07-07T09:50:57Z</time>
      </trkpt>
      <trkpt lat="41.846275" lon="0.5120829">
        <time>2022-07-07T09:50:59Z</time>
      </trkpt>
      <trkpt lat="41.84625" lon="0.51218385">
        <time>2022-07-07T09:51:01Z</time>
      </trkpt>
      <trkpt lat="41.846226" lon="0.51228684">
        <time>2022-07-07T09:51:03Z</time>
      </trkpt>
      <trkpt lat="41.846203" lon="0.5123932">
        <time>2022-07-07T09:51:05Z</time>
      </trkpt>
      <trkpt lat="41.84618" lon="0.5124982">
        <time>2022-07-07T09:51:07Z</time>
      </trkpt>
      <trkpt lat="41.846157" lon="0.5126038">
        <time>2022-07-07T09:51:09Z</time>
      </trkpt>
      <trkpt lat="41.84613" lon="0.51270586">
        <time>2022-07-07T09:51:11Z</time>
      </trkpt>
      <trkpt lat="41.846104" lon="0.5128085">
        <time>2022-07-07T09:51:13Z</time>
      </trkpt>
      <trkpt lat="41.84608" lon="0.51291114">
        <time>2022-07-07T09:51:15Z</time>
      </trkpt>
      <trkpt lat="41.846058" lon="0.5130135">
        <time>2022-07-07T09:51:17Z</time>
      </trkpt>
      <trkpt lat="41.84603" lon="0.5131188">
        <time>2022-07-07T09:51:19Z</time>
      </trkpt>
      <trkpt lat="41.84601" lon="0.5132258">
        <time>2022-07-07T09:51:21Z</time>
      </trkpt>
      <trkpt lat="41.84598" lon="0.51333314">
        <time>2022-07-07T09:51:23Z</time>
      </trkpt>
      <trkpt lat="41.84596" lon="0.5134441">
        <time>2022-07-07T09:51:25Z</time>
      </trkpt>
      <trkpt lat="41.845932" lon="0.5135575">
        <time>2022-07-07T09:51:27Z</time>
      </trkpt>
      <trkpt lat="41.845905" lon="0.5136771">
        <time>2022-07-07T09:51:29Z</time>
      </trkpt>
      <trkpt lat="41.845875" lon="0.51380414">
        <time>2022-07-07T09:51:31Z</time>
      </trkpt>
      <trkpt lat="41.845863" lon="0.5138628">
        <time>2022-07-07T09:51:32Z</time>
      </trkpt>
      <trkpt lat="41.845837" lon="0.5139871">
        <time>2022-07-07T09:51:34Z</time>
      </trkpt>
      <trkpt lat="41.84582" lon="0.51404977">
        <time>2022-07-07T09:51:35Z</time>
      </trkpt>
      <trkpt lat="41.84579" lon="0.5141728">
        <time>2022-07-07T09:51:37Z</time>
      </trkpt>
      <trkpt lat="41.845745" lon="0.51435643">
        <time>2022-07-07T09:51:40Z</time>
      </trkpt>
      <trkpt lat="41.84572" lon="0.5144811">
        <time>2022-07-07T09:51:42Z</time>
      </trkpt>
      <trkpt lat="41.845703" lon="0.51453775">
        <time>2022-07-07T09:51:43Z</time>
      </trkpt>
      <trkpt lat="41.845676" lon="0.5146611">
        <time>2022-07-07T09:51:45Z</time>
      </trkpt>
      <trkpt lat="41.84566" lon="0.51472276">
        <time>2022-07-07T09:51:46Z</time>
      </trkpt>
      <trkpt lat="41.845634" lon="0.51484376">
        <time>2022-07-07T09:51:48Z</time>
      </trkpt>
      <trkpt lat="41.845604" lon="0.5149641">
        <time>2022-07-07T09:51:50Z</time>
      </trkpt>
      <trkpt lat="41.845577" lon="0.5150854">
        <time>2022-07-07T09:51:52Z</time>
      </trkpt>
      <trkpt lat="41.84555" lon="0.51520675">
        <time>2022-07-07T09:51:54Z</time>
      </trkpt>
      <trkpt lat="41.845535" lon="0.5152694">
        <time>2022-07-07T09:51:55Z</time>
      </trkpt>
      <trkpt lat="41.84551" lon="0.5153944">
        <time>2022-07-07T09:51:57Z</time>
      </trkpt>
      <trkpt lat="41.84548" lon="0.5155141">
        <time>2022-07-07T09:51:59Z</time>
      </trkpt>
      <trkpt lat="41.845448" lon="0.5156384">
        <time>2022-07-07T09:52:01Z</time>
      </trkpt>
      <trkpt lat="41.84542" lon="0.5157571">
        <time>2022-07-07T09:52:03Z</time>
      </trkpt>
      <trkpt lat="41.84539" lon="0.5158784">
        <time>2022-07-07T09:52:05Z</time>
      </trkpt>
      <trkpt lat="41.845364" lon="0.5159977">
        <time>2022-07-07T09:52:07Z</time>
      </trkpt>
      <trkpt lat="41.845337" lon="0.5161134">
        <time>2022-07-07T09:52:09Z</time>
      </trkpt>
      <trkpt lat="41.845306" lon="0.51623505">
        <time>2022-07-07T09:52:11Z</time>
      </trkpt>
      <trkpt lat="41.84528" lon="0.51635605">
        <time>2022-07-07T09:52:13Z</time>
      </trkpt>
      <trkpt lat="41.845253" lon="0.5164787">
        <time>2022-07-07T09:52:15Z</time>
      </trkpt>
      <trkpt lat="41.845234" lon="0.51653934">
        <time>2022-07-07T09:52:16Z</time>
      </trkpt>
      <trkpt lat="41.84521" lon="0.516662">
        <time>2022-07-07T09:52:18Z</time>
      </trkpt>
      <trkpt lat="41.845196" lon="0.5167223">
        <time>2022-07-07T09:52:19Z</time>
      </trkpt>
      <trkpt lat="41.84517" lon="0.5168407">
        <time>2022-07-07T09:52:21Z</time>
      </trkpt>
      <trkpt lat="41.845142" lon="0.516953">
        <time>2022-07-07T09:52:23Z</time>
      </trkpt>
      <trkpt lat="41.845116" lon="0.5170683">
        <time>2022-07-07T09:52:25Z</time>
      </trkpt>
      <trkpt lat="41.845085" lon="0.51718235">
        <time>2022-07-07T09:52:27Z</time>
      </trkpt>
      <trkpt lat="41.84506" lon="0.517301">
        <time>2022-07-07T09:52:29Z</time>
      </trkpt>
      <trkpt lat="41.845028" lon="0.51741636">
        <time>2022-07-07T09:52:31Z</time>
      </trkpt>
      <trkpt lat="41.845" lon="0.5175267">
        <time>2022-07-07T09:52:33Z</time>
      </trkpt>
      <trkpt lat="41.844975" lon="0.51764065">
        <time>2022-07-07T09:52:35Z</time>
      </trkpt>
      <trkpt lat="41.844948" lon="0.51775265">
        <time>2022-07-07T09:52:37Z</time>
      </trkpt>
      <trkpt lat="41.84492" lon="0.51786363">
        <time>2022-07-07T09:52:39Z</time>
      </trkpt>
      <trkpt lat="41.8449" lon="0.5179743">
        <time>2022-07-07T09:52:41Z</time>
      </trkpt>
      <trkpt lat="41.84487" lon="0.518084">
        <time>2022-07-07T09:52:43Z</time>
      </trkpt>
      <trkpt lat="41.844845" lon="0.518192">
        <time>2022-07-07T09:52:45Z</time>
      </trkpt>
      <trkpt lat="41.84482" lon="0.5183026">
        <time>2022-07-07T09:52:47Z</time>
      </trkpt>
      <trkpt lat="41.84479" lon="0.5184143">
        <time>2022-07-07T09:52:49Z</time>
      </trkpt>
      <trkpt lat="41.844765" lon="0.5185256">
        <time>2022-07-07T09:52:51Z</time>
      </trkpt>
      <trkpt lat="41.844738" lon="0.51863563">
        <time>2022-07-07T09:52:53Z</time>
      </trkpt>
      <trkpt lat="41.844707" lon="0.5187476">
        <time>2022-07-07T09:52:55Z</time>
      </trkpt>
      <trkpt lat="41.844677" lon="0.5188626">
        <time>2022-07-07T09:52:57Z</time>
      </trkpt>
      <trkpt lat="41.84466" lon="0.51892096">
        <time>2022-07-07T09:52:58Z</time>
      </trkpt>
      <trkpt lat="41.84463" lon="0.519039">
        <time>2022-07-07T09:53:00Z</time>
      </trkpt>
      <trkpt lat="41.8446" lon="0.5191573">
        <time>2022-07-07T09:53:02Z</time>
      </trkpt>
      <trkpt lat="41.84457" lon="0.5192773">
        <time>2022-07-07T09:53:04Z</time>
      </trkpt>
      <trkpt lat="41.84454" lon="0.5194026">
        <time>2022-07-07T09:53:06Z</time>
      </trkpt>
      <trkpt lat="41.844524" lon="0.5194659">
        <time>2022-07-07T09:53:07Z</time>
      </trkpt>
      <trkpt lat="41.844505" lon="0.5195293">
        <time>2022-07-07T09:53:08Z</time>
      </trkpt>
      <trkpt lat="41.844475" lon="0.51965797">
        <time>2022-07-07T09:53:10Z</time>
      </trkpt>
      <trkpt lat="41.84444" lon="0.5197906">
        <time>2022-07-07T09:53:12Z</time>
      </trkpt>
      <trkpt lat="41.84442" lon="0.51985896">
        <time>2022-07-07T09:53:13Z</time>
      </trkpt>
      <trkpt lat="41.844402" lon="0.5199286">
        <time>2022-07-07T09:53:14Z</time>
      </trkpt>
      <trkpt lat="41.844387" lon="0.5199976">
        <time>2022-07-07T09:53:15Z</time>
      </trkpt>
      <trkpt lat="41.844368" lon="0.5200686">
        <time>2022-07-07T09:53:16Z</time>
      </trkpt>
      <trkpt lat="41.84435" lon="0.52013993">
        <time>2022-07-07T09:53:17Z</time>
      </trkpt>
      <trkpt lat="41.844334" lon="0.52021223">
        <time>2022-07-07T09:53:18Z</time>
      </trkpt>
      <trkpt lat="41.84432" lon="0.5202856">
        <time>2022-07-07T09:53:19Z</time>
      </trkpt>
      <trkpt lat="41.8443" lon="0.5203642">
        <time>2022-07-07T09:53:20Z</time>
      </trkpt>
      <trkpt lat="41.844284" lon="0.5204362">
        <time>2022-07-07T09:53:21Z</time>
      </trkpt>
      <trkpt lat="41.84427" lon="0.5205079">
        <time>2022-07-07T09:53:22Z</time>
      </trkpt>
      <trkpt lat="41.84425" lon="0.5205782">
        <time>2022-07-07T09:53:23Z</time>
      </trkpt>
      <trkpt lat="41.84423" lon="0.52064955">
        <time>2022-07-07T09:53:24Z</time>
      </trkpt>
      <trkpt lat="41.84421" lon="0.5207209">
        <time>2022-07-07T09:53:25Z</time>
      </trkpt>
      <trkpt lat="41.844196" lon="0.52079254">
        <time>2022-07-07T09:53:26Z</time>
      </trkpt>
      <trkpt lat="41.844177" lon="0.52086353">
        <time>2022-07-07T09:53:27Z</time>
      </trkpt>
      <trkpt lat="41.84416" lon="0.52093357">
        <time>2022-07-07T09:53:28Z</time>
      </trkpt>
      <trkpt lat="41.84414" lon="0.5210032">
        <time>2022-07-07T09:53:29Z</time>
      </trkpt>
      <trkpt lat="41.84412" lon="0.5210712">
        <time>2022-07-07T09:53:30Z</time>
      </trkpt>
      <trkpt lat="41.844105" lon="0.5211382">
        <time>2022-07-07T09:53:31Z</time>
      </trkpt>
      <trkpt lat="41.844086" lon="0.52120584">
        <time>2022-07-07T09:53:32Z</time>
      </trkpt>
      <trkpt lat="41.844067" lon="0.5212729">
        <time>2022-07-07T09:53:33Z</time>
      </trkpt>
      <trkpt lat="41.844048" lon="0.5213399">
        <time>2022-07-07T09:53:34Z</time>
      </trkpt>
      <trkpt lat="41.844032" lon="0.5214059">
        <time>2022-07-07T09:53:35Z</time>
      </trkpt>
      <trkpt lat="41.844013" lon="0.52147084">
        <time>2022-07-07T09:53:36Z</time>
      </trkpt>
      <trkpt lat="41.84398" lon="0.5215989">
        <time>2022-07-07T09:53:38Z</time>
      </trkpt>
      <trkpt lat="41.843964" lon="0.5216612">
        <time>2022-07-07T09:53:39Z</time>
      </trkpt>
      <trkpt lat="41.843937" lon="0.52178687">
        <time>2022-07-07T09:53:41Z</time>
      </trkpt>
      <trkpt lat="41.84392" lon="0.5218482">
        <time>2022-07-07T09:53:42Z</time>
      </trkpt>
      <trkpt lat="41.84389" lon="0.5219678">
        <time>2022-07-07T09:53:44Z</time>
      </trkpt>
      <trkpt lat="41.843857" lon="0.5220825">
        <time>2022-07-07T09:53:46Z</time>
      </trkpt>
      <trkpt lat="41.843826" lon="0.5221968">
        <time>2022-07-07T09:53:48Z</time>
      </trkpt>
      <trkpt lat="41.843803" lon="0.5223145">
        <time>2022-07-07T09:53:50Z</time>
      </trkpt>
      <trkpt lat="41.843777" lon="0.5224385">
        <time>2022-07-07T09:53:52Z</time>
      </trkpt>
      <trkpt lat="41.84376" lon="0.52250314">
        <time>2022-07-07T09:53:53Z</time>
      </trkpt>
      <trkpt lat="41.84375" lon="0.52256846">
        <time>2022-07-07T09:53:54Z</time>
      </trkpt>
      <trkpt lat="41.843723" lon="0.5226968">
        <time>2022-07-07T09:53:56Z</time>
      </trkpt>
      <trkpt lat="41.843697" lon="0.52282614">
        <time>2022-07-07T09:53:58Z</time>
      </trkpt>
      <trkpt lat="41.843666" lon="0.5229555">
        <time>2022-07-07T09:54:00Z</time>
      </trkpt>
      <trkpt lat="41.84365" lon="0.5230195">
        <time>2022-07-07T09:54:01Z</time>
      </trkpt>
      <trkpt lat="41.84362" lon="0.5231455">
        <time>2022-07-07T09:54:03Z</time>
      </trkpt>
      <trkpt lat="41.843594" lon="0.5232708">
        <time>2022-07-07T09:54:05Z</time>
      </trkpt>
      <trkpt lat="41.843567" lon="0.5233938">
        <time>2022-07-07T09:54:07Z</time>
      </trkpt>
      <trkpt lat="41.84355" lon="0.52345383">
        <time>2022-07-07T09:54:08Z</time>
      </trkpt>
      <trkpt lat="41.843525" lon="0.52357316">
        <time>2022-07-07T09:54:10Z</time>
      </trkpt>
      <trkpt lat="41.843494" lon="0.5236911">
        <time>2022-07-07T09:54:12Z</time>
      </trkpt>
      <trkpt lat="41.843464" lon="0.5238078">
        <time>2022-07-07T09:54:14Z</time>
      </trkpt>
      <trkpt lat="41.843437" lon="0.5239258">
        <time>2022-07-07T09:54:16Z</time>
      </trkpt>
      <trkpt lat="41.843407" lon="0.52404845">
        <time>2022-07-07T09:54:18Z</time>
      </trkpt>
      <trkpt lat="41.843395" lon="0.5241131">
        <time>2022-07-07T09:54:19Z</time>
      </trkpt>
      <trkpt lat="41.843365" lon="0.52424675">
        <time>2022-07-07T09:54:21Z</time>
      </trkpt>
      <trkpt lat="41.84335" lon="0.52431643">
        <time>2022-07-07T09:54:22Z</time>
      </trkpt>
      <trkpt lat="41.843334" lon="0.5243878">
        <time>2022-07-07T09:54:23Z</time>
      </trkpt>
      <trkpt lat="41.84332" lon="0.5244601">
        <time>2022-07-07T09:54:24Z</time>
      </trkpt>
      <trkpt lat="41.8433" lon="0.52453476">
        <time>2022-07-07T09:54:25Z</time>
      </trkpt>
      <trkpt lat="41.843285" lon="0.52460974">
        <time>2022-07-07T09:54:26Z</time>
      </trkpt>
      <trkpt lat="41.843266" lon="0.52468675">
        <time>2022-07-07T09:54:27Z</time>
      </trkpt>
      <trkpt lat="41.84325" lon="0.5247644">
        <time>2022-07-07T09:54:28Z</time>
      </trkpt>
      <trkpt lat="41.843227" lon="0.5248431">
        <time>2022-07-07T09:54:29Z</time>
      </trkpt>
      <trkpt lat="41.84321" lon="0.5249231">
        <time>2022-07-07T09:54:30Z</time>
      </trkpt>
      <trkpt lat="41.84319" lon="0.52500474">
        <time>2022-07-07T09:54:31Z</time>
      </trkpt>
      <trkpt lat="41.843166" lon="0.5250887">
        <time>2022-07-07T09:54:32Z</time>
      </trkpt>
      <trkpt lat="41.843147" lon="0.5251741">
        <time>2022-07-07T09:54:33Z</time>
      </trkpt>
      <trkpt lat="41.843124" lon="0.52526075">
        <time>2022-07-07T09:54:34Z</time>
      </trkpt>
      <trkpt lat="41.843105" lon="0.5253494">
        <time>2022-07-07T09:54:35Z</time>
      </trkpt>
      <trkpt lat="41.843082" lon="0.52543974">
        <time>2022-07-07T09:54:36Z</time>
      </trkpt>
      <trkpt lat="41.84306" lon="0.525533">
        <time>2022-07-07T09:54:37Z</time>
      </trkpt>
      <trkpt lat="41.843037" lon="0.5256267">
        <time>2022-07-07T09:54:38Z</time>
      </trkpt>
      <trkpt lat="41.843014" lon="0.525722">
        <time>2022-07-07T09:54:39Z</time>
      </trkpt>
      <trkpt lat="41.84299" lon="0.5258187">
        <time>2022-07-07T09:54:40Z</time>
      </trkpt>
      <trkpt lat="41.842968" lon="0.52591604">
        <time>2022-07-07T09:54:41Z</time>
      </trkpt>
      <trkpt lat="41.842945" lon="0.526013">
        <time>2022-07-07T09:54:42Z</time>
      </trkpt>
      <trkpt lat="41.842922" lon="0.5261107">
        <time>2022-07-07T09:54:43Z</time>
      </trkpt>
      <trkpt lat="41.8429" lon="0.52620804">
        <time>2022-07-07T09:54:44Z</time>
      </trkpt>
      <trkpt lat="41.84288" lon="0.526305">
        <time>2022-07-07T09:54:45Z</time>
      </trkpt>
      <trkpt lat="41.842857" lon="0.52640235">
        <time>2022-07-07T09:54:46Z</time>
      </trkpt>
      <trkpt lat="41.842834" lon="0.52649736">
        <time>2022-07-07T09:54:47Z</time>
      </trkpt>
      <trkpt lat="41.842793" lon="0.5266847">
        <time>2022-07-07T09:54:49Z</time>
      </trkpt>
      <trkpt lat="41.84277" lon="0.5267767">
        <time>2022-07-07T09:54:50Z</time>
      </trkpt>
      <trkpt lat="41.84275" lon="0.526868">
        <time>2022-07-07T09:54:51Z</time>
      </trkpt>
      <trkpt lat="41.84273" lon="0.52695864">
        <time>2022-07-07T09:54:52Z</time>
      </trkpt>
      <trkpt lat="41.84271" lon="0.52704865">
        <time>2022-07-07T09:54:53Z</time>
      </trkpt>
      <trkpt lat="41.84269" lon="0.52713734">
        <time>2022-07-07T09:54:54Z</time>
      </trkpt>
      <trkpt lat="41.842667" lon="0.52722466">
        <time>2022-07-07T09:54:55Z</time>
      </trkpt>
      <trkpt lat="41.842648" lon="0.52730966">
        <time>2022-07-07T09:54:56Z</time>
      </trkpt>
      <trkpt lat="41.84263" lon="0.5273923">
        <time>2022-07-07T09:54:57Z</time>
      </trkpt>
      <trkpt lat="41.84261" lon="0.5274736">
        <time>2022-07-07T09:54:58Z</time>
      </trkpt>
      <trkpt lat="41.84259" lon="0.52755463">
        <time>2022-07-07T09:54:59Z</time>
      </trkpt>
      <trkpt lat="41.84257" lon="0.52763534">
        <time>2022-07-07T09:55:00Z</time>
      </trkpt>
      <trkpt lat="41.842552" lon="0.52771634">
        <time>2022-07-07T09:55:01Z</time>
      </trkpt>
      <trkpt lat="41.842533" lon="0.5277973">
        <time>2022-07-07T09:55:02Z</time>
      </trkpt>
      <trkpt lat="41.842514" lon="0.5278783">
        <time>2022-07-07T09:55:03Z</time>
      </trkpt>
      <trkpt lat="41.8425" lon="0.5279576">
        <time>2022-07-07T09:55:04Z</time>
      </trkpt>
      <trkpt lat="41.84248" lon="0.52804">
        <time>2022-07-07T09:55:05Z</time>
      </trkpt>
      <trkpt lat="41.842464" lon="0.5281146">
        <time>2022-07-07T09:55:06Z</time>
      </trkpt>
      <trkpt lat="41.842445" lon="0.52818865">
        <time>2022-07-07T09:55:07Z</time>
      </trkpt>
      <trkpt lat="41.84243" lon="0.52826196">
        <time>2022-07-07T09:55:08Z</time>
      </trkpt>
      <trkpt lat="41.84241" lon="0.52833563">
        <time>2022-07-07T09:55:09Z</time>
      </trkpt>
      <trkpt lat="41.842392" lon="0.5284093">
        <time>2022-07-07T09:55:10Z</time>
      </trkpt>
      <trkpt lat="41.842377" lon="0.5284836">
        <time>2022-07-07T09:55:11Z</time>
      </trkpt>
      <trkpt lat="41.842358" lon="0.5285563">
        <time>2022-07-07T09:55:12Z</time>
      </trkpt>
      <trkpt lat="41.84234" lon="0.5286276">
        <time>2022-07-07T09:55:13Z</time>
      </trkpt>
      <trkpt lat="41.842323" lon="0.5286989">
        <time>2022-07-07T09:55:14Z</time>
      </trkpt>
      <trkpt lat="41.842304" lon="0.52877724">
        <time>2022-07-07T09:55:15Z</time>
      </trkpt>
      <trkpt lat="41.84229" lon="0.5288469">
        <time>2022-07-07T09:55:16Z</time>
      </trkpt>
      <trkpt lat="41.842274" lon="0.52892023">
        <time>2022-07-07T09:55:17Z</time>
      </trkpt>
      <trkpt lat="41.842255" lon="0.52899456">
        <time>2022-07-07T09:55:18Z</time>
      </trkpt>
      <trkpt lat="41.84224" lon="0.5290709">
        <time>2022-07-07T09:55:19Z</time>
      </trkpt>
      <trkpt lat="41.84222" lon="0.52914727">
        <time>2022-07-07T09:55:20Z</time>
      </trkpt>
      <trkpt lat="41.8422" lon="0.5292249">
        <time>2022-07-07T09:55:21Z</time>
      </trkpt>
      <trkpt lat="41.842186" lon="0.52930355">
        <time>2022-07-07T09:55:22Z</time>
      </trkpt>
      <trkpt lat="41.842167" lon="0.5293829">
        <time>2022-07-07T09:55:23Z</time>
      </trkpt>
      <trkpt lat="41.842148" lon="0.5294626">
        <time>2022-07-07T09:55:24Z</time>
      </trkpt>
      <trkpt lat="41.84213" lon="0.5295432">
        <time>2022-07-07T09:55:25Z</time>
      </trkpt>
      <trkpt lat="41.842113" lon="0.52962524">
        <time>2022-07-07T09:55:26Z</time>
      </trkpt>
      <trkpt lat="41.84209" lon="0.5297069">
        <time>2022-07-07T09:55:27Z</time>
      </trkpt>
      <trkpt lat="41.84207" lon="0.52978885">
        <time>2022-07-07T09:55:28Z</time>
      </trkpt>
      <trkpt lat="41.842052" lon="0.52987254">
        <time>2022-07-07T09:55:29Z</time>
      </trkpt>
      <trkpt lat="41.842033" lon="0.52995586">
        <time>2022-07-07T09:55:30Z</time>
      </trkpt>
      <trkpt lat="41.842014" lon="0.5300392">
        <time>2022-07-07T09:55:31Z</time>
      </trkpt>
      <trkpt lat="41.841995" lon="0.5301232">
        <time>2022-07-07T09:55:32Z</time>
      </trkpt>
      <trkpt lat="41.841972" lon="0.5302075">
        <time>2022-07-07T09:55:33Z</time>
      </trkpt>
      <trkpt lat="41.841953" lon="0.5302925">
        <time>2022-07-07T09:55:34Z</time>
      </trkpt>
      <trkpt lat="41.84193" lon="0.53037816">
        <time>2022-07-07T09:55:35Z</time>
      </trkpt>
      <trkpt lat="41.841908" lon="0.5304642">
        <time>2022-07-07T09:55:36Z</time>
      </trkpt>
      <trkpt lat="41.841885" lon="0.53055084">
        <time>2022-07-07T09:55:37Z</time>
      </trkpt>
      <trkpt lat="41.841866" lon="0.5306388">
        <time>2022-07-07T09:55:38Z</time>
      </trkpt>
      <trkpt lat="41.841843" lon="0.53072715">
        <time>2022-07-07T09:55:39Z</time>
      </trkpt>
      <trkpt lat="41.841824" lon="0.53081685">
        <time>2022-07-07T09:55:40Z</time>
      </trkpt>
      <trkpt lat="41.8418" lon="0.53090715">
        <time>2022-07-07T09:55:41Z</time>
      </trkpt>
      <trkpt lat="41.84178" lon="0.5309978">
        <time>2022-07-07T09:55:42Z</time>
      </trkpt>
      <trkpt lat="41.84176" lon="0.5310882">
        <time>2022-07-07T09:55:43Z</time>
      </trkpt>
      <trkpt lat="41.84174" lon="0.5311782">
        <time>2022-07-07T09:55:44Z</time>
      </trkpt>
      <trkpt lat="41.841717" lon="0.5312668">
        <time>2022-07-07T09:55:45Z</time>
      </trkpt>
      <trkpt lat="41.841694" lon="0.53135544">
        <time>2022-07-07T09:55:46Z</time>
      </trkpt>
      <trkpt lat="41.841675" lon="0.5314435">
        <time>2022-07-07T09:55:47Z</time>
      </trkpt>
      <trkpt lat="41.841656" lon="0.5315308">
        <time>2022-07-07T09:55:48Z</time>
      </trkpt>
      <trkpt lat="41.841633" lon="0.5316171">
        <time>2022-07-07T09:55:49Z</time>
      </trkpt>
      <trkpt lat="41.841614" lon="0.53170115">
        <time>2022-07-07T09:55:50Z</time>
      </trkpt>
      <trkpt lat="41.841595" lon="0.5317845">
        <time>2022-07-07T09:55:51Z</time>
      </trkpt>
      <trkpt lat="41.84157" lon="0.5318668">
        <time>2022-07-07T09:55:52Z</time>
      </trkpt>
      <trkpt lat="41.841553" lon="0.53194815">
        <time>2022-07-07T09:55:53Z</time>
      </trkpt>
      <trkpt lat="41.84153" lon="0.5320291">
        <time>2022-07-07T09:55:54Z</time>
      </trkpt>
      <trkpt lat="41.84151" lon="0.53210944">
        <time>2022-07-07T09:55:55Z</time>
      </trkpt>
      <trkpt lat="41.841473" lon="0.5322695">
        <time>2022-07-07T09:55:57Z</time>
      </trkpt>
      <trkpt lat="41.841454" lon="0.5323501">
        <time>2022-07-07T09:55:58Z</time>
      </trkpt>
      <trkpt lat="41.841434" lon="0.53242946">
        <time>2022-07-07T09:55:59Z</time>
      </trkpt>
      <trkpt lat="41.841415" lon="0.5325078">
        <time>2022-07-07T09:56:00Z</time>
      </trkpt>
      <trkpt lat="41.8414" lon="0.5325874">
        <time>2022-07-07T09:56:01Z</time>
      </trkpt>
      <trkpt lat="41.841377" lon="0.5326658">
        <time>2022-07-07T09:56:02Z</time>
      </trkpt>
      <trkpt lat="41.84136" lon="0.53274274">
        <time>2022-07-07T09:56:03Z</time>
      </trkpt>
      <trkpt lat="41.84134" lon="0.5328178">
        <time>2022-07-07T09:56:04Z</time>
      </trkpt>
      <trkpt lat="41.84132" lon="0.53289306">
        <time>2022-07-07T09:56:05Z</time>
      </trkpt>
      <trkpt lat="41.8413" lon="0.5329671">
        <time>2022-07-07T09:56:06Z</time>
      </trkpt>
      <trkpt lat="41.84128" lon="0.53303975">
        <time>2022-07-07T09:56:07Z</time>
      </trkpt>
      <trkpt lat="41.841263" lon="0.5331121">
        <time>2022-07-07T09:56:08Z</time>
      </trkpt>
      <trkpt lat="41.841248" lon="0.5331831">
        <time>2022-07-07T09:56:09Z</time>
      </trkpt>
      <trkpt lat="41.84123" lon="0.5332531">
        <time>2022-07-07T09:56:10Z</time>
      </trkpt>
      <trkpt lat="41.841213" lon="0.53332275">
        <time>2022-07-07T09:56:11Z</time>
      </trkpt>
      <trkpt lat="41.841198" lon="0.5333914">
        <time>2022-07-07T09:56:12Z</time>
      </trkpt>
      <trkpt lat="41.841183" lon="0.5334594">
        <time>2022-07-07T09:56:13Z</time>
      </trkpt>
      <trkpt lat="41.841167" lon="0.53352505">
        <time>2022-07-07T09:56:14Z</time>
      </trkpt>
      <trkpt lat="41.841152" lon="0.5335901">
        <time>2022-07-07T09:56:15Z</time>
      </trkpt>
      <trkpt lat="41.841137" lon="0.5336554">
        <time>2022-07-07T09:56:16Z</time>
      </trkpt>
      <trkpt lat="41.841106" lon="0.5337844">
        <time>2022-07-07T09:56:18Z</time>
      </trkpt>
      <trkpt lat="41.84108" lon="0.53391737">
        <time>2022-07-07T09:56:20Z</time>
      </trkpt>
      <trkpt lat="41.841064" lon="0.5339851">
        <time>2022-07-07T09:56:21Z</time>
      </trkpt>
      <trkpt lat="41.84105" lon="0.5340524">
        <time>2022-07-07T09:56:22Z</time>
      </trkpt>
      <trkpt lat="41.841038" lon="0.5341204">
        <time>2022-07-07T09:56:23Z</time>
      </trkpt>
      <trkpt lat="41.841007" lon="0.53425837">
        <time>2022-07-07T09:56:25Z</time>
      </trkpt>
      <trkpt lat="41.840992" lon="0.53432804">
        <time>2022-07-07T09:56:26Z</time>
      </trkpt>
      <trkpt lat="41.840977" lon="0.534398">
        <time>2022-07-07T09:56:27Z</time>
      </trkpt>
      <trkpt lat="41.84096" lon="0.5344697">
        <time>2022-07-07T09:56:28Z</time>
      </trkpt>
      <trkpt lat="41.840946" lon="0.53454304">
        <time>2022-07-07T09:56:29Z</time>
      </trkpt>
      <trkpt lat="41.840927" lon="0.53461766">
        <time>2022-07-07T09:56:30Z</time>
      </trkpt>
      <trkpt lat="41.84091" lon="0.5346927">
        <time>2022-07-07T09:56:31Z</time>
      </trkpt>
      <trkpt lat="41.840893" lon="0.534769">
        <time>2022-07-07T09:56:32Z</time>
      </trkpt>
      <trkpt lat="41.840874" lon="0.534847">
        <time>2022-07-07T09:56:33Z</time>
      </trkpt>
      <trkpt lat="41.840855" lon="0.53492635">
        <time>2022-07-07T09:56:34Z</time>
      </trkpt>
      <trkpt lat="41.840836" lon="0.5350067">
        <time>2022-07-07T09:56:35Z</time>
      </trkpt>
      <trkpt lat="41.840816" lon="0.5350893">
        <time>2022-07-07T09:56:36Z</time>
      </trkpt>
      <trkpt lat="41.840797" lon="0.53517336">
        <time>2022-07-07T09:56:37Z</time>
      </trkpt>
      <trkpt lat="41.840775" lon="0.535258">
        <time>2022-07-07T09:56:38Z</time>
      </trkpt>
      <trkpt lat="41.84075" lon="0.53534335">
        <time>2022-07-07T09:56:39Z</time>
      </trkpt>
      <trkpt lat="41.840733" lon="0.5354303">
        <time>2022-07-07T09:56:40Z</time>
      </trkpt>
      <trkpt lat="41.84071" lon="0.53551733">
        <time>2022-07-07T09:56:41Z</time>
      </trkpt>
      <trkpt lat="41.84069" lon="0.535604">
        <time>2022-07-07T09:56:42Z</time>
      </trkpt>
      <trkpt lat="41.84067" lon="0.53569067">
        <time>2022-07-07T09:56:43Z</time>
      </trkpt>
      <trkpt lat="41.84065" lon="0.5357763">
        <time>2022-07-07T09:56:44Z</time>
      </trkpt>
      <trkpt lat="41.84063" lon="0.5358613">
        <time>2022-07-07T09:56:45Z</time>
      </trkpt>
      <trkpt lat="41.84061" lon="0.5359443">
        <time>2022-07-07T09:56:46Z</time>
      </trkpt>
      <trkpt lat="41.84059" lon="0.53602594">
        <time>2022-07-07T09:56:47Z</time>
      </trkpt>
      <trkpt lat="41.840572" lon="0.536106">
        <time>2022-07-07T09:56:48Z</time>
      </trkpt>
      <trkpt lat="41.840553" lon="0.5361846">
        <time>2022-07-07T09:56:49Z</time>
      </trkpt>
      <trkpt lat="41.84053" lon="0.5362606">
        <time>2022-07-07T09:56:50Z</time>
      </trkpt>
      <trkpt lat="41.84051" lon="0.53633595">
        <time>2022-07-07T09:56:51Z</time>
      </trkpt>
      <trkpt lat="41.840492" lon="0.53641">
        <time>2022-07-07T09:56:52Z</time>
      </trkpt>
      <trkpt lat="41.840473" lon="0.5364833">
        <time>2022-07-07T09:56:53Z</time>
      </trkpt>
      <trkpt lat="41.840454" lon="0.5365543">
        <time>2022-07-07T09:56:54Z</time>
      </trkpt>
      <trkpt lat="41.84044" lon="0.53662395">
        <time>2022-07-07T09:56:55Z</time>
      </trkpt>
      <trkpt lat="41.84042" lon="0.53669226">
        <time>2022-07-07T09:56:56Z</time>
      </trkpt>
      <trkpt lat="41.840405" lon="0.53675926">
        <time>2022-07-07T09:56:57Z</time>
      </trkpt>
      <trkpt lat="41.84039" lon="0.5368256">
        <time>2022-07-07T09:56:58Z</time>
      </trkpt>
      <trkpt lat="41.84036" lon="0.53695625">
        <time>2022-07-07T09:57:00Z</time>
      </trkpt>
      <trkpt lat="41.840343" lon="0.5370216">
        <time>2022-07-07T09:57:01Z</time>
      </trkpt>
      <trkpt lat="41.840317" lon="0.53715295">
        <time>2022-07-07T09:57:03Z</time>
      </trkpt>
      <trkpt lat="41.840286" lon="0.53726727">
        <time>2022-07-07T09:57:05Z</time>
      </trkpt>
      <trkpt lat="41.84026" lon="0.5373853">
        <time>2022-07-07T09:57:07Z</time>
      </trkpt>
      <trkpt lat="41.840233" lon="0.5375023">
        <time>2022-07-07T09:57:09Z</time>
      </trkpt>
      <trkpt lat="41.840206" lon="0.5376146">
        <time>2022-07-07T09:57:11Z</time>
      </trkpt>
      <trkpt lat="41.840176" lon="0.5377329">
        <time>2022-07-07T09:57:13Z</time>
      </trkpt>
      <trkpt lat="41.84014" lon="0.5378562">
        <time>2022-07-07T09:57:15Z</time>
      </trkpt>
      <trkpt lat="41.84011" lon="0.5379859">
        <time>2022-07-07T09:57:17Z</time>
      </trkpt>
      <trkpt lat="41.84009" lon="0.53805226">
        <time>2022-07-07T09:57:18Z</time>
      </trkpt>
      <trkpt lat="41.840057" lon="0.53819424">
        <time>2022-07-07T09:57:20Z</time>
      </trkpt>
      <trkpt lat="41.840042" lon="0.53826755">
        <time>2022-07-07T09:57:21Z</time>
      </trkpt>
      <trkpt lat="41.840027" lon="0.5383429">
        <time>2022-07-07T09:57:22Z</time>
      </trkpt>
      <trkpt lat="41.840008" lon="0.53841954">
        <time>2022-07-07T09:57:23Z</time>
      </trkpt>
      <trkpt lat="41.839993" lon="0.5384969">
        <time>2022-07-07T09:57:24Z</time>
      </trkpt>
      <trkpt lat="41.839977" lon="0.5385689">
        <time>2022-07-07T09:57:25Z</time>
      </trkpt>
      <trkpt lat="41.83996" lon="0.53864753">
        <time>2022-07-07T09:57:26Z</time>
      </trkpt>
      <trkpt lat="41.83994" lon="0.5387249">
        <time>2022-07-07T09:57:27Z</time>
      </trkpt>
      <trkpt lat="41.839924" lon="0.5388009">
        <time>2022-07-07T09:57:28Z</time>
      </trkpt>
      <trkpt lat="41.839905" lon="0.5388755">
        <time>2022-07-07T09:57:29Z</time>
      </trkpt>
      <trkpt lat="41.83989" lon="0.5389492">
        <time>2022-07-07T09:57:30Z</time>
      </trkpt>
      <trkpt lat="41.83987" lon="0.53902155">
        <time>2022-07-07T09:57:31Z</time>
      </trkpt>
      <trkpt lat="41.839855" lon="0.53909254">
        <time>2022-07-07T09:57:32Z</time>
      </trkpt>
      <trkpt lat="41.83984" lon="0.5391622">
        <time>2022-07-07T09:57:33Z</time>
      </trkpt>
      <trkpt lat="41.839825" lon="0.5392308">
        <time>2022-07-07T09:57:34Z</time>
      </trkpt>
      <trkpt lat="41.83981" lon="0.53929853">
        <time>2022-07-07T09:57:35Z</time>
      </trkpt>
      <trkpt lat="41.839775" lon="0.53943014">
        <time>2022-07-07T09:57:37Z</time>
      </trkpt>
      <trkpt lat="41.83976" lon="0.5394945">
        <time>2022-07-07T09:57:38Z</time>
      </trkpt>
      <trkpt lat="41.839745" lon="0.5395592">
        <time>2022-07-07T09:57:39Z</time>
      </trkpt>
      <trkpt lat="41.839714" lon="0.53968483">
        <time>2022-07-07T09:57:41Z</time>
      </trkpt>
      <trkpt lat="41.839684" lon="0.5398088">
        <time>2022-07-07T09:57:43Z</time>
      </trkpt>
      <trkpt lat="41.839657" lon="0.53993016">
        <time>2022-07-07T09:57:45Z</time>
      </trkpt>
      <trkpt lat="41.83964" lon="0.5399918">
        <time>2022-07-07T09:57:46Z</time>
      </trkpt>
      <trkpt lat="41.83961" lon="0.54011714">
        <time>2022-07-07T09:57:48Z</time>
      </trkpt>
      <trkpt lat="41.8396" lon="0.54018116">
        <time>2022-07-07T09:57:49Z</time>
      </trkpt>
      <trkpt lat="41.83957" lon="0.5403078">
        <time>2022-07-07T09:57:51Z</time>
      </trkpt>
      <trkpt lat="41.839535" lon="0.5404348">
        <time>2022-07-07T09:57:53Z</time>
      </trkpt>
      <trkpt lat="41.83952" lon="0.5404988">
        <time>2022-07-07T09:57:54Z</time>
      </trkpt>
      <trkpt lat="41.839485" lon="0.54062915">
        <time>2022-07-07T09:57:56Z</time>
      </trkpt>
      <trkpt lat="41.839466" lon="0.54069513">
        <time>2022-07-07T09:57:57Z</time>
      </trkpt>
      <trkpt lat="41.839447" lon="0.54076177">
        <time>2022-07-07T09:57:58Z</time>
      </trkpt>
      <trkpt lat="41.839413" lon="0.54089814">
        <time>2022-07-07T09:58:00Z</time>
      </trkpt>
      <trkpt lat="41.839397" lon="0.5409661">
        <time>2022-07-07T09:58:01Z</time>
      </trkpt>
      <trkpt lat="41.839363" lon="0.5411011">
        <time>2022-07-07T09:58:03Z</time>
      </trkpt>
      <trkpt lat="41.839348" lon="0.5411691">
        <time>2022-07-07T09:58:04Z</time>
      </trkpt>
      <trkpt lat="41.839333" lon="0.5412371">
        <time>2022-07-07T09:58:05Z</time>
      </trkpt>
      <trkpt lat="41.839317" lon="0.54130644">
        <time>2022-07-07T09:58:06Z</time>
      </trkpt>
      <trkpt lat="41.8393" lon="0.54137576">
        <time>2022-07-07T09:58:07Z</time>
      </trkpt>
      <trkpt lat="41.839283" lon="0.54144543">
        <time>2022-07-07T09:58:08Z</time>
      </trkpt>
      <trkpt lat="41.839268" lon="0.54151475">
        <time>2022-07-07T09:58:09Z</time>
      </trkpt>
      <trkpt lat="41.839252" lon="0.5415838">
        <time>2022-07-07T09:58:10Z</time>
      </trkpt>
      <trkpt lat="41.839237" lon="0.54165244">
        <time>2022-07-07T09:58:11Z</time>
      </trkpt>
      <trkpt lat="41.83922" lon="0.5417214">
        <time>2022-07-07T09:58:12Z</time>
      </trkpt>
      <trkpt lat="41.839203" lon="0.54178977">
        <time>2022-07-07T09:58:13Z</time>
      </trkpt>
      <trkpt lat="41.839188" lon="0.5418578">
        <time>2022-07-07T09:58:14Z</time>
      </trkpt>
      <trkpt lat="41.839172" lon="0.5419258">
        <time>2022-07-07T09:58:15Z</time>
      </trkpt>
      <trkpt lat="41.839153" lon="0.5419931">
        <time>2022-07-07T09:58:16Z</time>
      </trkpt>
      <trkpt lat="41.839138" lon="0.54206043">
        <time>2022-07-07T09:58:17Z</time>
      </trkpt>
      <trkpt lat="41.839123" lon="0.54212743">
        <time>2022-07-07T09:58:18Z</time>
      </trkpt>
      <trkpt lat="41.83909" lon="0.54226375">
        <time>2022-07-07T09:58:20Z</time>
      </trkpt>
      <trkpt lat="41.839073" lon="0.5423324">
        <time>2022-07-07T09:58:21Z</time>
      </trkpt>
      <trkpt lat="41.839054" lon="0.5424004">
        <time>2022-07-07T09:58:22Z</time>
      </trkpt>
      <trkpt lat="41.83904" lon="0.5424681">
        <time>2022-07-07T09:58:23Z</time>
      </trkpt>
      <trkpt lat="41.83902" lon="0.5425357">
        <time>2022-07-07T09:58:24Z</time>
      </trkpt>
      <trkpt lat="41.839005" lon="0.54260373">
        <time>2022-07-07T09:58:25Z</time>
      </trkpt>
      <trkpt lat="41.838985" lon="0.54267204">
        <time>2022-07-07T09:58:26Z</time>
      </trkpt>
      <trkpt lat="41.83897" lon="0.54274005">
        <time>2022-07-07T09:58:27Z</time>
      </trkpt>
      <trkpt lat="41.838955" lon="0.5428084">
        <time>2022-07-07T09:58:28Z</time>
      </trkpt>
      <trkpt lat="41.83894" lon="0.5428767">
        <time>2022-07-07T09:58:29Z</time>
      </trkpt>
      <trkpt lat="41.838924" lon="0.5429454">
        <time>2022-07-07T09:58:30Z</time>
      </trkpt>
      <trkpt lat="41.83891" lon="0.5430147">
        <time>2022-07-07T09:58:31Z</time>
      </trkpt>
      <trkpt lat="41.838894" lon="0.5430847">
        <time>2022-07-07T09:58:32Z</time>
      </trkpt>
      <trkpt lat="41.83888" lon="0.5431537">
        <time>2022-07-07T09:58:33Z</time>
      </trkpt>
      <trkpt lat="41.83886" lon="0.54322135">
        <time>2022-07-07T09:58:34Z</time>
      </trkpt>
      <trkpt lat="41.838844" lon="0.5432904">
        <time>2022-07-07T09:58:35Z</time>
      </trkpt>
      <trkpt lat="41.838825" lon="0.5433594">
        <time>2022-07-07T09:58:36Z</time>
      </trkpt>
      <trkpt lat="41.83881" lon="0.5434254">
        <time>2022-07-07T09:58:37Z</time>
      </trkpt>
      <trkpt lat="41.838795" lon="0.5434924">
        <time>2022-07-07T09:58:38Z</time>
      </trkpt>
      <trkpt lat="41.838757" lon="0.5436387">
        <time>2022-07-07T09:58:40Z</time>
      </trkpt>
      <trkpt lat="41.83874" lon="0.54371005">
        <time>2022-07-07T09:58:41Z</time>
      </trkpt>
      <trkpt lat="41.838722" lon="0.54378104">
        <time>2022-07-07T09:58:42Z</time>
      </trkpt>
      <trkpt lat="41.838707" lon="0.5438524">
        <time>2022-07-07T09:58:43Z</time>
      </trkpt>
      <trkpt lat="41.83869" lon="0.543923">
        <time>2022-07-07T09:58:44Z</time>
      </trkpt>
      <trkpt lat="41.838673" lon="0.543993">
        <time>2022-07-07T09:58:45Z</time>
      </trkpt>
      <trkpt lat="41.838657" lon="0.54406303">
        <time>2022-07-07T09:58:46Z</time>
      </trkpt>
      <trkpt lat="41.83864" lon="0.54413235">
        <time>2022-07-07T09:58:47Z</time>
      </trkpt>
      <trkpt lat="41.83862" lon="0.544202">
        <time>2022-07-07T09:58:48Z</time>
      </trkpt>
      <trkpt lat="41.838604" lon="0.54427236">
        <time>2022-07-07T09:58:49Z</time>
      </trkpt>
      <trkpt lat="41.838585" lon="0.5443427">
        <time>2022-07-07T09:58:50Z</time>
      </trkpt>
      <trkpt lat="41.838566" lon="0.5444123">
        <time>2022-07-07T09:58:51Z</time>
      </trkpt>
      <trkpt lat="41.83855" lon="0.544482">
        <time>2022-07-07T09:58:52Z</time>
      </trkpt>
      <trkpt lat="41.83853" lon="0.54455334">
        <time>2022-07-07T09:58:53Z</time>
      </trkpt>
      <trkpt lat="41.838516" lon="0.54462534">
        <time>2022-07-07T09:58:54Z</time>
      </trkpt>
      <trkpt lat="41.8385" lon="0.544698">
        <time>2022-07-07T09:58:55Z</time>
      </trkpt>
      <trkpt lat="41.83848" lon="0.54477">
        <time>2022-07-07T09:58:56Z</time>
      </trkpt>
      <trkpt lat="41.838467" lon="0.544841">
        <time>2022-07-07T09:58:57Z</time>
      </trkpt>
      <trkpt lat="41.83845" lon="0.54491234">
        <time>2022-07-07T09:58:58Z</time>
      </trkpt>
      <trkpt lat="41.838436" lon="0.54498297">
        <time>2022-07-07T09:58:59Z</time>
      </trkpt>
      <trkpt lat="41.838417" lon="0.54505295">
        <time>2022-07-07T09:59:00Z</time>
      </trkpt>
      <trkpt lat="41.8384" lon="0.54512197">
        <time>2022-07-07T09:59:01Z</time>
      </trkpt>
      <trkpt lat="41.838387" lon="0.5451896">
        <time>2022-07-07T09:59:02Z</time>
      </trkpt>
      <trkpt lat="41.838352" lon="0.545325">
        <time>2022-07-07T09:59:04Z</time>
      </trkpt>
      <trkpt lat="41.838337" lon="0.54539263">
        <time>2022-07-07T09:59:05Z</time>
      </trkpt>
      <trkpt lat="41.83832" lon="0.5454599">
        <time>2022-07-07T09:59:06Z</time>
      </trkpt>
      <trkpt lat="41.838303" lon="0.5455326">
        <time>2022-07-07T09:59:07Z</time>
      </trkpt>
      <trkpt lat="41.838287" lon="0.54559964">
        <time>2022-07-07T09:59:08Z</time>
      </trkpt>
      <trkpt lat="41.838272" lon="0.54566795">
        <time>2022-07-07T09:59:09Z</time>
      </trkpt>
      <trkpt lat="41.838257" lon="0.5457379">
        <time>2022-07-07T09:59:10Z</time>
      </trkpt>
      <trkpt lat="41.83824" lon="0.54580796">
        <time>2022-07-07T09:59:11Z</time>
      </trkpt>
      <trkpt lat="41.838223" lon="0.5458773">
        <time>2022-07-07T09:59:12Z</time>
      </trkpt>
      <trkpt lat="41.83821" lon="0.54594696">
        <time>2022-07-07T09:59:13Z</time>
      </trkpt>
      <trkpt lat="41.838196" lon="0.5460163">
        <time>2022-07-07T09:59:14Z</time>
      </trkpt>
      <trkpt lat="41.838177" lon="0.5460856">
        <time>2022-07-07T09:59:15Z</time>
      </trkpt>
      <trkpt lat="41.83816" lon="0.5461559">
        <time>2022-07-07T09:59:16Z</time>
      </trkpt>
      <trkpt lat="41.838146" lon="0.54622895">
        <time>2022-07-07T09:59:17Z</time>
      </trkpt>
      <trkpt lat="41.83813" lon="0.5463019">
        <time>2022-07-07T09:59:18Z</time>
      </trkpt>
      <trkpt lat="41.83811" lon="0.5463739">
        <time>2022-07-07T09:59:19Z</time>
      </trkpt>
      <trkpt lat="41.838093" lon="0.54644525">
        <time>2022-07-07T09:59:20Z</time>
      </trkpt>
      <trkpt lat="41.838074" lon="0.5465166">
        <time>2022-07-07T09:59:21Z</time>
      </trkpt>
      <trkpt lat="41.838055" lon="0.54658824">
        <time>2022-07-07T09:59:22Z</time>
      </trkpt>
      <trkpt lat="41.838036" lon="0.5466609">
        <time>2022-07-07T09:59:23Z</time>
      </trkpt>
      <trkpt lat="41.838017" lon="0.54673356">
        <time>2022-07-07T09:59:24Z</time>
      </trkpt>
      <trkpt lat="41.838" lon="0.5468072">
        <time>2022-07-07T09:59:25Z</time>
      </trkpt>
      <trkpt lat="41.837982" lon="0.54688185">
        <time>2022-07-07T09:59:26Z</time>
      </trkpt>
      <trkpt lat="41.837963" lon="0.5469572">
        <time>2022-07-07T09:59:27Z</time>
      </trkpt>
      <trkpt lat="41.837944" lon="0.5470329">
        <time>2022-07-07T09:59:28Z</time>
      </trkpt>
      <trkpt lat="41.837925" lon="0.54710954">
        <time>2022-07-07T09:59:29Z</time>
      </trkpt>
      <trkpt lat="41.837906" lon="0.5471872">
        <time>2022-07-07T09:59:30Z</time>
      </trkpt>
      <trkpt lat="41.837887" lon="0.5472649">
        <time>2022-07-07T09:59:31Z</time>
      </trkpt>
      <trkpt lat="41.837868" lon="0.5473432">
        <time>2022-07-07T09:59:32Z</time>
      </trkpt>
      <trkpt lat="41.837852" lon="0.5474202">
        <time>2022-07-07T09:59:33Z</time>
      </trkpt>
      <trkpt lat="41.837833" lon="0.54749715">
        <time>2022-07-07T09:59:34Z</time>
      </trkpt>
      <trkpt lat="41.837814" lon="0.5475745">
        <time>2022-07-07T09:59:35Z</time>
      </trkpt>
      <trkpt lat="41.837795" lon="0.5476515">
        <time>2022-07-07T09:59:36Z</time>
      </trkpt>
      <trkpt lat="41.837776" lon="0.54772854">
        <time>2022-07-07T09:59:37Z</time>
      </trkpt>
      <trkpt lat="41.837757" lon="0.54780585">
        <time>2022-07-07T09:59:38Z</time>
      </trkpt>
      <trkpt lat="41.837738" lon="0.54788387">
        <time>2022-07-07T09:59:39Z</time>
      </trkpt>
      <trkpt lat="41.83772" lon="0.5479622">
        <time>2022-07-07T09:59:40Z</time>
      </trkpt>
      <trkpt lat="41.837704" lon="0.54804116">
        <time>2022-07-07T09:59:41Z</time>
      </trkpt>
      <trkpt lat="41.837685" lon="0.54812086">
        <time>2022-07-07T09:59:42Z</time>
      </trkpt>
      <trkpt lat="41.837666" lon="0.5482015">
        <time>2022-07-07T09:59:43Z</time>
      </trkpt>
      <trkpt lat="41.837646" lon="0.5482835">
        <time>2022-07-07T09:59:44Z</time>
      </trkpt>
      <trkpt lat="41.837627" lon="0.5483652">
        <time>2022-07-07T09:59:45Z</time>
      </trkpt>
      <trkpt lat="41.83761" lon="0.5484475">
        <time>2022-07-07T09:59:46Z</time>
      </trkpt>
      <trkpt lat="41.837585" lon="0.5485298">
        <time>2022-07-07T09:59:47Z</time>
      </trkpt>
      <trkpt lat="41.837566" lon="0.5486118">
        <time>2022-07-07T09:59:48Z</time>
      </trkpt>
      <trkpt lat="41.837543" lon="0.54869413">
        <time>2022-07-07T09:59:49Z</time>
      </trkpt>
      <trkpt lat="41.83752" lon="0.5487758">
        <time>2022-07-07T09:59:50Z</time>
      </trkpt>
      <trkpt lat="41.8375" lon="0.5488568">
        <time>2022-07-07T09:59:51Z</time>
      </trkpt>
      <trkpt lat="41.83748" lon="0.5489368">
        <time>2022-07-07T09:59:52Z</time>
      </trkpt>
      <trkpt lat="41.837456" lon="0.54901546">
        <time>2022-07-07T09:59:53Z</time>
      </trkpt>
      <trkpt lat="41.837433" lon="0.5490935">
        <time>2022-07-07T09:59:54Z</time>
      </trkpt>
      <trkpt lat="41.837414" lon="0.5491708">
        <time>2022-07-07T09:59:55Z</time>
      </trkpt>
      <trkpt lat="41.83739" lon="0.5492468">
        <time>2022-07-07T09:59:56Z</time>
      </trkpt>
      <trkpt lat="41.83737" lon="0.5493215">
        <time>2022-07-07T09:59:57Z</time>
      </trkpt>
      <trkpt lat="41.83735" lon="0.54939646">
        <time>2022-07-07T09:59:58Z</time>
      </trkpt>
      <trkpt lat="41.83733" lon="0.54946643">
        <time>2022-07-07T09:59:59Z</time>
      </trkpt>
      <trkpt lat="41.83731" lon="0.54953676">
        <time>2022-07-07T10:00:00Z</time>
      </trkpt>
      <trkpt lat="41.83729" lon="0.5496081">
        <time>2022-07-07T10:00:01Z</time>
      </trkpt>
      <trkpt lat="41.837273" lon="0.5496841">
        <time>2022-07-07T10:00:02Z</time>
      </trkpt>
      <trkpt lat="41.837257" lon="0.5497524">
        <time>2022-07-07T10:00:03Z</time>
      </trkpt>
      <trkpt lat="41.83724" lon="0.5498211">
        <time>2022-07-07T10:00:04Z</time>
      </trkpt>
      <trkpt lat="41.837204" lon="0.5499598">
        <time>2022-07-07T10:00:06Z</time>
      </trkpt>
      <trkpt lat="41.83719" lon="0.55002844">
        <time>2022-07-07T10:00:07Z</time>
      </trkpt>
      <trkpt lat="41.837173" lon="0.55009544">
        <time>2022-07-07T10:00:08Z</time>
      </trkpt>
      <trkpt lat="41.83714" lon="0.55023277">
        <time>2022-07-07T10:00:10Z</time>
      </trkpt>
      <trkpt lat="41.837124" lon="0.5503004">
        <time>2022-07-07T10:00:11Z</time>
      </trkpt>
      <trkpt lat="41.837097" lon="0.5504321">
        <time>2022-07-07T10:00:13Z</time>
      </trkpt>
      <trkpt lat="41.837082" lon="0.55049574">
        <time>2022-07-07T10:00:14Z</time>
      </trkpt>
      <trkpt lat="41.837055" lon="0.55061936">
        <time>2022-07-07T10:00:16Z</time>
      </trkpt>
      <trkpt lat="41.83703" lon="0.5507407">
        <time>2022-07-07T10:00:18Z</time>
      </trkpt>
      <trkpt lat="41.837" lon="0.55085903">
        <time>2022-07-07T10:00:20Z</time>
      </trkpt>
      <trkpt lat="41.83697" lon="0.5509747">
        <time>2022-07-07T10:00:22Z</time>
      </trkpt>
      <trkpt lat="41.83694" lon="0.5510867">
        <time>2022-07-07T10:00:24Z</time>
      </trkpt>
      <trkpt lat="41.836914" lon="0.5511967">
        <time>2022-07-07T10:00:26Z</time>
      </trkpt>
      <trkpt lat="41.836887" lon="0.55130535">
        <time>2022-07-07T10:00:28Z</time>
      </trkpt>
      <trkpt lat="41.83686" lon="0.5514117">
        <time>2022-07-07T10:00:30Z</time>
      </trkpt>
      <trkpt lat="41.836834" lon="0.5515177">
        <time>2022-07-07T10:00:32Z</time>
      </trkpt>
      <trkpt lat="41.83681" lon="0.55162334">
        <time>2022-07-07T10:00:34Z</time>
      </trkpt>
      <trkpt lat="41.83679" lon="0.551727">
        <time>2022-07-07T10:00:36Z</time>
      </trkpt>
      <trkpt lat="41.836765" lon="0.55182666">
        <time>2022-07-07T10:00:38Z</time>
      </trkpt>
      <trkpt lat="41.836742" lon="0.551922">
        <time>2022-07-07T10:00:40Z</time>
      </trkpt>
      <trkpt lat="41.83672" lon="0.5520127">
        <time>2022-07-07T10:00:42Z</time>
      </trkpt>
      <trkpt lat="41.836704" lon="0.55210334">
        <time>2022-07-07T10:00:44Z</time>
      </trkpt>
      <trkpt lat="41.83669" lon="0.552197">
        <time>2022-07-07T10:00:46Z</time>
      </trkpt>
      <trkpt lat="41.836674" lon="0.5522853">
        <time>2022-07-07T10:00:48Z</time>
      </trkpt>
      <trkpt lat="41.83666" lon="0.55237466">
        <time>2022-07-07T10:00:50Z</time>
      </trkpt>
      <trkpt lat="41.836643" lon="0.5524653">
        <time>2022-07-07T10:00:52Z</time>
      </trkpt>
      <trkpt lat="41.836628" lon="0.5525596">
        <time>2022-07-07T10:00:54Z</time>
      </trkpt>
      <trkpt lat="41.836613" lon="0.5526493">
        <time>2022-07-07T10:00:56Z</time>
      </trkpt>
      <trkpt lat="41.836597" lon="0.552753">
        <time>2022-07-07T10:00:58Z</time>
      </trkpt>
      <trkpt lat="41.836586" lon="0.552861">
        <time>2022-07-07T10:01:00Z</time>
      </trkpt>
      <trkpt lat="41.836582" lon="0.55297464">
        <time>2022-07-07T10:01:02Z</time>
      </trkpt>
      <trkpt lat="41.83658" lon="0.55309397">
        <time>2022-07-07T10:01:04Z</time>
      </trkpt>
      <trkpt lat="41.83658" lon="0.5532183">
        <time>2022-07-07T10:01:06Z</time>
      </trkpt>
      <trkpt lat="41.836575" lon="0.5533483">
        <time>2022-07-07T10:01:08Z</time>
      </trkpt>
      <trkpt lat="41.83657" lon="0.5534853">
        <time>2022-07-07T10:01:10Z</time>
      </trkpt>
      <trkpt lat="41.836575" lon="0.5537073">
        <time>2022-07-07T10:01:13Z</time>
      </trkpt>
      <trkpt lat="41.836575" lon="0.55378425">
        <time>2022-07-07T10:01:14Z</time>
      </trkpt>
      <trkpt lat="41.836575" lon="0.5538633">
        <time>2022-07-07T10:01:15Z</time>
      </trkpt>
      <trkpt lat="41.836575" lon="0.55394393">
        <time>2022-07-07T10:01:16Z</time>
      </trkpt>
      <trkpt lat="41.836575" lon="0.5540266">
        <time>2022-07-07T10:01:17Z</time>
      </trkpt>
      <trkpt lat="41.836575" lon="0.55411124">
        <time>2022-07-07T10:01:18Z</time>
      </trkpt>
      <trkpt lat="41.836575" lon="0.5541976">
        <time>2022-07-07T10:01:19Z</time>
      </trkpt>
      <trkpt lat="41.83658" lon="0.5542856">
        <time>2022-07-07T10:01:20Z</time>
      </trkpt>
      <trkpt lat="41.83658" lon="0.55437523">
        <time>2022-07-07T10:01:21Z</time>
      </trkpt>
      <trkpt lat="41.83658" lon="0.55446726">
        <time>2022-07-07T10:01:22Z</time>
      </trkpt>
      <trkpt lat="41.83658" lon="0.55456156">
        <time>2022-07-07T10:01:23Z</time>
      </trkpt>
      <trkpt lat="41.83658" lon="0.5546569">
        <time>2022-07-07T10:01:24Z</time>
      </trkpt>
      <trkpt lat="41.83658" lon="0.55475354">
        <time>2022-07-07T10:01:25Z</time>
      </trkpt>
      <trkpt lat="41.836582" lon="0.55484223">
        <time>2022-07-07T10:01:26Z</time>
      </trkpt>
      <trkpt lat="41.836582" lon="0.55493957">
        <time>2022-07-07T10:01:27Z</time>
      </trkpt>
      <trkpt lat="41.836582" lon="0.55503625">
        <time>2022-07-07T10:01:28Z</time>
      </trkpt>
      <trkpt lat="41.836582" lon="0.55513185">
        <time>2022-07-07T10:01:29Z</time>
      </trkpt>
      <trkpt lat="41.836582" lon="0.55522555">
        <time>2022-07-07T10:01:30Z</time>
      </trkpt>
      <trkpt lat="41.836582" lon="0.5553192">
        <time>2022-07-07T10:01:31Z</time>
      </trkpt>
      <trkpt lat="41.83658" lon="0.5554132">
        <time>2022-07-07T10:01:32Z</time>
      </trkpt>
      <trkpt lat="41.83658" lon="0.5555082">
        <time>2022-07-07T10:01:33Z</time>
      </trkpt>
      <trkpt lat="41.83658" lon="0.5556042">
        <time>2022-07-07T10:01:34Z</time>
      </trkpt>
      <trkpt lat="41.83658" lon="0.5557042">
        <time>2022-07-07T10:01:35Z</time>
      </trkpt>
      <trkpt lat="41.836582" lon="0.5558055">
        <time>2022-07-07T10:01:36Z</time>
      </trkpt>
      <trkpt lat="41.836586" lon="0.55590785">
        <time>2022-07-07T10:01:37Z</time>
      </trkpt>
      <trkpt lat="41.83659" lon="0.5560089">
        <time>2022-07-07T10:01:38Z</time>
      </trkpt>
      <trkpt lat="41.836594" lon="0.5561102">
        <time>2022-07-07T10:01:39Z</time>
      </trkpt>
      <trkpt lat="41.836597" lon="0.55621254">
        <time>2022-07-07T10:01:40Z</time>
      </trkpt>
      <trkpt lat="41.8366" lon="0.5563175">
        <time>2022-07-07T10:01:41Z</time>
      </trkpt>
      <trkpt lat="41.836605" lon="0.55641586">
        <time>2022-07-07T10:01:42Z</time>
      </trkpt>
      <trkpt lat="41.836605" lon="0.5565225">
        <time>2022-07-07T10:01:43Z</time>
      </trkpt>
      <trkpt lat="41.836605" lon="0.5566265">
        <time>2022-07-07T10:01:44Z</time>
      </trkpt>
      <trkpt lat="41.83661" lon="0.5567295">
        <time>2022-07-07T10:01:45Z</time>
      </trkpt>
      <trkpt lat="41.83661" lon="0.55683184">
        <time>2022-07-07T10:01:46Z</time>
      </trkpt>
      <trkpt lat="41.83661" lon="0.55693316">
        <time>2022-07-07T10:01:47Z</time>
      </trkpt>
      <trkpt lat="41.836605" lon="0.5570342">
        <time>2022-07-07T10:01:48Z</time>
      </trkpt>
      <trkpt lat="41.836605" lon="0.55713415">
        <time>2022-07-07T10:01:49Z</time>
      </trkpt>
      <trkpt lat="41.836605" lon="0.5572338">
        <time>2022-07-07T10:01:50Z</time>
      </trkpt>
      <trkpt lat="41.836605" lon="0.55733347">
        <time>2022-07-07T10:01:51Z</time>
      </trkpt>
      <trkpt lat="41.836605" lon="0.55743384">
        <time>2022-07-07T10:01:52Z</time>
      </trkpt>
      <trkpt lat="41.8366" lon="0.5575365">
        <time>2022-07-07T10:01:53Z</time>
      </trkpt>
      <trkpt lat="41.836594" lon="0.5576338">
        <time>2022-07-07T10:01:54Z</time>
      </trkpt>
      <trkpt lat="41.836575" lon="0.5577371">
        <time>2022-07-07T10:01:55Z</time>
      </trkpt>
      <trkpt lat="41.83655" lon="0.5578361">
        <time>2022-07-07T10:01:56Z</time>
      </trkpt>
      <trkpt lat="41.836517" lon="0.5579301">
        <time>2022-07-07T10:01:57Z</time>
      </trkpt>
      <trkpt lat="41.83648" lon="0.55801845">
        <time>2022-07-07T10:01:58Z</time>
      </trkpt>
      <trkpt lat="41.836433" lon="0.5581018">
        <time>2022-07-07T10:01:59Z</time>
      </trkpt>
      <trkpt lat="41.836384" lon="0.55818146">
        <time>2022-07-07T10:02:00Z</time>
      </trkpt>
      <trkpt lat="41.836327" lon="0.55825615">
        <time>2022-07-07T10:02:01Z</time>
      </trkpt>
      <trkpt lat="41.83627" lon="0.5583278">
        <time>2022-07-07T10:02:02Z</time>
      </trkpt>
      <trkpt lat="41.836212" lon="0.5583971">
        <time>2022-07-07T10:02:03Z</time>
      </trkpt>
      <trkpt lat="41.836155" lon="0.55846614">
        <time>2022-07-07T10:02:04Z</time>
      </trkpt>
      <trkpt lat="41.836094" lon="0.55853444">
        <time>2022-07-07T10:02:05Z</time>
      </trkpt>
      <trkpt lat="41.836037" lon="0.55860376">
        <time>2022-07-07T10:02:06Z</time>
      </trkpt>
      <trkpt lat="41.835976" lon="0.55867445">
        <time>2022-07-07T10:02:07Z</time>
      </trkpt>
      <trkpt lat="41.83592" lon="0.5587421">
        <time>2022-07-07T10:02:08Z</time>
      </trkpt>
      <trkpt lat="41.835857" lon="0.5588101">
        <time>2022-07-07T10:02:09Z</time>
      </trkpt>
      <trkpt lat="41.835796" lon="0.55887806">
        <time>2022-07-07T10:02:10Z</time>
      </trkpt>
      <trkpt lat="41.83574" lon="0.55894744">
        <time>2022-07-07T10:02:11Z</time>
      </trkpt>
      <trkpt lat="41.835682" lon="0.5590174">
        <time>2022-07-07T10:02:12Z</time>
      </trkpt>
      <trkpt lat="41.83562" lon="0.5590884">
        <time>2022-07-07T10:02:13Z</time>
      </trkpt>
      <trkpt lat="41.83556" lon="0.55915976">
        <time>2022-07-07T10:02:14Z</time>
      </trkpt>
      <trkpt lat="41.835495" lon="0.55923176">
        <time>2022-07-07T10:02:15Z</time>
      </trkpt>
      <trkpt lat="41.835426" lon="0.55931073">
        <time>2022-07-07T10:02:16Z</time>
      </trkpt>
      <trkpt lat="41.83536" lon="0.5593911">
        <time>2022-07-07T10:02:17Z</time>
      </trkpt>
      <trkpt lat="41.835236" lon="0.5595531">
        <time>2022-07-07T10:02:19Z</time>
      </trkpt>
      <trkpt lat="41.835182" lon="0.5596401">
        <time>2022-07-07T10:02:20Z</time>
      </trkpt>
      <trkpt lat="41.83513" lon="0.5597331">
        <time>2022-07-07T10:02:21Z</time>
      </trkpt>
      <trkpt lat="41.835083" lon="0.5598324">
        <time>2022-07-07T10:02:22Z</time>
      </trkpt>
      <trkpt lat="41.83504" lon="0.5599391">
        <time>2022-07-07T10:02:23Z</time>
      </trkpt>
      <trkpt lat="41.835003" lon="0.56005174">
        <time>2022-07-07T10:02:24Z</time>
      </trkpt>
      <trkpt lat="41.834972" lon="0.5601684">
        <time>2022-07-07T10:02:25Z</time>
      </trkpt>
      <trkpt lat="41.83494" lon="0.5602874">
        <time>2022-07-07T10:02:26Z</time>
      </trkpt>
      <trkpt lat="41.834915" lon="0.56040806">
        <time>2022-07-07T10:02:27Z</time>
      </trkpt>
      <trkpt lat="41.83489" lon="0.5605311">
        <time>2022-07-07T10:02:28Z</time>
      </trkpt>
      <trkpt lat="41.834866" lon="0.56065506">
        <time>2022-07-07T10:02:29Z</time>
      </trkpt>
      <trkpt lat="41.834843" lon="0.56077874">
        <time>2022-07-07T10:02:30Z</time>
      </trkpt>
      <trkpt lat="41.83482" lon="0.56090206">
        <time>2022-07-07T10:02:31Z</time>
      </trkpt>
      <trkpt lat="41.8348" lon="0.561025">
        <time>2022-07-07T10:02:32Z</time>
      </trkpt>
      <trkpt lat="41.834778" lon="0.5611474">
        <time>2022-07-07T10:02:33Z</time>
      </trkpt>
      <trkpt lat="41.83476" lon="0.5612677">
        <time>2022-07-07T10:02:34Z</time>
      </trkpt>
      <trkpt lat="41.83474" lon="0.56138605">
        <time>2022-07-07T10:02:35Z</time>
      </trkpt>
      <trkpt lat="41.834717" lon="0.56150305">
        <time>2022-07-07T10:02:36Z</time>
      </trkpt>
      <trkpt lat="41.8347" lon="0.56161803">
        <time>2022-07-07T10:02:37Z</time>
      </trkpt>
      <trkpt lat="41.834682" lon="0.5617307">
        <time>2022-07-07T10:02:38Z</time>
      </trkpt>
      <trkpt lat="41.834667" lon="0.561841">
        <time>2022-07-07T10:02:39Z</time>
      </trkpt>
      <trkpt lat="41.83465" lon="0.561954">
        <time>2022-07-07T10:02:40Z</time>
      </trkpt>
      <trkpt lat="41.83463" lon="0.5620574">
        <time>2022-07-07T10:02:41Z</time>
      </trkpt>
      <trkpt lat="41.834614" lon="0.56216234">
        <time>2022-07-07T10:02:42Z</time>
      </trkpt>
      <trkpt lat="41.834595" lon="0.5622657">
        <time>2022-07-07T10:02:43Z</time>
      </trkpt>
      <trkpt lat="41.834576" lon="0.56236637">
        <time>2022-07-07T10:02:44Z</time>
      </trkpt>
      <trkpt lat="41.83456" lon="0.56246465">
        <time>2022-07-07T10:02:45Z</time>
      </trkpt>
      <trkpt lat="41.83454" lon="0.562561">
        <time>2022-07-07T10:02:46Z</time>
      </trkpt>
      <trkpt lat="41.834522" lon="0.56265765">
        <time>2022-07-07T10:02:47Z</time>
      </trkpt>
      <trkpt lat="41.834503" lon="0.5627533">
        <time>2022-07-07T10:02:48Z</time>
      </trkpt>
      <trkpt lat="41.834484" lon="0.56284696">
        <time>2022-07-07T10:02:49Z</time>
      </trkpt>
      <trkpt lat="41.83446" lon="0.562939">
        <time>2022-07-07T10:02:50Z</time>
      </trkpt>
      <trkpt lat="41.83444" lon="0.5630293">
        <time>2022-07-07T10:02:51Z</time>
      </trkpt>
      <trkpt lat="41.83441" lon="0.56311667">
        <time>2022-07-07T10:02:52Z</time>
      </trkpt>
      <trkpt lat="41.83438" lon="0.56320167">
        <time>2022-07-07T10:02:53Z</time>
      </trkpt>
      <trkpt lat="41.83435" lon="0.5632833">
        <time>2022-07-07T10:02:54Z</time>
      </trkpt>
      <trkpt lat="41.834316" lon="0.5633623">
        <time>2022-07-07T10:02:55Z</time>
      </trkpt>
      <trkpt lat="41.834274" lon="0.563445">
        <time>2022-07-07T10:02:56Z</time>
      </trkpt>
      <trkpt lat="41.834236" lon="0.5635183">
        <time>2022-07-07T10:02:57Z</time>
      </trkpt>
      <trkpt lat="41.834194" lon="0.56359065">
        <time>2022-07-07T10:02:58Z</time>
      </trkpt>
      <trkpt lat="41.83415" lon="0.56366396">
        <time>2022-07-07T10:02:59Z</time>
      </trkpt>
      <trkpt lat="41.834103" lon="0.56373894">
        <time>2022-07-07T10:03:00Z</time>
      </trkpt>
      <trkpt lat="41.834057" lon="0.56381494">
        <time>2022-07-07T10:03:01Z</time>
      </trkpt>
      <trkpt lat="41.834007" lon="0.5638913">
        <time>2022-07-07T10:03:02Z</time>
      </trkpt>
      <trkpt lat="41.833958" lon="0.56396693">
        <time>2022-07-07T10:03:03Z</time>
      </trkpt>
      <trkpt lat="41.833908" lon="0.5640443">
        <time>2022-07-07T10:03:04Z</time>
      </trkpt>
      <trkpt lat="41.83386" lon="0.5641229">
        <time>2022-07-07T10:03:05Z</time>
      </trkpt>
      <trkpt lat="41.83381" lon="0.5642043">
        <time>2022-07-07T10:03:06Z</time>
      </trkpt>
      <trkpt lat="41.833767" lon="0.56428325">
        <time>2022-07-07T10:03:07Z</time>
      </trkpt>
      <trkpt lat="41.83372" lon="0.56437325">
        <time>2022-07-07T10:03:08Z</time>
      </trkpt>
      <trkpt lat="41.833683" lon="0.5644589">
        <time>2022-07-07T10:03:09Z</time>
      </trkpt>
      <trkpt lat="41.833645" lon="0.56455624">
        <time>2022-07-07T10:03:10Z</time>
      </trkpt>
      <trkpt lat="41.83361" lon="0.5646559">
        <time>2022-07-07T10:03:11Z</time>
      </trkpt>
      <trkpt lat="41.83358" lon="0.5647566">
        <time>2022-07-07T10:03:12Z</time>
      </trkpt>
      <trkpt lat="41.833553" lon="0.5648579">
        <time>2022-07-07T10:03:13Z</time>
      </trkpt>
      <trkpt lat="41.833527" lon="0.5649599">
        <time>2022-07-07T10:03:14Z</time>
      </trkpt>
      <trkpt lat="41.833504" lon="0.5650626">
        <time>2022-07-07T10:03:15Z</time>
      </trkpt>
      <trkpt lat="41.83348" lon="0.5651656">
        <time>2022-07-07T10:03:16Z</time>
      </trkpt>
      <trkpt lat="41.833458" lon="0.56527025">
        <time>2022-07-07T10:03:17Z</time>
      </trkpt>
      <trkpt lat="41.83344" lon="0.56537455">
        <time>2022-07-07T10:03:18Z</time>
      </trkpt>
      <trkpt lat="41.833416" lon="0.5654782">
        <time>2022-07-07T10:03:19Z</time>
      </trkpt>
      <trkpt lat="41.833393" lon="0.56558186">
        <time>2022-07-07T10:03:20Z</time>
      </trkpt>
      <trkpt lat="41.833355" lon="0.56579155">
        <time>2022-07-07T10:03:22Z</time>
      </trkpt>
      <trkpt lat="41.83333" lon="0.56589586">
        <time>2022-07-07T10:03:23Z</time>
      </trkpt>
      <trkpt lat="41.8333" lon="0.56599754">
        <time>2022-07-07T10:03:24Z</time>
      </trkpt>
      <trkpt lat="41.83326" lon="0.5660952">
        <time>2022-07-07T10:03:25Z</time>
      </trkpt>
      <trkpt lat="41.833214" lon="0.56618786">
        <time>2022-07-07T10:03:26Z</time>
      </trkpt>
      <trkpt lat="41.83316" lon="0.5662722">
        <time>2022-07-07T10:03:27Z</time>
      </trkpt>
      <trkpt lat="41.8331" lon="0.5663495">
        <time>2022-07-07T10:03:28Z</time>
      </trkpt>
      <trkpt lat="41.83304" lon="0.5664175">
        <time>2022-07-07T10:03:29Z</time>
      </trkpt>
      <trkpt lat="41.83297" lon="0.56648314">
        <time>2022-07-07T10:03:30Z</time>
      </trkpt>
      <trkpt lat="41.832897" lon="0.56655115">
        <time>2022-07-07T10:03:31Z</time>
      </trkpt>
      <trkpt lat="41.83282" lon="0.5666162">
        <time>2022-07-07T10:03:32Z</time>
      </trkpt>
      <trkpt lat="41.83274" lon="0.56667715">
        <time>2022-07-07T10:03:33Z</time>
      </trkpt>
      <trkpt lat="41.832664" lon="0.56673515">
        <time>2022-07-07T10:03:34Z</time>
      </trkpt>
      <trkpt lat="41.832584" lon="0.56679046">
        <time>2022-07-07T10:03:35Z</time>
      </trkpt>
      <trkpt lat="41.832504" lon="0.56684446">
        <time>2022-07-07T10:03:36Z</time>
      </trkpt>
      <trkpt lat="41.832428" lon="0.5668968">
        <time>2022-07-07T10:03:37Z</time>
      </trkpt>
      <trkpt lat="41.832355" lon="0.5669478">
        <time>2022-07-07T10:03:38Z</time>
      </trkpt>
      <trkpt lat="41.832283" lon="0.5669978">
        <time>2022-07-07T10:03:39Z</time>
      </trkpt>
      <trkpt lat="41.832214" lon="0.56704813">
        <time>2022-07-07T10:03:40Z</time>
      </trkpt>
      <trkpt lat="41.83214" lon="0.5670965">
        <time>2022-07-07T10:03:41Z</time>
      </trkpt>
      <trkpt lat="41.832077" lon="0.5671421">
        <time>2022-07-07T10:03:42Z</time>
      </trkpt>
      <trkpt lat="41.83201" lon="0.56718546">
        <time>2022-07-07T10:03:43Z</time>
      </trkpt>
      <trkpt lat="41.831947" lon="0.5672275">
        <time>2022-07-07T10:03:44Z</time>
      </trkpt>
      <trkpt lat="41.831882" lon="0.56726915">
        <time>2022-07-07T10:03:45Z</time>
      </trkpt>
      <trkpt lat="41.83182" lon="0.5673098">
        <time>2022-07-07T10:03:46Z</time>
      </trkpt>
      <trkpt lat="41.831764" lon="0.5673484">
        <time>2022-07-07T10:03:47Z</time>
      </trkpt>
      <trkpt lat="41.831707" lon="0.5673848">
        <time>2022-07-07T10:03:48Z</time>
      </trkpt>
      <trkpt lat="41.831654" lon="0.56741846">
        <time>2022-07-07T10:03:49Z</time>
      </trkpt>
      <trkpt lat="41.831604" lon="0.5674518">
        <time>2022-07-07T10:03:50Z</time>
      </trkpt>
      <trkpt lat="41.83155" lon="0.56748545">
        <time>2022-07-07T10:03:51Z</time>
      </trkpt>
      <trkpt lat="41.831505" lon="0.56751543">
        <time>2022-07-07T10:03:52Z</time>
      </trkpt>
      <trkpt lat="41.83146" lon="0.5675454">
        <time>2022-07-07T10:03:53Z</time>
      </trkpt>
      <trkpt lat="41.831413" lon="0.5675774">
        <time>2022-07-07T10:03:54Z</time>
      </trkpt>
      <trkpt lat="41.831367" lon="0.5676094">
        <time>2022-07-07T10:03:55Z</time>
      </trkpt>
      <trkpt lat="41.83128" lon="0.56768245">
        <time>2022-07-07T10:03:57Z</time>
      </trkpt>
      <trkpt lat="41.831234" lon="0.56772274">
        <time>2022-07-07T10:03:58Z</time>
      </trkpt>
      <trkpt lat="41.831192" lon="0.56776744">
        <time>2022-07-07T10:03:59Z</time>
      </trkpt>
      <trkpt lat="41.83115" lon="0.56781507">
        <time>2022-07-07T10:04:00Z</time>
      </trkpt>
      <trkpt lat="41.83111" lon="0.5678644">
        <time>2022-07-07T10:04:01Z</time>
      </trkpt>
      <trkpt lat="41.831062" lon="0.56791544">
        <time>2022-07-07T10:04:02Z</time>
      </trkpt>
      <trkpt lat="41.83102" lon="0.5679691">
        <time>2022-07-07T10:04:03Z</time>
      </trkpt>
      <trkpt lat="41.83098" lon="0.5680244">
        <time>2022-07-07T10:04:04Z</time>
      </trkpt>
      <trkpt lat="41.830936" lon="0.56807876">
        <time>2022-07-07T10:04:05Z</time>
      </trkpt>
      <trkpt lat="41.830894" lon="0.56813073">
        <time>2022-07-07T10:04:06Z</time>
      </trkpt>
      <trkpt lat="41.83086" lon="0.5681787">
        <time>2022-07-07T10:04:07Z</time>
      </trkpt>
      <trkpt lat="41.830822" lon="0.5682247">
        <time>2022-07-07T10:04:08Z</time>
      </trkpt>
      <trkpt lat="41.830788" lon="0.5682697">
        <time>2022-07-07T10:04:09Z</time>
      </trkpt>
      <trkpt lat="41.830723" lon="0.5683551">
        <time>2022-07-07T10:04:11Z</time>
      </trkpt>
      <trkpt lat="41.83067" lon="0.5684257">
        <time>2022-07-07T10:04:13Z</time>
      </trkpt>
      <trkpt lat="41.83063" lon="0.5684714">
        <time>2022-07-07T10:04:15Z</time>
      </trkpt>
      <trkpt lat="41.83058" lon="0.5685844">
        <time>2022-07-07T10:06:03Z</time>
      </trkpt>
      <trkpt lat="41.8306" lon="0.56866604">
        <time>2022-07-07T10:06:05Z</time>
      </trkpt>
      <trkpt lat="41.830627" lon="0.5687784">
        <time>2022-07-07T10:06:07Z</time>
      </trkpt>
      <trkpt lat="41.83064" lon="0.5689027">
        <time>2022-07-07T10:06:09Z</time>
      </trkpt>
      <trkpt lat="41.830643" lon="0.56897205">
        <time>2022-07-07T10:06:10Z</time>
      </trkpt>
      <trkpt lat="41.830643" lon="0.56905067">
        <time>2022-07-07T10:06:11Z</time>
      </trkpt>
      <trkpt lat="41.830643" lon="0.5691317">
        <time>2022-07-07T10:06:12Z</time>
      </trkpt>
      <trkpt lat="41.830643" lon="0.56921536">
        <time>2022-07-07T10:06:13Z</time>
      </trkpt>
      <trkpt lat="41.830643" lon="0.56930166">
        <time>2022-07-07T10:06:14Z</time>
      </trkpt>
      <trkpt lat="41.830635" lon="0.56938666">
        <time>2022-07-07T10:06:15Z</time>
      </trkpt>
      <trkpt lat="41.830624" lon="0.569465">
        <time>2022-07-07T10:06:16Z</time>
      </trkpt>
      <trkpt lat="41.8306" lon="0.5695313">
        <time>2022-07-07T10:06:17Z</time>
      </trkpt>
      <trkpt lat="41.830566" lon="0.569583">
        <time>2022-07-07T10:06:18Z</time>
      </trkpt>
      <trkpt lat="41.83049" lon="0.56965035">
        <time>2022-07-07T10:06:20Z</time>
      </trkpt>
      <trkpt lat="41.83041" lon="0.56969863">
        <time>2022-07-07T10:06:22Z</time>
      </trkpt>
      <trkpt lat="41.830338" lon="0.569762">
        <time>2022-07-07T10:06:24Z</time>
      </trkpt>
      <trkpt lat="41.830257" lon="0.569838">
        <time>2022-07-07T10:06:26Z</time>
      </trkpt>
      <trkpt lat="41.830223" lon="0.569875">
        <time>2022-07-07T10:06:27Z</time>
      </trkpt>
      <trkpt lat="41.830147" lon="0.56994396">
        <time>2022-07-07T10:06:29Z</time>
      </trkpt>
      <trkpt lat="41.830067" lon="0.56999034">
        <time>2022-07-07T10:06:31Z</time>
      </trkpt>
      <trkpt lat="41.829994" lon="0.57000834">
        <time>2022-07-07T10:06:33Z</time>
      </trkpt>
      <trkpt lat="41.829945" lon="0.56999797">
        <time>2022-07-07T10:06:35Z</time>
      </trkpt>
      <trkpt lat="41.829872" lon="0.57003665">
        <time>2022-07-07T10:07:59Z</time>
      </trkpt>
      <trkpt lat="41.82981" lon="0.5700256">
        <time>2022-07-07T10:08:03Z</time>
      </trkpt>
      <trkpt lat="41.82977" lon="0.56999934">
        <time>2022-07-07T10:08:06Z</time>
      </trkpt>
      <trkpt lat="41.829666" lon="0.56990534">
        <time>2022-07-07T10:11:47Z</time>
      </trkpt>
      <trkpt lat="41.829613" lon="0.56989163">
        <time>2022-07-07T10:11:50Z</time>
      </trkpt>
      <trkpt lat="41.829556" lon="0.569876">
        <time>2022-07-07T10:11:53Z</time>
      </trkpt>
      <trkpt lat="41.8295" lon="0.56983167">
        <time>2022-07-07T10:11:56Z</time>
      </trkpt>
      <trkpt lat="41.829445" lon="0.56979567">
        <time>2022-07-07T10:11:59Z</time>
      </trkpt>
      <trkpt lat="41.829407" lon="0.5697707">
        <time>2022-07-07T10:12:02Z</time>
      </trkpt>
      <trkpt lat="41.829365" lon="0.569806">
        <time>2022-07-07T10:12:07Z</time>
      </trkpt>
      <trkpt lat="41.829353" lon="0.5698933">
        <time>2022-07-07T10:12:11Z</time>
      </trkpt>
      <trkpt lat="41.82934" lon="0.56997097">
        <time>2022-07-07T10:12:14Z</time>
      </trkpt>
      <trkpt lat="41.82933" lon="0.5700657">
        <time>2022-07-07T10:12:17Z</time>
      </trkpt>
      <trkpt lat="41.829323" lon="0.57013696">
        <time>2022-07-07T10:12:19Z</time>
      </trkpt>
      <trkpt lat="41.829315" lon="0.57020164">
        <time>2022-07-07T10:12:21Z</time>
      </trkpt>
      <trkpt lat="41.829308" lon="0.57027566">
        <time>2022-07-07T10:12:24Z</time>
      </trkpt>
      <trkpt lat="41.82932" lon="0.5703536">
        <time>2022-07-07T10:12:28Z</time>
      </trkpt>
      <trkpt lat="41.829372" lon="0.570416">
        <time>2022-07-07T10:12:32Z</time>
      </trkpt>
      <trkpt lat="41.82946" lon="0.5704453">
        <time>2022-07-07T10:12:36Z</time>
      </trkpt>
      <trkpt lat="41.82951" lon="0.5704873">
        <time>2022-07-07T10:12:39Z</time>
      </trkpt>
      <trkpt lat="41.829483" lon="0.5705496">
        <time>2022-07-07T10:12:43Z</time>
      </trkpt>
      <trkpt lat="41.829426" lon="0.5705613">
        <time>2022-07-07T10:12:46Z</time>
      </trkpt>
      <trkpt lat="41.82938" lon="0.57056564">
        <time>2022-07-07T10:12:49Z</time>
      </trkpt>
      <trkpt lat="41.829365" lon="0.5706243">
        <time>2022-07-07T10:12:54Z</time>
      </trkpt>
      <trkpt lat="41.829403" lon="0.57069594">
        <time>2022-07-07T10:12:59Z</time>
      </trkpt>
      <trkpt lat="41.82944" lon="0.5707503">
        <time>2022-07-07T10:13:03Z</time>
      </trkpt>
      <trkpt lat="41.829487" lon="0.5707796">
        <time>2022-07-07T10:13:07Z</time>
      </trkpt>
      <trkpt lat="41.829536" lon="0.5707479">
        <time>2022-07-07T10:13:11Z</time>
      </trkpt>
      <trkpt lat="41.82956" lon="0.57066095">
        <time>2022-07-07T10:13:14Z</time>
      </trkpt>
      <trkpt lat="41.829586" lon="0.57056594">
        <time>2022-07-07T10:13:17Z</time>
      </trkpt>
      <trkpt lat="41.829613" lon="0.57051295">
        <time>2022-07-07T10:13:19Z</time>
      </trkpt>
      <trkpt lat="41.829647" lon="0.57044595">
        <time>2022-07-07T10:13:22Z</time>
      </trkpt>
      <trkpt lat="41.82967" lon="0.5703836">
        <time>2022-07-07T10:13:26Z</time>
      </trkpt>
      <trkpt lat="41.829704" lon="0.57035494">
        <time>2022-07-07T10:13:33Z</time>
      </trkpt>
      <trkpt lat="41.829594" lon="0.57071394">
        <time>2022-07-07T10:14:47Z</time>
      </trkpt>
      <trkpt lat="41.829666" lon="0.5704366">
        <time>2022-07-07T10:16:01Z</time>
      </trkpt>
      <trkpt lat="41.829647" lon="0.57030827">
        <time>2022-07-07T10:19:27Z</time>
      </trkpt>
      <trkpt lat="41.82969" lon="0.57029563">
        <time>2022-07-07T10:19:33Z</time>
      </trkpt>
      <trkpt lat="41.82963" lon="0.57035494">
        <time>2022-07-07T10:19:44Z</time>
      </trkpt>
      <trkpt lat="41.829563" lon="0.5704703">
        <time>2022-07-07T10:32:57Z</time>
      </trkpt>
      <trkpt lat="41.829548" lon="0.5704933">
        <time>2022-07-07T10:33:01Z</time>
      </trkpt>
      <trkpt lat="41.829533" lon="0.57055897">
        <time>2022-07-07T10:33:05Z</time>
      </trkpt>
      <trkpt lat="41.82978" lon="0.5703813">
        <time>2022-07-07T10:54:29Z</time>
      </trkpt>
      <trkpt lat="41.82983" lon="0.5704146">
        <time>2022-07-07T10:54:33Z</time>
      </trkpt>
      <trkpt lat="41.829895" lon="0.570425">
        <time>2022-07-07T10:54:37Z</time>
      </trkpt>
      <trkpt lat="41.82997" lon="0.5704286">
        <time>2022-07-07T10:54:40Z</time>
      </trkpt>
      <trkpt lat="41.83002" lon="0.57044125">
        <time>2022-07-07T10:54:42Z</time>
      </trkpt>
      <trkpt lat="41.830074" lon="0.5704493">
        <time>2022-07-07T10:54:44Z</time>
      </trkpt>
      <trkpt lat="41.830128" lon="0.5704533">
        <time>2022-07-07T10:54:46Z</time>
      </trkpt>
      <trkpt lat="41.83017" lon="0.5704806">
        <time>2022-07-07T10:54:49Z</time>
      </trkpt>
      <trkpt lat="41.83025" lon="0.5705113">
        <time>2022-07-07T10:54:53Z</time>
      </trkpt>
      <trkpt lat="41.830303" lon="0.5705253">
        <time>2022-07-07T10:54:55Z</time>
      </trkpt>
      <trkpt lat="41.830353" lon="0.5705459">
        <time>2022-07-07T10:54:57Z</time>
      </trkpt>
      <trkpt lat="41.830376" lon="0.5706066">
        <time>2022-07-07T10:55:00Z</time>
      </trkpt>
      <trkpt lat="41.830357" lon="0.5707042">
        <time>2022-07-07T10:55:03Z</time>
      </trkpt>
      <trkpt lat="41.83033" lon="0.57079226">
        <time>2022-07-07T10:55:05Z</time>
      </trkpt>
      <trkpt lat="41.83031" lon="0.5708896">
        <time>2022-07-07T10:55:07Z</time>
      </trkpt>
      <trkpt lat="41.830288" lon="0.5710056">
        <time>2022-07-07T10:55:09Z</time>
      </trkpt>
      <trkpt lat="41.83028" lon="0.5710696">
        <time>2022-07-07T10:55:10Z</time>
      </trkpt>
      <trkpt lat="41.830265" lon="0.57119656">
        <time>2022-07-07T10:55:12Z</time>
      </trkpt>
      <trkpt lat="41.83025" lon="0.57133055">
        <time>2022-07-07T10:55:14Z</time>
      </trkpt>
      <trkpt lat="41.830242" lon="0.5713966">
        <time>2022-07-07T10:55:15Z</time>
      </trkpt>
      <trkpt lat="41.830235" lon="0.5714579">
        <time>2022-07-07T10:55:16Z</time>
      </trkpt>
      <trkpt lat="41.83023" lon="0.5715839">
        <time>2022-07-07T10:55:18Z</time>
      </trkpt>
      <trkpt lat="41.830227" lon="0.57171154">
        <time>2022-07-07T10:55:20Z</time>
      </trkpt>
      <trkpt lat="41.830223" lon="0.5718299">
        <time>2022-07-07T10:55:22Z</time>
      </trkpt>
      <trkpt lat="41.830215" lon="0.5719472">
        <time>2022-07-07T10:55:24Z</time>
      </trkpt>
      <trkpt lat="41.830204" lon="0.5720632">
        <time>2022-07-07T10:55:26Z</time>
      </trkpt>
      <trkpt lat="41.83019" lon="0.5721839">
        <time>2022-07-07T10:55:28Z</time>
      </trkpt>
      <trkpt lat="41.83018" lon="0.57225156">
        <time>2022-07-07T10:55:29Z</time>
      </trkpt>
      <trkpt lat="41.830166" lon="0.57239056">
        <time>2022-07-07T10:55:31Z</time>
      </trkpt>
      <trkpt lat="41.830162" lon="0.5724569">
        <time>2022-07-07T10:55:32Z</time>
      </trkpt>
      <trkpt lat="41.830154" lon="0.5726082">
        <time>2022-07-07T10:55:34Z</time>
      </trkpt>
      <trkpt lat="41.830154" lon="0.5726822">
        <time>2022-07-07T10:55:35Z</time>
      </trkpt>
      <trkpt lat="41.830147" lon="0.5727645">
        <time>2022-07-07T10:55:36Z</time>
      </trkpt>
      <trkpt lat="41.830143" lon="0.5728492">
        <time>2022-07-07T10:55:37Z</time>
      </trkpt>
      <trkpt lat="41.83014" lon="0.5729335">
        <time>2022-07-07T10:55:38Z</time>
      </trkpt>
      <trkpt lat="41.83013" lon="0.5730128">
        <time>2022-07-07T10:55:39Z</time>
      </trkpt>
      <trkpt lat="41.830124" lon="0.57309353">
        <time>2022-07-07T10:55:40Z</time>
      </trkpt>
      <trkpt lat="41.830116" lon="0.5731778">
        <time>2022-07-07T10:55:41Z</time>
      </trkpt>
      <trkpt lat="41.830105" lon="0.5732562">
        <time>2022-07-07T10:55:42Z</time>
      </trkpt>
      <trkpt lat="41.83009" lon="0.5733405">
        <time>2022-07-07T10:55:43Z</time>
      </trkpt>
      <trkpt lat="41.83007" lon="0.5734248">
        <time>2022-07-07T10:55:44Z</time>
      </trkpt>
      <trkpt lat="41.830055" lon="0.5735025">
        <time>2022-07-07T10:55:45Z</time>
      </trkpt>
      <trkpt lat="41.830036" lon="0.5735755">
        <time>2022-07-07T10:55:46Z</time>
      </trkpt>
      <trkpt lat="41.830013" lon="0.57365584">
        <time>2022-07-07T10:55:47Z</time>
      </trkpt>
      <trkpt lat="41.82999" lon="0.57372946">
        <time>2022-07-07T10:55:48Z</time>
      </trkpt>
      <trkpt lat="41.829964" lon="0.57380784">
        <time>2022-07-07T10:55:49Z</time>
      </trkpt>
      <trkpt lat="41.829933" lon="0.5738835">
        <time>2022-07-07T10:55:50Z</time>
      </trkpt>
      <trkpt lat="41.829906" lon="0.57395744">
        <time>2022-07-07T10:55:51Z</time>
      </trkpt>
      <trkpt lat="41.82988" lon="0.57402813">
        <time>2022-07-07T10:55:52Z</time>
      </trkpt>
      <trkpt lat="41.82985" lon="0.57409877">
        <time>2022-07-07T10:55:53Z</time>
      </trkpt>
      <trkpt lat="41.829823" lon="0.5741688">
        <time>2022-07-07T10:55:54Z</time>
      </trkpt>
      <trkpt lat="41.8298" lon="0.57423747">
        <time>2022-07-07T10:55:55Z</time>
      </trkpt>
      <trkpt lat="41.82975" lon="0.5743708">
        <time>2022-07-07T10:55:57Z</time>
      </trkpt>
      <trkpt lat="41.829727" lon="0.5744358">
        <time>2022-07-07T10:55:58Z</time>
      </trkpt>
      <trkpt lat="41.829704" lon="0.57450044">
        <time>2022-07-07T10:55:59Z</time>
      </trkpt>
      <trkpt lat="41.829678" lon="0.5745661">
        <time>2022-07-07T10:56:00Z</time>
      </trkpt>
      <trkpt lat="41.829655" lon="0.57463145">
        <time>2022-07-07T10:56:01Z</time>
      </trkpt>
      <trkpt lat="41.82963" lon="0.5746971">
        <time>2022-07-07T10:56:02Z</time>
      </trkpt>
      <trkpt lat="41.829613" lon="0.57476276">
        <time>2022-07-07T10:56:03Z</time>
      </trkpt>
      <trkpt lat="41.82959" lon="0.5748268">
        <time>2022-07-07T10:56:04Z</time>
      </trkpt>
      <trkpt lat="41.829567" lon="0.57489043">
        <time>2022-07-07T10:56:05Z</time>
      </trkpt>
      <trkpt lat="41.829548" lon="0.5749541">
        <time>2022-07-07T10:56:06Z</time>
      </trkpt>
      <trkpt lat="41.829525" lon="0.5750184">
        <time>2022-07-07T10:56:07Z</time>
      </trkpt>
      <trkpt lat="41.82949" lon="0.5751454">
        <time>2022-07-07T10:56:09Z</time>
      </trkpt>
      <trkpt lat="41.82947" lon="0.5752091">
        <time>2022-07-07T10:56:10Z</time>
      </trkpt>
      <trkpt lat="41.829445" lon="0.5753377">
        <time>2022-07-07T10:56:12Z</time>
      </trkpt>
      <trkpt lat="41.829414" lon="0.5754647">
        <time>2022-07-07T10:56:14Z</time>
      </trkpt>
      <trkpt lat="41.829388" lon="0.57559305">
        <time>2022-07-07T10:56:16Z</time>
      </trkpt>
      <trkpt lat="41.829372" lon="0.5756577">
        <time>2022-07-07T10:56:17Z</time>
      </trkpt>
      <trkpt lat="41.829353" lon="0.57578707">
        <time>2022-07-07T10:56:19Z</time>
      </trkpt>
      <trkpt lat="41.829334" lon="0.575914">
        <time>2022-07-07T10:56:21Z</time>
      </trkpt>
      <trkpt lat="41.829323" lon="0.5760427">
        <time>2022-07-07T10:56:23Z</time>
      </trkpt>
      <trkpt lat="41.829315" lon="0.57610834">
        <time>2022-07-07T10:56:24Z</time>
      </trkpt>
      <trkpt lat="41.829304" lon="0.576241">
        <time>2022-07-07T10:56:26Z</time>
      </trkpt>
      <trkpt lat="41.829296" lon="0.57637435">
        <time>2022-07-07T10:56:28Z</time>
      </trkpt>
      <trkpt lat="41.829292" lon="0.57650733">
        <time>2022-07-07T10:56:30Z</time>
      </trkpt>
      <trkpt lat="41.829285" lon="0.57663965">
        <time>2022-07-07T10:56:32Z</time>
      </trkpt>
      <trkpt lat="41.829277" lon="0.57677203">
        <time>2022-07-07T10:56:34Z</time>
      </trkpt>
      <trkpt lat="41.829266" lon="0.57690203">
        <time>2022-07-07T10:56:36Z</time>
      </trkpt>
      <trkpt lat="41.829258" lon="0.5770317">
        <time>2022-07-07T10:56:38Z</time>
      </trkpt>
      <trkpt lat="41.829247" lon="0.57716334">
        <time>2022-07-07T10:56:40Z</time>
      </trkpt>
      <trkpt lat="41.829235" lon="0.57728934">
        <time>2022-07-07T10:56:42Z</time>
      </trkpt>
      <trkpt lat="41.829227" lon="0.57735366">
        <time>2022-07-07T10:56:43Z</time>
      </trkpt>
      <trkpt lat="41.82922" lon="0.57747734">
        <time>2022-07-07T10:56:45Z</time>
      </trkpt>
      <trkpt lat="41.82921" lon="0.57759434">
        <time>2022-07-07T10:56:47Z</time>
      </trkpt>
      <trkpt lat="41.8292" lon="0.57770663">
        <time>2022-07-07T10:56:49Z</time>
      </trkpt>
      <trkpt lat="41.8292" lon="0.57780665">
        <time>2022-07-07T10:56:51Z</time>
      </trkpt>
      <trkpt lat="41.82921" lon="0.577885">
        <time>2022-07-07T10:56:53Z</time>
      </trkpt>
      <trkpt lat="41.829212" lon="0.5779283">
        <time>2022-07-07T10:56:58Z</time>
      </trkpt>
      <trkpt lat="41.829178" lon="0.578026">
        <time>2022-07-07T10:57:36Z</time>
      </trkpt>
      <trkpt lat="41.82915" lon="0.57813865">
        <time>2022-07-07T10:57:39Z</time>
      </trkpt>
      <trkpt lat="41.829132" lon="0.578227">
        <time>2022-07-07T10:57:41Z</time>
      </trkpt>
      <trkpt lat="41.829113" lon="0.57831764">
        <time>2022-07-07T10:57:43Z</time>
      </trkpt>
      <trkpt lat="41.8291" lon="0.57841027">
        <time>2022-07-07T10:57:45Z</time>
      </trkpt>
      <trkpt lat="41.82909" lon="0.57851493">
        <time>2022-07-07T10:57:47Z</time>
      </trkpt>
      <trkpt lat="41.82907" lon="0.5786136">
        <time>2022-07-07T10:57:49Z</time>
      </trkpt>
      <trkpt lat="41.829037" lon="0.5787073">
        <time>2022-07-07T10:57:51Z</time>
      </trkpt>
      <trkpt lat="41.828987" lon="0.5787996">
        <time>2022-07-07T10:57:53Z</time>
      </trkpt>
      <trkpt lat="41.828938" lon="0.5788913">
        <time>2022-07-07T10:57:55Z</time>
      </trkpt>
      <trkpt lat="41.828896" lon="0.5789856">
        <time>2022-07-07T10:57:57Z</time>
      </trkpt>
      <trkpt lat="41.828873" lon="0.5790909">
        <time>2022-07-07T10:57:59Z</time>
      </trkpt>
      <trkpt lat="41.828854" lon="0.57920223">
        <time>2022-07-07T10:58:01Z</time>
      </trkpt>
      <trkpt lat="41.82882" lon="0.57930726">
        <time>2022-07-07T10:58:03Z</time>
      </trkpt>
      <trkpt lat="41.828766" lon="0.57939726">
        <time>2022-07-07T10:58:05Z</time>
      </trkpt>
      <trkpt lat="41.8287" lon="0.5794709">
        <time>2022-07-07T10:58:07Z</time>
      </trkpt>
      <trkpt lat="41.828625" lon="0.57953155">
        <time>2022-07-07T10:58:09Z</time>
      </trkpt>
      <trkpt lat="41.82855" lon="0.57958156">
        <time>2022-07-07T10:58:11Z</time>
      </trkpt>
      <trkpt lat="41.828472" lon="0.57962424">
        <time>2022-07-07T10:58:13Z</time>
      </trkpt>
      <trkpt lat="41.828396" lon="0.5796612">
        <time>2022-07-07T10:58:15Z</time>
      </trkpt>
      <trkpt lat="41.82832" lon="0.5796955">
        <time>2022-07-07T10:58:17Z</time>
      </trkpt>
      <trkpt lat="41.828243" lon="0.57973254">
        <time>2022-07-07T10:58:19Z</time>
      </trkpt>
      <trkpt lat="41.828163" lon="0.57976955">
        <time>2022-07-07T10:58:21Z</time>
      </trkpt>
      <trkpt lat="41.828087" lon="0.57980824">
        <time>2022-07-07T10:58:23Z</time>
      </trkpt>
      <trkpt lat="41.82801" lon="0.5798472">
        <time>2022-07-07T10:58:25Z</time>
      </trkpt>
      <trkpt lat="41.827938" lon="0.57988286">
        <time>2022-07-07T10:58:27Z</time>
      </trkpt>
      <trkpt lat="41.82786" lon="0.5799169">
        <time>2022-07-07T10:58:29Z</time>
      </trkpt>
      <trkpt lat="41.82779" lon="0.5799472">
        <time>2022-07-07T10:58:31Z</time>
      </trkpt>
      <trkpt lat="41.827717" lon="0.5799775">
        <time>2022-07-07T10:58:33Z</time>
      </trkpt>
      <trkpt lat="41.82765" lon="0.5800102">
        <time>2022-07-07T10:58:35Z</time>
      </trkpt>
      <trkpt lat="41.827583" lon="0.5800392">
        <time>2022-07-07T10:58:37Z</time>
      </trkpt>
      <trkpt lat="41.827515" lon="0.5800702">
        <time>2022-07-07T10:58:39Z</time>
      </trkpt>
      <trkpt lat="41.82745" lon="0.58010453">
        <time>2022-07-07T10:58:41Z</time>
      </trkpt>
      <trkpt lat="41.827385" lon="0.5801425">
        <time>2022-07-07T10:58:43Z</time>
      </trkpt>
      <trkpt lat="41.827324" lon="0.5801805">
        <time>2022-07-07T10:58:45Z</time>
      </trkpt>
      <trkpt lat="41.82726" lon="0.5802192">
        <time>2022-07-07T10:58:47Z</time>
      </trkpt>
      <trkpt lat="41.827198" lon="0.5802595">
        <time>2022-07-07T10:58:49Z</time>
      </trkpt>
      <trkpt lat="41.827137" lon="0.5802982">
        <time>2022-07-07T10:58:51Z</time>
      </trkpt>
      <trkpt lat="41.82708" lon="0.5803378">
        <time>2022-07-07T10:58:53Z</time>
      </trkpt>
      <trkpt lat="41.827026" lon="0.5803792">
        <time>2022-07-07T10:58:55Z</time>
      </trkpt>
      <trkpt lat="41.82697" lon="0.5804228">
        <time>2022-07-07T10:58:57Z</time>
      </trkpt>
      <trkpt lat="41.826916" lon="0.58046985">
        <time>2022-07-07T10:58:59Z</time>
      </trkpt>
      <trkpt lat="41.826866" lon="0.58051646">
        <time>2022-07-07T10:59:01Z</time>
      </trkpt>
      <trkpt lat="41.826813" lon="0.5805658">
        <time>2022-07-07T10:59:03Z</time>
      </trkpt>
      <trkpt lat="41.826763" lon="0.58061546">
        <time>2022-07-07T10:59:05Z</time>
      </trkpt>
      <trkpt lat="41.826714" lon="0.5806678">
        <time>2022-07-07T10:59:07Z</time>
      </trkpt>
      <trkpt lat="41.826664" lon="0.5807205">
        <time>2022-07-07T10:59:09Z</time>
      </trkpt>
      <trkpt lat="41.82659" lon="0.58080477">
        <time>2022-07-07T10:59:12Z</time>
      </trkpt>
      <trkpt lat="41.82654" lon="0.5808608">
        <time>2022-07-07T10:59:14Z</time>
      </trkpt>
      <trkpt lat="41.826496" lon="0.58091843">
        <time>2022-07-07T10:59:16Z</time>
      </trkpt>
      <trkpt lat="41.82645" lon="0.58097744">
        <time>2022-07-07T10:59:18Z</time>
      </trkpt>
      <trkpt lat="41.82641" lon="0.5810381">
        <time>2022-07-07T10:59:20Z</time>
      </trkpt>
      <trkpt lat="41.826363" lon="0.58109975">
        <time>2022-07-07T10:59:22Z</time>
      </trkpt>
      <trkpt lat="41.826317" lon="0.5811631">
        <time>2022-07-07T10:59:24Z</time>
      </trkpt>
      <trkpt lat="41.826275" lon="0.58122575">
        <time>2022-07-07T10:59:26Z</time>
      </trkpt>
      <trkpt lat="41.826233" lon="0.5812894">
        <time>2022-07-07T10:59:28Z</time>
      </trkpt>
      <trkpt lat="41.826195" lon="0.58135176">
        <time>2022-07-07T10:59:30Z</time>
      </trkpt>
      <trkpt lat="41.826157" lon="0.5814118">
        <time>2022-07-07T10:59:32Z</time>
      </trkpt>
      <trkpt lat="41.82612" lon="0.58147305">
        <time>2022-07-07T10:59:34Z</time>
      </trkpt>
      <trkpt lat="41.826084" lon="0.58153474">
        <time>2022-07-07T10:59:36Z</time>
      </trkpt>
      <trkpt lat="41.826046" lon="0.5815957">
        <time>2022-07-07T10:59:38Z</time>
      </trkpt>
      <trkpt lat="41.826008" lon="0.5816561">
        <time>2022-07-07T10:59:40Z</time>
      </trkpt>
      <trkpt lat="41.825974" lon="0.58171976">
        <time>2022-07-07T10:59:42Z</time>
      </trkpt>
      <trkpt lat="41.82594" lon="0.5817834">
        <time>2022-07-07T10:59:44Z</time>
      </trkpt>
      <trkpt lat="41.8259" lon="0.581848">
        <time>2022-07-07T10:59:46Z</time>
      </trkpt>
      <trkpt lat="41.82587" lon="0.5819137">
        <time>2022-07-07T10:59:48Z</time>
      </trkpt>
      <trkpt lat="41.825836" lon="0.5819777">
        <time>2022-07-07T10:59:50Z</time>
      </trkpt>
      <trkpt lat="41.8258" lon="0.5820417">
        <time>2022-07-07T10:59:52Z</time>
      </trkpt>
      <trkpt lat="41.825768" lon="0.58210707">
        <time>2022-07-07T10:59:54Z</time>
      </trkpt>
      <trkpt lat="41.825737" lon="0.58217204">
        <time>2022-07-07T10:59:56Z</time>
      </trkpt>
      <trkpt lat="41.825706" lon="0.58223706">
        <time>2022-07-07T10:59:58Z</time>
      </trkpt>
      <trkpt lat="41.825676" lon="0.58230436">
        <time>2022-07-07T11:00:00Z</time>
      </trkpt>
      <trkpt lat="41.825645" lon="0.5823717">
        <time>2022-07-07T11:00:02Z</time>
      </trkpt>
      <trkpt lat="41.825615" lon="0.5824397">
        <time>2022-07-07T11:00:04Z</time>
      </trkpt>
      <trkpt lat="41.825584" lon="0.58251035">
        <time>2022-07-07T11:00:06Z</time>
      </trkpt>
      <trkpt lat="41.825554" lon="0.5825857">
        <time>2022-07-07T11:00:08Z</time>
      </trkpt>
      <trkpt lat="41.825523" lon="0.58266103">
        <time>2022-07-07T11:00:10Z</time>
      </trkpt>
      <trkpt lat="41.825497" lon="0.58273333">
        <time>2022-07-07T11:00:12Z</time>
      </trkpt>
      <trkpt lat="41.825466" lon="0.5828087">
        <time>2022-07-07T11:00:14Z</time>
      </trkpt>
      <trkpt lat="41.825436" lon="0.582885">
        <time>2022-07-07T11:00:16Z</time>
      </trkpt>
      <trkpt lat="41.825405" lon="0.582958">
        <time>2022-07-07T11:00:18Z</time>
      </trkpt>
      <trkpt lat="41.82538" lon="0.5830377">
        <time>2022-07-07T11:00:20Z</time>
      </trkpt>
      <trkpt lat="41.825348" lon="0.583116">
        <time>2022-07-07T11:00:22Z</time>
      </trkpt>
      <trkpt lat="41.825317" lon="0.583192">
        <time>2022-07-07T11:00:24Z</time>
      </trkpt>
      <trkpt lat="41.82529" lon="0.58326966">
        <time>2022-07-07T11:00:26Z</time>
      </trkpt>
      <trkpt lat="41.825264" lon="0.583346">
        <time>2022-07-07T11:00:28Z</time>
      </trkpt>
      <trkpt lat="41.82524" lon="0.5834243">
        <time>2022-07-07T11:00:30Z</time>
      </trkpt>
      <trkpt lat="41.825222" lon="0.5835033">
        <time>2022-07-07T11:00:32Z</time>
      </trkpt>
      <trkpt lat="41.825203" lon="0.58358365">
        <time>2022-07-07T11:00:34Z</time>
      </trkpt>
      <trkpt lat="41.825184" lon="0.583664">
        <time>2022-07-07T11:00:36Z</time>
      </trkpt>
      <trkpt lat="41.825165" lon="0.58374465">
        <time>2022-07-07T11:00:38Z</time>
      </trkpt>
      <trkpt lat="41.825146" lon="0.583824">
        <time>2022-07-07T11:00:40Z</time>
      </trkpt>
      <trkpt lat="41.825127" lon="0.5839033">
        <time>2022-07-07T11:00:42Z</time>
      </trkpt>
      <trkpt lat="41.825104" lon="0.58398396">
        <time>2022-07-07T11:00:44Z</time>
      </trkpt>
      <trkpt lat="41.825085" lon="0.5840646">
        <time>2022-07-07T11:00:46Z</time>
      </trkpt>
      <trkpt lat="41.825066" lon="0.584147">
        <time>2022-07-07T11:00:48Z</time>
      </trkpt>
      <trkpt lat="41.825047" lon="0.5842293">
        <time>2022-07-07T11:00:50Z</time>
      </trkpt>
      <trkpt lat="41.825027" lon="0.5843106">
        <time>2022-07-07T11:00:52Z</time>
      </trkpt>
      <trkpt lat="41.82501" lon="0.5843926">
        <time>2022-07-07T11:00:54Z</time>
      </trkpt>
      <trkpt lat="41.82499" lon="0.5844723">
        <time>2022-07-07T11:00:56Z</time>
      </trkpt>
      <trkpt lat="41.824974" lon="0.5845536">
        <time>2022-07-07T11:00:58Z</time>
      </trkpt>
      <trkpt lat="41.82496" lon="0.5846366">
        <time>2022-07-07T11:01:00Z</time>
      </trkpt>
      <trkpt lat="41.82494" lon="0.5847196">
        <time>2022-07-07T11:01:02Z</time>
      </trkpt>
      <trkpt lat="41.824924" lon="0.5848029">
        <time>2022-07-07T11:01:04Z</time>
      </trkpt>
      <trkpt lat="41.824913" lon="0.58488524">
        <time>2022-07-07T11:01:06Z</time>
      </trkpt>
      <trkpt lat="41.8249" lon="0.58496994">
        <time>2022-07-07T11:01:08Z</time>
      </trkpt>
      <trkpt lat="41.824886" lon="0.5850583">
        <time>2022-07-07T11:01:10Z</time>
      </trkpt>
      <trkpt lat="41.82487" lon="0.58514756">
        <time>2022-07-07T11:01:12Z</time>
      </trkpt>
      <trkpt lat="41.82486" lon="0.5852332">
        <time>2022-07-07T11:01:14Z</time>
      </trkpt>
      <trkpt lat="41.824844" lon="0.5853179">
        <time>2022-07-07T11:01:16Z</time>
      </trkpt>
      <trkpt lat="41.824833" lon="0.58540356">
        <time>2022-07-07T11:01:18Z</time>
      </trkpt>
      <trkpt lat="41.82482" lon="0.5854889">
        <time>2022-07-07T11:01:20Z</time>
      </trkpt>
      <trkpt lat="41.82481" lon="0.5855729">
        <time>2022-07-07T11:01:22Z</time>
      </trkpt>
      <trkpt lat="41.824802" lon="0.58565986">
        <time>2022-07-07T11:01:24Z</time>
      </trkpt>
      <trkpt lat="41.82479" lon="0.58574456">
        <time>2022-07-07T11:01:26Z</time>
      </trkpt>
      <trkpt lat="41.824783" lon="0.5858269">
        <time>2022-07-07T11:01:28Z</time>
      </trkpt>
      <trkpt lat="41.82477" lon="0.5859115">
        <time>2022-07-07T11:01:30Z</time>
      </trkpt>
      <trkpt lat="41.82476" lon="0.58599454">
        <time>2022-07-07T11:01:32Z</time>
      </trkpt>
      <trkpt lat="41.824753" lon="0.5860802">
        <time>2022-07-07T11:01:34Z</time>
      </trkpt>
      <trkpt lat="41.82474" lon="0.5861662">
        <time>2022-07-07T11:01:36Z</time>
      </trkpt>
      <trkpt lat="41.824734" lon="0.58624583">
        <time>2022-07-07T11:01:38Z</time>
      </trkpt>
      <trkpt lat="41.824722" lon="0.5863259">
        <time>2022-07-07T11:01:40Z</time>
      </trkpt>
      <trkpt lat="41.82471" lon="0.58640784">
        <time>2022-07-07T11:01:42Z</time>
      </trkpt>
      <trkpt lat="41.824703" lon="0.58648884">
        <time>2022-07-07T11:01:44Z</time>
      </trkpt>
      <trkpt lat="41.82469" lon="0.5865715">
        <time>2022-07-07T11:01:46Z</time>
      </trkpt>
      <trkpt lat="41.824684" lon="0.58665454">
        <time>2022-07-07T11:01:48Z</time>
      </trkpt>
      <trkpt lat="41.824677" lon="0.58673716">
        <time>2022-07-07T11:01:50Z</time>
      </trkpt>
      <trkpt lat="41.82467" lon="0.58682287">
        <time>2022-07-07T11:01:52Z</time>
      </trkpt>
      <trkpt lat="41.82466" lon="0.5869065">
        <time>2022-07-07T11:01:54Z</time>
      </trkpt>
      <trkpt lat="41.824654" lon="0.5869895">
        <time>2022-07-07T11:01:56Z</time>
      </trkpt>
      <trkpt lat="41.824646" lon="0.58707315">
        <time>2022-07-07T11:01:58Z</time>
      </trkpt>
      <trkpt lat="41.82464" lon="0.5871565">
        <time>2022-07-07T11:02:00Z</time>
      </trkpt>
      <trkpt lat="41.824627" lon="0.58723915">
        <time>2022-07-07T11:02:02Z</time>
      </trkpt>
      <trkpt lat="41.82462" lon="0.5873205">
        <time>2022-07-07T11:02:04Z</time>
      </trkpt>
      <trkpt lat="41.82461" lon="0.58740383">
        <time>2022-07-07T11:02:06Z</time>
      </trkpt>
      <trkpt lat="41.824604" lon="0.58748746">
        <time>2022-07-07T11:02:08Z</time>
      </trkpt>
      <trkpt lat="41.824593" lon="0.5875698">
        <time>2022-07-07T11:02:10Z</time>
      </trkpt>
      <trkpt lat="41.824585" lon="0.58765244">
        <time>2022-07-07T11:02:12Z</time>
      </trkpt>
      <trkpt lat="41.824574" lon="0.58773345">
        <time>2022-07-07T11:02:14Z</time>
      </trkpt>
      <trkpt lat="41.824566" lon="0.5878138">
        <time>2022-07-07T11:02:16Z</time>
      </trkpt>
      <trkpt lat="41.82456" lon="0.5878971">
        <time>2022-07-07T11:02:18Z</time>
      </trkpt>
      <trkpt lat="41.824547" lon="0.5879801">
        <time>2022-07-07T11:02:20Z</time>
      </trkpt>
      <trkpt lat="41.824535" lon="0.5880635">
        <time>2022-07-07T11:02:22Z</time>
      </trkpt>
      <trkpt lat="41.824524" lon="0.58814543">
        <time>2022-07-07T11:02:24Z</time>
      </trkpt>
      <trkpt lat="41.824512" lon="0.5882281">
        <time>2022-07-07T11:02:26Z</time>
      </trkpt>
      <trkpt lat="41.824505" lon="0.58831114">
        <time>2022-07-07T11:02:28Z</time>
      </trkpt>
      <trkpt lat="41.824497" lon="0.58839476">
        <time>2022-07-07T11:02:30Z</time>
      </trkpt>
      <trkpt lat="41.82449" lon="0.58847576">
        <time>2022-07-07T11:02:32Z</time>
      </trkpt>
      <trkpt lat="41.824482" lon="0.5885564">
        <time>2022-07-07T11:02:34Z</time>
      </trkpt>
      <trkpt lat="41.82448" lon="0.58864045">
        <time>2022-07-07T11:02:36Z</time>
      </trkpt>
      <trkpt lat="41.82447" lon="0.58872145">
        <time>2022-07-07T11:02:38Z</time>
      </trkpt>
      <trkpt lat="41.824463" lon="0.58880275">
        <time>2022-07-07T11:02:40Z</time>
      </trkpt>
      <trkpt lat="41.82445" lon="0.58888906">
        <time>2022-07-07T11:02:42Z</time>
      </trkpt>
      <trkpt lat="41.824436" lon="0.5889751">
        <time>2022-07-07T11:02:44Z</time>
      </trkpt>
      <trkpt lat="41.82443" lon="0.5890607">
        <time>2022-07-07T11:02:46Z</time>
      </trkpt>
      <trkpt lat="41.824417" lon="0.58914506">
        <time>2022-07-07T11:02:48Z</time>
      </trkpt>
      <trkpt lat="41.82441" lon="0.58922875">
        <time>2022-07-07T11:02:50Z</time>
      </trkpt>
      <trkpt lat="41.824398" lon="0.58931375">
        <time>2022-07-07T11:02:52Z</time>
      </trkpt>
      <trkpt lat="41.824387" lon="0.5893974">
        <time>2022-07-07T11:02:54Z</time>
      </trkpt>
      <trkpt lat="41.82438" lon="0.5894831">
        <time>2022-07-07T11:02:56Z</time>
      </trkpt>
      <trkpt lat="41.82437" lon="0.58956873">
        <time>2022-07-07T11:02:58Z</time>
      </trkpt>
      <trkpt lat="41.824364" lon="0.5896554">
        <time>2022-07-07T11:03:00Z</time>
      </trkpt>
      <trkpt lat="41.82435" lon="0.5897857">
        <time>2022-07-07T11:03:03Z</time>
      </trkpt>
      <trkpt lat="41.824333" lon="0.58987373">
        <time>2022-07-07T11:03:05Z</time>
      </trkpt>
      <trkpt lat="41.82432" lon="0.5899644">
        <time>2022-07-07T11:03:07Z</time>
      </trkpt>
      <trkpt lat="41.824306" lon="0.590057">
        <time>2022-07-07T11:03:09Z</time>
      </trkpt>
      <trkpt lat="41.824287" lon="0.59015405">
        <time>2022-07-07T11:03:11Z</time>
      </trkpt>
      <trkpt lat="41.82427" lon="0.590254">
        <time>2022-07-07T11:03:13Z</time>
      </trkpt>
      <trkpt lat="41.82424" lon="0.5903567">
        <time>2022-07-07T11:03:15Z</time>
      </trkpt>
      <trkpt lat="41.824207" lon="0.5904607">
        <time>2022-07-07T11:03:17Z</time>
      </trkpt>
      <trkpt lat="41.82417" lon="0.59056336">
        <time>2022-07-07T11:03:19Z</time>
      </trkpt>
      <trkpt lat="41.824123" lon="0.59066737">
        <time>2022-07-07T11:03:21Z</time>
      </trkpt>
      <trkpt lat="41.824074" lon="0.5907673">
        <time>2022-07-07T11:03:23Z</time>
      </trkpt>
      <trkpt lat="41.824017" lon="0.59086436">
        <time>2022-07-07T11:03:25Z</time>
      </trkpt>
      <trkpt lat="41.823956" lon="0.59095633">
        <time>2022-07-07T11:03:27Z</time>
      </trkpt>
      <trkpt lat="41.823925" lon="0.591">
        <time>2022-07-07T11:03:28Z</time>
      </trkpt>
      <trkpt lat="41.823853" lon="0.591083">
        <time>2022-07-07T11:03:30Z</time>
      </trkpt>
      <trkpt lat="41.823776" lon="0.59115964">
        <time>2022-07-07T11:03:32Z</time>
      </trkpt>
      <trkpt lat="41.82374" lon="0.59119534">
        <time>2022-07-07T11:03:33Z</time>
      </trkpt>
      <trkpt lat="41.823658" lon="0.59125865">
        <time>2022-07-07T11:03:35Z</time>
      </trkpt>
      <trkpt lat="41.823578" lon="0.59131634">
        <time>2022-07-07T11:03:37Z</time>
      </trkpt>
      <trkpt lat="41.8235" lon="0.59137064">
        <time>2022-07-07T11:03:39Z</time>
      </trkpt>
      <trkpt lat="41.82342" lon="0.591423">
        <time>2022-07-07T11:03:41Z</time>
      </trkpt>
      <trkpt lat="41.823345" lon="0.59147197">
        <time>2022-07-07T11:03:43Z</time>
      </trkpt>
      <trkpt lat="41.823273" lon="0.5915166">
        <time>2022-07-07T11:03:45Z</time>
      </trkpt>
      <trkpt lat="41.823208" lon="0.5915573">
        <time>2022-07-07T11:03:47Z</time>
      </trkpt>
      <trkpt lat="41.82315" lon="0.59159464">
        <time>2022-07-07T11:03:49Z</time>
      </trkpt>
      <trkpt lat="41.8231" lon="0.5916263">
        <time>2022-07-07T11:03:51Z</time>
      </trkpt>
      <trkpt lat="41.823055" lon="0.59165627">
        <time>2022-07-07T11:03:53Z</time>
      </trkpt>
      <trkpt lat="41.82301" lon="0.5916823">
        <time>2022-07-07T11:03:55Z</time>
      </trkpt>
      <trkpt lat="41.822952" lon="0.5917223">
        <time>2022-07-07T11:03:58Z</time>
      </trkpt>
      <trkpt lat="41.822895" lon="0.59176">
        <time>2022-07-07T11:04:01Z</time>
      </trkpt>
      <trkpt lat="41.822845" lon="0.5917973">
        <time>2022-07-07T11:04:04Z</time>
      </trkpt>
      <trkpt lat="41.822792" lon="0.59183496">
        <time>2022-07-07T11:04:07Z</time>
      </trkpt>
      <trkpt lat="41.82274" lon="0.59187424">
        <time>2022-07-07T11:04:10Z</time>
      </trkpt>
      <trkpt lat="41.82269" lon="0.59191495">
        <time>2022-07-07T11:04:13Z</time>
      </trkpt>
      <trkpt lat="41.822636" lon="0.5919583">
        <time>2022-07-07T11:04:16Z</time>
      </trkpt>
      <trkpt lat="41.822586" lon="0.5920046">
        <time>2022-07-07T11:04:19Z</time>
      </trkpt>
      <trkpt lat="41.82252" lon="0.5920679">
        <time>2022-07-07T11:04:23Z</time>
      </trkpt>
      <trkpt lat="41.82247" lon="0.59211457">
        <time>2022-07-07T11:04:26Z</time>
      </trkpt>
      <trkpt lat="41.822426" lon="0.5921619">
        <time>2022-07-07T11:04:29Z</time>
      </trkpt>
      <trkpt lat="41.822376" lon="0.59221023">
        <time>2022-07-07T11:04:32Z</time>
      </trkpt>
      <trkpt lat="41.822334" lon="0.5922609">
        <time>2022-07-07T11:04:35Z</time>
      </trkpt>
      <trkpt lat="41.82229" lon="0.59231025">
        <time>2022-07-07T11:04:38Z</time>
      </trkpt>
      <trkpt lat="41.822243" lon="0.5923586">
        <time>2022-07-07T11:04:41Z</time>
      </trkpt>
      <trkpt lat="41.822197" lon="0.5924102">
        <time>2022-07-07T11:04:44Z</time>
      </trkpt>
      <trkpt lat="41.822147" lon="0.5924592">
        <time>2022-07-07T11:04:47Z</time>
      </trkpt>
      <trkpt lat="41.822098" lon="0.59250724">
        <time>2022-07-07T11:04:50Z</time>
      </trkpt>
      <trkpt lat="41.822052" lon="0.59255487">
        <time>2022-07-07T11:04:53Z</time>
      </trkpt>
      <trkpt lat="41.822002" lon="0.5926069">
        <time>2022-07-07T11:04:56Z</time>
      </trkpt>
      <trkpt lat="41.821957" lon="0.5926602">
        <time>2022-07-07T11:04:59Z</time>
      </trkpt>
      <trkpt lat="41.821907" lon="0.5927142">
        <time>2022-07-07T11:05:02Z</time>
      </trkpt>
      <trkpt lat="41.82186" lon="0.59276485">
        <time>2022-07-07T11:05:05Z</time>
      </trkpt>
      <trkpt lat="41.82181" lon="0.59281886">
        <time>2022-07-07T11:05:08Z</time>
      </trkpt>
      <trkpt lat="41.821762" lon="0.59287184">
        <time>2022-07-07T11:05:11Z</time>
      </trkpt>
      <trkpt lat="41.821716" lon="0.5929252">
        <time>2022-07-07T11:05:14Z</time>
      </trkpt>
      <trkpt lat="41.821667" lon="0.59297854">
        <time>2022-07-07T11:05:17Z</time>
      </trkpt>
      <trkpt lat="41.82162" lon="0.5930332">
        <time>2022-07-07T11:05:20Z</time>
      </trkpt>
      <trkpt lat="41.82158" lon="0.59309155">
        <time>2022-07-07T11:05:23Z</time>
      </trkpt>
      <trkpt lat="41.821537" lon="0.5931505">
        <time>2022-07-07T11:05:26Z</time>
      </trkpt>
      <trkpt lat="41.821503" lon="0.59321386">
        <time>2022-07-07T11:05:29Z</time>
      </trkpt>
      <trkpt lat="41.82147" lon="0.5932785">
        <time>2022-07-07T11:05:32Z</time>
      </trkpt>
      <trkpt lat="41.821438" lon="0.59334785">
        <time>2022-07-07T11:05:35Z</time>
      </trkpt>
      <trkpt lat="41.821407" lon="0.5934195">
        <time>2022-07-07T11:05:38Z</time>
      </trkpt>
      <trkpt lat="41.82138" lon="0.5934995">
        <time>2022-07-07T11:05:41Z</time>
      </trkpt>
      <trkpt lat="41.821354" lon="0.5935715">
        <time>2022-07-07T11:05:44Z</time>
      </trkpt>
      <trkpt lat="41.82133" lon="0.59364784">
        <time>2022-07-07T11:05:47Z</time>
      </trkpt>
      <trkpt lat="41.82131" lon="0.59372985">
        <time>2022-07-07T11:05:50Z</time>
      </trkpt>
      <trkpt lat="41.821293" lon="0.5938085">
        <time>2022-07-07T11:05:53Z</time>
      </trkpt>
      <trkpt lat="41.821278" lon="0.59388584">
        <time>2022-07-07T11:05:56Z</time>
      </trkpt>
      <trkpt lat="41.821266" lon="0.5939612">
        <time>2022-07-07T11:05:59Z</time>
      </trkpt>
      <trkpt lat="41.82126" lon="0.59404045">
        <time>2022-07-07T11:06:02Z</time>
      </trkpt>
      <trkpt lat="41.821255" lon="0.5941205">
        <time>2022-07-07T11:06:05Z</time>
      </trkpt>
      <trkpt lat="41.82125" lon="0.59420115">
        <time>2022-07-07T11:06:08Z</time>
      </trkpt>
      <trkpt lat="41.82125" lon="0.5942818">
        <time>2022-07-07T11:06:11Z</time>
      </trkpt>
      <trkpt lat="41.821247" lon="0.59436315">
        <time>2022-07-07T11:06:14Z</time>
      </trkpt>
      <trkpt lat="41.821247" lon="0.59444547">
        <time>2022-07-07T11:06:17Z</time>
      </trkpt>
      <trkpt lat="41.821243" lon="0.59452546">
        <time>2022-07-07T11:06:20Z</time>
      </trkpt>
      <trkpt lat="41.821243" lon="0.59460646">
        <time>2022-07-07T11:06:23Z</time>
      </trkpt>
      <trkpt lat="41.821243" lon="0.5946868">
        <time>2022-07-07T11:06:26Z</time>
      </trkpt>
      <trkpt lat="41.821243" lon="0.59477013">
        <time>2022-07-07T11:06:29Z</time>
      </trkpt>
      <trkpt lat="41.821243" lon="0.59485245">
        <time>2022-07-07T11:06:32Z</time>
      </trkpt>
      <trkpt lat="41.82124" lon="0.5949341">
        <time>2022-07-07T11:06:35Z</time>
      </trkpt>
      <trkpt lat="41.82124" lon="0.5950161">
        <time>2022-07-07T11:06:38Z</time>
      </trkpt>
      <trkpt lat="41.821236" lon="0.5950971">
        <time>2022-07-07T11:06:41Z</time>
      </trkpt>
      <trkpt lat="41.821236" lon="0.5951774">
        <time>2022-07-07T11:06:44Z</time>
      </trkpt>
      <trkpt lat="41.821236" lon="0.5952598">
        <time>2022-07-07T11:06:47Z</time>
      </trkpt>
      <trkpt lat="41.821236" lon="0.59534174">
        <time>2022-07-07T11:06:50Z</time>
      </trkpt>
      <trkpt lat="41.82123" lon="0.5954244">
        <time>2022-07-07T11:06:53Z</time>
      </trkpt>
      <trkpt lat="41.821228" lon="0.59551007">
        <time>2022-07-07T11:06:56Z</time>
      </trkpt>
      <trkpt lat="41.82123" lon="0.59559476">
        <time>2022-07-07T11:06:59Z</time>
      </trkpt>
      <trkpt lat="41.82123" lon="0.59568006">
        <time>2022-07-07T11:07:02Z</time>
      </trkpt>
      <trkpt lat="41.82123" lon="0.59576607">
        <time>2022-07-07T11:07:05Z</time>
      </trkpt>
      <trkpt lat="41.821236" lon="0.5958754">
        <time>2022-07-07T11:07:09Z</time>
      </trkpt>
      <trkpt lat="41.82124" lon="0.59595805">
        <time>2022-07-07T11:07:12Z</time>
      </trkpt>
      <trkpt lat="41.821243" lon="0.59603876">
        <time>2022-07-07T11:07:15Z</time>
      </trkpt>
      <trkpt lat="41.82125" lon="0.5961197">
        <time>2022-07-07T11:07:18Z</time>
      </trkpt>
      <trkpt lat="41.82127" lon="0.5962074">
        <time>2022-07-07T11:07:21Z</time>
      </trkpt>
      <trkpt lat="41.821285" lon="0.5963014">
        <time>2022-07-07T11:07:24Z</time>
      </trkpt>
      <trkpt lat="41.821297" lon="0.59640306">
        <time>2022-07-07T11:07:27Z</time>
      </trkpt>
      <trkpt lat="41.821304" lon="0.59647673">
        <time>2022-07-07T11:07:29Z</time>
      </trkpt>
      <trkpt lat="41.821312" lon="0.5965567">
        <time>2022-07-07T11:07:31Z</time>
      </trkpt>
      <trkpt lat="41.821323" lon="0.59664035">
        <time>2022-07-07T11:07:33Z</time>
      </trkpt>
      <trkpt lat="41.821335" lon="0.596723">
        <time>2022-07-07T11:07:35Z</time>
      </trkpt>
      <trkpt lat="41.821342" lon="0.59680337">
        <time>2022-07-07T11:07:37Z</time>
      </trkpt>
      <trkpt lat="41.82135" lon="0.5968807">
        <time>2022-07-07T11:07:39Z</time>
      </trkpt>
      <trkpt lat="41.821358" lon="0.59695405">
        <time>2022-07-07T11:07:41Z</time>
      </trkpt>
      <trkpt lat="41.82137" lon="0.59702736">
        <time>2022-07-07T11:07:43Z</time>
      </trkpt>
      <trkpt lat="41.821377" lon="0.5971067">
        <time>2022-07-07T11:07:45Z</time>
      </trkpt>
      <trkpt lat="41.82138" lon="0.5971877">
        <time>2022-07-07T11:07:47Z</time>
      </trkpt>
      <trkpt lat="41.82139" lon="0.597268">
        <time>2022-07-07T11:07:49Z</time>
      </trkpt>
      <trkpt lat="41.8214" lon="0.5973437">
        <time>2022-07-07T11:07:51Z</time>
      </trkpt>
      <trkpt lat="41.821407" lon="0.5974183">
        <time>2022-07-07T11:07:53Z</time>
      </trkpt>
      <trkpt lat="41.82142" lon="0.59748864">
        <time>2022-07-07T11:07:55Z</time>
      </trkpt>
      <trkpt lat="41.821426" lon="0.5975547">
        <time>2022-07-07T11:07:57Z</time>
      </trkpt>
      <trkpt lat="41.821434" lon="0.5976463">
        <time>2022-07-07T11:08:00Z</time>
      </trkpt>
      <trkpt lat="41.821445" lon="0.59773165">
        <time>2022-07-07T11:08:03Z</time>
      </trkpt>
      <trkpt lat="41.821453" lon="0.597819">
        <time>2022-07-07T11:08:06Z</time>
      </trkpt>
      <trkpt lat="41.82146" lon="0.5978866">
        <time>2022-07-07T11:08:08Z</time>
      </trkpt>
      <trkpt lat="41.821472" lon="0.59795797">
        <time>2022-07-07T11:08:10Z</time>
      </trkpt>
      <trkpt lat="41.821484" lon="0.5980323">
        <time>2022-07-07T11:08:12Z</time>
      </trkpt>
      <trkpt lat="41.821495" lon="0.59810597">
        <time>2022-07-07T11:08:14Z</time>
      </trkpt>
      <trkpt lat="41.821503" lon="0.59818196">
        <time>2022-07-07T11:08:16Z</time>
      </trkpt>
      <trkpt lat="41.821514" lon="0.59826326">
        <time>2022-07-07T11:08:18Z</time>
      </trkpt>
      <trkpt lat="41.821526" lon="0.5983503">
        <time>2022-07-07T11:08:20Z</time>
      </trkpt>
      <trkpt lat="41.821537" lon="0.5984403">
        <time>2022-07-07T11:08:22Z</time>
      </trkpt>
      <trkpt lat="41.82155" lon="0.5985313">
        <time>2022-07-07T11:08:24Z</time>
      </trkpt>
      <trkpt lat="41.82156" lon="0.598623">
        <time>2022-07-07T11:08:26Z</time>
      </trkpt>
      <trkpt lat="41.82157" lon="0.5987156">
        <time>2022-07-07T11:08:28Z</time>
      </trkpt>
      <trkpt lat="41.821575" lon="0.5988086">
        <time>2022-07-07T11:08:30Z</time>
      </trkpt>
      <trkpt lat="41.821575" lon="0.5989026">
        <time>2022-07-07T11:08:32Z</time>
      </trkpt>
      <trkpt lat="41.821575" lon="0.5989973">
        <time>2022-07-07T11:08:34Z</time>
      </trkpt>
      <trkpt lat="41.821575" lon="0.5990916">
        <time>2022-07-07T11:08:36Z</time>
      </trkpt>
      <trkpt lat="41.82157" lon="0.5991866">
        <time>2022-07-07T11:08:38Z</time>
      </trkpt>
      <trkpt lat="41.821568" lon="0.5992826">
        <time>2022-07-07T11:08:40Z</time>
      </trkpt>
      <trkpt lat="41.82156" lon="0.5993783">
        <time>2022-07-07T11:08:42Z</time>
      </trkpt>
      <trkpt lat="41.82155" lon="0.59947157">
        <time>2022-07-07T11:08:44Z</time>
      </trkpt>
      <trkpt lat="41.821537" lon="0.59956557">
        <time>2022-07-07T11:08:46Z</time>
      </trkpt>
      <trkpt lat="41.82152" lon="0.5996616">
        <time>2022-07-07T11:08:48Z</time>
      </trkpt>
      <trkpt lat="41.821503" lon="0.59975594">
        <time>2022-07-07T11:08:50Z</time>
      </trkpt>
      <trkpt lat="41.821487" lon="0.5998496">
        <time>2022-07-07T11:08:52Z</time>
      </trkpt>
      <trkpt lat="41.82147" lon="0.5999432">
        <time>2022-07-07T11:08:54Z</time>
      </trkpt>
      <trkpt lat="41.82145" lon="0.60003656">
        <time>2022-07-07T11:08:56Z</time>
      </trkpt>
      <trkpt lat="41.82143" lon="0.6001299">
        <time>2022-07-07T11:08:58Z</time>
      </trkpt>
      <trkpt lat="41.82141" lon="0.6002249">
        <time>2022-07-07T11:09:00Z</time>
      </trkpt>
      <trkpt lat="41.821392" lon="0.60031855">
        <time>2022-07-07T11:09:02Z</time>
      </trkpt>
      <trkpt lat="41.82137" lon="0.6004129">
        <time>2022-07-07T11:09:04Z</time>
      </trkpt>
      <trkpt lat="41.82135" lon="0.6005092">
        <time>2022-07-07T11:09:06Z</time>
      </trkpt>
      <trkpt lat="41.821335" lon="0.60060185">
        <time>2022-07-07T11:09:08Z</time>
      </trkpt>
      <trkpt lat="41.821316" lon="0.60069185">
        <time>2022-07-07T11:09:10Z</time>
      </trkpt>
      <trkpt lat="41.8213" lon="0.6007802">
        <time>2022-07-07T11:09:12Z</time>
      </trkpt>
      <trkpt lat="41.82128" lon="0.6008702">
        <time>2022-07-07T11:09:14Z</time>
      </trkpt>
      <trkpt lat="41.82126" lon="0.60096455">
        <time>2022-07-07T11:09:16Z</time>
      </trkpt>
      <trkpt lat="41.82124" lon="0.60105985">
        <time>2022-07-07T11:09:18Z</time>
      </trkpt>
      <trkpt lat="41.82122" lon="0.6011542">
        <time>2022-07-07T11:09:20Z</time>
      </trkpt>
      <trkpt lat="41.8212" lon="0.6012499">
        <time>2022-07-07T11:09:22Z</time>
      </trkpt>
      <trkpt lat="41.821182" lon="0.6013475">
        <time>2022-07-07T11:09:24Z</time>
      </trkpt>
      <trkpt lat="41.82116" lon="0.60144085">
        <time>2022-07-07T11:09:26Z</time>
      </trkpt>
      <trkpt lat="41.82114" lon="0.60153717">
        <time>2022-07-07T11:09:28Z</time>
      </trkpt>
      <trkpt lat="41.821125" lon="0.6016255">
        <time>2022-07-07T11:09:30Z</time>
      </trkpt>
      <trkpt lat="41.82111" lon="0.60171014">
        <time>2022-07-07T11:09:32Z</time>
      </trkpt>
      <trkpt lat="41.82109" lon="0.60180116">
        <time>2022-07-07T11:09:34Z</time>
      </trkpt>
      <trkpt lat="41.82107" lon="0.6018855">
        <time>2022-07-07T11:09:36Z</time>
      </trkpt>
      <trkpt lat="41.821053" lon="0.6019695">
        <time>2022-07-07T11:09:38Z</time>
      </trkpt>
      <trkpt lat="41.821037" lon="0.6020492">
        <time>2022-07-07T11:09:40Z</time>
      </trkpt>
      <trkpt lat="41.821026" lon="0.60212517">
        <time>2022-07-07T11:09:42Z</time>
      </trkpt>
      <trkpt lat="41.82101" lon="0.6022018">
        <time>2022-07-07T11:09:44Z</time>
      </trkpt>
      <trkpt lat="41.821" lon="0.60228145">
        <time>2022-07-07T11:09:46Z</time>
      </trkpt>
      <trkpt lat="41.820984" lon="0.6023595">
        <time>2022-07-07T11:09:48Z</time>
      </trkpt>
      <trkpt lat="41.82097" lon="0.60243714">
        <time>2022-07-07T11:09:50Z</time>
      </trkpt>
      <trkpt lat="41.820953" lon="0.6025161">
        <time>2022-07-07T11:09:52Z</time>
      </trkpt>
      <trkpt lat="41.82094" lon="0.6025948">
        <time>2022-07-07T11:09:54Z</time>
      </trkpt>
      <trkpt lat="41.820923" lon="0.60267216">
        <time>2022-07-07T11:09:56Z</time>
      </trkpt>
      <trkpt lat="41.820908" lon="0.6027448">
        <time>2022-07-07T11:09:58Z</time>
      </trkpt>
      <trkpt lat="41.820896" lon="0.6028151">
        <time>2022-07-07T11:10:00Z</time>
      </trkpt>
      <trkpt lat="41.820873" lon="0.6029191">
        <time>2022-07-07T11:10:03Z</time>
      </trkpt>
      <trkpt lat="41.82086" lon="0.6029888">
        <time>2022-07-07T11:10:05Z</time>
      </trkpt>
      <trkpt lat="41.820843" lon="0.60305876">
        <time>2022-07-07T11:10:07Z</time>
      </trkpt>
      <trkpt lat="41.820827" lon="0.6031288">
        <time>2022-07-07T11:10:09Z</time>
      </trkpt>
      <trkpt lat="41.820812" lon="0.6031991">
        <time>2022-07-07T11:10:11Z</time>
      </trkpt>
      <trkpt lat="41.820797" lon="0.60326743">
        <time>2022-07-07T11:10:13Z</time>
      </trkpt>
      <trkpt lat="41.82078" lon="0.60333645">
        <time>2022-07-07T11:10:15Z</time>
      </trkpt>
      <trkpt lat="41.820766" lon="0.6034071">
        <time>2022-07-07T11:10:17Z</time>
      </trkpt>
      <trkpt lat="41.820755" lon="0.6034778">
        <time>2022-07-07T11:10:19Z</time>
      </trkpt>
      <trkpt lat="41.820744" lon="0.60355073">
        <time>2022-07-07T11:10:21Z</time>
      </trkpt>
      <trkpt lat="41.820724" lon="0.60366476">
        <time>2022-07-07T11:10:24Z</time>
      </trkpt>
      <trkpt lat="41.82071" lon="0.6037424">
        <time>2022-07-07T11:10:26Z</time>
      </trkpt>
      <trkpt lat="41.82069" lon="0.6038174">
        <time>2022-07-07T11:10:28Z</time>
      </trkpt>
      <trkpt lat="41.820675" lon="0.6038931">
        <time>2022-07-07T11:10:30Z</time>
      </trkpt>
      <trkpt lat="41.820656" lon="0.60397106">
        <time>2022-07-07T11:10:32Z</time>
      </trkpt>
      <trkpt lat="41.82064" lon="0.6040491">
        <time>2022-07-07T11:10:34Z</time>
      </trkpt>
      <trkpt lat="41.820625" lon="0.6041264">
        <time>2022-07-07T11:10:36Z</time>
      </trkpt>
      <trkpt lat="41.820606" lon="0.6042061">
        <time>2022-07-07T11:10:38Z</time>
      </trkpt>
      <trkpt lat="41.82059" lon="0.6042864">
        <time>2022-07-07T11:10:40Z</time>
      </trkpt>
      <trkpt lat="41.82057" lon="0.6043657">
        <time>2022-07-07T11:10:42Z</time>
      </trkpt>
      <trkpt lat="41.820553" lon="0.60444504">
        <time>2022-07-07T11:10:44Z</time>
      </trkpt>
      <trkpt lat="41.820538" lon="0.6045237">
        <time>2022-07-07T11:10:46Z</time>
      </trkpt>
      <trkpt lat="41.820522" lon="0.60459936">
        <time>2022-07-07T11:10:48Z</time>
      </trkpt>
      <trkpt lat="41.820507" lon="0.6046487">
        <time>2022-07-07T11:10:50Z</time>
      </trkpt>
      <trkpt lat="41.820496" lon="0.6047647">
        <time>2022-07-07T11:12:27Z</time>
      </trkpt>
      <trkpt lat="41.820488" lon="0.6048367">
        <time>2022-07-07T11:12:29Z</time>
      </trkpt>
      <trkpt lat="41.820477" lon="0.6049147">
        <time>2022-07-07T11:12:31Z</time>
      </trkpt>
      <trkpt lat="41.820465" lon="0.60499334">
        <time>2022-07-07T11:12:33Z</time>
      </trkpt>
      <trkpt lat="41.82045" lon="0.6050677">
        <time>2022-07-07T11:12:35Z</time>
      </trkpt>
      <trkpt lat="41.82044" lon="0.6051407">
        <time>2022-07-07T11:12:37Z</time>
      </trkpt>
      <trkpt lat="41.820427" lon="0.60521406">
        <time>2022-07-07T11:12:39Z</time>
      </trkpt>
      <trkpt lat="41.820415" lon="0.6052887">
        <time>2022-07-07T11:12:41Z</time>
      </trkpt>
      <trkpt lat="41.8204" lon="0.605364">
        <time>2022-07-07T11:12:43Z</time>
      </trkpt>
      <trkpt lat="41.82039" lon="0.60544103">
        <time>2022-07-07T11:12:45Z</time>
      </trkpt>
      <trkpt lat="41.820377" lon="0.6055187">
        <time>2022-07-07T11:12:47Z</time>
      </trkpt>
      <trkpt lat="41.820366" lon="0.6056047">
        <time>2022-07-07T11:12:49Z</time>
      </trkpt>
      <trkpt lat="41.820354" lon="0.6056827">
        <time>2022-07-07T11:12:51Z</time>
      </trkpt>
      <trkpt lat="41.820343" lon="0.6057643">
        <time>2022-07-07T11:12:53Z</time>
      </trkpt>
      <trkpt lat="41.820335" lon="0.60584867">
        <time>2022-07-07T11:12:55Z</time>
      </trkpt>
      <trkpt lat="41.82033" lon="0.60593534">
        <time>2022-07-07T11:12:57Z</time>
      </trkpt>
      <trkpt lat="41.820324" lon="0.60602367">
        <time>2022-07-07T11:12:59Z</time>
      </trkpt>
      <trkpt lat="41.820316" lon="0.606114">
        <time>2022-07-07T11:13:01Z</time>
      </trkpt>
      <trkpt lat="41.82031" lon="0.6062083">
        <time>2022-07-07T11:13:03Z</time>
      </trkpt>
      <trkpt lat="41.8203" lon="0.60630465">
        <time>2022-07-07T11:13:05Z</time>
      </trkpt>
      <trkpt lat="41.820293" lon="0.60640365">
        <time>2022-07-07T11:13:07Z</time>
      </trkpt>
      <trkpt lat="41.820282" lon="0.6065033">
        <time>2022-07-07T11:13:09Z</time>
      </trkpt>
      <trkpt lat="41.82027" lon="0.60660464">
        <time>2022-07-07T11:13:11Z</time>
      </trkpt>
      <trkpt lat="41.820263" lon="0.60670567">
        <time>2022-07-07T11:13:13Z</time>
      </trkpt>
      <trkpt lat="41.82025" lon="0.606807">
        <time>2022-07-07T11:13:15Z</time>
      </trkpt>
      <trkpt lat="41.820244" lon="0.6069083">
        <time>2022-07-07T11:13:17Z</time>
      </trkpt>
      <trkpt lat="41.820236" lon="0.60700864">
        <time>2022-07-07T11:13:19Z</time>
      </trkpt>
      <trkpt lat="41.820225" lon="0.6071093">
        <time>2022-07-07T11:13:21Z</time>
      </trkpt>
      <trkpt lat="41.820217" lon="0.60721165">
        <time>2022-07-07T11:13:23Z</time>
      </trkpt>
      <trkpt lat="41.82021" lon="0.60731494">
        <time>2022-07-07T11:13:25Z</time>
      </trkpt>
      <trkpt lat="41.8202" lon="0.6074236">
        <time>2022-07-07T11:13:27Z</time>
      </trkpt>
      <trkpt lat="41.82019" lon="0.6075316">
        <time>2022-07-07T11:13:29Z</time>
      </trkpt>
      <trkpt lat="41.820183" lon="0.60763526">
        <time>2022-07-07T11:13:31Z</time>
      </trkpt>
      <trkpt lat="41.82017" lon="0.60778695">
        <time>2022-07-07T11:13:34Z</time>
      </trkpt>
      <trkpt lat="41.820164" lon="0.60788494">
        <time>2022-07-07T11:13:36Z</time>
      </trkpt>
      <trkpt lat="41.820152" lon="0.60798526">
        <time>2022-07-07T11:13:38Z</time>
      </trkpt>
      <trkpt lat="41.820145" lon="0.6080879">
        <time>2022-07-07T11:13:40Z</time>
      </trkpt>
      <trkpt lat="41.820137" lon="0.60818857">
        <time>2022-07-07T11:13:42Z</time>
      </trkpt>
      <trkpt lat="41.820126" lon="0.60829157">
        <time>2022-07-07T11:13:44Z</time>
      </trkpt>
      <trkpt lat="41.820118" lon="0.60839593">
        <time>2022-07-07T11:13:46Z</time>
      </trkpt>
      <trkpt lat="41.82011" lon="0.6084956">
        <time>2022-07-07T11:13:48Z</time>
      </trkpt>
      <trkpt lat="41.8201" lon="0.6085976">
        <time>2022-07-07T11:13:50Z</time>
      </trkpt>
      <trkpt lat="41.82009" lon="0.60869855">
        <time>2022-07-07T11:13:52Z</time>
      </trkpt>
      <trkpt lat="41.82008" lon="0.6088042">
        <time>2022-07-07T11:13:54Z</time>
      </trkpt>
      <trkpt lat="41.82007" lon="0.6089029">
        <time>2022-07-07T11:13:56Z</time>
      </trkpt>
      <trkpt lat="41.820065" lon="0.6090065">
        <time>2022-07-07T11:13:58Z</time>
      </trkpt>
      <trkpt lat="41.820053" lon="0.60911155">
        <time>2022-07-07T11:14:00Z</time>
      </trkpt>
      <trkpt lat="41.82004" lon="0.60921454">
        <time>2022-07-07T11:14:02Z</time>
      </trkpt>
      <trkpt lat="41.82003" lon="0.6093219">
        <time>2022-07-07T11:14:04Z</time>
      </trkpt>
      <trkpt lat="41.82002" lon="0.6094292">
        <time>2022-07-07T11:14:06Z</time>
      </trkpt>
      <trkpt lat="41.820004" lon="0.6095442">
        <time>2022-07-07T11:14:08Z</time>
      </trkpt>
      <trkpt lat="41.819984" lon="0.6096702">
        <time>2022-07-07T11:14:10Z</time>
      </trkpt>
      <trkpt lat="41.819977" lon="0.6097375">
        <time>2022-07-07T11:14:11Z</time>
      </trkpt>
      <trkpt lat="41.819958" lon="0.6098679">
        <time>2022-07-07T11:14:13Z</time>
      </trkpt>
      <trkpt lat="41.819935" lon="0.6100102">
        <time>2022-07-07T11:14:15Z</time>
      </trkpt>
      <trkpt lat="41.819927" lon="0.61008286">
        <time>2022-07-07T11:14:16Z</time>
      </trkpt>
      <trkpt lat="41.819916" lon="0.6101509">
        <time>2022-07-07T11:14:17Z</time>
      </trkpt>
      <trkpt lat="41.81991" lon="0.61022085">
        <time>2022-07-07T11:14:18Z</time>
      </trkpt>
      <trkpt lat="41.819897" lon="0.61029285">
        <time>2022-07-07T11:14:19Z</time>
      </trkpt>
      <trkpt lat="41.819885" lon="0.61036617">
        <time>2022-07-07T11:14:20Z</time>
      </trkpt>
      <trkpt lat="41.819874" lon="0.6104415">
        <time>2022-07-07T11:14:21Z</time>
      </trkpt>
      <trkpt lat="41.819862" lon="0.6105172">
        <time>2022-07-07T11:14:22Z</time>
      </trkpt>
      <trkpt lat="41.81985" lon="0.61059415">
        <time>2022-07-07T11:14:23Z</time>
      </trkpt>
      <trkpt lat="41.81984" lon="0.61067384">
        <time>2022-07-07T11:14:24Z</time>
      </trkpt>
      <trkpt lat="41.819828" lon="0.61075586">
        <time>2022-07-07T11:14:25Z</time>
      </trkpt>
      <trkpt lat="41.819817" lon="0.61083984">
        <time>2022-07-07T11:14:26Z</time>
      </trkpt>
      <trkpt lat="41.819805" lon="0.61092585">
        <time>2022-07-07T11:14:27Z</time>
      </trkpt>
      <trkpt lat="41.819794" lon="0.6110132">
        <time>2022-07-07T11:14:28Z</time>
      </trkpt>
      <trkpt lat="41.81978" lon="0.6111025">
        <time>2022-07-07T11:14:29Z</time>
      </trkpt>
      <trkpt lat="41.819767" lon="0.6111935">
        <time>2022-07-07T11:14:30Z</time>
      </trkpt>
      <trkpt lat="41.819756" lon="0.61128414">
        <time>2022-07-07T11:14:31Z</time>
      </trkpt>
      <trkpt lat="41.819744" lon="0.6113755">
        <time>2022-07-07T11:14:32Z</time>
      </trkpt>
      <trkpt lat="41.81973" lon="0.6114671">
        <time>2022-07-07T11:14:33Z</time>
      </trkpt>
      <trkpt lat="41.819717" lon="0.61156017">
        <time>2022-07-07T11:14:34Z</time>
      </trkpt>
      <trkpt lat="41.819702" lon="0.61165315">
        <time>2022-07-07T11:14:35Z</time>
      </trkpt>
      <trkpt lat="41.819687" lon="0.6117468">
        <time>2022-07-07T11:14:36Z</time>
      </trkpt>
      <trkpt lat="41.819675" lon="0.6118408">
        <time>2022-07-07T11:14:37Z</time>
      </trkpt>
      <trkpt lat="41.81966" lon="0.61193615">
        <time>2022-07-07T11:14:38Z</time>
      </trkpt>
      <trkpt lat="41.819633" lon="0.61213315">
        <time>2022-07-07T11:14:40Z</time>
      </trkpt>
      <trkpt lat="41.81962" lon="0.6122338">
        <time>2022-07-07T11:14:41Z</time>
      </trkpt>
      <trkpt lat="41.819603" lon="0.6123425">
        <time>2022-07-07T11:14:42Z</time>
      </trkpt>
      <trkpt lat="41.819584" lon="0.6124501">
        <time>2022-07-07T11:14:43Z</time>
      </trkpt>
      <trkpt lat="41.81957" lon="0.6125561">
        <time>2022-07-07T11:14:44Z</time>
      </trkpt>
      <trkpt lat="41.819553" lon="0.6126618">
        <time>2022-07-07T11:14:45Z</time>
      </trkpt>
      <trkpt lat="41.819534" lon="0.61276776">
        <time>2022-07-07T11:14:46Z</time>
      </trkpt>
      <trkpt lat="41.81952" lon="0.6128741">
        <time>2022-07-07T11:14:47Z</time>
      </trkpt>
      <trkpt lat="41.819504" lon="0.6129804">
        <time>2022-07-07T11:14:48Z</time>
      </trkpt>
      <trkpt lat="41.81949" lon="0.61308044">
        <time>2022-07-07T11:14:49Z</time>
      </trkpt>
      <trkpt lat="41.819473" lon="0.6131838">
        <time>2022-07-07T11:14:50Z</time>
      </trkpt>
      <trkpt lat="41.819454" lon="0.6132961">
        <time>2022-07-07T11:14:51Z</time>
      </trkpt>
      <trkpt lat="41.81944" lon="0.6134081">
        <time>2022-07-07T11:14:52Z</time>
      </trkpt>
      <trkpt lat="41.81942" lon="0.6135198">
        <time>2022-07-07T11:14:53Z</time>
      </trkpt>
      <trkpt lat="41.819405" lon="0.6136308">
        <time>2022-07-07T11:14:54Z</time>
      </trkpt>
      <trkpt lat="41.81939" lon="0.61373377">
        <time>2022-07-07T11:14:55Z</time>
      </trkpt>
      <trkpt lat="41.819374" lon="0.61384577">
        <time>2022-07-07T11:14:56Z</time>
      </trkpt>
      <trkpt lat="41.81936" lon="0.6139561">
        <time>2022-07-07T11:14:57Z</time>
      </trkpt>
      <trkpt lat="41.819344" lon="0.6140651">
        <time>2022-07-07T11:14:58Z</time>
      </trkpt>
      <trkpt lat="41.81933" lon="0.61417174">
        <time>2022-07-07T11:14:59Z</time>
      </trkpt>
      <trkpt lat="41.819313" lon="0.61427677">
        <time>2022-07-07T11:15:00Z</time>
      </trkpt>
      <trkpt lat="41.819298" lon="0.6143808">
        <time>2022-07-07T11:15:01Z</time>
      </trkpt>
      <trkpt lat="41.819283" lon="0.6144834">
        <time>2022-07-07T11:15:02Z</time>
      </trkpt>
      <trkpt lat="41.81927" lon="0.61458606">
        <time>2022-07-07T11:15:03Z</time>
      </trkpt>
      <trkpt lat="41.819256" lon="0.6146881">
        <time>2022-07-07T11:15:04Z</time>
      </trkpt>
      <trkpt lat="41.81924" lon="0.6147887">
        <time>2022-07-07T11:15:05Z</time>
      </trkpt>
      <trkpt lat="41.819225" lon="0.6148881">
        <time>2022-07-07T11:15:06Z</time>
      </trkpt>
      <trkpt lat="41.81921" lon="0.61498606">
        <time>2022-07-07T11:15:07Z</time>
      </trkpt>
      <trkpt lat="41.819195" lon="0.61508274">
        <time>2022-07-07T11:15:08Z</time>
      </trkpt>
      <trkpt lat="41.819183" lon="0.6151774">
        <time>2022-07-07T11:15:09Z</time>
      </trkpt>
      <trkpt lat="41.819168" lon="0.6152714">
        <time>2022-07-07T11:15:10Z</time>
      </trkpt>
      <trkpt lat="41.819157" lon="0.61536336">
        <time>2022-07-07T11:15:11Z</time>
      </trkpt>
      <trkpt lat="41.81914" lon="0.615454">
        <time>2022-07-07T11:15:12Z</time>
      </trkpt>
      <trkpt lat="41.81913" lon="0.61554337">
        <time>2022-07-07T11:15:13Z</time>
      </trkpt>
      <trkpt lat="41.81912" lon="0.61563206">
        <time>2022-07-07T11:15:14Z</time>
      </trkpt>
      <trkpt lat="41.819103" lon="0.61572003">
        <time>2022-07-07T11:15:15Z</time>
      </trkpt>
      <trkpt lat="41.81909" lon="0.61580735">
        <time>2022-07-07T11:15:16Z</time>
      </trkpt>
      <trkpt lat="41.81908" lon="0.61589366">
        <time>2022-07-07T11:15:17Z</time>
      </trkpt>
      <trkpt lat="41.819065" lon="0.6159777">
        <time>2022-07-07T11:15:18Z</time>
      </trkpt>
      <trkpt lat="41.819046" lon="0.61606103">
        <time>2022-07-07T11:15:19Z</time>
      </trkpt>
      <trkpt lat="41.81903" lon="0.616144">
        <time>2022-07-07T11:15:20Z</time>
      </trkpt>
      <trkpt lat="41.81901" lon="0.61622566">
        <time>2022-07-07T11:15:21Z</time>
      </trkpt>
      <trkpt lat="41.81899" lon="0.61630636">
        <time>2022-07-07T11:15:22Z</time>
      </trkpt>
      <trkpt lat="41.81897" lon="0.616388">
        <time>2022-07-07T11:15:23Z</time>
      </trkpt>
      <trkpt lat="41.81895" lon="0.6164697">
        <time>2022-07-07T11:15:24Z</time>
      </trkpt>
      <trkpt lat="41.81893" lon="0.61655134">
        <time>2022-07-07T11:15:25Z</time>
      </trkpt>
      <trkpt lat="41.81891" lon="0.616633">
        <time>2022-07-07T11:15:26Z</time>
      </trkpt>
      <trkpt lat="41.818886" lon="0.61671567">
        <time>2022-07-07T11:15:27Z</time>
      </trkpt>
      <trkpt lat="41.818867" lon="0.616799">
        <time>2022-07-07T11:15:28Z</time>
      </trkpt>
      <trkpt lat="41.818844" lon="0.61688364">
        <time>2022-07-07T11:15:29Z</time>
      </trkpt>
      <trkpt lat="41.81882" lon="0.6169676">
        <time>2022-07-07T11:15:30Z</time>
      </trkpt>
      <trkpt lat="41.818798" lon="0.6170526">
        <time>2022-07-07T11:15:31Z</time>
      </trkpt>
      <trkpt lat="41.818775" lon="0.6171376">
        <time>2022-07-07T11:15:32Z</time>
      </trkpt>
      <trkpt lat="41.818752" lon="0.61722326">
        <time>2022-07-07T11:15:33Z</time>
      </trkpt>
      <trkpt lat="41.81873" lon="0.617309">
        <time>2022-07-07T11:15:34Z</time>
      </trkpt>
      <trkpt lat="41.818707" lon="0.61739564">
        <time>2022-07-07T11:15:35Z</time>
      </trkpt>
      <trkpt lat="41.818687" lon="0.61748224">
        <time>2022-07-07T11:15:36Z</time>
      </trkpt>
      <trkpt lat="41.818665" lon="0.61756927">
        <time>2022-07-07T11:15:37Z</time>
      </trkpt>
      <trkpt lat="41.81864" lon="0.6176563">
        <time>2022-07-07T11:15:38Z</time>
      </trkpt>
      <trkpt lat="41.81862" lon="0.6177439">
        <time>2022-07-07T11:15:39Z</time>
      </trkpt>
      <trkpt lat="41.818592" lon="0.6178313">
        <time>2022-07-07T11:15:40Z</time>
      </trkpt>
      <trkpt lat="41.81857" lon="0.61791825">
        <time>2022-07-07T11:15:41Z</time>
      </trkpt>
      <trkpt lat="41.818546" lon="0.6179999">
        <time>2022-07-07T11:15:42Z</time>
      </trkpt>
      <trkpt lat="41.8185" lon="0.6181713">
        <time>2022-07-07T11:15:44Z</time>
      </trkpt>
      <trkpt lat="41.81848" lon="0.6182549">
        <time>2022-07-07T11:15:45Z</time>
      </trkpt>
      <trkpt lat="41.81846" lon="0.61833924">
        <time>2022-07-07T11:15:46Z</time>
      </trkpt>
      <trkpt lat="41.81843" lon="0.6184236">
        <time>2022-07-07T11:15:47Z</time>
      </trkpt>
      <trkpt lat="41.81841" lon="0.6185089">
        <time>2022-07-07T11:15:48Z</time>
      </trkpt>
      <trkpt lat="41.818386" lon="0.6185946">
        <time>2022-07-07T11:15:49Z</time>
      </trkpt>
      <trkpt lat="41.818367" lon="0.61867887">
        <time>2022-07-07T11:15:50Z</time>
      </trkpt>
      <trkpt lat="41.818344" lon="0.61876357">
        <time>2022-07-07T11:15:51Z</time>
      </trkpt>
      <trkpt lat="41.81832" lon="0.6188482">
        <time>2022-07-07T11:15:52Z</time>
      </trkpt>
      <trkpt lat="41.818302" lon="0.6189322">
        <time>2022-07-07T11:15:53Z</time>
      </trkpt>
      <trkpt lat="41.81828" lon="0.6190169">
        <time>2022-07-07T11:15:54Z</time>
      </trkpt>
      <trkpt lat="41.818256" lon="0.6191022">
        <time>2022-07-07T11:15:55Z</time>
      </trkpt>
      <trkpt lat="41.818233" lon="0.6191872">
        <time>2022-07-07T11:15:56Z</time>
      </trkpt>
      <trkpt lat="41.81821" lon="0.6192782">
        <time>2022-07-07T11:15:57Z</time>
      </trkpt>
      <trkpt lat="41.818184" lon="0.61936855">
        <time>2022-07-07T11:15:58Z</time>
      </trkpt>
      <trkpt lat="41.81816" lon="0.6194565">
        <time>2022-07-07T11:15:59Z</time>
      </trkpt>
      <trkpt lat="41.818142" lon="0.61953855">
        <time>2022-07-07T11:16:00Z</time>
      </trkpt>
      <trkpt lat="41.81812" lon="0.6196222">
        <time>2022-07-07T11:16:01Z</time>
      </trkpt>
      <trkpt lat="41.818096" lon="0.6197062">
        <time>2022-07-07T11:16:02Z</time>
      </trkpt>
      <trkpt lat="41.818073" lon="0.6197905">
        <time>2022-07-07T11:16:03Z</time>
      </trkpt>
      <trkpt lat="41.81805" lon="0.61987454">
        <time>2022-07-07T11:16:04Z</time>
      </trkpt>
      <trkpt lat="41.818027" lon="0.6199638">
        <time>2022-07-07T11:16:05Z</time>
      </trkpt>
      <trkpt lat="41.818005" lon="0.6200455">
        <time>2022-07-07T11:16:06Z</time>
      </trkpt>
      <trkpt lat="41.817986" lon="0.6201275">
        <time>2022-07-07T11:16:07Z</time>
      </trkpt>
      <trkpt lat="41.817963" lon="0.6202095">
        <time>2022-07-07T11:16:08Z</time>
      </trkpt>
      <trkpt lat="41.81794" lon="0.6202918">
        <time>2022-07-07T11:16:09Z</time>
      </trkpt>
      <trkpt lat="41.817917" lon="0.62037414">
        <time>2022-07-07T11:16:10Z</time>
      </trkpt>
      <trkpt lat="41.817894" lon="0.6204565">
        <time>2022-07-07T11:16:11Z</time>
      </trkpt>
      <trkpt lat="41.817875" lon="0.6205392">
        <time>2022-07-07T11:16:12Z</time>
      </trkpt>
      <trkpt lat="41.817852" lon="0.62062615">
        <time>2022-07-07T11:16:13Z</time>
      </trkpt>
      <trkpt lat="41.81783" lon="0.62071115">
        <time>2022-07-07T11:16:14Z</time>
      </trkpt>
      <trkpt lat="41.81781" lon="0.6207888">
        <time>2022-07-07T11:16:15Z</time>
      </trkpt>
      <trkpt lat="41.817787" lon="0.62086785">
        <time>2022-07-07T11:16:16Z</time>
      </trkpt>
      <trkpt lat="41.81777" lon="0.62094784">
        <time>2022-07-07T11:16:17Z</time>
      </trkpt>
      <trkpt lat="41.817745" lon="0.62102884">
        <time>2022-07-07T11:16:18Z</time>
      </trkpt>
      <trkpt lat="41.817726" lon="0.6211095">
        <time>2022-07-07T11:16:19Z</time>
      </trkpt>
      <trkpt lat="41.817703" lon="0.6211945">
        <time>2022-07-07T11:16:20Z</time>
      </trkpt>
      <trkpt lat="41.817684" lon="0.62127215">
        <time>2022-07-07T11:16:21Z</time>
      </trkpt>
      <trkpt lat="41.817665" lon="0.6213558">
        <time>2022-07-07T11:16:22Z</time>
      </trkpt>
      <trkpt lat="41.817642" lon="0.62143314">
        <time>2022-07-07T11:16:23Z</time>
      </trkpt>
      <trkpt lat="41.817623" lon="0.62151015">
        <time>2022-07-07T11:16:24Z</time>
      </trkpt>
      <trkpt lat="41.817604" lon="0.62158644">
        <time>2022-07-07T11:16:25Z</time>
      </trkpt>
      <trkpt lat="41.817585" lon="0.62166244">
        <time>2022-07-07T11:16:26Z</time>
      </trkpt>
      <trkpt lat="41.817562" lon="0.6217388">
        <time>2022-07-07T11:16:27Z</time>
      </trkpt>
      <trkpt lat="41.817543" lon="0.62181944">
        <time>2022-07-07T11:16:28Z</time>
      </trkpt>
      <trkpt lat="41.817524" lon="0.62189776">
        <time>2022-07-07T11:16:29Z</time>
      </trkpt>
      <trkpt lat="41.8175" lon="0.6219751">
        <time>2022-07-07T11:16:30Z</time>
      </trkpt>
      <trkpt lat="41.817482" lon="0.62205046">
        <time>2022-07-07T11:16:31Z</time>
      </trkpt>
      <trkpt lat="41.817463" lon="0.6221201">
        <time>2022-07-07T11:16:32Z</time>
      </trkpt>
      <trkpt lat="41.817448" lon="0.6221918">
        <time>2022-07-07T11:16:33Z</time>
      </trkpt>
      <trkpt lat="41.81743" lon="0.6222628">
        <time>2022-07-07T11:16:34Z</time>
      </trkpt>
      <trkpt lat="41.817406" lon="0.6223388">
        <time>2022-07-07T11:16:35Z</time>
      </trkpt>
      <trkpt lat="41.817387" lon="0.62241244">
        <time>2022-07-07T11:16:36Z</time>
      </trkpt>
      <trkpt lat="41.817368" lon="0.6224854">
        <time>2022-07-07T11:16:37Z</time>
      </trkpt>
      <trkpt lat="41.81735" lon="0.62255675">
        <time>2022-07-07T11:16:38Z</time>
      </trkpt>
      <trkpt lat="41.81733" lon="0.62262774">
        <time>2022-07-07T11:16:39Z</time>
      </trkpt>
      <trkpt lat="41.81731" lon="0.6226978">
        <time>2022-07-07T11:16:40Z</time>
      </trkpt>
      <trkpt lat="41.81729" lon="0.62276673">
        <time>2022-07-07T11:16:41Z</time>
      </trkpt>
      <trkpt lat="41.817276" lon="0.6228314">
        <time>2022-07-07T11:16:42Z</time>
      </trkpt>
      <trkpt lat="41.81726" lon="0.6229007">
        <time>2022-07-07T11:16:43Z</time>
      </trkpt>
      <trkpt lat="41.81724" lon="0.62296975">
        <time>2022-07-07T11:16:44Z</time>
      </trkpt>
      <trkpt lat="41.817223" lon="0.62303776">
        <time>2022-07-07T11:16:45Z</time>
      </trkpt>
      <trkpt lat="41.817207" lon="0.62310505">
        <time>2022-07-07T11:16:46Z</time>
      </trkpt>
      <trkpt lat="41.81719" lon="0.62317175">
        <time>2022-07-07T11:16:47Z</time>
      </trkpt>
      <trkpt lat="41.81717" lon="0.6232377">
        <time>2022-07-07T11:16:48Z</time>
      </trkpt>
      <trkpt lat="41.81714" lon="0.6233664">
        <time>2022-07-07T11:16:50Z</time>
      </trkpt>
      <trkpt lat="41.817123" lon="0.62343204">
        <time>2022-07-07T11:16:51Z</time>
      </trkpt>
      <trkpt lat="41.817104" lon="0.6234957">
        <time>2022-07-07T11:16:52Z</time>
      </trkpt>
      <trkpt lat="41.81709" lon="0.62355834">
        <time>2022-07-07T11:16:53Z</time>
      </trkpt>
      <trkpt lat="41.817055" lon="0.6236807">
        <time>2022-07-07T11:16:55Z</time>
      </trkpt>
      <trkpt lat="41.817024" lon="0.6237984">
        <time>2022-07-07T11:16:57Z</time>
      </trkpt>
      <trkpt lat="41.816994" lon="0.6239077">
        <time>2022-07-07T11:16:59Z</time>
      </trkpt>
      <trkpt lat="41.816963" lon="0.62401104">
        <time>2022-07-07T11:17:01Z</time>
      </trkpt>
      <trkpt lat="41.81694" lon="0.62410605">
        <time>2022-07-07T11:17:03Z</time>
      </trkpt>
      <trkpt lat="41.816914" lon="0.62419766">
        <time>2022-07-07T11:17:05Z</time>
      </trkpt>
      <trkpt lat="41.81689" lon="0.624285">
        <time>2022-07-07T11:17:07Z</time>
      </trkpt>
      <trkpt lat="41.816868" lon="0.62436736">
        <time>2022-07-07T11:17:09Z</time>
      </trkpt>
      <trkpt lat="41.81685" lon="0.62444365">
        <time>2022-07-07T11:17:11Z</time>
      </trkpt>
      <trkpt lat="41.81683" lon="0.62452066">
        <time>2022-07-07T11:17:13Z</time>
      </trkpt>
      <trkpt lat="41.816807" lon="0.6245947">
        <time>2022-07-07T11:17:15Z</time>
      </trkpt>
      <trkpt lat="41.816784" lon="0.624667">
        <time>2022-07-07T11:17:17Z</time>
      </trkpt>
      <trkpt lat="41.816765" lon="0.6247373">
        <time>2022-07-07T11:17:19Z</time>
      </trkpt>
      <trkpt lat="41.81675" lon="0.6248083">
        <time>2022-07-07T11:17:21Z</time>
      </trkpt>
      <trkpt lat="41.81673" lon="0.62487435">
        <time>2022-07-07T11:17:23Z</time>
      </trkpt>
      <trkpt lat="41.816708" lon="0.624938">
        <time>2022-07-07T11:17:25Z</time>
      </trkpt>
      <trkpt lat="41.816692" lon="0.62499934">
        <time>2022-07-07T11:17:27Z</time>
      </trkpt>
      <trkpt lat="41.816666" lon="0.62509364">
        <time>2022-07-07T11:17:30Z</time>
      </trkpt>
      <trkpt lat="41.81665" lon="0.6251553">
        <time>2022-07-07T11:17:32Z</time>
      </trkpt>
      <trkpt lat="41.816628" lon="0.62525">
        <time>2022-07-07T11:17:35Z</time>
      </trkpt>
      <trkpt lat="41.8166" lon="0.6253453">
        <time>2022-07-07T11:17:38Z</time>
      </trkpt>
      <trkpt lat="41.816586" lon="0.6254106">
        <time>2022-07-07T11:17:40Z</time>
      </trkpt>
      <trkpt lat="41.816566" lon="0.6254753">
        <time>2022-07-07T11:17:42Z</time>
      </trkpt>
      <trkpt lat="41.81654" lon="0.62556994">
        <time>2022-07-07T11:17:45Z</time>
      </trkpt>
      <trkpt lat="41.816517" lon="0.62563396">
        <time>2022-07-07T11:17:47Z</time>
      </trkpt>
      <trkpt lat="41.81649" lon="0.6257323">
        <time>2022-07-07T11:17:50Z</time>
      </trkpt>
      <trkpt lat="41.816475" lon="0.62579596">
        <time>2022-07-07T11:17:52Z</time>
      </trkpt>
      <trkpt lat="41.81646" lon="0.62585926">
        <time>2022-07-07T11:17:54Z</time>
      </trkpt>
      <trkpt lat="41.816433" lon="0.6259589">
        <time>2022-07-07T11:17:57Z</time>
      </trkpt>
      <trkpt lat="41.816414" lon="0.6260259">
        <time>2022-07-07T11:17:59Z</time>
      </trkpt>
      <trkpt lat="41.8164" lon="0.6260926">
        <time>2022-07-07T11:18:01Z</time>
      </trkpt>
      <trkpt lat="41.81638" lon="0.6261626">
        <time>2022-07-07T11:18:03Z</time>
      </trkpt>
      <trkpt lat="41.816357" lon="0.6262373">
        <time>2022-07-07T11:18:05Z</time>
      </trkpt>
      <trkpt lat="41.816338" lon="0.62631625">
        <time>2022-07-07T11:18:07Z</time>
      </trkpt>
      <trkpt lat="41.816315" lon="0.62639856">
        <time>2022-07-07T11:18:09Z</time>
      </trkpt>
      <trkpt lat="41.81629" lon="0.6264892">
        <time>2022-07-07T11:18:11Z</time>
      </trkpt>
      <trkpt lat="41.81627" lon="0.6265889">
        <time>2022-07-07T11:18:13Z</time>
      </trkpt>
      <trkpt lat="41.81624" lon="0.6266962">
        <time>2022-07-07T11:18:15Z</time>
      </trkpt>
      <trkpt lat="41.816208" lon="0.6268122">
        <time>2022-07-07T11:18:17Z</time>
      </trkpt>
      <trkpt lat="41.81617" lon="0.6269369">
        <time>2022-07-07T11:18:19Z</time>
      </trkpt>
      <trkpt lat="41.81613" lon="0.6270682">
        <time>2022-07-07T11:18:21Z</time>
      </trkpt>
      <trkpt lat="41.816113" lon="0.62713754">
        <time>2022-07-07T11:18:22Z</time>
      </trkpt>
      <trkpt lat="41.81609" lon="0.62721056">
        <time>2022-07-07T11:18:23Z</time>
      </trkpt>
      <trkpt lat="41.81607" lon="0.62728554">
        <time>2022-07-07T11:18:24Z</time>
      </trkpt>
      <trkpt lat="41.816048" lon="0.62736255">
        <time>2022-07-07T11:18:25Z</time>
      </trkpt>
      <trkpt lat="41.816025" lon="0.6274392">
        <time>2022-07-07T11:18:26Z</time>
      </trkpt>
      <trkpt lat="41.815998" lon="0.62751687">
        <time>2022-07-07T11:18:27Z</time>
      </trkpt>
      <trkpt lat="41.815975" lon="0.62759554">
        <time>2022-07-07T11:18:28Z</time>
      </trkpt>
      <trkpt lat="41.815952" lon="0.6276749">
        <time>2022-07-07T11:18:29Z</time>
      </trkpt>
      <trkpt lat="41.815926" lon="0.6277559">
        <time>2022-07-07T11:18:30Z</time>
      </trkpt>
      <trkpt lat="41.815903" lon="0.62783754">
        <time>2022-07-07T11:18:31Z</time>
      </trkpt>
      <trkpt lat="41.81588" lon="0.62792015">
        <time>2022-07-07T11:18:32Z</time>
      </trkpt>
      <trkpt lat="41.815857" lon="0.62800485">
        <time>2022-07-07T11:18:33Z</time>
      </trkpt>
      <trkpt lat="41.815834" lon="0.6280915">
        <time>2022-07-07T11:18:34Z</time>
      </trkpt>
      <trkpt lat="41.81581" lon="0.6281785">
        <time>2022-07-07T11:18:35Z</time>
      </trkpt>
      <trkpt lat="41.815792" lon="0.6282625">
        <time>2022-07-07T11:18:36Z</time>
      </trkpt>
      <trkpt lat="41.815773" lon="0.6283445">
        <time>2022-07-07T11:18:37Z</time>
      </trkpt>
      <trkpt lat="41.815754" lon="0.6284278">
        <time>2022-07-07T11:18:38Z</time>
      </trkpt>
      <trkpt lat="41.815735" lon="0.62851185">
        <time>2022-07-07T11:18:39Z</time>
      </trkpt>
      <trkpt lat="41.815716" lon="0.6286002">
        <time>2022-07-07T11:18:40Z</time>
      </trkpt>
      <trkpt lat="41.815697" lon="0.62868917">
        <time>2022-07-07T11:18:41Z</time>
      </trkpt>
      <trkpt lat="41.81568" lon="0.6287785">
        <time>2022-07-07T11:18:42Z</time>
      </trkpt>
      <trkpt lat="41.815666" lon="0.6288678">
        <time>2022-07-07T11:18:43Z</time>
      </trkpt>
      <trkpt lat="41.815655" lon="0.6289525">
        <time>2022-07-07T11:18:44Z</time>
      </trkpt>
      <trkpt lat="41.815643" lon="0.6290468">
        <time>2022-07-07T11:18:45Z</time>
      </trkpt>
      <trkpt lat="41.815636" lon="0.62914115">
        <time>2022-07-07T11:18:46Z</time>
      </trkpt>
      <trkpt lat="41.815624" lon="0.6292358">
        <time>2022-07-07T11:18:47Z</time>
      </trkpt>
      <trkpt lat="41.815617" lon="0.6293238">
        <time>2022-07-07T11:18:48Z</time>
      </trkpt>
      <trkpt lat="41.815613" lon="0.6294138">
        <time>2022-07-07T11:18:49Z</time>
      </trkpt>
      <trkpt lat="41.8156" lon="0.6295125">
        <time>2022-07-07T11:18:50Z</time>
      </trkpt>
      <trkpt lat="41.815594" lon="0.6296105">
        <time>2022-07-07T11:18:51Z</time>
      </trkpt>
      <trkpt lat="41.81559" lon="0.6297068">
        <time>2022-07-07T11:18:52Z</time>
      </trkpt>
      <trkpt lat="41.815582" lon="0.62980247">
        <time>2022-07-07T11:18:53Z</time>
      </trkpt>
      <trkpt lat="41.815575" lon="0.62989646">
        <time>2022-07-07T11:18:54Z</time>
      </trkpt>
      <trkpt lat="41.815567" lon="0.6299898">
        <time>2022-07-07T11:18:55Z</time>
      </trkpt>
      <trkpt lat="41.81556" lon="0.6300828">
        <time>2022-07-07T11:18:56Z</time>
      </trkpt>
      <trkpt lat="41.81555" lon="0.63017476">
        <time>2022-07-07T11:18:57Z</time>
      </trkpt>
      <trkpt lat="41.815544" lon="0.6302664">
        <time>2022-07-07T11:18:58Z</time>
      </trkpt>
      <trkpt lat="41.815533" lon="0.6304471">
        <time>2022-07-07T11:19:00Z</time>
      </trkpt>
      <trkpt lat="41.81553" lon="0.6305371">
        <time>2022-07-07T11:19:01Z</time>
      </trkpt>
      <trkpt lat="41.81552" lon="0.6306251">
        <time>2022-07-07T11:19:02Z</time>
      </trkpt>
      <trkpt lat="41.815517" lon="0.63071245">
        <time>2022-07-07T11:19:03Z</time>
      </trkpt>
      <trkpt lat="41.81551" lon="0.63079846">
        <time>2022-07-07T11:19:04Z</time>
      </trkpt>
      <trkpt lat="41.815502" lon="0.63088244">
        <time>2022-07-07T11:19:05Z</time>
      </trkpt>
      <trkpt lat="41.8155" lon="0.63096446">
        <time>2022-07-07T11:19:06Z</time>
      </trkpt>
      <trkpt lat="41.81549" lon="0.63104475">
        <time>2022-07-07T11:19:07Z</time>
      </trkpt>
      <trkpt lat="41.815483" lon="0.6311241">
        <time>2022-07-07T11:19:08Z</time>
      </trkpt>
      <trkpt lat="41.815475" lon="0.6312031">
        <time>2022-07-07T11:19:09Z</time>
      </trkpt>
      <trkpt lat="41.815468" lon="0.63128173">
        <time>2022-07-07T11:19:10Z</time>
      </trkpt>
      <trkpt lat="41.81546" lon="0.63135976">
        <time>2022-07-07T11:19:11Z</time>
      </trkpt>
      <trkpt lat="41.815453" lon="0.63143677">
        <time>2022-07-07T11:19:12Z</time>
      </trkpt>
      <trkpt lat="41.81545" lon="0.63151306">
        <time>2022-07-07T11:19:13Z</time>
      </trkpt>
      <trkpt lat="41.81544" lon="0.6315924">
        <time>2022-07-07T11:19:14Z</time>
      </trkpt>
      <trkpt lat="41.815437" lon="0.6316641">
        <time>2022-07-07T11:19:15Z</time>
      </trkpt>
      <trkpt lat="41.81543" lon="0.6317347">
        <time>2022-07-07T11:19:16Z</time>
      </trkpt>
      <trkpt lat="41.815426" lon="0.6318047">
        <time>2022-07-07T11:19:17Z</time>
      </trkpt>
      <trkpt lat="41.815422" lon="0.6318744">
        <time>2022-07-07T11:19:18Z</time>
      </trkpt>
      <trkpt lat="41.815414" lon="0.6319444">
        <time>2022-07-07T11:19:19Z</time>
      </trkpt>
      <trkpt lat="41.815407" lon="0.6320144">
        <time>2022-07-07T11:19:20Z</time>
      </trkpt>
      <trkpt lat="41.815403" lon="0.6320841">
        <time>2022-07-07T11:19:21Z</time>
      </trkpt>
      <trkpt lat="41.81539" lon="0.6322214">
        <time>2022-07-07T11:19:23Z</time>
      </trkpt>
      <trkpt lat="41.815384" lon="0.632291">
        <time>2022-07-07T11:19:24Z</time>
      </trkpt>
      <trkpt lat="41.815376" lon="0.6323607">
        <time>2022-07-07T11:19:25Z</time>
      </trkpt>
      <trkpt lat="41.81537" lon="0.6324307">
        <time>2022-07-07T11:19:26Z</time>
      </trkpt>
      <trkpt lat="41.81535" lon="0.63257104">
        <time>2022-07-07T11:19:28Z</time>
      </trkpt>
      <trkpt lat="41.81534" lon="0.632641">
        <time>2022-07-07T11:19:29Z</time>
      </trkpt>
      <trkpt lat="41.815327" lon="0.63271034">
        <time>2022-07-07T11:19:30Z</time>
      </trkpt>
      <trkpt lat="41.815315" lon="0.63278">
        <time>2022-07-07T11:19:31Z</time>
      </trkpt>
      <trkpt lat="41.815304" lon="0.63285">
        <time>2022-07-07T11:19:32Z</time>
      </trkpt>
      <trkpt lat="41.81529" lon="0.6329203">
        <time>2022-07-07T11:19:33Z</time>
      </trkpt>
      <trkpt lat="41.815277" lon="0.6329917">
        <time>2022-07-07T11:19:34Z</time>
      </trkpt>
      <trkpt lat="41.815258" lon="0.6330637">
        <time>2022-07-07T11:19:35Z</time>
      </trkpt>
      <trkpt lat="41.815243" lon="0.63313603">
        <time>2022-07-07T11:19:36Z</time>
      </trkpt>
      <trkpt lat="41.815228" lon="0.63320935">
        <time>2022-07-07T11:19:37Z</time>
      </trkpt>
      <trkpt lat="41.815212" lon="0.633282">
        <time>2022-07-07T11:19:38Z</time>
      </trkpt>
      <trkpt lat="41.815193" lon="0.6333543">
        <time>2022-07-07T11:19:39Z</time>
      </trkpt>
      <trkpt lat="41.815178" lon="0.63342696">
        <time>2022-07-07T11:19:40Z</time>
      </trkpt>
      <trkpt lat="41.81516" lon="0.63350064">
        <time>2022-07-07T11:19:41Z</time>
      </trkpt>
      <trkpt lat="41.815144" lon="0.63357496">
        <time>2022-07-07T11:19:42Z</time>
      </trkpt>
      <trkpt lat="41.815125" lon="0.6336493">
        <time>2022-07-07T11:19:43Z</time>
      </trkpt>
      <trkpt lat="41.81511" lon="0.6337236">
        <time>2022-07-07T11:19:44Z</time>
      </trkpt>
      <trkpt lat="41.81509" lon="0.6337983">
        <time>2022-07-07T11:19:45Z</time>
      </trkpt>
      <trkpt lat="41.81507" lon="0.63387394">
        <time>2022-07-07T11:19:46Z</time>
      </trkpt>
      <trkpt lat="41.815052" lon="0.6339503">
        <time>2022-07-07T11:19:47Z</time>
      </trkpt>
      <trkpt lat="41.815033" lon="0.6340253">
        <time>2022-07-07T11:19:48Z</time>
      </trkpt>
      <trkpt lat="41.815018" lon="0.634101">
        <time>2022-07-07T11:19:49Z</time>
      </trkpt>
      <trkpt lat="41.815" lon="0.63417697">
        <time>2022-07-07T11:19:50Z</time>
      </trkpt>
      <trkpt lat="41.814983" lon="0.634254">
        <time>2022-07-07T11:19:51Z</time>
      </trkpt>
      <trkpt lat="41.814964" lon="0.6343309">
        <time>2022-07-07T11:19:52Z</time>
      </trkpt>
      <trkpt lat="41.814945" lon="0.6344083">
        <time>2022-07-07T11:19:53Z</time>
      </trkpt>
      <trkpt lat="41.814926" lon="0.63448495">
        <time>2022-07-07T11:19:54Z</time>
      </trkpt>
      <trkpt lat="41.81491" lon="0.63456196">
        <time>2022-07-07T11:19:55Z</time>
      </trkpt>
      <trkpt lat="41.81489" lon="0.63463926">
        <time>2022-07-07T11:19:56Z</time>
      </trkpt>
      <trkpt lat="41.81488" lon="0.6347169">
        <time>2022-07-07T11:19:57Z</time>
      </trkpt>
      <trkpt lat="41.814865" lon="0.6347936">
        <time>2022-07-07T11:19:58Z</time>
      </trkpt>
      <trkpt lat="41.81485" lon="0.63487226">
        <time>2022-07-07T11:19:59Z</time>
      </trkpt>
      <trkpt lat="41.814835" lon="0.63495094">
        <time>2022-07-07T11:20:00Z</time>
      </trkpt>
      <trkpt lat="41.814823" lon="0.6350309">
        <time>2022-07-07T11:20:01Z</time>
      </trkpt>
      <trkpt lat="41.814808" lon="0.6351119">
        <time>2022-07-07T11:20:02Z</time>
      </trkpt>
      <trkpt lat="41.814796" lon="0.63519526">
        <time>2022-07-07T11:20:03Z</time>
      </trkpt>
      <trkpt lat="41.81478" lon="0.63528025">
        <time>2022-07-07T11:20:04Z</time>
      </trkpt>
      <trkpt lat="41.81477" lon="0.63536626">
        <time>2022-07-07T11:20:05Z</time>
      </trkpt>
      <trkpt lat="41.81476" lon="0.63545424">
        <time>2022-07-07T11:20:06Z</time>
      </trkpt>
      <trkpt lat="41.814728" lon="0.6356339">
        <time>2022-07-07T11:20:08Z</time>
      </trkpt>
      <trkpt lat="41.814713" lon="0.6357249">
        <time>2022-07-07T11:20:09Z</time>
      </trkpt>
      <trkpt lat="41.814693" lon="0.6358166">
        <time>2022-07-07T11:20:10Z</time>
      </trkpt>
      <trkpt lat="41.81467" lon="0.63590825">
        <time>2022-07-07T11:20:11Z</time>
      </trkpt>
      <trkpt lat="41.814648" lon="0.63599825">
        <time>2022-07-07T11:20:12Z</time>
      </trkpt>
      <trkpt lat="41.81462" lon="0.6360882">
        <time>2022-07-07T11:20:13Z</time>
      </trkpt>
      <trkpt lat="41.814594" lon="0.6361782">
        <time>2022-07-07T11:20:14Z</time>
      </trkpt>
      <trkpt lat="41.814564" lon="0.6362692">
        <time>2022-07-07T11:20:15Z</time>
      </trkpt>
      <trkpt lat="41.814533" lon="0.63636124">
        <time>2022-07-07T11:20:16Z</time>
      </trkpt>
      <trkpt lat="41.814507" lon="0.6364469">
        <time>2022-07-07T11:20:17Z</time>
      </trkpt>
      <trkpt lat="41.814476" lon="0.6365419">
        <time>2022-07-07T11:20:18Z</time>
      </trkpt>
      <trkpt lat="41.814445" lon="0.63663757">
        <time>2022-07-07T11:20:19Z</time>
      </trkpt>
      <trkpt lat="41.814415" lon="0.6367339">
        <time>2022-07-07T11:20:20Z</time>
      </trkpt>
      <trkpt lat="41.814384" lon="0.63682956">
        <time>2022-07-07T11:20:21Z</time>
      </trkpt>
      <trkpt lat="41.81435" lon="0.6369242">
        <time>2022-07-07T11:20:22Z</time>
      </trkpt>
      <trkpt lat="41.81432" lon="0.6370159">
        <time>2022-07-07T11:20:23Z</time>
      </trkpt>
      <trkpt lat="41.81429" lon="0.6371062">
        <time>2022-07-07T11:20:24Z</time>
      </trkpt>
      <trkpt lat="41.81426" lon="0.6371945">
        <time>2022-07-07T11:20:25Z</time>
      </trkpt>
      <trkpt lat="41.81423" lon="0.6372808">
        <time>2022-07-07T11:20:26Z</time>
      </trkpt>
      <trkpt lat="41.81421" lon="0.6373645">
        <time>2022-07-07T11:20:27Z</time>
      </trkpt>
      <trkpt lat="41.81418" lon="0.6374515">
        <time>2022-07-07T11:20:28Z</time>
      </trkpt>
      <trkpt lat="41.81415" lon="0.63752884">
        <time>2022-07-07T11:20:29Z</time>
      </trkpt>
      <trkpt lat="41.81413" lon="0.63760614">
        <time>2022-07-07T11:20:30Z</time>
      </trkpt>
      <trkpt lat="41.814106" lon="0.6376885">
        <time>2022-07-07T11:20:31Z</time>
      </trkpt>
      <trkpt lat="41.81408" lon="0.6377675">
        <time>2022-07-07T11:20:32Z</time>
      </trkpt>
      <trkpt lat="41.814056" lon="0.6378398">
        <time>2022-07-07T11:20:33Z</time>
      </trkpt>
      <trkpt lat="41.814034" lon="0.6379128">
        <time>2022-07-07T11:20:34Z</time>
      </trkpt>
      <trkpt lat="41.814007" lon="0.6379861">
        <time>2022-07-07T11:20:35Z</time>
      </trkpt>
      <trkpt lat="41.813984" lon="0.6380581">
        <time>2022-07-07T11:20:36Z</time>
      </trkpt>
      <trkpt lat="41.813965" lon="0.63812846">
        <time>2022-07-07T11:20:37Z</time>
      </trkpt>
      <trkpt lat="41.813942" lon="0.6381975">
        <time>2022-07-07T11:20:38Z</time>
      </trkpt>
      <trkpt lat="41.81392" lon="0.6382665">
        <time>2022-07-07T11:20:39Z</time>
      </trkpt>
      <trkpt lat="41.8139" lon="0.6383361">
        <time>2022-07-07T11:20:40Z</time>
      </trkpt>
      <trkpt lat="41.813877" lon="0.6384078">
        <time>2022-07-07T11:20:41Z</time>
      </trkpt>
      <trkpt lat="41.813858" lon="0.6384788">
        <time>2022-07-07T11:20:42Z</time>
      </trkpt>
      <trkpt lat="41.813835" lon="0.63854945">
        <time>2022-07-07T11:20:43Z</time>
      </trkpt>
      <trkpt lat="41.813812" lon="0.6386198">
        <time>2022-07-07T11:20:44Z</time>
      </trkpt>
      <trkpt lat="41.813793" lon="0.6386901">
        <time>2022-07-07T11:20:45Z</time>
      </trkpt>
      <trkpt lat="41.81377" lon="0.6387608">
        <time>2022-07-07T11:20:46Z</time>
      </trkpt>
      <trkpt lat="41.813747" lon="0.6388331">
        <time>2022-07-07T11:20:47Z</time>
      </trkpt>
      <trkpt lat="41.813725" lon="0.6389061">
        <time>2022-07-07T11:20:48Z</time>
      </trkpt>
      <trkpt lat="41.8137" lon="0.63898045">
        <time>2022-07-07T11:20:49Z</time>
      </trkpt>
      <trkpt lat="41.81368" lon="0.6390571">
        <time>2022-07-07T11:20:50Z</time>
      </trkpt>
      <trkpt lat="41.813652" lon="0.6391361">
        <time>2022-07-07T11:20:51Z</time>
      </trkpt>
      <trkpt lat="41.81363" lon="0.63921744">
        <time>2022-07-07T11:20:52Z</time>
      </trkpt>
      <trkpt lat="41.813602" lon="0.63929874">
        <time>2022-07-07T11:20:53Z</time>
      </trkpt>
      <trkpt lat="41.813576" lon="0.6393828">
        <time>2022-07-07T11:20:54Z</time>
      </trkpt>
      <trkpt lat="41.813545" lon="0.63946944">
        <time>2022-07-07T11:20:55Z</time>
      </trkpt>
      <trkpt lat="41.813515" lon="0.63955975">
        <time>2022-07-07T11:20:56Z</time>
      </trkpt>
      <trkpt lat="41.813488" lon="0.63965243">
        <time>2022-07-07T11:20:57Z</time>
      </trkpt>
      <trkpt lat="41.813457" lon="0.6397474">
        <time>2022-07-07T11:20:58Z</time>
      </trkpt>
      <trkpt lat="41.813427" lon="0.63984543">
        <time>2022-07-07T11:20:59Z</time>
      </trkpt>
      <trkpt lat="41.813393" lon="0.63994676">
        <time>2022-07-07T11:21:00Z</time>
      </trkpt>
      <trkpt lat="41.813362" lon="0.6400504">
        <time>2022-07-07T11:21:01Z</time>
      </trkpt>
      <trkpt lat="41.813328" lon="0.64015776">
        <time>2022-07-07T11:21:02Z</time>
      </trkpt>
      <trkpt lat="41.813293" lon="0.6402657">
        <time>2022-07-07T11:21:03Z</time>
      </trkpt>
      <trkpt lat="41.81326" lon="0.64037603">
        <time>2022-07-07T11:21:04Z</time>
      </trkpt>
      <trkpt lat="41.81322" lon="0.6404897">
        <time>2022-07-07T11:21:05Z</time>
      </trkpt>
      <trkpt lat="41.813187" lon="0.6406037">
        <time>2022-07-07T11:21:06Z</time>
      </trkpt>
      <trkpt lat="41.81315" lon="0.6407187">
        <time>2022-07-07T11:21:07Z</time>
      </trkpt>
      <trkpt lat="41.813114" lon="0.640833">
        <time>2022-07-07T11:21:08Z</time>
      </trkpt>
      <trkpt lat="41.813076" lon="0.64094603">
        <time>2022-07-07T11:21:09Z</time>
      </trkpt>
      <trkpt lat="41.813038" lon="0.6410574">
        <time>2022-07-07T11:21:10Z</time>
      </trkpt>
      <trkpt lat="41.81296" lon="0.64127374">
        <time>2022-07-07T11:21:12Z</time>
      </trkpt>
      <trkpt lat="41.81292" lon="0.6413777">
        <time>2022-07-07T11:21:13Z</time>
      </trkpt>
      <trkpt lat="41.812878" lon="0.6414794">
        <time>2022-07-07T11:21:14Z</time>
      </trkpt>
      <trkpt lat="41.812836" lon="0.6415797">
        <time>2022-07-07T11:21:15Z</time>
      </trkpt>
      <trkpt lat="41.812794" lon="0.64167833">
        <time>2022-07-07T11:21:16Z</time>
      </trkpt>
      <trkpt lat="41.81275" lon="0.641776">
        <time>2022-07-07T11:21:17Z</time>
      </trkpt>
      <trkpt lat="41.812714" lon="0.64187205">
        <time>2022-07-07T11:21:18Z</time>
      </trkpt>
      <trkpt lat="41.81267" lon="0.64196736">
        <time>2022-07-07T11:21:19Z</time>
      </trkpt>
      <trkpt lat="41.81263" lon="0.64206135">
        <time>2022-07-07T11:21:20Z</time>
      </trkpt>
      <trkpt lat="41.812588" lon="0.64215404">
        <time>2022-07-07T11:21:21Z</time>
      </trkpt>
      <trkpt lat="41.81255" lon="0.64224666">
        <time>2022-07-07T11:21:22Z</time>
      </trkpt>
      <trkpt lat="41.812508" lon="0.642338">
        <time>2022-07-07T11:21:23Z</time>
      </trkpt>
      <trkpt lat="41.81247" lon="0.6424277">
        <time>2022-07-07T11:21:24Z</time>
      </trkpt>
      <trkpt lat="41.81243" lon="0.64251566">
        <time>2022-07-07T11:21:25Z</time>
      </trkpt>
      <trkpt lat="41.812397" lon="0.642603">
        <time>2022-07-07T11:21:26Z</time>
      </trkpt>
      <trkpt lat="41.81236" lon="0.6426913">
        <time>2022-07-07T11:21:27Z</time>
      </trkpt>
      <trkpt lat="41.812317" lon="0.64277965">
        <time>2022-07-07T11:21:28Z</time>
      </trkpt>
      <trkpt lat="41.81228" lon="0.64286864">
        <time>2022-07-07T11:21:29Z</time>
      </trkpt>
      <trkpt lat="41.81224" lon="0.6429633">
        <time>2022-07-07T11:21:30Z</time>
      </trkpt>
      <trkpt lat="41.812202" lon="0.6430506">
        <time>2022-07-07T11:21:31Z</time>
      </trkpt>
      <trkpt lat="41.81216" lon="0.64313763">
        <time>2022-07-07T11:21:32Z</time>
      </trkpt>
      <trkpt lat="41.812122" lon="0.64322495">
        <time>2022-07-07T11:21:33Z</time>
      </trkpt>
      <trkpt lat="41.812084" lon="0.643312">
        <time>2022-07-07T11:21:34Z</time>
      </trkpt>
      <trkpt lat="41.81205" lon="0.64339894">
        <time>2022-07-07T11:21:35Z</time>
      </trkpt>
      <trkpt lat="41.81201" lon="0.64348596">
        <time>2022-07-07T11:21:36Z</time>
      </trkpt>
      <trkpt lat="41.811974" lon="0.6435716">
        <time>2022-07-07T11:21:37Z</time>
      </trkpt>
      <trkpt lat="41.81194" lon="0.64365566">
        <time>2022-07-07T11:21:38Z</time>
      </trkpt>
      <trkpt lat="41.8119" lon="0.64373696">
        <time>2022-07-07T11:21:39Z</time>
      </trkpt>
      <trkpt lat="41.811867" lon="0.64381695">
        <time>2022-07-07T11:21:40Z</time>
      </trkpt>
      <trkpt lat="41.811832" lon="0.643896">
        <time>2022-07-07T11:21:41Z</time>
      </trkpt>
      <trkpt lat="41.8118" lon="0.6439746">
        <time>2022-07-07T11:21:42Z</time>
      </trkpt>
      <trkpt lat="41.811764" lon="0.6440529">
        <time>2022-07-07T11:21:43Z</time>
      </trkpt>
      <trkpt lat="41.81173" lon="0.64413226">
        <time>2022-07-07T11:21:44Z</time>
      </trkpt>
      <trkpt lat="41.811695" lon="0.64421093">
        <time>2022-07-07T11:21:45Z</time>
      </trkpt>
      <trkpt lat="41.811665" lon="0.64428896">
        <time>2022-07-07T11:21:46Z</time>
      </trkpt>
      <trkpt lat="41.81163" lon="0.64436626">
        <time>2022-07-07T11:21:47Z</time>
      </trkpt>
      <trkpt lat="41.811596" lon="0.6444429">
        <time>2022-07-07T11:21:48Z</time>
      </trkpt>
      <trkpt lat="41.811565" lon="0.64451927">
        <time>2022-07-07T11:21:49Z</time>
      </trkpt>
      <trkpt lat="41.81153" lon="0.64459527">
        <time>2022-07-07T11:21:50Z</time>
      </trkpt>
      <trkpt lat="41.811497" lon="0.6446709">
        <time>2022-07-07T11:21:51Z</time>
      </trkpt>
      <trkpt lat="41.811462" lon="0.6447469">
        <time>2022-07-07T11:21:52Z</time>
      </trkpt>
      <trkpt lat="41.811428" lon="0.64482224">
        <time>2022-07-07T11:21:53Z</time>
      </trkpt>
      <trkpt lat="41.811394" lon="0.64489824">
        <time>2022-07-07T11:21:54Z</time>
      </trkpt>
      <trkpt lat="41.81136" lon="0.6449736">
        <time>2022-07-07T11:21:55Z</time>
      </trkpt>
      <trkpt lat="41.811325" lon="0.64504856">
        <time>2022-07-07T11:21:56Z</time>
      </trkpt>
      <trkpt lat="41.811295" lon="0.6451236">
        <time>2022-07-07T11:21:57Z</time>
      </trkpt>
      <trkpt lat="41.81126" lon="0.6451982">
        <time>2022-07-07T11:21:58Z</time>
      </trkpt>
      <trkpt lat="41.81123" lon="0.64527255">
        <time>2022-07-07T11:21:59Z</time>
      </trkpt>
      <trkpt lat="41.8112" lon="0.6453466">
        <time>2022-07-07T11:22:00Z</time>
      </trkpt>
      <trkpt lat="41.81117" lon="0.6454182">
        <time>2022-07-07T11:22:01Z</time>
      </trkpt>
      <trkpt lat="41.81114" lon="0.6454902">
        <time>2022-07-07T11:22:02Z</time>
      </trkpt>
      <trkpt lat="41.811108" lon="0.6455559">
        <time>2022-07-07T11:22:03Z</time>
      </trkpt>
      <trkpt lat="41.81108" lon="0.64562255">
        <time>2022-07-07T11:22:04Z</time>
      </trkpt>
      <trkpt lat="41.81105" lon="0.64568955">
        <time>2022-07-07T11:22:05Z</time>
      </trkpt>
      <trkpt lat="41.811024" lon="0.6457572">
        <time>2022-07-07T11:22:06Z</time>
      </trkpt>
      <trkpt lat="41.810993" lon="0.64582455">
        <time>2022-07-07T11:22:07Z</time>
      </trkpt>
      <trkpt lat="41.810963" lon="0.6458972">
        <time>2022-07-07T11:22:08Z</time>
      </trkpt>
      <trkpt lat="41.810936" lon="0.64596885">
        <time>2022-07-07T11:22:09Z</time>
      </trkpt>
      <trkpt lat="41.810905" lon="0.6460355">
        <time>2022-07-07T11:22:10Z</time>
      </trkpt>
      <trkpt lat="41.81088" lon="0.6461045">
        <time>2022-07-07T11:22:11Z</time>
      </trkpt>
      <trkpt lat="41.810856" lon="0.64617485">
        <time>2022-07-07T11:22:12Z</time>
      </trkpt>
      <trkpt lat="41.81083" lon="0.64624554">
        <time>2022-07-07T11:22:13Z</time>
      </trkpt>
      <trkpt lat="41.810802" lon="0.6463155">
        <time>2022-07-07T11:22:14Z</time>
      </trkpt>
      <trkpt lat="41.810753" lon="0.64646286">
        <time>2022-07-07T11:22:16Z</time>
      </trkpt>
      <trkpt lat="41.81073" lon="0.6465325">
        <time>2022-07-07T11:22:17Z</time>
      </trkpt>
      <trkpt lat="41.810707" lon="0.6466025">
        <time>2022-07-07T11:22:18Z</time>
      </trkpt>
      <trkpt lat="41.810684" lon="0.6466735">
        <time>2022-07-07T11:22:19Z</time>
      </trkpt>
      <trkpt lat="41.810665" lon="0.6467458">
        <time>2022-07-07T11:22:20Z</time>
      </trkpt>
      <trkpt lat="41.810642" lon="0.6468185">
        <time>2022-07-07T11:22:21Z</time>
      </trkpt>
      <trkpt lat="41.81062" lon="0.6468958">
        <time>2022-07-07T11:22:22Z</time>
      </trkpt>
      <trkpt lat="41.8106" lon="0.64697284">
        <time>2022-07-07T11:22:23Z</time>
      </trkpt>
      <trkpt lat="41.810577" lon="0.64705014">
        <time>2022-07-07T11:22:24Z</time>
      </trkpt>
      <trkpt lat="41.81056" lon="0.6471275">
        <time>2022-07-07T11:22:25Z</time>
      </trkpt>
      <trkpt lat="41.81054" lon="0.6472038">
        <time>2022-07-07T11:22:26Z</time>
      </trkpt>
      <trkpt lat="41.81052" lon="0.6472798">
        <time>2022-07-07T11:22:27Z</time>
      </trkpt>
      <trkpt lat="41.8105" lon="0.6473568">
        <time>2022-07-07T11:22:28Z</time>
      </trkpt>
      <trkpt lat="41.810486" lon="0.6474338">
        <time>2022-07-07T11:22:29Z</time>
      </trkpt>
      <trkpt lat="41.81047" lon="0.64751214">
        <time>2022-07-07T11:22:30Z</time>
      </trkpt>
      <trkpt lat="41.810455" lon="0.6475908">
        <time>2022-07-07T11:22:31Z</time>
      </trkpt>
      <trkpt lat="41.810436" lon="0.64766943">
        <time>2022-07-07T11:22:32Z</time>
      </trkpt>
      <trkpt lat="41.81042" lon="0.6477485">
        <time>2022-07-07T11:22:33Z</time>
      </trkpt>
      <trkpt lat="41.81041" lon="0.64782846">
        <time>2022-07-07T11:22:34Z</time>
      </trkpt>
      <trkpt lat="41.810394" lon="0.6479078">
        <time>2022-07-07T11:22:35Z</time>
      </trkpt>
      <trkpt lat="41.81038" lon="0.64798814">
        <time>2022-07-07T11:22:36Z</time>
      </trkpt>
      <trkpt lat="41.810368" lon="0.64806813">
        <time>2022-07-07T11:22:37Z</time>
      </trkpt>
      <trkpt lat="41.810356" lon="0.6481488">
        <time>2022-07-07T11:22:38Z</time>
      </trkpt>
      <trkpt lat="41.810345" lon="0.64822847">
        <time>2022-07-07T11:22:39Z</time>
      </trkpt>
      <trkpt lat="41.810337" lon="0.64830947">
        <time>2022-07-07T11:22:40Z</time>
      </trkpt>
      <trkpt lat="41.810326" lon="0.64839244">
        <time>2022-07-07T11:22:41Z</time>
      </trkpt>
      <trkpt lat="41.810318" lon="0.6484771">
        <time>2022-07-07T11:22:42Z</time>
      </trkpt>
      <trkpt lat="41.81031" lon="0.64856243">
        <time>2022-07-07T11:22:43Z</time>
      </trkpt>
      <trkpt lat="41.8103" lon="0.6486478">
        <time>2022-07-07T11:22:44Z</time>
      </trkpt>
      <trkpt lat="41.81029" lon="0.64873207">
        <time>2022-07-07T11:22:45Z</time>
      </trkpt>
      <trkpt lat="41.81028" lon="0.64881706">
        <time>2022-07-07T11:22:46Z</time>
      </trkpt>
      <trkpt lat="41.810272" lon="0.6489011">
        <time>2022-07-07T11:22:47Z</time>
      </trkpt>
      <trkpt lat="41.810265" lon="0.6489864">
        <time>2022-07-07T11:22:48Z</time>
      </trkpt>
      <trkpt lat="41.810257" lon="0.64907175">
        <time>2022-07-07T11:22:49Z</time>
      </trkpt>
      <trkpt lat="41.81025" lon="0.64915776">
        <time>2022-07-07T11:22:50Z</time>
      </trkpt>
      <trkpt lat="41.810246" lon="0.6492451">
        <time>2022-07-07T11:22:51Z</time>
      </trkpt>
      <trkpt lat="41.810238" lon="0.6493321">
        <time>2022-07-07T11:22:52Z</time>
      </trkpt>
      <trkpt lat="41.810234" lon="0.6494201">
        <time>2022-07-07T11:22:53Z</time>
      </trkpt>
      <trkpt lat="41.81023" lon="0.6495084">
        <time>2022-07-07T11:22:54Z</time>
      </trkpt>
      <trkpt lat="41.81023" lon="0.6495964">
        <time>2022-07-07T11:22:55Z</time>
      </trkpt>
      <trkpt lat="41.810226" lon="0.6496794">
        <time>2022-07-07T11:22:56Z</time>
      </trkpt>
      <trkpt lat="41.810223" lon="0.6497651">
        <time>2022-07-07T11:22:57Z</time>
      </trkpt>
      <trkpt lat="41.810223" lon="0.6498521">
        <time>2022-07-07T11:22:58Z</time>
      </trkpt>
      <trkpt lat="41.81022" lon="0.6499394">
        <time>2022-07-07T11:22:59Z</time>
      </trkpt>
      <trkpt lat="41.810215" lon="0.6500334">
        <time>2022-07-07T11:23:00Z</time>
      </trkpt>
      <trkpt lat="41.81021" lon="0.6501197">
        <time>2022-07-07T11:23:01Z</time>
      </trkpt>
      <trkpt lat="41.810207" lon="0.6502064">
        <time>2022-07-07T11:23:02Z</time>
      </trkpt>
      <trkpt lat="41.810204" lon="0.6502937">
        <time>2022-07-07T11:23:03Z</time>
      </trkpt>
      <trkpt lat="41.8102" lon="0.6503877">
        <time>2022-07-07T11:23:04Z</time>
      </trkpt>
      <trkpt lat="41.810196" lon="0.65048003">
        <time>2022-07-07T11:23:05Z</time>
      </trkpt>
      <trkpt lat="41.810192" lon="0.6505707">
        <time>2022-07-07T11:23:06Z</time>
      </trkpt>
      <trkpt lat="41.81019" lon="0.65066105">
        <time>2022-07-07T11:23:07Z</time>
      </trkpt>
      <trkpt lat="41.81019" lon="0.6507504">
        <time>2022-07-07T11:23:08Z</time>
      </trkpt>
      <trkpt lat="41.810184" lon="0.6508397">
        <time>2022-07-07T11:23:09Z</time>
      </trkpt>
      <trkpt lat="41.81018" lon="0.65092736">
        <time>2022-07-07T11:23:10Z</time>
      </trkpt>
      <trkpt lat="41.810177" lon="0.65101403">
        <time>2022-07-07T11:23:11Z</time>
      </trkpt>
      <trkpt lat="41.810173" lon="0.651101">
        <time>2022-07-07T11:23:12Z</time>
      </trkpt>
      <trkpt lat="41.81017" lon="0.651187">
        <time>2022-07-07T11:23:13Z</time>
      </trkpt>
      <trkpt lat="41.810165" lon="0.651273">
        <time>2022-07-07T11:23:14Z</time>
      </trkpt>
      <trkpt lat="41.810165" lon="0.65135866">
        <time>2022-07-07T11:23:15Z</time>
      </trkpt>
      <trkpt lat="41.81016" lon="0.65144336">
        <time>2022-07-07T11:23:16Z</time>
      </trkpt>
      <trkpt lat="41.810158" lon="0.6515267">
        <time>2022-07-07T11:23:17Z</time>
      </trkpt>
      <trkpt lat="41.810154" lon="0.6516093">
        <time>2022-07-07T11:23:18Z</time>
      </trkpt>
      <trkpt lat="41.81015" lon="0.651691">
        <time>2022-07-07T11:23:19Z</time>
      </trkpt>
      <trkpt lat="41.810146" lon="0.6517723">
        <time>2022-07-07T11:23:20Z</time>
      </trkpt>
      <trkpt lat="41.810143" lon="0.65193367">
        <time>2022-07-07T11:23:22Z</time>
      </trkpt>
      <trkpt lat="41.81014" lon="0.6520133">
        <time>2022-07-07T11:23:23Z</time>
      </trkpt>
      <trkpt lat="41.81014" lon="0.6520933">
        <time>2022-07-07T11:23:24Z</time>
      </trkpt>
      <trkpt lat="41.810135" lon="0.652174">
        <time>2022-07-07T11:23:25Z</time>
      </trkpt>
      <trkpt lat="41.81013" lon="0.65225464">
        <time>2022-07-07T11:23:26Z</time>
      </trkpt>
      <trkpt lat="41.81013" lon="0.6523343">
        <time>2022-07-07T11:23:27Z</time>
      </trkpt>
      <trkpt lat="41.81013" lon="0.6524126">
        <time>2022-07-07T11:23:28Z</time>
      </trkpt>
      <trkpt lat="41.810127" lon="0.6524913">
        <time>2022-07-07T11:23:29Z</time>
      </trkpt>
      <trkpt lat="41.810127" lon="0.6525693">
        <time>2022-07-07T11:23:30Z</time>
      </trkpt>
      <trkpt lat="41.810123" lon="0.65264726">
        <time>2022-07-07T11:23:31Z</time>
      </trkpt>
      <trkpt lat="41.81012" lon="0.6527253">
        <time>2022-07-07T11:23:32Z</time>
      </trkpt>
      <trkpt lat="41.810116" lon="0.65280396">
        <time>2022-07-07T11:23:33Z</time>
      </trkpt>
      <trkpt lat="41.810112" lon="0.6528833">
        <time>2022-07-07T11:23:34Z</time>
      </trkpt>
      <trkpt lat="41.81011" lon="0.6529633">
        <time>2022-07-07T11:23:35Z</time>
      </trkpt>
      <trkpt lat="41.81011" lon="0.6530426">
        <time>2022-07-07T11:23:36Z</time>
      </trkpt>
      <trkpt lat="41.810104" lon="0.65312225">
        <time>2022-07-07T11:23:37Z</time>
      </trkpt>
      <trkpt lat="41.8101" lon="0.65320194">
        <time>2022-07-07T11:23:38Z</time>
      </trkpt>
      <trkpt lat="41.810097" lon="0.6532813">
        <time>2022-07-07T11:23:39Z</time>
      </trkpt>
      <trkpt lat="41.810093" lon="0.65336025">
        <time>2022-07-07T11:23:40Z</time>
      </trkpt>
      <trkpt lat="41.810085" lon="0.6534396">
        <time>2022-07-07T11:23:41Z</time>
      </trkpt>
      <trkpt lat="41.81008" lon="0.6535189">
        <time>2022-07-07T11:23:42Z</time>
      </trkpt>
      <trkpt lat="41.81007" lon="0.65359825">
        <time>2022-07-07T11:23:43Z</time>
      </trkpt>
      <trkpt lat="41.810062" lon="0.6536776">
        <time>2022-07-07T11:23:44Z</time>
      </trkpt>
      <trkpt lat="41.81005" lon="0.6537572">
        <time>2022-07-07T11:23:45Z</time>
      </trkpt>
      <trkpt lat="41.810036" lon="0.65383756">
        <time>2022-07-07T11:23:46Z</time>
      </trkpt>
      <trkpt lat="41.810017" lon="0.65391755">
        <time>2022-07-07T11:23:47Z</time>
      </trkpt>
      <trkpt lat="41.809998" lon="0.6539969">
        <time>2022-07-07T11:23:48Z</time>
      </trkpt>
      <trkpt lat="41.809975" lon="0.65407455">
        <time>2022-07-07T11:23:49Z</time>
      </trkpt>
      <trkpt lat="41.809956" lon="0.65415186">
        <time>2022-07-07T11:23:50Z</time>
      </trkpt>
      <trkpt lat="41.80993" lon="0.65422887">
        <time>2022-07-07T11:23:51Z</time>
      </trkpt>
      <trkpt lat="41.809902" lon="0.65430486">
        <time>2022-07-07T11:23:52Z</time>
      </trkpt>
      <trkpt lat="41.809875" lon="0.65438086">
        <time>2022-07-07T11:23:53Z</time>
      </trkpt>
      <trkpt lat="41.80985" lon="0.6544572">
        <time>2022-07-07T11:23:54Z</time>
      </trkpt>
      <trkpt lat="41.809826" lon="0.65453386">
        <time>2022-07-07T11:23:55Z</time>
      </trkpt>
      <trkpt lat="41.809795" lon="0.6546102">
        <time>2022-07-07T11:23:56Z</time>
      </trkpt>
      <trkpt lat="41.80977" lon="0.65468687">
        <time>2022-07-07T11:23:57Z</time>
      </trkpt>
      <trkpt lat="41.809742" lon="0.6547635">
        <time>2022-07-07T11:23:58Z</time>
      </trkpt>
      <trkpt lat="41.809715" lon="0.6548405">
        <time>2022-07-07T11:23:59Z</time>
      </trkpt>
      <trkpt lat="41.80969" lon="0.6549182">
        <time>2022-07-07T11:24:00Z</time>
      </trkpt>
      <trkpt lat="41.80966" lon="0.6549952">
        <time>2022-07-07T11:24:01Z</time>
      </trkpt>
      <trkpt lat="41.809635" lon="0.6550735">
        <time>2022-07-07T11:24:02Z</time>
      </trkpt>
      <trkpt lat="41.809605" lon="0.65515184">
        <time>2022-07-07T11:24:03Z</time>
      </trkpt>
      <trkpt lat="41.809578" lon="0.65522987">
        <time>2022-07-07T11:24:04Z</time>
      </trkpt>
      <trkpt lat="41.80955" lon="0.6553078">
        <time>2022-07-07T11:24:05Z</time>
      </trkpt>
      <trkpt lat="41.809525" lon="0.6553852">
        <time>2022-07-07T11:24:06Z</time>
      </trkpt>
      <trkpt lat="41.809498" lon="0.6554628">
        <time>2022-07-07T11:24:07Z</time>
      </trkpt>
      <trkpt lat="41.809467" lon="0.6555412">
        <time>2022-07-07T11:24:08Z</time>
      </trkpt>
      <trkpt lat="41.80944" lon="0.65561914">
        <time>2022-07-07T11:24:09Z</time>
      </trkpt>
      <trkpt lat="41.809414" lon="0.65569746">
        <time>2022-07-07T11:24:10Z</time>
      </trkpt>
      <trkpt lat="41.809387" lon="0.6557755">
        <time>2022-07-07T11:24:11Z</time>
      </trkpt>
      <trkpt lat="41.80936" lon="0.65585417">
        <time>2022-07-07T11:24:12Z</time>
      </trkpt>
      <trkpt lat="41.80933" lon="0.6559338">
        <time>2022-07-07T11:24:13Z</time>
      </trkpt>
      <trkpt lat="41.809303" lon="0.6560135">
        <time>2022-07-07T11:24:14Z</time>
      </trkpt>
      <trkpt lat="41.809277" lon="0.6560938">
        <time>2022-07-07T11:24:15Z</time>
      </trkpt>
      <trkpt lat="41.80925" lon="0.6561741">
        <time>2022-07-07T11:24:16Z</time>
      </trkpt>
      <trkpt lat="41.80922" lon="0.6562538">
        <time>2022-07-07T11:24:17Z</time>
      </trkpt>
      <trkpt lat="41.809193" lon="0.65633243">
        <time>2022-07-07T11:24:18Z</time>
      </trkpt>
      <trkpt lat="41.809166" lon="0.6564098">
        <time>2022-07-07T11:24:19Z</time>
      </trkpt>
      <trkpt lat="41.809135" lon="0.65648746">
        <time>2022-07-07T11:24:20Z</time>
      </trkpt>
      <trkpt lat="41.80911" lon="0.6565654">
        <time>2022-07-07T11:24:21Z</time>
      </trkpt>
      <trkpt lat="41.809082" lon="0.65664244">
        <time>2022-07-07T11:24:22Z</time>
      </trkpt>
      <trkpt lat="41.80905" lon="0.65671974">
        <time>2022-07-07T11:24:23Z</time>
      </trkpt>
      <trkpt lat="41.809025" lon="0.65679777">
        <time>2022-07-07T11:24:24Z</time>
      </trkpt>
      <trkpt lat="41.809" lon="0.65687543">
        <time>2022-07-07T11:24:25Z</time>
      </trkpt>
      <trkpt lat="41.80897" lon="0.6569531">
        <time>2022-07-07T11:24:26Z</time>
      </trkpt>
      <trkpt lat="41.808945" lon="0.65702975">
        <time>2022-07-07T11:24:27Z</time>
      </trkpt>
      <trkpt lat="41.808918" lon="0.65710706">
        <time>2022-07-07T11:24:28Z</time>
      </trkpt>
      <trkpt lat="41.80889" lon="0.65718406">
        <time>2022-07-07T11:24:29Z</time>
      </trkpt>
      <trkpt lat="41.808865" lon="0.6572604">
        <time>2022-07-07T11:24:30Z</time>
      </trkpt>
      <trkpt lat="41.808807" lon="0.65741277">
        <time>2022-07-07T11:24:32Z</time>
      </trkpt>
      <trkpt lat="41.80878" lon="0.65748805">
        <time>2022-07-07T11:24:33Z</time>
      </trkpt>
      <trkpt lat="41.808754" lon="0.6575624">
        <time>2022-07-07T11:24:34Z</time>
      </trkpt>
      <trkpt lat="41.808723" lon="0.65766174">
        <time>2022-07-07T11:24:36Z</time>
      </trkpt>
      <trkpt lat="41.808693" lon="0.6577537">
        <time>2022-07-07T11:24:37Z</time>
      </trkpt>
      <trkpt lat="41.808662" lon="0.6578401">
        <time>2022-07-07T11:24:38Z</time>
      </trkpt>
      <trkpt lat="41.80864" lon="0.65792406">
        <time>2022-07-07T11:24:39Z</time>
      </trkpt>
      <trkpt lat="41.808617" lon="0.65800774">
        <time>2022-07-07T11:24:40Z</time>
      </trkpt>
      <trkpt lat="41.808598" lon="0.65809035">
        <time>2022-07-07T11:24:41Z</time>
      </trkpt>
      <trkpt lat="41.808575" lon="0.6581734">
        <time>2022-07-07T11:24:42Z</time>
      </trkpt>
      <trkpt lat="41.80856" lon="0.6582577">
        <time>2022-07-07T11:24:43Z</time>
      </trkpt>
      <trkpt lat="41.808544" lon="0.6583427">
        <time>2022-07-07T11:24:44Z</time>
      </trkpt>
      <trkpt lat="41.808533" lon="0.6584287">
        <time>2022-07-07T11:24:45Z</time>
      </trkpt>
      <trkpt lat="41.80852" lon="0.65851605">
        <time>2022-07-07T11:24:46Z</time>
      </trkpt>
      <trkpt lat="41.808514" lon="0.6586037">
        <time>2022-07-07T11:24:47Z</time>
      </trkpt>
      <trkpt lat="41.808502" lon="0.6586927">
        <time>2022-07-07T11:24:48Z</time>
      </trkpt>
      <trkpt lat="41.80849" lon="0.6587827">
        <time>2022-07-07T11:24:49Z</time>
      </trkpt>
      <trkpt lat="41.808483" lon="0.65887433">
        <time>2022-07-07T11:24:50Z</time>
      </trkpt>
      <trkpt lat="41.808475" lon="0.658967">
        <time>2022-07-07T11:24:51Z</time>
      </trkpt>
      <trkpt lat="41.808464" lon="0.65906036">
        <time>2022-07-07T11:24:52Z</time>
      </trkpt>
      <trkpt lat="41.808453" lon="0.65915436">
        <time>2022-07-07T11:24:53Z</time>
      </trkpt>
      <trkpt lat="41.808445" lon="0.659249">
        <time>2022-07-07T11:24:54Z</time>
      </trkpt>
      <trkpt lat="41.808434" lon="0.65934503">
        <time>2022-07-07T11:24:55Z</time>
      </trkpt>
      <trkpt lat="41.808422" lon="0.659442">
        <time>2022-07-07T11:24:56Z</time>
      </trkpt>
      <trkpt lat="41.80841" lon="0.6595397">
        <time>2022-07-07T11:24:57Z</time>
      </trkpt>
      <trkpt lat="41.808403" lon="0.6596377">
        <time>2022-07-07T11:24:58Z</time>
      </trkpt>
      <trkpt lat="41.80839" lon="0.6597357">
        <time>2022-07-07T11:24:59Z</time>
      </trkpt>
      <trkpt lat="41.80838" lon="0.6598343">
        <time>2022-07-07T11:25:00Z</time>
      </trkpt>
      <trkpt lat="41.808372" lon="0.659933">
        <time>2022-07-07T11:25:01Z</time>
      </trkpt>
      <trkpt lat="41.80836" lon="0.6600317">
        <time>2022-07-07T11:25:02Z</time>
      </trkpt>
      <trkpt lat="41.808353" lon="0.66012996">
        <time>2022-07-07T11:25:03Z</time>
      </trkpt>
      <trkpt lat="41.808346" lon="0.66022795">
        <time>2022-07-07T11:25:04Z</time>
      </trkpt>
      <trkpt lat="41.808334" lon="0.6603253">
        <time>2022-07-07T11:25:05Z</time>
      </trkpt>
      <trkpt lat="41.808327" lon="0.6604226">
        <time>2022-07-07T11:25:06Z</time>
      </trkpt>
      <trkpt lat="41.808315" lon="0.66051966">
        <time>2022-07-07T11:25:07Z</time>
      </trkpt>
      <trkpt lat="41.808308" lon="0.660616">
        <time>2022-07-07T11:25:08Z</time>
      </trkpt>
      <trkpt lat="41.808296" lon="0.66071296">
        <time>2022-07-07T11:25:09Z</time>
      </trkpt>
      <trkpt lat="41.808285" lon="0.6608093">
        <time>2022-07-07T11:25:10Z</time>
      </trkpt>
      <trkpt lat="41.808277" lon="0.66090465">
        <time>2022-07-07T11:25:11Z</time>
      </trkpt>
      <trkpt lat="41.808266" lon="0.66099995">
        <time>2022-07-07T11:25:12Z</time>
      </trkpt>
      <trkpt lat="41.808254" lon="0.66109496">
        <time>2022-07-07T11:25:13Z</time>
      </trkpt>
      <trkpt lat="41.808243" lon="0.6611896">
        <time>2022-07-07T11:25:14Z</time>
      </trkpt>
      <trkpt lat="41.80823" lon="0.66128427">
        <time>2022-07-07T11:25:15Z</time>
      </trkpt>
      <trkpt lat="41.80822" lon="0.6613786">
        <time>2022-07-07T11:25:16Z</time>
      </trkpt>
      <trkpt lat="41.80821" lon="0.6614729">
        <time>2022-07-07T11:25:17Z</time>
      </trkpt>
      <trkpt lat="41.808197" lon="0.6615666">
        <time>2022-07-07T11:25:18Z</time>
      </trkpt>
      <trkpt lat="41.80819" lon="0.6616606">
        <time>2022-07-07T11:25:19Z</time>
      </trkpt>
      <trkpt lat="41.808178" lon="0.66175324">
        <time>2022-07-07T11:25:20Z</time>
      </trkpt>
      <trkpt lat="41.808167" lon="0.6618446">
        <time>2022-07-07T11:25:21Z</time>
      </trkpt>
      <trkpt lat="41.80816" lon="0.6619359">
        <time>2022-07-07T11:25:22Z</time>
      </trkpt>
      <trkpt lat="41.80815" lon="0.66202694">
        <time>2022-07-07T11:25:23Z</time>
      </trkpt>
      <trkpt lat="41.808144" lon="0.6621176">
        <time>2022-07-07T11:25:24Z</time>
      </trkpt>
      <trkpt lat="41.808136" lon="0.6622076">
        <time>2022-07-07T11:25:25Z</time>
      </trkpt>
      <trkpt lat="41.80813" lon="0.66229624">
        <time>2022-07-07T11:25:26Z</time>
      </trkpt>
      <trkpt lat="41.80812" lon="0.6623849">
        <time>2022-07-07T11:25:27Z</time>
      </trkpt>
      <trkpt lat="41.808113" lon="0.66247255">
        <time>2022-07-07T11:25:28Z</time>
      </trkpt>
      <trkpt lat="41.808105" lon="0.6625592">
        <time>2022-07-07T11:25:29Z</time>
      </trkpt>
      <trkpt lat="41.808098" lon="0.66264623">
        <time>2022-07-07T11:25:30Z</time>
      </trkpt>
      <trkpt lat="41.808086" lon="0.66273457">
        <time>2022-07-07T11:25:31Z</time>
      </trkpt>
      <trkpt lat="41.80808" lon="0.6628222">
        <time>2022-07-07T11:25:32Z</time>
      </trkpt>
      <trkpt lat="41.808067" lon="0.66290957">
        <time>2022-07-07T11:25:33Z</time>
      </trkpt>
      <trkpt lat="41.808056" lon="0.6629972">
        <time>2022-07-07T11:25:34Z</time>
      </trkpt>
      <trkpt lat="41.80805" lon="0.66308385">
        <time>2022-07-07T11:25:35Z</time>
      </trkpt>
      <trkpt lat="41.80803" lon="0.6632559">
        <time>2022-07-07T11:25:37Z</time>
      </trkpt>
      <trkpt lat="41.808018" lon="0.66334087">
        <time>2022-07-07T11:25:38Z</time>
      </trkpt>
      <trkpt lat="41.80801" lon="0.6634252">
        <time>2022-07-07T11:25:39Z</time>
      </trkpt>
      <trkpt lat="41.808002" lon="0.66350985">
        <time>2022-07-07T11:25:40Z</time>
      </trkpt>
      <trkpt lat="41.807995" lon="0.6635945">
        <time>2022-07-07T11:25:41Z</time>
      </trkpt>
      <trkpt lat="41.807987" lon="0.6636788">
        <time>2022-07-07T11:25:42Z</time>
      </trkpt>
      <trkpt lat="41.80798" lon="0.66376287">
        <time>2022-07-07T11:25:43Z</time>
      </trkpt>
      <trkpt lat="41.80797" lon="0.6638465">
        <time>2022-07-07T11:25:44Z</time>
      </trkpt>
      <trkpt lat="41.80796" lon="0.6639302">
        <time>2022-07-07T11:25:45Z</time>
      </trkpt>
      <trkpt lat="41.807953" lon="0.6640138">
        <time>2022-07-07T11:25:46Z</time>
      </trkpt>
      <trkpt lat="41.807945" lon="0.66409713">
        <time>2022-07-07T11:25:47Z</time>
      </trkpt>
      <trkpt lat="41.807934" lon="0.6641808">
        <time>2022-07-07T11:25:48Z</time>
      </trkpt>
      <trkpt lat="41.807926" lon="0.66426444">
        <time>2022-07-07T11:25:49Z</time>
      </trkpt>
      <trkpt lat="41.80792" lon="0.6643488">
        <time>2022-07-07T11:25:50Z</time>
      </trkpt>
      <trkpt lat="41.80791" lon="0.6644338">
        <time>2022-07-07T11:25:51Z</time>
      </trkpt>
      <trkpt lat="41.807903" lon="0.66451913">
        <time>2022-07-07T11:25:52Z</time>
      </trkpt>
      <trkpt lat="41.807896" lon="0.6646045">
        <time>2022-07-07T11:25:53Z</time>
      </trkpt>
      <trkpt lat="41.807888" lon="0.6646895">
        <time>2022-07-07T11:25:54Z</time>
      </trkpt>
      <trkpt lat="41.80788" lon="0.6647748">
        <time>2022-07-07T11:25:55Z</time>
      </trkpt>
      <trkpt lat="41.807873" lon="0.66485476">
        <time>2022-07-07T11:25:56Z</time>
      </trkpt>
      <trkpt lat="41.807865" lon="0.66494113">
        <time>2022-07-07T11:25:57Z</time>
      </trkpt>
      <trkpt lat="41.807854" lon="0.6650264">
        <time>2022-07-07T11:25:58Z</time>
      </trkpt>
      <trkpt lat="41.807846" lon="0.6651118">
        <time>2022-07-07T11:25:59Z</time>
      </trkpt>
      <trkpt lat="41.80784" lon="0.66519713">
        <time>2022-07-07T11:26:00Z</time>
      </trkpt>
      <trkpt lat="41.80783" lon="0.6652814">
        <time>2022-07-07T11:26:01Z</time>
      </trkpt>
      <trkpt lat="41.807823" lon="0.66536576">
        <time>2022-07-07T11:26:02Z</time>
      </trkpt>
      <trkpt lat="41.807816" lon="0.6654498">
        <time>2022-07-07T11:26:03Z</time>
      </trkpt>
      <trkpt lat="41.807808" lon="0.6655338">
        <time>2022-07-07T11:26:04Z</time>
      </trkpt>
      <trkpt lat="41.8078" lon="0.66561776">
        <time>2022-07-07T11:26:05Z</time>
      </trkpt>
      <trkpt lat="41.807793" lon="0.66570175">
        <time>2022-07-07T11:26:06Z</time>
      </trkpt>
      <trkpt lat="41.807785" lon="0.66578674">
        <time>2022-07-07T11:26:07Z</time>
      </trkpt>
      <trkpt lat="41.807777" lon="0.6658731">
        <time>2022-07-07T11:26:08Z</time>
      </trkpt>
      <trkpt lat="41.80777" lon="0.6659601">
        <time>2022-07-07T11:26:09Z</time>
      </trkpt>
      <trkpt lat="41.807762" lon="0.6660481">
        <time>2022-07-07T11:26:10Z</time>
      </trkpt>
      <trkpt lat="41.807755" lon="0.6661371">
        <time>2022-07-07T11:26:11Z</time>
      </trkpt>
      <trkpt lat="41.807747" lon="0.66622674">
        <time>2022-07-07T11:26:12Z</time>
      </trkpt>
      <trkpt lat="41.80774" lon="0.6663174">
        <time>2022-07-07T11:26:13Z</time>
      </trkpt>
      <trkpt lat="41.80773" lon="0.6664101">
        <time>2022-07-07T11:26:14Z</time>
      </trkpt>
      <trkpt lat="41.80772" lon="0.6665041">
        <time>2022-07-07T11:26:15Z</time>
      </trkpt>
      <trkpt lat="41.807713" lon="0.6666001">
        <time>2022-07-07T11:26:16Z</time>
      </trkpt>
      <trkpt lat="41.8077" lon="0.6666971">
        <time>2022-07-07T11:26:17Z</time>
      </trkpt>
      <trkpt lat="41.80769" lon="0.66679543">
        <time>2022-07-07T11:26:18Z</time>
      </trkpt>
      <trkpt lat="41.80768" lon="0.66689575">
        <time>2022-07-07T11:26:19Z</time>
      </trkpt>
      <trkpt lat="41.807667" lon="0.66699874">
        <time>2022-07-07T11:26:20Z</time>
      </trkpt>
      <trkpt lat="41.80766" lon="0.66710407">
        <time>2022-07-07T11:26:21Z</time>
      </trkpt>
      <trkpt lat="41.807648" lon="0.66721207">
        <time>2022-07-07T11:26:22Z</time>
      </trkpt>
      <trkpt lat="41.80764" lon="0.66732174">
        <time>2022-07-07T11:26:23Z</time>
      </trkpt>
      <trkpt lat="41.80763" lon="0.6674327">
        <time>2022-07-07T11:26:24Z</time>
      </trkpt>
      <trkpt lat="41.807617" lon="0.6675447">
        <time>2022-07-07T11:26:25Z</time>
      </trkpt>
      <trkpt lat="41.807606" lon="0.6676584">
        <time>2022-07-07T11:26:26Z</time>
      </trkpt>
      <trkpt lat="41.80759" lon="0.6677737">
        <time>2022-07-07T11:26:27Z</time>
      </trkpt>
      <trkpt lat="41.80758" lon="0.66789037">
        <time>2022-07-07T11:26:28Z</time>
      </trkpt>
      <trkpt lat="41.807568" lon="0.6680084">
        <time>2022-07-07T11:26:29Z</time>
      </trkpt>
      <trkpt lat="41.807556" lon="0.6681264">
        <time>2022-07-07T11:26:30Z</time>
      </trkpt>
      <trkpt lat="41.807545" lon="0.66824406">
        <time>2022-07-07T11:26:31Z</time>
      </trkpt>
      <trkpt lat="41.807533" lon="0.66836107">
        <time>2022-07-07T11:26:32Z</time>
      </trkpt>
      <trkpt lat="41.80752" lon="0.6684787">
        <time>2022-07-07T11:26:33Z</time>
      </trkpt>
      <trkpt lat="41.80751" lon="0.6685967">
        <time>2022-07-07T11:26:34Z</time>
      </trkpt>
      <trkpt lat="41.8075" lon="0.66871405">
        <time>2022-07-07T11:26:35Z</time>
      </trkpt>
      <trkpt lat="41.807487" lon="0.66883135">
        <time>2022-07-07T11:26:36Z</time>
      </trkpt>
      <trkpt lat="41.807476" lon="0.66894835">
        <time>2022-07-07T11:26:37Z</time>
      </trkpt>
      <trkpt lat="41.807465" lon="0.66906404">
        <time>2022-07-07T11:26:38Z</time>
      </trkpt>
      <trkpt lat="41.807457" lon="0.669179">
        <time>2022-07-07T11:26:39Z</time>
      </trkpt>
      <trkpt lat="41.807446" lon="0.669294">
        <time>2022-07-07T11:26:40Z</time>
      </trkpt>
      <trkpt lat="41.807426" lon="0.66952133">
        <time>2022-07-07T11:26:42Z</time>
      </trkpt>
      <trkpt lat="41.807415" lon="0.669634">
        <time>2022-07-07T11:26:43Z</time>
      </trkpt>
      <trkpt lat="41.807404" lon="0.6697467">
        <time>2022-07-07T11:26:44Z</time>
      </trkpt>
      <trkpt lat="41.807392" lon="0.66985935">
        <time>2022-07-07T11:26:45Z</time>
      </trkpt>
      <trkpt lat="41.80738" lon="0.669972">
        <time>2022-07-07T11:26:46Z</time>
      </trkpt>
      <trkpt lat="41.80737" lon="0.6700843">
        <time>2022-07-07T11:26:47Z</time>
      </trkpt>
      <trkpt lat="41.807358" lon="0.670196">
        <time>2022-07-07T11:26:48Z</time>
      </trkpt>
      <trkpt lat="41.807346" lon="0.670307">
        <time>2022-07-07T11:26:49Z</time>
      </trkpt>
      <trkpt lat="41.80733" lon="0.6704183">
        <time>2022-07-07T11:26:50Z</time>
      </trkpt>
      <trkpt lat="41.807323" lon="0.6705293">
        <time>2022-07-07T11:26:51Z</time>
      </trkpt>
      <trkpt lat="41.807312" lon="0.6706403">
        <time>2022-07-07T11:26:52Z</time>
      </trkpt>
      <trkpt lat="41.8073" lon="0.6707506">
        <time>2022-07-07T11:26:53Z</time>
      </trkpt>
      <trkpt lat="41.80729" lon="0.67085963">
        <time>2022-07-07T11:26:54Z</time>
      </trkpt>
      <trkpt lat="41.80728" lon="0.670968">
        <time>2022-07-07T11:26:55Z</time>
      </trkpt>
      <trkpt lat="41.80727" lon="0.67107564">
        <time>2022-07-07T11:26:56Z</time>
      </trkpt>
      <trkpt lat="41.80726" lon="0.67118096">
        <time>2022-07-07T11:26:57Z</time>
      </trkpt>
      <trkpt lat="41.807247" lon="0.6712843">
        <time>2022-07-07T11:26:58Z</time>
      </trkpt>
      <trkpt lat="41.807236" lon="0.6713873">
        <time>2022-07-07T11:26:59Z</time>
      </trkpt>
      <trkpt lat="41.807224" lon="0.67148864">
        <time>2022-07-07T11:27:00Z</time>
      </trkpt>
      <trkpt lat="41.807217" lon="0.67158896">
        <time>2022-07-07T11:27:01Z</time>
      </trkpt>
      <trkpt lat="41.807205" lon="0.6716866">
        <time>2022-07-07T11:27:02Z</time>
      </trkpt>
      <trkpt lat="41.807198" lon="0.6717826">
        <time>2022-07-07T11:27:03Z</time>
      </trkpt>
      <trkpt lat="41.807186" lon="0.67187697">
        <time>2022-07-07T11:27:04Z</time>
      </trkpt>
      <trkpt lat="41.80718" lon="0.67197025">
        <time>2022-07-07T11:27:05Z</time>
      </trkpt>
      <trkpt lat="41.80717" lon="0.6720619">
        <time>2022-07-07T11:27:06Z</time>
      </trkpt>
      <trkpt lat="41.80716" lon="0.6721519">
        <time>2022-07-07T11:27:07Z</time>
      </trkpt>
      <trkpt lat="41.80715" lon="0.6722409">
        <time>2022-07-07T11:27:08Z</time>
      </trkpt>
      <trkpt lat="41.807144" lon="0.6723286">
        <time>2022-07-07T11:27:09Z</time>
      </trkpt>
      <trkpt lat="41.807137" lon="0.67241627">
        <time>2022-07-07T11:27:10Z</time>
      </trkpt>
      <trkpt lat="41.80713" lon="0.6725026">
        <time>2022-07-07T11:27:11Z</time>
      </trkpt>
      <trkpt lat="41.807117" lon="0.6725882">
        <time>2022-07-07T11:27:12Z</time>
      </trkpt>
      <trkpt lat="41.80711" lon="0.67267156">
        <time>2022-07-07T11:27:13Z</time>
      </trkpt>
      <trkpt lat="41.807102" lon="0.6727546">
        <time>2022-07-07T11:27:14Z</time>
      </trkpt>
      <trkpt lat="41.8071" lon="0.67283726">
        <time>2022-07-07T11:27:15Z</time>
      </trkpt>
      <trkpt lat="41.80709" lon="0.6729182">
        <time>2022-07-07T11:27:16Z</time>
      </trkpt>
      <trkpt lat="41.807083" lon="0.67299855">
        <time>2022-07-07T11:27:17Z</time>
      </trkpt>
      <trkpt lat="41.80708" lon="0.67307824">
        <time>2022-07-07T11:27:18Z</time>
      </trkpt>
      <trkpt lat="41.80707" lon="0.67315257">
        <time>2022-07-07T11:27:19Z</time>
      </trkpt>
      <trkpt lat="41.807064" lon="0.6732282">
        <time>2022-07-07T11:27:20Z</time>
      </trkpt>
      <trkpt lat="41.80706" lon="0.67330885">
        <time>2022-07-07T11:27:21Z</time>
      </trkpt>
      <trkpt lat="41.807053" lon="0.6733879">
        <time>2022-07-07T11:27:22Z</time>
      </trkpt>
      <trkpt lat="41.807045" lon="0.6734662">
        <time>2022-07-07T11:27:23Z</time>
      </trkpt>
      <trkpt lat="41.807034" lon="0.6735422">
        <time>2022-07-07T11:27:24Z</time>
      </trkpt>
      <trkpt lat="41.807026" lon="0.6736162">
        <time>2022-07-07T11:27:25Z</time>
      </trkpt>
      <trkpt lat="41.807014" lon="0.6736889">
        <time>2022-07-07T11:27:26Z</time>
      </trkpt>
      <trkpt lat="41.807007" lon="0.67375916">
        <time>2022-07-07T11:27:27Z</time>
      </trkpt>
      <trkpt lat="41.806995" lon="0.6738272">
        <time>2022-07-07T11:27:28Z</time>
      </trkpt>
      <trkpt lat="41.806988" lon="0.67389286">
        <time>2022-07-07T11:27:29Z</time>
      </trkpt>
      <trkpt lat="41.80698" lon="0.6739569">
        <time>2022-07-07T11:27:30Z</time>
      </trkpt>
      <trkpt lat="41.806965" lon="0.67408353">
        <time>2022-07-07T11:27:32Z</time>
      </trkpt>
      <trkpt lat="41.806957" lon="0.6741418">
        <time>2022-07-07T11:27:33Z</time>
      </trkpt>
      <trkpt lat="41.806946" lon="0.6742645">
        <time>2022-07-07T11:27:35Z</time>
      </trkpt>
      <trkpt lat="41.806934" lon="0.6743878">
        <time>2022-07-07T11:27:37Z</time>
      </trkpt>
      <trkpt lat="41.806923" lon="0.6745062">
        <time>2022-07-07T11:27:39Z</time>
      </trkpt>
      <trkpt lat="41.806908" lon="0.6746208">
        <time>2022-07-07T11:27:41Z</time>
      </trkpt>
      <trkpt lat="41.806896" lon="0.6747342">
        <time>2022-07-07T11:27:43Z</time>
      </trkpt>
      <trkpt lat="41.80688" lon="0.67484415">
        <time>2022-07-07T11:27:45Z</time>
      </trkpt>
      <trkpt lat="41.806866" lon="0.67500716">
        <time>2022-07-07T11:27:48Z</time>
      </trkpt>
      <trkpt lat="41.806854" lon="0.6751135">
        <time>2022-07-07T11:27:50Z</time>
      </trkpt>
      <trkpt lat="41.806843" lon="0.67521113">
        <time>2022-07-07T11:27:52Z</time>
      </trkpt>
      <trkpt lat="41.806835" lon="0.6752951">
        <time>2022-07-07T11:27:54Z</time>
      </trkpt>
      <trkpt lat="41.806828" lon="0.6753488">
        <time>2022-07-07T11:27:56Z</time>
      </trkpt>
      <trkpt lat="41.806812" lon="0.67552346">
        <time>2022-07-07T11:30:48Z</time>
      </trkpt>
      <trkpt lat="41.806805" lon="0.67561877">
        <time>2022-07-07T11:30:50Z</time>
      </trkpt>
      <trkpt lat="41.806797" lon="0.6757364">
        <time>2022-07-07T11:30:52Z</time>
      </trkpt>
      <trkpt lat="41.80679" lon="0.6758728">
        <time>2022-07-07T11:30:54Z</time>
      </trkpt>
      <trkpt lat="41.80678" lon="0.6760251">
        <time>2022-07-07T11:30:56Z</time>
      </trkpt>
      <trkpt lat="41.806778" lon="0.6761084">
        <time>2022-07-07T11:30:57Z</time>
      </trkpt>
      <trkpt lat="41.80677" lon="0.67619747">
        <time>2022-07-07T11:30:58Z</time>
      </trkpt>
      <trkpt lat="41.806767" lon="0.6762901">
        <time>2022-07-07T11:30:59Z</time>
      </trkpt>
      <trkpt lat="41.806763" lon="0.6763864">
        <time>2022-07-07T11:31:00Z</time>
      </trkpt>
      <trkpt lat="41.806755" lon="0.6764871">
        <time>2022-07-07T11:31:01Z</time>
      </trkpt>
      <trkpt lat="41.806747" lon="0.67659074">
        <time>2022-07-07T11:31:02Z</time>
      </trkpt>
      <trkpt lat="41.80674" lon="0.6766964">
        <time>2022-07-07T11:31:03Z</time>
      </trkpt>
      <trkpt lat="41.806732" lon="0.6768044">
        <time>2022-07-07T11:31:04Z</time>
      </trkpt>
      <trkpt lat="41.806725" lon="0.67691505">
        <time>2022-07-07T11:31:05Z</time>
      </trkpt>
      <trkpt lat="41.80672" lon="0.67702675">
        <time>2022-07-07T11:31:06Z</time>
      </trkpt>
      <trkpt lat="41.806713" lon="0.67713976">
        <time>2022-07-07T11:31:07Z</time>
      </trkpt>
      <trkpt lat="41.806705" lon="0.67725337">
        <time>2022-07-07T11:31:08Z</time>
      </trkpt>
      <trkpt lat="41.806698" lon="0.67736703">
        <time>2022-07-07T11:31:09Z</time>
      </trkpt>
      <trkpt lat="41.80669" lon="0.67748135">
        <time>2022-07-07T11:31:10Z</time>
      </trkpt>
      <trkpt lat="41.806686" lon="0.67759603">
        <time>2022-07-07T11:31:11Z</time>
      </trkpt>
      <trkpt lat="41.80668" lon="0.67771035">
        <time>2022-07-07T11:31:12Z</time>
      </trkpt>
      <trkpt lat="41.80667" lon="0.6778254">
        <time>2022-07-07T11:31:13Z</time>
      </trkpt>
      <trkpt lat="41.806667" lon="0.67794037">
        <time>2022-07-07T11:31:14Z</time>
      </trkpt>
      <trkpt lat="41.80666" lon="0.67805535">
        <time>2022-07-07T11:31:15Z</time>
      </trkpt>
      <trkpt lat="41.806652" lon="0.67816937">
        <time>2022-07-07T11:31:16Z</time>
      </trkpt>
      <trkpt lat="41.80665" lon="0.678282">
        <time>2022-07-07T11:31:17Z</time>
      </trkpt>
      <trkpt lat="41.80664" lon="0.6783944">
        <time>2022-07-07T11:31:18Z</time>
      </trkpt>
      <trkpt lat="41.806633" lon="0.6785064">
        <time>2022-07-07T11:31:19Z</time>
      </trkpt>
      <trkpt lat="41.80663" lon="0.678619">
        <time>2022-07-07T11:31:20Z</time>
      </trkpt>
      <trkpt lat="41.80662" lon="0.6787327">
        <time>2022-07-07T11:31:21Z</time>
      </trkpt>
      <trkpt lat="41.806618" lon="0.6788477">
        <time>2022-07-07T11:31:22Z</time>
      </trkpt>
      <trkpt lat="41.80661" lon="0.67896235">
        <time>2022-07-07T11:31:23Z</time>
      </trkpt>
      <trkpt lat="41.806606" lon="0.679078">
        <time>2022-07-07T11:31:24Z</time>
      </trkpt>
      <trkpt lat="41.8066" lon="0.6791933">
        <time>2022-07-07T11:31:25Z</time>
      </trkpt>
      <trkpt lat="41.80659" lon="0.679309">
        <time>2022-07-07T11:31:26Z</time>
      </trkpt>
      <trkpt lat="41.806587" lon="0.679425">
        <time>2022-07-07T11:31:27Z</time>
      </trkpt>
      <trkpt lat="41.80658" lon="0.67954165">
        <time>2022-07-07T11:31:28Z</time>
      </trkpt>
      <trkpt lat="41.806576" lon="0.679658">
        <time>2022-07-07T11:31:29Z</time>
      </trkpt>
      <trkpt lat="41.80657" lon="0.6797743">
        <time>2022-07-07T11:31:30Z</time>
      </trkpt>
      <trkpt lat="41.80656" lon="0.67989063">
        <time>2022-07-07T11:31:31Z</time>
      </trkpt>
      <trkpt lat="41.80655" lon="0.6800063">
        <time>2022-07-07T11:31:32Z</time>
      </trkpt>
      <trkpt lat="41.80654" lon="0.6801216">
        <time>2022-07-07T11:31:33Z</time>
      </trkpt>
      <trkpt lat="41.806534" lon="0.6802373">
        <time>2022-07-07T11:31:34Z</time>
      </trkpt>
      <trkpt lat="41.806526" lon="0.68035394">
        <time>2022-07-07T11:31:35Z</time>
      </trkpt>
      <trkpt lat="41.80652" lon="0.68047094">
        <time>2022-07-07T11:31:36Z</time>
      </trkpt>
      <trkpt lat="41.806515" lon="0.68058795">
        <time>2022-07-07T11:31:37Z</time>
      </trkpt>
      <trkpt lat="41.806507" lon="0.68070495">
        <time>2022-07-07T11:31:38Z</time>
      </trkpt>
      <trkpt lat="41.8065" lon="0.68082225">
        <time>2022-07-07T11:31:39Z</time>
      </trkpt>
      <trkpt lat="41.80649" lon="0.6809406">
        <time>2022-07-07T11:31:40Z</time>
      </trkpt>
      <trkpt lat="41.806484" lon="0.6810586">
        <time>2022-07-07T11:31:41Z</time>
      </trkpt>
      <trkpt lat="41.806458" lon="0.68154126">
        <time>2022-07-07T11:31:43Z</time>
      </trkpt>
      <trkpt lat="41.806458" lon="0.68156993">
        <time>2022-07-07T11:31:44Z</time>
      </trkpt>
      <trkpt lat="41.80645" lon="0.6817069">
        <time>2022-07-07T11:31:46Z</time>
      </trkpt>
      <trkpt lat="41.806442" lon="0.68179893">
        <time>2022-07-07T11:31:47Z</time>
      </trkpt>
      <trkpt lat="41.806435" lon="0.68189824">
        <time>2022-07-07T11:31:48Z</time>
      </trkpt>
      <trkpt lat="41.806427" lon="0.6820026">
        <time>2022-07-07T11:31:49Z</time>
      </trkpt>
      <trkpt lat="41.80642" lon="0.6821099">
        <time>2022-07-07T11:31:50Z</time>
      </trkpt>
      <trkpt lat="41.80641" lon="0.68221855">
        <time>2022-07-07T11:31:51Z</time>
      </trkpt>
      <trkpt lat="41.806404" lon="0.68232924">
        <time>2022-07-07T11:31:52Z</time>
      </trkpt>
      <trkpt lat="41.8064" lon="0.6824402">
        <time>2022-07-07T11:31:53Z</time>
      </trkpt>
      <trkpt lat="41.806393" lon="0.6825526">
        <time>2022-07-07T11:31:54Z</time>
      </trkpt>
      <trkpt lat="41.806385" lon="0.6826646">
        <time>2022-07-07T11:31:55Z</time>
      </trkpt>
      <trkpt lat="41.806377" lon="0.6827849">
        <time>2022-07-07T11:31:56Z</time>
      </trkpt>
      <trkpt lat="41.80637" lon="0.6828946">
        <time>2022-07-07T11:31:57Z</time>
      </trkpt>
      <trkpt lat="41.806362" lon="0.6830056">
        <time>2022-07-07T11:31:58Z</time>
      </trkpt>
      <trkpt lat="41.80636" lon="0.68311656">
        <time>2022-07-07T11:31:59Z</time>
      </trkpt>
      <trkpt lat="41.806343" lon="0.6833279">
        <time>2022-07-07T11:32:01Z</time>
      </trkpt>
      <trkpt lat="41.806335" lon="0.6834439">
        <time>2022-07-07T11:32:02Z</time>
      </trkpt>
      <trkpt lat="41.806328" lon="0.68355757">
        <time>2022-07-07T11:32:03Z</time>
      </trkpt>
      <trkpt lat="41.80632" lon="0.68367124">
        <time>2022-07-07T11:32:04Z</time>
      </trkpt>
      <trkpt lat="41.806313" lon="0.68378484">
        <time>2022-07-07T11:32:05Z</time>
      </trkpt>
      <trkpt lat="41.806305" lon="0.6838995">
        <time>2022-07-07T11:32:06Z</time>
      </trkpt>
      <trkpt lat="41.806297" lon="0.68401486">
        <time>2022-07-07T11:32:07Z</time>
      </trkpt>
      <trkpt lat="41.80629" lon="0.68412983">
        <time>2022-07-07T11:32:08Z</time>
      </trkpt>
      <trkpt lat="41.806282" lon="0.6842462">
        <time>2022-07-07T11:32:09Z</time>
      </trkpt>
      <trkpt lat="41.806274" lon="0.6843619">
        <time>2022-07-07T11:32:10Z</time>
      </trkpt>
      <trkpt lat="41.806267" lon="0.68447816">
        <time>2022-07-07T11:32:11Z</time>
      </trkpt>
      <trkpt lat="41.80626" lon="0.6845945">
        <time>2022-07-07T11:32:12Z</time>
      </trkpt>
      <trkpt lat="41.806255" lon="0.68471086">
        <time>2022-07-07T11:32:13Z</time>
      </trkpt>
      <trkpt lat="41.806248" lon="0.6848288">
        <time>2022-07-07T11:32:14Z</time>
      </trkpt>
      <trkpt lat="41.806244" lon="0.6849472">
        <time>2022-07-07T11:32:15Z</time>
      </trkpt>
      <trkpt lat="41.806236" lon="0.68506384">
        <time>2022-07-07T11:32:16Z</time>
      </trkpt>
      <trkpt lat="41.80623" lon="0.6851798">
        <time>2022-07-07T11:32:17Z</time>
      </trkpt>
      <trkpt lat="41.80622" lon="0.6852948">
        <time>2022-07-07T11:32:18Z</time>
      </trkpt>
      <trkpt lat="41.806213" lon="0.68541014">
        <time>2022-07-07T11:32:19Z</time>
      </trkpt>
      <trkpt lat="41.806206" lon="0.68552613">
        <time>2022-07-07T11:32:20Z</time>
      </trkpt>
      <trkpt lat="41.8062" lon="0.6856408">
        <time>2022-07-07T11:32:21Z</time>
      </trkpt>
      <trkpt lat="41.80619" lon="0.68575585">
        <time>2022-07-07T11:32:22Z</time>
      </trkpt>
      <trkpt lat="41.806183" lon="0.6858711">
        <time>2022-07-07T11:32:23Z</time>
      </trkpt>
      <trkpt lat="41.806175" lon="0.6859875">
        <time>2022-07-07T11:32:24Z</time>
      </trkpt>
      <trkpt lat="41.806168" lon="0.6861028">
        <time>2022-07-07T11:32:25Z</time>
      </trkpt>
      <trkpt lat="41.80616" lon="0.6862175">
        <time>2022-07-07T11:32:26Z</time>
      </trkpt>
      <trkpt lat="41.806152" lon="0.6863318">
        <time>2022-07-07T11:32:27Z</time>
      </trkpt>
      <trkpt lat="41.806145" lon="0.6864458">
        <time>2022-07-07T11:32:28Z</time>
      </trkpt>
      <trkpt lat="41.806137" lon="0.68655944">
        <time>2022-07-07T11:32:29Z</time>
      </trkpt>
      <trkpt lat="41.806133" lon="0.6866731">
        <time>2022-07-07T11:32:30Z</time>
      </trkpt>
      <trkpt lat="41.806126" lon="0.6867851">
        <time>2022-07-07T11:32:31Z</time>
      </trkpt>
      <trkpt lat="41.806118" lon="0.6868958">
        <time>2022-07-07T11:32:32Z</time>
      </trkpt>
      <trkpt lat="41.806114" lon="0.68700576">
        <time>2022-07-07T11:32:33Z</time>
      </trkpt>
      <trkpt lat="41.806107" lon="0.6871161">
        <time>2022-07-07T11:32:34Z</time>
      </trkpt>
      <trkpt lat="41.8061" lon="0.68722576">
        <time>2022-07-07T11:32:35Z</time>
      </trkpt>
      <trkpt lat="41.806095" lon="0.6873348">
        <time>2022-07-07T11:32:36Z</time>
      </trkpt>
      <trkpt lat="41.806087" lon="0.6874421">
        <time>2022-07-07T11:32:37Z</time>
      </trkpt>
      <trkpt lat="41.80608" lon="0.68754846">
        <time>2022-07-07T11:32:38Z</time>
      </trkpt>
      <trkpt lat="41.806076" lon="0.6876534">
        <time>2022-07-07T11:32:39Z</time>
      </trkpt>
      <trkpt lat="41.80607" lon="0.68775874">
        <time>2022-07-07T11:32:40Z</time>
      </trkpt>
      <trkpt lat="41.80606" lon="0.6878634">
        <time>2022-07-07T11:32:41Z</time>
      </trkpt>
      <trkpt lat="41.806053" lon="0.6879681">
        <time>2022-07-07T11:32:42Z</time>
      </trkpt>
      <trkpt lat="41.80605" lon="0.6880721">
        <time>2022-07-07T11:32:43Z</time>
      </trkpt>
      <trkpt lat="41.80604" lon="0.6881761">
        <time>2022-07-07T11:32:44Z</time>
      </trkpt>
      <trkpt lat="41.806034" lon="0.6882794">
        <time>2022-07-07T11:32:45Z</time>
      </trkpt>
      <trkpt lat="41.80603" lon="0.68838304">
        <time>2022-07-07T11:32:46Z</time>
      </trkpt>
      <trkpt lat="41.806026" lon="0.68848675">
        <time>2022-07-07T11:32:47Z</time>
      </trkpt>
      <trkpt lat="41.806023" lon="0.6885894">
        <time>2022-07-07T11:32:48Z</time>
      </trkpt>
      <trkpt lat="41.806015" lon="0.6886911">
        <time>2022-07-07T11:32:49Z</time>
      </trkpt>
      <trkpt lat="41.80601" lon="0.68879104">
        <time>2022-07-07T11:32:50Z</time>
      </trkpt>
      <trkpt lat="41.806004" lon="0.6888904">
        <time>2022-07-07T11:32:51Z</time>
      </trkpt>
      <trkpt lat="41.805996" lon="0.68898904">
        <time>2022-07-07T11:32:52Z</time>
      </trkpt>
      <trkpt lat="41.805992" lon="0.68908906">
        <time>2022-07-07T11:32:53Z</time>
      </trkpt>
      <trkpt lat="41.805984" lon="0.6891897">
        <time>2022-07-07T11:32:54Z</time>
      </trkpt>
      <trkpt lat="41.805977" lon="0.68929005">
        <time>2022-07-07T11:32:55Z</time>
      </trkpt>
      <trkpt lat="41.80597" lon="0.68939304">
        <time>2022-07-07T11:32:56Z</time>
      </trkpt>
      <trkpt lat="41.80596" lon="0.68949467">
        <time>2022-07-07T11:32:57Z</time>
      </trkpt>
      <trkpt lat="41.805954" lon="0.6895957">
        <time>2022-07-07T11:32:58Z</time>
      </trkpt>
      <trkpt lat="41.805946" lon="0.6896957">
        <time>2022-07-07T11:32:59Z</time>
      </trkpt>
      <trkpt lat="41.80594" lon="0.6897967">
        <time>2022-07-07T11:33:00Z</time>
      </trkpt>
      <trkpt lat="41.80593" lon="0.689898">
        <time>2022-07-07T11:33:01Z</time>
      </trkpt>
      <trkpt lat="41.805927" lon="0.69">
        <time>2022-07-07T11:33:02Z</time>
      </trkpt>
      <trkpt lat="41.80592" lon="0.69010204">
        <time>2022-07-07T11:33:03Z</time>
      </trkpt>
      <trkpt lat="41.805916" lon="0.69020337">
        <time>2022-07-07T11:33:04Z</time>
      </trkpt>
      <trkpt lat="41.80591" lon="0.690304">
        <time>2022-07-07T11:33:05Z</time>
      </trkpt>
      <trkpt lat="41.805897" lon="0.690503">
        <time>2022-07-07T11:33:07Z</time>
      </trkpt>
      <trkpt lat="41.80589" lon="0.6906007">
        <time>2022-07-07T11:33:08Z</time>
      </trkpt>
      <trkpt lat="41.805885" lon="0.690698">
        <time>2022-07-07T11:33:09Z</time>
      </trkpt>
      <trkpt lat="41.805878" lon="0.69079465">
        <time>2022-07-07T11:33:10Z</time>
      </trkpt>
      <trkpt lat="41.80587" lon="0.6908913">
        <time>2022-07-07T11:33:11Z</time>
      </trkpt>
      <trkpt lat="41.805866" lon="0.6909883">
        <time>2022-07-07T11:33:12Z</time>
      </trkpt>
      <trkpt lat="41.80586" lon="0.6910846">
        <time>2022-07-07T11:33:13Z</time>
      </trkpt>
      <trkpt lat="41.805855" lon="0.69118196">
        <time>2022-07-07T11:33:14Z</time>
      </trkpt>
      <trkpt lat="41.805847" lon="0.69127834">
        <time>2022-07-07T11:33:15Z</time>
      </trkpt>
      <trkpt lat="41.80584" lon="0.69137466">
        <time>2022-07-07T11:33:16Z</time>
      </trkpt>
      <trkpt lat="41.805832" lon="0.6914713">
        <time>2022-07-07T11:33:17Z</time>
      </trkpt>
      <trkpt lat="41.80583" lon="0.6915673">
        <time>2022-07-07T11:33:18Z</time>
      </trkpt>
      <trkpt lat="41.805824" lon="0.691664">
        <time>2022-07-07T11:33:19Z</time>
      </trkpt>
      <trkpt lat="41.80582" lon="0.69176096">
        <time>2022-07-07T11:33:20Z</time>
      </trkpt>
      <trkpt lat="41.805817" lon="0.69185764">
        <time>2022-07-07T11:33:21Z</time>
      </trkpt>
      <trkpt lat="41.80581" lon="0.691955">
        <time>2022-07-07T11:33:22Z</time>
      </trkpt>
      <trkpt lat="41.805805" lon="0.6920513">
        <time>2022-07-07T11:33:23Z</time>
      </trkpt>
      <trkpt lat="41.8058" lon="0.6921479">
        <time>2022-07-07T11:33:24Z</time>
      </trkpt>
      <trkpt lat="41.805794" lon="0.69224393">
        <time>2022-07-07T11:33:25Z</time>
      </trkpt>
      <trkpt lat="41.80579" lon="0.6923406">
        <time>2022-07-07T11:33:26Z</time>
      </trkpt>
      <trkpt lat="41.805782" lon="0.6924376">
        <time>2022-07-07T11:33:27Z</time>
      </trkpt>
      <trkpt lat="41.80578" lon="0.6925346">
        <time>2022-07-07T11:33:28Z</time>
      </trkpt>
      <trkpt lat="41.80577" lon="0.69263023">
        <time>2022-07-07T11:33:29Z</time>
      </trkpt>
      <trkpt lat="41.805767" lon="0.6927266">
        <time>2022-07-07T11:33:30Z</time>
      </trkpt>
      <trkpt lat="41.80576" lon="0.69282293">
        <time>2022-07-07T11:33:31Z</time>
      </trkpt>
      <trkpt lat="41.805756" lon="0.6929189">
        <time>2022-07-07T11:33:32Z</time>
      </trkpt>
      <trkpt lat="41.805748" lon="0.69301426">
        <time>2022-07-07T11:33:33Z</time>
      </trkpt>
      <trkpt lat="41.805744" lon="0.6931076">
        <time>2022-07-07T11:33:34Z</time>
      </trkpt>
      <trkpt lat="41.805737" lon="0.6932009">
        <time>2022-07-07T11:33:35Z</time>
      </trkpt>
      <trkpt lat="41.805733" lon="0.6932939">
        <time>2022-07-07T11:33:36Z</time>
      </trkpt>
      <trkpt lat="41.805725" lon="0.6933869">
        <time>2022-07-07T11:33:37Z</time>
      </trkpt>
      <trkpt lat="41.80572" lon="0.6934789">
        <time>2022-07-07T11:33:38Z</time>
      </trkpt>
      <trkpt lat="41.805717" lon="0.69356924">
        <time>2022-07-07T11:33:39Z</time>
      </trkpt>
      <trkpt lat="41.80571" lon="0.6936586">
        <time>2022-07-07T11:33:40Z</time>
      </trkpt>
      <trkpt lat="41.805706" lon="0.6937472">
        <time>2022-07-07T11:33:41Z</time>
      </trkpt>
      <trkpt lat="41.8057" lon="0.69383526">
        <time>2022-07-07T11:33:42Z</time>
      </trkpt>
      <trkpt lat="41.805695" lon="0.6939239">
        <time>2022-07-07T11:33:43Z</time>
      </trkpt>
      <trkpt lat="41.805687" lon="0.69401187">
        <time>2022-07-07T11:33:44Z</time>
      </trkpt>
      <trkpt lat="41.805683" lon="0.6940989">
        <time>2022-07-07T11:33:45Z</time>
      </trkpt>
      <trkpt lat="41.805676" lon="0.69418424">
        <time>2022-07-07T11:33:46Z</time>
      </trkpt>
      <trkpt lat="41.80567" lon="0.69426954">
        <time>2022-07-07T11:33:47Z</time>
      </trkpt>
      <trkpt lat="41.805664" lon="0.6943535">
        <time>2022-07-07T11:33:48Z</time>
      </trkpt>
      <trkpt lat="41.80566" lon="0.6944369">
        <time>2022-07-07T11:33:49Z</time>
      </trkpt>
      <trkpt lat="41.805656" lon="0.6945199">
        <time>2022-07-07T11:33:50Z</time>
      </trkpt>
      <trkpt lat="41.80565" lon="0.69460154">
        <time>2022-07-07T11:33:51Z</time>
      </trkpt>
      <trkpt lat="41.805645" lon="0.6946832">
        <time>2022-07-07T11:33:52Z</time>
      </trkpt>
      <trkpt lat="41.805637" lon="0.69476485">
        <time>2022-07-07T11:33:53Z</time>
      </trkpt>
      <trkpt lat="41.805634" lon="0.6948462">
        <time>2022-07-07T11:33:54Z</time>
      </trkpt>
      <trkpt lat="41.805626" lon="0.69492584">
        <time>2022-07-07T11:33:55Z</time>
      </trkpt>
      <trkpt lat="41.805622" lon="0.69500554">
        <time>2022-07-07T11:33:56Z</time>
      </trkpt>
      <trkpt lat="41.80562" lon="0.6950855">
        <time>2022-07-07T11:33:57Z</time>
      </trkpt>
      <trkpt lat="41.805614" lon="0.69516486">
        <time>2022-07-07T11:33:58Z</time>
      </trkpt>
      <trkpt lat="41.80561" lon="0.6952432">
        <time>2022-07-07T11:33:59Z</time>
      </trkpt>
      <trkpt lat="41.805607" lon="0.6953215">
        <time>2022-07-07T11:34:00Z</time>
      </trkpt>
      <trkpt lat="41.8056" lon="0.6953998">
        <time>2022-07-07T11:34:01Z</time>
      </trkpt>
      <trkpt lat="41.805595" lon="0.6954785">
        <time>2022-07-07T11:34:02Z</time>
      </trkpt>
      <trkpt lat="41.80559" lon="0.6955568">
        <time>2022-07-07T11:34:03Z</time>
      </trkpt>
      <trkpt lat="41.805584" lon="0.69563615">
        <time>2022-07-07T11:34:04Z</time>
      </trkpt>
      <trkpt lat="41.805584" lon="0.6957151">
        <time>2022-07-07T11:34:05Z</time>
      </trkpt>
      <trkpt lat="41.80558" lon="0.69579446">
        <time>2022-07-07T11:34:06Z</time>
      </trkpt>
      <trkpt lat="41.805576" lon="0.6958738">
        <time>2022-07-07T11:34:07Z</time>
      </trkpt>
      <trkpt lat="41.805576" lon="0.6959525">
        <time>2022-07-07T11:34:08Z</time>
      </trkpt>
      <trkpt lat="41.80558" lon="0.69603115">
        <time>2022-07-07T11:34:09Z</time>
      </trkpt>
      <trkpt lat="41.805588" lon="0.69618744">
        <time>2022-07-07T11:34:11Z</time>
      </trkpt>
      <trkpt lat="41.805595" lon="0.69626546">
        <time>2022-07-07T11:34:12Z</time>
      </trkpt>
      <trkpt lat="41.8056" lon="0.6963421">
        <time>2022-07-07T11:34:13Z</time>
      </trkpt>
      <trkpt lat="41.805607" lon="0.6964181">
        <time>2022-07-07T11:34:14Z</time>
      </trkpt>
      <trkpt lat="41.805614" lon="0.6964955">
        <time>2022-07-07T11:34:15Z</time>
      </trkpt>
      <trkpt lat="41.805622" lon="0.6965724">
        <time>2022-07-07T11:34:16Z</time>
      </trkpt>
      <trkpt lat="41.805634" lon="0.6966508">
        <time>2022-07-07T11:34:17Z</time>
      </trkpt>
      <trkpt lat="41.805645" lon="0.6967294">
        <time>2022-07-07T11:34:18Z</time>
      </trkpt>
      <trkpt lat="41.80566" lon="0.69680744">
        <time>2022-07-07T11:34:19Z</time>
      </trkpt>
      <trkpt lat="41.805676" lon="0.69688475">
        <time>2022-07-07T11:34:20Z</time>
      </trkpt>
      <trkpt lat="41.80569" lon="0.6969634">
        <time>2022-07-07T11:34:21Z</time>
      </trkpt>
      <trkpt lat="41.805706" lon="0.6970411">
        <time>2022-07-07T11:34:22Z</time>
      </trkpt>
      <trkpt lat="41.805717" lon="0.6971184">
        <time>2022-07-07T11:34:23Z</time>
      </trkpt>
      <trkpt lat="41.805733" lon="0.69719505">
        <time>2022-07-07T11:34:24Z</time>
      </trkpt>
      <trkpt lat="41.805748" lon="0.69727176">
        <time>2022-07-07T11:34:25Z</time>
      </trkpt>
      <trkpt lat="41.80576" lon="0.6973474">
        <time>2022-07-07T11:34:26Z</time>
      </trkpt>
      <trkpt lat="41.805775" lon="0.6974234">
        <time>2022-07-07T11:34:27Z</time>
      </trkpt>
      <trkpt lat="41.80579" lon="0.69749904">
        <time>2022-07-07T11:34:28Z</time>
      </trkpt>
      <trkpt lat="41.8058" lon="0.69757473">
        <time>2022-07-07T11:34:29Z</time>
      </trkpt>
      <trkpt lat="41.805817" lon="0.697651">
        <time>2022-07-07T11:34:30Z</time>
      </trkpt>
      <trkpt lat="41.80583" lon="0.6977267">
        <time>2022-07-07T11:34:31Z</time>
      </trkpt>
      <trkpt lat="41.805843" lon="0.69780236">
        <time>2022-07-07T11:34:32Z</time>
      </trkpt>
      <trkpt lat="41.80586" lon="0.6978727">
        <time>2022-07-07T11:34:33Z</time>
      </trkpt>
      <trkpt lat="41.80587" lon="0.69794536">
        <time>2022-07-07T11:34:34Z</time>
      </trkpt>
      <trkpt lat="41.805885" lon="0.69801867">
        <time>2022-07-07T11:34:35Z</time>
      </trkpt>
      <trkpt lat="41.8059" lon="0.698093">
        <time>2022-07-07T11:34:36Z</time>
      </trkpt>
      <trkpt lat="41.805916" lon="0.69816804">
        <time>2022-07-07T11:34:37Z</time>
      </trkpt>
      <trkpt lat="41.805927" lon="0.6982434">
        <time>2022-07-07T11:34:38Z</time>
      </trkpt>
      <trkpt lat="41.805943" lon="0.6983194">
        <time>2022-07-07T11:34:39Z</time>
      </trkpt>
      <trkpt lat="41.805958" lon="0.6984">
        <time>2022-07-07T11:34:40Z</time>
      </trkpt>
      <trkpt lat="41.805973" lon="0.69847935">
        <time>2022-07-07T11:34:41Z</time>
      </trkpt>
      <trkpt lat="41.805984" lon="0.698558">
        <time>2022-07-07T11:34:42Z</time>
      </trkpt>
      <trkpt lat="41.806" lon="0.698636">
        <time>2022-07-07T11:34:43Z</time>
      </trkpt>
      <trkpt lat="41.806015" lon="0.698714">
        <time>2022-07-07T11:34:44Z</time>
      </trkpt>
      <trkpt lat="41.80603" lon="0.698792">
        <time>2022-07-07T11:34:45Z</time>
      </trkpt>
      <trkpt lat="41.806046" lon="0.69886965">
        <time>2022-07-07T11:34:46Z</time>
      </trkpt>
      <trkpt lat="41.80606" lon="0.698947">
        <time>2022-07-07T11:34:47Z</time>
      </trkpt>
      <trkpt lat="41.806076" lon="0.6990247">
        <time>2022-07-07T11:34:48Z</time>
      </trkpt>
      <trkpt lat="41.80609" lon="0.699102">
        <time>2022-07-07T11:34:49Z</time>
      </trkpt>
      <trkpt lat="41.806107" lon="0.69917965">
        <time>2022-07-07T11:34:50Z</time>
      </trkpt>
      <trkpt lat="41.80612" lon="0.6992576">
        <time>2022-07-07T11:34:51Z</time>
      </trkpt>
      <trkpt lat="41.806137" lon="0.69933665">
        <time>2022-07-07T11:34:52Z</time>
      </trkpt>
      <trkpt lat="41.806152" lon="0.69941497">
        <time>2022-07-07T11:34:53Z</time>
      </trkpt>
      <trkpt lat="41.806168" lon="0.6994933">
        <time>2022-07-07T11:34:54Z</time>
      </trkpt>
      <trkpt lat="41.80618" lon="0.6995716">
        <time>2022-07-07T11:34:55Z</time>
      </trkpt>
      <trkpt lat="41.8062" lon="0.69965">
        <time>2022-07-07T11:34:56Z</time>
      </trkpt>
      <trkpt lat="41.806213" lon="0.69972897">
        <time>2022-07-07T11:34:57Z</time>
      </trkpt>
      <trkpt lat="41.80623" lon="0.69980794">
        <time>2022-07-07T11:34:58Z</time>
      </trkpt>
      <trkpt lat="41.806244" lon="0.699887">
        <time>2022-07-07T11:34:59Z</time>
      </trkpt>
      <trkpt lat="41.806255" lon="0.6999653">
        <time>2022-07-07T11:35:00Z</time>
      </trkpt>
      <trkpt lat="41.80627" lon="0.70004326">
        <time>2022-07-07T11:35:01Z</time>
      </trkpt>
      <trkpt lat="41.806286" lon="0.70012295">
        <time>2022-07-07T11:35:02Z</time>
      </trkpt>
      <trkpt lat="41.8063" lon="0.7002023">
        <time>2022-07-07T11:35:03Z</time>
      </trkpt>
      <trkpt lat="41.806316" lon="0.7002819">
        <time>2022-07-07T11:35:04Z</time>
      </trkpt>
      <trkpt lat="41.80633" lon="0.70036197">
        <time>2022-07-07T11:35:05Z</time>
      </trkpt>
      <trkpt lat="41.806343" lon="0.7004416">
        <time>2022-07-07T11:35:06Z</time>
      </trkpt>
      <trkpt lat="41.80636" lon="0.70052123">
        <time>2022-07-07T11:35:07Z</time>
      </trkpt>
      <trkpt lat="41.806374" lon="0.7005996">
        <time>2022-07-07T11:35:08Z</time>
      </trkpt>
      <trkpt lat="41.80639" lon="0.7006776">
        <time>2022-07-07T11:35:09Z</time>
      </trkpt>
      <trkpt lat="41.806404" lon="0.70075494">
        <time>2022-07-07T11:35:10Z</time>
      </trkpt>
      <trkpt lat="41.80642" lon="0.7008326">
        <time>2022-07-07T11:35:11Z</time>
      </trkpt>
      <trkpt lat="41.806435" lon="0.70091057">
        <time>2022-07-07T11:35:12Z</time>
      </trkpt>
      <trkpt lat="41.80645" lon="0.7009886">
        <time>2022-07-07T11:35:13Z</time>
      </trkpt>
      <trkpt lat="41.806465" lon="0.70106757">
        <time>2022-07-07T11:35:14Z</time>
      </trkpt>
      <trkpt lat="41.806477" lon="0.7011459">
        <time>2022-07-07T11:35:15Z</time>
      </trkpt>
      <trkpt lat="41.80649" lon="0.70122457">
        <time>2022-07-07T11:35:16Z</time>
      </trkpt>
      <trkpt lat="41.806522" lon="0.7013829">
        <time>2022-07-07T11:35:18Z</time>
      </trkpt>
      <trkpt lat="41.806534" lon="0.7014622">
        <time>2022-07-07T11:35:19Z</time>
      </trkpt>
      <trkpt lat="41.80655" lon="0.70154154">
        <time>2022-07-07T11:35:20Z</time>
      </trkpt>
      <trkpt lat="41.806564" lon="0.7016202">
        <time>2022-07-07T11:35:21Z</time>
      </trkpt>
      <trkpt lat="41.80658" lon="0.7016992">
        <time>2022-07-07T11:35:22Z</time>
      </trkpt>
      <trkpt lat="41.806595" lon="0.7017776">
        <time>2022-07-07T11:35:23Z</time>
      </trkpt>
      <trkpt lat="41.80661" lon="0.7018622">
        <time>2022-07-07T11:35:24Z</time>
      </trkpt>
      <trkpt lat="41.806625" lon="0.7019399">
        <time>2022-07-07T11:35:25Z</time>
      </trkpt>
      <trkpt lat="41.80664" lon="0.70201755">
        <time>2022-07-07T11:35:26Z</time>
      </trkpt>
      <trkpt lat="41.806656" lon="0.7020955">
        <time>2022-07-07T11:35:27Z</time>
      </trkpt>
      <trkpt lat="41.80667" lon="0.70217353">
        <time>2022-07-07T11:35:28Z</time>
      </trkpt>
      <trkpt lat="41.806686" lon="0.7022512">
        <time>2022-07-07T11:35:29Z</time>
      </trkpt>
      <trkpt lat="41.806698" lon="0.7023292">
        <time>2022-07-07T11:35:30Z</time>
      </trkpt>
      <trkpt lat="41.806713" lon="0.70240617">
        <time>2022-07-07T11:35:31Z</time>
      </trkpt>
      <trkpt lat="41.806725" lon="0.7024829">
        <time>2022-07-07T11:35:32Z</time>
      </trkpt>
      <trkpt lat="41.80674" lon="0.7025592">
        <time>2022-07-07T11:35:33Z</time>
      </trkpt>
      <trkpt lat="41.806755" lon="0.7026355">
        <time>2022-07-07T11:35:34Z</time>
      </trkpt>
      <trkpt lat="41.806767" lon="0.7027115">
        <time>2022-07-07T11:35:35Z</time>
      </trkpt>
      <trkpt lat="41.80678" lon="0.7027875">
        <time>2022-07-07T11:35:36Z</time>
      </trkpt>
      <trkpt lat="41.806797" lon="0.7028635">
        <time>2022-07-07T11:35:37Z</time>
      </trkpt>
      <trkpt lat="41.80681" lon="0.7029395">
        <time>2022-07-07T11:35:38Z</time>
      </trkpt>
      <trkpt lat="41.806824" lon="0.70301586">
        <time>2022-07-07T11:35:39Z</time>
      </trkpt>
      <trkpt lat="41.806835" lon="0.70309216">
        <time>2022-07-07T11:35:40Z</time>
      </trkpt>
      <trkpt lat="41.80685" lon="0.7031685">
        <time>2022-07-07T11:35:41Z</time>
      </trkpt>
      <trkpt lat="41.806866" lon="0.7032455">
        <time>2022-07-07T11:35:42Z</time>
      </trkpt>
      <trkpt lat="41.80688" lon="0.70332384">
        <time>2022-07-07T11:35:43Z</time>
      </trkpt>
      <trkpt lat="41.8069" lon="0.7034025">
        <time>2022-07-07T11:35:44Z</time>
      </trkpt>
      <trkpt lat="41.806915" lon="0.7034805">
        <time>2022-07-07T11:35:45Z</time>
      </trkpt>
      <trkpt lat="41.806934" lon="0.7035585">
        <time>2022-07-07T11:35:46Z</time>
      </trkpt>
      <trkpt lat="41.806953" lon="0.7036368">
        <time>2022-07-07T11:35:47Z</time>
      </trkpt>
      <trkpt lat="41.806973" lon="0.70371485">
        <time>2022-07-07T11:35:48Z</time>
      </trkpt>
      <trkpt lat="41.806995" lon="0.7037938">
        <time>2022-07-07T11:35:49Z</time>
      </trkpt>
      <trkpt lat="41.80702" lon="0.70387316">
        <time>2022-07-07T11:35:50Z</time>
      </trkpt>
      <trkpt lat="41.807045" lon="0.7039525">
        <time>2022-07-07T11:35:51Z</time>
      </trkpt>
      <trkpt lat="41.80707" lon="0.7040321">
        <time>2022-07-07T11:35:52Z</time>
      </trkpt>
      <trkpt lat="41.807102" lon="0.70411116">
        <time>2022-07-07T11:35:53Z</time>
      </trkpt>
      <trkpt lat="41.807137" lon="0.7041898">
        <time>2022-07-07T11:35:54Z</time>
      </trkpt>
      <trkpt lat="41.807167" lon="0.70426744">
        <time>2022-07-07T11:35:55Z</time>
      </trkpt>
      <trkpt lat="41.8072" lon="0.70434445">
        <time>2022-07-07T11:35:56Z</time>
      </trkpt>
      <trkpt lat="41.807236" lon="0.7044218">
        <time>2022-07-07T11:35:57Z</time>
      </trkpt>
      <trkpt lat="41.80727" lon="0.7044978">
        <time>2022-07-07T11:35:58Z</time>
      </trkpt>
      <trkpt lat="41.807304" lon="0.7045728">
        <time>2022-07-07T11:35:59Z</time>
      </trkpt>
      <trkpt lat="41.807343" lon="0.70464814">
        <time>2022-07-07T11:36:00Z</time>
      </trkpt>
      <trkpt lat="41.807377" lon="0.7047231">
        <time>2022-07-07T11:36:01Z</time>
      </trkpt>
      <trkpt lat="41.80741" lon="0.70479876">
        <time>2022-07-07T11:36:02Z</time>
      </trkpt>
      <trkpt lat="41.807446" lon="0.7048751">
        <time>2022-07-07T11:36:03Z</time>
      </trkpt>
      <trkpt lat="41.80748" lon="0.7049521">
        <time>2022-07-07T11:36:04Z</time>
      </trkpt>
      <trkpt lat="41.807514" lon="0.7050288">
        <time>2022-07-07T11:36:05Z</time>
      </trkpt>
      <trkpt lat="41.80755" lon="0.70510477">
        <time>2022-07-07T11:36:06Z</time>
      </trkpt>
      <trkpt lat="41.80758" lon="0.7051738">
        <time>2022-07-07T11:36:07Z</time>
      </trkpt>
      <trkpt lat="41.807613" lon="0.70524675">
        <time>2022-07-07T11:36:08Z</time>
      </trkpt>
      <trkpt lat="41.80764" lon="0.7053131">
        <time>2022-07-07T11:36:09Z</time>
      </trkpt>
      <trkpt lat="41.807674" lon="0.7053821">
        <time>2022-07-07T11:36:10Z</time>
      </trkpt>
      <trkpt lat="41.807705" lon="0.7054491">
        <time>2022-07-07T11:36:11Z</time>
      </trkpt>
      <trkpt lat="41.807735" lon="0.70551574">
        <time>2022-07-07T11:36:12Z</time>
      </trkpt>
      <trkpt lat="41.807766" lon="0.70558274">
        <time>2022-07-07T11:36:13Z</time>
      </trkpt>
      <trkpt lat="41.807796" lon="0.70565045">
        <time>2022-07-07T11:36:14Z</time>
      </trkpt>
      <trkpt lat="41.80783" lon="0.7057181">
        <time>2022-07-07T11:36:15Z</time>
      </trkpt>
      <trkpt lat="41.80786" lon="0.70578474">
        <time>2022-07-07T11:36:16Z</time>
      </trkpt>
      <trkpt lat="41.80789" lon="0.70585173">
        <time>2022-07-07T11:36:17Z</time>
      </trkpt>
      <trkpt lat="41.807926" lon="0.7059174">
        <time>2022-07-07T11:36:18Z</time>
      </trkpt>
      <trkpt lat="41.807957" lon="0.70598274">
        <time>2022-07-07T11:36:19Z</time>
      </trkpt>
      <trkpt lat="41.807983" lon="0.70604706">
        <time>2022-07-07T11:36:20Z</time>
      </trkpt>
      <trkpt lat="41.808014" lon="0.7061097">
        <time>2022-07-07T11:36:21Z</time>
      </trkpt>
      <trkpt lat="41.80804" lon="0.70617104">
        <time>2022-07-07T11:36:22Z</time>
      </trkpt>
      <trkpt lat="41.80807" lon="0.7062321">
        <time>2022-07-07T11:36:23Z</time>
      </trkpt>
      <trkpt lat="41.808098" lon="0.7062927">
        <time>2022-07-07T11:36:24Z</time>
      </trkpt>
      <trkpt lat="41.80818" lon="0.7064777">
        <time>2022-07-07T11:36:27Z</time>
      </trkpt>
      <trkpt lat="41.80821" lon="0.7065407">
        <time>2022-07-07T11:36:28Z</time>
      </trkpt>
      <trkpt lat="41.80824" lon="0.70660573">
        <time>2022-07-07T11:36:29Z</time>
      </trkpt>
      <trkpt lat="41.80827" lon="0.70667034">
        <time>2022-07-07T11:36:30Z</time>
      </trkpt>
      <trkpt lat="41.8083" lon="0.7067367">
        <time>2022-07-07T11:36:31Z</time>
      </trkpt>
      <trkpt lat="41.80833" lon="0.7068034">
        <time>2022-07-07T11:36:32Z</time>
      </trkpt>
      <trkpt lat="41.80836" lon="0.70687">
        <time>2022-07-07T11:36:33Z</time>
      </trkpt>
      <trkpt lat="41.80839" lon="0.7069334">
        <time>2022-07-07T11:36:34Z</time>
      </trkpt>
      <trkpt lat="41.80842" lon="0.70699733">
        <time>2022-07-07T11:36:35Z</time>
      </trkpt>
      <trkpt lat="41.80845" lon="0.70706236">
        <time>2022-07-07T11:36:36Z</time>
      </trkpt>
      <trkpt lat="41.80848" lon="0.7071277">
        <time>2022-07-07T11:36:37Z</time>
      </trkpt>
      <trkpt lat="41.808514" lon="0.70719403">
        <time>2022-07-07T11:36:38Z</time>
      </trkpt>
      <trkpt lat="41.808544" lon="0.70726603">
        <time>2022-07-07T11:36:39Z</time>
      </trkpt>
      <trkpt lat="41.80858" lon="0.7073323">
        <time>2022-07-07T11:36:40Z</time>
      </trkpt>
      <trkpt lat="41.80861" lon="0.707399">
        <time>2022-07-07T11:36:41Z</time>
      </trkpt>
      <trkpt lat="41.808643" lon="0.70746964">
        <time>2022-07-07T11:36:42Z</time>
      </trkpt>
      <trkpt lat="41.808678" lon="0.70754">
        <time>2022-07-07T11:36:43Z</time>
      </trkpt>
      <trkpt lat="41.808712" lon="0.70761">
        <time>2022-07-07T11:36:44Z</time>
      </trkpt>
      <trkpt lat="41.808746" lon="0.707681">
        <time>2022-07-07T11:36:45Z</time>
      </trkpt>
      <trkpt lat="41.80878" lon="0.70774865">
        <time>2022-07-07T11:36:46Z</time>
      </trkpt>
      <trkpt lat="41.80881" lon="0.70782167">
        <time>2022-07-07T11:36:47Z</time>
      </trkpt>
      <trkpt lat="41.808846" lon="0.70789397">
        <time>2022-07-07T11:36:48Z</time>
      </trkpt>
      <trkpt lat="41.808876" lon="0.70796496">
        <time>2022-07-07T11:36:49Z</time>
      </trkpt>
      <trkpt lat="41.80891" lon="0.708035">
        <time>2022-07-07T11:36:50Z</time>
      </trkpt>
      <trkpt lat="41.80894" lon="0.70810395">
        <time>2022-07-07T11:36:51Z</time>
      </trkpt>
      <trkpt lat="41.80897" lon="0.7081676">
        <time>2022-07-07T11:36:52Z</time>
      </trkpt>
      <trkpt lat="41.809002" lon="0.7082356">
        <time>2022-07-07T11:36:53Z</time>
      </trkpt>
      <trkpt lat="41.809032" lon="0.70830166">
        <time>2022-07-07T11:36:54Z</time>
      </trkpt>
      <trkpt lat="41.80906" lon="0.7083656">
        <time>2022-07-07T11:36:55Z</time>
      </trkpt>
      <trkpt lat="41.80909" lon="0.70842767">
        <time>2022-07-07T11:36:56Z</time>
      </trkpt>
      <trkpt lat="41.809116" lon="0.7084843">
        <time>2022-07-07T11:36:57Z</time>
      </trkpt>
      <trkpt lat="41.809143" lon="0.7085446">
        <time>2022-07-07T11:36:58Z</time>
      </trkpt>
      <trkpt lat="41.80917" lon="0.7086026">
        <time>2022-07-07T11:36:59Z</time>
      </trkpt>
      <trkpt lat="41.80922" lon="0.70871294">
        <time>2022-07-07T11:37:01Z</time>
      </trkpt>
      <trkpt lat="41.809265" lon="0.70881295">
        <time>2022-07-07T11:37:03Z</time>
      </trkpt>
      <trkpt lat="41.809315" lon="0.70891094">
        <time>2022-07-07T11:37:05Z</time>
      </trkpt>
      <trkpt lat="41.809357" lon="0.7090016">
        <time>2022-07-07T11:37:07Z</time>
      </trkpt>
      <trkpt lat="41.8094" lon="0.70909595">
        <time>2022-07-07T11:37:09Z</time>
      </trkpt>
      <trkpt lat="41.809444" lon="0.70918727">
        <time>2022-07-07T11:37:11Z</time>
      </trkpt>
      <trkpt lat="41.809486" lon="0.70927095">
        <time>2022-07-07T11:37:13Z</time>
      </trkpt>
      <trkpt lat="41.809525" lon="0.70935327">
        <time>2022-07-07T11:37:15Z</time>
      </trkpt>
      <trkpt lat="41.809566" lon="0.70943725">
        <time>2022-07-07T11:37:17Z</time>
      </trkpt>
      <trkpt lat="41.80961" lon="0.70953095">
        <time>2022-07-07T11:37:19Z</time>
      </trkpt>
      <trkpt lat="41.809647" lon="0.70962423">
        <time>2022-07-07T11:37:21Z</time>
      </trkpt>
      <trkpt lat="41.80969" lon="0.70971125">
        <time>2022-07-07T11:37:23Z</time>
      </trkpt>
      <trkpt lat="41.80973" lon="0.7098073">
        <time>2022-07-07T11:37:25Z</time>
      </trkpt>
      <trkpt lat="41.809776" lon="0.70989895">
        <time>2022-07-07T11:37:27Z</time>
      </trkpt>
      <trkpt lat="41.80982" lon="0.7099889">
        <time>2022-07-07T11:37:29Z</time>
      </trkpt>
      <trkpt lat="41.809864" lon="0.7100849">
        <time>2022-07-07T11:37:31Z</time>
      </trkpt>
      <trkpt lat="41.809914" lon="0.7101826">
        <time>2022-07-07T11:37:33Z</time>
      </trkpt>
      <trkpt lat="41.809956" lon="0.7102789">
        <time>2022-07-07T11:37:35Z</time>
      </trkpt>
      <trkpt lat="41.81" lon="0.71037555">
        <time>2022-07-07T11:37:37Z</time>
      </trkpt>
      <trkpt lat="41.810047" lon="0.7104716">
        <time>2022-07-07T11:37:39Z</time>
      </trkpt>
      <trkpt lat="41.810093" lon="0.71056956">
        <time>2022-07-07T11:37:41Z</time>
      </trkpt>
      <trkpt lat="41.810135" lon="0.7106642">
        <time>2022-07-07T11:37:43Z</time>
      </trkpt>
      <trkpt lat="41.810177" lon="0.71076554">
        <time>2022-07-07T11:37:45Z</time>
      </trkpt>
      <trkpt lat="41.810223" lon="0.7108652">
        <time>2022-07-07T11:37:47Z</time>
      </trkpt>
      <trkpt lat="41.81027" lon="0.71096057">
        <time>2022-07-07T11:37:49Z</time>
      </trkpt>
      <trkpt lat="41.810314" lon="0.71105754">
        <time>2022-07-07T11:37:51Z</time>
      </trkpt>
      <trkpt lat="41.81036" lon="0.71115524">
        <time>2022-07-07T11:37:53Z</time>
      </trkpt>
      <trkpt lat="41.810406" lon="0.7112459">
        <time>2022-07-07T11:37:55Z</time>
      </trkpt>
      <trkpt lat="41.810455" lon="0.7113442">
        <time>2022-07-07T11:37:57Z</time>
      </trkpt>
      <trkpt lat="41.8105" lon="0.7114352">
        <time>2022-07-07T11:37:59Z</time>
      </trkpt>
      <trkpt lat="41.810543" lon="0.7115269">
        <time>2022-07-07T11:38:01Z</time>
      </trkpt>
      <trkpt lat="41.810585" lon="0.71162117">
        <time>2022-07-07T11:38:03Z</time>
      </trkpt>
      <trkpt lat="41.81063" lon="0.71171784">
        <time>2022-07-07T11:38:05Z</time>
      </trkpt>
      <trkpt lat="41.810677" lon="0.71181554">
        <time>2022-07-07T11:38:07Z</time>
      </trkpt>
      <trkpt lat="41.810722" lon="0.7119142">
        <time>2022-07-07T11:38:09Z</time>
      </trkpt>
      <trkpt lat="41.810764" lon="0.7120082">
        <time>2022-07-07T11:38:11Z</time>
      </trkpt>
      <trkpt lat="41.810806" lon="0.71210515">
        <time>2022-07-07T11:38:13Z</time>
      </trkpt>
      <trkpt lat="41.81085" lon="0.7122008">
        <time>2022-07-07T11:38:15Z</time>
      </trkpt>
      <trkpt lat="41.81089" lon="0.71229315">
        <time>2022-07-07T11:38:17Z</time>
      </trkpt>
      <trkpt lat="41.810936" lon="0.71239114">
        <time>2022-07-07T11:38:19Z</time>
      </trkpt>
      <trkpt lat="41.810978" lon="0.71248317">
        <time>2022-07-07T11:38:21Z</time>
      </trkpt>
      <trkpt lat="41.811024" lon="0.7125768">
        <time>2022-07-07T11:38:23Z</time>
      </trkpt>
      <trkpt lat="41.811066" lon="0.7126728">
        <time>2022-07-07T11:38:25Z</time>
      </trkpt>
      <trkpt lat="41.811104" lon="0.71276015">
        <time>2022-07-07T11:38:27Z</time>
      </trkpt>
      <trkpt lat="41.81115" lon="0.71285045">
        <time>2022-07-07T11:38:29Z</time>
      </trkpt>
      <trkpt lat="41.81119" lon="0.7129318">
        <time>2022-07-07T11:38:31Z</time>
      </trkpt>
      <trkpt lat="41.81123" lon="0.71301347">
        <time>2022-07-07T11:38:33Z</time>
      </trkpt>
      <trkpt lat="41.811268" lon="0.7130941">
        <time>2022-07-07T11:38:35Z</time>
      </trkpt>
      <trkpt lat="41.811306" lon="0.71317476">
        <time>2022-07-07T11:38:37Z</time>
      </trkpt>
      <trkpt lat="41.811344" lon="0.7132618">
        <time>2022-07-07T11:38:39Z</time>
      </trkpt>
      <trkpt lat="41.811382" lon="0.71334743">
        <time>2022-07-07T11:38:41Z</time>
      </trkpt>
      <trkpt lat="41.81142" lon="0.71342945">
        <time>2022-07-07T11:38:43Z</time>
      </trkpt>
      <trkpt lat="41.811474" lon="0.71354675">
        <time>2022-07-07T11:38:46Z</time>
      </trkpt>
      <trkpt lat="41.811512" lon="0.7136261">
        <time>2022-07-07T11:38:48Z</time>
      </trkpt>
      <trkpt lat="41.811543" lon="0.71370476">
        <time>2022-07-07T11:38:50Z</time>
      </trkpt>
      <trkpt lat="41.811577" lon="0.7137861">
        <time>2022-07-07T11:38:52Z</time>
      </trkpt>
      <trkpt lat="41.81161" lon="0.7138624">
        <time>2022-07-07T11:38:54Z</time>
      </trkpt>
      <trkpt lat="41.811646" lon="0.71394306">
        <time>2022-07-07T11:38:56Z</time>
      </trkpt>
      <trkpt lat="41.811684" lon="0.71402276">
        <time>2022-07-07T11:38:58Z</time>
      </trkpt>
      <trkpt lat="41.81172" lon="0.71410275">
        <time>2022-07-07T11:39:00Z</time>
      </trkpt>
      <trkpt lat="41.811756" lon="0.7141831">
        <time>2022-07-07T11:39:02Z</time>
      </trkpt>
      <trkpt lat="41.811787" lon="0.71426475">
        <time>2022-07-07T11:39:04Z</time>
      </trkpt>
      <trkpt lat="41.81183" lon="0.7143554">
        <time>2022-07-07T11:39:06Z</time>
      </trkpt>
      <trkpt lat="41.81187" lon="0.7144464">
        <time>2022-07-07T11:39:08Z</time>
      </trkpt>
      <trkpt lat="41.811913" lon="0.7145374">
        <time>2022-07-07T11:39:10Z</time>
      </trkpt>
      <trkpt lat="41.811962" lon="0.7146394">
        <time>2022-07-07T11:39:12Z</time>
      </trkpt>
      <trkpt lat="41.81199" lon="0.71469307">
        <time>2022-07-07T11:39:13Z</time>
      </trkpt>
      <trkpt lat="41.812035" lon="0.7147944">
        <time>2022-07-07T11:39:15Z</time>
      </trkpt>
      <trkpt lat="41.812088" lon="0.71490437">
        <time>2022-07-07T11:39:17Z</time>
      </trkpt>
      <trkpt lat="41.812115" lon="0.714959">
        <time>2022-07-07T11:39:18Z</time>
      </trkpt>
      <trkpt lat="41.812164" lon="0.71506506">
        <time>2022-07-07T11:39:20Z</time>
      </trkpt>
      <trkpt lat="41.812214" lon="0.7151741">
        <time>2022-07-07T11:39:22Z</time>
      </trkpt>
      <trkpt lat="41.812267" lon="0.7152834">
        <time>2022-07-07T11:39:24Z</time>
      </trkpt>
      <trkpt lat="41.812317" lon="0.7153847">
        <time>2022-07-07T11:39:26Z</time>
      </trkpt>
      <trkpt lat="41.812366" lon="0.715484">
        <time>2022-07-07T11:39:28Z</time>
      </trkpt>
      <trkpt lat="41.812412" lon="0.7155797">
        <time>2022-07-07T11:39:30Z</time>
      </trkpt>
      <trkpt lat="41.812454" lon="0.7156684">
        <time>2022-07-07T11:39:32Z</time>
      </trkpt>
      <trkpt lat="41.812496" lon="0.7157584">
        <time>2022-07-07T11:39:34Z</time>
      </trkpt>
      <trkpt lat="41.812534" lon="0.71584505">
        <time>2022-07-07T11:39:36Z</time>
      </trkpt>
      <trkpt lat="41.812572" lon="0.71592903">
        <time>2022-07-07T11:39:38Z</time>
      </trkpt>
      <trkpt lat="41.81261" lon="0.71601367">
        <time>2022-07-07T11:39:40Z</time>
      </trkpt>
      <trkpt lat="41.81265" lon="0.71609235">
        <time>2022-07-07T11:39:42Z</time>
      </trkpt>
      <trkpt lat="41.812687" lon="0.71617633">
        <time>2022-07-07T11:39:44Z</time>
      </trkpt>
      <trkpt lat="41.81272" lon="0.71625435">
        <time>2022-07-07T11:39:46Z</time>
      </trkpt>
      <trkpt lat="41.81276" lon="0.7163337">
        <time>2022-07-07T11:39:48Z</time>
      </trkpt>
      <trkpt lat="41.812794" lon="0.716412">
        <time>2022-07-07T11:39:50Z</time>
      </trkpt>
      <trkpt lat="41.812824" lon="0.7164933">
        <time>2022-07-07T11:39:52Z</time>
      </trkpt>
      <trkpt lat="41.812862" lon="0.7165757">
        <time>2022-07-07T11:39:54Z</time>
      </trkpt>
      <trkpt lat="41.8129" lon="0.7166583">
        <time>2022-07-07T11:39:56Z</time>
      </trkpt>
      <trkpt lat="41.812935" lon="0.7167326">
        <time>2022-07-07T11:39:58Z</time>
      </trkpt>
      <trkpt lat="41.812977" lon="0.71681166">
        <time>2022-07-07T11:40:00Z</time>
      </trkpt>
      <trkpt lat="41.81302" lon="0.716882">
        <time>2022-07-07T11:40:02Z</time>
      </trkpt>
      <trkpt lat="41.813053" lon="0.71695596">
        <time>2022-07-07T11:40:04Z</time>
      </trkpt>
      <trkpt lat="41.81309" lon="0.71703464">
        <time>2022-07-07T11:40:06Z</time>
      </trkpt>
      <trkpt lat="41.813126" lon="0.7171113">
        <time>2022-07-07T11:40:08Z</time>
      </trkpt>
      <trkpt lat="41.81316" lon="0.7171903">
        <time>2022-07-07T11:40:10Z</time>
      </trkpt>
      <trkpt lat="41.813194" lon="0.7172716">
        <time>2022-07-07T11:40:12Z</time>
      </trkpt>
      <trkpt lat="41.813232" lon="0.7173506">
        <time>2022-07-07T11:40:14Z</time>
      </trkpt>
      <trkpt lat="41.81327" lon="0.7174343">
        <time>2022-07-07T11:40:16Z</time>
      </trkpt>
      <trkpt lat="41.813305" lon="0.7175099">
        <time>2022-07-07T11:40:18Z</time>
      </trkpt>
      <trkpt lat="41.813343" lon="0.7175909">
        <time>2022-07-07T11:40:20Z</time>
      </trkpt>
      <trkpt lat="41.813385" lon="0.7176796">
        <time>2022-07-07T11:40:22Z</time>
      </trkpt>
      <trkpt lat="41.813427" lon="0.71777093">
        <time>2022-07-07T11:40:24Z</time>
      </trkpt>
      <trkpt lat="41.813473" lon="0.7178736">
        <time>2022-07-07T11:40:26Z</time>
      </trkpt>
      <trkpt lat="41.813515" lon="0.7179799">
        <time>2022-07-07T11:40:28Z</time>
      </trkpt>
      <trkpt lat="41.813553" lon="0.7180906">
        <time>2022-07-07T11:40:30Z</time>
      </trkpt>
      <trkpt lat="41.81359" lon="0.7182189">
        <time>2022-07-07T11:40:32Z</time>
      </trkpt>
      <trkpt lat="41.81363" lon="0.71835256">
        <time>2022-07-07T11:40:34Z</time>
      </trkpt>
      <trkpt lat="41.813644" lon="0.7184226">
        <time>2022-07-07T11:40:35Z</time>
      </trkpt>
      <trkpt lat="41.813717" lon="0.71872157">
        <time>2022-07-07T11:40:37Z</time>
      </trkpt>
      <trkpt lat="41.81372" lon="0.71874124">
        <time>2022-07-07T11:40:38Z</time>
      </trkpt>
      <trkpt lat="41.81374" lon="0.7188386">
        <time>2022-07-07T11:40:40Z</time>
      </trkpt>
      <trkpt lat="41.813766" lon="0.7189836">
        <time>2022-07-07T11:40:42Z</time>
      </trkpt>
      <trkpt lat="41.81378" lon="0.7190596">
        <time>2022-07-07T11:40:43Z</time>
      </trkpt>
      <trkpt lat="41.8138" lon="0.7191469">
        <time>2022-07-07T11:40:44Z</time>
      </trkpt>
      <trkpt lat="41.81382" lon="0.71923625">
        <time>2022-07-07T11:40:45Z</time>
      </trkpt>
      <trkpt lat="41.813835" lon="0.71932155">
        <time>2022-07-07T11:40:46Z</time>
      </trkpt>
      <trkpt lat="41.813854" lon="0.71941054">
        <time>2022-07-07T11:40:47Z</time>
      </trkpt>
      <trkpt lat="41.813873" lon="0.71950257">
        <time>2022-07-07T11:40:48Z</time>
      </trkpt>
      <trkpt lat="41.813892" lon="0.7195979">
        <time>2022-07-07T11:40:49Z</time>
      </trkpt>
      <trkpt lat="41.81391" lon="0.7196962">
        <time>2022-07-07T11:40:50Z</time>
      </trkpt>
      <trkpt lat="41.81393" lon="0.7197969">
        <time>2022-07-07T11:40:51Z</time>
      </trkpt>
      <trkpt lat="41.813953" lon="0.71990585">
        <time>2022-07-07T11:40:52Z</time>
      </trkpt>
      <trkpt lat="41.813976" lon="0.7200142">
        <time>2022-07-07T11:40:53Z</time>
      </trkpt>
      <trkpt lat="41.814" lon="0.7201225">
        <time>2022-07-07T11:40:54Z</time>
      </trkpt>
      <trkpt lat="41.81402" lon="0.7202305">
        <time>2022-07-07T11:40:55Z</time>
      </trkpt>
      <trkpt lat="41.81404" lon="0.7203309">
        <time>2022-07-07T11:40:56Z</time>
      </trkpt>
      <trkpt lat="41.81406" lon="0.7204325">
        <time>2022-07-07T11:40:57Z</time>
      </trkpt>
      <trkpt lat="41.814083" lon="0.72053486">
        <time>2022-07-07T11:40:58Z</time>
      </trkpt>
      <trkpt lat="41.814102" lon="0.72063655">
        <time>2022-07-07T11:40:59Z</time>
      </trkpt>
      <trkpt lat="41.81412" lon="0.7207382">
        <time>2022-07-07T11:41:00Z</time>
      </trkpt>
      <trkpt lat="41.814144" lon="0.7208458">
        <time>2022-07-07T11:41:01Z</time>
      </trkpt>
      <trkpt lat="41.814163" lon="0.7209498">
        <time>2022-07-07T11:41:02Z</time>
      </trkpt>
      <trkpt lat="41.814182" lon="0.7210518">
        <time>2022-07-07T11:41:03Z</time>
      </trkpt>
      <trkpt lat="41.8142" lon="0.7211522">
        <time>2022-07-07T11:41:04Z</time>
      </trkpt>
      <trkpt lat="41.81422" lon="0.7212505">
        <time>2022-07-07T11:41:05Z</time>
      </trkpt>
      <trkpt lat="41.81424" lon="0.72134584">
        <time>2022-07-07T11:41:06Z</time>
      </trkpt>
      <trkpt lat="41.81426" lon="0.7214388">
        <time>2022-07-07T11:41:07Z</time>
      </trkpt>
      <trkpt lat="41.814274" lon="0.7215315">
        <time>2022-07-07T11:41:08Z</time>
      </trkpt>
      <trkpt lat="41.814293" lon="0.7216245">
        <time>2022-07-07T11:41:09Z</time>
      </trkpt>
      <trkpt lat="41.81431" lon="0.72171783">
        <time>2022-07-07T11:41:10Z</time>
      </trkpt>
      <trkpt lat="41.814327" lon="0.7218108">
        <time>2022-07-07T11:41:11Z</time>
      </trkpt>
      <trkpt lat="41.814346" lon="0.7219035">
        <time>2022-07-07T11:41:12Z</time>
      </trkpt>
      <trkpt lat="41.81436" lon="0.7219955">
        <time>2022-07-07T11:41:13Z</time>
      </trkpt>
      <trkpt lat="41.81438" lon="0.72208714">
        <time>2022-07-07T11:41:14Z</time>
      </trkpt>
      <trkpt lat="41.8144" lon="0.7221765">
        <time>2022-07-07T11:41:15Z</time>
      </trkpt>
      <trkpt lat="41.814415" lon="0.7222648">
        <time>2022-07-07T11:41:16Z</time>
      </trkpt>
      <trkpt lat="41.81443" lon="0.7223518">
        <time>2022-07-07T11:41:17Z</time>
      </trkpt>
      <trkpt lat="41.814445" lon="0.7224368">
        <time>2022-07-07T11:41:18Z</time>
      </trkpt>
      <trkpt lat="41.81446" lon="0.7225215">
        <time>2022-07-07T11:41:19Z</time>
      </trkpt>
      <trkpt lat="41.81448" lon="0.7226065">
        <time>2022-07-07T11:41:20Z</time>
      </trkpt>
      <trkpt lat="41.814495" lon="0.72269344">
        <time>2022-07-07T11:41:21Z</time>
      </trkpt>
      <trkpt lat="41.814514" lon="0.7227818">
        <time>2022-07-07T11:41:22Z</time>
      </trkpt>
      <trkpt lat="41.814533" lon="0.7228711">
        <time>2022-07-07T11:41:23Z</time>
      </trkpt>
      <trkpt lat="41.81455" lon="0.72296244">
        <time>2022-07-07T11:41:24Z</time>
      </trkpt>
      <trkpt lat="41.814568" lon="0.72305447">
        <time>2022-07-07T11:41:25Z</time>
      </trkpt>
      <trkpt lat="41.8146" lon="0.72324014">
        <time>2022-07-07T11:41:27Z</time>
      </trkpt>
      <trkpt lat="41.81462" lon="0.72333276">
        <time>2022-07-07T11:41:28Z</time>
      </trkpt>
      <trkpt lat="41.81464" lon="0.7234234">
        <time>2022-07-07T11:41:29Z</time>
      </trkpt>
      <trkpt lat="41.81466" lon="0.7235071">
        <time>2022-07-07T11:41:30Z</time>
      </trkpt>
      <trkpt lat="41.814674" lon="0.72359043">
        <time>2022-07-07T11:41:31Z</time>
      </trkpt>
      <trkpt lat="41.81469" lon="0.72367907">
        <time>2022-07-07T11:41:32Z</time>
      </trkpt>
      <trkpt lat="41.814705" lon="0.72376007">
        <time>2022-07-07T11:41:33Z</time>
      </trkpt>
      <trkpt lat="41.814724" lon="0.72384673">
        <time>2022-07-07T11:41:34Z</time>
      </trkpt>
      <trkpt lat="41.81474" lon="0.7239307">
        <time>2022-07-07T11:41:35Z</time>
      </trkpt>
      <trkpt lat="41.814754" lon="0.7240134">
        <time>2022-07-07T11:41:36Z</time>
      </trkpt>
      <trkpt lat="41.81477" lon="0.72409403">
        <time>2022-07-07T11:41:37Z</time>
      </trkpt>
      <trkpt lat="41.814785" lon="0.72417474">
        <time>2022-07-07T11:41:38Z</time>
      </trkpt>
      <trkpt lat="41.814804" lon="0.7242554">
        <time>2022-07-07T11:41:39Z</time>
      </trkpt>
      <trkpt lat="41.81482" lon="0.72433835">
        <time>2022-07-07T11:41:40Z</time>
      </trkpt>
      <trkpt lat="41.814835" lon="0.7244164">
        <time>2022-07-07T11:41:41Z</time>
      </trkpt>
      <trkpt lat="41.814854" lon="0.724497">
        <time>2022-07-07T11:41:42Z</time>
      </trkpt>
      <trkpt lat="41.81487" lon="0.72458035">
        <time>2022-07-07T11:41:43Z</time>
      </trkpt>
      <trkpt lat="41.81489" lon="0.72467136">
        <time>2022-07-07T11:41:44Z</time>
      </trkpt>
      <trkpt lat="41.814915" lon="0.72476137">
        <time>2022-07-07T11:41:45Z</time>
      </trkpt>
      <trkpt lat="41.814934" lon="0.7248537">
        <time>2022-07-07T11:41:46Z</time>
      </trkpt>
      <trkpt lat="41.814953" lon="0.72494704">
        <time>2022-07-07T11:41:47Z</time>
      </trkpt>
      <trkpt lat="41.814972" lon="0.7250417">
        <time>2022-07-07T11:41:48Z</time>
      </trkpt>
      <trkpt lat="41.81499" lon="0.72513837">
        <time>2022-07-07T11:41:49Z</time>
      </trkpt>
      <trkpt lat="41.81501" lon="0.725229">
        <time>2022-07-07T11:41:50Z</time>
      </trkpt>
      <trkpt lat="41.815025" lon="0.72532266">
        <time>2022-07-07T11:41:51Z</time>
      </trkpt>
      <trkpt lat="41.815044" lon="0.725426">
        <time>2022-07-07T11:41:52Z</time>
      </trkpt>
      <trkpt lat="41.815063" lon="0.7255217">
        <time>2022-07-07T11:41:53Z</time>
      </trkpt>
      <trkpt lat="41.815083" lon="0.7256193">
        <time>2022-07-07T11:41:54Z</time>
      </trkpt>
      <trkpt lat="41.815105" lon="0.7257183">
        <time>2022-07-07T11:41:55Z</time>
      </trkpt>
      <trkpt lat="41.81514" lon="0.72581667">
        <time>2022-07-07T11:41:56Z</time>
      </trkpt>
      <trkpt lat="41.815166" lon="0.725918">
        <time>2022-07-07T11:41:57Z</time>
      </trkpt>
      <trkpt lat="41.815197" lon="0.7260233">
        <time>2022-07-07T11:41:58Z</time>
      </trkpt>
      <trkpt lat="41.815228" lon="0.72613263">
        <time>2022-07-07T11:41:59Z</time>
      </trkpt>
      <trkpt lat="41.815266" lon="0.72625166">
        <time>2022-07-07T11:42:00Z</time>
      </trkpt>
      <trkpt lat="41.815304" lon="0.726367">
        <time>2022-07-07T11:42:01Z</time>
      </trkpt>
      <trkpt lat="41.81535" lon="0.7264766">
        <time>2022-07-07T11:42:02Z</time>
      </trkpt>
      <trkpt lat="41.815403" lon="0.7265796">
        <time>2022-07-07T11:42:03Z</time>
      </trkpt>
      <trkpt lat="41.815468" lon="0.7266746">
        <time>2022-07-07T11:42:04Z</time>
      </trkpt>
      <trkpt lat="41.815536" lon="0.72676265">
        <time>2022-07-07T11:42:05Z</time>
      </trkpt>
      <trkpt lat="41.815613" lon="0.72684366">
        <time>2022-07-07T11:42:06Z</time>
      </trkpt>
      <trkpt lat="41.815693" lon="0.7269183">
        <time>2022-07-07T11:42:07Z</time>
      </trkpt>
      <trkpt lat="41.815777" lon="0.726989">
        <time>2022-07-07T11:42:08Z</time>
      </trkpt>
      <trkpt lat="41.815865" lon="0.7270569">
        <time>2022-07-07T11:42:09Z</time>
      </trkpt>
      <trkpt lat="41.815956" lon="0.7271223">
        <time>2022-07-07T11:42:10Z</time>
      </trkpt>
      <trkpt lat="41.816048" lon="0.72718626">
        <time>2022-07-07T11:42:11Z</time>
      </trkpt>
      <trkpt lat="41.81613" lon="0.7272463">
        <time>2022-07-07T11:42:12Z</time>
      </trkpt>
      <trkpt lat="41.816223" lon="0.72731096">
        <time>2022-07-07T11:42:13Z</time>
      </trkpt>
      <trkpt lat="41.816315" lon="0.72737324">
        <time>2022-07-07T11:42:14Z</time>
      </trkpt>
      <trkpt lat="41.8164" lon="0.7274306">
        <time>2022-07-07T11:42:15Z</time>
      </trkpt>
      <trkpt lat="41.816483" lon="0.7274876">
        <time>2022-07-07T11:42:16Z</time>
      </trkpt>
      <trkpt lat="41.816574" lon="0.7275499">
        <time>2022-07-07T11:42:17Z</time>
      </trkpt>
      <trkpt lat="41.816658" lon="0.7276066">
        <time>2022-07-07T11:42:18Z</time>
      </trkpt>
      <trkpt lat="41.816742" lon="0.72766495">
        <time>2022-07-07T11:42:19Z</time>
      </trkpt>
      <trkpt lat="41.81683" lon="0.7277222">
        <time>2022-07-07T11:42:20Z</time>
      </trkpt>
      <trkpt lat="41.816914" lon="0.7277802">
        <time>2022-07-07T11:42:21Z</time>
      </trkpt>
      <trkpt lat="41.816998" lon="0.72783726">
        <time>2022-07-07T11:42:22Z</time>
      </trkpt>
      <trkpt lat="41.81708" lon="0.7278949">
        <time>2022-07-07T11:42:23Z</time>
      </trkpt>
      <trkpt lat="41.817165" lon="0.7279539">
        <time>2022-07-07T11:42:24Z</time>
      </trkpt>
      <trkpt lat="41.817245" lon="0.7280109">
        <time>2022-07-07T11:42:25Z</time>
      </trkpt>
      <trkpt lat="41.817326" lon="0.7280716">
        <time>2022-07-07T11:42:26Z</time>
      </trkpt>
      <trkpt lat="41.8174" lon="0.7281392">
        <time>2022-07-07T11:42:27Z</time>
      </trkpt>
      <trkpt lat="41.81747" lon="0.7282142">
        <time>2022-07-07T11:42:28Z</time>
      </trkpt>
      <trkpt lat="41.817535" lon="0.72829556">
        <time>2022-07-07T11:42:29Z</time>
      </trkpt>
      <trkpt lat="41.817585" lon="0.72838587">
        <time>2022-07-07T11:42:30Z</time>
      </trkpt>
      <trkpt lat="41.817627" lon="0.72848225">
        <time>2022-07-07T11:42:31Z</time>
      </trkpt>
      <trkpt lat="41.81766" lon="0.72858286">
        <time>2022-07-07T11:42:32Z</time>
      </trkpt>
      <trkpt lat="41.817684" lon="0.72868556">
        <time>2022-07-07T11:42:33Z</time>
      </trkpt>
      <trkpt lat="41.8177" lon="0.72878855">
        <time>2022-07-07T11:42:34Z</time>
      </trkpt>
      <trkpt lat="41.81771" lon="0.72889054">
        <time>2022-07-07T11:42:35Z</time>
      </trkpt>
      <trkpt lat="41.817722" lon="0.72899187">
        <time>2022-07-07T11:42:36Z</time>
      </trkpt>
      <trkpt lat="41.81773" lon="0.72909087">
        <time>2022-07-07T11:42:37Z</time>
      </trkpt>
      <trkpt lat="41.817734" lon="0.72918785">
        <time>2022-07-07T11:42:38Z</time>
      </trkpt>
      <trkpt lat="41.81774" lon="0.7292812">
        <time>2022-07-07T11:42:39Z</time>
      </trkpt>
      <trkpt lat="41.81774" lon="0.7293695">
        <time>2022-07-07T11:42:40Z</time>
      </trkpt>
      <trkpt lat="41.81774" lon="0.7294602">
        <time>2022-07-07T11:42:41Z</time>
      </trkpt>
      <trkpt lat="41.817738" lon="0.72954684">
        <time>2022-07-07T11:42:42Z</time>
      </trkpt>
      <trkpt lat="41.817734" lon="0.7296302">
        <time>2022-07-07T11:42:43Z</time>
      </trkpt>
      <trkpt lat="41.81773" lon="0.7297108">
        <time>2022-07-07T11:42:44Z</time>
      </trkpt>
      <trkpt lat="41.817707" lon="0.7298655">
        <time>2022-07-07T11:42:46Z</time>
      </trkpt>
      <trkpt lat="41.817688" lon="0.7299412">
        <time>2022-07-07T11:42:47Z</time>
      </trkpt>
      <trkpt lat="41.81767" lon="0.73001313">
        <time>2022-07-07T11:42:48Z</time>
      </trkpt>
      <trkpt lat="41.81765" lon="0.73008347">
        <time>2022-07-07T11:42:49Z</time>
      </trkpt>
      <trkpt lat="41.81762" lon="0.7301538">
        <time>2022-07-07T11:42:50Z</time>
      </trkpt>
      <trkpt lat="41.817554" lon="0.7302731">
        <time>2022-07-07T11:42:52Z</time>
      </trkpt>
      <trkpt lat="41.81752" lon="0.7303275">
        <time>2022-07-07T11:42:53Z</time>
      </trkpt>
      <trkpt lat="41.817486" lon="0.7303828">
        <time>2022-07-07T11:42:54Z</time>
      </trkpt>
      <trkpt lat="41.817448" lon="0.7304395">
        <time>2022-07-07T11:42:55Z</time>
      </trkpt>
      <trkpt lat="41.817413" lon="0.7305001">
        <time>2022-07-07T11:42:56Z</time>
      </trkpt>
      <trkpt lat="41.817375" lon="0.7305588">
        <time>2022-07-07T11:42:57Z</time>
      </trkpt>
      <trkpt lat="41.817337" lon="0.7306158">
        <time>2022-07-07T11:42:58Z</time>
      </trkpt>
      <trkpt lat="41.8173" lon="0.73067176">
        <time>2022-07-07T11:42:59Z</time>
      </trkpt>
      <trkpt lat="41.817265" lon="0.73072714">
        <time>2022-07-07T11:43:00Z</time>
      </trkpt>
      <trkpt lat="41.81723" lon="0.7307821">
        <time>2022-07-07T11:43:01Z</time>
      </trkpt>
      <trkpt lat="41.817196" lon="0.7308358">
        <time>2022-07-07T11:43:02Z</time>
      </trkpt>
      <trkpt lat="41.81716" lon="0.7308878">
        <time>2022-07-07T11:43:03Z</time>
      </trkpt>
      <trkpt lat="41.817127" lon="0.7309391">
        <time>2022-07-07T11:43:04Z</time>
      </trkpt>
      <trkpt lat="41.817062" lon="0.7310404">
        <time>2022-07-07T11:43:06Z</time>
      </trkpt>
      <trkpt lat="41.81703" lon="0.73109144">
        <time>2022-07-07T11:43:07Z</time>
      </trkpt>
      <trkpt lat="41.816967" lon="0.7311921">
        <time>2022-07-07T11:43:09Z</time>
      </trkpt>
      <trkpt lat="41.816936" lon="0.7312414">
        <time>2022-07-07T11:43:10Z</time>
      </trkpt>
      <trkpt lat="41.81688" lon="0.7313354">
        <time>2022-07-07T11:43:12Z</time>
      </trkpt>
      <trkpt lat="41.816826" lon="0.7314268">
        <time>2022-07-07T11:43:14Z</time>
      </trkpt>
      <trkpt lat="41.81677" lon="0.7315171">
        <time>2022-07-07T11:43:16Z</time>
      </trkpt>
      <trkpt lat="41.816715" lon="0.7316044">
        <time>2022-07-07T11:43:18Z</time>
      </trkpt>
      <trkpt lat="41.81666" lon="0.7316868">
        <time>2022-07-07T11:43:20Z</time>
      </trkpt>
      <trkpt lat="41.81661" lon="0.73176473">
        <time>2022-07-07T11:43:22Z</time>
      </trkpt>
      <trkpt lat="41.816563" lon="0.73183674">
        <time>2022-07-07T11:43:24Z</time>
      </trkpt>
      <trkpt lat="41.816525" lon="0.73190206">
        <time>2022-07-07T11:43:26Z</time>
      </trkpt>
      <trkpt lat="41.81649" lon="0.7319714">
        <time>2022-07-07T11:43:28Z</time>
      </trkpt>
      <trkpt lat="41.816456" lon="0.7320454">
        <time>2022-07-07T11:43:30Z</time>
      </trkpt>
      <trkpt lat="41.816418" lon="0.7321184">
        <time>2022-07-07T11:43:32Z</time>
      </trkpt>
      <trkpt lat="41.816383" lon="0.73218375">
        <time>2022-07-07T11:43:34Z</time>
      </trkpt>
      <trkpt lat="41.81635" lon="0.7322524">
        <time>2022-07-07T11:43:36Z</time>
      </trkpt>
      <trkpt lat="41.81632" lon="0.73232603">
        <time>2022-07-07T11:43:38Z</time>
      </trkpt>
      <trkpt lat="41.81629" lon="0.7324007">
        <time>2022-07-07T11:43:40Z</time>
      </trkpt>
      <trkpt lat="41.816273" lon="0.73247904">
        <time>2022-07-07T11:43:42Z</time>
      </trkpt>
      <trkpt lat="41.816254" lon="0.7325627">
        <time>2022-07-07T11:43:44Z</time>
      </trkpt>
      <trkpt lat="41.81624" lon="0.73265404">
        <time>2022-07-07T11:43:46Z</time>
      </trkpt>
      <trkpt lat="41.816227" lon="0.7327397">
        <time>2022-07-07T11:43:48Z</time>
      </trkpt>
      <trkpt lat="41.81621" lon="0.732823">
        <time>2022-07-07T11:43:50Z</time>
      </trkpt>
      <trkpt lat="41.816204" lon="0.732909">
        <time>2022-07-07T11:43:52Z</time>
      </trkpt>
      <trkpt lat="41.816196" lon="0.7329994">
        <time>2022-07-07T11:43:54Z</time>
      </trkpt>
      <trkpt lat="41.81619" lon="0.7330884">
        <time>2022-07-07T11:43:56Z</time>
      </trkpt>
      <trkpt lat="41.816177" lon="0.7331727">
        <time>2022-07-07T11:43:58Z</time>
      </trkpt>
      <trkpt lat="41.81617" lon="0.73325837">
        <time>2022-07-07T11:44:00Z</time>
      </trkpt>
      <trkpt lat="41.81616" lon="0.73334366">
        <time>2022-07-07T11:44:02Z</time>
      </trkpt>
      <trkpt lat="41.816143" lon="0.73346937">
        <time>2022-07-07T11:44:05Z</time>
      </trkpt>
      <trkpt lat="41.81613" lon="0.7335513">
        <time>2022-07-07T11:44:07Z</time>
      </trkpt>
      <trkpt lat="41.816124" lon="0.73363566">
        <time>2022-07-07T11:44:09Z</time>
      </trkpt>
      <trkpt lat="41.81612" lon="0.73371834">
        <time>2022-07-07T11:44:11Z</time>
      </trkpt>
      <trkpt lat="41.816113" lon="0.73380166">
        <time>2022-07-07T11:44:13Z</time>
      </trkpt>
      <trkpt lat="41.816105" lon="0.73388433">
        <time>2022-07-07T11:44:15Z</time>
      </trkpt>
      <trkpt lat="41.816097" lon="0.73397434">
        <time>2022-07-07T11:44:17Z</time>
      </trkpt>
      <trkpt lat="41.81609" lon="0.73406196">
        <time>2022-07-07T11:44:19Z</time>
      </trkpt>
      <trkpt lat="41.816082" lon="0.73414963">
        <time>2022-07-07T11:44:21Z</time>
      </trkpt>
      <trkpt lat="41.816074" lon="0.7342373">
        <time>2022-07-07T11:44:23Z</time>
      </trkpt>
      <trkpt lat="41.816063" lon="0.7343233">
        <time>2022-07-07T11:44:25Z</time>
      </trkpt>
      <trkpt lat="41.81605" lon="0.7344073">
        <time>2022-07-07T11:44:27Z</time>
      </trkpt>
      <trkpt lat="41.81604" lon="0.7344903">
        <time>2022-07-07T11:44:29Z</time>
      </trkpt>
      <trkpt lat="41.816032" lon="0.73457265">
        <time>2022-07-07T11:44:31Z</time>
      </trkpt>
      <trkpt lat="41.816017" lon="0.7346543">
        <time>2022-07-07T11:44:33Z</time>
      </trkpt>
      <trkpt lat="41.816006" lon="0.73473793">
        <time>2022-07-07T11:44:35Z</time>
      </trkpt>
      <trkpt lat="41.81599" lon="0.7348229">
        <time>2022-07-07T11:44:37Z</time>
      </trkpt>
      <trkpt lat="41.81597" lon="0.73490626">
        <time>2022-07-07T11:44:39Z</time>
      </trkpt>
      <trkpt lat="41.815952" lon="0.7349866">
        <time>2022-07-07T11:44:41Z</time>
      </trkpt>
      <trkpt lat="41.815926" lon="0.7350703">
        <time>2022-07-07T11:44:43Z</time>
      </trkpt>
      <trkpt lat="41.8159" lon="0.7351529">
        <time>2022-07-07T11:44:45Z</time>
      </trkpt>
      <trkpt lat="41.81587" lon="0.7352356">
        <time>2022-07-07T11:44:47Z</time>
      </trkpt>
      <trkpt lat="41.815834" lon="0.7353146">
        <time>2022-07-07T11:44:49Z</time>
      </trkpt>
      <trkpt lat="41.815796" lon="0.73539895">
        <time>2022-07-07T11:44:51Z</time>
      </trkpt>
      <trkpt lat="41.81575" lon="0.73548824">
        <time>2022-07-07T11:44:53Z</time>
      </trkpt>
      <trkpt lat="41.815697" lon="0.7355769">
        <time>2022-07-07T11:44:55Z</time>
      </trkpt>
      <trkpt lat="41.815643" lon="0.7356712">
        <time>2022-07-07T11:44:57Z</time>
      </trkpt>
      <trkpt lat="41.815594" lon="0.7357689">
        <time>2022-07-07T11:44:59Z</time>
      </trkpt>
      <trkpt lat="41.815536" lon="0.73587453">
        <time>2022-07-07T11:45:01Z</time>
      </trkpt>
      <trkpt lat="41.81548" lon="0.73599154">
        <time>2022-07-07T11:45:03Z</time>
      </trkpt>
      <trkpt lat="41.815445" lon="0.73605424">
        <time>2022-07-07T11:45:04Z</time>
      </trkpt>
      <trkpt lat="41.81541" lon="0.7361192">
        <time>2022-07-07T11:45:05Z</time>
      </trkpt>
      <trkpt lat="41.815372" lon="0.7361879">
        <time>2022-07-07T11:45:06Z</time>
      </trkpt>
      <trkpt lat="41.815334" lon="0.73626053">
        <time>2022-07-07T11:45:07Z</time>
      </trkpt>
      <trkpt lat="41.815292" lon="0.73633486">
        <time>2022-07-07T11:45:08Z</time>
      </trkpt>
      <trkpt lat="41.81525" lon="0.7364129">
        <time>2022-07-07T11:45:09Z</time>
      </trkpt>
      <trkpt lat="41.815205" lon="0.7364935">
        <time>2022-07-07T11:45:10Z</time>
      </trkpt>
      <trkpt lat="41.81516" lon="0.73657787">
        <time>2022-07-07T11:45:11Z</time>
      </trkpt>
      <trkpt lat="41.815113" lon="0.7366652">
        <time>2022-07-07T11:45:12Z</time>
      </trkpt>
      <trkpt lat="41.815063" lon="0.73675483">
        <time>2022-07-07T11:45:13Z</time>
      </trkpt>
      <trkpt lat="41.815018" lon="0.73683983">
        <time>2022-07-07T11:45:14Z</time>
      </trkpt>
      <trkpt lat="41.81497" lon="0.73692816">
        <time>2022-07-07T11:45:15Z</time>
      </trkpt>
      <trkpt lat="41.81492" lon="0.73702615">
        <time>2022-07-07T11:45:16Z</time>
      </trkpt>
      <trkpt lat="41.814865" lon="0.7371235">
        <time>2022-07-07T11:45:17Z</time>
      </trkpt>
      <trkpt lat="41.814816" lon="0.73721486">
        <time>2022-07-07T11:45:18Z</time>
      </trkpt>
      <trkpt lat="41.81476" lon="0.7373162">
        <time>2022-07-07T11:45:19Z</time>
      </trkpt>
      <trkpt lat="41.814705" lon="0.73741114">
        <time>2022-07-07T11:45:20Z</time>
      </trkpt>
      <trkpt lat="41.814648" lon="0.7375155">
        <time>2022-07-07T11:45:21Z</time>
      </trkpt>
      <trkpt lat="41.814594" lon="0.73761314">
        <time>2022-07-07T11:45:22Z</time>
      </trkpt>
      <trkpt lat="41.814537" lon="0.7377205">
        <time>2022-07-07T11:45:23Z</time>
      </trkpt>
      <trkpt lat="41.814423" lon="0.7379392">
        <time>2022-07-07T11:45:25Z</time>
      </trkpt>
      <trkpt lat="41.81436" lon="0.7380485">
        <time>2022-07-07T11:45:26Z</time>
      </trkpt>
      <trkpt lat="41.814304" lon="0.73815745">
        <time>2022-07-07T11:45:27Z</time>
      </trkpt>
      <trkpt lat="41.81424" lon="0.7382748">
        <time>2022-07-07T11:45:28Z</time>
      </trkpt>
      <trkpt lat="41.814182" lon="0.7383845">
        <time>2022-07-07T11:45:29Z</time>
      </trkpt>
      <trkpt lat="41.81412" lon="0.7384968">
        <time>2022-07-07T11:45:30Z</time>
      </trkpt>
      <trkpt lat="41.814064" lon="0.7386111">
        <time>2022-07-07T11:45:31Z</time>
      </trkpt>
      <trkpt lat="41.814003" lon="0.73872644">
        <time>2022-07-07T11:45:32Z</time>
      </trkpt>
      <trkpt lat="41.813942" lon="0.7388415">
        <time>2022-07-07T11:45:33Z</time>
      </trkpt>
      <trkpt lat="41.81388" lon="0.73895746">
        <time>2022-07-07T11:45:34Z</time>
      </trkpt>
      <trkpt lat="41.813824" lon="0.7390738">
        <time>2022-07-07T11:45:35Z</time>
      </trkpt>
      <trkpt lat="41.813763" lon="0.7391898">
        <time>2022-07-07T11:45:36Z</time>
      </trkpt>
      <trkpt lat="41.8137" lon="0.73930544">
        <time>2022-07-07T11:45:37Z</time>
      </trkpt>
      <trkpt lat="41.81364" lon="0.7394214">
        <time>2022-07-07T11:45:38Z</time>
      </trkpt>
      <trkpt lat="41.81358" lon="0.7395371">
        <time>2022-07-07T11:45:39Z</time>
      </trkpt>
      <trkpt lat="41.813522" lon="0.73965245">
        <time>2022-07-07T11:45:40Z</time>
      </trkpt>
      <trkpt lat="41.81346" lon="0.7397664">
        <time>2022-07-07T11:45:41Z</time>
      </trkpt>
      <trkpt lat="41.8134" lon="0.7398798">
        <time>2022-07-07T11:45:42Z</time>
      </trkpt>
      <trkpt lat="41.81334" lon="0.73999345">
        <time>2022-07-07T11:45:43Z</time>
      </trkpt>
      <trkpt lat="41.813282" lon="0.74010545">
        <time>2022-07-07T11:45:44Z</time>
      </trkpt>
      <trkpt lat="41.81322" lon="0.74021745">
        <time>2022-07-07T11:45:45Z</time>
      </trkpt>
      <trkpt lat="41.813164" lon="0.74032944">
        <time>2022-07-07T11:45:46Z</time>
      </trkpt>
      <trkpt lat="41.81311" lon="0.7404408">
        <time>2022-07-07T11:45:47Z</time>
      </trkpt>
      <trkpt lat="41.813053" lon="0.74055207">
        <time>2022-07-07T11:45:48Z</time>
      </trkpt>
      <trkpt lat="41.812996" lon="0.74066275">
        <time>2022-07-07T11:45:49Z</time>
      </trkpt>
      <trkpt lat="41.81294" lon="0.7407724">
        <time>2022-07-07T11:45:50Z</time>
      </trkpt>
      <trkpt lat="41.81288" lon="0.74088174">
        <time>2022-07-07T11:45:51Z</time>
      </trkpt>
      <trkpt lat="41.812824" lon="0.74099106">
        <time>2022-07-07T11:45:52Z</time>
      </trkpt>
      <trkpt lat="41.812767" lon="0.74109906">
        <time>2022-07-07T11:45:53Z</time>
      </trkpt>
      <trkpt lat="41.81271" lon="0.7412074">
        <time>2022-07-07T11:45:54Z</time>
      </trkpt>
      <trkpt lat="41.812653" lon="0.7413144">
        <time>2022-07-07T11:45:55Z</time>
      </trkpt>
      <trkpt lat="41.8126" lon="0.7414191">
        <time>2022-07-07T11:45:56Z</time>
      </trkpt>
      <trkpt lat="41.812542" lon="0.7415224">
        <time>2022-07-07T11:45:57Z</time>
      </trkpt>
      <trkpt lat="41.812485" lon="0.7416257">
        <time>2022-07-07T11:45:58Z</time>
      </trkpt>
      <trkpt lat="41.812428" lon="0.7417277">
        <time>2022-07-07T11:45:59Z</time>
      </trkpt>
      <trkpt lat="41.812378" lon="0.74182373">
        <time>2022-07-07T11:46:00Z</time>
      </trkpt>
      <trkpt lat="41.81232" lon="0.7419297">
        <time>2022-07-07T11:46:01Z</time>
      </trkpt>
      <trkpt lat="41.812267" lon="0.7420344">
        <time>2022-07-07T11:46:02Z</time>
      </trkpt>
      <trkpt lat="41.812214" lon="0.7421387">
        <time>2022-07-07T11:46:03Z</time>
      </trkpt>
      <trkpt lat="41.81216" lon="0.7422427">
        <time>2022-07-07T11:46:04Z</time>
      </trkpt>
      <trkpt lat="41.812103" lon="0.7423457">
        <time>2022-07-07T11:46:05Z</time>
      </trkpt>
      <trkpt lat="41.81205" lon="0.74244905">
        <time>2022-07-07T11:46:06Z</time>
      </trkpt>
      <trkpt lat="41.811996" lon="0.7425524">
        <time>2022-07-07T11:46:07Z</time>
      </trkpt>
      <trkpt lat="41.811943" lon="0.7426554">
        <time>2022-07-07T11:46:08Z</time>
      </trkpt>
      <trkpt lat="41.81189" lon="0.7427577">
        <time>2022-07-07T11:46:09Z</time>
      </trkpt>
      <trkpt lat="41.81184" lon="0.7428597">
        <time>2022-07-07T11:46:10Z</time>
      </trkpt>
      <trkpt lat="41.811787" lon="0.74296105">
        <time>2022-07-07T11:46:11Z</time>
      </trkpt>
      <trkpt lat="41.811733" lon="0.74306136">
        <time>2022-07-07T11:46:12Z</time>
      </trkpt>
      <trkpt lat="41.81168" lon="0.743161">
        <time>2022-07-07T11:46:13Z</time>
      </trkpt>
      <trkpt lat="41.811626" lon="0.7432627">
        <time>2022-07-07T11:46:14Z</time>
      </trkpt>
      <trkpt lat="41.811577" lon="0.74336404">
        <time>2022-07-07T11:46:15Z</time>
      </trkpt>
      <trkpt lat="41.811523" lon="0.7434663">
        <time>2022-07-07T11:46:16Z</time>
      </trkpt>
      <trkpt lat="41.811474" lon="0.74356765">
        <time>2022-07-07T11:46:17Z</time>
      </trkpt>
      <trkpt lat="41.81142" lon="0.7436687">
        <time>2022-07-07T11:46:18Z</time>
      </trkpt>
      <trkpt lat="41.811367" lon="0.74376935">
        <time>2022-07-07T11:46:19Z</time>
      </trkpt>
      <trkpt lat="41.811314" lon="0.7438703">
        <time>2022-07-07T11:46:20Z</time>
      </trkpt>
      <trkpt lat="41.811256" lon="0.743972">
        <time>2022-07-07T11:46:21Z</time>
      </trkpt>
      <trkpt lat="41.811203" lon="0.74407434">
        <time>2022-07-07T11:46:22Z</time>
      </trkpt>
      <trkpt lat="41.811146" lon="0.74417734">
        <time>2022-07-07T11:46:23Z</time>
      </trkpt>
      <trkpt lat="41.811092" lon="0.74428165">
        <time>2022-07-07T11:46:24Z</time>
      </trkpt>
      <trkpt lat="41.811043" lon="0.74438196">
        <time>2022-07-07T11:46:25Z</time>
      </trkpt>
      <trkpt lat="41.810986" lon="0.74449164">
        <time>2022-07-07T11:46:26Z</time>
      </trkpt>
      <trkpt lat="41.810932" lon="0.7446013">
        <time>2022-07-07T11:46:27Z</time>
      </trkpt>
      <trkpt lat="41.81088" lon="0.74470866">
        <time>2022-07-07T11:46:28Z</time>
      </trkpt>
      <trkpt lat="41.810825" lon="0.7448143">
        <time>2022-07-07T11:46:29Z</time>
      </trkpt>
      <trkpt lat="41.810776" lon="0.74490964">
        <time>2022-07-07T11:46:30Z</time>
      </trkpt>
      <trkpt lat="41.81072" lon="0.7450133">
        <time>2022-07-07T11:46:31Z</time>
      </trkpt>
      <trkpt lat="41.810665" lon="0.7451149">
        <time>2022-07-07T11:46:32Z</time>
      </trkpt>
      <trkpt lat="41.810608" lon="0.74521625">
        <time>2022-07-07T11:46:33Z</time>
      </trkpt>
      <trkpt lat="41.81055" lon="0.7453173">
        <time>2022-07-07T11:46:34Z</time>
      </trkpt>
      <trkpt lat="41.810497" lon="0.7454166">
        <time>2022-07-07T11:46:35Z</time>
      </trkpt>
      <trkpt lat="41.810444" lon="0.74550927">
        <time>2022-07-07T11:46:36Z</time>
      </trkpt>
      <trkpt lat="41.810383" lon="0.7456096">
        <time>2022-07-07T11:46:37Z</time>
      </trkpt>
      <trkpt lat="41.81033" lon="0.7457099">
        <time>2022-07-07T11:46:38Z</time>
      </trkpt>
      <trkpt lat="41.810276" lon="0.74580956">
        <time>2022-07-07T11:46:39Z</time>
      </trkpt>
      <trkpt lat="41.810223" lon="0.74590856">
        <time>2022-07-07T11:46:40Z</time>
      </trkpt>
      <trkpt lat="41.81017" lon="0.74600923">
        <time>2022-07-07T11:46:41Z</time>
      </trkpt>
      <trkpt lat="41.81007" lon="0.74620855">
        <time>2022-07-07T11:46:43Z</time>
      </trkpt>
      <trkpt lat="41.81002" lon="0.7463059">
        <time>2022-07-07T11:46:44Z</time>
      </trkpt>
      <trkpt lat="41.809975" lon="0.7463942">
        <time>2022-07-07T11:46:45Z</time>
      </trkpt>
      <trkpt lat="41.809925" lon="0.7464892">
        <time>2022-07-07T11:46:46Z</time>
      </trkpt>
      <trkpt lat="41.809875" lon="0.74658424">
        <time>2022-07-07T11:46:47Z</time>
      </trkpt>
      <trkpt lat="41.809826" lon="0.74667525">
        <time>2022-07-07T11:46:48Z</time>
      </trkpt>
      <trkpt lat="41.80978" lon="0.74676657">
        <time>2022-07-07T11:46:49Z</time>
      </trkpt>
      <trkpt lat="41.80973" lon="0.74685687">
        <time>2022-07-07T11:46:50Z</time>
      </trkpt>
      <trkpt lat="41.809685" lon="0.7469412">
        <time>2022-07-07T11:46:51Z</time>
      </trkpt>
      <trkpt lat="41.809635" lon="0.7470339">
        <time>2022-07-07T11:46:52Z</time>
      </trkpt>
      <trkpt lat="41.809586" lon="0.74712557">
        <time>2022-07-07T11:46:53Z</time>
      </trkpt>
      <trkpt lat="41.809536" lon="0.7472179">
        <time>2022-07-07T11:46:54Z</time>
      </trkpt>
      <trkpt lat="41.809486" lon="0.7473112">
        <time>2022-07-07T11:46:55Z</time>
      </trkpt>
      <trkpt lat="41.809437" lon="0.7474059">
        <time>2022-07-07T11:46:56Z</time>
      </trkpt>
      <trkpt lat="41.809387" lon="0.74750185">
        <time>2022-07-07T11:46:57Z</time>
      </trkpt>
      <trkpt lat="41.809338" lon="0.7475989">
        <time>2022-07-07T11:46:58Z</time>
      </trkpt>
      <trkpt lat="41.809284" lon="0.74769586">
        <time>2022-07-07T11:46:59Z</time>
      </trkpt>
      <trkpt lat="41.80923" lon="0.7477942">
        <time>2022-07-07T11:47:00Z</time>
      </trkpt>
      <trkpt lat="41.809177" lon="0.7478925">
        <time>2022-07-07T11:47:01Z</time>
      </trkpt>
      <trkpt lat="41.809124" lon="0.74799186">
        <time>2022-07-07T11:47:02Z</time>
      </trkpt>
      <trkpt lat="41.80907" lon="0.7480919">
        <time>2022-07-07T11:47:03Z</time>
      </trkpt>
      <trkpt lat="41.809013" lon="0.74819183">
        <time>2022-07-07T11:47:04Z</time>
      </trkpt>
      <trkpt lat="41.808964" lon="0.74828583">
        <time>2022-07-07T11:47:05Z</time>
      </trkpt>
      <trkpt lat="41.80891" lon="0.74838185">
        <time>2022-07-07T11:47:06Z</time>
      </trkpt>
      <trkpt lat="41.808857" lon="0.7484869">
        <time>2022-07-07T11:47:07Z</time>
      </trkpt>
      <trkpt lat="41.808804" lon="0.74858415">
        <time>2022-07-07T11:47:08Z</time>
      </trkpt>
      <trkpt lat="41.808746" lon="0.7486888">
        <time>2022-07-07T11:47:09Z</time>
      </trkpt>
      <trkpt lat="41.808693" lon="0.7487915">
        <time>2022-07-07T11:47:10Z</time>
      </trkpt>
      <trkpt lat="41.80864" lon="0.74888617">
        <time>2022-07-07T11:47:11Z</time>
      </trkpt>
      <trkpt lat="41.808586" lon="0.74898916">
        <time>2022-07-07T11:47:12Z</time>
      </trkpt>
      <trkpt lat="41.808533" lon="0.7490925">
        <time>2022-07-07T11:47:13Z</time>
      </trkpt>
      <trkpt lat="41.80848" lon="0.7491962">
        <time>2022-07-07T11:47:14Z</time>
      </trkpt>
      <trkpt lat="41.808426" lon="0.74929845">
        <time>2022-07-07T11:47:15Z</time>
      </trkpt>
      <trkpt lat="41.808376" lon="0.7493941">
        <time>2022-07-07T11:47:16Z</time>
      </trkpt>
      <trkpt lat="41.808327" lon="0.7494918">
        <time>2022-07-07T11:47:17Z</time>
      </trkpt>
      <trkpt lat="41.808273" lon="0.74959743">
        <time>2022-07-07T11:47:18Z</time>
      </trkpt>
      <trkpt lat="41.80822" lon="0.74970144">
        <time>2022-07-07T11:47:19Z</time>
      </trkpt>
      <trkpt lat="41.80817" lon="0.7497985">
        <time>2022-07-07T11:47:20Z</time>
      </trkpt>
      <trkpt lat="41.80812" lon="0.7498958">
        <time>2022-07-07T11:47:21Z</time>
      </trkpt>
      <trkpt lat="41.808067" lon="0.74999344">
        <time>2022-07-07T11:47:22Z</time>
      </trkpt>
      <trkpt lat="41.808014" lon="0.75009847">
        <time>2022-07-07T11:47:23Z</time>
      </trkpt>
      <trkpt lat="41.80796" lon="0.7502008">
        <time>2022-07-07T11:47:24Z</time>
      </trkpt>
      <trkpt lat="41.80791" lon="0.7502941">
        <time>2022-07-07T11:47:25Z</time>
      </trkpt>
      <trkpt lat="41.80786" lon="0.75038743">
        <time>2022-07-07T11:47:26Z</time>
      </trkpt>
      <trkpt lat="41.807808" lon="0.7504854">
        <time>2022-07-07T11:47:27Z</time>
      </trkpt>
      <trkpt lat="41.80776" lon="0.7505811">
        <time>2022-07-07T11:47:28Z</time>
      </trkpt>
      <trkpt lat="41.80771" lon="0.7506738">
        <time>2022-07-07T11:47:29Z</time>
      </trkpt>
      <trkpt lat="41.80766" lon="0.7507638">
        <time>2022-07-07T11:47:30Z</time>
      </trkpt>
      <trkpt lat="41.807613" lon="0.7508524">
        <time>2022-07-07T11:47:31Z</time>
      </trkpt>
      <trkpt lat="41.80757" lon="0.7509348">
        <time>2022-07-07T11:47:32Z</time>
      </trkpt>
      <trkpt lat="41.807526" lon="0.7510234">
        <time>2022-07-07T11:47:33Z</time>
      </trkpt>
      <trkpt lat="41.807484" lon="0.7511044">
        <time>2022-07-07T11:47:34Z</time>
      </trkpt>
      <trkpt lat="41.80744" lon="0.75118506">
        <time>2022-07-07T11:47:35Z</time>
      </trkpt>
      <trkpt lat="41.8074" lon="0.7512654">
        <time>2022-07-07T11:47:36Z</time>
      </trkpt>
      <trkpt lat="41.807358" lon="0.7513464">
        <time>2022-07-07T11:47:37Z</time>
      </trkpt>
      <trkpt lat="41.807316" lon="0.7514274">
        <time>2022-07-07T11:47:38Z</time>
      </trkpt>
      <trkpt lat="41.807274" lon="0.75150806">
        <time>2022-07-07T11:47:39Z</time>
      </trkpt>
      <trkpt lat="41.807228" lon="0.7515901">
        <time>2022-07-07T11:47:40Z</time>
      </trkpt>
      <trkpt lat="41.807186" lon="0.7516721">
        <time>2022-07-07T11:47:41Z</time>
      </trkpt>
      <trkpt lat="41.807144" lon="0.75175405">
        <time>2022-07-07T11:47:42Z</time>
      </trkpt>
      <trkpt lat="41.8071" lon="0.7518421">
        <time>2022-07-07T11:47:43Z</time>
      </trkpt>
      <trkpt lat="41.807056" lon="0.75192237">
        <time>2022-07-07T11:47:44Z</time>
      </trkpt>
      <trkpt lat="41.807014" lon="0.752004">
        <time>2022-07-07T11:47:45Z</time>
      </trkpt>
      <trkpt lat="41.80697" lon="0.7520864">
        <time>2022-07-07T11:47:46Z</time>
      </trkpt>
      <trkpt lat="41.806923" lon="0.752169">
        <time>2022-07-07T11:47:47Z</time>
      </trkpt>
      <trkpt lat="41.806877" lon="0.75225306">
        <time>2022-07-07T11:47:48Z</time>
      </trkpt>
      <trkpt lat="41.80683" lon="0.75233805">
        <time>2022-07-07T11:47:49Z</time>
      </trkpt>
      <trkpt lat="41.806786" lon="0.7524227">
        <time>2022-07-07T11:47:50Z</time>
      </trkpt>
      <trkpt lat="41.80674" lon="0.7525077">
        <time>2022-07-07T11:47:51Z</time>
      </trkpt>
      <trkpt lat="41.80669" lon="0.7525937">
        <time>2022-07-07T11:47:52Z</time>
      </trkpt>
      <trkpt lat="41.806644" lon="0.75268">
        <time>2022-07-07T11:47:53Z</time>
      </trkpt>
      <trkpt lat="41.8066" lon="0.752766">
        <time>2022-07-07T11:47:54Z</time>
      </trkpt>
      <trkpt lat="41.806553" lon="0.752852">
        <time>2022-07-07T11:47:55Z</time>
      </trkpt>
      <trkpt lat="41.806507" lon="0.7529377">
        <time>2022-07-07T11:47:56Z</time>
      </trkpt>
      <trkpt lat="41.80646" lon="0.75302535">
        <time>2022-07-07T11:47:57Z</time>
      </trkpt>
      <trkpt lat="41.806416" lon="0.75311434">
        <time>2022-07-07T11:47:58Z</time>
      </trkpt>
      <trkpt lat="41.80637" lon="0.753206">
        <time>2022-07-07T11:47:59Z</time>
      </trkpt>
      <trkpt lat="41.806324" lon="0.75329864">
        <time>2022-07-07T11:48:00Z</time>
      </trkpt>
      <trkpt lat="41.806225" lon="0.7534947">
        <time>2022-07-07T11:48:02Z</time>
      </trkpt>
      <trkpt lat="41.806175" lon="0.75358933">
        <time>2022-07-07T11:48:03Z</time>
      </trkpt>
      <trkpt lat="41.806126" lon="0.753683">
        <time>2022-07-07T11:48:04Z</time>
      </trkpt>
      <trkpt lat="41.806076" lon="0.75377667">
        <time>2022-07-07T11:48:05Z</time>
      </trkpt>
      <trkpt lat="41.80603" lon="0.7538703">
        <time>2022-07-07T11:48:06Z</time>
      </trkpt>
      <trkpt lat="41.80598" lon="0.75396365">
        <time>2022-07-07T11:48:07Z</time>
      </trkpt>
      <trkpt lat="41.80593" lon="0.7540563">
        <time>2022-07-07T11:48:08Z</time>
      </trkpt>
      <trkpt lat="41.80588" lon="0.75414896">
        <time>2022-07-07T11:48:09Z</time>
      </trkpt>
      <trkpt lat="41.805836" lon="0.75423396">
        <time>2022-07-07T11:48:10Z</time>
      </trkpt>
      <trkpt lat="41.805786" lon="0.75432664">
        <time>2022-07-07T11:48:11Z</time>
      </trkpt>
      <trkpt lat="41.805737" lon="0.7544186">
        <time>2022-07-07T11:48:12Z</time>
      </trkpt>
      <trkpt lat="41.805687" lon="0.75451094">
        <time>2022-07-07T11:48:13Z</time>
      </trkpt>
      <trkpt lat="41.805637" lon="0.7546039">
        <time>2022-07-07T11:48:14Z</time>
      </trkpt>
      <trkpt lat="41.805588" lon="0.75469726">
        <time>2022-07-07T11:48:15Z</time>
      </trkpt>
      <trkpt lat="41.805542" lon="0.7547906">
        <time>2022-07-07T11:48:16Z</time>
      </trkpt>
      <trkpt lat="41.80549" lon="0.75488496">
        <time>2022-07-07T11:48:17Z</time>
      </trkpt>
      <trkpt lat="41.805443" lon="0.75497425">
        <time>2022-07-07T11:48:18Z</time>
      </trkpt>
      <trkpt lat="41.805393" lon="0.7550716">
        <time>2022-07-07T11:48:19Z</time>
      </trkpt>
      <trkpt lat="41.805344" lon="0.7551686">
        <time>2022-07-07T11:48:20Z</time>
      </trkpt>
      <trkpt lat="41.805294" lon="0.7552643">
        <time>2022-07-07T11:48:21Z</time>
      </trkpt>
      <trkpt lat="41.805244" lon="0.7553529">
        <time>2022-07-07T11:48:22Z</time>
      </trkpt>
      <trkpt lat="41.805195" lon="0.75544393">
        <time>2022-07-07T11:48:23Z</time>
      </trkpt>
      <trkpt lat="41.80514" lon="0.75554323">
        <time>2022-07-07T11:48:24Z</time>
      </trkpt>
      <trkpt lat="41.80509" lon="0.7556416">
        <time>2022-07-07T11:48:25Z</time>
      </trkpt>
      <trkpt lat="41.805042" lon="0.7557329">
        <time>2022-07-07T11:48:26Z</time>
      </trkpt>
      <trkpt lat="41.804996" lon="0.7558249">
        <time>2022-07-07T11:48:27Z</time>
      </trkpt>
      <trkpt lat="41.804947" lon="0.7559179">
        <time>2022-07-07T11:48:28Z</time>
      </trkpt>
      <trkpt lat="41.804897" lon="0.75601155">
        <time>2022-07-07T11:48:29Z</time>
      </trkpt>
      <trkpt lat="41.80485" lon="0.75610554">
        <time>2022-07-07T11:48:30Z</time>
      </trkpt>
      <trkpt lat="41.804802" lon="0.7561982">
        <time>2022-07-07T11:48:31Z</time>
      </trkpt>
      <trkpt lat="41.804756" lon="0.75629026">
        <time>2022-07-07T11:48:32Z</time>
      </trkpt>
      <trkpt lat="41.804707" lon="0.7563802">
        <time>2022-07-07T11:48:33Z</time>
      </trkpt>
      <trkpt lat="41.80466" lon="0.75647056">
        <time>2022-07-07T11:48:34Z</time>
      </trkpt>
      <trkpt lat="41.804615" lon="0.7565592">
        <time>2022-07-07T11:48:35Z</time>
      </trkpt>
      <trkpt lat="41.80457" lon="0.7566469">
        <time>2022-07-07T11:48:36Z</time>
      </trkpt>
      <trkpt lat="41.80452" lon="0.7567329">
        <time>2022-07-07T11:48:37Z</time>
      </trkpt>
      <trkpt lat="41.804474" lon="0.7568175">
        <time>2022-07-07T11:48:38Z</time>
      </trkpt>
      <trkpt lat="41.80443" lon="0.7569022">
        <time>2022-07-07T11:48:39Z</time>
      </trkpt>
      <trkpt lat="41.804382" lon="0.75698555">
        <time>2022-07-07T11:48:40Z</time>
      </trkpt>
      <trkpt lat="41.80434" lon="0.75706786">
        <time>2022-07-07T11:48:41Z</time>
      </trkpt>
      <trkpt lat="41.804295" lon="0.7571485">
        <time>2022-07-07T11:48:42Z</time>
      </trkpt>
      <trkpt lat="41.804253" lon="0.75722885">
        <time>2022-07-07T11:48:43Z</time>
      </trkpt>
      <trkpt lat="41.80421" lon="0.75731385">
        <time>2022-07-07T11:48:44Z</time>
      </trkpt>
      <trkpt lat="41.80417" lon="0.7573972">
        <time>2022-07-07T11:48:45Z</time>
      </trkpt>
      <trkpt lat="41.80413" lon="0.7574742">
        <time>2022-07-07T11:48:46Z</time>
      </trkpt>
      <trkpt lat="41.804092" lon="0.75755084">
        <time>2022-07-07T11:48:47Z</time>
      </trkpt>
      <trkpt lat="41.80405" lon="0.7576272">
        <time>2022-07-07T11:48:48Z</time>
      </trkpt>
      <trkpt lat="41.804012" lon="0.7577028">
        <time>2022-07-07T11:48:49Z</time>
      </trkpt>
      <trkpt lat="41.803974" lon="0.7577778">
        <time>2022-07-07T11:48:50Z</time>
      </trkpt>
      <trkpt lat="41.803932" lon="0.75785285">
        <time>2022-07-07T11:48:51Z</time>
      </trkpt>
      <trkpt lat="41.803894" lon="0.75793284">
        <time>2022-07-07T11:48:52Z</time>
      </trkpt>
      <trkpt lat="41.803856" lon="0.75800514">
        <time>2022-07-07T11:48:53Z</time>
      </trkpt>
      <trkpt lat="41.803818" lon="0.75807685">
        <time>2022-07-07T11:48:54Z</time>
      </trkpt>
      <trkpt lat="41.80378" lon="0.75814813">
        <time>2022-07-07T11:48:55Z</time>
      </trkpt>
      <trkpt lat="41.80374" lon="0.75821984">
        <time>2022-07-07T11:48:56Z</time>
      </trkpt>
      <trkpt lat="41.803703" lon="0.75829047">
        <time>2022-07-07T11:48:57Z</time>
      </trkpt>
      <trkpt lat="41.80367" lon="0.7583608">
        <time>2022-07-07T11:48:58Z</time>
      </trkpt>
      <trkpt lat="41.80363" lon="0.75843114">
        <time>2022-07-07T11:48:59Z</time>
      </trkpt>
      <trkpt lat="41.803596" lon="0.75850177">
        <time>2022-07-07T11:49:00Z</time>
      </trkpt>
      <trkpt lat="41.803562" lon="0.7585721">
        <time>2022-07-07T11:49:01Z</time>
      </trkpt>
      <trkpt lat="41.803524" lon="0.7586418">
        <time>2022-07-07T11:49:02Z</time>
      </trkpt>
      <trkpt lat="41.80349" lon="0.75871176">
        <time>2022-07-07T11:49:03Z</time>
      </trkpt>
      <trkpt lat="41.80345" lon="0.7587821">
        <time>2022-07-07T11:49:04Z</time>
      </trkpt>
      <trkpt lat="41.803413" lon="0.75885314">
        <time>2022-07-07T11:49:05Z</time>
      </trkpt>
      <trkpt lat="41.80338" lon="0.75892377">
        <time>2022-07-07T11:49:06Z</time>
      </trkpt>
      <trkpt lat="41.80334" lon="0.7589941">
        <time>2022-07-07T11:49:07Z</time>
      </trkpt>
      <trkpt lat="41.803303" lon="0.75906444">
        <time>2022-07-07T11:49:08Z</time>
      </trkpt>
      <trkpt lat="41.803265" lon="0.7591354">
        <time>2022-07-07T11:49:09Z</time>
      </trkpt>
      <trkpt lat="41.803226" lon="0.75920707">
        <time>2022-07-07T11:49:10Z</time>
      </trkpt>
      <trkpt lat="41.80319" lon="0.75927776">
        <time>2022-07-07T11:49:11Z</time>
      </trkpt>
      <trkpt lat="41.803146" lon="0.7593484">
        <time>2022-07-07T11:49:12Z</time>
      </trkpt>
      <trkpt lat="41.80311" lon="0.7594201">
        <time>2022-07-07T11:49:13Z</time>
      </trkpt>
      <trkpt lat="41.80307" lon="0.7594914">
        <time>2022-07-07T11:49:14Z</time>
      </trkpt>
      <trkpt lat="41.803036" lon="0.75956273">
        <time>2022-07-07T11:49:15Z</time>
      </trkpt>
      <trkpt lat="41.802998" lon="0.75963336">
        <time>2022-07-07T11:49:16Z</time>
      </trkpt>
      <trkpt lat="41.802963" lon="0.759702">
        <time>2022-07-07T11:49:17Z</time>
      </trkpt>
      <trkpt lat="41.80293" lon="0.7597704">
        <time>2022-07-07T11:49:18Z</time>
      </trkpt>
      <trkpt lat="41.80289" lon="0.7598374">
        <time>2022-07-07T11:49:19Z</time>
      </trkpt>
      <trkpt lat="41.802822" lon="0.75996906">
        <time>2022-07-07T11:49:21Z</time>
      </trkpt>
      <trkpt lat="41.802788" lon="0.7600344">
        <time>2022-07-07T11:49:22Z</time>
      </trkpt>
      <trkpt lat="41.80275" lon="0.7600997">
        <time>2022-07-07T11:49:23Z</time>
      </trkpt>
      <trkpt lat="41.802715" lon="0.7601647">
        <time>2022-07-07T11:49:24Z</time>
      </trkpt>
      <trkpt lat="41.802685" lon="0.7602297">
        <time>2022-07-07T11:49:25Z</time>
      </trkpt>
      <trkpt lat="41.802647" lon="0.7602937">
        <time>2022-07-07T11:49:26Z</time>
      </trkpt>
      <trkpt lat="41.802612" lon="0.760357">
        <time>2022-07-07T11:49:27Z</time>
      </trkpt>
      <trkpt lat="41.802578" lon="0.7604204">
        <time>2022-07-07T11:49:28Z</time>
      </trkpt>
      <trkpt lat="41.80254" lon="0.7604834">
        <time>2022-07-07T11:49:29Z</time>
      </trkpt>
      <trkpt lat="41.802505" lon="0.760545">
        <time>2022-07-07T11:49:30Z</time>
      </trkpt>
      <trkpt lat="41.80247" lon="0.76060635">
        <time>2022-07-07T11:49:31Z</time>
      </trkpt>
      <trkpt lat="41.802437" lon="0.760667">
        <time>2022-07-07T11:49:32Z</time>
      </trkpt>
      <trkpt lat="41.802402" lon="0.760729">
        <time>2022-07-07T11:49:33Z</time>
      </trkpt>
      <trkpt lat="41.802364" lon="0.7607927">
        <time>2022-07-07T11:49:34Z</time>
      </trkpt>
      <trkpt lat="41.80233" lon="0.760859">
        <time>2022-07-07T11:49:35Z</time>
      </trkpt>
      <trkpt lat="41.80229" lon="0.7609277">
        <time>2022-07-07T11:49:36Z</time>
      </trkpt>
      <trkpt lat="41.80225" lon="0.761">
        <time>2022-07-07T11:49:37Z</time>
      </trkpt>
      <trkpt lat="41.80221" lon="0.761076">
        <time>2022-07-07T11:49:38Z</time>
      </trkpt>
      <trkpt lat="41.80217" lon="0.76115596">
        <time>2022-07-07T11:49:39Z</time>
      </trkpt>
      <trkpt lat="41.802124" lon="0.761239">
        <time>2022-07-07T11:49:40Z</time>
      </trkpt>
      <trkpt lat="41.802074" lon="0.7613253">
        <time>2022-07-07T11:49:41Z</time>
      </trkpt>
      <trkpt lat="41.802025" lon="0.76141465">
        <time>2022-07-07T11:49:42Z</time>
      </trkpt>
      <trkpt lat="41.801975" lon="0.761507">
        <time>2022-07-07T11:49:43Z</time>
      </trkpt>
      <trkpt lat="41.801926" lon="0.76160264">
        <time>2022-07-07T11:49:44Z</time>
      </trkpt>
      <trkpt lat="41.801876" lon="0.761701">
        <time>2022-07-07T11:49:45Z</time>
      </trkpt>
      <trkpt lat="41.801823" lon="0.7618013">
        <time>2022-07-07T11:49:46Z</time>
      </trkpt>
      <trkpt lat="41.80177" lon="0.76190364">
        <time>2022-07-07T11:49:47Z</time>
      </trkpt>
      <trkpt lat="41.801712" lon="0.76200765">
        <time>2022-07-07T11:49:48Z</time>
      </trkpt>
      <trkpt lat="41.801655" lon="0.7621133">
        <time>2022-07-07T11:49:49Z</time>
      </trkpt>
      <trkpt lat="41.801598" lon="0.76221997">
        <time>2022-07-07T11:49:50Z</time>
      </trkpt>
      <trkpt lat="41.80154" lon="0.7623276">
        <time>2022-07-07T11:49:51Z</time>
      </trkpt>
      <trkpt lat="41.801483" lon="0.7624366">
        <time>2022-07-07T11:49:52Z</time>
      </trkpt>
      <trkpt lat="41.801426" lon="0.7625456">
        <time>2022-07-07T11:49:53Z</time>
      </trkpt>
      <trkpt lat="41.80137" lon="0.76265526">
        <time>2022-07-07T11:49:54Z</time>
      </trkpt>
      <trkpt lat="41.80131" lon="0.7627643">
        <time>2022-07-07T11:49:55Z</time>
      </trkpt>
      <trkpt lat="41.801254" lon="0.76287127">
        <time>2022-07-07T11:49:56Z</time>
      </trkpt>
      <trkpt lat="41.8012" lon="0.7629756">
        <time>2022-07-07T11:49:57Z</time>
      </trkpt>
      <trkpt lat="41.801147" lon="0.7630786">
        <time>2022-07-07T11:49:58Z</time>
      </trkpt>
      <trkpt lat="41.80109" lon="0.7631863">
        <time>2022-07-07T11:49:59Z</time>
      </trkpt>
      <trkpt lat="41.801037" lon="0.7632896">
        <time>2022-07-07T11:50:00Z</time>
      </trkpt>
      <trkpt lat="41.800987" lon="0.7633829">
        <time>2022-07-07T11:50:01Z</time>
      </trkpt>
      <trkpt lat="41.80094" lon="0.76347494">
        <time>2022-07-07T11:50:02Z</time>
      </trkpt>
      <trkpt lat="41.80089" lon="0.7635709">
        <time>2022-07-07T11:50:03Z</time>
      </trkpt>
      <trkpt lat="41.800842" lon="0.7636646">
        <time>2022-07-07T11:50:04Z</time>
      </trkpt>
      <trkpt lat="41.8008" lon="0.7637499">
        <time>2022-07-07T11:50:05Z</time>
      </trkpt>
      <trkpt lat="41.800755" lon="0.7638346">
        <time>2022-07-07T11:50:06Z</time>
      </trkpt>
      <trkpt lat="41.800713" lon="0.76391757">
        <time>2022-07-07T11:50:07Z</time>
      </trkpt>
      <trkpt lat="41.80067" lon="0.7639992">
        <time>2022-07-07T11:50:08Z</time>
      </trkpt>
      <trkpt lat="41.80063" lon="0.7640809">
        <time>2022-07-07T11:50:09Z</time>
      </trkpt>
      <trkpt lat="41.800583" lon="0.76416254">
        <time>2022-07-07T11:50:10Z</time>
      </trkpt>
      <trkpt lat="41.80054" lon="0.76424253">
        <time>2022-07-07T11:50:11Z</time>
      </trkpt>
      <trkpt lat="41.8005" lon="0.76432085">
        <time>2022-07-07T11:50:12Z</time>
      </trkpt>
      <trkpt lat="41.800457" lon="0.76439786">
        <time>2022-07-07T11:50:13Z</time>
      </trkpt>
      <trkpt lat="41.80041" lon="0.76447886">
        <time>2022-07-07T11:50:14Z</time>
      </trkpt>
      <trkpt lat="41.80037" lon="0.7645569">
        <time>2022-07-07T11:50:15Z</time>
      </trkpt>
      <trkpt lat="41.800327" lon="0.76462823">
        <time>2022-07-07T11:50:16Z</time>
      </trkpt>
      <trkpt lat="41.80029" lon="0.7646999">
        <time>2022-07-07T11:50:17Z</time>
      </trkpt>
      <trkpt lat="41.80025" lon="0.76477087">
        <time>2022-07-07T11:50:18Z</time>
      </trkpt>
      <trkpt lat="41.800217" lon="0.76484084">
        <time>2022-07-07T11:50:19Z</time>
      </trkpt>
      <trkpt lat="41.800182" lon="0.76490986">
        <time>2022-07-07T11:50:20Z</time>
      </trkpt>
      <trkpt lat="41.800144" lon="0.7649772">
        <time>2022-07-07T11:50:21Z</time>
      </trkpt>
      <trkpt lat="41.80011" lon="0.76504284">
        <time>2022-07-07T11:50:22Z</time>
      </trkpt>
      <trkpt lat="41.800076" lon="0.7651112">
        <time>2022-07-07T11:50:23Z</time>
      </trkpt>
      <trkpt lat="41.80004" lon="0.76517683">
        <time>2022-07-07T11:50:24Z</time>
      </trkpt>
      <trkpt lat="41.800007" lon="0.7652412">
        <time>2022-07-07T11:50:25Z</time>
      </trkpt>
      <trkpt lat="41.799976" lon="0.76530015">
        <time>2022-07-07T11:50:26Z</time>
      </trkpt>
      <trkpt lat="41.799942" lon="0.76536286">
        <time>2022-07-07T11:50:27Z</time>
      </trkpt>
      <trkpt lat="41.79991" lon="0.76542485">
        <time>2022-07-07T11:50:28Z</time>
      </trkpt>
      <trkpt lat="41.79988" lon="0.76548487">
        <time>2022-07-07T11:50:29Z</time>
      </trkpt>
      <trkpt lat="41.79985" lon="0.76554316">
        <time>2022-07-07T11:50:30Z</time>
      </trkpt>
      <trkpt lat="41.79982" lon="0.7655978">
        <time>2022-07-07T11:50:31Z</time>
      </trkpt>
      <trkpt lat="41.799763" lon="0.76570684">
        <time>2022-07-07T11:50:33Z</time>
      </trkpt>
      <trkpt lat="41.799732" lon="0.76576513">
        <time>2022-07-07T11:50:34Z</time>
      </trkpt>
      <trkpt lat="41.79968" lon="0.7658755">
        <time>2022-07-07T11:50:36Z</time>
      </trkpt>
      <trkpt lat="41.79962" lon="0.76598316">
        <time>2022-07-07T11:50:38Z</time>
      </trkpt>
      <trkpt lat="41.799564" lon="0.7660962">
        <time>2022-07-07T11:50:40Z</time>
      </trkpt>
      <trkpt lat="41.799538" lon="0.7661498">
        <time>2022-07-07T11:50:41Z</time>
      </trkpt>
      <trkpt lat="41.79948" lon="0.7662585">
        <time>2022-07-07T11:50:43Z</time>
      </trkpt>
      <trkpt lat="41.79942" lon="0.7663668">
        <time>2022-07-07T11:50:45Z</time>
      </trkpt>
      <trkpt lat="41.79936" lon="0.76647645">
        <time>2022-07-07T11:50:47Z</time>
      </trkpt>
      <trkpt lat="41.79933" lon="0.7665321">
        <time>2022-07-07T11:50:48Z</time>
      </trkpt>
      <trkpt lat="41.799267" lon="0.7666508">
        <time>2022-07-07T11:50:50Z</time>
      </trkpt>
      <trkpt lat="41.79924" lon="0.7667051">
        <time>2022-07-07T11:50:51Z</time>
      </trkpt>
      <trkpt lat="41.79921" lon="0.7667591">
        <time>2022-07-07T11:50:52Z</time>
      </trkpt>
      <trkpt lat="41.79915" lon="0.76687175">
        <time>2022-07-07T11:50:54Z</time>
      </trkpt>
      <trkpt lat="41.799118" lon="0.7669261">
        <time>2022-07-07T11:50:55Z</time>
      </trkpt>
      <trkpt lat="41.799088" lon="0.7669821">
        <time>2022-07-07T11:50:56Z</time>
      </trkpt>
      <trkpt lat="41.799026" lon="0.76709473">
        <time>2022-07-07T11:50:58Z</time>
      </trkpt>
      <trkpt lat="41.798996" lon="0.7671528">
        <time>2022-07-07T11:50:59Z</time>
      </trkpt>
      <trkpt lat="41.798965" lon="0.76721174">
        <time>2022-07-07T11:51:00Z</time>
      </trkpt>
      <trkpt lat="41.79893" lon="0.76727176">
        <time>2022-07-07T11:51:01Z</time>
      </trkpt>
      <trkpt lat="41.7989" lon="0.7673321">
        <time>2022-07-07T11:51:02Z</time>
      </trkpt>
      <trkpt lat="41.798866" lon="0.7673931">
        <time>2022-07-07T11:51:03Z</time>
      </trkpt>
      <trkpt lat="41.798832" lon="0.76745445">
        <time>2022-07-07T11:51:04Z</time>
      </trkpt>
      <trkpt lat="41.7988" lon="0.76751673">
        <time>2022-07-07T11:51:05Z</time>
      </trkpt>
      <trkpt lat="41.798763" lon="0.7675804">
        <time>2022-07-07T11:51:06Z</time>
      </trkpt>
      <trkpt lat="41.79873" lon="0.76764643">
        <time>2022-07-07T11:51:07Z</time>
      </trkpt>
      <trkpt lat="41.798695" lon="0.7677124">
        <time>2022-07-07T11:51:08Z</time>
      </trkpt>
      <trkpt lat="41.79866" lon="0.7677807">
        <time>2022-07-07T11:51:09Z</time>
      </trkpt>
      <trkpt lat="41.798622" lon="0.76785105">
        <time>2022-07-07T11:51:10Z</time>
      </trkpt>
      <trkpt lat="41.798584" lon="0.7679244">
        <time>2022-07-07T11:51:11Z</time>
      </trkpt>
      <trkpt lat="41.798546" lon="0.7680004">
        <time>2022-07-07T11:51:12Z</time>
      </trkpt>
      <trkpt lat="41.798508" lon="0.76807874">
        <time>2022-07-07T11:51:13Z</time>
      </trkpt>
      <trkpt lat="41.798466" lon="0.7681594">
        <time>2022-07-07T11:51:14Z</time>
      </trkpt>
      <trkpt lat="41.798424" lon="0.76824206">
        <time>2022-07-07T11:51:15Z</time>
      </trkpt>
      <trkpt lat="41.79838" lon="0.76832974">
        <time>2022-07-07T11:51:16Z</time>
      </trkpt>
      <trkpt lat="41.79834" lon="0.7684104">
        <time>2022-07-07T11:51:17Z</time>
      </trkpt>
      <trkpt lat="41.798298" lon="0.7684917">
        <time>2022-07-07T11:51:18Z</time>
      </trkpt>
      <trkpt lat="41.79826" lon="0.7685717">
        <time>2022-07-07T11:51:19Z</time>
      </trkpt>
      <trkpt lat="41.798218" lon="0.768652">
        <time>2022-07-07T11:51:20Z</time>
      </trkpt>
      <trkpt lat="41.798176" lon="0.76873034">
        <time>2022-07-07T11:51:21Z</time>
      </trkpt>
      <trkpt lat="41.798138" lon="0.7688077">
        <time>2022-07-07T11:51:22Z</time>
      </trkpt>
      <trkpt lat="41.7981" lon="0.76888436">
        <time>2022-07-07T11:51:23Z</time>
      </trkpt>
      <trkpt lat="41.798058" lon="0.76896036">
        <time>2022-07-07T11:51:24Z</time>
      </trkpt>
      <trkpt lat="41.79802" lon="0.76903665">
        <time>2022-07-07T11:51:25Z</time>
      </trkpt>
      <trkpt lat="41.79798" lon="0.769112">
        <time>2022-07-07T11:51:26Z</time>
      </trkpt>
      <trkpt lat="41.79794" lon="0.7691903">
        <time>2022-07-07T11:51:27Z</time>
      </trkpt>
      <trkpt lat="41.797905" lon="0.76926166">
        <time>2022-07-07T11:51:28Z</time>
      </trkpt>
      <trkpt lat="41.797867" lon="0.76933265">
        <time>2022-07-07T11:51:29Z</time>
      </trkpt>
      <trkpt lat="41.797832" lon="0.769402">
        <time>2022-07-07T11:51:30Z</time>
      </trkpt>
      <trkpt lat="41.797794" lon="0.76947063">
        <time>2022-07-07T11:51:31Z</time>
      </trkpt>
      <trkpt lat="41.79776" lon="0.76953864">
        <time>2022-07-07T11:51:32Z</time>
      </trkpt>
      <trkpt lat="41.79772" lon="0.76960564">
        <time>2022-07-07T11:51:33Z</time>
      </trkpt>
      <trkpt lat="41.797688" lon="0.769673">
        <time>2022-07-07T11:51:34Z</time>
      </trkpt>
      <trkpt lat="41.797653" lon="0.76974">
        <time>2022-07-07T11:51:35Z</time>
      </trkpt>
      <trkpt lat="41.79762" lon="0.7698066">
        <time>2022-07-07T11:51:36Z</time>
      </trkpt>
      <trkpt lat="41.797585" lon="0.7698703">
        <time>2022-07-07T11:51:37Z</time>
      </trkpt>
      <trkpt lat="41.797554" lon="0.769932">
        <time>2022-07-07T11:51:38Z</time>
      </trkpt>
      <trkpt lat="41.797523" lon="0.7699896">
        <time>2022-07-07T11:51:39Z</time>
      </trkpt>
      <trkpt lat="41.797466" lon="0.7700963">
        <time>2022-07-07T11:51:41Z</time>
      </trkpt>
      <trkpt lat="41.797413" lon="0.7701933">
        <time>2022-07-07T11:51:43Z</time>
      </trkpt>
      <trkpt lat="41.797363" lon="0.7702826">
        <time>2022-07-07T11:51:45Z</time>
      </trkpt>
      <trkpt lat="41.797314" lon="0.7703679">
        <time>2022-07-07T11:51:47Z</time>
      </trkpt>
      <trkpt lat="41.797268" lon="0.7704513">
        <time>2022-07-07T11:51:49Z</time>
      </trkpt>
      <trkpt lat="41.797226" lon="0.77053225">
        <time>2022-07-07T11:51:51Z</time>
      </trkpt>
      <trkpt lat="41.797184" lon="0.7706103">
        <time>2022-07-07T11:51:53Z</time>
      </trkpt>
      <trkpt lat="41.79714" lon="0.7706909">
        <time>2022-07-07T11:51:55Z</time>
      </trkpt>
      <trkpt lat="41.797092" lon="0.7707773">
        <time>2022-07-07T11:51:57Z</time>
      </trkpt>
      <trkpt lat="41.797047" lon="0.77086926">
        <time>2022-07-07T11:51:59Z</time>
      </trkpt>
      <trkpt lat="41.796993" lon="0.7709639">
        <time>2022-07-07T11:52:01Z</time>
      </trkpt>
      <trkpt lat="41.79694" lon="0.7710616">
        <time>2022-07-07T11:52:03Z</time>
      </trkpt>
      <trkpt lat="41.796913" lon="0.77111256">
        <time>2022-07-07T11:52:04Z</time>
      </trkpt>
      <trkpt lat="41.79686" lon="0.7712209">
        <time>2022-07-07T11:52:06Z</time>
      </trkpt>
      <trkpt lat="41.79683" lon="0.7712769">
        <time>2022-07-07T11:52:07Z</time>
      </trkpt>
      <trkpt lat="41.796772" lon="0.7713959">
        <time>2022-07-07T11:52:09Z</time>
      </trkpt>
      <trkpt lat="41.796745" lon="0.7714499">
        <time>2022-07-07T11:52:10Z</time>
      </trkpt>
      <trkpt lat="41.796688" lon="0.77156156">
        <time>2022-07-07T11:52:12Z</time>
      </trkpt>
      <trkpt lat="41.796658" lon="0.77161723">
        <time>2022-07-07T11:52:13Z</time>
      </trkpt>
      <trkpt lat="41.796593" lon="0.77173555">
        <time>2022-07-07T11:52:15Z</time>
      </trkpt>
      <trkpt lat="41.796566" lon="0.77179056">
        <time>2022-07-07T11:52:16Z</time>
      </trkpt>
      <trkpt lat="41.7965" lon="0.7719049">
        <time>2022-07-07T11:52:18Z</time>
      </trkpt>
      <trkpt lat="41.79647" lon="0.7719649">
        <time>2022-07-07T11:52:19Z</time>
      </trkpt>
      <trkpt lat="41.79644" lon="0.7720259">
        <time>2022-07-07T11:52:20Z</time>
      </trkpt>
      <trkpt lat="41.79641" lon="0.7720822">
        <time>2022-07-07T11:52:21Z</time>
      </trkpt>
      <trkpt lat="41.796383" lon="0.77213925">
        <time>2022-07-07T11:52:22Z</time>
      </trkpt>
      <trkpt lat="41.796318" lon="0.7722569">
        <time>2022-07-07T11:52:24Z</time>
      </trkpt>
      <trkpt lat="41.796284" lon="0.7723142">
        <time>2022-07-07T11:52:25Z</time>
      </trkpt>
      <trkpt lat="41.79623" lon="0.7724219">
        <time>2022-07-07T11:52:27Z</time>
      </trkpt>
      <trkpt lat="41.79617" lon="0.77253586">
        <time>2022-07-07T11:52:29Z</time>
      </trkpt>
      <trkpt lat="41.796135" lon="0.7725932">
        <time>2022-07-07T11:52:30Z</time>
      </trkpt>
      <trkpt lat="41.79611" lon="0.7726472">
        <time>2022-07-07T11:52:31Z</time>
      </trkpt>
      <trkpt lat="41.796078" lon="0.7727049">
        <time>2022-07-07T11:52:32Z</time>
      </trkpt>
      <trkpt lat="41.79602" lon="0.7728172">
        <time>2022-07-07T11:52:34Z</time>
      </trkpt>
      <trkpt lat="41.795986" lon="0.7728762">
        <time>2022-07-07T11:52:35Z</time>
      </trkpt>
      <trkpt lat="41.795956" lon="0.7729352">
        <time>2022-07-07T11:52:36Z</time>
      </trkpt>
      <trkpt lat="41.795925" lon="0.7729945">
        <time>2022-07-07T11:52:37Z</time>
      </trkpt>
      <trkpt lat="41.795895" lon="0.77304953">
        <time>2022-07-07T11:52:38Z</time>
      </trkpt>
      <trkpt lat="41.795834" lon="0.7731632">
        <time>2022-07-07T11:52:40Z</time>
      </trkpt>
      <trkpt lat="41.795803" lon="0.7732212">
        <time>2022-07-07T11:52:41Z</time>
      </trkpt>
      <trkpt lat="41.795773" lon="0.77327853">
        <time>2022-07-07T11:52:42Z</time>
      </trkpt>
      <trkpt lat="41.795742" lon="0.7733355">
        <time>2022-07-07T11:52:43Z</time>
      </trkpt>
      <trkpt lat="41.79568" lon="0.7734529">
        <time>2022-07-07T11:52:45Z</time>
      </trkpt>
      <trkpt lat="41.795647" lon="0.77351284">
        <time>2022-07-07T11:52:46Z</time>
      </trkpt>
      <trkpt lat="41.795586" lon="0.7736328">
        <time>2022-07-07T11:52:48Z</time>
      </trkpt>
      <trkpt lat="41.79555" lon="0.7736962">
        <time>2022-07-07T11:52:49Z</time>
      </trkpt>
      <trkpt lat="41.79552" lon="0.7737592">
        <time>2022-07-07T11:52:50Z</time>
      </trkpt>
      <trkpt lat="41.795486" lon="0.7738208">
        <time>2022-07-07T11:52:51Z</time>
      </trkpt>
      <trkpt lat="41.795452" lon="0.77388316">
        <time>2022-07-07T11:52:52Z</time>
      </trkpt>
      <trkpt lat="41.795418" lon="0.7739475">
        <time>2022-07-07T11:52:53Z</time>
      </trkpt>
      <trkpt lat="41.795383" lon="0.77401316">
        <time>2022-07-07T11:52:54Z</time>
      </trkpt>
      <trkpt lat="41.79535" lon="0.7740758">
        <time>2022-07-07T11:52:55Z</time>
      </trkpt>
      <trkpt lat="41.795315" lon="0.77414215">
        <time>2022-07-07T11:52:56Z</time>
      </trkpt>
      <trkpt lat="41.795277" lon="0.77421147">
        <time>2022-07-07T11:52:57Z</time>
      </trkpt>
      <trkpt lat="41.795242" lon="0.77428347">
        <time>2022-07-07T11:52:58Z</time>
      </trkpt>
      <trkpt lat="41.795204" lon="0.77435815">
        <time>2022-07-07T11:52:59Z</time>
      </trkpt>
      <trkpt lat="41.795162" lon="0.77443445">
        <time>2022-07-07T11:53:00Z</time>
      </trkpt>
      <trkpt lat="41.79512" lon="0.7745138">
        <time>2022-07-07T11:53:01Z</time>
      </trkpt>
      <trkpt lat="41.79508" lon="0.7746018">
        <time>2022-07-07T11:53:02Z</time>
      </trkpt>
      <trkpt lat="41.795033" lon="0.77468413">
        <time>2022-07-07T11:53:03Z</time>
      </trkpt>
      <trkpt lat="41.79499" lon="0.7747685">
        <time>2022-07-07T11:53:04Z</time>
      </trkpt>
      <trkpt lat="41.794945" lon="0.7748611">
        <time>2022-07-07T11:53:05Z</time>
      </trkpt>
      <trkpt lat="41.794895" lon="0.7749534">
        <time>2022-07-07T11:53:06Z</time>
      </trkpt>
      <trkpt lat="41.79485" lon="0.77504045">
        <time>2022-07-07T11:53:07Z</time>
      </trkpt>
      <trkpt lat="41.794804" lon="0.7751325">
        <time>2022-07-07T11:53:08Z</time>
      </trkpt>
      <trkpt lat="41.794758" lon="0.7752281">
        <time>2022-07-07T11:53:09Z</time>
      </trkpt>
      <trkpt lat="41.794704" lon="0.77533346">
        <time>2022-07-07T11:53:10Z</time>
      </trkpt>
      <trkpt lat="41.79465" lon="0.7754374">
        <time>2022-07-07T11:53:11Z</time>
      </trkpt>
      <trkpt lat="41.794598" lon="0.77553546">
        <time>2022-07-07T11:53:12Z</time>
      </trkpt>
      <trkpt lat="41.794544" lon="0.7756354">
        <time>2022-07-07T11:53:13Z</time>
      </trkpt>
      <trkpt lat="41.79449" lon="0.77573746">
        <time>2022-07-07T11:53:14Z</time>
      </trkpt>
      <trkpt lat="41.79443" lon="0.77584845">
        <time>2022-07-07T11:53:15Z</time>
      </trkpt>
      <trkpt lat="41.79437" lon="0.7759591">
        <time>2022-07-07T11:53:16Z</time>
      </trkpt>
      <trkpt lat="41.79431" lon="0.77606845">
        <time>2022-07-07T11:53:17Z</time>
      </trkpt>
      <trkpt lat="41.79426" lon="0.77616876">
        <time>2022-07-07T11:53:18Z</time>
      </trkpt>
      <trkpt lat="41.794205" lon="0.77626944">
        <time>2022-07-07T11:53:19Z</time>
      </trkpt>
      <trkpt lat="41.794144" lon="0.77637607">
        <time>2022-07-07T11:53:20Z</time>
      </trkpt>
      <trkpt lat="41.794086" lon="0.7764797">
        <time>2022-07-07T11:53:21Z</time>
      </trkpt>
      <trkpt lat="41.794033" lon="0.77657473">
        <time>2022-07-07T11:53:22Z</time>
      </trkpt>
      <trkpt lat="41.793983" lon="0.7766681">
        <time>2022-07-07T11:53:23Z</time>
      </trkpt>
      <trkpt lat="41.793934" lon="0.7767614">
        <time>2022-07-07T11:53:24Z</time>
      </trkpt>
      <trkpt lat="41.793884" lon="0.7768524">
        <time>2022-07-07T11:53:25Z</time>
      </trkpt>
      <trkpt lat="41.793835" lon="0.7769464">
        <time>2022-07-07T11:53:26Z</time>
      </trkpt>
      <trkpt lat="41.793785" lon="0.7770354">
        <time>2022-07-07T11:53:27Z</time>
      </trkpt>
      <trkpt lat="41.79374" lon="0.7771214">
        <time>2022-07-07T11:53:28Z</time>
      </trkpt>
      <trkpt lat="41.7937" lon="0.77720004">
        <time>2022-07-07T11:53:29Z</time>
      </trkpt>
      <trkpt lat="41.79366" lon="0.7772767">
        <time>2022-07-07T11:53:30Z</time>
      </trkpt>
      <trkpt lat="41.793617" lon="0.77735174">
        <time>2022-07-07T11:53:31Z</time>
      </trkpt>
      <trkpt lat="41.79357" lon="0.7774307">
        <time>2022-07-07T11:53:32Z</time>
      </trkpt>
      <trkpt lat="41.793533" lon="0.7775031">
        <time>2022-07-07T11:53:33Z</time>
      </trkpt>
      <trkpt lat="41.793495" lon="0.7775734">
        <time>2022-07-07T11:53:34Z</time>
      </trkpt>
      <trkpt lat="41.793453" lon="0.77764404">
        <time>2022-07-07T11:53:35Z</time>
      </trkpt>
      <trkpt lat="41.793415" lon="0.7777167">
        <time>2022-07-07T11:53:36Z</time>
      </trkpt>
      <trkpt lat="41.793373" lon="0.77779037">
        <time>2022-07-07T11:53:37Z</time>
      </trkpt>
      <trkpt lat="41.793335" lon="0.7778637">
        <time>2022-07-07T11:53:38Z</time>
      </trkpt>
      <trkpt lat="41.793297" lon="0.7779367">
        <time>2022-07-07T11:53:39Z</time>
      </trkpt>
      <trkpt lat="41.79326" lon="0.77800834">
        <time>2022-07-07T11:53:40Z</time>
      </trkpt>
      <trkpt lat="41.79322" lon="0.7780807">
        <time>2022-07-07T11:53:41Z</time>
      </trkpt>
      <trkpt lat="41.793182" lon="0.778153">
        <time>2022-07-07T11:53:42Z</time>
      </trkpt>
      <trkpt lat="41.793144" lon="0.778225">
        <time>2022-07-07T11:53:43Z</time>
      </trkpt>
      <trkpt lat="41.793106" lon="0.778297">
        <time>2022-07-07T11:53:44Z</time>
      </trkpt>
      <trkpt lat="41.793068" lon="0.77836937">
        <time>2022-07-07T11:53:45Z</time>
      </trkpt>
      <trkpt lat="41.79303" lon="0.7784423">
        <time>2022-07-07T11:53:46Z</time>
      </trkpt>
      <trkpt lat="41.79299" lon="0.77851635">
        <time>2022-07-07T11:53:47Z</time>
      </trkpt>
      <trkpt lat="41.79295" lon="0.778592">
        <time>2022-07-07T11:53:48Z</time>
      </trkpt>
      <trkpt lat="41.79291" lon="0.7786703">
        <time>2022-07-07T11:53:49Z</time>
      </trkpt>
      <trkpt lat="41.79287" lon="0.77875197">
        <time>2022-07-07T11:53:50Z</time>
      </trkpt>
      <trkpt lat="41.792824" lon="0.7788363">
        <time>2022-07-07T11:53:51Z</time>
      </trkpt>
      <trkpt lat="41.792778" lon="0.7789253">
        <time>2022-07-07T11:53:52Z</time>
      </trkpt>
      <trkpt lat="41.79273" lon="0.779019">
        <time>2022-07-07T11:53:53Z</time>
      </trkpt>
      <trkpt lat="41.792675" lon="0.7791173">
        <time>2022-07-07T11:53:54Z</time>
      </trkpt>
      <trkpt lat="41.79257" lon="0.77932596">
        <time>2022-07-07T11:53:56Z</time>
      </trkpt>
      <trkpt lat="41.79251" lon="0.77943397">
        <time>2022-07-07T11:53:57Z</time>
      </trkpt>
      <trkpt lat="41.792454" lon="0.779544">
        <time>2022-07-07T11:53:58Z</time>
      </trkpt>
      <trkpt lat="41.792393" lon="0.7796543">
        <time>2022-07-07T11:53:59Z</time>
      </trkpt>
      <trkpt lat="41.792336" lon="0.7797643">
        <time>2022-07-07T11:54:00Z</time>
      </trkpt>
      <trkpt lat="41.79228" lon="0.7798723">
        <time>2022-07-07T11:54:01Z</time>
      </trkpt>
      <trkpt lat="41.79222" lon="0.779978">
        <time>2022-07-07T11:54:02Z</time>
      </trkpt>
      <trkpt lat="41.792168" lon="0.7800816">
        <time>2022-07-07T11:54:03Z</time>
      </trkpt>
      <trkpt lat="41.792114" lon="0.78018296">
        <time>2022-07-07T11:54:04Z</time>
      </trkpt>
      <trkpt lat="41.79206" lon="0.7802806">
        <time>2022-07-07T11:54:05Z</time>
      </trkpt>
      <trkpt lat="41.79201" lon="0.78037626">
        <time>2022-07-07T11:54:06Z</time>
      </trkpt>
      <trkpt lat="41.79196" lon="0.7804696">
        <time>2022-07-07T11:54:07Z</time>
      </trkpt>
      <trkpt lat="41.791916" lon="0.78056026">
        <time>2022-07-07T11:54:08Z</time>
      </trkpt>
      <trkpt lat="41.79187" lon="0.78064823">
        <time>2022-07-07T11:54:09Z</time>
      </trkpt>
      <trkpt lat="41.791824" lon="0.78073394">
        <time>2022-07-07T11:54:10Z</time>
      </trkpt>
      <trkpt lat="41.79178" lon="0.7808169">
        <time>2022-07-07T11:54:11Z</time>
      </trkpt>
      <trkpt lat="41.791737" lon="0.78089756">
        <time>2022-07-07T11:54:12Z</time>
      </trkpt>
      <trkpt lat="41.791695" lon="0.7809766">
        <time>2022-07-07T11:54:13Z</time>
      </trkpt>
      <trkpt lat="41.791653" lon="0.7810552">
        <time>2022-07-07T11:54:14Z</time>
      </trkpt>
      <trkpt lat="41.791615" lon="0.7811322">
        <time>2022-07-07T11:54:15Z</time>
      </trkpt>
      <trkpt lat="41.791573" lon="0.7812089">
        <time>2022-07-07T11:54:16Z</time>
      </trkpt>
      <trkpt lat="41.791534" lon="0.7812842">
        <time>2022-07-07T11:54:17Z</time>
      </trkpt>
      <trkpt lat="41.791496" lon="0.78135854">
        <time>2022-07-07T11:54:18Z</time>
      </trkpt>
      <trkpt lat="41.79146" lon="0.78143257">
        <time>2022-07-07T11:54:19Z</time>
      </trkpt>
      <trkpt lat="41.79142" lon="0.7815056">
        <time>2022-07-07T11:54:20Z</time>
      </trkpt>
      <trkpt lat="41.79138" lon="0.7815779">
        <time>2022-07-07T11:54:21Z</time>
      </trkpt>
      <trkpt lat="41.791344" lon="0.7816482">
        <time>2022-07-07T11:54:22Z</time>
      </trkpt>
      <trkpt lat="41.79131" lon="0.7817156">
        <time>2022-07-07T11:54:23Z</time>
      </trkpt>
      <trkpt lat="41.791275" lon="0.7817812">
        <time>2022-07-07T11:54:24Z</time>
      </trkpt>
      <trkpt lat="41.79124" lon="0.78184456">
        <time>2022-07-07T11:54:25Z</time>
      </trkpt>
      <trkpt lat="41.79121" lon="0.7819045">
        <time>2022-07-07T11:54:26Z</time>
      </trkpt>
      <trkpt lat="41.79118" lon="0.7819612">
        <time>2022-07-07T11:54:27Z</time>
      </trkpt>
      <trkpt lat="41.791153" lon="0.7820155">
        <time>2022-07-07T11:54:28Z</time>
      </trkpt>
      <trkpt lat="41.791096" lon="0.7821172">
        <time>2022-07-07T11:54:30Z</time>
      </trkpt>
      <trkpt lat="41.791046" lon="0.7822092">
        <time>2022-07-07T11:54:32Z</time>
      </trkpt>
      <trkpt lat="41.791" lon="0.78229284">
        <time>2022-07-07T11:54:34Z</time>
      </trkpt>
      <trkpt lat="41.790955" lon="0.7823719">
        <time>2022-07-07T11:54:36Z</time>
      </trkpt>
      <trkpt lat="41.79091" lon="0.7824495">
        <time>2022-07-07T11:54:38Z</time>
      </trkpt>
      <trkpt lat="41.79087" lon="0.7825262">
        <time>2022-07-07T11:54:40Z</time>
      </trkpt>
      <trkpt lat="41.79083" lon="0.7826025">
        <time>2022-07-07T11:54:42Z</time>
      </trkpt>
      <trkpt lat="41.790787" lon="0.7826755">
        <time>2022-07-07T11:54:44Z</time>
      </trkpt>
      <trkpt lat="41.790745" lon="0.7827525">
        <time>2022-07-07T11:54:46Z</time>
      </trkpt>
      <trkpt lat="41.790703" lon="0.7828225">
        <time>2022-07-07T11:54:48Z</time>
      </trkpt>
      <trkpt lat="41.79067" lon="0.7828895">
        <time>2022-07-07T11:54:50Z</time>
      </trkpt>
      <trkpt lat="41.790638" lon="0.7829525">
        <time>2022-07-07T11:54:52Z</time>
      </trkpt>
      <trkpt lat="41.790607" lon="0.7830128">
        <time>2022-07-07T11:54:54Z</time>
      </trkpt>
      <trkpt lat="41.790577" lon="0.7830715">
        <time>2022-07-07T11:54:56Z</time>
      </trkpt>
      <trkpt lat="41.790546" lon="0.7831275">
        <time>2022-07-07T11:54:58Z</time>
      </trkpt>
      <trkpt lat="41.790516" lon="0.78318715">
        <time>2022-07-07T11:55:00Z</time>
      </trkpt>
      <trkpt lat="41.790485" lon="0.7832498">
        <time>2022-07-07T11:55:02Z</time>
      </trkpt>
      <trkpt lat="41.790455" lon="0.78330946">
        <time>2022-07-07T11:55:04Z</time>
      </trkpt>
      <trkpt lat="41.79042" lon="0.78337115">
        <time>2022-07-07T11:55:06Z</time>
      </trkpt>
      <trkpt lat="41.790386" lon="0.7834351">
        <time>2022-07-07T11:55:08Z</time>
      </trkpt>
      <trkpt lat="41.790356" lon="0.7834951">
        <time>2022-07-07T11:55:10Z</time>
      </trkpt>
      <trkpt lat="41.790318" lon="0.7835585">
        <time>2022-07-07T11:55:12Z</time>
      </trkpt>
      <trkpt lat="41.79028" lon="0.7836231">
        <time>2022-07-07T11:55:14Z</time>
      </trkpt>
      <trkpt lat="41.790237" lon="0.7836928">
        <time>2022-07-07T11:55:16Z</time>
      </trkpt>
      <trkpt lat="41.7902" lon="0.7837701">
        <time>2022-07-07T11:55:18Z</time>
      </trkpt>
      <trkpt lat="41.79016" lon="0.7838511">
        <time>2022-07-07T11:55:20Z</time>
      </trkpt>
      <trkpt lat="41.79012" lon="0.78393346">
        <time>2022-07-07T11:55:22Z</time>
      </trkpt>
      <trkpt lat="41.790077" lon="0.7840208">
        <time>2022-07-07T11:55:24Z</time>
      </trkpt>
      <trkpt lat="41.79003" lon="0.7841118">
        <time>2022-07-07T11:55:26Z</time>
      </trkpt>
      <trkpt lat="41.789978" lon="0.7842084">
        <time>2022-07-07T11:55:28Z</time>
      </trkpt>
      <trkpt lat="41.78993" lon="0.78430843">
        <time>2022-07-07T11:55:30Z</time>
      </trkpt>
      <trkpt lat="41.7899" lon="0.78435946">
        <time>2022-07-07T11:55:31Z</time>
      </trkpt>
      <trkpt lat="41.78985" lon="0.78446543">
        <time>2022-07-07T11:55:33Z</time>
      </trkpt>
      <trkpt lat="41.789787" lon="0.7845731">
        <time>2022-07-07T11:55:35Z</time>
      </trkpt>
      <trkpt lat="41.78973" lon="0.7846807">
        <time>2022-07-07T11:55:37Z</time>
      </trkpt>
      <trkpt lat="41.789673" lon="0.78478974">
        <time>2022-07-07T11:55:39Z</time>
      </trkpt>
      <trkpt lat="41.78961" lon="0.78489774">
        <time>2022-07-07T11:55:41Z</time>
      </trkpt>
      <trkpt lat="41.78958" lon="0.78495175">
        <time>2022-07-07T11:55:42Z</time>
      </trkpt>
      <trkpt lat="41.78952" lon="0.78506607">
        <time>2022-07-07T11:55:44Z</time>
      </trkpt>
      <trkpt lat="41.78949" lon="0.7851211">
        <time>2022-07-07T11:55:45Z</time>
      </trkpt>
      <trkpt lat="41.78946" lon="0.78517675">
        <time>2022-07-07T11:55:46Z</time>
      </trkpt>
      <trkpt lat="41.7894" lon="0.7852911">
        <time>2022-07-07T11:55:48Z</time>
      </trkpt>
      <trkpt lat="41.789368" lon="0.78534704">
        <time>2022-07-07T11:55:49Z</time>
      </trkpt>
      <trkpt lat="41.789337" lon="0.78539807">
        <time>2022-07-07T11:55:50Z</time>
      </trkpt>
      <trkpt lat="41.789288" lon="0.78549874">
        <time>2022-07-07T11:55:52Z</time>
      </trkpt>
      <trkpt lat="41.789234" lon="0.7855917">
        <time>2022-07-07T11:55:54Z</time>
      </trkpt>
      <trkpt lat="41.789185" lon="0.7856817">
        <time>2022-07-07T11:55:56Z</time>
      </trkpt>
      <trkpt lat="41.78914" lon="0.78576803">
        <time>2022-07-07T11:55:58Z</time>
      </trkpt>
      <trkpt lat="41.789093" lon="0.7858484">
        <time>2022-07-07T11:56:00Z</time>
      </trkpt>
      <trkpt lat="41.789055" lon="0.78592837">
        <time>2022-07-07T11:56:02Z</time>
      </trkpt>
      <trkpt lat="41.789013" lon="0.7860074">
        <time>2022-07-07T11:56:04Z</time>
      </trkpt>
      <trkpt lat="41.788975" lon="0.7860787">
        <time>2022-07-07T11:56:06Z</time>
      </trkpt>
      <trkpt lat="41.788918" lon="0.7861854">
        <time>2022-07-07T11:56:09Z</time>
      </trkpt>
      <trkpt lat="41.78888" lon="0.786257">
        <time>2022-07-07T11:56:11Z</time>
      </trkpt>
      <trkpt lat="41.788822" lon="0.7863614">
        <time>2022-07-07T11:56:14Z</time>
      </trkpt>
      <trkpt lat="41.788788" lon="0.78642935">
        <time>2022-07-07T11:56:16Z</time>
      </trkpt>
      <trkpt lat="41.78875" lon="0.78649735">
        <time>2022-07-07T11:56:18Z</time>
      </trkpt>
      <trkpt lat="41.78871" lon="0.7865677">
        <time>2022-07-07T11:56:20Z</time>
      </trkpt>
      <trkpt lat="41.788677" lon="0.7866397">
        <time>2022-07-07T11:56:22Z</time>
      </trkpt>
      <trkpt lat="41.78864" lon="0.78671336">
        <time>2022-07-07T11:56:24Z</time>
      </trkpt>
      <trkpt lat="41.788605" lon="0.786786">
        <time>2022-07-07T11:56:26Z</time>
      </trkpt>
      <trkpt lat="41.788574" lon="0.78685737">
        <time>2022-07-07T11:56:28Z</time>
      </trkpt>
      <trkpt lat="41.78854" lon="0.786928">
        <time>2022-07-07T11:56:30Z</time>
      </trkpt>
      <trkpt lat="41.78851" lon="0.7869973">
        <time>2022-07-07T11:56:32Z</time>
      </trkpt>
      <trkpt lat="41.788475" lon="0.7870657">
        <time>2022-07-07T11:56:34Z</time>
      </trkpt>
      <trkpt lat="41.78844" lon="0.787133">
        <time>2022-07-07T11:56:36Z</time>
      </trkpt>
      <trkpt lat="41.788403" lon="0.7872007">
        <time>2022-07-07T11:56:38Z</time>
      </trkpt>
      <trkpt lat="41.788364" lon="0.7872667">
        <time>2022-07-07T11:56:40Z</time>
      </trkpt>
      <trkpt lat="41.788326" lon="0.7873293">
        <time>2022-07-07T11:56:42Z</time>
      </trkpt>
      <trkpt lat="41.78829" lon="0.787394">
        <time>2022-07-07T11:56:44Z</time>
      </trkpt>
      <trkpt lat="41.788254" lon="0.7874596">
        <time>2022-07-07T11:56:46Z</time>
      </trkpt>
      <trkpt lat="41.788216" lon="0.787525">
        <time>2022-07-07T11:56:48Z</time>
      </trkpt>
      <trkpt lat="41.78818" lon="0.7875953">
        <time>2022-07-07T11:56:50Z</time>
      </trkpt>
      <trkpt lat="41.788143" lon="0.787667">
        <time>2022-07-07T11:56:52Z</time>
      </trkpt>
      <trkpt lat="41.788105" lon="0.7877433">
        <time>2022-07-07T11:56:54Z</time>
      </trkpt>
      <trkpt lat="41.788063" lon="0.7878216">
        <time>2022-07-07T11:56:56Z</time>
      </trkpt>
      <trkpt lat="41.788017" lon="0.7879006">
        <time>2022-07-07T11:56:58Z</time>
      </trkpt>
      <trkpt lat="41.787975" lon="0.7879813">
        <time>2022-07-07T11:57:00Z</time>
      </trkpt>
      <trkpt lat="41.787926" lon="0.7880646">
        <time>2022-07-07T11:57:02Z</time>
      </trkpt>
      <trkpt lat="41.78788" lon="0.7881556">
        <time>2022-07-07T11:57:04Z</time>
      </trkpt>
      <trkpt lat="41.78783" lon="0.7882506">
        <time>2022-07-07T11:57:06Z</time>
      </trkpt>
      <trkpt lat="41.78778" lon="0.7883463">
        <time>2022-07-07T11:57:08Z</time>
      </trkpt>
      <trkpt lat="41.787712" lon="0.7884903">
        <time>2022-07-07T11:57:11Z</time>
      </trkpt>
      <trkpt lat="41.787666" lon="0.7885793">
        <time>2022-07-07T11:57:13Z</time>
      </trkpt>
      <trkpt lat="41.787617" lon="0.78866625">
        <time>2022-07-07T11:57:15Z</time>
      </trkpt>
      <trkpt lat="41.787563" lon="0.78874993">
        <time>2022-07-07T11:57:17Z</time>
      </trkpt>
      <trkpt lat="41.78752" lon="0.78882194">
        <time>2022-07-07T11:57:19Z</time>
      </trkpt>
      <trkpt lat="41.78749" lon="0.78886557">
        <time>2022-07-07T11:57:23Z</time>
      </trkpt>
      <trkpt lat="41.787422" lon="0.78898793">
        <time>2022-07-07T12:04:38Z</time>
      </trkpt>
      <trkpt lat="41.787384" lon="0.78905594">
        <time>2022-07-07T12:04:40Z</time>
      </trkpt>
      <trkpt lat="41.787342" lon="0.7891329">
        <time>2022-07-07T12:04:42Z</time>
      </trkpt>
      <trkpt lat="41.787296" lon="0.7892116">
        <time>2022-07-07T12:04:44Z</time>
      </trkpt>
      <trkpt lat="41.78725" lon="0.78928655">
        <time>2022-07-07T12:04:46Z</time>
      </trkpt>
      <trkpt lat="41.787205" lon="0.7893666">
        <time>2022-07-07T12:04:48Z</time>
      </trkpt>
      <trkpt lat="41.78716" lon="0.7894489">
        <time>2022-07-07T12:04:50Z</time>
      </trkpt>
      <trkpt lat="41.787113" lon="0.78953356">
        <time>2022-07-07T12:04:52Z</time>
      </trkpt>
      <trkpt lat="41.787064" lon="0.7896206">
        <time>2022-07-07T12:04:54Z</time>
      </trkpt>
      <trkpt lat="41.787018" lon="0.7897092">
        <time>2022-07-07T12:04:56Z</time>
      </trkpt>
      <trkpt lat="41.78697" lon="0.78979725">
        <time>2022-07-07T12:04:58Z</time>
      </trkpt>
      <trkpt lat="41.786915" lon="0.7898829">
        <time>2022-07-07T12:05:00Z</time>
      </trkpt>
      <trkpt lat="41.786858" lon="0.78996754">
        <time>2022-07-07T12:05:02Z</time>
      </trkpt>
      <trkpt lat="41.786804" lon="0.7900512">
        <time>2022-07-07T12:05:04Z</time>
      </trkpt>
      <trkpt lat="41.78675" lon="0.79013324">
        <time>2022-07-07T12:05:06Z</time>
      </trkpt>
      <trkpt lat="41.786697" lon="0.7902139">
        <time>2022-07-07T12:05:08Z</time>
      </trkpt>
      <trkpt lat="41.786648" lon="0.7902932">
        <time>2022-07-07T12:05:10Z</time>
      </trkpt>
      <trkpt lat="41.7866" lon="0.7903702">
        <time>2022-07-07T12:05:12Z</time>
      </trkpt>
      <trkpt lat="41.786545" lon="0.79044354">
        <time>2022-07-07T12:05:14Z</time>
      </trkpt>
      <trkpt lat="41.786495" lon="0.7905122">
        <time>2022-07-07T12:05:16Z</time>
      </trkpt>
      <trkpt lat="41.78644" lon="0.7905818">
        <time>2022-07-07T12:05:18Z</time>
      </trkpt>
      <trkpt lat="41.786392" lon="0.7906525">
        <time>2022-07-07T12:05:20Z</time>
      </trkpt>
      <trkpt lat="41.78634" lon="0.79072416">
        <time>2022-07-07T12:05:22Z</time>
      </trkpt>
      <trkpt lat="41.78628" lon="0.79079986">
        <time>2022-07-07T12:05:24Z</time>
      </trkpt>
      <trkpt lat="41.78623" lon="0.7908782">
        <time>2022-07-07T12:05:26Z</time>
      </trkpt>
      <trkpt lat="41.786167" lon="0.7909592">
        <time>2022-07-07T12:05:28Z</time>
      </trkpt>
      <trkpt lat="41.786102" lon="0.7910375">
        <time>2022-07-07T12:05:30Z</time>
      </trkpt>
      <trkpt lat="41.786037" lon="0.79111713">
        <time>2022-07-07T12:05:32Z</time>
      </trkpt>
      <trkpt lat="41.78593" lon="0.7912418">
        <time>2022-07-07T12:05:35Z</time>
      </trkpt>
      <trkpt lat="41.78585" lon="0.7913275">
        <time>2022-07-07T12:05:37Z</time>
      </trkpt>
      <trkpt lat="41.785812" lon="0.79136544">
        <time>2022-07-07T12:05:38Z</time>
      </trkpt>
      <trkpt lat="41.78577" lon="0.7913988">
        <time>2022-07-07T12:05:39Z</time>
      </trkpt>
      <trkpt lat="41.78567" lon="0.7914298">
        <time>2022-07-07T12:05:41Z</time>
      </trkpt>
      <trkpt lat="41.785625" lon="0.79142445">
        <time>2022-07-07T12:05:42Z</time>
      </trkpt>
      <trkpt lat="41.78555" lon="0.7913978">
        <time>2022-07-07T12:05:44Z</time>
      </trkpt>
      <trkpt lat="41.785496" lon="0.7913918">
        <time>2022-07-07T12:05:46Z</time>
      </trkpt>
      <trkpt lat="41.785458" lon="0.79141617">
        <time>2022-07-07T12:05:49Z</time>
      </trkpt>
      <trkpt lat="41.785385" lon="0.79148215">
        <time>2022-07-07T12:05:59Z</time>
      </trkpt>
      <trkpt lat="41.785316" lon="0.7915318">
        <time>2022-07-07T12:06:02Z</time>
      </trkpt>
      <trkpt lat="41.785267" lon="0.7915821">
        <time>2022-07-07T12:06:04Z</time>
      </trkpt>
      <trkpt lat="41.78522" lon="0.79164714">
        <time>2022-07-07T12:06:06Z</time>
      </trkpt>
      <trkpt lat="41.785187" lon="0.79172915">
        <time>2022-07-07T12:06:08Z</time>
      </trkpt>
      <trkpt lat="41.785168" lon="0.79182243">
        <time>2022-07-07T12:06:10Z</time>
      </trkpt>
      <trkpt lat="41.78516" lon="0.79192144">
        <time>2022-07-07T12:06:12Z</time>
      </trkpt>
      <trkpt lat="41.785164" lon="0.7920148">
        <time>2022-07-07T12:06:14Z</time>
      </trkpt>
      <trkpt lat="41.78521" lon="0.7921351">
        <time>2022-07-07T12:06:18Z</time>
      </trkpt>
      <trkpt lat="41.785255" lon="0.7922161">
        <time>2022-07-07T12:06:20Z</time>
      </trkpt>
      <trkpt lat="41.785305" lon="0.79227513">
        <time>2022-07-07T12:06:22Z</time>
      </trkpt>
      <trkpt lat="41.785355" lon="0.7923261">
        <time>2022-07-07T12:06:24Z</time>
      </trkpt>
      <trkpt lat="41.78541" lon="0.7923628">
        <time>2022-07-07T12:06:26Z</time>
      </trkpt>
      <trkpt lat="41.78546" lon="0.7923881">
        <time>2022-07-07T12:06:28Z</time>
      </trkpt>
      <trkpt lat="41.78551" lon="0.7924158">
        <time>2022-07-07T12:06:30Z</time>
      </trkpt>
      <trkpt lat="41.785557" lon="0.7924548">
        <time>2022-07-07T12:06:32Z</time>
      </trkpt>
      <trkpt lat="41.78559" lon="0.7925031">
        <time>2022-07-07T12:06:34Z</time>
      </trkpt>
      <trkpt lat="41.78563" lon="0.7925921">
        <time>2022-07-07T12:06:37Z</time>
      </trkpt>
      <trkpt lat="41.78564" lon="0.7926561">
        <time>2022-07-07T12:06:39Z</time>
      </trkpt>
      <trkpt lat="41.785667" lon="0.7927508">
        <time>2022-07-07T12:06:42Z</time>
      </trkpt>
      <trkpt lat="41.78569" lon="0.7928114">
        <time>2022-07-07T12:06:44Z</time>
      </trkpt>
      <trkpt lat="41.78572" lon="0.79290575">
        <time>2022-07-07T12:06:47Z</time>
      </trkpt>
      <trkpt lat="41.785736" lon="0.7929684">
        <time>2022-07-07T12:06:49Z</time>
      </trkpt>
      <trkpt lat="41.78576" lon="0.7930661">
        <time>2022-07-07T12:06:52Z</time>
      </trkpt>
      <trkpt lat="41.785778" lon="0.7931341">
        <time>2022-07-07T12:06:54Z</time>
      </trkpt>
      <trkpt lat="41.785793" lon="0.79320705">
        <time>2022-07-07T12:06:56Z</time>
      </trkpt>
      <trkpt lat="41.78581" lon="0.7932821">
        <time>2022-07-07T12:06:58Z</time>
      </trkpt>
      <trkpt lat="41.785828" lon="0.79335976">
        <time>2022-07-07T12:07:00Z</time>
      </trkpt>
      <trkpt lat="41.785847" lon="0.7934417">
        <time>2022-07-07T12:07:02Z</time>
      </trkpt>
      <trkpt lat="41.78587" lon="0.7935294">
        <time>2022-07-07T12:07:04Z</time>
      </trkpt>
      <trkpt lat="41.785885" lon="0.7936197">
        <time>2022-07-07T12:07:06Z</time>
      </trkpt>
      <trkpt lat="41.785892" lon="0.79371536">
        <time>2022-07-07T12:07:08Z</time>
      </trkpt>
      <trkpt lat="41.785896" lon="0.7938164">
        <time>2022-07-07T12:07:10Z</time>
      </trkpt>
      <trkpt lat="41.785908" lon="0.7939204">
        <time>2022-07-07T12:07:12Z</time>
      </trkpt>
      <trkpt lat="41.785934" lon="0.7940154">
        <time>2022-07-07T12:07:14Z</time>
      </trkpt>
      <trkpt lat="41.78596" lon="0.7941127">
        <time>2022-07-07T12:07:16Z</time>
      </trkpt>
      <trkpt lat="41.785984" lon="0.7942164">
        <time>2022-07-07T12:07:18Z</time>
      </trkpt>
      <trkpt lat="41.78601" lon="0.7943197">
        <time>2022-07-07T12:07:20Z</time>
      </trkpt>
      <trkpt lat="41.786045" lon="0.79442036">
        <time>2022-07-07T12:07:22Z</time>
      </trkpt>
      <trkpt lat="41.78607" lon="0.7945227">
        <time>2022-07-07T12:07:24Z</time>
      </trkpt>
      <trkpt lat="41.7861" lon="0.79462904">
        <time>2022-07-07T12:07:26Z</time>
      </trkpt>
      <trkpt lat="41.78612" lon="0.79473937">
        <time>2022-07-07T12:07:28Z</time>
      </trkpt>
      <trkpt lat="41.786148" lon="0.79485565">
        <time>2022-07-07T12:07:30Z</time>
      </trkpt>
      <trkpt lat="41.78618" lon="0.7949757">
        <time>2022-07-07T12:07:32Z</time>
      </trkpt>
      <trkpt lat="41.78621" lon="0.79510236">
        <time>2022-07-07T12:07:34Z</time>
      </trkpt>
      <trkpt lat="41.786224" lon="0.7951677">
        <time>2022-07-07T12:07:35Z</time>
      </trkpt>
      <trkpt lat="41.78624" lon="0.7952347">
        <time>2022-07-07T12:07:36Z</time>
      </trkpt>
      <trkpt lat="41.786255" lon="0.79530364">
        <time>2022-07-07T12:07:37Z</time>
      </trkpt>
      <trkpt lat="41.786274" lon="0.795374">
        <time>2022-07-07T12:07:38Z</time>
      </trkpt>
      <trkpt lat="41.786293" lon="0.7954457">
        <time>2022-07-07T12:07:39Z</time>
      </trkpt>
      <trkpt lat="41.786312" lon="0.7955177">
        <time>2022-07-07T12:07:40Z</time>
      </trkpt>
      <trkpt lat="41.78633" lon="0.79558897">
        <time>2022-07-07T12:07:41Z</time>
      </trkpt>
      <trkpt lat="41.786346" lon="0.7956566">
        <time>2022-07-07T12:07:42Z</time>
      </trkpt>
      <trkpt lat="41.78636" lon="0.7957193">
        <time>2022-07-07T12:07:43Z</time>
      </trkpt>
      <trkpt lat="41.786377" lon="0.7958273">
        <time>2022-07-07T12:07:45Z</time>
      </trkpt>
      <trkpt lat="41.786358" lon="0.7959383">
        <time>2022-07-07T12:07:48Z</time>
      </trkpt>
      <trkpt lat="41.786316" lon="0.7959843">
        <time>2022-07-07T12:07:51Z</time>
      </trkpt>
      <trkpt lat="41.786263" lon="0.7960003">
        <time>2022-07-07T12:07:54Z</time>
      </trkpt>
      <trkpt lat="41.78622" lon="0.79604596">
        <time>2022-07-07T12:07:57Z</time>
      </trkpt>
      <trkpt lat="41.786175" lon="0.79608697">
        <time>2022-07-07T12:08:01Z</time>
      </trkpt>
      <trkpt lat="41.786133" lon="0.79612094">
        <time>2022-07-07T12:08:06Z</time>
      </trkpt>
      <trkpt lat="41.786133" lon="0.7961803">
        <time>2022-07-07T12:08:12Z</time>
      </trkpt>
      <trkpt lat="41.786186" lon="0.79615366">
        <time>2022-07-07T12:08:17Z</time>
      </trkpt>
      <trkpt lat="41.786236" lon="0.7961073">
        <time>2022-07-07T12:08:20Z</time>
      </trkpt>
      <trkpt lat="41.78629" lon="0.7960553">
        <time>2022-07-07T12:08:23Z</time>
      </trkpt>
      <trkpt lat="41.786346" lon="0.7960133">
        <time>2022-07-07T12:08:26Z</time>
      </trkpt>
      <trkpt lat="41.786407" lon="0.7960233">
        <time>2022-07-07T12:08:29Z</time>
      </trkpt>
      <trkpt lat="41.786446" lon="0.7960693">
        <time>2022-07-07T12:08:31Z</time>
      </trkpt>
      <trkpt lat="41.786472" lon="0.7961383">
        <time>2022-07-07T12:08:33Z</time>
      </trkpt>
      <trkpt lat="41.786495" lon="0.79622364">
        <time>2022-07-07T12:08:35Z</time>
      </trkpt>
      <trkpt lat="41.78652" lon="0.7963163">
        <time>2022-07-07T12:08:37Z</time>
      </trkpt>
      <trkpt lat="41.786545" lon="0.7964183">
        <time>2022-07-07T12:08:39Z</time>
      </trkpt>
      <trkpt lat="41.786568" lon="0.79652965">
        <time>2022-07-07T12:08:41Z</time>
      </trkpt>
      <trkpt lat="41.786594" lon="0.7966463">
        <time>2022-07-07T12:08:43Z</time>
      </trkpt>
      <trkpt lat="41.786606" lon="0.7967066">
        <time>2022-07-07T12:08:44Z</time>
      </trkpt>
      <trkpt lat="41.78663" lon="0.79683393">
        <time>2022-07-07T12:08:46Z</time>
      </trkpt>
      <trkpt lat="41.786636" lon="0.7969003">
        <time>2022-07-07T12:08:47Z</time>
      </trkpt>
      <trkpt lat="41.786655" lon="0.79703295">
        <time>2022-07-07T12:08:49Z</time>
      </trkpt>
      <trkpt lat="41.786686" lon="0.79715925">
        <time>2022-07-07T12:08:51Z</time>
      </trkpt>
      <trkpt lat="41.78671" lon="0.7972196">
        <time>2022-07-07T12:08:52Z</time>
      </trkpt>
      <trkpt lat="41.786755" lon="0.79733825">
        <time>2022-07-07T12:08:54Z</time>
      </trkpt>
      <trkpt lat="41.786797" lon="0.7974619">
        <time>2022-07-07T12:08:56Z</time>
      </trkpt>
      <trkpt lat="41.78685" lon="0.7976543">
        <time>2022-07-07T12:08:59Z</time>
      </trkpt>
      <trkpt lat="41.786865" lon="0.7977186">
        <time>2022-07-07T12:09:00Z</time>
      </trkpt>
      <trkpt lat="41.786896" lon="0.7978506">
        <time>2022-07-07T12:09:02Z</time>
      </trkpt>
      <trkpt lat="41.78691" lon="0.7979176">
        <time>2022-07-07T12:09:03Z</time>
      </trkpt>
      <trkpt lat="41.786945" lon="0.79805493">
        <time>2022-07-07T12:09:05Z</time>
      </trkpt>
      <trkpt lat="41.78696" lon="0.7981199">
        <time>2022-07-07T12:09:06Z</time>
      </trkpt>
      <trkpt lat="41.786976" lon="0.7981856">
        <time>2022-07-07T12:09:07Z</time>
      </trkpt>
      <trkpt lat="41.786995" lon="0.7982499">
        <time>2022-07-07T12:09:08Z</time>
      </trkpt>
      <trkpt lat="41.78701" lon="0.79831225">
        <time>2022-07-07T12:09:09Z</time>
      </trkpt>
      <trkpt lat="41.787045" lon="0.79842824">
        <time>2022-07-07T12:09:11Z</time>
      </trkpt>
      <trkpt lat="41.787067" lon="0.7985269">
        <time>2022-07-07T12:09:13Z</time>
      </trkpt>
      <trkpt lat="41.787086" lon="0.79860187">
        <time>2022-07-07T12:09:15Z</time>
      </trkpt>
      <trkpt lat="41.7871" lon="0.7986679">
        <time>2022-07-07T12:09:18Z</time>
      </trkpt>
      <trkpt lat="41.787247" lon="0.7987359">
        <time>2022-07-07T12:13:35Z</time>
      </trkpt>
      <trkpt lat="41.78728" lon="0.79881424">
        <time>2022-07-07T12:13:37Z</time>
      </trkpt>
      <trkpt lat="41.787315" lon="0.7989116">
        <time>2022-07-07T12:13:39Z</time>
      </trkpt>
      <trkpt lat="41.78735" lon="0.7990119">
        <time>2022-07-07T12:13:41Z</time>
      </trkpt>
      <trkpt lat="41.787384" lon="0.79910886">
        <time>2022-07-07T12:13:43Z</time>
      </trkpt>
      <trkpt lat="41.787422" lon="0.79920685">
        <time>2022-07-07T12:13:45Z</time>
      </trkpt>
      <trkpt lat="41.78746" lon="0.7993062">
        <time>2022-07-07T12:13:47Z</time>
      </trkpt>
      <trkpt lat="41.787502" lon="0.7994192">
        <time>2022-07-07T12:13:49Z</time>
      </trkpt>
      <trkpt lat="41.78752" lon="0.79947186">
        <time>2022-07-07T12:13:50Z</time>
      </trkpt>
      <trkpt lat="41.787567" lon="0.7995895">
        <time>2022-07-07T12:13:52Z</time>
      </trkpt>
      <trkpt lat="41.78759" lon="0.7996522">
        <time>2022-07-07T12:13:53Z</time>
      </trkpt>
      <trkpt lat="41.787632" lon="0.7997739">
        <time>2022-07-07T12:13:55Z</time>
      </trkpt>
      <trkpt lat="41.78766" lon="0.79983884">
        <time>2022-07-07T12:13:56Z</time>
      </trkpt>
      <trkpt lat="41.78768" lon="0.7999025">
        <time>2022-07-07T12:13:57Z</time>
      </trkpt>
      <trkpt lat="41.787727" lon="0.8000315">
        <time>2022-07-07T12:13:59Z</time>
      </trkpt>
      <trkpt lat="41.787754" lon="0.8000982">
        <time>2022-07-07T12:14:00Z</time>
      </trkpt>
      <trkpt lat="41.787777" lon="0.8001645">
        <time>2022-07-07T12:14:01Z</time>
      </trkpt>
      <trkpt lat="41.7878" lon="0.80023885">
        <time>2022-07-07T12:14:02Z</time>
      </trkpt>
      <trkpt lat="41.787815" lon="0.8003118">
        <time>2022-07-07T12:14:03Z</time>
      </trkpt>
      <trkpt lat="41.787823" lon="0.80038184">
        <time>2022-07-07T12:14:04Z</time>
      </trkpt>
      <trkpt lat="41.78783" lon="0.8004442">
        <time>2022-07-07T12:14:05Z</time>
      </trkpt>
      <trkpt lat="41.787834" lon="0.80053246">
        <time>2022-07-07T12:14:07Z</time>
      </trkpt>
      <trkpt lat="41.78783" lon="0.80059284">
        <time>2022-07-07T12:14:13Z</time>
      </trkpt>
      <trkpt lat="41.787777" lon="0.80073416">
        <time>2022-07-07T12:14:46Z</time>
      </trkpt>
      <trkpt lat="41.787704" lon="0.8008211">
        <time>2022-07-07T12:14:49Z</time>
      </trkpt>
      <trkpt lat="41.787643" lon="0.8008922">
        <time>2022-07-07T12:14:51Z</time>
      </trkpt>
      <trkpt lat="41.78756" lon="0.80096346">
        <time>2022-07-07T12:14:53Z</time>
      </trkpt>
      <trkpt lat="41.787518" lon="0.80099416">
        <time>2022-07-07T12:14:54Z</time>
      </trkpt>
      <trkpt lat="41.787468" lon="0.80102015">
        <time>2022-07-07T12:14:55Z</time>
      </trkpt>
      <trkpt lat="41.787354" lon="0.8010455">
        <time>2022-07-07T12:14:57Z</time>
      </trkpt>
      <trkpt lat="41.787292" lon="0.8010498">
        <time>2022-07-07T12:14:58Z</time>
      </trkpt>
      <trkpt lat="41.78723" lon="0.8010508">
        <time>2022-07-07T12:14:59Z</time>
      </trkpt>
      <trkpt lat="41.787167" lon="0.80105346">
        <time>2022-07-07T12:15:00Z</time>
      </trkpt>
      <trkpt lat="41.787098" lon="0.80106413">
        <time>2022-07-07T12:15:01Z</time>
      </trkpt>
      <trkpt lat="41.787037" lon="0.80108577">
        <time>2022-07-07T12:15:02Z</time>
      </trkpt>
      <trkpt lat="41.78698" lon="0.8011214">
        <time>2022-07-07T12:15:03Z</time>
      </trkpt>
      <trkpt lat="41.78694" lon="0.8011731">
        <time>2022-07-07T12:15:04Z</time>
      </trkpt>
      <trkpt lat="41.78691" lon="0.8012381">
        <time>2022-07-07T12:15:05Z</time>
      </trkpt>
      <trkpt lat="41.786892" lon="0.80131644">
        <time>2022-07-07T12:15:06Z</time>
      </trkpt>
      <trkpt lat="41.786865" lon="0.8014944">
        <time>2022-07-07T12:15:08Z</time>
      </trkpt>
      <trkpt lat="41.78685" lon="0.80158573">
        <time>2022-07-07T12:15:09Z</time>
      </trkpt>
      <trkpt lat="41.786835" lon="0.8016774">
        <time>2022-07-07T12:15:10Z</time>
      </trkpt>
      <trkpt lat="41.786816" lon="0.80176777">
        <time>2022-07-07T12:15:11Z</time>
      </trkpt>
      <trkpt lat="41.786797" lon="0.8018564">
        <time>2022-07-07T12:15:12Z</time>
      </trkpt>
      <trkpt lat="41.78677" lon="0.8019474">
        <time>2022-07-07T12:15:13Z</time>
      </trkpt>
      <trkpt lat="41.786743" lon="0.8020354">
        <time>2022-07-07T12:15:14Z</time>
      </trkpt>
      <trkpt lat="41.786716" lon="0.8021237">
        <time>2022-07-07T12:15:15Z</time>
      </trkpt>
      <trkpt lat="41.786694" lon="0.8022051">
        <time>2022-07-07T12:15:16Z</time>
      </trkpt>
      <trkpt lat="41.786674" lon="0.8022854">
        <time>2022-07-07T12:15:17Z</time>
      </trkpt>
      <trkpt lat="41.78666" lon="0.80236405">
        <time>2022-07-07T12:15:18Z</time>
      </trkpt>
      <trkpt lat="41.786655" lon="0.8024417">
        <time>2022-07-07T12:15:19Z</time>
      </trkpt>
      <trkpt lat="41.786667" lon="0.80251604">
        <time>2022-07-07T12:15:20Z</time>
      </trkpt>
      <trkpt lat="41.786686" lon="0.8025857">
        <time>2022-07-07T12:15:21Z</time>
      </trkpt>
      <trkpt lat="41.786713" lon="0.8026477">
        <time>2022-07-07T12:15:22Z</time>
      </trkpt>
      <trkpt lat="41.786755" lon="0.80270535">
        <time>2022-07-07T12:15:23Z</time>
      </trkpt>
      <trkpt lat="41.786804" lon="0.8027517">
        <time>2022-07-07T12:15:24Z</time>
      </trkpt>
      <trkpt lat="41.786854" lon="0.8027867">
        <time>2022-07-07T12:15:25Z</time>
      </trkpt>
      <trkpt lat="41.78691" lon="0.80280936">
        <time>2022-07-07T12:15:26Z</time>
      </trkpt>
      <trkpt lat="41.786964" lon="0.802822">
        <time>2022-07-07T12:15:27Z</time>
      </trkpt>
      <trkpt lat="41.78702" lon="0.80283004">
        <time>2022-07-07T12:15:28Z</time>
      </trkpt>
      <trkpt lat="41.78707" lon="0.80283505">
        <time>2022-07-07T12:15:29Z</time>
      </trkpt>
      <trkpt lat="41.787163" lon="0.802855">
        <time>2022-07-07T12:15:31Z</time>
      </trkpt>
      <trkpt lat="41.78722" lon="0.802914">
        <time>2022-07-07T12:15:33Z</time>
      </trkpt>
      <trkpt lat="41.78722" lon="0.80301034">
        <time>2022-07-07T12:15:35Z</time>
      </trkpt>
      <trkpt lat="41.787163" lon="0.8031227">
        <time>2022-07-07T12:15:37Z</time>
      </trkpt>
      <trkpt lat="41.78713" lon="0.80318636">
        <time>2022-07-07T12:15:38Z</time>
      </trkpt>
      <trkpt lat="41.787094" lon="0.803253">
        <time>2022-07-07T12:15:39Z</time>
      </trkpt>
      <trkpt lat="41.787056" lon="0.803323">
        <time>2022-07-07T12:15:40Z</time>
      </trkpt>
      <trkpt lat="41.78703" lon="0.80339533">
        <time>2022-07-07T12:15:41Z</time>
      </trkpt>
      <trkpt lat="41.787014" lon="0.8034703">
        <time>2022-07-07T12:15:42Z</time>
      </trkpt>
      <trkpt lat="41.787014" lon="0.80354035">
        <time>2022-07-07T12:15:43Z</time>
      </trkpt>
      <trkpt lat="41.78703" lon="0.80361235">
        <time>2022-07-07T12:15:44Z</time>
      </trkpt>
      <trkpt lat="41.78706" lon="0.80367166">
        <time>2022-07-07T12:15:45Z</time>
      </trkpt>
      <trkpt lat="41.7871" lon="0.8037273">
        <time>2022-07-07T12:15:46Z</time>
      </trkpt>
      <trkpt lat="41.78716" lon="0.80377734">
        <time>2022-07-07T12:15:47Z</time>
      </trkpt>
      <trkpt lat="41.78722" lon="0.8038203">
        <time>2022-07-07T12:15:48Z</time>
      </trkpt>
      <trkpt lat="41.787292" lon="0.803859">
        <time>2022-07-07T12:15:49Z</time>
      </trkpt>
      <trkpt lat="41.78737" lon="0.8038953">
        <time>2022-07-07T12:15:50Z</time>
      </trkpt>
      <trkpt lat="41.78745" lon="0.80392796">
        <time>2022-07-07T12:15:51Z</time>
      </trkpt>
      <trkpt lat="41.787525" lon="0.803953">
        <time>2022-07-07T12:15:52Z</time>
      </trkpt>
      <trkpt lat="41.787594" lon="0.803979">
        <time>2022-07-07T12:15:53Z</time>
      </trkpt>
      <trkpt lat="41.78766" lon="0.8040016">
        <time>2022-07-07T12:15:54Z</time>
      </trkpt>
      <trkpt lat="41.787727" lon="0.8040266">
        <time>2022-07-07T12:15:55Z</time>
      </trkpt>
      <trkpt lat="41.787796" lon="0.8040533">
        <time>2022-07-07T12:15:56Z</time>
      </trkpt>
      <trkpt lat="41.78786" lon="0.8040806">
        <time>2022-07-07T12:15:57Z</time>
      </trkpt>
      <trkpt lat="41.787926" lon="0.8041086">
        <time>2022-07-07T12:15:58Z</time>
      </trkpt>
      <trkpt lat="41.787987" lon="0.80413765">
        <time>2022-07-07T12:15:59Z</time>
      </trkpt>
      <trkpt lat="41.78804" lon="0.8041503">
        <time>2022-07-07T12:16:00Z</time>
      </trkpt>
      <trkpt lat="41.78809" lon="0.8041606">
        <time>2022-07-07T12:16:01Z</time>
      </trkpt>
      <trkpt lat="41.78814" lon="0.80416995">
        <time>2022-07-07T12:16:02Z</time>
      </trkpt>
      <trkpt lat="41.788246" lon="0.8041996">
        <time>2022-07-07T12:16:04Z</time>
      </trkpt>
      <trkpt lat="41.788296" lon="0.80421823">
        <time>2022-07-07T12:16:05Z</time>
      </trkpt>
      <trkpt lat="41.78835" lon="0.8042396">
        <time>2022-07-07T12:16:06Z</time>
      </trkpt>
      <trkpt lat="41.7884" lon="0.8042619">
        <time>2022-07-07T12:16:07Z</time>
      </trkpt>
      <trkpt lat="41.78845" lon="0.80428624">
        <time>2022-07-07T12:16:08Z</time>
      </trkpt>
      <trkpt lat="41.788494" lon="0.8043072">
        <time>2022-07-07T12:16:09Z</time>
      </trkpt>
      <trkpt lat="41.788593" lon="0.80434793">
        <time>2022-07-07T12:16:11Z</time>
      </trkpt>
      <trkpt lat="41.788643" lon="0.80436856">
        <time>2022-07-07T12:16:12Z</time>
      </trkpt>
      <trkpt lat="41.788754" lon="0.8043962">
        <time>2022-07-07T12:16:14Z</time>
      </trkpt>
      <trkpt lat="41.788807" lon="0.80441225">
        <time>2022-07-07T12:16:15Z</time>
      </trkpt>
      <trkpt lat="41.78886" lon="0.80443424">
        <time>2022-07-07T12:16:16Z</time>
      </trkpt>
      <trkpt lat="41.788918" lon="0.8044619">
        <time>2022-07-07T12:16:17Z</time>
      </trkpt>
      <trkpt lat="41.788975" lon="0.80449057">
        <time>2022-07-07T12:16:18Z</time>
      </trkpt>
      <trkpt lat="41.789032" lon="0.8045202">
        <time>2022-07-07T12:16:19Z</time>
      </trkpt>
      <trkpt lat="41.789085" lon="0.80454755">
        <time>2022-07-07T12:16:20Z</time>
      </trkpt>
      <trkpt lat="41.789143" lon="0.8045712">
        <time>2022-07-07T12:16:21Z</time>
      </trkpt>
      <trkpt lat="41.789196" lon="0.80458987">
        <time>2022-07-07T12:16:22Z</time>
      </trkpt>
      <trkpt lat="41.789253" lon="0.80460685">
        <time>2022-07-07T12:16:23Z</time>
      </trkpt>
      <trkpt lat="41.78931" lon="0.8046269">
        <time>2022-07-07T12:16:24Z</time>
      </trkpt>
      <trkpt lat="41.789364" lon="0.8046512">
        <time>2022-07-07T12:16:25Z</time>
      </trkpt>
      <trkpt lat="41.789406" lon="0.8046785">
        <time>2022-07-07T12:16:26Z</time>
      </trkpt>
      <trkpt lat="41.789448" lon="0.8047025">
        <time>2022-07-07T12:16:27Z</time>
      </trkpt>
      <trkpt lat="41.789497" lon="0.8047622">
        <time>2022-07-07T12:16:29Z</time>
      </trkpt>
      <trkpt lat="41.78954" lon="0.80483717">
        <time>2022-07-07T12:16:31Z</time>
      </trkpt>
      <trkpt lat="41.78957" lon="0.8049165">
        <time>2022-07-07T12:16:33Z</time>
      </trkpt>
      <trkpt lat="41.789593" lon="0.8049962">
        <time>2022-07-07T12:16:35Z</time>
      </trkpt>
      <trkpt lat="41.78962" lon="0.80506414">
        <time>2022-07-07T12:16:37Z</time>
      </trkpt>
      <trkpt lat="41.789646" lon="0.80511916">
        <time>2022-07-07T12:16:40Z</time>
      </trkpt>
      <trkpt lat="41.78967" lon="0.80513585">
        <time>2022-07-07T12:20:19Z</time>
      </trkpt>
      <trkpt lat="41.78968" lon="0.8052198">
        <time>2022-07-07T12:20:22Z</time>
      </trkpt>
      <trkpt lat="41.789696" lon="0.80528486">
        <time>2022-07-07T12:20:24Z</time>
      </trkpt>
      <trkpt lat="41.78972" lon="0.8053865">
        <time>2022-07-07T12:20:27Z</time>
      </trkpt>
      <trkpt lat="41.78973" lon="0.80545384">
        <time>2022-07-07T12:20:29Z</time>
      </trkpt>
      <trkpt lat="41.78973" lon="0.8055112">
        <time>2022-07-07T12:20:31Z</time>
      </trkpt>
      <trkpt lat="41.789726" lon="0.8055925">
        <time>2022-07-07T12:20:35Z</time>
      </trkpt>
      <trkpt lat="41.789745" lon="0.80566883">
        <time>2022-07-07T12:20:39Z</time>
      </trkpt>
      <trkpt lat="41.78976" lon="0.80576044">
        <time>2022-07-07T12:20:43Z</time>
      </trkpt>
      <trkpt lat="41.789753" lon="0.8058298">
        <time>2022-07-07T12:20:46Z</time>
      </trkpt>
      <trkpt lat="41.789745" lon="0.8059111">
        <time>2022-07-07T12:20:49Z</time>
      </trkpt>
      <trkpt lat="41.789726" lon="0.8060221">
        <time>2022-07-07T12:20:52Z</time>
      </trkpt>
      <trkpt lat="41.789715" lon="0.80610347">
        <time>2022-07-07T12:20:54Z</time>
      </trkpt>
      <trkpt lat="41.7897" lon="0.8061741">
        <time>2022-07-07T12:20:56Z</time>
      </trkpt>
      <trkpt lat="41.789673" lon="0.80625075">
        <time>2022-07-07T12:20:59Z</time>
      </trkpt>
      <trkpt lat="41.78966" lon="0.80629945">
        <time>2022-07-07T12:21:04Z</time>
      </trkpt>
      <trkpt lat="41.78963" lon="0.8064081">
        <time>2022-07-07T12:21:10Z</time>
      </trkpt>
      <trkpt lat="41.789642" lon="0.80648476">
        <time>2022-07-07T12:21:13Z</time>
      </trkpt>
      <trkpt lat="41.789642" lon="0.8065434">
        <time>2022-07-07T12:21:17Z</time>
      </trkpt>
      <trkpt lat="41.789635" lon="0.80662477">
        <time>2022-07-07T12:21:21Z</time>
      </trkpt>
      <trkpt lat="41.789623" lon="0.8066878">
        <time>2022-07-07T12:21:28Z</time>
      </trkpt>
      <trkpt lat="41.789608" lon="0.80678576">
        <time>2022-07-07T12:22:04Z</time>
      </trkpt>
      <trkpt lat="41.789593" lon="0.8069011">
        <time>2022-07-07T12:22:07Z</time>
      </trkpt>
      <trkpt lat="41.78959" lon="0.8069914">
        <time>2022-07-07T12:22:09Z</time>
      </trkpt>
      <trkpt lat="41.78958" lon="0.80706143">
        <time>2022-07-07T12:22:11Z</time>
      </trkpt>
      <trkpt lat="41.78961" lon="0.8071021">
        <time>2022-07-07T12:22:27Z</time>
      </trkpt>
      <trkpt lat="41.789597" lon="0.80711305">
        <time>2022-07-07T12:22:43Z</time>
      </trkpt>
      <trkpt lat="41.78956" lon="0.8072344">
        <time>2022-07-07T12:22:56Z</time>
      </trkpt>
      <trkpt lat="41.78955" lon="0.8073337">
        <time>2022-07-07T12:22:59Z</time>
      </trkpt>
      <trkpt lat="41.789547" lon="0.8074134">
        <time>2022-07-07T12:23:01Z</time>
      </trkpt>
      <trkpt lat="41.78954" lon="0.8074934">
        <time>2022-07-07T12:23:03Z</time>
      </trkpt>
      <trkpt lat="41.789536" lon="0.80757004">
        <time>2022-07-07T12:23:05Z</time>
      </trkpt>
      <trkpt lat="41.789528" lon="0.8076427">
        <time>2022-07-07T12:23:07Z</time>
      </trkpt>
      <trkpt lat="41.789516" lon="0.80771035">
        <time>2022-07-07T12:23:09Z</time>
      </trkpt>
      <trkpt lat="41.7895" lon="0.8077837">
        <time>2022-07-07T12:23:12Z</time>
      </trkpt>
      <trkpt lat="41.789463" lon="0.80782104">
        <time>2022-07-07T12:23:17Z</time>
      </trkpt>
      <trkpt lat="41.789417" lon="0.80786306">
        <time>2022-07-07T12:23:23Z</time>
      </trkpt>
      <trkpt lat="41.7894" lon="0.80794567">
        <time>2022-07-07T12:23:28Z</time>
      </trkpt>
      <trkpt lat="41.78937" lon="0.80803066">
        <time>2022-07-07T12:23:32Z</time>
      </trkpt>
      <trkpt lat="41.789337" lon="0.8080777">
        <time>2022-07-07T12:23:42Z</time>
      </trkpt>
      <trkpt lat="41.78927" lon="0.80801266">
        <time>2022-07-07T12:26:54Z</time>
      </trkpt>
      <trkpt lat="41.78931" lon="0.80811304">
        <time>2022-07-07T12:26:58Z</time>
      </trkpt>
      <trkpt lat="41.789333" lon="0.8081817">
        <time>2022-07-07T12:27:00Z</time>
      </trkpt>
      <trkpt lat="41.789352" lon="0.80826104">
        <time>2022-07-07T12:27:02Z</time>
      </trkpt>
      <trkpt lat="41.789364" lon="0.80834633">
        <time>2022-07-07T12:27:04Z</time>
      </trkpt>
      <trkpt lat="41.789364" lon="0.80843765">
        <time>2022-07-07T12:27:06Z</time>
      </trkpt>
      <trkpt lat="41.78936" lon="0.8085333">
        <time>2022-07-07T12:27:08Z</time>
      </trkpt>
      <trkpt lat="41.789356" lon="0.808629">
        <time>2022-07-07T12:27:10Z</time>
      </trkpt>
      <trkpt lat="41.789356" lon="0.80872566">
        <time>2022-07-07T12:27:12Z</time>
      </trkpt>
      <trkpt lat="41.789356" lon="0.80882496">
        <time>2022-07-07T12:27:14Z</time>
      </trkpt>
      <trkpt lat="41.789352" lon="0.8089246">
        <time>2022-07-07T12:27:16Z</time>
      </trkpt>
      <trkpt lat="41.78934" lon="0.8090203">
        <time>2022-07-07T12:27:18Z</time>
      </trkpt>
      <trkpt lat="41.789333" lon="0.80911463">
        <time>2022-07-07T12:27:20Z</time>
      </trkpt>
      <trkpt lat="41.789333" lon="0.8092053">
        <time>2022-07-07T12:27:22Z</time>
      </trkpt>
      <trkpt lat="41.78933" lon="0.8092956">
        <time>2022-07-07T12:27:24Z</time>
      </trkpt>
      <trkpt lat="41.789326" lon="0.8093856">
        <time>2022-07-07T12:27:26Z</time>
      </trkpt>
      <trkpt lat="41.789314" lon="0.80947196">
        <time>2022-07-07T12:27:28Z</time>
      </trkpt>
      <trkpt lat="41.789303" lon="0.8095553">
        <time>2022-07-07T12:27:30Z</time>
      </trkpt>
      <trkpt lat="41.789288" lon="0.8096346">
        <time>2022-07-07T12:27:32Z</time>
      </trkpt>
      <trkpt lat="41.78928" lon="0.80971193">
        <time>2022-07-07T12:27:34Z</time>
      </trkpt>
      <trkpt lat="41.789272" lon="0.8098346">
        <time>2022-07-07T12:27:37Z</time>
      </trkpt>
      <trkpt lat="41.78927" lon="0.8099093">
        <time>2022-07-07T12:27:39Z</time>
      </trkpt>
      <trkpt lat="41.789265" lon="0.80998224">
        <time>2022-07-07T12:27:41Z</time>
      </trkpt>
      <trkpt lat="41.789257" lon="0.8100573">
        <time>2022-07-07T12:27:43Z</time>
      </trkpt>
      <trkpt lat="41.78925" lon="0.8101296">
        <time>2022-07-07T12:27:45Z</time>
      </trkpt>
      <trkpt lat="41.789238" lon="0.8102009">
        <time>2022-07-07T12:27:47Z</time>
      </trkpt>
      <trkpt lat="41.789234" lon="0.81027657">
        <time>2022-07-07T12:27:49Z</time>
      </trkpt>
      <trkpt lat="41.789234" lon="0.81035525">
        <time>2022-07-07T12:27:51Z</time>
      </trkpt>
      <trkpt lat="41.789238" lon="0.81043756">
        <time>2022-07-07T12:27:53Z</time>
      </trkpt>
      <trkpt lat="41.789238" lon="0.8105196">
        <time>2022-07-07T12:27:55Z</time>
      </trkpt>
      <trkpt lat="41.789227" lon="0.8105962">
        <time>2022-07-07T12:27:57Z</time>
      </trkpt>
      <trkpt lat="41.78922" lon="0.8106729">
        <time>2022-07-07T12:27:59Z</time>
      </trkpt>
      <trkpt lat="41.789207" lon="0.8107509">
        <time>2022-07-07T12:28:01Z</time>
      </trkpt>
      <trkpt lat="41.789192" lon="0.8108295">
        <time>2022-07-07T12:28:03Z</time>
      </trkpt>
      <trkpt lat="41.789173" lon="0.8109069">
        <time>2022-07-07T12:28:05Z</time>
      </trkpt>
      <trkpt lat="41.789165" lon="0.8109699">
        <time>2022-07-07T12:28:07Z</time>
      </trkpt>
      <trkpt lat="41.789177" lon="0.8110429">
        <time>2022-07-07T12:28:10Z</time>
      </trkpt>
      <trkpt lat="41.78918" lon="0.8111332">
        <time>2022-07-07T12:28:13Z</time>
      </trkpt>
      <trkpt lat="41.789165" lon="0.81119657">
        <time>2022-07-07T12:28:15Z</time>
      </trkpt>
      <trkpt lat="41.789143" lon="0.81128055">
        <time>2022-07-07T12:28:18Z</time>
      </trkpt>
      <trkpt lat="41.78914" lon="0.8113635">
        <time>2022-07-07T12:28:21Z</time>
      </trkpt>
      <trkpt lat="41.78915" lon="0.81143886">
        <time>2022-07-07T12:28:24Z</time>
      </trkpt>
      <trkpt lat="41.789192" lon="0.8114712">
        <time>2022-07-07T12:28:27Z</time>
      </trkpt>
      <trkpt lat="41.78924" lon="0.8114532">
        <time>2022-07-07T12:28:30Z</time>
      </trkpt>
      <trkpt lat="41.789307" lon="0.8114072">
        <time>2022-07-07T12:28:33Z</time>
      </trkpt>
      <trkpt lat="41.78935" lon="0.8113852">
        <time>2022-07-07T12:28:35Z</time>
      </trkpt>
      <trkpt lat="41.789406" lon="0.8113815">
        <time>2022-07-07T12:28:38Z</time>
      </trkpt>
      <trkpt lat="41.7895" lon="0.81139386">
        <time>2022-07-07T12:28:42Z</time>
      </trkpt>
      <trkpt lat="41.789555" lon="0.8114125">
        <time>2022-07-07T12:28:44Z</time>
      </trkpt>
      <trkpt lat="41.78961" lon="0.81143516">
        <time>2022-07-07T12:28:46Z</time>
      </trkpt>
      <trkpt lat="41.789677" lon="0.8114592">
        <time>2022-07-07T12:28:48Z</time>
      </trkpt>
      <trkpt lat="41.78974" lon="0.8114902">
        <time>2022-07-07T12:28:50Z</time>
      </trkpt>
      <trkpt lat="41.789795" lon="0.81150854">
        <time>2022-07-07T12:28:52Z</time>
      </trkpt>
      <trkpt lat="41.789845" lon="0.81152016">
        <time>2022-07-07T12:28:54Z</time>
      </trkpt>
      <trkpt lat="41.7899" lon="0.8115262">
        <time>2022-07-07T12:28:56Z</time>
      </trkpt>
      <trkpt lat="41.78996" lon="0.8115308">
        <time>2022-07-07T12:28:58Z</time>
      </trkpt>
      <trkpt lat="41.790012" lon="0.81152487">
        <time>2022-07-07T12:29:00Z</time>
      </trkpt>
      <trkpt lat="41.790073" lon="0.81151116">
        <time>2022-07-07T12:29:03Z</time>
      </trkpt>
      <trkpt lat="41.790123" lon="0.81151116">
        <time>2022-07-07T12:29:08Z</time>
      </trkpt>
      <trkpt lat="41.790215" lon="0.8115435">
        <time>2022-07-07T12:29:52Z</time>
      </trkpt>
      <trkpt lat="41.79027" lon="0.8115595">
        <time>2022-07-07T12:29:54Z</time>
      </trkpt>
      <trkpt lat="41.79033" lon="0.81157154">
        <time>2022-07-07T12:29:56Z</time>
      </trkpt>
      <trkpt lat="41.790386" lon="0.8115775">
        <time>2022-07-07T12:29:58Z</time>
      </trkpt>
      <trkpt lat="41.790455" lon="0.8115815">
        <time>2022-07-07T12:30:00Z</time>
      </trkpt>
      <trkpt lat="41.790527" lon="0.8115955">
        <time>2022-07-07T12:30:02Z</time>
      </trkpt>
      <trkpt lat="41.790596" lon="0.8116162">
        <time>2022-07-07T12:30:04Z</time>
      </trkpt>
      <trkpt lat="41.790665" lon="0.8116392">
        <time>2022-07-07T12:30:06Z</time>
      </trkpt>
      <trkpt lat="41.790737" lon="0.8116602">
        <time>2022-07-07T12:30:08Z</time>
      </trkpt>
      <trkpt lat="41.790806" lon="0.8116782">
        <time>2022-07-07T12:30:10Z</time>
      </trkpt>
      <trkpt lat="41.790874" lon="0.8116998">
        <time>2022-07-07T12:30:12Z</time>
      </trkpt>
      <trkpt lat="41.79094" lon="0.81171215">
        <time>2022-07-07T12:30:14Z</time>
      </trkpt>
      <trkpt lat="41.791004" lon="0.81171817">
        <time>2022-07-07T12:30:16Z</time>
      </trkpt>
      <trkpt lat="41.791073" lon="0.8117245">
        <time>2022-07-07T12:30:18Z</time>
      </trkpt>
      <trkpt lat="41.791134" lon="0.81171584">
        <time>2022-07-07T12:30:20Z</time>
      </trkpt>
      <trkpt lat="41.79119" lon="0.81170785">
        <time>2022-07-07T12:30:22Z</time>
      </trkpt>
      <trkpt lat="41.791245" lon="0.8117175">
        <time>2022-07-07T12:30:24Z</time>
      </trkpt>
      <trkpt lat="41.791298" lon="0.8117358">
        <time>2022-07-07T12:30:26Z</time>
      </trkpt>
      <trkpt lat="41.79135" lon="0.8117448">
        <time>2022-07-07T12:30:28Z</time>
      </trkpt>
      <trkpt lat="41.791405" lon="0.81172985">
        <time>2022-07-07T12:30:30Z</time>
      </trkpt>
      <trkpt lat="41.79145" lon="0.81169784">
        <time>2022-07-07T12:30:32Z</time>
      </trkpt>
      <trkpt lat="41.791496" lon="0.8116612">
        <time>2022-07-07T12:30:34Z</time>
      </trkpt>
      <trkpt lat="41.791546" lon="0.81161916">
        <time>2022-07-07T12:30:36Z</time>
      </trkpt>
      <trkpt lat="41.79159" lon="0.8115655">
        <time>2022-07-07T12:30:38Z</time>
      </trkpt>
      <trkpt lat="41.79163" lon="0.8115125">
        <time>2022-07-07T12:30:40Z</time>
      </trkpt>
      <trkpt lat="41.791668" lon="0.8114635">
        <time>2022-07-07T12:30:42Z</time>
      </trkpt>
      <trkpt lat="41.791718" lon="0.81143117">
        <time>2022-07-07T12:30:44Z</time>
      </trkpt>
      <trkpt lat="41.791767" lon="0.8114135">
        <time>2022-07-07T12:30:46Z</time>
      </trkpt>
      <trkpt lat="41.791813" lon="0.81141853">
        <time>2022-07-07T12:30:48Z</time>
      </trkpt>
      <trkpt lat="41.79187" lon="0.8114502">
        <time>2022-07-07T12:30:51Z</time>
      </trkpt>
      <trkpt lat="41.791912" lon="0.8114768">
        <time>2022-07-07T12:30:54Z</time>
      </trkpt>
      <trkpt lat="41.791912" lon="0.8115752">
        <time>2022-07-07T12:32:17Z</time>
      </trkpt>
      <trkpt lat="41.791916" lon="0.81169814">
        <time>2022-07-07T12:32:20Z</time>
      </trkpt>
      <trkpt lat="41.7919" lon="0.8117895">
        <time>2022-07-07T12:32:22Z</time>
      </trkpt>
      <trkpt lat="41.791878" lon="0.81185913">
        <time>2022-07-07T12:32:24Z</time>
      </trkpt>
      <trkpt lat="41.791855" lon="0.8119198">
        <time>2022-07-07T12:32:26Z</time>
      </trkpt>
      <trkpt lat="41.791824" lon="0.8119788">
        <time>2022-07-07T12:32:29Z</time>
      </trkpt>
      <trkpt lat="41.791836" lon="0.8120151">
        <time>2022-07-07T12:32:35Z</time>
      </trkpt>
      <trkpt lat="41.791904" lon="0.8120345">
        <time>2022-07-07T12:32:38Z</time>
      </trkpt>
      <trkpt lat="41.79196" lon="0.8120475">
        <time>2022-07-07T12:32:40Z</time>
      </trkpt>
      <trkpt lat="41.792015" lon="0.8120638">
        <time>2022-07-07T12:32:42Z</time>
      </trkpt>
      <trkpt lat="41.792076" lon="0.8120875">
        <time>2022-07-07T12:32:44Z</time>
      </trkpt>
      <trkpt lat="41.79214" lon="0.81211144">
        <time>2022-07-07T12:32:46Z</time>
      </trkpt>
      <trkpt lat="41.792248" lon="0.81215644">
        <time>2022-07-07T12:32:49Z</time>
      </trkpt>
      <trkpt lat="41.79231" lon="0.81221044">
        <time>2022-07-07T12:32:51Z</time>
      </trkpt>
      <trkpt lat="41.792362" lon="0.81225044">
        <time>2022-07-07T12:32:53Z</time>
      </trkpt>
      <trkpt lat="41.792416" lon="0.8122508">
        <time>2022-07-07T12:32:56Z</time>
      </trkpt>
      <trkpt lat="41.792465" lon="0.81220645">
        <time>2022-07-07T12:32:59Z</time>
      </trkpt>
      <trkpt lat="41.792526" lon="0.8121418">
        <time>2022-07-07T12:33:02Z</time>
      </trkpt>
      <trkpt lat="41.792564" lon="0.81209016">
        <time>2022-07-07T12:33:04Z</time>
      </trkpt>
      <trkpt lat="41.792595" lon="0.8120358">
        <time>2022-07-07T12:33:06Z</time>
      </trkpt>
      <trkpt lat="41.792614" lon="0.81197816">
        <time>2022-07-07T12:33:08Z</time>
      </trkpt>
      <trkpt lat="41.79265" lon="0.81189084">
        <time>2022-07-07T12:33:11Z</time>
      </trkpt>
      <trkpt lat="41.79269" lon="0.81181115">
        <time>2022-07-07T12:33:14Z</time>
      </trkpt>
      <trkpt lat="41.79273" lon="0.81172884">
        <time>2022-07-07T12:33:17Z</time>
      </trkpt>
      <trkpt lat="41.792747" lon="0.8116518">
        <time>2022-07-07T12:33:19Z</time>
      </trkpt>
      <trkpt lat="41.792767" lon="0.8115762">
        <time>2022-07-07T12:33:21Z</time>
      </trkpt>
      <trkpt lat="41.79279" lon="0.8115095">
        <time>2022-07-07T12:33:23Z</time>
      </trkpt>
      <trkpt lat="41.79281" lon="0.8114452">
        <time>2022-07-07T12:33:25Z</time>
      </trkpt>
      <trkpt lat="41.792824" lon="0.8113755">
        <time>2022-07-07T12:33:27Z</time>
      </trkpt>
      <trkpt lat="41.79283" lon="0.8113212">
        <time>2022-07-07T12:33:29Z</time>
      </trkpt>
      <trkpt lat="41.792862" lon="0.8111952">
        <time>2022-07-07T12:34:09Z</time>
      </trkpt>
      <trkpt lat="41.792877" lon="0.81112784">
        <time>2022-07-07T12:34:12Z</time>
      </trkpt>
      <trkpt lat="41.792885" lon="0.81107086">
        <time>2022-07-07T12:34:19Z</time>
      </trkpt>
      <trkpt lat="41.7929" lon="0.81098884">
        <time>2022-07-07T12:34:46Z</time>
      </trkpt>
      <trkpt lat="41.792953" lon="0.8109482">
        <time>2022-07-07T12:34:49Z</time>
      </trkpt>
      <trkpt lat="41.793" lon="0.81089354">
        <time>2022-07-07T12:34:52Z</time>
      </trkpt>
      <trkpt lat="41.79304" lon="0.8108242">
        <time>2022-07-07T12:34:55Z</time>
      </trkpt>
      <trkpt lat="41.79307" lon="0.81074786">
        <time>2022-07-07T12:34:58Z</time>
      </trkpt>
      <trkpt lat="41.79309" lon="0.81067157">
        <time>2022-07-07T12:35:01Z</time>
      </trkpt>
      <trkpt lat="41.793095" lon="0.8106119">
        <time>2022-07-07T12:35:04Z</time>
      </trkpt>
      <trkpt lat="41.793106" lon="0.81050223">
        <time>2022-07-07T12:35:41Z</time>
      </trkpt>
      <trkpt lat="41.793137" lon="0.81042624">
        <time>2022-07-07T12:35:43Z</time>
      </trkpt>
      <trkpt lat="41.79317" lon="0.8103492">
        <time>2022-07-07T12:35:45Z</time>
      </trkpt>
      <trkpt lat="41.79321" lon="0.8102722">
        <time>2022-07-07T12:35:47Z</time>
      </trkpt>
      <trkpt lat="41.79324" lon="0.8101992">
        <time>2022-07-07T12:35:49Z</time>
      </trkpt>
      <trkpt lat="41.793262" lon="0.8101229">
        <time>2022-07-07T12:35:51Z</time>
      </trkpt>
      <trkpt lat="41.79328" lon="0.81004655">
        <time>2022-07-07T12:35:53Z</time>
      </trkpt>
      <trkpt lat="41.793297" lon="0.80997926">
        <time>2022-07-07T12:35:55Z</time>
      </trkpt>
      <trkpt lat="41.793297" lon="0.80991125">
        <time>2022-07-07T12:35:58Z</time>
      </trkpt>
      <trkpt lat="41.793312" lon="0.8098502">
        <time>2022-07-07T12:36:02Z</time>
      </trkpt>
      <trkpt lat="41.793354" lon="0.8097869">
        <time>2022-07-07T12:36:06Z</time>
      </trkpt>
      <trkpt lat="41.793392" lon="0.80970526">
        <time>2022-07-07T12:36:09Z</time>
      </trkpt>
      <trkpt lat="41.793423" lon="0.8096312">
        <time>2022-07-07T12:36:11Z</time>
      </trkpt>
      <trkpt lat="41.793453" lon="0.80955094">
        <time>2022-07-07T12:36:13Z</time>
      </trkpt>
      <trkpt lat="41.793476" lon="0.80946827">
        <time>2022-07-07T12:36:15Z</time>
      </trkpt>
      <trkpt lat="41.793495" lon="0.80938524">
        <time>2022-07-07T12:36:17Z</time>
      </trkpt>
      <trkpt lat="41.793503" lon="0.8093073">
        <time>2022-07-07T12:36:19Z</time>
      </trkpt>
      <trkpt lat="41.793514" lon="0.8092389">
        <time>2022-07-07T12:36:21Z</time>
      </trkpt>
      <trkpt lat="41.793545" lon="0.8091826">
        <time>2022-07-07T12:36:23Z</time>
      </trkpt>
      <trkpt lat="41.7936" lon="0.8091426">
        <time>2022-07-07T12:36:25Z</time>
      </trkpt>
      <trkpt lat="41.79363" lon="0.8090986">
        <time>2022-07-07T12:36:27Z</time>
      </trkpt>
      <trkpt lat="41.793663" lon="0.8090293">
        <time>2022-07-07T12:36:30Z</time>
      </trkpt>
      <trkpt lat="41.793697" lon="0.8089596">
        <time>2022-07-07T12:36:33Z</time>
      </trkpt>
      <trkpt lat="41.793736" lon="0.80892897">
        <time>2022-07-07T12:36:36Z</time>
      </trkpt>
      <trkpt lat="41.793804" lon="0.8089303">
        <time>2022-07-07T12:36:40Z</time>
      </trkpt>
      <trkpt lat="41.793846" lon="0.80887794">
        <time>2022-07-07T12:36:43Z</time>
      </trkpt>
      <trkpt lat="41.793873" lon="0.8088179">
        <time>2022-07-07T12:36:46Z</time>
      </trkpt>
      <trkpt lat="41.793785" lon="0.8089046">
        <time>2022-07-07T12:37:32Z</time>
      </trkpt>
      <trkpt lat="41.79375" lon="0.8089696">
        <time>2022-07-07T12:37:35Z</time>
      </trkpt>
      <trkpt lat="41.79373" lon="0.8090016">
        <time>2022-07-07T12:37:39Z</time>
      </trkpt>
      <trkpt lat="41.793816" lon="0.80897963">
        <time>2022-07-07T12:37:44Z</time>
      </trkpt>
      <trkpt lat="41.79385" lon="0.8089389">
        <time>2022-07-07T12:37:46Z</time>
      </trkpt>
      <trkpt lat="41.793877" lon="0.80890095">
        <time>2022-07-07T12:37:49Z</time>
      </trkpt>
      <trkpt lat="41.793884" lon="0.80905026">
        <time>2022-07-07T12:42:24Z</time>
      </trkpt>
      <trkpt lat="41.793854" lon="0.80901295">
        <time>2022-07-07T12:42:41Z</time>
      </trkpt>
      <trkpt lat="41.79387" lon="0.8090313">
        <time>2022-07-07T12:42:54Z</time>
      </trkpt>
      <trkpt lat="41.793793" lon="0.80904794">
        <time>2022-07-07T12:43:11Z</time>
      </trkpt>
      <trkpt lat="41.793846" lon="0.8090496">
        <time>2022-07-07T12:43:17Z</time>
      </trkpt>
      <trkpt lat="41.793762" lon="0.80912924">
        <time>2022-07-07T12:43:59Z</time>
      </trkpt>
      <trkpt lat="41.793755" lon="0.80910826">
        <time>2022-07-07T12:44:09Z</time>
      </trkpt>
      <trkpt lat="41.793827" lon="0.80908126">
        <time>2022-07-07T12:44:13Z</time>
      </trkpt>
      <trkpt lat="41.793865" lon="0.8090676">
        <time>2022-07-07T12:44:16Z</time>
      </trkpt>
      <trkpt lat="41.793686" lon="0.8090006">
        <time>2022-07-07T12:44:54Z</time>
      </trkpt>
      <trkpt lat="41.79366" lon="0.8089466">
        <time>2022-07-07T12:45:00Z</time>
      </trkpt>
      <trkpt lat="41.7937" lon="0.8089453">
        <time>2022-07-07T12:45:09Z</time>
      </trkpt>
      <trkpt lat="41.793755" lon="0.8089816">
        <time>2022-07-07T12:45:53Z</time>
      </trkpt>
      <trkpt lat="41.793716" lon="0.80902827">
        <time>2022-07-07T12:45:58Z</time>
      </trkpt>
      <trkpt lat="41.79366" lon="0.80907094">
        <time>2022-07-07T12:46:03Z</time>
      </trkpt>
      <trkpt lat="41.79361" lon="0.80914056">
        <time>2022-07-07T12:46:06Z</time>
      </trkpt>
      <trkpt lat="41.793583" lon="0.80919826">
        <time>2022-07-07T12:46:08Z</time>
      </trkpt>
      <trkpt lat="41.793552" lon="0.80925727">
        <time>2022-07-07T12:46:11Z</time>
      </trkpt>
      <trkpt lat="41.79354" lon="0.8093749">
        <time>2022-07-07T12:46:25Z</time>
      </trkpt>
      <trkpt lat="41.793507" lon="0.80946654">
        <time>2022-07-07T12:46:28Z</time>
      </trkpt>
      <trkpt lat="41.793484" lon="0.8095232">
        <time>2022-07-07T12:46:30Z</time>
      </trkpt>
      <trkpt lat="41.793453" lon="0.8095779">
        <time>2022-07-07T12:46:32Z</time>
      </trkpt>
      <trkpt lat="41.79342" lon="0.8096559">
        <time>2022-07-07T12:46:35Z</time>
      </trkpt>
      <trkpt lat="41.793385" lon="0.8097295">
        <time>2022-07-07T12:46:38Z</time>
      </trkpt>
      <trkpt lat="41.793365" lon="0.80979353">
        <time>2022-07-07T12:46:41Z</time>
      </trkpt>
      <trkpt lat="41.79334" lon="0.8098749">
        <time>2022-07-07T12:46:45Z</time>
      </trkpt>
      <trkpt lat="41.79331" lon="0.8099559">
        <time>2022-07-07T12:46:48Z</time>
      </trkpt>
      <trkpt lat="41.793293" lon="0.8100305">
        <time>2022-07-07T12:46:51Z</time>
      </trkpt>
      <trkpt lat="41.793274" lon="0.81009316">
        <time>2022-07-07T12:46:54Z</time>
      </trkpt>
      <trkpt lat="41.793262" lon="0.8101748">
        <time>2022-07-07T12:46:57Z</time>
      </trkpt>
      <trkpt lat="41.793236" lon="0.8102535">
        <time>2022-07-07T12:47:00Z</time>
      </trkpt>
      <trkpt lat="41.7932" lon="0.8103268">
        <time>2022-07-07T12:47:03Z</time>
      </trkpt>
      <trkpt lat="41.793175" lon="0.81040215">
        <time>2022-07-07T12:47:06Z</time>
      </trkpt>
      <trkpt lat="41.793156" lon="0.8104698">
        <time>2022-07-07T12:47:09Z</time>
      </trkpt>
      <trkpt lat="41.79313" lon="0.8105378">
        <time>2022-07-07T12:47:13Z</time>
      </trkpt>
      <trkpt lat="41.793156" lon="0.8105945">
        <time>2022-07-07T12:50:38Z</time>
      </trkpt>
      <trkpt lat="41.793068" lon="0.8107078">
        <time>2022-07-07T12:51:04Z</time>
      </trkpt>
      <trkpt lat="41.793068" lon="0.81123614">
        <time>2022-07-07T12:51:24Z</time>
      </trkpt>
      <trkpt lat="41.793068" lon="0.8112388">
        <time>2022-07-07T12:51:25Z</time>
      </trkpt>
      <trkpt lat="41.793026" lon="0.8111275">
        <time>2022-07-07T12:51:27Z</time>
      </trkpt>
      <trkpt lat="41.792862" lon="0.8111195">
        <time>2022-07-07T12:52:02Z</time>
      </trkpt>
      <trkpt lat="41.79277" lon="0.8109161">
        <time>2022-07-07T12:52:09Z</time>
      </trkpt>
      <trkpt lat="41.792927" lon="0.8114028">
        <time>2022-07-07T12:52:19Z</time>
      </trkpt>
      <trkpt lat="41.793037" lon="0.8114828">
        <time>2022-07-07T12:56:53Z</time>
      </trkpt>
      <trkpt lat="41.79285" lon="0.81082946">
        <time>2022-07-07T12:58:37Z</time>
      </trkpt>
      <trkpt lat="41.793087" lon="0.81078446">
        <time>2022-07-07T13:37:05Z</time>
      </trkpt>
      <trkpt lat="41.792927" lon="0.81037545">
        <time>2022-07-07T13:37:25Z</time>
      </trkpt>
      <trkpt lat="41.792892" lon="0.81039983">
        <time>2022-07-07T13:37:34Z</time>
      </trkpt>
      <trkpt lat="41.79318" lon="0.8105701">
        <time>2022-07-07T13:42:28Z</time>
      </trkpt>
      <trkpt lat="41.793198" lon="0.8105071">
        <time>2022-07-07T13:42:34Z</time>
      </trkpt>
      <trkpt lat="41.7932" lon="0.8104488">
        <time>2022-07-07T13:42:39Z</time>
      </trkpt>
      <trkpt lat="41.793232" lon="0.8103735">
        <time>2022-07-07T13:42:45Z</time>
      </trkpt>
      <trkpt lat="41.793243" lon="0.8103128">
        <time>2022-07-07T13:42:48Z</time>
      </trkpt>
      <trkpt lat="41.79324" lon="0.81024414">
        <time>2022-07-07T13:42:52Z</time>
      </trkpt>
      <trkpt lat="41.79322" lon="0.8101395">
        <time>2022-07-07T13:43:43Z</time>
      </trkpt>
      <trkpt lat="41.793262" lon="0.8100715">
        <time>2022-07-07T13:43:46Z</time>
      </trkpt>
      <trkpt lat="41.79332" lon="0.80997384">
        <time>2022-07-07T13:43:50Z</time>
      </trkpt>
      <trkpt lat="41.793358" lon="0.80989283">
        <time>2022-07-07T13:43:53Z</time>
      </trkpt>
      <trkpt lat="41.7934" lon="0.8098105">
        <time>2022-07-07T13:43:56Z</time>
      </trkpt>
      <trkpt lat="41.793438" lon="0.8097352">
        <time>2022-07-07T13:43:59Z</time>
      </trkpt>
      <trkpt lat="41.793472" lon="0.8096565">
        <time>2022-07-07T13:44:02Z</time>
      </trkpt>
      <trkpt lat="41.793503" lon="0.80959654">
        <time>2022-07-07T13:44:04Z</time>
      </trkpt>
      <trkpt lat="41.793537" lon="0.8095535">
        <time>2022-07-07T13:44:06Z</time>
      </trkpt>
      <trkpt lat="41.793575" lon="0.80954885">
        <time>2022-07-07T13:44:09Z</time>
      </trkpt>
      <trkpt lat="41.79364" lon="0.8095885">
        <time>2022-07-07T13:44:14Z</time>
      </trkpt>
      <trkpt lat="41.793694" lon="0.8095985">
        <time>2022-07-07T13:44:18Z</time>
      </trkpt>
      <trkpt lat="41.793755" lon="0.8096202">
        <time>2022-07-07T13:44:22Z</time>
      </trkpt>
      <trkpt lat="41.79379" lon="0.8096102">
        <time>2022-07-07T13:44:27Z</time>
      </trkpt>
      <trkpt lat="41.793777" lon="0.8096345">
        <time>2022-07-07T13:46:15Z</time>
      </trkpt>
      <trkpt lat="41.793716" lon="0.8096962">
        <time>2022-07-07T13:46:23Z</time>
      </trkpt>
      <trkpt lat="41.793705" lon="0.8097312">
        <time>2022-07-07T13:47:09Z</time>
      </trkpt>
      <trkpt lat="41.793842" lon="0.8095062">
        <time>2022-07-07T13:48:14Z</time>
      </trkpt>
      <trkpt lat="41.7939" lon="0.8097212">
        <time>2022-07-07T13:49:53Z</time>
      </trkpt>
      <trkpt lat="41.794003" lon="0.80960286">
        <time>2022-07-07T13:52:45Z</time>
      </trkpt>
      <trkpt lat="41.793762" lon="0.80957985">
        <time>2022-07-07T13:59:05Z</time>
      </trkpt>
      <trkpt lat="41.793785" lon="0.8096525">
        <time>2022-07-07T13:59:45Z</time>
      </trkpt>
      <trkpt lat="41.793724" lon="0.8095705">
        <time>2022-07-07T14:02:37Z</time>
      </trkpt>
      <trkpt lat="41.793694" lon="0.80949914">
        <time>2022-07-07T14:02:40Z</time>
      </trkpt>
      <trkpt lat="41.79368" lon="0.8094405">
        <time>2022-07-07T14:02:42Z</time>
      </trkpt>
      <trkpt lat="41.79367" lon="0.8093532">
        <time>2022-07-07T14:02:45Z</time>
      </trkpt>
      <trkpt lat="41.793674" lon="0.8092782">
        <time>2022-07-07T14:02:47Z</time>
      </trkpt>
      <trkpt lat="41.793682" lon="0.8092098">
        <time>2022-07-07T14:02:49Z</time>
      </trkpt>
      <trkpt lat="41.793697" lon="0.8091332">
        <time>2022-07-07T14:02:51Z</time>
      </trkpt>
      <trkpt lat="41.793716" lon="0.8090529">
        <time>2022-07-07T14:02:53Z</time>
      </trkpt>
      <trkpt lat="41.79374" lon="0.80897385">
        <time>2022-07-07T14:02:55Z</time>
      </trkpt>
      <trkpt lat="41.793766" lon="0.8088982">
        <time>2022-07-07T14:02:57Z</time>
      </trkpt>
      <trkpt lat="41.79379" lon="0.8088252">
        <time>2022-07-07T14:02:59Z</time>
      </trkpt>
      <trkpt lat="41.79381" lon="0.80875486">
        <time>2022-07-07T14:03:01Z</time>
      </trkpt>
      <trkpt lat="41.79383" lon="0.8086889">
        <time>2022-07-07T14:03:03Z</time>
      </trkpt>
      <trkpt lat="41.793846" lon="0.8086255">
        <time>2022-07-07T14:03:05Z</time>
      </trkpt>
      <trkpt lat="41.793846" lon="0.80852157">
        <time>2022-07-07T14:03:08Z</time>
      </trkpt>
      <trkpt lat="41.793842" lon="0.80845124">
        <time>2022-07-07T14:03:10Z</time>
      </trkpt>
      <trkpt lat="41.793842" lon="0.8083802">
        <time>2022-07-07T14:03:12Z</time>
      </trkpt>
      <trkpt lat="41.793846" lon="0.8083039">
        <time>2022-07-07T14:03:14Z</time>
      </trkpt>
      <trkpt lat="41.793854" lon="0.8082256">
        <time>2022-07-07T14:03:16Z</time>
      </trkpt>
      <trkpt lat="41.793865" lon="0.8081479">
        <time>2022-07-07T14:03:18Z</time>
      </trkpt>
      <trkpt lat="41.793877" lon="0.8080669">
        <time>2022-07-07T14:03:20Z</time>
      </trkpt>
      <trkpt lat="41.793888" lon="0.8079832">
        <time>2022-07-07T14:03:22Z</time>
      </trkpt>
      <trkpt lat="41.793903" lon="0.8078929">
        <time>2022-07-07T14:03:24Z</time>
      </trkpt>
      <trkpt lat="41.793915" lon="0.8078059">
        <time>2022-07-07T14:03:26Z</time>
      </trkpt>
      <trkpt lat="41.79393" lon="0.80771226">
        <time>2022-07-07T14:03:28Z</time>
      </trkpt>
      <trkpt lat="41.79394" lon="0.8076192">
        <time>2022-07-07T14:03:30Z</time>
      </trkpt>
      <trkpt lat="41.793957" lon="0.8075299">
        <time>2022-07-07T14:03:32Z</time>
      </trkpt>
      <trkpt lat="41.79397" lon="0.80743855">
        <time>2022-07-07T14:03:34Z</time>
      </trkpt>
      <trkpt lat="41.79398" lon="0.8073503">
        <time>2022-07-07T14:03:36Z</time>
      </trkpt>
      <trkpt lat="41.79399" lon="0.80726826">
        <time>2022-07-07T14:03:38Z</time>
      </trkpt>
      <trkpt lat="41.794006" lon="0.80718493">
        <time>2022-07-07T14:03:40Z</time>
      </trkpt>
      <trkpt lat="41.79402" lon="0.8071019">
        <time>2022-07-07T14:03:42Z</time>
      </trkpt>
      <trkpt lat="41.79404" lon="0.80701494">
        <time>2022-07-07T14:03:44Z</time>
      </trkpt>
      <trkpt lat="41.794064" lon="0.8069229">
        <time>2022-07-07T14:03:46Z</time>
      </trkpt>
      <trkpt lat="41.794094" lon="0.8068366">
        <time>2022-07-07T14:03:48Z</time>
      </trkpt>
      <trkpt lat="41.794136" lon="0.8067659">
        <time>2022-07-07T14:03:50Z</time>
      </trkpt>
      <trkpt lat="41.79419" lon="0.80671495">
        <time>2022-07-07T14:03:52Z</time>
      </trkpt>
      <trkpt lat="41.794243" lon="0.80668294">
        <time>2022-07-07T14:03:54Z</time>
      </trkpt>
      <trkpt lat="41.794292" lon="0.80666625">
        <time>2022-07-07T14:03:56Z</time>
      </trkpt>
      <trkpt lat="41.79436" lon="0.8066643">
        <time>2022-07-07T14:03:59Z</time>
      </trkpt>
      <trkpt lat="41.794426" lon="0.80667526">
        <time>2022-07-07T14:04:02Z</time>
      </trkpt>
      <trkpt lat="41.79449" lon="0.80668926">
        <time>2022-07-07T14:04:05Z</time>
      </trkpt>
      <trkpt lat="41.794537" lon="0.80669725">
        <time>2022-07-07T14:04:07Z</time>
      </trkpt>
      <trkpt lat="41.794624" lon="0.8066949">
        <time>2022-07-07T14:04:10Z</time>
      </trkpt>
      <trkpt lat="41.794678" lon="0.8066996">
        <time>2022-07-07T14:04:12Z</time>
      </trkpt>
      <trkpt lat="41.79472" lon="0.8067126">
        <time>2022-07-07T14:04:14Z</time>
      </trkpt>
      <trkpt lat="41.794777" lon="0.8067296">
        <time>2022-07-07T14:04:17Z</time>
      </trkpt>
      <trkpt lat="41.794834" lon="0.8067493">
        <time>2022-07-07T14:04:20Z</time>
      </trkpt>
      <trkpt lat="41.794903" lon="0.8067676">
        <time>2022-07-07T14:04:23Z</time>
      </trkpt>
      <trkpt lat="41.794968" lon="0.80678725">
        <time>2022-07-07T14:04:26Z</time>
      </trkpt>
      <trkpt lat="41.79503" lon="0.8068036">
        <time>2022-07-07T14:04:29Z</time>
      </trkpt>
      <trkpt lat="41.79509" lon="0.8068229">
        <time>2022-07-07T14:04:32Z</time>
      </trkpt>
      <trkpt lat="41.79515" lon="0.8068389">
        <time>2022-07-07T14:04:35Z</time>
      </trkpt>
      <trkpt lat="41.795208" lon="0.8068566">
        <time>2022-07-07T14:04:38Z</time>
      </trkpt>
      <trkpt lat="41.795265" lon="0.8068719">
        <time>2022-07-07T14:04:41Z</time>
      </trkpt>
      <trkpt lat="41.79534" lon="0.8069029">
        <time>2022-07-07T14:04:45Z</time>
      </trkpt>
      <trkpt lat="41.795403" lon="0.8069242">
        <time>2022-07-07T14:04:48Z</time>
      </trkpt>
      <trkpt lat="41.79546" lon="0.8069469">
        <time>2022-07-07T14:04:51Z</time>
      </trkpt>
      <trkpt lat="41.79552" lon="0.80696857">
        <time>2022-07-07T14:04:54Z</time>
      </trkpt>
      <trkpt lat="41.79558" lon="0.8069862">
        <time>2022-07-07T14:04:57Z</time>
      </trkpt>
      <trkpt lat="41.795643" lon="0.80700755">
        <time>2022-07-07T14:05:00Z</time>
      </trkpt>
      <trkpt lat="41.795704" lon="0.80702287">
        <time>2022-07-07T14:05:03Z</time>
      </trkpt>
      <trkpt lat="41.795765" lon="0.8070412">
        <time>2022-07-07T14:05:06Z</time>
      </trkpt>
      <trkpt lat="41.795826" lon="0.8070632">
        <time>2022-07-07T14:05:09Z</time>
      </trkpt>
      <trkpt lat="41.795887" lon="0.8070865">
        <time>2022-07-07T14:05:12Z</time>
      </trkpt>
      <trkpt lat="41.795948" lon="0.8071142">
        <time>2022-07-07T14:05:15Z</time>
      </trkpt>
      <trkpt lat="41.795994" lon="0.8071322">
        <time>2022-07-07T14:05:17Z</time>
      </trkpt>
      <trkpt lat="41.79606" lon="0.8071588">
        <time>2022-07-07T14:05:20Z</time>
      </trkpt>
      <trkpt lat="41.796124" lon="0.80717885">
        <time>2022-07-07T14:05:23Z</time>
      </trkpt>
      <trkpt lat="41.79619" lon="0.80720085">
        <time>2022-07-07T14:05:26Z</time>
      </trkpt>
      <trkpt lat="41.79625" lon="0.80722386">
        <time>2022-07-07T14:05:29Z</time>
      </trkpt>
      <trkpt lat="41.796307" lon="0.8072462">
        <time>2022-07-07T14:05:32Z</time>
      </trkpt>
      <trkpt lat="41.796364" lon="0.80726653">
        <time>2022-07-07T14:05:35Z</time>
      </trkpt>
      <trkpt lat="41.796425" lon="0.80728686">
        <time>2022-07-07T14:05:38Z</time>
      </trkpt>
      <trkpt lat="41.79649" lon="0.8073055">
        <time>2022-07-07T14:05:41Z</time>
      </trkpt>
      <trkpt lat="41.79656" lon="0.8073145">
        <time>2022-07-07T14:05:44Z</time>
      </trkpt>
      <trkpt lat="41.79661" lon="0.8073205">
        <time>2022-07-07T14:05:46Z</time>
      </trkpt>
      <trkpt lat="41.79667" lon="0.8073215">
        <time>2022-07-07T14:05:48Z</time>
      </trkpt>
      <trkpt lat="41.79673" lon="0.8073195">
        <time>2022-07-07T14:05:50Z</time>
      </trkpt>
      <trkpt lat="41.7968" lon="0.8073202">
        <time>2022-07-07T14:05:52Z</time>
      </trkpt>
      <trkpt lat="41.796864" lon="0.80731815">
        <time>2022-07-07T14:05:54Z</time>
      </trkpt>
      <trkpt lat="41.796932" lon="0.80731416">
        <time>2022-07-07T14:05:56Z</time>
      </trkpt>
      <trkpt lat="41.79701" lon="0.8073072">
        <time>2022-07-07T14:05:58Z</time>
      </trkpt>
      <trkpt lat="41.797085" lon="0.80730015">
        <time>2022-07-07T14:06:00Z</time>
      </trkpt>
      <trkpt lat="41.797165" lon="0.80729717">
        <time>2022-07-07T14:06:02Z</time>
      </trkpt>
      <trkpt lat="41.797245" lon="0.8072985">
        <time>2022-07-07T14:06:04Z</time>
      </trkpt>
      <trkpt lat="41.797333" lon="0.8072968">
        <time>2022-07-07T14:06:06Z</time>
      </trkpt>
      <trkpt lat="41.797413" lon="0.80728686">
        <time>2022-07-07T14:06:08Z</time>
      </trkpt>
      <trkpt lat="41.79749" lon="0.8072752">
        <time>2022-07-07T14:06:10Z</time>
      </trkpt>
      <trkpt lat="41.79756" lon="0.8072708">
        <time>2022-07-07T14:06:12Z</time>
      </trkpt>
      <trkpt lat="41.797626" lon="0.8072805">
        <time>2022-07-07T14:06:14Z</time>
      </trkpt>
      <trkpt lat="41.797688" lon="0.80730385">
        <time>2022-07-07T14:06:16Z</time>
      </trkpt>
      <trkpt lat="41.79774" lon="0.8073342">
        <time>2022-07-07T14:06:18Z</time>
      </trkpt>
      <trkpt lat="41.797783" lon="0.8073608">
        <time>2022-07-07T14:06:20Z</time>
      </trkpt>
      <trkpt lat="41.797844" lon="0.80739284">
        <time>2022-07-07T14:06:23Z</time>
      </trkpt>
      <trkpt lat="41.797928" lon="0.8073165">
        <time>2022-07-07T14:08:00Z</time>
      </trkpt>
      <trkpt lat="41.79797" lon="0.8072662">
        <time>2022-07-07T14:08:03Z</time>
      </trkpt>
      <trkpt lat="41.798027" lon="0.8072485">
        <time>2022-07-07T14:08:06Z</time>
      </trkpt>
      <trkpt lat="41.798096" lon="0.8072352">
        <time>2022-07-07T14:08:09Z</time>
      </trkpt>
      <trkpt lat="41.798164" lon="0.80722654">
        <time>2022-07-07T14:08:12Z</time>
      </trkpt>
      <trkpt lat="41.798214" lon="0.8072225">
        <time>2022-07-07T14:08:14Z</time>
      </trkpt>
      <trkpt lat="41.798283" lon="0.80721885">
        <time>2022-07-07T14:08:17Z</time>
      </trkpt>
      <trkpt lat="41.79836" lon="0.8072145">
        <time>2022-07-07T14:08:20Z</time>
      </trkpt>
      <trkpt lat="41.798428" lon="0.8072129">
        <time>2022-07-07T14:08:23Z</time>
      </trkpt>
      <trkpt lat="41.79849" lon="0.8072079">
        <time>2022-07-07T14:08:26Z</time>
      </trkpt>
      <trkpt lat="41.798553" lon="0.80720884">
        <time>2022-07-07T14:08:29Z</time>
      </trkpt>
      <trkpt lat="41.79862" lon="0.8072142">
        <time>2022-07-07T14:08:32Z</time>
      </trkpt>
      <trkpt lat="41.798683" lon="0.80720884">
        <time>2022-07-07T14:08:35Z</time>
      </trkpt>
      <trkpt lat="41.79874" lon="0.8072039">
        <time>2022-07-07T14:08:38Z</time>
      </trkpt>
      <trkpt lat="41.7988" lon="0.80720717">
        <time>2022-07-07T14:08:41Z</time>
      </trkpt>
      <trkpt lat="41.798866" lon="0.8072029">
        <time>2022-07-07T14:08:44Z</time>
      </trkpt>
      <trkpt lat="41.798935" lon="0.80719185">
        <time>2022-07-07T14:08:47Z</time>
      </trkpt>
      <trkpt lat="41.798992" lon="0.8071835">
        <time>2022-07-07T14:08:50Z</time>
      </trkpt>
      <trkpt lat="41.799057" lon="0.80717885">
        <time>2022-07-07T14:08:53Z</time>
      </trkpt>
      <trkpt lat="41.79912" lon="0.8071755">
        <time>2022-07-07T14:08:56Z</time>
      </trkpt>
      <trkpt lat="41.799183" lon="0.80717355">
        <time>2022-07-07T14:08:59Z</time>
      </trkpt>
      <trkpt lat="41.79925" lon="0.8071729">
        <time>2022-07-07T14:09:02Z</time>
      </trkpt>
      <trkpt lat="41.799313" lon="0.80716825">
        <time>2022-07-07T14:09:05Z</time>
      </trkpt>
      <trkpt lat="41.799374" lon="0.80716187">
        <time>2022-07-07T14:09:08Z</time>
      </trkpt>
      <trkpt lat="41.799442" lon="0.8071612">
        <time>2022-07-07T14:09:11Z</time>
      </trkpt>
      <trkpt lat="41.79951" lon="0.8071589">
        <time>2022-07-07T14:09:14Z</time>
      </trkpt>
      <trkpt lat="41.79958" lon="0.8071546">
        <time>2022-07-07T14:09:17Z</time>
      </trkpt>
      <trkpt lat="41.799637" lon="0.80714726">
        <time>2022-07-07T14:09:20Z</time>
      </trkpt>
      <trkpt lat="41.7997" lon="0.8071389">
        <time>2022-07-07T14:09:23Z</time>
      </trkpt>
      <trkpt lat="41.79976" lon="0.80713093">
        <time>2022-07-07T14:09:26Z</time>
      </trkpt>
      <trkpt lat="41.79982" lon="0.80712056">
        <time>2022-07-07T14:09:29Z</time>
      </trkpt>
      <trkpt lat="41.799877" lon="0.8071056">
        <time>2022-07-07T14:09:32Z</time>
      </trkpt>
      <trkpt lat="41.799934" lon="0.80708194">
        <time>2022-07-07T14:09:35Z</time>
      </trkpt>
      <trkpt lat="41.799988" lon="0.80705494">
        <time>2022-07-07T14:09:38Z</time>
      </trkpt>
      <trkpt lat="41.800037" lon="0.8070229">
        <time>2022-07-07T14:09:41Z</time>
      </trkpt>
      <trkpt lat="41.800087" lon="0.80698425">
        <time>2022-07-07T14:09:44Z</time>
      </trkpt>
      <trkpt lat="41.800133" lon="0.80694526">
        <time>2022-07-07T14:09:47Z</time>
      </trkpt>
      <trkpt lat="41.800175" lon="0.8069059">
        <time>2022-07-07T14:09:50Z</time>
      </trkpt>
      <trkpt lat="41.800217" lon="0.8068586">
        <time>2022-07-07T14:09:53Z</time>
      </trkpt>
      <trkpt lat="41.800243" lon="0.80677694">
        <time>2022-07-07T14:09:57Z</time>
      </trkpt>
      <trkpt lat="41.800262" lon="0.8067153">
        <time>2022-07-07T14:10:00Z</time>
      </trkpt>
      <trkpt lat="41.80029" lon="0.8066589">
        <time>2022-07-07T14:10:03Z</time>
      </trkpt>
      <trkpt lat="41.800297" lon="0.8065983">
        <time>2022-07-07T14:10:09Z</time>
      </trkpt>
      <trkpt lat="41.80025" lon="0.8066883">
        <time>2022-07-07T14:11:04Z</time>
      </trkpt>
      <trkpt lat="41.800205" lon="0.8067553">
        <time>2022-07-07T14:11:06Z</time>
      </trkpt>
      <trkpt lat="41.800137" lon="0.80683196">
        <time>2022-07-07T14:11:08Z</time>
      </trkpt>
      <trkpt lat="41.800045" lon="0.8069146">
        <time>2022-07-07T14:11:10Z</time>
      </trkpt>
      <trkpt lat="41.799995" lon="0.80695325">
        <time>2022-07-07T14:11:11Z</time>
      </trkpt>
      <trkpt lat="41.799934" lon="0.80698925">
        <time>2022-07-07T14:11:12Z</time>
      </trkpt>
      <trkpt lat="41.79987" lon="0.80702025">
        <time>2022-07-07T14:11:13Z</time>
      </trkpt>
      <trkpt lat="41.7998" lon="0.8070453">
        <time>2022-07-07T14:11:14Z</time>
      </trkpt>
      <trkpt lat="41.79973" lon="0.80706394">
        <time>2022-07-07T14:11:15Z</time>
      </trkpt>
      <trkpt lat="41.799572" lon="0.8070903">
        <time>2022-07-07T14:11:17Z</time>
      </trkpt>
      <trkpt lat="41.79949" lon="0.8071009">
        <time>2022-07-07T14:11:18Z</time>
      </trkpt>
      <trkpt lat="41.799404" lon="0.8071096">
        <time>2022-07-07T14:11:19Z</time>
      </trkpt>
      <trkpt lat="41.79932" lon="0.80711794">
        <time>2022-07-07T14:11:20Z</time>
      </trkpt>
      <trkpt lat="41.79923" lon="0.8071239">
        <time>2022-07-07T14:11:21Z</time>
      </trkpt>
      <trkpt lat="41.799137" lon="0.8071279">
        <time>2022-07-07T14:11:22Z</time>
      </trkpt>
      <trkpt lat="41.799046" lon="0.80713254">
        <time>2022-07-07T14:11:23Z</time>
      </trkpt>
      <trkpt lat="41.798954" lon="0.8071382">
        <time>2022-07-07T14:11:24Z</time>
      </trkpt>
      <trkpt lat="41.798862" lon="0.80714554">
        <time>2022-07-07T14:11:25Z</time>
      </trkpt>
      <trkpt lat="41.798775" lon="0.8071522">
        <time>2022-07-07T14:11:26Z</time>
      </trkpt>
      <trkpt lat="41.798687" lon="0.8071559">
        <time>2022-07-07T14:11:27Z</time>
      </trkpt>
      <trkpt lat="41.7986" lon="0.8071585">
        <time>2022-07-07T14:11:28Z</time>
      </trkpt>
      <trkpt lat="41.798504" lon="0.80716085">
        <time>2022-07-07T14:11:29Z</time>
      </trkpt>
      <trkpt lat="41.798412" lon="0.8071655">
        <time>2022-07-07T14:11:30Z</time>
      </trkpt>
      <trkpt lat="41.79832" lon="0.80716884">
        <time>2022-07-07T14:11:31Z</time>
      </trkpt>
      <trkpt lat="41.798237" lon="0.8071705">
        <time>2022-07-07T14:11:32Z</time>
      </trkpt>
      <trkpt lat="41.798164" lon="0.80716985">
        <time>2022-07-07T14:11:33Z</time>
      </trkpt>
      <trkpt lat="41.79809" lon="0.80716187">
        <time>2022-07-07T14:11:34Z</time>
      </trkpt>
      <trkpt lat="41.798035" lon="0.8071475">
        <time>2022-07-07T14:11:35Z</time>
      </trkpt>
      <trkpt lat="41.79798" lon="0.8071279">
        <time>2022-07-07T14:11:36Z</time>
      </trkpt>
      <trkpt lat="41.79794" lon="0.80710685">
        <time>2022-07-07T14:11:37Z</time>
      </trkpt>
      <trkpt lat="41.797863" lon="0.80708385">
        <time>2022-07-07T14:11:39Z</time>
      </trkpt>
      <trkpt lat="41.79779" lon="0.8071025">
        <time>2022-07-07T14:11:41Z</time>
      </trkpt>
      <trkpt lat="41.79774" lon="0.8071642">
        <time>2022-07-07T14:11:43Z</time>
      </trkpt>
      <trkpt lat="41.797745" lon="0.8072389">
        <time>2022-07-07T14:11:45Z</time>
      </trkpt>
      <trkpt lat="41.797787" lon="0.8073062">
        <time>2022-07-07T14:11:47Z</time>
      </trkpt>
      <trkpt lat="41.79785" lon="0.80735016">
        <time>2022-07-07T14:11:49Z</time>
      </trkpt>
      <trkpt lat="41.797943" lon="0.8073685">
        <time>2022-07-07T14:11:51Z</time>
      </trkpt>
      <trkpt lat="41.798042" lon="0.8073738">
        <time>2022-07-07T14:11:53Z</time>
      </trkpt>
      <trkpt lat="41.798096" lon="0.80737716">
        <time>2022-07-07T14:11:54Z</time>
      </trkpt>
      <trkpt lat="41.798157" lon="0.8073835">
        <time>2022-07-07T14:11:55Z</time>
      </trkpt>
      <trkpt lat="41.798225" lon="0.8073935">
        <time>2022-07-07T14:11:56Z</time>
      </trkpt>
      <trkpt lat="41.798298" lon="0.8074058">
        <time>2022-07-07T14:11:57Z</time>
      </trkpt>
      <trkpt lat="41.798374" lon="0.8074195">
        <time>2022-07-07T14:11:58Z</time>
      </trkpt>
      <trkpt lat="41.79845" lon="0.80743384">
        <time>2022-07-07T14:11:59Z</time>
      </trkpt>
      <trkpt lat="41.798523" lon="0.80744714">
        <time>2022-07-07T14:12:00Z</time>
      </trkpt>
      <trkpt lat="41.7986" lon="0.8074618">
        <time>2022-07-07T14:12:01Z</time>
      </trkpt>
      <trkpt lat="41.798676" lon="0.80747813">
        <time>2022-07-07T14:12:02Z</time>
      </trkpt>
      <trkpt lat="41.79876" lon="0.8074948">
        <time>2022-07-07T14:12:03Z</time>
      </trkpt>
      <trkpt lat="41.798843" lon="0.8075131">
        <time>2022-07-07T14:12:04Z</time>
      </trkpt>
      <trkpt lat="41.798927" lon="0.8075338">
        <time>2022-07-07T14:12:05Z</time>
      </trkpt>
      <trkpt lat="41.799015" lon="0.80755377">
        <time>2022-07-07T14:12:06Z</time>
      </trkpt>
      <trkpt lat="41.7991" lon="0.8075715">
        <time>2022-07-07T14:12:07Z</time>
      </trkpt>
      <trkpt lat="41.79919" lon="0.80758876">
        <time>2022-07-07T14:12:08Z</time>
      </trkpt>
      <trkpt lat="41.799274" lon="0.8076091">
        <time>2022-07-07T14:12:09Z</time>
      </trkpt>
      <trkpt lat="41.79937" lon="0.80762947">
        <time>2022-07-07T14:12:10Z</time>
      </trkpt>
      <trkpt lat="41.799454" lon="0.80764747">
        <time>2022-07-07T14:12:11Z</time>
      </trkpt>
      <trkpt lat="41.799545" lon="0.8076671">
        <time>2022-07-07T14:12:12Z</time>
      </trkpt>
      <trkpt lat="41.799637" lon="0.80768573">
        <time>2022-07-07T14:12:13Z</time>
      </trkpt>
      <trkpt lat="41.79972" lon="0.8077054">
        <time>2022-07-07T14:12:14Z</time>
      </trkpt>
      <trkpt lat="41.7998" lon="0.80772275">
        <time>2022-07-07T14:12:15Z</time>
      </trkpt>
      <trkpt lat="41.799877" lon="0.8077374">
        <time>2022-07-07T14:12:16Z</time>
      </trkpt>
      <trkpt lat="41.799953" lon="0.80775106">
        <time>2022-07-07T14:12:17Z</time>
      </trkpt>
      <trkpt lat="41.800034" lon="0.8077657">
        <time>2022-07-07T14:12:18Z</time>
      </trkpt>
      <trkpt lat="41.80011" lon="0.80778205">
        <time>2022-07-07T14:12:19Z</time>
      </trkpt>
      <trkpt lat="41.800182" lon="0.80780137">
        <time>2022-07-07T14:12:20Z</time>
      </trkpt>
      <trkpt lat="41.800262" lon="0.8078237">
        <time>2022-07-07T14:12:21Z</time>
      </trkpt>
      <trkpt lat="41.800335" lon="0.8078447">
        <time>2022-07-07T14:12:22Z</time>
      </trkpt>
      <trkpt lat="41.800407" lon="0.8078664">
        <time>2022-07-07T14:12:23Z</time>
      </trkpt>
      <trkpt lat="41.80055" lon="0.80790204">
        <time>2022-07-07T14:12:25Z</time>
      </trkpt>
      <trkpt lat="41.800613" lon="0.80791634">
        <time>2022-07-07T14:12:26Z</time>
      </trkpt>
      <trkpt lat="41.80068" lon="0.80793136">
        <time>2022-07-07T14:12:27Z</time>
      </trkpt>
      <trkpt lat="41.800743" lon="0.8079467">
        <time>2022-07-07T14:12:28Z</time>
      </trkpt>
      <trkpt lat="41.80081" lon="0.807962">
        <time>2022-07-07T14:12:29Z</time>
      </trkpt>
      <trkpt lat="41.800877" lon="0.80797637">
        <time>2022-07-07T14:12:30Z</time>
      </trkpt>
      <trkpt lat="41.800938" lon="0.8079877">
        <time>2022-07-07T14:12:31Z</time>
      </trkpt>
      <trkpt lat="41.800995" lon="0.8079987">
        <time>2022-07-07T14:12:32Z</time>
      </trkpt>
      <trkpt lat="41.801056" lon="0.8080097">
        <time>2022-07-07T14:12:33Z</time>
      </trkpt>
      <trkpt lat="41.801117" lon="0.808022">
        <time>2022-07-07T14:12:34Z</time>
      </trkpt>
      <trkpt lat="41.801178" lon="0.8080327">
        <time>2022-07-07T14:12:35Z</time>
      </trkpt>
      <trkpt lat="41.80124" lon="0.808043">
        <time>2022-07-07T14:12:36Z</time>
      </trkpt>
      <trkpt lat="41.801296" lon="0.8080537">
        <time>2022-07-07T14:12:37Z</time>
      </trkpt>
      <trkpt lat="41.801357" lon="0.80806535">
        <time>2022-07-07T14:12:38Z</time>
      </trkpt>
      <trkpt lat="41.80142" lon="0.80807865">
        <time>2022-07-07T14:12:39Z</time>
      </trkpt>
      <trkpt lat="41.80148" lon="0.80809134">
        <time>2022-07-07T14:12:40Z</time>
      </trkpt>
      <trkpt lat="41.801537" lon="0.808105">
        <time>2022-07-07T14:12:41Z</time>
      </trkpt>
      <trkpt lat="41.801594" lon="0.8081183">
        <time>2022-07-07T14:12:42Z</time>
      </trkpt>
      <trkpt lat="41.801655" lon="0.80813265">
        <time>2022-07-07T14:12:43Z</time>
      </trkpt>
      <trkpt lat="41.801712" lon="0.8081463">
        <time>2022-07-07T14:12:44Z</time>
      </trkpt>
      <trkpt lat="41.801773" lon="0.8081593">
        <time>2022-07-07T14:12:45Z</time>
      </trkpt>
      <trkpt lat="41.80183" lon="0.8081713">
        <time>2022-07-07T14:12:46Z</time>
      </trkpt>
      <trkpt lat="41.80189" lon="0.80818295">
        <time>2022-07-07T14:12:47Z</time>
      </trkpt>
      <trkpt lat="41.80195" lon="0.8081956">
        <time>2022-07-07T14:12:48Z</time>
      </trkpt>
      <trkpt lat="41.80201" lon="0.80820763">
        <time>2022-07-07T14:12:49Z</time>
      </trkpt>
      <trkpt lat="41.802067" lon="0.8082196">
        <time>2022-07-07T14:12:50Z</time>
      </trkpt>
      <trkpt lat="41.802124" lon="0.8082313">
        <time>2022-07-07T14:12:51Z</time>
      </trkpt>
      <trkpt lat="41.802177" lon="0.80824393">
        <time>2022-07-07T14:12:52Z</time>
      </trkpt>
      <trkpt lat="41.802235" lon="0.80825794">
        <time>2022-07-07T14:12:53Z</time>
      </trkpt>
      <trkpt lat="41.802288" lon="0.80827326">
        <time>2022-07-07T14:12:54Z</time>
      </trkpt>
      <trkpt lat="41.80234" lon="0.80828995">
        <time>2022-07-07T14:12:55Z</time>
      </trkpt>
      <trkpt lat="41.802395" lon="0.8083076">
        <time>2022-07-07T14:12:56Z</time>
      </trkpt>
      <trkpt lat="41.802444" lon="0.8083283">
        <time>2022-07-07T14:12:57Z</time>
      </trkpt>
      <trkpt lat="41.802498" lon="0.8083516">
        <time>2022-07-07T14:12:58Z</time>
      </trkpt>
      <trkpt lat="41.802544" lon="0.80837524">
        <time>2022-07-07T14:12:59Z</time>
      </trkpt>
      <trkpt lat="41.80265" lon="0.80843455">
        <time>2022-07-07T14:13:01Z</time>
      </trkpt>
      <trkpt lat="41.8027" lon="0.80846524">
        <time>2022-07-07T14:13:02Z</time>
      </trkpt>
      <trkpt lat="41.80275" lon="0.8084959">
        <time>2022-07-07T14:13:03Z</time>
      </trkpt>
      <trkpt lat="41.8028" lon="0.8085249">
        <time>2022-07-07T14:13:04Z</time>
      </trkpt>
      <trkpt lat="41.802853" lon="0.8085519">
        <time>2022-07-07T14:13:05Z</time>
      </trkpt>
      <trkpt lat="41.802906" lon="0.8085765">
        <time>2022-07-07T14:13:06Z</time>
      </trkpt>
      <trkpt lat="41.80296" lon="0.80859923">
        <time>2022-07-07T14:13:07Z</time>
      </trkpt>
      <trkpt lat="41.803017" lon="0.80861956">
        <time>2022-07-07T14:13:08Z</time>
      </trkpt>
      <trkpt lat="41.803074" lon="0.80863553">
        <time>2022-07-07T14:13:09Z</time>
      </trkpt>
      <trkpt lat="41.80313" lon="0.8086472">
        <time>2022-07-07T14:13:10Z</time>
      </trkpt>
      <trkpt lat="41.80319" lon="0.8086525">
        <time>2022-07-07T14:13:11Z</time>
      </trkpt>
      <trkpt lat="41.80325" lon="0.8086515">
        <time>2022-07-07T14:13:12Z</time>
      </trkpt>
      <trkpt lat="41.803307" lon="0.80864686">
        <time>2022-07-07T14:13:13Z</time>
      </trkpt>
      <trkpt lat="41.803364" lon="0.80863786">
        <time>2022-07-07T14:13:14Z</time>
      </trkpt>
      <trkpt lat="41.803417" lon="0.80862623">
        <time>2022-07-07T14:13:15Z</time>
      </trkpt>
      <trkpt lat="41.803474" lon="0.8086129">
        <time>2022-07-07T14:13:16Z</time>
      </trkpt>
      <trkpt lat="41.803528" lon="0.80859923">
        <time>2022-07-07T14:13:17Z</time>
      </trkpt>
      <trkpt lat="41.803577" lon="0.80858487">
        <time>2022-07-07T14:13:18Z</time>
      </trkpt>
      <trkpt lat="41.803627" lon="0.80856925">
        <time>2022-07-07T14:13:19Z</time>
      </trkpt>
      <trkpt lat="41.803715" lon="0.8085359">
        <time>2022-07-07T14:13:21Z</time>
      </trkpt>
      <trkpt lat="41.803795" lon="0.80850255">
        <time>2022-07-07T14:13:23Z</time>
      </trkpt>
      <trkpt lat="41.803867" lon="0.8084709">
        <time>2022-07-07T14:13:25Z</time>
      </trkpt>
      <trkpt lat="41.803932" lon="0.80844194">
        <time>2022-07-07T14:13:27Z</time>
      </trkpt>
      <trkpt lat="41.80399" lon="0.8084106">
        <time>2022-07-07T14:13:29Z</time>
      </trkpt>
      <trkpt lat="41.804047" lon="0.80838126">
        <time>2022-07-07T14:13:31Z</time>
      </trkpt>
      <trkpt lat="41.8041" lon="0.80835325">
        <time>2022-07-07T14:13:33Z</time>
      </trkpt>
      <trkpt lat="41.80415" lon="0.80832326">
        <time>2022-07-07T14:13:35Z</time>
      </trkpt>
      <trkpt lat="41.804203" lon="0.8082932">
        <time>2022-07-07T14:13:37Z</time>
      </trkpt>
      <trkpt lat="41.804253" lon="0.80826324">
        <time>2022-07-07T14:13:39Z</time>
      </trkpt>
      <trkpt lat="41.804302" lon="0.80823225">
        <time>2022-07-07T14:13:41Z</time>
      </trkpt>
      <trkpt lat="41.804356" lon="0.80820227">
        <time>2022-07-07T14:13:43Z</time>
      </trkpt>
      <trkpt lat="41.80441" lon="0.80817324">
        <time>2022-07-07T14:13:45Z</time>
      </trkpt>
      <trkpt lat="41.80446" lon="0.8081452">
        <time>2022-07-07T14:13:47Z</time>
      </trkpt>
      <trkpt lat="41.80452" lon="0.8081179">
        <time>2022-07-07T14:13:49Z</time>
      </trkpt>
      <trkpt lat="41.80458" lon="0.8080886">
        <time>2022-07-07T14:13:51Z</time>
      </trkpt>
      <trkpt lat="41.804646" lon="0.80806124">
        <time>2022-07-07T14:13:53Z</time>
      </trkpt>
      <trkpt lat="41.80471" lon="0.80803525">
        <time>2022-07-07T14:13:55Z</time>
      </trkpt>
      <trkpt lat="41.80478" lon="0.8080086">
        <time>2022-07-07T14:13:57Z</time>
      </trkpt>
      <trkpt lat="41.804848" lon="0.80798197">
        <time>2022-07-07T14:13:59Z</time>
      </trkpt>
      <trkpt lat="41.804924" lon="0.8079559">
        <time>2022-07-07T14:14:01Z</time>
      </trkpt>
      <trkpt lat="41.804996" lon="0.80792993">
        <time>2022-07-07T14:14:03Z</time>
      </trkpt>
      <trkpt lat="41.805077" lon="0.8079043">
        <time>2022-07-07T14:14:05Z</time>
      </trkpt>
      <trkpt lat="41.805157" lon="0.80787826">
        <time>2022-07-07T14:14:07Z</time>
      </trkpt>
      <trkpt lat="41.805244" lon="0.80785096">
        <time>2022-07-07T14:14:09Z</time>
      </trkpt>
      <trkpt lat="41.805336" lon="0.8078233">
        <time>2022-07-07T14:14:11Z</time>
      </trkpt>
      <trkpt lat="41.80538" lon="0.8078083">
        <time>2022-07-07T14:14:12Z</time>
      </trkpt>
      <trkpt lat="41.805473" lon="0.80777997">
        <time>2022-07-07T14:14:14Z</time>
      </trkpt>
      <trkpt lat="41.80557" lon="0.8077493">
        <time>2022-07-07T14:14:16Z</time>
      </trkpt>
      <trkpt lat="41.805664" lon="0.807719">
        <time>2022-07-07T14:14:18Z</time>
      </trkpt>
      <trkpt lat="41.805763" lon="0.8076903">
        <time>2022-07-07T14:14:20Z</time>
      </trkpt>
      <trkpt lat="41.80587" lon="0.8076623">
        <time>2022-07-07T14:14:22Z</time>
      </trkpt>
      <trkpt lat="41.80592" lon="0.8076497">
        <time>2022-07-07T14:14:23Z</time>
      </trkpt>
      <trkpt lat="41.805973" lon="0.807637">
        <time>2022-07-07T14:14:24Z</time>
      </trkpt>
      <trkpt lat="41.80603" lon="0.80762464">
        <time>2022-07-07T14:14:25Z</time>
      </trkpt>
      <trkpt lat="41.806087" lon="0.80761135">
        <time>2022-07-07T14:14:26Z</time>
      </trkpt>
      <trkpt lat="41.806145" lon="0.80759865">
        <time>2022-07-07T14:14:27Z</time>
      </trkpt>
      <trkpt lat="41.806202" lon="0.8075873">
        <time>2022-07-07T14:14:28Z</time>
      </trkpt>
      <trkpt lat="41.80625" lon="0.807576">
        <time>2022-07-07T14:14:29Z</time>
      </trkpt>
      <trkpt lat="41.80631" lon="0.807564">
        <time>2022-07-07T14:14:30Z</time>
      </trkpt>
      <trkpt lat="41.80637" lon="0.8075513">
        <time>2022-07-07T14:14:31Z</time>
      </trkpt>
      <trkpt lat="41.80643" lon="0.8075387">
        <time>2022-07-07T14:14:32Z</time>
      </trkpt>
      <trkpt lat="41.8065" lon="0.8075257">
        <time>2022-07-07T14:14:33Z</time>
      </trkpt>
      <trkpt lat="41.806564" lon="0.80751336">
        <time>2022-07-07T14:14:34Z</time>
      </trkpt>
      <trkpt lat="41.806625" lon="0.8075027">
        <time>2022-07-07T14:14:35Z</time>
      </trkpt>
      <trkpt lat="41.806694" lon="0.8074927">
        <time>2022-07-07T14:14:36Z</time>
      </trkpt>
      <trkpt lat="41.80676" lon="0.80748236">
        <time>2022-07-07T14:14:37Z</time>
      </trkpt>
      <trkpt lat="41.806828" lon="0.8074704">
        <time>2022-07-07T14:14:38Z</time>
      </trkpt>
      <trkpt lat="41.80689" lon="0.80745834">
        <time>2022-07-07T14:14:39Z</time>
      </trkpt>
      <trkpt lat="41.806953" lon="0.8074467">
        <time>2022-07-07T14:14:40Z</time>
      </trkpt>
      <trkpt lat="41.807087" lon="0.8074204">
        <time>2022-07-07T14:14:42Z</time>
      </trkpt>
      <trkpt lat="41.80715" lon="0.8074074">
        <time>2022-07-07T14:14:43Z</time>
      </trkpt>
      <trkpt lat="41.807217" lon="0.8073927">
        <time>2022-07-07T14:14:44Z</time>
      </trkpt>
      <trkpt lat="41.80728" lon="0.80737936">
        <time>2022-07-07T14:14:45Z</time>
      </trkpt>
      <trkpt lat="41.807343" lon="0.8073647">
        <time>2022-07-07T14:14:46Z</time>
      </trkpt>
      <trkpt lat="41.807404" lon="0.80734605">
        <time>2022-07-07T14:14:47Z</time>
      </trkpt>
      <trkpt lat="41.80746" lon="0.8073231">
        <time>2022-07-07T14:14:48Z</time>
      </trkpt>
      <trkpt lat="41.807518" lon="0.8072954">
        <time>2022-07-07T14:14:49Z</time>
      </trkpt>
      <trkpt lat="41.807575" lon="0.80726343">
        <time>2022-07-07T14:14:50Z</time>
      </trkpt>
      <trkpt lat="41.807625" lon="0.8072264">
        <time>2022-07-07T14:14:51Z</time>
      </trkpt>
      <trkpt lat="41.807674" lon="0.8071854">
        <time>2022-07-07T14:14:52Z</time>
      </trkpt>
      <trkpt lat="41.807724" lon="0.80714077">
        <time>2022-07-07T14:14:53Z</time>
      </trkpt>
      <trkpt lat="41.80777" lon="0.80709374">
        <time>2022-07-07T14:14:54Z</time>
      </trkpt>
      <trkpt lat="41.80781" lon="0.8070441">
        <time>2022-07-07T14:14:55Z</time>
      </trkpt>
      <trkpt lat="41.807858" lon="0.80699277">
        <time>2022-07-07T14:14:56Z</time>
      </trkpt>
      <trkpt lat="41.8079" lon="0.80694044">
        <time>2022-07-07T14:14:57Z</time>
      </trkpt>
      <trkpt lat="41.807938" lon="0.8068884">
        <time>2022-07-07T14:14:58Z</time>
      </trkpt>
      <trkpt lat="41.80798" lon="0.8068368">
        <time>2022-07-07T14:14:59Z</time>
      </trkpt>
      <trkpt lat="41.808018" lon="0.80678576">
        <time>2022-07-07T14:15:00Z</time>
      </trkpt>
      <trkpt lat="41.808052" lon="0.80673444">
        <time>2022-07-07T14:15:01Z</time>
      </trkpt>
      <trkpt lat="41.80809" lon="0.8066834">
        <time>2022-07-07T14:15:02Z</time>
      </trkpt>
      <trkpt lat="41.80813" lon="0.8066298">
        <time>2022-07-07T14:15:03Z</time>
      </trkpt>
      <trkpt lat="41.808167" lon="0.80657613">
        <time>2022-07-07T14:15:04Z</time>
      </trkpt>
      <trkpt lat="41.808205" lon="0.8065241">
        <time>2022-07-07T14:15:05Z</time>
      </trkpt>
      <trkpt lat="41.808243" lon="0.8064738">
        <time>2022-07-07T14:15:06Z</time>
      </trkpt>
      <trkpt lat="41.808277" lon="0.8064248">
        <time>2022-07-07T14:15:07Z</time>
      </trkpt>
      <trkpt lat="41.808315" lon="0.8063771">
        <time>2022-07-07T14:15:08Z</time>
      </trkpt>
      <trkpt lat="41.808384" lon="0.8062841">
        <time>2022-07-07T14:15:10Z</time>
      </trkpt>
      <trkpt lat="41.808453" lon="0.8062018">
        <time>2022-07-07T14:15:12Z</time>
      </trkpt>
      <trkpt lat="41.808525" lon="0.8061208">
        <time>2022-07-07T14:15:14Z</time>
      </trkpt>
      <trkpt lat="41.808594" lon="0.8060458">
        <time>2022-07-07T14:15:16Z</time>
      </trkpt>
      <trkpt lat="41.80866" lon="0.8059748">
        <time>2022-07-07T14:15:18Z</time>
      </trkpt>
      <trkpt lat="41.80873" lon="0.80590117">
        <time>2022-07-07T14:15:20Z</time>
      </trkpt>
      <trkpt lat="41.808807" lon="0.8058318">
        <time>2022-07-07T14:15:22Z</time>
      </trkpt>
      <trkpt lat="41.808884" lon="0.8057648">
        <time>2022-07-07T14:15:24Z</time>
      </trkpt>
      <trkpt lat="41.808918" lon="0.8057352">
        <time>2022-07-07T14:15:25Z</time>
      </trkpt>
      <trkpt lat="41.80899" lon="0.8056772">
        <time>2022-07-07T14:15:27Z</time>
      </trkpt>
      <trkpt lat="41.80906" lon="0.8056228">
        <time>2022-07-07T14:15:29Z</time>
      </trkpt>
      <trkpt lat="41.80913" lon="0.8055715">
        <time>2022-07-07T14:15:31Z</time>
      </trkpt>
      <trkpt lat="41.809204" lon="0.80552113">
        <time>2022-07-07T14:15:33Z</time>
      </trkpt>
      <trkpt lat="41.809273" lon="0.8054698">
        <time>2022-07-07T14:15:35Z</time>
      </trkpt>
      <trkpt lat="41.809345" lon="0.8054212">
        <time>2022-07-07T14:15:37Z</time>
      </trkpt>
      <trkpt lat="41.809414" lon="0.8053772">
        <time>2022-07-07T14:15:39Z</time>
      </trkpt>
      <trkpt lat="41.80948" lon="0.80533516">
        <time>2022-07-07T14:15:41Z</time>
      </trkpt>
      <trkpt lat="41.809544" lon="0.80529314">
        <time>2022-07-07T14:15:43Z</time>
      </trkpt>
      <trkpt lat="41.8096" lon="0.80525416">
        <time>2022-07-07T14:15:45Z</time>
      </trkpt>
      <trkpt lat="41.80969" lon="0.80519485">
        <time>2022-07-07T14:15:48Z</time>
      </trkpt>
      <trkpt lat="41.809742" lon="0.80516016">
        <time>2022-07-07T14:15:50Z</time>
      </trkpt>
      <trkpt lat="41.8098" lon="0.80512315">
        <time>2022-07-07T14:15:52Z</time>
      </trkpt>
      <trkpt lat="41.809856" lon="0.8050885">
        <time>2022-07-07T14:15:54Z</time>
      </trkpt>
      <trkpt lat="41.809906" lon="0.80505854">
        <time>2022-07-07T14:15:56Z</time>
      </trkpt>
      <trkpt lat="41.809956" lon="0.8050325">
        <time>2022-07-07T14:15:58Z</time>
      </trkpt>
      <trkpt lat="41.81" lon="0.8050092">
        <time>2022-07-07T14:16:00Z</time>
      </trkpt>
      <trkpt lat="41.81006" lon="0.8049882">
        <time>2022-07-07T14:16:03Z</time>
      </trkpt>
      <trkpt lat="41.810143" lon="0.8049395">
        <time>2022-07-07T14:16:53Z</time>
      </trkpt>
      <trkpt lat="41.810196" lon="0.8049135">
        <time>2022-07-07T14:16:55Z</time>
      </trkpt>
      <trkpt lat="41.81027" lon="0.8048832">
        <time>2022-07-07T14:16:57Z</time>
      </trkpt>
      <trkpt lat="41.810352" lon="0.80484986">
        <time>2022-07-07T14:16:59Z</time>
      </trkpt>
      <trkpt lat="41.810432" lon="0.80482286">
        <time>2022-07-07T14:17:01Z</time>
      </trkpt>
      <trkpt lat="41.810513" lon="0.80479956">
        <time>2022-07-07T14:17:03Z</time>
      </trkpt>
      <trkpt lat="41.810593" lon="0.80477923">
        <time>2022-07-07T14:17:05Z</time>
      </trkpt>
      <trkpt lat="41.810677" lon="0.8047615">
        <time>2022-07-07T14:17:07Z</time>
      </trkpt>
      <trkpt lat="41.81076" lon="0.80474824">
        <time>2022-07-07T14:17:09Z</time>
      </trkpt>
      <trkpt lat="41.810844" lon="0.80473655">
        <time>2022-07-07T14:17:11Z</time>
      </trkpt>
      <trkpt lat="41.810936" lon="0.8047256">
        <time>2022-07-07T14:17:13Z</time>
      </trkpt>
      <trkpt lat="41.811024" lon="0.8047109">
        <time>2022-07-07T14:17:15Z</time>
      </trkpt>
      <trkpt lat="41.81111" lon="0.80469555">
        <time>2022-07-07T14:17:17Z</time>
      </trkpt>
      <trkpt lat="41.8112" lon="0.80468225">
        <time>2022-07-07T14:17:19Z</time>
      </trkpt>
      <trkpt lat="41.811283" lon="0.8046712">
        <time>2022-07-07T14:17:21Z</time>
      </trkpt>
      <trkpt lat="41.811375" lon="0.8046586">
        <time>2022-07-07T14:17:23Z</time>
      </trkpt>
      <trkpt lat="41.811462" lon="0.8046456">
        <time>2022-07-07T14:17:25Z</time>
      </trkpt>
      <trkpt lat="41.811554" lon="0.8046299">
        <time>2022-07-07T14:17:27Z</time>
      </trkpt>
      <trkpt lat="41.81164" lon="0.80461127">
        <time>2022-07-07T14:17:29Z</time>
      </trkpt>
      <trkpt lat="41.811726" lon="0.8045879">
        <time>2022-07-07T14:17:31Z</time>
      </trkpt>
      <trkpt lat="41.811813" lon="0.80455893">
        <time>2022-07-07T14:17:33Z</time>
      </trkpt>
      <trkpt lat="41.8119" lon="0.80452293">
        <time>2022-07-07T14:17:35Z</time>
      </trkpt>
      <trkpt lat="41.81198" lon="0.8044856">
        <time>2022-07-07T14:17:37Z</time>
      </trkpt>
      <trkpt lat="41.812065" lon="0.8044446">
        <time>2022-07-07T14:17:39Z</time>
      </trkpt>
      <trkpt lat="41.812153" lon="0.80440027">
        <time>2022-07-07T14:17:41Z</time>
      </trkpt>
      <trkpt lat="41.812233" lon="0.8043576">
        <time>2022-07-07T14:17:43Z</time>
      </trkpt>
      <trkpt lat="41.812317" lon="0.80431026">
        <time>2022-07-07T14:17:45Z</time>
      </trkpt>
      <trkpt lat="41.8124" lon="0.8042673">
        <time>2022-07-07T14:17:47Z</time>
      </trkpt>
      <trkpt lat="41.812485" lon="0.80422693">
        <time>2022-07-07T14:17:49Z</time>
      </trkpt>
      <trkpt lat="41.81257" lon="0.80418926">
        <time>2022-07-07T14:17:51Z</time>
      </trkpt>
      <trkpt lat="41.812653" lon="0.804154">
        <time>2022-07-07T14:17:53Z</time>
      </trkpt>
      <trkpt lat="41.81274" lon="0.8041213">
        <time>2022-07-07T14:17:55Z</time>
      </trkpt>
      <trkpt lat="41.812828" lon="0.804092">
        <time>2022-07-07T14:17:57Z</time>
      </trkpt>
      <trkpt lat="41.812958" lon="0.80406266">
        <time>2022-07-07T14:18:00Z</time>
      </trkpt>
      <trkpt lat="41.813046" lon="0.80405265">
        <time>2022-07-07T14:18:02Z</time>
      </trkpt>
      <trkpt lat="41.81313" lon="0.8040493">
        <time>2022-07-07T14:18:04Z</time>
      </trkpt>
      <trkpt lat="41.81322" lon="0.8040493">
        <time>2022-07-07T14:18:06Z</time>
      </trkpt>
      <trkpt lat="41.81331" lon="0.8040493">
        <time>2022-07-07T14:18:08Z</time>
      </trkpt>
      <trkpt lat="41.813396" lon="0.804051">
        <time>2022-07-07T14:18:10Z</time>
      </trkpt>
      <trkpt lat="41.813488" lon="0.8040533">
        <time>2022-07-07T14:18:12Z</time>
      </trkpt>
      <trkpt lat="41.813576" lon="0.8040553">
        <time>2022-07-07T14:18:14Z</time>
      </trkpt>
      <trkpt lat="41.813667" lon="0.8040573">
        <time>2022-07-07T14:18:16Z</time>
      </trkpt>
      <trkpt lat="41.81371" lon="0.8040573">
        <time>2022-07-07T14:18:17Z</time>
      </trkpt>
      <trkpt lat="41.8138" lon="0.8040546">
        <time>2022-07-07T14:18:19Z</time>
      </trkpt>
      <trkpt lat="41.813885" lon="0.804053">
        <time>2022-07-07T14:18:21Z</time>
      </trkpt>
      <trkpt lat="41.813972" lon="0.804052">
        <time>2022-07-07T14:18:23Z</time>
      </trkpt>
      <trkpt lat="41.814056" lon="0.80404997">
        <time>2022-07-07T14:18:25Z</time>
      </trkpt>
      <trkpt lat="41.814137" lon="0.804046">
        <time>2022-07-07T14:18:27Z</time>
      </trkpt>
      <trkpt lat="41.814217" lon="0.80404365">
        <time>2022-07-07T14:18:29Z</time>
      </trkpt>
      <trkpt lat="41.814297" lon="0.8040457">
        <time>2022-07-07T14:18:31Z</time>
      </trkpt>
      <trkpt lat="41.81437" lon="0.8040473">
        <time>2022-07-07T14:18:33Z</time>
      </trkpt>
      <trkpt lat="41.814438" lon="0.80404997">
        <time>2022-07-07T14:18:35Z</time>
      </trkpt>
      <trkpt lat="41.814507" lon="0.80404866">
        <time>2022-07-07T14:18:37Z</time>
      </trkpt>
      <trkpt lat="41.81457" lon="0.80404663">
        <time>2022-07-07T14:18:39Z</time>
      </trkpt>
      <trkpt lat="41.814636" lon="0.804044">
        <time>2022-07-07T14:18:41Z</time>
      </trkpt>
      <trkpt lat="41.814693" lon="0.80403996">
        <time>2022-07-07T14:18:43Z</time>
      </trkpt>
      <trkpt lat="41.814754" lon="0.804038">
        <time>2022-07-07T14:18:45Z</time>
      </trkpt>
      <trkpt lat="41.814816" lon="0.804038">
        <time>2022-07-07T14:18:47Z</time>
      </trkpt>
      <trkpt lat="41.814873" lon="0.8040403">
        <time>2022-07-07T14:18:49Z</time>
      </trkpt>
      <trkpt lat="41.814934" lon="0.80404365">
        <time>2022-07-07T14:18:51Z</time>
      </trkpt>
      <trkpt lat="41.814995" lon="0.804046">
        <time>2022-07-07T14:18:53Z</time>
      </trkpt>
      <trkpt lat="41.815056" lon="0.8040443">
        <time>2022-07-07T14:18:55Z</time>
      </trkpt>
      <trkpt lat="41.815117" lon="0.8040416">
        <time>2022-07-07T14:18:57Z</time>
      </trkpt>
      <trkpt lat="41.815178" lon="0.80404097">
        <time>2022-07-07T14:18:59Z</time>
      </trkpt>
      <trkpt lat="41.81524" lon="0.8040407">
        <time>2022-07-07T14:19:01Z</time>
      </trkpt>
      <trkpt lat="41.8153" lon="0.80404234">
        <time>2022-07-07T14:19:03Z</time>
      </trkpt>
      <trkpt lat="41.81536" lon="0.804046">
        <time>2022-07-07T14:19:05Z</time>
      </trkpt>
      <trkpt lat="41.815426" lon="0.804051">
        <time>2022-07-07T14:19:07Z</time>
      </trkpt>
      <trkpt lat="41.81549" lon="0.8040543">
        <time>2022-07-07T14:19:09Z</time>
      </trkpt>
      <trkpt lat="41.81556" lon="0.80405766">
        <time>2022-07-07T14:19:11Z</time>
      </trkpt>
      <trkpt lat="41.815624" lon="0.8040596">
        <time>2022-07-07T14:19:13Z</time>
      </trkpt>
      <trkpt lat="41.81569" lon="0.8040613">
        <time>2022-07-07T14:19:15Z</time>
      </trkpt>
      <trkpt lat="41.815754" lon="0.8040623">
        <time>2022-07-07T14:19:17Z</time>
      </trkpt>
      <trkpt lat="41.815823" lon="0.8040643">
        <time>2022-07-07T14:19:19Z</time>
      </trkpt>
      <trkpt lat="41.815895" lon="0.8040653">
        <time>2022-07-07T14:19:21Z</time>
      </trkpt>
      <trkpt lat="41.815968" lon="0.8040663">
        <time>2022-07-07T14:19:23Z</time>
      </trkpt>
      <trkpt lat="41.816044" lon="0.80406696">
        <time>2022-07-07T14:19:25Z</time>
      </trkpt>
      <trkpt lat="41.81612" lon="0.80406696">
        <time>2022-07-07T14:19:27Z</time>
      </trkpt>
      <trkpt lat="41.8162" lon="0.8040686">
        <time>2022-07-07T14:19:29Z</time>
      </trkpt>
      <trkpt lat="41.816284" lon="0.80407226">
        <time>2022-07-07T14:19:31Z</time>
      </trkpt>
      <trkpt lat="41.81637" lon="0.80407596">
        <time>2022-07-07T14:19:33Z</time>
      </trkpt>
      <trkpt lat="41.816452" lon="0.8040783">
        <time>2022-07-07T14:19:35Z</time>
      </trkpt>
      <trkpt lat="41.816544" lon="0.8040809">
        <time>2022-07-07T14:19:37Z</time>
      </trkpt>
      <trkpt lat="41.816628" lon="0.8040806">
        <time>2022-07-07T14:19:39Z</time>
      </trkpt>
      <trkpt lat="41.816715" lon="0.8040823">
        <time>2022-07-07T14:19:41Z</time>
      </trkpt>
      <trkpt lat="41.816795" lon="0.80408394">
        <time>2022-07-07T14:19:43Z</time>
      </trkpt>
      <trkpt lat="41.816883" lon="0.80408525">
        <time>2022-07-07T14:19:45Z</time>
      </trkpt>
      <trkpt lat="41.816967" lon="0.80408657">
        <time>2022-07-07T14:19:47Z</time>
      </trkpt>
      <trkpt lat="41.817047" lon="0.8040872">
        <time>2022-07-07T14:19:49Z</time>
      </trkpt>
      <trkpt lat="41.81713" lon="0.8040876">
        <time>2022-07-07T14:19:51Z</time>
      </trkpt>
      <trkpt lat="41.817215" lon="0.8040876">
        <time>2022-07-07T14:19:53Z</time>
      </trkpt>
      <trkpt lat="41.8173" lon="0.80408823">
        <time>2022-07-07T14:19:55Z</time>
      </trkpt>
      <trkpt lat="41.817387" lon="0.8040902">
        <time>2022-07-07T14:19:57Z</time>
      </trkpt>
      <trkpt lat="41.817474" lon="0.8040926">
        <time>2022-07-07T14:19:59Z</time>
      </trkpt>
      <trkpt lat="41.817566" lon="0.8040922">
        <time>2022-07-07T14:20:01Z</time>
      </trkpt>
      <trkpt lat="41.817657" lon="0.8040929">
        <time>2022-07-07T14:20:03Z</time>
      </trkpt>
      <trkpt lat="41.817703" lon="0.8040929">
        <time>2022-07-07T14:20:04Z</time>
      </trkpt>
      <trkpt lat="41.81779" lon="0.8040916">
        <time>2022-07-07T14:20:06Z</time>
      </trkpt>
      <trkpt lat="41.817875" lon="0.80408823">
        <time>2022-07-07T14:20:08Z</time>
      </trkpt>
      <trkpt lat="41.817955" lon="0.80408025">
        <time>2022-07-07T14:20:10Z</time>
      </trkpt>
      <trkpt lat="41.81803" lon="0.8040706">
        <time>2022-07-07T14:20:12Z</time>
      </trkpt>
      <trkpt lat="41.818108" lon="0.80405927">
        <time>2022-07-07T14:20:14Z</time>
      </trkpt>
      <trkpt lat="41.818184" lon="0.8040419">
        <time>2022-07-07T14:20:16Z</time>
      </trkpt>
      <trkpt lat="41.818256" lon="0.80402493">
        <time>2022-07-07T14:20:18Z</time>
      </trkpt>
      <trkpt lat="41.818333" lon="0.8040076">
        <time>2022-07-07T14:20:20Z</time>
      </trkpt>
      <trkpt lat="41.818405" lon="0.8039883">
        <time>2022-07-07T14:20:22Z</time>
      </trkpt>
      <trkpt lat="41.81848" lon="0.80396724">
        <time>2022-07-07T14:20:24Z</time>
      </trkpt>
      <trkpt lat="41.81855" lon="0.8039459">
        <time>2022-07-07T14:20:26Z</time>
      </trkpt>
      <trkpt lat="41.818615" lon="0.8039236">
        <time>2022-07-07T14:20:28Z</time>
      </trkpt>
      <trkpt lat="41.818684" lon="0.80389994">
        <time>2022-07-07T14:20:30Z</time>
      </trkpt>
      <trkpt lat="41.81875" lon="0.8038776">
        <time>2022-07-07T14:20:32Z</time>
      </trkpt>
      <trkpt lat="41.818813" lon="0.80385596">
        <time>2022-07-07T14:20:34Z</time>
      </trkpt>
      <trkpt lat="41.818874" lon="0.8038376">
        <time>2022-07-07T14:20:36Z</time>
      </trkpt>
      <trkpt lat="41.81894" lon="0.80381763">
        <time>2022-07-07T14:20:38Z</time>
      </trkpt>
      <trkpt lat="41.819004" lon="0.80379593">
        <time>2022-07-07T14:20:40Z</time>
      </trkpt>
      <trkpt lat="41.81907" lon="0.8037729">
        <time>2022-07-07T14:20:42Z</time>
      </trkpt>
      <trkpt lat="41.819134" lon="0.80375165">
        <time>2022-07-07T14:20:44Z</time>
      </trkpt>
      <trkpt lat="41.819202" lon="0.803728">
        <time>2022-07-07T14:20:46Z</time>
      </trkpt>
      <trkpt lat="41.81927" lon="0.80370295">
        <time>2022-07-07T14:20:48Z</time>
      </trkpt>
      <trkpt lat="41.819336" lon="0.803679">
        <time>2022-07-07T14:20:50Z</time>
      </trkpt>
      <trkpt lat="41.8194" lon="0.80365366">
        <time>2022-07-07T14:20:52Z</time>
      </trkpt>
      <trkpt lat="41.81946" lon="0.8036293">
        <time>2022-07-07T14:20:54Z</time>
      </trkpt>
      <trkpt lat="41.819523" lon="0.803616">
        <time>2022-07-07T14:20:56Z</time>
      </trkpt>
      <trkpt lat="41.819588" lon="0.80361897">
        <time>2022-07-07T14:20:58Z</time>
      </trkpt>
      <trkpt lat="41.819645" lon="0.8036433">
        <time>2022-07-07T14:21:00Z</time>
      </trkpt>
      <trkpt lat="41.819695" lon="0.8036956">
        <time>2022-07-07T14:21:02Z</time>
      </trkpt>
      <trkpt lat="41.81973" lon="0.8037703">
        <time>2022-07-07T14:21:04Z</time>
      </trkpt>
      <trkpt lat="41.81975" lon="0.8038743">
        <time>2022-07-07T14:21:06Z</time>
      </trkpt>
      <trkpt lat="41.819763" lon="0.8040056">
        <time>2022-07-07T14:21:08Z</time>
      </trkpt>
      <trkpt lat="41.819775" lon="0.8040806">
        <time>2022-07-07T14:21:09Z</time>
      </trkpt>
      <trkpt lat="41.81979" lon="0.8041589">
        <time>2022-07-07T14:21:10Z</time>
      </trkpt>
      <trkpt lat="41.819805" lon="0.80423826">
        <time>2022-07-07T14:21:11Z</time>
      </trkpt>
      <trkpt lat="41.819828" lon="0.8043173">
        <time>2022-07-07T14:21:12Z</time>
      </trkpt>
      <trkpt lat="41.81985" lon="0.8043956">
        <time>2022-07-07T14:21:13Z</time>
      </trkpt>
      <trkpt lat="41.819878" lon="0.80447197">
        <time>2022-07-07T14:21:14Z</time>
      </trkpt>
      <trkpt lat="41.81991" lon="0.80454427">
        <time>2022-07-07T14:21:15Z</time>
      </trkpt>
      <trkpt lat="41.81994" lon="0.8046106">
        <time>2022-07-07T14:21:16Z</time>
      </trkpt>
      <trkpt lat="41.81997" lon="0.8046713">
        <time>2022-07-07T14:21:17Z</time>
      </trkpt>
      <trkpt lat="41.820004" lon="0.8047269">
        <time>2022-07-07T14:21:18Z</time>
      </trkpt>
      <trkpt lat="41.820076" lon="0.8048282">
        <time>2022-07-07T14:21:20Z</time>
      </trkpt>
      <trkpt lat="41.820114" lon="0.8048796">
        <time>2022-07-07T14:21:21Z</time>
      </trkpt>
      <trkpt lat="41.82015" lon="0.80493027">
        <time>2022-07-07T14:21:22Z</time>
      </trkpt>
      <trkpt lat="41.820183" lon="0.8049819">
        <time>2022-07-07T14:21:23Z</time>
      </trkpt>
      <trkpt lat="41.820244" lon="0.8050796">
        <time>2022-07-07T14:21:25Z</time>
      </trkpt>
      <trkpt lat="41.820305" lon="0.8051802">
        <time>2022-07-07T14:21:27Z</time>
      </trkpt>
      <trkpt lat="41.82033" lon="0.8052259">
        <time>2022-07-07T14:21:28Z</time>
      </trkpt>
      <trkpt lat="41.82038" lon="0.80532086">
        <time>2022-07-07T14:21:30Z</time>
      </trkpt>
      <trkpt lat="41.820427" lon="0.8054049">
        <time>2022-07-07T14:21:32Z</time>
      </trkpt>
      <trkpt lat="41.820465" lon="0.80548453">
        <time>2022-07-07T14:21:34Z</time>
      </trkpt>
      <trkpt lat="41.82049" lon="0.8055682">
        <time>2022-07-07T14:21:36Z</time>
      </trkpt>
      <trkpt lat="41.820503" lon="0.80566055">
        <time>2022-07-07T14:21:38Z</time>
      </trkpt>
      <trkpt lat="41.8205" lon="0.8057539">
        <time>2022-07-07T14:21:40Z</time>
      </trkpt>
      <trkpt lat="41.820488" lon="0.8058482">
        <time>2022-07-07T14:21:42Z</time>
      </trkpt>
      <trkpt lat="41.82047" lon="0.8059532">
        <time>2022-07-07T14:21:44Z</time>
      </trkpt>
      <trkpt lat="41.82045" lon="0.8060655">
        <time>2022-07-07T14:21:46Z</time>
      </trkpt>
      <trkpt lat="41.820435" lon="0.80617654">
        <time>2022-07-07T14:21:48Z</time>
      </trkpt>
      <trkpt lat="41.82042" lon="0.8062882">
        <time>2022-07-07T14:21:50Z</time>
      </trkpt>
      <trkpt lat="41.820404" lon="0.80639815">
        <time>2022-07-07T14:21:52Z</time>
      </trkpt>
      <trkpt lat="41.820374" lon="0.8065095">
        <time>2022-07-07T14:21:54Z</time>
      </trkpt>
      <trkpt lat="41.82034" lon="0.80660516">
        <time>2022-07-07T14:21:56Z</time>
      </trkpt>
      <trkpt lat="41.82031" lon="0.8066975">
        <time>2022-07-07T14:21:58Z</time>
      </trkpt>
      <trkpt lat="41.820274" lon="0.80678314">
        <time>2022-07-07T14:22:00Z</time>
      </trkpt>
      <trkpt lat="41.82026" lon="0.80684716">
        <time>2022-07-07T14:22:02Z</time>
      </trkpt>
      <trkpt lat="41.820236" lon="0.80683017">
        <time>2022-07-07T14:22:08Z</time>
      </trkpt>
      <trkpt lat="41.82017" lon="0.80677485">
        <time>2022-07-07T14:22:12Z</time>
      </trkpt>
      <trkpt lat="41.820126" lon="0.8067535">
        <time>2022-07-07T14:22:14Z</time>
      </trkpt>
      <trkpt lat="41.820045" lon="0.8067245">
        <time>2022-07-07T14:22:17Z</time>
      </trkpt>
      <trkpt lat="41.819992" lon="0.8067055">
        <time>2022-07-07T14:22:19Z</time>
      </trkpt>
      <trkpt lat="41.819935" lon="0.8066855">
        <time>2022-07-07T14:22:21Z</time>
      </trkpt>
      <trkpt lat="41.819878" lon="0.8066662">
        <time>2022-07-07T14:22:23Z</time>
      </trkpt>
      <trkpt lat="41.819824" lon="0.8066522">
        <time>2022-07-07T14:22:25Z</time>
      </trkpt>
      <trkpt lat="41.819756" lon="0.8066495">
        <time>2022-07-07T14:22:28Z</time>
      </trkpt>
      <trkpt lat="41.819702" lon="0.8066855">
        <time>2022-07-07T14:22:31Z</time>
      </trkpt>
      <trkpt lat="41.81966" lon="0.8067512">
        <time>2022-07-07T14:22:34Z</time>
      </trkpt>
      <trkpt lat="41.81962" lon="0.8068515">
        <time>2022-07-07T14:22:37Z</time>
      </trkpt>
      <trkpt lat="41.81957" lon="0.80691016">
        <time>2022-07-07T14:22:39Z</time>
      </trkpt>
      <trkpt lat="41.819508" lon="0.80693316">
        <time>2022-07-07T14:22:41Z</time>
      </trkpt>
      <trkpt lat="41.819447" lon="0.80692816">
        <time>2022-07-07T14:22:43Z</time>
      </trkpt>
      <trkpt lat="41.819378" lon="0.8069058">
        <time>2022-07-07T14:22:45Z</time>
      </trkpt>
      <trkpt lat="41.819313" lon="0.8068815">
        <time>2022-07-07T14:22:47Z</time>
      </trkpt>
      <trkpt lat="41.81925" lon="0.8068622">
        <time>2022-07-07T14:22:49Z</time>
      </trkpt>
      <trkpt lat="41.81919" lon="0.8068465">
        <time>2022-07-07T14:22:51Z</time>
      </trkpt>
      <trkpt lat="41.819134" lon="0.80683815">
        <time>2022-07-07T14:22:53Z</time>
      </trkpt>
      <trkpt lat="41.819084" lon="0.8068475">
        <time>2022-07-07T14:22:55Z</time>
      </trkpt>
      <trkpt lat="41.819023" lon="0.80690217">
        <time>2022-07-07T14:22:58Z</time>
      </trkpt>
      <trkpt lat="41.818977" lon="0.8070065">
        <time>2022-07-07T14:23:01Z</time>
      </trkpt>
      <trkpt lat="41.81895" lon="0.8070955">
        <time>2022-07-07T14:23:03Z</time>
      </trkpt>
      <trkpt lat="41.818924" lon="0.80718714">
        <time>2022-07-07T14:23:05Z</time>
      </trkpt>
      <trkpt lat="41.8189" lon="0.80728984">
        <time>2022-07-07T14:23:07Z</time>
      </trkpt>
      <trkpt lat="41.818874" lon="0.80740047">
        <time>2022-07-07T14:23:09Z</time>
      </trkpt>
      <trkpt lat="41.818844" lon="0.8075188">
        <time>2022-07-07T14:23:11Z</time>
      </trkpt>
      <trkpt lat="41.818825" lon="0.8075848">
        <time>2022-07-07T14:23:12Z</time>
      </trkpt>
      <trkpt lat="41.818806" lon="0.80764514">
        <time>2022-07-07T14:23:13Z</time>
      </trkpt>
      <trkpt lat="41.818768" lon="0.8077651">
        <time>2022-07-07T14:23:15Z</time>
      </trkpt>
      <trkpt lat="41.81875" lon="0.80782515">
        <time>2022-07-07T14:23:16Z</time>
      </trkpt>
      <trkpt lat="41.818714" lon="0.80793744">
        <time>2022-07-07T14:23:18Z</time>
      </trkpt>
      <trkpt lat="41.81868" lon="0.80803216">
        <time>2022-07-07T14:23:20Z</time>
      </trkpt>
      <trkpt lat="41.818653" lon="0.80809647">
        <time>2022-07-07T14:23:22Z</time>
      </trkpt>
      <trkpt lat="41.81863" lon="0.80813813">
        <time>2022-07-07T14:23:51Z</time>
      </trkpt>
      <trkpt lat="41.81869" lon="0.8081838">
        <time>2022-07-07T14:24:11Z</time>
      </trkpt>
      <trkpt lat="41.81875" lon="0.80819446">
        <time>2022-07-07T14:24:13Z</time>
      </trkpt>
      <trkpt lat="41.818813" lon="0.8082031">
        <time>2022-07-07T14:24:15Z</time>
      </trkpt>
      <trkpt lat="41.81888" lon="0.8082098">
        <time>2022-07-07T14:24:17Z</time>
      </trkpt>
      <trkpt lat="41.81894" lon="0.8082071">
        <time>2022-07-07T14:24:19Z</time>
      </trkpt>
      <trkpt lat="41.819" lon="0.8082018">
        <time>2022-07-07T14:24:21Z</time>
      </trkpt>
      <trkpt lat="41.819054" lon="0.8081961">
        <time>2022-07-07T14:24:23Z</time>
      </trkpt>
      <trkpt lat="41.819107" lon="0.8081881">
        <time>2022-07-07T14:24:25Z</time>
      </trkpt>
      <trkpt lat="41.81916" lon="0.80818045">
        <time>2022-07-07T14:24:27Z</time>
      </trkpt>
      <trkpt lat="41.819214" lon="0.80817515">
        <time>2022-07-07T14:24:29Z</time>
      </trkpt>
      <trkpt lat="41.819267" lon="0.8081708">
        <time>2022-07-07T14:24:31Z</time>
      </trkpt>
      <trkpt lat="41.81932" lon="0.8081658">
        <time>2022-07-07T14:24:33Z</time>
      </trkpt>
      <trkpt lat="41.81941" lon="0.8081558">
        <time>2022-07-07T14:24:36Z</time>
      </trkpt>
      <trkpt lat="41.819466" lon="0.80814546">
        <time>2022-07-07T14:24:38Z</time>
      </trkpt>
      <trkpt lat="41.819527" lon="0.8081348">
        <time>2022-07-07T14:24:40Z</time>
      </trkpt>
      <trkpt lat="41.819584" lon="0.8081258">
        <time>2022-07-07T14:24:42Z</time>
      </trkpt>
      <trkpt lat="41.81964" lon="0.8081148">
        <time>2022-07-07T14:24:44Z</time>
      </trkpt>
      <trkpt lat="41.819702" lon="0.8080998">
        <time>2022-07-07T14:24:46Z</time>
      </trkpt>
      <trkpt lat="41.81976" lon="0.80809015">
        <time>2022-07-07T14:24:48Z</time>
      </trkpt>
      <trkpt lat="41.819817" lon="0.8080885">
        <time>2022-07-07T14:24:50Z</time>
      </trkpt>
      <trkpt lat="41.819878" lon="0.80809647">
        <time>2022-07-07T14:24:52Z</time>
      </trkpt>
      <trkpt lat="41.819942" lon="0.8081128">
        <time>2022-07-07T14:24:54Z</time>
      </trkpt>
      <trkpt lat="41.820007" lon="0.80813044">
        <time>2022-07-07T14:24:56Z</time>
      </trkpt>
      <trkpt lat="41.820072" lon="0.80814046">
        <time>2022-07-07T14:24:58Z</time>
      </trkpt>
      <trkpt lat="41.820133" lon="0.8081475">
        <time>2022-07-07T14:25:00Z</time>
      </trkpt>
      <trkpt lat="41.820194" lon="0.80815816">
        <time>2022-07-07T14:25:02Z</time>
      </trkpt>
      <trkpt lat="41.82025" lon="0.80816376">
        <time>2022-07-07T14:25:04Z</time>
      </trkpt>
      <trkpt lat="41.820293" lon="0.8081658">
        <time>2022-07-07T14:25:06Z</time>
      </trkpt>
      <trkpt lat="41.820404" lon="0.8081955">
        <time>2022-07-07T14:25:19Z</time>
      </trkpt>
      <trkpt lat="41.82047" lon="0.8082045">
        <time>2022-07-07T14:25:22Z</time>
      </trkpt>
      <trkpt lat="41.82053" lon="0.8082068">
        <time>2022-07-07T14:25:24Z</time>
      </trkpt>
      <trkpt lat="41.820595" lon="0.8082188">
        <time>2022-07-07T14:25:26Z</time>
      </trkpt>
      <trkpt lat="41.820663" lon="0.80824244">
        <time>2022-07-07T14:25:28Z</time>
      </trkpt>
      <trkpt lat="41.820732" lon="0.80827475">
        <time>2022-07-07T14:25:30Z</time>
      </trkpt>
      <trkpt lat="41.820797" lon="0.80831075">
        <time>2022-07-07T14:25:32Z</time>
      </trkpt>
      <trkpt lat="41.820858" lon="0.8083384">
        <time>2022-07-07T14:25:34Z</time>
      </trkpt>
      <trkpt lat="41.820915" lon="0.80836874">
        <time>2022-07-07T14:25:36Z</time>
      </trkpt>
      <trkpt lat="41.820972" lon="0.80839974">
        <time>2022-07-07T14:25:38Z</time>
      </trkpt>
      <trkpt lat="41.82104" lon="0.80842674">
        <time>2022-07-07T14:25:40Z</time>
      </trkpt>
      <trkpt lat="41.82111" lon="0.80844975">
        <time>2022-07-07T14:25:42Z</time>
      </trkpt>
      <trkpt lat="41.82118" lon="0.80847573">
        <time>2022-07-07T14:25:44Z</time>
      </trkpt>
      <trkpt lat="41.821247" lon="0.8085001">
        <time>2022-07-07T14:25:46Z</time>
      </trkpt>
      <trkpt lat="41.82131" lon="0.8085221">
        <time>2022-07-07T14:25:48Z</time>
      </trkpt>
      <trkpt lat="41.821373" lon="0.8085381">
        <time>2022-07-07T14:25:50Z</time>
      </trkpt>
      <trkpt lat="41.82143" lon="0.8085504">
        <time>2022-07-07T14:25:52Z</time>
      </trkpt>
      <trkpt lat="41.82148" lon="0.80856144">
        <time>2022-07-07T14:25:54Z</time>
      </trkpt>
      <trkpt lat="41.821533" lon="0.80857277">
        <time>2022-07-07T14:25:56Z</time>
      </trkpt>
      <trkpt lat="41.821587" lon="0.80858374">
        <time>2022-07-07T14:25:58Z</time>
      </trkpt>
      <trkpt lat="41.821644" lon="0.80859107">
        <time>2022-07-07T14:26:00Z</time>
      </trkpt>
      <trkpt lat="41.8217" lon="0.8085961">
        <time>2022-07-07T14:26:02Z</time>
      </trkpt>
      <trkpt lat="41.821762" lon="0.8085997">
        <time>2022-07-07T14:26:04Z</time>
      </trkpt>
      <trkpt lat="41.82183" lon="0.80860275">
        <time>2022-07-07T14:26:06Z</time>
      </trkpt>
      <trkpt lat="41.8219" lon="0.8085981">
        <time>2022-07-07T14:26:08Z</time>
      </trkpt>
      <trkpt lat="41.82197" lon="0.80858344">
        <time>2022-07-07T14:26:10Z</time>
      </trkpt>
      <trkpt lat="41.82204" lon="0.8085591">
        <time>2022-07-07T14:26:12Z</time>
      </trkpt>
      <trkpt lat="41.82211" lon="0.8085284">
        <time>2022-07-07T14:26:14Z</time>
      </trkpt>
      <trkpt lat="41.82218" lon="0.8084941">
        <time>2022-07-07T14:26:16Z</time>
      </trkpt>
      <trkpt lat="41.822254" lon="0.8084561">
        <time>2022-07-07T14:26:18Z</time>
      </trkpt>
      <trkpt lat="41.822327" lon="0.80841243">
        <time>2022-07-07T14:26:20Z</time>
      </trkpt>
      <trkpt lat="41.8224" lon="0.8083651">
        <time>2022-07-07T14:26:22Z</time>
      </trkpt>
      <trkpt lat="41.822468" lon="0.8083125">
        <time>2022-07-07T14:26:24Z</time>
      </trkpt>
      <trkpt lat="41.82254" lon="0.80825543">
        <time>2022-07-07T14:26:26Z</time>
      </trkpt>
      <trkpt lat="41.822613" lon="0.80819845">
        <time>2022-07-07T14:26:28Z</time>
      </trkpt>
      <trkpt lat="41.82268" lon="0.8081428">
        <time>2022-07-07T14:26:30Z</time>
      </trkpt>
      <trkpt lat="41.82275" lon="0.8080898">
        <time>2022-07-07T14:26:32Z</time>
      </trkpt>
      <trkpt lat="41.82282" lon="0.8080431">
        <time>2022-07-07T14:26:34Z</time>
      </trkpt>
      <trkpt lat="41.822887" lon="0.8080008">
        <time>2022-07-07T14:26:36Z</time>
      </trkpt>
      <trkpt lat="41.822956" lon="0.8079668">
        <time>2022-07-07T14:26:38Z</time>
      </trkpt>
      <trkpt lat="41.823032" lon="0.8079405">
        <time>2022-07-07T14:26:40Z</time>
      </trkpt>
      <trkpt lat="41.823097" lon="0.80793846">
        <time>2022-07-07T14:26:42Z</time>
      </trkpt>
      <trkpt lat="41.823143" lon="0.8079755">
        <time>2022-07-07T14:26:44Z</time>
      </trkpt>
      <trkpt lat="41.823166" lon="0.8080428">
        <time>2022-07-07T14:26:46Z</time>
      </trkpt>
      <trkpt lat="41.82317" lon="0.8081295">
        <time>2022-07-07T14:26:48Z</time>
      </trkpt>
      <trkpt lat="41.823162" lon="0.8082308">
        <time>2022-07-07T14:26:50Z</time>
      </trkpt>
      <trkpt lat="41.823154" lon="0.80834347">
        <time>2022-07-07T14:26:52Z</time>
      </trkpt>
      <trkpt lat="41.823147" lon="0.80846614">
        <time>2022-07-07T14:26:54Z</time>
      </trkpt>
      <trkpt lat="41.823135" lon="0.80859613">
        <time>2022-07-07T14:26:56Z</time>
      </trkpt>
      <trkpt lat="41.82313" lon="0.80866313">
        <time>2022-07-07T14:26:57Z</time>
      </trkpt>
      <trkpt lat="41.82312" lon="0.8088021">
        <time>2022-07-07T14:26:59Z</time>
      </trkpt>
      <trkpt lat="41.823112" lon="0.8088788">
        <time>2022-07-07T14:27:00Z</time>
      </trkpt>
      <trkpt lat="41.823105" lon="0.8089504">
        <time>2022-07-07T14:27:01Z</time>
      </trkpt>
      <trkpt lat="41.8231" lon="0.80902344">
        <time>2022-07-07T14:27:02Z</time>
      </trkpt>
      <trkpt lat="41.823093" lon="0.80909675">
        <time>2022-07-07T14:27:03Z</time>
      </trkpt>
      <trkpt lat="41.823086" lon="0.80917144">
        <time>2022-07-07T14:27:04Z</time>
      </trkpt>
      <trkpt lat="41.82308" lon="0.8092468">
        <time>2022-07-07T14:27:05Z</time>
      </trkpt>
      <trkpt lat="41.82307" lon="0.8093231">
        <time>2022-07-07T14:27:06Z</time>
      </trkpt>
      <trkpt lat="41.823063" lon="0.8093994">
        <time>2022-07-07T14:27:07Z</time>
      </trkpt>
      <trkpt lat="41.82306" lon="0.8094757">
        <time>2022-07-07T14:27:08Z</time>
      </trkpt>
      <trkpt lat="41.82305" lon="0.8095534">
        <time>2022-07-07T14:27:09Z</time>
      </trkpt>
      <trkpt lat="41.823048" lon="0.80963004">
        <time>2022-07-07T14:27:10Z</time>
      </trkpt>
      <trkpt lat="41.82304" lon="0.80970573">
        <time>2022-07-07T14:27:11Z</time>
      </trkpt>
      <trkpt lat="41.823032" lon="0.8097814">
        <time>2022-07-07T14:27:12Z</time>
      </trkpt>
      <trkpt lat="41.82303" lon="0.80985606">
        <time>2022-07-07T14:27:13Z</time>
      </trkpt>
      <trkpt lat="41.82302" lon="0.8099307">
        <time>2022-07-07T14:27:14Z</time>
      </trkpt>
      <trkpt lat="41.823017" lon="0.8100057">
        <time>2022-07-07T14:27:15Z</time>
      </trkpt>
      <trkpt lat="41.82301" lon="0.810081">
        <time>2022-07-07T14:27:16Z</time>
      </trkpt>
      <trkpt lat="41.823" lon="0.81015635">
        <time>2022-07-07T14:27:17Z</time>
      </trkpt>
      <trkpt lat="41.822998" lon="0.81023103">
        <time>2022-07-07T14:27:18Z</time>
      </trkpt>
      <trkpt lat="41.82299" lon="0.810306">
        <time>2022-07-07T14:27:19Z</time>
      </trkpt>
      <trkpt lat="41.822983" lon="0.81038034">
        <time>2022-07-07T14:27:20Z</time>
      </trkpt>
      <trkpt lat="41.82298" lon="0.8104553">
        <time>2022-07-07T14:27:21Z</time>
      </trkpt>
      <trkpt lat="41.82297" lon="0.810531">
        <time>2022-07-07T14:27:22Z</time>
      </trkpt>
      <trkpt lat="41.822968" lon="0.810607">
        <time>2022-07-07T14:27:23Z</time>
      </trkpt>
      <trkpt lat="41.82296" lon="0.810683">
        <time>2022-07-07T14:27:24Z</time>
      </trkpt>
      <trkpt lat="41.822952" lon="0.81075937">
        <time>2022-07-07T14:27:25Z</time>
      </trkpt>
      <trkpt lat="41.822945" lon="0.81083566">
        <time>2022-07-07T14:27:26Z</time>
      </trkpt>
      <trkpt lat="41.822937" lon="0.810913">
        <time>2022-07-07T14:27:27Z</time>
      </trkpt>
      <trkpt lat="41.82293" lon="0.811014">
        <time>2022-07-07T14:27:29Z</time>
      </trkpt>
      <trkpt lat="41.822918" lon="0.8111063">
        <time>2022-07-07T14:27:30Z</time>
      </trkpt>
      <trkpt lat="41.82291" lon="0.811192">
        <time>2022-07-07T14:27:31Z</time>
      </trkpt>
      <trkpt lat="41.822903" lon="0.811273">
        <time>2022-07-07T14:27:32Z</time>
      </trkpt>
      <trkpt lat="41.822895" lon="0.81135035">
        <time>2022-07-07T14:27:33Z</time>
      </trkpt>
      <trkpt lat="41.822887" lon="0.8114233">
        <time>2022-07-07T14:27:34Z</time>
      </trkpt>
      <trkpt lat="41.82288" lon="0.81149197">
        <time>2022-07-07T14:27:35Z</time>
      </trkpt>
      <trkpt lat="41.822872" lon="0.81155765">
        <time>2022-07-07T14:27:36Z</time>
      </trkpt>
      <trkpt lat="41.822857" lon="0.811681">
        <time>2022-07-07T14:27:38Z</time>
      </trkpt>
      <trkpt lat="41.822838" lon="0.81179595">
        <time>2022-07-07T14:27:40Z</time>
      </trkpt>
      <trkpt lat="41.822826" lon="0.81191">
        <time>2022-07-07T14:27:42Z</time>
      </trkpt>
      <trkpt lat="41.82281" lon="0.8120256">
        <time>2022-07-07T14:27:44Z</time>
      </trkpt>
      <trkpt lat="41.822796" lon="0.81214195">
        <time>2022-07-07T14:27:46Z</time>
      </trkpt>
      <trkpt lat="41.822784" lon="0.8122573">
        <time>2022-07-07T14:27:48Z</time>
      </trkpt>
      <trkpt lat="41.822773" lon="0.8123726">
        <time>2022-07-07T14:27:50Z</time>
      </trkpt>
      <trkpt lat="41.82276" lon="0.8124886">
        <time>2022-07-07T14:27:52Z</time>
      </trkpt>
      <trkpt lat="41.822746" lon="0.8126046">
        <time>2022-07-07T14:27:54Z</time>
      </trkpt>
      <trkpt lat="41.822723" lon="0.81272125">
        <time>2022-07-07T14:27:56Z</time>
      </trkpt>
      <trkpt lat="41.822704" lon="0.81283927">
        <time>2022-07-07T14:27:58Z</time>
      </trkpt>
      <trkpt lat="41.82269" lon="0.81295127">
        <time>2022-07-07T14:28:00Z</time>
      </trkpt>
      <trkpt lat="41.822674" lon="0.8130613">
        <time>2022-07-07T14:28:02Z</time>
      </trkpt>
      <trkpt lat="41.82265" lon="0.81317127">
        <time>2022-07-07T14:28:04Z</time>
      </trkpt>
      <trkpt lat="41.822624" lon="0.81328225">
        <time>2022-07-07T14:28:06Z</time>
      </trkpt>
      <trkpt lat="41.8226" lon="0.81339127">
        <time>2022-07-07T14:28:08Z</time>
      </trkpt>
      <trkpt lat="41.82258" lon="0.81349796">
        <time>2022-07-07T14:28:10Z</time>
      </trkpt>
      <trkpt lat="41.82255" lon="0.8136109">
        <time>2022-07-07T14:28:12Z</time>
      </trkpt>
      <trkpt lat="41.82253" lon="0.81371295">
        <time>2022-07-07T14:28:14Z</time>
      </trkpt>
      <trkpt lat="41.822506" lon="0.81381893">
        <time>2022-07-07T14:28:16Z</time>
      </trkpt>
      <trkpt lat="41.822483" lon="0.8139309">
        <time>2022-07-07T14:28:18Z</time>
      </trkpt>
      <trkpt lat="41.822456" lon="0.8140466">
        <time>2022-07-07T14:28:20Z</time>
      </trkpt>
      <trkpt lat="41.822433" lon="0.8141639">
        <time>2022-07-07T14:28:22Z</time>
      </trkpt>
      <trkpt lat="41.82241" lon="0.8142836">
        <time>2022-07-07T14:28:24Z</time>
      </trkpt>
      <trkpt lat="41.822388" lon="0.81440693">
        <time>2022-07-07T14:28:26Z</time>
      </trkpt>
      <trkpt lat="41.822372" lon="0.8144706">
        <time>2022-07-07T14:28:27Z</time>
      </trkpt>
      <trkpt lat="41.822334" lon="0.8146009">
        <time>2022-07-07T14:28:29Z</time>
      </trkpt>
      <trkpt lat="41.82231" lon="0.81466955">
        <time>2022-07-07T14:28:30Z</time>
      </trkpt>
      <trkpt lat="41.82229" lon="0.8147399">
        <time>2022-07-07T14:28:31Z</time>
      </trkpt>
      <trkpt lat="41.82226" lon="0.81480956">
        <time>2022-07-07T14:28:32Z</time>
      </trkpt>
      <trkpt lat="41.82224" lon="0.8148749">
        <time>2022-07-07T14:28:33Z</time>
      </trkpt>
      <trkpt lat="41.822212" lon="0.8149419">
        <time>2022-07-07T14:28:34Z</time>
      </trkpt>
      <trkpt lat="41.822186" lon="0.81500924">
        <time>2022-07-07T14:28:35Z</time>
      </trkpt>
      <trkpt lat="41.82216" lon="0.8150792">
        <time>2022-07-07T14:28:36Z</time>
      </trkpt>
      <trkpt lat="41.822132" lon="0.8151449">
        <time>2022-07-07T14:28:37Z</time>
      </trkpt>
      <trkpt lat="41.82211" lon="0.8152062">
        <time>2022-07-07T14:28:38Z</time>
      </trkpt>
      <trkpt lat="41.82209" lon="0.8152645">
        <time>2022-07-07T14:28:39Z</time>
      </trkpt>
      <trkpt lat="41.822056" lon="0.8153679">
        <time>2022-07-07T14:28:41Z</time>
      </trkpt>
      <trkpt lat="41.822056" lon="0.8154575">
        <time>2022-07-07T14:28:43Z</time>
      </trkpt>
      <trkpt lat="41.822086" lon="0.8155372">
        <time>2022-07-07T14:28:45Z</time>
      </trkpt>
      <trkpt lat="41.822136" lon="0.8156022">
        <time>2022-07-07T14:28:47Z</time>
      </trkpt>
      <trkpt lat="41.82221" lon="0.8156582">
        <time>2022-07-07T14:28:49Z</time>
      </trkpt>
      <trkpt lat="41.82228" lon="0.8157062">
        <time>2022-07-07T14:28:51Z</time>
      </trkpt>
      <trkpt lat="41.822346" lon="0.8157502">
        <time>2022-07-07T14:28:53Z</time>
      </trkpt>
      <trkpt lat="41.822414" lon="0.8157895">
        <time>2022-07-07T14:28:55Z</time>
      </trkpt>
      <trkpt lat="41.822483" lon="0.8158285">
        <time>2022-07-07T14:28:57Z</time>
      </trkpt>
      <trkpt lat="41.822544" lon="0.8158615">
        <time>2022-07-07T14:28:59Z</time>
      </trkpt>
      <trkpt lat="41.822594" lon="0.81588584">
        <time>2022-07-07T14:29:03Z</time>
      </trkpt>
      <trkpt lat="41.82267" lon="0.8159248">
        <time>2022-07-07T14:29:33Z</time>
      </trkpt>
      <trkpt lat="41.82275" lon="0.8159542">
        <time>2022-07-07T14:29:36Z</time>
      </trkpt>
      <trkpt lat="41.822815" lon="0.8159685">
        <time>2022-07-07T14:29:38Z</time>
      </trkpt>
      <trkpt lat="41.822876" lon="0.81597453">
        <time>2022-07-07T14:29:40Z</time>
      </trkpt>
      <trkpt lat="41.822937" lon="0.8159765">
        <time>2022-07-07T14:29:42Z</time>
      </trkpt>
      <trkpt lat="41.823" lon="0.8159795">
        <time>2022-07-07T14:29:44Z</time>
      </trkpt>
      <trkpt lat="41.82307" lon="0.8159832">
        <time>2022-07-07T14:29:46Z</time>
      </trkpt>
      <trkpt lat="41.82314" lon="0.8159868">
        <time>2022-07-07T14:29:48Z</time>
      </trkpt>
      <trkpt lat="41.823208" lon="0.8159905">
        <time>2022-07-07T14:29:50Z</time>
      </trkpt>
      <trkpt lat="41.823277" lon="0.8159958">
        <time>2022-07-07T14:29:52Z</time>
      </trkpt>
      <trkpt lat="41.823345" lon="0.8160048">
        <time>2022-07-07T14:29:54Z</time>
      </trkpt>
      <trkpt lat="41.82341" lon="0.81601816">
        <time>2022-07-07T14:29:56Z</time>
      </trkpt>
      <trkpt lat="41.823475" lon="0.8160318">
        <time>2022-07-07T14:29:58Z</time>
      </trkpt>
      <trkpt lat="41.823536" lon="0.81604415">
        <time>2022-07-07T14:30:00Z</time>
      </trkpt>
      <trkpt lat="41.823597" lon="0.8160555">
        <time>2022-07-07T14:30:02Z</time>
      </trkpt>
      <trkpt lat="41.823666" lon="0.8160681">
        <time>2022-07-07T14:30:04Z</time>
      </trkpt>
      <trkpt lat="41.82373" lon="0.8160848">
        <time>2022-07-07T14:30:06Z</time>
      </trkpt>
      <trkpt lat="41.823795" lon="0.8161001">
        <time>2022-07-07T14:30:08Z</time>
      </trkpt>
      <trkpt lat="41.823868" lon="0.8161108">
        <time>2022-07-07T14:30:10Z</time>
      </trkpt>
      <trkpt lat="41.82394" lon="0.8161144">
        <time>2022-07-07T14:30:12Z</time>
      </trkpt>
      <trkpt lat="41.82402" lon="0.81611675">
        <time>2022-07-07T14:30:14Z</time>
      </trkpt>
      <trkpt lat="41.82409" lon="0.81611544">
        <time>2022-07-07T14:30:16Z</time>
      </trkpt>
      <trkpt lat="41.824154" lon="0.8161131">
        <time>2022-07-07T14:30:18Z</time>
      </trkpt>
      <trkpt lat="41.824223" lon="0.81611043">
        <time>2022-07-07T14:30:20Z</time>
      </trkpt>
      <trkpt lat="41.82429" lon="0.8161098">
        <time>2022-07-07T14:30:22Z</time>
      </trkpt>
      <trkpt lat="41.824364" lon="0.81611013">
        <time>2022-07-07T14:30:24Z</time>
      </trkpt>
      <trkpt lat="41.82443" lon="0.81610847">
        <time>2022-07-07T14:30:26Z</time>
      </trkpt>
      <trkpt lat="41.824493" lon="0.8161045">
        <time>2022-07-07T14:30:28Z</time>
      </trkpt>
      <trkpt lat="41.824562" lon="0.81609714">
        <time>2022-07-07T14:30:30Z</time>
      </trkpt>
      <trkpt lat="41.824627" lon="0.8160911">
        <time>2022-07-07T14:30:32Z</time>
      </trkpt>
      <trkpt lat="41.824696" lon="0.8160915">
        <time>2022-07-07T14:30:34Z</time>
      </trkpt>
      <trkpt lat="41.824764" lon="0.8160941">
        <time>2022-07-07T14:30:36Z</time>
      </trkpt>
      <trkpt lat="41.824837" lon="0.8160988">
        <time>2022-07-07T14:30:38Z</time>
      </trkpt>
      <trkpt lat="41.824905" lon="0.8161044">
        <time>2022-07-07T14:30:40Z</time>
      </trkpt>
      <trkpt lat="41.824978" lon="0.8161111">
        <time>2022-07-07T14:30:42Z</time>
      </trkpt>
      <trkpt lat="41.825047" lon="0.8161188">
        <time>2022-07-07T14:30:44Z</time>
      </trkpt>
      <trkpt lat="41.82512" lon="0.8161274">
        <time>2022-07-07T14:30:46Z</time>
      </trkpt>
      <trkpt lat="41.82519" lon="0.81613374">
        <time>2022-07-07T14:30:48Z</time>
      </trkpt>
      <trkpt lat="41.825264" lon="0.8161384">
        <time>2022-07-07T14:30:50Z</time>
      </trkpt>
      <trkpt lat="41.825336" lon="0.81614107">
        <time>2022-07-07T14:30:52Z</time>
      </trkpt>
      <trkpt lat="41.82541" lon="0.81614375">
        <time>2022-07-07T14:30:54Z</time>
      </trkpt>
      <trkpt lat="41.825485" lon="0.8161551">
        <time>2022-07-07T14:30:56Z</time>
      </trkpt>
      <trkpt lat="41.82557" lon="0.81617373">
        <time>2022-07-07T14:30:58Z</time>
      </trkpt>
      <trkpt lat="41.82565" lon="0.81619304">
        <time>2022-07-07T14:31:00Z</time>
      </trkpt>
      <trkpt lat="41.82573" lon="0.8162114">
        <time>2022-07-07T14:31:02Z</time>
      </trkpt>
      <trkpt lat="41.825806" lon="0.816231">
        <time>2022-07-07T14:31:04Z</time>
      </trkpt>
      <trkpt lat="41.825886" lon="0.81625503">
        <time>2022-07-07T14:31:06Z</time>
      </trkpt>
      <trkpt lat="41.825962" lon="0.8162827">
        <time>2022-07-07T14:31:08Z</time>
      </trkpt>
      <trkpt lat="41.826042" lon="0.81631535">
        <time>2022-07-07T14:31:10Z</time>
      </trkpt>
      <trkpt lat="41.826122" lon="0.8163494">
        <time>2022-07-07T14:31:12Z</time>
      </trkpt>
      <trkpt lat="41.826202" lon="0.8163847">
        <time>2022-07-07T14:31:14Z</time>
      </trkpt>
      <trkpt lat="41.82628" lon="0.81642205">
        <time>2022-07-07T14:31:16Z</time>
      </trkpt>
      <trkpt lat="41.82635" lon="0.81646466">
        <time>2022-07-07T14:31:18Z</time>
      </trkpt>
      <trkpt lat="41.82642" lon="0.816513">
        <time>2022-07-07T14:31:20Z</time>
      </trkpt>
      <trkpt lat="41.82649" lon="0.816564">
        <time>2022-07-07T14:31:22Z</time>
      </trkpt>
      <trkpt lat="41.82656" lon="0.816622">
        <time>2022-07-07T14:31:24Z</time>
      </trkpt>
      <trkpt lat="41.82663" lon="0.816682">
        <time>2022-07-07T14:31:26Z</time>
      </trkpt>
      <trkpt lat="41.8267" lon="0.81674135">
        <time>2022-07-07T14:31:28Z</time>
      </trkpt>
      <trkpt lat="41.826767" lon="0.81680036">
        <time>2022-07-07T14:31:30Z</time>
      </trkpt>
      <trkpt lat="41.826836" lon="0.816861">
        <time>2022-07-07T14:31:32Z</time>
      </trkpt>
      <trkpt lat="41.826904" lon="0.81692463">
        <time>2022-07-07T14:31:34Z</time>
      </trkpt>
      <trkpt lat="41.826977" lon="0.816988">
        <time>2022-07-07T14:31:36Z</time>
      </trkpt>
      <trkpt lat="41.827053" lon="0.8170533">
        <time>2022-07-07T14:31:38Z</time>
      </trkpt>
      <trkpt lat="41.827126" lon="0.8171153">
        <time>2022-07-07T14:31:40Z</time>
      </trkpt>
      <trkpt lat="41.827198" lon="0.8171773">
        <time>2022-07-07T14:31:42Z</time>
      </trkpt>
      <trkpt lat="41.82728" lon="0.8172443">
        <time>2022-07-07T14:31:44Z</time>
      </trkpt>
      <trkpt lat="41.827354" lon="0.8173097">
        <time>2022-07-07T14:31:46Z</time>
      </trkpt>
      <trkpt lat="41.827427" lon="0.817377">
        <time>2022-07-07T14:31:48Z</time>
      </trkpt>
      <trkpt lat="41.8275" lon="0.8174423">
        <time>2022-07-07T14:31:50Z</time>
      </trkpt>
      <trkpt lat="41.827568" lon="0.81750697">
        <time>2022-07-07T14:31:52Z</time>
      </trkpt>
      <trkpt lat="41.827637" lon="0.817567">
        <time>2022-07-07T14:31:54Z</time>
      </trkpt>
      <trkpt lat="41.827717" lon="0.81763595">
        <time>2022-07-07T14:31:56Z</time>
      </trkpt>
      <trkpt lat="41.827793" lon="0.8177053">
        <time>2022-07-07T14:31:58Z</time>
      </trkpt>
      <trkpt lat="41.82787" lon="0.81777596">
        <time>2022-07-07T14:32:00Z</time>
      </trkpt>
      <trkpt lat="41.827938" lon="0.81784564">
        <time>2022-07-07T14:32:02Z</time>
      </trkpt>
      <trkpt lat="41.828014" lon="0.81791496">
        <time>2022-07-07T14:32:04Z</time>
      </trkpt>
      <trkpt lat="41.828087" lon="0.8179776">
        <time>2022-07-07T14:32:06Z</time>
      </trkpt>
      <trkpt lat="41.828156" lon="0.8180373">
        <time>2022-07-07T14:32:08Z</time>
      </trkpt>
      <trkpt lat="41.82822" lon="0.8180966">
        <time>2022-07-07T14:32:10Z</time>
      </trkpt>
      <trkpt lat="41.82828" lon="0.81816024">
        <time>2022-07-07T14:32:12Z</time>
      </trkpt>
      <trkpt lat="41.82834" lon="0.8182296">
        <time>2022-07-07T14:32:14Z</time>
      </trkpt>
      <trkpt lat="41.8284" lon="0.8183032">
        <time>2022-07-07T14:32:16Z</time>
      </trkpt>
      <trkpt lat="41.82846" lon="0.8183779">
        <time>2022-07-07T14:32:18Z</time>
      </trkpt>
      <trkpt lat="41.828526" lon="0.81845456">
        <time>2022-07-07T14:32:20Z</time>
      </trkpt>
      <trkpt lat="41.828594" lon="0.8185352">
        <time>2022-07-07T14:32:22Z</time>
      </trkpt>
      <trkpt lat="41.82866" lon="0.8186109">
        <time>2022-07-07T14:32:24Z</time>
      </trkpt>
      <trkpt lat="41.828724" lon="0.8186892">
        <time>2022-07-07T14:32:26Z</time>
      </trkpt>
      <trkpt lat="41.828793" lon="0.8187732">
        <time>2022-07-07T14:32:28Z</time>
      </trkpt>
      <trkpt lat="41.828827" lon="0.8188122">
        <time>2022-07-07T14:32:29Z</time>
      </trkpt>
      <trkpt lat="41.828896" lon="0.81888956">
        <time>2022-07-07T14:32:31Z</time>
      </trkpt>
      <trkpt lat="41.828964" lon="0.81896555">
        <time>2022-07-07T14:32:33Z</time>
      </trkpt>
      <trkpt lat="41.829" lon="0.8190032">
        <time>2022-07-07T14:32:34Z</time>
      </trkpt>
      <trkpt lat="41.82907" lon="0.81908053">
        <time>2022-07-07T14:32:36Z</time>
      </trkpt>
      <trkpt lat="41.829147" lon="0.81915885">
        <time>2022-07-07T14:32:38Z</time>
      </trkpt>
      <trkpt lat="41.829224" lon="0.81923956">
        <time>2022-07-07T14:32:40Z</time>
      </trkpt>
      <trkpt lat="41.8293" lon="0.81932384">
        <time>2022-07-07T14:32:42Z</time>
      </trkpt>
      <trkpt lat="41.829372" lon="0.8194092">
        <time>2022-07-07T14:32:44Z</time>
      </trkpt>
      <trkpt lat="41.82944" lon="0.81949455">
        <time>2022-07-07T14:32:46Z</time>
      </trkpt>
      <trkpt lat="41.82948" lon="0.81953716">
        <time>2022-07-07T14:32:47Z</time>
      </trkpt>
      <trkpt lat="41.82955" lon="0.81962585">
        <time>2022-07-07T14:32:49Z</time>
      </trkpt>
      <trkpt lat="41.82959" lon="0.81967014">
        <time>2022-07-07T14:32:50Z</time>
      </trkpt>
      <trkpt lat="41.829662" lon="0.8197578">
        <time>2022-07-07T14:32:52Z</time>
      </trkpt>
      <trkpt lat="41.82973" lon="0.81984085">
        <time>2022-07-07T14:32:54Z</time>
      </trkpt>
      <trkpt lat="41.829765" lon="0.8198828">
        <time>2022-07-07T14:32:55Z</time>
      </trkpt>
      <trkpt lat="41.82983" lon="0.81996447">
        <time>2022-07-07T14:32:57Z</time>
      </trkpt>
      <trkpt lat="41.829895" lon="0.8200435">
        <time>2022-07-07T14:32:59Z</time>
      </trkpt>
      <trkpt lat="41.82996" lon="0.8201145">
        <time>2022-07-07T14:33:01Z</time>
      </trkpt>
      <trkpt lat="41.830032" lon="0.8201778">
        <time>2022-07-07T14:33:03Z</time>
      </trkpt>
      <trkpt lat="41.830105" lon="0.8202408">
        <time>2022-07-07T14:33:05Z</time>
      </trkpt>
      <trkpt lat="41.830177" lon="0.82030445">
        <time>2022-07-07T14:33:07Z</time>
      </trkpt>
      <trkpt lat="41.830254" lon="0.8203681">
        <time>2022-07-07T14:33:09Z</time>
      </trkpt>
      <trkpt lat="41.830326" lon="0.8204335">
        <time>2022-07-07T14:33:11Z</time>
      </trkpt>
      <trkpt lat="41.830402" lon="0.8205008">
        <time>2022-07-07T14:33:13Z</time>
      </trkpt>
      <trkpt lat="41.83047" lon="0.82056415">
        <time>2022-07-07T14:33:15Z</time>
      </trkpt>
      <trkpt lat="41.830544" lon="0.82063115">
        <time>2022-07-07T14:33:17Z</time>
      </trkpt>
      <trkpt lat="41.830616" lon="0.8206965">
        <time>2022-07-07T14:33:19Z</time>
      </trkpt>
      <trkpt lat="41.830692" lon="0.8207621">
        <time>2022-07-07T14:33:21Z</time>
      </trkpt>
      <trkpt lat="41.830765" lon="0.8208311">
        <time>2022-07-07T14:33:23Z</time>
      </trkpt>
      <trkpt lat="41.830837" lon="0.8209111">
        <time>2022-07-07T14:33:25Z</time>
      </trkpt>
      <trkpt lat="41.8309" lon="0.8209921">
        <time>2022-07-07T14:33:27Z</time>
      </trkpt>
      <trkpt lat="41.830963" lon="0.82107747">
        <time>2022-07-07T14:33:29Z</time>
      </trkpt>
      <trkpt lat="41.831028" lon="0.8211684">
        <time>2022-07-07T14:33:31Z</time>
      </trkpt>
      <trkpt lat="41.83109" lon="0.8212601">
        <time>2022-07-07T14:33:33Z</time>
      </trkpt>
      <trkpt lat="41.831154" lon="0.8213521">
        <time>2022-07-07T14:33:35Z</time>
      </trkpt>
      <trkpt lat="41.83122" lon="0.82144046">
        <time>2022-07-07T14:33:37Z</time>
      </trkpt>
      <trkpt lat="41.831284" lon="0.8215288">
        <time>2022-07-07T14:33:39Z</time>
      </trkpt>
      <trkpt lat="41.83135" lon="0.8216151">
        <time>2022-07-07T14:33:41Z</time>
      </trkpt>
      <trkpt lat="41.831413" lon="0.82169574">
        <time>2022-07-07T14:33:43Z</time>
      </trkpt>
      <trkpt lat="41.831482" lon="0.8217791">
        <time>2022-07-07T14:33:45Z</time>
      </trkpt>
      <trkpt lat="41.831554" lon="0.8218584">
        <time>2022-07-07T14:33:47Z</time>
      </trkpt>
      <trkpt lat="41.831627" lon="0.82193273">
        <time>2022-07-07T14:33:49Z</time>
      </trkpt>
      <trkpt lat="41.831696" lon="0.82200074">
        <time>2022-07-07T14:33:51Z</time>
      </trkpt>
      <trkpt lat="41.831764" lon="0.82205975">
        <time>2022-07-07T14:33:53Z</time>
      </trkpt>
      <trkpt lat="41.831837" lon="0.8221181">
        <time>2022-07-07T14:33:55Z</time>
      </trkpt>
      <trkpt lat="41.83191" lon="0.8221751">
        <time>2022-07-07T14:33:57Z</time>
      </trkpt>
      <trkpt lat="41.83198" lon="0.8222294">
        <time>2022-07-07T14:33:59Z</time>
      </trkpt>
      <trkpt lat="41.83206" lon="0.82228273">
        <time>2022-07-07T14:34:01Z</time>
      </trkpt>
      <trkpt lat="41.832146" lon="0.8223371">
        <time>2022-07-07T14:34:03Z</time>
      </trkpt>
      <trkpt lat="41.832188" lon="0.8223634">
        <time>2022-07-07T14:34:04Z</time>
      </trkpt>
      <trkpt lat="41.832275" lon="0.8224171">
        <time>2022-07-07T14:34:06Z</time>
      </trkpt>
      <trkpt lat="41.83236" lon="0.8224674">
        <time>2022-07-07T14:34:08Z</time>
      </trkpt>
      <trkpt lat="41.83245" lon="0.82251906">
        <time>2022-07-07T14:34:10Z</time>
      </trkpt>
      <trkpt lat="41.832497" lon="0.82254404">
        <time>2022-07-07T14:34:11Z</time>
      </trkpt>
      <trkpt lat="41.832542" lon="0.8225691">
        <time>2022-07-07T14:34:12Z</time>
      </trkpt>
      <trkpt lat="41.832638" lon="0.82261807">
        <time>2022-07-07T14:34:14Z</time>
      </trkpt>
      <trkpt lat="41.832726" lon="0.8226637">
        <time>2022-07-07T14:34:16Z</time>
      </trkpt>
      <trkpt lat="41.832817" lon="0.8227087">
        <time>2022-07-07T14:34:18Z</time>
      </trkpt>
      <trkpt lat="41.83286" lon="0.8227327">
        <time>2022-07-07T14:34:19Z</time>
      </trkpt>
      <trkpt lat="41.83295" lon="0.82277906">
        <time>2022-07-07T14:34:21Z</time>
      </trkpt>
      <trkpt lat="41.833035" lon="0.8228184">
        <time>2022-07-07T14:34:23Z</time>
      </trkpt>
      <trkpt lat="41.83311" lon="0.822852">
        <time>2022-07-07T14:34:25Z</time>
      </trkpt>
      <trkpt lat="41.833195" lon="0.8228887">
        <time>2022-07-07T14:34:27Z</time>
      </trkpt>
      <trkpt lat="41.83327" lon="0.8229247">
        <time>2022-07-07T14:34:29Z</time>
      </trkpt>
      <trkpt lat="41.83338" lon="0.822977">
        <time>2022-07-07T14:34:32Z</time>
      </trkpt>
      <trkpt lat="41.833454" lon="0.8230107">
        <time>2022-07-07T14:34:34Z</time>
      </trkpt>
      <trkpt lat="41.833523" lon="0.8230463">
        <time>2022-07-07T14:34:36Z</time>
      </trkpt>
      <trkpt lat="41.833595" lon="0.8230827">
        <time>2022-07-07T14:34:38Z</time>
      </trkpt>
      <trkpt lat="41.833664" lon="0.82312036">
        <time>2022-07-07T14:34:40Z</time>
      </trkpt>
      <trkpt lat="41.833736" lon="0.82315767">
        <time>2022-07-07T14:34:42Z</time>
      </trkpt>
      <trkpt lat="41.833805" lon="0.8231943">
        <time>2022-07-07T14:34:44Z</time>
      </trkpt>
      <trkpt lat="41.833874" lon="0.823228">
        <time>2022-07-07T14:34:46Z</time>
      </trkpt>
      <trkpt lat="41.833942" lon="0.8232566">
        <time>2022-07-07T14:34:48Z</time>
      </trkpt>
      <trkpt lat="41.834007" lon="0.8232823">
        <time>2022-07-07T14:34:50Z</time>
      </trkpt>
      <trkpt lat="41.834072" lon="0.8233026">
        <time>2022-07-07T14:34:52Z</time>
      </trkpt>
      <trkpt lat="41.834137" lon="0.82332295">
        <time>2022-07-07T14:34:54Z</time>
      </trkpt>
      <trkpt lat="41.8342" lon="0.8233426">
        <time>2022-07-07T14:34:56Z</time>
      </trkpt>
      <trkpt lat="41.834263" lon="0.8233646">
        <time>2022-07-07T14:34:58Z</time>
      </trkpt>
      <trkpt lat="41.83433" lon="0.82338595">
        <time>2022-07-07T14:35:00Z</time>
      </trkpt>
      <trkpt lat="41.834396" lon="0.8234083">
        <time>2022-07-07T14:35:02Z</time>
      </trkpt>
      <trkpt lat="41.83447" lon="0.8234366">
        <time>2022-07-07T14:35:04Z</time>
      </trkpt>
      <trkpt lat="41.83454" lon="0.8234656">
        <time>2022-07-07T14:35:06Z</time>
      </trkpt>
      <trkpt lat="41.834614" lon="0.82349294">
        <time>2022-07-07T14:35:08Z</time>
      </trkpt>
      <trkpt lat="41.834694" lon="0.82352597">
        <time>2022-07-07T14:35:10Z</time>
      </trkpt>
      <trkpt lat="41.834774" lon="0.8235636">
        <time>2022-07-07T14:35:12Z</time>
      </trkpt>
      <trkpt lat="41.83485" lon="0.82360524">
        <time>2022-07-07T14:35:14Z</time>
      </trkpt>
      <trkpt lat="41.834927" lon="0.8236493">
        <time>2022-07-07T14:35:16Z</time>
      </trkpt>
      <trkpt lat="41.835" lon="0.8236936">
        <time>2022-07-07T14:35:18Z</time>
      </trkpt>
      <trkpt lat="41.83508" lon="0.82374126">
        <time>2022-07-07T14:35:20Z</time>
      </trkpt>
      <trkpt lat="41.83516" lon="0.82378656">
        <time>2022-07-07T14:35:22Z</time>
      </trkpt>
      <trkpt lat="41.835243" lon="0.8238319">
        <time>2022-07-07T14:35:24Z</time>
      </trkpt>
      <trkpt lat="41.83533" lon="0.82388055">
        <time>2022-07-07T14:35:26Z</time>
      </trkpt>
      <trkpt lat="41.835415" lon="0.82392657">
        <time>2022-07-07T14:35:28Z</time>
      </trkpt>
      <trkpt lat="41.835503" lon="0.8239712">
        <time>2022-07-07T14:35:30Z</time>
      </trkpt>
      <trkpt lat="41.835545" lon="0.82399225">
        <time>2022-07-07T14:35:31Z</time>
      </trkpt>
      <trkpt lat="41.83563" lon="0.8240269">
        <time>2022-07-07T14:35:33Z</time>
      </trkpt>
      <trkpt lat="41.835712" lon="0.82405686">
        <time>2022-07-07T14:35:35Z</time>
      </trkpt>
      <trkpt lat="41.83584" lon="0.8240962">
        <time>2022-07-07T14:35:38Z</time>
      </trkpt>
      <trkpt lat="41.835926" lon="0.82411987">
        <time>2022-07-07T14:35:40Z</time>
      </trkpt>
      <trkpt lat="41.83601" lon="0.82414186">
        <time>2022-07-07T14:35:42Z</time>
      </trkpt>
      <trkpt lat="41.836098" lon="0.8241642">
        <time>2022-07-07T14:35:44Z</time>
      </trkpt>
      <trkpt lat="41.83619" lon="0.8241852">
        <time>2022-07-07T14:35:46Z</time>
      </trkpt>
      <trkpt lat="41.836277" lon="0.82420486">
        <time>2022-07-07T14:35:48Z</time>
      </trkpt>
      <trkpt lat="41.83636" lon="0.8242275">
        <time>2022-07-07T14:35:50Z</time>
      </trkpt>
      <trkpt lat="41.83645" lon="0.82425386">
        <time>2022-07-07T14:35:52Z</time>
      </trkpt>
      <trkpt lat="41.836533" lon="0.8242802">
        <time>2022-07-07T14:35:54Z</time>
      </trkpt>
      <trkpt lat="41.83661" lon="0.82430685">
        <time>2022-07-07T14:35:56Z</time>
      </trkpt>
      <trkpt lat="41.83669" lon="0.8243362">
        <time>2022-07-07T14:35:58Z</time>
      </trkpt>
      <trkpt lat="41.836765" lon="0.8243632">
        <time>2022-07-07T14:36:00Z</time>
      </trkpt>
      <trkpt lat="41.83684" lon="0.8243882">
        <time>2022-07-07T14:36:02Z</time>
      </trkpt>
      <trkpt lat="41.836914" lon="0.8244132">
        <time>2022-07-07T14:36:04Z</time>
      </trkpt>
      <trkpt lat="41.83698" lon="0.8244415">
        <time>2022-07-07T14:36:06Z</time>
      </trkpt>
      <trkpt lat="41.837048" lon="0.8244682">
        <time>2022-07-07T14:36:08Z</time>
      </trkpt>
      <trkpt lat="41.83711" lon="0.82449216">
        <time>2022-07-07T14:36:10Z</time>
      </trkpt>
      <trkpt lat="41.837173" lon="0.8245155">
        <time>2022-07-07T14:36:12Z</time>
      </trkpt>
      <trkpt lat="41.837234" lon="0.8245388">
        <time>2022-07-07T14:36:14Z</time>
      </trkpt>
      <trkpt lat="41.83729" lon="0.82455385">
        <time>2022-07-07T14:36:16Z</time>
      </trkpt>
      <trkpt lat="41.83734" lon="0.8245608">
        <time>2022-07-07T14:36:18Z</time>
      </trkpt>
      <trkpt lat="41.837395" lon="0.8245658">
        <time>2022-07-07T14:36:24Z</time>
      </trkpt>
      <trkpt lat="41.837494" lon="0.8245795">
        <time>2022-07-07T14:36:47Z</time>
      </trkpt>
      <trkpt lat="41.83756" lon="0.82457215">
        <time>2022-07-07T14:36:49Z</time>
      </trkpt>
      <trkpt lat="41.837627" lon="0.8245568">
        <time>2022-07-07T14:36:51Z</time>
      </trkpt>
      <trkpt lat="41.837696" lon="0.8245495">
        <time>2022-07-07T14:36:53Z</time>
      </trkpt>
      <trkpt lat="41.837765" lon="0.8245548">
        <time>2022-07-07T14:36:55Z</time>
      </trkpt>
      <trkpt lat="41.837837" lon="0.8245608">
        <time>2022-07-07T14:36:57Z</time>
      </trkpt>
      <trkpt lat="41.83791" lon="0.8245635">
        <time>2022-07-07T14:36:59Z</time>
      </trkpt>
      <trkpt lat="41.837982" lon="0.82456213">
        <time>2022-07-07T14:37:01Z</time>
      </trkpt>
      <trkpt lat="41.83806" lon="0.8245612">
        <time>2022-07-07T14:37:03Z</time>
      </trkpt>
      <trkpt lat="41.838135" lon="0.82456183">
        <time>2022-07-07T14:37:05Z</time>
      </trkpt>
      <trkpt lat="41.83822" lon="0.82456714">
        <time>2022-07-07T14:37:07Z</time>
      </trkpt>
      <trkpt lat="41.838306" lon="0.82457316">
        <time>2022-07-07T14:37:09Z</time>
      </trkpt>
      <trkpt lat="41.83839" lon="0.82457215">
        <time>2022-07-07T14:37:11Z</time>
      </trkpt>
      <trkpt lat="41.838474" lon="0.8245588">
        <time>2022-07-07T14:37:13Z</time>
      </trkpt>
      <trkpt lat="41.838554" lon="0.8245382">
        <time>2022-07-07T14:37:15Z</time>
      </trkpt>
      <trkpt lat="41.83864" lon="0.8245155">
        <time>2022-07-07T14:37:17Z</time>
      </trkpt>
      <trkpt lat="41.83872" lon="0.8244845">
        <time>2022-07-07T14:37:19Z</time>
      </trkpt>
      <trkpt lat="41.8388" lon="0.82445115">
        <time>2022-07-07T14:37:21Z</time>
      </trkpt>
      <trkpt lat="41.83888" lon="0.82441753">
        <time>2022-07-07T14:37:23Z</time>
      </trkpt>
      <trkpt lat="41.83896" lon="0.8243882">
        <time>2022-07-07T14:37:25Z</time>
      </trkpt>
      <trkpt lat="41.83904" lon="0.8243625">
        <time>2022-07-07T14:37:27Z</time>
      </trkpt>
      <trkpt lat="41.83912" lon="0.8243369">
        <time>2022-07-07T14:37:29Z</time>
      </trkpt>
      <trkpt lat="41.8392" lon="0.8243092">
        <time>2022-07-07T14:37:31Z</time>
      </trkpt>
      <trkpt lat="41.83928" lon="0.8242872">
        <time>2022-07-07T14:37:33Z</time>
      </trkpt>
      <trkpt lat="41.83936" lon="0.8242752">
        <time>2022-07-07T14:37:35Z</time>
      </trkpt>
      <trkpt lat="41.839447" lon="0.8242599">
        <time>2022-07-07T14:37:37Z</time>
      </trkpt>
      <trkpt lat="41.83954" lon="0.82425255">
        <time>2022-07-07T14:37:39Z</time>
      </trkpt>
      <trkpt lat="41.839634" lon="0.8242559">
        <time>2022-07-07T14:37:41Z</time>
      </trkpt>
      <trkpt lat="41.83968" lon="0.8242582">
        <time>2022-07-07T14:37:42Z</time>
      </trkpt>
      <trkpt lat="41.83982" lon="0.8242765">
        <time>2022-07-07T14:37:45Z</time>
      </trkpt>
      <trkpt lat="41.83992" lon="0.82429254">
        <time>2022-07-07T14:37:47Z</time>
      </trkpt>
      <trkpt lat="41.84001" lon="0.8243072">
        <time>2022-07-07T14:37:49Z</time>
      </trkpt>
      <trkpt lat="41.840057" lon="0.8243125">
        <time>2022-07-07T14:37:50Z</time>
      </trkpt>
      <trkpt lat="41.84014" lon="0.82432187">
        <time>2022-07-07T14:37:52Z</time>
      </trkpt>
      <trkpt lat="41.840225" lon="0.8243242">
        <time>2022-07-07T14:37:54Z</time>
      </trkpt>
      <trkpt lat="41.840313" lon="0.8243285">
        <time>2022-07-07T14:37:56Z</time>
      </trkpt>
      <trkpt lat="41.8404" lon="0.82433486">
        <time>2022-07-07T14:37:58Z</time>
      </trkpt>
      <trkpt lat="41.840492" lon="0.8243412">
        <time>2022-07-07T14:38:00Z</time>
      </trkpt>
      <trkpt lat="41.840584" lon="0.8243458">
        <time>2022-07-07T14:38:02Z</time>
      </trkpt>
      <trkpt lat="41.840668" lon="0.82435584">
        <time>2022-07-07T14:38:04Z</time>
      </trkpt>
      <trkpt lat="41.84075" lon="0.82436615">
        <time>2022-07-07T14:38:06Z</time>
      </trkpt>
      <trkpt lat="41.840828" lon="0.8243708">
        <time>2022-07-07T14:38:08Z</time>
      </trkpt>
      <trkpt lat="41.8409" lon="0.8243772">
        <time>2022-07-07T14:38:10Z</time>
      </trkpt>
      <trkpt lat="41.84097" lon="0.82438314">
        <time>2022-07-07T14:38:12Z</time>
      </trkpt>
      <trkpt lat="41.841038" lon="0.82438546">
        <time>2022-07-07T14:38:14Z</time>
      </trkpt>
      <trkpt lat="41.84111" lon="0.8243838">
        <time>2022-07-07T14:38:16Z</time>
      </trkpt>
      <trkpt lat="41.84118" lon="0.82437885">
        <time>2022-07-07T14:38:18Z</time>
      </trkpt>
      <trkpt lat="41.841244" lon="0.82437015">
        <time>2022-07-07T14:38:20Z</time>
      </trkpt>
      <trkpt lat="41.84131" lon="0.8243605">
        <time>2022-07-07T14:38:22Z</time>
      </trkpt>
      <trkpt lat="41.84138" lon="0.8243535">
        <time>2022-07-07T14:38:24Z</time>
      </trkpt>
      <trkpt lat="41.841454" lon="0.8243445">
        <time>2022-07-07T14:38:26Z</time>
      </trkpt>
      <trkpt lat="41.841534" lon="0.8243335">
        <time>2022-07-07T14:38:28Z</time>
      </trkpt>
      <trkpt lat="41.841625" lon="0.82432115">
        <time>2022-07-07T14:38:30Z</time>
      </trkpt>
      <trkpt lat="41.84172" lon="0.8243025">
        <time>2022-07-07T14:38:32Z</time>
      </trkpt>
      <trkpt lat="41.841812" lon="0.8242828">
        <time>2022-07-07T14:38:34Z</time>
      </trkpt>
      <trkpt lat="41.841908" lon="0.8242715">
        <time>2022-07-07T14:38:36Z</time>
      </trkpt>
      <trkpt lat="41.841995" lon="0.8242645">
        <time>2022-07-07T14:38:38Z</time>
      </trkpt>
      <trkpt lat="41.842083" lon="0.82425517">
        <time>2022-07-07T14:38:40Z</time>
      </trkpt>
      <trkpt lat="41.842167" lon="0.8242455">
        <time>2022-07-07T14:38:42Z</time>
      </trkpt>
      <trkpt lat="41.842255" lon="0.8242365">
        <time>2022-07-07T14:38:44Z</time>
      </trkpt>
      <trkpt lat="41.842354" lon="0.8242282">
        <time>2022-07-07T14:38:46Z</time>
      </trkpt>
      <trkpt lat="41.842403" lon="0.82422584">
        <time>2022-07-07T14:38:47Z</time>
      </trkpt>
      <trkpt lat="41.842453" lon="0.82422423">
        <time>2022-07-07T14:38:48Z</time>
      </trkpt>
      <trkpt lat="41.842552" lon="0.8242195">
        <time>2022-07-07T14:38:50Z</time>
      </trkpt>
      <trkpt lat="41.842648" lon="0.8242169">
        <time>2022-07-07T14:38:52Z</time>
      </trkpt>
      <trkpt lat="41.842747" lon="0.8242182">
        <time>2022-07-07T14:38:54Z</time>
      </trkpt>
      <trkpt lat="41.842796" lon="0.8242199">
        <time>2022-07-07T14:38:55Z</time>
      </trkpt>
      <trkpt lat="41.84289" lon="0.82422686">
        <time>2022-07-07T14:38:57Z</time>
      </trkpt>
      <trkpt lat="41.842937" lon="0.82423156">
        <time>2022-07-07T14:38:58Z</time>
      </trkpt>
      <trkpt lat="41.84303" lon="0.8242415">
        <time>2022-07-07T14:39:00Z</time>
      </trkpt>
      <trkpt lat="41.843117" lon="0.8242492">
        <time>2022-07-07T14:39:02Z</time>
      </trkpt>
      <trkpt lat="41.8432" lon="0.8242542">
        <time>2022-07-07T14:39:04Z</time>
      </trkpt>
      <trkpt lat="41.843285" lon="0.82425755">
        <time>2022-07-07T14:39:06Z</time>
      </trkpt>
      <trkpt lat="41.843376" lon="0.82425886">
        <time>2022-07-07T14:39:08Z</time>
      </trkpt>
      <trkpt lat="41.843468" lon="0.8242599">
        <time>2022-07-07T14:39:10Z</time>
      </trkpt>
      <trkpt lat="41.843563" lon="0.8242595">
        <time>2022-07-07T14:39:12Z</time>
      </trkpt>
      <trkpt lat="41.843613" lon="0.8242595">
        <time>2022-07-07T14:39:13Z</time>
      </trkpt>
      <trkpt lat="41.84371" lon="0.82426053">
        <time>2022-07-07T14:39:15Z</time>
      </trkpt>
      <trkpt lat="41.84376" lon="0.82426083">
        <time>2022-07-07T14:39:16Z</time>
      </trkpt>
      <trkpt lat="41.84381" lon="0.82426053">
        <time>2022-07-07T14:39:17Z</time>
      </trkpt>
      <trkpt lat="41.84391" lon="0.8242612">
        <time>2022-07-07T14:39:19Z</time>
      </trkpt>
      <trkpt lat="41.844013" lon="0.8242675">
        <time>2022-07-07T14:39:21Z</time>
      </trkpt>
      <trkpt lat="41.844063" lon="0.8242715">
        <time>2022-07-07T14:39:22Z</time>
      </trkpt>
      <trkpt lat="41.844166" lon="0.8242828">
        <time>2022-07-07T14:39:24Z</time>
      </trkpt>
      <trkpt lat="41.844215" lon="0.8242895">
        <time>2022-07-07T14:39:25Z</time>
      </trkpt>
      <trkpt lat="41.844307" lon="0.8243035">
        <time>2022-07-07T14:39:27Z</time>
      </trkpt>
      <trkpt lat="41.8444" lon="0.82432115">
        <time>2022-07-07T14:39:29Z</time>
      </trkpt>
      <trkpt lat="41.844494" lon="0.82434314">
        <time>2022-07-07T14:39:31Z</time>
      </trkpt>
      <trkpt lat="41.84459" lon="0.8243652">
        <time>2022-07-07T14:39:33Z</time>
      </trkpt>
      <trkpt lat="41.84468" lon="0.8243768">
        <time>2022-07-07T14:39:35Z</time>
      </trkpt>
      <trkpt lat="41.84476" lon="0.82437515">
        <time>2022-07-07T14:39:37Z</time>
      </trkpt>
      <trkpt lat="41.84483" lon="0.82436883">
        <time>2022-07-07T14:39:39Z</time>
      </trkpt>
      <trkpt lat="41.844887" lon="0.82437086">
        <time>2022-07-07T14:39:41Z</time>
      </trkpt>
      <trkpt lat="41.844948" lon="0.8243902">
        <time>2022-07-07T14:39:43Z</time>
      </trkpt>
      <trkpt lat="41.845013" lon="0.82441914">
        <time>2022-07-07T14:39:45Z</time>
      </trkpt>
      <trkpt lat="41.845078" lon="0.82445085">
        <time>2022-07-07T14:39:47Z</time>
      </trkpt>
      <trkpt lat="41.845146" lon="0.82448316">
        <time>2022-07-07T14:39:49Z</time>
      </trkpt>
      <trkpt lat="41.84522" lon="0.8245162">
        <time>2022-07-07T14:39:51Z</time>
      </trkpt>
      <trkpt lat="41.8453" lon="0.8245508">
        <time>2022-07-07T14:39:53Z</time>
      </trkpt>
      <trkpt lat="41.845383" lon="0.82458514">
        <time>2022-07-07T14:39:55Z</time>
      </trkpt>
      <trkpt lat="41.84547" lon="0.8246198">
        <time>2022-07-07T14:39:57Z</time>
      </trkpt>
      <trkpt lat="41.84556" lon="0.8246538">
        <time>2022-07-07T14:39:59Z</time>
      </trkpt>
      <trkpt lat="41.845654" lon="0.82468516">
        <time>2022-07-07T14:40:01Z</time>
      </trkpt>
      <trkpt lat="41.845745" lon="0.82471645">
        <time>2022-07-07T14:40:03Z</time>
      </trkpt>
      <trkpt lat="41.84584" lon="0.82474715">
        <time>2022-07-07T14:40:05Z</time>
      </trkpt>
      <trkpt lat="41.84594" lon="0.82477677">
        <time>2022-07-07T14:40:07Z</time>
      </trkpt>
      <trkpt lat="41.84604" lon="0.8248071">
        <time>2022-07-07T14:40:09Z</time>
      </trkpt>
      <trkpt lat="41.846092" lon="0.82482344">
        <time>2022-07-07T14:40:10Z</time>
      </trkpt>
      <trkpt lat="41.84614" lon="0.8248404">
        <time>2022-07-07T14:40:11Z</time>
      </trkpt>
      <trkpt lat="41.846245" lon="0.8248758">
        <time>2022-07-07T14:40:13Z</time>
      </trkpt>
      <trkpt lat="41.8463" lon="0.82489413">
        <time>2022-07-07T14:40:14Z</time>
      </trkpt>
      <trkpt lat="41.846355" lon="0.82491344">
        <time>2022-07-07T14:40:15Z</time>
      </trkpt>
      <trkpt lat="41.84641" lon="0.82493377">
        <time>2022-07-07T14:40:16Z</time>
      </trkpt>
      <trkpt lat="41.846462" lon="0.82495445">
        <time>2022-07-07T14:40:17Z</time>
      </trkpt>
      <trkpt lat="41.846516" lon="0.8249758">
        <time>2022-07-07T14:40:18Z</time>
      </trkpt>
      <trkpt lat="41.846573" lon="0.8249964">
        <time>2022-07-07T14:40:19Z</time>
      </trkpt>
      <trkpt lat="41.846626" lon="0.8250161">
        <time>2022-07-07T14:40:20Z</time>
      </trkpt>
      <trkpt lat="41.84668" lon="0.8250354">
        <time>2022-07-07T14:40:21Z</time>
      </trkpt>
      <trkpt lat="41.846737" lon="0.82505476">
        <time>2022-07-07T14:40:22Z</time>
      </trkpt>
      <trkpt lat="41.846794" lon="0.8250751">
        <time>2022-07-07T14:40:23Z</time>
      </trkpt>
      <trkpt lat="41.84685" lon="0.82509476">
        <time>2022-07-07T14:40:24Z</time>
      </trkpt>
      <trkpt lat="41.846905" lon="0.82511437">
        <time>2022-07-07T14:40:25Z</time>
      </trkpt>
      <trkpt lat="41.846962" lon="0.8251344">
        <time>2022-07-07T14:40:26Z</time>
      </trkpt>
      <trkpt lat="41.847015" lon="0.82515407">
        <time>2022-07-07T14:40:27Z</time>
      </trkpt>
      <trkpt lat="41.847073" lon="0.82517403">
        <time>2022-07-07T14:40:28Z</time>
      </trkpt>
      <trkpt lat="41.847126" lon="0.8251934">
        <time>2022-07-07T14:40:29Z</time>
      </trkpt>
      <trkpt lat="41.847183" lon="0.825213">
        <time>2022-07-07T14:40:30Z</time>
      </trkpt>
      <trkpt lat="41.84724" lon="0.8252327">
        <time>2022-07-07T14:40:31Z</time>
      </trkpt>
      <trkpt lat="41.847298" lon="0.825253">
        <time>2022-07-07T14:40:32Z</time>
      </trkpt>
      <trkpt lat="41.847355" lon="0.82527435">
        <time>2022-07-07T14:40:33Z</time>
      </trkpt>
      <trkpt lat="41.847412" lon="0.8252977">
        <time>2022-07-07T14:40:34Z</time>
      </trkpt>
      <trkpt lat="41.84747" lon="0.82532066">
        <time>2022-07-07T14:40:35Z</time>
      </trkpt>
      <trkpt lat="41.847527" lon="0.825344">
        <time>2022-07-07T14:40:36Z</time>
      </trkpt>
      <trkpt lat="41.847584" lon="0.8253667">
        <time>2022-07-07T14:40:37Z</time>
      </trkpt>
      <trkpt lat="41.84764" lon="0.82539">
        <time>2022-07-07T14:40:38Z</time>
      </trkpt>
      <trkpt lat="41.847694" lon="0.82541364">
        <time>2022-07-07T14:40:39Z</time>
      </trkpt>
      <trkpt lat="41.84775" lon="0.825438">
        <time>2022-07-07T14:40:40Z</time>
      </trkpt>
      <trkpt lat="41.847805" lon="0.82546335">
        <time>2022-07-07T14:40:41Z</time>
      </trkpt>
      <trkpt lat="41.847862" lon="0.82548934">
        <time>2022-07-07T14:40:42Z</time>
      </trkpt>
      <trkpt lat="41.847916" lon="0.82551634">
        <time>2022-07-07T14:40:43Z</time>
      </trkpt>
      <trkpt lat="41.847977" lon="0.82554436">
        <time>2022-07-07T14:40:44Z</time>
      </trkpt>
      <trkpt lat="41.848034" lon="0.825574">
        <time>2022-07-07T14:40:45Z</time>
      </trkpt>
      <trkpt lat="41.848095" lon="0.8256033">
        <time>2022-07-07T14:40:46Z</time>
      </trkpt>
      <trkpt lat="41.848152" lon="0.825632">
        <time>2022-07-07T14:40:47Z</time>
      </trkpt>
      <trkpt lat="41.848206" lon="0.8256613">
        <time>2022-07-07T14:40:48Z</time>
      </trkpt>
      <trkpt lat="41.84826" lon="0.825691">
        <time>2022-07-07T14:40:49Z</time>
      </trkpt>
      <trkpt lat="41.848312" lon="0.8257233">
        <time>2022-07-07T14:40:50Z</time>
      </trkpt>
      <trkpt lat="41.84837" lon="0.82575893">
        <time>2022-07-07T14:40:51Z</time>
      </trkpt>
      <trkpt lat="41.848423" lon="0.8257953">
        <time>2022-07-07T14:40:52Z</time>
      </trkpt>
      <trkpt lat="41.848476" lon="0.82583064">
        <time>2022-07-07T14:40:53Z</time>
      </trkpt>
      <trkpt lat="41.84853" lon="0.82586527">
        <time>2022-07-07T14:40:54Z</time>
      </trkpt>
      <trkpt lat="41.848583" lon="0.82589996">
        <time>2022-07-07T14:40:55Z</time>
      </trkpt>
      <trkpt lat="41.848633" lon="0.82593393">
        <time>2022-07-07T14:40:56Z</time>
      </trkpt>
      <trkpt lat="41.848682" lon="0.82596695">
        <time>2022-07-07T14:40:57Z</time>
      </trkpt>
      <trkpt lat="41.848732" lon="0.8260003">
        <time>2022-07-07T14:40:58Z</time>
      </trkpt>
      <trkpt lat="41.84878" lon="0.82603395">
        <time>2022-07-07T14:40:59Z</time>
      </trkpt>
      <trkpt lat="41.84883" lon="0.8260686">
        <time>2022-07-07T14:41:00Z</time>
      </trkpt>
      <trkpt lat="41.84888" lon="0.8261046">
        <time>2022-07-07T14:41:01Z</time>
      </trkpt>
      <trkpt lat="41.848934" lon="0.82614124">
        <time>2022-07-07T14:41:02Z</time>
      </trkpt>
      <trkpt lat="41.848984" lon="0.82617855">
        <time>2022-07-07T14:41:03Z</time>
      </trkpt>
      <trkpt lat="41.849037" lon="0.82621557">
        <time>2022-07-07T14:41:04Z</time>
      </trkpt>
      <trkpt lat="41.84909" lon="0.8262536">
        <time>2022-07-07T14:41:05Z</time>
      </trkpt>
      <trkpt lat="41.849144" lon="0.8262926">
        <time>2022-07-07T14:41:06Z</time>
      </trkpt>
      <trkpt lat="41.84926" lon="0.82637256">
        <time>2022-07-07T14:41:08Z</time>
      </trkpt>
      <trkpt lat="41.849316" lon="0.8264142">
        <time>2022-07-07T14:41:09Z</time>
      </trkpt>
      <trkpt lat="41.849373" lon="0.82645655">
        <time>2022-07-07T14:41:10Z</time>
      </trkpt>
      <trkpt lat="41.84943" lon="0.82649857">
        <time>2022-07-07T14:41:11Z</time>
      </trkpt>
      <trkpt lat="41.84949" lon="0.8265399">
        <time>2022-07-07T14:41:12Z</time>
      </trkpt>
      <trkpt lat="41.84955" lon="0.8265809">
        <time>2022-07-07T14:41:13Z</time>
      </trkpt>
      <trkpt lat="41.84961" lon="0.82662255">
        <time>2022-07-07T14:41:14Z</time>
      </trkpt>
      <trkpt lat="41.849667" lon="0.8266642">
        <time>2022-07-07T14:41:15Z</time>
      </trkpt>
      <trkpt lat="41.849728" lon="0.8267059">
        <time>2022-07-07T14:41:16Z</time>
      </trkpt>
      <trkpt lat="41.849785" lon="0.82674754">
        <time>2022-07-07T14:41:17Z</time>
      </trkpt>
      <trkpt lat="41.849842" lon="0.82678884">
        <time>2022-07-07T14:41:18Z</time>
      </trkpt>
      <trkpt lat="41.8499" lon="0.82682955">
        <time>2022-07-07T14:41:19Z</time>
      </trkpt>
      <trkpt lat="41.849957" lon="0.82686883">
        <time>2022-07-07T14:41:20Z</time>
      </trkpt>
      <trkpt lat="41.850014" lon="0.8269079">
        <time>2022-07-07T14:41:21Z</time>
      </trkpt>
      <trkpt lat="41.85007" lon="0.8269472">
        <time>2022-07-07T14:41:22Z</time>
      </trkpt>
      <trkpt lat="41.850124" lon="0.82698584">
        <time>2022-07-07T14:41:23Z</time>
      </trkpt>
      <trkpt lat="41.85018" lon="0.82702386">
        <time>2022-07-07T14:41:24Z</time>
      </trkpt>
      <trkpt lat="41.85024" lon="0.82706285">
        <time>2022-07-07T14:41:25Z</time>
      </trkpt>
      <trkpt lat="41.850292" lon="0.8271022">
        <time>2022-07-07T14:41:26Z</time>
      </trkpt>
      <trkpt lat="41.850346" lon="0.8271418">
        <time>2022-07-07T14:41:27Z</time>
      </trkpt>
      <trkpt lat="41.850395" lon="0.82718116">
        <time>2022-07-07T14:41:28Z</time>
      </trkpt>
      <trkpt lat="41.850445" lon="0.82721984">
        <time>2022-07-07T14:41:29Z</time>
      </trkpt>
      <trkpt lat="41.85049" lon="0.82725847">
        <time>2022-07-07T14:41:30Z</time>
      </trkpt>
      <trkpt lat="41.850536" lon="0.8272955">
        <time>2022-07-07T14:41:31Z</time>
      </trkpt>
      <trkpt lat="41.850582" lon="0.8273325">
        <time>2022-07-07T14:41:32Z</time>
      </trkpt>
      <trkpt lat="41.850628" lon="0.8273675">
        <time>2022-07-07T14:41:33Z</time>
      </trkpt>
      <trkpt lat="41.85071" lon="0.8274368">
        <time>2022-07-07T14:41:35Z</time>
      </trkpt>
      <trkpt lat="41.85079" lon="0.82750314">
        <time>2022-07-07T14:41:37Z</time>
      </trkpt>
      <trkpt lat="41.850826" lon="0.82753545">
        <time>2022-07-07T14:41:38Z</time>
      </trkpt>
      <trkpt lat="41.85089" lon="0.82759446">
        <time>2022-07-07T14:41:40Z</time>
      </trkpt>
      <trkpt lat="41.85096" lon="0.82765484">
        <time>2022-07-07T14:41:42Z</time>
      </trkpt>
      <trkpt lat="41.851032" lon="0.8277211">
        <time>2022-07-07T14:41:44Z</time>
      </trkpt>
      <trkpt lat="41.85111" lon="0.8277938">
        <time>2022-07-07T14:41:46Z</time>
      </trkpt>
      <trkpt lat="41.85119" lon="0.8278698">
        <time>2022-07-07T14:41:48Z</time>
      </trkpt>
      <trkpt lat="41.85127" lon="0.8279491">
        <time>2022-07-07T14:41:50Z</time>
      </trkpt>
      <trkpt lat="41.85131" lon="0.8279898">
        <time>2022-07-07T14:41:51Z</time>
      </trkpt>
      <trkpt lat="41.8514" lon="0.8280718">
        <time>2022-07-07T14:41:53Z</time>
      </trkpt>
      <trkpt lat="41.85144" lon="0.8281121">
        <time>2022-07-07T14:41:54Z</time>
      </trkpt>
      <trkpt lat="41.851486" lon="0.8281528">
        <time>2022-07-07T14:41:55Z</time>
      </trkpt>
      <trkpt lat="41.85153" lon="0.8281938">
        <time>2022-07-07T14:41:56Z</time>
      </trkpt>
      <trkpt lat="41.851574" lon="0.8282358">
        <time>2022-07-07T14:41:57Z</time>
      </trkpt>
      <trkpt lat="41.851616" lon="0.8282784">
        <time>2022-07-07T14:41:58Z</time>
      </trkpt>
      <trkpt lat="41.85166" lon="0.8283224">
        <time>2022-07-07T14:41:59Z</time>
      </trkpt>
      <trkpt lat="41.85171" lon="0.8283681">
        <time>2022-07-07T14:42:00Z</time>
      </trkpt>
      <trkpt lat="41.851757" lon="0.82841444">
        <time>2022-07-07T14:42:01Z</time>
      </trkpt>
      <trkpt lat="41.851807" lon="0.82846206">
        <time>2022-07-07T14:42:02Z</time>
      </trkpt>
      <trkpt lat="41.85186" lon="0.82850975">
        <time>2022-07-07T14:42:03Z</time>
      </trkpt>
      <trkpt lat="41.85191" lon="0.8285577">
        <time>2022-07-07T14:42:04Z</time>
      </trkpt>
      <trkpt lat="41.851963" lon="0.82860607">
        <time>2022-07-07T14:42:05Z</time>
      </trkpt>
      <trkpt lat="41.852016" lon="0.8286554">
        <time>2022-07-07T14:42:06Z</time>
      </trkpt>
      <trkpt lat="41.85207" lon="0.82870376">
        <time>2022-07-07T14:42:07Z</time>
      </trkpt>
      <trkpt lat="41.852123" lon="0.82875377">
        <time>2022-07-07T14:42:08Z</time>
      </trkpt>
      <trkpt lat="41.85218" lon="0.82880306">
        <time>2022-07-07T14:42:09Z</time>
      </trkpt>
      <trkpt lat="41.852234" lon="0.8288524">
        <time>2022-07-07T14:42:10Z</time>
      </trkpt>
      <trkpt lat="41.852287" lon="0.82890105">
        <time>2022-07-07T14:42:11Z</time>
      </trkpt>
      <trkpt lat="41.852345" lon="0.8289504">
        <time>2022-07-07T14:42:12Z</time>
      </trkpt>
      <trkpt lat="41.852455" lon="0.82905203">
        <time>2022-07-07T14:42:14Z</time>
      </trkpt>
      <trkpt lat="41.852512" lon="0.82910436">
        <time>2022-07-07T14:42:15Z</time>
      </trkpt>
      <trkpt lat="41.852566" lon="0.8291564">
        <time>2022-07-07T14:42:16Z</time>
      </trkpt>
      <trkpt lat="41.852623" lon="0.829208">
        <time>2022-07-07T14:42:17Z</time>
      </trkpt>
      <trkpt lat="41.852676" lon="0.82926005">
        <time>2022-07-07T14:42:18Z</time>
      </trkpt>
      <trkpt lat="41.852734" lon="0.8293124">
        <time>2022-07-07T14:42:19Z</time>
      </trkpt>
      <trkpt lat="41.852787" lon="0.8293654">
        <time>2022-07-07T14:42:20Z</time>
      </trkpt>
      <trkpt lat="41.852844" lon="0.8294187">
        <time>2022-07-07T14:42:21Z</time>
      </trkpt>
      <trkpt lat="41.852898" lon="0.82947105">
        <time>2022-07-07T14:42:22Z</time>
      </trkpt>
      <trkpt lat="41.85295" lon="0.829523">
        <time>2022-07-07T14:42:23Z</time>
      </trkpt>
      <trkpt lat="41.853004" lon="0.82957435">
        <time>2022-07-07T14:42:24Z</time>
      </trkpt>
      <trkpt lat="41.853058" lon="0.829625">
        <time>2022-07-07T14:42:25Z</time>
      </trkpt>
      <trkpt lat="41.85311" lon="0.8296757">
        <time>2022-07-07T14:42:26Z</time>
      </trkpt>
      <trkpt lat="41.853165" lon="0.8297267">
        <time>2022-07-07T14:42:27Z</time>
      </trkpt>
      <trkpt lat="41.853214" lon="0.829778">
        <time>2022-07-07T14:42:28Z</time>
      </trkpt>
      <trkpt lat="41.853264" lon="0.82982767">
        <time>2022-07-07T14:42:29Z</time>
      </trkpt>
      <trkpt lat="41.853313" lon="0.829877">
        <time>2022-07-07T14:42:30Z</time>
      </trkpt>
      <trkpt lat="41.85336" lon="0.829922">
        <time>2022-07-07T14:42:31Z</time>
      </trkpt>
      <trkpt lat="41.853405" lon="0.82996666">
        <time>2022-07-07T14:42:32Z</time>
      </trkpt>
      <trkpt lat="41.853455" lon="0.8300123">
        <time>2022-07-07T14:42:33Z</time>
      </trkpt>
      <trkpt lat="41.8535" lon="0.83005667">
        <time>2022-07-07T14:42:34Z</time>
      </trkpt>
      <trkpt lat="41.853542" lon="0.8300986">
        <time>2022-07-07T14:42:35Z</time>
      </trkpt>
      <trkpt lat="41.853584" lon="0.830141">
        <time>2022-07-07T14:42:36Z</time>
      </trkpt>
      <trkpt lat="41.853626" lon="0.83018297">
        <time>2022-07-07T14:42:37Z</time>
      </trkpt>
      <trkpt lat="41.853672" lon="0.83022666">
        <time>2022-07-07T14:42:38Z</time>
      </trkpt>
      <trkpt lat="41.853718" lon="0.8302686">
        <time>2022-07-07T14:42:39Z</time>
      </trkpt>
      <trkpt lat="41.85376" lon="0.83030766">
        <time>2022-07-07T14:42:40Z</time>
      </trkpt>
      <trkpt lat="41.853806" lon="0.83034694">
        <time>2022-07-07T14:42:41Z</time>
      </trkpt>
      <trkpt lat="41.85385" lon="0.83039063">
        <time>2022-07-07T14:42:42Z</time>
      </trkpt>
      <trkpt lat="41.853893" lon="0.83043265">
        <time>2022-07-07T14:42:43Z</time>
      </trkpt>
      <trkpt lat="41.85394" lon="0.8304743">
        <time>2022-07-07T14:42:44Z</time>
      </trkpt>
      <trkpt lat="41.853977" lon="0.83051264">
        <time>2022-07-07T14:42:45Z</time>
      </trkpt>
      <trkpt lat="41.85406" lon="0.8305903">
        <time>2022-07-07T14:42:47Z</time>
      </trkpt>
      <trkpt lat="41.854103" lon="0.83062994">
        <time>2022-07-07T14:42:48Z</time>
      </trkpt>
      <trkpt lat="41.854187" lon="0.8307063">
        <time>2022-07-07T14:42:50Z</time>
      </trkpt>
      <trkpt lat="41.854233" lon="0.83074594">
        <time>2022-07-07T14:42:51Z</time>
      </trkpt>
      <trkpt lat="41.85427" lon="0.8307826">
        <time>2022-07-07T14:42:52Z</time>
      </trkpt>
      <trkpt lat="41.85436" lon="0.8308639">
        <time>2022-07-07T14:42:54Z</time>
      </trkpt>
      <trkpt lat="41.8544" lon="0.8309046">
        <time>2022-07-07T14:42:55Z</time>
      </trkpt>
      <trkpt lat="41.854443" lon="0.8309439">
        <time>2022-07-07T14:42:56Z</time>
      </trkpt>
      <trkpt lat="41.85453" lon="0.83102626">
        <time>2022-07-07T14:42:58Z</time>
      </trkpt>
      <trkpt lat="41.854576" lon="0.8310699">
        <time>2022-07-07T14:42:59Z</time>
      </trkpt>
      <trkpt lat="41.854618" lon="0.83111024">
        <time>2022-07-07T14:43:00Z</time>
      </trkpt>
      <trkpt lat="41.85466" lon="0.8311509">
        <time>2022-07-07T14:43:01Z</time>
      </trkpt>
      <trkpt lat="41.854702" lon="0.8311919">
        <time>2022-07-07T14:43:02Z</time>
      </trkpt>
      <trkpt lat="41.854748" lon="0.83123153">
        <time>2022-07-07T14:43:03Z</time>
      </trkpt>
      <trkpt lat="41.854794" lon="0.8312709">
        <time>2022-07-07T14:43:04Z</time>
      </trkpt>
      <trkpt lat="41.85484" lon="0.8313102">
        <time>2022-07-07T14:43:05Z</time>
      </trkpt>
      <trkpt lat="41.85488" lon="0.8313472">
        <time>2022-07-07T14:43:06Z</time>
      </trkpt>
      <trkpt lat="41.854977" lon="0.83142453">
        <time>2022-07-07T14:43:08Z</time>
      </trkpt>
      <trkpt lat="41.855026" lon="0.8314622">
        <time>2022-07-07T14:43:09Z</time>
      </trkpt>
      <trkpt lat="41.855072" lon="0.83149683">
        <time>2022-07-07T14:43:10Z</time>
      </trkpt>
      <trkpt lat="41.85512" lon="0.83153385">
        <time>2022-07-07T14:43:11Z</time>
      </trkpt>
      <trkpt lat="41.85517" lon="0.8315695">
        <time>2022-07-07T14:43:12Z</time>
      </trkpt>
      <trkpt lat="41.85522" lon="0.83160454">
        <time>2022-07-07T14:43:13Z</time>
      </trkpt>
      <trkpt lat="41.855274" lon="0.8316398">
        <time>2022-07-07T14:43:14Z</time>
      </trkpt>
      <trkpt lat="41.85532" lon="0.8316732">
        <time>2022-07-07T14:43:15Z</time>
      </trkpt>
      <trkpt lat="41.85537" lon="0.83170617">
        <time>2022-07-07T14:43:16Z</time>
      </trkpt>
      <trkpt lat="41.855423" lon="0.8317405">
        <time>2022-07-07T14:43:17Z</time>
      </trkpt>
      <trkpt lat="41.855476" lon="0.8317742">
        <time>2022-07-07T14:43:18Z</time>
      </trkpt>
      <trkpt lat="41.85553" lon="0.8318065">
        <time>2022-07-07T14:43:19Z</time>
      </trkpt>
      <trkpt lat="41.85564" lon="0.8318682">
        <time>2022-07-07T14:43:21Z</time>
      </trkpt>
      <trkpt lat="41.855694" lon="0.8318985">
        <time>2022-07-07T14:43:22Z</time>
      </trkpt>
      <trkpt lat="41.855747" lon="0.83192784">
        <time>2022-07-07T14:43:23Z</time>
      </trkpt>
      <trkpt lat="41.8558" lon="0.8319568">
        <time>2022-07-07T14:43:24Z</time>
      </trkpt>
      <trkpt lat="41.855854" lon="0.8319848">
        <time>2022-07-07T14:43:25Z</time>
      </trkpt>
      <trkpt lat="41.855907" lon="0.8320125">
        <time>2022-07-07T14:43:26Z</time>
      </trkpt>
      <trkpt lat="41.85596" lon="0.83203983">
        <time>2022-07-07T14:43:27Z</time>
      </trkpt>
      <trkpt lat="41.856018" lon="0.8320665">
        <time>2022-07-07T14:43:28Z</time>
      </trkpt>
      <trkpt lat="41.85607" lon="0.83209246">
        <time>2022-07-07T14:43:29Z</time>
      </trkpt>
      <trkpt lat="41.85613" lon="0.8321178">
        <time>2022-07-07T14:43:30Z</time>
      </trkpt>
      <trkpt lat="41.856182" lon="0.8321418">
        <time>2022-07-07T14:43:31Z</time>
      </trkpt>
      <trkpt lat="41.856236" lon="0.8321655">
        <time>2022-07-07T14:43:32Z</time>
      </trkpt>
      <trkpt lat="41.856293" lon="0.8321898">
        <time>2022-07-07T14:43:33Z</time>
      </trkpt>
      <trkpt lat="41.856346" lon="0.8322141">
        <time>2022-07-07T14:43:34Z</time>
      </trkpt>
      <trkpt lat="41.856403" lon="0.8322388">
        <time>2022-07-07T14:43:35Z</time>
      </trkpt>
      <trkpt lat="41.856457" lon="0.8322641">
        <time>2022-07-07T14:43:36Z</time>
      </trkpt>
      <trkpt lat="41.85651" lon="0.83228874">
        <time>2022-07-07T14:43:37Z</time>
      </trkpt>
      <trkpt lat="41.856564" lon="0.83231175">
        <time>2022-07-07T14:43:38Z</time>
      </trkpt>
      <trkpt lat="41.856617" lon="0.8323341">
        <time>2022-07-07T14:43:39Z</time>
      </trkpt>
      <trkpt lat="41.85667" lon="0.83235574">
        <time>2022-07-07T14:43:40Z</time>
      </trkpt>
      <trkpt lat="41.85672" lon="0.8323768">
        <time>2022-07-07T14:43:41Z</time>
      </trkpt>
      <trkpt lat="41.856773" lon="0.8323961">
        <time>2022-07-07T14:43:42Z</time>
      </trkpt>
      <trkpt lat="41.856823" lon="0.8324151">
        <time>2022-07-07T14:43:43Z</time>
      </trkpt>
      <trkpt lat="41.856876" lon="0.83243275">
        <time>2022-07-07T14:43:44Z</time>
      </trkpt>
      <trkpt lat="41.856926" lon="0.8324487">
        <time>2022-07-07T14:43:45Z</time>
      </trkpt>
      <trkpt lat="41.857025" lon="0.8324801">
        <time>2022-07-07T14:43:47Z</time>
      </trkpt>
      <trkpt lat="41.85708" lon="0.83249444">
        <time>2022-07-07T14:43:48Z</time>
      </trkpt>
      <trkpt lat="41.857178" lon="0.8325174">
        <time>2022-07-07T14:43:50Z</time>
      </trkpt>
      <trkpt lat="41.857227" lon="0.83252674">
        <time>2022-07-07T14:43:51Z</time>
      </trkpt>
      <trkpt lat="41.85732" lon="0.83254206">
        <time>2022-07-07T14:43:53Z</time>
      </trkpt>
      <trkpt lat="41.85741" lon="0.8325554">
        <time>2022-07-07T14:43:55Z</time>
      </trkpt>
      <trkpt lat="41.857506" lon="0.8325674">
        <time>2022-07-07T14:43:57Z</time>
      </trkpt>
      <trkpt lat="41.85755" lon="0.83257306">
        <time>2022-07-07T14:43:58Z</time>
      </trkpt>
      <trkpt lat="41.857643" lon="0.8325841">
        <time>2022-07-07T14:44:00Z</time>
      </trkpt>
      <trkpt lat="41.85774" lon="0.8325914">
        <time>2022-07-07T14:44:02Z</time>
      </trkpt>
      <trkpt lat="41.857834" lon="0.83260137">
        <time>2022-07-07T14:44:04Z</time>
      </trkpt>
      <trkpt lat="41.85788" lon="0.8326074">
        <time>2022-07-07T14:44:05Z</time>
      </trkpt>
      <trkpt lat="41.857983" lon="0.8326214">
        <time>2022-07-07T14:44:07Z</time>
      </trkpt>
      <trkpt lat="41.858032" lon="0.83262837">
        <time>2022-07-07T14:44:08Z</time>
      </trkpt>
      <trkpt lat="41.858128" lon="0.8326424">
        <time>2022-07-07T14:44:10Z</time>
      </trkpt>
      <trkpt lat="41.858177" lon="0.83265007">
        <time>2022-07-07T14:44:11Z</time>
      </trkpt>
      <trkpt lat="41.858227" lon="0.8326564">
        <time>2022-07-07T14:44:12Z</time>
      </trkpt>
      <trkpt lat="41.858326" lon="0.83266973">
        <time>2022-07-07T14:44:14Z</time>
      </trkpt>
      <trkpt lat="41.85837" lon="0.83267605">
        <time>2022-07-07T14:44:15Z</time>
      </trkpt>
      <trkpt lat="41.858475" lon="0.83269006">
        <time>2022-07-07T14:44:17Z</time>
      </trkpt>
      <trkpt lat="41.858524" lon="0.83269703">
        <time>2022-07-07T14:44:18Z</time>
      </trkpt>
      <trkpt lat="41.858624" lon="0.8327094">
        <time>2022-07-07T14:44:20Z</time>
      </trkpt>
      <trkpt lat="41.85872" lon="0.8327244">
        <time>2022-07-07T14:44:22Z</time>
      </trkpt>
      <trkpt lat="41.85882" lon="0.83274335">
        <time>2022-07-07T14:44:24Z</time>
      </trkpt>
      <trkpt lat="41.85887" lon="0.83275205">
        <time>2022-07-07T14:44:25Z</time>
      </trkpt>
      <trkpt lat="41.85897" lon="0.83277035">
        <time>2022-07-07T14:44:27Z</time>
      </trkpt>
      <trkpt lat="41.85902" lon="0.832781">
        <time>2022-07-07T14:44:28Z</time>
      </trkpt>
      <trkpt lat="41.859123" lon="0.832804">
        <time>2022-07-07T14:44:30Z</time>
      </trkpt>
      <trkpt lat="41.859222" lon="0.8328287">
        <time>2022-07-07T14:44:32Z</time>
      </trkpt>
      <trkpt lat="41.859276" lon="0.83283967">
        <time>2022-07-07T14:44:33Z</time>
      </trkpt>
      <trkpt lat="41.85933" lon="0.832852">
        <time>2022-07-07T14:44:34Z</time>
      </trkpt>
      <trkpt lat="41.85938" lon="0.83286536">
        <time>2022-07-07T14:44:35Z</time>
      </trkpt>
      <trkpt lat="41.85943" lon="0.832876">
        <time>2022-07-07T14:44:36Z</time>
      </trkpt>
      <trkpt lat="41.859528" lon="0.83289236">
        <time>2022-07-07T14:44:38Z</time>
      </trkpt>
      <trkpt lat="41.859577" lon="0.8329023">
        <time>2022-07-07T14:44:39Z</time>
      </trkpt>
      <trkpt lat="41.859627" lon="0.832914">
        <time>2022-07-07T14:44:40Z</time>
      </trkpt>
      <trkpt lat="41.85973" lon="0.8329396">
        <time>2022-07-07T14:44:42Z</time>
      </trkpt>
      <trkpt lat="41.85978" lon="0.832953">
        <time>2022-07-07T14:44:43Z</time>
      </trkpt>
      <trkpt lat="41.85988" lon="0.8329793">
        <time>2022-07-07T14:44:45Z</time>
      </trkpt>
      <trkpt lat="41.859924" lon="0.8329913">
        <time>2022-07-07T14:44:46Z</time>
      </trkpt>
      <trkpt lat="41.86002" lon="0.8330153">
        <time>2022-07-07T14:44:48Z</time>
      </trkpt>
      <trkpt lat="41.860065" lon="0.8330296">
        <time>2022-07-07T14:44:49Z</time>
      </trkpt>
      <trkpt lat="41.860157" lon="0.83305997">
        <time>2022-07-07T14:44:51Z</time>
      </trkpt>
      <trkpt lat="41.860203" lon="0.8330753">
        <time>2022-07-07T14:44:52Z</time>
      </trkpt>
      <trkpt lat="41.860287" lon="0.833111">
        <time>2022-07-07T14:44:54Z</time>
      </trkpt>
      <trkpt lat="41.860367" lon="0.83315295">
        <time>2022-07-07T14:44:56Z</time>
      </trkpt>
      <trkpt lat="41.860443" lon="0.83320063">
        <time>2022-07-07T14:44:58Z</time>
      </trkpt>
      <trkpt lat="41.86051" lon="0.83324796">
        <time>2022-07-07T14:45:00Z</time>
      </trkpt>
      <trkpt lat="41.86057" lon="0.83329326">
        <time>2022-07-07T14:45:02Z</time>
      </trkpt>
      <trkpt lat="41.860615" lon="0.8333403">
        <time>2022-07-07T14:45:04Z</time>
      </trkpt>
      <trkpt lat="41.86066" lon="0.8333886">
        <time>2022-07-07T14:45:06Z</time>
      </trkpt>
      <trkpt lat="41.8607" lon="0.8334376">
        <time>2022-07-07T14:45:08Z</time>
      </trkpt>
      <trkpt lat="41.86073" lon="0.8334873">
        <time>2022-07-07T14:45:10Z</time>
      </trkpt>
      <trkpt lat="41.860744" lon="0.8335706">
        <time>2022-07-07T14:45:13Z</time>
      </trkpt>
      <trkpt lat="41.860737" lon="0.8336299">
        <time>2022-07-07T14:45:16Z</time>
      </trkpt>
      <trkpt lat="41.860485" lon="0.8336026">
        <time>2022-07-07T15:03:32Z</time>
      </trkpt>
      <trkpt lat="41.8608" lon="0.83364725">
        <time>2022-07-07T15:09:09Z</time>
      </trkpt>
      <trkpt lat="41.86085" lon="0.8336866">
        <time>2022-07-07T15:09:11Z</time>
      </trkpt>
      <trkpt lat="41.860893" lon="0.83373326">
        <time>2022-07-07T15:09:13Z</time>
      </trkpt>
      <trkpt lat="41.860928" lon="0.8337866">
        <time>2022-07-07T15:09:15Z</time>
      </trkpt>
      <trkpt lat="41.86095" lon="0.83386624">
        <time>2022-07-07T15:09:18Z</time>
      </trkpt>
      <trkpt lat="41.860962" lon="0.8339489">
        <time>2022-07-07T15:09:21Z</time>
      </trkpt>
      <trkpt lat="41.86099" lon="0.8340429">
        <time>2022-07-07T15:09:24Z</time>
      </trkpt>
      <trkpt lat="41.861023" lon="0.83413225">
        <time>2022-07-07T15:09:27Z</time>
      </trkpt>
      <trkpt lat="41.861057" lon="0.83418757">
        <time>2022-07-07T15:09:29Z</time>
      </trkpt>
      <trkpt lat="41.86109" lon="0.8342426">
        <time>2022-07-07T15:09:31Z</time>
      </trkpt>
      <trkpt lat="41.86112" lon="0.8342989">
        <time>2022-07-07T15:09:33Z</time>
      </trkpt>
      <trkpt lat="41.86115" lon="0.83438855">
        <time>2022-07-07T15:09:36Z</time>
      </trkpt>
      <trkpt lat="41.861176" lon="0.8344692">
        <time>2022-07-07T15:09:39Z</time>
      </trkpt>
      <trkpt lat="41.8612" lon="0.8345245">
        <time>2022-07-07T15:09:41Z</time>
      </trkpt>
      <trkpt lat="41.861244" lon="0.8346195">
        <time>2022-07-07T15:09:44Z</time>
      </trkpt>
      <trkpt lat="41.86127" lon="0.8346825">
        <time>2022-07-07T15:09:46Z</time>
      </trkpt>
      <trkpt lat="41.8613" lon="0.83474886">
        <time>2022-07-07T15:09:48Z</time>
      </trkpt>
      <trkpt lat="41.861336" lon="0.83483285">
        <time>2022-07-07T15:09:50Z</time>
      </trkpt>
      <trkpt lat="41.86137" lon="0.8349192">
        <time>2022-07-07T15:09:52Z</time>
      </trkpt>
      <trkpt lat="41.8614" lon="0.83499855">
        <time>2022-07-07T15:09:54Z</time>
      </trkpt>
      <trkpt lat="41.86143" lon="0.83507556">
        <time>2022-07-07T15:09:56Z</time>
      </trkpt>
      <trkpt lat="41.861465" lon="0.8351539">
        <time>2022-07-07T15:09:58Z</time>
      </trkpt>
      <trkpt lat="41.8615" lon="0.83523417">
        <time>2022-07-07T15:10:00Z</time>
      </trkpt>
      <trkpt lat="41.861534" lon="0.83531016">
        <time>2022-07-07T15:10:02Z</time>
      </trkpt>
      <trkpt lat="41.861576" lon="0.83537954">
        <time>2022-07-07T15:10:04Z</time>
      </trkpt>
      <trkpt lat="41.861614" lon="0.8354412">
        <time>2022-07-07T15:10:06Z</time>
      </trkpt>
      <trkpt lat="41.861652" lon="0.8355092">
        <time>2022-07-07T15:10:08Z</time>
      </trkpt>
      <trkpt lat="41.861687" lon="0.8355852">
        <time>2022-07-07T15:10:10Z</time>
      </trkpt>
      <trkpt lat="41.861732" lon="0.83567184">
        <time>2022-07-07T15:10:12Z</time>
      </trkpt>
      <trkpt lat="41.861794" lon="0.83575684">
        <time>2022-07-07T15:10:14Z</time>
      </trkpt>
      <trkpt lat="41.861843" lon="0.8358445">
        <time>2022-07-07T15:10:16Z</time>
      </trkpt>
      <trkpt lat="41.861893" lon="0.8359312">
        <time>2022-07-07T15:10:18Z</time>
      </trkpt>
      <trkpt lat="41.86194" lon="0.8360068">
        <time>2022-07-07T15:10:20Z</time>
      </trkpt>
      <trkpt lat="41.861988" lon="0.83608246">
        <time>2022-07-07T15:10:22Z</time>
      </trkpt>
      <trkpt lat="41.862034" lon="0.83615184">
        <time>2022-07-07T15:10:24Z</time>
      </trkpt>
      <trkpt lat="41.862083" lon="0.8362221">
        <time>2022-07-07T15:10:26Z</time>
      </trkpt>
      <trkpt lat="41.862133" lon="0.8362955">
        <time>2022-07-07T15:10:28Z</time>
      </trkpt>
      <trkpt lat="41.862183" lon="0.83636844">
        <time>2022-07-07T15:10:30Z</time>
      </trkpt>
      <trkpt lat="41.862225" lon="0.83643645">
        <time>2022-07-07T15:10:32Z</time>
      </trkpt>
      <trkpt lat="41.862267" lon="0.8365061">
        <time>2022-07-07T15:10:34Z</time>
      </trkpt>
      <trkpt lat="41.862305" lon="0.83657277">
        <time>2022-07-07T15:10:36Z</time>
      </trkpt>
      <trkpt lat="41.86234" lon="0.83663577">
        <time>2022-07-07T15:10:38Z</time>
      </trkpt>
      <trkpt lat="41.862377" lon="0.8366985">
        <time>2022-07-07T15:10:40Z</time>
      </trkpt>
      <trkpt lat="41.86241" lon="0.83676046">
        <time>2022-07-07T15:10:42Z</time>
      </trkpt>
      <trkpt lat="41.86245" lon="0.8368258">
        <time>2022-07-07T15:10:44Z</time>
      </trkpt>
      <trkpt lat="41.86249" lon="0.8368961">
        <time>2022-07-07T15:10:46Z</time>
      </trkpt>
      <trkpt lat="41.86253" lon="0.8369631">
        <time>2022-07-07T15:10:48Z</time>
      </trkpt>
      <trkpt lat="41.86257" lon="0.83702743">
        <time>2022-07-07T15:10:50Z</time>
      </trkpt>
      <trkpt lat="41.862614" lon="0.8370898">
        <time>2022-07-07T15:10:52Z</time>
      </trkpt>
      <trkpt lat="41.862656" lon="0.83715445">
        <time>2022-07-07T15:10:54Z</time>
      </trkpt>
      <trkpt lat="41.862698" lon="0.83721876">
        <time>2022-07-07T15:10:56Z</time>
      </trkpt>
      <trkpt lat="41.86274" lon="0.8372804">
        <time>2022-07-07T15:10:58Z</time>
      </trkpt>
      <trkpt lat="41.862785" lon="0.8373394">
        <time>2022-07-07T15:11:00Z</time>
      </trkpt>
      <trkpt lat="41.862827" lon="0.8373957">
        <time>2022-07-07T15:11:02Z</time>
      </trkpt>
      <trkpt lat="41.862873" lon="0.83745474">
        <time>2022-07-07T15:11:04Z</time>
      </trkpt>
      <trkpt lat="41.86292" lon="0.8375121">
        <time>2022-07-07T15:11:06Z</time>
      </trkpt>
      <trkpt lat="41.86297" lon="0.8375661">
        <time>2022-07-07T15:11:08Z</time>
      </trkpt>
      <trkpt lat="41.863014" lon="0.8376164">
        <time>2022-07-07T15:11:10Z</time>
      </trkpt>
      <trkpt lat="41.86306" lon="0.8376684">
        <time>2022-07-07T15:11:12Z</time>
      </trkpt>
      <trkpt lat="41.863106" lon="0.8377191">
        <time>2022-07-07T15:11:14Z</time>
      </trkpt>
      <trkpt lat="41.863155" lon="0.8377684">
        <time>2022-07-07T15:11:16Z</time>
      </trkpt>
      <trkpt lat="41.863224" lon="0.83784807">
        <time>2022-07-07T15:11:19Z</time>
      </trkpt>
      <trkpt lat="41.863274" lon="0.8379007">
        <time>2022-07-07T15:11:21Z</time>
      </trkpt>
      <trkpt lat="41.86332" lon="0.837948">
        <time>2022-07-07T15:11:23Z</time>
      </trkpt>
      <trkpt lat="41.863365" lon="0.83800036">
        <time>2022-07-07T15:11:25Z</time>
      </trkpt>
      <trkpt lat="41.863403" lon="0.83805573">
        <time>2022-07-07T15:11:27Z</time>
      </trkpt>
      <trkpt lat="41.863445" lon="0.83811307">
        <time>2022-07-07T15:11:29Z</time>
      </trkpt>
      <trkpt lat="41.8635" lon="0.83817506">
        <time>2022-07-07T15:11:31Z</time>
      </trkpt>
      <trkpt lat="41.86355" lon="0.8382314">
        <time>2022-07-07T15:11:33Z</time>
      </trkpt>
      <trkpt lat="41.8636" lon="0.83828706">
        <time>2022-07-07T15:11:35Z</time>
      </trkpt>
      <trkpt lat="41.86365" lon="0.838343">
        <time>2022-07-07T15:11:37Z</time>
      </trkpt>
      <trkpt lat="41.863693" lon="0.8384017">
        <time>2022-07-07T15:11:39Z</time>
      </trkpt>
      <trkpt lat="41.863735" lon="0.83846503">
        <time>2022-07-07T15:11:41Z</time>
      </trkpt>
      <trkpt lat="41.863777" lon="0.8385327">
        <time>2022-07-07T15:11:43Z</time>
      </trkpt>
      <trkpt lat="41.863823" lon="0.838603">
        <time>2022-07-07T15:11:45Z</time>
      </trkpt>
      <trkpt lat="41.863865" lon="0.8386727">
        <time>2022-07-07T15:11:47Z</time>
      </trkpt>
      <trkpt lat="41.86391" lon="0.838738">
        <time>2022-07-07T15:11:49Z</time>
      </trkpt>
      <trkpt lat="41.86396" lon="0.8387977">
        <time>2022-07-07T15:11:51Z</time>
      </trkpt>
      <trkpt lat="41.86401" lon="0.8388557">
        <time>2022-07-07T15:11:53Z</time>
      </trkpt>
      <trkpt lat="41.864056" lon="0.8389163">
        <time>2022-07-07T15:11:55Z</time>
      </trkpt>
      <trkpt lat="41.864094" lon="0.83897966">
        <time>2022-07-07T15:11:57Z</time>
      </trkpt>
      <trkpt lat="41.864136" lon="0.8390453">
        <time>2022-07-07T15:11:59Z</time>
      </trkpt>
      <trkpt lat="41.864178" lon="0.8391043">
        <time>2022-07-07T15:12:01Z</time>
      </trkpt>
      <trkpt lat="41.86422" lon="0.8391583">
        <time>2022-07-07T15:12:03Z</time>
      </trkpt>
      <trkpt lat="41.864265" lon="0.8392096">
        <time>2022-07-07T15:12:05Z</time>
      </trkpt>
      <trkpt lat="41.86431" lon="0.839255">
        <time>2022-07-07T15:12:07Z</time>
      </trkpt>
      <trkpt lat="41.864357" lon="0.8392933">
        <time>2022-07-07T15:12:09Z</time>
      </trkpt>
      <trkpt lat="41.86442" lon="0.8393496">
        <time>2022-07-07T15:12:12Z</time>
      </trkpt>
      <trkpt lat="41.864464" lon="0.83939666">
        <time>2022-07-07T15:12:14Z</time>
      </trkpt>
      <trkpt lat="41.864506" lon="0.83945096">
        <time>2022-07-07T15:12:16Z</time>
      </trkpt>
      <trkpt lat="41.864548" lon="0.8395106">
        <time>2022-07-07T15:12:18Z</time>
      </trkpt>
      <trkpt lat="41.864597" lon="0.83957595">
        <time>2022-07-07T15:12:20Z</time>
      </trkpt>
      <trkpt lat="41.864647" lon="0.8396473">
        <time>2022-07-07T15:12:22Z</time>
      </trkpt>
      <trkpt lat="41.86473" lon="0.8397673">
        <time>2022-07-07T15:12:25Z</time>
      </trkpt>
      <trkpt lat="41.86479" lon="0.83984864">
        <time>2022-07-07T15:12:27Z</time>
      </trkpt>
      <trkpt lat="41.86485" lon="0.8399266">
        <time>2022-07-07T15:12:29Z</time>
      </trkpt>
      <trkpt lat="41.864906" lon="0.8400006">
        <time>2022-07-07T15:12:31Z</time>
      </trkpt>
      <trkpt lat="41.864967" lon="0.84007025">
        <time>2022-07-07T15:12:33Z</time>
      </trkpt>
      <trkpt lat="41.86503" lon="0.8401299">
        <time>2022-07-07T15:12:35Z</time>
      </trkpt>
      <trkpt lat="41.865093" lon="0.84017724">
        <time>2022-07-07T15:12:37Z</time>
      </trkpt>
      <trkpt lat="41.865158" lon="0.8402149">
        <time>2022-07-07T15:12:39Z</time>
      </trkpt>
      <trkpt lat="41.865215" lon="0.84025395">
        <time>2022-07-07T15:12:41Z</time>
      </trkpt>
      <trkpt lat="41.865265" lon="0.8402989">
        <time>2022-07-07T15:12:43Z</time>
      </trkpt>
      <trkpt lat="41.86532" lon="0.84035957">
        <time>2022-07-07T15:12:45Z</time>
      </trkpt>
      <trkpt lat="41.86537" lon="0.8404316">
        <time>2022-07-07T15:12:47Z</time>
      </trkpt>
      <trkpt lat="41.865425" lon="0.8404906">
        <time>2022-07-07T15:12:49Z</time>
      </trkpt>
      <trkpt lat="41.865482" lon="0.8405249">
        <time>2022-07-07T15:12:51Z</time>
      </trkpt>
      <trkpt lat="41.865536" lon="0.84054756">
        <time>2022-07-07T15:12:53Z</time>
      </trkpt>
      <trkpt lat="41.86559" lon="0.8405669">
        <time>2022-07-07T15:12:55Z</time>
      </trkpt>
      <trkpt lat="41.86564" lon="0.84058523">
        <time>2022-07-07T15:12:57Z</time>
      </trkpt>
      <trkpt lat="41.865696" lon="0.8406066">
        <time>2022-07-07T15:12:59Z</time>
      </trkpt>
      <trkpt lat="41.865753" lon="0.8406279">
        <time>2022-07-07T15:13:01Z</time>
      </trkpt>
      <trkpt lat="41.86581" lon="0.8406479">
        <time>2022-07-07T15:13:03Z</time>
      </trkpt>
      <trkpt lat="41.865864" lon="0.8406692">
        <time>2022-07-07T15:13:05Z</time>
      </trkpt>
      <trkpt lat="41.86592" lon="0.8406882">
        <time>2022-07-07T15:13:07Z</time>
      </trkpt>
      <trkpt lat="41.86598" lon="0.84070724">
        <time>2022-07-07T15:13:09Z</time>
      </trkpt>
      <trkpt lat="41.866035" lon="0.84072685">
        <time>2022-07-07T15:13:11Z</time>
      </trkpt>
      <trkpt lat="41.866096" lon="0.84075123">
        <time>2022-07-07T15:13:13Z</time>
      </trkpt>
      <trkpt lat="41.866158" lon="0.8407825">
        <time>2022-07-07T15:13:15Z</time>
      </trkpt>
      <trkpt lat="41.866215" lon="0.84081256">
        <time>2022-07-07T15:13:17Z</time>
      </trkpt>
      <trkpt lat="41.866276" lon="0.8408405">
        <time>2022-07-07T15:13:19Z</time>
      </trkpt>
      <trkpt lat="41.86634" lon="0.84086657">
        <time>2022-07-07T15:13:21Z</time>
      </trkpt>
      <trkpt lat="41.866405" lon="0.8408872">
        <time>2022-07-07T15:13:23Z</time>
      </trkpt>
      <trkpt lat="41.866467" lon="0.8409062">
        <time>2022-07-07T15:13:25Z</time>
      </trkpt>
      <trkpt lat="41.866528" lon="0.8409232">
        <time>2022-07-07T15:13:27Z</time>
      </trkpt>
      <trkpt lat="41.866585" lon="0.8409452">
        <time>2022-07-07T15:13:29Z</time>
      </trkpt>
      <trkpt lat="41.866646" lon="0.84097487">
        <time>2022-07-07T15:13:31Z</time>
      </trkpt>
      <trkpt lat="41.866707" lon="0.84100884">
        <time>2022-07-07T15:13:33Z</time>
      </trkpt>
      <trkpt lat="41.866768" lon="0.84104353">
        <time>2022-07-07T15:13:35Z</time>
      </trkpt>
      <trkpt lat="41.86683" lon="0.84108484">
        <time>2022-07-07T15:13:37Z</time>
      </trkpt>
      <trkpt lat="41.866882" lon="0.8411352">
        <time>2022-07-07T15:13:39Z</time>
      </trkpt>
      <trkpt lat="41.866913" lon="0.84118116">
        <time>2022-07-07T15:13:41Z</time>
      </trkpt>
      <trkpt lat="41.866936" lon="0.8412228">
        <time>2022-07-07T15:13:50Z</time>
      </trkpt>
      <trkpt lat="41.866985" lon="0.84121454">
        <time>2022-07-07T15:14:25Z</time>
      </trkpt>
      <trkpt lat="41.86705" lon="0.8411822">
        <time>2022-07-07T15:14:28Z</time>
      </trkpt>
      <trkpt lat="41.867115" lon="0.8411892">
        <time>2022-07-07T15:14:31Z</time>
      </trkpt>
      <trkpt lat="41.867176" lon="0.84122086">
        <time>2022-07-07T15:14:34Z</time>
      </trkpt>
      <trkpt lat="41.86724" lon="0.84124714">
        <time>2022-07-07T15:14:37Z</time>
      </trkpt>
      <trkpt lat="41.86731" lon="0.8412592">
        <time>2022-07-07T15:14:40Z</time>
      </trkpt>
      <trkpt lat="41.86736" lon="0.84126085">
        <time>2022-07-07T15:14:42Z</time>
      </trkpt>
      <trkpt lat="41.86743" lon="0.84126484">
        <time>2022-07-07T15:14:45Z</time>
      </trkpt>
      <trkpt lat="41.867504" lon="0.84126717">
        <time>2022-07-07T15:14:48Z</time>
      </trkpt>
      <trkpt lat="41.867577" lon="0.8412758">
        <time>2022-07-07T15:14:51Z</time>
      </trkpt>
      <trkpt lat="41.867626" lon="0.8412775">
        <time>2022-07-07T15:14:53Z</time>
      </trkpt>
      <trkpt lat="41.867695" lon="0.84129447">
        <time>2022-07-07T15:14:56Z</time>
      </trkpt>
      <trkpt lat="41.86777" lon="0.8413135">
        <time>2022-07-07T15:14:59Z</time>
      </trkpt>
      <trkpt lat="41.86782" lon="0.84133214">
        <time>2022-07-07T15:15:01Z</time>
      </trkpt>
      <trkpt lat="41.867874" lon="0.8413508">
        <time>2022-07-07T15:15:03Z</time>
      </trkpt>
      <trkpt lat="41.86793" lon="0.84137046">
        <time>2022-07-07T15:15:05Z</time>
      </trkpt>
      <trkpt lat="41.867996" lon="0.8413981">
        <time>2022-07-07T15:15:07Z</time>
      </trkpt>
      <trkpt lat="41.868065" lon="0.8414368">
        <time>2022-07-07T15:15:09Z</time>
      </trkpt>
      <trkpt lat="41.86814" lon="0.8414841">
        <time>2022-07-07T15:15:11Z</time>
      </trkpt>
      <trkpt lat="41.86822" lon="0.84153414">
        <time>2022-07-07T15:15:13Z</time>
      </trkpt>
      <trkpt lat="41.868305" lon="0.8415838">
        <time>2022-07-07T15:15:15Z</time>
      </trkpt>
      <trkpt lat="41.86838" lon="0.8416271">
        <time>2022-07-07T15:15:17Z</time>
      </trkpt>
      <trkpt lat="41.86845" lon="0.84166574">
        <time>2022-07-07T15:15:19Z</time>
      </trkpt>
      <trkpt lat="41.868504" lon="0.84169877">
        <time>2022-07-07T15:15:21Z</time>
      </trkpt>
      <trkpt lat="41.86855" lon="0.8417311">
        <time>2022-07-07T15:15:23Z</time>
      </trkpt>
      <trkpt lat="41.86861" lon="0.8417794">
        <time>2022-07-07T15:15:26Z</time>
      </trkpt>
      <trkpt lat="41.868725" lon="0.84172606">
        <time>2022-07-07T15:15:47Z</time>
      </trkpt>
      <trkpt lat="41.868755" lon="0.84167343">
        <time>2022-07-07T15:15:53Z</time>
      </trkpt>
      <trkpt lat="41.868805" lon="0.8416291">
        <time>2022-07-07T15:15:59Z</time>
      </trkpt>
      <trkpt lat="41.86886" lon="0.8416191">
        <time>2022-07-07T15:16:02Z</time>
      </trkpt>
      <trkpt lat="41.869026" lon="0.84164673">
        <time>2022-07-07T15:17:07Z</time>
      </trkpt>
      <trkpt lat="41.86909" lon="0.84166944">
        <time>2022-07-07T15:17:09Z</time>
      </trkpt>
      <trkpt lat="41.86917" lon="0.8416994">
        <time>2022-07-07T15:17:11Z</time>
      </trkpt>
      <trkpt lat="41.869274" lon="0.8417191">
        <time>2022-07-07T15:17:13Z</time>
      </trkpt>
      <trkpt lat="41.869328" lon="0.84171677">
        <time>2022-07-07T15:17:14Z</time>
      </trkpt>
      <trkpt lat="41.869385" lon="0.84170806">
        <time>2022-07-07T15:17:15Z</time>
      </trkpt>
      <trkpt lat="41.869442" lon="0.84169275">
        <time>2022-07-07T15:17:16Z</time>
      </trkpt>
      <trkpt lat="41.869503" lon="0.84167445">
        <time>2022-07-07T15:17:17Z</time>
      </trkpt>
      <trkpt lat="41.86956" lon="0.8416558">
        <time>2022-07-07T15:17:18Z</time>
      </trkpt>
      <trkpt lat="41.869617" lon="0.84163713">
        <time>2022-07-07T15:17:19Z</time>
      </trkpt>
      <trkpt lat="41.86967" lon="0.84162176">
        <time>2022-07-07T15:17:20Z</time>
      </trkpt>
      <trkpt lat="41.869724" lon="0.84161144">
        <time>2022-07-07T15:17:21Z</time>
      </trkpt>
      <trkpt lat="41.869778" lon="0.8416078">
        <time>2022-07-07T15:17:22Z</time>
      </trkpt>
      <trkpt lat="41.869827" lon="0.84161013">
        <time>2022-07-07T15:17:23Z</time>
      </trkpt>
      <trkpt lat="41.869926" lon="0.84162915">
        <time>2022-07-07T15:17:25Z</time>
      </trkpt>
      <trkpt lat="41.870033" lon="0.8416638">
        <time>2022-07-07T15:17:27Z</time>
      </trkpt>
      <trkpt lat="41.87008" lon="0.84168345">
        <time>2022-07-07T15:17:28Z</time>
      </trkpt>
      <trkpt lat="41.87013" lon="0.84170544">
        <time>2022-07-07T15:17:29Z</time>
      </trkpt>
      <trkpt lat="41.870174" lon="0.8417271">
        <time>2022-07-07T15:17:30Z</time>
      </trkpt>
      <trkpt lat="41.870266" lon="0.8417741">
        <time>2022-07-07T15:17:32Z</time>
      </trkpt>
      <trkpt lat="41.870365" lon="0.84182775">
        <time>2022-07-07T15:17:34Z</time>
      </trkpt>
      <trkpt lat="41.870415" lon="0.8418564">
        <time>2022-07-07T15:17:35Z</time>
      </trkpt>
      <trkpt lat="41.870464" lon="0.84188575">
        <time>2022-07-07T15:17:36Z</time>
      </trkpt>
      <trkpt lat="41.870514" lon="0.8419171">
        <time>2022-07-07T15:17:37Z</time>
      </trkpt>
      <trkpt lat="41.870564" lon="0.8419494">
        <time>2022-07-07T15:17:38Z</time>
      </trkpt>
      <trkpt lat="41.87061" lon="0.8419824">
        <time>2022-07-07T15:17:39Z</time>
      </trkpt>
      <trkpt lat="41.870655" lon="0.84201705">
        <time>2022-07-07T15:17:40Z</time>
      </trkpt>
      <trkpt lat="41.870697" lon="0.8420504">
        <time>2022-07-07T15:17:41Z</time>
      </trkpt>
      <trkpt lat="41.87078" lon="0.8421154">
        <time>2022-07-07T15:17:43Z</time>
      </trkpt>
      <trkpt lat="41.870865" lon="0.8421757">
        <time>2022-07-07T15:17:45Z</time>
      </trkpt>
      <trkpt lat="41.870945" lon="0.84224105">
        <time>2022-07-07T15:17:47Z</time>
      </trkpt>
      <trkpt lat="41.87098" lon="0.8422727">
        <time>2022-07-07T15:17:48Z</time>
      </trkpt>
      <trkpt lat="41.87105" lon="0.8423327">
        <time>2022-07-07T15:17:50Z</time>
      </trkpt>
      <trkpt lat="41.871117" lon="0.8423914">
        <time>2022-07-07T15:17:52Z</time>
      </trkpt>
      <trkpt lat="41.87118" lon="0.8424487">
        <time>2022-07-07T15:17:54Z</time>
      </trkpt>
      <trkpt lat="41.871243" lon="0.84250206">
        <time>2022-07-07T15:17:56Z</time>
      </trkpt>
      <trkpt lat="41.871307" lon="0.8425527">
        <time>2022-07-07T15:17:58Z</time>
      </trkpt>
      <trkpt lat="41.87137" lon="0.8425987">
        <time>2022-07-07T15:18:00Z</time>
      </trkpt>
      <trkpt lat="41.871437" lon="0.8426477">
        <time>2022-07-07T15:18:02Z</time>
      </trkpt>
      <trkpt lat="41.87151" lon="0.842696">
        <time>2022-07-07T15:18:04Z</time>
      </trkpt>
      <trkpt lat="41.87158" lon="0.84274536">
        <time>2022-07-07T15:18:06Z</time>
      </trkpt>
      <trkpt lat="41.871655" lon="0.84279734">
        <time>2022-07-07T15:18:08Z</time>
      </trkpt>
      <trkpt lat="41.871727" lon="0.8428494">
        <time>2022-07-07T15:18:10Z</time>
      </trkpt>
      <trkpt lat="41.871807" lon="0.84291035">
        <time>2022-07-07T15:18:12Z</time>
      </trkpt>
      <trkpt lat="41.87189" lon="0.8429807">
        <time>2022-07-07T15:18:14Z</time>
      </trkpt>
      <trkpt lat="41.871933" lon="0.843018">
        <time>2022-07-07T15:18:15Z</time>
      </trkpt>
      <trkpt lat="41.872013" lon="0.84309804">
        <time>2022-07-07T15:18:17Z</time>
      </trkpt>
      <trkpt lat="41.87205" lon="0.8431377">
        <time>2022-07-07T15:18:18Z</time>
      </trkpt>
      <trkpt lat="41.872124" lon="0.84321404">
        <time>2022-07-07T15:18:20Z</time>
      </trkpt>
      <trkpt lat="41.872204" lon="0.84328437">
        <time>2022-07-07T15:18:22Z</time>
      </trkpt>
      <trkpt lat="41.87229" lon="0.84334767">
        <time>2022-07-07T15:18:24Z</time>
      </trkpt>
      <trkpt lat="41.87238" lon="0.843394">
        <time>2022-07-07T15:18:26Z</time>
      </trkpt>
      <trkpt lat="41.872463" lon="0.84342533">
        <time>2022-07-07T15:18:28Z</time>
      </trkpt>
      <trkpt lat="41.87255" lon="0.843449">
        <time>2022-07-07T15:18:30Z</time>
      </trkpt>
      <trkpt lat="41.87264" lon="0.8434743">
        <time>2022-07-07T15:18:32Z</time>
      </trkpt>
      <trkpt lat="41.872723" lon="0.843515">
        <time>2022-07-07T15:18:34Z</time>
      </trkpt>
      <trkpt lat="41.872795" lon="0.8435803">
        <time>2022-07-07T15:18:36Z</time>
      </trkpt>
      <trkpt lat="41.87285" lon="0.8436683">
        <time>2022-07-07T15:18:38Z</time>
      </trkpt>
      <trkpt lat="41.87289" lon="0.84376264">
        <time>2022-07-07T15:18:40Z</time>
      </trkpt>
      <trkpt lat="41.872932" lon="0.84386295">
        <time>2022-07-07T15:18:42Z</time>
      </trkpt>
      <trkpt lat="41.872974" lon="0.84396863">
        <time>2022-07-07T15:18:44Z</time>
      </trkpt>
      <trkpt lat="41.87301" lon="0.8440716">
        <time>2022-07-07T15:18:46Z</time>
      </trkpt>
      <trkpt lat="41.873043" lon="0.8441686">
        <time>2022-07-07T15:18:48Z</time>
      </trkpt>
      <trkpt lat="41.8731" lon="0.8443033">
        <time>2022-07-07T15:18:51Z</time>
      </trkpt>
      <trkpt lat="41.87314" lon="0.8443823">
        <time>2022-07-07T15:18:53Z</time>
      </trkpt>
      <trkpt lat="41.873177" lon="0.8444556">
        <time>2022-07-07T15:18:55Z</time>
      </trkpt>
      <trkpt lat="41.873215" lon="0.84452295">
        <time>2022-07-07T15:18:57Z</time>
      </trkpt>
      <trkpt lat="41.873257" lon="0.84458596">
        <time>2022-07-07T15:18:59Z</time>
      </trkpt>
      <trkpt lat="41.873295" lon="0.8446446">
        <time>2022-07-07T15:19:01Z</time>
      </trkpt>
      <trkpt lat="41.873337" lon="0.8447016">
        <time>2022-07-07T15:19:03Z</time>
      </trkpt>
      <trkpt lat="41.87337" lon="0.84475595">
        <time>2022-07-07T15:19:05Z</time>
      </trkpt>
      <trkpt lat="41.87341" lon="0.8448083">
        <time>2022-07-07T15:19:07Z</time>
      </trkpt>
      <trkpt lat="41.87345" lon="0.84485626">
        <time>2022-07-07T15:19:09Z</time>
      </trkpt>
      <trkpt lat="41.873493" lon="0.8449019">
        <time>2022-07-07T15:19:11Z</time>
      </trkpt>
      <trkpt lat="41.87354" lon="0.8449549">
        <time>2022-07-07T15:19:13Z</time>
      </trkpt>
      <trkpt lat="41.87358" lon="0.84501326">
        <time>2022-07-07T15:19:15Z</time>
      </trkpt>
      <trkpt lat="41.873623" lon="0.84507924">
        <time>2022-07-07T15:19:17Z</time>
      </trkpt>
      <trkpt lat="41.873665" lon="0.84514594">
        <time>2022-07-07T15:19:19Z</time>
      </trkpt>
      <trkpt lat="41.87371" lon="0.8452082">
        <time>2022-07-07T15:19:21Z</time>
      </trkpt>
      <trkpt lat="41.873753" lon="0.84526926">
        <time>2022-07-07T15:19:23Z</time>
      </trkpt>
      <trkpt lat="41.873787" lon="0.8453299">
        <time>2022-07-07T15:19:25Z</time>
      </trkpt>
      <trkpt lat="41.873817" lon="0.8453846">
        <time>2022-07-07T15:19:27Z</time>
      </trkpt>
      <trkpt lat="41.873856" lon="0.8454622">
        <time>2022-07-07T15:19:30Z</time>
      </trkpt>
      <trkpt lat="41.873882" lon="0.8455176">
        <time>2022-07-07T15:19:32Z</time>
      </trkpt>
      <trkpt lat="41.873913" lon="0.84557724">
        <time>2022-07-07T15:19:34Z</time>
      </trkpt>
      <trkpt lat="41.873943" lon="0.84563655">
        <time>2022-07-07T15:19:36Z</time>
      </trkpt>
      <trkpt lat="41.873978" lon="0.8457245">
        <time>2022-07-07T15:19:39Z</time>
      </trkpt>
      <trkpt lat="41.874004" lon="0.8457872">
        <time>2022-07-07T15:19:41Z</time>
      </trkpt>
      <trkpt lat="41.874023" lon="0.8458469">
        <time>2022-07-07T15:19:43Z</time>
      </trkpt>
      <trkpt lat="41.87405" lon="0.8459382">
        <time>2022-07-07T15:19:46Z</time>
      </trkpt>
      <trkpt lat="41.87408" lon="0.8460392">
        <time>2022-07-07T15:19:49Z</time>
      </trkpt>
      <trkpt lat="41.874096" lon="0.84610385">
        <time>2022-07-07T15:19:51Z</time>
      </trkpt>
      <trkpt lat="41.87411" lon="0.84616417">
        <time>2022-07-07T15:19:53Z</time>
      </trkpt>
      <trkpt lat="41.874134" lon="0.84625155">
        <time>2022-07-07T15:19:56Z</time>
      </trkpt>
      <trkpt lat="41.874153" lon="0.8463335">
        <time>2022-07-07T15:19:59Z</time>
      </trkpt>
      <trkpt lat="41.87418" lon="0.8464285">
        <time>2022-07-07T15:20:02Z</time>
      </trkpt>
      <trkpt lat="41.8742" lon="0.84649616">
        <time>2022-07-07T15:20:04Z</time>
      </trkpt>
      <trkpt lat="41.874218" lon="0.84656084">
        <time>2022-07-07T15:20:06Z</time>
      </trkpt>
      <trkpt lat="41.87424" lon="0.8466582">
        <time>2022-07-07T15:20:09Z</time>
      </trkpt>
      <trkpt lat="41.874252" lon="0.8467248">
        <time>2022-07-07T15:20:11Z</time>
      </trkpt>
      <trkpt lat="41.87427" lon="0.84682584">
        <time>2022-07-07T15:20:14Z</time>
      </trkpt>
      <trkpt lat="41.87428" lon="0.8468908">
        <time>2022-07-07T15:20:16Z</time>
      </trkpt>
      <trkpt lat="41.87428" lon="0.84698147">
        <time>2022-07-07T15:20:19Z</time>
      </trkpt>
      <trkpt lat="41.874264" lon="0.8470628">
        <time>2022-07-07T15:20:22Z</time>
      </trkpt>
      <trkpt lat="41.874245" lon="0.84713316">
        <time>2022-07-07T15:20:25Z</time>
      </trkpt>
      <trkpt lat="41.874233" lon="0.8471845">
        <time>2022-07-07T15:20:28Z</time>
      </trkpt>
      <trkpt lat="41.8742" lon="0.8473461">
        <time>2022-07-07T15:21:09Z</time>
      </trkpt>
      <trkpt lat="41.8742" lon="0.8474265">
        <time>2022-07-07T15:21:12Z</time>
      </trkpt>
      <trkpt lat="41.8742" lon="0.8475248">
        <time>2022-07-07T15:21:15Z</time>
      </trkpt>
      <trkpt lat="41.8742" lon="0.84760344">
        <time>2022-07-07T15:21:17Z</time>
      </trkpt>
      <trkpt lat="41.874203" lon="0.8476898">
        <time>2022-07-07T15:21:19Z</time>
      </trkpt>
      <trkpt lat="41.874207" lon="0.84778315">
        <time>2022-07-07T15:21:21Z</time>
      </trkpt>
      <trkpt lat="41.87421" lon="0.84788346">
        <time>2022-07-07T15:21:23Z</time>
      </trkpt>
      <trkpt lat="41.87421" lon="0.8479881">
        <time>2022-07-07T15:21:25Z</time>
      </trkpt>
      <trkpt lat="41.874214" lon="0.84809774">
        <time>2022-07-07T15:21:27Z</time>
      </trkpt>
      <trkpt lat="41.874218" lon="0.8482128">
        <time>2022-07-07T15:21:29Z</time>
      </trkpt>
      <trkpt lat="41.874226" lon="0.8483291">
        <time>2022-07-07T15:21:31Z</time>
      </trkpt>
      <trkpt lat="41.87424" lon="0.8484468">
        <time>2022-07-07T15:21:33Z</time>
      </trkpt>
      <trkpt lat="41.87426" lon="0.8485704">
        <time>2022-07-07T15:21:35Z</time>
      </trkpt>
      <trkpt lat="41.874283" lon="0.8486964">
        <time>2022-07-07T15:21:37Z</time>
      </trkpt>
      <trkpt lat="41.8743" lon="0.8487648">
        <time>2022-07-07T15:21:38Z</time>
      </trkpt>
      <trkpt lat="41.874313" lon="0.84883374">
        <time>2022-07-07T15:21:39Z</time>
      </trkpt>
      <trkpt lat="41.874325" lon="0.8489034">
        <time>2022-07-07T15:21:40Z</time>
      </trkpt>
      <trkpt lat="41.874336" lon="0.84897506">
        <time>2022-07-07T15:21:41Z</time>
      </trkpt>
      <trkpt lat="41.874344" lon="0.84904975">
        <time>2022-07-07T15:21:42Z</time>
      </trkpt>
      <trkpt lat="41.874344" lon="0.8491264">
        <time>2022-07-07T15:21:43Z</time>
      </trkpt>
      <trkpt lat="41.874344" lon="0.8492047">
        <time>2022-07-07T15:21:44Z</time>
      </trkpt>
      <trkpt lat="41.87434" lon="0.84928405">
        <time>2022-07-07T15:21:45Z</time>
      </trkpt>
      <trkpt lat="41.87433" lon="0.84936404">
        <time>2022-07-07T15:21:46Z</time>
      </trkpt>
      <trkpt lat="41.874317" lon="0.84944504">
        <time>2022-07-07T15:21:47Z</time>
      </trkpt>
      <trkpt lat="41.874302" lon="0.8495281">
        <time>2022-07-07T15:21:48Z</time>
      </trkpt>
      <trkpt lat="41.874283" lon="0.8496131">
        <time>2022-07-07T15:21:49Z</time>
      </trkpt>
      <trkpt lat="41.87426" lon="0.8496987">
        <time>2022-07-07T15:21:50Z</time>
      </trkpt>
      <trkpt lat="41.874233" lon="0.8497854">
        <time>2022-07-07T15:21:51Z</time>
      </trkpt>
      <trkpt lat="41.874207" lon="0.8498727">
        <time>2022-07-07T15:21:52Z</time>
      </trkpt>
      <trkpt lat="41.874172" lon="0.8499587">
        <time>2022-07-07T15:21:53Z</time>
      </trkpt>
      <trkpt lat="41.87413" lon="0.85004205">
        <time>2022-07-07T15:21:54Z</time>
      </trkpt>
      <trkpt lat="41.87409" lon="0.85012233">
        <time>2022-07-07T15:21:55Z</time>
      </trkpt>
      <trkpt lat="41.874046" lon="0.8501987">
        <time>2022-07-07T15:21:56Z</time>
      </trkpt>
      <trkpt lat="41.874004" lon="0.8502727">
        <time>2022-07-07T15:21:57Z</time>
      </trkpt>
      <trkpt lat="41.87396" lon="0.85034335">
        <time>2022-07-07T15:21:58Z</time>
      </trkpt>
      <trkpt lat="41.873917" lon="0.85041165">
        <time>2022-07-07T15:21:59Z</time>
      </trkpt>
      <trkpt lat="41.873875" lon="0.8504767">
        <time>2022-07-07T15:22:00Z</time>
      </trkpt>
      <trkpt lat="41.873837" lon="0.85053766">
        <time>2022-07-07T15:22:01Z</time>
      </trkpt>
      <trkpt lat="41.873795" lon="0.850596">
        <time>2022-07-07T15:22:02Z</time>
      </trkpt>
      <trkpt lat="41.873722" lon="0.85069567">
        <time>2022-07-07T15:22:04Z</time>
      </trkpt>
      <trkpt lat="41.873695" lon="0.850736">
        <time>2022-07-07T15:22:05Z</time>
      </trkpt>
      <trkpt lat="41.87365" lon="0.850789">
        <time>2022-07-07T15:22:07Z</time>
      </trkpt>
      <trkpt lat="41.873615" lon="0.8508163">
        <time>2022-07-07T15:22:11Z</time>
      </trkpt>
      <trkpt lat="41.873558" lon="0.85090196">
        <time>2022-07-07T15:22:49Z</time>
      </trkpt>
      <trkpt lat="41.87352" lon="0.8509733">
        <time>2022-07-07T15:22:51Z</time>
      </trkpt>
      <trkpt lat="41.87348" lon="0.8510573">
        <time>2022-07-07T15:22:53Z</time>
      </trkpt>
      <trkpt lat="41.873447" lon="0.85115296">
        <time>2022-07-07T15:22:55Z</time>
      </trkpt>
      <trkpt lat="41.873417" lon="0.851255">
        <time>2022-07-07T15:22:57Z</time>
      </trkpt>
      <trkpt lat="41.873398" lon="0.85136896">
        <time>2022-07-07T15:22:59Z</time>
      </trkpt>
      <trkpt lat="41.8734" lon="0.85148966">
        <time>2022-07-07T15:23:01Z</time>
      </trkpt>
      <trkpt lat="41.873425" lon="0.8516116">
        <time>2022-07-07T15:23:03Z</time>
      </trkpt>
      <trkpt lat="41.873463" lon="0.8517336">
        <time>2022-07-07T15:23:05Z</time>
      </trkpt>
      <trkpt lat="41.87348" lon="0.85179365">
        <time>2022-07-07T15:23:06Z</time>
      </trkpt>
      <trkpt lat="41.87352" lon="0.8519163">
        <time>2022-07-07T15:23:08Z</time>
      </trkpt>
      <trkpt lat="41.873535" lon="0.85204095">
        <time>2022-07-07T15:23:10Z</time>
      </trkpt>
      <trkpt lat="41.873516" lon="0.8521576">
        <time>2022-07-07T15:23:12Z</time>
      </trkpt>
      <trkpt lat="41.87347" lon="0.8522613">
        <time>2022-07-07T15:23:14Z</time>
      </trkpt>
      <trkpt lat="41.873405" lon="0.8523636">
        <time>2022-07-07T15:23:16Z</time>
      </trkpt>
      <trkpt lat="41.87333" lon="0.85246825">
        <time>2022-07-07T15:23:18Z</time>
      </trkpt>
      <trkpt lat="41.87329" lon="0.8525216">
        <time>2022-07-07T15:23:19Z</time>
      </trkpt>
      <trkpt lat="41.87325" lon="0.85257626">
        <time>2022-07-07T15:23:20Z</time>
      </trkpt>
      <trkpt lat="41.873207" lon="0.8526326">
        <time>2022-07-07T15:23:21Z</time>
      </trkpt>
      <trkpt lat="41.87316" lon="0.8526956">
        <time>2022-07-07T15:23:22Z</time>
      </trkpt>
      <trkpt lat="41.87312" lon="0.8527556">
        <time>2022-07-07T15:23:23Z</time>
      </trkpt>
      <trkpt lat="41.873077" lon="0.8528176">
        <time>2022-07-07T15:23:24Z</time>
      </trkpt>
      <trkpt lat="41.87304" lon="0.85288256">
        <time>2022-07-07T15:23:25Z</time>
      </trkpt>
      <trkpt lat="41.873" lon="0.8529506">
        <time>2022-07-07T15:23:26Z</time>
      </trkpt>
      <trkpt lat="41.872963" lon="0.85302025">
        <time>2022-07-07T15:23:27Z</time>
      </trkpt>
      <trkpt lat="41.872925" lon="0.85309327">
        <time>2022-07-07T15:23:28Z</time>
      </trkpt>
      <trkpt lat="41.87289" lon="0.8531686">
        <time>2022-07-07T15:23:29Z</time>
      </trkpt>
      <trkpt lat="41.872856" lon="0.8532446">
        <time>2022-07-07T15:23:30Z</time>
      </trkpt>
      <trkpt lat="41.872826" lon="0.85332155">
        <time>2022-07-07T15:23:31Z</time>
      </trkpt>
      <trkpt lat="41.8728" lon="0.8533992">
        <time>2022-07-07T15:23:32Z</time>
      </trkpt>
      <trkpt lat="41.872772" lon="0.8534769">
        <time>2022-07-07T15:23:33Z</time>
      </trkpt>
      <trkpt lat="41.872746" lon="0.85355926">
        <time>2022-07-07T15:23:34Z</time>
      </trkpt>
      <trkpt lat="41.87273" lon="0.8536376">
        <time>2022-07-07T15:23:35Z</time>
      </trkpt>
      <trkpt lat="41.872715" lon="0.8537182">
        <time>2022-07-07T15:23:36Z</time>
      </trkpt>
      <trkpt lat="41.8727" lon="0.85379887">
        <time>2022-07-07T15:23:37Z</time>
      </trkpt>
      <trkpt lat="41.872684" lon="0.85387886">
        <time>2022-07-07T15:23:38Z</time>
      </trkpt>
      <trkpt lat="41.872665" lon="0.8539629">
        <time>2022-07-07T15:23:39Z</time>
      </trkpt>
      <trkpt lat="41.87265" lon="0.8540432">
        <time>2022-07-07T15:23:40Z</time>
      </trkpt>
      <trkpt lat="41.87263" lon="0.85411954">
        <time>2022-07-07T15:23:41Z</time>
      </trkpt>
      <trkpt lat="41.872616" lon="0.85418785">
        <time>2022-07-07T15:23:42Z</time>
      </trkpt>
      <trkpt lat="41.8726" lon="0.8542592">
        <time>2022-07-07T15:23:43Z</time>
      </trkpt>
      <trkpt lat="41.872585" lon="0.8543352">
        <time>2022-07-07T15:23:44Z</time>
      </trkpt>
      <trkpt lat="41.87257" lon="0.8544095">
        <time>2022-07-07T15:23:45Z</time>
      </trkpt>
      <trkpt lat="41.872555" lon="0.8544829">
        <time>2022-07-07T15:23:46Z</time>
      </trkpt>
      <trkpt lat="41.872543" lon="0.8545502">
        <time>2022-07-07T15:23:47Z</time>
      </trkpt>
      <trkpt lat="41.87253" lon="0.85461885">
        <time>2022-07-07T15:23:48Z</time>
      </trkpt>
      <trkpt lat="41.87252" lon="0.8546929">
        <time>2022-07-07T15:23:49Z</time>
      </trkpt>
      <trkpt lat="41.87251" lon="0.8547622">
        <time>2022-07-07T15:23:50Z</time>
      </trkpt>
      <trkpt lat="41.8725" lon="0.85483253">
        <time>2022-07-07T15:23:51Z</time>
      </trkpt>
      <trkpt lat="41.87249" lon="0.8549025">
        <time>2022-07-07T15:23:52Z</time>
      </trkpt>
      <trkpt lat="41.87248" lon="0.85497385">
        <time>2022-07-07T15:23:53Z</time>
      </trkpt>
      <trkpt lat="41.87247" lon="0.8550445">
        <time>2022-07-07T15:23:54Z</time>
      </trkpt>
      <trkpt lat="41.872463" lon="0.8551195">
        <time>2022-07-07T15:23:55Z</time>
      </trkpt>
      <trkpt lat="41.872456" lon="0.8551885">
        <time>2022-07-07T15:23:56Z</time>
      </trkpt>
      <trkpt lat="41.87245" lon="0.85525817">
        <time>2022-07-07T15:23:57Z</time>
      </trkpt>
      <trkpt lat="41.872448" lon="0.8554028">
        <time>2022-07-07T15:23:59Z</time>
      </trkpt>
      <trkpt lat="41.872444" lon="0.8555435">
        <time>2022-07-07T15:24:01Z</time>
      </trkpt>
      <trkpt lat="41.87244" lon="0.8556155">
        <time>2022-07-07T15:24:02Z</time>
      </trkpt>
      <trkpt lat="41.872437" lon="0.8556918">
        <time>2022-07-07T15:24:03Z</time>
      </trkpt>
      <trkpt lat="41.872425" lon="0.85576546">
        <time>2022-07-07T15:24:04Z</time>
      </trkpt>
      <trkpt lat="41.872414" lon="0.85583514">
        <time>2022-07-07T15:24:05Z</time>
      </trkpt>
      <trkpt lat="41.8724" lon="0.8558971">
        <time>2022-07-07T15:24:06Z</time>
      </trkpt>
      <trkpt lat="41.872364" lon="0.85601944">
        <time>2022-07-07T15:24:08Z</time>
      </trkpt>
      <trkpt lat="41.87235" lon="0.8560791">
        <time>2022-07-07T15:24:09Z</time>
      </trkpt>
      <trkpt lat="41.87232" lon="0.8561881">
        <time>2022-07-07T15:24:11Z</time>
      </trkpt>
      <trkpt lat="41.87229" lon="0.85629714">
        <time>2022-07-07T15:24:13Z</time>
      </trkpt>
      <trkpt lat="41.872265" lon="0.8563978">
        <time>2022-07-07T15:24:15Z</time>
      </trkpt>
      <trkpt lat="41.872242" lon="0.8564988">
        <time>2022-07-07T15:24:17Z</time>
      </trkpt>
      <trkpt lat="41.872223" lon="0.8565951">
        <time>2022-07-07T15:24:19Z</time>
      </trkpt>
      <trkpt lat="41.872204" lon="0.8566911">
        <time>2022-07-07T15:24:21Z</time>
      </trkpt>
      <trkpt lat="41.872177" lon="0.8568344">
        <time>2022-07-07T15:24:24Z</time>
      </trkpt>
      <trkpt lat="41.87216" lon="0.85693175">
        <time>2022-07-07T15:24:26Z</time>
      </trkpt>
      <trkpt lat="41.87215" lon="0.8570328">
        <time>2022-07-07T15:24:28Z</time>
      </trkpt>
      <trkpt lat="41.87214" lon="0.85713845">
        <time>2022-07-07T15:24:30Z</time>
      </trkpt>
      <trkpt lat="41.872135" lon="0.8572528">
        <time>2022-07-07T15:24:32Z</time>
      </trkpt>
      <trkpt lat="41.87213" lon="0.85736173">
        <time>2022-07-07T15:24:34Z</time>
      </trkpt>
      <trkpt lat="41.87212" lon="0.85747343">
        <time>2022-07-07T15:24:36Z</time>
      </trkpt>
      <trkpt lat="41.872093" lon="0.85757977">
        <time>2022-07-07T15:24:38Z</time>
      </trkpt>
      <trkpt lat="41.872055" lon="0.8576774">
        <time>2022-07-07T15:24:40Z</time>
      </trkpt>
      <trkpt lat="41.872005" lon="0.8577684">
        <time>2022-07-07T15:24:42Z</time>
      </trkpt>
      <trkpt lat="41.871956" lon="0.8578484">
        <time>2022-07-07T15:24:44Z</time>
      </trkpt>
      <trkpt lat="41.871906" lon="0.85792506">
        <time>2022-07-07T15:24:46Z</time>
      </trkpt>
      <trkpt lat="41.871864" lon="0.8579794">
        <time>2022-07-07T15:24:48Z</time>
      </trkpt>
      <trkpt lat="41.871826" lon="0.8580164">
        <time>2022-07-07T15:24:51Z</time>
      </trkpt>
      <trkpt lat="41.871864" lon="0.8580184">
        <time>2022-07-07T15:25:10Z</time>
      </trkpt>
      <trkpt lat="41.87191" lon="0.85796976">
        <time>2022-07-07T15:25:13Z</time>
      </trkpt>
      <trkpt lat="41.871964" lon="0.8578911">
        <time>2022-07-07T15:25:16Z</time>
      </trkpt>
      <trkpt lat="41.872" lon="0.85783505">
        <time>2022-07-07T15:25:18Z</time>
      </trkpt>
      <trkpt lat="41.872044" lon="0.8577764">
        <time>2022-07-07T15:25:20Z</time>
      </trkpt>
      <trkpt lat="41.87209" lon="0.85774606">
        <time>2022-07-07T15:25:22Z</time>
      </trkpt>
      <trkpt lat="41.872135" lon="0.85776645">
        <time>2022-07-07T15:25:25Z</time>
      </trkpt>
      <trkpt lat="41.87217" lon="0.85784644">
        <time>2022-07-07T15:25:30Z</time>
      </trkpt>
      <trkpt lat="41.87217" lon="0.85784006">
        <time>2022-07-07T15:28:10Z</time>
      </trkpt>
      <trkpt lat="41.8721" lon="0.8577764">
        <time>2022-07-07T15:28:13Z</time>
      </trkpt>
      <trkpt lat="41.872047" lon="0.8577824">
        <time>2022-07-07T15:28:15Z</time>
      </trkpt>
      <trkpt lat="41.871998" lon="0.8578261">
        <time>2022-07-07T15:28:17Z</time>
      </trkpt>
      <trkpt lat="41.871952" lon="0.85788876">
        <time>2022-07-07T15:28:19Z</time>
      </trkpt>
      <trkpt lat="41.871906" lon="0.85795873">
        <time>2022-07-07T15:28:21Z</time>
      </trkpt>
      <trkpt lat="41.871853" lon="0.85803705">
        <time>2022-07-07T15:28:23Z</time>
      </trkpt>
      <trkpt lat="41.871803" lon="0.8581184">
        <time>2022-07-07T15:28:25Z</time>
      </trkpt>
      <trkpt lat="41.871758" lon="0.8581971">
        <time>2022-07-07T15:28:27Z</time>
      </trkpt>
      <trkpt lat="41.871708" lon="0.8582804">
        <time>2022-07-07T15:28:29Z</time>
      </trkpt>
      <trkpt lat="41.87166" lon="0.8583671">
        <time>2022-07-07T15:28:31Z</time>
      </trkpt>
      <trkpt lat="41.87161" lon="0.8584537">
        <time>2022-07-07T15:28:33Z</time>
      </trkpt>
      <trkpt lat="41.871548" lon="0.8585397">
        <time>2022-07-07T15:28:35Z</time>
      </trkpt>
      <trkpt lat="41.87147" lon="0.8586284">
        <time>2022-07-07T15:28:37Z</time>
      </trkpt>
      <trkpt lat="41.871437" lon="0.8586674">
        <time>2022-07-07T15:28:38Z</time>
      </trkpt>
      <trkpt lat="41.87136" lon="0.85874206">
        <time>2022-07-07T15:28:40Z</time>
      </trkpt>
      <trkpt lat="41.87128" lon="0.85881203">
        <time>2022-07-07T15:28:42Z</time>
      </trkpt>
      <trkpt lat="41.871204" lon="0.8588787">
        <time>2022-07-07T15:28:44Z</time>
      </trkpt>
      <trkpt lat="41.871128" lon="0.85894334">
        <time>2022-07-07T15:28:46Z</time>
      </trkpt>
      <trkpt lat="41.871056" lon="0.85900134">
        <time>2022-07-07T15:28:48Z</time>
      </trkpt>
      <trkpt lat="41.870983" lon="0.8590547">
        <time>2022-07-07T15:28:50Z</time>
      </trkpt>
      <trkpt lat="41.870914" lon="0.8591197">
        <time>2022-07-07T15:28:52Z</time>
      </trkpt>
      <trkpt lat="41.870846" lon="0.85919833">
        <time>2022-07-07T15:28:54Z</time>
      </trkpt>
      <trkpt lat="41.87078" lon="0.85928667">
        <time>2022-07-07T15:28:56Z</time>
      </trkpt>
      <trkpt lat="41.870724" lon="0.8593867">
        <time>2022-07-07T15:28:58Z</time>
      </trkpt>
      <trkpt lat="41.870667" lon="0.859491">
        <time>2022-07-07T15:29:00Z</time>
      </trkpt>
      <trkpt lat="41.870617" lon="0.8595973">
        <time>2022-07-07T15:29:02Z</time>
      </trkpt>
      <trkpt lat="41.87056" lon="0.8597043">
        <time>2022-07-07T15:29:04Z</time>
      </trkpt>
      <trkpt lat="41.870495" lon="0.859801">
        <time>2022-07-07T15:29:06Z</time>
      </trkpt>
      <trkpt lat="41.870464" lon="0.85985035">
        <time>2022-07-07T15:29:07Z</time>
      </trkpt>
      <trkpt lat="41.870407" lon="0.859953">
        <time>2022-07-07T15:29:09Z</time>
      </trkpt>
      <trkpt lat="41.87038" lon="0.860006">
        <time>2022-07-07T15:29:10Z</time>
      </trkpt>
      <trkpt lat="41.870327" lon="0.86010766">
        <time>2022-07-07T15:29:12Z</time>
      </trkpt>
      <trkpt lat="41.87027" lon="0.86021066">
        <time>2022-07-07T15:29:14Z</time>
      </trkpt>
      <trkpt lat="41.870243" lon="0.8602643">
        <time>2022-07-07T15:29:15Z</time>
      </trkpt>
      <trkpt lat="41.870186" lon="0.8603823">
        <time>2022-07-07T15:29:17Z</time>
      </trkpt>
      <trkpt lat="41.870155" lon="0.86043996">
        <time>2022-07-07T15:29:18Z</time>
      </trkpt>
      <trkpt lat="41.87013" lon="0.8605">
        <time>2022-07-07T15:29:19Z</time>
      </trkpt>
      <trkpt lat="41.87007" lon="0.8606203">
        <time>2022-07-07T15:29:21Z</time>
      </trkpt>
      <trkpt lat="41.870045" lon="0.86067796">
        <time>2022-07-07T15:29:22Z</time>
      </trkpt>
      <trkpt lat="41.87002" lon="0.86073893">
        <time>2022-07-07T15:29:23Z</time>
      </trkpt>
      <trkpt lat="41.87" lon="0.860801">
        <time>2022-07-07T15:29:24Z</time>
      </trkpt>
      <trkpt lat="41.869957" lon="0.86093026">
        <time>2022-07-07T15:29:26Z</time>
      </trkpt>
      <trkpt lat="41.869934" lon="0.860998">
        <time>2022-07-07T15:29:27Z</time>
      </trkpt>
      <trkpt lat="41.869915" lon="0.86106664">
        <time>2022-07-07T15:29:28Z</time>
      </trkpt>
      <trkpt lat="41.869896" lon="0.86114097">
        <time>2022-07-07T15:29:29Z</time>
      </trkpt>
      <trkpt lat="41.869877" lon="0.8612143">
        <time>2022-07-07T15:29:30Z</time>
      </trkpt>
      <trkpt lat="41.86986" lon="0.8612816">
        <time>2022-07-07T15:29:31Z</time>
      </trkpt>
      <trkpt lat="41.869846" lon="0.8613496">
        <time>2022-07-07T15:29:32Z</time>
      </trkpt>
      <trkpt lat="41.86983" lon="0.8614196">
        <time>2022-07-07T15:29:33Z</time>
      </trkpt>
      <trkpt lat="41.869816" lon="0.86149395">
        <time>2022-07-07T15:29:34Z</time>
      </trkpt>
      <trkpt lat="41.869804" lon="0.8615683">
        <time>2022-07-07T15:29:35Z</time>
      </trkpt>
      <trkpt lat="41.869793" lon="0.86163694">
        <time>2022-07-07T15:29:36Z</time>
      </trkpt>
      <trkpt lat="41.869785" lon="0.86170655">
        <time>2022-07-07T15:29:37Z</time>
      </trkpt>
      <trkpt lat="41.869766" lon="0.8618516">
        <time>2022-07-07T15:29:39Z</time>
      </trkpt>
      <trkpt lat="41.86974" lon="0.8619912">
        <time>2022-07-07T15:29:41Z</time>
      </trkpt>
      <trkpt lat="41.869728" lon="0.86206126">
        <time>2022-07-07T15:29:42Z</time>
      </trkpt>
      <trkpt lat="41.86971" lon="0.86212957">
        <time>2022-07-07T15:29:43Z</time>
      </trkpt>
      <trkpt lat="41.86969" lon="0.86219656">
        <time>2022-07-07T15:29:44Z</time>
      </trkpt>
      <trkpt lat="41.86967" lon="0.8622642">
        <time>2022-07-07T15:29:45Z</time>
      </trkpt>
      <trkpt lat="41.869648" lon="0.8623299">
        <time>2022-07-07T15:29:46Z</time>
      </trkpt>
      <trkpt lat="41.86962" lon="0.8623942">
        <time>2022-07-07T15:29:47Z</time>
      </trkpt>
      <trkpt lat="41.8696" lon="0.8624572">
        <time>2022-07-07T15:29:48Z</time>
      </trkpt>
      <trkpt lat="41.869545" lon="0.86258256">
        <time>2022-07-07T15:29:50Z</time>
      </trkpt>
      <trkpt lat="41.869522" lon="0.86264485">
        <time>2022-07-07T15:29:51Z</time>
      </trkpt>
      <trkpt lat="41.869495" lon="0.8627069">
        <time>2022-07-07T15:29:52Z</time>
      </trkpt>
      <trkpt lat="41.869473" lon="0.8627689">
        <time>2022-07-07T15:29:53Z</time>
      </trkpt>
      <trkpt lat="41.869446" lon="0.8628292">
        <time>2022-07-07T15:29:54Z</time>
      </trkpt>
      <trkpt lat="41.869423" lon="0.8628895">
        <time>2022-07-07T15:29:55Z</time>
      </trkpt>
      <trkpt lat="41.869377" lon="0.86301154">
        <time>2022-07-07T15:29:57Z</time>
      </trkpt>
      <trkpt lat="41.869354" lon="0.86307156">
        <time>2022-07-07T15:29:58Z</time>
      </trkpt>
      <trkpt lat="41.86931" lon="0.8631859">
        <time>2022-07-07T15:30:00Z</time>
      </trkpt>
      <trkpt lat="41.869263" lon="0.8632939">
        <time>2022-07-07T15:30:02Z</time>
      </trkpt>
      <trkpt lat="41.869213" lon="0.8634032">
        <time>2022-07-07T15:30:04Z</time>
      </trkpt>
      <trkpt lat="41.86919" lon="0.8634542">
        <time>2022-07-07T15:30:05Z</time>
      </trkpt>
      <trkpt lat="41.869144" lon="0.86355555">
        <time>2022-07-07T15:30:07Z</time>
      </trkpt>
      <trkpt lat="41.869095" lon="0.86364883">
        <time>2022-07-07T15:30:09Z</time>
      </trkpt>
      <trkpt lat="41.86904" lon="0.8637362">
        <time>2022-07-07T15:30:11Z</time>
      </trkpt>
      <trkpt lat="41.86898" lon="0.8638122">
        <time>2022-07-07T15:30:13Z</time>
      </trkpt>
      <trkpt lat="41.868916" lon="0.8638679">
        <time>2022-07-07T15:30:15Z</time>
      </trkpt>
      <trkpt lat="41.868847" lon="0.86390984">
        <time>2022-07-07T15:30:17Z</time>
      </trkpt>
      <trkpt lat="41.868774" lon="0.8639402">
        <time>2022-07-07T15:30:19Z</time>
      </trkpt>
      <trkpt lat="41.868706" lon="0.86396253">
        <time>2022-07-07T15:30:21Z</time>
      </trkpt>
      <trkpt lat="41.868633" lon="0.8639808">
        <time>2022-07-07T15:30:23Z</time>
      </trkpt>
      <trkpt lat="41.868565" lon="0.86399686">
        <time>2022-07-07T15:30:25Z</time>
      </trkpt>
      <trkpt lat="41.868492" lon="0.8640155">
        <time>2022-07-07T15:30:27Z</time>
      </trkpt>
      <trkpt lat="41.868423" lon="0.8640482">
        <time>2022-07-07T15:30:29Z</time>
      </trkpt>
      <trkpt lat="41.868362" lon="0.86409914">
        <time>2022-07-07T15:30:31Z</time>
      </trkpt>
      <trkpt lat="41.868305" lon="0.8641635">
        <time>2022-07-07T15:30:33Z</time>
      </trkpt>
      <trkpt lat="41.868256" lon="0.86424047">
        <time>2022-07-07T15:30:35Z</time>
      </trkpt>
      <trkpt lat="41.868217" lon="0.8643275">
        <time>2022-07-07T15:30:37Z</time>
      </trkpt>
      <trkpt lat="41.868183" lon="0.86442214">
        <time>2022-07-07T15:30:39Z</time>
      </trkpt>
      <trkpt lat="41.868156" lon="0.8645195">
        <time>2022-07-07T15:30:41Z</time>
      </trkpt>
      <trkpt lat="41.868134" lon="0.86461514">
        <time>2022-07-07T15:30:43Z</time>
      </trkpt>
      <trkpt lat="41.868107" lon="0.8647081">
        <time>2022-07-07T15:30:45Z</time>
      </trkpt>
      <trkpt lat="41.868084" lon="0.8648075">
        <time>2022-07-07T15:30:47Z</time>
      </trkpt>
      <trkpt lat="41.86806" lon="0.86490613">
        <time>2022-07-07T15:30:49Z</time>
      </trkpt>
      <trkpt lat="41.868046" lon="0.86500543">
        <time>2022-07-07T15:30:51Z</time>
      </trkpt>
      <trkpt lat="41.868034" lon="0.8651078">
        <time>2022-07-07T15:30:53Z</time>
      </trkpt>
      <trkpt lat="41.868027" lon="0.8652108">
        <time>2022-07-07T15:30:55Z</time>
      </trkpt>
      <trkpt lat="41.868027" lon="0.86531246">
        <time>2022-07-07T15:30:57Z</time>
      </trkpt>
      <trkpt lat="41.868027" lon="0.86541575">
        <time>2022-07-07T15:30:59Z</time>
      </trkpt>
      <trkpt lat="41.868034" lon="0.86551476">
        <time>2022-07-07T15:31:01Z</time>
      </trkpt>
      <trkpt lat="41.868053" lon="0.86562014">
        <time>2022-07-07T15:31:03Z</time>
      </trkpt>
      <trkpt lat="41.868073" lon="0.86572176">
        <time>2022-07-07T15:31:05Z</time>
      </trkpt>
      <trkpt lat="41.8681" lon="0.8658231">
        <time>2022-07-07T15:31:07Z</time>
      </trkpt>
      <trkpt lat="41.86813" lon="0.8659261">
        <time>2022-07-07T15:31:09Z</time>
      </trkpt>
      <trkpt lat="41.868164" lon="0.8660211">
        <time>2022-07-07T15:31:11Z</time>
      </trkpt>
      <trkpt lat="41.8682" lon="0.8661141">
        <time>2022-07-07T15:31:13Z</time>
      </trkpt>
      <trkpt lat="41.868237" lon="0.8662051">
        <time>2022-07-07T15:31:15Z</time>
      </trkpt>
      <trkpt lat="41.868275" lon="0.8662928">
        <time>2022-07-07T15:31:17Z</time>
      </trkpt>
      <trkpt lat="41.86832" lon="0.8663751">
        <time>2022-07-07T15:31:19Z</time>
      </trkpt>
      <trkpt lat="41.868374" lon="0.8664534">
        <time>2022-07-07T15:31:21Z</time>
      </trkpt>
      <trkpt lat="41.868427" lon="0.8665311">
        <time>2022-07-07T15:31:23Z</time>
      </trkpt>
      <trkpt lat="41.86849" lon="0.8666077">
        <time>2022-07-07T15:31:25Z</time>
      </trkpt>
      <trkpt lat="41.868546" lon="0.8666851">
        <time>2022-07-07T15:31:27Z</time>
      </trkpt>
      <trkpt lat="41.8686" lon="0.8667651">
        <time>2022-07-07T15:31:29Z</time>
      </trkpt>
      <trkpt lat="41.86865" lon="0.8668474">
        <time>2022-07-07T15:31:31Z</time>
      </trkpt>
      <trkpt lat="41.868694" lon="0.8669347">
        <time>2022-07-07T15:31:33Z</time>
      </trkpt>
      <trkpt lat="41.868736" lon="0.86702603">
        <time>2022-07-07T15:31:35Z</time>
      </trkpt>
      <trkpt lat="41.868774" lon="0.8671184">
        <time>2022-07-07T15:31:37Z</time>
      </trkpt>
      <trkpt lat="41.86881" lon="0.86721206">
        <time>2022-07-07T15:31:39Z</time>
      </trkpt>
      <trkpt lat="41.86884" lon="0.86730707">
        <time>2022-07-07T15:31:41Z</time>
      </trkpt>
      <trkpt lat="41.868874" lon="0.8674017">
        <time>2022-07-07T15:31:43Z</time>
      </trkpt>
      <trkpt lat="41.868908" lon="0.8674977">
        <time>2022-07-07T15:31:45Z</time>
      </trkpt>
      <trkpt lat="41.86894" lon="0.86759406">
        <time>2022-07-07T15:31:47Z</time>
      </trkpt>
      <trkpt lat="41.86897" lon="0.86769104">
        <time>2022-07-07T15:31:49Z</time>
      </trkpt>
      <trkpt lat="41.86901" lon="0.8678377">
        <time>2022-07-07T15:31:52Z</time>
      </trkpt>
      <trkpt lat="41.869038" lon="0.8679377">
        <time>2022-07-07T15:31:54Z</time>
      </trkpt>
      <trkpt lat="41.869057" lon="0.86803937">
        <time>2022-07-07T15:31:56Z</time>
      </trkpt>
      <trkpt lat="41.869076" lon="0.868147">
        <time>2022-07-07T15:31:58Z</time>
      </trkpt>
      <trkpt lat="41.86909" lon="0.8682577">
        <time>2022-07-07T15:32:00Z</time>
      </trkpt>
      <trkpt lat="41.869102" lon="0.86837065">
        <time>2022-07-07T15:32:02Z</time>
      </trkpt>
      <trkpt lat="41.869118" lon="0.8684843">
        <time>2022-07-07T15:32:04Z</time>
      </trkpt>
      <trkpt lat="41.869133" lon="0.86859536">
        <time>2022-07-07T15:32:06Z</time>
      </trkpt>
      <trkpt lat="41.86915" lon="0.868709">
        <time>2022-07-07T15:32:08Z</time>
      </trkpt>
      <trkpt lat="41.869164" lon="0.868815">
        <time>2022-07-07T15:32:10Z</time>
      </trkpt>
      <trkpt lat="41.86918" lon="0.8689153">
        <time>2022-07-07T15:32:12Z</time>
      </trkpt>
      <trkpt lat="41.869194" lon="0.8690093">
        <time>2022-07-07T15:32:14Z</time>
      </trkpt>
      <trkpt lat="41.869213" lon="0.869097">
        <time>2022-07-07T15:32:16Z</time>
      </trkpt>
      <trkpt lat="41.869236" lon="0.8691783">
        <time>2022-07-07T15:32:18Z</time>
      </trkpt>
      <trkpt lat="41.869255" lon="0.8692567">
        <time>2022-07-07T15:32:20Z</time>
      </trkpt>
      <trkpt lat="41.86927" lon="0.8693327">
        <time>2022-07-07T15:32:22Z</time>
      </trkpt>
      <trkpt lat="41.869286" lon="0.8694047">
        <time>2022-07-07T15:32:24Z</time>
      </trkpt>
      <trkpt lat="41.8693" lon="0.869479">
        <time>2022-07-07T15:32:26Z</time>
      </trkpt>
      <trkpt lat="41.869312" lon="0.869559">
        <time>2022-07-07T15:32:28Z</time>
      </trkpt>
      <trkpt lat="41.869324" lon="0.8696476">
        <time>2022-07-07T15:32:30Z</time>
      </trkpt>
      <trkpt lat="41.869335" lon="0.86973065">
        <time>2022-07-07T15:32:32Z</time>
      </trkpt>
      <trkpt lat="41.869347" lon="0.86981297">
        <time>2022-07-07T15:32:34Z</time>
      </trkpt>
      <trkpt lat="41.869358" lon="0.869895">
        <time>2022-07-07T15:32:36Z</time>
      </trkpt>
      <trkpt lat="41.869373" lon="0.869976">
        <time>2022-07-07T15:32:38Z</time>
      </trkpt>
      <trkpt lat="41.86939" lon="0.870057">
        <time>2022-07-07T15:32:40Z</time>
      </trkpt>
      <trkpt lat="41.869404" lon="0.8701363">
        <time>2022-07-07T15:32:42Z</time>
      </trkpt>
      <trkpt lat="41.869423" lon="0.8702153">
        <time>2022-07-07T15:32:44Z</time>
      </trkpt>
      <trkpt lat="41.869446" lon="0.87029696">
        <time>2022-07-07T15:32:46Z</time>
      </trkpt>
      <trkpt lat="41.86947" lon="0.8703726">
        <time>2022-07-07T15:32:48Z</time>
      </trkpt>
      <trkpt lat="41.869488" lon="0.8704423">
        <time>2022-07-07T15:32:50Z</time>
      </trkpt>
      <trkpt lat="41.86951" lon="0.8705136">
        <time>2022-07-07T15:32:52Z</time>
      </trkpt>
      <trkpt lat="41.86953" lon="0.87059027">
        <time>2022-07-07T15:32:54Z</time>
      </trkpt>
      <trkpt lat="41.86955" lon="0.8706606">
        <time>2022-07-07T15:32:56Z</time>
      </trkpt>
      <trkpt lat="41.86957" lon="0.8707786">
        <time>2022-07-07T15:32:59Z</time>
      </trkpt>
      <trkpt lat="41.86958" lon="0.87086993">
        <time>2022-07-07T15:33:01Z</time>
      </trkpt>
      <trkpt lat="41.869595" lon="0.87097526">
        <time>2022-07-07T15:33:03Z</time>
      </trkpt>
      <trkpt lat="41.86963" lon="0.8710983">
        <time>2022-07-07T15:33:05Z</time>
      </trkpt>
      <trkpt lat="41.86965" lon="0.87116593">
        <time>2022-07-07T15:33:06Z</time>
      </trkpt>
      <trkpt lat="41.86968" lon="0.8712346">
        <time>2022-07-07T15:33:07Z</time>
      </trkpt>
      <trkpt lat="41.869705" lon="0.8713039">
        <time>2022-07-07T15:33:08Z</time>
      </trkpt>
      <trkpt lat="41.869736" lon="0.8713739">
        <time>2022-07-07T15:33:09Z</time>
      </trkpt>
      <trkpt lat="41.869762" lon="0.8714449">
        <time>2022-07-07T15:33:10Z</time>
      </trkpt>
      <trkpt lat="41.869793" lon="0.87151724">
        <time>2022-07-07T15:33:11Z</time>
      </trkpt>
      <trkpt lat="41.869823" lon="0.87159157">
        <time>2022-07-07T15:33:12Z</time>
      </trkpt>
      <trkpt lat="41.869854" lon="0.8716672">
        <time>2022-07-07T15:33:13Z</time>
      </trkpt>
      <trkpt lat="41.869884" lon="0.8717429">
        <time>2022-07-07T15:33:14Z</time>
      </trkpt>
      <trkpt lat="41.869915" lon="0.87181824">
        <time>2022-07-07T15:33:15Z</time>
      </trkpt>
      <trkpt lat="41.869946" lon="0.8718939">
        <time>2022-07-07T15:33:16Z</time>
      </trkpt>
      <trkpt lat="41.86998" lon="0.87197053">
        <time>2022-07-07T15:33:17Z</time>
      </trkpt>
      <trkpt lat="41.870014" lon="0.8720482">
        <time>2022-07-07T15:33:18Z</time>
      </trkpt>
      <trkpt lat="41.870045" lon="0.8721265">
        <time>2022-07-07T15:33:19Z</time>
      </trkpt>
      <trkpt lat="41.87008" lon="0.8722039">
        <time>2022-07-07T15:33:20Z</time>
      </trkpt>
      <trkpt lat="41.870113" lon="0.87228054">
        <time>2022-07-07T15:33:21Z</time>
      </trkpt>
      <trkpt lat="41.870148" lon="0.87235755">
        <time>2022-07-07T15:33:22Z</time>
      </trkpt>
      <trkpt lat="41.87018" lon="0.87243515">
        <time>2022-07-07T15:33:23Z</time>
      </trkpt>
      <trkpt lat="41.870213" lon="0.8725125">
        <time>2022-07-07T15:33:24Z</time>
      </trkpt>
      <trkpt lat="41.870247" lon="0.8725895">
        <time>2022-07-07T15:33:25Z</time>
      </trkpt>
      <trkpt lat="41.87028" lon="0.87266517">
        <time>2022-07-07T15:33:26Z</time>
      </trkpt>
      <trkpt lat="41.870316" lon="0.8727392">
        <time>2022-07-07T15:33:27Z</time>
      </trkpt>
      <trkpt lat="41.870354" lon="0.87281185">
        <time>2022-07-07T15:33:28Z</time>
      </trkpt>
      <trkpt lat="41.870388" lon="0.8728825">
        <time>2022-07-07T15:33:29Z</time>
      </trkpt>
      <trkpt lat="41.870422" lon="0.8729468">
        <time>2022-07-07T15:33:30Z</time>
      </trkpt>
      <trkpt lat="41.87046" lon="0.87301147">
        <time>2022-07-07T15:33:31Z</time>
      </trkpt>
      <trkpt lat="41.870495" lon="0.8730745">
        <time>2022-07-07T15:33:32Z</time>
      </trkpt>
      <trkpt lat="41.870533" lon="0.8731368">
        <time>2022-07-07T15:33:33Z</time>
      </trkpt>
      <trkpt lat="41.870575" lon="0.8731965">
        <time>2022-07-07T15:33:34Z</time>
      </trkpt>
      <trkpt lat="41.870613" lon="0.8732541">
        <time>2022-07-07T15:33:35Z</time>
      </trkpt>
      <trkpt lat="41.870655" lon="0.8733108">
        <time>2022-07-07T15:33:36Z</time>
      </trkpt>
      <trkpt lat="41.870697" lon="0.8733665">
        <time>2022-07-07T15:33:37Z</time>
      </trkpt>
      <trkpt lat="41.870735" lon="0.8734208">
        <time>2022-07-07T15:33:38Z</time>
      </trkpt>
      <trkpt lat="41.870777" lon="0.8734744">
        <time>2022-07-07T15:33:39Z</time>
      </trkpt>
      <trkpt lat="41.87082" lon="0.8735261">
        <time>2022-07-07T15:33:40Z</time>
      </trkpt>
      <trkpt lat="41.87086" lon="0.8735761">
        <time>2022-07-07T15:33:41Z</time>
      </trkpt>
      <trkpt lat="41.8709" lon="0.8736264">
        <time>2022-07-07T15:33:42Z</time>
      </trkpt>
      <trkpt lat="41.870945" lon="0.8736781">
        <time>2022-07-07T15:33:43Z</time>
      </trkpt>
      <trkpt lat="41.870987" lon="0.8737264">
        <time>2022-07-07T15:33:44Z</time>
      </trkpt>
      <trkpt lat="41.871025" lon="0.87377244">
        <time>2022-07-07T15:33:45Z</time>
      </trkpt>
      <trkpt lat="41.871067" lon="0.87381774">
        <time>2022-07-07T15:33:46Z</time>
      </trkpt>
      <trkpt lat="41.87111" lon="0.87386173">
        <time>2022-07-07T15:33:47Z</time>
      </trkpt>
      <trkpt lat="41.87118" lon="0.8739474">
        <time>2022-07-07T15:33:49Z</time>
      </trkpt>
      <trkpt lat="41.871254" lon="0.8740267">
        <time>2022-07-07T15:33:51Z</time>
      </trkpt>
      <trkpt lat="41.87132" lon="0.8740984">
        <time>2022-07-07T15:33:53Z</time>
      </trkpt>
      <trkpt lat="41.871376" lon="0.87416875">
        <time>2022-07-07T15:33:55Z</time>
      </trkpt>
      <trkpt lat="41.871426" lon="0.8742391">
        <time>2022-07-07T15:33:57Z</time>
      </trkpt>
      <trkpt lat="41.87147" lon="0.87430507">
        <time>2022-07-07T15:33:59Z</time>
      </trkpt>
      <trkpt lat="41.87152" lon="0.8743691">
        <time>2022-07-07T15:34:01Z</time>
      </trkpt>
      <trkpt lat="41.871574" lon="0.8744314">
        <time>2022-07-07T15:34:03Z</time>
      </trkpt>
      <trkpt lat="41.87166" lon="0.87451774">
        <time>2022-07-07T15:34:06Z</time>
      </trkpt>
      <trkpt lat="41.871716" lon="0.8745597">
        <time>2022-07-07T15:34:08Z</time>
      </trkpt>
      <trkpt lat="41.871773" lon="0.8745931">
        <time>2022-07-07T15:34:10Z</time>
      </trkpt>
      <trkpt lat="41.871822" lon="0.8746307">
        <time>2022-07-07T15:34:12Z</time>
      </trkpt>
      <trkpt lat="41.871864" lon="0.87467206">
        <time>2022-07-07T15:34:14Z</time>
      </trkpt>
      <trkpt lat="41.8719" lon="0.8747207">
        <time>2022-07-07T15:34:16Z</time>
      </trkpt>
      <trkpt lat="41.871944" lon="0.87480235">
        <time>2022-07-07T15:34:19Z</time>
      </trkpt>
      <trkpt lat="41.871986" lon="0.87484">
        <time>2022-07-07T15:34:21Z</time>
      </trkpt>
      <trkpt lat="41.872066" lon="0.8748624">
        <time>2022-07-07T15:34:24Z</time>
      </trkpt>
      <trkpt lat="41.87214" lon="0.8748727">
        <time>2022-07-07T15:34:26Z</time>
      </trkpt>
      <trkpt lat="41.87221" lon="0.8748867">
        <time>2022-07-07T15:34:28Z</time>
      </trkpt>
      <trkpt lat="41.872284" lon="0.87491137">
        <time>2022-07-07T15:34:30Z</time>
      </trkpt>
      <trkpt lat="41.87235" lon="0.87494165">
        <time>2022-07-07T15:34:32Z</time>
      </trkpt>
      <trkpt lat="41.87242" lon="0.8749627">
        <time>2022-07-07T15:34:34Z</time>
      </trkpt>
      <trkpt lat="41.872494" lon="0.8749743">
        <time>2022-07-07T15:34:36Z</time>
      </trkpt>
      <trkpt lat="41.872566" lon="0.87498564">
        <time>2022-07-07T15:34:38Z</time>
      </trkpt>
      <trkpt lat="41.872635" lon="0.8750027">
        <time>2022-07-07T15:34:40Z</time>
      </trkpt>
      <trkpt lat="41.8727" lon="0.87502635">
        <time>2022-07-07T15:34:42Z</time>
      </trkpt>
      <trkpt lat="41.87276" lon="0.87505263">
        <time>2022-07-07T15:34:44Z</time>
      </trkpt>
      <trkpt lat="41.872826" lon="0.8750803">
        <time>2022-07-07T15:34:46Z</time>
      </trkpt>
      <trkpt lat="41.87287" lon="0.8751003">
        <time>2022-07-07T15:34:48Z</time>
      </trkpt>
      <trkpt lat="41.87292" lon="0.8751146">
        <time>2022-07-07T15:34:51Z</time>
      </trkpt>
      <trkpt lat="41.872963" lon="0.875133">
        <time>2022-07-07T15:34:55Z</time>
      </trkpt>
      <trkpt lat="41.873024" lon="0.87516665">
        <time>2022-07-07T15:35:59Z</time>
      </trkpt>
      <trkpt lat="41.873108" lon="0.87519664">
        <time>2022-07-07T15:36:02Z</time>
      </trkpt>
      <trkpt lat="41.87317" lon="0.8752303">
        <time>2022-07-07T15:36:04Z</time>
      </trkpt>
      <trkpt lat="41.873234" lon="0.87526095">
        <time>2022-07-07T15:36:06Z</time>
      </trkpt>
      <trkpt lat="41.8733" lon="0.87528896">
        <time>2022-07-07T15:36:08Z</time>
      </trkpt>
      <trkpt lat="41.873363" lon="0.87532026">
        <time>2022-07-07T15:36:10Z</time>
      </trkpt>
      <trkpt lat="41.873436" lon="0.87534696">
        <time>2022-07-07T15:36:12Z</time>
      </trkpt>
      <trkpt lat="41.873505" lon="0.87537193">
        <time>2022-07-07T15:36:14Z</time>
      </trkpt>
      <trkpt lat="41.873577" lon="0.87539893">
        <time>2022-07-07T15:36:16Z</time>
      </trkpt>
      <trkpt lat="41.873642" lon="0.87543327">
        <time>2022-07-07T15:36:18Z</time>
      </trkpt>
      <trkpt lat="41.873703" lon="0.8754676">
        <time>2022-07-07T15:36:20Z</time>
      </trkpt>
      <trkpt lat="41.873768" lon="0.87550193">
        <time>2022-07-07T15:36:22Z</time>
      </trkpt>
      <trkpt lat="41.87383" lon="0.87553424">
        <time>2022-07-07T15:36:24Z</time>
      </trkpt>
      <trkpt lat="41.87389" lon="0.87556726">
        <time>2022-07-07T15:36:26Z</time>
      </trkpt>
      <trkpt lat="41.87394" lon="0.8755953">
        <time>2022-07-07T15:36:28Z</time>
      </trkpt>
      <trkpt lat="41.87399" lon="0.8756249">
        <time>2022-07-07T15:36:31Z</time>
      </trkpt>
      <trkpt lat="41.874035" lon="0.87565494">
        <time>2022-07-07T15:36:35Z</time>
      </trkpt>
      <trkpt lat="41.87408" lon="0.8756763">
        <time>2022-07-07T15:36:40Z</time>
      </trkpt>
      <trkpt lat="41.87413" lon="0.87571424">
        <time>2022-07-07T15:36:45Z</time>
      </trkpt>
      <trkpt lat="41.874165" lon="0.8757356">
        <time>2022-07-07T15:36:50Z</time>
      </trkpt>
      <trkpt lat="41.87412" lon="0.87569726">
        <time>2022-07-07T15:36:55Z</time>
      </trkpt>
      <trkpt lat="41.87409" lon="0.87574923">
        <time>2022-07-07T15:36:59Z</time>
      </trkpt>
      <trkpt lat="41.874115" lon="0.87582123">
        <time>2022-07-07T15:37:03Z</time>
      </trkpt>
      <trkpt lat="41.874153" lon="0.8758739">
        <time>2022-07-07T15:37:06Z</time>
      </trkpt>
      <trkpt lat="41.874187" lon="0.8759279">
        <time>2022-07-07T15:37:09Z</time>
      </trkpt>
      <trkpt lat="41.87424" lon="0.8759859">
        <time>2022-07-07T15:37:13Z</time>
      </trkpt>
      <trkpt lat="41.874283" lon="0.87602055">
        <time>2022-07-07T15:37:16Z</time>
      </trkpt>
      <trkpt lat="41.87432" lon="0.8760626">
        <time>2022-07-07T15:37:19Z</time>
      </trkpt>
      <trkpt lat="41.87437" lon="0.87614125">
        <time>2022-07-07T15:37:24Z</time>
      </trkpt>
      <trkpt lat="41.874416" lon="0.8761806">
        <time>2022-07-07T15:37:28Z</time>
      </trkpt>
      <trkpt lat="41.874462" lon="0.87622124">
        <time>2022-07-07T15:37:32Z</time>
      </trkpt>
      <trkpt lat="41.87452" lon="0.87627023">
        <time>2022-07-07T15:37:37Z</time>
      </trkpt>
      <trkpt lat="41.874557" lon="0.87631655">
        <time>2022-07-07T15:37:40Z</time>
      </trkpt>
      <trkpt lat="41.874596" lon="0.8763739">
        <time>2022-07-07T15:37:44Z</time>
      </trkpt>
      <trkpt lat="41.87464" lon="0.8764152">
        <time>2022-07-07T15:37:48Z</time>
      </trkpt>
      <trkpt lat="41.874687" lon="0.87646157">
        <time>2022-07-07T15:37:52Z</time>
      </trkpt>
      <trkpt lat="41.874733" lon="0.8765162">
        <time>2022-07-07T15:37:56Z</time>
      </trkpt>
      <trkpt lat="41.874783" lon="0.8765565">
        <time>2022-07-07T15:38:00Z</time>
      </trkpt>
      <trkpt lat="41.874825" lon="0.87661254">
        <time>2022-07-07T15:38:04Z</time>
      </trkpt>
      <trkpt lat="41.87486" lon="0.87667584">
        <time>2022-07-07T15:38:08Z</time>
      </trkpt>
      <trkpt lat="41.874893" lon="0.8767365">
        <time>2022-07-07T15:38:12Z</time>
      </trkpt>
      <trkpt lat="41.87493" lon="0.8767945">
        <time>2022-07-07T15:38:16Z</time>
      </trkpt>
      <trkpt lat="41.87497" lon="0.8768512">
        <time>2022-07-07T15:38:20Z</time>
      </trkpt>
      <trkpt lat="41.875004" lon="0.8768935">
        <time>2022-07-07T15:38:23Z</time>
      </trkpt>
      <trkpt lat="41.87504" lon="0.8769582">
        <time>2022-07-07T15:38:27Z</time>
      </trkpt>
      <trkpt lat="41.875034" lon="0.8770278">
        <time>2022-07-07T15:38:31Z</time>
      </trkpt>
      <trkpt lat="41.87499" lon="0.87706286">
        <time>2022-07-07T15:38:37Z</time>
      </trkpt>
      <trkpt lat="41.87492" lon="0.8769615">
        <time>2022-07-07T15:39:43Z</time>
      </trkpt>
      <trkpt lat="41.874863" lon="0.87696385">
        <time>2022-07-07T15:39:48Z</time>
      </trkpt>
      <trkpt lat="41.87482" lon="0.8769815">
        <time>2022-07-07T15:39:54Z</time>
      </trkpt>
      <trkpt lat="41.875015" lon="0.87702215">
        <time>2022-07-07T15:40:08Z</time>
      </trkpt>
      <trkpt lat="41.875015" lon="0.87701946">
        <time>2022-07-07T15:40:09Z</time>
      </trkpt>
      <trkpt lat="41.875027" lon="0.87709785">
        <time>2022-07-07T15:41:20Z</time>
      </trkpt>
      <trkpt lat="41.87503" lon="0.87717915">
        <time>2022-07-07T15:41:23Z</time>
      </trkpt>
      <trkpt lat="41.87504" lon="0.8772695">
        <time>2022-07-07T15:41:26Z</time>
      </trkpt>
      <trkpt lat="41.87504" lon="0.87735116">
        <time>2022-07-07T15:41:29Z</time>
      </trkpt>
      <trkpt lat="41.875046" lon="0.87741315">
        <time>2022-07-07T15:41:32Z</time>
      </trkpt>
      <trkpt lat="41.875057" lon="0.87749314">
        <time>2022-07-07T15:41:36Z</time>
      </trkpt>
      <trkpt lat="41.87506" lon="0.8775681">
        <time>2022-07-07T15:41:40Z</time>
      </trkpt>
      <trkpt lat="41.87508" lon="0.8776351">
        <time>2022-07-07T15:41:44Z</time>
      </trkpt>
      <trkpt lat="41.875103" lon="0.87769544">
        <time>2022-07-07T15:41:49Z</time>
      </trkpt>
      <trkpt lat="41.875122" lon="0.87775445">
        <time>2022-07-07T15:41:54Z</time>
      </trkpt>
      <trkpt lat="41.875107" lon="0.8778308">
        <time>2022-07-07T15:41:59Z</time>
      </trkpt>
      <trkpt lat="41.875145" lon="0.87796813">
        <time>2022-07-07T15:42:59Z</time>
      </trkpt>
      <trkpt lat="41.875134" lon="0.8779145">
        <time>2022-07-07T15:43:07Z</time>
      </trkpt>
      <trkpt lat="41.875114" lon="0.8778681">
        <time>2022-07-07T15:43:10Z</time>
      </trkpt>
      <trkpt lat="41.875114" lon="0.8778608">
        <time>2022-07-07T15:43:18Z</time>
      </trkpt>
      <trkpt lat="41.875088" lon="0.87786615">
        <time>2022-07-07T15:45:52Z</time>
      </trkpt>
      <trkpt lat="41.875107" lon="0.8778955">
        <time>2022-07-07T15:46:06Z</time>
      </trkpt>
      <trkpt lat="41.875084" lon="0.87791246">
        <time>2022-07-07T15:46:36Z</time>
      </trkpt>
      <trkpt lat="41.875053" lon="0.8778065">
        <time>2022-07-07T15:46:41Z</time>
      </trkpt>
      <trkpt lat="41.875042" lon="0.87777245">
        <time>2022-07-07T15:46:43Z</time>
      </trkpt>
      <trkpt lat="41.87506" lon="0.8778155">
        <time>2022-07-07T15:47:23Z</time>
      </trkpt>
      <trkpt lat="41.875046" lon="0.87784845">
        <time>2022-07-07T15:48:29Z</time>
      </trkpt>
      <trkpt lat="41.87507" lon="0.87785214">
        <time>2022-07-07T15:49:57Z</time>
      </trkpt>
      <trkpt lat="41.87505" lon="0.8778131">
        <time>2022-07-07T15:50:01Z</time>
      </trkpt>
      <trkpt lat="41.87507" lon="0.87786746">
        <time>2022-07-07T15:50:07Z</time>
      </trkpt>
      <trkpt lat="41.875034" lon="0.8778605">
        <time>2022-07-07T15:50:43Z</time>
      </trkpt>
      <trkpt lat="41.87429" lon="0.8771821">
        <time>2022-07-07T15:51:24Z</time>
      </trkpt>
      <trkpt lat="41.87498" lon="0.8778868">
        <time>2022-07-07T15:51:46Z</time>
      </trkpt>
      <trkpt lat="41.875004" lon="0.87792945">
        <time>2022-07-07T15:51:53Z</time>
      </trkpt>
      <trkpt lat="41.87502" lon="0.87798244">
        <time>2022-07-07T15:52:08Z</time>
      </trkpt>
      <trkpt lat="41.87501" lon="0.87794244">
        <time>2022-07-07T15:52:22Z</time>
      </trkpt>
      <trkpt lat="41.875015" lon="0.8778861">
        <time>2022-07-07T15:52:34Z</time>
      </trkpt>
      <trkpt lat="41.875008" lon="0.87782145">
        <time>2022-07-07T15:52:38Z</time>
      </trkpt>
      <trkpt lat="41.875023" lon="0.87777144">
        <time>2022-07-07T15:52:50Z</time>
      </trkpt>
      <trkpt lat="41.87506" lon="0.87780976">
        <time>2022-07-07T15:52:58Z</time>
      </trkpt>
      <trkpt lat="41.87501" lon="0.8777345">
        <time>2022-07-07T15:54:32Z</time>
      </trkpt>
      <trkpt lat="41.875008" lon="0.8777008">
        <time>2022-07-07T15:54:45Z</time>
      </trkpt>
      <trkpt lat="41.87501" lon="0.87769645">
        <time>2022-07-07T15:54:57Z</time>
      </trkpt>
      <trkpt lat="41.875034" lon="0.87774944">
        <time>2022-07-07T15:55:05Z</time>
      </trkpt>
      <trkpt lat="41.875046" lon="0.87781847">
        <time>2022-07-07T15:55:13Z</time>
      </trkpt>
      <trkpt lat="41.875076" lon="0.8778828">
        <time>2022-07-07T15:55:15Z</time>
      </trkpt>
      <trkpt lat="41.87509" lon="0.8778518">
        <time>2022-07-07T15:56:12Z</time>
      </trkpt>
      <trkpt lat="41.875107" lon="0.8778998">
        <time>2022-07-07T15:56:29Z</time>
      </trkpt>
      <trkpt lat="41.875137" lon="0.8779408">
        <time>2022-07-07T15:56:35Z</time>
      </trkpt>
      <trkpt lat="41.87514" lon="0.8779675">
        <time>2022-07-07T15:56:51Z</time>
      </trkpt>
      <trkpt lat="41.875053" lon="0.87781715">
        <time>2022-07-07T15:57:04Z</time>
      </trkpt>
      <trkpt lat="41.875153" lon="0.87797743">
        <time>2022-07-07T15:57:15Z</time>
      </trkpt>
      <trkpt lat="41.875195" lon="0.8780228">
        <time>2022-07-07T15:57:19Z</time>
      </trkpt>
      <trkpt lat="41.875233" lon="0.8780951">
        <time>2022-07-07T15:57:24Z</time>
      </trkpt>
      <trkpt lat="41.875374" lon="0.8783088">
        <time>2022-07-07T15:57:33Z</time>
      </trkpt>
      <trkpt lat="41.875378" lon="0.8783094">
        <time>2022-07-07T15:57:34Z</time>
      </trkpt>
      <trkpt lat="41.875263" lon="0.87815714">
        <time>2022-07-07T15:59:34Z</time>
      </trkpt>
      <trkpt lat="41.875" lon="0.8776808">
        <time>2022-07-07T16:01:36Z</time>
      </trkpt>
      <trkpt lat="41.875153" lon="0.8781388">
        <time>2022-07-07T16:03:26Z</time>
      </trkpt>
      <trkpt lat="41.87515" lon="0.87809545">
        <time>2022-07-07T16:03:56Z</time>
      </trkpt>
      <trkpt lat="41.87513" lon="0.8780804">
        <time>2022-07-07T16:04:03Z</time>
      </trkpt>
      <trkpt lat="41.87508" lon="0.87797713">
        <time>2022-07-07T16:04:32Z</time>
      </trkpt>
      <trkpt lat="41.8751" lon="0.8780255">
        <time>2022-07-07T16:05:39Z</time>
      </trkpt>
      <trkpt lat="41.875244" lon="0.8782815">
        <time>2022-07-07T16:07:14Z</time>
      </trkpt>
      <trkpt lat="41.875248" lon="0.8782751">
        <time>2022-07-07T16:07:24Z</time>
      </trkpt>
      <trkpt lat="41.87521" lon="0.8782285">
        <time>2022-07-07T16:07:28Z</time>
      </trkpt>
      <trkpt lat="41.875175" lon="0.8781745">
        <time>2022-07-07T16:07:32Z</time>
      </trkpt>
      <trkpt lat="41.875145" lon="0.8781011">
        <time>2022-07-07T16:07:37Z</time>
      </trkpt>
      <trkpt lat="41.875134" lon="0.8780338">
        <time>2022-07-07T16:07:44Z</time>
      </trkpt>
      <trkpt lat="41.8751" lon="0.8779718">
        <time>2022-07-07T16:07:56Z</time>
      </trkpt>
      <trkpt lat="41.875076" lon="0.8779178">
        <time>2022-07-07T16:08:00Z</time>
      </trkpt>
      <trkpt lat="41.875057" lon="0.8778861">
        <time>2022-07-07T16:08:18Z</time>
      </trkpt>
      <trkpt lat="41.875057" lon="0.8778988">
        <time>2022-07-07T16:08:26Z</time>
      </trkpt>
      <trkpt lat="41.8751" lon="0.8779481">
        <time>2022-07-07T16:08:35Z</time>
      </trkpt>
      <trkpt lat="41.875153" lon="0.8779968">
        <time>2022-07-07T16:08:39Z</time>
      </trkpt>
      <trkpt lat="41.875153" lon="0.87799114">
        <time>2022-07-07T16:08:48Z</time>
      </trkpt>
      <trkpt lat="41.875126" lon="0.87800115">
        <time>2022-07-07T16:09:02Z</time>
      </trkpt>
      <trkpt lat="41.87508" lon="0.8779375">
        <time>2022-07-07T16:09:07Z</time>
      </trkpt>
      <trkpt lat="41.87505" lon="0.8778781">
        <time>2022-07-07T16:09:11Z</time>
      </trkpt>
      <trkpt lat="41.875053" lon="0.8778695">
        <time>2022-07-07T16:09:19Z</time>
      </trkpt>
      <trkpt lat="41.875023" lon="0.8778281">
        <time>2022-07-07T16:09:28Z</time>
      </trkpt>
      <trkpt lat="41.875084" lon="0.87791383">
        <time>2022-07-07T16:10:24Z</time>
      </trkpt>
      <trkpt lat="41.875053" lon="0.87783515">
        <time>2022-07-07T16:10:39Z</time>
      </trkpt>
      <trkpt lat="41.87502" lon="0.87778246">
        <time>2022-07-07T16:10:52Z</time>
      </trkpt>
      <trkpt lat="41.87502" lon="0.8777248">
        <time>2022-07-07T16:11:07Z</time>
      </trkpt>
      <trkpt lat="41.874966" lon="0.8775805">
        <time>2022-07-07T16:11:11Z</time>
      </trkpt>
      <trkpt lat="41.874924" lon="0.87749016">
        <time>2022-07-07T16:11:12Z</time>
      </trkpt>
      <trkpt lat="41.87486" lon="0.87737453">
        <time>2022-07-07T16:11:13Z</time>
      </trkpt>
      <trkpt lat="41.874786" lon="0.8772305">
        <time>2022-07-07T16:11:14Z</time>
      </trkpt>
      <trkpt lat="41.874702" lon="0.8770639">
        <time>2022-07-07T16:11:15Z</time>
      </trkpt>
      <trkpt lat="41.874615" lon="0.8768822">
        <time>2022-07-07T16:11:16Z</time>
      </trkpt>
      <trkpt lat="41.874516" lon="0.8766865">
        <time>2022-07-07T16:11:17Z</time>
      </trkpt>
      <trkpt lat="41.8743" lon="0.87626487">
        <time>2022-07-07T16:11:19Z</time>
      </trkpt>
      <trkpt lat="41.87419" lon="0.8760612">
        <time>2022-07-07T16:11:20Z</time>
      </trkpt>
      <trkpt lat="41.874084" lon="0.87585723">
        <time>2022-07-07T16:11:21Z</time>
      </trkpt>
      <trkpt lat="41.873974" lon="0.8756582">
        <time>2022-07-07T16:11:22Z</time>
      </trkpt>
      <trkpt lat="41.873863" lon="0.87546486">
        <time>2022-07-07T16:11:23Z</time>
      </trkpt>
      <trkpt lat="41.873753" lon="0.87527585">
        <time>2022-07-07T16:11:24Z</time>
      </trkpt>
      <trkpt lat="41.873642" lon="0.87509423">
        <time>2022-07-07T16:11:25Z</time>
      </trkpt>
      <trkpt lat="41.87353" lon="0.8749199">
        <time>2022-07-07T16:11:26Z</time>
      </trkpt>
      <trkpt lat="41.87342" lon="0.8747472">
        <time>2022-07-07T16:11:27Z</time>
      </trkpt>
      <trkpt lat="41.873306" lon="0.87457955">
        <time>2022-07-07T16:11:28Z</time>
      </trkpt>
      <trkpt lat="41.87319" lon="0.8744102">
        <time>2022-07-07T16:11:29Z</time>
      </trkpt>
      <trkpt lat="41.8731" lon="0.8742749">
        <time>2022-07-07T16:11:30Z</time>
      </trkpt>
      <trkpt lat="41.873028" lon="0.8741669">
        <time>2022-07-07T16:11:31Z</time>
      </trkpt>
      <trkpt lat="41.872986" lon="0.8741106">
        <time>2022-07-07T16:11:32Z</time>
      </trkpt>
      <trkpt lat="41.87297" lon="0.87409526">
        <time>2022-07-07T16:11:33Z</time>
      </trkpt>
      <trkpt lat="41.87297" lon="0.87418056">
        <time>2022-07-07T16:11:37Z</time>
      </trkpt>
      <trkpt lat="41.873013" lon="0.8743046">
        <time>2022-07-07T16:11:39Z</time>
      </trkpt>
      <trkpt lat="41.87307" lon="0.87443155">
        <time>2022-07-07T16:11:41Z</time>
      </trkpt>
      <trkpt lat="41.873108" lon="0.8745106">
        <time>2022-07-07T16:11:42Z</time>
      </trkpt>
      <trkpt lat="41.87315" lon="0.87458026">
        <time>2022-07-07T16:11:43Z</time>
      </trkpt>
      <trkpt lat="41.87319" lon="0.8746536">
        <time>2022-07-07T16:11:44Z</time>
      </trkpt>
      <trkpt lat="41.873238" lon="0.8747296">
        <time>2022-07-07T16:11:45Z</time>
      </trkpt>
      <trkpt lat="41.873287" lon="0.8748026">
        <time>2022-07-07T16:11:46Z</time>
      </trkpt>
      <trkpt lat="41.873337" lon="0.8748789">
        <time>2022-07-07T16:11:47Z</time>
      </trkpt>
      <trkpt lat="41.873383" lon="0.8749636">
        <time>2022-07-07T16:11:48Z</time>
      </trkpt>
      <trkpt lat="41.873436" lon="0.8750609">
        <time>2022-07-07T16:11:49Z</time>
      </trkpt>
      <trkpt lat="41.873486" lon="0.8751475">
        <time>2022-07-07T16:11:50Z</time>
      </trkpt>
      <trkpt lat="41.87353" lon="0.87523854">
        <time>2022-07-07T16:11:51Z</time>
      </trkpt>
      <trkpt lat="41.873577" lon="0.8753312">
        <time>2022-07-07T16:11:52Z</time>
      </trkpt>
      <trkpt lat="41.873627" lon="0.8754255">
        <time>2022-07-07T16:11:53Z</time>
      </trkpt>
      <trkpt lat="41.873672" lon="0.8755182">
        <time>2022-07-07T16:11:54Z</time>
      </trkpt>
      <trkpt lat="41.873722" lon="0.8756102">
        <time>2022-07-07T16:11:55Z</time>
      </trkpt>
      <trkpt lat="41.87377" lon="0.8757032">
        <time>2022-07-07T16:11:56Z</time>
      </trkpt>
      <trkpt lat="41.873825" lon="0.87579787">
        <time>2022-07-07T16:11:57Z</time>
      </trkpt>
      <trkpt lat="41.873867" lon="0.8758745">
        <time>2022-07-07T16:11:58Z</time>
      </trkpt>
      <trkpt lat="41.873905" lon="0.8759379">
        <time>2022-07-07T16:11:59Z</time>
      </trkpt>
      <trkpt lat="41.873943" lon="0.87599653">
        <time>2022-07-07T16:12:00Z</time>
      </trkpt>
      <trkpt lat="41.873993" lon="0.8760755">
        <time>2022-07-07T16:12:02Z</time>
      </trkpt>
      <trkpt lat="41.87406" lon="0.87617916">
        <time>2022-07-07T16:12:03Z</time>
      </trkpt>
      <trkpt lat="41.874134" lon="0.8762945">
        <time>2022-07-07T16:12:04Z</time>
      </trkpt>
      <trkpt lat="41.874207" lon="0.8764002">
        <time>2022-07-07T16:12:05Z</time>
      </trkpt>
      <trkpt lat="41.874275" lon="0.8765002">
        <time>2022-07-07T16:12:06Z</time>
      </trkpt>
      <trkpt lat="41.87434" lon="0.8766025">
        <time>2022-07-07T16:12:07Z</time>
      </trkpt>
      <trkpt lat="41.874397" lon="0.8766925">
        <time>2022-07-07T16:12:08Z</time>
      </trkpt>
      <trkpt lat="41.874443" lon="0.87677383">
        <time>2022-07-07T16:12:09Z</time>
      </trkpt>
      <trkpt lat="41.87448" lon="0.8768475">
        <time>2022-07-07T16:12:10Z</time>
      </trkpt>
      <trkpt lat="41.874523" lon="0.87694615">
        <time>2022-07-07T16:12:13Z</time>
      </trkpt>
      <trkpt lat="41.874565" lon="0.8770368">
        <time>2022-07-07T16:12:14Z</time>
      </trkpt>
      <trkpt lat="41.8746" lon="0.8771178">
        <time>2022-07-07T16:12:15Z</time>
      </trkpt>
      <trkpt lat="41.87463" lon="0.8771868">
        <time>2022-07-07T16:12:16Z</time>
      </trkpt>
      <trkpt lat="41.874653" lon="0.8772441">
        <time>2022-07-07T16:12:17Z</time>
      </trkpt>
      <trkpt lat="41.874672" lon="0.87729543">
        <time>2022-07-07T16:12:18Z</time>
      </trkpt>
      <trkpt lat="41.874706" lon="0.8773615">
        <time>2022-07-07T16:12:20Z</time>
      </trkpt>
      <trkpt lat="41.874733" lon="0.87741476">
        <time>2022-07-07T16:12:22Z</time>
      </trkpt>
      <trkpt lat="41.874767" lon="0.87749946">
        <time>2022-07-07T16:12:25Z</time>
      </trkpt>
      <trkpt lat="41.874798" lon="0.87755245">
        <time>2022-07-07T16:12:27Z</time>
      </trkpt>
      <trkpt lat="41.874836" lon="0.8776231">
        <time>2022-07-07T16:12:30Z</time>
      </trkpt>
      <trkpt lat="41.87493" lon="0.87780046">
        <time>2022-07-07T16:12:37Z</time>
      </trkpt>
      <trkpt lat="41.874935" lon="0.87780577">
        <time>2022-07-07T16:12:38Z</time>
      </trkpt>
      <trkpt lat="41.875" lon="0.87780213">
        <time>2022-07-07T16:13:02Z</time>
      </trkpt>
      <trkpt lat="41.875" lon="0.8777991">
        <time>2022-07-07T16:13:03Z</time>
      </trkpt>
      <trkpt lat="41.874973" lon="0.87766576">
        <time>2022-07-07T16:13:08Z</time>
      </trkpt>
      <trkpt lat="41.875" lon="0.87776214">
        <time>2022-07-07T16:13:10Z</time>
      </trkpt>
      <trkpt lat="41.875076" lon="0.8779328">
        <time>2022-07-07T16:13:15Z</time>
      </trkpt>
      <trkpt lat="41.875122" lon="0.8780281">
        <time>2022-07-07T16:13:16Z</time>
      </trkpt>
      <trkpt lat="41.875183" lon="0.8781118">
        <time>2022-07-07T16:13:20Z</time>
      </trkpt>
      <trkpt lat="41.875156" lon="0.8775131">
        <time>2022-07-07T16:13:26Z</time>
      </trkpt>
      <trkpt lat="41.875343" lon="0.87795544">
        <time>2022-07-07T16:15:36Z</time>
      </trkpt>
      <trkpt lat="41.875263" lon="0.8779214">
        <time>2022-07-07T16:15:59Z</time>
      </trkpt>
      <trkpt lat="41.874527" lon="0.87948334">
        <time>2022-07-08T07:43:47Z</time>
      </trkpt>
      <trkpt lat="41.874527" lon="0.87948334">
        <time>2022-07-08T07:43:47Z</time>
      </trkpt>
      <trkpt lat="41.874523" lon="0.87950665">
        <time>2022-07-08T07:43:48Z</time>
      </trkpt>
      <trkpt lat="41.874523" lon="0.879512">
        <time>2022-07-08T07:43:49Z</time>
      </trkpt>
      <trkpt lat="41.87452" lon="0.8795243">
        <time>2022-07-08T07:43:50Z</time>
      </trkpt>
      <trkpt lat="41.87452" lon="0.87954396">
        <time>2022-07-08T07:43:51Z</time>
      </trkpt>
      <trkpt lat="41.874516" lon="0.87956595">
        <time>2022-07-08T07:43:52Z</time>
      </trkpt>
      <trkpt lat="41.87451" lon="0.879588">
        <time>2022-07-08T07:43:53Z</time>
      </trkpt>
      <trkpt lat="41.874508" lon="0.8796093">
        <time>2022-07-08T07:43:54Z</time>
      </trkpt>
      <trkpt lat="41.874496" lon="0.87967134">
        <time>2022-07-08T07:43:57Z</time>
      </trkpt>
      <trkpt lat="41.874485" lon="0.87975633">
        <time>2022-07-08T07:44:01Z</time>
      </trkpt>
      <trkpt lat="41.874477" lon="0.87984467">
        <time>2022-07-08T07:44:05Z</time>
      </trkpt>
      <trkpt lat="41.87447" lon="0.87991166">
        <time>2022-07-08T07:44:08Z</time>
      </trkpt>
      <trkpt lat="41.87446" lon="0.87999296">
        <time>2022-07-08T07:44:12Z</time>
      </trkpt>
      <trkpt lat="41.87444" lon="0.880076">
        <time>2022-07-08T07:44:16Z</time>
      </trkpt>
      <trkpt lat="41.87442" lon="0.880157">
        <time>2022-07-08T07:44:20Z</time>
      </trkpt>
      <trkpt lat="41.8744" lon="0.88023597">
        <time>2022-07-08T07:44:24Z</time>
      </trkpt>
      <trkpt lat="41.87439" lon="0.8803156">
        <time>2022-07-08T07:44:28Z</time>
      </trkpt>
      <trkpt lat="41.87436" lon="0.88038963">
        <time>2022-07-08T07:44:32Z</time>
      </trkpt>
      <trkpt lat="41.874325" lon="0.8804556">
        <time>2022-07-08T07:44:36Z</time>
      </trkpt>
      <trkpt lat="41.874302" lon="0.8805096">
        <time>2022-07-08T07:44:39Z</time>
      </trkpt>
      <trkpt lat="41.874256" lon="0.88058627">
        <time>2022-07-08T07:44:43Z</time>
      </trkpt>
      <trkpt lat="41.874218" lon="0.88063526">
        <time>2022-07-08T07:44:46Z</time>
      </trkpt>
      <trkpt lat="41.874184" lon="0.8806823">
        <time>2022-07-08T07:44:49Z</time>
      </trkpt>
      <trkpt lat="41.874146" lon="0.8807476">
        <time>2022-07-08T07:44:53Z</time>
      </trkpt>
      <trkpt lat="41.874104" lon="0.88081425">
        <time>2022-07-08T07:44:57Z</time>
      </trkpt>
      <trkpt lat="41.874077" lon="0.88089794">
        <time>2022-07-08T07:45:01Z</time>
      </trkpt>
      <trkpt lat="41.87405" lon="0.8809653">
        <time>2022-07-08T07:45:04Z</time>
      </trkpt>
      <trkpt lat="41.874016" lon="0.8810463">
        <time>2022-07-08T07:45:07Z</time>
      </trkpt>
      <trkpt lat="41.873985" lon="0.8811116">
        <time>2022-07-08T07:45:09Z</time>
      </trkpt>
      <trkpt lat="41.873947" lon="0.88118625">
        <time>2022-07-08T07:45:11Z</time>
      </trkpt>
      <trkpt lat="41.873905" lon="0.8812679">
        <time>2022-07-08T07:45:13Z</time>
      </trkpt>
      <trkpt lat="41.873856" lon="0.8813539">
        <time>2022-07-08T07:45:15Z</time>
      </trkpt>
      <trkpt lat="41.8738" lon="0.88144356">
        <time>2022-07-08T07:45:17Z</time>
      </trkpt>
      <trkpt lat="41.873734" lon="0.88153225">
        <time>2022-07-08T07:45:19Z</time>
      </trkpt>
      <trkpt lat="41.873653" lon="0.88160425">
        <time>2022-07-08T07:45:21Z</time>
      </trkpt>
      <trkpt lat="41.87356" lon="0.88165325">
        <time>2022-07-08T07:45:23Z</time>
      </trkpt>
      <trkpt lat="41.873478" lon="0.88169324">
        <time>2022-07-08T07:45:25Z</time>
      </trkpt>
      <trkpt lat="41.873398" lon="0.88172954">
        <time>2022-07-08T07:45:27Z</time>
      </trkpt>
      <trkpt lat="41.87333" lon="0.8817596">
        <time>2022-07-08T07:45:29Z</time>
      </trkpt>
      <trkpt lat="41.873276" lon="0.8817849">
        <time>2022-07-08T07:45:31Z</time>
      </trkpt>
      <trkpt lat="41.873234" lon="0.8818039">
        <time>2022-07-08T07:45:33Z</time>
      </trkpt>
      <trkpt lat="41.873184" lon="0.8818112">
        <time>2022-07-08T07:45:36Z</time>
      </trkpt>
      <trkpt lat="41.87314" lon="0.8817892">
        <time>2022-07-08T07:45:39Z</time>
      </trkpt>
      <trkpt lat="41.873093" lon="0.8817409">
        <time>2022-07-08T07:45:43Z</time>
      </trkpt>
      <trkpt lat="41.873066" lon="0.88166857">
        <time>2022-07-08T07:45:47Z</time>
      </trkpt>
      <trkpt lat="41.873074" lon="0.8815879">
        <time>2022-07-08T07:45:51Z</time>
      </trkpt>
      <trkpt lat="41.87309" lon="0.88151324">
        <time>2022-07-08T07:45:55Z</time>
      </trkpt>
      <trkpt lat="41.87311" lon="0.8814429">
        <time>2022-07-08T07:45:59Z</time>
      </trkpt>
      <trkpt lat="41.87313" lon="0.8813669">
        <time>2022-07-08T07:46:03Z</time>
      </trkpt>
      <trkpt lat="41.87315" lon="0.88130826">
        <time>2022-07-08T07:46:06Z</time>
      </trkpt>
      <trkpt lat="41.873177" lon="0.88122827">
        <time>2022-07-08T07:46:10Z</time>
      </trkpt>
      <trkpt lat="41.8732" lon="0.8811533">
        <time>2022-07-08T07:46:14Z</time>
      </trkpt>
      <trkpt lat="41.873226" lon="0.8810746">
        <time>2022-07-08T07:46:18Z</time>
      </trkpt>
      <trkpt lat="41.873257" lon="0.88100594">
        <time>2022-07-08T07:46:22Z</time>
      </trkpt>
      <trkpt lat="41.873295" lon="0.88094693">
        <time>2022-07-08T07:46:26Z</time>
      </trkpt>
      <trkpt lat="41.873333" lon="0.88088626">
        <time>2022-07-08T07:46:30Z</time>
      </trkpt>
      <trkpt lat="41.87337" lon="0.88082564">
        <time>2022-07-08T07:46:34Z</time>
      </trkpt>
      <trkpt lat="41.8734" lon="0.8807633">
        <time>2022-07-08T07:46:38Z</time>
      </trkpt>
      <trkpt lat="41.87343" lon="0.880694">
        <time>2022-07-08T07:46:42Z</time>
      </trkpt>
      <trkpt lat="41.87346" lon="0.8806263">
        <time>2022-07-08T07:46:46Z</time>
      </trkpt>
      <trkpt lat="41.87349" lon="0.8805633">
        <time>2022-07-08T07:46:50Z</time>
      </trkpt>
      <trkpt lat="41.873516" lon="0.88049865">
        <time>2022-07-08T07:46:54Z</time>
      </trkpt>
      <trkpt lat="41.87354" lon="0.88043064">
        <time>2022-07-08T07:46:58Z</time>
      </trkpt>
      <trkpt lat="41.87357" lon="0.8803616">
        <time>2022-07-08T07:47:02Z</time>
      </trkpt>
      <trkpt lat="41.873592" lon="0.8802896">
        <time>2022-07-08T07:47:06Z</time>
      </trkpt>
      <trkpt lat="41.873604" lon="0.88021064">
        <time>2022-07-08T07:47:10Z</time>
      </trkpt>
      <trkpt lat="41.873596" lon="0.880126">
        <time>2022-07-08T07:47:14Z</time>
      </trkpt>
      <trkpt lat="41.87357" lon="0.880063">
        <time>2022-07-08T07:47:18Z</time>
      </trkpt>
      <trkpt lat="41.87352" lon="0.8800453">
        <time>2022-07-08T07:47:22Z</time>
      </trkpt>
      <trkpt lat="41.873474" lon="0.8800813">
        <time>2022-07-08T07:47:26Z</time>
      </trkpt>
      <trkpt lat="41.87343" lon="0.88013566">
        <time>2022-07-08T07:47:30Z</time>
      </trkpt>
      <trkpt lat="41.873386" lon="0.880196">
        <time>2022-07-08T07:47:34Z</time>
      </trkpt>
      <trkpt lat="41.873344" lon="0.88025564">
        <time>2022-07-08T07:47:38Z</time>
      </trkpt>
      <trkpt lat="41.8733" lon="0.88031495">
        <time>2022-07-08T07:47:42Z</time>
      </trkpt>
      <trkpt lat="41.87326" lon="0.8803783">
        <time>2022-07-08T07:47:46Z</time>
      </trkpt>
      <trkpt lat="41.87322" lon="0.8804416">
        <time>2022-07-08T07:47:50Z</time>
      </trkpt>
      <trkpt lat="41.873184" lon="0.880488">
        <time>2022-07-08T07:47:53Z</time>
      </trkpt>
      <trkpt lat="41.873142" lon="0.8805573">
        <time>2022-07-08T07:47:57Z</time>
      </trkpt>
      <trkpt lat="41.8731" lon="0.88061595">
        <time>2022-07-08T07:48:01Z</time>
      </trkpt>
      <trkpt lat="41.873066" lon="0.8806769">
        <time>2022-07-08T07:48:05Z</time>
      </trkpt>
      <trkpt lat="41.873035" lon="0.8807466">
        <time>2022-07-08T07:48:09Z</time>
      </trkpt>
      <trkpt lat="41.872986" lon="0.8808056">
        <time>2022-07-08T07:48:13Z</time>
      </trkpt>
      <trkpt lat="41.872944" lon="0.88086563">
        <time>2022-07-08T07:48:17Z</time>
      </trkpt>
      <trkpt lat="41.87291" lon="0.8809266">
        <time>2022-07-08T07:48:21Z</time>
      </trkpt>
      <trkpt lat="41.87287" lon="0.88098997">
        <time>2022-07-08T07:48:25Z</time>
      </trkpt>
      <trkpt lat="41.872833" lon="0.8810556">
        <time>2022-07-08T07:48:29Z</time>
      </trkpt>
      <trkpt lat="41.872803" lon="0.8811239">
        <time>2022-07-08T07:48:33Z</time>
      </trkpt>
      <trkpt lat="41.872772" lon="0.88119096">
        <time>2022-07-08T07:48:37Z</time>
      </trkpt>
      <trkpt lat="41.872746" lon="0.88125795">
        <time>2022-07-08T07:48:41Z</time>
      </trkpt>
      <trkpt lat="41.872715" lon="0.88132757">
        <time>2022-07-08T07:48:45Z</time>
      </trkpt>
      <trkpt lat="41.872684" lon="0.8813949">
        <time>2022-07-08T07:48:49Z</time>
      </trkpt>
      <trkpt lat="41.87266" lon="0.88145024">
        <time>2022-07-08T07:48:52Z</time>
      </trkpt>
      <trkpt lat="41.872623" lon="0.88152725">
        <time>2022-07-08T07:48:56Z</time>
      </trkpt>
      <trkpt lat="41.872593" lon="0.8815842">
        <time>2022-07-08T07:48:59Z</time>
      </trkpt>
      <trkpt lat="41.87256" lon="0.8816566">
        <time>2022-07-08T07:49:03Z</time>
      </trkpt>
      <trkpt lat="41.872528" lon="0.88171256">
        <time>2022-07-08T07:49:06Z</time>
      </trkpt>
      <trkpt lat="41.87249" lon="0.8817902">
        <time>2022-07-08T07:49:10Z</time>
      </trkpt>
      <trkpt lat="41.872463" lon="0.8818456">
        <time>2022-07-08T07:49:13Z</time>
      </trkpt>
      <trkpt lat="41.872425" lon="0.88191724">
        <time>2022-07-08T07:49:17Z</time>
      </trkpt>
      <trkpt lat="41.8724" lon="0.8819732">
        <time>2022-07-08T07:49:20Z</time>
      </trkpt>
      <trkpt lat="41.872364" lon="0.88202757">
        <time>2022-07-08T07:49:23Z</time>
      </trkpt>
      <trkpt lat="41.87232" lon="0.8821006">
        <time>2022-07-08T07:49:27Z</time>
      </trkpt>
      <trkpt lat="41.872284" lon="0.8821546">
        <time>2022-07-08T07:49:30Z</time>
      </trkpt>
      <trkpt lat="41.872242" lon="0.88220525">
        <time>2022-07-08T07:49:33Z</time>
      </trkpt>
      <trkpt lat="41.87219" lon="0.88225055">
        <time>2022-07-08T07:49:36Z</time>
      </trkpt>
      <trkpt lat="41.872128" lon="0.88229257">
        <time>2022-07-08T07:49:39Z</time>
      </trkpt>
      <trkpt lat="41.872078" lon="0.88231957">
        <time>2022-07-08T07:49:41Z</time>
      </trkpt>
      <trkpt lat="41.87202" lon="0.88233924">
        <time>2022-07-08T07:49:43Z</time>
      </trkpt>
      <trkpt lat="41.871964" lon="0.88235486">
        <time>2022-07-08T07:49:45Z</time>
      </trkpt>
      <trkpt lat="41.8719" lon="0.8823659">
        <time>2022-07-08T07:49:47Z</time>
      </trkpt>
      <trkpt lat="41.871822" lon="0.8823712">
        <time>2022-07-08T07:49:49Z</time>
      </trkpt>
      <trkpt lat="41.871746" lon="0.88237154">
        <time>2022-07-08T07:49:51Z</time>
      </trkpt>
      <trkpt lat="41.871666" lon="0.88236254">
        <time>2022-07-08T07:49:53Z</time>
      </trkpt>
      <trkpt lat="41.871586" lon="0.88234556">
        <time>2022-07-08T07:49:55Z</time>
      </trkpt>
      <trkpt lat="41.871464" lon="0.8823075">
        <time>2022-07-08T07:49:58Z</time>
      </trkpt>
      <trkpt lat="41.871384" lon="0.8822769">
        <time>2022-07-08T07:50:00Z</time>
      </trkpt>
      <trkpt lat="41.871307" lon="0.88224554">
        <time>2022-07-08T07:50:02Z</time>
      </trkpt>
      <trkpt lat="41.871235" lon="0.88221455">
        <time>2022-07-08T07:50:04Z</time>
      </trkpt>
      <trkpt lat="41.87117" lon="0.8821822">
        <time>2022-07-08T07:50:06Z</time>
      </trkpt>
      <trkpt lat="41.871094" lon="0.88214856">
        <time>2022-07-08T07:50:09Z</time>
      </trkpt>
      <trkpt lat="41.871033" lon="0.8821239">
        <time>2022-07-08T07:50:11Z</time>
      </trkpt>
      <trkpt lat="41.870975" lon="0.8821019">
        <time>2022-07-08T07:50:13Z</time>
      </trkpt>
      <trkpt lat="41.870926" lon="0.88208026">
        <time>2022-07-08T07:50:15Z</time>
      </trkpt>
      <trkpt lat="41.870876" lon="0.88206154">
        <time>2022-07-08T07:50:17Z</time>
      </trkpt>
      <trkpt lat="41.87081" lon="0.88203657">
        <time>2022-07-08T07:50:20Z</time>
      </trkpt>
      <trkpt lat="41.870766" lon="0.88202155">
        <time>2022-07-08T07:50:22Z</time>
      </trkpt>
      <trkpt lat="41.870697" lon="0.88199955">
        <time>2022-07-08T07:50:25Z</time>
      </trkpt>
      <trkpt lat="41.870632" lon="0.8819742">
        <time>2022-07-08T07:50:28Z</time>
      </trkpt>
      <trkpt lat="41.87057" lon="0.8819499">
        <time>2022-07-08T07:50:31Z</time>
      </trkpt>
      <trkpt lat="41.87051" lon="0.8819259">
        <time>2022-07-08T07:50:34Z</time>
      </trkpt>
      <trkpt lat="41.870445" lon="0.88190424">
        <time>2022-07-08T07:50:37Z</time>
      </trkpt>
      <trkpt lat="41.87038" lon="0.8818816">
        <time>2022-07-08T07:50:40Z</time>
      </trkpt>
      <trkpt lat="41.870323" lon="0.8818663">
        <time>2022-07-08T07:50:43Z</time>
      </trkpt>
      <trkpt lat="41.870266" lon="0.88185525">
        <time>2022-07-08T07:50:46Z</time>
      </trkpt>
      <trkpt lat="41.870213" lon="0.88185096">
        <time>2022-07-08T07:50:49Z</time>
      </trkpt>
      <trkpt lat="41.870155" lon="0.8818479">
        <time>2022-07-08T07:50:52Z</time>
      </trkpt>
      <trkpt lat="41.8701" lon="0.88184625">
        <time>2022-07-08T07:50:55Z</time>
      </trkpt>
      <trkpt lat="41.87004" lon="0.88184595">
        <time>2022-07-08T07:50:58Z</time>
      </trkpt>
      <trkpt lat="41.869987" lon="0.88184726">
        <time>2022-07-08T07:51:01Z</time>
      </trkpt>
      <trkpt lat="41.86993" lon="0.88185495">
        <time>2022-07-08T07:51:04Z</time>
      </trkpt>
      <trkpt lat="41.869877" lon="0.88186026">
        <time>2022-07-08T07:51:07Z</time>
      </trkpt>
      <trkpt lat="41.869823" lon="0.88187194">
        <time>2022-07-08T07:51:10Z</time>
      </trkpt>
      <trkpt lat="41.86977" lon="0.88189393">
        <time>2022-07-08T07:51:13Z</time>
      </trkpt>
      <trkpt lat="41.86971" lon="0.88192225">
        <time>2022-07-08T07:51:16Z</time>
      </trkpt>
      <trkpt lat="41.869648" lon="0.88194793">
        <time>2022-07-08T07:51:19Z</time>
      </trkpt>
      <trkpt lat="41.869587" lon="0.88197225">
        <time>2022-07-08T07:51:22Z</time>
      </trkpt>
      <trkpt lat="41.869522" lon="0.88199955">
        <time>2022-07-08T07:51:25Z</time>
      </trkpt>
      <trkpt lat="41.869457" lon="0.8820256">
        <time>2022-07-08T07:51:28Z</time>
      </trkpt>
      <trkpt lat="41.869396" lon="0.8820529">
        <time>2022-07-08T07:51:31Z</time>
      </trkpt>
      <trkpt lat="41.86935" lon="0.8820722">
        <time>2022-07-08T07:51:33Z</time>
      </trkpt>
      <trkpt lat="41.869286" lon="0.8820992">
        <time>2022-07-08T07:51:36Z</time>
      </trkpt>
      <trkpt lat="41.869236" lon="0.8821149">
        <time>2022-07-08T07:51:38Z</time>
      </trkpt>
      <trkpt lat="41.86916" lon="0.88213325">
        <time>2022-07-08T07:51:41Z</time>
      </trkpt>
      <trkpt lat="41.869114" lon="0.88214755">
        <time>2022-07-08T07:51:43Z</time>
      </trkpt>
      <trkpt lat="41.86904" lon="0.8821732">
        <time>2022-07-08T07:51:46Z</time>
      </trkpt>
      <trkpt lat="41.868965" lon="0.8821959">
        <time>2022-07-08T07:51:49Z</time>
      </trkpt>
      <trkpt lat="41.86891" lon="0.88220686">
        <time>2022-07-08T07:51:51Z</time>
      </trkpt>
      <trkpt lat="41.868862" lon="0.88221586">
        <time>2022-07-08T07:51:53Z</time>
      </trkpt>
      <trkpt lat="41.86881" lon="0.8822252">
        <time>2022-07-08T07:51:55Z</time>
      </trkpt>
      <trkpt lat="41.868755" lon="0.8822372">
        <time>2022-07-08T07:51:57Z</time>
      </trkpt>
      <trkpt lat="41.868706" lon="0.8822492">
        <time>2022-07-08T07:51:59Z</time>
      </trkpt>
      <trkpt lat="41.868626" lon="0.8822652">
        <time>2022-07-08T07:52:02Z</time>
      </trkpt>
      <trkpt lat="41.868576" lon="0.8822762">
        <time>2022-07-08T07:52:04Z</time>
      </trkpt>
      <trkpt lat="41.868523" lon="0.88228655">
        <time>2022-07-08T07:52:06Z</time>
      </trkpt>
      <trkpt lat="41.86847" lon="0.88229483">
        <time>2022-07-08T07:52:08Z</time>
      </trkpt>
      <trkpt lat="41.868393" lon="0.8823069">
        <time>2022-07-08T07:52:11Z</time>
      </trkpt>
      <trkpt lat="41.868343" lon="0.8823142">
        <time>2022-07-08T07:52:13Z</time>
      </trkpt>
      <trkpt lat="41.86829" lon="0.8823235">
        <time>2022-07-08T07:52:15Z</time>
      </trkpt>
      <trkpt lat="41.868214" lon="0.8823385">
        <time>2022-07-08T07:52:18Z</time>
      </trkpt>
      <trkpt lat="41.868164" lon="0.8823505">
        <time>2022-07-08T07:52:20Z</time>
      </trkpt>
      <trkpt lat="41.86811" lon="0.88236254">
        <time>2022-07-08T07:52:22Z</time>
      </trkpt>
      <trkpt lat="41.868057" lon="0.8823735">
        <time>2022-07-08T07:52:24Z</time>
      </trkpt>
      <trkpt lat="41.868008" lon="0.88238454">
        <time>2022-07-08T07:52:26Z</time>
      </trkpt>
      <trkpt lat="41.867935" lon="0.8824022">
        <time>2022-07-08T07:52:29Z</time>
      </trkpt>
      <trkpt lat="41.867863" lon="0.8824198">
        <time>2022-07-08T07:52:32Z</time>
      </trkpt>
      <trkpt lat="41.86779" lon="0.8824335">
        <time>2022-07-08T07:52:35Z</time>
      </trkpt>
      <trkpt lat="41.86774" lon="0.8824422">
        <time>2022-07-08T07:52:37Z</time>
      </trkpt>
      <trkpt lat="41.867672" lon="0.88246113">
        <time>2022-07-08T07:52:40Z</time>
      </trkpt>
      <trkpt lat="41.867603" lon="0.8824822">
        <time>2022-07-08T07:52:43Z</time>
      </trkpt>
      <trkpt lat="41.86754" lon="0.8824912">
        <time>2022-07-08T07:52:46Z</time>
      </trkpt>
      <trkpt lat="41.867477" lon="0.8824962">
        <time>2022-07-08T07:52:49Z</time>
      </trkpt>
      <trkpt lat="41.867424" lon="0.8825052">
        <time>2022-07-08T07:52:52Z</time>
      </trkpt>
      <trkpt lat="41.867367" lon="0.88251716">
        <time>2022-07-08T07:52:55Z</time>
      </trkpt>
      <trkpt lat="41.86731" lon="0.88253284">
        <time>2022-07-08T07:52:58Z</time>
      </trkpt>
      <trkpt lat="41.867252" lon="0.8825515">
        <time>2022-07-08T07:53:01Z</time>
      </trkpt>
      <trkpt lat="41.867195" lon="0.88257015">
        <time>2022-07-08T07:53:04Z</time>
      </trkpt>
      <trkpt lat="41.867138" lon="0.8825898">
        <time>2022-07-08T07:53:07Z</time>
      </trkpt>
      <trkpt lat="41.86709" lon="0.8826135">
        <time>2022-07-08T07:53:10Z</time>
      </trkpt>
      <trkpt lat="41.867035" lon="0.8826428">
        <time>2022-07-08T07:53:13Z</time>
      </trkpt>
      <trkpt lat="41.86699" lon="0.8826791">
        <time>2022-07-08T07:53:16Z</time>
      </trkpt>
      <trkpt lat="41.866943" lon="0.88271976">
        <time>2022-07-08T07:53:19Z</time>
      </trkpt>
      <trkpt lat="41.866898" lon="0.88276213">
        <time>2022-07-08T07:53:22Z</time>
      </trkpt>
      <trkpt lat="41.866848" lon="0.88280475">
        <time>2022-07-08T07:53:25Z</time>
      </trkpt>
      <trkpt lat="41.8668" lon="0.8828514">
        <time>2022-07-08T07:53:28Z</time>
      </trkpt>
      <trkpt lat="41.866756" lon="0.88289744">
        <time>2022-07-08T07:53:31Z</time>
      </trkpt>
      <trkpt lat="41.866707" lon="0.8829418">
        <time>2022-07-08T07:53:34Z</time>
      </trkpt>
      <trkpt lat="41.86666" lon="0.8829881">
        <time>2022-07-08T07:53:37Z</time>
      </trkpt>
      <trkpt lat="41.866623" lon="0.8830344">
        <time>2022-07-08T07:53:40Z</time>
      </trkpt>
      <trkpt lat="41.866577" lon="0.88308275">
        <time>2022-07-08T07:53:43Z</time>
      </trkpt>
      <trkpt lat="41.86654" lon="0.8831351">
        <time>2022-07-08T07:53:46Z</time>
      </trkpt>
      <trkpt lat="41.866512" lon="0.8832014">
        <time>2022-07-08T07:53:49Z</time>
      </trkpt>
      <trkpt lat="41.8665" lon="0.8832737">
        <time>2022-07-08T07:53:52Z</time>
      </trkpt>
      <trkpt lat="41.866505" lon="0.88335204">
        <time>2022-07-08T07:53:55Z</time>
      </trkpt>
      <trkpt lat="41.866505" lon="0.8834307">
        <time>2022-07-08T07:53:58Z</time>
      </trkpt>
      <trkpt lat="41.86652" lon="0.8835084">
        <time>2022-07-08T07:54:01Z</time>
      </trkpt>
      <trkpt lat="41.866543" lon="0.8835884">
        <time>2022-07-08T07:54:04Z</time>
      </trkpt>
      <trkpt lat="41.866566" lon="0.88367873">
        <time>2022-07-08T07:54:07Z</time>
      </trkpt>
      <trkpt lat="41.866585" lon="0.88376737">
        <time>2022-07-08T07:54:10Z</time>
      </trkpt>
      <trkpt lat="41.866608" lon="0.8838644">
        <time>2022-07-08T07:54:13Z</time>
      </trkpt>
      <trkpt lat="41.866634" lon="0.8839614">
        <time>2022-07-08T07:54:16Z</time>
      </trkpt>
      <trkpt lat="41.866657" lon="0.884033">
        <time>2022-07-08T07:54:18Z</time>
      </trkpt>
      <trkpt lat="41.86668" lon="0.884104">
        <time>2022-07-08T07:54:20Z</time>
      </trkpt>
      <trkpt lat="41.866707" lon="0.8841734">
        <time>2022-07-08T07:54:22Z</time>
      </trkpt>
      <trkpt lat="41.866734" lon="0.88424504">
        <time>2022-07-08T07:54:24Z</time>
      </trkpt>
      <trkpt lat="41.86676" lon="0.8843147">
        <time>2022-07-08T07:54:26Z</time>
      </trkpt>
      <trkpt lat="41.866783" lon="0.884383">
        <time>2022-07-08T07:54:28Z</time>
      </trkpt>
      <trkpt lat="41.86681" lon="0.8844487">
        <time>2022-07-08T07:54:30Z</time>
      </trkpt>
      <trkpt lat="41.866833" lon="0.88451666">
        <time>2022-07-08T07:54:32Z</time>
      </trkpt>
      <trkpt lat="41.86686" lon="0.884584">
        <time>2022-07-08T07:54:34Z</time>
      </trkpt>
      <trkpt lat="41.866886" lon="0.884651">
        <time>2022-07-08T07:54:36Z</time>
      </trkpt>
      <trkpt lat="41.86691" lon="0.884715">
        <time>2022-07-08T07:54:38Z</time>
      </trkpt>
      <trkpt lat="41.866936" lon="0.88478136">
        <time>2022-07-08T07:54:40Z</time>
      </trkpt>
      <trkpt lat="41.866962" lon="0.884845">
        <time>2022-07-08T07:54:42Z</time>
      </trkpt>
      <trkpt lat="41.86699" lon="0.884909">
        <time>2022-07-08T07:54:44Z</time>
      </trkpt>
      <trkpt lat="41.86702" lon="0.88497835">
        <time>2022-07-08T07:54:46Z</time>
      </trkpt>
      <trkpt lat="41.867043" lon="0.88504297">
        <time>2022-07-08T07:54:48Z</time>
      </trkpt>
      <trkpt lat="41.86707" lon="0.88510996">
        <time>2022-07-08T07:54:50Z</time>
      </trkpt>
      <trkpt lat="41.8671" lon="0.8851723">
        <time>2022-07-08T07:54:52Z</time>
      </trkpt>
      <trkpt lat="41.867126" lon="0.88523597">
        <time>2022-07-08T07:54:54Z</time>
      </trkpt>
      <trkpt lat="41.86715" lon="0.8853033">
        <time>2022-07-08T07:54:56Z</time>
      </trkpt>
      <trkpt lat="41.867172" lon="0.88536763">
        <time>2022-07-08T07:54:58Z</time>
      </trkpt>
      <trkpt lat="41.86719" lon="0.8854283">
        <time>2022-07-08T07:55:00Z</time>
      </trkpt>
      <trkpt lat="41.86721" lon="0.88551694">
        <time>2022-07-08T07:55:03Z</time>
      </trkpt>
      <trkpt lat="41.867226" lon="0.8856083">
        <time>2022-07-08T07:55:06Z</time>
      </trkpt>
      <trkpt lat="41.86724" lon="0.88569427">
        <time>2022-07-08T07:55:09Z</time>
      </trkpt>
      <trkpt lat="41.86726" lon="0.8857826">
        <time>2022-07-08T07:55:12Z</time>
      </trkpt>
      <trkpt lat="41.86728" lon="0.8858646">
        <time>2022-07-08T07:55:15Z</time>
      </trkpt>
      <trkpt lat="41.8673" lon="0.88595295">
        <time>2022-07-08T07:55:18Z</time>
      </trkpt>
      <trkpt lat="41.867317" lon="0.8860363">
        <time>2022-07-08T07:55:21Z</time>
      </trkpt>
      <trkpt lat="41.867336" lon="0.8861213">
        <time>2022-07-08T07:55:24Z</time>
      </trkpt>
      <trkpt lat="41.86736" lon="0.8862069">
        <time>2022-07-08T07:55:27Z</time>
      </trkpt>
      <trkpt lat="41.867393" lon="0.88630795">
        <time>2022-07-08T07:55:31Z</time>
      </trkpt>
      <trkpt lat="41.867416" lon="0.8863693">
        <time>2022-07-08T07:55:33Z</time>
      </trkpt>
      <trkpt lat="41.867443" lon="0.88642496">
        <time>2022-07-08T07:55:35Z</time>
      </trkpt>
      <trkpt lat="41.867477" lon="0.88651025">
        <time>2022-07-08T07:55:38Z</time>
      </trkpt>
      <trkpt lat="41.867508" lon="0.88659126">
        <time>2022-07-08T07:55:41Z</time>
      </trkpt>
      <trkpt lat="41.86753" lon="0.8866456">
        <time>2022-07-08T07:55:43Z</time>
      </trkpt>
      <trkpt lat="41.867565" lon="0.8867236">
        <time>2022-07-08T07:55:46Z</time>
      </trkpt>
      <trkpt lat="41.867603" lon="0.88680226">
        <time>2022-07-08T07:55:49Z</time>
      </trkpt>
      <trkpt lat="41.867645" lon="0.8868789">
        <time>2022-07-08T07:55:52Z</time>
      </trkpt>
      <trkpt lat="41.86769" lon="0.8869669">
        <time>2022-07-08T07:55:55Z</time>
      </trkpt>
      <trkpt lat="41.867714" lon="0.88702625">
        <time>2022-07-08T07:55:57Z</time>
      </trkpt>
      <trkpt lat="41.86773" lon="0.88709027">
        <time>2022-07-08T07:55:59Z</time>
      </trkpt>
      <trkpt lat="41.86775" lon="0.88718224">
        <time>2022-07-08T07:56:02Z</time>
      </trkpt>
      <trkpt lat="41.867756" lon="0.8872756">
        <time>2022-07-08T07:56:05Z</time>
      </trkpt>
      <trkpt lat="41.867764" lon="0.88736355">
        <time>2022-07-08T07:56:08Z</time>
      </trkpt>
      <trkpt lat="41.867767" lon="0.88745254">
        <time>2022-07-08T07:56:11Z</time>
      </trkpt>
      <trkpt lat="41.867767" lon="0.8875712">
        <time>2022-07-08T07:56:15Z</time>
      </trkpt>
      <trkpt lat="41.867764" lon="0.88765925">
        <time>2022-07-08T07:56:18Z</time>
      </trkpt>
      <trkpt lat="41.86776" lon="0.8877499">
        <time>2022-07-08T07:56:21Z</time>
      </trkpt>
      <trkpt lat="41.867752" lon="0.8878369">
        <time>2022-07-08T07:56:24Z</time>
      </trkpt>
      <trkpt lat="41.86775" lon="0.88792354">
        <time>2022-07-08T07:56:27Z</time>
      </trkpt>
      <trkpt lat="41.867744" lon="0.88801223">
        <time>2022-07-08T07:56:30Z</time>
      </trkpt>
      <trkpt lat="41.867744" lon="0.88809955">
        <time>2022-07-08T07:56:33Z</time>
      </trkpt>
      <trkpt lat="41.86775" lon="0.8881872">
        <time>2022-07-08T07:56:36Z</time>
      </trkpt>
      <trkpt lat="41.86776" lon="0.8882742">
        <time>2022-07-08T07:56:39Z</time>
      </trkpt>
      <trkpt lat="41.867775" lon="0.8883592">
        <time>2022-07-08T07:56:42Z</time>
      </trkpt>
      <trkpt lat="41.86779" lon="0.88844585">
        <time>2022-07-08T07:56:45Z</time>
      </trkpt>
      <trkpt lat="41.867805" lon="0.88853353">
        <time>2022-07-08T07:56:48Z</time>
      </trkpt>
      <trkpt lat="41.867836" lon="0.88863087">
        <time>2022-07-08T07:56:51Z</time>
      </trkpt>
      <trkpt lat="41.867855" lon="0.88870287">
        <time>2022-07-08T07:56:53Z</time>
      </trkpt>
      <trkpt lat="41.867878" lon="0.88878685">
        <time>2022-07-08T07:56:55Z</time>
      </trkpt>
      <trkpt lat="41.867905" lon="0.88888216">
        <time>2022-07-08T07:56:57Z</time>
      </trkpt>
      <trkpt lat="41.867935" lon="0.88899416">
        <time>2022-07-08T07:56:59Z</time>
      </trkpt>
      <trkpt lat="41.867973" lon="0.8891165">
        <time>2022-07-08T07:57:01Z</time>
      </trkpt>
      <trkpt lat="41.868004" lon="0.8892518">
        <time>2022-07-08T07:57:03Z</time>
      </trkpt>
      <trkpt lat="41.868023" lon="0.8893292">
        <time>2022-07-08T07:57:04Z</time>
      </trkpt>
      <trkpt lat="41.868046" lon="0.8894092">
        <time>2022-07-08T07:57:05Z</time>
      </trkpt>
      <trkpt lat="41.868065" lon="0.8894855">
        <time>2022-07-08T07:57:06Z</time>
      </trkpt>
      <trkpt lat="41.868084" lon="0.8895715">
        <time>2022-07-08T07:57:07Z</time>
      </trkpt>
      <trkpt lat="41.868103" lon="0.8896598">
        <time>2022-07-08T07:57:08Z</time>
      </trkpt>
      <trkpt lat="41.86812" lon="0.88975215">
        <time>2022-07-08T07:57:09Z</time>
      </trkpt>
      <trkpt lat="41.868134" lon="0.8898468">
        <time>2022-07-08T07:57:10Z</time>
      </trkpt>
      <trkpt lat="41.868145" lon="0.8899445">
        <time>2022-07-08T07:57:11Z</time>
      </trkpt>
      <trkpt lat="41.86815" lon="0.8900448">
        <time>2022-07-08T07:57:12Z</time>
      </trkpt>
      <trkpt lat="41.868153" lon="0.89014816">
        <time>2022-07-08T07:57:13Z</time>
      </trkpt>
      <trkpt lat="41.86815" lon="0.8902535">
        <time>2022-07-08T07:57:14Z</time>
      </trkpt>
      <trkpt lat="41.86814" lon="0.8903598">
        <time>2022-07-08T07:57:15Z</time>
      </trkpt>
      <trkpt lat="41.868126" lon="0.8904668">
        <time>2022-07-08T07:57:16Z</time>
      </trkpt>
      <trkpt lat="41.868088" lon="0.89067715">
        <time>2022-07-08T07:57:18Z</time>
      </trkpt>
      <trkpt lat="41.86806" lon="0.89077944">
        <time>2022-07-08T07:57:19Z</time>
      </trkpt>
      <trkpt lat="41.868034" lon="0.8908801">
        <time>2022-07-08T07:57:20Z</time>
      </trkpt>
      <trkpt lat="41.868004" lon="0.8909781">
        <time>2022-07-08T07:57:21Z</time>
      </trkpt>
      <trkpt lat="41.86797" lon="0.89107376">
        <time>2022-07-08T07:57:22Z</time>
      </trkpt>
      <trkpt lat="41.867935" lon="0.8911661">
        <time>2022-07-08T07:57:23Z</time>
      </trkpt>
      <trkpt lat="41.8679" lon="0.8912541">
        <time>2022-07-08T07:57:24Z</time>
      </trkpt>
      <trkpt lat="41.867867" lon="0.89133775">
        <time>2022-07-08T07:57:25Z</time>
      </trkpt>
      <trkpt lat="41.86783" lon="0.8914171">
        <time>2022-07-08T07:57:26Z</time>
      </trkpt>
      <trkpt lat="41.86779" lon="0.8914921">
        <time>2022-07-08T07:57:27Z</time>
      </trkpt>
      <trkpt lat="41.867752" lon="0.89156276">
        <time>2022-07-08T07:57:28Z</time>
      </trkpt>
      <trkpt lat="41.867718" lon="0.8916294">
        <time>2022-07-08T07:57:29Z</time>
      </trkpt>
      <trkpt lat="41.86768" lon="0.8916921">
        <time>2022-07-08T07:57:30Z</time>
      </trkpt>
      <trkpt lat="41.86765" lon="0.8917514">
        <time>2022-07-08T07:57:31Z</time>
      </trkpt>
      <trkpt lat="41.867615" lon="0.8918071">
        <time>2022-07-08T07:57:32Z</time>
      </trkpt>
      <trkpt lat="41.867584" lon="0.8918584">
        <time>2022-07-08T07:57:33Z</time>
      </trkpt>
      <trkpt lat="41.867554" lon="0.8919134">
        <time>2022-07-08T07:57:34Z</time>
      </trkpt>
      <trkpt lat="41.8675" lon="0.8920144">
        <time>2022-07-08T07:57:36Z</time>
      </trkpt>
      <trkpt lat="41.867455" lon="0.89210874">
        <time>2022-07-08T07:57:38Z</time>
      </trkpt>
      <trkpt lat="41.86741" lon="0.8922004">
        <time>2022-07-08T07:57:40Z</time>
      </trkpt>
      <trkpt lat="41.867363" lon="0.89229774">
        <time>2022-07-08T07:57:42Z</time>
      </trkpt>
      <trkpt lat="41.867317" lon="0.89240104">
        <time>2022-07-08T07:57:44Z</time>
      </trkpt>
      <trkpt lat="41.86727" lon="0.892512">
        <time>2022-07-08T07:57:46Z</time>
      </trkpt>
      <trkpt lat="41.867226" lon="0.8926304">
        <time>2022-07-08T07:57:48Z</time>
      </trkpt>
      <trkpt lat="41.867172" lon="0.8927577">
        <time>2022-07-08T07:57:50Z</time>
      </trkpt>
      <trkpt lat="41.867146" lon="0.89282507">
        <time>2022-07-08T07:57:51Z</time>
      </trkpt>
      <trkpt lat="41.86712" lon="0.892894">
        <time>2022-07-08T07:57:52Z</time>
      </trkpt>
      <trkpt lat="41.867092" lon="0.8929647">
        <time>2022-07-08T07:57:53Z</time>
      </trkpt>
      <trkpt lat="41.867065" lon="0.8930427">
        <time>2022-07-08T07:57:54Z</time>
      </trkpt>
      <trkpt lat="41.867035" lon="0.8931207">
        <time>2022-07-08T07:57:55Z</time>
      </trkpt>
      <trkpt lat="41.86701" lon="0.893193">
        <time>2022-07-08T07:57:56Z</time>
      </trkpt>
      <trkpt lat="41.866978" lon="0.893266">
        <time>2022-07-08T07:57:57Z</time>
      </trkpt>
      <trkpt lat="41.86695" lon="0.89333934">
        <time>2022-07-08T07:57:58Z</time>
      </trkpt>
      <trkpt lat="41.866917" lon="0.893413">
        <time>2022-07-08T07:57:59Z</time>
      </trkpt>
      <trkpt lat="41.866886" lon="0.8934877">
        <time>2022-07-08T07:58:00Z</time>
      </trkpt>
      <trkpt lat="41.86685" lon="0.8935627">
        <time>2022-07-08T07:58:01Z</time>
      </trkpt>
      <trkpt lat="41.86682" lon="0.8936383">
        <time>2022-07-08T07:58:02Z</time>
      </trkpt>
      <trkpt lat="41.866787" lon="0.893714">
        <time>2022-07-08T07:58:03Z</time>
      </trkpt>
      <trkpt lat="41.866753" lon="0.89378965">
        <time>2022-07-08T07:58:04Z</time>
      </trkpt>
      <trkpt lat="41.866722" lon="0.89386433">
        <time>2022-07-08T07:58:05Z</time>
      </trkpt>
      <trkpt lat="41.866688" lon="0.893938">
        <time>2022-07-08T07:58:06Z</time>
      </trkpt>
      <trkpt lat="41.866653" lon="0.89401">
        <time>2022-07-08T07:58:07Z</time>
      </trkpt>
      <trkpt lat="41.86662" lon="0.89408064">
        <time>2022-07-08T07:58:08Z</time>
      </trkpt>
      <trkpt lat="41.866585" lon="0.89415663">
        <time>2022-07-08T07:58:09Z</time>
      </trkpt>
      <trkpt lat="41.86655" lon="0.8942263">
        <time>2022-07-08T07:58:10Z</time>
      </trkpt>
      <trkpt lat="41.866516" lon="0.8942963">
        <time>2022-07-08T07:58:11Z</time>
      </trkpt>
      <trkpt lat="41.86648" lon="0.8943653">
        <time>2022-07-08T07:58:12Z</time>
      </trkpt>
      <trkpt lat="41.866444" lon="0.8944383">
        <time>2022-07-08T07:58:13Z</time>
      </trkpt>
      <trkpt lat="41.866405" lon="0.8945096">
        <time>2022-07-08T07:58:14Z</time>
      </trkpt>
      <trkpt lat="41.86637" lon="0.89457995">
        <time>2022-07-08T07:58:15Z</time>
      </trkpt>
      <trkpt lat="41.866337" lon="0.8946496">
        <time>2022-07-08T07:58:16Z</time>
      </trkpt>
      <trkpt lat="41.866302" lon="0.89471895">
        <time>2022-07-08T07:58:17Z</time>
      </trkpt>
      <trkpt lat="41.86627" lon="0.8947823">
        <time>2022-07-08T07:58:18Z</time>
      </trkpt>
      <trkpt lat="41.866238" lon="0.8948453">
        <time>2022-07-08T07:58:19Z</time>
      </trkpt>
      <trkpt lat="41.86617" lon="0.8949779">
        <time>2022-07-08T07:58:21Z</time>
      </trkpt>
      <trkpt lat="41.86614" lon="0.89503825">
        <time>2022-07-08T07:58:22Z</time>
      </trkpt>
      <trkpt lat="41.866104" lon="0.8950993">
        <time>2022-07-08T07:58:23Z</time>
      </trkpt>
      <trkpt lat="41.866074" lon="0.89515996">
        <time>2022-07-08T07:58:24Z</time>
      </trkpt>
      <trkpt lat="41.866043" lon="0.8952203">
        <time>2022-07-08T07:58:25Z</time>
      </trkpt>
      <trkpt lat="41.86601" lon="0.89528394">
        <time>2022-07-08T07:58:26Z</time>
      </trkpt>
      <trkpt lat="41.865974" lon="0.8953453">
        <time>2022-07-08T07:58:27Z</time>
      </trkpt>
      <trkpt lat="41.86594" lon="0.8954043">
        <time>2022-07-08T07:58:28Z</time>
      </trkpt>
      <trkpt lat="41.86591" lon="0.89546156">
        <time>2022-07-08T07:58:29Z</time>
      </trkpt>
      <trkpt lat="41.86588" lon="0.8955176">
        <time>2022-07-08T07:58:30Z</time>
      </trkpt>
      <trkpt lat="41.86585" lon="0.89557225">
        <time>2022-07-08T07:58:31Z</time>
      </trkpt>
      <trkpt lat="41.865818" lon="0.89562523">
        <time>2022-07-08T07:58:32Z</time>
      </trkpt>
      <trkpt lat="41.86576" lon="0.8957279">
        <time>2022-07-08T07:58:34Z</time>
      </trkpt>
      <trkpt lat="41.865734" lon="0.89577955">
        <time>2022-07-08T07:58:35Z</time>
      </trkpt>
      <trkpt lat="41.865685" lon="0.89587355">
        <time>2022-07-08T07:58:37Z</time>
      </trkpt>
      <trkpt lat="41.86564" lon="0.8959629">
        <time>2022-07-08T07:58:39Z</time>
      </trkpt>
      <trkpt lat="41.865597" lon="0.8960499">
        <time>2022-07-08T07:58:41Z</time>
      </trkpt>
      <trkpt lat="41.86555" lon="0.8961325">
        <time>2022-07-08T07:58:43Z</time>
      </trkpt>
      <trkpt lat="41.865513" lon="0.8962092">
        <time>2022-07-08T07:58:45Z</time>
      </trkpt>
      <trkpt lat="41.86547" lon="0.89628786">
        <time>2022-07-08T07:58:47Z</time>
      </trkpt>
      <trkpt lat="41.865433" lon="0.89636356">
        <time>2022-07-08T07:58:49Z</time>
      </trkpt>
      <trkpt lat="41.86539" lon="0.8964365">
        <time>2022-07-08T07:58:51Z</time>
      </trkpt>
      <trkpt lat="41.865353" lon="0.8965072">
        <time>2022-07-08T07:58:53Z</time>
      </trkpt>
      <trkpt lat="41.865314" lon="0.8965785">
        <time>2022-07-08T07:58:55Z</time>
      </trkpt>
      <trkpt lat="41.865276" lon="0.89664984">
        <time>2022-07-08T07:58:57Z</time>
      </trkpt>
      <trkpt lat="41.865234" lon="0.89672285">
        <time>2022-07-08T07:58:59Z</time>
      </trkpt>
      <trkpt lat="41.8652" lon="0.8967922">
        <time>2022-07-08T07:59:01Z</time>
      </trkpt>
      <trkpt lat="41.865166" lon="0.89685553">
        <time>2022-07-08T07:59:03Z</time>
      </trkpt>
      <trkpt lat="41.865128" lon="0.8969165">
        <time>2022-07-08T07:59:05Z</time>
      </trkpt>
      <trkpt lat="41.865093" lon="0.8969775">
        <time>2022-07-08T07:59:07Z</time>
      </trkpt>
      <trkpt lat="41.86506" lon="0.89703715">
        <time>2022-07-08T07:59:09Z</time>
      </trkpt>
      <trkpt lat="41.865025" lon="0.8970915">
        <time>2022-07-08T07:59:11Z</time>
      </trkpt>
      <trkpt lat="41.864975" lon="0.89716816">
        <time>2022-07-08T07:59:14Z</time>
      </trkpt>
      <trkpt lat="41.86493" lon="0.8972408">
        <time>2022-07-08T07:59:17Z</time>
      </trkpt>
      <trkpt lat="41.86487" lon="0.8973402">
        <time>2022-07-08T07:59:21Z</time>
      </trkpt>
      <trkpt lat="41.864822" lon="0.89741147">
        <time>2022-07-08T07:59:24Z</time>
      </trkpt>
      <trkpt lat="41.86478" lon="0.89747584">
        <time>2022-07-08T07:59:27Z</time>
      </trkpt>
      <trkpt lat="41.864742" lon="0.8975388">
        <time>2022-07-08T07:59:30Z</time>
      </trkpt>
      <trkpt lat="41.864704" lon="0.8976005">
        <time>2022-07-08T07:59:33Z</time>
      </trkpt>
      <trkpt lat="41.864662" lon="0.8976598">
        <time>2022-07-08T07:59:36Z</time>
      </trkpt>
      <trkpt lat="41.864624" lon="0.8977188">
        <time>2022-07-08T07:59:39Z</time>
      </trkpt>
      <trkpt lat="41.864582" lon="0.89777446">
        <time>2022-07-08T07:59:42Z</time>
      </trkpt>
      <trkpt lat="41.86454" lon="0.89783144">
        <time>2022-07-08T07:59:45Z</time>
      </trkpt>
      <trkpt lat="41.8645" lon="0.89789414">
        <time>2022-07-08T07:59:48Z</time>
      </trkpt>
      <trkpt lat="41.864452" lon="0.8979578">
        <time>2022-07-08T07:59:51Z</time>
      </trkpt>
      <trkpt lat="41.864407" lon="0.89801776">
        <time>2022-07-08T07:59:54Z</time>
      </trkpt>
      <trkpt lat="41.864365" lon="0.8980801">
        <time>2022-07-08T07:59:57Z</time>
      </trkpt>
      <trkpt lat="41.864323" lon="0.89813745">
        <time>2022-07-08T08:00:00Z</time>
      </trkpt>
      <trkpt lat="41.86428" lon="0.89819676">
        <time>2022-07-08T08:00:03Z</time>
      </trkpt>
      <trkpt lat="41.864235" lon="0.89825475">
        <time>2022-07-08T08:00:06Z</time>
      </trkpt>
      <trkpt lat="41.86419" lon="0.89830977">
        <time>2022-07-08T08:00:09Z</time>
      </trkpt>
      <trkpt lat="41.864143" lon="0.8983651">
        <time>2022-07-08T08:00:12Z</time>
      </trkpt>
      <trkpt lat="41.864094" lon="0.8984188">
        <time>2022-07-08T08:00:15Z</time>
      </trkpt>
      <trkpt lat="41.864048" lon="0.89847344">
        <time>2022-07-08T08:00:18Z</time>
      </trkpt>
      <trkpt lat="41.863987" lon="0.8985438">
        <time>2022-07-08T08:00:22Z</time>
      </trkpt>
      <trkpt lat="41.86394" lon="0.8985961">
        <time>2022-07-08T08:00:25Z</time>
      </trkpt>
      <trkpt lat="41.863895" lon="0.8986474">
        <time>2022-07-08T08:00:28Z</time>
      </trkpt>
      <trkpt lat="41.863853" lon="0.8987031">
        <time>2022-07-08T08:00:31Z</time>
      </trkpt>
      <trkpt lat="41.86381" lon="0.8987597">
        <time>2022-07-08T08:00:34Z</time>
      </trkpt>
      <trkpt lat="41.86375" lon="0.8988304">
        <time>2022-07-08T08:00:38Z</time>
      </trkpt>
      <trkpt lat="41.863697" lon="0.8988901">
        <time>2022-07-08T08:00:41Z</time>
      </trkpt>
      <trkpt lat="41.86365" lon="0.898949">
        <time>2022-07-08T08:00:44Z</time>
      </trkpt>
      <trkpt lat="41.863598" lon="0.8990017">
        <time>2022-07-08T08:00:47Z</time>
      </trkpt>
      <trkpt lat="41.86355" lon="0.8990547">
        <time>2022-07-08T08:00:50Z</time>
      </trkpt>
      <trkpt lat="41.8635" lon="0.899115">
        <time>2022-07-08T08:00:53Z</time>
      </trkpt>
      <trkpt lat="41.863445" lon="0.89918137">
        <time>2022-07-08T08:00:56Z</time>
      </trkpt>
      <trkpt lat="41.86341" lon="0.8992274">
        <time>2022-07-08T08:00:58Z</time>
      </trkpt>
      <trkpt lat="41.863354" lon="0.89930403">
        <time>2022-07-08T08:01:01Z</time>
      </trkpt>
      <trkpt lat="41.863316" lon="0.89936733">
        <time>2022-07-08T08:01:03Z</time>
      </trkpt>
      <trkpt lat="41.863285" lon="0.8994434">
        <time>2022-07-08T08:01:05Z</time>
      </trkpt>
      <trkpt lat="41.86326" lon="0.8995364">
        <time>2022-07-08T08:01:07Z</time>
      </trkpt>
      <trkpt lat="41.863235" lon="0.899644">
        <time>2022-07-08T08:01:09Z</time>
      </trkpt>
      <trkpt lat="41.863228" lon="0.8997663">
        <time>2022-07-08T08:01:11Z</time>
      </trkpt>
      <trkpt lat="41.86323" lon="0.89991367">
        <time>2022-07-08T08:01:13Z</time>
      </trkpt>
      <trkpt lat="41.863235" lon="0.899996">
        <time>2022-07-08T08:01:14Z</time>
      </trkpt>
      <trkpt lat="41.863247" lon="0.90008265">
        <time>2022-07-08T08:01:15Z</time>
      </trkpt>
      <trkpt lat="41.863262" lon="0.9001733">
        <time>2022-07-08T08:01:16Z</time>
      </trkpt>
      <trkpt lat="41.863277" lon="0.900267">
        <time>2022-07-08T08:01:17Z</time>
      </trkpt>
      <trkpt lat="41.863297" lon="0.900365">
        <time>2022-07-08T08:01:18Z</time>
      </trkpt>
      <trkpt lat="41.863316" lon="0.9004666">
        <time>2022-07-08T08:01:19Z</time>
      </trkpt>
      <trkpt lat="41.86334" lon="0.9005733">
        <time>2022-07-08T08:01:20Z</time>
      </trkpt>
      <trkpt lat="41.86336" lon="0.90068495">
        <time>2022-07-08T08:01:21Z</time>
      </trkpt>
      <trkpt lat="41.863384" lon="0.90080094">
        <time>2022-07-08T08:01:22Z</time>
      </trkpt>
      <trkpt lat="41.86341" lon="0.90092">
        <time>2022-07-08T08:01:23Z</time>
      </trkpt>
      <trkpt lat="41.863457" lon="0.9011673">
        <time>2022-07-08T08:01:25Z</time>
      </trkpt>
      <trkpt lat="41.86348" lon="0.90129495">
        <time>2022-07-08T08:01:26Z</time>
      </trkpt>
      <trkpt lat="41.8635" lon="0.90142465">
        <time>2022-07-08T08:01:27Z</time>
      </trkpt>
      <trkpt lat="41.863514" lon="0.9015539">
        <time>2022-07-08T08:01:28Z</time>
      </trkpt>
      <trkpt lat="41.86353" lon="0.90168226">
        <time>2022-07-08T08:01:29Z</time>
      </trkpt>
      <trkpt lat="41.86354" lon="0.9018106">
        <time>2022-07-08T08:01:30Z</time>
      </trkpt>
      <trkpt lat="41.86355" lon="0.9019386">
        <time>2022-07-08T08:01:31Z</time>
      </trkpt>
      <trkpt lat="41.86355" lon="0.9020636">
        <time>2022-07-08T08:01:32Z</time>
      </trkpt>
      <trkpt lat="41.863544" lon="0.9021846">
        <time>2022-07-08T08:01:33Z</time>
      </trkpt>
      <trkpt lat="41.863533" lon="0.90230125">
        <time>2022-07-08T08:01:34Z</time>
      </trkpt>
      <trkpt lat="41.863518" lon="0.9024136">
        <time>2022-07-08T08:01:35Z</time>
      </trkpt>
      <trkpt lat="41.863495" lon="0.90252024">
        <time>2022-07-08T08:01:36Z</time>
      </trkpt>
      <trkpt lat="41.863472" lon="0.90262127">
        <time>2022-07-08T08:01:37Z</time>
      </trkpt>
      <trkpt lat="41.86345" lon="0.9027163">
        <time>2022-07-08T08:01:38Z</time>
      </trkpt>
      <trkpt lat="41.863422" lon="0.90280557">
        <time>2022-07-08T08:01:39Z</time>
      </trkpt>
      <trkpt lat="41.863396" lon="0.90289026">
        <time>2022-07-08T08:01:40Z</time>
      </trkpt>
      <trkpt lat="41.863373" lon="0.9029669">
        <time>2022-07-08T08:01:41Z</time>
      </trkpt>
      <trkpt lat="41.86335" lon="0.9030479">
        <time>2022-07-08T08:01:42Z</time>
      </trkpt>
      <trkpt lat="41.863323" lon="0.9031252">
        <time>2022-07-08T08:01:43Z</time>
      </trkpt>
      <trkpt lat="41.8633" lon="0.90320027">
        <time>2022-07-08T08:01:44Z</time>
      </trkpt>
      <trkpt lat="41.863277" lon="0.9032729">
        <time>2022-07-08T08:01:45Z</time>
      </trkpt>
      <trkpt lat="41.86326" lon="0.9033442">
        <time>2022-07-08T08:01:46Z</time>
      </trkpt>
      <trkpt lat="41.863235" lon="0.9034112">
        <time>2022-07-08T08:01:47Z</time>
      </trkpt>
      <trkpt lat="41.863213" lon="0.9034809">
        <time>2022-07-08T08:01:48Z</time>
      </trkpt>
      <trkpt lat="41.86319" lon="0.90354854">
        <time>2022-07-08T08:01:49Z</time>
      </trkpt>
      <trkpt lat="41.863167" lon="0.9036142">
        <time>2022-07-08T08:01:50Z</time>
      </trkpt>
      <trkpt lat="41.863148" lon="0.9036775">
        <time>2022-07-08T08:01:51Z</time>
      </trkpt>
      <trkpt lat="41.86313" lon="0.9037362">
        <time>2022-07-08T08:01:52Z</time>
      </trkpt>
      <trkpt lat="41.86309" lon="0.9038502">
        <time>2022-07-08T08:01:54Z</time>
      </trkpt>
      <trkpt lat="41.863068" lon="0.9039065">
        <time>2022-07-08T08:01:55Z</time>
      </trkpt>
      <trkpt lat="41.863033" lon="0.9040192">
        <time>2022-07-08T08:01:57Z</time>
      </trkpt>
      <trkpt lat="41.863" lon="0.9041282">
        <time>2022-07-08T08:01:59Z</time>
      </trkpt>
      <trkpt lat="41.86296" lon="0.90423584">
        <time>2022-07-08T08:02:01Z</time>
      </trkpt>
      <trkpt lat="41.862926" lon="0.9043365">
        <time>2022-07-08T08:02:03Z</time>
      </trkpt>
      <trkpt lat="41.862892" lon="0.9044412">
        <time>2022-07-08T08:02:05Z</time>
      </trkpt>
      <trkpt lat="41.862858" lon="0.9045435">
        <time>2022-07-08T08:02:07Z</time>
      </trkpt>
      <trkpt lat="41.862827" lon="0.90464514">
        <time>2022-07-08T08:02:09Z</time>
      </trkpt>
      <trkpt lat="41.8628" lon="0.90474784">
        <time>2022-07-08T08:02:11Z</time>
      </trkpt>
      <trkpt lat="41.862774" lon="0.9048492">
        <time>2022-07-08T08:02:13Z</time>
      </trkpt>
      <trkpt lat="41.86275" lon="0.90495914">
        <time>2022-07-08T08:02:15Z</time>
      </trkpt>
      <trkpt lat="41.86273" lon="0.90506446">
        <time>2022-07-08T08:02:17Z</time>
      </trkpt>
      <trkpt lat="41.8627" lon="0.9051685">
        <time>2022-07-08T08:02:19Z</time>
      </trkpt>
      <trkpt lat="41.86268" lon="0.9052775">
        <time>2022-07-08T08:02:21Z</time>
      </trkpt>
      <trkpt lat="41.862656" lon="0.9053881">
        <time>2022-07-08T08:02:23Z</time>
      </trkpt>
      <trkpt lat="41.86263" lon="0.90549415">
        <time>2022-07-08T08:02:25Z</time>
      </trkpt>
      <trkpt lat="41.862606" lon="0.9055941">
        <time>2022-07-08T08:02:27Z</time>
      </trkpt>
      <trkpt lat="41.86258" lon="0.9056895">
        <time>2022-07-08T08:02:29Z</time>
      </trkpt>
      <trkpt lat="41.862553" lon="0.9057845">
        <time>2022-07-08T08:02:31Z</time>
      </trkpt>
      <trkpt lat="41.862526" lon="0.9058788">
        <time>2022-07-08T08:02:33Z</time>
      </trkpt>
      <trkpt lat="41.8625" lon="0.9059681">
        <time>2022-07-08T08:02:35Z</time>
      </trkpt>
      <trkpt lat="41.862473" lon="0.90606046">
        <time>2022-07-08T08:02:37Z</time>
      </trkpt>
      <trkpt lat="41.86245" lon="0.90615046">
        <time>2022-07-08T08:02:39Z</time>
      </trkpt>
      <trkpt lat="41.862423" lon="0.9062428">
        <time>2022-07-08T08:02:41Z</time>
      </trkpt>
      <trkpt lat="41.862404" lon="0.9063431">
        <time>2022-07-08T08:02:43Z</time>
      </trkpt>
      <trkpt lat="41.862385" lon="0.9064341">
        <time>2022-07-08T08:02:45Z</time>
      </trkpt>
      <trkpt lat="41.86237" lon="0.90653414">
        <time>2022-07-08T08:02:47Z</time>
      </trkpt>
      <trkpt lat="41.86236" lon="0.9066365">
        <time>2022-07-08T08:02:49Z</time>
      </trkpt>
      <trkpt lat="41.862347" lon="0.9067321">
        <time>2022-07-08T08:02:51Z</time>
      </trkpt>
      <trkpt lat="41.862335" lon="0.90682775">
        <time>2022-07-08T08:02:53Z</time>
      </trkpt>
      <trkpt lat="41.862328" lon="0.9069238">
        <time>2022-07-08T08:02:55Z</time>
      </trkpt>
      <trkpt lat="41.862316" lon="0.9070228">
        <time>2022-07-08T08:02:57Z</time>
      </trkpt>
      <trkpt lat="41.86231" lon="0.90711945">
        <time>2022-07-08T08:02:59Z</time>
      </trkpt>
      <trkpt lat="41.8623" lon="0.90721977">
        <time>2022-07-08T08:03:01Z</time>
      </trkpt>
      <trkpt lat="41.862293" lon="0.9073148">
        <time>2022-07-08T08:03:03Z</time>
      </trkpt>
      <trkpt lat="41.86229" lon="0.9074051">
        <time>2022-07-08T08:03:05Z</time>
      </trkpt>
      <trkpt lat="41.862286" lon="0.90749776">
        <time>2022-07-08T08:03:07Z</time>
      </trkpt>
      <trkpt lat="41.862278" lon="0.9075847">
        <time>2022-07-08T08:03:09Z</time>
      </trkpt>
      <trkpt lat="41.86227" lon="0.9076774">
        <time>2022-07-08T08:03:11Z</time>
      </trkpt>
      <trkpt lat="41.862263" lon="0.9077681">
        <time>2022-07-08T08:03:13Z</time>
      </trkpt>
      <trkpt lat="41.862255" lon="0.9078514">
        <time>2022-07-08T08:03:15Z</time>
      </trkpt>
      <trkpt lat="41.86225" lon="0.9079344">
        <time>2022-07-08T08:03:17Z</time>
      </trkpt>
      <trkpt lat="41.862247" lon="0.9080201">
        <time>2022-07-08T08:03:19Z</time>
      </trkpt>
      <trkpt lat="41.86225" lon="0.9081027">
        <time>2022-07-08T08:03:21Z</time>
      </trkpt>
      <trkpt lat="41.86225" lon="0.9081897">
        <time>2022-07-08T08:03:23Z</time>
      </trkpt>
      <trkpt lat="41.86225" lon="0.90827274">
        <time>2022-07-08T08:03:25Z</time>
      </trkpt>
      <trkpt lat="41.86225" lon="0.9083557">
        <time>2022-07-08T08:03:27Z</time>
      </trkpt>
      <trkpt lat="41.86225" lon="0.90844107">
        <time>2022-07-08T08:03:29Z</time>
      </trkpt>
      <trkpt lat="41.86225" lon="0.908523">
        <time>2022-07-08T08:03:31Z</time>
      </trkpt>
      <trkpt lat="41.86225" lon="0.9086084">
        <time>2022-07-08T08:03:33Z</time>
      </trkpt>
      <trkpt lat="41.86225" lon="0.90869206">
        <time>2022-07-08T08:03:35Z</time>
      </trkpt>
      <trkpt lat="41.862255" lon="0.90877235">
        <time>2022-07-08T08:03:37Z</time>
      </trkpt>
      <trkpt lat="41.862263" lon="0.9088547">
        <time>2022-07-08T08:03:39Z</time>
      </trkpt>
      <trkpt lat="41.86227" lon="0.90893734">
        <time>2022-07-08T08:03:41Z</time>
      </trkpt>
      <trkpt lat="41.86228" lon="0.90901434">
        <time>2022-07-08T08:03:43Z</time>
      </trkpt>
      <trkpt lat="41.86229" lon="0.9090977">
        <time>2022-07-08T08:03:45Z</time>
      </trkpt>
      <trkpt lat="41.862297" lon="0.90917337">
        <time>2022-07-08T08:03:47Z</time>
      </trkpt>
      <trkpt lat="41.86231" lon="0.909244">
        <time>2022-07-08T08:03:49Z</time>
      </trkpt>
      <trkpt lat="41.862324" lon="0.909312">
        <time>2022-07-08T08:03:51Z</time>
      </trkpt>
      <trkpt lat="41.862335" lon="0.9093817">
        <time>2022-07-08T08:03:53Z</time>
      </trkpt>
      <trkpt lat="41.862347" lon="0.909454">
        <time>2022-07-08T08:03:55Z</time>
      </trkpt>
      <trkpt lat="41.86236" lon="0.909524">
        <time>2022-07-08T08:03:57Z</time>
      </trkpt>
      <trkpt lat="41.862373" lon="0.90962064">
        <time>2022-07-08T08:04:00Z</time>
      </trkpt>
      <trkpt lat="41.86239" lon="0.909687">
        <time>2022-07-08T08:04:02Z</time>
      </trkpt>
      <trkpt lat="41.86241" lon="0.909781">
        <time>2022-07-08T08:04:05Z</time>
      </trkpt>
      <trkpt lat="41.862434" lon="0.90987396">
        <time>2022-07-08T08:04:08Z</time>
      </trkpt>
      <trkpt lat="41.862446" lon="0.9099363">
        <time>2022-07-08T08:04:10Z</time>
      </trkpt>
      <trkpt lat="41.862465" lon="0.9100213">
        <time>2022-07-08T08:04:13Z</time>
      </trkpt>
      <trkpt lat="41.862484" lon="0.9101013">
        <time>2022-07-08T08:04:16Z</time>
      </trkpt>
      <trkpt lat="41.862503" lon="0.9101793">
        <time>2022-07-08T08:04:19Z</time>
      </trkpt>
      <trkpt lat="41.862522" lon="0.910258">
        <time>2022-07-08T08:04:22Z</time>
      </trkpt>
      <trkpt lat="41.862545" lon="0.9103303">
        <time>2022-07-08T08:04:25Z</time>
      </trkpt>
      <trkpt lat="41.862568" lon="0.91040164">
        <time>2022-07-08T08:04:28Z</time>
      </trkpt>
      <trkpt lat="41.862587" lon="0.91048294">
        <time>2022-07-08T08:04:31Z</time>
      </trkpt>
      <trkpt lat="41.862602" lon="0.9105613">
        <time>2022-07-08T08:04:34Z</time>
      </trkpt>
      <trkpt lat="41.862614" lon="0.91063565">
        <time>2022-07-08T08:04:37Z</time>
      </trkpt>
      <trkpt lat="41.86263" lon="0.91070765">
        <time>2022-07-08T08:04:40Z</time>
      </trkpt>
      <trkpt lat="41.862648" lon="0.9107846">
        <time>2022-07-08T08:04:43Z</time>
      </trkpt>
      <trkpt lat="41.86267" lon="0.91086364">
        <time>2022-07-08T08:04:46Z</time>
      </trkpt>
      <trkpt lat="41.862694" lon="0.910943">
        <time>2022-07-08T08:04:49Z</time>
      </trkpt>
      <trkpt lat="41.86272" lon="0.91101795">
        <time>2022-07-08T08:04:52Z</time>
      </trkpt>
      <trkpt lat="41.86274" lon="0.91109765">
        <time>2022-07-08T08:04:55Z</time>
      </trkpt>
      <trkpt lat="41.86275" lon="0.91118026">
        <time>2022-07-08T08:04:58Z</time>
      </trkpt>
      <trkpt lat="41.862755" lon="0.9112619">
        <time>2022-07-08T08:05:01Z</time>
      </trkpt>
      <trkpt lat="41.862766" lon="0.9113436">
        <time>2022-07-08T08:05:04Z</time>
      </trkpt>
      <trkpt lat="41.86278" lon="0.91142595">
        <time>2022-07-08T08:05:07Z</time>
      </trkpt>
      <trkpt lat="41.862793" lon="0.91151196">
        <time>2022-07-08T08:05:10Z</time>
      </trkpt>
      <trkpt lat="41.8628" lon="0.9115996">
        <time>2022-07-08T08:05:13Z</time>
      </trkpt>
      <trkpt lat="41.86281" lon="0.91168624">
        <time>2022-07-08T08:05:16Z</time>
      </trkpt>
      <trkpt lat="41.862812" lon="0.91176957">
        <time>2022-07-08T08:05:19Z</time>
      </trkpt>
      <trkpt lat="41.862816" lon="0.91185623">
        <time>2022-07-08T08:05:22Z</time>
      </trkpt>
      <trkpt lat="41.86282" lon="0.9119449">
        <time>2022-07-08T08:05:25Z</time>
      </trkpt>
      <trkpt lat="41.86282" lon="0.91203225">
        <time>2022-07-08T08:05:28Z</time>
      </trkpt>
      <trkpt lat="41.862823" lon="0.91212153">
        <time>2022-07-08T08:05:31Z</time>
      </trkpt>
      <trkpt lat="41.862827" lon="0.9122082">
        <time>2022-07-08T08:05:34Z</time>
      </trkpt>
      <trkpt lat="41.862827" lon="0.9122942">
        <time>2022-07-08T08:05:37Z</time>
      </trkpt>
      <trkpt lat="41.862827" lon="0.91237557">
        <time>2022-07-08T08:05:40Z</time>
      </trkpt>
      <trkpt lat="41.86283" lon="0.91246486">
        <time>2022-07-08T08:05:43Z</time>
      </trkpt>
      <trkpt lat="41.862835" lon="0.9125515">
        <time>2022-07-08T08:05:46Z</time>
      </trkpt>
      <trkpt lat="41.86284" lon="0.9126362">
        <time>2022-07-08T08:05:49Z</time>
      </trkpt>
      <trkpt lat="41.862846" lon="0.9127205">
        <time>2022-07-08T08:05:52Z</time>
      </trkpt>
      <trkpt lat="41.862843" lon="0.91280556">
        <time>2022-07-08T08:05:55Z</time>
      </trkpt>
      <trkpt lat="41.862843" lon="0.9128885">
        <time>2022-07-08T08:05:58Z</time>
      </trkpt>
      <trkpt lat="41.862843" lon="0.9129735">
        <time>2022-07-08T08:06:01Z</time>
      </trkpt>
      <trkpt lat="41.86284" lon="0.9130585">
        <time>2022-07-08T08:06:04Z</time>
      </trkpt>
      <trkpt lat="41.86283" lon="0.91314155">
        <time>2022-07-08T08:06:07Z</time>
      </trkpt>
      <trkpt lat="41.86282" lon="0.91322553">
        <time>2022-07-08T08:06:10Z</time>
      </trkpt>
      <trkpt lat="41.86281" lon="0.9133099">
        <time>2022-07-08T08:06:13Z</time>
      </trkpt>
      <trkpt lat="41.8628" lon="0.91339886">
        <time>2022-07-08T08:06:16Z</time>
      </trkpt>
      <trkpt lat="41.86279" lon="0.9134855">
        <time>2022-07-08T08:06:19Z</time>
      </trkpt>
      <trkpt lat="41.862778" lon="0.9135825">
        <time>2022-07-08T08:06:22Z</time>
      </trkpt>
      <trkpt lat="41.86277" lon="0.9136829">
        <time>2022-07-08T08:06:25Z</time>
      </trkpt>
      <trkpt lat="41.862762" lon="0.9137482">
        <time>2022-07-08T08:06:27Z</time>
      </trkpt>
      <trkpt lat="41.86276" lon="0.91385585">
        <time>2022-07-08T08:06:30Z</time>
      </trkpt>
      <trkpt lat="41.86276" lon="0.9139302">
        <time>2022-07-08T08:06:32Z</time>
      </trkpt>
      <trkpt lat="41.862755" lon="0.91400915">
        <time>2022-07-08T08:06:34Z</time>
      </trkpt>
      <trkpt lat="41.86275" lon="0.9140865">
        <time>2022-07-08T08:06:36Z</time>
      </trkpt>
      <trkpt lat="41.86275" lon="0.9141635">
        <time>2022-07-08T08:06:38Z</time>
      </trkpt>
      <trkpt lat="41.862755" lon="0.91424614">
        <time>2022-07-08T08:06:40Z</time>
      </trkpt>
      <trkpt lat="41.862762" lon="0.9143745">
        <time>2022-07-08T08:06:43Z</time>
      </trkpt>
      <trkpt lat="41.862766" lon="0.9145015">
        <time>2022-07-08T08:06:46Z</time>
      </trkpt>
      <trkpt lat="41.86277" lon="0.9145888">
        <time>2022-07-08T08:06:48Z</time>
      </trkpt>
      <trkpt lat="41.862778" lon="0.91467583">
        <time>2022-07-08T08:06:50Z</time>
      </trkpt>
      <trkpt lat="41.862785" lon="0.91475815">
        <time>2022-07-08T08:06:52Z</time>
      </trkpt>
      <trkpt lat="41.862797" lon="0.91484684">
        <time>2022-07-08T08:06:54Z</time>
      </trkpt>
      <trkpt lat="41.86281" lon="0.91492915">
        <time>2022-07-08T08:06:56Z</time>
      </trkpt>
      <trkpt lat="41.862823" lon="0.9150128">
        <time>2022-07-08T08:06:58Z</time>
      </trkpt>
      <trkpt lat="41.86284" lon="0.91509914">
        <time>2022-07-08T08:07:00Z</time>
      </trkpt>
      <trkpt lat="41.862846" lon="0.9151808">
        <time>2022-07-08T08:07:02Z</time>
      </trkpt>
      <trkpt lat="41.862854" lon="0.9152681">
        <time>2022-07-08T08:07:04Z</time>
      </trkpt>
      <trkpt lat="41.86286" lon="0.91535145">
        <time>2022-07-08T08:07:06Z</time>
      </trkpt>
      <trkpt lat="41.862865" lon="0.91543144">
        <time>2022-07-08T08:07:08Z</time>
      </trkpt>
      <trkpt lat="41.86287" lon="0.9155168">
        <time>2022-07-08T08:07:10Z</time>
      </trkpt>
      <trkpt lat="41.862865" lon="0.9155954">
        <time>2022-07-08T08:07:12Z</time>
      </trkpt>
      <trkpt lat="41.862858" lon="0.9156761">
        <time>2022-07-08T08:07:14Z</time>
      </trkpt>
      <trkpt lat="41.86285" lon="0.9157601">
        <time>2022-07-08T08:07:16Z</time>
      </trkpt>
      <trkpt lat="41.862843" lon="0.9158411">
        <time>2022-07-08T08:07:18Z</time>
      </trkpt>
      <trkpt lat="41.862835" lon="0.91592544">
        <time>2022-07-08T08:07:20Z</time>
      </trkpt>
      <trkpt lat="41.862827" lon="0.91600406">
        <time>2022-07-08T08:07:22Z</time>
      </trkpt>
      <trkpt lat="41.86282" lon="0.91608506">
        <time>2022-07-08T08:07:24Z</time>
      </trkpt>
      <trkpt lat="41.862812" lon="0.91616774">
        <time>2022-07-08T08:07:26Z</time>
      </trkpt>
      <trkpt lat="41.86281" lon="0.9162464">
        <time>2022-07-08T08:07:28Z</time>
      </trkpt>
      <trkpt lat="41.8628" lon="0.91632575">
        <time>2022-07-08T08:07:30Z</time>
      </trkpt>
      <trkpt lat="41.862797" lon="0.91640204">
        <time>2022-07-08T08:07:32Z</time>
      </trkpt>
      <trkpt lat="41.862793" lon="0.9164731">
        <time>2022-07-08T08:07:34Z</time>
      </trkpt>
      <trkpt lat="41.862785" lon="0.9165454">
        <time>2022-07-08T08:07:36Z</time>
      </trkpt>
      <trkpt lat="41.862778" lon="0.91661376">
        <time>2022-07-08T08:07:38Z</time>
      </trkpt>
      <trkpt lat="41.86277" lon="0.9167141">
        <time>2022-07-08T08:07:41Z</time>
      </trkpt>
      <trkpt lat="41.862766" lon="0.91678005">
        <time>2022-07-08T08:07:43Z</time>
      </trkpt>
      <trkpt lat="41.862762" lon="0.91687304">
        <time>2022-07-08T08:07:46Z</time>
      </trkpt>
      <trkpt lat="41.86276" lon="0.9169684">
        <time>2022-07-08T08:07:49Z</time>
      </trkpt>
      <trkpt lat="41.86275" lon="0.9170317">
        <time>2022-07-08T08:07:51Z</time>
      </trkpt>
      <trkpt lat="41.862743" lon="0.91712606">
        <time>2022-07-08T08:07:54Z</time>
      </trkpt>
      <trkpt lat="41.86274" lon="0.91722006">
        <time>2022-07-08T08:07:57Z</time>
      </trkpt>
      <trkpt lat="41.86274" lon="0.91731536">
        <time>2022-07-08T08:08:00Z</time>
      </trkpt>
      <trkpt lat="41.86274" lon="0.91738003">
        <time>2022-07-08T08:08:02Z</time>
      </trkpt>
      <trkpt lat="41.86274" lon="0.917478">
        <time>2022-07-08T08:08:05Z</time>
      </trkpt>
      <trkpt lat="41.862736" lon="0.9175737">
        <time>2022-07-08T08:08:08Z</time>
      </trkpt>
      <trkpt lat="41.862736" lon="0.91767234">
        <time>2022-07-08T08:08:11Z</time>
      </trkpt>
      <trkpt lat="41.86274" lon="0.917773">
        <time>2022-07-08T08:08:14Z</time>
      </trkpt>
      <trkpt lat="41.86274" lon="0.91784">
        <time>2022-07-08T08:08:16Z</time>
      </trkpt>
      <trkpt lat="41.86273" lon="0.9179404">
        <time>2022-07-08T08:08:19Z</time>
      </trkpt>
      <trkpt lat="41.86272" lon="0.91800636">
        <time>2022-07-08T08:08:21Z</time>
      </trkpt>
      <trkpt lat="41.862705" lon="0.91810036">
        <time>2022-07-08T08:08:24Z</time>
      </trkpt>
      <trkpt lat="41.862686" lon="0.91819334">
        <time>2022-07-08T08:08:27Z</time>
      </trkpt>
      <trkpt lat="41.862667" lon="0.9182867">
        <time>2022-07-08T08:08:30Z</time>
      </trkpt>
      <trkpt lat="41.862648" lon="0.9183763">
        <time>2022-07-08T08:08:33Z</time>
      </trkpt>
      <trkpt lat="41.862625" lon="0.918459">
        <time>2022-07-08T08:08:36Z</time>
      </trkpt>
      <trkpt lat="41.8626" lon="0.91853964">
        <time>2022-07-08T08:08:39Z</time>
      </trkpt>
      <trkpt lat="41.86257" lon="0.91861165">
        <time>2022-07-08T08:08:42Z</time>
      </trkpt>
      <trkpt lat="41.86254" lon="0.91867864">
        <time>2022-07-08T08:08:45Z</time>
      </trkpt>
      <trkpt lat="41.86251" lon="0.91873264">
        <time>2022-07-08T08:08:48Z</time>
      </trkpt>
      <trkpt lat="41.862465" lon="0.918809">
        <time>2022-07-08T08:08:53Z</time>
      </trkpt>
      <trkpt lat="41.862423" lon="0.91887367">
        <time>2022-07-08T08:08:57Z</time>
      </trkpt>
      <trkpt lat="41.862373" lon="0.9189327">
        <time>2022-07-08T08:09:01Z</time>
      </trkpt>
      <trkpt lat="41.862328" lon="0.9189843">
        <time>2022-07-08T08:09:05Z</time>
      </trkpt>
      <trkpt lat="41.862278" lon="0.919038">
        <time>2022-07-08T08:09:09Z</time>
      </trkpt>
      <trkpt lat="41.86223" lon="0.9190963">
        <time>2022-07-08T08:09:13Z</time>
      </trkpt>
      <trkpt lat="41.862194" lon="0.91914594">
        <time>2022-07-08T08:09:16Z</time>
      </trkpt>
      <trkpt lat="41.862164" lon="0.91920495">
        <time>2022-07-08T08:09:19Z</time>
      </trkpt>
      <trkpt lat="41.862133" lon="0.91926396">
        <time>2022-07-08T08:09:22Z</time>
      </trkpt>
      <trkpt lat="41.8621" lon="0.91932464">
        <time>2022-07-08T08:09:25Z</time>
      </trkpt>
      <trkpt lat="41.86208" lon="0.91938627">
        <time>2022-07-08T08:09:28Z</time>
      </trkpt>
      <trkpt lat="41.862057" lon="0.91946095">
        <time>2022-07-08T08:09:32Z</time>
      </trkpt>
      <trkpt lat="41.86203" lon="0.91952795">
        <time>2022-07-08T08:09:36Z</time>
      </trkpt>
      <trkpt lat="41.862003" lon="0.9195933">
        <time>2022-07-08T08:09:40Z</time>
      </trkpt>
      <trkpt lat="41.861977" lon="0.9196566">
        <time>2022-07-08T08:09:44Z</time>
      </trkpt>
      <trkpt lat="41.861958" lon="0.91972125">
        <time>2022-07-08T08:09:48Z</time>
      </trkpt>
      <trkpt lat="41.861935" lon="0.91978925">
        <time>2022-07-08T08:09:52Z</time>
      </trkpt>
      <trkpt lat="41.861916" lon="0.9198529">
        <time>2022-07-08T08:09:56Z</time>
      </trkpt>
      <trkpt lat="41.861897" lon="0.91992956">
        <time>2022-07-08T08:10:00Z</time>
      </trkpt>
      <trkpt lat="41.861874" lon="0.92000526">
        <time>2022-07-08T08:10:04Z</time>
      </trkpt>
      <trkpt lat="41.86185" lon="0.9200746">
        <time>2022-07-08T08:10:08Z</time>
      </trkpt>
      <trkpt lat="41.86183" lon="0.9201479">
        <time>2022-07-08T08:10:12Z</time>
      </trkpt>
      <trkpt lat="41.861813" lon="0.9202212">
        <time>2022-07-08T08:10:16Z</time>
      </trkpt>
      <trkpt lat="41.861786" lon="0.9202919">
        <time>2022-07-08T08:10:20Z</time>
      </trkpt>
      <trkpt lat="41.861763" lon="0.92036855">
        <time>2022-07-08T08:10:24Z</time>
      </trkpt>
      <trkpt lat="41.861748" lon="0.9204272">
        <time>2022-07-08T08:10:27Z</time>
      </trkpt>
      <trkpt lat="41.861732" lon="0.92050123">
        <time>2022-07-08T08:10:31Z</time>
      </trkpt>
      <trkpt lat="41.861717" lon="0.92057556">
        <time>2022-07-08T08:10:35Z</time>
      </trkpt>
      <trkpt lat="41.861702" lon="0.9206509">
        <time>2022-07-08T08:10:39Z</time>
      </trkpt>
      <trkpt lat="41.86168" lon="0.9207245">
        <time>2022-07-08T08:10:43Z</time>
      </trkpt>
      <trkpt lat="41.861668" lon="0.9207979">
        <time>2022-07-08T08:10:47Z</time>
      </trkpt>
      <trkpt lat="41.861652" lon="0.9208752">
        <time>2022-07-08T08:10:51Z</time>
      </trkpt>
      <trkpt lat="41.861637" lon="0.92093754">
        <time>2022-07-08T08:10:54Z</time>
      </trkpt>
      <trkpt lat="41.86162" lon="0.92103654">
        <time>2022-07-08T08:10:59Z</time>
      </trkpt>
      <trkpt lat="41.86161" lon="0.9211122">
        <time>2022-07-08T08:11:03Z</time>
      </trkpt>
      <trkpt lat="41.861595" lon="0.92118984">
        <time>2022-07-08T08:11:07Z</time>
      </trkpt>
      <trkpt lat="41.861576" lon="0.9212615">
        <time>2022-07-08T08:11:11Z</time>
      </trkpt>
      <trkpt lat="41.861557" lon="0.92133516">
        <time>2022-07-08T08:11:15Z</time>
      </trkpt>
      <trkpt lat="41.86154" lon="0.9214168">
        <time>2022-07-08T08:11:19Z</time>
      </trkpt>
      <trkpt lat="41.861526" lon="0.9214968">
        <time>2022-07-08T08:11:23Z</time>
      </trkpt>
      <trkpt lat="41.8615" lon="0.9215765">
        <time>2022-07-08T08:11:27Z</time>
      </trkpt>
      <trkpt lat="41.86148" lon="0.9216645">
        <time>2022-07-08T08:11:31Z</time>
      </trkpt>
      <trkpt lat="41.861458" lon="0.92172915">
        <time>2022-07-08T08:11:34Z</time>
      </trkpt>
      <trkpt lat="41.86143" lon="0.9217948">
        <time>2022-07-08T08:11:37Z</time>
      </trkpt>
      <trkpt lat="41.86141" lon="0.9218625">
        <time>2022-07-08T08:11:40Z</time>
      </trkpt>
      <trkpt lat="41.861385" lon="0.92193377">
        <time>2022-07-08T08:11:43Z</time>
      </trkpt>
      <trkpt lat="41.861362" lon="0.92200714">
        <time>2022-07-08T08:11:46Z</time>
      </trkpt>
      <trkpt lat="41.861336" lon="0.92207915">
        <time>2022-07-08T08:11:49Z</time>
      </trkpt>
      <trkpt lat="41.861313" lon="0.9221541">
        <time>2022-07-08T08:11:52Z</time>
      </trkpt>
      <trkpt lat="41.861286" lon="0.9222291">
        <time>2022-07-08T08:11:55Z</time>
      </trkpt>
      <trkpt lat="41.86126" lon="0.9223041">
        <time>2022-07-08T08:11:58Z</time>
      </trkpt>
      <trkpt lat="41.861237" lon="0.9223825">
        <time>2022-07-08T08:12:01Z</time>
      </trkpt>
      <trkpt lat="41.86121" lon="0.9224635">
        <time>2022-07-08T08:12:04Z</time>
      </trkpt>
      <trkpt lat="41.861195" lon="0.9225201">
        <time>2022-07-08T08:12:06Z</time>
      </trkpt>
      <trkpt lat="41.861168" lon="0.92260575">
        <time>2022-07-08T08:12:09Z</time>
      </trkpt>
      <trkpt lat="41.861137" lon="0.9227011">
        <time>2022-07-08T08:12:13Z</time>
      </trkpt>
      <trkpt lat="41.861115" lon="0.9227681">
        <time>2022-07-08T08:12:15Z</time>
      </trkpt>
      <trkpt lat="41.8611" lon="0.92282945">
        <time>2022-07-08T08:12:17Z</time>
      </trkpt>
      <trkpt lat="41.86108" lon="0.92292273">
        <time>2022-07-08T08:12:20Z</time>
      </trkpt>
      <trkpt lat="41.861053" lon="0.9230161">
        <time>2022-07-08T08:12:23Z</time>
      </trkpt>
      <trkpt lat="41.86104" lon="0.9230811">
        <time>2022-07-08T08:12:25Z</time>
      </trkpt>
      <trkpt lat="41.86102" lon="0.9231471">
        <time>2022-07-08T08:12:27Z</time>
      </trkpt>
      <trkpt lat="41.860992" lon="0.92324543">
        <time>2022-07-08T08:12:30Z</time>
      </trkpt>
      <trkpt lat="41.860977" lon="0.92331207">
        <time>2022-07-08T08:12:32Z</time>
      </trkpt>
      <trkpt lat="41.860962" lon="0.9233784">
        <time>2022-07-08T08:12:34Z</time>
      </trkpt>
      <trkpt lat="41.860947" lon="0.9234467">
        <time>2022-07-08T08:12:36Z</time>
      </trkpt>
      <trkpt lat="41.860935" lon="0.9235147">
        <time>2022-07-08T08:12:38Z</time>
      </trkpt>
      <trkpt lat="41.860912" lon="0.9236164">
        <time>2022-07-08T08:12:41Z</time>
      </trkpt>
      <trkpt lat="41.860897" lon="0.9236824">
        <time>2022-07-08T08:12:43Z</time>
      </trkpt>
      <trkpt lat="41.860878" lon="0.9237484">
        <time>2022-07-08T08:12:45Z</time>
      </trkpt>
      <trkpt lat="41.86086" lon="0.9238144">
        <time>2022-07-08T08:12:47Z</time>
      </trkpt>
      <trkpt lat="41.860836" lon="0.9239034">
        <time>2022-07-08T08:12:50Z</time>
      </trkpt>
      <trkpt lat="41.86082" lon="0.9239744">
        <time>2022-07-08T08:12:53Z</time>
      </trkpt>
      <trkpt lat="41.860783" lon="0.9240284">
        <time>2022-07-08T08:15:12Z</time>
      </trkpt>
      <trkpt lat="41.86077" lon="0.92413473">
        <time>2022-07-08T08:15:15Z</time>
      </trkpt>
      <trkpt lat="41.860756" lon="0.92422473">
        <time>2022-07-08T08:15:17Z</time>
      </trkpt>
      <trkpt lat="41.86074" lon="0.92431873">
        <time>2022-07-08T08:15:19Z</time>
      </trkpt>
      <trkpt lat="41.86072" lon="0.92440474">
        <time>2022-07-08T08:15:21Z</time>
      </trkpt>
      <trkpt lat="41.860706" lon="0.9244914">
        <time>2022-07-08T08:15:23Z</time>
      </trkpt>
      <trkpt lat="41.860687" lon="0.9245787">
        <time>2022-07-08T08:15:25Z</time>
      </trkpt>
      <trkpt lat="41.86066" lon="0.92466736">
        <time>2022-07-08T08:15:27Z</time>
      </trkpt>
      <trkpt lat="41.86064" lon="0.9247667">
        <time>2022-07-08T08:15:29Z</time>
      </trkpt>
      <trkpt lat="41.860622" lon="0.92487836">
        <time>2022-07-08T08:15:31Z</time>
      </trkpt>
      <trkpt lat="41.860615" lon="0.9250077">
        <time>2022-07-08T08:15:33Z</time>
      </trkpt>
      <trkpt lat="41.86061" lon="0.92507833">
        <time>2022-07-08T08:15:34Z</time>
      </trkpt>
      <trkpt lat="41.860603" lon="0.92515236">
        <time>2022-07-08T08:15:35Z</time>
      </trkpt>
      <trkpt lat="41.8606" lon="0.9252304">
        <time>2022-07-08T08:15:36Z</time>
      </trkpt>
      <trkpt lat="41.860596" lon="0.9253114">
        <time>2022-07-08T08:15:37Z</time>
      </trkpt>
      <trkpt lat="41.860596" lon="0.92539436">
        <time>2022-07-08T08:15:38Z</time>
      </trkpt>
      <trkpt lat="41.860596" lon="0.92548037">
        <time>2022-07-08T08:15:39Z</time>
      </trkpt>
      <trkpt lat="41.86059" lon="0.9255647">
        <time>2022-07-08T08:15:40Z</time>
      </trkpt>
      <trkpt lat="41.86059" lon="0.92564833">
        <time>2022-07-08T08:15:41Z</time>
      </trkpt>
      <trkpt lat="41.86059" lon="0.92573166">
        <time>2022-07-08T08:15:42Z</time>
      </trkpt>
      <trkpt lat="41.86059" lon="0.9258157">
        <time>2022-07-08T08:15:43Z</time>
      </trkpt>
      <trkpt lat="41.86059" lon="0.925899">
        <time>2022-07-08T08:15:44Z</time>
      </trkpt>
      <trkpt lat="41.860596" lon="0.92598164">
        <time>2022-07-08T08:15:45Z</time>
      </trkpt>
      <trkpt lat="41.860596" lon="0.926064">
        <time>2022-07-08T08:15:46Z</time>
      </trkpt>
      <trkpt lat="41.86059" lon="0.926145">
        <time>2022-07-08T08:15:47Z</time>
      </trkpt>
      <trkpt lat="41.860588" lon="0.9262263">
        <time>2022-07-08T08:15:48Z</time>
      </trkpt>
      <trkpt lat="41.86058" lon="0.92630666">
        <time>2022-07-08T08:15:49Z</time>
      </trkpt>
      <trkpt lat="41.860573" lon="0.92638564">
        <time>2022-07-08T08:15:50Z</time>
      </trkpt>
      <trkpt lat="41.860565" lon="0.926465">
        <time>2022-07-08T08:15:51Z</time>
      </trkpt>
      <trkpt lat="41.860558" lon="0.92654365">
        <time>2022-07-08T08:15:52Z</time>
      </trkpt>
      <trkpt lat="41.86055" lon="0.9266217">
        <time>2022-07-08T08:15:53Z</time>
      </trkpt>
      <trkpt lat="41.860542" lon="0.92669964">
        <time>2022-07-08T08:15:54Z</time>
      </trkpt>
      <trkpt lat="41.86053" lon="0.92677563">
        <time>2022-07-08T08:15:55Z</time>
      </trkpt>
      <trkpt lat="41.860523" lon="0.92684996">
        <time>2022-07-08T08:15:56Z</time>
      </trkpt>
      <trkpt lat="41.86051" lon="0.9269253">
        <time>2022-07-08T08:15:57Z</time>
      </trkpt>
      <trkpt lat="41.860504" lon="0.9270003">
        <time>2022-07-08T08:15:58Z</time>
      </trkpt>
      <trkpt lat="41.860497" lon="0.9270756">
        <time>2022-07-08T08:15:59Z</time>
      </trkpt>
      <trkpt lat="41.860485" lon="0.92714995">
        <time>2022-07-08T08:16:00Z</time>
      </trkpt>
      <trkpt lat="41.86048" lon="0.92722464">
        <time>2022-07-08T08:16:01Z</time>
      </trkpt>
      <trkpt lat="41.860474" lon="0.9272996">
        <time>2022-07-08T08:16:02Z</time>
      </trkpt>
      <trkpt lat="41.860474" lon="0.92737395">
        <time>2022-07-08T08:16:03Z</time>
      </trkpt>
      <trkpt lat="41.86047" lon="0.9274483">
        <time>2022-07-08T08:16:04Z</time>
      </trkpt>
      <trkpt lat="41.86047" lon="0.9275236">
        <time>2022-07-08T08:16:05Z</time>
      </trkpt>
      <trkpt lat="41.86047" lon="0.92759997">
        <time>2022-07-08T08:16:06Z</time>
      </trkpt>
      <trkpt lat="41.860474" lon="0.9276773">
        <time>2022-07-08T08:16:07Z</time>
      </trkpt>
      <trkpt lat="41.860477" lon="0.92775494">
        <time>2022-07-08T08:16:08Z</time>
      </trkpt>
      <trkpt lat="41.86048" lon="0.9278343">
        <time>2022-07-08T08:16:09Z</time>
      </trkpt>
      <trkpt lat="41.860485" lon="0.9279149">
        <time>2022-07-08T08:16:10Z</time>
      </trkpt>
      <trkpt lat="41.860493" lon="0.92799693">
        <time>2022-07-08T08:16:11Z</time>
      </trkpt>
      <trkpt lat="41.860497" lon="0.9280796">
        <time>2022-07-08T08:16:12Z</time>
      </trkpt>
      <trkpt lat="41.860504" lon="0.9281623">
        <time>2022-07-08T08:16:13Z</time>
      </trkpt>
      <trkpt lat="41.86051" lon="0.92824394">
        <time>2022-07-08T08:16:14Z</time>
      </trkpt>
      <trkpt lat="41.860523" lon="0.92840755">
        <time>2022-07-08T08:16:16Z</time>
      </trkpt>
      <trkpt lat="41.860527" lon="0.92848957">
        <time>2022-07-08T08:16:17Z</time>
      </trkpt>
      <trkpt lat="41.86053" lon="0.92857057">
        <time>2022-07-08T08:16:18Z</time>
      </trkpt>
      <trkpt lat="41.860535" lon="0.9286516">
        <time>2022-07-08T08:16:19Z</time>
      </trkpt>
      <trkpt lat="41.860535" lon="0.9287322">
        <time>2022-07-08T08:16:20Z</time>
      </trkpt>
      <trkpt lat="41.860535" lon="0.92881155">
        <time>2022-07-08T08:16:21Z</time>
      </trkpt>
      <trkpt lat="41.860535" lon="0.9288902">
        <time>2022-07-08T08:16:22Z</time>
      </trkpt>
      <trkpt lat="41.86053" lon="0.9289642">
        <time>2022-07-08T08:16:23Z</time>
      </trkpt>
      <trkpt lat="41.860527" lon="0.92903924">
        <time>2022-07-08T08:16:24Z</time>
      </trkpt>
      <trkpt lat="41.86052" lon="0.9291186">
        <time>2022-07-08T08:16:25Z</time>
      </trkpt>
      <trkpt lat="41.86051" lon="0.92919487">
        <time>2022-07-08T08:16:26Z</time>
      </trkpt>
      <trkpt lat="41.860504" lon="0.9292679">
        <time>2022-07-08T08:16:27Z</time>
      </trkpt>
      <trkpt lat="41.860493" lon="0.9293372">
        <time>2022-07-08T08:16:28Z</time>
      </trkpt>
      <trkpt lat="41.86048" lon="0.9294042">
        <time>2022-07-08T08:16:29Z</time>
      </trkpt>
      <trkpt lat="41.86047" lon="0.9294632">
        <time>2022-07-08T08:16:30Z</time>
      </trkpt>
      <trkpt lat="41.860443" lon="0.92957485">
        <time>2022-07-08T08:16:32Z</time>
      </trkpt>
      <trkpt lat="41.860424" lon="0.9296759">
        <time>2022-07-08T08:16:34Z</time>
      </trkpt>
      <trkpt lat="41.860405" lon="0.92976785">
        <time>2022-07-08T08:16:36Z</time>
      </trkpt>
      <trkpt lat="41.86039" lon="0.92984855">
        <time>2022-07-08T08:16:38Z</time>
      </trkpt>
      <trkpt lat="41.860382" lon="0.9299165">
        <time>2022-07-08T08:16:40Z</time>
      </trkpt>
      <trkpt lat="41.86038" lon="0.93000954">
        <time>2022-07-08T08:16:43Z</time>
      </trkpt>
      <trkpt lat="41.86038" lon="0.93009716">
        <time>2022-07-08T08:16:46Z</time>
      </trkpt>
      <trkpt lat="41.860394" lon="0.9301748">
        <time>2022-07-08T08:16:49Z</time>
      </trkpt>
      <trkpt lat="41.8604" lon="0.9302422">
        <time>2022-07-08T08:16:52Z</time>
      </trkpt>
      <trkpt lat="41.86042" lon="0.9303222">
        <time>2022-07-08T08:16:55Z</time>
      </trkpt>
      <trkpt lat="41.86044" lon="0.93040186">
        <time>2022-07-08T08:16:58Z</time>
      </trkpt>
      <trkpt lat="41.86046" lon="0.9304755">
        <time>2022-07-08T08:17:01Z</time>
      </trkpt>
      <trkpt lat="41.86048" lon="0.9305498">
        <time>2022-07-08T08:17:04Z</time>
      </trkpt>
      <trkpt lat="41.8605" lon="0.9306265">
        <time>2022-07-08T08:17:07Z</time>
      </trkpt>
      <trkpt lat="41.860508" lon="0.9307068">
        <time>2022-07-08T08:17:10Z</time>
      </trkpt>
      <trkpt lat="41.860516" lon="0.93078613">
        <time>2022-07-08T08:17:13Z</time>
      </trkpt>
      <trkpt lat="41.860523" lon="0.93086445">
        <time>2022-07-08T08:17:16Z</time>
      </trkpt>
      <trkpt lat="41.860535" lon="0.9309458">
        <time>2022-07-08T08:17:19Z</time>
      </trkpt>
      <trkpt lat="41.86054" lon="0.93102646">
        <time>2022-07-08T08:17:22Z</time>
      </trkpt>
      <trkpt lat="41.86055" lon="0.9311078">
        <time>2022-07-08T08:17:25Z</time>
      </trkpt>
      <trkpt lat="41.860565" lon="0.93118846">
        <time>2022-07-08T08:17:28Z</time>
      </trkpt>
      <trkpt lat="41.860588" lon="0.9312628">
        <time>2022-07-08T08:17:31Z</time>
      </trkpt>
      <trkpt lat="41.86062" lon="0.93134344">
        <time>2022-07-08T08:17:34Z</time>
      </trkpt>
      <trkpt lat="41.86064" lon="0.9314028">
        <time>2022-07-08T08:17:36Z</time>
      </trkpt>
      <trkpt lat="41.860683" lon="0.9315018">
        <time>2022-07-08T08:17:39Z</time>
      </trkpt>
      <trkpt lat="41.860718" lon="0.93157977">
        <time>2022-07-08T08:17:41Z</time>
      </trkpt>
      <trkpt lat="41.860752" lon="0.9316654">
        <time>2022-07-08T08:17:43Z</time>
      </trkpt>
      <trkpt lat="41.86078" lon="0.93176377">
        <time>2022-07-08T08:17:45Z</time>
      </trkpt>
      <trkpt lat="41.860798" lon="0.9318718">
        <time>2022-07-08T08:17:47Z</time>
      </trkpt>
      <trkpt lat="41.860806" lon="0.9319811">
        <time>2022-07-08T08:17:49Z</time>
      </trkpt>
      <trkpt lat="41.86081" lon="0.93210346">
        <time>2022-07-08T08:17:51Z</time>
      </trkpt>
      <trkpt lat="41.860806" lon="0.93221843">
        <time>2022-07-08T08:17:53Z</time>
      </trkpt>
      <trkpt lat="41.860798" lon="0.93233275">
        <time>2022-07-08T08:17:55Z</time>
      </trkpt>
      <trkpt lat="41.860794" lon="0.9324554">
        <time>2022-07-08T08:17:57Z</time>
      </trkpt>
      <trkpt lat="41.86079" lon="0.93256843">
        <time>2022-07-08T08:17:59Z</time>
      </trkpt>
      <trkpt lat="41.86079" lon="0.9326874">
        <time>2022-07-08T08:18:01Z</time>
      </trkpt>
      <trkpt lat="41.860798" lon="0.9328031">
        <time>2022-07-08T08:18:03Z</time>
      </trkpt>
      <trkpt lat="41.860806" lon="0.9329097">
        <time>2022-07-08T08:18:05Z</time>
      </trkpt>
      <trkpt lat="41.860817" lon="0.93301976">
        <time>2022-07-08T08:18:07Z</time>
      </trkpt>
      <trkpt lat="41.86083" lon="0.93312305">
        <time>2022-07-08T08:18:09Z</time>
      </trkpt>
      <trkpt lat="41.860844" lon="0.93322575">
        <time>2022-07-08T08:18:11Z</time>
      </trkpt>
      <trkpt lat="41.86086" lon="0.9333311">
        <time>2022-07-08T08:18:13Z</time>
      </trkpt>
      <trkpt lat="41.860874" lon="0.9334374">
        <time>2022-07-08T08:18:15Z</time>
      </trkpt>
      <trkpt lat="41.860897" lon="0.93354774">
        <time>2022-07-08T08:18:17Z</time>
      </trkpt>
      <trkpt lat="41.860916" lon="0.9336497">
        <time>2022-07-08T08:18:19Z</time>
      </trkpt>
      <trkpt lat="41.860928" lon="0.9337537">
        <time>2022-07-08T08:18:21Z</time>
      </trkpt>
      <trkpt lat="41.860943" lon="0.93385804">
        <time>2022-07-08T08:18:23Z</time>
      </trkpt>
      <trkpt lat="41.860954" lon="0.93396205">
        <time>2022-07-08T08:18:25Z</time>
      </trkpt>
      <trkpt lat="41.860962" lon="0.9340667">
        <time>2022-07-08T08:18:27Z</time>
      </trkpt>
      <trkpt lat="41.86097" lon="0.93417305">
        <time>2022-07-08T08:18:29Z</time>
      </trkpt>
      <trkpt lat="41.860973" lon="0.9342827">
        <time>2022-07-08T08:18:31Z</time>
      </trkpt>
      <trkpt lat="41.860977" lon="0.9343927">
        <time>2022-07-08T08:18:33Z</time>
      </trkpt>
      <trkpt lat="41.860977" lon="0.9345034">
        <time>2022-07-08T08:18:35Z</time>
      </trkpt>
      <trkpt lat="41.860977" lon="0.9346127">
        <time>2022-07-08T08:18:37Z</time>
      </trkpt>
      <trkpt lat="41.86098" lon="0.93472004">
        <time>2022-07-08T08:18:39Z</time>
      </trkpt>
      <trkpt lat="41.86098" lon="0.93482804">
        <time>2022-07-08T08:18:41Z</time>
      </trkpt>
      <trkpt lat="41.860985" lon="0.93493533">
        <time>2022-07-08T08:18:43Z</time>
      </trkpt>
      <trkpt lat="41.860985" lon="0.93504167">
        <time>2022-07-08T08:18:45Z</time>
      </trkpt>
      <trkpt lat="41.86099" lon="0.93514735">
        <time>2022-07-08T08:18:47Z</time>
      </trkpt>
      <trkpt lat="41.860992" lon="0.935248">
        <time>2022-07-08T08:18:49Z</time>
      </trkpt>
      <trkpt lat="41.861" lon="0.93534935">
        <time>2022-07-08T08:18:51Z</time>
      </trkpt>
      <trkpt lat="41.86101" lon="0.9354463">
        <time>2022-07-08T08:18:53Z</time>
      </trkpt>
      <trkpt lat="41.861023" lon="0.9355483">
        <time>2022-07-08T08:18:55Z</time>
      </trkpt>
      <trkpt lat="41.861042" lon="0.935645">
        <time>2022-07-08T08:18:57Z</time>
      </trkpt>
      <trkpt lat="41.861073" lon="0.93574464">
        <time>2022-07-08T08:18:59Z</time>
      </trkpt>
      <trkpt lat="41.861095" lon="0.935844">
        <time>2022-07-08T08:19:01Z</time>
      </trkpt>
      <trkpt lat="41.861115" lon="0.935933">
        <time>2022-07-08T08:19:03Z</time>
      </trkpt>
      <trkpt lat="41.86114" lon="0.9360313">
        <time>2022-07-08T08:19:05Z</time>
      </trkpt>
      <trkpt lat="41.861168" lon="0.9361263">
        <time>2022-07-08T08:19:07Z</time>
      </trkpt>
      <trkpt lat="41.861187" lon="0.93621397">
        <time>2022-07-08T08:19:09Z</time>
      </trkpt>
      <trkpt lat="41.861206" lon="0.9363063">
        <time>2022-07-08T08:19:11Z</time>
      </trkpt>
      <trkpt lat="41.86122" lon="0.9364013">
        <time>2022-07-08T08:19:13Z</time>
      </trkpt>
      <trkpt lat="41.861237" lon="0.93649596">
        <time>2022-07-08T08:19:15Z</time>
      </trkpt>
      <trkpt lat="41.861244" lon="0.93659264">
        <time>2022-07-08T08:19:17Z</time>
      </trkpt>
      <trkpt lat="41.86125" lon="0.93668664">
        <time>2022-07-08T08:19:19Z</time>
      </trkpt>
      <trkpt lat="41.861256" lon="0.9367863">
        <time>2022-07-08T08:19:21Z</time>
      </trkpt>
      <trkpt lat="41.86126" lon="0.9368836">
        <time>2022-07-08T08:19:23Z</time>
      </trkpt>
      <trkpt lat="41.86126" lon="0.9369806">
        <time>2022-07-08T08:19:25Z</time>
      </trkpt>
      <trkpt lat="41.86126" lon="0.9370823">
        <time>2022-07-08T08:19:27Z</time>
      </trkpt>
      <trkpt lat="41.86126" lon="0.9371813">
        <time>2022-07-08T08:19:29Z</time>
      </trkpt>
      <trkpt lat="41.86126" lon="0.9372786">
        <time>2022-07-08T08:19:31Z</time>
      </trkpt>
      <trkpt lat="41.86126" lon="0.9373819">
        <time>2022-07-08T08:19:33Z</time>
      </trkpt>
      <trkpt lat="41.86126" lon="0.9374836">
        <time>2022-07-08T08:19:35Z</time>
      </trkpt>
      <trkpt lat="41.86126" lon="0.9375869">
        <time>2022-07-08T08:19:37Z</time>
      </trkpt>
      <trkpt lat="41.861263" lon="0.93768656">
        <time>2022-07-08T08:19:39Z</time>
      </trkpt>
      <trkpt lat="41.861275" lon="0.9377859">
        <time>2022-07-08T08:19:41Z</time>
      </trkpt>
      <trkpt lat="41.861286" lon="0.9378859">
        <time>2022-07-08T08:19:43Z</time>
      </trkpt>
      <trkpt lat="41.8613" lon="0.9379882">
        <time>2022-07-08T08:19:45Z</time>
      </trkpt>
      <trkpt lat="41.861324" lon="0.93809056">
        <time>2022-07-08T08:19:47Z</time>
      </trkpt>
      <trkpt lat="41.861347" lon="0.9381956">
        <time>2022-07-08T08:19:49Z</time>
      </trkpt>
      <trkpt lat="41.861378" lon="0.93830025">
        <time>2022-07-08T08:19:51Z</time>
      </trkpt>
      <trkpt lat="41.86141" lon="0.9384029">
        <time>2022-07-08T08:19:53Z</time>
      </trkpt>
      <trkpt lat="41.861427" lon="0.93850386">
        <time>2022-07-08T08:19:55Z</time>
      </trkpt>
      <trkpt lat="41.86144" lon="0.93860555">
        <time>2022-07-08T08:19:57Z</time>
      </trkpt>
      <trkpt lat="41.86143" lon="0.9387025">
        <time>2022-07-08T08:19:59Z</time>
      </trkpt>
      <trkpt lat="41.861423" lon="0.9388015">
        <time>2022-07-08T08:20:01Z</time>
      </trkpt>
      <trkpt lat="41.86141" lon="0.9388996">
        <time>2022-07-08T08:20:03Z</time>
      </trkpt>
      <trkpt lat="41.861385" lon="0.9389949">
        <time>2022-07-08T08:20:05Z</time>
      </trkpt>
      <trkpt lat="41.86136" lon="0.9390925">
        <time>2022-07-08T08:20:07Z</time>
      </trkpt>
      <trkpt lat="41.86132" lon="0.9391875">
        <time>2022-07-08T08:20:09Z</time>
      </trkpt>
      <trkpt lat="41.86129" lon="0.93928355">
        <time>2022-07-08T08:20:11Z</time>
      </trkpt>
      <trkpt lat="41.86126" lon="0.9393782">
        <time>2022-07-08T08:20:13Z</time>
      </trkpt>
      <trkpt lat="41.861233" lon="0.93947554">
        <time>2022-07-08T08:20:15Z</time>
      </trkpt>
      <trkpt lat="41.861206" lon="0.93957585">
        <time>2022-07-08T08:20:17Z</time>
      </trkpt>
      <trkpt lat="41.861176" lon="0.93967783">
        <time>2022-07-08T08:20:19Z</time>
      </trkpt>
      <trkpt lat="41.86115" lon="0.9397775">
        <time>2022-07-08T08:20:21Z</time>
      </trkpt>
      <trkpt lat="41.861122" lon="0.9398765">
        <time>2022-07-08T08:20:23Z</time>
      </trkpt>
      <trkpt lat="41.861095" lon="0.9399775">
        <time>2022-07-08T08:20:25Z</time>
      </trkpt>
      <trkpt lat="41.861065" lon="0.9400808">
        <time>2022-07-08T08:20:27Z</time>
      </trkpt>
      <trkpt lat="41.861042" lon="0.9401865">
        <time>2022-07-08T08:20:29Z</time>
      </trkpt>
      <trkpt lat="41.861008" lon="0.94035184">
        <time>2022-07-08T08:20:32Z</time>
      </trkpt>
      <trkpt lat="41.860985" lon="0.9404655">
        <time>2022-07-08T08:20:34Z</time>
      </trkpt>
      <trkpt lat="41.860966" lon="0.9405845">
        <time>2022-07-08T08:20:36Z</time>
      </trkpt>
      <trkpt lat="41.860943" lon="0.9406988">
        <time>2022-07-08T08:20:38Z</time>
      </trkpt>
      <trkpt lat="41.860924" lon="0.9408115">
        <time>2022-07-08T08:20:40Z</time>
      </trkpt>
      <trkpt lat="41.86091" lon="0.9409238">
        <time>2022-07-08T08:20:42Z</time>
      </trkpt>
      <trkpt lat="41.86089" lon="0.94103515">
        <time>2022-07-08T08:20:44Z</time>
      </trkpt>
      <trkpt lat="41.860874" lon="0.9411468">
        <time>2022-07-08T08:20:46Z</time>
      </trkpt>
      <trkpt lat="41.86085" lon="0.94125783">
        <time>2022-07-08T08:20:48Z</time>
      </trkpt>
      <trkpt lat="41.860832" lon="0.94136614">
        <time>2022-07-08T08:20:50Z</time>
      </trkpt>
      <trkpt lat="41.860817" lon="0.9414725">
        <time>2022-07-08T08:20:52Z</time>
      </trkpt>
      <trkpt lat="41.860798" lon="0.9415761">
        <time>2022-07-08T08:20:54Z</time>
      </trkpt>
      <trkpt lat="41.860783" lon="0.9416795">
        <time>2022-07-08T08:20:56Z</time>
      </trkpt>
      <trkpt lat="41.860764" lon="0.94177777">
        <time>2022-07-08T08:20:58Z</time>
      </trkpt>
      <trkpt lat="41.860744" lon="0.9418748">
        <time>2022-07-08T08:21:00Z</time>
      </trkpt>
      <trkpt lat="41.860725" lon="0.94197243">
        <time>2022-07-08T08:21:02Z</time>
      </trkpt>
      <trkpt lat="41.860706" lon="0.94206643">
        <time>2022-07-08T08:21:04Z</time>
      </trkpt>
      <trkpt lat="41.860687" lon="0.9421541">
        <time>2022-07-08T08:21:06Z</time>
      </trkpt>
      <trkpt lat="41.860664" lon="0.94223475">
        <time>2022-07-08T08:21:08Z</time>
      </trkpt>
      <trkpt lat="41.86064" lon="0.94230944">
        <time>2022-07-08T08:21:10Z</time>
      </trkpt>
      <trkpt lat="41.860615" lon="0.9423798">
        <time>2022-07-08T08:21:12Z</time>
      </trkpt>
      <trkpt lat="41.86059" lon="0.94245076">
        <time>2022-07-08T08:21:14Z</time>
      </trkpt>
      <trkpt lat="41.86057" lon="0.94252545">
        <time>2022-07-08T08:21:16Z</time>
      </trkpt>
      <trkpt lat="41.860546" lon="0.94260144">
        <time>2022-07-08T08:21:18Z</time>
      </trkpt>
      <trkpt lat="41.86052" lon="0.9426791">
        <time>2022-07-08T08:21:20Z</time>
      </trkpt>
      <trkpt lat="41.860497" lon="0.9427551">
        <time>2022-07-08T08:21:22Z</time>
      </trkpt>
      <trkpt lat="41.860466" lon="0.9428351">
        <time>2022-07-08T08:21:24Z</time>
      </trkpt>
      <trkpt lat="41.860443" lon="0.94291043">
        <time>2022-07-08T08:21:26Z</time>
      </trkpt>
      <trkpt lat="41.86042" lon="0.94298905">
        <time>2022-07-08T08:21:28Z</time>
      </trkpt>
      <trkpt lat="41.8604" lon="0.94306207">
        <time>2022-07-08T08:21:30Z</time>
      </trkpt>
      <trkpt lat="41.860374" lon="0.9431351">
        <time>2022-07-08T08:21:32Z</time>
      </trkpt>
      <trkpt lat="41.860348" lon="0.9432074">
        <time>2022-07-08T08:21:34Z</time>
      </trkpt>
      <trkpt lat="41.860325" lon="0.94328004">
        <time>2022-07-08T08:21:36Z</time>
      </trkpt>
      <trkpt lat="41.860302" lon="0.94335705">
        <time>2022-07-08T08:21:38Z</time>
      </trkpt>
      <trkpt lat="41.86028" lon="0.94343704">
        <time>2022-07-08T08:21:40Z</time>
      </trkpt>
      <trkpt lat="41.86026" lon="0.9435134">
        <time>2022-07-08T08:21:42Z</time>
      </trkpt>
      <trkpt lat="41.86024" lon="0.9435867">
        <time>2022-07-08T08:21:44Z</time>
      </trkpt>
      <trkpt lat="41.86022" lon="0.94365937">
        <time>2022-07-08T08:21:46Z</time>
      </trkpt>
      <trkpt lat="41.860207" lon="0.94373006">
        <time>2022-07-08T08:21:48Z</time>
      </trkpt>
      <trkpt lat="41.860195" lon="0.9438004">
        <time>2022-07-08T08:21:50Z</time>
      </trkpt>
      <trkpt lat="41.860188" lon="0.94390935">
        <time>2022-07-08T08:21:53Z</time>
      </trkpt>
      <trkpt lat="41.860176" lon="0.94398135">
        <time>2022-07-08T08:21:55Z</time>
      </trkpt>
      <trkpt lat="41.86017" lon="0.94404805">
        <time>2022-07-08T08:21:57Z</time>
      </trkpt>
      <trkpt lat="41.86016" lon="0.94415206">
        <time>2022-07-08T08:22:00Z</time>
      </trkpt>
      <trkpt lat="41.86016" lon="0.9442217">
        <time>2022-07-08T08:22:02Z</time>
      </trkpt>
      <trkpt lat="41.860157" lon="0.9442893">
        <time>2022-07-08T08:22:04Z</time>
      </trkpt>
      <trkpt lat="41.860153" lon="0.944391">
        <time>2022-07-08T08:22:07Z</time>
      </trkpt>
      <trkpt lat="41.86015" lon="0.94446135">
        <time>2022-07-08T08:22:09Z</time>
      </trkpt>
      <trkpt lat="41.860146" lon="0.9445353">
        <time>2022-07-08T08:22:11Z</time>
      </trkpt>
      <trkpt lat="41.860146" lon="0.94461036">
        <time>2022-07-08T08:22:13Z</time>
      </trkpt>
      <trkpt lat="41.86014" lon="0.9446857">
        <time>2022-07-08T08:22:15Z</time>
      </trkpt>
      <trkpt lat="41.860138" lon="0.944763">
        <time>2022-07-08T08:22:17Z</time>
      </trkpt>
      <trkpt lat="41.860138" lon="0.94484067">
        <time>2022-07-08T08:22:19Z</time>
      </trkpt>
      <trkpt lat="41.86013" lon="0.94492">
        <time>2022-07-08T08:22:21Z</time>
      </trkpt>
      <trkpt lat="41.86013" lon="0.9450036">
        <time>2022-07-08T08:22:23Z</time>
      </trkpt>
      <trkpt lat="41.860126" lon="0.9450886">
        <time>2022-07-08T08:22:25Z</time>
      </trkpt>
      <trkpt lat="41.860123" lon="0.94517267">
        <time>2022-07-08T08:22:27Z</time>
      </trkpt>
      <trkpt lat="41.860115" lon="0.9452523">
        <time>2022-07-08T08:22:29Z</time>
      </trkpt>
      <trkpt lat="41.860107" lon="0.94533134">
        <time>2022-07-08T08:22:31Z</time>
      </trkpt>
      <trkpt lat="41.86009" lon="0.94540894">
        <time>2022-07-08T08:22:33Z</time>
      </trkpt>
      <trkpt lat="41.86007" lon="0.9454853">
        <time>2022-07-08T08:22:35Z</time>
      </trkpt>
      <trkpt lat="41.860046" lon="0.94556296">
        <time>2022-07-08T08:22:37Z</time>
      </trkpt>
      <trkpt lat="41.860027" lon="0.94563895">
        <time>2022-07-08T08:22:39Z</time>
      </trkpt>
      <trkpt lat="41.860004" lon="0.9457116">
        <time>2022-07-08T08:22:41Z</time>
      </trkpt>
      <trkpt lat="41.85998" lon="0.9457863">
        <time>2022-07-08T08:22:43Z</time>
      </trkpt>
      <trkpt lat="41.859955" lon="0.94585925">
        <time>2022-07-08T08:22:45Z</time>
      </trkpt>
      <trkpt lat="41.859932" lon="0.9459296">
        <time>2022-07-08T08:22:47Z</time>
      </trkpt>
      <trkpt lat="41.859905" lon="0.9460053">
        <time>2022-07-08T08:22:49Z</time>
      </trkpt>
      <trkpt lat="41.85988" lon="0.9460816">
        <time>2022-07-08T08:22:51Z</time>
      </trkpt>
      <trkpt lat="41.85986" lon="0.9461586">
        <time>2022-07-08T08:22:53Z</time>
      </trkpt>
      <trkpt lat="41.859844" lon="0.94623494">
        <time>2022-07-08T08:22:55Z</time>
      </trkpt>
      <trkpt lat="41.859837" lon="0.94631195">
        <time>2022-07-08T08:22:57Z</time>
      </trkpt>
      <trkpt lat="41.85983" lon="0.94639057">
        <time>2022-07-08T08:22:59Z</time>
      </trkpt>
      <trkpt lat="41.85982" lon="0.94647294">
        <time>2022-07-08T08:23:01Z</time>
      </trkpt>
      <trkpt lat="41.859818" lon="0.94655794">
        <time>2022-07-08T08:23:03Z</time>
      </trkpt>
      <trkpt lat="41.859818" lon="0.9466386">
        <time>2022-07-08T08:23:05Z</time>
      </trkpt>
      <trkpt lat="41.859818" lon="0.9467192">
        <time>2022-07-08T08:23:07Z</time>
      </trkpt>
      <trkpt lat="41.85982" lon="0.94679624">
        <time>2022-07-08T08:23:09Z</time>
      </trkpt>
      <trkpt lat="41.85982" lon="0.9468776">
        <time>2022-07-08T08:23:11Z</time>
      </trkpt>
      <trkpt lat="41.85982" lon="0.9469539">
        <time>2022-07-08T08:23:13Z</time>
      </trkpt>
      <trkpt lat="41.859825" lon="0.94702256">
        <time>2022-07-08T08:23:15Z</time>
      </trkpt>
      <trkpt lat="41.859825" lon="0.9470872">
        <time>2022-07-08T08:23:17Z</time>
      </trkpt>
      <trkpt lat="41.859833" lon="0.94718754">
        <time>2022-07-08T08:23:20Z</time>
      </trkpt>
      <trkpt lat="41.859837" lon="0.94727856">
        <time>2022-07-08T08:23:23Z</time>
      </trkpt>
      <trkpt lat="41.85984" lon="0.9473592">
        <time>2022-07-08T08:23:26Z</time>
      </trkpt>
      <trkpt lat="41.859848" lon="0.94743353">
        <time>2022-07-08T08:23:29Z</time>
      </trkpt>
      <trkpt lat="41.859848" lon="0.9475042">
        <time>2022-07-08T08:23:32Z</time>
      </trkpt>
      <trkpt lat="41.859856" lon="0.94757783">
        <time>2022-07-08T08:23:35Z</time>
      </trkpt>
      <trkpt lat="41.85985" lon="0.9476532">
        <time>2022-07-08T08:23:38Z</time>
      </trkpt>
      <trkpt lat="41.85985" lon="0.9477559">
        <time>2022-07-08T08:23:42Z</time>
      </trkpt>
      <trkpt lat="41.859856" lon="0.94783485">
        <time>2022-07-08T08:23:45Z</time>
      </trkpt>
      <trkpt lat="41.859856" lon="0.9479125">
        <time>2022-07-08T08:23:48Z</time>
      </trkpt>
      <trkpt lat="41.859856" lon="0.9479948">
        <time>2022-07-08T08:23:51Z</time>
      </trkpt>
      <trkpt lat="41.859863" lon="0.9480698">
        <time>2022-07-08T08:23:54Z</time>
      </trkpt>
      <trkpt lat="41.859863" lon="0.9481482">
        <time>2022-07-08T08:23:57Z</time>
      </trkpt>
      <trkpt lat="41.859863" lon="0.9482232">
        <time>2022-07-08T08:24:00Z</time>
      </trkpt>
      <trkpt lat="41.85985" lon="0.94828886">
        <time>2022-07-08T08:24:03Z</time>
      </trkpt>
      <trkpt lat="41.859856" lon="0.94838214">
        <time>2022-07-08T08:24:07Z</time>
      </trkpt>
      <trkpt lat="41.859856" lon="0.94846714">
        <time>2022-07-08T08:24:10Z</time>
      </trkpt>
      <trkpt lat="41.859844" lon="0.94854915">
        <time>2022-07-08T08:24:13Z</time>
      </trkpt>
      <trkpt lat="41.859837" lon="0.9486235">
        <time>2022-07-08T08:24:16Z</time>
      </trkpt>
      <trkpt lat="41.85983" lon="0.9487018">
        <time>2022-07-08T08:24:19Z</time>
      </trkpt>
      <trkpt lat="41.859825" lon="0.94878316">
        <time>2022-07-08T08:24:22Z</time>
      </trkpt>
      <trkpt lat="41.85982" lon="0.94887114">
        <time>2022-07-08T08:24:25Z</time>
      </trkpt>
      <trkpt lat="41.859825" lon="0.9489682">
        <time>2022-07-08T08:24:28Z</time>
      </trkpt>
      <trkpt lat="41.859825" lon="0.9490361">
        <time>2022-07-08T08:24:30Z</time>
      </trkpt>
      <trkpt lat="41.859825" lon="0.9491055">
        <time>2022-07-08T08:24:32Z</time>
      </trkpt>
      <trkpt lat="41.859818" lon="0.9491791">
        <time>2022-07-08T08:24:34Z</time>
      </trkpt>
      <trkpt lat="41.85981" lon="0.94925946">
        <time>2022-07-08T08:24:36Z</time>
      </trkpt>
      <trkpt lat="41.8598" lon="0.9493488">
        <time>2022-07-08T08:24:38Z</time>
      </trkpt>
      <trkpt lat="41.859783" lon="0.94944215">
        <time>2022-07-08T08:24:40Z</time>
      </trkpt>
      <trkpt lat="41.859764" lon="0.94953716">
        <time>2022-07-08T08:24:42Z</time>
      </trkpt>
      <trkpt lat="41.859737" lon="0.9496288">
        <time>2022-07-08T08:24:44Z</time>
      </trkpt>
      <trkpt lat="41.8597" lon="0.94971913">
        <time>2022-07-08T08:24:46Z</time>
      </trkpt>
      <trkpt lat="41.859653" lon="0.94980115">
        <time>2022-07-08T08:24:48Z</time>
      </trkpt>
      <trkpt lat="41.859604" lon="0.9498711">
        <time>2022-07-08T08:24:50Z</time>
      </trkpt>
      <trkpt lat="41.859554" lon="0.9499241">
        <time>2022-07-08T08:24:52Z</time>
      </trkpt>
      <trkpt lat="41.85951" lon="0.94996977">
        <time>2022-07-08T08:24:54Z</time>
      </trkpt>
      <trkpt lat="41.859455" lon="0.9500348">
        <time>2022-07-08T08:24:57Z</time>
      </trkpt>
      <trkpt lat="41.859417" lon="0.95008713">
        <time>2022-07-08T08:24:59Z</time>
      </trkpt>
      <trkpt lat="41.859383" lon="0.95015275">
        <time>2022-07-08T08:25:01Z</time>
      </trkpt>
      <trkpt lat="41.85935" lon="0.9502321">
        <time>2022-07-08T08:25:03Z</time>
      </trkpt>
      <trkpt lat="41.859306" lon="0.9503231">
        <time>2022-07-08T08:25:05Z</time>
      </trkpt>
      <trkpt lat="41.859257" lon="0.9504231">
        <time>2022-07-08T08:25:07Z</time>
      </trkpt>
      <trkpt lat="41.859207" lon="0.9505274">
        <time>2022-07-08T08:25:09Z</time>
      </trkpt>
      <trkpt lat="41.859154" lon="0.95063376">
        <time>2022-07-08T08:25:11Z</time>
      </trkpt>
      <trkpt lat="41.859127" lon="0.95068675">
        <time>2022-07-08T08:25:12Z</time>
      </trkpt>
      <trkpt lat="41.859077" lon="0.95079374">
        <time>2022-07-08T08:25:14Z</time>
      </trkpt>
      <trkpt lat="41.859028" lon="0.9508998">
        <time>2022-07-08T08:25:16Z</time>
      </trkpt>
      <trkpt lat="41.85898" lon="0.95100176">
        <time>2022-07-08T08:25:18Z</time>
      </trkpt>
      <trkpt lat="41.85893" lon="0.95110375">
        <time>2022-07-08T08:25:20Z</time>
      </trkpt>
      <trkpt lat="41.85888" lon="0.95120645">
        <time>2022-07-08T08:25:22Z</time>
      </trkpt>
      <trkpt lat="41.85883" lon="0.95130974">
        <time>2022-07-08T08:25:24Z</time>
      </trkpt>
      <trkpt lat="41.858784" lon="0.95141244">
        <time>2022-07-08T08:25:26Z</time>
      </trkpt>
      <trkpt lat="41.858734" lon="0.9515111">
        <time>2022-07-08T08:25:28Z</time>
      </trkpt>
      <trkpt lat="41.858685" lon="0.9516064">
        <time>2022-07-08T08:25:30Z</time>
      </trkpt>
      <trkpt lat="41.858643" lon="0.9516977">
        <time>2022-07-08T08:25:32Z</time>
      </trkpt>
      <trkpt lat="41.8586" lon="0.95178473">
        <time>2022-07-08T08:25:34Z</time>
      </trkpt>
      <trkpt lat="41.858562" lon="0.9518637">
        <time>2022-07-08T08:25:36Z</time>
      </trkpt>
      <trkpt lat="41.858524" lon="0.9519367">
        <time>2022-07-08T08:25:38Z</time>
      </trkpt>
      <trkpt lat="41.858494" lon="0.9520077">
        <time>2022-07-08T08:25:40Z</time>
      </trkpt>
      <trkpt lat="41.858463" lon="0.9520704">
        <time>2022-07-08T08:25:42Z</time>
      </trkpt>
      <trkpt lat="41.85844" lon="0.9521304">
        <time>2022-07-08T08:25:44Z</time>
      </trkpt>
      <trkpt lat="41.858418" lon="0.9521854">
        <time>2022-07-08T08:25:46Z</time>
      </trkpt>
      <trkpt lat="41.858383" lon="0.9522597">
        <time>2022-07-08T08:25:49Z</time>
      </trkpt>
      <trkpt lat="41.858345" lon="0.95232236">
        <time>2022-07-08T08:25:52Z</time>
      </trkpt>
      <trkpt lat="41.858303" lon="0.9523814">
        <time>2022-07-08T08:25:55Z</time>
      </trkpt>
      <trkpt lat="41.858265" lon="0.95244074">
        <time>2022-07-08T08:25:58Z</time>
      </trkpt>
      <trkpt lat="41.85823" lon="0.9524967">
        <time>2022-07-08T08:26:01Z</time>
      </trkpt>
      <trkpt lat="41.85819" lon="0.9525484">
        <time>2022-07-08T08:26:04Z</time>
      </trkpt>
      <trkpt lat="41.858143" lon="0.952597">
        <time>2022-07-08T08:26:07Z</time>
      </trkpt>
      <trkpt lat="41.8581" lon="0.95265436">
        <time>2022-07-08T08:26:10Z</time>
      </trkpt>
      <trkpt lat="41.858063" lon="0.9527134">
        <time>2022-07-08T08:26:13Z</time>
      </trkpt>
      <trkpt lat="41.85802" lon="0.952776">
        <time>2022-07-08T08:26:16Z</time>
      </trkpt>
      <trkpt lat="41.85798" lon="0.9528327">
        <time>2022-07-08T08:26:19Z</time>
      </trkpt>
      <trkpt lat="41.857937" lon="0.952888">
        <time>2022-07-08T08:26:22Z</time>
      </trkpt>
      <trkpt lat="41.857906" lon="0.9529433">
        <time>2022-07-08T08:26:25Z</time>
      </trkpt>
      <trkpt lat="41.857872" lon="0.953004">
        <time>2022-07-08T08:26:29Z</time>
      </trkpt>
      <trkpt lat="41.85784" lon="0.9530647">
        <time>2022-07-08T08:26:33Z</time>
      </trkpt>
      <trkpt lat="41.85781" lon="0.95312667">
        <time>2022-07-08T08:26:37Z</time>
      </trkpt>
      <trkpt lat="41.85778" lon="0.95319664">
        <time>2022-07-08T08:26:41Z</time>
      </trkpt>
      <trkpt lat="41.857746" lon="0.95324934">
        <time>2022-07-08T08:26:45Z</time>
      </trkpt>
      <trkpt lat="41.857716" lon="0.9533133">
        <time>2022-07-08T08:26:49Z</time>
      </trkpt>
      <trkpt lat="41.85769" lon="0.95338166">
        <time>2022-07-08T08:26:53Z</time>
      </trkpt>
      <trkpt lat="41.857662" lon="0.95345396">
        <time>2022-07-08T08:26:57Z</time>
      </trkpt>
      <trkpt lat="41.85762" lon="0.95351696">
        <time>2022-07-08T08:27:01Z</time>
      </trkpt>
      <trkpt lat="41.85758" lon="0.95357066">
        <time>2022-07-08T08:27:05Z</time>
      </trkpt>
      <trkpt lat="41.85755" lon="0.953635">
        <time>2022-07-08T08:27:09Z</time>
      </trkpt>
      <trkpt lat="41.857517" lon="0.95370466">
        <time>2022-07-08T08:27:13Z</time>
      </trkpt>
      <trkpt lat="41.857483" lon="0.9537763">
        <time>2022-07-08T08:27:17Z</time>
      </trkpt>
      <trkpt lat="41.857456" lon="0.9538486">
        <time>2022-07-08T08:27:21Z</time>
      </trkpt>
      <trkpt lat="41.85743" lon="0.9539243">
        <time>2022-07-08T08:27:25Z</time>
      </trkpt>
      <trkpt lat="41.857403" lon="0.95399463">
        <time>2022-07-08T08:27:29Z</time>
      </trkpt>
      <trkpt lat="41.857376" lon="0.95406693">
        <time>2022-07-08T08:27:33Z</time>
      </trkpt>
      <trkpt lat="41.857346" lon="0.95413095">
        <time>2022-07-08T08:27:37Z</time>
      </trkpt>
      <trkpt lat="41.857315" lon="0.9542006">
        <time>2022-07-08T08:27:41Z</time>
      </trkpt>
      <trkpt lat="41.857285" lon="0.9542616">
        <time>2022-07-08T08:27:45Z</time>
      </trkpt>
      <trkpt lat="41.85725" lon="0.9543263">
        <time>2022-07-08T08:27:49Z</time>
      </trkpt>
      <trkpt lat="41.85722" lon="0.9543969">
        <time>2022-07-08T08:27:53Z</time>
      </trkpt>
      <trkpt lat="41.857185" lon="0.9544599">
        <time>2022-07-08T08:27:57Z</time>
      </trkpt>
      <trkpt lat="41.85715" lon="0.9545266">
        <time>2022-07-08T08:28:01Z</time>
      </trkpt>
      <trkpt lat="41.857124" lon="0.9545949">
        <time>2022-07-08T08:28:05Z</time>
      </trkpt>
      <trkpt lat="41.857098" lon="0.9546589">
        <time>2022-07-08T08:28:09Z</time>
      </trkpt>
      <trkpt lat="41.85707" lon="0.9547299">
        <time>2022-07-08T08:28:13Z</time>
      </trkpt>
      <trkpt lat="41.857044" lon="0.9548049">
        <time>2022-07-08T08:28:17Z</time>
      </trkpt>
      <trkpt lat="41.857014" lon="0.9548699">
        <time>2022-07-08T08:28:21Z</time>
      </trkpt>
      <trkpt lat="41.856987" lon="0.95493793">
        <time>2022-07-08T08:28:25Z</time>
      </trkpt>
      <trkpt lat="41.856953" lon="0.95500255">
        <time>2022-07-08T08:28:29Z</time>
      </trkpt>
      <trkpt lat="41.856915" lon="0.95506924">
        <time>2022-07-08T08:28:33Z</time>
      </trkpt>
      <trkpt lat="41.856884" lon="0.95513725">
        <time>2022-07-08T08:28:37Z</time>
      </trkpt>
      <trkpt lat="41.85684" lon="0.95521086">
        <time>2022-07-08T08:28:41Z</time>
      </trkpt>
      <trkpt lat="41.856792" lon="0.9552885">
        <time>2022-07-08T08:28:44Z</time>
      </trkpt>
      <trkpt lat="41.85676" lon="0.9553622">
        <time>2022-07-08T08:28:46Z</time>
      </trkpt>
      <trkpt lat="41.856724" lon="0.95546585">
        <time>2022-07-08T08:28:48Z</time>
      </trkpt>
      <trkpt lat="41.85669" lon="0.9555762">
        <time>2022-07-08T08:28:50Z</time>
      </trkpt>
      <trkpt lat="41.856663" lon="0.9556612">
        <time>2022-07-08T08:28:52Z</time>
      </trkpt>
      <trkpt lat="41.856647" lon="0.9557082">
        <time>2022-07-08T08:28:54Z</time>
      </trkpt>
      <trkpt lat="41.856594" lon="0.9558045">
        <time>2022-07-08T08:29:49Z</time>
      </trkpt>
      <trkpt lat="41.85656" lon="0.9558952">
        <time>2022-07-08T08:29:51Z</time>
      </trkpt>
      <trkpt lat="41.856506" lon="0.9560005">
        <time>2022-07-08T08:29:53Z</time>
      </trkpt>
      <trkpt lat="41.856476" lon="0.9560562">
        <time>2022-07-08T08:29:54Z</time>
      </trkpt>
      <trkpt lat="41.856438" lon="0.9561098">
        <time>2022-07-08T08:29:55Z</time>
      </trkpt>
      <trkpt lat="41.856396" lon="0.95616084">
        <time>2022-07-08T08:29:56Z</time>
      </trkpt>
      <trkpt lat="41.856354" lon="0.9562092">
        <time>2022-07-08T08:29:57Z</time>
      </trkpt>
      <trkpt lat="41.856304" lon="0.9562538">
        <time>2022-07-08T08:29:58Z</time>
      </trkpt>
      <trkpt lat="41.85626" lon="0.9562925">
        <time>2022-07-08T08:29:59Z</time>
      </trkpt>
      <trkpt lat="41.856205" lon="0.9563248">
        <time>2022-07-08T08:30:00Z</time>
      </trkpt>
      <trkpt lat="41.856155" lon="0.95635283">
        <time>2022-07-08T08:30:01Z</time>
      </trkpt>
      <trkpt lat="41.856102" lon="0.95637715">
        <time>2022-07-08T08:30:02Z</time>
      </trkpt>
      <trkpt lat="41.856052" lon="0.95639783">
        <time>2022-07-08T08:30:03Z</time>
      </trkpt>
      <trkpt lat="41.856" lon="0.9564155">
        <time>2022-07-08T08:30:04Z</time>
      </trkpt>
      <trkpt lat="41.855896" lon="0.95644444">
        <time>2022-07-08T08:30:06Z</time>
      </trkpt>
      <trkpt lat="41.855846" lon="0.9564568">
        <time>2022-07-08T08:30:07Z</time>
      </trkpt>
      <trkpt lat="41.855797" lon="0.9564681">
        <time>2022-07-08T08:30:08Z</time>
      </trkpt>
      <trkpt lat="41.8557" lon="0.95648813">
        <time>2022-07-08T08:30:10Z</time>
      </trkpt>
      <trkpt lat="41.855656" lon="0.9564968">
        <time>2022-07-08T08:30:11Z</time>
      </trkpt>
      <trkpt lat="41.855556" lon="0.9565148">
        <time>2022-07-08T08:30:13Z</time>
      </trkpt>
      <trkpt lat="41.855457" lon="0.9565428">
        <time>2022-07-08T08:30:15Z</time>
      </trkpt>
      <trkpt lat="41.85535" lon="0.95659614">
        <time>2022-07-08T08:30:17Z</time>
      </trkpt>
      <trkpt lat="41.855293" lon="0.95662975">
        <time>2022-07-08T08:30:18Z</time>
      </trkpt>
      <trkpt lat="41.855236" lon="0.9566621">
        <time>2022-07-08T08:30:19Z</time>
      </trkpt>
      <trkpt lat="41.855175" lon="0.9566931">
        <time>2022-07-08T08:30:20Z</time>
      </trkpt>
      <trkpt lat="41.85511" lon="0.95672375">
        <time>2022-07-08T08:30:21Z</time>
      </trkpt>
      <trkpt lat="41.855045" lon="0.95675576">
        <time>2022-07-08T08:30:22Z</time>
      </trkpt>
      <trkpt lat="41.854977" lon="0.95678943">
        <time>2022-07-08T08:30:23Z</time>
      </trkpt>
      <trkpt lat="41.854916" lon="0.9568244">
        <time>2022-07-08T08:30:24Z</time>
      </trkpt>
      <trkpt lat="41.85485" lon="0.95686173">
        <time>2022-07-08T08:30:25Z</time>
      </trkpt>
      <trkpt lat="41.85478" lon="0.9569004">
        <time>2022-07-08T08:30:26Z</time>
      </trkpt>
      <trkpt lat="41.85471" lon="0.95693874">
        <time>2022-07-08T08:30:27Z</time>
      </trkpt>
      <trkpt lat="41.85464" lon="0.95697606">
        <time>2022-07-08T08:30:28Z</time>
      </trkpt>
      <trkpt lat="41.85458" lon="0.95700973">
        <time>2022-07-08T08:30:29Z</time>
      </trkpt>
      <trkpt lat="41.85452" lon="0.95704305">
        <time>2022-07-08T08:30:30Z</time>
      </trkpt>
      <trkpt lat="41.854454" lon="0.9570761">
        <time>2022-07-08T08:30:31Z</time>
      </trkpt>
      <trkpt lat="41.85439" lon="0.95710605">
        <time>2022-07-08T08:30:32Z</time>
      </trkpt>
      <trkpt lat="41.854324" lon="0.9571347">
        <time>2022-07-08T08:30:33Z</time>
      </trkpt>
      <trkpt lat="41.854263" lon="0.95716304">
        <time>2022-07-08T08:30:34Z</time>
      </trkpt>
      <trkpt lat="41.8542" lon="0.9571927">
        <time>2022-07-08T08:30:35Z</time>
      </trkpt>
      <trkpt lat="41.854137" lon="0.95722306">
        <time>2022-07-08T08:30:36Z</time>
      </trkpt>
      <trkpt lat="41.854076" lon="0.95725304">
        <time>2022-07-08T08:30:37Z</time>
      </trkpt>
      <trkpt lat="41.854015" lon="0.9572831">
        <time>2022-07-08T08:30:38Z</time>
      </trkpt>
      <trkpt lat="41.853954" lon="0.9573117">
        <time>2022-07-08T08:30:39Z</time>
      </trkpt>
      <trkpt lat="41.853897" lon="0.95734173">
        <time>2022-07-08T08:30:40Z</time>
      </trkpt>
      <trkpt lat="41.85384" lon="0.95737237">
        <time>2022-07-08T08:30:41Z</time>
      </trkpt>
      <trkpt lat="41.853786" lon="0.95740104">
        <time>2022-07-08T08:30:42Z</time>
      </trkpt>
      <trkpt lat="41.853737" lon="0.9574274">
        <time>2022-07-08T08:30:43Z</time>
      </trkpt>
      <trkpt lat="41.853687" lon="0.95745003">
        <time>2022-07-08T08:30:44Z</time>
      </trkpt>
      <trkpt lat="41.853634" lon="0.95747334">
        <time>2022-07-08T08:30:45Z</time>
      </trkpt>
      <trkpt lat="41.85358" lon="0.95749736">
        <time>2022-07-08T08:30:46Z</time>
      </trkpt>
      <trkpt lat="41.85353" lon="0.95752233">
        <time>2022-07-08T08:30:47Z</time>
      </trkpt>
      <trkpt lat="41.85348" lon="0.95754665">
        <time>2022-07-08T08:30:48Z</time>
      </trkpt>
      <trkpt lat="41.853436" lon="0.95756835">
        <time>2022-07-08T08:30:49Z</time>
      </trkpt>
      <trkpt lat="41.85339" lon="0.95758736">
        <time>2022-07-08T08:30:50Z</time>
      </trkpt>
      <trkpt lat="41.85331" lon="0.95760834">
        <time>2022-07-08T08:30:52Z</time>
      </trkpt>
      <trkpt lat="41.853245" lon="0.95761037">
        <time>2022-07-08T08:30:54Z</time>
      </trkpt>
      <trkpt lat="41.853207" lon="0.95759">
        <time>2022-07-08T08:30:56Z</time>
      </trkpt>
      <trkpt lat="41.853203" lon="0.957523">
        <time>2022-07-08T08:31:00Z</time>
      </trkpt>
      <trkpt lat="41.853275" lon="0.95748234">
        <time>2022-07-08T08:31:08Z</time>
      </trkpt>
      <trkpt lat="41.85332" lon="0.95747167">
        <time>2022-07-08T08:31:13Z</time>
      </trkpt>
      <trkpt lat="41.85331" lon="0.9573807">
        <time>2022-07-08T08:56:08Z</time>
      </trkpt>
      <trkpt lat="41.853367" lon="0.9573823">
        <time>2022-07-08T08:56:14Z</time>
      </trkpt>
      <trkpt lat="41.85299" lon="0.9571417">
        <time>2022-07-08T08:57:47Z</time>
      </trkpt>
      <trkpt lat="41.853317" lon="0.95756835">
        <time>2022-07-08T09:00:54Z</time>
      </trkpt>
      <trkpt lat="41.853275" lon="0.95764935">
        <time>2022-07-08T09:00:57Z</time>
      </trkpt>
      <trkpt lat="41.85325" lon="0.9577187">
        <time>2022-07-08T09:00:59Z</time>
      </trkpt>
      <trkpt lat="41.85322" lon="0.95779365">
        <time>2022-07-08T09:01:01Z</time>
      </trkpt>
      <trkpt lat="41.853184" lon="0.957858">
        <time>2022-07-08T09:01:03Z</time>
      </trkpt>
      <trkpt lat="41.85314" lon="0.95793265">
        <time>2022-07-08T09:01:05Z</time>
      </trkpt>
      <trkpt lat="41.85311" lon="0.9580323">
        <time>2022-07-08T09:01:07Z</time>
      </trkpt>
      <trkpt lat="41.85309" lon="0.9581533">
        <time>2022-07-08T09:01:09Z</time>
      </trkpt>
      <trkpt lat="41.853065" lon="0.9582947">
        <time>2022-07-08T09:01:11Z</time>
      </trkpt>
      <trkpt lat="41.853054" lon="0.958373">
        <time>2022-07-08T09:01:12Z</time>
      </trkpt>
      <trkpt lat="41.853043" lon="0.9584556">
        <time>2022-07-08T09:01:13Z</time>
      </trkpt>
      <trkpt lat="41.853027" lon="0.9585433">
        <time>2022-07-08T09:01:14Z</time>
      </trkpt>
      <trkpt lat="41.853016" lon="0.9586363">
        <time>2022-07-08T09:01:15Z</time>
      </trkpt>
      <trkpt lat="41.853" lon="0.9587336">
        <time>2022-07-08T09:01:16Z</time>
      </trkpt>
      <trkpt lat="41.852985" lon="0.95883465">
        <time>2022-07-08T09:01:17Z</time>
      </trkpt>
      <trkpt lat="41.852966" lon="0.95893896">
        <time>2022-07-08T09:01:18Z</time>
      </trkpt>
      <trkpt lat="41.85295" lon="0.959048">
        <time>2022-07-08T09:01:19Z</time>
      </trkpt>
      <trkpt lat="41.85294" lon="0.9591623">
        <time>2022-07-08T09:01:20Z</time>
      </trkpt>
      <trkpt lat="41.85293" lon="0.9592816">
        <time>2022-07-08T09:01:21Z</time>
      </trkpt>
      <trkpt lat="41.852917" lon="0.9594063">
        <time>2022-07-08T09:01:22Z</time>
      </trkpt>
      <trkpt lat="41.85291" lon="0.9595353">
        <time>2022-07-08T09:01:23Z</time>
      </trkpt>
      <trkpt lat="41.8529" lon="0.95966965">
        <time>2022-07-08T09:01:24Z</time>
      </trkpt>
      <trkpt lat="41.852898" lon="0.9598073">
        <time>2022-07-08T09:01:25Z</time>
      </trkpt>
      <trkpt lat="41.852898" lon="0.95994794">
        <time>2022-07-08T09:01:26Z</time>
      </trkpt>
      <trkpt lat="41.852905" lon="0.9600913">
        <time>2022-07-08T09:01:27Z</time>
      </trkpt>
      <trkpt lat="41.852913" lon="0.96023726">
        <time>2022-07-08T09:01:28Z</time>
      </trkpt>
      <trkpt lat="41.85293" lon="0.9603849">
        <time>2022-07-08T09:01:29Z</time>
      </trkpt>
      <trkpt lat="41.852947" lon="0.9605353">
        <time>2022-07-08T09:01:30Z</time>
      </trkpt>
      <trkpt lat="41.85297" lon="0.9606869">
        <time>2022-07-08T09:01:31Z</time>
      </trkpt>
      <trkpt lat="41.852997" lon="0.9608393">
        <time>2022-07-08T09:01:32Z</time>
      </trkpt>
      <trkpt lat="41.853027" lon="0.9609926">
        <time>2022-07-08T09:01:33Z</time>
      </trkpt>
      <trkpt lat="41.853065" lon="0.9611452">
        <time>2022-07-08T09:01:34Z</time>
      </trkpt>
      <trkpt lat="41.853104" lon="0.96129656">
        <time>2022-07-08T09:01:35Z</time>
      </trkpt>
      <trkpt lat="41.853146" lon="0.9614466">
        <time>2022-07-08T09:01:36Z</time>
      </trkpt>
      <trkpt lat="41.853188" lon="0.9615969">
        <time>2022-07-08T09:01:37Z</time>
      </trkpt>
      <trkpt lat="41.853237" lon="0.9617466">
        <time>2022-07-08T09:01:38Z</time>
      </trkpt>
      <trkpt lat="41.853287" lon="0.9618956">
        <time>2022-07-08T09:01:39Z</time>
      </trkpt>
      <trkpt lat="41.85334" lon="0.9620436">
        <time>2022-07-08T09:01:40Z</time>
      </trkpt>
      <trkpt lat="41.853397" lon="0.9621919">
        <time>2022-07-08T09:01:41Z</time>
      </trkpt>
      <trkpt lat="41.85345" lon="0.9623382">
        <time>2022-07-08T09:01:42Z</time>
      </trkpt>
      <trkpt lat="41.853554" lon="0.96262085">
        <time>2022-07-08T09:01:44Z</time>
      </trkpt>
      <trkpt lat="41.853603" lon="0.9627592">
        <time>2022-07-08T09:01:45Z</time>
      </trkpt>
      <trkpt lat="41.853653" lon="0.9628962">
        <time>2022-07-08T09:01:46Z</time>
      </trkpt>
      <trkpt lat="41.853703" lon="0.96302956">
        <time>2022-07-08T09:01:47Z</time>
      </trkpt>
      <trkpt lat="41.85375" lon="0.9631579">
        <time>2022-07-08T09:01:48Z</time>
      </trkpt>
      <trkpt lat="41.853794" lon="0.9632839">
        <time>2022-07-08T09:01:49Z</time>
      </trkpt>
      <trkpt lat="41.85384" lon="0.96340686">
        <time>2022-07-08T09:01:50Z</time>
      </trkpt>
      <trkpt lat="41.85388" lon="0.9635259">
        <time>2022-07-08T09:01:51Z</time>
      </trkpt>
      <trkpt lat="41.85392" lon="0.9636419">
        <time>2022-07-08T09:01:52Z</time>
      </trkpt>
      <trkpt lat="41.853962" lon="0.9637549">
        <time>2022-07-08T09:01:53Z</time>
      </trkpt>
      <trkpt lat="41.854" lon="0.9638659">
        <time>2022-07-08T09:01:54Z</time>
      </trkpt>
      <trkpt lat="41.854042" lon="0.9639735">
        <time>2022-07-08T09:01:55Z</time>
      </trkpt>
      <trkpt lat="41.85408" lon="0.96407986">
        <time>2022-07-08T09:01:56Z</time>
      </trkpt>
      <trkpt lat="41.85412" lon="0.96418417">
        <time>2022-07-08T09:01:57Z</time>
      </trkpt>
      <trkpt lat="41.854156" lon="0.9642879">
        <time>2022-07-08T09:01:58Z</time>
      </trkpt>
      <trkpt lat="41.85419" lon="0.96438885">
        <time>2022-07-08T09:01:59Z</time>
      </trkpt>
      <trkpt lat="41.85423" lon="0.96448916">
        <time>2022-07-08T09:02:00Z</time>
      </trkpt>
      <trkpt lat="41.854263" lon="0.9645888">
        <time>2022-07-08T09:02:01Z</time>
      </trkpt>
      <trkpt lat="41.8543" lon="0.9646875">
        <time>2022-07-08T09:02:02Z</time>
      </trkpt>
      <trkpt lat="41.854336" lon="0.9647848">
        <time>2022-07-08T09:02:03Z</time>
      </trkpt>
      <trkpt lat="41.85437" lon="0.9648755">
        <time>2022-07-08T09:02:04Z</time>
      </trkpt>
      <trkpt lat="41.85441" lon="0.9649735">
        <time>2022-07-08T09:02:05Z</time>
      </trkpt>
      <trkpt lat="41.854443" lon="0.9650701">
        <time>2022-07-08T09:02:06Z</time>
      </trkpt>
      <trkpt lat="41.854473" lon="0.9651655">
        <time>2022-07-08T09:02:07Z</time>
      </trkpt>
      <trkpt lat="41.854507" lon="0.9652605">
        <time>2022-07-08T09:02:08Z</time>
      </trkpt>
      <trkpt lat="41.85454" lon="0.96535516">
        <time>2022-07-08T09:02:09Z</time>
      </trkpt>
      <trkpt lat="41.854576" lon="0.96544945">
        <time>2022-07-08T09:02:10Z</time>
      </trkpt>
      <trkpt lat="41.85461" lon="0.9655425">
        <time>2022-07-08T09:02:11Z</time>
      </trkpt>
      <trkpt lat="41.854645" lon="0.9656355">
        <time>2022-07-08T09:02:12Z</time>
      </trkpt>
      <trkpt lat="41.854675" lon="0.9657288">
        <time>2022-07-08T09:02:13Z</time>
      </trkpt>
      <trkpt lat="41.85471" lon="0.9658208">
        <time>2022-07-08T09:02:14Z</time>
      </trkpt>
      <trkpt lat="41.85474" lon="0.96591115">
        <time>2022-07-08T09:02:15Z</time>
      </trkpt>
      <trkpt lat="41.854774" lon="0.96600014">
        <time>2022-07-08T09:02:16Z</time>
      </trkpt>
      <trkpt lat="41.854805" lon="0.9660885">
        <time>2022-07-08T09:02:17Z</time>
      </trkpt>
      <trkpt lat="41.854836" lon="0.9661758">
        <time>2022-07-08T09:02:18Z</time>
      </trkpt>
      <trkpt lat="41.85487" lon="0.96626115">
        <time>2022-07-08T09:02:19Z</time>
      </trkpt>
      <trkpt lat="41.8549" lon="0.9663454">
        <time>2022-07-08T09:02:20Z</time>
      </trkpt>
      <trkpt lat="41.85493" lon="0.96642876">
        <time>2022-07-08T09:02:21Z</time>
      </trkpt>
      <trkpt lat="41.854958" lon="0.96650976">
        <time>2022-07-08T09:02:22Z</time>
      </trkpt>
      <trkpt lat="41.85499" lon="0.9665898">
        <time>2022-07-08T09:02:23Z</time>
      </trkpt>
      <trkpt lat="41.85502" lon="0.9666688">
        <time>2022-07-08T09:02:24Z</time>
      </trkpt>
      <trkpt lat="41.855045" lon="0.9667471">
        <time>2022-07-08T09:02:25Z</time>
      </trkpt>
      <trkpt lat="41.855076" lon="0.9668251">
        <time>2022-07-08T09:02:26Z</time>
      </trkpt>
      <trkpt lat="41.855103" lon="0.96689713">
        <time>2022-07-08T09:02:27Z</time>
      </trkpt>
      <trkpt lat="41.85513" lon="0.96697545">
        <time>2022-07-08T09:02:28Z</time>
      </trkpt>
      <trkpt lat="41.855156" lon="0.9670534">
        <time>2022-07-08T09:02:29Z</time>
      </trkpt>
      <trkpt lat="41.855186" lon="0.9671304">
        <time>2022-07-08T09:02:30Z</time>
      </trkpt>
      <trkpt lat="41.855213" lon="0.9672061">
        <time>2022-07-08T09:02:31Z</time>
      </trkpt>
      <trkpt lat="41.85524" lon="0.96727973">
        <time>2022-07-08T09:02:32Z</time>
      </trkpt>
      <trkpt lat="41.855267" lon="0.9673524">
        <time>2022-07-08T09:02:33Z</time>
      </trkpt>
      <trkpt lat="41.85529" lon="0.96742475">
        <time>2022-07-08T09:02:34Z</time>
      </trkpt>
      <trkpt lat="41.855316" lon="0.96749675">
        <time>2022-07-08T09:02:35Z</time>
      </trkpt>
      <trkpt lat="41.855343" lon="0.9675694">
        <time>2022-07-08T09:02:36Z</time>
      </trkpt>
      <trkpt lat="41.85537" lon="0.9676414">
        <time>2022-07-08T09:02:37Z</time>
      </trkpt>
      <trkpt lat="41.855396" lon="0.9677137">
        <time>2022-07-08T09:02:38Z</time>
      </trkpt>
      <trkpt lat="41.855423" lon="0.96778506">
        <time>2022-07-08T09:02:39Z</time>
      </trkpt>
      <trkpt lat="41.85545" lon="0.96785575">
        <time>2022-07-08T09:02:40Z</time>
      </trkpt>
      <trkpt lat="41.855476" lon="0.9679264">
        <time>2022-07-08T09:02:41Z</time>
      </trkpt>
      <trkpt lat="41.855503" lon="0.9679974">
        <time>2022-07-08T09:02:42Z</time>
      </trkpt>
      <trkpt lat="41.85553" lon="0.96806806">
        <time>2022-07-08T09:02:43Z</time>
      </trkpt>
      <trkpt lat="41.855556" lon="0.9681374">
        <time>2022-07-08T09:02:44Z</time>
      </trkpt>
      <trkpt lat="41.85558" lon="0.96820605">
        <time>2022-07-08T09:02:45Z</time>
      </trkpt>
      <trkpt lat="41.85563" lon="0.9683434">
        <time>2022-07-08T09:02:47Z</time>
      </trkpt>
      <trkpt lat="41.855656" lon="0.96841204">
        <time>2022-07-08T09:02:48Z</time>
      </trkpt>
      <trkpt lat="41.85568" lon="0.9684807">
        <time>2022-07-08T09:02:49Z</time>
      </trkpt>
      <trkpt lat="41.855705" lon="0.968549">
        <time>2022-07-08T09:02:50Z</time>
      </trkpt>
      <trkpt lat="41.85573" lon="0.968617">
        <time>2022-07-08T09:02:51Z</time>
      </trkpt>
      <trkpt lat="41.855755" lon="0.968684">
        <time>2022-07-08T09:02:52Z</time>
      </trkpt>
      <trkpt lat="41.855778" lon="0.96875066">
        <time>2022-07-08T09:02:53Z</time>
      </trkpt>
      <trkpt lat="41.855804" lon="0.968817">
        <time>2022-07-08T09:02:54Z</time>
      </trkpt>
      <trkpt lat="41.855827" lon="0.96888167">
        <time>2022-07-08T09:02:55Z</time>
      </trkpt>
      <trkpt lat="41.855854" lon="0.968946">
        <time>2022-07-08T09:02:56Z</time>
      </trkpt>
      <trkpt lat="41.855877" lon="0.96900964">
        <time>2022-07-08T09:02:57Z</time>
      </trkpt>
      <trkpt lat="41.8559" lon="0.96907234">
        <time>2022-07-08T09:02:58Z</time>
      </trkpt>
      <trkpt lat="41.855923" lon="0.9691346">
        <time>2022-07-08T09:02:59Z</time>
      </trkpt>
      <trkpt lat="41.85597" lon="0.969261">
        <time>2022-07-08T09:03:01Z</time>
      </trkpt>
      <trkpt lat="41.85599" lon="0.969324">
        <time>2022-07-08T09:03:02Z</time>
      </trkpt>
      <trkpt lat="41.856014" lon="0.969387">
        <time>2022-07-08T09:03:03Z</time>
      </trkpt>
      <trkpt lat="41.856037" lon="0.96945">
        <time>2022-07-08T09:03:04Z</time>
      </trkpt>
      <trkpt lat="41.85606" lon="0.9695133">
        <time>2022-07-08T09:03:05Z</time>
      </trkpt>
      <trkpt lat="41.856106" lon="0.96963966">
        <time>2022-07-08T09:03:07Z</time>
      </trkpt>
      <trkpt lat="41.856125" lon="0.96970296">
        <time>2022-07-08T09:03:08Z</time>
      </trkpt>
      <trkpt lat="41.856148" lon="0.969767">
        <time>2022-07-08T09:03:09Z</time>
      </trkpt>
      <trkpt lat="41.85617" lon="0.96983">
        <time>2022-07-08T09:03:10Z</time>
      </trkpt>
      <trkpt lat="41.856194" lon="0.969894">
        <time>2022-07-08T09:03:11Z</time>
      </trkpt>
      <trkpt lat="41.856243" lon="0.9700253">
        <time>2022-07-08T09:03:13Z</time>
      </trkpt>
      <trkpt lat="41.856266" lon="0.97009164">
        <time>2022-07-08T09:03:14Z</time>
      </trkpt>
      <trkpt lat="41.85629" lon="0.97015697">
        <time>2022-07-08T09:03:15Z</time>
      </trkpt>
      <trkpt lat="41.85631" lon="0.9702213">
        <time>2022-07-08T09:03:16Z</time>
      </trkpt>
      <trkpt lat="41.856335" lon="0.97028095">
        <time>2022-07-08T09:03:17Z</time>
      </trkpt>
      <trkpt lat="41.856384" lon="0.9704113">
        <time>2022-07-08T09:03:19Z</time>
      </trkpt>
      <trkpt lat="41.856407" lon="0.9704759">
        <time>2022-07-08T09:03:20Z</time>
      </trkpt>
      <trkpt lat="41.85643" lon="0.9705403">
        <time>2022-07-08T09:03:21Z</time>
      </trkpt>
      <trkpt lat="41.856453" lon="0.97060394">
        <time>2022-07-08T09:03:22Z</time>
      </trkpt>
      <trkpt lat="41.85648" lon="0.97066796">
        <time>2022-07-08T09:03:23Z</time>
      </trkpt>
      <trkpt lat="41.856503" lon="0.97073257">
        <time>2022-07-08T09:03:24Z</time>
      </trkpt>
      <trkpt lat="41.856525" lon="0.97079694">
        <time>2022-07-08T09:03:25Z</time>
      </trkpt>
      <trkpt lat="41.85655" lon="0.97086126">
        <time>2022-07-08T09:03:26Z</time>
      </trkpt>
      <trkpt lat="41.85657" lon="0.97092056">
        <time>2022-07-08T09:03:27Z</time>
      </trkpt>
      <trkpt lat="41.856613" lon="0.9710409">
        <time>2022-07-08T09:03:29Z</time>
      </trkpt>
      <trkpt lat="41.85666" lon="0.9711679">
        <time>2022-07-08T09:03:31Z</time>
      </trkpt>
      <trkpt lat="41.85668" lon="0.97123057">
        <time>2022-07-08T09:03:32Z</time>
      </trkpt>
      <trkpt lat="41.8567" lon="0.9712932">
        <time>2022-07-08T09:03:33Z</time>
      </trkpt>
      <trkpt lat="41.856724" lon="0.97135526">
        <time>2022-07-08T09:03:34Z</time>
      </trkpt>
      <trkpt lat="41.85677" lon="0.9714786">
        <time>2022-07-08T09:03:36Z</time>
      </trkpt>
      <trkpt lat="41.856792" lon="0.9715402">
        <time>2022-07-08T09:03:37Z</time>
      </trkpt>
      <trkpt lat="41.85684" lon="0.97166324">
        <time>2022-07-08T09:03:39Z</time>
      </trkpt>
      <trkpt lat="41.85686" lon="0.9717252">
        <time>2022-07-08T09:03:40Z</time>
      </trkpt>
      <trkpt lat="41.856884" lon="0.9717872">
        <time>2022-07-08T09:03:41Z</time>
      </trkpt>
      <trkpt lat="41.85693" lon="0.9719109">
        <time>2022-07-08T09:03:43Z</time>
      </trkpt>
      <trkpt lat="41.856953" lon="0.9719729">
        <time>2022-07-08T09:03:44Z</time>
      </trkpt>
      <trkpt lat="41.857" lon="0.9720972">
        <time>2022-07-08T09:03:46Z</time>
      </trkpt>
      <trkpt lat="41.857018" lon="0.97215855">
        <time>2022-07-08T09:03:47Z</time>
      </trkpt>
      <trkpt lat="41.85704" lon="0.9722195">
        <time>2022-07-08T09:03:48Z</time>
      </trkpt>
      <trkpt lat="41.857086" lon="0.9723412">
        <time>2022-07-08T09:03:50Z</time>
      </trkpt>
      <trkpt lat="41.85713" lon="0.9724632">
        <time>2022-07-08T09:03:52Z</time>
      </trkpt>
      <trkpt lat="41.85715" lon="0.9725235">
        <time>2022-07-08T09:03:53Z</time>
      </trkpt>
      <trkpt lat="41.857193" lon="0.97264516">
        <time>2022-07-08T09:03:55Z</time>
      </trkpt>
      <trkpt lat="41.85724" lon="0.97276485">
        <time>2022-07-08T09:03:57Z</time>
      </trkpt>
      <trkpt lat="41.85728" lon="0.97288316">
        <time>2022-07-08T09:03:59Z</time>
      </trkpt>
      <trkpt lat="41.857323" lon="0.9730022">
        <time>2022-07-08T09:04:01Z</time>
      </trkpt>
      <trkpt lat="41.85736" lon="0.9731128">
        <time>2022-07-08T09:04:03Z</time>
      </trkpt>
      <trkpt lat="41.857384" lon="0.97317415">
        <time>2022-07-08T09:04:04Z</time>
      </trkpt>
      <trkpt lat="41.857426" lon="0.9732955">
        <time>2022-07-08T09:04:06Z</time>
      </trkpt>
      <trkpt lat="41.857468" lon="0.97341484">
        <time>2022-07-08T09:04:08Z</time>
      </trkpt>
      <trkpt lat="41.857513" lon="0.9735295">
        <time>2022-07-08T09:04:10Z</time>
      </trkpt>
      <trkpt lat="41.857555" lon="0.97364014">
        <time>2022-07-08T09:04:12Z</time>
      </trkpt>
      <trkpt lat="41.857594" lon="0.97374815">
        <time>2022-07-08T09:04:14Z</time>
      </trkpt>
      <trkpt lat="41.857635" lon="0.9738622">
        <time>2022-07-08T09:04:16Z</time>
      </trkpt>
      <trkpt lat="41.857674" lon="0.9739665">
        <time>2022-07-08T09:04:18Z</time>
      </trkpt>
      <trkpt lat="41.85771" lon="0.9740741">
        <time>2022-07-08T09:04:20Z</time>
      </trkpt>
      <trkpt lat="41.85775" lon="0.97418344">
        <time>2022-07-08T09:04:22Z</time>
      </trkpt>
      <trkpt lat="41.857784" lon="0.9742855">
        <time>2022-07-08T09:04:24Z</time>
      </trkpt>
      <trkpt lat="41.857822" lon="0.97438616">
        <time>2022-07-08T09:04:26Z</time>
      </trkpt>
      <trkpt lat="41.857857" lon="0.9744871">
        <time>2022-07-08T09:04:28Z</time>
      </trkpt>
      <trkpt lat="41.857887" lon="0.97458744">
        <time>2022-07-08T09:04:30Z</time>
      </trkpt>
      <trkpt lat="41.857925" lon="0.97469413">
        <time>2022-07-08T09:04:32Z</time>
      </trkpt>
      <trkpt lat="41.85796" lon="0.9747988">
        <time>2022-07-08T09:04:34Z</time>
      </trkpt>
      <trkpt lat="41.85799" lon="0.9749058">
        <time>2022-07-08T09:04:36Z</time>
      </trkpt>
      <trkpt lat="41.85802" lon="0.9750111">
        <time>2022-07-08T09:04:38Z</time>
      </trkpt>
      <trkpt lat="41.85805" lon="0.9751218">
        <time>2022-07-08T09:04:40Z</time>
      </trkpt>
      <trkpt lat="41.858078" lon="0.9752301">
        <time>2022-07-08T09:04:42Z</time>
      </trkpt>
      <trkpt lat="41.858105" lon="0.97533375">
        <time>2022-07-08T09:04:44Z</time>
      </trkpt>
      <trkpt lat="41.85813" lon="0.9754451">
        <time>2022-07-08T09:04:46Z</time>
      </trkpt>
      <trkpt lat="41.85816" lon="0.9755531">
        <time>2022-07-08T09:04:48Z</time>
      </trkpt>
      <trkpt lat="41.858185" lon="0.9756681">
        <time>2022-07-08T09:04:50Z</time>
      </trkpt>
      <trkpt lat="41.858227" lon="0.9758391">
        <time>2022-07-08T09:04:53Z</time>
      </trkpt>
      <trkpt lat="41.858253" lon="0.97595245">
        <time>2022-07-08T09:04:55Z</time>
      </trkpt>
      <trkpt lat="41.85828" lon="0.97606975">
        <time>2022-07-08T09:04:57Z</time>
      </trkpt>
      <trkpt lat="41.85831" lon="0.97619176">
        <time>2022-07-08T09:04:59Z</time>
      </trkpt>
      <trkpt lat="41.858326" lon="0.9762531">
        <time>2022-07-08T09:05:00Z</time>
      </trkpt>
      <trkpt lat="41.858356" lon="0.9763801">
        <time>2022-07-08T09:05:02Z</time>
      </trkpt>
      <trkpt lat="41.858387" lon="0.9765077">
        <time>2022-07-08T09:05:04Z</time>
      </trkpt>
      <trkpt lat="41.858418" lon="0.97663707">
        <time>2022-07-08T09:05:06Z</time>
      </trkpt>
      <trkpt lat="41.85843" lon="0.97670174">
        <time>2022-07-08T09:05:07Z</time>
      </trkpt>
      <trkpt lat="41.858463" lon="0.97683674">
        <time>2022-07-08T09:05:09Z</time>
      </trkpt>
      <trkpt lat="41.85848" lon="0.9769054">
        <time>2022-07-08T09:05:10Z</time>
      </trkpt>
      <trkpt lat="41.858494" lon="0.97697204">
        <time>2022-07-08T09:05:11Z</time>
      </trkpt>
      <trkpt lat="41.85851" lon="0.9770384">
        <time>2022-07-08T09:05:12Z</time>
      </trkpt>
      <trkpt lat="41.858543" lon="0.9771684">
        <time>2022-07-08T09:05:14Z</time>
      </trkpt>
      <trkpt lat="41.858555" lon="0.97723305">
        <time>2022-07-08T09:05:15Z</time>
      </trkpt>
      <trkpt lat="41.858585" lon="0.97735506">
        <time>2022-07-08T09:05:17Z</time>
      </trkpt>
      <trkpt lat="41.858612" lon="0.9774787">
        <time>2022-07-08T09:05:19Z</time>
      </trkpt>
      <trkpt lat="41.858627" lon="0.9775417">
        <time>2022-07-08T09:05:20Z</time>
      </trkpt>
      <trkpt lat="41.858658" lon="0.97767335">
        <time>2022-07-08T09:05:22Z</time>
      </trkpt>
      <trkpt lat="41.858673" lon="0.9777407">
        <time>2022-07-08T09:05:23Z</time>
      </trkpt>
      <trkpt lat="41.85869" lon="0.97780734">
        <time>2022-07-08T09:05:24Z</time>
      </trkpt>
      <trkpt lat="41.858723" lon="0.97793865">
        <time>2022-07-08T09:05:26Z</time>
      </trkpt>
      <trkpt lat="41.858734" lon="0.9780033">
        <time>2022-07-08T09:05:27Z</time>
      </trkpt>
      <trkpt lat="41.858765" lon="0.978131">
        <time>2022-07-08T09:05:29Z</time>
      </trkpt>
      <trkpt lat="41.85878" lon="0.97819364">
        <time>2022-07-08T09:05:30Z</time>
      </trkpt>
      <trkpt lat="41.85881" lon="0.978319">
        <time>2022-07-08T09:05:32Z</time>
      </trkpt>
      <trkpt lat="41.858826" lon="0.97837734">
        <time>2022-07-08T09:05:33Z</time>
      </trkpt>
      <trkpt lat="41.858856" lon="0.97850096">
        <time>2022-07-08T09:05:35Z</time>
      </trkpt>
      <trkpt lat="41.85887" lon="0.97856396">
        <time>2022-07-08T09:05:36Z</time>
      </trkpt>
      <trkpt lat="41.858902" lon="0.978688">
        <time>2022-07-08T09:05:38Z</time>
      </trkpt>
      <trkpt lat="41.858932" lon="0.9788063">
        <time>2022-07-08T09:05:40Z</time>
      </trkpt>
      <trkpt lat="41.858944" lon="0.97886664">
        <time>2022-07-08T09:05:41Z</time>
      </trkpt>
      <trkpt lat="41.85898" lon="0.97899365">
        <time>2022-07-08T09:05:43Z</time>
      </trkpt>
      <trkpt lat="41.85899" lon="0.9790533">
        <time>2022-07-08T09:05:44Z</time>
      </trkpt>
      <trkpt lat="41.85902" lon="0.97918195">
        <time>2022-07-08T09:05:46Z</time>
      </trkpt>
      <trkpt lat="41.85905" lon="0.97930694">
        <time>2022-07-08T09:05:48Z</time>
      </trkpt>
      <trkpt lat="41.859093" lon="0.97949296">
        <time>2022-07-08T09:05:51Z</time>
      </trkpt>
      <trkpt lat="41.85912" lon="0.9796143">
        <time>2022-07-08T09:05:53Z</time>
      </trkpt>
      <trkpt lat="41.859146" lon="0.9797366">
        <time>2022-07-08T09:05:55Z</time>
      </trkpt>
      <trkpt lat="41.859177" lon="0.9798596">
        <time>2022-07-08T09:05:57Z</time>
      </trkpt>
      <trkpt lat="41.859207" lon="0.97998196">
        <time>2022-07-08T09:05:59Z</time>
      </trkpt>
      <trkpt lat="41.859238" lon="0.9801063">
        <time>2022-07-08T09:06:01Z</time>
      </trkpt>
      <trkpt lat="41.859253" lon="0.98016894">
        <time>2022-07-08T09:06:02Z</time>
      </trkpt>
      <trkpt lat="41.859283" lon="0.9802943">
        <time>2022-07-08T09:06:04Z</time>
      </trkpt>
      <trkpt lat="41.859314" lon="0.9804196">
        <time>2022-07-08T09:06:06Z</time>
      </trkpt>
      <trkpt lat="41.859344" lon="0.9805453">
        <time>2022-07-08T09:06:08Z</time>
      </trkpt>
      <trkpt lat="41.85937" lon="0.9806709">
        <time>2022-07-08T09:06:10Z</time>
      </trkpt>
      <trkpt lat="41.8594" lon="0.98079723">
        <time>2022-07-08T09:06:12Z</time>
      </trkpt>
      <trkpt lat="41.859413" lon="0.98086023">
        <time>2022-07-08T09:06:13Z</time>
      </trkpt>
      <trkpt lat="41.859447" lon="0.9809856">
        <time>2022-07-08T09:06:15Z</time>
      </trkpt>
      <trkpt lat="41.859474" lon="0.9811119">
        <time>2022-07-08T09:06:17Z</time>
      </trkpt>
      <trkpt lat="41.859505" lon="0.9812359">
        <time>2022-07-08T09:06:19Z</time>
      </trkpt>
      <trkpt lat="41.859535" lon="0.98135793">
        <time>2022-07-08T09:06:21Z</time>
      </trkpt>
      <trkpt lat="41.859562" lon="0.98148125">
        <time>2022-07-08T09:06:23Z</time>
      </trkpt>
      <trkpt lat="41.859577" lon="0.98153824">
        <time>2022-07-08T09:06:24Z</time>
      </trkpt>
      <trkpt lat="41.859608" lon="0.98166555">
        <time>2022-07-08T09:06:26Z</time>
      </trkpt>
      <trkpt lat="41.859623" lon="0.98172855">
        <time>2022-07-08T09:06:27Z</time>
      </trkpt>
      <trkpt lat="41.859653" lon="0.9818539">
        <time>2022-07-08T09:06:29Z</time>
      </trkpt>
      <trkpt lat="41.859684" lon="0.98197055">
        <time>2022-07-08T09:06:31Z</time>
      </trkpt>
      <trkpt lat="41.85971" lon="0.9820982">
        <time>2022-07-08T09:06:33Z</time>
      </trkpt>
      <trkpt lat="41.859745" lon="0.98222554">
        <time>2022-07-08T09:06:35Z</time>
      </trkpt>
      <trkpt lat="41.85976" lon="0.9822889">
        <time>2022-07-08T09:06:36Z</time>
      </trkpt>
      <trkpt lat="41.85979" lon="0.9824142">
        <time>2022-07-08T09:06:38Z</time>
      </trkpt>
      <trkpt lat="41.859818" lon="0.98253924">
        <time>2022-07-08T09:06:40Z</time>
      </trkpt>
      <trkpt lat="41.859833" lon="0.98260087">
        <time>2022-07-08T09:06:41Z</time>
      </trkpt>
      <trkpt lat="41.859863" lon="0.9827252">
        <time>2022-07-08T09:06:43Z</time>
      </trkpt>
      <trkpt lat="41.859894" lon="0.9828515">
        <time>2022-07-08T09:06:45Z</time>
      </trkpt>
      <trkpt lat="41.859924" lon="0.98297685">
        <time>2022-07-08T09:06:47Z</time>
      </trkpt>
      <trkpt lat="41.859947" lon="0.9830949">
        <time>2022-07-08T09:06:49Z</time>
      </trkpt>
      <trkpt lat="41.85999" lon="0.98328453">
        <time>2022-07-08T09:06:52Z</time>
      </trkpt>
      <trkpt lat="41.860004" lon="0.9833509">
        <time>2022-07-08T09:06:53Z</time>
      </trkpt>
      <trkpt lat="41.860035" lon="0.98348254">
        <time>2022-07-08T09:06:55Z</time>
      </trkpt>
      <trkpt lat="41.86005" lon="0.98354816">
        <time>2022-07-08T09:06:56Z</time>
      </trkpt>
      <trkpt lat="41.860065" lon="0.9836135">
        <time>2022-07-08T09:06:57Z</time>
      </trkpt>
      <trkpt lat="41.860092" lon="0.98373985">
        <time>2022-07-08T09:06:59Z</time>
      </trkpt>
      <trkpt lat="41.860123" lon="0.9838718">
        <time>2022-07-08T09:07:01Z</time>
      </trkpt>
      <trkpt lat="41.86014" lon="0.9839392">
        <time>2022-07-08T09:07:02Z</time>
      </trkpt>
      <trkpt lat="41.860157" lon="0.98400515">
        <time>2022-07-08T09:07:03Z</time>
      </trkpt>
      <trkpt lat="41.86019" lon="0.98413646">
        <time>2022-07-08T09:07:05Z</time>
      </trkpt>
      <trkpt lat="41.860207" lon="0.98420185">
        <time>2022-07-08T09:07:06Z</time>
      </trkpt>
      <trkpt lat="41.86022" lon="0.9842668">
        <time>2022-07-08T09:07:07Z</time>
      </trkpt>
      <trkpt lat="41.860256" lon="0.98439884">
        <time>2022-07-08T09:07:09Z</time>
      </trkpt>
      <trkpt lat="41.860275" lon="0.9844655">
        <time>2022-07-08T09:07:10Z</time>
      </trkpt>
      <trkpt lat="41.86029" lon="0.98453313">
        <time>2022-07-08T09:07:11Z</time>
      </trkpt>
      <trkpt lat="41.86031" lon="0.9846008">
        <time>2022-07-08T09:07:12Z</time>
      </trkpt>
      <trkpt lat="41.860325" lon="0.9846678">
        <time>2022-07-08T09:07:13Z</time>
      </trkpt>
      <trkpt lat="41.86036" lon="0.98480546">
        <time>2022-07-08T09:07:15Z</time>
      </trkpt>
      <trkpt lat="41.86038" lon="0.98487645">
        <time>2022-07-08T09:07:16Z</time>
      </trkpt>
      <trkpt lat="41.860397" lon="0.98494947">
        <time>2022-07-08T09:07:17Z</time>
      </trkpt>
      <trkpt lat="41.860416" lon="0.9850248">
        <time>2022-07-08T09:07:18Z</time>
      </trkpt>
      <trkpt lat="41.860435" lon="0.9851038">
        <time>2022-07-08T09:07:19Z</time>
      </trkpt>
      <trkpt lat="41.860455" lon="0.9851858">
        <time>2022-07-08T09:07:20Z</time>
      </trkpt>
      <trkpt lat="41.860474" lon="0.98526543">
        <time>2022-07-08T09:07:21Z</time>
      </trkpt>
      <trkpt lat="41.860493" lon="0.98535144">
        <time>2022-07-08T09:07:22Z</time>
      </trkpt>
      <trkpt lat="41.860516" lon="0.9854418">
        <time>2022-07-08T09:07:23Z</time>
      </trkpt>
      <trkpt lat="41.86054" lon="0.9855441">
        <time>2022-07-08T09:07:24Z</time>
      </trkpt>
      <trkpt lat="41.860565" lon="0.98564947">
        <time>2022-07-08T09:07:25Z</time>
      </trkpt>
      <trkpt lat="41.86059" lon="0.9857571">
        <time>2022-07-08T09:07:26Z</time>
      </trkpt>
      <trkpt lat="41.86062" lon="0.9858681">
        <time>2022-07-08T09:07:27Z</time>
      </trkpt>
      <trkpt lat="41.860645" lon="0.9859824">
        <time>2022-07-08T09:07:28Z</time>
      </trkpt>
      <trkpt lat="41.860672" lon="0.9860994">
        <time>2022-07-08T09:07:29Z</time>
      </trkpt>
      <trkpt lat="41.860703" lon="0.98621845">
        <time>2022-07-08T09:07:30Z</time>
      </trkpt>
      <trkpt lat="41.86073" lon="0.98633945">
        <time>2022-07-08T09:07:31Z</time>
      </trkpt>
      <trkpt lat="41.86076" lon="0.9864621">
        <time>2022-07-08T09:07:32Z</time>
      </trkpt>
      <trkpt lat="41.860786" lon="0.98658776">
        <time>2022-07-08T09:07:33Z</time>
      </trkpt>
      <trkpt lat="41.860817" lon="0.9867161">
        <time>2022-07-08T09:07:34Z</time>
      </trkpt>
      <trkpt lat="41.860847" lon="0.9868471">
        <time>2022-07-08T09:07:35Z</time>
      </trkpt>
      <trkpt lat="41.860878" lon="0.98698175">
        <time>2022-07-08T09:07:36Z</time>
      </trkpt>
      <trkpt lat="41.86091" lon="0.98711777">
        <time>2022-07-08T09:07:37Z</time>
      </trkpt>
      <trkpt lat="41.86094" lon="0.9872564">
        <time>2022-07-08T09:07:38Z</time>
      </trkpt>
      <trkpt lat="41.86097" lon="0.9873971">
        <time>2022-07-08T09:07:39Z</time>
      </trkpt>
      <trkpt lat="41.861" lon="0.9875394">
        <time>2022-07-08T09:07:40Z</time>
      </trkpt>
      <trkpt lat="41.861034" lon="0.9876834">
        <time>2022-07-08T09:07:41Z</time>
      </trkpt>
      <trkpt lat="41.86106" lon="0.9878294">
        <time>2022-07-08T09:07:42Z</time>
      </trkpt>
      <trkpt lat="41.86109" lon="0.9879764">
        <time>2022-07-08T09:07:43Z</time>
      </trkpt>
      <trkpt lat="41.86112" lon="0.9881241">
        <time>2022-07-08T09:07:44Z</time>
      </trkpt>
      <trkpt lat="41.86115" lon="0.9882737">
        <time>2022-07-08T09:07:45Z</time>
      </trkpt>
      <trkpt lat="41.861176" lon="0.98842406">
        <time>2022-07-08T09:07:46Z</time>
      </trkpt>
      <trkpt lat="41.861202" lon="0.98857504">
        <time>2022-07-08T09:07:47Z</time>
      </trkpt>
      <trkpt lat="41.86123" lon="0.9887264">
        <time>2022-07-08T09:07:48Z</time>
      </trkpt>
      <trkpt lat="41.861256" lon="0.9888787">
        <time>2022-07-08T09:07:49Z</time>
      </trkpt>
      <trkpt lat="41.861282" lon="0.9890307">
        <time>2022-07-08T09:07:50Z</time>
      </trkpt>
      <trkpt lat="41.861313" lon="0.98918205">
        <time>2022-07-08T09:07:51Z</time>
      </trkpt>
      <trkpt lat="41.86134" lon="0.98933303">
        <time>2022-07-08T09:07:52Z</time>
      </trkpt>
      <trkpt lat="41.86137" lon="0.98948306">
        <time>2022-07-08T09:07:53Z</time>
      </trkpt>
      <trkpt lat="41.861397" lon="0.98962206">
        <time>2022-07-08T09:07:54Z</time>
      </trkpt>
      <trkpt lat="41.861427" lon="0.989762">
        <time>2022-07-08T09:07:55Z</time>
      </trkpt>
      <trkpt lat="41.861496" lon="0.99004334">
        <time>2022-07-08T09:07:57Z</time>
      </trkpt>
      <trkpt lat="41.861534" lon="0.99018234">
        <time>2022-07-08T09:07:58Z</time>
      </trkpt>
      <trkpt lat="41.861576" lon="0.9903204">
        <time>2022-07-08T09:07:59Z</time>
      </trkpt>
      <trkpt lat="41.861618" lon="0.9904594">
        <time>2022-07-08T09:08:00Z</time>
      </trkpt>
      <trkpt lat="41.861664" lon="0.990598">
        <time>2022-07-08T09:08:01Z</time>
      </trkpt>
      <trkpt lat="41.86171" lon="0.99073535">
        <time>2022-07-08T09:08:02Z</time>
      </trkpt>
      <trkpt lat="41.86176" lon="0.99087167">
        <time>2022-07-08T09:08:03Z</time>
      </trkpt>
      <trkpt lat="41.86181" lon="0.9910073">
        <time>2022-07-08T09:08:04Z</time>
      </trkpt>
      <trkpt lat="41.86186" lon="0.99114233">
        <time>2022-07-08T09:08:05Z</time>
      </trkpt>
      <trkpt lat="41.861908" lon="0.991276">
        <time>2022-07-08T09:08:06Z</time>
      </trkpt>
      <trkpt lat="41.86196" lon="0.99141735">
        <time>2022-07-08T09:08:07Z</time>
      </trkpt>
      <trkpt lat="41.86201" lon="0.99154633">
        <time>2022-07-08T09:08:08Z</time>
      </trkpt>
      <trkpt lat="41.86206" lon="0.99168265">
        <time>2022-07-08T09:08:09Z</time>
      </trkpt>
      <trkpt lat="41.862114" lon="0.991816">
        <time>2022-07-08T09:08:10Z</time>
      </trkpt>
      <trkpt lat="41.862164" lon="0.991947">
        <time>2022-07-08T09:08:11Z</time>
      </trkpt>
      <trkpt lat="41.86221" lon="0.9920683">
        <time>2022-07-08T09:08:12Z</time>
      </trkpt>
      <trkpt lat="41.86225" lon="0.99218965">
        <time>2022-07-08T09:08:13Z</time>
      </trkpt>
      <trkpt lat="41.862297" lon="0.9923113">
        <time>2022-07-08T09:08:14Z</time>
      </trkpt>
      <trkpt lat="41.862343" lon="0.99244064">
        <time>2022-07-08T09:08:15Z</time>
      </trkpt>
      <trkpt lat="41.862392" lon="0.99256665">
        <time>2022-07-08T09:08:16Z</time>
      </trkpt>
      <trkpt lat="41.86244" lon="0.9926903">
        <time>2022-07-08T09:08:17Z</time>
      </trkpt>
      <trkpt lat="41.862484" lon="0.9928116">
        <time>2022-07-08T09:08:18Z</time>
      </trkpt>
      <trkpt lat="41.862526" lon="0.9929316">
        <time>2022-07-08T09:08:19Z</time>
      </trkpt>
      <trkpt lat="41.86257" lon="0.99305">
        <time>2022-07-08T09:08:20Z</time>
      </trkpt>
      <trkpt lat="41.862614" lon="0.9931653">
        <time>2022-07-08T09:08:21Z</time>
      </trkpt>
      <trkpt lat="41.862656" lon="0.99328065">
        <time>2022-07-08T09:08:22Z</time>
      </trkpt>
      <trkpt lat="41.8627" lon="0.9933959">
        <time>2022-07-08T09:08:23Z</time>
      </trkpt>
      <trkpt lat="41.862743" lon="0.99350995">
        <time>2022-07-08T09:08:24Z</time>
      </trkpt>
      <trkpt lat="41.862785" lon="0.9936226">
        <time>2022-07-08T09:08:25Z</time>
      </trkpt>
      <trkpt lat="41.862827" lon="0.9937346">
        <time>2022-07-08T09:08:26Z</time>
      </trkpt>
      <trkpt lat="41.86287" lon="0.9938453">
        <time>2022-07-08T09:08:27Z</time>
      </trkpt>
      <trkpt lat="41.86291" lon="0.99395394">
        <time>2022-07-08T09:08:28Z</time>
      </trkpt>
      <trkpt lat="41.86295" lon="0.99406093">
        <time>2022-07-08T09:08:29Z</time>
      </trkpt>
      <trkpt lat="41.86299" lon="0.9941669">
        <time>2022-07-08T09:08:30Z</time>
      </trkpt>
      <trkpt lat="41.86303" lon="0.9942709">
        <time>2022-07-08T09:08:31Z</time>
      </trkpt>
      <trkpt lat="41.863068" lon="0.9943739">
        <time>2022-07-08T09:08:32Z</time>
      </trkpt>
      <trkpt lat="41.86311" lon="0.9944766">
        <time>2022-07-08T09:08:33Z</time>
      </trkpt>
      <trkpt lat="41.863144" lon="0.9945772">
        <time>2022-07-08T09:08:34Z</time>
      </trkpt>
      <trkpt lat="41.863182" lon="0.99467826">
        <time>2022-07-08T09:08:35Z</time>
      </trkpt>
      <trkpt lat="41.86322" lon="0.99477893">
        <time>2022-07-08T09:08:36Z</time>
      </trkpt>
      <trkpt lat="41.86326" lon="0.9948786">
        <time>2022-07-08T09:08:37Z</time>
      </trkpt>
      <trkpt lat="41.863293" lon="0.9949769">
        <time>2022-07-08T09:08:38Z</time>
      </trkpt>
      <trkpt lat="41.86333" lon="0.9950749">
        <time>2022-07-08T09:08:39Z</time>
      </trkpt>
      <trkpt lat="41.863365" lon="0.9951652">
        <time>2022-07-08T09:08:40Z</time>
      </trkpt>
      <trkpt lat="41.8634" lon="0.9952632">
        <time>2022-07-08T09:08:41Z</time>
      </trkpt>
      <trkpt lat="41.863438" lon="0.99535954">
        <time>2022-07-08T09:08:42Z</time>
      </trkpt>
      <trkpt lat="41.863472" lon="0.99545556">
        <time>2022-07-08T09:08:43Z</time>
      </trkpt>
      <trkpt lat="41.86351" lon="0.9955509">
        <time>2022-07-08T09:08:44Z</time>
      </trkpt>
      <trkpt lat="41.86355" lon="0.9956469">
        <time>2022-07-08T09:08:45Z</time>
      </trkpt>
      <trkpt lat="41.863583" lon="0.99574256">
        <time>2022-07-08T09:08:46Z</time>
      </trkpt>
      <trkpt lat="41.86362" lon="0.9958385">
        <time>2022-07-08T09:08:47Z</time>
      </trkpt>
      <trkpt lat="41.86366" lon="0.9959342">
        <time>2022-07-08T09:08:48Z</time>
      </trkpt>
      <trkpt lat="41.863693" lon="0.99603087">
        <time>2022-07-08T09:08:49Z</time>
      </trkpt>
      <trkpt lat="41.86373" lon="0.99612755">
        <time>2022-07-08T09:08:50Z</time>
      </trkpt>
      <trkpt lat="41.863766" lon="0.99622387">
        <time>2022-07-08T09:08:51Z</time>
      </trkpt>
      <trkpt lat="41.863804" lon="0.99632186">
        <time>2022-07-08T09:08:52Z</time>
      </trkpt>
      <trkpt lat="41.863842" lon="0.9964192">
        <time>2022-07-08T09:08:53Z</time>
      </trkpt>
      <trkpt lat="41.863876" lon="0.9965168">
        <time>2022-07-08T09:08:54Z</time>
      </trkpt>
      <trkpt lat="41.863914" lon="0.9966149">
        <time>2022-07-08T09:08:55Z</time>
      </trkpt>
      <trkpt lat="41.86395" lon="0.9967115">
        <time>2022-07-08T09:08:56Z</time>
      </trkpt>
      <trkpt lat="41.86402" lon="0.99690616">
        <time>2022-07-08T09:08:58Z</time>
      </trkpt>
      <trkpt lat="41.86406" lon="0.9970032">
        <time>2022-07-08T09:08:59Z</time>
      </trkpt>
      <trkpt lat="41.864094" lon="0.9971002">
        <time>2022-07-08T09:09:00Z</time>
      </trkpt>
      <trkpt lat="41.864132" lon="0.99719685">
        <time>2022-07-08T09:09:01Z</time>
      </trkpt>
      <trkpt lat="41.86417" lon="0.9972932">
        <time>2022-07-08T09:09:02Z</time>
      </trkpt>
      <trkpt lat="41.864204" lon="0.9973895">
        <time>2022-07-08T09:09:03Z</time>
      </trkpt>
      <trkpt lat="41.864243" lon="0.9974871">
        <time>2022-07-08T09:09:04Z</time>
      </trkpt>
      <trkpt lat="41.86428" lon="0.9975855">
        <time>2022-07-08T09:09:05Z</time>
      </trkpt>
      <trkpt lat="41.86432" lon="0.9976841">
        <time>2022-07-08T09:09:06Z</time>
      </trkpt>
      <trkpt lat="41.864357" lon="0.9977835">
        <time>2022-07-08T09:09:07Z</time>
      </trkpt>
      <trkpt lat="41.864395" lon="0.99788314">
        <time>2022-07-08T09:09:08Z</time>
      </trkpt>
      <trkpt lat="41.864433" lon="0.9979828">
        <time>2022-07-08T09:09:09Z</time>
      </trkpt>
      <trkpt lat="41.86447" lon="0.9980841">
        <time>2022-07-08T09:09:10Z</time>
      </trkpt>
      <trkpt lat="41.864513" lon="0.99818546">
        <time>2022-07-08T09:09:11Z</time>
      </trkpt>
      <trkpt lat="41.864548" lon="0.9982864">
        <time>2022-07-08T09:09:12Z</time>
      </trkpt>
      <trkpt lat="41.864586" lon="0.99838775">
        <time>2022-07-08T09:09:13Z</time>
      </trkpt>
      <trkpt lat="41.864624" lon="0.9984888">
        <time>2022-07-08T09:09:14Z</time>
      </trkpt>
      <trkpt lat="41.864662" lon="0.9985891">
        <time>2022-07-08T09:09:15Z</time>
      </trkpt>
      <trkpt lat="41.8647" lon="0.99868774">
        <time>2022-07-08T09:09:16Z</time>
      </trkpt>
      <trkpt lat="41.86474" lon="0.99878544">
        <time>2022-07-08T09:09:17Z</time>
      </trkpt>
      <trkpt lat="41.864777" lon="0.99888146">
        <time>2022-07-08T09:09:18Z</time>
      </trkpt>
      <trkpt lat="41.864815" lon="0.9989774">
        <time>2022-07-08T09:09:19Z</time>
      </trkpt>
      <trkpt lat="41.86485" lon="0.99907243">
        <time>2022-07-08T09:09:20Z</time>
      </trkpt>
      <trkpt lat="41.864887" lon="0.99916744">
        <time>2022-07-08T09:09:21Z</time>
      </trkpt>
      <trkpt lat="41.864925" lon="0.9992611">
        <time>2022-07-08T09:09:22Z</time>
      </trkpt>
      <trkpt lat="41.864964" lon="0.9993548">
        <time>2022-07-08T09:09:23Z</time>
      </trkpt>
      <trkpt lat="41.865" lon="0.9994484">
        <time>2022-07-08T09:09:24Z</time>
      </trkpt>
      <trkpt lat="41.86504" lon="0.9995424">
        <time>2022-07-08T09:09:25Z</time>
      </trkpt>
      <trkpt lat="41.865074" lon="0.9996364">
        <time>2022-07-08T09:09:26Z</time>
      </trkpt>
      <trkpt lat="41.865116" lon="0.99973106">
        <time>2022-07-08T09:09:27Z</time>
      </trkpt>
      <trkpt lat="41.865158" lon="0.9998264">
        <time>2022-07-08T09:09:28Z</time>
      </trkpt>
      <trkpt lat="41.8652" lon="0.99992275">
        <time>2022-07-08T09:09:29Z</time>
      </trkpt>
      <trkpt lat="41.86524" lon="1.0000204">
        <time>2022-07-08T09:09:30Z</time>
      </trkpt>
      <trkpt lat="41.865284" lon="1.0001197">
        <time>2022-07-08T09:09:31Z</time>
      </trkpt>
      <trkpt lat="41.865326" lon="1.000221">
        <time>2022-07-08T09:09:32Z</time>
      </trkpt>
      <trkpt lat="41.865368" lon="1.0003247">
        <time>2022-07-08T09:09:33Z</time>
      </trkpt>
      <trkpt lat="41.86541" lon="1.0004227">
        <time>2022-07-08T09:09:34Z</time>
      </trkpt>
      <trkpt lat="41.865456" lon="1.0005248">
        <time>2022-07-08T09:09:35Z</time>
      </trkpt>
      <trkpt lat="41.865498" lon="1.0006297">
        <time>2022-07-08T09:09:36Z</time>
      </trkpt>
      <trkpt lat="41.865543" lon="1.000738">
        <time>2022-07-08T09:09:37Z</time>
      </trkpt>
      <trkpt lat="41.865593" lon="1.0008574">
        <time>2022-07-08T09:09:38Z</time>
      </trkpt>
      <trkpt lat="41.865643" lon="1.000978">
        <time>2022-07-08T09:09:39Z</time>
      </trkpt>
      <trkpt lat="41.865696" lon="1.001101">
        <time>2022-07-08T09:09:40Z</time>
      </trkpt>
      <trkpt lat="41.865746" lon="1.0012261">
        <time>2022-07-08T09:09:41Z</time>
      </trkpt>
      <trkpt lat="41.8658" lon="1.001353">
        <time>2022-07-08T09:09:42Z</time>
      </trkpt>
      <trkpt lat="41.865852" lon="1.0014827">
        <time>2022-07-08T09:09:43Z</time>
      </trkpt>
      <trkpt lat="41.86591" lon="1.0016137">
        <time>2022-07-08T09:09:44Z</time>
      </trkpt>
      <trkpt lat="41.865967" lon="1.0017463">
        <time>2022-07-08T09:09:45Z</time>
      </trkpt>
      <trkpt lat="41.866024" lon="1.001881">
        <time>2022-07-08T09:09:46Z</time>
      </trkpt>
      <trkpt lat="41.86608" lon="1.0020167">
        <time>2022-07-08T09:09:47Z</time>
      </trkpt>
      <trkpt lat="41.86614" lon="1.0021533">
        <time>2022-07-08T09:09:48Z</time>
      </trkpt>
      <trkpt lat="41.8662" lon="1.0022913">
        <time>2022-07-08T09:09:49Z</time>
      </trkpt>
      <trkpt lat="41.866257" lon="1.0024307">
        <time>2022-07-08T09:09:50Z</time>
      </trkpt>
      <trkpt lat="41.866318" lon="1.002571">
        <time>2022-07-08T09:09:51Z</time>
      </trkpt>
      <trkpt lat="41.86638" lon="1.0027124">
        <time>2022-07-08T09:09:52Z</time>
      </trkpt>
      <trkpt lat="41.86644" lon="1.0028553">
        <time>2022-07-08T09:09:53Z</time>
      </trkpt>
      <trkpt lat="41.8665" lon="1.0029997">
        <time>2022-07-08T09:09:54Z</time>
      </trkpt>
      <trkpt lat="41.866558" lon="1.0031446">
        <time>2022-07-08T09:09:55Z</time>
      </trkpt>
      <trkpt lat="41.86662" lon="1.0032897">
        <time>2022-07-08T09:09:56Z</time>
      </trkpt>
      <trkpt lat="41.86668" lon="1.0034356">
        <time>2022-07-08T09:09:57Z</time>
      </trkpt>
      <trkpt lat="41.86674" lon="1.0035826">
        <time>2022-07-08T09:09:58Z</time>
      </trkpt>
      <trkpt lat="41.86686" lon="1.0038763">
        <time>2022-07-08T09:10:00Z</time>
      </trkpt>
      <trkpt lat="41.86692" lon="1.0040226">
        <time>2022-07-08T09:10:01Z</time>
      </trkpt>
      <trkpt lat="41.86698" lon="1.0041686">
        <time>2022-07-08T09:10:02Z</time>
      </trkpt>
      <trkpt lat="41.867043" lon="1.0043147">
        <time>2022-07-08T09:10:03Z</time>
      </trkpt>
      <trkpt lat="41.867104" lon="1.00446">
        <time>2022-07-08T09:10:04Z</time>
      </trkpt>
      <trkpt lat="41.867165" lon="1.0046049">
        <time>2022-07-08T09:10:05Z</time>
      </trkpt>
      <trkpt lat="41.867226" lon="1.0047493">
        <time>2022-07-08T09:10:06Z</time>
      </trkpt>
      <trkpt lat="41.867287" lon="1.0048933">
        <time>2022-07-08T09:10:07Z</time>
      </trkpt>
      <trkpt lat="41.867348" lon="1.0050377">
        <time>2022-07-08T09:10:08Z</time>
      </trkpt>
      <trkpt lat="41.86741" lon="1.0051833">
        <time>2022-07-08T09:10:09Z</time>
      </trkpt>
      <trkpt lat="41.867474" lon="1.00533">
        <time>2022-07-08T09:10:10Z</time>
      </trkpt>
      <trkpt lat="41.867535" lon="1.005477">
        <time>2022-07-08T09:10:11Z</time>
      </trkpt>
      <trkpt lat="41.867596" lon="1.0056243">
        <time>2022-07-08T09:10:12Z</time>
      </trkpt>
      <trkpt lat="41.86766" lon="1.0057726">
        <time>2022-07-08T09:10:13Z</time>
      </trkpt>
      <trkpt lat="41.86772" lon="1.0059216">
        <time>2022-07-08T09:10:14Z</time>
      </trkpt>
      <trkpt lat="41.867783" lon="1.0060699">
        <time>2022-07-08T09:10:15Z</time>
      </trkpt>
      <trkpt lat="41.867844" lon="1.0062186">
        <time>2022-07-08T09:10:16Z</time>
      </trkpt>
      <trkpt lat="41.867905" lon="1.0063683">
        <time>2022-07-08T09:10:17Z</time>
      </trkpt>
      <trkpt lat="41.867966" lon="1.0065179">
        <time>2022-07-08T09:10:18Z</time>
      </trkpt>
      <trkpt lat="41.868027" lon="1.006668">
        <time>2022-07-08T09:10:19Z</time>
      </trkpt>
      <trkpt lat="41.86809" lon="1.0068172">
        <time>2022-07-08T09:10:20Z</time>
      </trkpt>
      <trkpt lat="41.868153" lon="1.0069662">
        <time>2022-07-08T09:10:21Z</time>
      </trkpt>
      <trkpt lat="41.868214" lon="1.0071152">
        <time>2022-07-08T09:10:22Z</time>
      </trkpt>
      <trkpt lat="41.868275" lon="1.0072643">
        <time>2022-07-08T09:10:23Z</time>
      </trkpt>
      <trkpt lat="41.868336" lon="1.0074126">
        <time>2022-07-08T09:10:24Z</time>
      </trkpt>
      <trkpt lat="41.8684" lon="1.0075599">
        <time>2022-07-08T09:10:25Z</time>
      </trkpt>
      <trkpt lat="41.86846" lon="1.0077076">
        <time>2022-07-08T09:10:26Z</time>
      </trkpt>
      <trkpt lat="41.868523" lon="1.0078539">
        <time>2022-07-08T09:10:27Z</time>
      </trkpt>
      <trkpt lat="41.86858" lon="1.0079986">
        <time>2022-07-08T09:10:28Z</time>
      </trkpt>
      <trkpt lat="41.86864" lon="1.0081426">
        <time>2022-07-08T09:10:29Z</time>
      </trkpt>
      <trkpt lat="41.868702" lon="1.0082862">
        <time>2022-07-08T09:10:30Z</time>
      </trkpt>
      <trkpt lat="41.86876" lon="1.0084295">
        <time>2022-07-08T09:10:31Z</time>
      </trkpt>
      <trkpt lat="41.86882" lon="1.0085729">
        <time>2022-07-08T09:10:32Z</time>
      </trkpt>
      <trkpt lat="41.868877" lon="1.0087142">
        <time>2022-07-08T09:10:33Z</time>
      </trkpt>
      <trkpt lat="41.86894" lon="1.0088549">
        <time>2022-07-08T09:10:34Z</time>
      </trkpt>
      <trkpt lat="41.868996" lon="1.0089942">
        <time>2022-07-08T09:10:35Z</time>
      </trkpt>
      <trkpt lat="41.869053" lon="1.0091338">
        <time>2022-07-08T09:10:36Z</time>
      </trkpt>
      <trkpt lat="41.869106" lon="1.0092642">
        <time>2022-07-08T09:10:37Z</time>
      </trkpt>
      <trkpt lat="41.86916" lon="1.0094066">
        <time>2022-07-08T09:10:38Z</time>
      </trkpt>
      <trkpt lat="41.86921" lon="1.0095489">
        <time>2022-07-08T09:10:39Z</time>
      </trkpt>
      <trkpt lat="41.869255" lon="1.0096909">
        <time>2022-07-08T09:10:40Z</time>
      </trkpt>
      <trkpt lat="41.8693" lon="1.0098315">
        <time>2022-07-08T09:10:41Z</time>
      </trkpt>
      <trkpt lat="41.869343" lon="1.0099708">
        <time>2022-07-08T09:10:42Z</time>
      </trkpt>
      <trkpt lat="41.86938" lon="1.0101095">
        <time>2022-07-08T09:10:43Z</time>
      </trkpt>
      <trkpt lat="41.86942" lon="1.0102462">
        <time>2022-07-08T09:10:44Z</time>
      </trkpt>
      <trkpt lat="41.869595" lon="1.0109318">
        <time>2022-07-08T09:10:47Z</time>
      </trkpt>
      <trkpt lat="41.869602" lon="1.0109642">
        <time>2022-07-08T09:10:48Z</time>
      </trkpt>
      <trkpt lat="41.869637" lon="1.0111225">
        <time>2022-07-08T09:10:50Z</time>
      </trkpt>
      <trkpt lat="41.869663" lon="1.0112292">
        <time>2022-07-08T09:10:51Z</time>
      </trkpt>
      <trkpt lat="41.86969" lon="1.0113451">
        <time>2022-07-08T09:10:52Z</time>
      </trkpt>
      <trkpt lat="41.86972" lon="1.0114652">
        <time>2022-07-08T09:10:53Z</time>
      </trkpt>
      <trkpt lat="41.869747" lon="1.0115885">
        <time>2022-07-08T09:10:54Z</time>
      </trkpt>
      <trkpt lat="41.869778" lon="1.0117128">
        <time>2022-07-08T09:10:55Z</time>
      </trkpt>
      <trkpt lat="41.86981" lon="1.0118381">
        <time>2022-07-08T09:10:56Z</time>
      </trkpt>
      <trkpt lat="41.86984" lon="1.0119631">
        <time>2022-07-08T09:10:57Z</time>
      </trkpt>
      <trkpt lat="41.869873" lon="1.0120884">
        <time>2022-07-08T09:10:58Z</time>
      </trkpt>
      <trkpt lat="41.8699" lon="1.0122135">
        <time>2022-07-08T09:10:59Z</time>
      </trkpt>
      <trkpt lat="41.869934" lon="1.0123385">
        <time>2022-07-08T09:11:00Z</time>
      </trkpt>
      <trkpt lat="41.869965" lon="1.0124638">
        <time>2022-07-08T09:11:01Z</time>
      </trkpt>
      <trkpt lat="41.870026" lon="1.0127138">
        <time>2022-07-08T09:11:03Z</time>
      </trkpt>
      <trkpt lat="41.870056" lon="1.0128388">
        <time>2022-07-08T09:11:04Z</time>
      </trkpt>
      <trkpt lat="41.870087" lon="1.0129638">
        <time>2022-07-08T09:11:05Z</time>
      </trkpt>
      <trkpt lat="41.87012" lon="1.0130894">
        <time>2022-07-08T09:11:06Z</time>
      </trkpt>
      <trkpt lat="41.87015" lon="1.0132148">
        <time>2022-07-08T09:11:07Z</time>
      </trkpt>
      <trkpt lat="41.870182" lon="1.0133394">
        <time>2022-07-08T09:11:08Z</time>
      </trkpt>
      <trkpt lat="41.87021" lon="1.0134637">
        <time>2022-07-08T09:11:09Z</time>
      </trkpt>
      <trkpt lat="41.87024" lon="1.0135871">
        <time>2022-07-08T09:11:10Z</time>
      </trkpt>
      <trkpt lat="41.87027" lon="1.0137094">
        <time>2022-07-08T09:11:11Z</time>
      </trkpt>
      <trkpt lat="41.8703" lon="1.0138314">
        <time>2022-07-08T09:11:12Z</time>
      </trkpt>
      <trkpt lat="41.87033" lon="1.0139527">
        <time>2022-07-08T09:11:13Z</time>
      </trkpt>
      <trkpt lat="41.870358" lon="1.0140744">
        <time>2022-07-08T09:11:14Z</time>
      </trkpt>
      <trkpt lat="41.870388" lon="1.0141954">
        <time>2022-07-08T09:11:15Z</time>
      </trkpt>
      <trkpt lat="41.87042" lon="1.0143148">
        <time>2022-07-08T09:11:16Z</time>
      </trkpt>
      <trkpt lat="41.870445" lon="1.0144341">
        <time>2022-07-08T09:11:17Z</time>
      </trkpt>
      <trkpt lat="41.870472" lon="1.0145518">
        <time>2022-07-08T09:11:18Z</time>
      </trkpt>
      <trkpt lat="41.870502" lon="1.0146704">
        <time>2022-07-08T09:11:19Z</time>
      </trkpt>
      <trkpt lat="41.87053" lon="1.0147887">
        <time>2022-07-08T09:11:20Z</time>
      </trkpt>
      <trkpt lat="41.87056" lon="1.014907">
        <time>2022-07-08T09:11:21Z</time>
      </trkpt>
      <trkpt lat="41.870586" lon="1.0150244">
        <time>2022-07-08T09:11:22Z</time>
      </trkpt>
      <trkpt lat="41.870617" lon="1.0151417">
        <time>2022-07-08T09:11:23Z</time>
      </trkpt>
      <trkpt lat="41.870644" lon="1.0152584">
        <time>2022-07-08T09:11:24Z</time>
      </trkpt>
      <trkpt lat="41.870674" lon="1.0153761">
        <time>2022-07-08T09:11:25Z</time>
      </trkpt>
      <trkpt lat="41.870705" lon="1.0154921">
        <time>2022-07-08T09:11:26Z</time>
      </trkpt>
      <trkpt lat="41.870735" lon="1.015607">
        <time>2022-07-08T09:11:27Z</time>
      </trkpt>
      <trkpt lat="41.870766" lon="1.0157217">
        <time>2022-07-08T09:11:28Z</time>
      </trkpt>
      <trkpt lat="41.8708" lon="1.0158354">
        <time>2022-07-08T09:11:29Z</time>
      </trkpt>
      <trkpt lat="41.870834" lon="1.0159487">
        <time>2022-07-08T09:11:30Z</time>
      </trkpt>
      <trkpt lat="41.87087" lon="1.0160613">
        <time>2022-07-08T09:11:31Z</time>
      </trkpt>
      <trkpt lat="41.870903" lon="1.0161724">
        <time>2022-07-08T09:11:32Z</time>
      </trkpt>
      <trkpt lat="41.87094" lon="1.016283">
        <time>2022-07-08T09:11:33Z</time>
      </trkpt>
      <trkpt lat="41.870975" lon="1.0163933">
        <time>2022-07-08T09:11:34Z</time>
      </trkpt>
      <trkpt lat="41.871014" lon="1.0165033">
        <time>2022-07-08T09:11:35Z</time>
      </trkpt>
      <trkpt lat="41.87105" lon="1.016613">
        <time>2022-07-08T09:11:36Z</time>
      </trkpt>
      <trkpt lat="41.87109" lon="1.016723">
        <time>2022-07-08T09:11:37Z</time>
      </trkpt>
      <trkpt lat="41.871124" lon="1.0168333">
        <time>2022-07-08T09:11:38Z</time>
      </trkpt>
      <trkpt lat="41.871166" lon="1.0169446">
        <time>2022-07-08T09:11:39Z</time>
      </trkpt>
      <trkpt lat="41.871204" lon="1.0170573">
        <time>2022-07-08T09:11:40Z</time>
      </trkpt>
      <trkpt lat="41.871243" lon="1.0171703">
        <time>2022-07-08T09:11:41Z</time>
      </trkpt>
      <trkpt lat="41.87128" lon="1.0172826">
        <time>2022-07-08T09:11:42Z</time>
      </trkpt>
      <trkpt lat="41.87132" lon="1.017395">
        <time>2022-07-08T09:11:43Z</time>
      </trkpt>
      <trkpt lat="41.871357" lon="1.0175056">
        <time>2022-07-08T09:11:44Z</time>
      </trkpt>
      <trkpt lat="41.871395" lon="1.0176159">
        <time>2022-07-08T09:11:45Z</time>
      </trkpt>
      <trkpt lat="41.871437" lon="1.0177253">
        <time>2022-07-08T09:11:46Z</time>
      </trkpt>
      <trkpt lat="41.871475" lon="1.0178349">
        <time>2022-07-08T09:11:47Z</time>
      </trkpt>
      <trkpt lat="41.871513" lon="1.0179449">
        <time>2022-07-08T09:11:48Z</time>
      </trkpt>
      <trkpt lat="41.87155" lon="1.0180537">
        <time>2022-07-08T09:11:49Z</time>
      </trkpt>
      <trkpt lat="41.87159" lon="1.0181617">
        <time>2022-07-08T09:11:50Z</time>
      </trkpt>
      <trkpt lat="41.871624" lon="1.0182697">
        <time>2022-07-08T09:11:51Z</time>
      </trkpt>
      <trkpt lat="41.871662" lon="1.0183779">
        <time>2022-07-08T09:11:52Z</time>
      </trkpt>
      <trkpt lat="41.8717" lon="1.0184873">
        <time>2022-07-08T09:11:53Z</time>
      </trkpt>
      <trkpt lat="41.87174" lon="1.0185976">
        <time>2022-07-08T09:11:54Z</time>
      </trkpt>
      <trkpt lat="41.871777" lon="1.018708">
        <time>2022-07-08T09:11:55Z</time>
      </trkpt>
      <trkpt lat="41.87181" lon="1.018819">
        <time>2022-07-08T09:11:56Z</time>
      </trkpt>
      <trkpt lat="41.871845" lon="1.0189303">
        <time>2022-07-08T09:11:57Z</time>
      </trkpt>
      <trkpt lat="41.87188" lon="1.0190423">
        <time>2022-07-08T09:11:58Z</time>
      </trkpt>
      <trkpt lat="41.87191" lon="1.0191556">
        <time>2022-07-08T09:11:59Z</time>
      </trkpt>
      <trkpt lat="41.871937" lon="1.0192696">
        <time>2022-07-08T09:12:00Z</time>
      </trkpt>
      <trkpt lat="41.871964" lon="1.0193856">
        <time>2022-07-08T09:12:01Z</time>
      </trkpt>
      <trkpt lat="41.87199" lon="1.0195026">
        <time>2022-07-08T09:12:02Z</time>
      </trkpt>
      <trkpt lat="41.872013" lon="1.0196209">
        <time>2022-07-08T09:12:03Z</time>
      </trkpt>
      <trkpt lat="41.872032" lon="1.0197393">
        <time>2022-07-08T09:12:04Z</time>
      </trkpt>
      <trkpt lat="41.872063" lon="1.0199716">
        <time>2022-07-08T09:12:06Z</time>
      </trkpt>
      <trkpt lat="41.872074" lon="1.0200936">
        <time>2022-07-08T09:12:07Z</time>
      </trkpt>
      <trkpt lat="41.872078" lon="1.0202146">
        <time>2022-07-08T09:12:08Z</time>
      </trkpt>
      <trkpt lat="41.87208" lon="1.0203359">
        <time>2022-07-08T09:12:09Z</time>
      </trkpt>
      <trkpt lat="41.87208" lon="1.0204579">
        <time>2022-07-08T09:12:10Z</time>
      </trkpt>
      <trkpt lat="41.87208" lon="1.0205789">
        <time>2022-07-08T09:12:11Z</time>
      </trkpt>
      <trkpt lat="41.872074" lon="1.0206989">
        <time>2022-07-08T09:12:12Z</time>
      </trkpt>
      <trkpt lat="41.872066" lon="1.0208182">
        <time>2022-07-08T09:12:13Z</time>
      </trkpt>
      <trkpt lat="41.872055" lon="1.0209372">
        <time>2022-07-08T09:12:14Z</time>
      </trkpt>
      <trkpt lat="41.872044" lon="1.0210552">
        <time>2022-07-08T09:12:15Z</time>
      </trkpt>
      <trkpt lat="41.87203" lon="1.0211725">
        <time>2022-07-08T09:12:16Z</time>
      </trkpt>
      <trkpt lat="41.872017" lon="1.0212892">
        <time>2022-07-08T09:12:17Z</time>
      </trkpt>
      <trkpt lat="41.871998" lon="1.0214046">
        <time>2022-07-08T09:12:18Z</time>
      </trkpt>
      <trkpt lat="41.871983" lon="1.0215195">
        <time>2022-07-08T09:12:19Z</time>
      </trkpt>
      <trkpt lat="41.871967" lon="1.0216342">
        <time>2022-07-08T09:12:20Z</time>
      </trkpt>
      <trkpt lat="41.87195" lon="1.0217485">
        <time>2022-07-08T09:12:21Z</time>
      </trkpt>
      <trkpt lat="41.871933" lon="1.0218616">
        <time>2022-07-08T09:12:22Z</time>
      </trkpt>
      <trkpt lat="41.871918" lon="1.0219736">
        <time>2022-07-08T09:12:23Z</time>
      </trkpt>
      <trkpt lat="41.871902" lon="1.0220779">
        <time>2022-07-08T09:12:24Z</time>
      </trkpt>
      <trkpt lat="41.871887" lon="1.0221839">
        <time>2022-07-08T09:12:25Z</time>
      </trkpt>
      <trkpt lat="41.87187" lon="1.0222902">
        <time>2022-07-08T09:12:26Z</time>
      </trkpt>
      <trkpt lat="41.871853" lon="1.0224038">
        <time>2022-07-08T09:12:27Z</time>
      </trkpt>
      <trkpt lat="41.87184" lon="1.0225155">
        <time>2022-07-08T09:12:28Z</time>
      </trkpt>
      <trkpt lat="41.871826" lon="1.0226245">
        <time>2022-07-08T09:12:29Z</time>
      </trkpt>
      <trkpt lat="41.87181" lon="1.0227319">
        <time>2022-07-08T09:12:30Z</time>
      </trkpt>
      <trkpt lat="41.8718" lon="1.0228372">
        <time>2022-07-08T09:12:31Z</time>
      </trkpt>
      <trkpt lat="41.871788" lon="1.0229342">
        <time>2022-07-08T09:12:32Z</time>
      </trkpt>
      <trkpt lat="41.87178" lon="1.0230322">
        <time>2022-07-08T09:12:33Z</time>
      </trkpt>
      <trkpt lat="41.87177" lon="1.0231298">
        <time>2022-07-08T09:12:34Z</time>
      </trkpt>
      <trkpt lat="41.87176" lon="1.0232269">
        <time>2022-07-08T09:12:35Z</time>
      </trkpt>
      <trkpt lat="41.871754" lon="1.0233241">
        <time>2022-07-08T09:12:36Z</time>
      </trkpt>
      <trkpt lat="41.87175" lon="1.0234199">
        <time>2022-07-08T09:12:37Z</time>
      </trkpt>
      <trkpt lat="41.871742" lon="1.0235132">
        <time>2022-07-08T09:12:38Z</time>
      </trkpt>
      <trkpt lat="41.871742" lon="1.0236115">
        <time>2022-07-08T09:12:39Z</time>
      </trkpt>
      <trkpt lat="41.87174" lon="1.0237072">
        <time>2022-07-08T09:12:40Z</time>
      </trkpt>
      <trkpt lat="41.87174" lon="1.0237949">
        <time>2022-07-08T09:12:41Z</time>
      </trkpt>
      <trkpt lat="41.87174" lon="1.0238822">
        <time>2022-07-08T09:12:42Z</time>
      </trkpt>
      <trkpt lat="41.87174" lon="1.0239688">
        <time>2022-07-08T09:12:43Z</time>
      </trkpt>
      <trkpt lat="41.871742" lon="1.0240545">
        <time>2022-07-08T09:12:44Z</time>
      </trkpt>
      <trkpt lat="41.871746" lon="1.0241392">
        <time>2022-07-08T09:12:45Z</time>
      </trkpt>
      <trkpt lat="41.871746" lon="1.0242225">
        <time>2022-07-08T09:12:46Z</time>
      </trkpt>
      <trkpt lat="41.87175" lon="1.0243045">
        <time>2022-07-08T09:12:47Z</time>
      </trkpt>
      <trkpt lat="41.871758" lon="1.0243855">
        <time>2022-07-08T09:12:48Z</time>
      </trkpt>
      <trkpt lat="41.87176" lon="1.0244651">
        <time>2022-07-08T09:12:49Z</time>
      </trkpt>
      <trkpt lat="41.87177" lon="1.0245432">
        <time>2022-07-08T09:12:50Z</time>
      </trkpt>
      <trkpt lat="41.871777" lon="1.0246252">
        <time>2022-07-08T09:12:51Z</time>
      </trkpt>
      <trkpt lat="41.871784" lon="1.0247035">
        <time>2022-07-08T09:12:52Z</time>
      </trkpt>
      <trkpt lat="41.87179" lon="1.0247805">
        <time>2022-07-08T09:12:53Z</time>
      </trkpt>
      <trkpt lat="41.8718" lon="1.0248551">
        <time>2022-07-08T09:12:54Z</time>
      </trkpt>
      <trkpt lat="41.871807" lon="1.0249281">
        <time>2022-07-08T09:12:55Z</time>
      </trkpt>
      <trkpt lat="41.87182" lon="1.0250008">
        <time>2022-07-08T09:12:56Z</time>
      </trkpt>
      <trkpt lat="41.871826" lon="1.0250721">
        <time>2022-07-08T09:12:57Z</time>
      </trkpt>
      <trkpt lat="41.871838" lon="1.0251417">
        <time>2022-07-08T09:12:58Z</time>
      </trkpt>
      <trkpt lat="41.871845" lon="1.0252104">
        <time>2022-07-08T09:12:59Z</time>
      </trkpt>
      <trkpt lat="41.871857" lon="1.0252784">
        <time>2022-07-08T09:13:00Z</time>
      </trkpt>
      <trkpt lat="41.871876" lon="1.0254141">
        <time>2022-07-08T09:13:02Z</time>
      </trkpt>
      <trkpt lat="41.871883" lon="1.0254798">
        <time>2022-07-08T09:13:03Z</time>
      </trkpt>
      <trkpt lat="41.871902" lon="1.0256044">
        <time>2022-07-08T09:13:05Z</time>
      </trkpt>
      <trkpt lat="41.871914" lon="1.0256671">
        <time>2022-07-08T09:13:06Z</time>
      </trkpt>
      <trkpt lat="41.87194" lon="1.0258454">
        <time>2022-07-08T09:13:09Z</time>
      </trkpt>
      <trkpt lat="41.87196" lon="1.025964">
        <time>2022-07-08T09:13:11Z</time>
      </trkpt>
      <trkpt lat="41.87198" lon="1.0260731">
        <time>2022-07-08T09:13:13Z</time>
      </trkpt>
      <trkpt lat="41.871998" lon="1.0261794">
        <time>2022-07-08T09:13:15Z</time>
      </trkpt>
      <trkpt lat="41.872013" lon="1.026285">
        <time>2022-07-08T09:13:17Z</time>
      </trkpt>
      <trkpt lat="41.872025" lon="1.0263944">
        <time>2022-07-08T09:13:19Z</time>
      </trkpt>
      <trkpt lat="41.87204" lon="1.0264997">
        <time>2022-07-08T09:13:21Z</time>
      </trkpt>
      <trkpt lat="41.87205" lon="1.0266091">
        <time>2022-07-08T09:13:23Z</time>
      </trkpt>
      <trkpt lat="41.872066" lon="1.026721">
        <time>2022-07-08T09:13:25Z</time>
      </trkpt>
      <trkpt lat="41.872086" lon="1.0268353">
        <time>2022-07-08T09:13:27Z</time>
      </trkpt>
      <trkpt lat="41.872105" lon="1.026952">
        <time>2022-07-08T09:13:29Z</time>
      </trkpt>
      <trkpt lat="41.872124" lon="1.0270677">
        <time>2022-07-08T09:13:31Z</time>
      </trkpt>
      <trkpt lat="41.872143" lon="1.0271844">
        <time>2022-07-08T09:13:33Z</time>
      </trkpt>
      <trkpt lat="41.872158" lon="1.0273004">
        <time>2022-07-08T09:13:35Z</time>
      </trkpt>
      <trkpt lat="41.872173" lon="1.0274177">
        <time>2022-07-08T09:13:37Z</time>
      </trkpt>
      <trkpt lat="41.872185" lon="1.027541">
        <time>2022-07-08T09:13:39Z</time>
      </trkpt>
      <trkpt lat="41.872192" lon="1.0276023">
        <time>2022-07-08T09:13:40Z</time>
      </trkpt>
      <trkpt lat="41.87221" lon="1.0277283">
        <time>2022-07-08T09:13:42Z</time>
      </trkpt>
      <trkpt lat="41.87222" lon="1.0277953">
        <time>2022-07-08T09:13:43Z</time>
      </trkpt>
      <trkpt lat="41.87224" lon="1.027925">
        <time>2022-07-08T09:13:45Z</time>
      </trkpt>
      <trkpt lat="41.872257" lon="1.028055">
        <time>2022-07-08T09:13:47Z</time>
      </trkpt>
      <trkpt lat="41.87228" lon="1.0281906">
        <time>2022-07-08T09:13:49Z</time>
      </trkpt>
      <trkpt lat="41.872288" lon="1.0282613">
        <time>2022-07-08T09:13:50Z</time>
      </trkpt>
      <trkpt lat="41.8723" lon="1.0283333">
        <time>2022-07-08T09:13:51Z</time>
      </trkpt>
      <trkpt lat="41.872307" lon="1.028407">
        <time>2022-07-08T09:13:52Z</time>
      </trkpt>
      <trkpt lat="41.872314" lon="1.0284766">
        <time>2022-07-08T09:13:53Z</time>
      </trkpt>
      <trkpt lat="41.872322" lon="1.028553">
        <time>2022-07-08T09:13:54Z</time>
      </trkpt>
      <trkpt lat="41.872334" lon="1.0286306">
        <time>2022-07-08T09:13:55Z</time>
      </trkpt>
      <trkpt lat="41.872345" lon="1.0287046">
        <time>2022-07-08T09:13:56Z</time>
      </trkpt>
      <trkpt lat="41.872356" lon="1.02878">
        <time>2022-07-08T09:13:57Z</time>
      </trkpt>
      <trkpt lat="41.872368" lon="1.028858">
        <time>2022-07-08T09:13:58Z</time>
      </trkpt>
      <trkpt lat="41.87238" lon="1.0289433">
        <time>2022-07-08T09:13:59Z</time>
      </trkpt>
      <trkpt lat="41.872395" lon="1.0290293">
        <time>2022-07-08T09:14:00Z</time>
      </trkpt>
      <trkpt lat="41.872406" lon="1.0291157">
        <time>2022-07-08T09:14:01Z</time>
      </trkpt>
      <trkpt lat="41.87242" lon="1.0291966">
        <time>2022-07-08T09:14:02Z</time>
      </trkpt>
      <trkpt lat="41.872433" lon="1.0292807">
        <time>2022-07-08T09:14:03Z</time>
      </trkpt>
      <trkpt lat="41.872444" lon="1.0293666">
        <time>2022-07-08T09:14:04Z</time>
      </trkpt>
      <trkpt lat="41.87246" lon="1.0294592">
        <time>2022-07-08T09:14:05Z</time>
      </trkpt>
      <trkpt lat="41.87247" lon="1.0295516">
        <time>2022-07-08T09:14:06Z</time>
      </trkpt>
      <trkpt lat="41.872482" lon="1.0296379">
        <time>2022-07-08T09:14:07Z</time>
      </trkpt>
      <trkpt lat="41.872498" lon="1.029727">
        <time>2022-07-08T09:14:08Z</time>
      </trkpt>
      <trkpt lat="41.87251" lon="1.0298187">
        <time>2022-07-08T09:14:09Z</time>
      </trkpt>
      <trkpt lat="41.87252" lon="1.0299183">
        <time>2022-07-08T09:14:10Z</time>
      </trkpt>
      <trkpt lat="41.872536" lon="1.0300182">
        <time>2022-07-08T09:14:11Z</time>
      </trkpt>
      <trkpt lat="41.872547" lon="1.0301119">
        <time>2022-07-08T09:14:12Z</time>
      </trkpt>
      <trkpt lat="41.872574" lon="1.0303079">
        <time>2022-07-08T09:14:14Z</time>
      </trkpt>
      <trkpt lat="41.872593" lon="1.0304163">
        <time>2022-07-08T09:14:15Z</time>
      </trkpt>
      <trkpt lat="41.87261" lon="1.0305239">
        <time>2022-07-08T09:14:16Z</time>
      </trkpt>
      <trkpt lat="41.872623" lon="1.0306239">
        <time>2022-07-08T09:14:17Z</time>
      </trkpt>
      <trkpt lat="41.87264" lon="1.030726">
        <time>2022-07-08T09:14:18Z</time>
      </trkpt>
      <trkpt lat="41.872658" lon="1.0308292">
        <time>2022-07-08T09:14:19Z</time>
      </trkpt>
      <trkpt lat="41.872673" lon="1.0309346">
        <time>2022-07-08T09:14:20Z</time>
      </trkpt>
      <trkpt lat="41.872692" lon="1.0310482">
        <time>2022-07-08T09:14:21Z</time>
      </trkpt>
      <trkpt lat="41.87271" lon="1.0311606">
        <time>2022-07-08T09:14:22Z</time>
      </trkpt>
      <trkpt lat="41.872726" lon="1.0312653">
        <time>2022-07-08T09:14:23Z</time>
      </trkpt>
      <trkpt lat="41.87274" lon="1.0313709">
        <time>2022-07-08T09:14:24Z</time>
      </trkpt>
      <trkpt lat="41.872757" lon="1.0314785">
        <time>2022-07-08T09:14:25Z</time>
      </trkpt>
      <trkpt lat="41.872776" lon="1.0315936">
        <time>2022-07-08T09:14:26Z</time>
      </trkpt>
      <trkpt lat="41.872795" lon="1.0317082">
        <time>2022-07-08T09:14:27Z</time>
      </trkpt>
      <trkpt lat="41.872814" lon="1.0318222">
        <time>2022-07-08T09:14:28Z</time>
      </trkpt>
      <trkpt lat="41.872833" lon="1.0319362">
        <time>2022-07-08T09:14:29Z</time>
      </trkpt>
      <trkpt lat="41.872852" lon="1.0320421">
        <time>2022-07-08T09:14:30Z</time>
      </trkpt>
      <trkpt lat="41.87287" lon="1.0321505">
        <time>2022-07-08T09:14:31Z</time>
      </trkpt>
      <trkpt lat="41.872894" lon="1.0322605">
        <time>2022-07-08T09:14:32Z</time>
      </trkpt>
      <trkpt lat="41.872917" lon="1.0323712">
        <time>2022-07-08T09:14:33Z</time>
      </trkpt>
      <trkpt lat="41.872944" lon="1.0324879">
        <time>2022-07-08T09:14:34Z</time>
      </trkpt>
      <trkpt lat="41.872974" lon="1.0325946">
        <time>2022-07-08T09:14:35Z</time>
      </trkpt>
      <trkpt lat="41.87301" lon="1.0327075">
        <time>2022-07-08T09:14:36Z</time>
      </trkpt>
      <trkpt lat="41.873043" lon="1.0328175">
        <time>2022-07-08T09:14:37Z</time>
      </trkpt>
      <trkpt lat="41.87308" lon="1.0329251">
        <time>2022-07-08T09:14:38Z</time>
      </trkpt>
      <trkpt lat="41.873116" lon="1.0330238">
        <time>2022-07-08T09:14:39Z</time>
      </trkpt>
      <trkpt lat="41.873154" lon="1.0331218">
        <time>2022-07-08T09:14:40Z</time>
      </trkpt>
      <trkpt lat="41.8732" lon="1.0332248">
        <time>2022-07-08T09:14:41Z</time>
      </trkpt>
      <trkpt lat="41.873245" lon="1.0333241">
        <time>2022-07-08T09:14:42Z</time>
      </trkpt>
      <trkpt lat="41.87329" lon="1.0334191">
        <time>2022-07-08T09:14:43Z</time>
      </trkpt>
      <trkpt lat="41.873337" lon="1.0335062">
        <time>2022-07-08T09:14:44Z</time>
      </trkpt>
      <trkpt lat="41.873386" lon="1.0335925">
        <time>2022-07-08T09:14:45Z</time>
      </trkpt>
      <trkpt lat="41.873436" lon="1.0336785">
        <time>2022-07-08T09:14:46Z</time>
      </trkpt>
      <trkpt lat="41.873493" lon="1.0337678">
        <time>2022-07-08T09:14:47Z</time>
      </trkpt>
      <trkpt lat="41.87355" lon="1.0338535">
        <time>2022-07-08T09:14:48Z</time>
      </trkpt>
      <trkpt lat="41.873604" lon="1.0339319">
        <time>2022-07-08T09:14:49Z</time>
      </trkpt>
      <trkpt lat="41.87366" lon="1.0340091">
        <time>2022-07-08T09:14:50Z</time>
      </trkpt>
      <trkpt lat="41.87372" lon="1.0340858">
        <time>2022-07-08T09:14:51Z</time>
      </trkpt>
      <trkpt lat="41.87378" lon="1.0341601">
        <time>2022-07-08T09:14:52Z</time>
      </trkpt>
      <trkpt lat="41.873844" lon="1.0342381">
        <time>2022-07-08T09:14:53Z</time>
      </trkpt>
      <trkpt lat="41.8739" lon="1.0343078">
        <time>2022-07-08T09:14:54Z</time>
      </trkpt>
      <trkpt lat="41.87396" lon="1.0343751">
        <time>2022-07-08T09:14:55Z</time>
      </trkpt>
      <trkpt lat="41.87402" lon="1.0344408">
        <time>2022-07-08T09:14:56Z</time>
      </trkpt>
      <trkpt lat="41.87408" lon="1.0345098">
        <time>2022-07-08T09:14:57Z</time>
      </trkpt>
      <trkpt lat="41.87414" lon="1.0345758">
        <time>2022-07-08T09:14:58Z</time>
      </trkpt>
      <trkpt lat="41.874203" lon="1.0346388">
        <time>2022-07-08T09:14:59Z</time>
      </trkpt>
      <trkpt lat="41.874256" lon="1.0346951">
        <time>2022-07-08T09:15:00Z</time>
      </trkpt>
      <trkpt lat="41.874313" lon="1.0347555">
        <time>2022-07-08T09:15:01Z</time>
      </trkpt>
      <trkpt lat="41.87437" lon="1.0348184">
        <time>2022-07-08T09:15:02Z</time>
      </trkpt>
      <trkpt lat="41.874424" lon="1.0348771">
        <time>2022-07-08T09:15:03Z</time>
      </trkpt>
      <trkpt lat="41.874477" lon="1.0349314">
        <time>2022-07-08T09:15:04Z</time>
      </trkpt>
      <trkpt lat="41.874523" lon="1.0349821">
        <time>2022-07-08T09:15:05Z</time>
      </trkpt>
      <trkpt lat="41.874573" lon="1.0350307">
        <time>2022-07-08T09:15:06Z</time>
      </trkpt>
      <trkpt lat="41.87462" lon="1.0350784">
        <time>2022-07-08T09:15:07Z</time>
      </trkpt>
      <trkpt lat="41.87466" lon="1.0351248">
        <time>2022-07-08T09:15:08Z</time>
      </trkpt>
      <trkpt lat="41.8747" lon="1.0351671">
        <time>2022-07-08T09:15:09Z</time>
      </trkpt>
      <trkpt lat="41.874737" lon="1.0352077">
        <time>2022-07-08T09:15:10Z</time>
      </trkpt>
      <trkpt lat="41.87481" lon="1.035287">
        <time>2022-07-08T09:15:12Z</time>
      </trkpt>
      <trkpt lat="41.87488" lon="1.0353653">
        <time>2022-07-08T09:15:14Z</time>
      </trkpt>
      <trkpt lat="41.874954" lon="1.0354457">
        <time>2022-07-08T09:15:16Z</time>
      </trkpt>
      <trkpt lat="41.874992" lon="1.0354861">
        <time>2022-07-08T09:15:17Z</time>
      </trkpt>
      <trkpt lat="41.875103" lon="1.0356051">
        <time>2022-07-08T09:15:20Z</time>
      </trkpt>
      <trkpt lat="41.875175" lon="1.0356843">
        <time>2022-07-08T09:15:22Z</time>
      </trkpt>
      <trkpt lat="41.875248" lon="1.0357627">
        <time>2022-07-08T09:15:24Z</time>
      </trkpt>
      <trkpt lat="41.87532" lon="1.0358374">
        <time>2022-07-08T09:15:26Z</time>
      </trkpt>
      <trkpt lat="41.875385" lon="1.0359046">
        <time>2022-07-08T09:15:28Z</time>
      </trkpt>
      <trkpt lat="41.875454" lon="1.035977">
        <time>2022-07-08T09:15:30Z</time>
      </trkpt>
      <trkpt lat="41.875515" lon="1.0360477">
        <time>2022-07-08T09:15:32Z</time>
      </trkpt>
      <trkpt lat="41.875572" lon="1.03611">
        <time>2022-07-08T09:15:34Z</time>
      </trkpt>
      <trkpt lat="41.87563" lon="1.036172">
        <time>2022-07-08T09:15:36Z</time>
      </trkpt>
      <trkpt lat="41.875683" lon="1.0362333">
        <time>2022-07-08T09:15:38Z</time>
      </trkpt>
      <trkpt lat="41.87574" lon="1.0362953">
        <time>2022-07-08T09:15:40Z</time>
      </trkpt>
      <trkpt lat="41.875797" lon="1.036356">
        <time>2022-07-08T09:15:42Z</time>
      </trkpt>
      <trkpt lat="41.875854" lon="1.0364144">
        <time>2022-07-08T09:15:44Z</time>
      </trkpt>
      <trkpt lat="41.87591" lon="1.0364743">
        <time>2022-07-08T09:15:46Z</time>
      </trkpt>
      <trkpt lat="41.875965" lon="1.0365356">
        <time>2022-07-08T09:15:48Z</time>
      </trkpt>
      <trkpt lat="41.876022" lon="1.0366004">
        <time>2022-07-08T09:15:50Z</time>
      </trkpt>
      <trkpt lat="41.876083" lon="1.0366644">
        <time>2022-07-08T09:15:52Z</time>
      </trkpt>
      <trkpt lat="41.87614" lon="1.0367227">
        <time>2022-07-08T09:15:54Z</time>
      </trkpt>
      <trkpt lat="41.876198" lon="1.036786">
        <time>2022-07-08T09:15:56Z</time>
      </trkpt>
      <trkpt lat="41.876255" lon="1.0368466">
        <time>2022-07-08T09:15:58Z</time>
      </trkpt>
      <trkpt lat="41.876312" lon="1.0369103">
        <time>2022-07-08T09:16:00Z</time>
      </trkpt>
      <trkpt lat="41.87637" lon="1.036976">
        <time>2022-07-08T09:16:02Z</time>
      </trkpt>
      <trkpt lat="41.876427" lon="1.0370406">
        <time>2022-07-08T09:16:04Z</time>
      </trkpt>
      <trkpt lat="41.876488" lon="1.0371057">
        <time>2022-07-08T09:16:06Z</time>
      </trkpt>
      <trkpt lat="41.876553" lon="1.0371699">
        <time>2022-07-08T09:16:08Z</time>
      </trkpt>
      <trkpt lat="41.876617" lon="1.0372397">
        <time>2022-07-08T09:16:10Z</time>
      </trkpt>
      <trkpt lat="41.876682" lon="1.037308">
        <time>2022-07-08T09:16:12Z</time>
      </trkpt>
      <trkpt lat="41.87675" lon="1.0373796">
        <time>2022-07-08T09:16:14Z</time>
      </trkpt>
      <trkpt lat="41.876823" lon="1.037457">
        <time>2022-07-08T09:16:16Z</time>
      </trkpt>
      <trkpt lat="41.876892" lon="1.0375342">
        <time>2022-07-08T09:16:18Z</time>
      </trkpt>
      <trkpt lat="41.876965" lon="1.0376112">
        <time>2022-07-08T09:16:20Z</time>
      </trkpt>
      <trkpt lat="41.877037" lon="1.0376923">
        <time>2022-07-08T09:16:22Z</time>
      </trkpt>
      <trkpt lat="41.877113" lon="1.0377783">
        <time>2022-07-08T09:16:24Z</time>
      </trkpt>
      <trkpt lat="41.87719" lon="1.0378627">
        <time>2022-07-08T09:16:26Z</time>
      </trkpt>
      <trkpt lat="41.87723" lon="1.0379072">
        <time>2022-07-08T09:16:27Z</time>
      </trkpt>
      <trkpt lat="41.877277" lon="1.0379525">
        <time>2022-07-08T09:16:28Z</time>
      </trkpt>
      <trkpt lat="41.87732" lon="1.0379989">
        <time>2022-07-08T09:16:29Z</time>
      </trkpt>
      <trkpt lat="41.877365" lon="1.0380459">
        <time>2022-07-08T09:16:30Z</time>
      </trkpt>
      <trkpt lat="41.877407" lon="1.038093">
        <time>2022-07-08T09:16:31Z</time>
      </trkpt>
      <trkpt lat="41.877453" lon="1.0381399">
        <time>2022-07-08T09:16:32Z</time>
      </trkpt>
      <trkpt lat="41.8775" lon="1.038186">
        <time>2022-07-08T09:16:33Z</time>
      </trkpt>
      <trkpt lat="41.877544" lon="1.0382329">
        <time>2022-07-08T09:16:34Z</time>
      </trkpt>
      <trkpt lat="41.877594" lon="1.0382799">
        <time>2022-07-08T09:16:35Z</time>
      </trkpt>
      <trkpt lat="41.87764" lon="1.0383259">
        <time>2022-07-08T09:16:36Z</time>
      </trkpt>
      <trkpt lat="41.87769" lon="1.0383719">
        <time>2022-07-08T09:16:37Z</time>
      </trkpt>
      <trkpt lat="41.87774" lon="1.0384185">
        <time>2022-07-08T09:16:38Z</time>
      </trkpt>
      <trkpt lat="41.87779" lon="1.0384645">
        <time>2022-07-08T09:16:39Z</time>
      </trkpt>
      <trkpt lat="41.87784" lon="1.0385116">
        <time>2022-07-08T09:16:40Z</time>
      </trkpt>
      <trkpt lat="41.877888" lon="1.0385575">
        <time>2022-07-08T09:16:41Z</time>
      </trkpt>
      <trkpt lat="41.877937" lon="1.0386039">
        <time>2022-07-08T09:16:42Z</time>
      </trkpt>
      <trkpt lat="41.87799" lon="1.0386499">
        <time>2022-07-08T09:16:43Z</time>
      </trkpt>
      <trkpt lat="41.87804" lon="1.0386956">
        <time>2022-07-08T09:16:44Z</time>
      </trkpt>
      <trkpt lat="41.87809" lon="1.0387405">
        <time>2022-07-08T09:16:45Z</time>
      </trkpt>
      <trkpt lat="41.878143" lon="1.0387836">
        <time>2022-07-08T09:16:46Z</time>
      </trkpt>
      <trkpt lat="41.878193" lon="1.0388266">
        <time>2022-07-08T09:16:47Z</time>
      </trkpt>
      <trkpt lat="41.878242" lon="1.0388699">
        <time>2022-07-08T09:16:48Z</time>
      </trkpt>
      <trkpt lat="41.878292" lon="1.0389138">
        <time>2022-07-08T09:16:49Z</time>
      </trkpt>
      <trkpt lat="41.87834" lon="1.0389572">
        <time>2022-07-08T09:16:50Z</time>
      </trkpt>
      <trkpt lat="41.878387" lon="1.0389966">
        <time>2022-07-08T09:16:51Z</time>
      </trkpt>
      <trkpt lat="41.878433" lon="1.0390396">
        <time>2022-07-08T09:16:52Z</time>
      </trkpt>
      <trkpt lat="41.878483" lon="1.0390816">
        <time>2022-07-08T09:16:53Z</time>
      </trkpt>
      <trkpt lat="41.87853" lon="1.0391229">
        <time>2022-07-08T09:16:54Z</time>
      </trkpt>
      <trkpt lat="41.878574" lon="1.0391636">
        <time>2022-07-08T09:16:55Z</time>
      </trkpt>
      <trkpt lat="41.87862" lon="1.0392032">
        <time>2022-07-08T09:16:56Z</time>
      </trkpt>
      <trkpt lat="41.878666" lon="1.0392416">
        <time>2022-07-08T09:16:57Z</time>
      </trkpt>
      <trkpt lat="41.878704" lon="1.0392762">
        <time>2022-07-08T09:16:58Z</time>
      </trkpt>
      <trkpt lat="41.87875" lon="1.0393139">
        <time>2022-07-08T09:16:59Z</time>
      </trkpt>
      <trkpt lat="41.878796" lon="1.0393512">
        <time>2022-07-08T09:17:00Z</time>
      </trkpt>
      <trkpt lat="41.87888" lon="1.0394235">
        <time>2022-07-08T09:17:02Z</time>
      </trkpt>
      <trkpt lat="41.87892" lon="1.0394565">
        <time>2022-07-08T09:17:03Z</time>
      </trkpt>
      <trkpt lat="41.879" lon="1.0395272">
        <time>2022-07-08T09:17:05Z</time>
      </trkpt>
      <trkpt lat="41.879074" lon="1.0395945">
        <time>2022-07-08T09:17:07Z</time>
      </trkpt>
      <trkpt lat="41.879147" lon="1.0396595">
        <time>2022-07-08T09:17:09Z</time>
      </trkpt>
      <trkpt lat="41.879215" lon="1.0397189">
        <time>2022-07-08T09:17:11Z</time>
      </trkpt>
      <trkpt lat="41.879284" lon="1.0397788">
        <time>2022-07-08T09:17:13Z</time>
      </trkpt>
      <trkpt lat="41.879353" lon="1.0398408">
        <time>2022-07-08T09:17:15Z</time>
      </trkpt>
      <trkpt lat="41.87942" lon="1.0399009">
        <time>2022-07-08T09:17:17Z</time>
      </trkpt>
      <trkpt lat="41.879482" lon="1.0399592">
        <time>2022-07-08T09:17:19Z</time>
      </trkpt>
      <trkpt lat="41.87955" lon="1.0400188">
        <time>2022-07-08T09:17:21Z</time>
      </trkpt>
      <trkpt lat="41.879616" lon="1.0400805">
        <time>2022-07-08T09:17:23Z</time>
      </trkpt>
      <trkpt lat="41.879684" lon="1.0401402">
        <time>2022-07-08T09:17:25Z</time>
      </trkpt>
      <trkpt lat="41.87975" lon="1.0402001">
        <time>2022-07-08T09:17:27Z</time>
      </trkpt>
      <trkpt lat="41.87981" lon="1.0402571">
        <time>2022-07-08T09:17:29Z</time>
      </trkpt>
      <trkpt lat="41.879875" lon="1.0403178">
        <time>2022-07-08T09:17:31Z</time>
      </trkpt>
      <trkpt lat="41.87994" lon="1.0403758">
        <time>2022-07-08T09:17:33Z</time>
      </trkpt>
      <trkpt lat="41.880005" lon="1.0404358">
        <time>2022-07-08T09:17:35Z</time>
      </trkpt>
      <trkpt lat="41.880077" lon="1.0405031">
        <time>2022-07-08T09:17:37Z</time>
      </trkpt>
      <trkpt lat="41.880142" lon="1.0405655">
        <time>2022-07-08T09:17:39Z</time>
      </trkpt>
      <trkpt lat="41.880203" lon="1.0406271">
        <time>2022-07-08T09:17:41Z</time>
      </trkpt>
      <trkpt lat="41.88027" lon="1.0406928">
        <time>2022-07-08T09:17:43Z</time>
      </trkpt>
      <trkpt lat="41.880337" lon="1.0407615">
        <time>2022-07-08T09:17:45Z</time>
      </trkpt>
      <trkpt lat="41.8804" lon="1.0408244">
        <time>2022-07-08T09:17:47Z</time>
      </trkpt>
      <trkpt lat="41.880466" lon="1.0408864">
        <time>2022-07-08T09:17:49Z</time>
      </trkpt>
      <trkpt lat="41.88053" lon="1.0409484">
        <time>2022-07-08T09:17:51Z</time>
      </trkpt>
      <trkpt lat="41.880596" lon="1.0410105">
        <time>2022-07-08T09:17:53Z</time>
      </trkpt>
      <trkpt lat="41.880657" lon="1.0410675">
        <time>2022-07-08T09:17:55Z</time>
      </trkpt>
      <trkpt lat="41.880722" lon="1.0411241">
        <time>2022-07-08T09:17:57Z</time>
      </trkpt>
      <trkpt lat="41.880783" lon="1.0411807">
        <time>2022-07-08T09:17:59Z</time>
      </trkpt>
      <trkpt lat="41.88084" lon="1.0412351">
        <time>2022-07-08T09:18:01Z</time>
      </trkpt>
      <trkpt lat="41.8809" lon="1.0412904">
        <time>2022-07-08T09:18:03Z</time>
      </trkpt>
      <trkpt lat="41.880955" lon="1.0413427">
        <time>2022-07-08T09:18:05Z</time>
      </trkpt>
      <trkpt lat="41.88101" lon="1.0414017">
        <time>2022-07-08T09:18:07Z</time>
      </trkpt>
      <trkpt lat="41.881046" lon="1.0414487">
        <time>2022-07-08T09:18:09Z</time>
      </trkpt>
      <trkpt lat="41.881073" lon="1.0414824">
        <time>2022-07-08T09:18:18Z</time>
      </trkpt>
      <trkpt lat="41.881187" lon="1.0414975">
        <time>2022-07-08T09:22:13Z</time>
      </trkpt>
      <trkpt lat="41.88125" lon="1.0415207">
        <time>2022-07-08T09:22:16Z</time>
      </trkpt>
      <trkpt lat="41.88132" lon="1.041568">
        <time>2022-07-08T09:22:19Z</time>
      </trkpt>
      <trkpt lat="41.881367" lon="1.0416087">
        <time>2022-07-08T09:22:21Z</time>
      </trkpt>
      <trkpt lat="41.881416" lon="1.0416547">
        <time>2022-07-08T09:22:23Z</time>
      </trkpt>
      <trkpt lat="41.881462" lon="1.0417094">
        <time>2022-07-08T09:22:25Z</time>
      </trkpt>
      <trkpt lat="41.88151" lon="1.0417644">
        <time>2022-07-08T09:22:27Z</time>
      </trkpt>
      <trkpt lat="41.88156" lon="1.04182">
        <time>2022-07-08T09:22:29Z</time>
      </trkpt>
      <trkpt lat="41.881634" lon="1.0419058">
        <time>2022-07-08T09:22:32Z</time>
      </trkpt>
      <trkpt lat="41.881683" lon="1.041965">
        <time>2022-07-08T09:22:34Z</time>
      </trkpt>
      <trkpt lat="41.881733" lon="1.0420244">
        <time>2022-07-08T09:22:36Z</time>
      </trkpt>
      <trkpt lat="41.88178" lon="1.0420864">
        <time>2022-07-08T09:22:38Z</time>
      </trkpt>
      <trkpt lat="41.88183" lon="1.042148">
        <time>2022-07-08T09:22:40Z</time>
      </trkpt>
      <trkpt lat="41.881878" lon="1.0422103">
        <time>2022-07-08T09:22:42Z</time>
      </trkpt>
      <trkpt lat="41.881916" lon="1.0422723">
        <time>2022-07-08T09:22:44Z</time>
      </trkpt>
      <trkpt lat="41.88194" lon="1.0423213">
        <time>2022-07-08T09:22:46Z</time>
      </trkpt>
      <trkpt lat="41.88201" lon="1.0424111">
        <time>2022-07-08T09:23:00Z</time>
      </trkpt>
      <trkpt lat="41.882057" lon="1.0424844">
        <time>2022-07-08T09:23:03Z</time>
      </trkpt>
      <trkpt lat="41.882095" lon="1.0425447">
        <time>2022-07-08T09:23:05Z</time>
      </trkpt>
      <trkpt lat="41.88213" lon="1.042609">
        <time>2022-07-08T09:23:07Z</time>
      </trkpt>
      <trkpt lat="41.882164" lon="1.0426747">
        <time>2022-07-08T09:23:09Z</time>
      </trkpt>
      <trkpt lat="41.8822" lon="1.0427433">
        <time>2022-07-08T09:23:11Z</time>
      </trkpt>
      <trkpt lat="41.882236" lon="1.0428146">
        <time>2022-07-08T09:23:13Z</time>
      </trkpt>
      <trkpt lat="41.882275" lon="1.0428894">
        <time>2022-07-08T09:23:15Z</time>
      </trkpt>
      <trkpt lat="41.88231" lon="1.0429673">
        <time>2022-07-08T09:23:17Z</time>
      </trkpt>
      <trkpt lat="41.882343" lon="1.0430464">
        <time>2022-07-08T09:23:19Z</time>
      </trkpt>
      <trkpt lat="41.882374" lon="1.0431256">
        <time>2022-07-08T09:23:21Z</time>
      </trkpt>
      <trkpt lat="41.882404" lon="1.0432063">
        <time>2022-07-08T09:23:23Z</time>
      </trkpt>
      <trkpt lat="41.882435" lon="1.0432887">
        <time>2022-07-08T09:23:25Z</time>
      </trkpt>
      <trkpt lat="41.882465" lon="1.043371">
        <time>2022-07-08T09:23:27Z</time>
      </trkpt>
      <trkpt lat="41.882492" lon="1.0434537">
        <time>2022-07-08T09:23:29Z</time>
      </trkpt>
      <trkpt lat="41.88252" lon="1.0435393">
        <time>2022-07-08T09:23:31Z</time>
      </trkpt>
      <trkpt lat="41.882545" lon="1.0436263">
        <time>2022-07-08T09:23:33Z</time>
      </trkpt>
      <trkpt lat="41.882572" lon="1.0437137">
        <time>2022-07-08T09:23:35Z</time>
      </trkpt>
      <trkpt lat="41.882595" lon="1.0438019">
        <time>2022-07-08T09:23:37Z</time>
      </trkpt>
      <trkpt lat="41.882618" lon="1.04389">
        <time>2022-07-08T09:23:39Z</time>
      </trkpt>
      <trkpt lat="41.882637" lon="1.0439789">
        <time>2022-07-08T09:23:41Z</time>
      </trkpt>
      <trkpt lat="41.88266" lon="1.0440689">
        <time>2022-07-08T09:23:43Z</time>
      </trkpt>
      <trkpt lat="41.88268" lon="1.0441597">
        <time>2022-07-08T09:23:45Z</time>
      </trkpt>
      <trkpt lat="41.882694" lon="1.0442502">
        <time>2022-07-08T09:23:47Z</time>
      </trkpt>
      <trkpt lat="41.882713" lon="1.0443432">
        <time>2022-07-08T09:23:49Z</time>
      </trkpt>
      <trkpt lat="41.88273" lon="1.0444376">
        <time>2022-07-08T09:23:51Z</time>
      </trkpt>
      <trkpt lat="41.882748" lon="1.0445316">
        <time>2022-07-08T09:23:53Z</time>
      </trkpt>
      <trkpt lat="41.882767" lon="1.0446262">
        <time>2022-07-08T09:23:55Z</time>
      </trkpt>
      <trkpt lat="41.882782" lon="1.0447226">
        <time>2022-07-08T09:23:57Z</time>
      </trkpt>
      <trkpt lat="41.8828" lon="1.0448176">
        <time>2022-07-08T09:23:59Z</time>
      </trkpt>
      <trkpt lat="41.882824" lon="1.0449206">
        <time>2022-07-08T09:24:01Z</time>
      </trkpt>
      <trkpt lat="41.882843" lon="1.0450193">
        <time>2022-07-08T09:24:03Z</time>
      </trkpt>
      <trkpt lat="41.882862" lon="1.0451266">
        <time>2022-07-08T09:24:05Z</time>
      </trkpt>
      <trkpt lat="41.882885" lon="1.0452359">
        <time>2022-07-08T09:24:07Z</time>
      </trkpt>
      <trkpt lat="41.882908" lon="1.0453496">
        <time>2022-07-08T09:24:09Z</time>
      </trkpt>
      <trkpt lat="41.88293" lon="1.0454639">
        <time>2022-07-08T09:24:11Z</time>
      </trkpt>
      <trkpt lat="41.882957" lon="1.0455816">
        <time>2022-07-08T09:24:13Z</time>
      </trkpt>
      <trkpt lat="41.882984" lon="1.0457026">
        <time>2022-07-08T09:24:15Z</time>
      </trkpt>
      <trkpt lat="41.883003" lon="1.0457659">
        <time>2022-07-08T09:24:16Z</time>
      </trkpt>
      <trkpt lat="41.883038" lon="1.0458952">
        <time>2022-07-08T09:24:18Z</time>
      </trkpt>
      <trkpt lat="41.883053" lon="1.0459616">
        <time>2022-07-08T09:24:19Z</time>
      </trkpt>
      <trkpt lat="41.883083" lon="1.0460982">
        <time>2022-07-08T09:24:21Z</time>
      </trkpt>
      <trkpt lat="41.8831" lon="1.0461689">
        <time>2022-07-08T09:24:22Z</time>
      </trkpt>
      <trkpt lat="41.883114" lon="1.0462409">
        <time>2022-07-08T09:24:23Z</time>
      </trkpt>
      <trkpt lat="41.883133" lon="1.0463135">
        <time>2022-07-08T09:24:24Z</time>
      </trkpt>
      <trkpt lat="41.883152" lon="1.0463872">
        <time>2022-07-08T09:24:25Z</time>
      </trkpt>
      <trkpt lat="41.88317" lon="1.0464616">
        <time>2022-07-08T09:24:26Z</time>
      </trkpt>
      <trkpt lat="41.883194" lon="1.0465362">
        <time>2022-07-08T09:24:27Z</time>
      </trkpt>
      <trkpt lat="41.883236" lon="1.0466878">
        <time>2022-07-08T09:24:29Z</time>
      </trkpt>
      <trkpt lat="41.88326" lon="1.0467652">
        <time>2022-07-08T09:24:30Z</time>
      </trkpt>
      <trkpt lat="41.883286" lon="1.0468428">
        <time>2022-07-08T09:24:31Z</time>
      </trkpt>
      <trkpt lat="41.883316" lon="1.0469211">
        <time>2022-07-08T09:24:32Z</time>
      </trkpt>
      <trkpt lat="41.883347" lon="1.0470009">
        <time>2022-07-08T09:24:33Z</time>
      </trkpt>
      <trkpt lat="41.883373" lon="1.0470822">
        <time>2022-07-08T09:24:34Z</time>
      </trkpt>
      <trkpt lat="41.883408" lon="1.0471644">
        <time>2022-07-08T09:24:35Z</time>
      </trkpt>
      <trkpt lat="41.88344" lon="1.0472488">
        <time>2022-07-08T09:24:36Z</time>
      </trkpt>
      <trkpt lat="41.883472" lon="1.0473351">
        <time>2022-07-08T09:24:37Z</time>
      </trkpt>
      <trkpt lat="41.883507" lon="1.0474238">
        <time>2022-07-08T09:24:38Z</time>
      </trkpt>
      <trkpt lat="41.88354" lon="1.0475122">
        <time>2022-07-08T09:24:39Z</time>
      </trkpt>
      <trkpt lat="41.883575" lon="1.0475994">
        <time>2022-07-08T09:24:40Z</time>
      </trkpt>
      <trkpt lat="41.883614" lon="1.0476844">
        <time>2022-07-08T09:24:41Z</time>
      </trkpt>
      <trkpt lat="41.88365" lon="1.0477659">
        <time>2022-07-08T09:24:42Z</time>
      </trkpt>
      <trkpt lat="41.88369" lon="1.0478411">
        <time>2022-07-08T09:24:43Z</time>
      </trkpt>
      <trkpt lat="41.883728" lon="1.0479101">
        <time>2022-07-08T09:24:44Z</time>
      </trkpt>
      <trkpt lat="41.883762" lon="1.0479724">
        <time>2022-07-08T09:24:45Z</time>
      </trkpt>
      <trkpt lat="41.883797" lon="1.0480275">
        <time>2022-07-08T09:24:46Z</time>
      </trkpt>
      <trkpt lat="41.883823" lon="1.0480745">
        <time>2022-07-08T09:24:47Z</time>
      </trkpt>
      <trkpt lat="41.88386" lon="1.0481398">
        <time>2022-07-08T09:24:49Z</time>
      </trkpt>
      <trkpt lat="41.883884" lon="1.0481788">
        <time>2022-07-08T09:24:53Z</time>
      </trkpt>
      <trkpt lat="41.883953" lon="1.0483005">
        <time>2022-07-08T09:25:21Z</time>
      </trkpt>
      <trkpt lat="41.88401" lon="1.0484082">
        <time>2022-07-08T09:25:23Z</time>
      </trkpt>
      <trkpt lat="41.88408" lon="1.0485431">
        <time>2022-07-08T09:25:25Z</time>
      </trkpt>
      <trkpt lat="41.88412" lon="1.0486192">
        <time>2022-07-08T09:25:26Z</time>
      </trkpt>
      <trkpt lat="41.884167" lon="1.0486995">
        <time>2022-07-08T09:25:27Z</time>
      </trkpt>
      <trkpt lat="41.884212" lon="1.0487838">
        <time>2022-07-08T09:25:28Z</time>
      </trkpt>
      <trkpt lat="41.884262" lon="1.0488725">
        <time>2022-07-08T09:25:29Z</time>
      </trkpt>
      <trkpt lat="41.88431" lon="1.0489658">
        <time>2022-07-08T09:25:30Z</time>
      </trkpt>
      <trkpt lat="41.88437" lon="1.0490727">
        <time>2022-07-08T09:25:31Z</time>
      </trkpt>
      <trkpt lat="41.884422" lon="1.0491751">
        <time>2022-07-08T09:25:32Z</time>
      </trkpt>
      <trkpt lat="41.884476" lon="1.0492841">
        <time>2022-07-08T09:25:33Z</time>
      </trkpt>
      <trkpt lat="41.884533" lon="1.0493971">
        <time>2022-07-08T09:25:34Z</time>
      </trkpt>
      <trkpt lat="41.884583" lon="1.0495137">
        <time>2022-07-08T09:25:35Z</time>
      </trkpt>
      <trkpt lat="41.884636" lon="1.049635">
        <time>2022-07-08T09:25:36Z</time>
      </trkpt>
      <trkpt lat="41.88468" lon="1.0497614">
        <time>2022-07-08T09:25:37Z</time>
      </trkpt>
      <trkpt lat="41.884727" lon="1.0498921">
        <time>2022-07-08T09:25:38Z</time>
      </trkpt>
      <trkpt lat="41.884766" lon="1.0500184">
        <time>2022-07-08T09:25:39Z</time>
      </trkpt>
      <trkpt lat="41.884808" lon="1.0501604">
        <time>2022-07-08T09:25:40Z</time>
      </trkpt>
      <trkpt lat="41.884842" lon="1.050304">
        <time>2022-07-08T09:25:41Z</time>
      </trkpt>
      <trkpt lat="41.884876" lon="1.0504504">
        <time>2022-07-08T09:25:42Z</time>
      </trkpt>
      <trkpt lat="41.884903" lon="1.0505997">
        <time>2022-07-08T09:25:43Z</time>
      </trkpt>
      <trkpt lat="41.884926" lon="1.05075">
        <time>2022-07-08T09:25:44Z</time>
      </trkpt>
      <trkpt lat="41.88495" lon="1.050902">
        <time>2022-07-08T09:25:45Z</time>
      </trkpt>
      <trkpt lat="41.884964" lon="1.0510557">
        <time>2022-07-08T09:25:46Z</time>
      </trkpt>
      <trkpt lat="41.884975" lon="1.0512108">
        <time>2022-07-08T09:25:47Z</time>
      </trkpt>
      <trkpt lat="41.884983" lon="1.0513663">
        <time>2022-07-08T09:25:48Z</time>
      </trkpt>
      <trkpt lat="41.884987" lon="1.0515224">
        <time>2022-07-08T09:25:49Z</time>
      </trkpt>
      <trkpt lat="41.88499" lon="1.0516773">
        <time>2022-07-08T09:25:50Z</time>
      </trkpt>
      <trkpt lat="41.88499" lon="1.0518314">
        <time>2022-07-08T09:25:51Z</time>
      </trkpt>
      <trkpt lat="41.884995" lon="1.0519844">
        <time>2022-07-08T09:25:52Z</time>
      </trkpt>
      <trkpt lat="41.88499" lon="1.0521357">
        <time>2022-07-08T09:25:53Z</time>
      </trkpt>
      <trkpt lat="41.88499" lon="1.0522847">
        <time>2022-07-08T09:25:54Z</time>
      </trkpt>
      <trkpt lat="41.884995" lon="1.0524313">
        <time>2022-07-08T09:25:55Z</time>
      </trkpt>
      <trkpt lat="41.885" lon="1.052578">
        <time>2022-07-08T09:25:56Z</time>
      </trkpt>
      <trkpt lat="41.885002" lon="1.0527214">
        <time>2022-07-08T09:25:57Z</time>
      </trkpt>
      <trkpt lat="41.885014" lon="1.0528734">
        <time>2022-07-08T09:25:58Z</time>
      </trkpt>
      <trkpt lat="41.885025" lon="1.0530113">
        <time>2022-07-08T09:25:59Z</time>
      </trkpt>
      <trkpt lat="41.88504" lon="1.053147">
        <time>2022-07-08T09:26:00Z</time>
      </trkpt>
      <trkpt lat="41.885056" lon="1.0532813">
        <time>2022-07-08T09:26:01Z</time>
      </trkpt>
      <trkpt lat="41.885075" lon="1.053415">
        <time>2022-07-08T09:26:02Z</time>
      </trkpt>
      <trkpt lat="41.885098" lon="1.0535467">
        <time>2022-07-08T09:26:03Z</time>
      </trkpt>
      <trkpt lat="41.88512" lon="1.0536764">
        <time>2022-07-08T09:26:04Z</time>
      </trkpt>
      <trkpt lat="41.885147" lon="1.0538067">
        <time>2022-07-08T09:26:05Z</time>
      </trkpt>
      <trkpt lat="41.885178" lon="1.0539349">
        <time>2022-07-08T09:26:06Z</time>
      </trkpt>
      <trkpt lat="41.88521" lon="1.054062">
        <time>2022-07-08T09:26:07Z</time>
      </trkpt>
      <trkpt lat="41.885242" lon="1.0541877">
        <time>2022-07-08T09:26:08Z</time>
      </trkpt>
      <trkpt lat="41.885277" lon="1.054312">
        <time>2022-07-08T09:26:09Z</time>
      </trkpt>
      <trkpt lat="41.88531" lon="1.054435">
        <time>2022-07-08T09:26:10Z</time>
      </trkpt>
      <trkpt lat="41.885345" lon="1.0545563">
        <time>2022-07-08T09:26:11Z</time>
      </trkpt>
      <trkpt lat="41.885376" lon="1.054675">
        <time>2022-07-08T09:26:12Z</time>
      </trkpt>
      <trkpt lat="41.88541" lon="1.0547926">
        <time>2022-07-08T09:26:13Z</time>
      </trkpt>
      <trkpt lat="41.885437" lon="1.0549092">
        <time>2022-07-08T09:26:14Z</time>
      </trkpt>
      <trkpt lat="41.885468" lon="1.0550259">
        <time>2022-07-08T09:26:15Z</time>
      </trkpt>
      <trkpt lat="41.885513" lon="1.0552592">
        <time>2022-07-08T09:26:17Z</time>
      </trkpt>
      <trkpt lat="41.885532" lon="1.0553759">
        <time>2022-07-08T09:26:18Z</time>
      </trkpt>
      <trkpt lat="41.885544" lon="1.0554916">
        <time>2022-07-08T09:26:19Z</time>
      </trkpt>
      <trkpt lat="41.885555" lon="1.0556062">
        <time>2022-07-08T09:26:20Z</time>
      </trkpt>
      <trkpt lat="41.885567" lon="1.0557142">
        <time>2022-07-08T09:26:21Z</time>
      </trkpt>
      <trkpt lat="41.88558" lon="1.0558316">
        <time>2022-07-08T09:26:22Z</time>
      </trkpt>
      <trkpt lat="41.88559" lon="1.0559472">
        <time>2022-07-08T09:26:23Z</time>
      </trkpt>
      <trkpt lat="41.885597" lon="1.0560609">
        <time>2022-07-08T09:26:24Z</time>
      </trkpt>
      <trkpt lat="41.885605" lon="1.0561743">
        <time>2022-07-08T09:26:25Z</time>
      </trkpt>
      <trkpt lat="41.88561" lon="1.0562859">
        <time>2022-07-08T09:26:26Z</time>
      </trkpt>
      <trkpt lat="41.885612" lon="1.0563979">
        <time>2022-07-08T09:26:27Z</time>
      </trkpt>
      <trkpt lat="41.885616" lon="1.0565089">
        <time>2022-07-08T09:26:28Z</time>
      </trkpt>
      <trkpt lat="41.885616" lon="1.0566195">
        <time>2022-07-08T09:26:29Z</time>
      </trkpt>
      <trkpt lat="41.885616" lon="1.0567296">
        <time>2022-07-08T09:26:30Z</time>
      </trkpt>
      <trkpt lat="41.885616" lon="1.0568385">
        <time>2022-07-08T09:26:31Z</time>
      </trkpt>
      <trkpt lat="41.885612" lon="1.0569472">
        <time>2022-07-08T09:26:32Z</time>
      </trkpt>
      <trkpt lat="41.885612" lon="1.0570558">
        <time>2022-07-08T09:26:33Z</time>
      </trkpt>
      <trkpt lat="41.88561" lon="1.0571622">
        <time>2022-07-08T09:26:34Z</time>
      </trkpt>
      <trkpt lat="41.885605" lon="1.0572675">
        <time>2022-07-08T09:26:35Z</time>
      </trkpt>
      <trkpt lat="41.8856" lon="1.0573722">
        <time>2022-07-08T09:26:36Z</time>
      </trkpt>
      <trkpt lat="41.885597" lon="1.0574765">
        <time>2022-07-08T09:26:37Z</time>
      </trkpt>
      <trkpt lat="41.885593" lon="1.0575808">
        <time>2022-07-08T09:26:38Z</time>
      </trkpt>
      <trkpt lat="41.88559" lon="1.0576855">
        <time>2022-07-08T09:26:39Z</time>
      </trkpt>
      <trkpt lat="41.885586" lon="1.0577902">
        <time>2022-07-08T09:26:40Z</time>
      </trkpt>
      <trkpt lat="41.885582" lon="1.0578941">
        <time>2022-07-08T09:26:41Z</time>
      </trkpt>
      <trkpt lat="41.885574" lon="1.0579972">
        <time>2022-07-08T09:26:42Z</time>
      </trkpt>
      <trkpt lat="41.885567" lon="1.0582042">
        <time>2022-07-08T09:26:44Z</time>
      </trkpt>
      <trkpt lat="41.88556" lon="1.0583048">
        <time>2022-07-08T09:26:45Z</time>
      </trkpt>
      <trkpt lat="41.885555" lon="1.0584044">
        <time>2022-07-08T09:26:46Z</time>
      </trkpt>
      <trkpt lat="41.885548" lon="1.0585045">
        <time>2022-07-08T09:26:47Z</time>
      </trkpt>
      <trkpt lat="41.885544" lon="1.0586052">
        <time>2022-07-08T09:26:48Z</time>
      </trkpt>
      <trkpt lat="41.885536" lon="1.0587062">
        <time>2022-07-08T09:26:49Z</time>
      </trkpt>
      <trkpt lat="41.88553" lon="1.0588075">
        <time>2022-07-08T09:26:50Z</time>
      </trkpt>
      <trkpt lat="41.88552" lon="1.0589101">
        <time>2022-07-08T09:26:51Z</time>
      </trkpt>
      <trkpt lat="41.885513" lon="1.0590111">
        <time>2022-07-08T09:26:52Z</time>
      </trkpt>
      <trkpt lat="41.885506" lon="1.0591118">
        <time>2022-07-08T09:26:53Z</time>
      </trkpt>
      <trkpt lat="41.885498" lon="1.0592124">
        <time>2022-07-08T09:26:54Z</time>
      </trkpt>
      <trkpt lat="41.885494" lon="1.0593121">
        <time>2022-07-08T09:26:55Z</time>
      </trkpt>
      <trkpt lat="41.885487" lon="1.0594121">
        <time>2022-07-08T09:26:56Z</time>
      </trkpt>
      <trkpt lat="41.885483" lon="1.0595101">
        <time>2022-07-08T09:26:57Z</time>
      </trkpt>
      <trkpt lat="41.88548" lon="1.0596075">
        <time>2022-07-08T09:26:58Z</time>
      </trkpt>
      <trkpt lat="41.88547" lon="1.0597035">
        <time>2022-07-08T09:26:59Z</time>
      </trkpt>
      <trkpt lat="41.885464" lon="1.0597985">
        <time>2022-07-08T09:27:00Z</time>
      </trkpt>
      <trkpt lat="41.88546" lon="1.0598924">
        <time>2022-07-08T09:27:01Z</time>
      </trkpt>
      <trkpt lat="41.885452" lon="1.0599852">
        <time>2022-07-08T09:27:02Z</time>
      </trkpt>
      <trkpt lat="41.88545" lon="1.0600767">
        <time>2022-07-08T09:27:03Z</time>
      </trkpt>
      <trkpt lat="41.88544" lon="1.0601674">
        <time>2022-07-08T09:27:04Z</time>
      </trkpt>
      <trkpt lat="41.885437" lon="1.0602567">
        <time>2022-07-08T09:27:05Z</time>
      </trkpt>
      <trkpt lat="41.88543" lon="1.0603448">
        <time>2022-07-08T09:27:06Z</time>
      </trkpt>
      <trkpt lat="41.88542" lon="1.0604311">
        <time>2022-07-08T09:27:07Z</time>
      </trkpt>
      <trkpt lat="41.885418" lon="1.0605165">
        <time>2022-07-08T09:27:08Z</time>
      </trkpt>
      <trkpt lat="41.88541" lon="1.0606008">
        <time>2022-07-08T09:27:09Z</time>
      </trkpt>
      <trkpt lat="41.885403" lon="1.0606841">
        <time>2022-07-08T09:27:10Z</time>
      </trkpt>
      <trkpt lat="41.8854" lon="1.0607665">
        <time>2022-07-08T09:27:11Z</time>
      </trkpt>
      <trkpt lat="41.885395" lon="1.0608478">
        <time>2022-07-08T09:27:12Z</time>
      </trkpt>
      <trkpt lat="41.88539" lon="1.0609287">
        <time>2022-07-08T09:27:13Z</time>
      </trkpt>
      <trkpt lat="41.885387" lon="1.0610085">
        <time>2022-07-08T09:27:14Z</time>
      </trkpt>
      <trkpt lat="41.88538" lon="1.0610864">
        <time>2022-07-08T09:27:15Z</time>
      </trkpt>
      <trkpt lat="41.885376" lon="1.061164">
        <time>2022-07-08T09:27:16Z</time>
      </trkpt>
      <trkpt lat="41.88537" lon="1.0612397">
        <time>2022-07-08T09:27:17Z</time>
      </trkpt>
      <trkpt lat="41.88536" lon="1.0613147">
        <time>2022-07-08T09:27:18Z</time>
      </trkpt>
      <trkpt lat="41.885357" lon="1.0613884">
        <time>2022-07-08T09:27:19Z</time>
      </trkpt>
      <trkpt lat="41.88535" lon="1.0614624">
        <time>2022-07-08T09:27:20Z</time>
      </trkpt>
      <trkpt lat="41.88534" lon="1.0615354">
        <time>2022-07-08T09:27:21Z</time>
      </trkpt>
      <trkpt lat="41.885338" lon="1.0616074">
        <time>2022-07-08T09:27:22Z</time>
      </trkpt>
      <trkpt lat="41.88533" lon="1.061678">
        <time>2022-07-08T09:27:23Z</time>
      </trkpt>
      <trkpt lat="41.885326" lon="1.0617497">
        <time>2022-07-08T09:27:24Z</time>
      </trkpt>
      <trkpt lat="41.885323" lon="1.0618213">
        <time>2022-07-08T09:27:25Z</time>
      </trkpt>
      <trkpt lat="41.88532" lon="1.061892">
        <time>2022-07-08T09:27:26Z</time>
      </trkpt>
      <trkpt lat="41.885315" lon="1.0619624">
        <time>2022-07-08T09:27:27Z</time>
      </trkpt>
      <trkpt lat="41.88531" lon="1.062032">
        <time>2022-07-08T09:27:28Z</time>
      </trkpt>
      <trkpt lat="41.8853" lon="1.0621687">
        <time>2022-07-08T09:27:30Z</time>
      </trkpt>
      <trkpt lat="41.885296" lon="1.0622363">
        <time>2022-07-08T09:27:31Z</time>
      </trkpt>
      <trkpt lat="41.88529" lon="1.0623693">
        <time>2022-07-08T09:27:33Z</time>
      </trkpt>
      <trkpt lat="41.885284" lon="1.0624343">
        <time>2022-07-08T09:27:34Z</time>
      </trkpt>
      <trkpt lat="41.88528" lon="1.062559">
        <time>2022-07-08T09:27:36Z</time>
      </trkpt>
      <trkpt lat="41.885277" lon="1.062687">
        <time>2022-07-08T09:27:38Z</time>
      </trkpt>
      <trkpt lat="41.885273" lon="1.0628114">
        <time>2022-07-08T09:27:40Z</time>
      </trkpt>
      <trkpt lat="41.885277" lon="1.0629343">
        <time>2022-07-08T09:27:42Z</time>
      </trkpt>
      <trkpt lat="41.88528" lon="1.0630573">
        <time>2022-07-08T09:27:44Z</time>
      </trkpt>
      <trkpt lat="41.885284" lon="1.0631794">
        <time>2022-07-08T09:27:46Z</time>
      </trkpt>
      <trkpt lat="41.885296" lon="1.063299">
        <time>2022-07-08T09:27:48Z</time>
      </trkpt>
      <trkpt lat="41.88531" lon="1.063418">
        <time>2022-07-08T09:27:50Z</time>
      </trkpt>
      <trkpt lat="41.885326" lon="1.0635383">
        <time>2022-07-08T09:27:52Z</time>
      </trkpt>
      <trkpt lat="41.88534" lon="1.0636584">
        <time>2022-07-08T09:27:54Z</time>
      </trkpt>
      <trkpt lat="41.88536" lon="1.063779">
        <time>2022-07-08T09:27:56Z</time>
      </trkpt>
      <trkpt lat="41.885384" lon="1.0638939">
        <time>2022-07-08T09:27:58Z</time>
      </trkpt>
      <trkpt lat="41.88541" lon="1.06401">
        <time>2022-07-08T09:28:00Z</time>
      </trkpt>
      <trkpt lat="41.88544" lon="1.0641196">
        <time>2022-07-08T09:28:02Z</time>
      </trkpt>
      <trkpt lat="41.88547" lon="1.0642273">
        <time>2022-07-08T09:28:04Z</time>
      </trkpt>
      <trkpt lat="41.885506" lon="1.0643386">
        <time>2022-07-08T09:28:06Z</time>
      </trkpt>
      <trkpt lat="41.88554" lon="1.0644482">
        <time>2022-07-08T09:28:08Z</time>
      </trkpt>
      <trkpt lat="41.88558" lon="1.0645523">
        <time>2022-07-08T09:28:10Z</time>
      </trkpt>
      <trkpt lat="41.88565" lon="1.0647116">
        <time>2022-07-08T09:28:13Z</time>
      </trkpt>
      <trkpt lat="41.885696" lon="1.0648093">
        <time>2022-07-08T09:28:15Z</time>
      </trkpt>
      <trkpt lat="41.885746" lon="1.0649096">
        <time>2022-07-08T09:28:17Z</time>
      </trkpt>
      <trkpt lat="41.885796" lon="1.0650036">
        <time>2022-07-08T09:28:19Z</time>
      </trkpt>
      <trkpt lat="41.88585" lon="1.0651016">
        <time>2022-07-08T09:28:21Z</time>
      </trkpt>
      <trkpt lat="41.88588" lon="1.0651516">
        <time>2022-07-08T09:28:22Z</time>
      </trkpt>
      <trkpt lat="41.885937" lon="1.0652446">
        <time>2022-07-08T09:28:24Z</time>
      </trkpt>
      <trkpt lat="41.886" lon="1.0653416">
        <time>2022-07-08T09:28:26Z</time>
      </trkpt>
      <trkpt lat="41.886036" lon="1.0653902">
        <time>2022-07-08T09:28:27Z</time>
      </trkpt>
      <trkpt lat="41.88607" lon="1.0654376">
        <time>2022-07-08T09:28:28Z</time>
      </trkpt>
      <trkpt lat="41.886135" lon="1.0655259">
        <time>2022-07-08T09:28:30Z</time>
      </trkpt>
      <trkpt lat="41.886204" lon="1.0656086">
        <time>2022-07-08T09:28:32Z</time>
      </trkpt>
      <trkpt lat="41.886272" lon="1.0656879">
        <time>2022-07-08T09:28:34Z</time>
      </trkpt>
      <trkpt lat="41.88634" lon="1.0657645">
        <time>2022-07-08T09:28:36Z</time>
      </trkpt>
      <trkpt lat="41.88641" lon="1.0658352">
        <time>2022-07-08T09:28:38Z</time>
      </trkpt>
      <trkpt lat="41.88648" lon="1.0659002">
        <time>2022-07-08T09:28:40Z</time>
      </trkpt>
      <trkpt lat="41.88654" lon="1.0659575">
        <time>2022-07-08T09:28:42Z</time>
      </trkpt>
      <trkpt lat="41.8866" lon="1.0660092">
        <time>2022-07-08T09:28:44Z</time>
      </trkpt>
      <trkpt lat="41.886658" lon="1.0660576">
        <time>2022-07-08T09:28:46Z</time>
      </trkpt>
      <trkpt lat="41.886715" lon="1.0661023">
        <time>2022-07-08T09:28:48Z</time>
      </trkpt>
      <trkpt lat="41.886772" lon="1.0661439">
        <time>2022-07-08T09:28:50Z</time>
      </trkpt>
      <trkpt lat="41.886826" lon="1.0661815">
        <time>2022-07-08T09:28:52Z</time>
      </trkpt>
      <trkpt lat="41.886883" lon="1.0662198">
        <time>2022-07-08T09:28:54Z</time>
      </trkpt>
      <trkpt lat="41.886936" lon="1.0662558">
        <time>2022-07-08T09:28:56Z</time>
      </trkpt>
      <trkpt lat="41.886993" lon="1.0662918">
        <time>2022-07-08T09:28:58Z</time>
      </trkpt>
      <trkpt lat="41.887047" lon="1.0663285">
        <time>2022-07-08T09:29:00Z</time>
      </trkpt>
      <trkpt lat="41.887104" lon="1.0663638">
        <time>2022-07-08T09:29:02Z</time>
      </trkpt>
      <trkpt lat="41.887157" lon="1.0663965">
        <time>2022-07-08T09:29:04Z</time>
      </trkpt>
      <trkpt lat="41.887207" lon="1.0664265">
        <time>2022-07-08T09:29:06Z</time>
      </trkpt>
      <trkpt lat="41.887257" lon="1.0664572">
        <time>2022-07-08T09:29:08Z</time>
      </trkpt>
      <trkpt lat="41.887306" lon="1.0664881">
        <time>2022-07-08T09:29:10Z</time>
      </trkpt>
      <trkpt lat="41.887356" lon="1.0665178">
        <time>2022-07-08T09:29:12Z</time>
      </trkpt>
      <trkpt lat="41.887405" lon="1.0665475">
        <time>2022-07-08T09:29:14Z</time>
      </trkpt>
      <trkpt lat="41.887455" lon="1.0665774">
        <time>2022-07-08T09:29:16Z</time>
      </trkpt>
      <trkpt lat="41.88751" lon="1.0666088">
        <time>2022-07-08T09:29:18Z</time>
      </trkpt>
      <trkpt lat="41.887558" lon="1.0666411">
        <time>2022-07-08T09:29:20Z</time>
      </trkpt>
      <trkpt lat="41.88763" lon="1.0666925">
        <time>2022-07-08T09:29:23Z</time>
      </trkpt>
      <trkpt lat="41.887676" lon="1.0667285">
        <time>2022-07-08T09:29:25Z</time>
      </trkpt>
      <trkpt lat="41.887726" lon="1.0667628">
        <time>2022-07-08T09:29:27Z</time>
      </trkpt>
      <trkpt lat="41.88777" lon="1.0668001">
        <time>2022-07-08T09:29:29Z</time>
      </trkpt>
      <trkpt lat="41.88782" lon="1.0668387">
        <time>2022-07-08T09:29:31Z</time>
      </trkpt>
      <trkpt lat="41.88787" lon="1.0668792">
        <time>2022-07-08T09:29:33Z</time>
      </trkpt>
      <trkpt lat="41.887917" lon="1.0669198">
        <time>2022-07-08T09:29:35Z</time>
      </trkpt>
      <trkpt lat="41.887962" lon="1.0669612">
        <time>2022-07-08T09:29:37Z</time>
      </trkpt>
      <trkpt lat="41.888004" lon="1.0670044">
        <time>2022-07-08T09:29:39Z</time>
      </trkpt>
      <trkpt lat="41.88805" lon="1.0670481">
        <time>2022-07-08T09:29:41Z</time>
      </trkpt>
      <trkpt lat="41.888096" lon="1.0670937">
        <time>2022-07-08T09:29:43Z</time>
      </trkpt>
      <trkpt lat="41.888138" lon="1.067141">
        <time>2022-07-08T09:29:45Z</time>
      </trkpt>
      <trkpt lat="41.888184" lon="1.0671898">
        <time>2022-07-08T09:29:47Z</time>
      </trkpt>
      <trkpt lat="41.888226" lon="1.0672385">
        <time>2022-07-08T09:29:49Z</time>
      </trkpt>
      <trkpt lat="41.888268" lon="1.0672864">
        <time>2022-07-08T09:29:51Z</time>
      </trkpt>
      <trkpt lat="41.888306" lon="1.0673348">
        <time>2022-07-08T09:29:53Z</time>
      </trkpt>
      <trkpt lat="41.888344" lon="1.0673847">
        <time>2022-07-08T09:29:55Z</time>
      </trkpt>
      <trkpt lat="41.888382" lon="1.0674365">
        <time>2022-07-08T09:29:57Z</time>
      </trkpt>
      <trkpt lat="41.888416" lon="1.0674884">
        <time>2022-07-08T09:29:59Z</time>
      </trkpt>
      <trkpt lat="41.88845" lon="1.0675384">
        <time>2022-07-08T09:30:01Z</time>
      </trkpt>
      <trkpt lat="41.8885" lon="1.0676208">
        <time>2022-07-08T09:30:04Z</time>
      </trkpt>
      <trkpt lat="41.88854" lon="1.0676801">
        <time>2022-07-08T09:30:06Z</time>
      </trkpt>
      <trkpt lat="41.888573" lon="1.0677394">
        <time>2022-07-08T09:30:08Z</time>
      </trkpt>
      <trkpt lat="41.888607" lon="1.0677987">
        <time>2022-07-08T09:30:10Z</time>
      </trkpt>
      <trkpt lat="41.888645" lon="1.0678594">
        <time>2022-07-08T09:30:12Z</time>
      </trkpt>
      <trkpt lat="41.888676" lon="1.0679204">
        <time>2022-07-08T09:30:14Z</time>
      </trkpt>
      <trkpt lat="41.888706" lon="1.0679843">
        <time>2022-07-08T09:30:16Z</time>
      </trkpt>
      <trkpt lat="41.888733" lon="1.0680497">
        <time>2022-07-08T09:30:18Z</time>
      </trkpt>
      <trkpt lat="41.888763" lon="1.0681164">
        <time>2022-07-08T09:30:20Z</time>
      </trkpt>
      <trkpt lat="41.888794" lon="1.0681844">
        <time>2022-07-08T09:30:22Z</time>
      </trkpt>
      <trkpt lat="41.88882" lon="1.0682534">
        <time>2022-07-08T09:30:24Z</time>
      </trkpt>
      <trkpt lat="41.888847" lon="1.068323">
        <time>2022-07-08T09:30:26Z</time>
      </trkpt>
      <trkpt lat="41.888874" lon="1.0683954">
        <time>2022-07-08T09:30:28Z</time>
      </trkpt>
      <trkpt lat="41.888897" lon="1.068468">
        <time>2022-07-08T09:30:30Z</time>
      </trkpt>
      <trkpt lat="41.88892" lon="1.0685416">
        <time>2022-07-08T09:30:32Z</time>
      </trkpt>
      <trkpt lat="41.88894" lon="1.0686157">
        <time>2022-07-08T09:30:34Z</time>
      </trkpt>
      <trkpt lat="41.88896" lon="1.0686936">
        <time>2022-07-08T09:30:36Z</time>
      </trkpt>
      <trkpt lat="41.88898" lon="1.0687743">
        <time>2022-07-08T09:30:38Z</time>
      </trkpt>
      <trkpt lat="41.889" lon="1.0688577">
        <time>2022-07-08T09:30:40Z</time>
      </trkpt>
      <trkpt lat="41.88902" lon="1.0689417">
        <time>2022-07-08T09:30:42Z</time>
      </trkpt>
      <trkpt lat="41.889034" lon="1.0690271">
        <time>2022-07-08T09:30:44Z</time>
      </trkpt>
      <trkpt lat="41.88905" lon="1.069115">
        <time>2022-07-08T09:30:46Z</time>
      </trkpt>
      <trkpt lat="41.889065" lon="1.069208">
        <time>2022-07-08T09:30:48Z</time>
      </trkpt>
      <trkpt lat="41.88908" lon="1.0693057">
        <time>2022-07-08T09:30:50Z</time>
      </trkpt>
      <trkpt lat="41.88909" lon="1.069401">
        <time>2022-07-08T09:30:52Z</time>
      </trkpt>
      <trkpt lat="41.8891" lon="1.0695003">
        <time>2022-07-08T09:30:54Z</time>
      </trkpt>
      <trkpt lat="41.889103" lon="1.069609">
        <time>2022-07-08T09:30:56Z</time>
      </trkpt>
      <trkpt lat="41.8891" lon="1.0697263">
        <time>2022-07-08T09:30:58Z</time>
      </trkpt>
      <trkpt lat="41.889095" lon="1.0698466">
        <time>2022-07-08T09:31:00Z</time>
      </trkpt>
      <trkpt lat="41.889088" lon="1.0699713">
        <time>2022-07-08T09:31:02Z</time>
      </trkpt>
      <trkpt lat="41.88907" lon="1.0701363">
        <time>2022-07-08T09:31:05Z</time>
      </trkpt>
      <trkpt lat="41.88906" lon="1.0702189">
        <time>2022-07-08T09:31:06Z</time>
      </trkpt>
      <trkpt lat="41.889053" lon="1.0702933">
        <time>2022-07-08T09:31:07Z</time>
      </trkpt>
      <trkpt lat="41.88904" lon="1.0703729">
        <time>2022-07-08T09:31:08Z</time>
      </trkpt>
      <trkpt lat="41.889034" lon="1.0704466">
        <time>2022-07-08T09:31:09Z</time>
      </trkpt>
      <trkpt lat="41.889023" lon="1.070522">
        <time>2022-07-08T09:31:10Z</time>
      </trkpt>
      <trkpt lat="41.88901" lon="1.0705982">
        <time>2022-07-08T09:31:11Z</time>
      </trkpt>
      <trkpt lat="41.889" lon="1.0706756">
        <time>2022-07-08T09:31:12Z</time>
      </trkpt>
      <trkpt lat="41.88899" lon="1.0707532">
        <time>2022-07-08T09:31:13Z</time>
      </trkpt>
      <trkpt lat="41.888977" lon="1.070828">
        <time>2022-07-08T09:31:14Z</time>
      </trkpt>
      <trkpt lat="41.88897" lon="1.0708963">
        <time>2022-07-08T09:31:15Z</time>
      </trkpt>
      <trkpt lat="41.888958" lon="1.070959">
        <time>2022-07-08T09:31:16Z</time>
      </trkpt>
      <trkpt lat="41.88894" lon="1.0710756">
        <time>2022-07-08T09:31:18Z</time>
      </trkpt>
      <trkpt lat="41.888912" lon="1.0711893">
        <time>2022-07-08T09:31:20Z</time>
      </trkpt>
      <trkpt lat="41.888878" lon="1.0713006">
        <time>2022-07-08T09:31:22Z</time>
      </trkpt>
      <trkpt lat="41.88884" lon="1.0714176">
        <time>2022-07-08T09:31:24Z</time>
      </trkpt>
      <trkpt lat="41.888794" lon="1.0715386">
        <time>2022-07-08T09:31:26Z</time>
      </trkpt>
      <trkpt lat="41.888767" lon="1.0716009">
        <time>2022-07-08T09:31:27Z</time>
      </trkpt>
      <trkpt lat="41.88874" lon="1.0716639">
        <time>2022-07-08T09:31:28Z</time>
      </trkpt>
      <trkpt lat="41.888714" lon="1.0717269">
        <time>2022-07-08T09:31:29Z</time>
      </trkpt>
      <trkpt lat="41.888683" lon="1.0717889">
        <time>2022-07-08T09:31:30Z</time>
      </trkpt>
      <trkpt lat="41.888653" lon="1.0718518">
        <time>2022-07-08T09:31:31Z</time>
      </trkpt>
      <trkpt lat="41.888622" lon="1.0719146">
        <time>2022-07-08T09:31:32Z</time>
      </trkpt>
      <trkpt lat="41.88859" lon="1.0719769">
        <time>2022-07-08T09:31:33Z</time>
      </trkpt>
      <trkpt lat="41.888557" lon="1.0720372">
        <time>2022-07-08T09:31:34Z</time>
      </trkpt>
      <trkpt lat="41.888523" lon="1.0720968">
        <time>2022-07-08T09:31:35Z</time>
      </trkpt>
      <trkpt lat="41.88849" lon="1.0721569">
        <time>2022-07-08T09:31:36Z</time>
      </trkpt>
      <trkpt lat="41.88845" lon="1.0722139">
        <time>2022-07-08T09:31:37Z</time>
      </trkpt>
      <trkpt lat="41.888416" lon="1.0722709">
        <time>2022-07-08T09:31:38Z</time>
      </trkpt>
      <trkpt lat="41.88838" lon="1.0723289">
        <time>2022-07-08T09:31:39Z</time>
      </trkpt>
      <trkpt lat="41.88834" lon="1.0723876">
        <time>2022-07-08T09:31:40Z</time>
      </trkpt>
      <trkpt lat="41.888298" lon="1.0724466">
        <time>2022-07-08T09:31:41Z</time>
      </trkpt>
      <trkpt lat="41.88826" lon="1.0725065">
        <time>2022-07-08T09:31:42Z</time>
      </trkpt>
      <trkpt lat="41.888214" lon="1.0725648">
        <time>2022-07-08T09:31:43Z</time>
      </trkpt>
      <trkpt lat="41.888172" lon="1.0726233">
        <time>2022-07-08T09:31:44Z</time>
      </trkpt>
      <trkpt lat="41.88813" lon="1.0726788">
        <time>2022-07-08T09:31:45Z</time>
      </trkpt>
      <trkpt lat="41.88809" lon="1.0727352">
        <time>2022-07-08T09:31:46Z</time>
      </trkpt>
      <trkpt lat="41.888046" lon="1.0727979">
        <time>2022-07-08T09:31:47Z</time>
      </trkpt>
      <trkpt lat="41.888004" lon="1.0728585">
        <time>2022-07-08T09:31:48Z</time>
      </trkpt>
      <trkpt lat="41.887962" lon="1.0729165">
        <time>2022-07-08T09:31:49Z</time>
      </trkpt>
      <trkpt lat="41.88792" lon="1.0729789">
        <time>2022-07-08T09:31:50Z</time>
      </trkpt>
      <trkpt lat="41.887882" lon="1.0730362">
        <time>2022-07-08T09:31:51Z</time>
      </trkpt>
      <trkpt lat="41.88784" lon="1.0731019">
        <time>2022-07-08T09:31:52Z</time>
      </trkpt>
      <trkpt lat="41.887794" lon="1.0731682">
        <time>2022-07-08T09:31:53Z</time>
      </trkpt>
      <trkpt lat="41.887753" lon="1.0732359">
        <time>2022-07-08T09:31:54Z</time>
      </trkpt>
      <trkpt lat="41.88771" lon="1.0733021">
        <time>2022-07-08T09:31:55Z</time>
      </trkpt>
      <trkpt lat="41.88767" lon="1.0733671">
        <time>2022-07-08T09:31:56Z</time>
      </trkpt>
      <trkpt lat="41.887627" lon="1.0734324">
        <time>2022-07-08T09:31:57Z</time>
      </trkpt>
      <trkpt lat="41.887585" lon="1.0734985">
        <time>2022-07-08T09:31:58Z</time>
      </trkpt>
      <trkpt lat="41.88754" lon="1.0735648">
        <time>2022-07-08T09:31:59Z</time>
      </trkpt>
      <trkpt lat="41.887493" lon="1.0736315">
        <time>2022-07-08T09:32:00Z</time>
      </trkpt>
      <trkpt lat="41.887447" lon="1.0736952">
        <time>2022-07-08T09:32:01Z</time>
      </trkpt>
      <trkpt lat="41.8874" lon="1.0737588">
        <time>2022-07-08T09:32:02Z</time>
      </trkpt>
      <trkpt lat="41.88736" lon="1.0738214">
        <time>2022-07-08T09:32:03Z</time>
      </trkpt>
      <trkpt lat="41.887314" lon="1.0738815">
        <time>2022-07-08T09:32:04Z</time>
      </trkpt>
      <trkpt lat="41.887268" lon="1.0739408">
        <time>2022-07-08T09:32:05Z</time>
      </trkpt>
      <trkpt lat="41.887222" lon="1.0739998">
        <time>2022-07-08T09:32:06Z</time>
      </trkpt>
      <trkpt lat="41.887177" lon="1.0740571">
        <time>2022-07-08T09:32:07Z</time>
      </trkpt>
      <trkpt lat="41.887085" lon="1.0741727">
        <time>2022-07-08T09:32:09Z</time>
      </trkpt>
      <trkpt lat="41.88704" lon="1.0742311">
        <time>2022-07-08T09:32:10Z</time>
      </trkpt>
      <trkpt lat="41.88699" lon="1.0742878">
        <time>2022-07-08T09:32:11Z</time>
      </trkpt>
      <trkpt lat="41.886944" lon="1.0743448">
        <time>2022-07-08T09:32:12Z</time>
      </trkpt>
      <trkpt lat="41.886894" lon="1.0743988">
        <time>2022-07-08T09:32:13Z</time>
      </trkpt>
      <trkpt lat="41.886845" lon="1.0744501">
        <time>2022-07-08T09:32:14Z</time>
      </trkpt>
      <trkpt lat="41.886795" lon="1.0745014">
        <time>2022-07-08T09:32:15Z</time>
      </trkpt>
      <trkpt lat="41.886745" lon="1.074552">
        <time>2022-07-08T09:32:16Z</time>
      </trkpt>
      <trkpt lat="41.8867" lon="1.0746024">
        <time>2022-07-08T09:32:17Z</time>
      </trkpt>
      <trkpt lat="41.88665" lon="1.0746528">
        <time>2022-07-08T09:32:18Z</time>
      </trkpt>
      <trkpt lat="41.8866" lon="1.0747018">
        <time>2022-07-08T09:32:19Z</time>
      </trkpt>
      <trkpt lat="41.886555" lon="1.0747514">
        <time>2022-07-08T09:32:20Z</time>
      </trkpt>
      <trkpt lat="41.886505" lon="1.0748011">
        <time>2022-07-08T09:32:21Z</time>
      </trkpt>
      <trkpt lat="41.88646" lon="1.0748501">
        <time>2022-07-08T09:32:22Z</time>
      </trkpt>
      <trkpt lat="41.886414" lon="1.0749">
        <time>2022-07-08T09:32:23Z</time>
      </trkpt>
      <trkpt lat="41.886368" lon="1.074951">
        <time>2022-07-08T09:32:24Z</time>
      </trkpt>
      <trkpt lat="41.886322" lon="1.0750034">
        <time>2022-07-08T09:32:25Z</time>
      </trkpt>
      <trkpt lat="41.886276" lon="1.0750548">
        <time>2022-07-08T09:32:26Z</time>
      </trkpt>
      <trkpt lat="41.88623" lon="1.0751047">
        <time>2022-07-08T09:32:27Z</time>
      </trkpt>
      <trkpt lat="41.886185" lon="1.0751528">
        <time>2022-07-08T09:32:28Z</time>
      </trkpt>
      <trkpt lat="41.88614" lon="1.0752001">
        <time>2022-07-08T09:32:29Z</time>
      </trkpt>
      <trkpt lat="41.886093" lon="1.0752474">
        <time>2022-07-08T09:32:30Z</time>
      </trkpt>
      <trkpt lat="41.88605" lon="1.075294">
        <time>2022-07-08T09:32:31Z</time>
      </trkpt>
      <trkpt lat="41.88601" lon="1.0753404">
        <time>2022-07-08T09:32:32Z</time>
      </trkpt>
      <trkpt lat="41.885967" lon="1.0753864">
        <time>2022-07-08T09:32:33Z</time>
      </trkpt>
      <trkpt lat="41.885925" lon="1.0754317">
        <time>2022-07-08T09:32:34Z</time>
      </trkpt>
      <trkpt lat="41.885887" lon="1.0754764">
        <time>2022-07-08T09:32:35Z</time>
      </trkpt>
      <trkpt lat="41.885807" lon="1.0755644">
        <time>2022-07-08T09:32:37Z</time>
      </trkpt>
      <trkpt lat="41.885765" lon="1.075608">
        <time>2022-07-08T09:32:38Z</time>
      </trkpt>
      <trkpt lat="41.885727" lon="1.07565">
        <time>2022-07-08T09:32:39Z</time>
      </trkpt>
      <trkpt lat="41.88565" lon="1.0757314">
        <time>2022-07-08T09:32:41Z</time>
      </trkpt>
      <trkpt lat="41.88558" lon="1.0758097">
        <time>2022-07-08T09:32:43Z</time>
      </trkpt>
      <trkpt lat="41.885506" lon="1.075887">
        <time>2022-07-08T09:32:45Z</time>
      </trkpt>
      <trkpt lat="41.885433" lon="1.0759627">
        <time>2022-07-08T09:32:47Z</time>
      </trkpt>
      <trkpt lat="41.885365" lon="1.0760484">
        <time>2022-07-08T09:32:49Z</time>
      </trkpt>
      <trkpt lat="41.885296" lon="1.0761247">
        <time>2022-07-08T09:32:51Z</time>
      </trkpt>
      <trkpt lat="41.885227" lon="1.0761933">
        <time>2022-07-08T09:32:53Z</time>
      </trkpt>
      <trkpt lat="41.885166" lon="1.0762609">
        <time>2022-07-08T09:32:55Z</time>
      </trkpt>
      <trkpt lat="41.885105" lon="1.0763277">
        <time>2022-07-08T09:32:57Z</time>
      </trkpt>
      <trkpt lat="41.885048" lon="1.0764027">
        <time>2022-07-08T09:32:59Z</time>
      </trkpt>
      <trkpt lat="41.884987" lon="1.076478">
        <time>2022-07-08T09:33:01Z</time>
      </trkpt>
      <trkpt lat="41.884926" lon="1.0765506">
        <time>2022-07-08T09:33:03Z</time>
      </trkpt>
      <trkpt lat="41.884865" lon="1.076625">
        <time>2022-07-08T09:33:05Z</time>
      </trkpt>
      <trkpt lat="41.8848" lon="1.076698">
        <time>2022-07-08T09:33:07Z</time>
      </trkpt>
      <trkpt lat="41.884735" lon="1.0767707">
        <time>2022-07-08T09:33:09Z</time>
      </trkpt>
      <trkpt lat="41.884674" lon="1.0768456">
        <time>2022-07-08T09:33:11Z</time>
      </trkpt>
      <trkpt lat="41.884613" lon="1.0769236">
        <time>2022-07-08T09:33:13Z</time>
      </trkpt>
      <trkpt lat="41.884552" lon="1.0770023">
        <time>2022-07-08T09:33:15Z</time>
      </trkpt>
      <trkpt lat="41.88449" lon="1.0770819">
        <time>2022-07-08T09:33:17Z</time>
      </trkpt>
      <trkpt lat="41.88443" lon="1.0771693">
        <time>2022-07-08T09:33:19Z</time>
      </trkpt>
      <trkpt lat="41.884373" lon="1.0772613">
        <time>2022-07-08T09:33:21Z</time>
      </trkpt>
      <trkpt lat="41.884342" lon="1.0773103">
        <time>2022-07-08T09:33:22Z</time>
      </trkpt>
      <trkpt lat="41.884285" lon="1.0774063">
        <time>2022-07-08T09:33:24Z</time>
      </trkpt>
      <trkpt lat="41.88422" lon="1.0775123">
        <time>2022-07-08T09:33:26Z</time>
      </trkpt>
      <trkpt lat="41.884155" lon="1.0776203">
        <time>2022-07-08T09:33:28Z</time>
      </trkpt>
      <trkpt lat="41.884125" lon="1.0776756">
        <time>2022-07-08T09:33:29Z</time>
      </trkpt>
      <trkpt lat="41.88409" lon="1.0777316">
        <time>2022-07-08T09:33:30Z</time>
      </trkpt>
      <trkpt lat="41.884026" lon="1.0778463">
        <time>2022-07-08T09:33:32Z</time>
      </trkpt>
      <trkpt lat="41.883995" lon="1.0779046">
        <time>2022-07-08T09:33:33Z</time>
      </trkpt>
      <trkpt lat="41.883965" lon="1.0779632">
        <time>2022-07-08T09:33:34Z</time>
      </trkpt>
      <trkpt lat="41.88393" lon="1.0780232">
        <time>2022-07-08T09:33:35Z</time>
      </trkpt>
      <trkpt lat="41.883896" lon="1.0780829">
        <time>2022-07-08T09:33:36Z</time>
      </trkpt>
      <trkpt lat="41.88386" lon="1.0781446">
        <time>2022-07-08T09:33:37Z</time>
      </trkpt>
      <trkpt lat="41.883827" lon="1.0782065">
        <time>2022-07-08T09:33:38Z</time>
      </trkpt>
      <trkpt lat="41.883793" lon="1.0782692">
        <time>2022-07-08T09:33:39Z</time>
      </trkpt>
      <trkpt lat="41.88376" lon="1.0783325">
        <time>2022-07-08T09:33:40Z</time>
      </trkpt>
      <trkpt lat="41.88372" lon="1.0783966">
        <time>2022-07-08T09:33:41Z</time>
      </trkpt>
      <trkpt lat="41.883686" lon="1.0784622">
        <time>2022-07-08T09:33:42Z</time>
      </trkpt>
      <trkpt lat="41.88365" lon="1.0785279">
        <time>2022-07-08T09:33:43Z</time>
      </trkpt>
      <trkpt lat="41.883614" lon="1.0785939">
        <time>2022-07-08T09:33:44Z</time>
      </trkpt>
      <trkpt lat="41.88358" lon="1.0786589">
        <time>2022-07-08T09:33:45Z</time>
      </trkpt>
      <trkpt lat="41.88354" lon="1.0787228">
        <time>2022-07-08T09:33:46Z</time>
      </trkpt>
      <trkpt lat="41.883503" lon="1.0787863">
        <time>2022-07-08T09:33:47Z</time>
      </trkpt>
      <trkpt lat="41.88347" lon="1.0788479">
        <time>2022-07-08T09:33:48Z</time>
      </trkpt>
      <trkpt lat="41.883434" lon="1.0789073">
        <time>2022-07-08T09:33:49Z</time>
      </trkpt>
      <trkpt lat="41.8834" lon="1.0789652">
        <time>2022-07-08T09:33:50Z</time>
      </trkpt>
      <trkpt lat="41.883366" lon="1.0790229">
        <time>2022-07-08T09:33:51Z</time>
      </trkpt>
      <trkpt lat="41.883335" lon="1.0790789">
        <time>2022-07-08T09:33:52Z</time>
      </trkpt>
      <trkpt lat="41.883305" lon="1.0791342">
        <time>2022-07-08T09:33:53Z</time>
      </trkpt>
      <trkpt lat="41.883274" lon="1.0791888">
        <time>2022-07-08T09:33:54Z</time>
      </trkpt>
      <trkpt lat="41.883244" lon="1.0792435">
        <time>2022-07-08T09:33:55Z</time>
      </trkpt>
      <trkpt lat="41.88318" lon="1.0793542">
        <time>2022-07-08T09:33:57Z</time>
      </trkpt>
      <trkpt lat="41.88315" lon="1.0794106">
        <time>2022-07-08T09:33:58Z</time>
      </trkpt>
      <trkpt lat="41.883114" lon="1.0794675">
        <time>2022-07-08T09:33:59Z</time>
      </trkpt>
      <trkpt lat="41.883083" lon="1.0795249">
        <time>2022-07-08T09:34:00Z</time>
      </trkpt>
      <trkpt lat="41.883053" lon="1.0795819">
        <time>2022-07-08T09:34:01Z</time>
      </trkpt>
      <trkpt lat="41.882988" lon="1.0796958">
        <time>2022-07-08T09:34:03Z</time>
      </trkpt>
      <trkpt lat="41.882957" lon="1.0797515">
        <time>2022-07-08T09:34:04Z</time>
      </trkpt>
      <trkpt lat="41.882927" lon="1.0798068">
        <time>2022-07-08T09:34:05Z</time>
      </trkpt>
      <trkpt lat="41.882893" lon="1.0798621">
        <time>2022-07-08T09:34:06Z</time>
      </trkpt>
      <trkpt lat="41.882835" lon="1.0799735">
        <time>2022-07-08T09:34:08Z</time>
      </trkpt>
      <trkpt lat="41.882805" lon="1.0800295">
        <time>2022-07-08T09:34:09Z</time>
      </trkpt>
      <trkpt lat="41.882774" lon="1.0800844">
        <time>2022-07-08T09:34:10Z</time>
      </trkpt>
      <trkpt lat="41.882713" lon="1.0801932">
        <time>2022-07-08T09:34:12Z</time>
      </trkpt>
      <trkpt lat="41.882683" lon="1.0802475">
        <time>2022-07-08T09:34:13Z</time>
      </trkpt>
      <trkpt lat="41.882626" lon="1.0803558">
        <time>2022-07-08T09:34:15Z</time>
      </trkpt>
      <trkpt lat="41.882565" lon="1.0804611">
        <time>2022-07-08T09:34:17Z</time>
      </trkpt>
      <trkpt lat="41.882507" lon="1.0805645">
        <time>2022-07-08T09:34:19Z</time>
      </trkpt>
      <trkpt lat="41.882446" lon="1.0806671">
        <time>2022-07-08T09:34:21Z</time>
      </trkpt>
      <trkpt lat="41.88242" lon="1.0807234">
        <time>2022-07-08T09:34:22Z</time>
      </trkpt>
      <trkpt lat="41.88233" lon="1.0808867">
        <time>2022-07-08T09:34:25Z</time>
      </trkpt>
      <trkpt lat="41.8823" lon="1.0809405">
        <time>2022-07-08T09:34:26Z</time>
      </trkpt>
      <trkpt lat="41.882244" lon="1.0810474">
        <time>2022-07-08T09:34:28Z</time>
      </trkpt>
      <trkpt lat="41.882214" lon="1.0810997">
        <time>2022-07-08T09:34:29Z</time>
      </trkpt>
      <trkpt lat="41.88216" lon="1.0812044">
        <time>2022-07-08T09:34:31Z</time>
      </trkpt>
      <trkpt lat="41.882107" lon="1.0813035">
        <time>2022-07-08T09:34:33Z</time>
      </trkpt>
      <trkpt lat="41.88205" lon="1.0814065">
        <time>2022-07-08T09:34:35Z</time>
      </trkpt>
      <trkpt lat="41.881996" lon="1.0815108">
        <time>2022-07-08T09:34:37Z</time>
      </trkpt>
      <trkpt lat="41.88197" lon="1.0815648">
        <time>2022-07-08T09:34:38Z</time>
      </trkpt>
      <trkpt lat="41.881916" lon="1.0816715">
        <time>2022-07-08T09:34:40Z</time>
      </trkpt>
      <trkpt lat="41.881893" lon="1.0817248">
        <time>2022-07-08T09:34:41Z</time>
      </trkpt>
      <trkpt lat="41.881844" lon="1.0818357">
        <time>2022-07-08T09:34:43Z</time>
      </trkpt>
      <trkpt lat="41.881817" lon="1.0818914">
        <time>2022-07-08T09:34:44Z</time>
      </trkpt>
      <trkpt lat="41.881767" lon="1.082002">
        <time>2022-07-08T09:34:46Z</time>
      </trkpt>
      <trkpt lat="41.88174" lon="1.0820584">
        <time>2022-07-08T09:34:47Z</time>
      </trkpt>
      <trkpt lat="41.88169" lon="1.0821724">
        <time>2022-07-08T09:34:49Z</time>
      </trkpt>
      <trkpt lat="41.88164" lon="1.082291">
        <time>2022-07-08T09:34:51Z</time>
      </trkpt>
      <trkpt lat="41.881596" lon="1.0824127">
        <time>2022-07-08T09:34:53Z</time>
      </trkpt>
      <trkpt lat="41.881573" lon="1.0824754">
        <time>2022-07-08T09:34:54Z</time>
      </trkpt>
      <trkpt lat="41.88155" lon="1.0825367">
        <time>2022-07-08T09:34:55Z</time>
      </trkpt>
      <trkpt lat="41.881496" lon="1.0826564">
        <time>2022-07-08T09:34:57Z</time>
      </trkpt>
      <trkpt lat="41.881474" lon="1.082715">
        <time>2022-07-08T09:34:58Z</time>
      </trkpt>
      <trkpt lat="41.88142" lon="1.0828314">
        <time>2022-07-08T09:35:00Z</time>
      </trkpt>
      <trkpt lat="41.881374" lon="1.0829467">
        <time>2022-07-08T09:35:02Z</time>
      </trkpt>
      <trkpt lat="41.881325" lon="1.083061">
        <time>2022-07-08T09:35:04Z</time>
      </trkpt>
      <trkpt lat="41.88128" lon="1.0831764">
        <time>2022-07-08T09:35:06Z</time>
      </trkpt>
      <trkpt lat="41.881233" lon="1.083293">
        <time>2022-07-08T09:35:08Z</time>
      </trkpt>
      <trkpt lat="41.881184" lon="1.0834093">
        <time>2022-07-08T09:35:10Z</time>
      </trkpt>
      <trkpt lat="41.881134" lon="1.083527">
        <time>2022-07-08T09:35:12Z</time>
      </trkpt>
      <trkpt lat="41.88108" lon="1.0836463">
        <time>2022-07-08T09:35:14Z</time>
      </trkpt>
      <trkpt lat="41.881058" lon="1.0837073">
        <time>2022-07-08T09:35:15Z</time>
      </trkpt>
      <trkpt lat="41.88103" lon="1.0837697">
        <time>2022-07-08T09:35:16Z</time>
      </trkpt>
      <trkpt lat="41.88101" lon="1.0838317">
        <time>2022-07-08T09:35:17Z</time>
      </trkpt>
      <trkpt lat="41.880955" lon="1.0839583">
        <time>2022-07-08T09:35:19Z</time>
      </trkpt>
      <trkpt lat="41.880928" lon="1.0840223">
        <time>2022-07-08T09:35:20Z</time>
      </trkpt>
      <trkpt lat="41.8809" lon="1.084087">
        <time>2022-07-08T09:35:21Z</time>
      </trkpt>
      <trkpt lat="41.880875" lon="1.084152">
        <time>2022-07-08T09:35:22Z</time>
      </trkpt>
      <trkpt lat="41.88082" lon="1.0842813">
        <time>2022-07-08T09:35:24Z</time>
      </trkpt>
      <trkpt lat="41.880795" lon="1.0843467">
        <time>2022-07-08T09:35:25Z</time>
      </trkpt>
      <trkpt lat="41.880768" lon="1.0844116">
        <time>2022-07-08T09:35:26Z</time>
      </trkpt>
      <trkpt lat="41.88074" lon="1.084477">
        <time>2022-07-08T09:35:27Z</time>
      </trkpt>
      <trkpt lat="41.880714" lon="1.0845419">
        <time>2022-07-08T09:35:28Z</time>
      </trkpt>
      <trkpt lat="41.880688" lon="1.0846059">
        <time>2022-07-08T09:35:29Z</time>
      </trkpt>
      <trkpt lat="41.880665" lon="1.0846694">
        <time>2022-07-08T09:35:30Z</time>
      </trkpt>
      <trkpt lat="41.88064" lon="1.0847327">
        <time>2022-07-08T09:35:31Z</time>
      </trkpt>
      <trkpt lat="41.88061" lon="1.0847956">
        <time>2022-07-08T09:35:32Z</time>
      </trkpt>
      <trkpt lat="41.88059" lon="1.0848587">
        <time>2022-07-08T09:35:33Z</time>
      </trkpt>
      <trkpt lat="41.88053" lon="1.084984">
        <time>2022-07-08T09:35:35Z</time>
      </trkpt>
      <trkpt lat="41.880505" lon="1.0850463">
        <time>2022-07-08T09:35:36Z</time>
      </trkpt>
      <trkpt lat="41.880455" lon="1.0851699">
        <time>2022-07-08T09:35:38Z</time>
      </trkpt>
      <trkpt lat="41.880432" lon="1.0852319">
        <time>2022-07-08T09:35:39Z</time>
      </trkpt>
      <trkpt lat="41.880405" lon="1.0852929">
        <time>2022-07-08T09:35:40Z</time>
      </trkpt>
      <trkpt lat="41.880383" lon="1.085354">
        <time>2022-07-08T09:35:41Z</time>
      </trkpt>
      <trkpt lat="41.88033" lon="1.0854716">
        <time>2022-07-08T09:35:43Z</time>
      </trkpt>
      <trkpt lat="41.880302" lon="1.0855296">
        <time>2022-07-08T09:35:44Z</time>
      </trkpt>
      <trkpt lat="41.880253" lon="1.0856426">
        <time>2022-07-08T09:35:46Z</time>
      </trkpt>
      <trkpt lat="41.880203" lon="1.0857522">
        <time>2022-07-08T09:35:48Z</time>
      </trkpt>
      <trkpt lat="41.88016" lon="1.0858616">
        <time>2022-07-08T09:35:50Z</time>
      </trkpt>
      <trkpt lat="41.88012" lon="1.0859703">
        <time>2022-07-08T09:35:52Z</time>
      </trkpt>
      <trkpt lat="41.880077" lon="1.0860776">
        <time>2022-07-08T09:35:54Z</time>
      </trkpt>
      <trkpt lat="41.880043" lon="1.0861809">
        <time>2022-07-08T09:35:56Z</time>
      </trkpt>
      <trkpt lat="41.88" lon="1.0862796">
        <time>2022-07-08T09:35:58Z</time>
      </trkpt>
      <trkpt lat="41.879963" lon="1.0863765">
        <time>2022-07-08T09:36:00Z</time>
      </trkpt>
      <trkpt lat="41.879925" lon="1.0864695">
        <time>2022-07-08T09:36:02Z</time>
      </trkpt>
      <trkpt lat="41.87989" lon="1.0865612">
        <time>2022-07-08T09:36:04Z</time>
      </trkpt>
      <trkpt lat="41.879852" lon="1.0866519">
        <time>2022-07-08T09:36:06Z</time>
      </trkpt>
      <trkpt lat="41.87981" lon="1.0867382">
        <time>2022-07-08T09:36:08Z</time>
      </trkpt>
      <trkpt lat="41.879772" lon="1.0868208">
        <time>2022-07-08T09:36:10Z</time>
      </trkpt>
      <trkpt lat="41.879734" lon="1.0869036">
        <time>2022-07-08T09:36:12Z</time>
      </trkpt>
      <trkpt lat="41.8797" lon="1.0869858">
        <time>2022-07-08T09:36:14Z</time>
      </trkpt>
      <trkpt lat="41.87966" lon="1.0870706">
        <time>2022-07-08T09:36:16Z</time>
      </trkpt>
      <trkpt lat="41.879627" lon="1.0871586">
        <time>2022-07-08T09:36:18Z</time>
      </trkpt>
      <trkpt lat="41.879593" lon="1.0872475">
        <time>2022-07-08T09:36:20Z</time>
      </trkpt>
      <trkpt lat="41.87956" lon="1.0873386">
        <time>2022-07-08T09:36:22Z</time>
      </trkpt>
      <trkpt lat="41.879524" lon="1.0874332">
        <time>2022-07-08T09:36:24Z</time>
      </trkpt>
      <trkpt lat="41.879486" lon="1.0875318">
        <time>2022-07-08T09:36:26Z</time>
      </trkpt>
      <trkpt lat="41.879448" lon="1.0876315">
        <time>2022-07-08T09:36:28Z</time>
      </trkpt>
      <trkpt lat="41.879414" lon="1.0877328">
        <time>2022-07-08T09:36:30Z</time>
      </trkpt>
      <trkpt lat="41.87938" lon="1.0878408">
        <time>2022-07-08T09:36:32Z</time>
      </trkpt>
      <trkpt lat="41.87935" lon="1.0879555">
        <time>2022-07-08T09:36:34Z</time>
      </trkpt>
      <trkpt lat="41.87931" lon="1.0880752">
        <time>2022-07-08T09:36:36Z</time>
      </trkpt>
      <trkpt lat="41.87929" lon="1.0881371">
        <time>2022-07-08T09:36:37Z</time>
      </trkpt>
      <trkpt lat="41.879253" lon="1.0882698">
        <time>2022-07-08T09:36:39Z</time>
      </trkpt>
      <trkpt lat="41.879234" lon="1.0883405">
        <time>2022-07-08T09:36:40Z</time>
      </trkpt>
      <trkpt lat="41.879215" lon="1.0884125">
        <time>2022-07-08T09:36:41Z</time>
      </trkpt>
      <trkpt lat="41.879192" lon="1.0884855">
        <time>2022-07-08T09:36:42Z</time>
      </trkpt>
      <trkpt lat="41.879173" lon="1.0885588">
        <time>2022-07-08T09:36:43Z</time>
      </trkpt>
      <trkpt lat="41.879154" lon="1.0886319">
        <time>2022-07-08T09:36:44Z</time>
      </trkpt>
      <trkpt lat="41.87913" lon="1.0887061">
        <time>2022-07-08T09:36:45Z</time>
      </trkpt>
      <trkpt lat="41.879112" lon="1.0887808">
        <time>2022-07-08T09:36:46Z</time>
      </trkpt>
      <trkpt lat="41.87909" lon="1.0888551">
        <time>2022-07-08T09:36:47Z</time>
      </trkpt>
      <trkpt lat="41.879066" lon="1.0889288">
        <time>2022-07-08T09:36:48Z</time>
      </trkpt>
      <trkpt lat="41.879044" lon="1.0890025">
        <time>2022-07-08T09:36:49Z</time>
      </trkpt>
      <trkpt lat="41.879025" lon="1.0890762">
        <time>2022-07-08T09:36:50Z</time>
      </trkpt>
      <trkpt lat="41.879" lon="1.0891491">
        <time>2022-07-08T09:36:51Z</time>
      </trkpt>
      <trkpt lat="41.878983" lon="1.0892218">
        <time>2022-07-08T09:36:52Z</time>
      </trkpt>
      <trkpt lat="41.878963" lon="1.0892935">
        <time>2022-07-08T09:36:53Z</time>
      </trkpt>
      <trkpt lat="41.878944" lon="1.0893644">
        <time>2022-07-08T09:36:54Z</time>
      </trkpt>
      <trkpt lat="41.87892" lon="1.0894341">
        <time>2022-07-08T09:36:55Z</time>
      </trkpt>
      <trkpt lat="41.878902" lon="1.0895028">
        <time>2022-07-08T09:36:56Z</time>
      </trkpt>
      <trkpt lat="41.878883" lon="1.0895704">
        <time>2022-07-08T09:36:57Z</time>
      </trkpt>
      <trkpt lat="41.87887" lon="1.089637">
        <time>2022-07-08T09:36:58Z</time>
      </trkpt>
      <trkpt lat="41.87885" lon="1.0897031">
        <time>2022-07-08T09:36:59Z</time>
      </trkpt>
      <trkpt lat="41.878815" lon="1.0898324">
        <time>2022-07-08T09:37:01Z</time>
      </trkpt>
      <trkpt lat="41.8788" lon="1.0898957">
        <time>2022-07-08T09:37:02Z</time>
      </trkpt>
      <trkpt lat="41.87877" lon="1.0900167">
        <time>2022-07-08T09:37:04Z</time>
      </trkpt>
      <trkpt lat="41.87874" lon="1.0901331">
        <time>2022-07-08T09:37:06Z</time>
      </trkpt>
      <trkpt lat="41.878708" lon="1.0902451">
        <time>2022-07-08T09:37:08Z</time>
      </trkpt>
      <trkpt lat="41.87868" lon="1.0903524">
        <time>2022-07-08T09:37:10Z</time>
      </trkpt>
      <trkpt lat="41.878654" lon="1.0904564">
        <time>2022-07-08T09:37:12Z</time>
      </trkpt>
      <trkpt lat="41.87863" lon="1.0905551">
        <time>2022-07-08T09:37:14Z</time>
      </trkpt>
      <trkpt lat="41.878605" lon="1.0906484">
        <time>2022-07-08T09:37:16Z</time>
      </trkpt>
      <trkpt lat="41.878582" lon="1.0907414">
        <time>2022-07-08T09:37:18Z</time>
      </trkpt>
      <trkpt lat="41.878555" lon="1.0908331">
        <time>2022-07-08T09:37:20Z</time>
      </trkpt>
      <trkpt lat="41.878536" lon="1.0909251">
        <time>2022-07-08T09:37:22Z</time>
      </trkpt>
      <trkpt lat="41.878513" lon="1.0910147">
        <time>2022-07-08T09:37:24Z</time>
      </trkpt>
      <trkpt lat="41.87849" lon="1.091106">
        <time>2022-07-08T09:37:26Z</time>
      </trkpt>
      <trkpt lat="41.878468" lon="1.0911987">
        <time>2022-07-08T09:37:28Z</time>
      </trkpt>
      <trkpt lat="41.87845" lon="1.091293">
        <time>2022-07-08T09:37:30Z</time>
      </trkpt>
      <trkpt lat="41.87843" lon="1.0913844">
        <time>2022-07-08T09:37:32Z</time>
      </trkpt>
      <trkpt lat="41.87841" lon="1.0914787">
        <time>2022-07-08T09:37:34Z</time>
      </trkpt>
      <trkpt lat="41.87839" lon="1.0915734">
        <time>2022-07-08T09:37:36Z</time>
      </trkpt>
      <trkpt lat="41.878376" lon="1.0916697">
        <time>2022-07-08T09:37:38Z</time>
      </trkpt>
      <trkpt lat="41.87836" lon="1.091766">
        <time>2022-07-08T09:37:40Z</time>
      </trkpt>
      <trkpt lat="41.878345" lon="1.091863">
        <time>2022-07-08T09:37:42Z</time>
      </trkpt>
      <trkpt lat="41.87833" lon="1.0919586">
        <time>2022-07-08T09:37:44Z</time>
      </trkpt>
      <trkpt lat="41.878315" lon="1.092056">
        <time>2022-07-08T09:37:46Z</time>
      </trkpt>
      <trkpt lat="41.878304" lon="1.092154">
        <time>2022-07-08T09:37:48Z</time>
      </trkpt>
      <trkpt lat="41.878292" lon="1.092253">
        <time>2022-07-08T09:37:50Z</time>
      </trkpt>
      <trkpt lat="41.87828" lon="1.0923537">
        <time>2022-07-08T09:37:52Z</time>
      </trkpt>
      <trkpt lat="41.878273" lon="1.0924563">
        <time>2022-07-08T09:37:54Z</time>
      </trkpt>
      <trkpt lat="41.878265" lon="1.0925616">
        <time>2022-07-08T09:37:56Z</time>
      </trkpt>
      <trkpt lat="41.878258" lon="1.0926694">
        <time>2022-07-08T09:37:58Z</time>
      </trkpt>
      <trkpt lat="41.878254" lon="1.0927796">
        <time>2022-07-08T09:38:00Z</time>
      </trkpt>
      <trkpt lat="41.878254" lon="1.092891">
        <time>2022-07-08T09:38:02Z</time>
      </trkpt>
      <trkpt lat="41.878254" lon="1.0930057">
        <time>2022-07-08T09:38:04Z</time>
      </trkpt>
      <trkpt lat="41.878258" lon="1.0931226">
        <time>2022-07-08T09:38:06Z</time>
      </trkpt>
      <trkpt lat="41.878258" lon="1.0932413">
        <time>2022-07-08T09:38:08Z</time>
      </trkpt>
      <trkpt lat="41.878265" lon="1.0933623">
        <time>2022-07-08T09:38:10Z</time>
      </trkpt>
      <trkpt lat="41.87827" lon="1.093424">
        <time>2022-07-08T09:38:11Z</time>
      </trkpt>
      <trkpt lat="41.878273" lon="1.093552">
        <time>2022-07-08T09:38:13Z</time>
      </trkpt>
      <trkpt lat="41.878284" lon="1.0936823">
        <time>2022-07-08T09:38:15Z</time>
      </trkpt>
      <trkpt lat="41.878296" lon="1.0938122">
        <time>2022-07-08T09:38:17Z</time>
      </trkpt>
      <trkpt lat="41.878307" lon="1.093941">
        <time>2022-07-08T09:38:19Z</time>
      </trkpt>
      <trkpt lat="41.878315" lon="1.0940063">
        <time>2022-07-08T09:38:20Z</time>
      </trkpt>
      <trkpt lat="41.87833" lon="1.0941366">
        <time>2022-07-08T09:38:22Z</time>
      </trkpt>
      <trkpt lat="41.87835" lon="1.0942672">
        <time>2022-07-08T09:38:24Z</time>
      </trkpt>
      <trkpt lat="41.878372" lon="1.0944003">
        <time>2022-07-08T09:38:26Z</time>
      </trkpt>
      <trkpt lat="41.878395" lon="1.0945315">
        <time>2022-07-08T09:38:28Z</time>
      </trkpt>
      <trkpt lat="41.878407" lon="1.0945972">
        <time>2022-07-08T09:38:29Z</time>
      </trkpt>
      <trkpt lat="41.87842" lon="1.0946625">
        <time>2022-07-08T09:38:30Z</time>
      </trkpt>
      <trkpt lat="41.878452" lon="1.0947926">
        <time>2022-07-08T09:38:32Z</time>
      </trkpt>
      <trkpt lat="41.878483" lon="1.0949233">
        <time>2022-07-08T09:38:34Z</time>
      </trkpt>
      <trkpt lat="41.878498" lon="1.0949882">
        <time>2022-07-08T09:38:35Z</time>
      </trkpt>
      <trkpt lat="41.878532" lon="1.0951155">
        <time>2022-07-08T09:38:37Z</time>
      </trkpt>
      <trkpt lat="41.878548" lon="1.0951809">
        <time>2022-07-08T09:38:38Z</time>
      </trkpt>
      <trkpt lat="41.878586" lon="1.0953156">
        <time>2022-07-08T09:38:40Z</time>
      </trkpt>
      <trkpt lat="41.878605" lon="1.0953826">
        <time>2022-07-08T09:38:41Z</time>
      </trkpt>
      <trkpt lat="41.878624" lon="1.0954496">
        <time>2022-07-08T09:38:42Z</time>
      </trkpt>
      <trkpt lat="41.878643" lon="1.0955158">
        <time>2022-07-08T09:38:43Z</time>
      </trkpt>
      <trkpt lat="41.878662" lon="1.0955819">
        <time>2022-07-08T09:38:44Z</time>
      </trkpt>
      <trkpt lat="41.878677" lon="1.0956472">
        <time>2022-07-08T09:38:45Z</time>
      </trkpt>
      <trkpt lat="41.878696" lon="1.0957125">
        <time>2022-07-08T09:38:46Z</time>
      </trkpt>
      <trkpt lat="41.87873" lon="1.0958409">
        <time>2022-07-08T09:38:48Z</time>
      </trkpt>
      <trkpt lat="41.87875" lon="1.0959039">
        <time>2022-07-08T09:38:49Z</time>
      </trkpt>
      <trkpt lat="41.878784" lon="1.0960275">
        <time>2022-07-08T09:38:51Z</time>
      </trkpt>
      <trkpt lat="41.87882" lon="1.0961492">
        <time>2022-07-08T09:38:53Z</time>
      </trkpt>
      <trkpt lat="41.878853" lon="1.0962659">
        <time>2022-07-08T09:38:55Z</time>
      </trkpt>
      <trkpt lat="41.87887" lon="1.0963199">
        <time>2022-07-08T09:38:56Z</time>
      </trkpt>
      <trkpt lat="41.8789" lon="1.0964339">
        <time>2022-07-08T09:38:58Z</time>
      </trkpt>
      <trkpt lat="41.878918" lon="1.0964899">
        <time>2022-07-08T09:38:59Z</time>
      </trkpt>
      <trkpt lat="41.87895" lon="1.0965989">
        <time>2022-07-08T09:39:01Z</time>
      </trkpt>
      <trkpt lat="41.87898" lon="1.0967039">
        <time>2022-07-08T09:39:03Z</time>
      </trkpt>
      <trkpt lat="41.87901" lon="1.0968049">
        <time>2022-07-08T09:39:05Z</time>
      </trkpt>
      <trkpt lat="41.879036" lon="1.0968995">
        <time>2022-07-08T09:39:07Z</time>
      </trkpt>
      <trkpt lat="41.879066" lon="1.0969945">
        <time>2022-07-08T09:39:09Z</time>
      </trkpt>
      <trkpt lat="41.879097" lon="1.0970871">
        <time>2022-07-08T09:39:11Z</time>
      </trkpt>
      <trkpt lat="41.879124" lon="1.0971782">
        <time>2022-07-08T09:39:13Z</time>
      </trkpt>
      <trkpt lat="41.87915" lon="1.0972692">
        <time>2022-07-08T09:39:15Z</time>
      </trkpt>
      <trkpt lat="41.879173" lon="1.0973545">
        <time>2022-07-08T09:39:17Z</time>
      </trkpt>
      <trkpt lat="41.879204" lon="1.0974495">
        <time>2022-07-08T09:39:19Z</time>
      </trkpt>
      <trkpt lat="41.87923" lon="1.0975372">
        <time>2022-07-08T09:39:21Z</time>
      </trkpt>
      <trkpt lat="41.879265" lon="1.0976295">
        <time>2022-07-08T09:39:23Z</time>
      </trkpt>
      <trkpt lat="41.8793" lon="1.0977215">
        <time>2022-07-08T09:39:25Z</time>
      </trkpt>
      <trkpt lat="41.87933" lon="1.0978062">
        <time>2022-07-08T09:39:27Z</time>
      </trkpt>
      <trkpt lat="41.879368" lon="1.0978955">
        <time>2022-07-08T09:39:29Z</time>
      </trkpt>
      <trkpt lat="41.879406" lon="1.0979828">
        <time>2022-07-08T09:39:31Z</time>
      </trkpt>
      <trkpt lat="41.87944" lon="1.0980629">
        <time>2022-07-08T09:39:33Z</time>
      </trkpt>
      <trkpt lat="41.87948" lon="1.0981481">
        <time>2022-07-08T09:39:35Z</time>
      </trkpt>
      <trkpt lat="41.87952" lon="1.0982308">
        <time>2022-07-08T09:39:37Z</time>
      </trkpt>
      <trkpt lat="41.879562" lon="1.0983101">
        <time>2022-07-08T09:39:39Z</time>
      </trkpt>
      <trkpt lat="41.879604" lon="1.0983912">
        <time>2022-07-08T09:39:41Z</time>
      </trkpt>
      <trkpt lat="41.87965" lon="1.0984712">
        <time>2022-07-08T09:39:43Z</time>
      </trkpt>
      <trkpt lat="41.879696" lon="1.0985491">
        <time>2022-07-08T09:39:45Z</time>
      </trkpt>
      <trkpt lat="41.87974" lon="1.0986261">
        <time>2022-07-08T09:39:47Z</time>
      </trkpt>
      <trkpt lat="41.87979" lon="1.0987031">
        <time>2022-07-08T09:39:49Z</time>
      </trkpt>
      <trkpt lat="41.879837" lon="1.0987798">
        <time>2022-07-08T09:39:51Z</time>
      </trkpt>
      <trkpt lat="41.87988" lon="1.0988544">
        <time>2022-07-08T09:39:53Z</time>
      </trkpt>
      <trkpt lat="41.879925" lon="1.0989288">
        <time>2022-07-08T09:39:55Z</time>
      </trkpt>
      <trkpt lat="41.87997" lon="1.0990045">
        <time>2022-07-08T09:39:57Z</time>
      </trkpt>
      <trkpt lat="41.880013" lon="1.0990762">
        <time>2022-07-08T09:39:59Z</time>
      </trkpt>
      <trkpt lat="41.88006" lon="1.0991495">
        <time>2022-07-08T09:40:01Z</time>
      </trkpt>
      <trkpt lat="41.8801" lon="1.0992235">
        <time>2022-07-08T09:40:03Z</time>
      </trkpt>
      <trkpt lat="41.880146" lon="1.0992985">
        <time>2022-07-08T09:40:05Z</time>
      </trkpt>
      <trkpt lat="41.88019" lon="1.0993778">
        <time>2022-07-08T09:40:07Z</time>
      </trkpt>
      <trkpt lat="41.880234" lon="1.0994551">
        <time>2022-07-08T09:40:09Z</time>
      </trkpt>
      <trkpt lat="41.880276" lon="1.0995325">
        <time>2022-07-08T09:40:11Z</time>
      </trkpt>
      <trkpt lat="41.880318" lon="1.0996134">
        <time>2022-07-08T09:40:13Z</time>
      </trkpt>
      <trkpt lat="41.880356" lon="1.0996917">
        <time>2022-07-08T09:40:15Z</time>
      </trkpt>
      <trkpt lat="41.880394" lon="1.0997728">
        <time>2022-07-08T09:40:17Z</time>
      </trkpt>
      <trkpt lat="41.880432" lon="1.0998558">
        <time>2022-07-08T09:40:19Z</time>
      </trkpt>
      <trkpt lat="41.88047" lon="1.0999417">
        <time>2022-07-08T09:40:21Z</time>
      </trkpt>
      <trkpt lat="41.88051" lon="1.1000321">
        <time>2022-07-08T09:40:23Z</time>
      </trkpt>
      <trkpt lat="41.880543" lon="1.1001238">
        <time>2022-07-08T09:40:25Z</time>
      </trkpt>
      <trkpt lat="41.880573" lon="1.1002171">
        <time>2022-07-08T09:40:27Z</time>
      </trkpt>
      <trkpt lat="41.880604" lon="1.1003155">
        <time>2022-07-08T09:40:29Z</time>
      </trkpt>
      <trkpt lat="41.88063" lon="1.100409">
        <time>2022-07-08T09:40:31Z</time>
      </trkpt>
      <trkpt lat="41.880657" lon="1.1005037">
        <time>2022-07-08T09:40:33Z</time>
      </trkpt>
      <trkpt lat="41.880684" lon="1.1006067">
        <time>2022-07-08T09:40:35Z</time>
      </trkpt>
      <trkpt lat="41.88072" lon="1.100754">
        <time>2022-07-08T09:40:38Z</time>
      </trkpt>
      <trkpt lat="41.880737" lon="1.1008518">
        <time>2022-07-08T09:40:40Z</time>
      </trkpt>
      <trkpt lat="41.880756" lon="1.1009474">
        <time>2022-07-08T09:40:42Z</time>
      </trkpt>
      <trkpt lat="41.88077" lon="1.1010484">
        <time>2022-07-08T09:40:44Z</time>
      </trkpt>
      <trkpt lat="41.880783" lon="1.101146">
        <time>2022-07-08T09:40:46Z</time>
      </trkpt>
      <trkpt lat="41.8808" lon="1.101245">
        <time>2022-07-08T09:40:48Z</time>
      </trkpt>
      <trkpt lat="41.88081" lon="1.1013471">
        <time>2022-07-08T09:40:50Z</time>
      </trkpt>
      <trkpt lat="41.88082" lon="1.1014453">
        <time>2022-07-08T09:40:52Z</time>
      </trkpt>
      <trkpt lat="41.880833" lon="1.1015453">
        <time>2022-07-08T09:40:54Z</time>
      </trkpt>
      <trkpt lat="41.88084" lon="1.101645">
        <time>2022-07-08T09:40:56Z</time>
      </trkpt>
      <trkpt lat="41.88085" lon="1.101745">
        <time>2022-07-08T09:40:58Z</time>
      </trkpt>
      <trkpt lat="41.880863" lon="1.101853">
        <time>2022-07-08T09:41:00Z</time>
      </trkpt>
      <trkpt lat="41.880875" lon="1.1019564">
        <time>2022-07-08T09:41:02Z</time>
      </trkpt>
      <trkpt lat="41.880882" lon="1.1020584">
        <time>2022-07-08T09:41:04Z</time>
      </trkpt>
      <trkpt lat="41.88089" lon="1.1021674">
        <time>2022-07-08T09:41:06Z</time>
      </trkpt>
      <trkpt lat="41.880898" lon="1.1022694">
        <time>2022-07-08T09:41:08Z</time>
      </trkpt>
      <trkpt lat="41.88091" lon="1.1023757">
        <time>2022-07-08T09:41:10Z</time>
      </trkpt>
      <trkpt lat="41.880917" lon="1.102487">
        <time>2022-07-08T09:41:12Z</time>
      </trkpt>
      <trkpt lat="41.880924" lon="1.102594">
        <time>2022-07-08T09:41:14Z</time>
      </trkpt>
      <trkpt lat="41.880936" lon="1.1027113">
        <time>2022-07-08T09:41:16Z</time>
      </trkpt>
      <trkpt lat="41.880943" lon="1.1028221">
        <time>2022-07-08T09:41:18Z</time>
      </trkpt>
      <trkpt lat="41.880955" lon="1.1029316">
        <time>2022-07-08T09:41:20Z</time>
      </trkpt>
      <trkpt lat="41.880962" lon="1.103048">
        <time>2022-07-08T09:41:22Z</time>
      </trkpt>
      <trkpt lat="41.880974" lon="1.1031584">
        <time>2022-07-08T09:41:24Z</time>
      </trkpt>
      <trkpt lat="41.880985" lon="1.1032697">
        <time>2022-07-08T09:41:26Z</time>
      </trkpt>
      <trkpt lat="41.880993" lon="1.1033833">
        <time>2022-07-08T09:41:28Z</time>
      </trkpt>
      <trkpt lat="41.881004" lon="1.1034917">
        <time>2022-07-08T09:41:30Z</time>
      </trkpt>
      <trkpt lat="41.881016" lon="1.1036019">
        <time>2022-07-08T09:41:32Z</time>
      </trkpt>
      <trkpt lat="41.881023" lon="1.1037116">
        <time>2022-07-08T09:41:34Z</time>
      </trkpt>
      <trkpt lat="41.88103" lon="1.10382">
        <time>2022-07-08T09:41:36Z</time>
      </trkpt>
      <trkpt lat="41.881046" lon="1.1039907">
        <time>2022-07-08T09:41:39Z</time>
      </trkpt>
      <trkpt lat="41.881054" lon="1.1041037">
        <time>2022-07-08T09:41:41Z</time>
      </trkpt>
      <trkpt lat="41.88106" lon="1.1042219">
        <time>2022-07-08T09:41:43Z</time>
      </trkpt>
      <trkpt lat="41.88107" lon="1.10434">
        <time>2022-07-08T09:41:45Z</time>
      </trkpt>
      <trkpt lat="41.88108" lon="1.1044523">
        <time>2022-07-08T09:41:47Z</time>
      </trkpt>
      <trkpt lat="41.88109" lon="1.104574">
        <time>2022-07-08T09:41:49Z</time>
      </trkpt>
      <trkpt lat="41.8811" lon="1.1046863">
        <time>2022-07-08T09:41:51Z</time>
      </trkpt>
      <trkpt lat="41.881107" lon="1.1047996">
        <time>2022-07-08T09:41:53Z</time>
      </trkpt>
      <trkpt lat="41.881115" lon="1.1049162">
        <time>2022-07-08T09:41:55Z</time>
      </trkpt>
      <trkpt lat="41.881115" lon="1.105037">
        <time>2022-07-08T09:41:57Z</time>
      </trkpt>
      <trkpt lat="41.881115" lon="1.1051673">
        <time>2022-07-08T09:41:59Z</time>
      </trkpt>
      <trkpt lat="41.88111" lon="1.1052942">
        <time>2022-07-08T09:42:01Z</time>
      </trkpt>
      <trkpt lat="41.88111" lon="1.1053523">
        <time>2022-07-08T09:42:02Z</time>
      </trkpt>
      <trkpt lat="41.881104" lon="1.105477">
        <time>2022-07-08T09:42:04Z</time>
      </trkpt>
      <trkpt lat="41.881096" lon="1.1055406">
        <time>2022-07-08T09:42:05Z</time>
      </trkpt>
      <trkpt lat="41.881084" lon="1.1056676">
        <time>2022-07-08T09:42:07Z</time>
      </trkpt>
      <trkpt lat="41.881077" lon="1.1057272">
        <time>2022-07-08T09:42:08Z</time>
      </trkpt>
      <trkpt lat="41.881058" lon="1.105856">
        <time>2022-07-08T09:42:10Z</time>
      </trkpt>
      <trkpt lat="41.88105" lon="1.1059183">
        <time>2022-07-08T09:42:11Z</time>
      </trkpt>
      <trkpt lat="41.88104" lon="1.1060326">
        <time>2022-07-08T09:42:13Z</time>
      </trkpt>
      <trkpt lat="41.88102" lon="1.1061486">
        <time>2022-07-08T09:42:15Z</time>
      </trkpt>
      <trkpt lat="41.88101" lon="1.1062555">
        <time>2022-07-08T09:42:17Z</time>
      </trkpt>
      <trkpt lat="41.880993" lon="1.1063548">
        <time>2022-07-08T09:42:19Z</time>
      </trkpt>
      <trkpt lat="41.880974" lon="1.1064665">
        <time>2022-07-08T09:42:21Z</time>
      </trkpt>
      <trkpt lat="41.880955" lon="1.1065769">
        <time>2022-07-08T09:42:23Z</time>
      </trkpt>
      <trkpt lat="41.88093" lon="1.1067009">
        <time>2022-07-08T09:42:25Z</time>
      </trkpt>
      <trkpt lat="41.880917" lon="1.1068215">
        <time>2022-07-08T09:42:27Z</time>
      </trkpt>
      <trkpt lat="41.880898" lon="1.1069379">
        <time>2022-07-08T09:42:29Z</time>
      </trkpt>
      <trkpt lat="41.88088" lon="1.1070598">
        <time>2022-07-08T09:42:31Z</time>
      </trkpt>
      <trkpt lat="41.88087" lon="1.1071188">
        <time>2022-07-08T09:42:32Z</time>
      </trkpt>
      <trkpt lat="41.88086" lon="1.1072348">
        <time>2022-07-08T09:42:34Z</time>
      </trkpt>
      <trkpt lat="41.880844" lon="1.1073445">
        <time>2022-07-08T09:42:36Z</time>
      </trkpt>
      <trkpt lat="41.88083" lon="1.1074579">
        <time>2022-07-08T09:42:38Z</time>
      </trkpt>
      <trkpt lat="41.880814" lon="1.1076245">
        <time>2022-07-08T09:42:41Z</time>
      </trkpt>
      <trkpt lat="41.880806" lon="1.1077355">
        <time>2022-07-08T09:42:43Z</time>
      </trkpt>
      <trkpt lat="41.880795" lon="1.1078435">
        <time>2022-07-08T09:42:45Z</time>
      </trkpt>
      <trkpt lat="41.880787" lon="1.1079602">
        <time>2022-07-08T09:42:47Z</time>
      </trkpt>
      <trkpt lat="41.880783" lon="1.1080755">
        <time>2022-07-08T09:42:49Z</time>
      </trkpt>
      <trkpt lat="41.88078" lon="1.1081909">
        <time>2022-07-08T09:42:51Z</time>
      </trkpt>
      <trkpt lat="41.88078" lon="1.1083105">
        <time>2022-07-08T09:42:53Z</time>
      </trkpt>
      <trkpt lat="41.88078" lon="1.1084335">
        <time>2022-07-08T09:42:55Z</time>
      </trkpt>
      <trkpt lat="41.88078" lon="1.1085528">
        <time>2022-07-08T09:42:57Z</time>
      </trkpt>
      <trkpt lat="41.880787" lon="1.1086781">
        <time>2022-07-08T09:42:59Z</time>
      </trkpt>
      <trkpt lat="41.88079" lon="1.1087395">
        <time>2022-07-08T09:43:00Z</time>
      </trkpt>
      <trkpt lat="41.8808" lon="1.1088709">
        <time>2022-07-08T09:43:02Z</time>
      </trkpt>
      <trkpt lat="41.880806" lon="1.1089355">
        <time>2022-07-08T09:43:03Z</time>
      </trkpt>
      <trkpt lat="41.880817" lon="1.1090591">
        <time>2022-07-08T09:43:05Z</time>
      </trkpt>
      <trkpt lat="41.880833" lon="1.1091892">
        <time>2022-07-08T09:43:07Z</time>
      </trkpt>
      <trkpt lat="41.88085" lon="1.1093198">
        <time>2022-07-08T09:43:09Z</time>
      </trkpt>
      <trkpt lat="41.880875" lon="1.1094475">
        <time>2022-07-08T09:43:11Z</time>
      </trkpt>
      <trkpt lat="41.8809" lon="1.1095841">
        <time>2022-07-08T09:43:13Z</time>
      </trkpt>
      <trkpt lat="41.880917" lon="1.1096491">
        <time>2022-07-08T09:43:14Z</time>
      </trkpt>
      <trkpt lat="41.880928" lon="1.1097155">
        <time>2022-07-08T09:43:15Z</time>
      </trkpt>
      <trkpt lat="41.88096" lon="1.1098485">
        <time>2022-07-08T09:43:17Z</time>
      </trkpt>
      <trkpt lat="41.880974" lon="1.1099148">
        <time>2022-07-08T09:43:18Z</time>
      </trkpt>
      <trkpt lat="41.880993" lon="1.1099808">
        <time>2022-07-08T09:43:19Z</time>
      </trkpt>
      <trkpt lat="41.88101" lon="1.1100471">
        <time>2022-07-08T09:43:20Z</time>
      </trkpt>
      <trkpt lat="41.881042" lon="1.1101778">
        <time>2022-07-08T09:43:22Z</time>
      </trkpt>
      <trkpt lat="41.881058" lon="1.1102427">
        <time>2022-07-08T09:43:23Z</time>
      </trkpt>
      <trkpt lat="41.881092" lon="1.1103728">
        <time>2022-07-08T09:43:25Z</time>
      </trkpt>
      <trkpt lat="41.881107" lon="1.1104374">
        <time>2022-07-08T09:43:26Z</time>
      </trkpt>
      <trkpt lat="41.881123" lon="1.1105027">
        <time>2022-07-08T09:43:27Z</time>
      </trkpt>
      <trkpt lat="41.881153" lon="1.1106365">
        <time>2022-07-08T09:43:29Z</time>
      </trkpt>
      <trkpt lat="41.88117" lon="1.1107041">
        <time>2022-07-08T09:43:30Z</time>
      </trkpt>
      <trkpt lat="41.881187" lon="1.1107724">
        <time>2022-07-08T09:43:31Z</time>
      </trkpt>
      <trkpt lat="41.881203" lon="1.110841">
        <time>2022-07-08T09:43:32Z</time>
      </trkpt>
      <trkpt lat="41.881218" lon="1.1109087">
        <time>2022-07-08T09:43:33Z</time>
      </trkpt>
      <trkpt lat="41.881237" lon="1.1109763">
        <time>2022-07-08T09:43:34Z</time>
      </trkpt>
      <trkpt lat="41.881268" lon="1.111112">
        <time>2022-07-08T09:43:36Z</time>
      </trkpt>
      <trkpt lat="41.881283" lon="1.1111801">
        <time>2022-07-08T09:43:37Z</time>
      </trkpt>
      <trkpt lat="41.881298" lon="1.111248">
        <time>2022-07-08T09:43:38Z</time>
      </trkpt>
      <trkpt lat="41.881313" lon="1.111317">
        <time>2022-07-08T09:43:39Z</time>
      </trkpt>
      <trkpt lat="41.881344" lon="1.1114564">
        <time>2022-07-08T09:43:41Z</time>
      </trkpt>
      <trkpt lat="41.88136" lon="1.1115264">
        <time>2022-07-08T09:43:42Z</time>
      </trkpt>
      <trkpt lat="41.881374" lon="1.1115963">
        <time>2022-07-08T09:43:43Z</time>
      </trkpt>
      <trkpt lat="41.881386" lon="1.1116614">
        <time>2022-07-08T09:43:44Z</time>
      </trkpt>
      <trkpt lat="41.881397" lon="1.1117281">
        <time>2022-07-08T09:43:45Z</time>
      </trkpt>
      <trkpt lat="41.881424" lon="1.1118754">
        <time>2022-07-08T09:43:47Z</time>
      </trkpt>
      <trkpt lat="41.88144" lon="1.1119477">
        <time>2022-07-08T09:43:48Z</time>
      </trkpt>
      <trkpt lat="41.88145" lon="1.1120144">
        <time>2022-07-08T09:43:49Z</time>
      </trkpt>
      <trkpt lat="41.881466" lon="1.1120827">
        <time>2022-07-08T09:43:50Z</time>
      </trkpt>
      <trkpt lat="41.881477" lon="1.1121567">
        <time>2022-07-08T09:43:51Z</time>
      </trkpt>
      <trkpt lat="41.88149" lon="1.1122243">
        <time>2022-07-08T09:43:52Z</time>
      </trkpt>
      <trkpt lat="41.881504" lon="1.112292">
        <time>2022-07-08T09:43:53Z</time>
      </trkpt>
      <trkpt lat="41.881516" lon="1.1123596">
        <time>2022-07-08T09:43:54Z</time>
      </trkpt>
      <trkpt lat="41.881542" lon="1.1124914">
        <time>2022-07-08T09:43:56Z</time>
      </trkpt>
      <trkpt lat="41.881557" lon="1.1125556">
        <time>2022-07-08T09:43:57Z</time>
      </trkpt>
      <trkpt lat="41.881588" lon="1.1126873">
        <time>2022-07-08T09:43:59Z</time>
      </trkpt>
      <trkpt lat="41.881603" lon="1.1127486">
        <time>2022-07-08T09:44:00Z</time>
      </trkpt>
      <trkpt lat="41.881634" lon="1.1128796">
        <time>2022-07-08T09:44:02Z</time>
      </trkpt>
      <trkpt lat="41.881645" lon="1.1129436">
        <time>2022-07-08T09:44:03Z</time>
      </trkpt>
      <trkpt lat="41.881676" lon="1.1130617">
        <time>2022-07-08T09:44:05Z</time>
      </trkpt>
      <trkpt lat="41.881702" lon="1.1131873">
        <time>2022-07-08T09:44:07Z</time>
      </trkpt>
      <trkpt lat="41.881733" lon="1.1133146">
        <time>2022-07-08T09:44:09Z</time>
      </trkpt>
      <trkpt lat="41.881756" lon="1.1134356">
        <time>2022-07-08T09:44:11Z</time>
      </trkpt>
      <trkpt lat="41.881783" lon="1.1135616">
        <time>2022-07-08T09:44:13Z</time>
      </trkpt>
      <trkpt lat="41.881798" lon="1.1136233">
        <time>2022-07-08T09:44:14Z</time>
      </trkpt>
      <trkpt lat="41.881824" lon="1.1137437">
        <time>2022-07-08T09:44:16Z</time>
      </trkpt>
      <trkpt lat="41.881855" lon="1.1138726">
        <time>2022-07-08T09:44:18Z</time>
      </trkpt>
      <trkpt lat="41.88187" lon="1.113936">
        <time>2022-07-08T09:44:19Z</time>
      </trkpt>
      <trkpt lat="41.881897" lon="1.1140599">
        <time>2022-07-08T09:44:21Z</time>
      </trkpt>
      <trkpt lat="41.881927" lon="1.1141816">
        <time>2022-07-08T09:44:23Z</time>
      </trkpt>
      <trkpt lat="41.881954" lon="1.1143016">
        <time>2022-07-08T09:44:25Z</time>
      </trkpt>
      <trkpt lat="41.881977" lon="1.1144216">
        <time>2022-07-08T09:44:27Z</time>
      </trkpt>
      <trkpt lat="41.882004" lon="1.11454">
        <time>2022-07-08T09:44:29Z</time>
      </trkpt>
      <trkpt lat="41.882027" lon="1.1146556">
        <time>2022-07-08T09:44:31Z</time>
      </trkpt>
      <trkpt lat="41.88205" lon="1.1147729">
        <time>2022-07-08T09:44:33Z</time>
      </trkpt>
      <trkpt lat="41.88206" lon="1.114833">
        <time>2022-07-08T09:44:34Z</time>
      </trkpt>
      <trkpt lat="41.882088" lon="1.1149546">
        <time>2022-07-08T09:44:36Z</time>
      </trkpt>
      <trkpt lat="41.882114" lon="1.1150789">
        <time>2022-07-08T09:44:38Z</time>
      </trkpt>
      <trkpt lat="41.88213" lon="1.115142">
        <time>2022-07-08T09:44:39Z</time>
      </trkpt>
      <trkpt lat="41.882156" lon="1.1152679">
        <time>2022-07-08T09:44:41Z</time>
      </trkpt>
      <trkpt lat="41.882183" lon="1.1153933">
        <time>2022-07-08T09:44:43Z</time>
      </trkpt>
      <trkpt lat="41.88221" lon="1.1155139">
        <time>2022-07-08T09:44:45Z</time>
      </trkpt>
      <trkpt lat="41.882233" lon="1.1156325">
        <time>2022-07-08T09:44:47Z</time>
      </trkpt>
      <trkpt lat="41.882256" lon="1.1157446">
        <time>2022-07-08T09:44:49Z</time>
      </trkpt>
      <trkpt lat="41.882282" lon="1.1158669">
        <time>2022-07-08T09:44:51Z</time>
      </trkpt>
      <trkpt lat="41.88232" lon="1.1160423">
        <time>2022-07-08T09:44:54Z</time>
      </trkpt>
      <trkpt lat="41.882343" lon="1.1161616">
        <time>2022-07-08T09:44:56Z</time>
      </trkpt>
      <trkpt lat="41.882366" lon="1.1162792">
        <time>2022-07-08T09:44:58Z</time>
      </trkpt>
      <trkpt lat="41.88239" lon="1.1163982">
        <time>2022-07-08T09:45:00Z</time>
      </trkpt>
      <trkpt lat="41.882404" lon="1.1164585">
        <time>2022-07-08T09:45:01Z</time>
      </trkpt>
      <trkpt lat="41.882427" lon="1.1165799">
        <time>2022-07-08T09:45:03Z</time>
      </trkpt>
      <trkpt lat="41.882454" lon="1.1167002">
        <time>2022-07-08T09:45:05Z</time>
      </trkpt>
      <trkpt lat="41.882465" lon="1.1167595">
        <time>2022-07-08T09:45:06Z</time>
      </trkpt>
      <trkpt lat="41.882492" lon="1.1168792">
        <time>2022-07-08T09:45:08Z</time>
      </trkpt>
      <trkpt lat="41.88252" lon="1.1169986">
        <time>2022-07-08T09:45:10Z</time>
      </trkpt>
      <trkpt lat="41.882545" lon="1.1171249">
        <time>2022-07-08T09:45:12Z</time>
      </trkpt>
      <trkpt lat="41.882572" lon="1.1172519">
        <time>2022-07-08T09:45:14Z</time>
      </trkpt>
      <trkpt lat="41.8826" lon="1.1173782">
        <time>2022-07-08T09:45:16Z</time>
      </trkpt>
      <trkpt lat="41.882626" lon="1.1175019">
        <time>2022-07-08T09:45:18Z</time>
      </trkpt>
      <trkpt lat="41.882652" lon="1.1176312">
        <time>2022-07-08T09:45:20Z</time>
      </trkpt>
      <trkpt lat="41.882664" lon="1.1176928">
        <time>2022-07-08T09:45:21Z</time>
      </trkpt>
      <trkpt lat="41.882694" lon="1.1178246">
        <time>2022-07-08T09:45:23Z</time>
      </trkpt>
      <trkpt lat="41.882706" lon="1.1178901">
        <time>2022-07-08T09:45:24Z</time>
      </trkpt>
      <trkpt lat="41.88273" lon="1.1180128">
        <time>2022-07-08T09:45:26Z</time>
      </trkpt>
      <trkpt lat="41.882755" lon="1.1181434">
        <time>2022-07-08T09:45:28Z</time>
      </trkpt>
      <trkpt lat="41.88278" lon="1.1182652">
        <time>2022-07-08T09:45:30Z</time>
      </trkpt>
      <trkpt lat="41.882793" lon="1.1183314">
        <time>2022-07-08T09:45:31Z</time>
      </trkpt>
      <trkpt lat="41.88282" lon="1.1184615">
        <time>2022-07-08T09:45:33Z</time>
      </trkpt>
      <trkpt lat="41.882847" lon="1.1185881">
        <time>2022-07-08T09:45:35Z</time>
      </trkpt>
      <trkpt lat="41.882877" lon="1.1187152">
        <time>2022-07-08T09:45:37Z</time>
      </trkpt>
      <trkpt lat="41.882904" lon="1.1188405">
        <time>2022-07-08T09:45:39Z</time>
      </trkpt>
      <trkpt lat="41.882927" lon="1.1189655">
        <time>2022-07-08T09:45:41Z</time>
      </trkpt>
      <trkpt lat="41.88295" lon="1.1190921">
        <time>2022-07-08T09:45:43Z</time>
      </trkpt>
      <trkpt lat="41.88296" lon="1.1191561">
        <time>2022-07-08T09:45:44Z</time>
      </trkpt>
      <trkpt lat="41.882988" lon="1.1192847">
        <time>2022-07-08T09:45:46Z</time>
      </trkpt>
      <trkpt lat="41.883015" lon="1.1194152">
        <time>2022-07-08T09:45:48Z</time>
      </trkpt>
      <trkpt lat="41.88303" lon="1.1194798">
        <time>2022-07-08T09:45:49Z</time>
      </trkpt>
      <trkpt lat="41.883057" lon="1.1196051">
        <time>2022-07-08T09:45:51Z</time>
      </trkpt>
      <trkpt lat="41.883083" lon="1.119739">
        <time>2022-07-08T09:45:53Z</time>
      </trkpt>
      <trkpt lat="41.8831" lon="1.1198014">
        <time>2022-07-08T09:45:54Z</time>
      </trkpt>
      <trkpt lat="41.88313" lon="1.1199387">
        <time>2022-07-08T09:45:56Z</time>
      </trkpt>
      <trkpt lat="41.883144" lon="1.1200027">
        <time>2022-07-08T09:45:57Z</time>
      </trkpt>
      <trkpt lat="41.88317" lon="1.1201401">
        <time>2022-07-08T09:45:59Z</time>
      </trkpt>
      <trkpt lat="41.883183" lon="1.1202065">
        <time>2022-07-08T09:46:00Z</time>
      </trkpt>
      <trkpt lat="41.883194" lon="1.1202731">
        <time>2022-07-08T09:46:01Z</time>
      </trkpt>
      <trkpt lat="41.88321" lon="1.1203394">
        <time>2022-07-08T09:46:02Z</time>
      </trkpt>
      <trkpt lat="41.883236" lon="1.1204628">
        <time>2022-07-08T09:46:04Z</time>
      </trkpt>
      <trkpt lat="41.88326" lon="1.1205921">
        <time>2022-07-08T09:46:06Z</time>
      </trkpt>
      <trkpt lat="41.883274" lon="1.1206584">
        <time>2022-07-08T09:46:07Z</time>
      </trkpt>
      <trkpt lat="41.883286" lon="1.1207287">
        <time>2022-07-08T09:46:08Z</time>
      </trkpt>
      <trkpt lat="41.8833" lon="1.1207978">
        <time>2022-07-08T09:46:09Z</time>
      </trkpt>
      <trkpt lat="41.883312" lon="1.1208605">
        <time>2022-07-08T09:46:10Z</time>
      </trkpt>
      <trkpt lat="41.883343" lon="1.1209964">
        <time>2022-07-08T09:46:12Z</time>
      </trkpt>
      <trkpt lat="41.883358" lon="1.1210641">
        <time>2022-07-08T09:46:13Z</time>
      </trkpt>
      <trkpt lat="41.883373" lon="1.1211318">
        <time>2022-07-08T09:46:14Z</time>
      </trkpt>
      <trkpt lat="41.8834" lon="1.121268">
        <time>2022-07-08T09:46:16Z</time>
      </trkpt>
      <trkpt lat="41.883415" lon="1.121335">
        <time>2022-07-08T09:46:17Z</time>
      </trkpt>
      <trkpt lat="41.883427" lon="1.1214014">
        <time>2022-07-08T09:46:18Z</time>
      </trkpt>
      <trkpt lat="41.883442" lon="1.1214681">
        <time>2022-07-08T09:46:19Z</time>
      </trkpt>
      <trkpt lat="41.88347" lon="1.1215987">
        <time>2022-07-08T09:46:21Z</time>
      </trkpt>
      <trkpt lat="41.88348" lon="1.1216644">
        <time>2022-07-08T09:46:22Z</time>
      </trkpt>
      <trkpt lat="41.883507" lon="1.121789">
        <time>2022-07-08T09:46:24Z</time>
      </trkpt>
      <trkpt lat="41.883537" lon="1.121925">
        <time>2022-07-08T09:46:26Z</time>
      </trkpt>
      <trkpt lat="41.883553" lon="1.121992">
        <time>2022-07-08T09:46:27Z</time>
      </trkpt>
      <trkpt lat="41.883564" lon="1.122059">
        <time>2022-07-08T09:46:28Z</time>
      </trkpt>
      <trkpt lat="41.883595" lon="1.1221924">
        <time>2022-07-08T09:46:30Z</time>
      </trkpt>
      <trkpt lat="41.88361" lon="1.122259">
        <time>2022-07-08T09:46:31Z</time>
      </trkpt>
      <trkpt lat="41.883625" lon="1.1223257">
        <time>2022-07-08T09:46:32Z</time>
      </trkpt>
      <trkpt lat="41.88365" lon="1.122461">
        <time>2022-07-08T09:46:34Z</time>
      </trkpt>
      <trkpt lat="41.883667" lon="1.1225277">
        <time>2022-07-08T09:46:35Z</time>
      </trkpt>
      <trkpt lat="41.883682" lon="1.1225944">
        <time>2022-07-08T09:46:36Z</time>
      </trkpt>
      <trkpt lat="41.883698" lon="1.1226614">
        <time>2022-07-08T09:46:37Z</time>
      </trkpt>
      <trkpt lat="41.883724" lon="1.1227946">
        <time>2022-07-08T09:46:39Z</time>
      </trkpt>
      <trkpt lat="41.88374" lon="1.122862">
        <time>2022-07-08T09:46:40Z</time>
      </trkpt>
      <trkpt lat="41.883755" lon="1.1229286">
        <time>2022-07-08T09:46:41Z</time>
      </trkpt>
      <trkpt lat="41.883766" lon="1.1229906">
        <time>2022-07-08T09:46:42Z</time>
      </trkpt>
      <trkpt lat="41.883797" lon="1.1231263">
        <time>2022-07-08T09:46:44Z</time>
      </trkpt>
      <trkpt lat="41.88381" lon="1.1231946">
        <time>2022-07-08T09:46:45Z</time>
      </trkpt>
      <trkpt lat="41.883823" lon="1.1232632">
        <time>2022-07-08T09:46:46Z</time>
      </trkpt>
      <trkpt lat="41.88385" lon="1.1234003">
        <time>2022-07-08T09:46:48Z</time>
      </trkpt>
      <trkpt lat="41.88386" lon="1.1234643">
        <time>2022-07-08T09:46:49Z</time>
      </trkpt>
      <trkpt lat="41.883877" lon="1.1235343">
        <time>2022-07-08T09:46:50Z</time>
      </trkpt>
      <trkpt lat="41.883892" lon="1.1236036">
        <time>2022-07-08T09:46:51Z</time>
      </trkpt>
      <trkpt lat="41.883904" lon="1.1236722">
        <time>2022-07-08T09:46:52Z</time>
      </trkpt>
      <trkpt lat="41.88392" lon="1.1237406">
        <time>2022-07-08T09:46:53Z</time>
      </trkpt>
      <trkpt lat="41.883945" lon="1.1238773">
        <time>2022-07-08T09:46:55Z</time>
      </trkpt>
      <trkpt lat="41.883957" lon="1.1239463">
        <time>2022-07-08T09:46:56Z</time>
      </trkpt>
      <trkpt lat="41.883972" lon="1.124015">
        <time>2022-07-08T09:46:57Z</time>
      </trkpt>
      <trkpt lat="41.883987" lon="1.1240836">
        <time>2022-07-08T09:46:58Z</time>
      </trkpt>
      <trkpt lat="41.884003" lon="1.124152">
        <time>2022-07-08T09:46:59Z</time>
      </trkpt>
      <trkpt lat="41.884014" lon="1.124221">
        <time>2022-07-08T09:47:00Z</time>
      </trkpt>
      <trkpt lat="41.88403" lon="1.1242899">
        <time>2022-07-08T09:47:01Z</time>
      </trkpt>
      <trkpt lat="41.884045" lon="1.1243585">
        <time>2022-07-08T09:47:02Z</time>
      </trkpt>
      <trkpt lat="41.88406" lon="1.1244262">
        <time>2022-07-08T09:47:03Z</time>
      </trkpt>
      <trkpt lat="41.884087" lon="1.1245612">
        <time>2022-07-08T09:47:05Z</time>
      </trkpt>
      <trkpt lat="41.8841" lon="1.1246289">
        <time>2022-07-08T09:47:06Z</time>
      </trkpt>
      <trkpt lat="41.884117" lon="1.1246972">
        <time>2022-07-08T09:47:07Z</time>
      </trkpt>
      <trkpt lat="41.88413" lon="1.1247655">
        <time>2022-07-08T09:47:08Z</time>
      </trkpt>
      <trkpt lat="41.884144" lon="1.124834">
        <time>2022-07-08T09:47:09Z</time>
      </trkpt>
      <trkpt lat="41.88416" lon="1.1249019">
        <time>2022-07-08T09:47:10Z</time>
      </trkpt>
      <trkpt lat="41.884182" lon="1.1250372">
        <time>2022-07-08T09:47:12Z</time>
      </trkpt>
      <trkpt lat="41.884193" lon="1.1251045">
        <time>2022-07-08T09:47:13Z</time>
      </trkpt>
      <trkpt lat="41.88421" lon="1.1251723">
        <time>2022-07-08T09:47:14Z</time>
      </trkpt>
      <trkpt lat="41.88422" lon="1.1252398">
        <time>2022-07-08T09:47:15Z</time>
      </trkpt>
      <trkpt lat="41.884247" lon="1.1253682">
        <time>2022-07-08T09:47:17Z</time>
      </trkpt>
      <trkpt lat="41.88428" lon="1.1255082">
        <time>2022-07-08T09:47:19Z</time>
      </trkpt>
      <trkpt lat="41.884296" lon="1.1255772">
        <time>2022-07-08T09:47:20Z</time>
      </trkpt>
      <trkpt lat="41.88431" lon="1.1256462">
        <time>2022-07-08T09:47:21Z</time>
      </trkpt>
      <trkpt lat="41.884323" lon="1.1257155">
        <time>2022-07-08T09:47:22Z</time>
      </trkpt>
      <trkpt lat="41.884346" lon="1.1258439">
        <time>2022-07-08T09:47:24Z</time>
      </trkpt>
      <trkpt lat="41.884373" lon="1.1259712">
        <time>2022-07-08T09:47:26Z</time>
      </trkpt>
      <trkpt lat="41.88441" lon="1.1261679">
        <time>2022-07-08T09:47:29Z</time>
      </trkpt>
      <trkpt lat="41.884434" lon="1.1262972">
        <time>2022-07-08T09:47:31Z</time>
      </trkpt>
      <trkpt lat="41.88446" lon="1.1264259">
        <time>2022-07-08T09:47:33Z</time>
      </trkpt>
      <trkpt lat="41.884487" lon="1.1265485">
        <time>2022-07-08T09:47:35Z</time>
      </trkpt>
      <trkpt lat="41.884518" lon="1.1266745">
        <time>2022-07-08T09:47:37Z</time>
      </trkpt>
      <trkpt lat="41.88453" lon="1.1267321">
        <time>2022-07-08T09:47:38Z</time>
      </trkpt>
      <trkpt lat="41.884552" lon="1.1268531">
        <time>2022-07-08T09:47:40Z</time>
      </trkpt>
      <trkpt lat="41.884575" lon="1.1269689">
        <time>2022-07-08T09:47:42Z</time>
      </trkpt>
      <trkpt lat="41.884598" lon="1.1270854">
        <time>2022-07-08T09:47:44Z</time>
      </trkpt>
      <trkpt lat="41.88462" lon="1.1272014">
        <time>2022-07-08T09:47:46Z</time>
      </trkpt>
      <trkpt lat="41.884644" lon="1.1273131">
        <time>2022-07-08T09:47:48Z</time>
      </trkpt>
      <trkpt lat="41.884663" lon="1.1274174">
        <time>2022-07-08T09:47:50Z</time>
      </trkpt>
      <trkpt lat="41.88469" lon="1.1275315">
        <time>2022-07-08T09:47:52Z</time>
      </trkpt>
      <trkpt lat="41.88471" lon="1.1276377">
        <time>2022-07-08T09:47:54Z</time>
      </trkpt>
      <trkpt lat="41.884735" lon="1.1277435">
        <time>2022-07-08T09:47:56Z</time>
      </trkpt>
      <trkpt lat="41.884758" lon="1.1278515">
        <time>2022-07-08T09:47:58Z</time>
      </trkpt>
      <trkpt lat="41.88478" lon="1.1279604">
        <time>2022-07-08T09:48:00Z</time>
      </trkpt>
      <trkpt lat="41.884804" lon="1.1280755">
        <time>2022-07-08T09:48:02Z</time>
      </trkpt>
      <trkpt lat="41.884827" lon="1.1281822">
        <time>2022-07-08T09:48:04Z</time>
      </trkpt>
      <trkpt lat="41.884853" lon="1.1282921">
        <time>2022-07-08T09:48:06Z</time>
      </trkpt>
      <trkpt lat="41.88488" lon="1.1284034">
        <time>2022-07-08T09:48:08Z</time>
      </trkpt>
      <trkpt lat="41.884907" lon="1.1285164">
        <time>2022-07-08T09:48:10Z</time>
      </trkpt>
      <trkpt lat="41.88493" lon="1.1286352">
        <time>2022-07-08T09:48:12Z</time>
      </trkpt>
      <trkpt lat="41.884956" lon="1.1287514">
        <time>2022-07-08T09:48:14Z</time>
      </trkpt>
      <trkpt lat="41.884983" lon="1.1288698">
        <time>2022-07-08T09:48:16Z</time>
      </trkpt>
      <trkpt lat="41.885006" lon="1.1289831">
        <time>2022-07-08T09:48:18Z</time>
      </trkpt>
      <trkpt lat="41.88503" lon="1.1291018">
        <time>2022-07-08T09:48:20Z</time>
      </trkpt>
      <trkpt lat="41.885056" lon="1.1292228">
        <time>2022-07-08T09:48:22Z</time>
      </trkpt>
      <trkpt lat="41.885082" lon="1.1293538">
        <time>2022-07-08T09:48:24Z</time>
      </trkpt>
      <trkpt lat="41.885098" lon="1.1294144">
        <time>2022-07-08T09:48:25Z</time>
      </trkpt>
      <trkpt lat="41.885124" lon="1.1295388">
        <time>2022-07-08T09:48:27Z</time>
      </trkpt>
      <trkpt lat="41.88515" lon="1.1296668">
        <time>2022-07-08T09:48:29Z</time>
      </trkpt>
      <trkpt lat="41.885178" lon="1.1297934">
        <time>2022-07-08T09:48:31Z</time>
      </trkpt>
      <trkpt lat="41.885204" lon="1.129922">
        <time>2022-07-08T09:48:33Z</time>
      </trkpt>
      <trkpt lat="41.88523" lon="1.1300597">
        <time>2022-07-08T09:48:35Z</time>
      </trkpt>
      <trkpt lat="41.885242" lon="1.1301278">
        <time>2022-07-08T09:48:36Z</time>
      </trkpt>
      <trkpt lat="41.885258" lon="1.1301954">
        <time>2022-07-08T09:48:37Z</time>
      </trkpt>
      <trkpt lat="41.88527" lon="1.1302627">
        <time>2022-07-08T09:48:38Z</time>
      </trkpt>
      <trkpt lat="41.885296" lon="1.13039">
        <time>2022-07-08T09:48:40Z</time>
      </trkpt>
      <trkpt lat="41.88532" lon="1.1305207">
        <time>2022-07-08T09:48:42Z</time>
      </trkpt>
      <trkpt lat="41.885334" lon="1.1305907">
        <time>2022-07-08T09:48:43Z</time>
      </trkpt>
      <trkpt lat="41.885345" lon="1.1306558">
        <time>2022-07-08T09:48:44Z</time>
      </trkpt>
      <trkpt lat="41.885372" lon="1.1307927">
        <time>2022-07-08T09:48:46Z</time>
      </trkpt>
      <trkpt lat="41.885387" lon="1.1308551">
        <time>2022-07-08T09:48:47Z</time>
      </trkpt>
      <trkpt lat="41.885418" lon="1.1309841">
        <time>2022-07-08T09:48:49Z</time>
      </trkpt>
      <trkpt lat="41.885445" lon="1.1311136">
        <time>2022-07-08T09:48:51Z</time>
      </trkpt>
      <trkpt lat="41.885456" lon="1.1311767">
        <time>2022-07-08T09:48:52Z</time>
      </trkpt>
      <trkpt lat="41.88548" lon="1.131301">
        <time>2022-07-08T09:48:54Z</time>
      </trkpt>
      <trkpt lat="41.885494" lon="1.1313627">
        <time>2022-07-08T09:48:55Z</time>
      </trkpt>
      <trkpt lat="41.885517" lon="1.1314844">
        <time>2022-07-08T09:48:57Z</time>
      </trkpt>
      <trkpt lat="41.88554" lon="1.1315984">
        <time>2022-07-08T09:48:59Z</time>
      </trkpt>
      <trkpt lat="41.885563" lon="1.131718">
        <time>2022-07-08T09:49:01Z</time>
      </trkpt>
      <trkpt lat="41.885574" lon="1.131772">
        <time>2022-07-08T09:49:02Z</time>
      </trkpt>
      <trkpt lat="41.885593" lon="1.1318836">
        <time>2022-07-08T09:49:04Z</time>
      </trkpt>
      <trkpt lat="41.885612" lon="1.1319933">
        <time>2022-07-08T09:49:06Z</time>
      </trkpt>
      <trkpt lat="41.88563" lon="1.1321124">
        <time>2022-07-08T09:49:08Z</time>
      </trkpt>
      <trkpt lat="41.88565" lon="1.1322303">
        <time>2022-07-08T09:49:10Z</time>
      </trkpt>
      <trkpt lat="41.885662" lon="1.1323496">
        <time>2022-07-08T09:49:12Z</time>
      </trkpt>
      <trkpt lat="41.885674" lon="1.132468">
        <time>2022-07-08T09:49:14Z</time>
      </trkpt>
      <trkpt lat="41.88568" lon="1.132577">
        <time>2022-07-08T09:49:16Z</time>
      </trkpt>
      <trkpt lat="41.88568" lon="1.1326873">
        <time>2022-07-08T09:49:18Z</time>
      </trkpt>
      <trkpt lat="41.88568" lon="1.132799">
        <time>2022-07-08T09:49:20Z</time>
      </trkpt>
      <trkpt lat="41.885674" lon="1.1329163">
        <time>2022-07-08T09:49:22Z</time>
      </trkpt>
      <trkpt lat="41.88567" lon="1.133026">
        <time>2022-07-08T09:49:24Z</time>
      </trkpt>
      <trkpt lat="41.88566" lon="1.1331363">
        <time>2022-07-08T09:49:26Z</time>
      </trkpt>
      <trkpt lat="41.885654" lon="1.133255">
        <time>2022-07-08T09:49:28Z</time>
      </trkpt>
      <trkpt lat="41.88565" lon="1.133359">
        <time>2022-07-08T09:49:30Z</time>
      </trkpt>
      <trkpt lat="41.88565" lon="1.1334616">
        <time>2022-07-08T09:49:32Z</time>
      </trkpt>
      <trkpt lat="41.885647" lon="1.1335616">
        <time>2022-07-08T09:49:34Z</time>
      </trkpt>
      <trkpt lat="41.885643" lon="1.1336596">
        <time>2022-07-08T09:49:36Z</time>
      </trkpt>
      <trkpt lat="41.885643" lon="1.1337576">
        <time>2022-07-08T09:49:38Z</time>
      </trkpt>
      <trkpt lat="41.885643" lon="1.1338556">
        <time>2022-07-08T09:49:40Z</time>
      </trkpt>
      <trkpt lat="41.885643" lon="1.1339582">
        <time>2022-07-08T09:49:42Z</time>
      </trkpt>
      <trkpt lat="41.885643" lon="1.1340543">
        <time>2022-07-08T09:49:44Z</time>
      </trkpt>
      <trkpt lat="41.885647" lon="1.134154">
        <time>2022-07-08T09:49:46Z</time>
      </trkpt>
      <trkpt lat="41.88565" lon="1.1342529">
        <time>2022-07-08T09:49:48Z</time>
      </trkpt>
      <trkpt lat="41.88566" lon="1.1343526">
        <time>2022-07-08T09:49:50Z</time>
      </trkpt>
      <trkpt lat="41.885666" lon="1.1344503">
        <time>2022-07-08T09:49:52Z</time>
      </trkpt>
      <trkpt lat="41.88568" lon="1.1345485">
        <time>2022-07-08T09:49:54Z</time>
      </trkpt>
      <trkpt lat="41.885704" lon="1.1346962">
        <time>2022-07-08T09:49:57Z</time>
      </trkpt>
      <trkpt lat="41.885723" lon="1.1347879">
        <time>2022-07-08T09:49:59Z</time>
      </trkpt>
      <trkpt lat="41.885746" lon="1.1348872">
        <time>2022-07-08T09:50:01Z</time>
      </trkpt>
      <trkpt lat="41.885765" lon="1.1349852">
        <time>2022-07-08T09:50:03Z</time>
      </trkpt>
      <trkpt lat="41.885788" lon="1.1350826">
        <time>2022-07-08T09:50:05Z</time>
      </trkpt>
      <trkpt lat="41.88582" lon="1.1351839">
        <time>2022-07-08T09:50:07Z</time>
      </trkpt>
      <trkpt lat="41.88585" lon="1.1352899">
        <time>2022-07-08T09:50:09Z</time>
      </trkpt>
      <trkpt lat="41.885887" lon="1.1354002">
        <time>2022-07-08T09:50:11Z</time>
      </trkpt>
      <trkpt lat="41.885925" lon="1.1355159">
        <time>2022-07-08T09:50:13Z</time>
      </trkpt>
      <trkpt lat="41.88596" lon="1.1356332">
        <time>2022-07-08T09:50:15Z</time>
      </trkpt>
      <trkpt lat="41.886" lon="1.1357615">
        <time>2022-07-08T09:50:17Z</time>
      </trkpt>
      <trkpt lat="41.88602" lon="1.1358262">
        <time>2022-07-08T09:50:18Z</time>
      </trkpt>
      <trkpt lat="41.88604" lon="1.1358905">
        <time>2022-07-08T09:50:19Z</time>
      </trkpt>
      <trkpt lat="41.886063" lon="1.1359549">
        <time>2022-07-08T09:50:20Z</time>
      </trkpt>
      <trkpt lat="41.88608" lon="1.1360196">
        <time>2022-07-08T09:50:21Z</time>
      </trkpt>
      <trkpt lat="41.88612" lon="1.1361458">
        <time>2022-07-08T09:50:23Z</time>
      </trkpt>
      <trkpt lat="41.88614" lon="1.1362085">
        <time>2022-07-08T09:50:24Z</time>
      </trkpt>
      <trkpt lat="41.88618" lon="1.1363472">
        <time>2022-07-08T09:50:26Z</time>
      </trkpt>
      <trkpt lat="41.8862" lon="1.1364155">
        <time>2022-07-08T09:50:27Z</time>
      </trkpt>
      <trkpt lat="41.88622" lon="1.1364832">
        <time>2022-07-08T09:50:28Z</time>
      </trkpt>
      <trkpt lat="41.886242" lon="1.1365478">
        <time>2022-07-08T09:50:29Z</time>
      </trkpt>
      <trkpt lat="41.88626" lon="1.1366192">
        <time>2022-07-08T09:50:30Z</time>
      </trkpt>
      <trkpt lat="41.886284" lon="1.1366895">
        <time>2022-07-08T09:50:31Z</time>
      </trkpt>
      <trkpt lat="41.886307" lon="1.1367599">
        <time>2022-07-08T09:50:32Z</time>
      </trkpt>
      <trkpt lat="41.88633" lon="1.1368299">
        <time>2022-07-08T09:50:33Z</time>
      </trkpt>
      <trkpt lat="41.886353" lon="1.1368955">
        <time>2022-07-08T09:50:34Z</time>
      </trkpt>
      <trkpt lat="41.886375" lon="1.1369674">
        <time>2022-07-08T09:50:35Z</time>
      </trkpt>
      <trkpt lat="41.8864" lon="1.1370394">
        <time>2022-07-08T09:50:36Z</time>
      </trkpt>
      <trkpt lat="41.886425" lon="1.1371118">
        <time>2022-07-08T09:50:37Z</time>
      </trkpt>
      <trkpt lat="41.886448" lon="1.1371799">
        <time>2022-07-08T09:50:38Z</time>
      </trkpt>
      <trkpt lat="41.88647" lon="1.1372538">
        <time>2022-07-08T09:50:39Z</time>
      </trkpt>
      <trkpt lat="41.886494" lon="1.1373281">
        <time>2022-07-08T09:50:40Z</time>
      </trkpt>
      <trkpt lat="41.886517" lon="1.1374022">
        <time>2022-07-08T09:50:41Z</time>
      </trkpt>
      <trkpt lat="41.88654" lon="1.1374758">
        <time>2022-07-08T09:50:42Z</time>
      </trkpt>
      <trkpt lat="41.886562" lon="1.1375495">
        <time>2022-07-08T09:50:43Z</time>
      </trkpt>
      <trkpt lat="41.886585" lon="1.1376228">
        <time>2022-07-08T09:50:44Z</time>
      </trkpt>
      <trkpt lat="41.886612" lon="1.1376965">
        <time>2022-07-08T09:50:45Z</time>
      </trkpt>
      <trkpt lat="41.886635" lon="1.1377698">
        <time>2022-07-08T09:50:46Z</time>
      </trkpt>
      <trkpt lat="41.886658" lon="1.1378428">
        <time>2022-07-08T09:50:47Z</time>
      </trkpt>
      <trkpt lat="41.88668" lon="1.1379141">
        <time>2022-07-08T09:50:48Z</time>
      </trkpt>
      <trkpt lat="41.886703" lon="1.1379838">
        <time>2022-07-08T09:50:49Z</time>
      </trkpt>
      <trkpt lat="41.886726" lon="1.1380521">
        <time>2022-07-08T09:50:50Z</time>
      </trkpt>
      <trkpt lat="41.886745" lon="1.1381187">
        <time>2022-07-08T09:50:51Z</time>
      </trkpt>
      <trkpt lat="41.88677" lon="1.1381848">
        <time>2022-07-08T09:50:52Z</time>
      </trkpt>
      <trkpt lat="41.886787" lon="1.1382494">
        <time>2022-07-08T09:50:53Z</time>
      </trkpt>
      <trkpt lat="41.886826" lon="1.1383731">
        <time>2022-07-08T09:50:55Z</time>
      </trkpt>
      <trkpt lat="41.886845" lon="1.1384327">
        <time>2022-07-08T09:50:56Z</time>
      </trkpt>
      <trkpt lat="41.88688" lon="1.1385478">
        <time>2022-07-08T09:50:58Z</time>
      </trkpt>
      <trkpt lat="41.88693" lon="1.1387091">
        <time>2022-07-08T09:51:01Z</time>
      </trkpt>
      <trkpt lat="41.886955" lon="1.1388091">
        <time>2022-07-08T09:51:03Z</time>
      </trkpt>
      <trkpt lat="41.886986" lon="1.1389041">
        <time>2022-07-08T09:51:05Z</time>
      </trkpt>
      <trkpt lat="41.887016" lon="1.1389971">
        <time>2022-07-08T09:51:07Z</time>
      </trkpt>
      <trkpt lat="41.887043" lon="1.139088">
        <time>2022-07-08T09:51:09Z</time>
      </trkpt>
      <trkpt lat="41.88707" lon="1.1391784">
        <time>2022-07-08T09:51:11Z</time>
      </trkpt>
      <trkpt lat="41.887096" lon="1.1392654">
        <time>2022-07-08T09:51:13Z</time>
      </trkpt>
      <trkpt lat="41.887123" lon="1.139351">
        <time>2022-07-08T09:51:15Z</time>
      </trkpt>
      <trkpt lat="41.88715" lon="1.1394371">
        <time>2022-07-08T09:51:17Z</time>
      </trkpt>
      <trkpt lat="41.887177" lon="1.1395247">
        <time>2022-07-08T09:51:19Z</time>
      </trkpt>
      <trkpt lat="41.887207" lon="1.1396124">
        <time>2022-07-08T09:51:21Z</time>
      </trkpt>
      <trkpt lat="41.887234" lon="1.1396984">
        <time>2022-07-08T09:51:23Z</time>
      </trkpt>
      <trkpt lat="41.88726" lon="1.1397864">
        <time>2022-07-08T09:51:25Z</time>
      </trkpt>
      <trkpt lat="41.88729" lon="1.1398784">
        <time>2022-07-08T09:51:27Z</time>
      </trkpt>
      <trkpt lat="41.88732" lon="1.1399714">
        <time>2022-07-08T09:51:29Z</time>
      </trkpt>
      <trkpt lat="41.887352" lon="1.140063">
        <time>2022-07-08T09:51:31Z</time>
      </trkpt>
      <trkpt lat="41.887383" lon="1.140154">
        <time>2022-07-08T09:51:33Z</time>
      </trkpt>
      <trkpt lat="41.88741" lon="1.1402451">
        <time>2022-07-08T09:51:35Z</time>
      </trkpt>
      <trkpt lat="41.887436" lon="1.1403368">
        <time>2022-07-08T09:51:37Z</time>
      </trkpt>
      <trkpt lat="41.887463" lon="1.1404268">
        <time>2022-07-08T09:51:39Z</time>
      </trkpt>
      <trkpt lat="41.887493" lon="1.140516">
        <time>2022-07-08T09:51:41Z</time>
      </trkpt>
      <trkpt lat="41.88752" lon="1.140607">
        <time>2022-07-08T09:51:43Z</time>
      </trkpt>
      <trkpt lat="41.88755" lon="1.1406977">
        <time>2022-07-08T09:51:45Z</time>
      </trkpt>
      <trkpt lat="41.88758" lon="1.1407864">
        <time>2022-07-08T09:51:47Z</time>
      </trkpt>
      <trkpt lat="41.88761" lon="1.1408744">
        <time>2022-07-08T09:51:49Z</time>
      </trkpt>
      <trkpt lat="41.887638" lon="1.140965">
        <time>2022-07-08T09:51:51Z</time>
      </trkpt>
      <trkpt lat="41.88767" lon="1.1410574">
        <time>2022-07-08T09:51:53Z</time>
      </trkpt>
      <trkpt lat="41.8877" lon="1.1411493">
        <time>2022-07-08T09:51:55Z</time>
      </trkpt>
      <trkpt lat="41.88773" lon="1.1412426">
        <time>2022-07-08T09:51:57Z</time>
      </trkpt>
      <trkpt lat="41.88776" lon="1.1413367">
        <time>2022-07-08T09:51:59Z</time>
      </trkpt>
      <trkpt lat="41.887787" lon="1.141432">
        <time>2022-07-08T09:52:01Z</time>
      </trkpt>
      <trkpt lat="41.887814" lon="1.1415226">
        <time>2022-07-08T09:52:03Z</time>
      </trkpt>
      <trkpt lat="41.887848" lon="1.1416227">
        <time>2022-07-08T09:52:05Z</time>
      </trkpt>
      <trkpt lat="41.88788" lon="1.1417247">
        <time>2022-07-08T09:52:07Z</time>
      </trkpt>
      <trkpt lat="41.887928" lon="1.1418743">
        <time>2022-07-08T09:52:10Z</time>
      </trkpt>
      <trkpt lat="41.887962" lon="1.1419783">
        <time>2022-07-08T09:52:12Z</time>
      </trkpt>
      <trkpt lat="41.888" lon="1.1420866">
        <time>2022-07-08T09:52:14Z</time>
      </trkpt>
      <trkpt lat="41.888035" lon="1.1422017">
        <time>2022-07-08T09:52:16Z</time>
      </trkpt>
      <trkpt lat="41.888065" lon="1.142315">
        <time>2022-07-08T09:52:18Z</time>
      </trkpt>
      <trkpt lat="41.8881" lon="1.1424346">
        <time>2022-07-08T09:52:20Z</time>
      </trkpt>
      <trkpt lat="41.88812" lon="1.142494">
        <time>2022-07-08T09:52:21Z</time>
      </trkpt>
      <trkpt lat="41.888157" lon="1.1426163">
        <time>2022-07-08T09:52:23Z</time>
      </trkpt>
      <trkpt lat="41.888176" lon="1.142679">
        <time>2022-07-08T09:52:24Z</time>
      </trkpt>
      <trkpt lat="41.888214" lon="1.1428096">
        <time>2022-07-08T09:52:26Z</time>
      </trkpt>
      <trkpt lat="41.888233" lon="1.1428759">
        <time>2022-07-08T09:52:27Z</time>
      </trkpt>
      <trkpt lat="41.88825" lon="1.1429423">
        <time>2022-07-08T09:52:28Z</time>
      </trkpt>
      <trkpt lat="41.88827" lon="1.1430153">
        <time>2022-07-08T09:52:29Z</time>
      </trkpt>
      <trkpt lat="41.88829" lon="1.1430897">
        <time>2022-07-08T09:52:30Z</time>
      </trkpt>
      <trkpt lat="41.88831" lon="1.1431593">
        <time>2022-07-08T09:52:31Z</time>
      </trkpt>
      <trkpt lat="41.888332" lon="1.14323">
        <time>2022-07-08T09:52:32Z</time>
      </trkpt>
      <trkpt lat="41.88835" lon="1.1433042">
        <time>2022-07-08T09:52:33Z</time>
      </trkpt>
      <trkpt lat="41.88837" lon="1.1433799">
        <time>2022-07-08T09:52:34Z</time>
      </trkpt>
      <trkpt lat="41.888393" lon="1.1434582">
        <time>2022-07-08T09:52:35Z</time>
      </trkpt>
      <trkpt lat="41.888412" lon="1.1435436">
        <time>2022-07-08T09:52:36Z</time>
      </trkpt>
      <trkpt lat="41.888435" lon="1.1436232">
        <time>2022-07-08T09:52:37Z</time>
      </trkpt>
      <trkpt lat="41.88846" lon="1.1437103">
        <time>2022-07-08T09:52:38Z</time>
      </trkpt>
      <trkpt lat="41.888477" lon="1.1437969">
        <time>2022-07-08T09:52:39Z</time>
      </trkpt>
      <trkpt lat="41.8885" lon="1.1438856">
        <time>2022-07-08T09:52:40Z</time>
      </trkpt>
      <trkpt lat="41.888523" lon="1.1439762">
        <time>2022-07-08T09:52:41Z</time>
      </trkpt>
      <trkpt lat="41.888546" lon="1.1440686">
        <time>2022-07-08T09:52:42Z</time>
      </trkpt>
      <trkpt lat="41.88857" lon="1.1441559">
        <time>2022-07-08T09:52:43Z</time>
      </trkpt>
      <trkpt lat="41.88859" lon="1.1442482">
        <time>2022-07-08T09:52:44Z</time>
      </trkpt>
      <trkpt lat="41.888615" lon="1.1443492">
        <time>2022-07-08T09:52:45Z</time>
      </trkpt>
      <trkpt lat="41.888638" lon="1.1444519">
        <time>2022-07-08T09:52:46Z</time>
      </trkpt>
      <trkpt lat="41.88866" lon="1.1445565">
        <time>2022-07-08T09:52:47Z</time>
      </trkpt>
      <trkpt lat="41.88868" lon="1.1446632">
        <time>2022-07-08T09:52:48Z</time>
      </trkpt>
      <trkpt lat="41.888702" lon="1.1447722">
        <time>2022-07-08T09:52:49Z</time>
      </trkpt>
      <trkpt lat="41.888725" lon="1.1448818">
        <time>2022-07-08T09:52:50Z</time>
      </trkpt>
      <trkpt lat="41.888752" lon="1.1449932">
        <time>2022-07-08T09:52:51Z</time>
      </trkpt>
      <trkpt lat="41.888775" lon="1.1451051">
        <time>2022-07-08T09:52:52Z</time>
      </trkpt>
      <trkpt lat="41.8888" lon="1.1452196">
        <time>2022-07-08T09:52:53Z</time>
      </trkpt>
      <trkpt lat="41.888824" lon="1.1453345">
        <time>2022-07-08T09:52:54Z</time>
      </trkpt>
      <trkpt lat="41.888847" lon="1.1454508">
        <time>2022-07-08T09:52:55Z</time>
      </trkpt>
      <trkpt lat="41.888866" lon="1.1455688">
        <time>2022-07-08T09:52:56Z</time>
      </trkpt>
      <trkpt lat="41.88889" lon="1.1456872">
        <time>2022-07-08T09:52:57Z</time>
      </trkpt>
      <trkpt lat="41.888912" lon="1.1458062">
        <time>2022-07-08T09:52:58Z</time>
      </trkpt>
      <trkpt lat="41.888935" lon="1.1459261">
        <time>2022-07-08T09:52:59Z</time>
      </trkpt>
      <trkpt lat="41.888958" lon="1.1460475">
        <time>2022-07-08T09:53:00Z</time>
      </trkpt>
      <trkpt lat="41.88898" lon="1.1461715">
        <time>2022-07-08T09:53:01Z</time>
      </trkpt>
      <trkpt lat="41.889008" lon="1.1462948">
        <time>2022-07-08T09:53:02Z</time>
      </trkpt>
      <trkpt lat="41.88903" lon="1.1464195">
        <time>2022-07-08T09:53:03Z</time>
      </trkpt>
      <trkpt lat="41.889053" lon="1.1465441">
        <time>2022-07-08T09:53:04Z</time>
      </trkpt>
      <trkpt lat="41.889076" lon="1.1466691">
        <time>2022-07-08T09:53:05Z</time>
      </trkpt>
      <trkpt lat="41.8891" lon="1.1467935">
        <time>2022-07-08T09:53:06Z</time>
      </trkpt>
      <trkpt lat="41.88912" lon="1.1469182">
        <time>2022-07-08T09:53:07Z</time>
      </trkpt>
      <trkpt lat="41.88914" lon="1.1470431">
        <time>2022-07-08T09:53:08Z</time>
      </trkpt>
      <trkpt lat="41.889164" lon="1.1471685">
        <time>2022-07-08T09:53:09Z</time>
      </trkpt>
      <trkpt lat="41.88919" lon="1.1472934">
        <time>2022-07-08T09:53:10Z</time>
      </trkpt>
      <trkpt lat="41.889214" lon="1.1474198">
        <time>2022-07-08T09:53:11Z</time>
      </trkpt>
      <trkpt lat="41.889263" lon="1.1476778">
        <time>2022-07-08T09:53:13Z</time>
      </trkpt>
      <trkpt lat="41.88929" lon="1.1478051">
        <time>2022-07-08T09:53:14Z</time>
      </trkpt>
      <trkpt lat="41.889313" lon="1.1479322">
        <time>2022-07-08T09:53:15Z</time>
      </trkpt>
      <trkpt lat="41.889336" lon="1.1480588">
        <time>2022-07-08T09:53:16Z</time>
      </trkpt>
      <trkpt lat="41.88936" lon="1.1481841">
        <time>2022-07-08T09:53:17Z</time>
      </trkpt>
      <trkpt lat="41.88938" lon="1.1483091">
        <time>2022-07-08T09:53:18Z</time>
      </trkpt>
      <trkpt lat="41.8894" lon="1.1484334">
        <time>2022-07-08T09:53:19Z</time>
      </trkpt>
      <trkpt lat="41.889423" lon="1.1485581">
        <time>2022-07-08T09:53:20Z</time>
      </trkpt>
      <trkpt lat="41.889442" lon="1.1486814">
        <time>2022-07-08T09:53:21Z</time>
      </trkpt>
      <trkpt lat="41.889465" lon="1.1488051">
        <time>2022-07-08T09:53:22Z</time>
      </trkpt>
      <trkpt lat="41.889484" lon="1.1489297">
        <time>2022-07-08T09:53:23Z</time>
      </trkpt>
      <trkpt lat="41.889507" lon="1.1490554">
        <time>2022-07-08T09:53:24Z</time>
      </trkpt>
      <trkpt lat="41.88953" lon="1.1491814">
        <time>2022-07-08T09:53:25Z</time>
      </trkpt>
      <trkpt lat="41.889557" lon="1.1493084">
        <time>2022-07-08T09:53:26Z</time>
      </trkpt>
      <trkpt lat="41.88958" lon="1.1494361">
        <time>2022-07-08T09:53:27Z</time>
      </trkpt>
      <trkpt lat="41.889603" lon="1.1495655">
        <time>2022-07-08T09:53:28Z</time>
      </trkpt>
      <trkpt lat="41.88963" lon="1.1496954">
        <time>2022-07-08T09:53:29Z</time>
      </trkpt>
      <trkpt lat="41.889652" lon="1.1498264">
        <time>2022-07-08T09:53:30Z</time>
      </trkpt>
      <trkpt lat="41.88968" lon="1.1499574">
        <time>2022-07-08T09:53:31Z</time>
      </trkpt>
      <trkpt lat="41.8897" lon="1.1500894">
        <time>2022-07-08T09:53:32Z</time>
      </trkpt>
      <trkpt lat="41.889725" lon="1.1502224">
        <time>2022-07-08T09:53:33Z</time>
      </trkpt>
      <trkpt lat="41.889744" lon="1.150356">
        <time>2022-07-08T09:53:34Z</time>
      </trkpt>
      <trkpt lat="41.88976" lon="1.15049">
        <time>2022-07-08T09:53:35Z</time>
      </trkpt>
      <trkpt lat="41.88978" lon="1.1506251">
        <time>2022-07-08T09:53:36Z</time>
      </trkpt>
      <trkpt lat="41.889793" lon="1.15076">
        <time>2022-07-08T09:53:37Z</time>
      </trkpt>
      <trkpt lat="41.8898" lon="1.1508951">
        <time>2022-07-08T09:53:38Z</time>
      </trkpt>
      <trkpt lat="41.88981" lon="1.1510301">
        <time>2022-07-08T09:53:39Z</time>
      </trkpt>
      <trkpt lat="41.889816" lon="1.1511661">
        <time>2022-07-08T09:53:40Z</time>
      </trkpt>
      <trkpt lat="41.88982" lon="1.1513027">
        <time>2022-07-08T09:53:41Z</time>
      </trkpt>
      <trkpt lat="41.889824" lon="1.1514398">
        <time>2022-07-08T09:53:42Z</time>
      </trkpt>
      <trkpt lat="41.889828" lon="1.1515764">
        <time>2022-07-08T09:53:43Z</time>
      </trkpt>
      <trkpt lat="41.889828" lon="1.1517147">
        <time>2022-07-08T09:53:44Z</time>
      </trkpt>
      <trkpt lat="41.889824" lon="1.1518537">
        <time>2022-07-08T09:53:45Z</time>
      </trkpt>
      <trkpt lat="41.889824" lon="1.1519923">
        <time>2022-07-08T09:53:46Z</time>
      </trkpt>
      <trkpt lat="41.88982" lon="1.1521314">
        <time>2022-07-08T09:53:47Z</time>
      </trkpt>
      <trkpt lat="41.88982" lon="1.1522707">
        <time>2022-07-08T09:53:48Z</time>
      </trkpt>
      <trkpt lat="41.889816" lon="1.1524007">
        <time>2022-07-08T09:53:49Z</time>
      </trkpt>
      <trkpt lat="41.889816" lon="1.1525424">
        <time>2022-07-08T09:53:50Z</time>
      </trkpt>
      <trkpt lat="41.889816" lon="1.1526837">
        <time>2022-07-08T09:53:51Z</time>
      </trkpt>
      <trkpt lat="41.889812" lon="1.1528261">
        <time>2022-07-08T09:53:52Z</time>
      </trkpt>
      <trkpt lat="41.889812" lon="1.152969">
        <time>2022-07-08T09:53:53Z</time>
      </trkpt>
      <trkpt lat="41.88981" lon="1.153112">
        <time>2022-07-08T09:53:54Z</time>
      </trkpt>
      <trkpt lat="41.889805" lon="1.1532553">
        <time>2022-07-08T09:53:55Z</time>
      </trkpt>
      <trkpt lat="41.8898" lon="1.1534007">
        <time>2022-07-08T09:53:56Z</time>
      </trkpt>
      <trkpt lat="41.889797" lon="1.1535463">
        <time>2022-07-08T09:53:57Z</time>
      </trkpt>
      <trkpt lat="41.889797" lon="1.1536933">
        <time>2022-07-08T09:53:58Z</time>
      </trkpt>
      <trkpt lat="41.889793" lon="1.153841">
        <time>2022-07-08T09:53:59Z</time>
      </trkpt>
      <trkpt lat="41.88979" lon="1.153988">
        <time>2022-07-08T09:54:00Z</time>
      </trkpt>
      <trkpt lat="41.889786" lon="1.1541363">
        <time>2022-07-08T09:54:01Z</time>
      </trkpt>
      <trkpt lat="41.889782" lon="1.1542857">
        <time>2022-07-08T09:54:02Z</time>
      </trkpt>
      <trkpt lat="41.889782" lon="1.1544356">
        <time>2022-07-08T09:54:03Z</time>
      </trkpt>
      <trkpt lat="41.889782" lon="1.1545857">
        <time>2022-07-08T09:54:04Z</time>
      </trkpt>
      <trkpt lat="41.889782" lon="1.1547357">
        <time>2022-07-08T09:54:05Z</time>
      </trkpt>
      <trkpt lat="41.889782" lon="1.154885">
        <time>2022-07-08T09:54:06Z</time>
      </trkpt>
      <trkpt lat="41.88978" lon="1.1550337">
        <time>2022-07-08T09:54:07Z</time>
      </trkpt>
      <trkpt lat="41.88978" lon="1.1551816">
        <time>2022-07-08T09:54:08Z</time>
      </trkpt>
      <trkpt lat="41.88978" lon="1.1553297">
        <time>2022-07-08T09:54:09Z</time>
      </trkpt>
      <trkpt lat="41.88978" lon="1.1554763">
        <time>2022-07-08T09:54:10Z</time>
      </trkpt>
      <trkpt lat="41.88978" lon="1.155619">
        <time>2022-07-08T09:54:11Z</time>
      </trkpt>
      <trkpt lat="41.88978" lon="1.1557603">
        <time>2022-07-08T09:54:12Z</time>
      </trkpt>
      <trkpt lat="41.889782" lon="1.1560386">
        <time>2022-07-08T09:54:14Z</time>
      </trkpt>
      <trkpt lat="41.889782" lon="1.1561753">
        <time>2022-07-08T09:54:15Z</time>
      </trkpt>
      <trkpt lat="41.889782" lon="1.1563107">
        <time>2022-07-08T09:54:16Z</time>
      </trkpt>
      <trkpt lat="41.889786" lon="1.1564443">
        <time>2022-07-08T09:54:17Z</time>
      </trkpt>
      <trkpt lat="41.889786" lon="1.1565766">
        <time>2022-07-08T09:54:18Z</time>
      </trkpt>
      <trkpt lat="41.889786" lon="1.1566997">
        <time>2022-07-08T09:54:19Z</time>
      </trkpt>
      <trkpt lat="41.889786" lon="1.1568323">
        <time>2022-07-08T09:54:20Z</time>
      </trkpt>
      <trkpt lat="41.889786" lon="1.1569632">
        <time>2022-07-08T09:54:21Z</time>
      </trkpt>
      <trkpt lat="41.88979" lon="1.1570926">
        <time>2022-07-08T09:54:22Z</time>
      </trkpt>
      <trkpt lat="41.88979" lon="1.1572202">
        <time>2022-07-08T09:54:23Z</time>
      </trkpt>
      <trkpt lat="41.889793" lon="1.1573457">
        <time>2022-07-08T09:54:24Z</time>
      </trkpt>
      <trkpt lat="41.889793" lon="1.15747">
        <time>2022-07-08T09:54:25Z</time>
      </trkpt>
      <trkpt lat="41.889797" lon="1.1575923">
        <time>2022-07-08T09:54:26Z</time>
      </trkpt>
      <trkpt lat="41.8898" lon="1.1577129">
        <time>2022-07-08T09:54:27Z</time>
      </trkpt>
      <trkpt lat="41.889805" lon="1.1578326">
        <time>2022-07-08T09:54:28Z</time>
      </trkpt>
      <trkpt lat="41.889812" lon="1.1579442">
        <time>2022-07-08T09:54:29Z</time>
      </trkpt>
      <trkpt lat="41.88982" lon="1.1580659">
        <time>2022-07-08T09:54:30Z</time>
      </trkpt>
      <trkpt lat="41.88983" lon="1.1581856">
        <time>2022-07-08T09:54:31Z</time>
      </trkpt>
      <trkpt lat="41.88984" lon="1.1583049">
        <time>2022-07-08T09:54:32Z</time>
      </trkpt>
      <trkpt lat="41.88985" lon="1.158423">
        <time>2022-07-08T09:54:33Z</time>
      </trkpt>
      <trkpt lat="41.889866" lon="1.1585399">
        <time>2022-07-08T09:54:34Z</time>
      </trkpt>
      <trkpt lat="41.88988" lon="1.1586568">
        <time>2022-07-08T09:54:35Z</time>
      </trkpt>
      <trkpt lat="41.8899" lon="1.1587735">
        <time>2022-07-08T09:54:36Z</time>
      </trkpt>
      <trkpt lat="41.88992" lon="1.1588899">
        <time>2022-07-08T09:54:37Z</time>
      </trkpt>
      <trkpt lat="41.88994" lon="1.1590062">
        <time>2022-07-08T09:54:38Z</time>
      </trkpt>
      <trkpt lat="41.88996" lon="1.1591222">
        <time>2022-07-08T09:54:39Z</time>
      </trkpt>
      <trkpt lat="41.889984" lon="1.1592312">
        <time>2022-07-08T09:54:40Z</time>
      </trkpt>
      <trkpt lat="41.89001" lon="1.1593505">
        <time>2022-07-08T09:54:41Z</time>
      </trkpt>
      <trkpt lat="41.89004" lon="1.1594689">
        <time>2022-07-08T09:54:42Z</time>
      </trkpt>
      <trkpt lat="41.89007" lon="1.1595858">
        <time>2022-07-08T09:54:43Z</time>
      </trkpt>
      <trkpt lat="41.890106" lon="1.1597035">
        <time>2022-07-08T09:54:44Z</time>
      </trkpt>
      <trkpt lat="41.89014" lon="1.1598206">
        <time>2022-07-08T09:54:45Z</time>
      </trkpt>
      <trkpt lat="41.890175" lon="1.1599365">
        <time>2022-07-08T09:54:46Z</time>
      </trkpt>
      <trkpt lat="41.890213" lon="1.1600525">
        <time>2022-07-08T09:54:47Z</time>
      </trkpt>
      <trkpt lat="41.89025" lon="1.1601669">
        <time>2022-07-08T09:54:48Z</time>
      </trkpt>
      <trkpt lat="41.890293" lon="1.1602792">
        <time>2022-07-08T09:54:49Z</time>
      </trkpt>
      <trkpt lat="41.890335" lon="1.1603901">
        <time>2022-07-08T09:54:50Z</time>
      </trkpt>
      <trkpt lat="41.89038" lon="1.1604998">
        <time>2022-07-08T09:54:51Z</time>
      </trkpt>
      <trkpt lat="41.890427" lon="1.1606082">
        <time>2022-07-08T09:54:52Z</time>
      </trkpt>
      <trkpt lat="41.890476" lon="1.1607141">
        <time>2022-07-08T09:54:53Z</time>
      </trkpt>
      <trkpt lat="41.890526" lon="1.1608175">
        <time>2022-07-08T09:54:54Z</time>
      </trkpt>
      <trkpt lat="41.890575" lon="1.1609198">
        <time>2022-07-08T09:54:55Z</time>
      </trkpt>
      <trkpt lat="41.89063" lon="1.1610209">
        <time>2022-07-08T09:54:56Z</time>
      </trkpt>
      <trkpt lat="41.890682" lon="1.1611211">
        <time>2022-07-08T09:54:57Z</time>
      </trkpt>
      <trkpt lat="41.890736" lon="1.1612135">
        <time>2022-07-08T09:54:58Z</time>
      </trkpt>
      <trkpt lat="41.890793" lon="1.1613135">
        <time>2022-07-08T09:54:59Z</time>
      </trkpt>
      <trkpt lat="41.89085" lon="1.1614052">
        <time>2022-07-08T09:55:00Z</time>
      </trkpt>
      <trkpt lat="41.89091" lon="1.1614971">
        <time>2022-07-08T09:55:01Z</time>
      </trkpt>
      <trkpt lat="41.890972" lon="1.1615895">
        <time>2022-07-08T09:55:02Z</time>
      </trkpt>
      <trkpt lat="41.891033" lon="1.1616801">
        <time>2022-07-08T09:55:03Z</time>
      </trkpt>
      <trkpt lat="41.8911" lon="1.1617771">
        <time>2022-07-08T09:55:04Z</time>
      </trkpt>
      <trkpt lat="41.89117" lon="1.1618714">
        <time>2022-07-08T09:55:05Z</time>
      </trkpt>
      <trkpt lat="41.891235" lon="1.1619648">
        <time>2022-07-08T09:55:06Z</time>
      </trkpt>
      <trkpt lat="41.891304" lon="1.1620578">
        <time>2022-07-08T09:55:07Z</time>
      </trkpt>
      <trkpt lat="41.89137" lon="1.1621431">
        <time>2022-07-08T09:55:08Z</time>
      </trkpt>
      <trkpt lat="41.891434" lon="1.1622342">
        <time>2022-07-08T09:55:09Z</time>
      </trkpt>
      <trkpt lat="41.8915" lon="1.1623192">
        <time>2022-07-08T09:55:10Z</time>
      </trkpt>
      <trkpt lat="41.891563" lon="1.1624051">
        <time>2022-07-08T09:55:11Z</time>
      </trkpt>
      <trkpt lat="41.89163" lon="1.1624925">
        <time>2022-07-08T09:55:12Z</time>
      </trkpt>
      <trkpt lat="41.891697" lon="1.1625848">
        <time>2022-07-08T09:55:13Z</time>
      </trkpt>
      <trkpt lat="41.89176" lon="1.1626701">
        <time>2022-07-08T09:55:14Z</time>
      </trkpt>
      <trkpt lat="41.891827" lon="1.1627564">
        <time>2022-07-08T09:55:15Z</time>
      </trkpt>
      <trkpt lat="41.891956" lon="1.1629391">
        <time>2022-07-08T09:55:17Z</time>
      </trkpt>
      <trkpt lat="41.89202" lon="1.1630274">
        <time>2022-07-08T09:55:18Z</time>
      </trkpt>
      <trkpt lat="41.892086" lon="1.1631151">
        <time>2022-07-08T09:55:19Z</time>
      </trkpt>
      <trkpt lat="41.892147" lon="1.1632024">
        <time>2022-07-08T09:55:20Z</time>
      </trkpt>
      <trkpt lat="41.89221" lon="1.1632878">
        <time>2022-07-08T09:55:21Z</time>
      </trkpt>
      <trkpt lat="41.892273" lon="1.1633724">
        <time>2022-07-08T09:55:22Z</time>
      </trkpt>
      <trkpt lat="41.892334" lon="1.1634574">
        <time>2022-07-08T09:55:23Z</time>
      </trkpt>
      <trkpt lat="41.892395" lon="1.1635407">
        <time>2022-07-08T09:55:24Z</time>
      </trkpt>
      <trkpt lat="41.892456" lon="1.1636227">
        <time>2022-07-08T09:55:25Z</time>
      </trkpt>
      <trkpt lat="41.892517" lon="1.1637044">
        <time>2022-07-08T09:55:26Z</time>
      </trkpt>
      <trkpt lat="41.892574" lon="1.1637857">
        <time>2022-07-08T09:55:27Z</time>
      </trkpt>
      <trkpt lat="41.892635" lon="1.1638664">
        <time>2022-07-08T09:55:28Z</time>
      </trkpt>
      <trkpt lat="41.892693" lon="1.163946">
        <time>2022-07-08T09:55:29Z</time>
      </trkpt>
      <trkpt lat="41.892754" lon="1.1640254">
        <time>2022-07-08T09:55:30Z</time>
      </trkpt>
      <trkpt lat="41.89281" lon="1.1641037">
        <time>2022-07-08T09:55:31Z</time>
      </trkpt>
      <trkpt lat="41.892868" lon="1.1641817">
        <time>2022-07-08T09:55:32Z</time>
      </trkpt>
      <trkpt lat="41.89292" lon="1.1642574">
        <time>2022-07-08T09:55:33Z</time>
      </trkpt>
      <trkpt lat="41.89298" lon="1.1643324">
        <time>2022-07-08T09:55:34Z</time>
      </trkpt>
      <trkpt lat="41.893032" lon="1.1644074">
        <time>2022-07-08T09:55:35Z</time>
      </trkpt>
      <trkpt lat="41.89309" lon="1.1644814">
        <time>2022-07-08T09:55:36Z</time>
      </trkpt>
      <trkpt lat="41.893147" lon="1.1645547">
        <time>2022-07-08T09:55:37Z</time>
      </trkpt>
      <trkpt lat="41.8932" lon="1.164626">
        <time>2022-07-08T09:55:38Z</time>
      </trkpt>
      <trkpt lat="41.893253" lon="1.1646961">
        <time>2022-07-08T09:55:39Z</time>
      </trkpt>
      <trkpt lat="41.89331" lon="1.1647644">
        <time>2022-07-08T09:55:40Z</time>
      </trkpt>
      <trkpt lat="41.893364" lon="1.1648318">
        <time>2022-07-08T09:55:41Z</time>
      </trkpt>
      <trkpt lat="41.893417" lon="1.1648971">
        <time>2022-07-08T09:55:42Z</time>
      </trkpt>
      <trkpt lat="41.893475" lon="1.1649624">
        <time>2022-07-08T09:55:43Z</time>
      </trkpt>
      <trkpt lat="41.89353" lon="1.165027">
        <time>2022-07-08T09:55:44Z</time>
      </trkpt>
      <trkpt lat="41.89359" lon="1.1650907">
        <time>2022-07-08T09:55:45Z</time>
      </trkpt>
      <trkpt lat="41.893646" lon="1.1651543">
        <time>2022-07-08T09:55:46Z</time>
      </trkpt>
      <trkpt lat="41.893707" lon="1.1652174">
        <time>2022-07-08T09:55:47Z</time>
      </trkpt>
      <trkpt lat="41.893764" lon="1.165279">
        <time>2022-07-08T09:55:48Z</time>
      </trkpt>
      <trkpt lat="41.893826" lon="1.1653403">
        <time>2022-07-08T09:55:49Z</time>
      </trkpt>
      <trkpt lat="41.893883" lon="1.1654013">
        <time>2022-07-08T09:55:50Z</time>
      </trkpt>
      <trkpt lat="41.893944" lon="1.1654626">
        <time>2022-07-08T09:55:51Z</time>
      </trkpt>
      <trkpt lat="41.894005" lon="1.1655236">
        <time>2022-07-08T09:55:52Z</time>
      </trkpt>
      <trkpt lat="41.894066" lon="1.1655856">
        <time>2022-07-08T09:55:53Z</time>
      </trkpt>
      <trkpt lat="41.894127" lon="1.1656476">
        <time>2022-07-08T09:55:54Z</time>
      </trkpt>
      <trkpt lat="41.894188" lon="1.1657083">
        <time>2022-07-08T09:55:55Z</time>
      </trkpt>
      <trkpt lat="41.89425" lon="1.165769">
        <time>2022-07-08T09:55:56Z</time>
      </trkpt>
      <trkpt lat="41.89431" lon="1.1658297">
        <time>2022-07-08T09:55:57Z</time>
      </trkpt>
      <trkpt lat="41.89437" lon="1.1658909">
        <time>2022-07-08T09:55:58Z</time>
      </trkpt>
      <trkpt lat="41.894436" lon="1.1659516">
        <time>2022-07-08T09:55:59Z</time>
      </trkpt>
      <trkpt lat="41.894497" lon="1.1660117">
        <time>2022-07-08T09:56:00Z</time>
      </trkpt>
      <trkpt lat="41.894558" lon="1.1660717">
        <time>2022-07-08T09:56:01Z</time>
      </trkpt>
      <trkpt lat="41.89462" lon="1.166132">
        <time>2022-07-08T09:56:02Z</time>
      </trkpt>
      <trkpt lat="41.89468" lon="1.1661923">
        <time>2022-07-08T09:56:03Z</time>
      </trkpt>
      <trkpt lat="41.89474" lon="1.1662526">
        <time>2022-07-08T09:56:04Z</time>
      </trkpt>
      <trkpt lat="41.8948" lon="1.1663129">
        <time>2022-07-08T09:56:05Z</time>
      </trkpt>
      <trkpt lat="41.89486" lon="1.1663723">
        <time>2022-07-08T09:56:06Z</time>
      </trkpt>
      <trkpt lat="41.894917" lon="1.1664317">
        <time>2022-07-08T09:56:07Z</time>
      </trkpt>
      <trkpt lat="41.894978" lon="1.1664909">
        <time>2022-07-08T09:56:08Z</time>
      </trkpt>
      <trkpt lat="41.89504" lon="1.1665496">
        <time>2022-07-08T09:56:09Z</time>
      </trkpt>
      <trkpt lat="41.895096" lon="1.1666086">
        <time>2022-07-08T09:56:10Z</time>
      </trkpt>
      <trkpt lat="41.895157" lon="1.1666683">
        <time>2022-07-08T09:56:11Z</time>
      </trkpt>
      <trkpt lat="41.895218" lon="1.1667292">
        <time>2022-07-08T09:56:12Z</time>
      </trkpt>
      <trkpt lat="41.89528" lon="1.1667906">
        <time>2022-07-08T09:56:13Z</time>
      </trkpt>
      <trkpt lat="41.89534" lon="1.1668519">
        <time>2022-07-08T09:56:14Z</time>
      </trkpt>
      <trkpt lat="41.8954" lon="1.1669136">
        <time>2022-07-08T09:56:15Z</time>
      </trkpt>
      <trkpt lat="41.895462" lon="1.1669756">
        <time>2022-07-08T09:56:16Z</time>
      </trkpt>
      <trkpt lat="41.895523" lon="1.167038">
        <time>2022-07-08T09:56:17Z</time>
      </trkpt>
      <trkpt lat="41.895584" lon="1.1671013">
        <time>2022-07-08T09:56:18Z</time>
      </trkpt>
      <trkpt lat="41.895645" lon="1.1671646">
        <time>2022-07-08T09:56:19Z</time>
      </trkpt>
      <trkpt lat="41.89576" lon="1.1672882">
        <time>2022-07-08T09:56:21Z</time>
      </trkpt>
      <trkpt lat="41.895817" lon="1.1673526">
        <time>2022-07-08T09:56:22Z</time>
      </trkpt>
      <trkpt lat="41.895878" lon="1.1674162">
        <time>2022-07-08T09:56:23Z</time>
      </trkpt>
      <trkpt lat="41.89594" lon="1.1674823">
        <time>2022-07-08T09:56:24Z</time>
      </trkpt>
      <trkpt lat="41.895992" lon="1.1675415">
        <time>2022-07-08T09:56:25Z</time>
      </trkpt>
      <trkpt lat="41.89604" lon="1.1675966">
        <time>2022-07-08T09:56:26Z</time>
      </trkpt>
      <trkpt lat="41.896095" lon="1.167656">
        <time>2022-07-08T09:56:27Z</time>
      </trkpt>
      <trkpt lat="41.896145" lon="1.1677132">
        <time>2022-07-08T09:56:28Z</time>
      </trkpt>
      <trkpt lat="41.8962" lon="1.1677672">
        <time>2022-07-08T09:56:29Z</time>
      </trkpt>
      <trkpt lat="41.896248" lon="1.1678182">
        <time>2022-07-08T09:56:30Z</time>
      </trkpt>
      <trkpt lat="41.896294" lon="1.1678666">
        <time>2022-07-08T09:56:31Z</time>
      </trkpt>
      <trkpt lat="41.896343" lon="1.1679128">
        <time>2022-07-08T09:56:32Z</time>
      </trkpt>
      <trkpt lat="41.89639" lon="1.1679583">
        <time>2022-07-08T09:56:33Z</time>
      </trkpt>
      <trkpt lat="41.896435" lon="1.1680019">
        <time>2022-07-08T09:56:34Z</time>
      </trkpt>
      <trkpt lat="41.89648" lon="1.1680442">
        <time>2022-07-08T09:56:35Z</time>
      </trkpt>
      <trkpt lat="41.896526" lon="1.1680845">
        <time>2022-07-08T09:56:36Z</time>
      </trkpt>
      <trkpt lat="41.89657" lon="1.1681246">
        <time>2022-07-08T09:56:37Z</time>
      </trkpt>
      <trkpt lat="41.89661" lon="1.1681639">
        <time>2022-07-08T09:56:38Z</time>
      </trkpt>
      <trkpt lat="41.896652" lon="1.1682012">
        <time>2022-07-08T09:56:39Z</time>
      </trkpt>
      <trkpt lat="41.896732" lon="1.1682712">
        <time>2022-07-08T09:56:41Z</time>
      </trkpt>
      <trkpt lat="41.896812" lon="1.1683369">
        <time>2022-07-08T09:56:43Z</time>
      </trkpt>
      <trkpt lat="41.89689" lon="1.1683972">
        <time>2022-07-08T09:56:45Z</time>
      </trkpt>
      <trkpt lat="41.89696" lon="1.1684521">
        <time>2022-07-08T09:56:47Z</time>
      </trkpt>
      <trkpt lat="41.897034" lon="1.1685052">
        <time>2022-07-08T09:56:49Z</time>
      </trkpt>
      <trkpt lat="41.897106" lon="1.1685508">
        <time>2022-07-08T09:56:51Z</time>
      </trkpt>
      <trkpt lat="41.89718" lon="1.1685878">
        <time>2022-07-08T09:56:53Z</time>
      </trkpt>
      <trkpt lat="41.89725" lon="1.1686212">
        <time>2022-07-08T09:56:55Z</time>
      </trkpt>
      <trkpt lat="41.897324" lon="1.1686548">
        <time>2022-07-08T09:56:57Z</time>
      </trkpt>
      <trkpt lat="41.8974" lon="1.1686878">
        <time>2022-07-08T09:56:59Z</time>
      </trkpt>
      <trkpt lat="41.897476" lon="1.1687201">
        <time>2022-07-08T09:57:01Z</time>
      </trkpt>
      <trkpt lat="41.897556" lon="1.1687495">
        <time>2022-07-08T09:57:03Z</time>
      </trkpt>
      <trkpt lat="41.897633" lon="1.1687785">
        <time>2022-07-08T09:57:05Z</time>
      </trkpt>
      <trkpt lat="41.897713" lon="1.1688038">
        <time>2022-07-08T09:57:07Z</time>
      </trkpt>
      <trkpt lat="41.89779" lon="1.1688268">
        <time>2022-07-08T09:57:09Z</time>
      </trkpt>
      <trkpt lat="41.89786" lon="1.1688511">
        <time>2022-07-08T09:57:11Z</time>
      </trkpt>
      <trkpt lat="41.897934" lon="1.1688741">
        <time>2022-07-08T09:57:13Z</time>
      </trkpt>
      <trkpt lat="41.898003" lon="1.1688948">
        <time>2022-07-08T09:57:15Z</time>
      </trkpt>
      <trkpt lat="41.89807" lon="1.1689131">
        <time>2022-07-08T09:57:17Z</time>
      </trkpt>
      <trkpt lat="41.898136" lon="1.1689302">
        <time>2022-07-08T09:57:19Z</time>
      </trkpt>
      <trkpt lat="41.89821" lon="1.1689475">
        <time>2022-07-08T09:57:21Z</time>
      </trkpt>
      <trkpt lat="41.898277" lon="1.1689631">
        <time>2022-07-08T09:57:23Z</time>
      </trkpt>
      <trkpt lat="41.898346" lon="1.1689798">
        <time>2022-07-08T09:57:25Z</time>
      </trkpt>
      <trkpt lat="41.898415" lon="1.1689944">
        <time>2022-07-08T09:57:27Z</time>
      </trkpt>
      <trkpt lat="41.898487" lon="1.1690052">
        <time>2022-07-08T09:57:29Z</time>
      </trkpt>
      <trkpt lat="41.898556" lon="1.1690154">
        <time>2022-07-08T09:57:31Z</time>
      </trkpt>
      <trkpt lat="41.898632" lon="1.1690254">
        <time>2022-07-08T09:57:33Z</time>
      </trkpt>
      <trkpt lat="41.898697" lon="1.169033">
        <time>2022-07-08T09:57:35Z</time>
      </trkpt>
      <trkpt lat="41.898766" lon="1.1690358">
        <time>2022-07-08T09:57:37Z</time>
      </trkpt>
      <trkpt lat="41.89883" lon="1.1690378">
        <time>2022-07-08T09:57:39Z</time>
      </trkpt>
      <trkpt lat="41.8989" lon="1.169038">
        <time>2022-07-08T09:57:41Z</time>
      </trkpt>
      <trkpt lat="41.898968" lon="1.1690408">
        <time>2022-07-08T09:57:43Z</time>
      </trkpt>
      <trkpt lat="41.89904" lon="1.1690454">
        <time>2022-07-08T09:57:45Z</time>
      </trkpt>
      <trkpt lat="41.899113" lon="1.1690454">
        <time>2022-07-08T09:57:47Z</time>
      </trkpt>
      <trkpt lat="41.899185" lon="1.1690438">
        <time>2022-07-08T09:57:49Z</time>
      </trkpt>
      <trkpt lat="41.899258" lon="1.1690408">
        <time>2022-07-08T09:57:51Z</time>
      </trkpt>
      <trkpt lat="41.899326" lon="1.169038">
        <time>2022-07-08T09:57:53Z</time>
      </trkpt>
      <trkpt lat="41.8994" lon="1.1690384">
        <time>2022-07-08T09:57:55Z</time>
      </trkpt>
      <trkpt lat="41.899475" lon="1.169038">
        <time>2022-07-08T09:57:57Z</time>
      </trkpt>
      <trkpt lat="41.89955" lon="1.1690354">
        <time>2022-07-08T09:57:59Z</time>
      </trkpt>
      <trkpt lat="41.899624" lon="1.1690334">
        <time>2022-07-08T09:58:01Z</time>
      </trkpt>
      <trkpt lat="41.8997" lon="1.1690325">
        <time>2022-07-08T09:58:03Z</time>
      </trkpt>
      <trkpt lat="41.899776" lon="1.1690345">
        <time>2022-07-08T09:58:05Z</time>
      </trkpt>
      <trkpt lat="41.899853" lon="1.1690375">
        <time>2022-07-08T09:58:07Z</time>
      </trkpt>
      <trkpt lat="41.899937" lon="1.169041">
        <time>2022-07-08T09:58:09Z</time>
      </trkpt>
      <trkpt lat="41.900017" lon="1.1690451">
        <time>2022-07-08T09:58:11Z</time>
      </trkpt>
      <trkpt lat="41.9001" lon="1.1690527">
        <time>2022-07-08T09:58:13Z</time>
      </trkpt>
      <trkpt lat="41.90019" lon="1.169059">
        <time>2022-07-08T09:58:15Z</time>
      </trkpt>
      <trkpt lat="41.900272" lon="1.1690674">
        <time>2022-07-08T09:58:17Z</time>
      </trkpt>
      <trkpt lat="41.900364" lon="1.1690778">
        <time>2022-07-08T09:58:19Z</time>
      </trkpt>
      <trkpt lat="41.90045" lon="1.1690894">
        <time>2022-07-08T09:58:21Z</time>
      </trkpt>
      <trkpt lat="41.900543" lon="1.169106">
        <time>2022-07-08T09:58:23Z</time>
      </trkpt>
      <trkpt lat="41.90059" lon="1.1691157">
        <time>2022-07-08T09:58:24Z</time>
      </trkpt>
      <trkpt lat="41.90068" lon="1.1691381">
        <time>2022-07-08T09:58:26Z</time>
      </trkpt>
      <trkpt lat="41.90078" lon="1.169162">
        <time>2022-07-08T09:58:28Z</time>
      </trkpt>
      <trkpt lat="41.900932" lon="1.1692027">
        <time>2022-07-08T09:58:31Z</time>
      </trkpt>
      <trkpt lat="41.90098" lon="1.1692164">
        <time>2022-07-08T09:58:32Z</time>
      </trkpt>
      <trkpt lat="41.90103" lon="1.1692303">
        <time>2022-07-08T09:58:33Z</time>
      </trkpt>
      <trkpt lat="41.90108" lon="1.1692454">
        <time>2022-07-08T09:58:34Z</time>
      </trkpt>
      <trkpt lat="41.90114" lon="1.1692613">
        <time>2022-07-08T09:58:35Z</time>
      </trkpt>
      <trkpt lat="41.90119" lon="1.1692777">
        <time>2022-07-08T09:58:36Z</time>
      </trkpt>
      <trkpt lat="41.901245" lon="1.1692944">
        <time>2022-07-08T09:58:37Z</time>
      </trkpt>
      <trkpt lat="41.901302" lon="1.1693124">
        <time>2022-07-08T09:58:38Z</time>
      </trkpt>
      <trkpt lat="41.901356" lon="1.169332">
        <time>2022-07-08T09:58:39Z</time>
      </trkpt>
      <trkpt lat="41.901417" lon="1.1693547">
        <time>2022-07-08T09:58:40Z</time>
      </trkpt>
      <trkpt lat="41.901474" lon="1.1693786">
        <time>2022-07-08T09:58:41Z</time>
      </trkpt>
      <trkpt lat="41.901535" lon="1.1694044">
        <time>2022-07-08T09:58:42Z</time>
      </trkpt>
      <trkpt lat="41.901596" lon="1.1694317">
        <time>2022-07-08T09:58:43Z</time>
      </trkpt>
      <trkpt lat="41.901657" lon="1.1694603">
        <time>2022-07-08T09:58:44Z</time>
      </trkpt>
      <trkpt lat="41.901722" lon="1.16949">
        <time>2022-07-08T09:58:45Z</time>
      </trkpt>
      <trkpt lat="41.90179" lon="1.1695197">
        <time>2022-07-08T09:58:46Z</time>
      </trkpt>
      <trkpt lat="41.901855" lon="1.1695486">
        <time>2022-07-08T09:58:47Z</time>
      </trkpt>
      <trkpt lat="41.901924" lon="1.1695776">
        <time>2022-07-08T09:58:48Z</time>
      </trkpt>
      <trkpt lat="41.901997" lon="1.1696069">
        <time>2022-07-08T09:58:49Z</time>
      </trkpt>
      <trkpt lat="41.902065" lon="1.169638">
        <time>2022-07-08T09:58:50Z</time>
      </trkpt>
      <trkpt lat="41.902145" lon="1.1696723">
        <time>2022-07-08T09:58:51Z</time>
      </trkpt>
      <trkpt lat="41.90222" lon="1.1697056">
        <time>2022-07-08T09:58:52Z</time>
      </trkpt>
      <trkpt lat="41.9023" lon="1.1697379">
        <time>2022-07-08T09:58:53Z</time>
      </trkpt>
      <trkpt lat="41.902378" lon="1.1697693">
        <time>2022-07-08T09:58:54Z</time>
      </trkpt>
      <trkpt lat="41.90246" lon="1.1697999">
        <time>2022-07-08T09:58:55Z</time>
      </trkpt>
      <trkpt lat="41.90254" lon="1.1698313">
        <time>2022-07-08T09:58:56Z</time>
      </trkpt>
      <trkpt lat="41.90262" lon="1.1698633">
        <time>2022-07-08T09:58:57Z</time>
      </trkpt>
      <trkpt lat="41.902702" lon="1.169897">
        <time>2022-07-08T09:58:58Z</time>
      </trkpt>
      <trkpt lat="41.902782" lon="1.1699309">
        <time>2022-07-08T09:58:59Z</time>
      </trkpt>
      <trkpt lat="41.902866" lon="1.1699643">
        <time>2022-07-08T09:59:00Z</time>
      </trkpt>
      <trkpt lat="41.90295" lon="1.1699979">
        <time>2022-07-08T09:59:01Z</time>
      </trkpt>
      <trkpt lat="41.903034" lon="1.170033">
        <time>2022-07-08T09:59:02Z</time>
      </trkpt>
      <trkpt lat="41.903122" lon="1.1700692">
        <time>2022-07-08T09:59:03Z</time>
      </trkpt>
      <trkpt lat="41.90321" lon="1.1701063">
        <time>2022-07-08T09:59:04Z</time>
      </trkpt>
      <trkpt lat="41.9033" lon="1.170144">
        <time>2022-07-08T09:59:05Z</time>
      </trkpt>
      <trkpt lat="41.903393" lon="1.1701816">
        <time>2022-07-08T09:59:06Z</time>
      </trkpt>
      <trkpt lat="41.90349" lon="1.1702206">
        <time>2022-07-08T09:59:07Z</time>
      </trkpt>
      <trkpt lat="41.903584" lon="1.1702596">
        <time>2022-07-08T09:59:08Z</time>
      </trkpt>
      <trkpt lat="41.90368" lon="1.1702993">
        <time>2022-07-08T09:59:09Z</time>
      </trkpt>
      <trkpt lat="41.903778" lon="1.1703403">
        <time>2022-07-08T09:59:10Z</time>
      </trkpt>
      <trkpt lat="41.90388" lon="1.1703813">
        <time>2022-07-08T09:59:11Z</time>
      </trkpt>
      <trkpt lat="41.903984" lon="1.1704242">
        <time>2022-07-08T09:59:12Z</time>
      </trkpt>
      <trkpt lat="41.904087" lon="1.1704669">
        <time>2022-07-08T09:59:13Z</time>
      </trkpt>
      <trkpt lat="41.90419" lon="1.1705103">
        <time>2022-07-08T09:59:14Z</time>
      </trkpt>
      <trkpt lat="41.904297" lon="1.1705543">
        <time>2022-07-08T09:59:15Z</time>
      </trkpt>
      <trkpt lat="41.904408" lon="1.1705989">
        <time>2022-07-08T09:59:16Z</time>
      </trkpt>
      <trkpt lat="41.90452" lon="1.1706443">
        <time>2022-07-08T09:59:17Z</time>
      </trkpt>
      <trkpt lat="41.90463" lon="1.1706905">
        <time>2022-07-08T09:59:18Z</time>
      </trkpt>
      <trkpt lat="41.904743" lon="1.1707375">
        <time>2022-07-08T09:59:19Z</time>
      </trkpt>
      <trkpt lat="41.904858" lon="1.1707846">
        <time>2022-07-08T09:59:20Z</time>
      </trkpt>
      <trkpt lat="41.904972" lon="1.1708319">
        <time>2022-07-08T09:59:21Z</time>
      </trkpt>
      <trkpt lat="41.905087" lon="1.1708802">
        <time>2022-07-08T09:59:22Z</time>
      </trkpt>
      <trkpt lat="41.905205" lon="1.1709272">
        <time>2022-07-08T09:59:23Z</time>
      </trkpt>
      <trkpt lat="41.90532" lon="1.1709756">
        <time>2022-07-08T09:59:24Z</time>
      </trkpt>
      <trkpt lat="41.905437" lon="1.1710242">
        <time>2022-07-08T09:59:25Z</time>
      </trkpt>
      <trkpt lat="41.90556" lon="1.1710715">
        <time>2022-07-08T09:59:26Z</time>
      </trkpt>
      <trkpt lat="41.905678" lon="1.1711162">
        <time>2022-07-08T09:59:27Z</time>
      </trkpt>
      <trkpt lat="41.9058" lon="1.1711569">
        <time>2022-07-08T09:59:28Z</time>
      </trkpt>
      <trkpt lat="41.905922" lon="1.1711925">
        <time>2022-07-08T09:59:29Z</time>
      </trkpt>
      <trkpt lat="41.906044" lon="1.1712226">
        <time>2022-07-08T09:59:30Z</time>
      </trkpt>
      <trkpt lat="41.906166" lon="1.1712465">
        <time>2022-07-08T09:59:31Z</time>
      </trkpt>
      <trkpt lat="41.90629" lon="1.1712625">
        <time>2022-07-08T09:59:32Z</time>
      </trkpt>
      <trkpt lat="41.906525" lon="1.1712729">
        <time>2022-07-08T09:59:34Z</time>
      </trkpt>
      <trkpt lat="41.906643" lon="1.1712666">
        <time>2022-07-08T09:59:35Z</time>
      </trkpt>
      <trkpt lat="41.90677" lon="1.1712532">
        <time>2022-07-08T09:59:36Z</time>
      </trkpt>
      <trkpt lat="41.906895" lon="1.1712372">
        <time>2022-07-08T09:59:37Z</time>
      </trkpt>
      <trkpt lat="41.90702" lon="1.1712202">
        <time>2022-07-08T09:59:38Z</time>
      </trkpt>
      <trkpt lat="41.907135" lon="1.1712029">
        <time>2022-07-08T09:59:39Z</time>
      </trkpt>
      <trkpt lat="41.907257" lon="1.1711853">
        <time>2022-07-08T09:59:40Z</time>
      </trkpt>
      <trkpt lat="41.907387" lon="1.1711679">
        <time>2022-07-08T09:59:41Z</time>
      </trkpt>
      <trkpt lat="41.907513" lon="1.1711526">
        <time>2022-07-08T09:59:42Z</time>
      </trkpt>
      <trkpt lat="41.907642" lon="1.1711398">
        <time>2022-07-08T09:59:43Z</time>
      </trkpt>
      <trkpt lat="41.907772" lon="1.1711335">
        <time>2022-07-08T09:59:44Z</time>
      </trkpt>
      <trkpt lat="41.9079" lon="1.1711352">
        <time>2022-07-08T09:59:45Z</time>
      </trkpt>
      <trkpt lat="41.90803" lon="1.1711452">
        <time>2022-07-08T09:59:46Z</time>
      </trkpt>
      <trkpt lat="41.90816" lon="1.1711645">
        <time>2022-07-08T09:59:47Z</time>
      </trkpt>
      <trkpt lat="41.908287" lon="1.1711938">
        <time>2022-07-08T09:59:48Z</time>
      </trkpt>
      <trkpt lat="41.908413" lon="1.1712345">
        <time>2022-07-08T09:59:49Z</time>
      </trkpt>
      <trkpt lat="41.90854" lon="1.1712852">
        <time>2022-07-08T09:59:50Z</time>
      </trkpt>
      <trkpt lat="41.90866" lon="1.1713455">
        <time>2022-07-08T09:59:51Z</time>
      </trkpt>
      <trkpt lat="41.90878" lon="1.1714156">
        <time>2022-07-08T09:59:52Z</time>
      </trkpt>
      <trkpt lat="41.90889" lon="1.1714882">
        <time>2022-07-08T09:59:53Z</time>
      </trkpt>
      <trkpt lat="41.909004" lon="1.1715782">
        <time>2022-07-08T09:59:54Z</time>
      </trkpt>
      <trkpt lat="41.909115" lon="1.1716762">
        <time>2022-07-08T09:59:55Z</time>
      </trkpt>
      <trkpt lat="41.90922" lon="1.1717815">
        <time>2022-07-08T09:59:56Z</time>
      </trkpt>
      <trkpt lat="41.90932" lon="1.1718931">
        <time>2022-07-08T09:59:57Z</time>
      </trkpt>
      <trkpt lat="41.909412" lon="1.1720111">
        <time>2022-07-08T09:59:58Z</time>
      </trkpt>
      <trkpt lat="41.9095" lon="1.1721338">
        <time>2022-07-08T09:59:59Z</time>
      </trkpt>
      <trkpt lat="41.909584" lon="1.1722602">
        <time>2022-07-08T10:00:00Z</time>
      </trkpt>
      <trkpt lat="41.909664" lon="1.1723882">
        <time>2022-07-08T10:00:01Z</time>
      </trkpt>
      <trkpt lat="41.909737" lon="1.1725175">
        <time>2022-07-08T10:00:02Z</time>
      </trkpt>
      <trkpt lat="41.90981" lon="1.1726468">
        <time>2022-07-08T10:00:03Z</time>
      </trkpt>
      <trkpt lat="41.909878" lon="1.1727765">
        <time>2022-07-08T10:00:04Z</time>
      </trkpt>
      <trkpt lat="41.909946" lon="1.1729065">
        <time>2022-07-08T10:00:05Z</time>
      </trkpt>
      <trkpt lat="41.91001" lon="1.1730359">
        <time>2022-07-08T10:00:06Z</time>
      </trkpt>
      <trkpt lat="41.910076" lon="1.1731634">
        <time>2022-07-08T10:00:07Z</time>
      </trkpt>
      <trkpt lat="41.91014" lon="1.1732911">
        <time>2022-07-08T10:00:08Z</time>
      </trkpt>
      <trkpt lat="41.910202" lon="1.1734095">
        <time>2022-07-08T10:00:09Z</time>
      </trkpt>
      <trkpt lat="41.910263" lon="1.1735301">
        <time>2022-07-08T10:00:10Z</time>
      </trkpt>
      <trkpt lat="41.910328" lon="1.1736608">
        <time>2022-07-08T10:00:11Z</time>
      </trkpt>
      <trkpt lat="41.910393" lon="1.1737891">
        <time>2022-07-08T10:00:12Z</time>
      </trkpt>
      <trkpt lat="41.91045" lon="1.1739072">
        <time>2022-07-08T10:00:13Z</time>
      </trkpt>
      <trkpt lat="41.910515" lon="1.1740334">
        <time>2022-07-08T10:00:14Z</time>
      </trkpt>
      <trkpt lat="41.910576" lon="1.1741564">
        <time>2022-07-08T10:00:15Z</time>
      </trkpt>
      <trkpt lat="41.910637" lon="1.1742754">
        <time>2022-07-08T10:00:16Z</time>
      </trkpt>
      <trkpt lat="41.910698" lon="1.1743914">
        <time>2022-07-08T10:00:17Z</time>
      </trkpt>
      <trkpt lat="41.910755" lon="1.1745048">
        <time>2022-07-08T10:00:18Z</time>
      </trkpt>
      <trkpt lat="41.910812" lon="1.1746154">
        <time>2022-07-08T10:00:19Z</time>
      </trkpt>
      <trkpt lat="41.910866" lon="1.1747237">
        <time>2022-07-08T10:00:20Z</time>
      </trkpt>
      <trkpt lat="41.91092" lon="1.1748304">
        <time>2022-07-08T10:00:21Z</time>
      </trkpt>
      <trkpt lat="41.910973" lon="1.1749347">
        <time>2022-07-08T10:00:22Z</time>
      </trkpt>
      <trkpt lat="41.911022" lon="1.1750351">
        <time>2022-07-08T10:00:23Z</time>
      </trkpt>
      <trkpt lat="41.911068" lon="1.1751324">
        <time>2022-07-08T10:00:24Z</time>
      </trkpt>
      <trkpt lat="41.911114" lon="1.1752257">
        <time>2022-07-08T10:00:25Z</time>
      </trkpt>
      <trkpt lat="41.91116" lon="1.1753165">
        <time>2022-07-08T10:00:26Z</time>
      </trkpt>
      <trkpt lat="41.9112" lon="1.1754048">
        <time>2022-07-08T10:00:27Z</time>
      </trkpt>
      <trkpt lat="41.911243" lon="1.1754864">
        <time>2022-07-08T10:00:28Z</time>
      </trkpt>
      <trkpt lat="41.91128" lon="1.1755687">
        <time>2022-07-08T10:00:29Z</time>
      </trkpt>
      <trkpt lat="41.911324" lon="1.1756507">
        <time>2022-07-08T10:00:30Z</time>
      </trkpt>
      <trkpt lat="41.911366" lon="1.175737">
        <time>2022-07-08T10:00:31Z</time>
      </trkpt>
      <trkpt lat="41.911407" lon="1.1758207">
        <time>2022-07-08T10:00:32Z</time>
      </trkpt>
      <trkpt lat="41.91145" lon="1.175902">
        <time>2022-07-08T10:00:33Z</time>
      </trkpt>
      <trkpt lat="41.911488" lon="1.1759824">
        <time>2022-07-08T10:00:34Z</time>
      </trkpt>
      <trkpt lat="41.91157" lon="1.1761447">
        <time>2022-07-08T10:00:36Z</time>
      </trkpt>
      <trkpt lat="41.911613" lon="1.1762214">
        <time>2022-07-08T10:00:37Z</time>
      </trkpt>
      <trkpt lat="41.91165" lon="1.1762984">
        <time>2022-07-08T10:00:38Z</time>
      </trkpt>
      <trkpt lat="41.91169" lon="1.1763741">
        <time>2022-07-08T10:00:39Z</time>
      </trkpt>
      <trkpt lat="41.911728" lon="1.1764487">
        <time>2022-07-08T10:00:40Z</time>
      </trkpt>
      <trkpt lat="41.911766" lon="1.176523">
        <time>2022-07-08T10:00:41Z</time>
      </trkpt>
      <trkpt lat="41.9118" lon="1.1765977">
        <time>2022-07-08T10:00:42Z</time>
      </trkpt>
      <trkpt lat="41.911835" lon="1.176667">
        <time>2022-07-08T10:00:43Z</time>
      </trkpt>
      <trkpt lat="41.911873" lon="1.176743">
        <time>2022-07-08T10:00:44Z</time>
      </trkpt>
      <trkpt lat="41.911907" lon="1.176818">
        <time>2022-07-08T10:00:45Z</time>
      </trkpt>
      <trkpt lat="41.91194" lon="1.1768934">
        <time>2022-07-08T10:00:46Z</time>
      </trkpt>
      <trkpt lat="41.911976" lon="1.1769676">
        <time>2022-07-08T10:00:47Z</time>
      </trkpt>
      <trkpt lat="41.912006" lon="1.1770413">
        <time>2022-07-08T10:00:48Z</time>
      </trkpt>
      <trkpt lat="41.912037" lon="1.1771144">
        <time>2022-07-08T10:00:49Z</time>
      </trkpt>
      <trkpt lat="41.912067" lon="1.1771873">
        <time>2022-07-08T10:00:50Z</time>
      </trkpt>
      <trkpt lat="41.912094" lon="1.1772599">
        <time>2022-07-08T10:00:51Z</time>
      </trkpt>
      <trkpt lat="41.91212" lon="1.1773323">
        <time>2022-07-08T10:00:52Z</time>
      </trkpt>
      <trkpt lat="41.912144" lon="1.1774039">
        <time>2022-07-08T10:00:53Z</time>
      </trkpt>
      <trkpt lat="41.912167" lon="1.1774743">
        <time>2022-07-08T10:00:54Z</time>
      </trkpt>
      <trkpt lat="41.91219" lon="1.1775436">
        <time>2022-07-08T10:00:55Z</time>
      </trkpt>
      <trkpt lat="41.912212" lon="1.1776127">
        <time>2022-07-08T10:00:56Z</time>
      </trkpt>
      <trkpt lat="41.91223" lon="1.1776806">
        <time>2022-07-08T10:00:57Z</time>
      </trkpt>
      <trkpt lat="41.91225" lon="1.177748">
        <time>2022-07-08T10:00:58Z</time>
      </trkpt>
      <trkpt lat="41.91227" lon="1.1778142">
        <time>2022-07-08T10:00:59Z</time>
      </trkpt>
      <trkpt lat="41.91229" lon="1.1778793">
        <time>2022-07-08T10:01:00Z</time>
      </trkpt>
      <trkpt lat="41.912304" lon="1.1779436">
        <time>2022-07-08T10:01:01Z</time>
      </trkpt>
      <trkpt lat="41.91234" lon="1.1780683">
        <time>2022-07-08T10:01:03Z</time>
      </trkpt>
      <trkpt lat="41.912373" lon="1.1781896">
        <time>2022-07-08T10:01:05Z</time>
      </trkpt>
      <trkpt lat="41.912407" lon="1.1783093">
        <time>2022-07-08T10:01:07Z</time>
      </trkpt>
      <trkpt lat="41.912422" lon="1.1783676">
        <time>2022-07-08T10:01:08Z</time>
      </trkpt>
      <trkpt lat="41.912453" lon="1.1784749">
        <time>2022-07-08T10:01:10Z</time>
      </trkpt>
      <trkpt lat="41.91249" lon="1.1785879">
        <time>2022-07-08T10:01:12Z</time>
      </trkpt>
      <trkpt lat="41.912506" lon="1.178643">
        <time>2022-07-08T10:01:13Z</time>
      </trkpt>
      <trkpt lat="41.912544" lon="1.178752">
        <time>2022-07-08T10:01:15Z</time>
      </trkpt>
      <trkpt lat="41.912582" lon="1.1788626">
        <time>2022-07-08T10:01:17Z</time>
      </trkpt>
      <trkpt lat="41.912624" lon="1.1789693">
        <time>2022-07-08T10:01:19Z</time>
      </trkpt>
      <trkpt lat="41.912666" lon="1.1790702">
        <time>2022-07-08T10:01:21Z</time>
      </trkpt>
      <trkpt lat="41.912712" lon="1.1791703">
        <time>2022-07-08T10:01:23Z</time>
      </trkpt>
      <trkpt lat="41.91276" lon="1.179269">
        <time>2022-07-08T10:01:25Z</time>
      </trkpt>
      <trkpt lat="41.912815" lon="1.1793662">
        <time>2022-07-08T10:01:27Z</time>
      </trkpt>
      <trkpt lat="41.91287" lon="1.1794603">
        <time>2022-07-08T10:01:29Z</time>
      </trkpt>
      <trkpt lat="41.912926" lon="1.1795512">
        <time>2022-07-08T10:01:31Z</time>
      </trkpt>
      <trkpt lat="41.912983" lon="1.1796405">
        <time>2022-07-08T10:01:33Z</time>
      </trkpt>
      <trkpt lat="41.913044" lon="1.1797346">
        <time>2022-07-08T10:01:35Z</time>
      </trkpt>
      <trkpt lat="41.91307" lon="1.1797823">
        <time>2022-07-08T10:01:36Z</time>
      </trkpt>
      <trkpt lat="41.913162" lon="1.1799256">
        <time>2022-07-08T10:01:39Z</time>
      </trkpt>
      <trkpt lat="41.913223" lon="1.1800276">
        <time>2022-07-08T10:01:41Z</time>
      </trkpt>
      <trkpt lat="41.91325" lon="1.1800755">
        <time>2022-07-08T10:01:42Z</time>
      </trkpt>
      <trkpt lat="41.913303" lon="1.1801733">
        <time>2022-07-08T10:01:44Z</time>
      </trkpt>
      <trkpt lat="41.913357" lon="1.1802759">
        <time>2022-07-08T10:01:46Z</time>
      </trkpt>
      <trkpt lat="41.913403" lon="1.1803799">
        <time>2022-07-08T10:01:48Z</time>
      </trkpt>
      <trkpt lat="41.913445" lon="1.1804836">
        <time>2022-07-08T10:01:50Z</time>
      </trkpt>
      <trkpt lat="41.913486" lon="1.1805892">
        <time>2022-07-08T10:01:52Z</time>
      </trkpt>
      <trkpt lat="41.913532" lon="1.1806926">
        <time>2022-07-08T10:01:54Z</time>
      </trkpt>
      <trkpt lat="41.913578" lon="1.1807959">
        <time>2022-07-08T10:01:56Z</time>
      </trkpt>
      <trkpt lat="41.913628" lon="1.1809002">
        <time>2022-07-08T10:01:58Z</time>
      </trkpt>
      <trkpt lat="41.913677" lon="1.1810069">
        <time>2022-07-08T10:02:00Z</time>
      </trkpt>
      <trkpt lat="41.913704" lon="1.1810578">
        <time>2022-07-08T10:02:01Z</time>
      </trkpt>
      <trkpt lat="41.913754" lon="1.1811625">
        <time>2022-07-08T10:02:03Z</time>
      </trkpt>
      <trkpt lat="41.913803" lon="1.1812688">
        <time>2022-07-08T10:02:05Z</time>
      </trkpt>
      <trkpt lat="41.91383" lon="1.1813228">
        <time>2022-07-08T10:02:06Z</time>
      </trkpt>
      <trkpt lat="41.91388" lon="1.1814308">
        <time>2022-07-08T10:02:08Z</time>
      </trkpt>
      <trkpt lat="41.913906" lon="1.1814848">
        <time>2022-07-08T10:02:09Z</time>
      </trkpt>
      <trkpt lat="41.913956" lon="1.1815932">
        <time>2022-07-08T10:02:11Z</time>
      </trkpt>
      <trkpt lat="41.913982" lon="1.1816475">
        <time>2022-07-08T10:02:12Z</time>
      </trkpt>
      <trkpt lat="41.914032" lon="1.1817555">
        <time>2022-07-08T10:02:14Z</time>
      </trkpt>
      <trkpt lat="41.91408" lon="1.1818621">
        <time>2022-07-08T10:02:16Z</time>
      </trkpt>
      <trkpt lat="41.91413" lon="1.1819695">
        <time>2022-07-08T10:02:18Z</time>
      </trkpt>
      <trkpt lat="41.914177" lon="1.1820775">
        <time>2022-07-08T10:02:20Z</time>
      </trkpt>
      <trkpt lat="41.914223" lon="1.1821852">
        <time>2022-07-08T10:02:22Z</time>
      </trkpt>
      <trkpt lat="41.914272" lon="1.1822945">
        <time>2022-07-08T10:02:24Z</time>
      </trkpt>
      <trkpt lat="41.914318" lon="1.1823988">
        <time>2022-07-08T10:02:26Z</time>
      </trkpt>
      <trkpt lat="41.91437" lon="1.1825064">
        <time>2022-07-08T10:02:28Z</time>
      </trkpt>
      <trkpt lat="41.91442" lon="1.1826105">
        <time>2022-07-08T10:02:30Z</time>
      </trkpt>
      <trkpt lat="41.914448" lon="1.1826634">
        <time>2022-07-08T10:02:31Z</time>
      </trkpt>
      <trkpt lat="41.914497" lon="1.1827705">
        <time>2022-07-08T10:02:33Z</time>
      </trkpt>
      <trkpt lat="41.914543" lon="1.1828768">
        <time>2022-07-08T10:02:35Z</time>
      </trkpt>
      <trkpt lat="41.91457" lon="1.1829284">
        <time>2022-07-08T10:02:36Z</time>
      </trkpt>
      <trkpt lat="41.914616" lon="1.1830348">
        <time>2022-07-08T10:02:38Z</time>
      </trkpt>
      <trkpt lat="41.91466" lon="1.1831435">
        <time>2022-07-08T10:02:40Z</time>
      </trkpt>
      <trkpt lat="41.914703" lon="1.1832534">
        <time>2022-07-08T10:02:42Z</time>
      </trkpt>
      <trkpt lat="41.914726" lon="1.1833038">
        <time>2022-07-08T10:02:43Z</time>
      </trkpt>
      <trkpt lat="41.91477" lon="1.1834148">
        <time>2022-07-08T10:02:45Z</time>
      </trkpt>
      <trkpt lat="41.91479" lon="1.1834738">
        <time>2022-07-08T10:02:46Z</time>
      </trkpt>
      <trkpt lat="41.914837" lon="1.1835924">
        <time>2022-07-08T10:02:48Z</time>
      </trkpt>
      <trkpt lat="41.914883" lon="1.1837051">
        <time>2022-07-08T10:02:50Z</time>
      </trkpt>
      <trkpt lat="41.914932" lon="1.1838248">
        <time>2022-07-08T10:02:52Z</time>
      </trkpt>
      <trkpt lat="41.91499" lon="1.1839458">
        <time>2022-07-08T10:02:54Z</time>
      </trkpt>
      <trkpt lat="41.91502" lon="1.1840141">
        <time>2022-07-08T10:02:55Z</time>
      </trkpt>
      <trkpt lat="41.915047" lon="1.1840785">
        <time>2022-07-08T10:02:56Z</time>
      </trkpt>
      <trkpt lat="41.915073" lon="1.1841451">
        <time>2022-07-08T10:02:57Z</time>
      </trkpt>
      <trkpt lat="41.9151" lon="1.1842134">
        <time>2022-07-08T10:02:58Z</time>
      </trkpt>
      <trkpt lat="41.91513" lon="1.184283">
        <time>2022-07-08T10:02:59Z</time>
      </trkpt>
      <trkpt lat="41.915165" lon="1.1843581">
        <time>2022-07-08T10:03:00Z</time>
      </trkpt>
      <trkpt lat="41.9152" lon="1.184434">
        <time>2022-07-08T10:03:01Z</time>
      </trkpt>
      <trkpt lat="41.91524" lon="1.1845077">
        <time>2022-07-08T10:03:02Z</time>
      </trkpt>
      <trkpt lat="41.91528" lon="1.1845797">
        <time>2022-07-08T10:03:03Z</time>
      </trkpt>
      <trkpt lat="41.915318" lon="1.1846508">
        <time>2022-07-08T10:03:04Z</time>
      </trkpt>
      <trkpt lat="41.915348" lon="1.184725">
        <time>2022-07-08T10:03:05Z</time>
      </trkpt>
      <trkpt lat="41.91537" lon="1.1847957">
        <time>2022-07-08T10:03:06Z</time>
      </trkpt>
      <trkpt lat="41.91539" lon="1.184867">
        <time>2022-07-08T10:03:07Z</time>
      </trkpt>
      <trkpt lat="41.91541" lon="1.1849374">
        <time>2022-07-08T10:03:08Z</time>
      </trkpt>
      <trkpt lat="41.915432" lon="1.1850073">
        <time>2022-07-08T10:03:09Z</time>
      </trkpt>
      <trkpt lat="41.915462" lon="1.1850677">
        <time>2022-07-08T10:03:10Z</time>
      </trkpt>
      <trkpt lat="41.9155" lon="1.18512">
        <time>2022-07-08T10:03:11Z</time>
      </trkpt>
      <trkpt lat="41.91558" lon="1.1852081">
        <time>2022-07-08T10:03:13Z</time>
      </trkpt>
      <trkpt lat="41.915615" lon="1.1852463">
        <time>2022-07-08T10:03:14Z</time>
      </trkpt>
      <trkpt lat="41.915653" lon="1.185303">
        <time>2022-07-08T10:03:16Z</time>
      </trkpt>
      <trkpt lat="41.915676" lon="1.1853404">
        <time>2022-07-08T10:03:21Z</time>
      </trkpt>
      <trkpt lat="41.915634" lon="1.1853614">
        <time>2022-07-08T10:05:35Z</time>
      </trkpt>
      <trkpt lat="41.915573" lon="1.1853341">
        <time>2022-07-08T10:05:40Z</time>
      </trkpt>
      <trkpt lat="41.915554" lon="1.185321">
        <time>2022-07-08T10:20:43Z</time>
      </trkpt>
      <trkpt lat="41.915607" lon="1.185297">
        <time>2022-07-08T10:21:20Z</time>
      </trkpt>
      <trkpt lat="41.91567" lon="1.1853601">
        <time>2022-07-08T10:21:23Z</time>
      </trkpt>
      <trkpt lat="41.915714" lon="1.1854187">
        <time>2022-07-08T10:21:25Z</time>
      </trkpt>
      <trkpt lat="41.915756" lon="1.1854796">
        <time>2022-07-08T10:21:27Z</time>
      </trkpt>
      <trkpt lat="41.915802" lon="1.1855466">
        <time>2022-07-08T10:21:29Z</time>
      </trkpt>
      <trkpt lat="41.915855" lon="1.185608">
        <time>2022-07-08T10:21:31Z</time>
      </trkpt>
      <trkpt lat="41.915916" lon="1.1856567">
        <time>2022-07-08T10:21:33Z</time>
      </trkpt>
      <trkpt lat="41.91598" lon="1.185694">
        <time>2022-07-08T10:21:35Z</time>
      </trkpt>
      <trkpt lat="41.916054" lon="1.1857231">
        <time>2022-07-08T10:21:37Z</time>
      </trkpt>
      <trkpt lat="41.916122" lon="1.18575">
        <time>2022-07-08T10:21:39Z</time>
      </trkpt>
      <trkpt lat="41.9162" lon="1.18577">
        <time>2022-07-08T10:21:41Z</time>
      </trkpt>
      <trkpt lat="41.916275" lon="1.1857936">
        <time>2022-07-08T10:21:43Z</time>
      </trkpt>
      <trkpt lat="41.916355" lon="1.18582">
        <time>2022-07-08T10:21:45Z</time>
      </trkpt>
      <trkpt lat="41.916435" lon="1.185847">
        <time>2022-07-08T10:21:47Z</time>
      </trkpt>
      <trkpt lat="41.91651" lon="1.185877">
        <time>2022-07-08T10:21:49Z</time>
      </trkpt>
      <trkpt lat="41.916588" lon="1.1859053">
        <time>2022-07-08T10:21:51Z</time>
      </trkpt>
      <trkpt lat="41.916664" lon="1.1859443">
        <time>2022-07-08T10:21:53Z</time>
      </trkpt>
      <trkpt lat="41.916737" lon="1.1859996">
        <time>2022-07-08T10:21:55Z</time>
      </trkpt>
      <trkpt lat="41.916813" lon="1.186075">
        <time>2022-07-08T10:21:57Z</time>
      </trkpt>
      <trkpt lat="41.91685" lon="1.1861163">
        <time>2022-07-08T10:21:58Z</time>
      </trkpt>
      <trkpt lat="41.91693" lon="1.1861986">
        <time>2022-07-08T10:22:00Z</time>
      </trkpt>
      <trkpt lat="41.917007" lon="1.186273">
        <time>2022-07-08T10:22:02Z</time>
      </trkpt>
      <trkpt lat="41.91709" lon="1.1863443">
        <time>2022-07-08T10:22:04Z</time>
      </trkpt>
      <trkpt lat="41.917225" lon="1.1864504">
        <time>2022-07-08T10:22:07Z</time>
      </trkpt>
      <trkpt lat="41.91731" lon="1.1865226">
        <time>2022-07-08T10:22:09Z</time>
      </trkpt>
      <trkpt lat="41.917355" lon="1.1865623">
        <time>2022-07-08T10:22:10Z</time>
      </trkpt>
      <trkpt lat="41.91743" lon="1.186659">
        <time>2022-07-08T10:22:12Z</time>
      </trkpt>
      <trkpt lat="41.917465" lon="1.1867102">
        <time>2022-07-08T10:22:13Z</time>
      </trkpt>
      <trkpt lat="41.917503" lon="1.186762">
        <time>2022-07-08T10:22:14Z</time>
      </trkpt>
      <trkpt lat="41.917538" lon="1.1868149">
        <time>2022-07-08T10:22:15Z</time>
      </trkpt>
      <trkpt lat="41.917572" lon="1.1868693">
        <time>2022-07-08T10:22:16Z</time>
      </trkpt>
      <trkpt lat="41.91761" lon="1.1869229">
        <time>2022-07-08T10:22:17Z</time>
      </trkpt>
      <trkpt lat="41.917645" lon="1.1869773">
        <time>2022-07-08T10:22:18Z</time>
      </trkpt>
      <trkpt lat="41.91768" lon="1.1870316">
        <time>2022-07-08T10:22:19Z</time>
      </trkpt>
      <trkpt lat="41.917713" lon="1.1870862">
        <time>2022-07-08T10:22:20Z</time>
      </trkpt>
      <trkpt lat="41.91775" lon="1.1871413">
        <time>2022-07-08T10:22:21Z</time>
      </trkpt>
      <trkpt lat="41.91778" lon="1.1871976">
        <time>2022-07-08T10:22:22Z</time>
      </trkpt>
      <trkpt lat="41.917816" lon="1.1872553">
        <time>2022-07-08T10:22:23Z</time>
      </trkpt>
      <trkpt lat="41.917847" lon="1.1873136">
        <time>2022-07-08T10:22:24Z</time>
      </trkpt>
      <trkpt lat="41.917877" lon="1.1873733">
        <time>2022-07-08T10:22:25Z</time>
      </trkpt>
      <trkpt lat="41.917908" lon="1.1874332">
        <time>2022-07-08T10:22:26Z</time>
      </trkpt>
      <trkpt lat="41.91794" lon="1.1874945">
        <time>2022-07-08T10:22:27Z</time>
      </trkpt>
      <trkpt lat="41.91797" lon="1.1875516">
        <time>2022-07-08T10:22:28Z</time>
      </trkpt>
      <trkpt lat="41.918" lon="1.1876138">
        <time>2022-07-08T10:22:29Z</time>
      </trkpt>
      <trkpt lat="41.91803" lon="1.1876739">
        <time>2022-07-08T10:22:30Z</time>
      </trkpt>
      <trkpt lat="41.918064" lon="1.1877322">
        <time>2022-07-08T10:22:31Z</time>
      </trkpt>
      <trkpt lat="41.91809" lon="1.1877879">
        <time>2022-07-08T10:22:32Z</time>
      </trkpt>
      <trkpt lat="41.91812" lon="1.1878452">
        <time>2022-07-08T10:22:33Z</time>
      </trkpt>
      <trkpt lat="41.918175" lon="1.1879722">
        <time>2022-07-08T10:22:35Z</time>
      </trkpt>
      <trkpt lat="41.918198" lon="1.1880345">
        <time>2022-07-08T10:22:36Z</time>
      </trkpt>
      <trkpt lat="41.918224" lon="1.1880915">
        <time>2022-07-08T10:22:37Z</time>
      </trkpt>
      <trkpt lat="41.918247" lon="1.1881499">
        <time>2022-07-08T10:22:38Z</time>
      </trkpt>
      <trkpt lat="41.9183" lon="1.1882778">
        <time>2022-07-08T10:22:40Z</time>
      </trkpt>
      <trkpt lat="41.918327" lon="1.1883402">
        <time>2022-07-08T10:22:41Z</time>
      </trkpt>
      <trkpt lat="41.918354" lon="1.1884018">
        <time>2022-07-08T10:22:42Z</time>
      </trkpt>
      <trkpt lat="41.91838" lon="1.1884592">
        <time>2022-07-08T10:22:43Z</time>
      </trkpt>
      <trkpt lat="41.918407" lon="1.1885176">
        <time>2022-07-08T10:22:44Z</time>
      </trkpt>
      <trkpt lat="41.918457" lon="1.1886358">
        <time>2022-07-08T10:22:46Z</time>
      </trkpt>
      <trkpt lat="41.918484" lon="1.1886952">
        <time>2022-07-08T10:22:47Z</time>
      </trkpt>
      <trkpt lat="41.918537" lon="1.1888132">
        <time>2022-07-08T10:22:49Z</time>
      </trkpt>
      <trkpt lat="41.918568" lon="1.1888752">
        <time>2022-07-08T10:22:50Z</time>
      </trkpt>
      <trkpt lat="41.9186" lon="1.1889346">
        <time>2022-07-08T10:22:51Z</time>
      </trkpt>
      <trkpt lat="41.91863" lon="1.1889929">
        <time>2022-07-08T10:22:52Z</time>
      </trkpt>
      <trkpt lat="41.918663" lon="1.1890459">
        <time>2022-07-08T10:22:53Z</time>
      </trkpt>
      <trkpt lat="41.918697" lon="1.1890999">
        <time>2022-07-08T10:22:54Z</time>
      </trkpt>
      <trkpt lat="41.91874" lon="1.1891562">
        <time>2022-07-08T10:22:55Z</time>
      </trkpt>
      <trkpt lat="41.918785" lon="1.1892115">
        <time>2022-07-08T10:22:56Z</time>
      </trkpt>
      <trkpt lat="41.918827" lon="1.1892662">
        <time>2022-07-08T10:22:57Z</time>
      </trkpt>
      <trkpt lat="41.91887" lon="1.1893172">
        <time>2022-07-08T10:22:58Z</time>
      </trkpt>
      <trkpt lat="41.91891" lon="1.1893678">
        <time>2022-07-08T10:22:59Z</time>
      </trkpt>
      <trkpt lat="41.91896" lon="1.1894225">
        <time>2022-07-08T10:23:00Z</time>
      </trkpt>
      <trkpt lat="41.919006" lon="1.1894765">
        <time>2022-07-08T10:23:01Z</time>
      </trkpt>
      <trkpt lat="41.919052" lon="1.1895288">
        <time>2022-07-08T10:23:02Z</time>
      </trkpt>
      <trkpt lat="41.919098" lon="1.1895821">
        <time>2022-07-08T10:23:03Z</time>
      </trkpt>
      <trkpt lat="41.919136" lon="1.1896342">
        <time>2022-07-08T10:23:04Z</time>
      </trkpt>
      <trkpt lat="41.919178" lon="1.1896868">
        <time>2022-07-08T10:23:05Z</time>
      </trkpt>
      <trkpt lat="41.919224" lon="1.1897432">
        <time>2022-07-08T10:23:06Z</time>
      </trkpt>
      <trkpt lat="41.91927" lon="1.1897978">
        <time>2022-07-08T10:23:07Z</time>
      </trkpt>
      <trkpt lat="41.91931" lon="1.1898514">
        <time>2022-07-08T10:23:08Z</time>
      </trkpt>
      <trkpt lat="41.919353" lon="1.1899011">
        <time>2022-07-08T10:23:09Z</time>
      </trkpt>
      <trkpt lat="41.919395" lon="1.1899521">
        <time>2022-07-08T10:23:10Z</time>
      </trkpt>
      <trkpt lat="41.919437" lon="1.1900078">
        <time>2022-07-08T10:23:11Z</time>
      </trkpt>
      <trkpt lat="41.91952" lon="1.1901134">
        <time>2022-07-08T10:23:13Z</time>
      </trkpt>
      <trkpt lat="41.919563" lon="1.1901641">
        <time>2022-07-08T10:23:14Z</time>
      </trkpt>
      <trkpt lat="41.919605" lon="1.1902148">
        <time>2022-07-08T10:23:15Z</time>
      </trkpt>
      <trkpt lat="41.919647" lon="1.190265">
        <time>2022-07-08T10:23:16Z</time>
      </trkpt>
      <trkpt lat="41.919693" lon="1.1903185">
        <time>2022-07-08T10:23:17Z</time>
      </trkpt>
      <trkpt lat="41.919735" lon="1.1903714">
        <time>2022-07-08T10:23:18Z</time>
      </trkpt>
      <trkpt lat="41.919777" lon="1.1904207">
        <time>2022-07-08T10:23:19Z</time>
      </trkpt>
      <trkpt lat="41.919815" lon="1.1904701">
        <time>2022-07-08T10:23:20Z</time>
      </trkpt>
      <trkpt lat="41.919857" lon="1.1905197">
        <time>2022-07-08T10:23:21Z</time>
      </trkpt>
      <trkpt lat="41.9199" lon="1.190569">
        <time>2022-07-08T10:23:22Z</time>
      </trkpt>
      <trkpt lat="41.919937" lon="1.190618">
        <time>2022-07-08T10:23:23Z</time>
      </trkpt>
      <trkpt lat="41.91998" lon="1.1906661">
        <time>2022-07-08T10:23:24Z</time>
      </trkpt>
      <trkpt lat="41.92002" lon="1.1907138">
        <time>2022-07-08T10:23:25Z</time>
      </trkpt>
      <trkpt lat="41.92006" lon="1.1907611">
        <time>2022-07-08T10:23:26Z</time>
      </trkpt>
      <trkpt lat="41.920143" lon="1.1908587">
        <time>2022-07-08T10:23:28Z</time>
      </trkpt>
      <trkpt lat="41.920185" lon="1.190907">
        <time>2022-07-08T10:23:29Z</time>
      </trkpt>
      <trkpt lat="41.920227" lon="1.190955">
        <time>2022-07-08T10:23:30Z</time>
      </trkpt>
      <trkpt lat="41.92027" lon="1.191002">
        <time>2022-07-08T10:23:31Z</time>
      </trkpt>
      <trkpt lat="41.920307" lon="1.1910493">
        <time>2022-07-08T10:23:32Z</time>
      </trkpt>
      <trkpt lat="41.92035" lon="1.1910977">
        <time>2022-07-08T10:23:33Z</time>
      </trkpt>
      <trkpt lat="41.920387" lon="1.1911454">
        <time>2022-07-08T10:23:34Z</time>
      </trkpt>
      <trkpt lat="41.92043" lon="1.1911933">
        <time>2022-07-08T10:23:35Z</time>
      </trkpt>
      <trkpt lat="41.92047" lon="1.1912407">
        <time>2022-07-08T10:23:36Z</time>
      </trkpt>
      <trkpt lat="41.92051" lon="1.1912887">
        <time>2022-07-08T10:23:37Z</time>
      </trkpt>
      <trkpt lat="41.920547" lon="1.191336">
        <time>2022-07-08T10:23:38Z</time>
      </trkpt>
      <trkpt lat="41.92059" lon="1.1913837">
        <time>2022-07-08T10:23:39Z</time>
      </trkpt>
      <trkpt lat="41.920628" lon="1.1914316">
        <time>2022-07-08T10:23:40Z</time>
      </trkpt>
      <trkpt lat="41.92067" lon="1.1914797">
        <time>2022-07-08T10:23:41Z</time>
      </trkpt>
      <trkpt lat="41.920708" lon="1.1915277">
        <time>2022-07-08T10:23:42Z</time>
      </trkpt>
      <trkpt lat="41.920784" lon="1.1916224">
        <time>2022-07-08T10:23:44Z</time>
      </trkpt>
      <trkpt lat="41.920822" lon="1.191669">
        <time>2022-07-08T10:23:45Z</time>
      </trkpt>
      <trkpt lat="41.92086" lon="1.1917157">
        <time>2022-07-08T10:23:46Z</time>
      </trkpt>
      <trkpt lat="41.9209" lon="1.191762">
        <time>2022-07-08T10:23:47Z</time>
      </trkpt>
      <trkpt lat="41.920975" lon="1.1918527">
        <time>2022-07-08T10:23:49Z</time>
      </trkpt>
      <trkpt lat="41.921043" lon="1.1919394">
        <time>2022-07-08T10:23:51Z</time>
      </trkpt>
      <trkpt lat="41.92112" lon="1.1920273">
        <time>2022-07-08T10:23:53Z</time>
      </trkpt>
      <trkpt lat="41.921158" lon="1.1920706">
        <time>2022-07-08T10:23:54Z</time>
      </trkpt>
      <trkpt lat="41.921192" lon="1.1921127">
        <time>2022-07-08T10:23:55Z</time>
      </trkpt>
      <trkpt lat="41.92126" lon="1.192189">
        <time>2022-07-08T10:23:57Z</time>
      </trkpt>
      <trkpt lat="41.921337" lon="1.1922656">
        <time>2022-07-08T10:23:59Z</time>
      </trkpt>
      <trkpt lat="41.92138" lon="1.1922992">
        <time>2022-07-08T10:24:00Z</time>
      </trkpt>
      <trkpt lat="41.921455" lon="1.1923583">
        <time>2022-07-08T10:24:02Z</time>
      </trkpt>
      <trkpt lat="41.921535" lon="1.1924076">
        <time>2022-07-08T10:24:04Z</time>
      </trkpt>
      <trkpt lat="41.92162" lon="1.1924486">
        <time>2022-07-08T10:24:06Z</time>
      </trkpt>
      <trkpt lat="41.921696" lon="1.1924759">
        <time>2022-07-08T10:24:08Z</time>
      </trkpt>
      <trkpt lat="41.921783" lon="1.1924963">
        <time>2022-07-08T10:24:10Z</time>
      </trkpt>
      <trkpt lat="41.921867" lon="1.1925149">
        <time>2022-07-08T10:24:12Z</time>
      </trkpt>
      <trkpt lat="41.92195" lon="1.1925446">
        <time>2022-07-08T10:24:14Z</time>
      </trkpt>
      <trkpt lat="41.922024" lon="1.1925976">
        <time>2022-07-08T10:24:16Z</time>
      </trkpt>
      <trkpt lat="41.922085" lon="1.192668">
        <time>2022-07-08T10:24:18Z</time>
      </trkpt>
      <trkpt lat="41.922142" lon="1.192748">
        <time>2022-07-08T10:24:20Z</time>
      </trkpt>
      <trkpt lat="41.9222" lon="1.1928263">
        <time>2022-07-08T10:24:22Z</time>
      </trkpt>
      <trkpt lat="41.92226" lon="1.192892">
        <time>2022-07-08T10:24:24Z</time>
      </trkpt>
      <trkpt lat="41.922325" lon="1.1929566">
        <time>2022-07-08T10:24:26Z</time>
      </trkpt>
      <trkpt lat="41.92239" lon="1.1930246">
        <time>2022-07-08T10:24:28Z</time>
      </trkpt>
      <trkpt lat="41.922447" lon="1.1930996">
        <time>2022-07-08T10:24:30Z</time>
      </trkpt>
      <trkpt lat="41.922504" lon="1.1931785">
        <time>2022-07-08T10:24:32Z</time>
      </trkpt>
      <trkpt lat="41.922558" lon="1.1932529">
        <time>2022-07-08T10:24:34Z</time>
      </trkpt>
      <trkpt lat="41.92261" lon="1.1933283">
        <time>2022-07-08T10:24:36Z</time>
      </trkpt>
      <trkpt lat="41.92266" lon="1.1934003">
        <time>2022-07-08T10:24:38Z</time>
      </trkpt>
      <trkpt lat="41.922718" lon="1.1934695">
        <time>2022-07-08T10:24:40Z</time>
      </trkpt>
      <trkpt lat="41.92277" lon="1.1935396">
        <time>2022-07-08T10:24:42Z</time>
      </trkpt>
      <trkpt lat="41.92283" lon="1.1936105">
        <time>2022-07-08T10:24:44Z</time>
      </trkpt>
      <trkpt lat="41.922882" lon="1.1936786">
        <time>2022-07-08T10:24:46Z</time>
      </trkpt>
      <trkpt lat="41.922928" lon="1.1937436">
        <time>2022-07-08T10:24:48Z</time>
      </trkpt>
      <trkpt lat="41.922974" lon="1.1938046">
        <time>2022-07-08T10:24:50Z</time>
      </trkpt>
      <trkpt lat="41.923016" lon="1.1938609">
        <time>2022-07-08T10:24:52Z</time>
      </trkpt>
      <trkpt lat="41.92305" lon="1.1939126">
        <time>2022-07-08T10:24:54Z</time>
      </trkpt>
      <trkpt lat="41.923088" lon="1.1939616">
        <time>2022-07-08T10:24:56Z</time>
      </trkpt>
      <trkpt lat="41.92314" lon="1.1940349">
        <time>2022-07-08T10:24:59Z</time>
      </trkpt>
      <trkpt lat="41.923172" lon="1.1940826">
        <time>2022-07-08T10:25:01Z</time>
      </trkpt>
      <trkpt lat="41.92321" lon="1.1941532">
        <time>2022-07-08T10:25:04Z</time>
      </trkpt>
      <trkpt lat="41.92325" lon="1.1942259">
        <time>2022-07-08T10:25:07Z</time>
      </trkpt>
      <trkpt lat="41.923283" lon="1.1942939">
        <time>2022-07-08T10:25:10Z</time>
      </trkpt>
      <trkpt lat="41.923317" lon="1.1943622">
        <time>2022-07-08T10:25:13Z</time>
      </trkpt>
      <trkpt lat="41.92336" lon="1.1944516">
        <time>2022-07-08T10:25:17Z</time>
      </trkpt>
      <trkpt lat="41.923386" lon="1.1945158">
        <time>2022-07-08T10:25:20Z</time>
      </trkpt>
      <trkpt lat="41.9234" lon="1.1945622">
        <time>2022-07-08T10:25:25Z</time>
      </trkpt>
      <trkpt lat="41.923428" lon="1.1946375">
        <time>2022-07-08T10:26:19Z</time>
      </trkpt>
      <trkpt lat="41.923462" lon="1.1947086">
        <time>2022-07-08T10:26:22Z</time>
      </trkpt>
      <trkpt lat="41.92349" lon="1.1947836">
        <time>2022-07-08T10:26:25Z</time>
      </trkpt>
      <trkpt lat="41.923515" lon="1.1948602">
        <time>2022-07-08T10:26:28Z</time>
      </trkpt>
      <trkpt lat="41.923546" lon="1.1949348">
        <time>2022-07-08T10:26:31Z</time>
      </trkpt>
      <trkpt lat="41.923573" lon="1.1950122">
        <time>2022-07-08T10:26:34Z</time>
      </trkpt>
      <trkpt lat="41.9236" lon="1.1950905">
        <time>2022-07-08T10:26:37Z</time>
      </trkpt>
      <trkpt lat="41.923622" lon="1.1951685">
        <time>2022-07-08T10:26:40Z</time>
      </trkpt>
      <trkpt lat="41.92365" lon="1.1952481">
        <time>2022-07-08T10:26:43Z</time>
      </trkpt>
      <trkpt lat="41.923668" lon="1.1953285">
        <time>2022-07-08T10:26:46Z</time>
      </trkpt>
      <trkpt lat="41.923687" lon="1.1954114">
        <time>2022-07-08T10:26:49Z</time>
      </trkpt>
      <trkpt lat="41.92371" lon="1.1954945">
        <time>2022-07-08T10:26:52Z</time>
      </trkpt>
      <trkpt lat="41.92373" lon="1.1955734">
        <time>2022-07-08T10:26:55Z</time>
      </trkpt>
      <trkpt lat="41.923744" lon="1.1956558">
        <time>2022-07-08T10:26:58Z</time>
      </trkpt>
      <trkpt lat="41.92376" lon="1.1957341">
        <time>2022-07-08T10:27:01Z</time>
      </trkpt>
      <trkpt lat="41.923775" lon="1.1958178">
        <time>2022-07-08T10:27:04Z</time>
      </trkpt>
      <trkpt lat="41.92379" lon="1.1958975">
        <time>2022-07-08T10:27:07Z</time>
      </trkpt>
      <trkpt lat="41.9238" lon="1.1959791">
        <time>2022-07-08T10:27:10Z</time>
      </trkpt>
      <trkpt lat="41.923813" lon="1.1960582">
        <time>2022-07-08T10:27:13Z</time>
      </trkpt>
      <trkpt lat="41.923817" lon="1.1961374">
        <time>2022-07-08T10:27:16Z</time>
      </trkpt>
      <trkpt lat="41.923824" lon="1.1962488">
        <time>2022-07-08T10:27:20Z</time>
      </trkpt>
      <trkpt lat="41.923832" lon="1.1963295">
        <time>2022-07-08T10:27:23Z</time>
      </trkpt>
      <trkpt lat="41.92384" lon="1.1964121">
        <time>2022-07-08T10:27:26Z</time>
      </trkpt>
      <trkpt lat="41.923843" lon="1.1964911">
        <time>2022-07-08T10:27:29Z</time>
      </trkpt>
      <trkpt lat="41.923847" lon="1.1965718">
        <time>2022-07-08T10:27:32Z</time>
      </trkpt>
      <trkpt lat="41.923847" lon="1.1966511">
        <time>2022-07-08T10:27:35Z</time>
      </trkpt>
      <trkpt lat="41.923843" lon="1.1967291">
        <time>2022-07-08T10:27:38Z</time>
      </trkpt>
      <trkpt lat="41.923843" lon="1.1968068">
        <time>2022-07-08T10:27:41Z</time>
      </trkpt>
      <trkpt lat="41.92384" lon="1.1968861">
        <time>2022-07-08T10:27:44Z</time>
      </trkpt>
      <trkpt lat="41.923836" lon="1.1969614">
        <time>2022-07-08T10:27:47Z</time>
      </trkpt>
      <trkpt lat="41.92383" lon="1.1970388">
        <time>2022-07-08T10:27:50Z</time>
      </trkpt>
      <trkpt lat="41.92382" lon="1.1971197">
        <time>2022-07-08T10:27:53Z</time>
      </trkpt>
      <trkpt lat="41.92381" lon="1.197198">
        <time>2022-07-08T10:27:56Z</time>
      </trkpt>
      <trkpt lat="41.923794" lon="1.1972771">
        <time>2022-07-08T10:27:59Z</time>
      </trkpt>
      <trkpt lat="41.923782" lon="1.1973554">
        <time>2022-07-08T10:28:02Z</time>
      </trkpt>
      <trkpt lat="41.92377" lon="1.197435">
        <time>2022-07-08T10:28:05Z</time>
      </trkpt>
      <trkpt lat="41.92375" lon="1.1975124">
        <time>2022-07-08T10:28:08Z</time>
      </trkpt>
      <trkpt lat="41.923733" lon="1.197586">
        <time>2022-07-08T10:28:11Z</time>
      </trkpt>
      <trkpt lat="41.923714" lon="1.1976614">
        <time>2022-07-08T10:28:14Z</time>
      </trkpt>
      <trkpt lat="41.92369" lon="1.1977547">
        <time>2022-07-08T10:28:18Z</time>
      </trkpt>
      <trkpt lat="41.923656" lon="1.1978644">
        <time>2022-07-08T10:28:22Z</time>
      </trkpt>
      <trkpt lat="41.923637" lon="1.1979394">
        <time>2022-07-08T10:28:25Z</time>
      </trkpt>
      <trkpt lat="41.923615" lon="1.1980107">
        <time>2022-07-08T10:28:28Z</time>
      </trkpt>
      <trkpt lat="41.923588" lon="1.1980814">
        <time>2022-07-08T10:28:31Z</time>
      </trkpt>
      <trkpt lat="41.92356" lon="1.1981467">
        <time>2022-07-08T10:28:34Z</time>
      </trkpt>
      <trkpt lat="41.92353" lon="1.1982144">
        <time>2022-07-08T10:28:37Z</time>
      </trkpt>
      <trkpt lat="41.923496" lon="1.1982816">
        <time>2022-07-08T10:28:40Z</time>
      </trkpt>
      <trkpt lat="41.92346" lon="1.198343">
        <time>2022-07-08T10:28:43Z</time>
      </trkpt>
      <trkpt lat="41.923424" lon="1.1984057">
        <time>2022-07-08T10:28:46Z</time>
      </trkpt>
      <trkpt lat="41.923393" lon="1.198469">
        <time>2022-07-08T10:28:49Z</time>
      </trkpt>
      <trkpt lat="41.923363" lon="1.198531">
        <time>2022-07-08T10:28:52Z</time>
      </trkpt>
      <trkpt lat="41.923325" lon="1.1985923">
        <time>2022-07-08T10:28:55Z</time>
      </trkpt>
      <trkpt lat="41.923286" lon="1.1986513">
        <time>2022-07-08T10:28:58Z</time>
      </trkpt>
      <trkpt lat="41.92325" lon="1.1987103">
        <time>2022-07-08T10:29:01Z</time>
      </trkpt>
      <trkpt lat="41.923206" lon="1.1987643">
        <time>2022-07-08T10:29:04Z</time>
      </trkpt>
      <trkpt lat="41.923164" lon="1.198827">
        <time>2022-07-08T10:29:07Z</time>
      </trkpt>
      <trkpt lat="41.923126" lon="1.1988844">
        <time>2022-07-08T10:29:10Z</time>
      </trkpt>
      <trkpt lat="41.923084" lon="1.1989367">
        <time>2022-07-08T10:29:13Z</time>
      </trkpt>
      <trkpt lat="41.923042" lon="1.1989907">
        <time>2022-07-08T10:29:16Z</time>
      </trkpt>
      <trkpt lat="41.923" lon="1.1990477">
        <time>2022-07-08T10:29:19Z</time>
      </trkpt>
      <trkpt lat="41.92295" lon="1.199103">
        <time>2022-07-08T10:29:22Z</time>
      </trkpt>
      <trkpt lat="41.922916" lon="1.1991513">
        <time>2022-07-08T10:29:25Z</time>
      </trkpt>
      <trkpt lat="41.92286" lon="1.199234">
        <time>2022-07-08T10:29:29Z</time>
      </trkpt>
      <trkpt lat="41.922817" lon="1.1992913">
        <time>2022-07-08T10:29:32Z</time>
      </trkpt>
      <trkpt lat="41.92278" lon="1.199346">
        <time>2022-07-08T10:29:35Z</time>
      </trkpt>
      <trkpt lat="41.92274" lon="1.1994016">
        <time>2022-07-08T10:29:38Z</time>
      </trkpt>
      <trkpt lat="41.922703" lon="1.1994606">
        <time>2022-07-08T10:29:41Z</time>
      </trkpt>
      <trkpt lat="41.92266" lon="1.1995213">
        <time>2022-07-08T10:29:44Z</time>
      </trkpt>
      <trkpt lat="41.922615" lon="1.1995783">
        <time>2022-07-08T10:29:47Z</time>
      </trkpt>
      <trkpt lat="41.922573" lon="1.1996366">
        <time>2022-07-08T10:29:50Z</time>
      </trkpt>
      <trkpt lat="41.922535" lon="1.1997017">
        <time>2022-07-08T10:29:53Z</time>
      </trkpt>
      <trkpt lat="41.922497" lon="1.199768">
        <time>2022-07-08T10:29:56Z</time>
      </trkpt>
      <trkpt lat="41.922462" lon="1.1998333">
        <time>2022-07-08T10:29:59Z</time>
      </trkpt>
      <trkpt lat="41.922424" lon="1.1998999">
        <time>2022-07-08T10:30:02Z</time>
      </trkpt>
      <trkpt lat="41.92239" lon="1.1999689">
        <time>2022-07-08T10:30:05Z</time>
      </trkpt>
      <trkpt lat="41.922356" lon="1.2000393">
        <time>2022-07-08T10:30:08Z</time>
      </trkpt>
      <trkpt lat="41.92232" lon="1.2001109">
        <time>2022-07-08T10:30:11Z</time>
      </trkpt>
      <trkpt lat="41.92229" lon="1.2001809">
        <time>2022-07-08T10:30:14Z</time>
      </trkpt>
      <trkpt lat="41.92226" lon="1.2002512">
        <time>2022-07-08T10:30:17Z</time>
      </trkpt>
      <trkpt lat="41.92223" lon="1.2003202">
        <time>2022-07-08T10:30:20Z</time>
      </trkpt>
      <trkpt lat="41.922207" lon="1.2003896">
        <time>2022-07-08T10:30:23Z</time>
      </trkpt>
      <trkpt lat="41.922184" lon="1.200468">
        <time>2022-07-08T10:30:26Z</time>
      </trkpt>
      <trkpt lat="41.922165" lon="1.2005483">
        <time>2022-07-08T10:30:29Z</time>
      </trkpt>
      <trkpt lat="41.922142" lon="1.200625">
        <time>2022-07-08T10:30:32Z</time>
      </trkpt>
      <trkpt lat="41.922127" lon="1.2007053">
        <time>2022-07-08T10:30:35Z</time>
      </trkpt>
      <trkpt lat="41.92211" lon="1.2007823">
        <time>2022-07-08T10:30:38Z</time>
      </trkpt>
      <trkpt lat="41.922096" lon="1.2008579">
        <time>2022-07-08T10:30:41Z</time>
      </trkpt>
      <trkpt lat="41.922085" lon="1.2009329">
        <time>2022-07-08T10:30:44Z</time>
      </trkpt>
      <trkpt lat="41.92207" lon="1.2010082">
        <time>2022-07-08T10:30:47Z</time>
      </trkpt>
      <trkpt lat="41.92206" lon="1.201088">
        <time>2022-07-08T10:30:50Z</time>
      </trkpt>
      <trkpt lat="41.92205" lon="1.201168">
        <time>2022-07-08T10:30:53Z</time>
      </trkpt>
      <trkpt lat="41.92204" lon="1.20125">
        <time>2022-07-08T10:30:56Z</time>
      </trkpt>
      <trkpt lat="41.922035" lon="1.2013285">
        <time>2022-07-08T10:30:59Z</time>
      </trkpt>
      <trkpt lat="41.922035" lon="1.2014083">
        <time>2022-07-08T10:31:02Z</time>
      </trkpt>
      <trkpt lat="41.92203" lon="1.2014872">
        <time>2022-07-08T10:31:05Z</time>
      </trkpt>
      <trkpt lat="41.922028" lon="1.2015642">
        <time>2022-07-08T10:31:08Z</time>
      </trkpt>
      <trkpt lat="41.922028" lon="1.2016412">
        <time>2022-07-08T10:31:11Z</time>
      </trkpt>
      <trkpt lat="41.922028" lon="1.2017225">
        <time>2022-07-08T10:31:14Z</time>
      </trkpt>
      <trkpt lat="41.92203" lon="1.2018006">
        <time>2022-07-08T10:31:17Z</time>
      </trkpt>
      <trkpt lat="41.92204" lon="1.2018828">
        <time>2022-07-08T10:31:20Z</time>
      </trkpt>
      <trkpt lat="41.92204" lon="1.2019652">
        <time>2022-07-08T10:31:23Z</time>
      </trkpt>
      <trkpt lat="41.922043" lon="1.2020478">
        <time>2022-07-08T10:31:26Z</time>
      </trkpt>
      <trkpt lat="41.922047" lon="1.2021309">
        <time>2022-07-08T10:31:29Z</time>
      </trkpt>
      <trkpt lat="41.922054" lon="1.2022076">
        <time>2022-07-08T10:31:32Z</time>
      </trkpt>
      <trkpt lat="41.922062" lon="1.2022859">
        <time>2022-07-08T10:31:35Z</time>
      </trkpt>
      <trkpt lat="41.922073" lon="1.2023659">
        <time>2022-07-08T10:31:38Z</time>
      </trkpt>
      <trkpt lat="41.922077" lon="1.2024435">
        <time>2022-07-08T10:31:41Z</time>
      </trkpt>
      <trkpt lat="41.92208" lon="1.2025216">
        <time>2022-07-08T10:31:44Z</time>
      </trkpt>
      <trkpt lat="41.92209" lon="1.2026038">
        <time>2022-07-08T10:31:47Z</time>
      </trkpt>
      <trkpt lat="41.922096" lon="1.2026819">
        <time>2022-07-08T10:31:50Z</time>
      </trkpt>
      <trkpt lat="41.9221" lon="1.2027599">
        <time>2022-07-08T10:31:53Z</time>
      </trkpt>
      <trkpt lat="41.922108" lon="1.2028415">
        <time>2022-07-08T10:31:56Z</time>
      </trkpt>
      <trkpt lat="41.922115" lon="1.2029241">
        <time>2022-07-08T10:31:59Z</time>
      </trkpt>
      <trkpt lat="41.92212" lon="1.2030041">
        <time>2022-07-08T10:32:02Z</time>
      </trkpt>
      <trkpt lat="41.922123" lon="1.2030811">
        <time>2022-07-08T10:32:05Z</time>
      </trkpt>
      <trkpt lat="41.922123" lon="1.2031626">
        <time>2022-07-08T10:32:08Z</time>
      </trkpt>
      <trkpt lat="41.922123" lon="1.2032411">
        <time>2022-07-08T10:32:11Z</time>
      </trkpt>
      <trkpt lat="41.922115" lon="1.2033222">
        <time>2022-07-08T10:32:14Z</time>
      </trkpt>
      <trkpt lat="41.92211" lon="1.2034059">
        <time>2022-07-08T10:32:17Z</time>
      </trkpt>
      <trkpt lat="41.92211" lon="1.2034879">
        <time>2022-07-08T10:32:20Z</time>
      </trkpt>
      <trkpt lat="41.922104" lon="1.2035675">
        <time>2022-07-08T10:32:23Z</time>
      </trkpt>
      <trkpt lat="41.9221" lon="1.2036475">
        <time>2022-07-08T10:32:26Z</time>
      </trkpt>
      <trkpt lat="41.922085" lon="1.2037245">
        <time>2022-07-08T10:32:29Z</time>
      </trkpt>
      <trkpt lat="41.922077" lon="1.2038012">
        <time>2022-07-08T10:32:32Z</time>
      </trkpt>
      <trkpt lat="41.92207" lon="1.2038841">
        <time>2022-07-08T10:32:35Z</time>
      </trkpt>
      <trkpt lat="41.92206" lon="1.2039624">
        <time>2022-07-08T10:32:38Z</time>
      </trkpt>
      <trkpt lat="41.922043" lon="1.2040435">
        <time>2022-07-08T10:32:41Z</time>
      </trkpt>
      <trkpt lat="41.922024" lon="1.2041194">
        <time>2022-07-08T10:32:44Z</time>
      </trkpt>
      <trkpt lat="41.92201" lon="1.2041948">
        <time>2022-07-08T10:32:47Z</time>
      </trkpt>
      <trkpt lat="41.921993" lon="1.2042731">
        <time>2022-07-08T10:32:50Z</time>
      </trkpt>
      <trkpt lat="41.92197" lon="1.2043548">
        <time>2022-07-08T10:32:53Z</time>
      </trkpt>
      <trkpt lat="41.921944" lon="1.2044328">
        <time>2022-07-08T10:32:56Z</time>
      </trkpt>
      <trkpt lat="41.921925" lon="1.2045081">
        <time>2022-07-08T10:32:59Z</time>
      </trkpt>
      <trkpt lat="41.921906" lon="1.2045811">
        <time>2022-07-08T10:33:02Z</time>
      </trkpt>
      <trkpt lat="41.92188" lon="1.2046541">
        <time>2022-07-08T10:33:05Z</time>
      </trkpt>
      <trkpt lat="41.921852" lon="1.2047244">
        <time>2022-07-08T10:33:08Z</time>
      </trkpt>
      <trkpt lat="41.92182" lon="1.2047951">
        <time>2022-07-08T10:33:11Z</time>
      </trkpt>
      <trkpt lat="41.92179" lon="1.2048638">
        <time>2022-07-08T10:33:14Z</time>
      </trkpt>
      <trkpt lat="41.92176" lon="1.2049314">
        <time>2022-07-08T10:33:17Z</time>
      </trkpt>
      <trkpt lat="41.921734" lon="1.2049958">
        <time>2022-07-08T10:33:20Z</time>
      </trkpt>
      <trkpt lat="41.921703" lon="1.2050611">
        <time>2022-07-08T10:33:23Z</time>
      </trkpt>
      <trkpt lat="41.92167" lon="1.2051251">
        <time>2022-07-08T10:33:26Z</time>
      </trkpt>
      <trkpt lat="41.921635" lon="1.205188">
        <time>2022-07-08T10:33:29Z</time>
      </trkpt>
      <trkpt lat="41.921597" lon="1.2052515">
        <time>2022-07-08T10:33:32Z</time>
      </trkpt>
      <trkpt lat="41.92156" lon="1.2053161">
        <time>2022-07-08T10:33:35Z</time>
      </trkpt>
      <trkpt lat="41.92152" lon="1.2053814">
        <time>2022-07-08T10:33:38Z</time>
      </trkpt>
      <trkpt lat="41.921486" lon="1.2054421">
        <time>2022-07-08T10:33:41Z</time>
      </trkpt>
      <trkpt lat="41.92145" lon="1.2055007">
        <time>2022-07-08T10:33:44Z</time>
      </trkpt>
      <trkpt lat="41.921413" lon="1.2055571">
        <time>2022-07-08T10:33:47Z</time>
      </trkpt>
      <trkpt lat="41.92137" lon="1.2056104">
        <time>2022-07-08T10:33:50Z</time>
      </trkpt>
      <trkpt lat="41.921326" lon="1.2056624">
        <time>2022-07-08T10:33:53Z</time>
      </trkpt>
      <trkpt lat="41.921284" lon="1.2057151">
        <time>2022-07-08T10:33:56Z</time>
      </trkpt>
      <trkpt lat="41.921238" lon="1.2057654">
        <time>2022-07-08T10:33:59Z</time>
      </trkpt>
      <trkpt lat="41.921196" lon="1.205817">
        <time>2022-07-08T10:34:02Z</time>
      </trkpt>
      <trkpt lat="41.921154" lon="1.2058707">
        <time>2022-07-08T10:34:05Z</time>
      </trkpt>
      <trkpt lat="41.921112" lon="1.2059237">
        <time>2022-07-08T10:34:08Z</time>
      </trkpt>
      <trkpt lat="41.92107" lon="1.2059727">
        <time>2022-07-08T10:34:11Z</time>
      </trkpt>
      <trkpt lat="41.921024" lon="1.2060233">
        <time>2022-07-08T10:34:14Z</time>
      </trkpt>
      <trkpt lat="41.920975" lon="1.2060686">
        <time>2022-07-08T10:34:17Z</time>
      </trkpt>
      <trkpt lat="41.92093" lon="1.2061117">
        <time>2022-07-08T10:34:20Z</time>
      </trkpt>
      <trkpt lat="41.92088" lon="1.2061584">
        <time>2022-07-08T10:34:23Z</time>
      </trkpt>
      <trkpt lat="41.92083" lon="1.206202">
        <time>2022-07-08T10:34:26Z</time>
      </trkpt>
      <trkpt lat="41.92078" lon="1.206241">
        <time>2022-07-08T10:34:29Z</time>
      </trkpt>
      <trkpt lat="41.92073" lon="1.2062777">
        <time>2022-07-08T10:34:32Z</time>
      </trkpt>
      <trkpt lat="41.920673" lon="1.206311">
        <time>2022-07-08T10:34:35Z</time>
      </trkpt>
      <trkpt lat="41.92062" lon="1.2063453">
        <time>2022-07-08T10:34:38Z</time>
      </trkpt>
      <trkpt lat="41.920563" lon="1.2063789">
        <time>2022-07-08T10:34:41Z</time>
      </trkpt>
      <trkpt lat="41.92051" lon="1.2064114">
        <time>2022-07-08T10:34:44Z</time>
      </trkpt>
      <trkpt lat="41.92045" lon="1.2064457">
        <time>2022-07-08T10:34:47Z</time>
      </trkpt>
      <trkpt lat="41.92039" lon="1.2064753">
        <time>2022-07-08T10:34:50Z</time>
      </trkpt>
      <trkpt lat="41.920334" lon="1.206502">
        <time>2022-07-08T10:34:53Z</time>
      </trkpt>
      <trkpt lat="41.920273" lon="1.206532">
        <time>2022-07-08T10:34:56Z</time>
      </trkpt>
      <trkpt lat="41.92021" lon="1.2065663">
        <time>2022-07-08T10:34:59Z</time>
      </trkpt>
      <trkpt lat="41.920155" lon="1.2065996">
        <time>2022-07-08T10:35:02Z</time>
      </trkpt>
      <trkpt lat="41.920097" lon="1.2066306">
        <time>2022-07-08T10:35:05Z</time>
      </trkpt>
      <trkpt lat="41.920036" lon="1.2066619">
        <time>2022-07-08T10:35:08Z</time>
      </trkpt>
      <trkpt lat="41.91997" lon="1.2066909">
        <time>2022-07-08T10:35:11Z</time>
      </trkpt>
      <trkpt lat="41.919914" lon="1.2067252">
        <time>2022-07-08T10:35:14Z</time>
      </trkpt>
      <trkpt lat="41.919857" lon="1.206759">
        <time>2022-07-08T10:35:17Z</time>
      </trkpt>
      <trkpt lat="41.919796" lon="1.2067926">
        <time>2022-07-08T10:35:20Z</time>
      </trkpt>
      <trkpt lat="41.919735" lon="1.206828">
        <time>2022-07-08T10:35:23Z</time>
      </trkpt>
      <trkpt lat="41.91968" lon="1.2068646">
        <time>2022-07-08T10:35:26Z</time>
      </trkpt>
      <trkpt lat="41.919624" lon="1.2069019">
        <time>2022-07-08T10:35:29Z</time>
      </trkpt>
      <trkpt lat="41.91957" lon="1.2069399">
        <time>2022-07-08T10:35:32Z</time>
      </trkpt>
      <trkpt lat="41.91951" lon="1.2069763">
        <time>2022-07-08T10:35:35Z</time>
      </trkpt>
      <trkpt lat="41.919453" lon="1.2070146">
        <time>2022-07-08T10:35:38Z</time>
      </trkpt>
      <trkpt lat="41.919395" lon="1.207055">
        <time>2022-07-08T10:35:41Z</time>
      </trkpt>
      <trkpt lat="41.919342" lon="1.2070946">
        <time>2022-07-08T10:35:44Z</time>
      </trkpt>
      <trkpt lat="41.919292" lon="1.2071389">
        <time>2022-07-08T10:35:47Z</time>
      </trkpt>
      <trkpt lat="41.91924" lon="1.2071873">
        <time>2022-07-08T10:35:50Z</time>
      </trkpt>
      <trkpt lat="41.919193" lon="1.2072326">
        <time>2022-07-08T10:35:53Z</time>
      </trkpt>
      <trkpt lat="41.919144" lon="1.2072816">
        <time>2022-07-08T10:35:56Z</time>
      </trkpt>
      <trkpt lat="41.919098" lon="1.2073362">
        <time>2022-07-08T10:35:59Z</time>
      </trkpt>
      <trkpt lat="41.919052" lon="1.2073898">
        <time>2022-07-08T10:36:02Z</time>
      </trkpt>
      <trkpt lat="41.919006" lon="1.2074419">
        <time>2022-07-08T10:36:05Z</time>
      </trkpt>
      <trkpt lat="41.918957" lon="1.2074972">
        <time>2022-07-08T10:36:08Z</time>
      </trkpt>
      <trkpt lat="41.918907" lon="1.2075526">
        <time>2022-07-08T10:36:11Z</time>
      </trkpt>
      <trkpt lat="41.91886" lon="1.2076056">
        <time>2022-07-08T10:36:14Z</time>
      </trkpt>
      <trkpt lat="41.918816" lon="1.2076606">
        <time>2022-07-08T10:36:17Z</time>
      </trkpt>
      <trkpt lat="41.91877" lon="1.2077188">
        <time>2022-07-08T10:36:20Z</time>
      </trkpt>
      <trkpt lat="41.91873" lon="1.2077762">
        <time>2022-07-08T10:36:23Z</time>
      </trkpt>
      <trkpt lat="41.918682" lon="1.2078356">
        <time>2022-07-08T10:36:26Z</time>
      </trkpt>
      <trkpt lat="41.91864" lon="1.2078996">
        <time>2022-07-08T10:36:29Z</time>
      </trkpt>
      <trkpt lat="41.918594" lon="1.2079619">
        <time>2022-07-08T10:36:32Z</time>
      </trkpt>
      <trkpt lat="41.918556" lon="1.2080272">
        <time>2022-07-08T10:36:35Z</time>
      </trkpt>
      <trkpt lat="41.918514" lon="1.2080928">
        <time>2022-07-08T10:36:38Z</time>
      </trkpt>
      <trkpt lat="41.918472" lon="1.2081648">
        <time>2022-07-08T10:36:41Z</time>
      </trkpt>
      <trkpt lat="41.918446" lon="1.2082129">
        <time>2022-07-08T10:36:43Z</time>
      </trkpt>
      <trkpt lat="41.918407" lon="1.2082865">
        <time>2022-07-08T10:36:46Z</time>
      </trkpt>
      <trkpt lat="41.91837" lon="1.2083608">
        <time>2022-07-08T10:36:49Z</time>
      </trkpt>
      <trkpt lat="41.918335" lon="1.2084352">
        <time>2022-07-08T10:36:52Z</time>
      </trkpt>
      <trkpt lat="41.9183" lon="1.2085131">
        <time>2022-07-08T10:36:55Z</time>
      </trkpt>
      <trkpt lat="41.91827" lon="1.2085888">
        <time>2022-07-08T10:36:58Z</time>
      </trkpt>
      <trkpt lat="41.91824" lon="1.2086449">
        <time>2022-07-08T10:37:00Z</time>
      </trkpt>
      <trkpt lat="41.918205" lon="1.2087308">
        <time>2022-07-08T10:37:03Z</time>
      </trkpt>
      <trkpt lat="41.918167" lon="1.2088221">
        <time>2022-07-08T10:37:06Z</time>
      </trkpt>
      <trkpt lat="41.918144" lon="1.2088891">
        <time>2022-07-08T10:37:08Z</time>
      </trkpt>
      <trkpt lat="41.918125" lon="1.2089622">
        <time>2022-07-08T10:37:10Z</time>
      </trkpt>
      <trkpt lat="41.918102" lon="1.2090389">
        <time>2022-07-08T10:37:12Z</time>
      </trkpt>
      <trkpt lat="41.918076" lon="1.2091238">
        <time>2022-07-08T10:37:14Z</time>
      </trkpt>
      <trkpt lat="41.91805" lon="1.2092142">
        <time>2022-07-08T10:37:16Z</time>
      </trkpt>
      <trkpt lat="41.918022" lon="1.2093048">
        <time>2022-07-08T10:37:18Z</time>
      </trkpt>
      <trkpt lat="41.917995" lon="1.2094022">
        <time>2022-07-08T10:37:20Z</time>
      </trkpt>
      <trkpt lat="41.91797" lon="1.2094961">
        <time>2022-07-08T10:37:22Z</time>
      </trkpt>
      <trkpt lat="41.917942" lon="1.2095948">
        <time>2022-07-08T10:37:24Z</time>
      </trkpt>
      <trkpt lat="41.917923" lon="1.2096978">
        <time>2022-07-08T10:37:26Z</time>
      </trkpt>
      <trkpt lat="41.9179" lon="1.2098031">
        <time>2022-07-08T10:37:28Z</time>
      </trkpt>
      <trkpt lat="41.91788" lon="1.2099118">
        <time>2022-07-08T10:37:30Z</time>
      </trkpt>
      <trkpt lat="41.91786" lon="1.2100228">
        <time>2022-07-08T10:37:32Z</time>
      </trkpt>
      <trkpt lat="41.91784" lon="1.2101358">
        <time>2022-07-08T10:37:34Z</time>
      </trkpt>
      <trkpt lat="41.917824" lon="1.2102501">
        <time>2022-07-08T10:37:36Z</time>
      </trkpt>
      <trkpt lat="41.917805" lon="1.2103704">
        <time>2022-07-08T10:37:38Z</time>
      </trkpt>
      <trkpt lat="41.91779" lon="1.2104977">
        <time>2022-07-08T10:37:40Z</time>
      </trkpt>
      <trkpt lat="41.91778" lon="1.2105571">
        <time>2022-07-08T10:37:41Z</time>
      </trkpt>
      <trkpt lat="41.917763" lon="1.2106807">
        <time>2022-07-08T10:37:43Z</time>
      </trkpt>
      <trkpt lat="41.917744" lon="1.2108071">
        <time>2022-07-08T10:37:45Z</time>
      </trkpt>
      <trkpt lat="41.917736" lon="1.2108718">
        <time>2022-07-08T10:37:46Z</time>
      </trkpt>
      <trkpt lat="41.917717" lon="1.2110021">
        <time>2022-07-08T10:37:48Z</time>
      </trkpt>
      <trkpt lat="41.9177" lon="1.2111307">
        <time>2022-07-08T10:37:50Z</time>
      </trkpt>
      <trkpt lat="41.917683" lon="1.2112608">
        <time>2022-07-08T10:37:52Z</time>
      </trkpt>
      <trkpt lat="41.917664" lon="1.2113898">
        <time>2022-07-08T10:37:54Z</time>
      </trkpt>
      <trkpt lat="41.917645" lon="1.2115188">
        <time>2022-07-08T10:37:56Z</time>
      </trkpt>
      <trkpt lat="41.917637" lon="1.2115834">
        <time>2022-07-08T10:37:57Z</time>
      </trkpt>
      <trkpt lat="41.917618" lon="1.2117138">
        <time>2022-07-08T10:37:59Z</time>
      </trkpt>
      <trkpt lat="41.9176" lon="1.2118467">
        <time>2022-07-08T10:38:01Z</time>
      </trkpt>
      <trkpt lat="41.91758" lon="1.2119805">
        <time>2022-07-08T10:38:03Z</time>
      </trkpt>
      <trkpt lat="41.91757" lon="1.2120471">
        <time>2022-07-08T10:38:04Z</time>
      </trkpt>
      <trkpt lat="41.917557" lon="1.2121137">
        <time>2022-07-08T10:38:05Z</time>
      </trkpt>
      <trkpt lat="41.917534" lon="1.2122481">
        <time>2022-07-08T10:38:07Z</time>
      </trkpt>
      <trkpt lat="41.917522" lon="1.212314">
        <time>2022-07-08T10:38:08Z</time>
      </trkpt>
      <trkpt lat="41.91751" lon="1.2124478">
        <time>2022-07-08T10:38:10Z</time>
      </trkpt>
      <trkpt lat="41.917492" lon="1.2125837">
        <time>2022-07-08T10:38:12Z</time>
      </trkpt>
      <trkpt lat="41.91748" lon="1.2126517">
        <time>2022-07-08T10:38:13Z</time>
      </trkpt>
      <trkpt lat="41.917473" lon="1.2127197">
        <time>2022-07-08T10:38:14Z</time>
      </trkpt>
      <trkpt lat="41.917454" lon="1.2128557">
        <time>2022-07-08T10:38:16Z</time>
      </trkpt>
      <trkpt lat="41.917442" lon="1.2129251">
        <time>2022-07-08T10:38:17Z</time>
      </trkpt>
      <trkpt lat="41.917435" lon="1.2129941">
        <time>2022-07-08T10:38:18Z</time>
      </trkpt>
      <trkpt lat="41.917416" lon="1.213134">
        <time>2022-07-08T10:38:20Z</time>
      </trkpt>
      <trkpt lat="41.917408" lon="1.2132027">
        <time>2022-07-08T10:38:21Z</time>
      </trkpt>
      <trkpt lat="41.917397" lon="1.2132714">
        <time>2022-07-08T10:38:22Z</time>
      </trkpt>
      <trkpt lat="41.91739" lon="1.2133408">
        <time>2022-07-08T10:38:23Z</time>
      </trkpt>
      <trkpt lat="41.91738" lon="1.2134093">
        <time>2022-07-08T10:38:24Z</time>
      </trkpt>
      <trkpt lat="41.917362" lon="1.2135473">
        <time>2022-07-08T10:38:26Z</time>
      </trkpt>
      <trkpt lat="41.917355" lon="1.2136167">
        <time>2022-07-08T10:38:27Z</time>
      </trkpt>
      <trkpt lat="41.917347" lon="1.2136863">
        <time>2022-07-08T10:38:28Z</time>
      </trkpt>
      <trkpt lat="41.91734" lon="1.2137563">
        <time>2022-07-08T10:38:29Z</time>
      </trkpt>
      <trkpt lat="41.917328" lon="1.2138267">
        <time>2022-07-08T10:38:30Z</time>
      </trkpt>
      <trkpt lat="41.91731" lon="1.2139664">
        <time>2022-07-08T10:38:32Z</time>
      </trkpt>
      <trkpt lat="41.9173" lon="1.2140354">
        <time>2022-07-08T10:38:33Z</time>
      </trkpt>
      <trkpt lat="41.917294" lon="1.214105">
        <time>2022-07-08T10:38:34Z</time>
      </trkpt>
      <trkpt lat="41.917282" lon="1.214175">
        <time>2022-07-08T10:38:35Z</time>
      </trkpt>
      <trkpt lat="41.917274" lon="1.214245">
        <time>2022-07-08T10:38:36Z</time>
      </trkpt>
      <trkpt lat="41.917263" lon="1.2143153">
        <time>2022-07-08T10:38:37Z</time>
      </trkpt>
      <trkpt lat="41.917255" lon="1.2143856">
        <time>2022-07-08T10:38:38Z</time>
      </trkpt>
      <trkpt lat="41.917244" lon="1.2144556">
        <time>2022-07-08T10:38:39Z</time>
      </trkpt>
      <trkpt lat="41.917233" lon="1.21453">
        <time>2022-07-08T10:38:40Z</time>
      </trkpt>
      <trkpt lat="41.917225" lon="1.214598">
        <time>2022-07-08T10:38:41Z</time>
      </trkpt>
      <trkpt lat="41.917217" lon="1.2146666">
        <time>2022-07-08T10:38:42Z</time>
      </trkpt>
      <trkpt lat="41.9172" lon="1.2148043">
        <time>2022-07-08T10:38:44Z</time>
      </trkpt>
      <trkpt lat="41.91719" lon="1.214873">
        <time>2022-07-08T10:38:45Z</time>
      </trkpt>
      <trkpt lat="41.91718" lon="1.2149466">
        <time>2022-07-08T10:38:46Z</time>
      </trkpt>
      <trkpt lat="41.91717" lon="1.2150133">
        <time>2022-07-08T10:38:47Z</time>
      </trkpt>
      <trkpt lat="41.917156" lon="1.2151533">
        <time>2022-07-08T10:38:49Z</time>
      </trkpt>
      <trkpt lat="41.91715" lon="1.2152233">
        <time>2022-07-08T10:38:50Z</time>
      </trkpt>
      <trkpt lat="41.91714" lon="1.2152886">
        <time>2022-07-08T10:38:51Z</time>
      </trkpt>
      <trkpt lat="41.917133" lon="1.2153553">
        <time>2022-07-08T10:38:52Z</time>
      </trkpt>
      <trkpt lat="41.917118" lon="1.215495">
        <time>2022-07-08T10:38:54Z</time>
      </trkpt>
      <trkpt lat="41.917114" lon="1.2155622">
        <time>2022-07-08T10:38:55Z</time>
      </trkpt>
      <trkpt lat="41.917103" lon="1.2156919">
        <time>2022-07-08T10:38:57Z</time>
      </trkpt>
      <trkpt lat="41.91709" lon="1.2158343">
        <time>2022-07-08T10:38:59Z</time>
      </trkpt>
      <trkpt lat="41.917088" lon="1.2159072">
        <time>2022-07-08T10:39:00Z</time>
      </trkpt>
      <trkpt lat="41.917084" lon="1.2159749">
        <time>2022-07-08T10:39:01Z</time>
      </trkpt>
      <trkpt lat="41.91708" lon="1.216044">
        <time>2022-07-08T10:39:02Z</time>
      </trkpt>
      <trkpt lat="41.917076" lon="1.2161189">
        <time>2022-07-08T10:39:03Z</time>
      </trkpt>
      <trkpt lat="41.917072" lon="1.2161876">
        <time>2022-07-08T10:39:04Z</time>
      </trkpt>
      <trkpt lat="41.917072" lon="1.2162619">
        <time>2022-07-08T10:39:05Z</time>
      </trkpt>
      <trkpt lat="41.91707" lon="1.2163992">
        <time>2022-07-08T10:39:07Z</time>
      </trkpt>
      <trkpt lat="41.91707" lon="1.2164693">
        <time>2022-07-08T10:39:08Z</time>
      </trkpt>
      <trkpt lat="41.91707" lon="1.2165439">
        <time>2022-07-08T10:39:09Z</time>
      </trkpt>
      <trkpt lat="41.91707" lon="1.2166169">
        <time>2022-07-08T10:39:10Z</time>
      </trkpt>
      <trkpt lat="41.91707" lon="1.2166946">
        <time>2022-07-08T10:39:11Z</time>
      </trkpt>
      <trkpt lat="41.917072" lon="1.2167702">
        <time>2022-07-08T10:39:12Z</time>
      </trkpt>
      <trkpt lat="41.917076" lon="1.2168409">
        <time>2022-07-08T10:39:13Z</time>
      </trkpt>
      <trkpt lat="41.91708" lon="1.2169119">
        <time>2022-07-08T10:39:14Z</time>
      </trkpt>
      <trkpt lat="41.917084" lon="1.2169828">
        <time>2022-07-08T10:39:15Z</time>
      </trkpt>
      <trkpt lat="41.917088" lon="1.2170552">
        <time>2022-07-08T10:39:16Z</time>
      </trkpt>
      <trkpt lat="41.917095" lon="1.2171279">
        <time>2022-07-08T10:39:17Z</time>
      </trkpt>
      <trkpt lat="41.917103" lon="1.2172005">
        <time>2022-07-08T10:39:18Z</time>
      </trkpt>
      <trkpt lat="41.91711" lon="1.2172718">
        <time>2022-07-08T10:39:19Z</time>
      </trkpt>
      <trkpt lat="41.917118" lon="1.2173479">
        <time>2022-07-08T10:39:20Z</time>
      </trkpt>
      <trkpt lat="41.917126" lon="1.2174172">
        <time>2022-07-08T10:39:21Z</time>
      </trkpt>
      <trkpt lat="41.917137" lon="1.2174869">
        <time>2022-07-08T10:39:22Z</time>
      </trkpt>
      <trkpt lat="41.917145" lon="1.2175568">
        <time>2022-07-08T10:39:23Z</time>
      </trkpt>
      <trkpt lat="41.917156" lon="1.2176268">
        <time>2022-07-08T10:39:24Z</time>
      </trkpt>
      <trkpt lat="41.917168" lon="1.2176969">
        <time>2022-07-08T10:39:25Z</time>
      </trkpt>
      <trkpt lat="41.91718" lon="1.2177665">
        <time>2022-07-08T10:39:26Z</time>
      </trkpt>
      <trkpt lat="41.917202" lon="1.2179085">
        <time>2022-07-08T10:39:28Z</time>
      </trkpt>
      <trkpt lat="41.917213" lon="1.2179722">
        <time>2022-07-08T10:39:29Z</time>
      </trkpt>
      <trkpt lat="41.917236" lon="1.2180939">
        <time>2022-07-08T10:39:31Z</time>
      </trkpt>
      <trkpt lat="41.91726" lon="1.2182182">
        <time>2022-07-08T10:39:33Z</time>
      </trkpt>
      <trkpt lat="41.91729" lon="1.2183398">
        <time>2022-07-08T10:39:35Z</time>
      </trkpt>
      <trkpt lat="41.917305" lon="1.2184001">
        <time>2022-07-08T10:39:36Z</time>
      </trkpt>
      <trkpt lat="41.91734" lon="1.2185258">
        <time>2022-07-08T10:39:38Z</time>
      </trkpt>
      <trkpt lat="41.91737" lon="1.2186441">
        <time>2022-07-08T10:39:40Z</time>
      </trkpt>
      <trkpt lat="41.917404" lon="1.2187601">
        <time>2022-07-08T10:39:42Z</time>
      </trkpt>
      <trkpt lat="41.917435" lon="1.2188728">
        <time>2022-07-08T10:39:44Z</time>
      </trkpt>
      <trkpt lat="41.917473" lon="1.2189804">
        <time>2022-07-08T10:39:46Z</time>
      </trkpt>
      <trkpt lat="41.917507" lon="1.2190808">
        <time>2022-07-08T10:39:48Z</time>
      </trkpt>
      <trkpt lat="41.91754" lon="1.2191784">
        <time>2022-07-08T10:39:50Z</time>
      </trkpt>
      <trkpt lat="41.91758" lon="1.2192708">
        <time>2022-07-08T10:39:52Z</time>
      </trkpt>
      <trkpt lat="41.91761" lon="1.2193601">
        <time>2022-07-08T10:39:54Z</time>
      </trkpt>
      <trkpt lat="41.91765" lon="1.2194527">
        <time>2022-07-08T10:39:56Z</time>
      </trkpt>
      <trkpt lat="41.917686" lon="1.2195438">
        <time>2022-07-08T10:39:58Z</time>
      </trkpt>
      <trkpt lat="41.91772" lon="1.2196344">
        <time>2022-07-08T10:40:00Z</time>
      </trkpt>
      <trkpt lat="41.91776" lon="1.2197244">
        <time>2022-07-08T10:40:02Z</time>
      </trkpt>
      <trkpt lat="41.917797" lon="1.2198101">
        <time>2022-07-08T10:40:04Z</time>
      </trkpt>
      <trkpt lat="41.91784" lon="1.2198977">
        <time>2022-07-08T10:40:06Z</time>
      </trkpt>
      <trkpt lat="41.91788" lon="1.2199854">
        <time>2022-07-08T10:40:08Z</time>
      </trkpt>
      <trkpt lat="41.917915" lon="1.220064">
        <time>2022-07-08T10:40:10Z</time>
      </trkpt>
      <trkpt lat="41.917953" lon="1.2201334">
        <time>2022-07-08T10:40:12Z</time>
      </trkpt>
      <trkpt lat="41.917988" lon="1.2201988">
        <time>2022-07-08T10:40:14Z</time>
      </trkpt>
      <trkpt lat="41.91802" lon="1.2202647">
        <time>2022-07-08T10:40:16Z</time>
      </trkpt>
      <trkpt lat="41.91805" lon="1.2203311">
        <time>2022-07-08T10:40:18Z</time>
      </trkpt>
      <trkpt lat="41.918076" lon="1.2203968">
        <time>2022-07-08T10:40:20Z</time>
      </trkpt>
      <trkpt lat="41.918102" lon="1.22046">
        <time>2022-07-08T10:40:22Z</time>
      </trkpt>
      <trkpt lat="41.918133" lon="1.2205207">
        <time>2022-07-08T10:40:24Z</time>
      </trkpt>
      <trkpt lat="41.91816" lon="1.220582">
        <time>2022-07-08T10:40:26Z</time>
      </trkpt>
      <trkpt lat="41.91819" lon="1.2206444">
        <time>2022-07-08T10:40:28Z</time>
      </trkpt>
      <trkpt lat="41.918217" lon="1.2207077">
        <time>2022-07-08T10:40:30Z</time>
      </trkpt>
      <trkpt lat="41.918247" lon="1.2207707">
        <time>2022-07-08T10:40:32Z</time>
      </trkpt>
      <trkpt lat="41.918278" lon="1.220834">
        <time>2022-07-08T10:40:34Z</time>
      </trkpt>
      <trkpt lat="41.918304" lon="1.2208977">
        <time>2022-07-08T10:40:36Z</time>
      </trkpt>
      <trkpt lat="41.91833" lon="1.22096">
        <time>2022-07-08T10:40:38Z</time>
      </trkpt>
      <trkpt lat="41.918358" lon="1.221024">
        <time>2022-07-08T10:40:40Z</time>
      </trkpt>
      <trkpt lat="41.918385" lon="1.221087">
        <time>2022-07-08T10:40:42Z</time>
      </trkpt>
      <trkpt lat="41.918415" lon="1.2211504">
        <time>2022-07-08T10:40:44Z</time>
      </trkpt>
      <trkpt lat="41.91844" lon="1.2212124">
        <time>2022-07-08T10:40:46Z</time>
      </trkpt>
      <trkpt lat="41.91847" lon="1.2212766">
        <time>2022-07-08T10:40:48Z</time>
      </trkpt>
      <trkpt lat="41.918495" lon="1.2213386">
        <time>2022-07-08T10:40:50Z</time>
      </trkpt>
      <trkpt lat="41.91852" lon="1.2213997">
        <time>2022-07-08T10:40:52Z</time>
      </trkpt>
      <trkpt lat="41.91855" lon="1.2214603">
        <time>2022-07-08T10:40:54Z</time>
      </trkpt>
      <trkpt lat="41.918575" lon="1.2215236">
        <time>2022-07-08T10:40:56Z</time>
      </trkpt>
      <trkpt lat="41.918606" lon="1.2215873">
        <time>2022-07-08T10:40:58Z</time>
      </trkpt>
      <trkpt lat="41.918636" lon="1.2216496">
        <time>2022-07-08T10:41:00Z</time>
      </trkpt>
      <trkpt lat="41.918667" lon="1.221712">
        <time>2022-07-08T10:41:02Z</time>
      </trkpt>
      <trkpt lat="41.918694" lon="1.2217753">
        <time>2022-07-08T10:41:04Z</time>
      </trkpt>
      <trkpt lat="41.91872" lon="1.2218386">
        <time>2022-07-08T10:41:06Z</time>
      </trkpt>
      <trkpt lat="41.91875" lon="1.2219003">
        <time>2022-07-08T10:41:08Z</time>
      </trkpt>
      <trkpt lat="41.91878" lon="1.2219627">
        <time>2022-07-08T10:41:10Z</time>
      </trkpt>
      <trkpt lat="41.91881" lon="1.2220249">
        <time>2022-07-08T10:41:12Z</time>
      </trkpt>
      <trkpt lat="41.91884" lon="1.2220876">
        <time>2022-07-08T10:41:14Z</time>
      </trkpt>
      <trkpt lat="41.91887" lon="1.2221509">
        <time>2022-07-08T10:41:16Z</time>
      </trkpt>
      <trkpt lat="41.9189" lon="1.222217">
        <time>2022-07-08T10:41:18Z</time>
      </trkpt>
      <trkpt lat="41.91893" lon="1.2222799">
        <time>2022-07-08T10:41:20Z</time>
      </trkpt>
      <trkpt lat="41.918957" lon="1.2223433">
        <time>2022-07-08T10:41:22Z</time>
      </trkpt>
      <trkpt lat="41.918987" lon="1.2224076">
        <time>2022-07-08T10:41:24Z</time>
      </trkpt>
      <trkpt lat="41.919014" lon="1.222472">
        <time>2022-07-08T10:41:26Z</time>
      </trkpt>
      <trkpt lat="41.919044" lon="1.2225363">
        <time>2022-07-08T10:41:28Z</time>
      </trkpt>
      <trkpt lat="41.91907" lon="1.2226013">
        <time>2022-07-08T10:41:30Z</time>
      </trkpt>
      <trkpt lat="41.9191" lon="1.2226629">
        <time>2022-07-08T10:41:32Z</time>
      </trkpt>
      <trkpt lat="41.91913" lon="1.2227253">
        <time>2022-07-08T10:41:34Z</time>
      </trkpt>
      <trkpt lat="41.919155" lon="1.2227876">
        <time>2022-07-08T10:41:36Z</time>
      </trkpt>
      <trkpt lat="41.91918" lon="1.2228487">
        <time>2022-07-08T10:41:38Z</time>
      </trkpt>
      <trkpt lat="41.919212" lon="1.2229106">
        <time>2022-07-08T10:41:40Z</time>
      </trkpt>
      <trkpt lat="41.91924" lon="1.2229726">
        <time>2022-07-08T10:41:42Z</time>
      </trkpt>
      <trkpt lat="41.919266" lon="1.223035">
        <time>2022-07-08T10:41:44Z</time>
      </trkpt>
      <trkpt lat="41.919296" lon="1.2230959">
        <time>2022-07-08T10:41:46Z</time>
      </trkpt>
      <trkpt lat="41.919327" lon="1.2231576">
        <time>2022-07-08T10:41:48Z</time>
      </trkpt>
      <trkpt lat="41.919353" lon="1.2232182">
        <time>2022-07-08T10:41:50Z</time>
      </trkpt>
      <trkpt lat="41.919376" lon="1.2232809">
        <time>2022-07-08T10:41:52Z</time>
      </trkpt>
      <trkpt lat="41.919403" lon="1.223344">
        <time>2022-07-08T10:41:54Z</time>
      </trkpt>
      <trkpt lat="41.91943" lon="1.2234069">
        <time>2022-07-08T10:41:56Z</time>
      </trkpt>
      <trkpt lat="41.919456" lon="1.2234702">
        <time>2022-07-08T10:41:58Z</time>
      </trkpt>
      <trkpt lat="41.919487" lon="1.2235326">
        <time>2022-07-08T10:42:00Z</time>
      </trkpt>
      <trkpt lat="41.919518" lon="1.2235975">
        <time>2022-07-08T10:42:02Z</time>
      </trkpt>
      <trkpt lat="41.919544" lon="1.2236593">
        <time>2022-07-08T10:42:04Z</time>
      </trkpt>
      <trkpt lat="41.919582" lon="1.2237502">
        <time>2022-07-08T10:42:07Z</time>
      </trkpt>
      <trkpt lat="41.919613" lon="1.2238092">
        <time>2022-07-08T10:42:09Z</time>
      </trkpt>
      <trkpt lat="41.91964" lon="1.2238688">
        <time>2022-07-08T10:42:11Z</time>
      </trkpt>
      <trkpt lat="41.919666" lon="1.2239316">
        <time>2022-07-08T10:42:13Z</time>
      </trkpt>
      <trkpt lat="41.91969" lon="1.2239912">
        <time>2022-07-08T10:42:15Z</time>
      </trkpt>
      <trkpt lat="41.919727" lon="1.2240769">
        <time>2022-07-08T10:42:18Z</time>
      </trkpt>
      <trkpt lat="41.919765" lon="1.2241619">
        <time>2022-07-08T10:42:21Z</time>
      </trkpt>
      <trkpt lat="41.919792" lon="1.2242172">
        <time>2022-07-08T10:42:23Z</time>
      </trkpt>
      <trkpt lat="41.91983" lon="1.2242975">
        <time>2022-07-08T10:42:26Z</time>
      </trkpt>
      <trkpt lat="41.91987" lon="1.2243788">
        <time>2022-07-08T10:42:29Z</time>
      </trkpt>
      <trkpt lat="41.919903" lon="1.2244616">
        <time>2022-07-08T10:42:32Z</time>
      </trkpt>
      <trkpt lat="41.91994" lon="1.2245432">
        <time>2022-07-08T10:42:35Z</time>
      </trkpt>
      <trkpt lat="41.919968" lon="1.2245965">
        <time>2022-07-08T10:42:37Z</time>
      </trkpt>
      <trkpt lat="41.920006" lon="1.2246805">
        <time>2022-07-08T10:42:40Z</time>
      </trkpt>
      <trkpt lat="41.92004" lon="1.2247661">
        <time>2022-07-08T10:42:43Z</time>
      </trkpt>
      <trkpt lat="41.920082" lon="1.2248524">
        <time>2022-07-08T10:42:46Z</time>
      </trkpt>
      <trkpt lat="41.92011" lon="1.2249109">
        <time>2022-07-08T10:42:48Z</time>
      </trkpt>
      <trkpt lat="41.92013" lon="1.2249695">
        <time>2022-07-08T10:42:50Z</time>
      </trkpt>
      <trkpt lat="41.920166" lon="1.2250555">
        <time>2022-07-08T10:42:53Z</time>
      </trkpt>
      <trkpt lat="41.920204" lon="1.2251385">
        <time>2022-07-08T10:42:56Z</time>
      </trkpt>
      <trkpt lat="41.920242" lon="1.2252219">
        <time>2022-07-08T10:42:59Z</time>
      </trkpt>
      <trkpt lat="41.920284" lon="1.2253054">
        <time>2022-07-08T10:43:02Z</time>
      </trkpt>
      <trkpt lat="41.920307" lon="1.2253628">
        <time>2022-07-08T10:43:04Z</time>
      </trkpt>
      <trkpt lat="41.92035" lon="1.2254455">
        <time>2022-07-08T10:43:07Z</time>
      </trkpt>
      <trkpt lat="41.920387" lon="1.2255278">
        <time>2022-07-08T10:43:10Z</time>
      </trkpt>
      <trkpt lat="41.920425" lon="1.2256094">
        <time>2022-07-08T10:43:13Z</time>
      </trkpt>
      <trkpt lat="41.920464" lon="1.2256938">
        <time>2022-07-08T10:43:16Z</time>
      </trkpt>
      <trkpt lat="41.92049" lon="1.2257521">
        <time>2022-07-08T10:43:18Z</time>
      </trkpt>
      <trkpt lat="41.92053" lon="1.2258375">
        <time>2022-07-08T10:43:21Z</time>
      </trkpt>
      <trkpt lat="41.920567" lon="1.2259208">
        <time>2022-07-08T10:43:24Z</time>
      </trkpt>
      <trkpt lat="41.920593" lon="1.2259748">
        <time>2022-07-08T10:43:26Z</time>
      </trkpt>
      <trkpt lat="41.92063" lon="1.2260565">
        <time>2022-07-08T10:43:29Z</time>
      </trkpt>
      <trkpt lat="41.92067" lon="1.2261405">
        <time>2022-07-08T10:43:32Z</time>
      </trkpt>
      <trkpt lat="41.920723" lon="1.2262558">
        <time>2022-07-08T10:43:36Z</time>
      </trkpt>
      <trkpt lat="41.92076" lon="1.2263415">
        <time>2022-07-08T10:43:39Z</time>
      </trkpt>
      <trkpt lat="41.920788" lon="1.2263987">
        <time>2022-07-08T10:43:41Z</time>
      </trkpt>
      <trkpt lat="41.920826" lon="1.2264848">
        <time>2022-07-08T10:43:44Z</time>
      </trkpt>
      <trkpt lat="41.92085" lon="1.2265404">
        <time>2022-07-08T10:43:46Z</time>
      </trkpt>
      <trkpt lat="41.920887" lon="1.2266234">
        <time>2022-07-08T10:43:49Z</time>
      </trkpt>
      <trkpt lat="41.92091" lon="1.2266798">
        <time>2022-07-08T10:43:51Z</time>
      </trkpt>
      <trkpt lat="41.920948" lon="1.2267628">
        <time>2022-07-08T10:43:54Z</time>
      </trkpt>
      <trkpt lat="41.920982" lon="1.2268441">
        <time>2022-07-08T10:43:57Z</time>
      </trkpt>
      <trkpt lat="41.92102" lon="1.2269254">
        <time>2022-07-08T10:44:00Z</time>
      </trkpt>
      <trkpt lat="41.92106" lon="1.2270057">
        <time>2022-07-08T10:44:03Z</time>
      </trkpt>
      <trkpt lat="41.921097" lon="1.2270951">
        <time>2022-07-08T10:44:06Z</time>
      </trkpt>
      <trkpt lat="41.92112" lon="1.227151">
        <time>2022-07-08T10:44:08Z</time>
      </trkpt>
      <trkpt lat="41.921154" lon="1.2272351">
        <time>2022-07-08T10:44:11Z</time>
      </trkpt>
      <trkpt lat="41.921177" lon="1.2272934">
        <time>2022-07-08T10:44:13Z</time>
      </trkpt>
      <trkpt lat="41.921215" lon="1.2273791">
        <time>2022-07-08T10:44:16Z</time>
      </trkpt>
      <trkpt lat="41.921253" lon="1.2274607">
        <time>2022-07-08T10:44:19Z</time>
      </trkpt>
      <trkpt lat="41.92129" lon="1.2275428">
        <time>2022-07-08T10:44:22Z</time>
      </trkpt>
      <trkpt lat="41.92133" lon="1.227624">
        <time>2022-07-08T10:44:25Z</time>
      </trkpt>
      <trkpt lat="41.921368" lon="1.2277067">
        <time>2022-07-08T10:44:28Z</time>
      </trkpt>
      <trkpt lat="41.921394" lon="1.227762">
        <time>2022-07-08T10:44:30Z</time>
      </trkpt>
      <trkpt lat="41.921432" lon="1.2278421">
        <time>2022-07-08T10:44:33Z</time>
      </trkpt>
      <trkpt lat="41.92147" lon="1.2279234">
        <time>2022-07-08T10:44:36Z</time>
      </trkpt>
      <trkpt lat="41.92151" lon="1.2280084">
        <time>2022-07-08T10:44:39Z</time>
      </trkpt>
      <trkpt lat="41.921547" lon="1.2280874">
        <time>2022-07-08T10:44:42Z</time>
      </trkpt>
      <trkpt lat="41.921585" lon="1.2281663">
        <time>2022-07-08T10:44:45Z</time>
      </trkpt>
      <trkpt lat="41.921608" lon="1.2282217">
        <time>2022-07-08T10:44:47Z</time>
      </trkpt>
      <trkpt lat="41.921642" lon="1.2283007">
        <time>2022-07-08T10:44:50Z</time>
      </trkpt>
      <trkpt lat="41.92168" lon="1.2283827">
        <time>2022-07-08T10:44:53Z</time>
      </trkpt>
      <trkpt lat="41.92172" lon="1.228466">
        <time>2022-07-08T10:44:56Z</time>
      </trkpt>
      <trkpt lat="41.921745" lon="1.228525">
        <time>2022-07-08T10:44:58Z</time>
      </trkpt>
      <trkpt lat="41.921772" lon="1.2285857">
        <time>2022-07-08T10:45:00Z</time>
      </trkpt>
      <trkpt lat="41.921803" lon="1.2286487">
        <time>2022-07-08T10:45:02Z</time>
      </trkpt>
      <trkpt lat="41.921833" lon="1.2287136">
        <time>2022-07-08T10:45:04Z</time>
      </trkpt>
      <trkpt lat="41.921867" lon="1.2287787">
        <time>2022-07-08T10:45:06Z</time>
      </trkpt>
      <trkpt lat="41.921898" lon="1.228839">
        <time>2022-07-08T10:45:08Z</time>
      </trkpt>
      <trkpt lat="41.92193" lon="1.228905">
        <time>2022-07-08T10:45:10Z</time>
      </trkpt>
      <trkpt lat="41.921955" lon="1.2289736">
        <time>2022-07-08T10:45:12Z</time>
      </trkpt>
      <trkpt lat="41.921986" lon="1.2290417">
        <time>2022-07-08T10:45:14Z</time>
      </trkpt>
      <trkpt lat="41.92201" lon="1.229107">
        <time>2022-07-08T10:45:16Z</time>
      </trkpt>
      <trkpt lat="41.922035" lon="1.2291657">
        <time>2022-07-08T10:45:18Z</time>
      </trkpt>
      <trkpt lat="41.922066" lon="1.2292217">
        <time>2022-07-08T10:45:20Z</time>
      </trkpt>
      <trkpt lat="41.9221" lon="1.2293026">
        <time>2022-07-08T10:45:23Z</time>
      </trkpt>
      <trkpt lat="41.922134" lon="1.22938">
        <time>2022-07-08T10:45:26Z</time>
      </trkpt>
      <trkpt lat="41.92217" lon="1.2294554">
        <time>2022-07-08T10:45:29Z</time>
      </trkpt>
      <trkpt lat="41.922203" lon="1.2295287">
        <time>2022-07-08T10:45:32Z</time>
      </trkpt>
      <trkpt lat="41.922237" lon="1.2296087">
        <time>2022-07-08T10:45:35Z</time>
      </trkpt>
      <trkpt lat="41.922268" lon="1.229688">
        <time>2022-07-08T10:45:38Z</time>
      </trkpt>
      <trkpt lat="41.9223" lon="1.229769">
        <time>2022-07-08T10:45:41Z</time>
      </trkpt>
      <trkpt lat="41.92232" lon="1.22982">
        <time>2022-07-08T10:45:43Z</time>
      </trkpt>
      <trkpt lat="41.922356" lon="1.229898">
        <time>2022-07-08T10:45:46Z</time>
      </trkpt>
      <trkpt lat="41.92239" lon="1.229977">
        <time>2022-07-08T10:45:49Z</time>
      </trkpt>
      <trkpt lat="41.922417" lon="1.2300316">
        <time>2022-07-08T10:45:51Z</time>
      </trkpt>
      <trkpt lat="41.92246" lon="1.2301136">
        <time>2022-07-08T10:45:54Z</time>
      </trkpt>
      <trkpt lat="41.922493" lon="1.2301936">
        <time>2022-07-08T10:45:57Z</time>
      </trkpt>
      <trkpt lat="41.92253" lon="1.230274">
        <time>2022-07-08T10:46:00Z</time>
      </trkpt>
      <trkpt lat="41.922554" lon="1.2303257">
        <time>2022-07-08T10:46:02Z</time>
      </trkpt>
      <trkpt lat="41.922592" lon="1.230402">
        <time>2022-07-08T10:46:05Z</time>
      </trkpt>
      <trkpt lat="41.922615" lon="1.2304826">
        <time>2022-07-08T10:46:08Z</time>
      </trkpt>
      <trkpt lat="41.922634" lon="1.2305416">
        <time>2022-07-08T10:46:11Z</time>
      </trkpt>
      <trkpt lat="41.922665" lon="1.230624">
        <time>2022-07-08T10:48:00Z</time>
      </trkpt>
      <trkpt lat="41.922707" lon="1.2307132">
        <time>2022-07-08T10:48:03Z</time>
      </trkpt>
      <trkpt lat="41.92274" lon="1.230783">
        <time>2022-07-08T10:48:05Z</time>
      </trkpt>
      <trkpt lat="41.922775" lon="1.2308539">
        <time>2022-07-08T10:48:07Z</time>
      </trkpt>
      <trkpt lat="41.92281" lon="1.2309272">
        <time>2022-07-08T10:48:09Z</time>
      </trkpt>
      <trkpt lat="41.922844" lon="1.231002">
        <time>2022-07-08T10:48:11Z</time>
      </trkpt>
      <trkpt lat="41.92288" lon="1.231085">
        <time>2022-07-08T10:48:13Z</time>
      </trkpt>
      <trkpt lat="41.922916" lon="1.231167">
        <time>2022-07-08T10:48:15Z</time>
      </trkpt>
      <trkpt lat="41.922955" lon="1.231249">
        <time>2022-07-08T10:48:17Z</time>
      </trkpt>
      <trkpt lat="41.922997" lon="1.2313343">
        <time>2022-07-08T10:48:19Z</time>
      </trkpt>
      <trkpt lat="41.92304" lon="1.2314229">
        <time>2022-07-08T10:48:21Z</time>
      </trkpt>
      <trkpt lat="41.923077" lon="1.2315173">
        <time>2022-07-08T10:48:23Z</time>
      </trkpt>
      <trkpt lat="41.923126" lon="1.231646">
        <time>2022-07-08T10:48:26Z</time>
      </trkpt>
      <trkpt lat="41.92315" lon="1.2317039">
        <time>2022-07-08T10:48:27Z</time>
      </trkpt>
      <trkpt lat="41.923195" lon="1.2318106">
        <time>2022-07-08T10:48:29Z</time>
      </trkpt>
      <trkpt lat="41.923244" lon="1.2319132">
        <time>2022-07-08T10:48:31Z</time>
      </trkpt>
      <trkpt lat="41.92329" lon="1.2320089">
        <time>2022-07-08T10:48:33Z</time>
      </trkpt>
      <trkpt lat="41.923336" lon="1.2321042">
        <time>2022-07-08T10:48:35Z</time>
      </trkpt>
      <trkpt lat="41.92338" lon="1.2322003">
        <time>2022-07-08T10:48:37Z</time>
      </trkpt>
      <trkpt lat="41.923428" lon="1.2322936">
        <time>2022-07-08T10:48:39Z</time>
      </trkpt>
      <trkpt lat="41.923473" lon="1.2323859">
        <time>2022-07-08T10:48:41Z</time>
      </trkpt>
      <trkpt lat="41.923523" lon="1.2324762">
        <time>2022-07-08T10:48:43Z</time>
      </trkpt>
      <trkpt lat="41.92357" lon="1.2325679">
        <time>2022-07-08T10:48:45Z</time>
      </trkpt>
      <trkpt lat="41.923615" lon="1.2326609">
        <time>2022-07-08T10:48:47Z</time>
      </trkpt>
      <trkpt lat="41.923683" lon="1.2328012">
        <time>2022-07-08T10:48:50Z</time>
      </trkpt>
      <trkpt lat="41.92373" lon="1.2328959">
        <time>2022-07-08T10:48:52Z</time>
      </trkpt>
      <trkpt lat="41.923775" lon="1.2329932">
        <time>2022-07-08T10:48:54Z</time>
      </trkpt>
      <trkpt lat="41.923817" lon="1.2330918">
        <time>2022-07-08T10:48:56Z</time>
      </trkpt>
      <trkpt lat="41.923866" lon="1.2331889">
        <time>2022-07-08T10:48:58Z</time>
      </trkpt>
      <trkpt lat="41.923912" lon="1.2332842">
        <time>2022-07-08T10:49:00Z</time>
      </trkpt>
      <trkpt lat="41.92396" lon="1.2333872">
        <time>2022-07-08T10:49:02Z</time>
      </trkpt>
      <trkpt lat="41.924007" lon="1.2334875">
        <time>2022-07-08T10:49:04Z</time>
      </trkpt>
      <trkpt lat="41.924053" lon="1.2335855">
        <time>2022-07-08T10:49:06Z</time>
      </trkpt>
      <trkpt lat="41.9241" lon="1.2336862">
        <time>2022-07-08T10:49:08Z</time>
      </trkpt>
      <trkpt lat="41.92414" lon="1.2337892">
        <time>2022-07-08T10:49:10Z</time>
      </trkpt>
      <trkpt lat="41.924183" lon="1.2338939">
        <time>2022-07-08T10:49:12Z</time>
      </trkpt>
      <trkpt lat="41.92423" lon="1.2339975">
        <time>2022-07-08T10:49:14Z</time>
      </trkpt>
      <trkpt lat="41.924274" lon="1.2341021">
        <time>2022-07-08T10:49:16Z</time>
      </trkpt>
      <trkpt lat="41.92432" lon="1.2342064">
        <time>2022-07-08T10:49:18Z</time>
      </trkpt>
      <trkpt lat="41.924366" lon="1.2343115">
        <time>2022-07-08T10:49:20Z</time>
      </trkpt>
      <trkpt lat="41.924416" lon="1.2344165">
        <time>2022-07-08T10:49:22Z</time>
      </trkpt>
      <trkpt lat="41.92446" lon="1.2345225">
        <time>2022-07-08T10:49:24Z</time>
      </trkpt>
      <trkpt lat="41.924507" lon="1.2346292">
        <time>2022-07-08T10:49:26Z</time>
      </trkpt>
      <trkpt lat="41.924557" lon="1.2347342">
        <time>2022-07-08T10:49:28Z</time>
      </trkpt>
      <trkpt lat="41.924603" lon="1.2348361">
        <time>2022-07-08T10:49:30Z</time>
      </trkpt>
      <trkpt lat="41.92465" lon="1.2349365">
        <time>2022-07-08T10:49:32Z</time>
      </trkpt>
      <trkpt lat="41.924698" lon="1.2350435">
        <time>2022-07-08T10:49:34Z</time>
      </trkpt>
      <trkpt lat="41.924744" lon="1.2351488">
        <time>2022-07-08T10:49:36Z</time>
      </trkpt>
      <trkpt lat="41.924793" lon="1.2352575">
        <time>2022-07-08T10:49:38Z</time>
      </trkpt>
      <trkpt lat="41.924843" lon="1.2353681">
        <time>2022-07-08T10:49:40Z</time>
      </trkpt>
      <trkpt lat="41.924896" lon="1.2354771">
        <time>2022-07-08T10:49:42Z</time>
      </trkpt>
      <trkpt lat="41.924946" lon="1.2355864">
        <time>2022-07-08T10:49:44Z</time>
      </trkpt>
      <trkpt lat="41.924973" lon="1.2356365">
        <time>2022-07-08T10:49:45Z</time>
      </trkpt>
      <trkpt lat="41.92502" lon="1.2357361">
        <time>2022-07-08T10:49:47Z</time>
      </trkpt>
      <trkpt lat="41.925064" lon="1.2358391">
        <time>2022-07-08T10:49:49Z</time>
      </trkpt>
      <trkpt lat="41.92511" lon="1.2359358">
        <time>2022-07-08T10:49:51Z</time>
      </trkpt>
      <trkpt lat="41.92515" lon="1.2360288">
        <time>2022-07-08T10:49:53Z</time>
      </trkpt>
      <trkpt lat="41.925194" lon="1.2361227">
        <time>2022-07-08T10:49:55Z</time>
      </trkpt>
      <trkpt lat="41.925236" lon="1.2362185">
        <time>2022-07-08T10:49:57Z</time>
      </trkpt>
      <trkpt lat="41.925274" lon="1.2363057">
        <time>2022-07-08T10:49:59Z</time>
      </trkpt>
      <trkpt lat="41.925316" lon="1.2363944">
        <time>2022-07-08T10:50:01Z</time>
      </trkpt>
      <trkpt lat="41.925358" lon="1.2364784">
        <time>2022-07-08T10:50:03Z</time>
      </trkpt>
      <trkpt lat="41.9254" lon="1.236559">
        <time>2022-07-08T10:50:05Z</time>
      </trkpt>
      <trkpt lat="41.925438" lon="1.2366338">
        <time>2022-07-08T10:50:07Z</time>
      </trkpt>
      <trkpt lat="41.92549" lon="1.2367507">
        <time>2022-07-08T10:50:10Z</time>
      </trkpt>
      <trkpt lat="41.925526" lon="1.2368261">
        <time>2022-07-08T10:50:12Z</time>
      </trkpt>
      <trkpt lat="41.925564" lon="1.2368971">
        <time>2022-07-08T10:50:14Z</time>
      </trkpt>
      <trkpt lat="41.925602" lon="1.236971">
        <time>2022-07-08T10:50:16Z</time>
      </trkpt>
      <trkpt lat="41.92564" lon="1.2370384">
        <time>2022-07-08T10:50:18Z</time>
      </trkpt>
      <trkpt lat="41.925674" lon="1.2371064">
        <time>2022-07-08T10:50:20Z</time>
      </trkpt>
      <trkpt lat="41.925705" lon="1.2371777">
        <time>2022-07-08T10:50:22Z</time>
      </trkpt>
      <trkpt lat="41.92574" lon="1.2372494">
        <time>2022-07-08T10:50:24Z</time>
      </trkpt>
      <trkpt lat="41.925774" lon="1.2373244">
        <time>2022-07-08T10:50:26Z</time>
      </trkpt>
      <trkpt lat="41.925808" lon="1.2374">
        <time>2022-07-08T10:50:28Z</time>
      </trkpt>
      <trkpt lat="41.92584" lon="1.2374707">
        <time>2022-07-08T10:50:30Z</time>
      </trkpt>
      <trkpt lat="41.92587" lon="1.2375437">
        <time>2022-07-08T10:50:32Z</time>
      </trkpt>
      <trkpt lat="41.925903" lon="1.2376164">
        <time>2022-07-08T10:50:34Z</time>
      </trkpt>
      <trkpt lat="41.925938" lon="1.237686">
        <time>2022-07-08T10:50:36Z</time>
      </trkpt>
      <trkpt lat="41.925972" lon="1.2377617">
        <time>2022-07-08T10:50:38Z</time>
      </trkpt>
      <trkpt lat="41.926006" lon="1.2378367">
        <time>2022-07-08T10:50:40Z</time>
      </trkpt>
      <trkpt lat="41.926044" lon="1.2379137">
        <time>2022-07-08T10:50:42Z</time>
      </trkpt>
      <trkpt lat="41.926083" lon="1.2379963">
        <time>2022-07-08T10:50:44Z</time>
      </trkpt>
      <trkpt lat="41.92612" lon="1.2380863">
        <time>2022-07-08T10:50:46Z</time>
      </trkpt>
      <trkpt lat="41.926163" lon="1.238186">
        <time>2022-07-08T10:50:48Z</time>
      </trkpt>
      <trkpt lat="41.926205" lon="1.2382847">
        <time>2022-07-08T10:50:50Z</time>
      </trkpt>
      <trkpt lat="41.926247" lon="1.23839">
        <time>2022-07-08T10:50:52Z</time>
      </trkpt>
      <trkpt lat="41.926266" lon="1.2384417">
        <time>2022-07-08T10:50:53Z</time>
      </trkpt>
      <trkpt lat="41.926315" lon="1.238559">
        <time>2022-07-08T10:50:55Z</time>
      </trkpt>
      <trkpt lat="41.926342" lon="1.2386197">
        <time>2022-07-08T10:50:56Z</time>
      </trkpt>
      <trkpt lat="41.926395" lon="1.2387466">
        <time>2022-07-08T10:50:58Z</time>
      </trkpt>
      <trkpt lat="41.926422" lon="1.2388114">
        <time>2022-07-08T10:50:59Z</time>
      </trkpt>
      <trkpt lat="41.926453" lon="1.238878">
        <time>2022-07-08T10:51:00Z</time>
      </trkpt>
      <trkpt lat="41.92648" lon="1.2389423">
        <time>2022-07-08T10:51:01Z</time>
      </trkpt>
      <trkpt lat="41.926506" lon="1.2390093">
        <time>2022-07-08T10:51:02Z</time>
      </trkpt>
      <trkpt lat="41.926533" lon="1.2390783">
        <time>2022-07-08T10:51:03Z</time>
      </trkpt>
      <trkpt lat="41.926567" lon="1.2391536">
        <time>2022-07-08T10:51:04Z</time>
      </trkpt>
      <trkpt lat="41.926598" lon="1.2392243">
        <time>2022-07-08T10:51:05Z</time>
      </trkpt>
      <trkpt lat="41.926624" lon="1.2392976">
        <time>2022-07-08T10:51:06Z</time>
      </trkpt>
      <trkpt lat="41.92666" lon="1.239373">
        <time>2022-07-08T10:51:07Z</time>
      </trkpt>
      <trkpt lat="41.926693" lon="1.2394559">
        <time>2022-07-08T10:51:08Z</time>
      </trkpt>
      <trkpt lat="41.92673" lon="1.2395343">
        <time>2022-07-08T10:51:09Z</time>
      </trkpt>
      <trkpt lat="41.926765" lon="1.2396163">
        <time>2022-07-08T10:51:10Z</time>
      </trkpt>
      <trkpt lat="41.926804" lon="1.2397">
        <time>2022-07-08T10:51:11Z</time>
      </trkpt>
      <trkpt lat="41.92684" lon="1.2397859">
        <time>2022-07-08T10:51:12Z</time>
      </trkpt>
      <trkpt lat="41.926884" lon="1.2398789">
        <time>2022-07-08T10:51:13Z</time>
      </trkpt>
      <trkpt lat="41.926918" lon="1.239972">
        <time>2022-07-08T10:51:14Z</time>
      </trkpt>
      <trkpt lat="41.926956" lon="1.2400646">
        <time>2022-07-08T10:51:15Z</time>
      </trkpt>
      <trkpt lat="41.926994" lon="1.2401559">
        <time>2022-07-08T10:51:16Z</time>
      </trkpt>
      <trkpt lat="41.927032" lon="1.2402406">
        <time>2022-07-08T10:51:17Z</time>
      </trkpt>
      <trkpt lat="41.92707" lon="1.2403256">
        <time>2022-07-08T10:51:18Z</time>
      </trkpt>
      <trkpt lat="41.927113" lon="1.2404163">
        <time>2022-07-08T10:51:19Z</time>
      </trkpt>
      <trkpt lat="41.92715" lon="1.2405">
        <time>2022-07-08T10:51:20Z</time>
      </trkpt>
      <trkpt lat="41.927185" lon="1.2405856">
        <time>2022-07-08T10:51:21Z</time>
      </trkpt>
      <trkpt lat="41.927223" lon="1.2406716">
        <time>2022-07-08T10:51:22Z</time>
      </trkpt>
      <trkpt lat="41.92726" lon="1.2407576">
        <time>2022-07-08T10:51:23Z</time>
      </trkpt>
      <trkpt lat="41.927296" lon="1.2408429">
        <time>2022-07-08T10:51:24Z</time>
      </trkpt>
      <trkpt lat="41.927334" lon="1.2409272">
        <time>2022-07-08T10:51:25Z</time>
      </trkpt>
      <trkpt lat="41.927372" lon="1.241015">
        <time>2022-07-08T10:51:26Z</time>
      </trkpt>
      <trkpt lat="41.92741" lon="1.2410939">
        <time>2022-07-08T10:51:27Z</time>
      </trkpt>
      <trkpt lat="41.92748" lon="1.2412488">
        <time>2022-07-08T10:51:29Z</time>
      </trkpt>
      <trkpt lat="41.927513" lon="1.2413229">
        <time>2022-07-08T10:51:30Z</time>
      </trkpt>
      <trkpt lat="41.927547" lon="1.2413929">
        <time>2022-07-08T10:51:31Z</time>
      </trkpt>
      <trkpt lat="41.927578" lon="1.2414596">
        <time>2022-07-08T10:51:32Z</time>
      </trkpt>
      <trkpt lat="41.927605" lon="1.2415205">
        <time>2022-07-08T10:51:33Z</time>
      </trkpt>
      <trkpt lat="41.92763" lon="1.2415808">
        <time>2022-07-08T10:51:34Z</time>
      </trkpt>
      <trkpt lat="41.92766" lon="1.2416439">
        <time>2022-07-08T10:51:35Z</time>
      </trkpt>
      <trkpt lat="41.92769" lon="1.2417042">
        <time>2022-07-08T10:51:36Z</time>
      </trkpt>
      <trkpt lat="41.92771" lon="1.2417608">
        <time>2022-07-08T10:51:37Z</time>
      </trkpt>
      <trkpt lat="41.927753" lon="1.2418622">
        <time>2022-07-08T10:51:39Z</time>
      </trkpt>
      <trkpt lat="41.92779" lon="1.2419552">
        <time>2022-07-08T10:51:41Z</time>
      </trkpt>
      <trkpt lat="41.927822" lon="1.2420425">
        <time>2022-07-08T10:51:43Z</time>
      </trkpt>
      <trkpt lat="41.927853" lon="1.2421268">
        <time>2022-07-08T10:51:45Z</time>
      </trkpt>
      <trkpt lat="41.927887" lon="1.2422068">
        <time>2022-07-08T10:51:47Z</time>
      </trkpt>
      <trkpt lat="41.927914" lon="1.2422771">
        <time>2022-07-08T10:51:49Z</time>
      </trkpt>
      <trkpt lat="41.92794" lon="1.2423456">
        <time>2022-07-08T10:51:51Z</time>
      </trkpt>
      <trkpt lat="41.927967" lon="1.2424092">
        <time>2022-07-08T10:51:53Z</time>
      </trkpt>
      <trkpt lat="41.927998" lon="1.2424701">
        <time>2022-07-08T10:51:55Z</time>
      </trkpt>
      <trkpt lat="41.928024" lon="1.2425332">
        <time>2022-07-08T10:51:57Z</time>
      </trkpt>
      <trkpt lat="41.928043" lon="1.2425898">
        <time>2022-07-08T10:51:59Z</time>
      </trkpt>
      <trkpt lat="41.928085" lon="1.2426782">
        <time>2022-07-08T10:52:02Z</time>
      </trkpt>
      <trkpt lat="41.928112" lon="1.2427372">
        <time>2022-07-08T10:52:04Z</time>
      </trkpt>
      <trkpt lat="41.92814" lon="1.2427995">
        <time>2022-07-08T10:52:06Z</time>
      </trkpt>
      <trkpt lat="41.928165" lon="1.2428612">
        <time>2022-07-08T10:52:08Z</time>
      </trkpt>
      <trkpt lat="41.928192" lon="1.2429239">
        <time>2022-07-08T10:52:10Z</time>
      </trkpt>
      <trkpt lat="41.928223" lon="1.2429875">
        <time>2022-07-08T10:52:12Z</time>
      </trkpt>
      <trkpt lat="41.928253" lon="1.2430505">
        <time>2022-07-08T10:52:14Z</time>
      </trkpt>
      <trkpt lat="41.928284" lon="1.2431111">
        <time>2022-07-08T10:52:16Z</time>
      </trkpt>
      <trkpt lat="41.928314" lon="1.2431735">
        <time>2022-07-08T10:52:18Z</time>
      </trkpt>
      <trkpt lat="41.928345" lon="1.2432355">
        <time>2022-07-08T10:52:20Z</time>
      </trkpt>
      <trkpt lat="41.92837" lon="1.2432958">
        <time>2022-07-08T10:52:22Z</time>
      </trkpt>
      <trkpt lat="41.928402" lon="1.2433544">
        <time>2022-07-08T10:52:24Z</time>
      </trkpt>
      <trkpt lat="41.92843" lon="1.2434064">
        <time>2022-07-08T10:52:26Z</time>
      </trkpt>
      <trkpt lat="41.928467" lon="1.2434895">
        <time>2022-07-08T10:52:29Z</time>
      </trkpt>
      <trkpt lat="41.9285" lon="1.2435732">
        <time>2022-07-08T10:52:32Z</time>
      </trkpt>
      <trkpt lat="41.92853" lon="1.2436551">
        <time>2022-07-08T10:52:35Z</time>
      </trkpt>
      <trkpt lat="41.92855" lon="1.2437094">
        <time>2022-07-08T10:52:37Z</time>
      </trkpt>
      <trkpt lat="41.928585" lon="1.2437911">
        <time>2022-07-08T10:52:40Z</time>
      </trkpt>
      <trkpt lat="41.92861" lon="1.2438447">
        <time>2022-07-08T10:52:42Z</time>
      </trkpt>
      <trkpt lat="41.92865" lon="1.2439251">
        <time>2022-07-08T10:52:45Z</time>
      </trkpt>
      <trkpt lat="41.92869" lon="1.2440062">
        <time>2022-07-08T10:52:48Z</time>
      </trkpt>
      <trkpt lat="41.928734" lon="1.2440861">
        <time>2022-07-08T10:52:51Z</time>
      </trkpt>
      <trkpt lat="41.92877" lon="1.2441667">
        <time>2022-07-08T10:52:54Z</time>
      </trkpt>
      <trkpt lat="41.928806" lon="1.2442454">
        <time>2022-07-08T10:52:57Z</time>
      </trkpt>
      <trkpt lat="41.928833" lon="1.244299">
        <time>2022-07-08T10:52:59Z</time>
      </trkpt>
      <trkpt lat="41.928867" lon="1.244379">
        <time>2022-07-08T10:53:02Z</time>
      </trkpt>
      <trkpt lat="41.928905" lon="1.2444597">
        <time>2022-07-08T10:53:05Z</time>
      </trkpt>
      <trkpt lat="41.928944" lon="1.2445397">
        <time>2022-07-08T10:53:08Z</time>
      </trkpt>
      <trkpt lat="41.928978" lon="1.2446194">
        <time>2022-07-08T10:53:11Z</time>
      </trkpt>
      <trkpt lat="41.929016" lon="1.2446958">
        <time>2022-07-08T10:53:14Z</time>
      </trkpt>
      <trkpt lat="41.92905" lon="1.244773">
        <time>2022-07-08T10:53:17Z</time>
      </trkpt>
      <trkpt lat="41.929092" lon="1.2448534">
        <time>2022-07-08T10:53:20Z</time>
      </trkpt>
      <trkpt lat="41.92913" lon="1.2449274">
        <time>2022-07-08T10:53:23Z</time>
      </trkpt>
      <trkpt lat="41.92916" lon="1.2449764">
        <time>2022-07-08T10:53:25Z</time>
      </trkpt>
      <trkpt lat="41.929203" lon="1.2450491">
        <time>2022-07-08T10:53:28Z</time>
      </trkpt>
      <trkpt lat="41.929234" lon="1.2450984">
        <time>2022-07-08T10:53:30Z</time>
      </trkpt>
      <trkpt lat="41.929283" lon="1.2451648">
        <time>2022-07-08T10:53:33Z</time>
      </trkpt>
      <trkpt lat="41.92933" lon="1.2452314">
        <time>2022-07-08T10:53:36Z</time>
      </trkpt>
      <trkpt lat="41.929375" lon="1.2452984">
        <time>2022-07-08T10:53:39Z</time>
      </trkpt>
      <trkpt lat="41.92943" lon="1.2453624">
        <time>2022-07-08T10:53:42Z</time>
      </trkpt>
      <trkpt lat="41.929466" lon="1.2454047">
        <time>2022-07-08T10:53:44Z</time>
      </trkpt>
      <trkpt lat="41.92952" lon="1.2454677">
        <time>2022-07-08T10:53:47Z</time>
      </trkpt>
      <trkpt lat="41.929577" lon="1.2455294">
        <time>2022-07-08T10:53:50Z</time>
      </trkpt>
      <trkpt lat="41.92963" lon="1.2455894">
        <time>2022-07-08T10:53:53Z</time>
      </trkpt>
      <trkpt lat="41.929684" lon="1.2456527">
        <time>2022-07-08T10:53:56Z</time>
      </trkpt>
      <trkpt lat="41.929737" lon="1.245712">
        <time>2022-07-08T10:53:59Z</time>
      </trkpt>
      <trkpt lat="41.92978" lon="1.2457503">
        <time>2022-07-08T10:54:01Z</time>
      </trkpt>
      <trkpt lat="41.92984" lon="1.24581">
        <time>2022-07-08T10:54:04Z</time>
      </trkpt>
      <trkpt lat="41.92988" lon="1.2458533">
        <time>2022-07-08T10:54:06Z</time>
      </trkpt>
      <trkpt lat="41.92992" lon="1.2458917">
        <time>2022-07-08T10:54:08Z</time>
      </trkpt>
      <trkpt lat="41.929977" lon="1.2459433">
        <time>2022-07-08T10:54:11Z</time>
      </trkpt>
      <trkpt lat="41.93002" lon="1.2459767">
        <time>2022-07-08T10:54:13Z</time>
      </trkpt>
      <trkpt lat="41.930084" lon="1.2460247">
        <time>2022-07-08T10:54:16Z</time>
      </trkpt>
      <trkpt lat="41.93014" lon="1.246068">
        <time>2022-07-08T10:54:19Z</time>
      </trkpt>
      <trkpt lat="41.930202" lon="1.2461066">
        <time>2022-07-08T10:54:22Z</time>
      </trkpt>
      <trkpt lat="41.930264" lon="1.2461476">
        <time>2022-07-08T10:54:25Z</time>
      </trkpt>
      <trkpt lat="41.930325" lon="1.2461843">
        <time>2022-07-08T10:54:28Z</time>
      </trkpt>
      <trkpt lat="41.930386" lon="1.2462207">
        <time>2022-07-08T10:54:31Z</time>
      </trkpt>
      <trkpt lat="41.930428" lon="1.2462423">
        <time>2022-07-08T10:54:33Z</time>
      </trkpt>
      <trkpt lat="41.930492" lon="1.2462746">
        <time>2022-07-08T10:54:36Z</time>
      </trkpt>
      <trkpt lat="41.93056" lon="1.2463096">
        <time>2022-07-08T10:54:39Z</time>
      </trkpt>
      <trkpt lat="41.930607" lon="1.246331">
        <time>2022-07-08T10:54:41Z</time>
      </trkpt>
      <trkpt lat="41.93068" lon="1.2463636">
        <time>2022-07-08T10:54:44Z</time>
      </trkpt>
      <trkpt lat="41.930748" lon="1.2463937">
        <time>2022-07-08T10:54:47Z</time>
      </trkpt>
      <trkpt lat="41.930798" lon="1.2464147">
        <time>2022-07-08T10:54:49Z</time>
      </trkpt>
      <trkpt lat="41.93087" lon="1.2464429">
        <time>2022-07-08T10:54:52Z</time>
      </trkpt>
      <trkpt lat="41.93092" lon="1.2464653">
        <time>2022-07-08T10:54:54Z</time>
      </trkpt>
      <trkpt lat="41.93097" lon="1.2464843">
        <time>2022-07-08T10:54:56Z</time>
      </trkpt>
      <trkpt lat="41.931023" lon="1.2464997">
        <time>2022-07-08T10:54:58Z</time>
      </trkpt>
      <trkpt lat="41.931076" lon="1.246513">
        <time>2022-07-08T10:55:00Z</time>
      </trkpt>
      <trkpt lat="41.93113" lon="1.2465253">
        <time>2022-07-08T10:55:02Z</time>
      </trkpt>
      <trkpt lat="41.931206" lon="1.2465386">
        <time>2022-07-08T10:55:05Z</time>
      </trkpt>
      <trkpt lat="41.931255" lon="1.2465487">
        <time>2022-07-08T10:55:07Z</time>
      </trkpt>
      <trkpt lat="41.931313" lon="1.246558">
        <time>2022-07-08T10:55:09Z</time>
      </trkpt>
      <trkpt lat="41.93137" lon="1.2465659">
        <time>2022-07-08T10:55:11Z</time>
      </trkpt>
      <trkpt lat="41.931427" lon="1.2465733">
        <time>2022-07-08T10:55:13Z</time>
      </trkpt>
      <trkpt lat="41.931488" lon="1.2465802">
        <time>2022-07-08T10:55:15Z</time>
      </trkpt>
      <trkpt lat="41.931545" lon="1.2465886">
        <time>2022-07-08T10:55:17Z</time>
      </trkpt>
      <trkpt lat="41.9316" lon="1.2465979">
        <time>2022-07-08T10:55:19Z</time>
      </trkpt>
      <trkpt lat="41.931664" lon="1.2466053">
        <time>2022-07-08T10:55:21Z</time>
      </trkpt>
      <trkpt lat="41.93173" lon="1.2466099">
        <time>2022-07-08T10:55:23Z</time>
      </trkpt>
      <trkpt lat="41.931835" lon="1.2466149">
        <time>2022-07-08T10:55:26Z</time>
      </trkpt>
      <trkpt lat="41.931908" lon="1.2466153">
        <time>2022-07-08T10:55:28Z</time>
      </trkpt>
      <trkpt lat="41.931984" lon="1.2466159">
        <time>2022-07-08T10:55:30Z</time>
      </trkpt>
      <trkpt lat="41.93206" lon="1.246617">
        <time>2022-07-08T10:55:32Z</time>
      </trkpt>
      <trkpt lat="41.932144" lon="1.2466189">
        <time>2022-07-08T10:55:34Z</time>
      </trkpt>
      <trkpt lat="41.93223" lon="1.246617">
        <time>2022-07-08T10:55:36Z</time>
      </trkpt>
      <trkpt lat="41.932316" lon="1.2466133">
        <time>2022-07-08T10:55:38Z</time>
      </trkpt>
      <trkpt lat="41.932404" lon="1.2466136">
        <time>2022-07-08T10:55:40Z</time>
      </trkpt>
      <trkpt lat="41.932495" lon="1.2466083">
        <time>2022-07-08T10:55:42Z</time>
      </trkpt>
      <trkpt lat="41.932587" lon="1.2465999">
        <time>2022-07-08T10:55:44Z</time>
      </trkpt>
      <trkpt lat="41.93268" lon="1.2465962">
        <time>2022-07-08T10:55:46Z</time>
      </trkpt>
      <trkpt lat="41.93277" lon="1.2465979">
        <time>2022-07-08T10:55:48Z</time>
      </trkpt>
      <trkpt lat="41.93282" lon="1.2465976">
        <time>2022-07-08T10:55:49Z</time>
      </trkpt>
      <trkpt lat="41.932922" lon="1.2465986">
        <time>2022-07-08T10:55:51Z</time>
      </trkpt>
      <trkpt lat="41.93298" lon="1.2465992">
        <time>2022-07-08T10:55:52Z</time>
      </trkpt>
      <trkpt lat="41.933033" lon="1.2465996">
        <time>2022-07-08T10:55:53Z</time>
      </trkpt>
      <trkpt lat="41.933086" lon="1.2466006">
        <time>2022-07-08T10:55:54Z</time>
      </trkpt>
      <trkpt lat="41.933144" lon="1.2466023">
        <time>2022-07-08T10:55:55Z</time>
      </trkpt>
      <trkpt lat="41.9332" lon="1.2466038">
        <time>2022-07-08T10:55:56Z</time>
      </trkpt>
      <trkpt lat="41.933266" lon="1.2466062">
        <time>2022-07-08T10:55:57Z</time>
      </trkpt>
      <trkpt lat="41.933323" lon="1.2466089">
        <time>2022-07-08T10:55:58Z</time>
      </trkpt>
      <trkpt lat="41.933384" lon="1.2466109">
        <time>2022-07-08T10:55:59Z</time>
      </trkpt>
      <trkpt lat="41.933445" lon="1.2466135">
        <time>2022-07-08T10:56:00Z</time>
      </trkpt>
      <trkpt lat="41.933506" lon="1.2466159">
        <time>2022-07-08T10:56:01Z</time>
      </trkpt>
      <trkpt lat="41.933563" lon="1.2466185">
        <time>2022-07-08T10:56:02Z</time>
      </trkpt>
      <trkpt lat="41.933628" lon="1.2466232">
        <time>2022-07-08T10:56:03Z</time>
      </trkpt>
      <trkpt lat="41.93369" lon="1.2466282">
        <time>2022-07-08T10:56:04Z</time>
      </trkpt>
      <trkpt lat="41.93375" lon="1.2466352">
        <time>2022-07-08T10:56:05Z</time>
      </trkpt>
      <trkpt lat="41.933815" lon="1.2466435">
        <time>2022-07-08T10:56:06Z</time>
      </trkpt>
      <trkpt lat="41.93388" lon="1.2466528">
        <time>2022-07-08T10:56:07Z</time>
      </trkpt>
      <trkpt lat="41.93394" lon="1.2466638">
        <time>2022-07-08T10:56:08Z</time>
      </trkpt>
      <trkpt lat="41.934006" lon="1.2466766">
        <time>2022-07-08T10:56:09Z</time>
      </trkpt>
      <trkpt lat="41.934067" lon="1.2466925">
        <time>2022-07-08T10:56:10Z</time>
      </trkpt>
      <trkpt lat="41.934128" lon="1.2467111">
        <time>2022-07-08T10:56:11Z</time>
      </trkpt>
      <trkpt lat="41.93419" lon="1.2467306">
        <time>2022-07-08T10:56:12Z</time>
      </trkpt>
      <trkpt lat="41.93425" lon="1.2467501">
        <time>2022-07-08T10:56:13Z</time>
      </trkpt>
      <trkpt lat="41.934307" lon="1.2467712">
        <time>2022-07-08T10:56:14Z</time>
      </trkpt>
      <trkpt lat="41.93437" lon="1.2467952">
        <time>2022-07-08T10:56:15Z</time>
      </trkpt>
      <trkpt lat="41.934425" lon="1.2468215">
        <time>2022-07-08T10:56:16Z</time>
      </trkpt>
      <trkpt lat="41.934483" lon="1.2468492">
        <time>2022-07-08T10:56:17Z</time>
      </trkpt>
      <trkpt lat="41.93454" lon="1.2468785">
        <time>2022-07-08T10:56:18Z</time>
      </trkpt>
      <trkpt lat="41.934593" lon="1.2469071">
        <time>2022-07-08T10:56:19Z</time>
      </trkpt>
      <trkpt lat="41.934647" lon="1.2469378">
        <time>2022-07-08T10:56:20Z</time>
      </trkpt>
      <trkpt lat="41.934704" lon="1.2469724">
        <time>2022-07-08T10:56:21Z</time>
      </trkpt>
      <trkpt lat="41.934753" lon="1.2470051">
        <time>2022-07-08T10:56:22Z</time>
      </trkpt>
      <trkpt lat="41.934803" lon="1.2470388">
        <time>2022-07-08T10:56:23Z</time>
      </trkpt>
      <trkpt lat="41.934853" lon="1.2470728">
        <time>2022-07-08T10:56:24Z</time>
      </trkpt>
      <trkpt lat="41.9349" lon="1.2471088">
        <time>2022-07-08T10:56:25Z</time>
      </trkpt>
      <trkpt lat="41.934948" lon="1.2471454">
        <time>2022-07-08T10:56:26Z</time>
      </trkpt>
      <trkpt lat="41.934994" lon="1.2471838">
        <time>2022-07-08T10:56:27Z</time>
      </trkpt>
      <trkpt lat="41.93504" lon="1.2472248">
        <time>2022-07-08T10:56:28Z</time>
      </trkpt>
      <trkpt lat="41.935085" lon="1.2472697">
        <time>2022-07-08T10:56:29Z</time>
      </trkpt>
      <trkpt lat="41.935127" lon="1.2473121">
        <time>2022-07-08T10:56:30Z</time>
      </trkpt>
      <trkpt lat="41.935173" lon="1.2473575">
        <time>2022-07-08T10:56:31Z</time>
      </trkpt>
      <trkpt lat="41.935215" lon="1.2474037">
        <time>2022-07-08T10:56:32Z</time>
      </trkpt>
      <trkpt lat="41.93526" lon="1.2474531">
        <time>2022-07-08T10:56:33Z</time>
      </trkpt>
      <trkpt lat="41.9353" lon="1.2474995">
        <time>2022-07-08T10:56:34Z</time>
      </trkpt>
      <trkpt lat="41.935337" lon="1.2475435">
        <time>2022-07-08T10:56:35Z</time>
      </trkpt>
      <trkpt lat="41.935413" lon="1.2476428">
        <time>2022-07-08T10:56:37Z</time>
      </trkpt>
      <trkpt lat="41.93545" lon="1.247696">
        <time>2022-07-08T10:56:38Z</time>
      </trkpt>
      <trkpt lat="41.93549" lon="1.2477511">
        <time>2022-07-08T10:56:39Z</time>
      </trkpt>
      <trkpt lat="41.935524" lon="1.2478044">
        <time>2022-07-08T10:56:40Z</time>
      </trkpt>
      <trkpt lat="41.93556" lon="1.247861">
        <time>2022-07-08T10:56:41Z</time>
      </trkpt>
      <trkpt lat="41.935596" lon="1.24792">
        <time>2022-07-08T10:56:42Z</time>
      </trkpt>
      <trkpt lat="41.935673" lon="1.2480514">
        <time>2022-07-08T10:56:44Z</time>
      </trkpt>
      <trkpt lat="41.93571" lon="1.2481177">
        <time>2022-07-08T10:56:45Z</time>
      </trkpt>
      <trkpt lat="41.93575" lon="1.2481844">
        <time>2022-07-08T10:56:46Z</time>
      </trkpt>
      <trkpt lat="41.93578" lon="1.2482514">
        <time>2022-07-08T10:56:47Z</time>
      </trkpt>
      <trkpt lat="41.935814" lon="1.2483194">
        <time>2022-07-08T10:56:48Z</time>
      </trkpt>
      <trkpt lat="41.935844" lon="1.248389">
        <time>2022-07-08T10:56:49Z</time>
      </trkpt>
      <trkpt lat="41.935875" lon="1.2484634">
        <time>2022-07-08T10:56:50Z</time>
      </trkpt>
      <trkpt lat="41.9359" lon="1.2485324">
        <time>2022-07-08T10:56:51Z</time>
      </trkpt>
      <trkpt lat="41.935932" lon="1.2486014">
        <time>2022-07-08T10:56:52Z</time>
      </trkpt>
      <trkpt lat="41.93596" lon="1.2486703">
        <time>2022-07-08T10:56:53Z</time>
      </trkpt>
      <trkpt lat="41.935986" lon="1.2487404">
        <time>2022-07-08T10:56:54Z</time>
      </trkpt>
      <trkpt lat="41.93601" lon="1.2488093">
        <time>2022-07-08T10:56:55Z</time>
      </trkpt>
      <trkpt lat="41.93603" lon="1.2488813">
        <time>2022-07-08T10:56:56Z</time>
      </trkpt>
      <trkpt lat="41.936054" lon="1.2489461">
        <time>2022-07-08T10:56:57Z</time>
      </trkpt>
      <trkpt lat="41.936073" lon="1.2490103">
        <time>2022-07-08T10:56:58Z</time>
      </trkpt>
      <trkpt lat="41.936092" lon="1.2490777">
        <time>2022-07-08T10:56:59Z</time>
      </trkpt>
      <trkpt lat="41.936108" lon="1.2491394">
        <time>2022-07-08T10:57:00Z</time>
      </trkpt>
      <trkpt lat="41.93614" lon="1.2492627">
        <time>2022-07-08T10:57:02Z</time>
      </trkpt>
      <trkpt lat="41.936165" lon="1.249379">
        <time>2022-07-08T10:57:04Z</time>
      </trkpt>
      <trkpt lat="41.936188" lon="1.2495004">
        <time>2022-07-08T10:57:06Z</time>
      </trkpt>
      <trkpt lat="41.9362" lon="1.2495574">
        <time>2022-07-08T10:57:07Z</time>
      </trkpt>
      <trkpt lat="41.936222" lon="1.2496787">
        <time>2022-07-08T10:57:09Z</time>
      </trkpt>
      <trkpt lat="41.936234" lon="1.2497411">
        <time>2022-07-08T10:57:10Z</time>
      </trkpt>
      <trkpt lat="41.93626" lon="1.2498614">
        <time>2022-07-08T10:57:12Z</time>
      </trkpt>
      <trkpt lat="41.936283" lon="1.2499846">
        <time>2022-07-08T10:57:14Z</time>
      </trkpt>
      <trkpt lat="41.936306" lon="1.2501084">
        <time>2022-07-08T10:57:16Z</time>
      </trkpt>
      <trkpt lat="41.936314" lon="1.2501644">
        <time>2022-07-08T10:57:17Z</time>
      </trkpt>
      <trkpt lat="41.936337" lon="1.2502797">
        <time>2022-07-08T10:57:19Z</time>
      </trkpt>
      <trkpt lat="41.936356" lon="1.2503994">
        <time>2022-07-08T10:57:21Z</time>
      </trkpt>
      <trkpt lat="41.936382" lon="1.2505157">
        <time>2022-07-08T10:57:23Z</time>
      </trkpt>
      <trkpt lat="41.9364" lon="1.2506334">
        <time>2022-07-08T10:57:25Z</time>
      </trkpt>
      <trkpt lat="41.936424" lon="1.250752">
        <time>2022-07-08T10:57:27Z</time>
      </trkpt>
      <trkpt lat="41.936447" lon="1.2508609">
        <time>2022-07-08T10:57:29Z</time>
      </trkpt>
      <trkpt lat="41.93647" lon="1.2509753">
        <time>2022-07-08T10:57:31Z</time>
      </trkpt>
      <trkpt lat="41.93649" lon="1.251087">
        <time>2022-07-08T10:57:33Z</time>
      </trkpt>
      <trkpt lat="41.93651" lon="1.251199">
        <time>2022-07-08T10:57:35Z</time>
      </trkpt>
      <trkpt lat="41.93653" lon="1.2513133">
        <time>2022-07-08T10:57:37Z</time>
      </trkpt>
      <trkpt lat="41.936554" lon="1.2514223">
        <time>2022-07-08T10:57:39Z</time>
      </trkpt>
      <trkpt lat="41.936577" lon="1.2515336">
        <time>2022-07-08T10:57:41Z</time>
      </trkpt>
      <trkpt lat="41.936604" lon="1.251653">
        <time>2022-07-08T10:57:43Z</time>
      </trkpt>
      <trkpt lat="41.93663" lon="1.2517639">
        <time>2022-07-08T10:57:45Z</time>
      </trkpt>
      <trkpt lat="41.93666" lon="1.2518812">
        <time>2022-07-08T10:57:47Z</time>
      </trkpt>
      <trkpt lat="41.9367" lon="1.251998">
        <time>2022-07-08T10:57:49Z</time>
      </trkpt>
      <trkpt lat="41.936718" lon="1.2520553">
        <time>2022-07-08T10:57:50Z</time>
      </trkpt>
      <trkpt lat="41.93676" lon="1.2521739">
        <time>2022-07-08T10:57:52Z</time>
      </trkpt>
      <trkpt lat="41.93678" lon="1.2522312">
        <time>2022-07-08T10:57:53Z</time>
      </trkpt>
      <trkpt lat="41.936825" lon="1.2523513">
        <time>2022-07-08T10:57:55Z</time>
      </trkpt>
      <trkpt lat="41.936848" lon="1.252409">
        <time>2022-07-08T10:57:56Z</time>
      </trkpt>
      <trkpt lat="41.936897" lon="1.2525183">
        <time>2022-07-08T10:57:58Z</time>
      </trkpt>
      <trkpt lat="41.936943" lon="1.2526222">
        <time>2022-07-08T10:58:00Z</time>
      </trkpt>
      <trkpt lat="41.93699" lon="1.2527239">
        <time>2022-07-08T10:58:02Z</time>
      </trkpt>
      <trkpt lat="41.93704" lon="1.2528253">
        <time>2022-07-08T10:58:04Z</time>
      </trkpt>
      <trkpt lat="41.937115" lon="1.2529732">
        <time>2022-07-08T10:58:07Z</time>
      </trkpt>
      <trkpt lat="41.937164" lon="1.2530699">
        <time>2022-07-08T10:58:09Z</time>
      </trkpt>
      <trkpt lat="41.937218" lon="1.2531669">
        <time>2022-07-08T10:58:11Z</time>
      </trkpt>
      <trkpt lat="41.93727" lon="1.2532632">
        <time>2022-07-08T10:58:13Z</time>
      </trkpt>
      <trkpt lat="41.937325" lon="1.2533582">
        <time>2022-07-08T10:58:15Z</time>
      </trkpt>
      <trkpt lat="41.937378" lon="1.2534553">
        <time>2022-07-08T10:58:17Z</time>
      </trkpt>
      <trkpt lat="41.93743" lon="1.2535505">
        <time>2022-07-08T10:58:19Z</time>
      </trkpt>
      <trkpt lat="41.937485" lon="1.2536442">
        <time>2022-07-08T10:58:21Z</time>
      </trkpt>
      <trkpt lat="41.937534" lon="1.2537383">
        <time>2022-07-08T10:58:23Z</time>
      </trkpt>
      <trkpt lat="41.937584" lon="1.2538322">
        <time>2022-07-08T10:58:25Z</time>
      </trkpt>
      <trkpt lat="41.93763" lon="1.2539222">
        <time>2022-07-08T10:58:27Z</time>
      </trkpt>
      <trkpt lat="41.937675" lon="1.2540132">
        <time>2022-07-08T10:58:29Z</time>
      </trkpt>
      <trkpt lat="41.93773" lon="1.2540998">
        <time>2022-07-08T10:58:31Z</time>
      </trkpt>
      <trkpt lat="41.937786" lon="1.2541839">
        <time>2022-07-08T10:58:33Z</time>
      </trkpt>
      <trkpt lat="41.937836" lon="1.2542669">
        <time>2022-07-08T10:58:35Z</time>
      </trkpt>
      <trkpt lat="41.937885" lon="1.2543489">
        <time>2022-07-08T10:58:37Z</time>
      </trkpt>
      <trkpt lat="41.937935" lon="1.2544369">
        <time>2022-07-08T10:58:39Z</time>
      </trkpt>
      <trkpt lat="41.937984" lon="1.2545252">
        <time>2022-07-08T10:58:41Z</time>
      </trkpt>
      <trkpt lat="41.938026" lon="1.2546122">
        <time>2022-07-08T10:58:43Z</time>
      </trkpt>
      <trkpt lat="41.938072" lon="1.2546976">
        <time>2022-07-08T10:58:45Z</time>
      </trkpt>
      <trkpt lat="41.938118" lon="1.2547772">
        <time>2022-07-08T10:58:47Z</time>
      </trkpt>
      <trkpt lat="41.938164" lon="1.2548639">
        <time>2022-07-08T10:58:49Z</time>
      </trkpt>
      <trkpt lat="41.938213" lon="1.2549479">
        <time>2022-07-08T10:58:51Z</time>
      </trkpt>
      <trkpt lat="41.93826" lon="1.2550296">
        <time>2022-07-08T10:58:53Z</time>
      </trkpt>
      <trkpt lat="41.938305" lon="1.2551112">
        <time>2022-07-08T10:58:55Z</time>
      </trkpt>
      <trkpt lat="41.93835" lon="1.2551955">
        <time>2022-07-08T10:58:57Z</time>
      </trkpt>
      <trkpt lat="41.938396" lon="1.2552792">
        <time>2022-07-08T10:58:59Z</time>
      </trkpt>
      <trkpt lat="41.938446" lon="1.2553649">
        <time>2022-07-08T10:59:01Z</time>
      </trkpt>
      <trkpt lat="41.93849" lon="1.2554522">
        <time>2022-07-08T10:59:03Z</time>
      </trkpt>
      <trkpt lat="41.938538" lon="1.2555398">
        <time>2022-07-08T10:59:05Z</time>
      </trkpt>
      <trkpt lat="41.938587" lon="1.2556275">
        <time>2022-07-08T10:59:07Z</time>
      </trkpt>
      <trkpt lat="41.938633" lon="1.2557151">
        <time>2022-07-08T10:59:09Z</time>
      </trkpt>
      <trkpt lat="41.93868" lon="1.2558025">
        <time>2022-07-08T10:59:11Z</time>
      </trkpt>
      <trkpt lat="41.938725" lon="1.2558879">
        <time>2022-07-08T10:59:13Z</time>
      </trkpt>
      <trkpt lat="41.938774" lon="1.2559755">
        <time>2022-07-08T10:59:15Z</time>
      </trkpt>
      <trkpt lat="41.938824" lon="1.2560638">
        <time>2022-07-08T10:59:17Z</time>
      </trkpt>
      <trkpt lat="41.938873" lon="1.2561508">
        <time>2022-07-08T10:59:19Z</time>
      </trkpt>
      <trkpt lat="41.938923" lon="1.2562377">
        <time>2022-07-08T10:59:21Z</time>
      </trkpt>
      <trkpt lat="41.93897" lon="1.2563235">
        <time>2022-07-08T10:59:23Z</time>
      </trkpt>
      <trkpt lat="41.939037" lon="1.2564528">
        <time>2022-07-08T10:59:26Z</time>
      </trkpt>
      <trkpt lat="41.939087" lon="1.2565415">
        <time>2022-07-08T10:59:28Z</time>
      </trkpt>
      <trkpt lat="41.939137" lon="1.2566291">
        <time>2022-07-08T10:59:30Z</time>
      </trkpt>
      <trkpt lat="41.939186" lon="1.2567137">
        <time>2022-07-08T10:59:32Z</time>
      </trkpt>
      <trkpt lat="41.939236" lon="1.2567974">
        <time>2022-07-08T10:59:34Z</time>
      </trkpt>
      <trkpt lat="41.93928" lon="1.2568794">
        <time>2022-07-08T10:59:36Z</time>
      </trkpt>
      <trkpt lat="41.939335" lon="1.2569678">
        <time>2022-07-08T10:59:38Z</time>
      </trkpt>
      <trkpt lat="41.93939" lon="1.2570571">
        <time>2022-07-08T10:59:40Z</time>
      </trkpt>
      <trkpt lat="41.93944" lon="1.2571521">
        <time>2022-07-08T10:59:42Z</time>
      </trkpt>
      <trkpt lat="41.939495" lon="1.2572497">
        <time>2022-07-08T10:59:44Z</time>
      </trkpt>
      <trkpt lat="41.939545" lon="1.2573471">
        <time>2022-07-08T10:59:46Z</time>
      </trkpt>
      <trkpt lat="41.939594" lon="1.2574427">
        <time>2022-07-08T10:59:48Z</time>
      </trkpt>
      <trkpt lat="41.939648" lon="1.2575457">
        <time>2022-07-08T10:59:50Z</time>
      </trkpt>
      <trkpt lat="41.939674" lon="1.2575954">
        <time>2022-07-08T10:59:51Z</time>
      </trkpt>
      <trkpt lat="41.93973" lon="1.257699">
        <time>2022-07-08T10:59:53Z</time>
      </trkpt>
      <trkpt lat="41.939793" lon="1.2578081">
        <time>2022-07-08T10:59:55Z</time>
      </trkpt>
      <trkpt lat="41.939823" lon="1.2578651">
        <time>2022-07-08T10:59:56Z</time>
      </trkpt>
      <trkpt lat="41.939888" lon="1.2579857">
        <time>2022-07-08T10:59:58Z</time>
      </trkpt>
      <trkpt lat="41.939922" lon="1.2580477">
        <time>2022-07-08T10:59:59Z</time>
      </trkpt>
      <trkpt lat="41.939957" lon="1.2581097">
        <time>2022-07-08T11:00:00Z</time>
      </trkpt>
      <trkpt lat="41.93999" lon="1.2581728">
        <time>2022-07-08T11:00:01Z</time>
      </trkpt>
      <trkpt lat="41.940025" lon="1.2582414">
        <time>2022-07-08T11:00:02Z</time>
      </trkpt>
      <trkpt lat="41.940063" lon="1.2583127">
        <time>2022-07-08T11:00:03Z</time>
      </trkpt>
      <trkpt lat="41.9401" lon="1.2583773">
        <time>2022-07-08T11:00:04Z</time>
      </trkpt>
      <trkpt lat="41.940136" lon="1.258441">
        <time>2022-07-08T11:00:05Z</time>
      </trkpt>
      <trkpt lat="41.94017" lon="1.2585061">
        <time>2022-07-08T11:00:06Z</time>
      </trkpt>
      <trkpt lat="41.94021" lon="1.2585714">
        <time>2022-07-08T11:00:07Z</time>
      </trkpt>
      <trkpt lat="41.940243" lon="1.2586377">
        <time>2022-07-08T11:00:08Z</time>
      </trkpt>
      <trkpt lat="41.940277" lon="1.2586997">
        <time>2022-07-08T11:00:09Z</time>
      </trkpt>
      <trkpt lat="41.94031" lon="1.2587627">
        <time>2022-07-08T11:00:10Z</time>
      </trkpt>
      <trkpt lat="41.94035" lon="1.2588314">
        <time>2022-07-08T11:00:11Z</time>
      </trkpt>
      <trkpt lat="41.94039" lon="1.258903">
        <time>2022-07-08T11:00:12Z</time>
      </trkpt>
      <trkpt lat="41.940434" lon="1.2589737">
        <time>2022-07-08T11:00:13Z</time>
      </trkpt>
      <trkpt lat="41.940475" lon="1.259044">
        <time>2022-07-08T11:00:14Z</time>
      </trkpt>
      <trkpt lat="41.940517" lon="1.259115">
        <time>2022-07-08T11:00:15Z</time>
      </trkpt>
      <trkpt lat="41.940556" lon="1.2591857">
        <time>2022-07-08T11:00:16Z</time>
      </trkpt>
      <trkpt lat="41.94059" lon="1.259251">
        <time>2022-07-08T11:00:17Z</time>
      </trkpt>
      <trkpt lat="41.94063" lon="1.2593206">
        <time>2022-07-08T11:00:18Z</time>
      </trkpt>
      <trkpt lat="41.94067" lon="1.2593857">
        <time>2022-07-08T11:00:19Z</time>
      </trkpt>
      <trkpt lat="41.940712" lon="1.259451">
        <time>2022-07-08T11:00:20Z</time>
      </trkpt>
      <trkpt lat="41.940754" lon="1.2595156">
        <time>2022-07-08T11:00:21Z</time>
      </trkpt>
      <trkpt lat="41.940796" lon="1.2595806">
        <time>2022-07-08T11:00:22Z</time>
      </trkpt>
      <trkpt lat="41.940838" lon="1.2596503">
        <time>2022-07-08T11:00:23Z</time>
      </trkpt>
      <trkpt lat="41.940876" lon="1.2597203">
        <time>2022-07-08T11:00:24Z</time>
      </trkpt>
      <trkpt lat="41.940914" lon="1.2597886">
        <time>2022-07-08T11:00:25Z</time>
      </trkpt>
      <trkpt lat="41.94095" lon="1.2598523">
        <time>2022-07-08T11:00:26Z</time>
      </trkpt>
      <trkpt lat="41.940983" lon="1.2599183">
        <time>2022-07-08T11:00:27Z</time>
      </trkpt>
      <trkpt lat="41.941017" lon="1.259985">
        <time>2022-07-08T11:00:28Z</time>
      </trkpt>
      <trkpt lat="41.941055" lon="1.2600516">
        <time>2022-07-08T11:00:29Z</time>
      </trkpt>
      <trkpt lat="41.941093" lon="1.2601249">
        <time>2022-07-08T11:00:30Z</time>
      </trkpt>
      <trkpt lat="41.941128" lon="1.260193">
        <time>2022-07-08T11:00:31Z</time>
      </trkpt>
      <trkpt lat="41.941166" lon="1.2602619">
        <time>2022-07-08T11:00:32Z</time>
      </trkpt>
      <trkpt lat="41.941204" lon="1.2603296">
        <time>2022-07-08T11:00:33Z</time>
      </trkpt>
      <trkpt lat="41.94124" lon="1.260397">
        <time>2022-07-08T11:00:34Z</time>
      </trkpt>
      <trkpt lat="41.941277" lon="1.2604636">
        <time>2022-07-08T11:00:35Z</time>
      </trkpt>
      <trkpt lat="41.941315" lon="1.2605306">
        <time>2022-07-08T11:00:36Z</time>
      </trkpt>
      <trkpt lat="41.94135" lon="1.2605983">
        <time>2022-07-08T11:00:37Z</time>
      </trkpt>
      <trkpt lat="41.941387" lon="1.2606646">
        <time>2022-07-08T11:00:38Z</time>
      </trkpt>
      <trkpt lat="41.94142" lon="1.2607292">
        <time>2022-07-08T11:00:39Z</time>
      </trkpt>
      <trkpt lat="41.94146" lon="1.2607965">
        <time>2022-07-08T11:00:40Z</time>
      </trkpt>
      <trkpt lat="41.94149" lon="1.2608572">
        <time>2022-07-08T11:00:41Z</time>
      </trkpt>
      <trkpt lat="41.941525" lon="1.2609179">
        <time>2022-07-08T11:00:42Z</time>
      </trkpt>
      <trkpt lat="41.941555" lon="1.2609782">
        <time>2022-07-08T11:00:43Z</time>
      </trkpt>
      <trkpt lat="41.94162" lon="1.2610966">
        <time>2022-07-08T11:00:45Z</time>
      </trkpt>
      <trkpt lat="41.941654" lon="1.2611595">
        <time>2022-07-08T11:00:46Z</time>
      </trkpt>
      <trkpt lat="41.941685" lon="1.2612176">
        <time>2022-07-08T11:00:47Z</time>
      </trkpt>
      <trkpt lat="41.941715" lon="1.2612759">
        <time>2022-07-08T11:00:48Z</time>
      </trkpt>
      <trkpt lat="41.941746" lon="1.2613329">
        <time>2022-07-08T11:00:49Z</time>
      </trkpt>
      <trkpt lat="41.941776" lon="1.2613899">
        <time>2022-07-08T11:00:50Z</time>
      </trkpt>
      <trkpt lat="41.941807" lon="1.2614468">
        <time>2022-07-08T11:00:51Z</time>
      </trkpt>
      <trkpt lat="41.941868" lon="1.2615582">
        <time>2022-07-08T11:00:53Z</time>
      </trkpt>
      <trkpt lat="41.941895" lon="1.2616125">
        <time>2022-07-08T11:00:54Z</time>
      </trkpt>
      <trkpt lat="41.94195" lon="1.2617162">
        <time>2022-07-08T11:00:56Z</time>
      </trkpt>
      <trkpt lat="41.942005" lon="1.2618155">
        <time>2022-07-08T11:00:58Z</time>
      </trkpt>
      <trkpt lat="41.942055" lon="1.2619102">
        <time>2022-07-08T11:01:00Z</time>
      </trkpt>
      <trkpt lat="41.942097" lon="1.2620019">
        <time>2022-07-08T11:01:02Z</time>
      </trkpt>
      <trkpt lat="41.942142" lon="1.2620852">
        <time>2022-07-08T11:01:04Z</time>
      </trkpt>
      <trkpt lat="41.94219" lon="1.2621669">
        <time>2022-07-08T11:01:06Z</time>
      </trkpt>
      <trkpt lat="41.94223" lon="1.2622502">
        <time>2022-07-08T11:01:08Z</time>
      </trkpt>
      <trkpt lat="41.942272" lon="1.2623268">
        <time>2022-07-08T11:01:10Z</time>
      </trkpt>
      <trkpt lat="41.942318" lon="1.2624059">
        <time>2022-07-08T11:01:12Z</time>
      </trkpt>
      <trkpt lat="41.942356" lon="1.2624822">
        <time>2022-07-08T11:01:14Z</time>
      </trkpt>
      <trkpt lat="41.942394" lon="1.2625575">
        <time>2022-07-08T11:01:16Z</time>
      </trkpt>
      <trkpt lat="41.942436" lon="1.2626345">
        <time>2022-07-08T11:01:18Z</time>
      </trkpt>
      <trkpt lat="41.94248" lon="1.2627065">
        <time>2022-07-08T11:01:20Z</time>
      </trkpt>
      <trkpt lat="41.942516" lon="1.2627765">
        <time>2022-07-08T11:01:22Z</time>
      </trkpt>
      <trkpt lat="41.94256" lon="1.2628461">
        <time>2022-07-08T11:01:24Z</time>
      </trkpt>
      <trkpt lat="41.942596" lon="1.2629145">
        <time>2022-07-08T11:01:26Z</time>
      </trkpt>
      <trkpt lat="41.942635" lon="1.2629818">
        <time>2022-07-08T11:01:28Z</time>
      </trkpt>
      <trkpt lat="41.942673" lon="1.2630498">
        <time>2022-07-08T11:01:30Z</time>
      </trkpt>
      <trkpt lat="41.94271" lon="1.2631174">
        <time>2022-07-08T11:01:32Z</time>
      </trkpt>
      <trkpt lat="41.94275" lon="1.2631844">
        <time>2022-07-08T11:01:34Z</time>
      </trkpt>
      <trkpt lat="41.942787" lon="1.2632521">
        <time>2022-07-08T11:01:36Z</time>
      </trkpt>
      <trkpt lat="41.942825" lon="1.2633232">
        <time>2022-07-08T11:01:38Z</time>
      </trkpt>
      <trkpt lat="41.942863" lon="1.2633928">
        <time>2022-07-08T11:01:40Z</time>
      </trkpt>
      <trkpt lat="41.942898" lon="1.2634602">
        <time>2022-07-08T11:01:42Z</time>
      </trkpt>
      <trkpt lat="41.942936" lon="1.2635291">
        <time>2022-07-08T11:01:44Z</time>
      </trkpt>
      <trkpt lat="41.942978" lon="1.2635968">
        <time>2022-07-08T11:01:46Z</time>
      </trkpt>
      <trkpt lat="41.943016" lon="1.2636658">
        <time>2022-07-08T11:01:48Z</time>
      </trkpt>
      <trkpt lat="41.943054" lon="1.2637337">
        <time>2022-07-08T11:01:50Z</time>
      </trkpt>
      <trkpt lat="41.943092" lon="1.2638018">
        <time>2022-07-08T11:01:52Z</time>
      </trkpt>
      <trkpt lat="41.943127" lon="1.2638694">
        <time>2022-07-08T11:01:54Z</time>
      </trkpt>
      <trkpt lat="41.943165" lon="1.2639388">
        <time>2022-07-08T11:01:56Z</time>
      </trkpt>
      <trkpt lat="41.943203" lon="1.2640091">
        <time>2022-07-08T11:01:58Z</time>
      </trkpt>
      <trkpt lat="41.943237" lon="1.2640798">
        <time>2022-07-08T11:02:00Z</time>
      </trkpt>
      <trkpt lat="41.943295" lon="1.2641871">
        <time>2022-07-08T11:02:03Z</time>
      </trkpt>
      <trkpt lat="41.94333" lon="1.2642554">
        <time>2022-07-08T11:02:05Z</time>
      </trkpt>
      <trkpt lat="41.943367" lon="1.2643278">
        <time>2022-07-08T11:02:07Z</time>
      </trkpt>
      <trkpt lat="41.943405" lon="1.2643974">
        <time>2022-07-08T11:02:09Z</time>
      </trkpt>
      <trkpt lat="41.943443" lon="1.2644657">
        <time>2022-07-08T11:02:11Z</time>
      </trkpt>
      <trkpt lat="41.943485" lon="1.2645358">
        <time>2022-07-08T11:02:13Z</time>
      </trkpt>
      <trkpt lat="41.943523" lon="1.2646058">
        <time>2022-07-08T11:02:15Z</time>
      </trkpt>
      <trkpt lat="41.94356" lon="1.2646767">
        <time>2022-07-08T11:02:17Z</time>
      </trkpt>
      <trkpt lat="41.943604" lon="1.2647481">
        <time>2022-07-08T11:02:19Z</time>
      </trkpt>
      <trkpt lat="41.94364" lon="1.2648174">
        <time>2022-07-08T11:02:21Z</time>
      </trkpt>
      <trkpt lat="41.943676" lon="1.2648867">
        <time>2022-07-08T11:02:23Z</time>
      </trkpt>
      <trkpt lat="41.943718" lon="1.2649561">
        <time>2022-07-08T11:02:25Z</time>
      </trkpt>
      <trkpt lat="41.943756" lon="1.2650241">
        <time>2022-07-08T11:02:27Z</time>
      </trkpt>
      <trkpt lat="41.943794" lon="1.2650934">
        <time>2022-07-08T11:02:29Z</time>
      </trkpt>
      <trkpt lat="41.943832" lon="1.2651588">
        <time>2022-07-08T11:02:31Z</time>
      </trkpt>
      <trkpt lat="41.943886" lon="1.2652471">
        <time>2022-07-08T11:02:34Z</time>
      </trkpt>
      <trkpt lat="41.943928" lon="1.2653234">
        <time>2022-07-08T11:02:36Z</time>
      </trkpt>
      <trkpt lat="41.94397" lon="1.2653967">
        <time>2022-07-08T11:02:38Z</time>
      </trkpt>
      <trkpt lat="41.944" lon="1.2654641">
        <time>2022-07-08T11:02:40Z</time>
      </trkpt>
      <trkpt lat="41.94404" lon="1.2655354">
        <time>2022-07-08T11:02:42Z</time>
      </trkpt>
      <trkpt lat="41.94408" lon="1.265605">
        <time>2022-07-08T11:02:44Z</time>
      </trkpt>
      <trkpt lat="41.944122" lon="1.2656736">
        <time>2022-07-08T11:02:46Z</time>
      </trkpt>
      <trkpt lat="41.94416" lon="1.265741">
        <time>2022-07-08T11:02:48Z</time>
      </trkpt>
      <trkpt lat="41.944195" lon="1.2658107">
        <time>2022-07-08T11:02:50Z</time>
      </trkpt>
      <trkpt lat="41.944233" lon="1.2658796">
        <time>2022-07-08T11:02:52Z</time>
      </trkpt>
      <trkpt lat="41.94427" lon="1.2659466">
        <time>2022-07-08T11:02:54Z</time>
      </trkpt>
      <trkpt lat="41.944305" lon="1.2660134">
        <time>2022-07-08T11:02:56Z</time>
      </trkpt>
      <trkpt lat="41.944344" lon="1.2660787">
        <time>2022-07-08T11:02:58Z</time>
      </trkpt>
      <trkpt lat="41.944378" lon="1.2661483">
        <time>2022-07-08T11:03:00Z</time>
      </trkpt>
      <trkpt lat="41.944412" lon="1.2662174">
        <time>2022-07-08T11:03:02Z</time>
      </trkpt>
      <trkpt lat="41.944443" lon="1.2662873">
        <time>2022-07-08T11:03:04Z</time>
      </trkpt>
      <trkpt lat="41.944477" lon="1.2663603">
        <time>2022-07-08T11:03:06Z</time>
      </trkpt>
      <trkpt lat="41.94451" lon="1.2664304">
        <time>2022-07-08T11:03:08Z</time>
      </trkpt>
      <trkpt lat="41.94455" lon="1.2665013">
        <time>2022-07-08T11:03:10Z</time>
      </trkpt>
      <trkpt lat="41.94458" lon="1.2665666">
        <time>2022-07-08T11:03:12Z</time>
      </trkpt>
      <trkpt lat="41.944614" lon="1.266644">
        <time>2022-07-08T11:03:14Z</time>
      </trkpt>
      <trkpt lat="41.94465" lon="1.2667173">
        <time>2022-07-08T11:03:16Z</time>
      </trkpt>
      <trkpt lat="41.944683" lon="1.2667903">
        <time>2022-07-08T11:03:18Z</time>
      </trkpt>
      <trkpt lat="41.944717" lon="1.2668637">
        <time>2022-07-08T11:03:20Z</time>
      </trkpt>
      <trkpt lat="41.944748" lon="1.2669363">
        <time>2022-07-08T11:03:22Z</time>
      </trkpt>
      <trkpt lat="41.944782" lon="1.2670093">
        <time>2022-07-08T11:03:24Z</time>
      </trkpt>
      <trkpt lat="41.944817" lon="1.267079">
        <time>2022-07-08T11:03:26Z</time>
      </trkpt>
      <trkpt lat="41.94485" lon="1.2671503">
        <time>2022-07-08T11:03:28Z</time>
      </trkpt>
      <trkpt lat="41.94488" lon="1.2672193">
        <time>2022-07-08T11:03:30Z</time>
      </trkpt>
      <trkpt lat="41.944916" lon="1.2672956">
        <time>2022-07-08T11:03:32Z</time>
      </trkpt>
      <trkpt lat="41.94495" lon="1.2673666">
        <time>2022-07-08T11:03:34Z</time>
      </trkpt>
      <trkpt lat="41.944984" lon="1.2674387">
        <time>2022-07-08T11:03:36Z</time>
      </trkpt>
      <trkpt lat="41.945023" lon="1.267516">
        <time>2022-07-08T11:03:38Z</time>
      </trkpt>
      <trkpt lat="41.94506" lon="1.2675912">
        <time>2022-07-08T11:03:40Z</time>
      </trkpt>
      <trkpt lat="41.945095" lon="1.2676636">
        <time>2022-07-08T11:03:42Z</time>
      </trkpt>
      <trkpt lat="41.94513" lon="1.2677376">
        <time>2022-07-08T11:03:44Z</time>
      </trkpt>
      <trkpt lat="41.94516" lon="1.2678123">
        <time>2022-07-08T11:03:46Z</time>
      </trkpt>
      <trkpt lat="41.945187" lon="1.2678889">
        <time>2022-07-08T11:03:48Z</time>
      </trkpt>
      <trkpt lat="41.945217" lon="1.267967">
        <time>2022-07-08T11:03:50Z</time>
      </trkpt>
      <trkpt lat="41.94524" lon="1.26804">
        <time>2022-07-08T11:03:52Z</time>
      </trkpt>
      <trkpt lat="41.94527" lon="1.2681127">
        <time>2022-07-08T11:03:54Z</time>
      </trkpt>
      <trkpt lat="41.945305" lon="1.268189">
        <time>2022-07-08T11:03:56Z</time>
      </trkpt>
      <trkpt lat="41.945335" lon="1.268268">
        <time>2022-07-08T11:03:58Z</time>
      </trkpt>
      <trkpt lat="41.945362" lon="1.2683439">
        <time>2022-07-08T11:04:00Z</time>
      </trkpt>
      <trkpt lat="41.94539" lon="1.2684176">
        <time>2022-07-08T11:04:02Z</time>
      </trkpt>
      <trkpt lat="41.945415" lon="1.268487">
        <time>2022-07-08T11:04:04Z</time>
      </trkpt>
      <trkpt lat="41.945446" lon="1.2685605">
        <time>2022-07-08T11:04:06Z</time>
      </trkpt>
      <trkpt lat="41.945473" lon="1.2686332">
        <time>2022-07-08T11:04:08Z</time>
      </trkpt>
      <trkpt lat="41.9455" lon="1.2687045">
        <time>2022-07-08T11:04:10Z</time>
      </trkpt>
      <trkpt lat="41.945522" lon="1.2687743">
        <time>2022-07-08T11:04:12Z</time>
      </trkpt>
      <trkpt lat="41.945545" lon="1.2688429">
        <time>2022-07-08T11:04:14Z</time>
      </trkpt>
      <trkpt lat="41.945568" lon="1.2689105">
        <time>2022-07-08T11:04:16Z</time>
      </trkpt>
      <trkpt lat="41.94559" lon="1.2689782">
        <time>2022-07-08T11:04:18Z</time>
      </trkpt>
      <trkpt lat="41.945614" lon="1.2690482">
        <time>2022-07-08T11:04:20Z</time>
      </trkpt>
      <trkpt lat="41.94563" lon="1.2691195">
        <time>2022-07-08T11:04:22Z</time>
      </trkpt>
      <trkpt lat="41.945656" lon="1.2691885">
        <time>2022-07-08T11:04:24Z</time>
      </trkpt>
      <trkpt lat="41.945683" lon="1.2692552">
        <time>2022-07-08T11:04:26Z</time>
      </trkpt>
      <trkpt lat="41.94571" lon="1.2693202">
        <time>2022-07-08T11:04:28Z</time>
      </trkpt>
      <trkpt lat="41.945736" lon="1.2693852">
        <time>2022-07-08T11:04:30Z</time>
      </trkpt>
      <trkpt lat="41.945763" lon="1.2694492">
        <time>2022-07-08T11:04:32Z</time>
      </trkpt>
      <trkpt lat="41.945793" lon="1.2695142">
        <time>2022-07-08T11:04:34Z</time>
      </trkpt>
      <trkpt lat="41.945824" lon="1.2695782">
        <time>2022-07-08T11:04:36Z</time>
      </trkpt>
      <trkpt lat="41.945854" lon="1.2696422">
        <time>2022-07-08T11:04:38Z</time>
      </trkpt>
      <trkpt lat="41.945885" lon="1.2697076">
        <time>2022-07-08T11:04:40Z</time>
      </trkpt>
      <trkpt lat="41.94591" lon="1.2697749">
        <time>2022-07-08T11:04:42Z</time>
      </trkpt>
      <trkpt lat="41.94594" lon="1.2698438">
        <time>2022-07-08T11:04:44Z</time>
      </trkpt>
      <trkpt lat="41.945957" lon="1.2699162">
        <time>2022-07-08T11:04:46Z</time>
      </trkpt>
      <trkpt lat="41.945972" lon="1.2699856">
        <time>2022-07-08T11:04:48Z</time>
      </trkpt>
      <trkpt lat="41.946" lon="1.2700546">
        <time>2022-07-08T11:04:50Z</time>
      </trkpt>
      <trkpt lat="41.946026" lon="1.2701225">
        <time>2022-07-08T11:04:52Z</time>
      </trkpt>
      <trkpt lat="41.946053" lon="1.2701886">
        <time>2022-07-08T11:04:54Z</time>
      </trkpt>
      <trkpt lat="41.94608" lon="1.2702558">
        <time>2022-07-08T11:04:56Z</time>
      </trkpt>
      <trkpt lat="41.946102" lon="1.2703232">
        <time>2022-07-08T11:04:58Z</time>
      </trkpt>
      <trkpt lat="41.94613" lon="1.2703892">
        <time>2022-07-08T11:05:00Z</time>
      </trkpt>
      <trkpt lat="41.946156" lon="1.2704538">
        <time>2022-07-08T11:05:02Z</time>
      </trkpt>
      <trkpt lat="41.946182" lon="1.2705204">
        <time>2022-07-08T11:05:04Z</time>
      </trkpt>
      <trkpt lat="41.94621" lon="1.2705865">
        <time>2022-07-08T11:05:06Z</time>
      </trkpt>
      <trkpt lat="41.94624" lon="1.2706531">
        <time>2022-07-08T11:05:08Z</time>
      </trkpt>
      <trkpt lat="41.946266" lon="1.2707201">
        <time>2022-07-08T11:05:10Z</time>
      </trkpt>
      <trkpt lat="41.946297" lon="1.2707888">
        <time>2022-07-08T11:05:12Z</time>
      </trkpt>
      <trkpt lat="41.946323" lon="1.2708569">
        <time>2022-07-08T11:05:14Z</time>
      </trkpt>
      <trkpt lat="41.946354" lon="1.2709235">
        <time>2022-07-08T11:05:16Z</time>
      </trkpt>
      <trkpt lat="41.94638" lon="1.2709914">
        <time>2022-07-08T11:05:18Z</time>
      </trkpt>
      <trkpt lat="41.946404" lon="1.2710584">
        <time>2022-07-08T11:05:20Z</time>
      </trkpt>
      <trkpt lat="41.94643" lon="1.2711278">
        <time>2022-07-08T11:05:22Z</time>
      </trkpt>
      <trkpt lat="41.946457" lon="1.2711978">
        <time>2022-07-08T11:05:24Z</time>
      </trkpt>
      <trkpt lat="41.946487" lon="1.2712688">
        <time>2022-07-08T11:05:26Z</time>
      </trkpt>
      <trkpt lat="41.946514" lon="1.2713398">
        <time>2022-07-08T11:05:28Z</time>
      </trkpt>
      <trkpt lat="41.946545" lon="1.2714125">
        <time>2022-07-08T11:05:30Z</time>
      </trkpt>
      <trkpt lat="41.946575" lon="1.2714862">
        <time>2022-07-08T11:05:32Z</time>
      </trkpt>
      <trkpt lat="41.946598" lon="1.2715567">
        <time>2022-07-08T11:05:34Z</time>
      </trkpt>
      <trkpt lat="41.946625" lon="1.2716318">
        <time>2022-07-08T11:05:36Z</time>
      </trkpt>
      <trkpt lat="41.94665" lon="1.2717061">
        <time>2022-07-08T11:05:38Z</time>
      </trkpt>
      <trkpt lat="41.946682" lon="1.2717794">
        <time>2022-07-08T11:05:40Z</time>
      </trkpt>
      <trkpt lat="41.946712" lon="1.2718564">
        <time>2022-07-08T11:05:42Z</time>
      </trkpt>
      <trkpt lat="41.946743" lon="1.2719338">
        <time>2022-07-08T11:05:44Z</time>
      </trkpt>
      <trkpt lat="41.946766" lon="1.2720088">
        <time>2022-07-08T11:05:46Z</time>
      </trkpt>
      <trkpt lat="41.946796" lon="1.2720784">
        <time>2022-07-08T11:05:48Z</time>
      </trkpt>
      <trkpt lat="41.946827" lon="1.2721491">
        <time>2022-07-08T11:05:50Z</time>
      </trkpt>
      <trkpt lat="41.946854" lon="1.2722235">
        <time>2022-07-08T11:05:52Z</time>
      </trkpt>
      <trkpt lat="41.946888" lon="1.2723044">
        <time>2022-07-08T11:05:54Z</time>
      </trkpt>
      <trkpt lat="41.946922" lon="1.2723861">
        <time>2022-07-08T11:05:56Z</time>
      </trkpt>
      <trkpt lat="41.946957" lon="1.272469">
        <time>2022-07-08T11:05:58Z</time>
      </trkpt>
      <trkpt lat="41.946995" lon="1.2725571">
        <time>2022-07-08T11:06:00Z</time>
      </trkpt>
      <trkpt lat="41.947033" lon="1.2726464">
        <time>2022-07-08T11:06:02Z</time>
      </trkpt>
      <trkpt lat="41.94707" lon="1.2727374">
        <time>2022-07-08T11:06:04Z</time>
      </trkpt>
      <trkpt lat="41.94711" lon="1.2728311">
        <time>2022-07-08T11:06:06Z</time>
      </trkpt>
      <trkpt lat="41.947144" lon="1.272927">
        <time>2022-07-08T11:06:08Z</time>
      </trkpt>
      <trkpt lat="41.947186" lon="1.2730217">
        <time>2022-07-08T11:06:10Z</time>
      </trkpt>
      <trkpt lat="41.947224" lon="1.2731144">
        <time>2022-07-08T11:06:12Z</time>
      </trkpt>
      <trkpt lat="41.94727" lon="1.273203">
        <time>2022-07-08T11:06:14Z</time>
      </trkpt>
      <trkpt lat="41.947308" lon="1.2733004">
        <time>2022-07-08T11:06:16Z</time>
      </trkpt>
      <trkpt lat="41.947346" lon="1.2733967">
        <time>2022-07-08T11:06:18Z</time>
      </trkpt>
      <trkpt lat="41.94738" lon="1.2734897">
        <time>2022-07-08T11:06:20Z</time>
      </trkpt>
      <trkpt lat="41.947414" lon="1.2735734">
        <time>2022-07-08T11:06:22Z</time>
      </trkpt>
      <trkpt lat="41.94745" lon="1.2736514">
        <time>2022-07-08T11:06:24Z</time>
      </trkpt>
      <trkpt lat="41.94748" lon="1.2737277">
        <time>2022-07-08T11:06:26Z</time>
      </trkpt>
      <trkpt lat="41.947514" lon="1.2738047">
        <time>2022-07-08T11:06:28Z</time>
      </trkpt>
      <trkpt lat="41.947544" lon="1.2738798">
        <time>2022-07-08T11:06:30Z</time>
      </trkpt>
      <trkpt lat="41.947575" lon="1.2739533">
        <time>2022-07-08T11:06:32Z</time>
      </trkpt>
      <trkpt lat="41.947605" lon="1.274024">
        <time>2022-07-08T11:06:34Z</time>
      </trkpt>
      <trkpt lat="41.94763" lon="1.2740943">
        <time>2022-07-08T11:06:36Z</time>
      </trkpt>
      <trkpt lat="41.94766" lon="1.274165">
        <time>2022-07-08T11:06:38Z</time>
      </trkpt>
      <trkpt lat="41.94769" lon="1.274236">
        <time>2022-07-08T11:06:40Z</time>
      </trkpt>
      <trkpt lat="41.947723" lon="1.2743083">
        <time>2022-07-08T11:06:42Z</time>
      </trkpt>
      <trkpt lat="41.947754" lon="1.2743814">
        <time>2022-07-08T11:06:44Z</time>
      </trkpt>
      <trkpt lat="41.94778" lon="1.274455">
        <time>2022-07-08T11:06:46Z</time>
      </trkpt>
      <trkpt lat="41.947807" lon="1.2745286">
        <time>2022-07-08T11:06:48Z</time>
      </trkpt>
      <trkpt lat="41.947838" lon="1.2746013">
        <time>2022-07-08T11:06:50Z</time>
      </trkpt>
      <trkpt lat="41.947865" lon="1.2746747">
        <time>2022-07-08T11:06:52Z</time>
      </trkpt>
      <trkpt lat="41.94789" lon="1.2747487">
        <time>2022-07-08T11:06:54Z</time>
      </trkpt>
      <trkpt lat="41.94792" lon="1.2748227">
        <time>2022-07-08T11:06:56Z</time>
      </trkpt>
      <trkpt lat="41.947945" lon="1.2749016">
        <time>2022-07-08T11:06:58Z</time>
      </trkpt>
      <trkpt lat="41.947975" lon="1.274975">
        <time>2022-07-08T11:07:00Z</time>
      </trkpt>
      <trkpt lat="41.948006" lon="1.2750477">
        <time>2022-07-08T11:07:02Z</time>
      </trkpt>
      <trkpt lat="41.948032" lon="1.2751223">
        <time>2022-07-08T11:07:04Z</time>
      </trkpt>
      <trkpt lat="41.94806" lon="1.2752004">
        <time>2022-07-08T11:07:06Z</time>
      </trkpt>
      <trkpt lat="41.948082" lon="1.2752739">
        <time>2022-07-08T11:07:08Z</time>
      </trkpt>
      <trkpt lat="41.948105" lon="1.275348">
        <time>2022-07-08T11:07:10Z</time>
      </trkpt>
      <trkpt lat="41.948124" lon="1.2754253">
        <time>2022-07-08T11:07:12Z</time>
      </trkpt>
      <trkpt lat="41.948147" lon="1.2754993">
        <time>2022-07-08T11:07:14Z</time>
      </trkpt>
      <trkpt lat="41.948174" lon="1.2755723">
        <time>2022-07-08T11:07:16Z</time>
      </trkpt>
      <trkpt lat="41.948204" lon="1.2756453">
        <time>2022-07-08T11:07:18Z</time>
      </trkpt>
      <trkpt lat="41.948235" lon="1.27572">
        <time>2022-07-08T11:07:20Z</time>
      </trkpt>
      <trkpt lat="41.948265" lon="1.275797">
        <time>2022-07-08T11:07:22Z</time>
      </trkpt>
      <trkpt lat="41.948296" lon="1.2758696">
        <time>2022-07-08T11:07:24Z</time>
      </trkpt>
      <trkpt lat="41.948322" lon="1.2759473">
        <time>2022-07-08T11:07:26Z</time>
      </trkpt>
      <trkpt lat="41.948345" lon="1.2760253">
        <time>2022-07-08T11:07:28Z</time>
      </trkpt>
      <trkpt lat="41.94837" lon="1.2761012">
        <time>2022-07-08T11:07:30Z</time>
      </trkpt>
      <trkpt lat="41.948402" lon="1.2761769">
        <time>2022-07-08T11:07:32Z</time>
      </trkpt>
      <trkpt lat="41.948433" lon="1.2762532">
        <time>2022-07-08T11:07:34Z</time>
      </trkpt>
      <trkpt lat="41.948463" lon="1.2763296">
        <time>2022-07-08T11:07:36Z</time>
      </trkpt>
      <trkpt lat="41.948494" lon="1.2764046">
        <time>2022-07-08T11:07:38Z</time>
      </trkpt>
      <trkpt lat="41.948524" lon="1.2764792">
        <time>2022-07-08T11:07:40Z</time>
      </trkpt>
      <trkpt lat="41.948547" lon="1.2765529">
        <time>2022-07-08T11:07:42Z</time>
      </trkpt>
      <trkpt lat="41.948574" lon="1.2766312">
        <time>2022-07-08T11:07:44Z</time>
      </trkpt>
      <trkpt lat="41.9486" lon="1.2767079">
        <time>2022-07-08T11:07:46Z</time>
      </trkpt>
      <trkpt lat="41.94863" lon="1.2767845">
        <time>2022-07-08T11:07:48Z</time>
      </trkpt>
      <trkpt lat="41.948666" lon="1.2768606">
        <time>2022-07-08T11:07:50Z</time>
      </trkpt>
      <trkpt lat="41.948692" lon="1.2769369">
        <time>2022-07-08T11:07:52Z</time>
      </trkpt>
      <trkpt lat="41.94873" lon="1.277054">
        <time>2022-07-08T11:07:55Z</time>
      </trkpt>
      <trkpt lat="41.948757" lon="1.2771279">
        <time>2022-07-08T11:07:57Z</time>
      </trkpt>
      <trkpt lat="41.94879" lon="1.2772012">
        <time>2022-07-08T11:07:59Z</time>
      </trkpt>
      <trkpt lat="41.948822" lon="1.2772799">
        <time>2022-07-08T11:08:01Z</time>
      </trkpt>
      <trkpt lat="41.948853" lon="1.2773592">
        <time>2022-07-08T11:08:03Z</time>
      </trkpt>
      <trkpt lat="41.94888" lon="1.2774402">
        <time>2022-07-08T11:08:05Z</time>
      </trkpt>
      <trkpt lat="41.948906" lon="1.2775209">
        <time>2022-07-08T11:08:07Z</time>
      </trkpt>
      <trkpt lat="41.948936" lon="1.2776035">
        <time>2022-07-08T11:08:09Z</time>
      </trkpt>
      <trkpt lat="41.94897" lon="1.2776822">
        <time>2022-07-08T11:08:11Z</time>
      </trkpt>
      <trkpt lat="41.949005" lon="1.2777562">
        <time>2022-07-08T11:08:13Z</time>
      </trkpt>
      <trkpt lat="41.949043" lon="1.2778322">
        <time>2022-07-08T11:08:15Z</time>
      </trkpt>
      <trkpt lat="41.949078" lon="1.2779086">
        <time>2022-07-08T11:08:17Z</time>
      </trkpt>
      <trkpt lat="41.949116" lon="1.2779878">
        <time>2022-07-08T11:08:19Z</time>
      </trkpt>
      <trkpt lat="41.94915" lon="1.2780691">
        <time>2022-07-08T11:08:21Z</time>
      </trkpt>
      <trkpt lat="41.949184" lon="1.2781535">
        <time>2022-07-08T11:08:23Z</time>
      </trkpt>
      <trkpt lat="41.949223" lon="1.2782375">
        <time>2022-07-08T11:08:25Z</time>
      </trkpt>
      <trkpt lat="41.949257" lon="1.2783258">
        <time>2022-07-08T11:08:27Z</time>
      </trkpt>
      <trkpt lat="41.949295" lon="1.2784119">
        <time>2022-07-08T11:08:29Z</time>
      </trkpt>
      <trkpt lat="41.949337" lon="1.2785025">
        <time>2022-07-08T11:08:31Z</time>
      </trkpt>
      <trkpt lat="41.949375" lon="1.2785928">
        <time>2022-07-08T11:08:33Z</time>
      </trkpt>
      <trkpt lat="41.949413" lon="1.2786855">
        <time>2022-07-08T11:08:35Z</time>
      </trkpt>
      <trkpt lat="41.94945" lon="1.2787855">
        <time>2022-07-08T11:08:37Z</time>
      </trkpt>
      <trkpt lat="41.949482" lon="1.2788866">
        <time>2022-07-08T11:08:39Z</time>
      </trkpt>
      <trkpt lat="41.949512" lon="1.2789868">
        <time>2022-07-08T11:08:41Z</time>
      </trkpt>
      <trkpt lat="41.949547" lon="1.2790878">
        <time>2022-07-08T11:08:43Z</time>
      </trkpt>
      <trkpt lat="41.949585" lon="1.2791874">
        <time>2022-07-08T11:08:45Z</time>
      </trkpt>
      <trkpt lat="41.949627" lon="1.2792875">
        <time>2022-07-08T11:08:47Z</time>
      </trkpt>
      <trkpt lat="41.94967" lon="1.2793912">
        <time>2022-07-08T11:08:49Z</time>
      </trkpt>
      <trkpt lat="41.94971" lon="1.2794964">
        <time>2022-07-08T11:08:51Z</time>
      </trkpt>
      <trkpt lat="41.949753" lon="1.2796001">
        <time>2022-07-08T11:08:53Z</time>
      </trkpt>
      <trkpt lat="41.949795" lon="1.2797048">
        <time>2022-07-08T11:08:55Z</time>
      </trkpt>
      <trkpt lat="41.94984" lon="1.2798111">
        <time>2022-07-08T11:08:57Z</time>
      </trkpt>
      <trkpt lat="41.94991" lon="1.2799708">
        <time>2022-07-08T11:09:00Z</time>
      </trkpt>
      <trkpt lat="41.949936" lon="1.2800261">
        <time>2022-07-08T11:09:01Z</time>
      </trkpt>
      <trkpt lat="41.94998" lon="1.2801408">
        <time>2022-07-08T11:09:03Z</time>
      </trkpt>
      <trkpt lat="41.950005" lon="1.2801981">
        <time>2022-07-08T11:09:04Z</time>
      </trkpt>
      <trkpt lat="41.95005" lon="1.2803104">
        <time>2022-07-08T11:09:06Z</time>
      </trkpt>
      <trkpt lat="41.950096" lon="1.2804188">
        <time>2022-07-08T11:09:08Z</time>
      </trkpt>
      <trkpt lat="41.950134" lon="1.2805281">
        <time>2022-07-08T11:09:10Z</time>
      </trkpt>
      <trkpt lat="41.95018" lon="1.2806371">
        <time>2022-07-08T11:09:12Z</time>
      </trkpt>
      <trkpt lat="41.950226" lon="1.2807451">
        <time>2022-07-08T11:09:14Z</time>
      </trkpt>
      <trkpt lat="41.950275" lon="1.2808511">
        <time>2022-07-08T11:09:16Z</time>
      </trkpt>
      <trkpt lat="41.950325" lon="1.2809571">
        <time>2022-07-08T11:09:18Z</time>
      </trkpt>
      <trkpt lat="41.950375" lon="1.2810631">
        <time>2022-07-08T11:09:20Z</time>
      </trkpt>
      <trkpt lat="41.950424" lon="1.2811674">
        <time>2022-07-08T11:09:22Z</time>
      </trkpt>
      <trkpt lat="41.950478" lon="1.2812737">
        <time>2022-07-08T11:09:24Z</time>
      </trkpt>
      <trkpt lat="41.950504" lon="1.2813268">
        <time>2022-07-08T11:09:25Z</time>
      </trkpt>
      <trkpt lat="41.95056" lon="1.281434">
        <time>2022-07-08T11:09:27Z</time>
      </trkpt>
      <trkpt lat="41.950615" lon="1.2815431">
        <time>2022-07-08T11:09:29Z</time>
      </trkpt>
      <trkpt lat="41.95064" lon="1.2815988">
        <time>2022-07-08T11:09:30Z</time>
      </trkpt>
      <trkpt lat="41.950687" lon="1.2817087">
        <time>2022-07-08T11:09:32Z</time>
      </trkpt>
      <trkpt lat="41.950737" lon="1.2818111">
        <time>2022-07-08T11:09:34Z</time>
      </trkpt>
      <trkpt lat="41.950794" lon="1.2819121">
        <time>2022-07-08T11:09:36Z</time>
      </trkpt>
      <trkpt lat="41.950848" lon="1.2820144">
        <time>2022-07-08T11:09:38Z</time>
      </trkpt>
      <trkpt lat="41.9509" lon="1.2821147">
        <time>2022-07-08T11:09:40Z</time>
      </trkpt>
      <trkpt lat="41.950954" lon="1.2822081">
        <time>2022-07-08T11:09:42Z</time>
      </trkpt>
      <trkpt lat="41.95101" lon="1.2823077">
        <time>2022-07-08T11:09:44Z</time>
      </trkpt>
      <trkpt lat="41.95107" lon="1.2824067">
        <time>2022-07-08T11:09:46Z</time>
      </trkpt>
      <trkpt lat="41.9511" lon="1.2824557">
        <time>2022-07-08T11:09:47Z</time>
      </trkpt>
      <trkpt lat="41.951153" lon="1.2825484">
        <time>2022-07-08T11:09:49Z</time>
      </trkpt>
      <trkpt lat="41.951214" lon="1.2826468">
        <time>2022-07-08T11:09:51Z</time>
      </trkpt>
      <trkpt lat="41.951267" lon="1.2827424">
        <time>2022-07-08T11:09:53Z</time>
      </trkpt>
      <trkpt lat="41.951324" lon="1.2828387">
        <time>2022-07-08T11:09:55Z</time>
      </trkpt>
      <trkpt lat="41.95138" lon="1.2829354">
        <time>2022-07-08T11:09:57Z</time>
      </trkpt>
      <trkpt lat="41.95144" lon="1.2830343">
        <time>2022-07-08T11:09:59Z</time>
      </trkpt>
      <trkpt lat="41.951492" lon="1.2831334">
        <time>2022-07-08T11:10:01Z</time>
      </trkpt>
      <trkpt lat="41.95155" lon="1.283231">
        <time>2022-07-08T11:10:03Z</time>
      </trkpt>
      <trkpt lat="41.951637" lon="1.2833767">
        <time>2022-07-08T11:10:06Z</time>
      </trkpt>
      <trkpt lat="41.9517" lon="1.283473">
        <time>2022-07-08T11:10:08Z</time>
      </trkpt>
      <trkpt lat="41.95176" lon="1.2835671">
        <time>2022-07-08T11:10:10Z</time>
      </trkpt>
      <trkpt lat="41.951786" lon="1.283613">
        <time>2022-07-08T11:10:11Z</time>
      </trkpt>
      <trkpt lat="41.95185" lon="1.2837054">
        <time>2022-07-08T11:10:13Z</time>
      </trkpt>
      <trkpt lat="41.951916" lon="1.283801">
        <time>2022-07-08T11:10:15Z</time>
      </trkpt>
      <trkpt lat="41.95195" lon="1.2838497">
        <time>2022-07-08T11:10:16Z</time>
      </trkpt>
      <trkpt lat="41.95202" lon="1.283947">
        <time>2022-07-08T11:10:18Z</time>
      </trkpt>
      <trkpt lat="41.952053" lon="1.283997">
        <time>2022-07-08T11:10:19Z</time>
      </trkpt>
      <trkpt lat="41.952126" lon="1.2840964">
        <time>2022-07-08T11:10:21Z</time>
      </trkpt>
      <trkpt lat="41.952168" lon="1.2841487">
        <time>2022-07-08T11:10:22Z</time>
      </trkpt>
      <trkpt lat="41.952206" lon="1.2842">
        <time>2022-07-08T11:10:23Z</time>
      </trkpt>
      <trkpt lat="41.952244" lon="1.2842517">
        <time>2022-07-08T11:10:24Z</time>
      </trkpt>
      <trkpt lat="41.952282" lon="1.284305">
        <time>2022-07-08T11:10:25Z</time>
      </trkpt>
      <trkpt lat="41.952316" lon="1.2843599">
        <time>2022-07-08T11:10:26Z</time>
      </trkpt>
      <trkpt lat="41.952354" lon="1.284415">
        <time>2022-07-08T11:10:27Z</time>
      </trkpt>
      <trkpt lat="41.952393" lon="1.2844666">
        <time>2022-07-08T11:10:28Z</time>
      </trkpt>
      <trkpt lat="41.952435" lon="1.2845186">
        <time>2022-07-08T11:10:29Z</time>
      </trkpt>
      <trkpt lat="41.95248" lon="1.284572">
        <time>2022-07-08T11:10:30Z</time>
      </trkpt>
      <trkpt lat="41.952522" lon="1.2846262">
        <time>2022-07-08T11:10:31Z</time>
      </trkpt>
      <trkpt lat="41.952568" lon="1.2846819">
        <time>2022-07-08T11:10:32Z</time>
      </trkpt>
      <trkpt lat="41.95261" lon="1.284739">
        <time>2022-07-08T11:10:33Z</time>
      </trkpt>
      <trkpt lat="41.952656" lon="1.284797">
        <time>2022-07-08T11:10:34Z</time>
      </trkpt>
      <trkpt lat="41.952705" lon="1.2848583">
        <time>2022-07-08T11:10:35Z</time>
      </trkpt>
      <trkpt lat="41.95275" lon="1.2849166">
        <time>2022-07-08T11:10:36Z</time>
      </trkpt>
      <trkpt lat="41.952805" lon="1.2849807">
        <time>2022-07-08T11:10:37Z</time>
      </trkpt>
      <trkpt lat="41.952858" lon="1.2850453">
        <time>2022-07-08T11:10:38Z</time>
      </trkpt>
      <trkpt lat="41.95291" lon="1.28511">
        <time>2022-07-08T11:10:39Z</time>
      </trkpt>
      <trkpt lat="41.95297" lon="1.2851743">
        <time>2022-07-08T11:10:40Z</time>
      </trkpt>
      <trkpt lat="41.953026" lon="1.2852342">
        <time>2022-07-08T11:10:41Z</time>
      </trkpt>
      <trkpt lat="41.953087" lon="1.285296">
        <time>2022-07-08T11:10:42Z</time>
      </trkpt>
      <trkpt lat="41.953156" lon="1.2853633">
        <time>2022-07-08T11:10:43Z</time>
      </trkpt>
      <trkpt lat="41.953228" lon="1.2854279">
        <time>2022-07-08T11:10:44Z</time>
      </trkpt>
      <trkpt lat="41.953304" lon="1.2854899">
        <time>2022-07-08T11:10:45Z</time>
      </trkpt>
      <trkpt lat="41.95338" lon="1.2855465">
        <time>2022-07-08T11:10:46Z</time>
      </trkpt>
      <trkpt lat="41.953457" lon="1.2856019">
        <time>2022-07-08T11:10:47Z</time>
      </trkpt>
      <trkpt lat="41.953545" lon="1.2856596">
        <time>2022-07-08T11:10:48Z</time>
      </trkpt>
      <trkpt lat="41.953632" lon="1.2857146">
        <time>2022-07-08T11:10:49Z</time>
      </trkpt>
      <trkpt lat="41.953724" lon="1.2857662">
        <time>2022-07-08T11:10:50Z</time>
      </trkpt>
      <trkpt lat="41.95382" lon="1.2858143">
        <time>2022-07-08T11:10:51Z</time>
      </trkpt>
      <trkpt lat="41.953915" lon="1.2858579">
        <time>2022-07-08T11:10:52Z</time>
      </trkpt>
      <trkpt lat="41.954014" lon="1.2858982">
        <time>2022-07-08T11:10:53Z</time>
      </trkpt>
      <trkpt lat="41.954113" lon="1.2859339">
        <time>2022-07-08T11:10:54Z</time>
      </trkpt>
      <trkpt lat="41.954216" lon="1.2859645">
        <time>2022-07-08T11:10:55Z</time>
      </trkpt>
      <trkpt lat="41.95432" lon="1.2859906">
        <time>2022-07-08T11:10:56Z</time>
      </trkpt>
      <trkpt lat="41.95442" lon="1.2860125">
        <time>2022-07-08T11:10:57Z</time>
      </trkpt>
      <trkpt lat="41.95452" lon="1.2860332">
        <time>2022-07-08T11:10:58Z</time>
      </trkpt>
      <trkpt lat="41.95463" lon="1.2860548">
        <time>2022-07-08T11:10:59Z</time>
      </trkpt>
      <trkpt lat="41.954746" lon="1.2860758">
        <time>2022-07-08T11:11:00Z</time>
      </trkpt>
      <trkpt lat="41.95486" lon="1.2860966">
        <time>2022-07-08T11:11:01Z</time>
      </trkpt>
      <trkpt lat="41.95497" lon="1.2861159">
        <time>2022-07-08T11:11:02Z</time>
      </trkpt>
      <trkpt lat="41.955082" lon="1.2861389">
        <time>2022-07-08T11:11:03Z</time>
      </trkpt>
      <trkpt lat="41.9552" lon="1.2861636">
        <time>2022-07-08T11:11:04Z</time>
      </trkpt>
      <trkpt lat="41.955322" lon="1.2861925">
        <time>2022-07-08T11:11:05Z</time>
      </trkpt>
      <trkpt lat="41.95544" lon="1.2862282">
        <time>2022-07-08T11:11:06Z</time>
      </trkpt>
      <trkpt lat="41.955563" lon="1.2862722">
        <time>2022-07-08T11:11:07Z</time>
      </trkpt>
      <trkpt lat="41.95568" lon="1.2863208">
        <time>2022-07-08T11:11:08Z</time>
      </trkpt>
      <trkpt lat="41.9558" lon="1.2863759">
        <time>2022-07-08T11:11:09Z</time>
      </trkpt>
      <trkpt lat="41.955917" lon="1.2864405">
        <time>2022-07-08T11:11:10Z</time>
      </trkpt>
      <trkpt lat="41.956142" lon="1.2865921">
        <time>2022-07-08T11:11:12Z</time>
      </trkpt>
      <trkpt lat="41.95626" lon="1.2866868">
        <time>2022-07-08T11:11:13Z</time>
      </trkpt>
      <trkpt lat="41.956375" lon="1.2867888">
        <time>2022-07-08T11:11:14Z</time>
      </trkpt>
      <trkpt lat="41.956474" lon="1.2868894">
        <time>2022-07-08T11:11:15Z</time>
      </trkpt>
      <trkpt lat="41.956577" lon="1.2869978">
        <time>2022-07-08T11:11:16Z</time>
      </trkpt>
      <trkpt lat="41.956673" lon="1.2871141">
        <time>2022-07-08T11:11:17Z</time>
      </trkpt>
      <trkpt lat="41.956776" lon="1.2872465">
        <time>2022-07-08T11:11:18Z</time>
      </trkpt>
      <trkpt lat="41.956867" lon="1.2873831">
        <time>2022-07-08T11:11:19Z</time>
      </trkpt>
      <trkpt lat="41.95695" lon="1.2875148">
        <time>2022-07-08T11:11:20Z</time>
      </trkpt>
      <trkpt lat="41.95703" lon="1.2876638">
        <time>2022-07-08T11:11:21Z</time>
      </trkpt>
      <trkpt lat="41.9571" lon="1.2878041">
        <time>2022-07-08T11:11:22Z</time>
      </trkpt>
      <trkpt lat="41.95717" lon="1.2879611">
        <time>2022-07-08T11:11:23Z</time>
      </trkpt>
      <trkpt lat="41.95723" lon="1.2881187">
        <time>2022-07-08T11:11:24Z</time>
      </trkpt>
      <trkpt lat="41.95729" lon="1.2882777">
        <time>2022-07-08T11:11:25Z</time>
      </trkpt>
      <trkpt lat="41.95734" lon="1.2884268">
        <time>2022-07-08T11:11:26Z</time>
      </trkpt>
      <trkpt lat="41.95739" lon="1.2885801">
        <time>2022-07-08T11:11:27Z</time>
      </trkpt>
      <trkpt lat="41.957443" lon="1.2887484">
        <time>2022-07-08T11:11:28Z</time>
      </trkpt>
      <trkpt lat="41.957504" lon="1.2889128">
        <time>2022-07-08T11:11:29Z</time>
      </trkpt>
      <trkpt lat="41.95757" lon="1.2890744">
        <time>2022-07-08T11:11:30Z</time>
      </trkpt>
      <trkpt lat="41.957634" lon="1.2892321">
        <time>2022-07-08T11:11:31Z</time>
      </trkpt>
      <trkpt lat="41.957703" lon="1.2893847">
        <time>2022-07-08T11:11:32Z</time>
      </trkpt>
      <trkpt lat="41.957775" lon="1.2895324">
        <time>2022-07-08T11:11:33Z</time>
      </trkpt>
      <trkpt lat="41.957855" lon="1.2896751">
        <time>2022-07-08T11:11:34Z</time>
      </trkpt>
      <trkpt lat="41.95794" lon="1.2898117">
        <time>2022-07-08T11:11:35Z</time>
      </trkpt>
      <trkpt lat="41.95803" lon="1.2899404">
        <time>2022-07-08T11:11:36Z</time>
      </trkpt>
      <trkpt lat="41.95812" lon="1.2900537">
        <time>2022-07-08T11:11:37Z</time>
      </trkpt>
      <trkpt lat="41.958218" lon="1.2901604">
        <time>2022-07-08T11:11:38Z</time>
      </trkpt>
      <trkpt lat="41.958313" lon="1.2902627">
        <time>2022-07-08T11:11:39Z</time>
      </trkpt>
      <trkpt lat="41.958427" lon="1.2903631">
        <time>2022-07-08T11:11:40Z</time>
      </trkpt>
      <trkpt lat="41.958538" lon="1.2904481">
        <time>2022-07-08T11:11:41Z</time>
      </trkpt>
      <trkpt lat="41.958652" lon="1.2905247">
        <time>2022-07-08T11:11:42Z</time>
      </trkpt>
      <trkpt lat="41.95877" lon="1.2905943">
        <time>2022-07-08T11:11:43Z</time>
      </trkpt>
      <trkpt lat="41.9589" lon="1.2906597">
        <time>2022-07-08T11:11:44Z</time>
      </trkpt>
      <trkpt lat="41.95903" lon="1.290718">
        <time>2022-07-08T11:11:45Z</time>
      </trkpt>
      <trkpt lat="41.959156" lon="1.2907673">
        <time>2022-07-08T11:11:46Z</time>
      </trkpt>
      <trkpt lat="41.959282" lon="1.2908143">
        <time>2022-07-08T11:11:47Z</time>
      </trkpt>
      <trkpt lat="41.959408" lon="1.290858">
        <time>2022-07-08T11:11:48Z</time>
      </trkpt>
      <trkpt lat="41.959538" lon="1.2908996">
        <time>2022-07-08T11:11:49Z</time>
      </trkpt>
      <trkpt lat="41.95968" lon="1.290942">
        <time>2022-07-08T11:11:50Z</time>
      </trkpt>
      <trkpt lat="41.959816" lon="1.290982">
        <time>2022-07-08T11:11:51Z</time>
      </trkpt>
      <trkpt lat="41.959946" lon="1.2910169">
        <time>2022-07-08T11:11:52Z</time>
      </trkpt>
      <trkpt lat="41.960075" lon="1.2910527">
        <time>2022-07-08T11:11:53Z</time>
      </trkpt>
      <trkpt lat="41.96021" lon="1.2910887">
        <time>2022-07-08T11:11:54Z</time>
      </trkpt>
      <trkpt lat="41.96034" lon="1.2911247">
        <time>2022-07-08T11:11:55Z</time>
      </trkpt>
      <trkpt lat="41.96047" lon="1.2911603">
        <time>2022-07-08T11:11:56Z</time>
      </trkpt>
      <trkpt lat="41.9606" lon="1.2911953">
        <time>2022-07-08T11:11:57Z</time>
      </trkpt>
      <trkpt lat="41.960735" lon="1.2912294">
        <time>2022-07-08T11:11:58Z</time>
      </trkpt>
      <trkpt lat="41.96087" lon="1.2912637">
        <time>2022-07-08T11:11:59Z</time>
      </trkpt>
      <trkpt lat="41.961002" lon="1.291297">
        <time>2022-07-08T11:12:00Z</time>
      </trkpt>
      <trkpt lat="41.961143" lon="1.291332">
        <time>2022-07-08T11:12:01Z</time>
      </trkpt>
      <trkpt lat="41.961273" lon="1.2913634">
        <time>2022-07-08T11:12:02Z</time>
      </trkpt>
      <trkpt lat="41.961407" lon="1.2913957">
        <time>2022-07-08T11:12:03Z</time>
      </trkpt>
      <trkpt lat="41.961536" lon="1.2914289">
        <time>2022-07-08T11:12:04Z</time>
      </trkpt>
      <trkpt lat="41.96167" lon="1.2914633">
        <time>2022-07-08T11:12:05Z</time>
      </trkpt>
      <trkpt lat="41.961803" lon="1.2914972">
        <time>2022-07-08T11:12:06Z</time>
      </trkpt>
      <trkpt lat="41.961937" lon="1.2915332">
        <time>2022-07-08T11:12:07Z</time>
      </trkpt>
      <trkpt lat="41.962074" lon="1.2915729">
        <time>2022-07-08T11:12:08Z</time>
      </trkpt>
      <trkpt lat="41.962204" lon="1.2916119">
        <time>2022-07-08T11:12:09Z</time>
      </trkpt>
      <trkpt lat="41.96233" lon="1.291654">
        <time>2022-07-08T11:12:10Z</time>
      </trkpt>
      <trkpt lat="41.962463" lon="1.2917002">
        <time>2022-07-08T11:12:11Z</time>
      </trkpt>
      <trkpt lat="41.962593" lon="1.2917523">
        <time>2022-07-08T11:12:12Z</time>
      </trkpt>
      <trkpt lat="41.962723" lon="1.2918129">
        <time>2022-07-08T11:12:13Z</time>
      </trkpt>
      <trkpt lat="41.96285" lon="1.2918832">
        <time>2022-07-08T11:12:14Z</time>
      </trkpt>
      <trkpt lat="41.962975" lon="1.2919626">
        <time>2022-07-08T11:12:15Z</time>
      </trkpt>
      <trkpt lat="41.963097" lon="1.292051">
        <time>2022-07-08T11:12:16Z</time>
      </trkpt>
      <trkpt lat="41.963333" lon="1.2922616">
        <time>2022-07-08T11:12:18Z</time>
      </trkpt>
      <trkpt lat="41.963444" lon="1.2923766">
        <time>2022-07-08T11:12:19Z</time>
      </trkpt>
      <trkpt lat="41.963554" lon="1.2925116">
        <time>2022-07-08T11:12:20Z</time>
      </trkpt>
      <trkpt lat="41.963654" lon="1.2926549">
        <time>2022-07-08T11:12:21Z</time>
      </trkpt>
      <trkpt lat="41.963745" lon="1.2927955">
        <time>2022-07-08T11:12:22Z</time>
      </trkpt>
      <trkpt lat="41.963825" lon="1.2929462">
        <time>2022-07-08T11:12:23Z</time>
      </trkpt>
      <trkpt lat="41.9639" lon="1.2931056">
        <time>2022-07-08T11:12:24Z</time>
      </trkpt>
      <trkpt lat="41.963974" lon="1.2932836">
        <time>2022-07-08T11:12:25Z</time>
      </trkpt>
      <trkpt lat="41.96404" lon="1.2934636">
        <time>2022-07-08T11:12:26Z</time>
      </trkpt>
      <trkpt lat="41.9641" lon="1.293644">
        <time>2022-07-08T11:12:27Z</time>
      </trkpt>
      <trkpt lat="41.964157" lon="1.2938236">
        <time>2022-07-08T11:12:28Z</time>
      </trkpt>
      <trkpt lat="41.96421" lon="1.2939906">
        <time>2022-07-08T11:12:29Z</time>
      </trkpt>
      <trkpt lat="41.964268" lon="1.2941695">
        <time>2022-07-08T11:12:30Z</time>
      </trkpt>
      <trkpt lat="41.96433" lon="1.2943453">
        <time>2022-07-08T11:12:31Z</time>
      </trkpt>
      <trkpt lat="41.96439" lon="1.2945058">
        <time>2022-07-08T11:12:32Z</time>
      </trkpt>
      <trkpt lat="41.964455" lon="1.2946659">
        <time>2022-07-08T11:12:33Z</time>
      </trkpt>
      <trkpt lat="41.964523" lon="1.2948226">
        <time>2022-07-08T11:12:34Z</time>
      </trkpt>
      <trkpt lat="41.964603" lon="1.2949742">
        <time>2022-07-08T11:12:35Z</time>
      </trkpt>
      <trkpt lat="41.964684" lon="1.2951219">
        <time>2022-07-08T11:12:36Z</time>
      </trkpt>
      <trkpt lat="41.964775" lon="1.2952695">
        <time>2022-07-08T11:12:37Z</time>
      </trkpt>
      <trkpt lat="41.964867" lon="1.2954042">
        <time>2022-07-08T11:12:38Z</time>
      </trkpt>
      <trkpt lat="41.96496" lon="1.2955205">
        <time>2022-07-08T11:12:39Z</time>
      </trkpt>
      <trkpt lat="41.965065" lon="1.2956342">
        <time>2022-07-08T11:12:40Z</time>
      </trkpt>
      <trkpt lat="41.96517" lon="1.2957371">
        <time>2022-07-08T11:12:41Z</time>
      </trkpt>
      <trkpt lat="41.965282" lon="1.2958305">
        <time>2022-07-08T11:12:42Z</time>
      </trkpt>
      <trkpt lat="41.965393" lon="1.2959158">
        <time>2022-07-08T11:12:43Z</time>
      </trkpt>
      <trkpt lat="41.9655" lon="1.2959895">
        <time>2022-07-08T11:12:44Z</time>
      </trkpt>
      <trkpt lat="41.96561" lon="1.2960569">
        <time>2022-07-08T11:12:45Z</time>
      </trkpt>
      <trkpt lat="41.965725" lon="1.2961191">
        <time>2022-07-08T11:12:46Z</time>
      </trkpt>
      <trkpt lat="41.965843" lon="1.2961771">
        <time>2022-07-08T11:12:47Z</time>
      </trkpt>
      <trkpt lat="41.965965" lon="1.2962312">
        <time>2022-07-08T11:12:48Z</time>
      </trkpt>
      <trkpt lat="41.96609" lon="1.2962822">
        <time>2022-07-08T11:12:49Z</time>
      </trkpt>
      <trkpt lat="41.966213" lon="1.2963308">
        <time>2022-07-08T11:12:50Z</time>
      </trkpt>
      <trkpt lat="41.966343" lon="1.2963781">
        <time>2022-07-08T11:12:51Z</time>
      </trkpt>
      <trkpt lat="41.96647" lon="1.2964247">
        <time>2022-07-08T11:12:52Z</time>
      </trkpt>
      <trkpt lat="41.9666" lon="1.2964704">
        <time>2022-07-08T11:12:53Z</time>
      </trkpt>
      <trkpt lat="41.966724" lon="1.2965151">
        <time>2022-07-08T11:12:54Z</time>
      </trkpt>
      <trkpt lat="41.966854" lon="1.2965602">
        <time>2022-07-08T11:12:55Z</time>
      </trkpt>
      <trkpt lat="41.96698" lon="1.2966055">
        <time>2022-07-08T11:12:56Z</time>
      </trkpt>
      <trkpt lat="41.967117" lon="1.2966545">
        <time>2022-07-08T11:12:57Z</time>
      </trkpt>
      <trkpt lat="41.967243" lon="1.2967011">
        <time>2022-07-08T11:12:58Z</time>
      </trkpt>
      <trkpt lat="41.96737" lon="1.2967495">
        <time>2022-07-08T11:12:59Z</time>
      </trkpt>
      <trkpt lat="41.9675" lon="1.2967985">
        <time>2022-07-08T11:13:00Z</time>
      </trkpt>
      <trkpt lat="41.96763" lon="1.2968478">
        <time>2022-07-08T11:13:01Z</time>
      </trkpt>
      <trkpt lat="41.96776" lon="1.2968968">
        <time>2022-07-08T11:13:02Z</time>
      </trkpt>
      <trkpt lat="41.967896" lon="1.2969481">
        <time>2022-07-08T11:13:03Z</time>
      </trkpt>
      <trkpt lat="41.96803" lon="1.2969991">
        <time>2022-07-08T11:13:04Z</time>
      </trkpt>
      <trkpt lat="41.96815" lon="1.2970457">
        <time>2022-07-08T11:13:05Z</time>
      </trkpt>
      <trkpt lat="41.968277" lon="1.2970928">
        <time>2022-07-08T11:13:06Z</time>
      </trkpt>
      <trkpt lat="41.968414" lon="1.2971411">
        <time>2022-07-08T11:13:07Z</time>
      </trkpt>
      <trkpt lat="41.96854" lon="1.2971834">
        <time>2022-07-08T11:13:08Z</time>
      </trkpt>
      <trkpt lat="41.968666" lon="1.2972224">
        <time>2022-07-08T11:13:09Z</time>
      </trkpt>
      <trkpt lat="41.968796" lon="1.2972571">
        <time>2022-07-08T11:13:10Z</time>
      </trkpt>
      <trkpt lat="41.968933" lon="1.2972881">
        <time>2022-07-08T11:13:11Z</time>
      </trkpt>
      <trkpt lat="41.969067" lon="1.2973118">
        <time>2022-07-08T11:13:12Z</time>
      </trkpt>
      <trkpt lat="41.969196" lon="1.2973287">
        <time>2022-07-08T11:13:13Z</time>
      </trkpt>
      <trkpt lat="41.969326" lon="1.29734">
        <time>2022-07-08T11:13:14Z</time>
      </trkpt>
      <trkpt lat="41.969444" lon="1.2973478">
        <time>2022-07-08T11:13:15Z</time>
      </trkpt>
      <trkpt lat="41.969566" lon="1.297353">
        <time>2022-07-08T11:13:16Z</time>
      </trkpt>
      <trkpt lat="41.969692" lon="1.297356">
        <time>2022-07-08T11:13:17Z</time>
      </trkpt>
      <trkpt lat="41.96982" lon="1.2973567">
        <time>2022-07-08T11:13:18Z</time>
      </trkpt>
      <trkpt lat="41.96995" lon="1.2973564">
        <time>2022-07-08T11:13:19Z</time>
      </trkpt>
      <trkpt lat="41.970215" lon="1.2973537">
        <time>2022-07-08T11:13:21Z</time>
      </trkpt>
      <trkpt lat="41.970345" lon="1.2973497">
        <time>2022-07-08T11:13:22Z</time>
      </trkpt>
      <trkpt lat="41.97049" lon="1.2973461">
        <time>2022-07-08T11:13:23Z</time>
      </trkpt>
      <trkpt lat="41.97063" lon="1.2973415">
        <time>2022-07-08T11:13:24Z</time>
      </trkpt>
      <trkpt lat="41.970886" lon="1.2973304">
        <time>2022-07-08T11:13:26Z</time>
      </trkpt>
      <trkpt lat="41.97102" lon="1.2973248">
        <time>2022-07-08T11:13:27Z</time>
      </trkpt>
      <trkpt lat="41.97115" lon="1.2973201">
        <time>2022-07-08T11:13:28Z</time>
      </trkpt>
      <trkpt lat="41.971294" lon="1.2973157">
        <time>2022-07-08T11:13:29Z</time>
      </trkpt>
      <trkpt lat="41.971424" lon="1.2973124">
        <time>2022-07-08T11:13:30Z</time>
      </trkpt>
      <trkpt lat="41.971558" lon="1.2973088">
        <time>2022-07-08T11:13:31Z</time>
      </trkpt>
      <trkpt lat="41.971695" lon="1.2973055">
        <time>2022-07-08T11:13:32Z</time>
      </trkpt>
      <trkpt lat="41.97183" lon="1.2973018">
        <time>2022-07-08T11:13:33Z</time>
      </trkpt>
      <trkpt lat="41.971962" lon="1.2972984">
        <time>2022-07-08T11:13:34Z</time>
      </trkpt>
      <trkpt lat="41.9721" lon="1.2972947">
        <time>2022-07-08T11:13:35Z</time>
      </trkpt>
      <trkpt lat="41.97223" lon="1.2972912">
        <time>2022-07-08T11:13:36Z</time>
      </trkpt>
      <trkpt lat="41.972363" lon="1.2972871">
        <time>2022-07-08T11:13:37Z</time>
      </trkpt>
      <trkpt lat="41.97249" lon="1.2972832">
        <time>2022-07-08T11:13:38Z</time>
      </trkpt>
      <trkpt lat="41.972622" lon="1.2972801">
        <time>2022-07-08T11:13:39Z</time>
      </trkpt>
      <trkpt lat="41.97275" lon="1.2972775">
        <time>2022-07-08T11:13:40Z</time>
      </trkpt>
      <trkpt lat="41.97287" lon="1.2972752">
        <time>2022-07-08T11:13:41Z</time>
      </trkpt>
      <trkpt lat="41.97299" lon="1.2972735">
        <time>2022-07-08T11:13:42Z</time>
      </trkpt>
      <trkpt lat="41.973106" lon="1.2972718">
        <time>2022-07-08T11:13:43Z</time>
      </trkpt>
      <trkpt lat="41.97322" lon="1.2972698">
        <time>2022-07-08T11:13:44Z</time>
      </trkpt>
      <trkpt lat="41.973328" lon="1.2972672">
        <time>2022-07-08T11:13:45Z</time>
      </trkpt>
      <trkpt lat="41.973423" lon="1.2972648">
        <time>2022-07-08T11:13:46Z</time>
      </trkpt>
      <trkpt lat="41.97352" lon="1.2972618">
        <time>2022-07-08T11:13:47Z</time>
      </trkpt>
      <trkpt lat="41.97361" lon="1.2972592">
        <time>2022-07-08T11:13:48Z</time>
      </trkpt>
      <trkpt lat="41.973705" lon="1.2972575">
        <time>2022-07-08T11:13:49Z</time>
      </trkpt>
      <trkpt lat="41.973797" lon="1.2972572">
        <time>2022-07-08T11:13:50Z</time>
      </trkpt>
      <trkpt lat="41.973885" lon="1.2972581">
        <time>2022-07-08T11:13:51Z</time>
      </trkpt>
      <trkpt lat="41.973965" lon="1.2972589">
        <time>2022-07-08T11:13:52Z</time>
      </trkpt>
      <trkpt lat="41.974045" lon="1.2972589">
        <time>2022-07-08T11:13:53Z</time>
      </trkpt>
      <trkpt lat="41.974117" lon="1.2972578">
        <time>2022-07-08T11:13:54Z</time>
      </trkpt>
      <trkpt lat="41.974182" lon="1.2972565">
        <time>2022-07-08T11:13:55Z</time>
      </trkpt>
      <trkpt lat="41.974243" lon="1.2972555">
        <time>2022-07-08T11:13:56Z</time>
      </trkpt>
      <trkpt lat="41.9743" lon="1.2972548">
        <time>2022-07-08T11:13:57Z</time>
      </trkpt>
      <trkpt lat="41.974354" lon="1.2972535">
        <time>2022-07-08T11:13:58Z</time>
      </trkpt>
      <trkpt lat="41.974403" lon="1.2972502">
        <time>2022-07-08T11:13:59Z</time>
      </trkpt>
      <trkpt lat="41.974483" lon="1.2972418">
        <time>2022-07-08T11:14:01Z</time>
      </trkpt>
      <trkpt lat="41.97455" lon="1.2972366">
        <time>2022-07-08T11:14:03Z</time>
      </trkpt>
      <trkpt lat="41.974598" lon="1.2972338">
        <time>2022-07-08T11:14:05Z</time>
      </trkpt>
      <trkpt lat="41.974648" lon="1.2972358">
        <time>2022-07-08T11:14:13Z</time>
      </trkpt>
      <trkpt lat="41.974705" lon="1.2972158">
        <time>2022-07-08T11:16:42Z</time>
      </trkpt>
      <trkpt lat="41.974762" lon="1.2971976">
        <time>2022-07-08T11:16:44Z</time>
      </trkpt>
      <trkpt lat="41.97482" lon="1.2971762">
        <time>2022-07-08T11:16:46Z</time>
      </trkpt>
      <trkpt lat="41.974876" lon="1.2971579">
        <time>2022-07-08T11:16:48Z</time>
      </trkpt>
      <trkpt lat="41.97493" lon="1.2971389">
        <time>2022-07-08T11:16:50Z</time>
      </trkpt>
      <trkpt lat="41.974983" lon="1.2971178">
        <time>2022-07-08T11:16:52Z</time>
      </trkpt>
      <trkpt lat="41.975033" lon="1.2970968">
        <time>2022-07-08T11:16:54Z</time>
      </trkpt>
      <trkpt lat="41.975082" lon="1.2970742">
        <time>2022-07-08T11:16:56Z</time>
      </trkpt>
      <trkpt lat="41.97515" lon="1.2970389">
        <time>2022-07-08T11:16:59Z</time>
      </trkpt>
      <trkpt lat="41.97522" lon="1.2970012">
        <time>2022-07-08T11:17:02Z</time>
      </trkpt>
      <trkpt lat="41.97529" lon="1.2969599">
        <time>2022-07-08T11:17:05Z</time>
      </trkpt>
      <trkpt lat="41.975334" lon="1.2969306">
        <time>2022-07-08T11:17:07Z</time>
      </trkpt>
      <trkpt lat="41.97538" lon="1.296899">
        <time>2022-07-08T11:17:09Z</time>
      </trkpt>
      <trkpt lat="41.975426" lon="1.2968646">
        <time>2022-07-08T11:17:11Z</time>
      </trkpt>
      <trkpt lat="41.975494" lon="1.296809">
        <time>2022-07-08T11:17:14Z</time>
      </trkpt>
      <trkpt lat="41.975536" lon="1.2967689">
        <time>2022-07-08T11:17:16Z</time>
      </trkpt>
      <trkpt lat="41.97558" lon="1.2967306">
        <time>2022-07-08T11:17:18Z</time>
      </trkpt>
      <trkpt lat="41.975624" lon="1.2966906">
        <time>2022-07-08T11:17:20Z</time>
      </trkpt>
      <trkpt lat="41.97567" lon="1.2966529">
        <time>2022-07-08T11:17:22Z</time>
      </trkpt>
      <trkpt lat="41.97571" lon="1.2966132">
        <time>2022-07-08T11:17:24Z</time>
      </trkpt>
      <trkpt lat="41.975758" lon="1.2965692">
        <time>2022-07-08T11:17:26Z</time>
      </trkpt>
      <trkpt lat="41.9758" lon="1.2965219">
        <time>2022-07-08T11:17:28Z</time>
      </trkpt>
      <trkpt lat="41.97584" lon="1.2964706">
        <time>2022-07-08T11:17:30Z</time>
      </trkpt>
      <trkpt lat="41.975883" lon="1.2964189">
        <time>2022-07-08T11:17:32Z</time>
      </trkpt>
      <trkpt lat="41.975925" lon="1.2963676">
        <time>2022-07-08T11:17:34Z</time>
      </trkpt>
      <trkpt lat="41.975967" lon="1.2963163">
        <time>2022-07-08T11:17:36Z</time>
      </trkpt>
      <trkpt lat="41.97601" lon="1.2962636">
        <time>2022-07-08T11:17:38Z</time>
      </trkpt>
      <trkpt lat="41.976048" lon="1.2962086">
        <time>2022-07-08T11:17:40Z</time>
      </trkpt>
      <trkpt lat="41.97608" lon="1.2961524">
        <time>2022-07-08T11:17:42Z</time>
      </trkpt>
      <trkpt lat="41.97612" lon="1.296094">
        <time>2022-07-08T11:17:44Z</time>
      </trkpt>
      <trkpt lat="41.97616" lon="1.2960316">
        <time>2022-07-08T11:17:46Z</time>
      </trkpt>
      <trkpt lat="41.976196" lon="1.295969">
        <time>2022-07-08T11:17:48Z</time>
      </trkpt>
      <trkpt lat="41.976234" lon="1.2959057">
        <time>2022-07-08T11:17:50Z</time>
      </trkpt>
      <trkpt lat="41.976273" lon="1.295839">
        <time>2022-07-08T11:17:52Z</time>
      </trkpt>
      <trkpt lat="41.97631" lon="1.2957736">
        <time>2022-07-08T11:17:54Z</time>
      </trkpt>
      <trkpt lat="41.97635" lon="1.295708">
        <time>2022-07-08T11:17:56Z</time>
      </trkpt>
      <trkpt lat="41.976387" lon="1.295643">
        <time>2022-07-08T11:17:58Z</time>
      </trkpt>
      <trkpt lat="41.97642" lon="1.2955813">
        <time>2022-07-08T11:18:00Z</time>
      </trkpt>
      <trkpt lat="41.97646" lon="1.2955214">
        <time>2022-07-08T11:18:02Z</time>
      </trkpt>
      <trkpt lat="41.976498" lon="1.2954607">
        <time>2022-07-08T11:18:04Z</time>
      </trkpt>
      <trkpt lat="41.976532" lon="1.295402">
        <time>2022-07-08T11:18:06Z</time>
      </trkpt>
      <trkpt lat="41.976574" lon="1.2953397">
        <time>2022-07-08T11:18:08Z</time>
      </trkpt>
      <trkpt lat="41.97661" lon="1.295279">
        <time>2022-07-08T11:18:10Z</time>
      </trkpt>
      <trkpt lat="41.976646" lon="1.2952127">
        <time>2022-07-08T11:18:12Z</time>
      </trkpt>
      <trkpt lat="41.97668" lon="1.2951477">
        <time>2022-07-08T11:18:14Z</time>
      </trkpt>
      <trkpt lat="41.976715" lon="1.295083">
        <time>2022-07-08T11:18:16Z</time>
      </trkpt>
      <trkpt lat="41.976753" lon="1.2950184">
        <time>2022-07-08T11:18:18Z</time>
      </trkpt>
      <trkpt lat="41.976788" lon="1.2949524">
        <time>2022-07-08T11:18:20Z</time>
      </trkpt>
      <trkpt lat="41.97682" lon="1.2948893">
        <time>2022-07-08T11:18:22Z</time>
      </trkpt>
      <trkpt lat="41.97686" lon="1.2948244">
        <time>2022-07-08T11:18:24Z</time>
      </trkpt>
      <trkpt lat="41.9769" lon="1.2947603">
        <time>2022-07-08T11:18:26Z</time>
      </trkpt>
      <trkpt lat="41.97694" lon="1.2946944">
        <time>2022-07-08T11:18:28Z</time>
      </trkpt>
      <trkpt lat="41.97698" lon="1.294626">
        <time>2022-07-08T11:18:30Z</time>
      </trkpt>
      <trkpt lat="41.97702" lon="1.2945573">
        <time>2022-07-08T11:18:32Z</time>
      </trkpt>
      <trkpt lat="41.977062" lon="1.2944897">
        <time>2022-07-08T11:18:34Z</time>
      </trkpt>
      <trkpt lat="41.977123" lon="1.2943884">
        <time>2022-07-08T11:18:37Z</time>
      </trkpt>
      <trkpt lat="41.97716" lon="1.2943231">
        <time>2022-07-08T11:18:39Z</time>
      </trkpt>
      <trkpt lat="41.977203" lon="1.2942578">
        <time>2022-07-08T11:18:41Z</time>
      </trkpt>
      <trkpt lat="41.97724" lon="1.2941921">
        <time>2022-07-08T11:18:43Z</time>
      </trkpt>
      <trkpt lat="41.97728" lon="1.2941264">
        <time>2022-07-08T11:18:45Z</time>
      </trkpt>
      <trkpt lat="41.977318" lon="1.2940631">
        <time>2022-07-08T11:18:47Z</time>
      </trkpt>
      <trkpt lat="41.977356" lon="1.2939998">
        <time>2022-07-08T11:18:49Z</time>
      </trkpt>
      <trkpt lat="41.977398" lon="1.293938">
        <time>2022-07-08T11:18:51Z</time>
      </trkpt>
      <trkpt lat="41.977436" lon="1.2938775">
        <time>2022-07-08T11:18:53Z</time>
      </trkpt>
      <trkpt lat="41.977478" lon="1.2938157">
        <time>2022-07-08T11:18:55Z</time>
      </trkpt>
      <trkpt lat="41.977516" lon="1.2937545">
        <time>2022-07-08T11:18:57Z</time>
      </trkpt>
      <trkpt lat="41.977562" lon="1.2936947">
        <time>2022-07-08T11:18:59Z</time>
      </trkpt>
      <trkpt lat="41.977604" lon="1.2936344">
        <time>2022-07-08T11:19:01Z</time>
      </trkpt>
      <trkpt lat="41.97765" lon="1.2935745">
        <time>2022-07-08T11:19:03Z</time>
      </trkpt>
      <trkpt lat="41.977695" lon="1.2935162">
        <time>2022-07-08T11:19:05Z</time>
      </trkpt>
      <trkpt lat="41.977745" lon="1.2934564">
        <time>2022-07-08T11:19:07Z</time>
      </trkpt>
      <trkpt lat="41.977795" lon="1.2933965">
        <time>2022-07-08T11:19:09Z</time>
      </trkpt>
      <trkpt lat="41.977844" lon="1.2933358">
        <time>2022-07-08T11:19:11Z</time>
      </trkpt>
      <trkpt lat="41.9779" lon="1.2932771">
        <time>2022-07-08T11:19:13Z</time>
      </trkpt>
      <trkpt lat="41.97796" lon="1.2932192">
        <time>2022-07-08T11:19:15Z</time>
      </trkpt>
      <trkpt lat="41.97802" lon="1.2931638">
        <time>2022-07-08T11:19:17Z</time>
      </trkpt>
      <trkpt lat="41.978085" lon="1.2931062">
        <time>2022-07-08T11:19:19Z</time>
      </trkpt>
      <trkpt lat="41.978146" lon="1.2930509">
        <time>2022-07-08T11:19:21Z</time>
      </trkpt>
      <trkpt lat="41.97822" lon="1.2929935">
        <time>2022-07-08T11:19:23Z</time>
      </trkpt>
      <trkpt lat="41.9783" lon="1.2929385">
        <time>2022-07-08T11:19:25Z</time>
      </trkpt>
      <trkpt lat="41.978386" lon="1.2928828">
        <time>2022-07-08T11:19:27Z</time>
      </trkpt>
      <trkpt lat="41.978436" lon="1.2928548">
        <time>2022-07-08T11:19:28Z</time>
      </trkpt>
      <trkpt lat="41.978485" lon="1.2928278">
        <time>2022-07-08T11:19:29Z</time>
      </trkpt>
      <trkpt lat="41.97853" lon="1.2928015">
        <time>2022-07-08T11:19:30Z</time>
      </trkpt>
      <trkpt lat="41.978638" lon="1.2927508">
        <time>2022-07-08T11:19:32Z</time>
      </trkpt>
      <trkpt lat="41.978687" lon="1.2927262">
        <time>2022-07-08T11:19:33Z</time>
      </trkpt>
      <trkpt lat="41.978745" lon="1.2927018">
        <time>2022-07-08T11:19:34Z</time>
      </trkpt>
      <trkpt lat="41.9788" lon="1.2926782">
        <time>2022-07-08T11:19:35Z</time>
      </trkpt>
      <trkpt lat="41.97886" lon="1.2926542">
        <time>2022-07-08T11:19:36Z</time>
      </trkpt>
      <trkpt lat="41.97892" lon="1.2926311">
        <time>2022-07-08T11:19:37Z</time>
      </trkpt>
      <trkpt lat="41.97898" lon="1.2926085">
        <time>2022-07-08T11:19:38Z</time>
      </trkpt>
      <trkpt lat="41.979046" lon="1.2925879">
        <time>2022-07-08T11:19:39Z</time>
      </trkpt>
      <trkpt lat="41.97918" lon="1.2925543">
        <time>2022-07-08T11:19:41Z</time>
      </trkpt>
      <trkpt lat="41.979256" lon="1.2925413">
        <time>2022-07-08T11:19:42Z</time>
      </trkpt>
      <trkpt lat="41.97933" lon="1.2925305">
        <time>2022-07-08T11:19:43Z</time>
      </trkpt>
      <trkpt lat="41.97941" lon="1.2925229">
        <time>2022-07-08T11:19:44Z</time>
      </trkpt>
      <trkpt lat="41.97949" lon="1.2925199">
        <time>2022-07-08T11:19:45Z</time>
      </trkpt>
      <trkpt lat="41.979572" lon="1.2925209">
        <time>2022-07-08T11:19:46Z</time>
      </trkpt>
      <trkpt lat="41.979656" lon="1.2925262">
        <time>2022-07-08T11:19:47Z</time>
      </trkpt>
      <trkpt lat="41.979744" lon="1.2925359">
        <time>2022-07-08T11:19:48Z</time>
      </trkpt>
      <trkpt lat="41.97983" lon="1.2925502">
        <time>2022-07-08T11:19:49Z</time>
      </trkpt>
      <trkpt lat="41.979923" lon="1.2925689">
        <time>2022-07-08T11:19:50Z</time>
      </trkpt>
      <trkpt lat="41.980015" lon="1.2925909">
        <time>2022-07-08T11:19:51Z</time>
      </trkpt>
      <trkpt lat="41.980106" lon="1.2926165">
        <time>2022-07-08T11:19:52Z</time>
      </trkpt>
      <trkpt lat="41.9802" lon="1.2926452">
        <time>2022-07-08T11:19:53Z</time>
      </trkpt>
      <trkpt lat="41.980297" lon="1.2926772">
        <time>2022-07-08T11:19:54Z</time>
      </trkpt>
      <trkpt lat="41.980396" lon="1.2927132">
        <time>2022-07-08T11:19:55Z</time>
      </trkpt>
      <trkpt lat="41.98049" lon="1.2927521">
        <time>2022-07-08T11:19:56Z</time>
      </trkpt>
      <trkpt lat="41.980587" lon="1.2927932">
        <time>2022-07-08T11:19:57Z</time>
      </trkpt>
      <trkpt lat="41.980682" lon="1.2928362">
        <time>2022-07-08T11:19:58Z</time>
      </trkpt>
      <trkpt lat="41.98078" lon="1.2928809">
        <time>2022-07-08T11:19:59Z</time>
      </trkpt>
      <trkpt lat="41.980877" lon="1.2929262">
        <time>2022-07-08T11:20:00Z</time>
      </trkpt>
      <trkpt lat="41.980972" lon="1.2929726">
        <time>2022-07-08T11:20:01Z</time>
      </trkpt>
      <trkpt lat="41.98107" lon="1.2930195">
        <time>2022-07-08T11:20:02Z</time>
      </trkpt>
      <trkpt lat="41.981167" lon="1.2930669">
        <time>2022-07-08T11:20:03Z</time>
      </trkpt>
      <trkpt lat="41.981266" lon="1.2931135">
        <time>2022-07-08T11:20:04Z</time>
      </trkpt>
      <trkpt lat="41.98136" lon="1.2931595">
        <time>2022-07-08T11:20:05Z</time>
      </trkpt>
      <trkpt lat="41.981457" lon="1.2932048">
        <time>2022-07-08T11:20:06Z</time>
      </trkpt>
      <trkpt lat="41.981552" lon="1.2932489">
        <time>2022-07-08T11:20:07Z</time>
      </trkpt>
      <trkpt lat="41.981647" lon="1.2932922">
        <time>2022-07-08T11:20:08Z</time>
      </trkpt>
      <trkpt lat="41.98174" lon="1.2933348">
        <time>2022-07-08T11:20:09Z</time>
      </trkpt>
      <trkpt lat="41.98183" lon="1.2933772">
        <time>2022-07-08T11:20:10Z</time>
      </trkpt>
      <trkpt lat="41.98192" lon="1.2934191">
        <time>2022-07-08T11:20:11Z</time>
      </trkpt>
      <trkpt lat="41.982002" lon="1.2934608">
        <time>2022-07-08T11:20:12Z</time>
      </trkpt>
      <trkpt lat="41.982086" lon="1.2935002">
        <time>2022-07-08T11:20:13Z</time>
      </trkpt>
      <trkpt lat="41.98217" lon="1.2935379">
        <time>2022-07-08T11:20:14Z</time>
      </trkpt>
      <trkpt lat="41.98225" lon="1.2935748">
        <time>2022-07-08T11:20:15Z</time>
      </trkpt>
      <trkpt lat="41.982327" lon="1.2936108">
        <time>2022-07-08T11:20:16Z</time>
      </trkpt>
      <trkpt lat="41.982403" lon="1.2936451">
        <time>2022-07-08T11:20:17Z</time>
      </trkpt>
      <trkpt lat="41.98247" lon="1.2936791">
        <time>2022-07-08T11:20:18Z</time>
      </trkpt>
      <trkpt lat="41.982544" lon="1.2937125">
        <time>2022-07-08T11:20:19Z</time>
      </trkpt>
      <trkpt lat="41.982613" lon="1.2937452">
        <time>2022-07-08T11:20:20Z</time>
      </trkpt>
      <trkpt lat="41.982677" lon="1.2937758">
        <time>2022-07-08T11:20:21Z</time>
      </trkpt>
      <trkpt lat="41.982742" lon="1.2938055">
        <time>2022-07-08T11:20:22Z</time>
      </trkpt>
      <trkpt lat="41.982803" lon="1.2938335">
        <time>2022-07-08T11:20:23Z</time>
      </trkpt>
      <trkpt lat="41.982864" lon="1.2938615">
        <time>2022-07-08T11:20:24Z</time>
      </trkpt>
      <trkpt lat="41.98292" lon="1.2938875">
        <time>2022-07-08T11:20:25Z</time>
      </trkpt>
      <trkpt lat="41.98298" lon="1.2939148">
        <time>2022-07-08T11:20:26Z</time>
      </trkpt>
      <trkpt lat="41.983036" lon="1.2939408">
        <time>2022-07-08T11:20:27Z</time>
      </trkpt>
      <trkpt lat="41.98309" lon="1.2939658">
        <time>2022-07-08T11:20:28Z</time>
      </trkpt>
      <trkpt lat="41.983143" lon="1.2939905">
        <time>2022-07-08T11:20:29Z</time>
      </trkpt>
      <trkpt lat="41.983192" lon="1.294015">
        <time>2022-07-08T11:20:30Z</time>
      </trkpt>
      <trkpt lat="41.983242" lon="1.294038">
        <time>2022-07-08T11:20:31Z</time>
      </trkpt>
      <trkpt lat="41.983288" lon="1.2940598">
        <time>2022-07-08T11:20:32Z</time>
      </trkpt>
      <trkpt lat="41.983334" lon="1.2940801">
        <time>2022-07-08T11:20:33Z</time>
      </trkpt>
      <trkpt lat="41.983425" lon="1.2941184">
        <time>2022-07-08T11:20:35Z</time>
      </trkpt>
      <trkpt lat="41.983467" lon="1.2941355">
        <time>2022-07-08T11:20:36Z</time>
      </trkpt>
      <trkpt lat="41.98356" lon="1.2941691">
        <time>2022-07-08T11:20:38Z</time>
      </trkpt>
      <trkpt lat="41.983646" lon="1.2941974">
        <time>2022-07-08T11:20:40Z</time>
      </trkpt>
      <trkpt lat="41.983734" lon="1.294224">
        <time>2022-07-08T11:20:42Z</time>
      </trkpt>
      <trkpt lat="41.983826" lon="1.294249">
        <time>2022-07-08T11:20:44Z</time>
      </trkpt>
      <trkpt lat="41.983917" lon="1.294268">
        <time>2022-07-08T11:20:46Z</time>
      </trkpt>
      <trkpt lat="41.984005" lon="1.2942841">
        <time>2022-07-08T11:20:48Z</time>
      </trkpt>
      <trkpt lat="41.984093" lon="1.294298">
        <time>2022-07-08T11:20:50Z</time>
      </trkpt>
      <trkpt lat="41.98418" lon="1.294309">
        <time>2022-07-08T11:20:52Z</time>
      </trkpt>
      <trkpt lat="41.98426" lon="1.2943151">
        <time>2022-07-08T11:20:54Z</time>
      </trkpt>
      <trkpt lat="41.98435" lon="1.2943194">
        <time>2022-07-08T11:20:56Z</time>
      </trkpt>
      <trkpt lat="41.984474" lon="1.2943214">
        <time>2022-07-08T11:20:59Z</time>
      </trkpt>
      <trkpt lat="41.98456" lon="1.294319">
        <time>2022-07-08T11:21:01Z</time>
      </trkpt>
      <trkpt lat="41.98464" lon="1.2943138">
        <time>2022-07-08T11:21:03Z</time>
      </trkpt>
      <trkpt lat="41.984722" lon="1.2943044">
        <time>2022-07-08T11:21:05Z</time>
      </trkpt>
      <trkpt lat="41.984802" lon="1.2942924">
        <time>2022-07-08T11:21:07Z</time>
      </trkpt>
      <trkpt lat="41.984875" lon="1.294275">
        <time>2022-07-08T11:21:09Z</time>
      </trkpt>
      <trkpt lat="41.98495" lon="1.294257">
        <time>2022-07-08T11:21:11Z</time>
      </trkpt>
      <trkpt lat="41.985027" lon="1.2942398">
        <time>2022-07-08T11:21:13Z</time>
      </trkpt>
      <trkpt lat="41.985096" lon="1.2942204">
        <time>2022-07-08T11:21:15Z</time>
      </trkpt>
      <trkpt lat="41.985165" lon="1.2942008">
        <time>2022-07-08T11:21:17Z</time>
      </trkpt>
      <trkpt lat="41.98523" lon="1.2941831">
        <time>2022-07-08T11:21:19Z</time>
      </trkpt>
      <trkpt lat="41.985287" lon="1.2941678">
        <time>2022-07-08T11:21:21Z</time>
      </trkpt>
      <trkpt lat="41.98534" lon="1.2941555">
        <time>2022-07-08T11:21:23Z</time>
      </trkpt>
      <trkpt lat="41.98539" lon="1.2941425">
        <time>2022-07-08T11:21:26Z</time>
      </trkpt>
      <trkpt lat="41.9855" lon="1.2941225">
        <time>2022-07-08T11:22:34Z</time>
      </trkpt>
      <trkpt lat="41.985565" lon="1.2941031">
        <time>2022-07-08T11:22:36Z</time>
      </trkpt>
      <trkpt lat="41.985634" lon="1.2940791">
        <time>2022-07-08T11:22:38Z</time>
      </trkpt>
      <trkpt lat="41.985706" lon="1.2940564">
        <time>2022-07-08T11:22:40Z</time>
      </trkpt>
      <trkpt lat="41.985775" lon="1.2940338">
        <time>2022-07-08T11:22:42Z</time>
      </trkpt>
      <trkpt lat="41.985847" lon="1.2940124">
        <time>2022-07-08T11:22:44Z</time>
      </trkpt>
      <trkpt lat="41.985916" lon="1.2939892">
        <time>2022-07-08T11:22:46Z</time>
      </trkpt>
      <trkpt lat="41.98599" lon="1.2939655">
        <time>2022-07-08T11:22:48Z</time>
      </trkpt>
      <trkpt lat="41.98606" lon="1.2939421">
        <time>2022-07-08T11:22:50Z</time>
      </trkpt>
      <trkpt lat="41.98614" lon="1.2939178">
        <time>2022-07-08T11:22:52Z</time>
      </trkpt>
      <trkpt lat="41.98622" lon="1.2938921">
        <time>2022-07-08T11:22:54Z</time>
      </trkpt>
      <trkpt lat="41.986298" lon="1.2938675">
        <time>2022-07-08T11:22:56Z</time>
      </trkpt>
      <trkpt lat="41.986374" lon="1.2938439">
        <time>2022-07-08T11:22:58Z</time>
      </trkpt>
      <trkpt lat="41.98645" lon="1.2938175">
        <time>2022-07-08T11:23:00Z</time>
      </trkpt>
      <trkpt lat="41.98653" lon="1.2937902">
        <time>2022-07-08T11:23:02Z</time>
      </trkpt>
      <trkpt lat="41.98661" lon="1.2937639">
        <time>2022-07-08T11:23:04Z</time>
      </trkpt>
      <trkpt lat="41.98669" lon="1.2937362">
        <time>2022-07-08T11:23:06Z</time>
      </trkpt>
      <trkpt lat="41.989155" lon="1.2936625">
        <time>2022-07-08T11:24:03Z</time>
      </trkpt>
      <trkpt lat="41.98972" lon="1.2936245">
        <time>2022-07-08T11:24:19Z</time>
      </trkpt>
      <trkpt lat="41.989815" lon="1.2936668">
        <time>2022-07-08T11:24:23Z</time>
      </trkpt>
      <trkpt lat="41.989876" lon="1.2936928">
        <time>2022-07-08T11:24:25Z</time>
      </trkpt>
      <trkpt lat="41.98994" lon="1.2937208">
        <time>2022-07-08T11:24:27Z</time>
      </trkpt>
      <trkpt lat="41.990005" lon="1.2937518">
        <time>2022-07-08T11:24:29Z</time>
      </trkpt>
      <trkpt lat="41.99007" lon="1.2937839">
        <time>2022-07-08T11:24:31Z</time>
      </trkpt>
      <trkpt lat="41.990135" lon="1.2938168">
        <time>2022-07-08T11:24:33Z</time>
      </trkpt>
      <trkpt lat="41.990204" lon="1.2938522">
        <time>2022-07-08T11:24:35Z</time>
      </trkpt>
      <trkpt lat="41.990273" lon="1.2938886">
        <time>2022-07-08T11:24:37Z</time>
      </trkpt>
      <trkpt lat="41.990337" lon="1.2939265">
        <time>2022-07-08T11:24:39Z</time>
      </trkpt>
      <trkpt lat="41.990402" lon="1.2939669">
        <time>2022-07-08T11:24:41Z</time>
      </trkpt>
      <trkpt lat="41.99047" lon="1.2940068">
        <time>2022-07-08T11:24:43Z</time>
      </trkpt>
      <trkpt lat="41.990536" lon="1.2940482">
        <time>2022-07-08T11:24:45Z</time>
      </trkpt>
      <trkpt lat="41.9906" lon="1.2940912">
        <time>2022-07-08T11:24:47Z</time>
      </trkpt>
      <trkpt lat="41.99067" lon="1.2941341">
        <time>2022-07-08T11:24:49Z</time>
      </trkpt>
      <trkpt lat="41.990734" lon="1.2941781">
        <time>2022-07-08T11:24:51Z</time>
      </trkpt>
      <trkpt lat="41.990837" lon="1.2942472">
        <time>2022-07-08T11:24:54Z</time>
      </trkpt>
      <trkpt lat="41.990906" lon="1.2942935">
        <time>2022-07-08T11:24:56Z</time>
      </trkpt>
      <trkpt lat="41.990974" lon="1.2943405">
        <time>2022-07-08T11:24:58Z</time>
      </trkpt>
      <trkpt lat="41.991047" lon="1.2943891">
        <time>2022-07-08T11:25:00Z</time>
      </trkpt>
      <trkpt lat="41.991123" lon="1.2944405">
        <time>2022-07-08T11:25:02Z</time>
      </trkpt>
      <trkpt lat="41.9912" lon="1.2944925">
        <time>2022-07-08T11:25:04Z</time>
      </trkpt>
      <trkpt lat="41.991276" lon="1.2945458">
        <time>2022-07-08T11:25:06Z</time>
      </trkpt>
      <trkpt lat="41.99135" lon="1.2946022">
        <time>2022-07-08T11:25:08Z</time>
      </trkpt>
      <trkpt lat="41.991432" lon="1.2946562">
        <time>2022-07-08T11:25:10Z</time>
      </trkpt>
      <trkpt lat="41.991516" lon="1.2947118">
        <time>2022-07-08T11:25:12Z</time>
      </trkpt>
      <trkpt lat="41.9916" lon="1.2947721">
        <time>2022-07-08T11:25:14Z</time>
      </trkpt>
      <trkpt lat="41.991646" lon="1.2948039">
        <time>2022-07-08T11:25:15Z</time>
      </trkpt>
      <trkpt lat="41.991737" lon="1.2948701">
        <time>2022-07-08T11:25:17Z</time>
      </trkpt>
      <trkpt lat="41.991787" lon="1.2949032">
        <time>2022-07-08T11:25:18Z</time>
      </trkpt>
      <trkpt lat="41.991837" lon="1.2949375">
        <time>2022-07-08T11:25:19Z</time>
      </trkpt>
      <trkpt lat="41.99189" lon="1.2949721">
        <time>2022-07-08T11:25:20Z</time>
      </trkpt>
      <trkpt lat="41.991943" lon="1.2950084">
        <time>2022-07-08T11:25:21Z</time>
      </trkpt>
      <trkpt lat="41.991997" lon="1.2950457">
        <time>2022-07-08T11:25:22Z</time>
      </trkpt>
      <trkpt lat="41.99205" lon="1.2950838">
        <time>2022-07-08T11:25:23Z</time>
      </trkpt>
      <trkpt lat="41.992104" lon="1.2951227">
        <time>2022-07-08T11:25:24Z</time>
      </trkpt>
      <trkpt lat="41.99216" lon="1.2951615">
        <time>2022-07-08T11:25:25Z</time>
      </trkpt>
      <trkpt lat="41.992218" lon="1.2952014">
        <time>2022-07-08T11:25:26Z</time>
      </trkpt>
      <trkpt lat="41.99228" lon="1.2952437">
        <time>2022-07-08T11:25:27Z</time>
      </trkpt>
      <trkpt lat="41.99234" lon="1.2952871">
        <time>2022-07-08T11:25:28Z</time>
      </trkpt>
      <trkpt lat="41.992405" lon="1.2953304">
        <time>2022-07-08T11:25:29Z</time>
      </trkpt>
      <trkpt lat="41.992466" lon="1.295374">
        <time>2022-07-08T11:25:30Z</time>
      </trkpt>
      <trkpt lat="41.99253" lon="1.2954184">
        <time>2022-07-08T11:25:31Z</time>
      </trkpt>
      <trkpt lat="41.992596" lon="1.2954621">
        <time>2022-07-08T11:25:32Z</time>
      </trkpt>
      <trkpt lat="41.99266" lon="1.2955064">
        <time>2022-07-08T11:25:33Z</time>
      </trkpt>
      <trkpt lat="41.992725" lon="1.2955501">
        <time>2022-07-08T11:25:34Z</time>
      </trkpt>
      <trkpt lat="41.99279" lon="1.2955934">
        <time>2022-07-08T11:25:35Z</time>
      </trkpt>
      <trkpt lat="41.99285" lon="1.2956377">
        <time>2022-07-08T11:25:36Z</time>
      </trkpt>
      <trkpt lat="41.992916" lon="1.2956808">
        <time>2022-07-08T11:25:37Z</time>
      </trkpt>
      <trkpt lat="41.992985" lon="1.2957227">
        <time>2022-07-08T11:25:38Z</time>
      </trkpt>
      <trkpt lat="41.993053" lon="1.2957654">
        <time>2022-07-08T11:25:39Z</time>
      </trkpt>
      <trkpt lat="41.993114" lon="1.2958084">
        <time>2022-07-08T11:25:40Z</time>
      </trkpt>
      <trkpt lat="41.99318" lon="1.2958524">
        <time>2022-07-08T11:25:41Z</time>
      </trkpt>
      <trkpt lat="41.99324" lon="1.2958951">
        <time>2022-07-08T11:25:42Z</time>
      </trkpt>
      <trkpt lat="41.9933" lon="1.2959367">
        <time>2022-07-08T11:25:43Z</time>
      </trkpt>
      <trkpt lat="41.993366" lon="1.295979">
        <time>2022-07-08T11:25:44Z</time>
      </trkpt>
      <trkpt lat="41.993427" lon="1.296021">
        <time>2022-07-08T11:25:45Z</time>
      </trkpt>
      <trkpt lat="41.99349" lon="1.2960631">
        <time>2022-07-08T11:25:46Z</time>
      </trkpt>
      <trkpt lat="41.99355" lon="1.2961054">
        <time>2022-07-08T11:25:47Z</time>
      </trkpt>
      <trkpt lat="41.99361" lon="1.2961473">
        <time>2022-07-08T11:25:48Z</time>
      </trkpt>
      <trkpt lat="41.993675" lon="1.29619">
        <time>2022-07-08T11:25:49Z</time>
      </trkpt>
      <trkpt lat="41.993736" lon="1.2962327">
        <time>2022-07-08T11:25:50Z</time>
      </trkpt>
      <trkpt lat="41.9938" lon="1.2962757">
        <time>2022-07-08T11:25:51Z</time>
      </trkpt>
      <trkpt lat="41.993866" lon="1.2963203">
        <time>2022-07-08T11:25:52Z</time>
      </trkpt>
      <trkpt lat="41.99393" lon="1.296366">
        <time>2022-07-08T11:25:53Z</time>
      </trkpt>
      <trkpt lat="41.993996" lon="1.2964116">
        <time>2022-07-08T11:25:54Z</time>
      </trkpt>
      <trkpt lat="41.994064" lon="1.296456">
        <time>2022-07-08T11:25:55Z</time>
      </trkpt>
      <trkpt lat="41.99413" lon="1.2964987">
        <time>2022-07-08T11:25:56Z</time>
      </trkpt>
      <trkpt lat="41.994198" lon="1.296539">
        <time>2022-07-08T11:25:57Z</time>
      </trkpt>
      <trkpt lat="41.994267" lon="1.29658">
        <time>2022-07-08T11:25:58Z</time>
      </trkpt>
      <trkpt lat="41.99433" lon="1.296621">
        <time>2022-07-08T11:25:59Z</time>
      </trkpt>
      <trkpt lat="41.9944" lon="1.2966603">
        <time>2022-07-08T11:26:00Z</time>
      </trkpt>
      <trkpt lat="41.99447" lon="1.296698">
        <time>2022-07-08T11:26:01Z</time>
      </trkpt>
      <trkpt lat="41.99454" lon="1.2967343">
        <time>2022-07-08T11:26:02Z</time>
      </trkpt>
      <trkpt lat="41.994614" lon="1.2967696">
        <time>2022-07-08T11:26:03Z</time>
      </trkpt>
      <trkpt lat="41.994686" lon="1.296804">
        <time>2022-07-08T11:26:04Z</time>
      </trkpt>
      <trkpt lat="41.994762" lon="1.296836">
        <time>2022-07-08T11:26:05Z</time>
      </trkpt>
      <trkpt lat="41.994835" lon="1.2968659">
        <time>2022-07-08T11:26:06Z</time>
      </trkpt>
      <trkpt lat="41.99491" lon="1.2968943">
        <time>2022-07-08T11:26:07Z</time>
      </trkpt>
      <trkpt lat="41.994984" lon="1.2969203">
        <time>2022-07-08T11:26:08Z</time>
      </trkpt>
      <trkpt lat="41.99506" lon="1.296945">
        <time>2022-07-08T11:26:09Z</time>
      </trkpt>
      <trkpt lat="41.995136" lon="1.2969676">
        <time>2022-07-08T11:26:10Z</time>
      </trkpt>
      <trkpt lat="41.995213" lon="1.2969886">
        <time>2022-07-08T11:26:11Z</time>
      </trkpt>
      <trkpt lat="41.995293" lon="1.2970083">
        <time>2022-07-08T11:26:12Z</time>
      </trkpt>
      <trkpt lat="41.99537" lon="1.2970266">
        <time>2022-07-08T11:26:13Z</time>
      </trkpt>
      <trkpt lat="41.99553" lon="1.2970586">
        <time>2022-07-08T11:26:15Z</time>
      </trkpt>
      <trkpt lat="41.99561" lon="1.2970712">
        <time>2022-07-08T11:26:16Z</time>
      </trkpt>
      <trkpt lat="41.995693" lon="1.297082">
        <time>2022-07-08T11:26:17Z</time>
      </trkpt>
      <trkpt lat="41.995777" lon="1.2970912">
        <time>2022-07-08T11:26:18Z</time>
      </trkpt>
      <trkpt lat="41.995865" lon="1.2970979">
        <time>2022-07-08T11:26:19Z</time>
      </trkpt>
      <trkpt lat="41.99595" lon="1.2971026">
        <time>2022-07-08T11:26:20Z</time>
      </trkpt>
      <trkpt lat="41.996037" lon="1.2971052">
        <time>2022-07-08T11:26:21Z</time>
      </trkpt>
      <trkpt lat="41.996124" lon="1.2971059">
        <time>2022-07-08T11:26:22Z</time>
      </trkpt>
      <trkpt lat="41.99621" lon="1.2971046">
        <time>2022-07-08T11:26:23Z</time>
      </trkpt>
      <trkpt lat="41.9963" lon="1.2971009">
        <time>2022-07-08T11:26:24Z</time>
      </trkpt>
      <trkpt lat="41.996387" lon="1.2970959">
        <time>2022-07-08T11:26:25Z</time>
      </trkpt>
      <trkpt lat="41.996475" lon="1.2970883">
        <time>2022-07-08T11:26:26Z</time>
      </trkpt>
      <trkpt lat="41.99656" lon="1.2970779">
        <time>2022-07-08T11:26:27Z</time>
      </trkpt>
      <trkpt lat="41.99664" lon="1.2970649">
        <time>2022-07-08T11:26:28Z</time>
      </trkpt>
      <trkpt lat="41.996723" lon="1.297051">
        <time>2022-07-08T11:26:29Z</time>
      </trkpt>
      <trkpt lat="41.996803" lon="1.2970356">
        <time>2022-07-08T11:26:30Z</time>
      </trkpt>
      <trkpt lat="41.996883" lon="1.2970189">
        <time>2022-07-08T11:26:31Z</time>
      </trkpt>
      <trkpt lat="41.996956" lon="1.2970026">
        <time>2022-07-08T11:26:32Z</time>
      </trkpt>
      <trkpt lat="41.997032" lon="1.2969843">
        <time>2022-07-08T11:26:33Z</time>
      </trkpt>
      <trkpt lat="41.997105" lon="1.2969639">
        <time>2022-07-08T11:26:34Z</time>
      </trkpt>
      <trkpt lat="41.997173" lon="1.296942">
        <time>2022-07-08T11:26:35Z</time>
      </trkpt>
      <trkpt lat="41.99724" lon="1.2969192">
        <time>2022-07-08T11:26:36Z</time>
      </trkpt>
      <trkpt lat="41.997303" lon="1.296896">
        <time>2022-07-08T11:26:37Z</time>
      </trkpt>
      <trkpt lat="41.997368" lon="1.2968723">
        <time>2022-07-08T11:26:38Z</time>
      </trkpt>
      <trkpt lat="41.99743" lon="1.2968487">
        <time>2022-07-08T11:26:39Z</time>
      </trkpt>
      <trkpt lat="41.997486" lon="1.296826">
        <time>2022-07-08T11:26:40Z</time>
      </trkpt>
      <trkpt lat="41.997543" lon="1.2968017">
        <time>2022-07-08T11:26:41Z</time>
      </trkpt>
      <trkpt lat="41.9976" lon="1.2967767">
        <time>2022-07-08T11:26:42Z</time>
      </trkpt>
      <trkpt lat="41.997654" lon="1.2967513">
        <time>2022-07-08T11:26:43Z</time>
      </trkpt>
      <trkpt lat="41.997707" lon="1.2967247">
        <time>2022-07-08T11:26:44Z</time>
      </trkpt>
      <trkpt lat="41.997757" lon="1.296697">
        <time>2022-07-08T11:26:45Z</time>
      </trkpt>
      <trkpt lat="41.99781" lon="1.2966686">
        <time>2022-07-08T11:26:46Z</time>
      </trkpt>
      <trkpt lat="41.99786" lon="1.2966403">
        <time>2022-07-08T11:26:47Z</time>
      </trkpt>
      <trkpt lat="41.997906" lon="1.2966137">
        <time>2022-07-08T11:26:48Z</time>
      </trkpt>
      <trkpt lat="41.998005" lon="1.296553">
        <time>2022-07-08T11:26:50Z</time>
      </trkpt>
      <trkpt lat="41.99805" lon="1.2965244">
        <time>2022-07-08T11:26:51Z</time>
      </trkpt>
      <trkpt lat="41.9981" lon="1.296493">
        <time>2022-07-08T11:26:52Z</time>
      </trkpt>
      <trkpt lat="41.998146" lon="1.296461">
        <time>2022-07-08T11:26:53Z</time>
      </trkpt>
      <trkpt lat="41.99819" lon="1.2964296">
        <time>2022-07-08T11:26:54Z</time>
      </trkpt>
      <trkpt lat="41.99824" lon="1.2963986">
        <time>2022-07-08T11:26:55Z</time>
      </trkpt>
      <trkpt lat="41.998287" lon="1.2963687">
        <time>2022-07-08T11:26:56Z</time>
      </trkpt>
      <trkpt lat="41.998375" lon="1.2963077">
        <time>2022-07-08T11:26:58Z</time>
      </trkpt>
      <trkpt lat="41.998466" lon="1.2962447">
        <time>2022-07-08T11:27:00Z</time>
      </trkpt>
      <trkpt lat="41.99851" lon="1.2962134">
        <time>2022-07-08T11:27:01Z</time>
      </trkpt>
      <trkpt lat="41.998592" lon="1.2961497">
        <time>2022-07-08T11:27:03Z</time>
      </trkpt>
      <trkpt lat="41.998676" lon="1.2960874">
        <time>2022-07-08T11:27:05Z</time>
      </trkpt>
      <trkpt lat="41.99872" lon="1.2960573">
        <time>2022-07-08T11:27:06Z</time>
      </trkpt>
      <trkpt lat="41.9988" lon="1.2959981">
        <time>2022-07-08T11:27:08Z</time>
      </trkpt>
      <trkpt lat="41.998882" lon="1.2959384">
        <time>2022-07-08T11:27:10Z</time>
      </trkpt>
      <trkpt lat="41.998924" lon="1.2959083">
        <time>2022-07-08T11:27:11Z</time>
      </trkpt>
      <trkpt lat="41.999004" lon="1.2958487">
        <time>2022-07-08T11:27:13Z</time>
      </trkpt>
      <trkpt lat="41.999084" lon="1.2957888">
        <time>2022-07-08T11:27:15Z</time>
      </trkpt>
      <trkpt lat="41.999165" lon="1.2957304">
        <time>2022-07-08T11:27:17Z</time>
      </trkpt>
      <trkpt lat="41.99925" lon="1.2956724">
        <time>2022-07-08T11:27:19Z</time>
      </trkpt>
      <trkpt lat="41.99933" lon="1.2956167">
        <time>2022-07-08T11:27:21Z</time>
      </trkpt>
      <trkpt lat="41.999405" lon="1.2955585">
        <time>2022-07-08T11:27:23Z</time>
      </trkpt>
      <trkpt lat="41.999485" lon="1.295498">
        <time>2022-07-08T11:27:25Z</time>
      </trkpt>
      <trkpt lat="41.99956" lon="1.2954371">
        <time>2022-07-08T11:27:27Z</time>
      </trkpt>
      <trkpt lat="41.99964" lon="1.2953755">
        <time>2022-07-08T11:27:29Z</time>
      </trkpt>
      <trkpt lat="41.999718" lon="1.2953137">
        <time>2022-07-08T11:27:31Z</time>
      </trkpt>
      <trkpt lat="41.999798" lon="1.2952541">
        <time>2022-07-08T11:27:33Z</time>
      </trkpt>
      <trkpt lat="41.99988" lon="1.2951955">
        <time>2022-07-08T11:27:35Z</time>
      </trkpt>
      <trkpt lat="41.999966" lon="1.2951368">
        <time>2022-07-08T11:27:37Z</time>
      </trkpt>
      <trkpt lat="42.000046" lon="1.2950798">
        <time>2022-07-08T11:27:39Z</time>
      </trkpt>
      <trkpt lat="42.000088" lon="1.2950518">
        <time>2022-07-08T11:27:40Z</time>
      </trkpt>
      <trkpt lat="42.000168" lon="1.2949951">
        <time>2022-07-08T11:27:42Z</time>
      </trkpt>
      <trkpt lat="42.00025" lon="1.2949377">
        <time>2022-07-08T11:27:44Z</time>
      </trkpt>
      <trkpt lat="42.00033" lon="1.2948794">
        <time>2022-07-08T11:27:46Z</time>
      </trkpt>
      <trkpt lat="42.000412" lon="1.2948191">
        <time>2022-07-08T11:27:48Z</time>
      </trkpt>
      <trkpt lat="42.000454" lon="1.2947891">
        <time>2022-07-08T11:27:49Z</time>
      </trkpt>
      <trkpt lat="42.000546" lon="1.2947288">
        <time>2022-07-08T11:27:51Z</time>
      </trkpt>
      <trkpt lat="42.00059" lon="1.2946994">
        <time>2022-07-08T11:27:52Z</time>
      </trkpt>
      <trkpt lat="42.00064" lon="1.2946692">
        <time>2022-07-08T11:27:53Z</time>
      </trkpt>
      <trkpt lat="42.00069" lon="1.2946395">
        <time>2022-07-08T11:27:54Z</time>
      </trkpt>
      <trkpt lat="42.00074" lon="1.2946098">
        <time>2022-07-08T11:27:55Z</time>
      </trkpt>
      <trkpt lat="42.000793" lon="1.2945795">
        <time>2022-07-08T11:27:56Z</time>
      </trkpt>
      <trkpt lat="42.000854" lon="1.2945461">
        <time>2022-07-08T11:27:57Z</time>
      </trkpt>
      <trkpt lat="42.000908" lon="1.2945151">
        <time>2022-07-08T11:27:58Z</time>
      </trkpt>
      <trkpt lat="42.000965" lon="1.2944838">
        <time>2022-07-08T11:27:59Z</time>
      </trkpt>
      <trkpt lat="42.001026" lon="1.2944515">
        <time>2022-07-08T11:28:00Z</time>
      </trkpt>
      <trkpt lat="42.001087" lon="1.2944192">
        <time>2022-07-08T11:28:01Z</time>
      </trkpt>
      <trkpt lat="42.001152" lon="1.2943861">
        <time>2022-07-08T11:28:02Z</time>
      </trkpt>
      <trkpt lat="42.001217" lon="1.2943531">
        <time>2022-07-08T11:28:03Z</time>
      </trkpt>
      <trkpt lat="42.00128" lon="1.2943218">
        <time>2022-07-08T11:28:04Z</time>
      </trkpt>
      <trkpt lat="42.00135" lon="1.2942898">
        <time>2022-07-08T11:28:05Z</time>
      </trkpt>
      <trkpt lat="42.00142" lon="1.2942572">
        <time>2022-07-08T11:28:06Z</time>
      </trkpt>
      <trkpt lat="42.0015" lon="1.2942235">
        <time>2022-07-08T11:28:07Z</time>
      </trkpt>
      <trkpt lat="42.001575" lon="1.2941926">
        <time>2022-07-08T11:28:08Z</time>
      </trkpt>
      <trkpt lat="42.001656" lon="1.2941608">
        <time>2022-07-08T11:28:09Z</time>
      </trkpt>
      <trkpt lat="42.001743" lon="1.2941269">
        <time>2022-07-08T11:28:10Z</time>
      </trkpt>
      <trkpt lat="42.001835" lon="1.2940948">
        <time>2022-07-08T11:28:11Z</time>
      </trkpt>
      <trkpt lat="42.001923" lon="1.2940645">
        <time>2022-07-08T11:28:12Z</time>
      </trkpt>
      <trkpt lat="42.002018" lon="1.2940352">
        <time>2022-07-08T11:28:13Z</time>
      </trkpt>
      <trkpt lat="42.00211" lon="1.2940075">
        <time>2022-07-08T11:28:14Z</time>
      </trkpt>
      <trkpt lat="42.002205" lon="1.2939802">
        <time>2022-07-08T11:28:15Z</time>
      </trkpt>
      <trkpt lat="42.002304" lon="1.2939535">
        <time>2022-07-08T11:28:16Z</time>
      </trkpt>
      <trkpt lat="42.002407" lon="1.2939283">
        <time>2022-07-08T11:28:17Z</time>
      </trkpt>
      <trkpt lat="42.00251" lon="1.2939049">
        <time>2022-07-08T11:28:18Z</time>
      </trkpt>
      <trkpt lat="42.002617" lon="1.2938832">
        <time>2022-07-08T11:28:19Z</time>
      </trkpt>
      <trkpt lat="42.002724" lon="1.2938615">
        <time>2022-07-08T11:28:20Z</time>
      </trkpt>
      <trkpt lat="42.00283" lon="1.2938412">
        <time>2022-07-08T11:28:21Z</time>
      </trkpt>
      <trkpt lat="42.002937" lon="1.2938229">
        <time>2022-07-08T11:28:22Z</time>
      </trkpt>
      <trkpt lat="42.003048" lon="1.2938069">
        <time>2022-07-08T11:28:23Z</time>
      </trkpt>
      <trkpt lat="42.003155" lon="1.2937945">
        <time>2022-07-08T11:28:24Z</time>
      </trkpt>
      <trkpt lat="42.003265" lon="1.2937856">
        <time>2022-07-08T11:28:25Z</time>
      </trkpt>
      <trkpt lat="42.00337" lon="1.2937796">
        <time>2022-07-08T11:28:26Z</time>
      </trkpt>
      <trkpt lat="42.003475" lon="1.2937772">
        <time>2022-07-08T11:28:27Z</time>
      </trkpt>
      <trkpt lat="42.00358" lon="1.293778">
        <time>2022-07-08T11:28:28Z</time>
      </trkpt>
      <trkpt lat="42.003677" lon="1.2937815">
        <time>2022-07-08T11:28:29Z</time>
      </trkpt>
      <trkpt lat="42.003777" lon="1.2937856">
        <time>2022-07-08T11:28:30Z</time>
      </trkpt>
      <trkpt lat="42.003876" lon="1.2937906">
        <time>2022-07-08T11:28:31Z</time>
      </trkpt>
      <trkpt lat="42.003967" lon="1.2937973">
        <time>2022-07-08T11:28:32Z</time>
      </trkpt>
      <trkpt lat="42.004063" lon="1.2938042">
        <time>2022-07-08T11:28:33Z</time>
      </trkpt>
      <trkpt lat="42.004158" lon="1.2938125">
        <time>2022-07-08T11:28:34Z</time>
      </trkpt>
      <trkpt lat="42.004253" lon="1.2938212">
        <time>2022-07-08T11:28:35Z</time>
      </trkpt>
      <trkpt lat="42.004353" lon="1.2938292">
        <time>2022-07-08T11:28:36Z</time>
      </trkpt>
      <trkpt lat="42.004448" lon="1.2938379">
        <time>2022-07-08T11:28:37Z</time>
      </trkpt>
      <trkpt lat="42.00454" lon="1.2938468">
        <time>2022-07-08T11:28:38Z</time>
      </trkpt>
      <trkpt lat="42.00463" lon="1.2938552">
        <time>2022-07-08T11:28:39Z</time>
      </trkpt>
      <trkpt lat="42.004715" lon="1.2938632">
        <time>2022-07-08T11:28:40Z</time>
      </trkpt>
      <trkpt lat="42.00479" lon="1.2938699">
        <time>2022-07-08T11:28:41Z</time>
      </trkpt>
      <trkpt lat="42.00486" lon="1.2938762">
        <time>2022-07-08T11:28:42Z</time>
      </trkpt>
      <trkpt lat="42.004925" lon="1.2938821">
        <time>2022-07-08T11:28:43Z</time>
      </trkpt>
      <trkpt lat="42.00499" lon="1.2938875">
        <time>2022-07-08T11:28:44Z</time>
      </trkpt>
      <trkpt lat="42.00505" lon="1.2938936">
        <time>2022-07-08T11:28:45Z</time>
      </trkpt>
      <trkpt lat="42.005108" lon="1.2938992">
        <time>2022-07-08T11:28:46Z</time>
      </trkpt>
      <trkpt lat="42.005157" lon="1.2939045">
        <time>2022-07-08T11:28:47Z</time>
      </trkpt>
      <trkpt lat="42.005203" lon="1.2939092">
        <time>2022-07-08T11:28:48Z</time>
      </trkpt>
      <trkpt lat="42.00527" lon="1.2939155">
        <time>2022-07-08T11:28:50Z</time>
      </trkpt>
      <trkpt lat="42.005306" lon="1.2939209">
        <time>2022-07-08T11:28:55Z</time>
      </trkpt>
      <trkpt lat="42.005436" lon="1.2939109">
        <time>2022-07-08T11:31:10Z</time>
      </trkpt>
      <trkpt lat="42.00551" lon="1.2938966">
        <time>2022-07-08T11:31:12Z</time>
      </trkpt>
      <trkpt lat="42.00559" lon="1.2938845">
        <time>2022-07-08T11:31:14Z</time>
      </trkpt>
      <trkpt lat="42.00568" lon="1.2938802">
        <time>2022-07-08T11:31:16Z</time>
      </trkpt>
      <trkpt lat="42.005733" lon="1.2938792">
        <time>2022-07-08T11:31:17Z</time>
      </trkpt>
      <trkpt lat="42.00585" lon="1.2938799">
        <time>2022-07-08T11:31:19Z</time>
      </trkpt>
      <trkpt lat="42.005913" lon="1.2938805">
        <time>2022-07-08T11:31:20Z</time>
      </trkpt>
      <trkpt lat="42.00598" lon="1.2938821">
        <time>2022-07-08T11:31:21Z</time>
      </trkpt>
      <trkpt lat="42.006054" lon="1.2938855">
        <time>2022-07-08T11:31:22Z</time>
      </trkpt>
      <trkpt lat="42.0062" lon="1.2938962">
        <time>2022-07-08T11:31:24Z</time>
      </trkpt>
      <trkpt lat="42.006275" lon="1.2939031">
        <time>2022-07-08T11:31:25Z</time>
      </trkpt>
      <trkpt lat="42.006355" lon="1.2939111">
        <time>2022-07-08T11:31:26Z</time>
      </trkpt>
      <trkpt lat="42.00643" lon="1.2939191">
        <time>2022-07-08T11:31:27Z</time>
      </trkpt>
      <trkpt lat="42.006516" lon="1.2939255">
        <time>2022-07-08T11:31:28Z</time>
      </trkpt>
      <trkpt lat="42.006596" lon="1.2939311">
        <time>2022-07-08T11:31:29Z</time>
      </trkpt>
      <trkpt lat="42.00668" lon="1.2939354">
        <time>2022-07-08T11:31:30Z</time>
      </trkpt>
      <trkpt lat="42.006767" lon="1.2939371">
        <time>2022-07-08T11:31:31Z</time>
      </trkpt>
      <trkpt lat="42.006855" lon="1.2939378">
        <time>2022-07-08T11:31:32Z</time>
      </trkpt>
      <trkpt lat="42.00694" lon="1.2939371">
        <time>2022-07-08T11:31:33Z</time>
      </trkpt>
      <trkpt lat="42.007023" lon="1.2939361">
        <time>2022-07-08T11:31:34Z</time>
      </trkpt>
      <trkpt lat="42.007114" lon="1.2939348">
        <time>2022-07-08T11:31:35Z</time>
      </trkpt>
      <trkpt lat="42.007202" lon="1.2939335">
        <time>2022-07-08T11:31:36Z</time>
      </trkpt>
      <trkpt lat="42.007294" lon="1.2939315">
        <time>2022-07-08T11:31:37Z</time>
      </trkpt>
      <trkpt lat="42.007378" lon="1.2939291">
        <time>2022-07-08T11:31:38Z</time>
      </trkpt>
      <trkpt lat="42.00746" lon="1.2939274">
        <time>2022-07-08T11:31:39Z</time>
      </trkpt>
      <trkpt lat="42.00755" lon="1.2939258">
        <time>2022-07-08T11:31:40Z</time>
      </trkpt>
      <trkpt lat="42.007637" lon="1.2939245">
        <time>2022-07-08T11:31:41Z</time>
      </trkpt>
      <trkpt lat="42.007725" lon="1.2939248">
        <time>2022-07-08T11:31:42Z</time>
      </trkpt>
      <trkpt lat="42.007805" lon="1.2939252">
        <time>2022-07-08T11:31:43Z</time>
      </trkpt>
      <trkpt lat="42.00789" lon="1.2939265">
        <time>2022-07-08T11:31:44Z</time>
      </trkpt>
      <trkpt lat="42.00797" lon="1.2939285">
        <time>2022-07-08T11:31:45Z</time>
      </trkpt>
      <trkpt lat="42.00805" lon="1.2939298">
        <time>2022-07-08T11:31:46Z</time>
      </trkpt>
      <trkpt lat="42.00813" lon="1.2939304">
        <time>2022-07-08T11:31:47Z</time>
      </trkpt>
      <trkpt lat="42.008205" lon="1.2939318">
        <time>2022-07-08T11:31:48Z</time>
      </trkpt>
      <trkpt lat="42.008286" lon="1.2939334">
        <time>2022-07-08T11:31:49Z</time>
      </trkpt>
      <trkpt lat="42.008366" lon="1.2939351">
        <time>2022-07-08T11:31:50Z</time>
      </trkpt>
      <trkpt lat="42.008446" lon="1.2939374">
        <time>2022-07-08T11:31:51Z</time>
      </trkpt>
      <trkpt lat="42.00852" lon="1.2939398">
        <time>2022-07-08T11:31:52Z</time>
      </trkpt>
      <trkpt lat="42.008602" lon="1.2939421">
        <time>2022-07-08T11:31:53Z</time>
      </trkpt>
      <trkpt lat="42.008682" lon="1.2939447">
        <time>2022-07-08T11:31:54Z</time>
      </trkpt>
      <trkpt lat="42.008762" lon="1.2939478">
        <time>2022-07-08T11:31:55Z</time>
      </trkpt>
      <trkpt lat="42.00884" lon="1.293951">
        <time>2022-07-08T11:31:56Z</time>
      </trkpt>
      <trkpt lat="42.008915" lon="1.2939541">
        <time>2022-07-08T11:31:57Z</time>
      </trkpt>
      <trkpt lat="42.00899" lon="1.293956">
        <time>2022-07-08T11:31:58Z</time>
      </trkpt>
      <trkpt lat="42.009068" lon="1.2939588">
        <time>2022-07-08T11:31:59Z</time>
      </trkpt>
      <trkpt lat="42.009144" lon="1.2939647">
        <time>2022-07-08T11:32:00Z</time>
      </trkpt>
      <trkpt lat="42.00922" lon="1.2939718">
        <time>2022-07-08T11:32:01Z</time>
      </trkpt>
      <trkpt lat="42.009296" lon="1.2939794">
        <time>2022-07-08T11:32:02Z</time>
      </trkpt>
      <trkpt lat="42.009365" lon="1.2939848">
        <time>2022-07-08T11:32:03Z</time>
      </trkpt>
      <trkpt lat="42.009434" lon="1.2939887">
        <time>2022-07-08T11:32:04Z</time>
      </trkpt>
      <trkpt lat="42.009506" lon="1.2939911">
        <time>2022-07-08T11:32:05Z</time>
      </trkpt>
      <trkpt lat="42.009575" lon="1.2939924">
        <time>2022-07-08T11:32:06Z</time>
      </trkpt>
      <trkpt lat="42.009644" lon="1.2939934">
        <time>2022-07-08T11:32:07Z</time>
      </trkpt>
      <trkpt lat="42.009716" lon="1.2939954">
        <time>2022-07-08T11:32:08Z</time>
      </trkpt>
      <trkpt lat="42.009792" lon="1.293998">
        <time>2022-07-08T11:32:09Z</time>
      </trkpt>
      <trkpt lat="42.009865" lon="1.294">
        <time>2022-07-08T11:32:10Z</time>
      </trkpt>
      <trkpt lat="42.009937" lon="1.2940017">
        <time>2022-07-08T11:32:11Z</time>
      </trkpt>
      <trkpt lat="42.010006" lon="1.2940041">
        <time>2022-07-08T11:32:12Z</time>
      </trkpt>
      <trkpt lat="42.01007" lon="1.2940063">
        <time>2022-07-08T11:32:13Z</time>
      </trkpt>
      <trkpt lat="42.010143" lon="1.2940087">
        <time>2022-07-08T11:32:14Z</time>
      </trkpt>
      <trkpt lat="42.010212" lon="1.2940097">
        <time>2022-07-08T11:32:15Z</time>
      </trkpt>
      <trkpt lat="42.01028" lon="1.294011">
        <time>2022-07-08T11:32:16Z</time>
      </trkpt>
      <trkpt lat="42.010345" lon="1.2940127">
        <time>2022-07-08T11:32:17Z</time>
      </trkpt>
      <trkpt lat="42.010414" lon="1.2940147">
        <time>2022-07-08T11:32:18Z</time>
      </trkpt>
      <trkpt lat="42.01048" lon="1.2940167">
        <time>2022-07-08T11:32:19Z</time>
      </trkpt>
      <trkpt lat="42.010548" lon="1.2940184">
        <time>2022-07-08T11:32:20Z</time>
      </trkpt>
      <trkpt lat="42.010612" lon="1.2940214">
        <time>2022-07-08T11:32:21Z</time>
      </trkpt>
      <trkpt lat="42.010677" lon="1.2940234">
        <time>2022-07-08T11:32:22Z</time>
      </trkpt>
      <trkpt lat="42.010742" lon="1.2940251">
        <time>2022-07-08T11:32:23Z</time>
      </trkpt>
      <trkpt lat="42.010803" lon="1.2940273">
        <time>2022-07-08T11:32:24Z</time>
      </trkpt>
      <trkpt lat="42.010868" lon="1.29403">
        <time>2022-07-08T11:32:25Z</time>
      </trkpt>
      <trkpt lat="42.01093" lon="1.294032">
        <time>2022-07-08T11:32:26Z</time>
      </trkpt>
      <trkpt lat="42.010983" lon="1.294033">
        <time>2022-07-08T11:32:27Z</time>
      </trkpt>
      <trkpt lat="42.01104" lon="1.2940353">
        <time>2022-07-08T11:32:28Z</time>
      </trkpt>
      <trkpt lat="42.0111" lon="1.294037">
        <time>2022-07-08T11:32:29Z</time>
      </trkpt>
      <trkpt lat="42.011154" lon="1.2940394">
        <time>2022-07-08T11:32:30Z</time>
      </trkpt>
      <trkpt lat="42.01121" lon="1.294042">
        <time>2022-07-08T11:32:31Z</time>
      </trkpt>
      <trkpt lat="42.01126" lon="1.2940444">
        <time>2022-07-08T11:32:32Z</time>
      </trkpt>
      <trkpt lat="42.01132" lon="1.2940463">
        <time>2022-07-08T11:32:33Z</time>
      </trkpt>
      <trkpt lat="42.01137" lon="1.2940483">
        <time>2022-07-08T11:32:34Z</time>
      </trkpt>
      <trkpt lat="42.01143" lon="1.2940507">
        <time>2022-07-08T11:32:35Z</time>
      </trkpt>
      <trkpt lat="42.01148" lon="1.2940526">
        <time>2022-07-08T11:32:36Z</time>
      </trkpt>
      <trkpt lat="42.011528" lon="1.2940553">
        <time>2022-07-08T11:32:37Z</time>
      </trkpt>
      <trkpt lat="42.011585" lon="1.2940576">
        <time>2022-07-08T11:32:38Z</time>
      </trkpt>
      <trkpt lat="42.011646" lon="1.29406">
        <time>2022-07-08T11:32:39Z</time>
      </trkpt>
      <trkpt lat="42.0117" lon="1.294063">
        <time>2022-07-08T11:32:40Z</time>
      </trkpt>
      <trkpt lat="42.011753" lon="1.294066">
        <time>2022-07-08T11:32:41Z</time>
      </trkpt>
      <trkpt lat="42.011806" lon="1.2940686">
        <time>2022-07-08T11:32:42Z</time>
      </trkpt>
      <trkpt lat="42.011868" lon="1.294071">
        <time>2022-07-08T11:32:43Z</time>
      </trkpt>
      <trkpt lat="42.011986" lon="1.2940739">
        <time>2022-07-08T11:32:45Z</time>
      </trkpt>
      <trkpt lat="42.01204" lon="1.294076">
        <time>2022-07-08T11:32:46Z</time>
      </trkpt>
      <trkpt lat="42.012093" lon="1.2940786">
        <time>2022-07-08T11:32:47Z</time>
      </trkpt>
      <trkpt lat="42.012154" lon="1.294081">
        <time>2022-07-08T11:32:48Z</time>
      </trkpt>
      <trkpt lat="42.01221" lon="1.294083">
        <time>2022-07-08T11:32:49Z</time>
      </trkpt>
      <trkpt lat="42.012268" lon="1.2940853">
        <time>2022-07-08T11:32:50Z</time>
      </trkpt>
      <trkpt lat="42.012325" lon="1.2940869">
        <time>2022-07-08T11:32:51Z</time>
      </trkpt>
      <trkpt lat="42.01238" lon="1.2940893">
        <time>2022-07-08T11:32:52Z</time>
      </trkpt>
      <trkpt lat="42.012436" lon="1.2940912">
        <time>2022-07-08T11:32:53Z</time>
      </trkpt>
      <trkpt lat="42.012486" lon="1.2940933">
        <time>2022-07-08T11:32:54Z</time>
      </trkpt>
      <trkpt lat="42.012592" lon="1.2940962">
        <time>2022-07-08T11:32:56Z</time>
      </trkpt>
      <trkpt lat="42.012638" lon="1.2940983">
        <time>2022-07-08T11:32:57Z</time>
      </trkpt>
      <trkpt lat="42.01274" lon="1.2941025">
        <time>2022-07-08T11:32:59Z</time>
      </trkpt>
      <trkpt lat="42.012787" lon="1.2941046">
        <time>2022-07-08T11:33:00Z</time>
      </trkpt>
      <trkpt lat="42.012875" lon="1.294107">
        <time>2022-07-08T11:33:02Z</time>
      </trkpt>
      <trkpt lat="42.01296" lon="1.2941086">
        <time>2022-07-08T11:33:04Z</time>
      </trkpt>
      <trkpt lat="42.01304" lon="1.2941105">
        <time>2022-07-08T11:33:06Z</time>
      </trkpt>
      <trkpt lat="42.01311" lon="1.2941142">
        <time>2022-07-08T11:33:08Z</time>
      </trkpt>
      <trkpt lat="42.01318" lon="1.2941172">
        <time>2022-07-08T11:33:10Z</time>
      </trkpt>
      <trkpt lat="42.013245" lon="1.29412">
        <time>2022-07-08T11:33:12Z</time>
      </trkpt>
      <trkpt lat="42.01331" lon="1.2941216">
        <time>2022-07-08T11:33:14Z</time>
      </trkpt>
      <trkpt lat="42.01337" lon="1.2941235">
        <time>2022-07-08T11:33:16Z</time>
      </trkpt>
      <trkpt lat="42.013428" lon="1.2941252">
        <time>2022-07-08T11:33:18Z</time>
      </trkpt>
      <trkpt lat="42.013493" lon="1.2941276">
        <time>2022-07-08T11:33:20Z</time>
      </trkpt>
      <trkpt lat="42.01355" lon="1.2941285">
        <time>2022-07-08T11:33:22Z</time>
      </trkpt>
      <trkpt lat="42.01361" lon="1.2941309">
        <time>2022-07-08T11:33:24Z</time>
      </trkpt>
      <trkpt lat="42.013668" lon="1.2941343">
        <time>2022-07-08T11:33:26Z</time>
      </trkpt>
      <trkpt lat="42.013725" lon="1.2941349">
        <time>2022-07-08T11:33:28Z</time>
      </trkpt>
      <trkpt lat="42.013786" lon="1.2941376">
        <time>2022-07-08T11:33:30Z</time>
      </trkpt>
      <trkpt lat="42.01384" lon="1.2941395">
        <time>2022-07-08T11:33:32Z</time>
      </trkpt>
      <trkpt lat="42.013897" lon="1.2941419">
        <time>2022-07-08T11:33:34Z</time>
      </trkpt>
      <trkpt lat="42.013954" lon="1.2941439">
        <time>2022-07-08T11:33:36Z</time>
      </trkpt>
      <trkpt lat="42.014008" lon="1.2941475">
        <time>2022-07-08T11:33:38Z</time>
      </trkpt>
      <trkpt lat="42.014065" lon="1.2941505">
        <time>2022-07-08T11:33:40Z</time>
      </trkpt>
      <trkpt lat="42.01412" lon="1.2941549">
        <time>2022-07-08T11:33:42Z</time>
      </trkpt>
      <trkpt lat="42.014175" lon="1.2941588">
        <time>2022-07-08T11:33:44Z</time>
      </trkpt>
      <trkpt lat="42.014233" lon="1.2941612">
        <time>2022-07-08T11:33:46Z</time>
      </trkpt>
      <trkpt lat="42.014282" lon="1.2941635">
        <time>2022-07-08T11:33:48Z</time>
      </trkpt>
      <trkpt lat="42.014362" lon="1.2941682">
        <time>2022-07-08T11:33:51Z</time>
      </trkpt>
      <trkpt lat="42.014412" lon="1.2941695">
        <time>2022-07-08T11:33:53Z</time>
      </trkpt>
      <trkpt lat="42.014465" lon="1.2941715">
        <time>2022-07-08T11:33:55Z</time>
      </trkpt>
      <trkpt lat="42.01452" lon="1.2941765">
        <time>2022-07-08T11:33:57Z</time>
      </trkpt>
      <trkpt lat="42.014576" lon="1.2941839">
        <time>2022-07-08T11:33:59Z</time>
      </trkpt>
      <trkpt lat="42.014652" lon="1.2941939">
        <time>2022-07-08T11:34:02Z</time>
      </trkpt>
      <trkpt lat="42.014706" lon="1.2941998">
        <time>2022-07-08T11:34:04Z</time>
      </trkpt>
      <trkpt lat="42.01476" lon="1.2942075">
        <time>2022-07-08T11:34:06Z</time>
      </trkpt>
      <trkpt lat="42.014835" lon="1.2942286">
        <time>2022-07-08T11:34:09Z</time>
      </trkpt>
      <trkpt lat="42.014885" lon="1.2942518">
        <time>2022-07-08T11:34:11Z</time>
      </trkpt>
      <trkpt lat="42.01493" lon="1.2942818">
        <time>2022-07-08T11:34:13Z</time>
      </trkpt>
      <trkpt lat="42.014996" lon="1.2943442">
        <time>2022-07-08T11:34:16Z</time>
      </trkpt>
      <trkpt lat="42.015034" lon="1.2943935">
        <time>2022-07-08T11:34:18Z</time>
      </trkpt>
      <trkpt lat="42.015064" lon="1.2944475">
        <time>2022-07-08T11:34:20Z</time>
      </trkpt>
      <trkpt lat="42.015095" lon="1.2945185">
        <time>2022-07-08T11:34:22Z</time>
      </trkpt>
      <trkpt lat="42.015118" lon="1.2946035">
        <time>2022-07-08T11:34:24Z</time>
      </trkpt>
      <trkpt lat="42.015137" lon="1.2946988">
        <time>2022-07-08T11:34:26Z</time>
      </trkpt>
      <trkpt lat="42.01515" lon="1.2948052">
        <time>2022-07-08T11:34:28Z</time>
      </trkpt>
      <trkpt lat="42.01516" lon="1.2949191">
        <time>2022-07-08T11:34:30Z</time>
      </trkpt>
      <trkpt lat="42.01517" lon="1.2950385">
        <time>2022-07-08T11:34:32Z</time>
      </trkpt>
      <trkpt lat="42.01518" lon="1.2951628">
        <time>2022-07-08T11:34:34Z</time>
      </trkpt>
      <trkpt lat="42.015186" lon="1.2952945">
        <time>2022-07-08T11:34:36Z</time>
      </trkpt>
      <trkpt lat="42.015194" lon="1.2954378">
        <time>2022-07-08T11:34:38Z</time>
      </trkpt>
      <trkpt lat="42.015198" lon="1.2955091">
        <time>2022-07-08T11:34:39Z</time>
      </trkpt>
      <trkpt lat="42.0152" lon="1.2955822">
        <time>2022-07-08T11:34:40Z</time>
      </trkpt>
      <trkpt lat="42.015205" lon="1.2956568">
        <time>2022-07-08T11:34:41Z</time>
      </trkpt>
      <trkpt lat="42.015213" lon="1.2957327">
        <time>2022-07-08T11:34:42Z</time>
      </trkpt>
      <trkpt lat="42.015217" lon="1.2958108">
        <time>2022-07-08T11:34:43Z</time>
      </trkpt>
      <trkpt lat="42.01523" lon="1.2958895">
        <time>2022-07-08T11:34:44Z</time>
      </trkpt>
      <trkpt lat="42.015236" lon="1.2959738">
        <time>2022-07-08T11:34:45Z</time>
      </trkpt>
      <trkpt lat="42.015244" lon="1.296053">
        <time>2022-07-08T11:34:46Z</time>
      </trkpt>
      <trkpt lat="42.015255" lon="1.2961334">
        <time>2022-07-08T11:34:47Z</time>
      </trkpt>
      <trkpt lat="42.015263" lon="1.2962161">
        <time>2022-07-08T11:34:48Z</time>
      </trkpt>
      <trkpt lat="42.015274" lon="1.2962987">
        <time>2022-07-08T11:34:49Z</time>
      </trkpt>
      <trkpt lat="42.015285" lon="1.2963817">
        <time>2022-07-08T11:34:50Z</time>
      </trkpt>
      <trkpt lat="42.015297" lon="1.2964665">
        <time>2022-07-08T11:34:51Z</time>
      </trkpt>
      <trkpt lat="42.015312" lon="1.2965515">
        <time>2022-07-08T11:34:52Z</time>
      </trkpt>
      <trkpt lat="42.01533" lon="1.296635">
        <time>2022-07-08T11:34:53Z</time>
      </trkpt>
      <trkpt lat="42.015347" lon="1.2967194">
        <time>2022-07-08T11:34:54Z</time>
      </trkpt>
      <trkpt lat="42.015366" lon="1.2968094">
        <time>2022-07-08T11:34:55Z</time>
      </trkpt>
      <trkpt lat="42.015385" lon="1.296897">
        <time>2022-07-08T11:34:56Z</time>
      </trkpt>
      <trkpt lat="42.0154" lon="1.2969774">
        <time>2022-07-08T11:34:57Z</time>
      </trkpt>
      <trkpt lat="42.015423" lon="1.297059">
        <time>2022-07-08T11:34:58Z</time>
      </trkpt>
      <trkpt lat="42.015446" lon="1.2971474">
        <time>2022-07-08T11:34:59Z</time>
      </trkpt>
      <trkpt lat="42.015472" lon="1.2972294">
        <time>2022-07-08T11:35:00Z</time>
      </trkpt>
      <trkpt lat="42.015495" lon="1.2973111">
        <time>2022-07-08T11:35:01Z</time>
      </trkpt>
      <trkpt lat="42.01552" lon="1.2973937">
        <time>2022-07-08T11:35:02Z</time>
      </trkpt>
      <trkpt lat="42.01555" lon="1.2974768">
        <time>2022-07-08T11:35:03Z</time>
      </trkpt>
      <trkpt lat="42.015575" lon="1.2975603">
        <time>2022-07-08T11:35:04Z</time>
      </trkpt>
      <trkpt lat="42.015606" lon="1.2976434">
        <time>2022-07-08T11:35:05Z</time>
      </trkpt>
      <trkpt lat="42.015636" lon="1.2977268">
        <time>2022-07-08T11:35:06Z</time>
      </trkpt>
      <trkpt lat="42.015667" lon="1.2978086">
        <time>2022-07-08T11:35:07Z</time>
      </trkpt>
      <trkpt lat="42.0157" lon="1.2978894">
        <time>2022-07-08T11:35:08Z</time>
      </trkpt>
      <trkpt lat="42.015736" lon="1.2979693">
        <time>2022-07-08T11:35:09Z</time>
      </trkpt>
      <trkpt lat="42.01577" lon="1.2980473">
        <time>2022-07-08T11:35:10Z</time>
      </trkpt>
      <trkpt lat="42.01581" lon="1.298128">
        <time>2022-07-08T11:35:11Z</time>
      </trkpt>
      <trkpt lat="42.015846" lon="1.2982054">
        <time>2022-07-08T11:35:12Z</time>
      </trkpt>
      <trkpt lat="42.01588" lon="1.2982746">
        <time>2022-07-08T11:35:13Z</time>
      </trkpt>
      <trkpt lat="42.015915" lon="1.2983431">
        <time>2022-07-08T11:35:14Z</time>
      </trkpt>
      <trkpt lat="42.015953" lon="1.2984093">
        <time>2022-07-08T11:35:15Z</time>
      </trkpt>
      <trkpt lat="42.015987" lon="1.2984747">
        <time>2022-07-08T11:35:16Z</time>
      </trkpt>
      <trkpt lat="42.01602" lon="1.2985383">
        <time>2022-07-08T11:35:17Z</time>
      </trkpt>
      <trkpt lat="42.016052" lon="1.2986">
        <time>2022-07-08T11:35:18Z</time>
      </trkpt>
      <trkpt lat="42.016117" lon="1.298719">
        <time>2022-07-08T11:35:20Z</time>
      </trkpt>
      <trkpt lat="42.016144" lon="1.2987757">
        <time>2022-07-08T11:35:21Z</time>
      </trkpt>
      <trkpt lat="42.016174" lon="1.2988303">
        <time>2022-07-08T11:35:22Z</time>
      </trkpt>
      <trkpt lat="42.016197" lon="1.29888">
        <time>2022-07-08T11:35:23Z</time>
      </trkpt>
      <trkpt lat="42.01625" lon="1.2989756">
        <time>2022-07-08T11:35:25Z</time>
      </trkpt>
      <trkpt lat="42.0163" lon="1.2990683">
        <time>2022-07-08T11:35:27Z</time>
      </trkpt>
      <trkpt lat="42.016346" lon="1.299158">
        <time>2022-07-08T11:35:29Z</time>
      </trkpt>
      <trkpt lat="42.01639" lon="1.2992473">
        <time>2022-07-08T11:35:31Z</time>
      </trkpt>
      <trkpt lat="42.016438" lon="1.2993376">
        <time>2022-07-08T11:35:33Z</time>
      </trkpt>
      <trkpt lat="42.016487" lon="1.2994306">
        <time>2022-07-08T11:35:35Z</time>
      </trkpt>
      <trkpt lat="42.016533" lon="1.2995203">
        <time>2022-07-08T11:35:37Z</time>
      </trkpt>
      <trkpt lat="42.016582" lon="1.2996056">
        <time>2022-07-08T11:35:39Z</time>
      </trkpt>
      <trkpt lat="42.016632" lon="1.2996962">
        <time>2022-07-08T11:35:41Z</time>
      </trkpt>
      <trkpt lat="42.016674" lon="1.2997849">
        <time>2022-07-08T11:35:43Z</time>
      </trkpt>
      <trkpt lat="42.01672" lon="1.2998729">
        <time>2022-07-08T11:35:45Z</time>
      </trkpt>
      <trkpt lat="42.016766" lon="1.299964">
        <time>2022-07-08T11:35:47Z</time>
      </trkpt>
      <trkpt lat="42.016808" lon="1.3000525">
        <time>2022-07-08T11:35:49Z</time>
      </trkpt>
      <trkpt lat="42.016853" lon="1.3001506">
        <time>2022-07-08T11:35:51Z</time>
      </trkpt>
      <trkpt lat="42.016895" lon="1.3002566">
        <time>2022-07-08T11:35:53Z</time>
      </trkpt>
      <trkpt lat="42.016945" lon="1.3003782">
        <time>2022-07-08T11:35:55Z</time>
      </trkpt>
      <trkpt lat="42.016968" lon="1.3004402">
        <time>2022-07-08T11:35:56Z</time>
      </trkpt>
      <trkpt lat="42.016994" lon="1.300507">
        <time>2022-07-08T11:35:57Z</time>
      </trkpt>
      <trkpt lat="42.017017" lon="1.3005686">
        <time>2022-07-08T11:35:58Z</time>
      </trkpt>
      <trkpt lat="42.017044" lon="1.3006319">
        <time>2022-07-08T11:35:59Z</time>
      </trkpt>
      <trkpt lat="42.017067" lon="1.3006963">
        <time>2022-07-08T11:36:00Z</time>
      </trkpt>
      <trkpt lat="42.017094" lon="1.3007625">
        <time>2022-07-08T11:36:01Z</time>
      </trkpt>
      <trkpt lat="42.01712" lon="1.3008356">
        <time>2022-07-08T11:36:02Z</time>
      </trkpt>
      <trkpt lat="42.017147" lon="1.3009086">
        <time>2022-07-08T11:36:03Z</time>
      </trkpt>
      <trkpt lat="42.017174" lon="1.3009822">
        <time>2022-07-08T11:36:04Z</time>
      </trkpt>
      <trkpt lat="42.017197" lon="1.3010515">
        <time>2022-07-08T11:36:05Z</time>
      </trkpt>
      <trkpt lat="42.01722" lon="1.3011231">
        <time>2022-07-08T11:36:06Z</time>
      </trkpt>
      <trkpt lat="42.017242" lon="1.3011975">
        <time>2022-07-08T11:36:07Z</time>
      </trkpt>
      <trkpt lat="42.01726" lon="1.3012722">
        <time>2022-07-08T11:36:08Z</time>
      </trkpt>
      <trkpt lat="42.017284" lon="1.3013462">
        <time>2022-07-08T11:36:09Z</time>
      </trkpt>
      <trkpt lat="42.017307" lon="1.3014208">
        <time>2022-07-08T11:36:10Z</time>
      </trkpt>
      <trkpt lat="42.017326" lon="1.3014958">
        <time>2022-07-08T11:36:11Z</time>
      </trkpt>
      <trkpt lat="42.01735" lon="1.3015772">
        <time>2022-07-08T11:36:12Z</time>
      </trkpt>
      <trkpt lat="42.01737" lon="1.3016512">
        <time>2022-07-08T11:36:13Z</time>
      </trkpt>
      <trkpt lat="42.017387" lon="1.3017268">
        <time>2022-07-08T11:36:14Z</time>
      </trkpt>
      <trkpt lat="42.01741" lon="1.3018029">
        <time>2022-07-08T11:36:15Z</time>
      </trkpt>
      <trkpt lat="42.01743" lon="1.3018788">
        <time>2022-07-08T11:36:16Z</time>
      </trkpt>
      <trkpt lat="42.017452" lon="1.3019549">
        <time>2022-07-08T11:36:17Z</time>
      </trkpt>
      <trkpt lat="42.017475" lon="1.3020295">
        <time>2022-07-08T11:36:18Z</time>
      </trkpt>
      <trkpt lat="42.017494" lon="1.3021041">
        <time>2022-07-08T11:36:19Z</time>
      </trkpt>
      <trkpt lat="42.017513" lon="1.3021781">
        <time>2022-07-08T11:36:20Z</time>
      </trkpt>
      <trkpt lat="42.017536" lon="1.3022575">
        <time>2022-07-08T11:36:21Z</time>
      </trkpt>
      <trkpt lat="42.017555" lon="1.3023359">
        <time>2022-07-08T11:36:22Z</time>
      </trkpt>
      <trkpt lat="42.017574" lon="1.3024088">
        <time>2022-07-08T11:36:23Z</time>
      </trkpt>
      <trkpt lat="42.017593" lon="1.3024815">
        <time>2022-07-08T11:36:24Z</time>
      </trkpt>
      <trkpt lat="42.017616" lon="1.3025541">
        <time>2022-07-08T11:36:25Z</time>
      </trkpt>
      <trkpt lat="42.017635" lon="1.3026308">
        <time>2022-07-08T11:36:26Z</time>
      </trkpt>
      <trkpt lat="42.017654" lon="1.3027018">
        <time>2022-07-08T11:36:27Z</time>
      </trkpt>
      <trkpt lat="42.017673" lon="1.3027738">
        <time>2022-07-08T11:36:28Z</time>
      </trkpt>
      <trkpt lat="42.017693" lon="1.3028475">
        <time>2022-07-08T11:36:29Z</time>
      </trkpt>
      <trkpt lat="42.01771" lon="1.3029221">
        <time>2022-07-08T11:36:30Z</time>
      </trkpt>
      <trkpt lat="42.01773" lon="1.3029984">
        <time>2022-07-08T11:36:31Z</time>
      </trkpt>
      <trkpt lat="42.01775" lon="1.3030765">
        <time>2022-07-08T11:36:32Z</time>
      </trkpt>
      <trkpt lat="42.017773" lon="1.3031608">
        <time>2022-07-08T11:36:33Z</time>
      </trkpt>
      <trkpt lat="42.017796" lon="1.3032391">
        <time>2022-07-08T11:36:34Z</time>
      </trkpt>
      <trkpt lat="42.01784" lon="1.3034024">
        <time>2022-07-08T11:36:36Z</time>
      </trkpt>
      <trkpt lat="42.017864" lon="1.3034917">
        <time>2022-07-08T11:36:37Z</time>
      </trkpt>
      <trkpt lat="42.017887" lon="1.3035798">
        <time>2022-07-08T11:36:38Z</time>
      </trkpt>
      <trkpt lat="42.01791" lon="1.3036618">
        <time>2022-07-08T11:36:39Z</time>
      </trkpt>
      <trkpt lat="42.01793" lon="1.3037457">
        <time>2022-07-08T11:36:40Z</time>
      </trkpt>
      <trkpt lat="42.017952" lon="1.3038307">
        <time>2022-07-08T11:36:41Z</time>
      </trkpt>
      <trkpt lat="42.01797" lon="1.3039235">
        <time>2022-07-08T11:36:42Z</time>
      </trkpt>
      <trkpt lat="42.017994" lon="1.304015">
        <time>2022-07-08T11:36:43Z</time>
      </trkpt>
      <trkpt lat="42.018017" lon="1.3041008">
        <time>2022-07-08T11:36:44Z</time>
      </trkpt>
      <trkpt lat="42.018036" lon="1.3041891">
        <time>2022-07-08T11:36:45Z</time>
      </trkpt>
      <trkpt lat="42.01806" lon="1.304285">
        <time>2022-07-08T11:36:46Z</time>
      </trkpt>
      <trkpt lat="42.018078" lon="1.3043808">
        <time>2022-07-08T11:36:47Z</time>
      </trkpt>
      <trkpt lat="42.018097" lon="1.3044771">
        <time>2022-07-08T11:36:48Z</time>
      </trkpt>
      <trkpt lat="42.018116" lon="1.304568">
        <time>2022-07-08T11:36:49Z</time>
      </trkpt>
      <trkpt lat="42.01813" lon="1.3046627">
        <time>2022-07-08T11:36:50Z</time>
      </trkpt>
      <trkpt lat="42.018154" lon="1.3047657">
        <time>2022-07-08T11:36:51Z</time>
      </trkpt>
      <trkpt lat="42.018173" lon="1.3048681">
        <time>2022-07-08T11:36:52Z</time>
      </trkpt>
      <trkpt lat="42.018192" lon="1.3049711">
        <time>2022-07-08T11:36:53Z</time>
      </trkpt>
      <trkpt lat="42.018208" lon="1.3050674">
        <time>2022-07-08T11:36:54Z</time>
      </trkpt>
      <trkpt lat="42.018227" lon="1.3051664">
        <time>2022-07-08T11:36:55Z</time>
      </trkpt>
      <trkpt lat="42.018246" lon="1.3052677">
        <time>2022-07-08T11:36:56Z</time>
      </trkpt>
      <trkpt lat="42.01826" lon="1.3053701">
        <time>2022-07-08T11:36:57Z</time>
      </trkpt>
      <trkpt lat="42.01828" lon="1.3054667">
        <time>2022-07-08T11:36:58Z</time>
      </trkpt>
      <trkpt lat="42.0183" lon="1.3055744">
        <time>2022-07-08T11:36:59Z</time>
      </trkpt>
      <trkpt lat="42.018314" lon="1.3056743">
        <time>2022-07-08T11:37:00Z</time>
      </trkpt>
      <trkpt lat="42.018333" lon="1.3057843">
        <time>2022-07-08T11:37:01Z</time>
      </trkpt>
      <trkpt lat="42.018353" lon="1.3058944">
        <time>2022-07-08T11:37:02Z</time>
      </trkpt>
      <trkpt lat="42.018368" lon="1.306005">
        <time>2022-07-08T11:37:03Z</time>
      </trkpt>
      <trkpt lat="42.018383" lon="1.3061154">
        <time>2022-07-08T11:37:04Z</time>
      </trkpt>
      <trkpt lat="42.018394" lon="1.3062257">
        <time>2022-07-08T11:37:05Z</time>
      </trkpt>
      <trkpt lat="42.01841" lon="1.3063366">
        <time>2022-07-08T11:37:06Z</time>
      </trkpt>
      <trkpt lat="42.01842" lon="1.3064547">
        <time>2022-07-08T11:37:07Z</time>
      </trkpt>
      <trkpt lat="42.018433" lon="1.3065706">
        <time>2022-07-08T11:37:08Z</time>
      </trkpt>
      <trkpt lat="42.018444" lon="1.306677">
        <time>2022-07-08T11:37:09Z</time>
      </trkpt>
      <trkpt lat="42.018456" lon="1.306784">
        <time>2022-07-08T11:37:10Z</time>
      </trkpt>
      <trkpt lat="42.018467" lon="1.3068913">
        <time>2022-07-08T11:37:11Z</time>
      </trkpt>
      <trkpt lat="42.01848" lon="1.3069987">
        <time>2022-07-08T11:37:12Z</time>
      </trkpt>
      <trkpt lat="42.01849" lon="1.3071067">
        <time>2022-07-08T11:37:13Z</time>
      </trkpt>
      <trkpt lat="42.018505" lon="1.3072147">
        <time>2022-07-08T11:37:14Z</time>
      </trkpt>
      <trkpt lat="42.018517" lon="1.3073224">
        <time>2022-07-08T11:37:15Z</time>
      </trkpt>
      <trkpt lat="42.018528" lon="1.3074287">
        <time>2022-07-08T11:37:16Z</time>
      </trkpt>
      <trkpt lat="42.01854" lon="1.3075347">
        <time>2022-07-08T11:37:17Z</time>
      </trkpt>
      <trkpt lat="42.01855" lon="1.307646">
        <time>2022-07-08T11:37:18Z</time>
      </trkpt>
      <trkpt lat="42.018566" lon="1.307755">
        <time>2022-07-08T11:37:19Z</time>
      </trkpt>
      <trkpt lat="42.018578" lon="1.3078556">
        <time>2022-07-08T11:37:20Z</time>
      </trkpt>
      <trkpt lat="42.01859" lon="1.3079563">
        <time>2022-07-08T11:37:21Z</time>
      </trkpt>
      <trkpt lat="42.0186" lon="1.3080623">
        <time>2022-07-08T11:37:22Z</time>
      </trkpt>
      <trkpt lat="42.018612" lon="1.308165">
        <time>2022-07-08T11:37:23Z</time>
      </trkpt>
      <trkpt lat="42.018623" lon="1.3082583">
        <time>2022-07-08T11:37:24Z</time>
      </trkpt>
      <trkpt lat="42.01863" lon="1.3083516">
        <time>2022-07-08T11:37:25Z</time>
      </trkpt>
      <trkpt lat="42.018642" lon="1.3084463">
        <time>2022-07-08T11:37:26Z</time>
      </trkpt>
      <trkpt lat="42.018654" lon="1.308548">
        <time>2022-07-08T11:37:27Z</time>
      </trkpt>
      <trkpt lat="42.01866" lon="1.3086473">
        <time>2022-07-08T11:37:28Z</time>
      </trkpt>
      <trkpt lat="42.018673" lon="1.308739">
        <time>2022-07-08T11:37:29Z</time>
      </trkpt>
      <trkpt lat="42.018684" lon="1.308831">
        <time>2022-07-08T11:37:30Z</time>
      </trkpt>
      <trkpt lat="42.0187" lon="1.3089279">
        <time>2022-07-08T11:37:31Z</time>
      </trkpt>
      <trkpt lat="42.01871" lon="1.3090227">
        <time>2022-07-08T11:37:32Z</time>
      </trkpt>
      <trkpt lat="42.018723" lon="1.3091162">
        <time>2022-07-08T11:37:33Z</time>
      </trkpt>
      <trkpt lat="42.01873" lon="1.3092092">
        <time>2022-07-08T11:37:34Z</time>
      </trkpt>
      <trkpt lat="42.018738" lon="1.3093016">
        <time>2022-07-08T11:37:35Z</time>
      </trkpt>
      <trkpt lat="42.018738" lon="1.3093936">
        <time>2022-07-08T11:37:36Z</time>
      </trkpt>
      <trkpt lat="42.01874" lon="1.3094836">
        <time>2022-07-08T11:37:37Z</time>
      </trkpt>
      <trkpt lat="42.018745" lon="1.3095729">
        <time>2022-07-08T11:37:38Z</time>
      </trkpt>
      <trkpt lat="42.01875" lon="1.3096633">
        <time>2022-07-08T11:37:39Z</time>
      </trkpt>
      <trkpt lat="42.018753" lon="1.3097539">
        <time>2022-07-08T11:37:40Z</time>
      </trkpt>
      <trkpt lat="42.018753" lon="1.3098439">
        <time>2022-07-08T11:37:41Z</time>
      </trkpt>
      <trkpt lat="42.01875" lon="1.3099335">
        <time>2022-07-08T11:37:42Z</time>
      </trkpt>
      <trkpt lat="42.018745" lon="1.3100243">
        <time>2022-07-08T11:37:43Z</time>
      </trkpt>
      <trkpt lat="42.018738" lon="1.3101139">
        <time>2022-07-08T11:37:44Z</time>
      </trkpt>
      <trkpt lat="42.018734" lon="1.310203">
        <time>2022-07-08T11:37:45Z</time>
      </trkpt>
      <trkpt lat="42.018726" lon="1.3102885">
        <time>2022-07-08T11:37:46Z</time>
      </trkpt>
      <trkpt lat="42.01871" lon="1.3104612">
        <time>2022-07-08T11:37:48Z</time>
      </trkpt>
      <trkpt lat="42.018703" lon="1.3105482">
        <time>2022-07-08T11:37:49Z</time>
      </trkpt>
      <trkpt lat="42.018696" lon="1.3106352">
        <time>2022-07-08T11:37:50Z</time>
      </trkpt>
      <trkpt lat="42.01869" lon="1.3107219">
        <time>2022-07-08T11:37:51Z</time>
      </trkpt>
      <trkpt lat="42.01868" lon="1.3108095">
        <time>2022-07-08T11:37:52Z</time>
      </trkpt>
      <trkpt lat="42.018673" lon="1.3108965">
        <time>2022-07-08T11:37:53Z</time>
      </trkpt>
      <trkpt lat="42.018665" lon="1.3109845">
        <time>2022-07-08T11:37:54Z</time>
      </trkpt>
      <trkpt lat="42.01866" lon="1.3110726">
        <time>2022-07-08T11:37:55Z</time>
      </trkpt>
      <trkpt lat="42.018654" lon="1.3111612">
        <time>2022-07-08T11:37:56Z</time>
      </trkpt>
      <trkpt lat="42.018646" lon="1.3112493">
        <time>2022-07-08T11:37:57Z</time>
      </trkpt>
      <trkpt lat="42.01864" lon="1.3113375">
        <time>2022-07-08T11:37:58Z</time>
      </trkpt>
      <trkpt lat="42.018635" lon="1.3114252">
        <time>2022-07-08T11:37:59Z</time>
      </trkpt>
      <trkpt lat="42.01863" lon="1.3115085">
        <time>2022-07-08T11:38:00Z</time>
      </trkpt>
      <trkpt lat="42.018627" lon="1.3115941">
        <time>2022-07-08T11:38:01Z</time>
      </trkpt>
      <trkpt lat="42.018623" lon="1.3116819">
        <time>2022-07-08T11:38:02Z</time>
      </trkpt>
      <trkpt lat="42.01862" lon="1.3117702">
        <time>2022-07-08T11:38:03Z</time>
      </trkpt>
      <trkpt lat="42.018616" lon="1.3118652">
        <time>2022-07-08T11:38:04Z</time>
      </trkpt>
      <trkpt lat="42.018616" lon="1.3119586">
        <time>2022-07-08T11:38:05Z</time>
      </trkpt>
      <trkpt lat="42.018616" lon="1.3120495">
        <time>2022-07-08T11:38:06Z</time>
      </trkpt>
      <trkpt lat="42.01862" lon="1.3121401">
        <time>2022-07-08T11:38:07Z</time>
      </trkpt>
      <trkpt lat="42.018623" lon="1.3122241">
        <time>2022-07-08T11:38:08Z</time>
      </trkpt>
      <trkpt lat="42.01863" lon="1.3123145">
        <time>2022-07-08T11:38:09Z</time>
      </trkpt>
      <trkpt lat="42.01864" lon="1.3123978">
        <time>2022-07-08T11:38:10Z</time>
      </trkpt>
      <trkpt lat="42.01865" lon="1.3124808">
        <time>2022-07-08T11:38:11Z</time>
      </trkpt>
      <trkpt lat="42.018665" lon="1.3125641">
        <time>2022-07-08T11:38:12Z</time>
      </trkpt>
      <trkpt lat="42.018684" lon="1.3126518">
        <time>2022-07-08T11:38:13Z</time>
      </trkpt>
      <trkpt lat="42.018703" lon="1.3127315">
        <time>2022-07-08T11:38:14Z</time>
      </trkpt>
      <trkpt lat="42.018726" lon="1.3128154">
        <time>2022-07-08T11:38:15Z</time>
      </trkpt>
      <trkpt lat="42.01875" lon="1.3128978">
        <time>2022-07-08T11:38:16Z</time>
      </trkpt>
      <trkpt lat="42.018772" lon="1.3129787">
        <time>2022-07-08T11:38:17Z</time>
      </trkpt>
      <trkpt lat="42.0188" lon="1.3130535">
        <time>2022-07-08T11:38:18Z</time>
      </trkpt>
      <trkpt lat="42.01882" lon="1.3131281">
        <time>2022-07-08T11:38:19Z</time>
      </trkpt>
      <trkpt lat="42.018856" lon="1.3132071">
        <time>2022-07-08T11:38:20Z</time>
      </trkpt>
      <trkpt lat="42.018883" lon="1.3132792">
        <time>2022-07-08T11:38:21Z</time>
      </trkpt>
      <trkpt lat="42.018917" lon="1.3133508">
        <time>2022-07-08T11:38:22Z</time>
      </trkpt>
      <trkpt lat="42.01895" lon="1.3134215">
        <time>2022-07-08T11:38:23Z</time>
      </trkpt>
      <trkpt lat="42.01899" lon="1.3134907">
        <time>2022-07-08T11:38:24Z</time>
      </trkpt>
      <trkpt lat="42.01903" lon="1.3135638">
        <time>2022-07-08T11:38:25Z</time>
      </trkpt>
      <trkpt lat="42.019073" lon="1.3136344">
        <time>2022-07-08T11:38:26Z</time>
      </trkpt>
      <trkpt lat="42.01912" lon="1.3137038">
        <time>2022-07-08T11:38:27Z</time>
      </trkpt>
      <trkpt lat="42.01916" lon="1.3137674">
        <time>2022-07-08T11:38:28Z</time>
      </trkpt>
      <trkpt lat="42.019203" lon="1.3138311">
        <time>2022-07-08T11:38:29Z</time>
      </trkpt>
      <trkpt lat="42.019253" lon="1.3138987">
        <time>2022-07-08T11:38:30Z</time>
      </trkpt>
      <trkpt lat="42.019302" lon="1.3139658">
        <time>2022-07-08T11:38:31Z</time>
      </trkpt>
      <trkpt lat="42.019352" lon="1.3140321">
        <time>2022-07-08T11:38:32Z</time>
      </trkpt>
      <trkpt lat="42.019398" lon="1.3140934">
        <time>2022-07-08T11:38:33Z</time>
      </trkpt>
      <trkpt lat="42.019444" lon="1.3141551">
        <time>2022-07-08T11:38:34Z</time>
      </trkpt>
      <trkpt lat="42.019497" lon="1.3142217">
        <time>2022-07-08T11:38:35Z</time>
      </trkpt>
      <trkpt lat="42.019547" lon="1.3142887">
        <time>2022-07-08T11:38:36Z</time>
      </trkpt>
      <trkpt lat="42.019596" lon="1.3143567">
        <time>2022-07-08T11:38:37Z</time>
      </trkpt>
      <trkpt lat="42.01964" lon="1.3144261">
        <time>2022-07-08T11:38:38Z</time>
      </trkpt>
      <trkpt lat="42.019684" lon="1.3144921">
        <time>2022-07-08T11:38:39Z</time>
      </trkpt>
      <trkpt lat="42.019722" lon="1.3145614">
        <time>2022-07-08T11:38:40Z</time>
      </trkpt>
      <trkpt lat="42.01976" lon="1.3146384">
        <time>2022-07-08T11:38:41Z</time>
      </trkpt>
      <trkpt lat="42.019794" lon="1.3147107">
        <time>2022-07-08T11:38:42Z</time>
      </trkpt>
      <trkpt lat="42.01982" lon="1.3147863">
        <time>2022-07-08T11:38:43Z</time>
      </trkpt>
      <trkpt lat="42.019848" lon="1.314865">
        <time>2022-07-08T11:38:44Z</time>
      </trkpt>
      <trkpt lat="42.01987" lon="1.3149447">
        <time>2022-07-08T11:38:45Z</time>
      </trkpt>
      <trkpt lat="42.01989" lon="1.3150303">
        <time>2022-07-08T11:38:46Z</time>
      </trkpt>
      <trkpt lat="42.01991" lon="1.3151094">
        <time>2022-07-08T11:38:47Z</time>
      </trkpt>
      <trkpt lat="42.01992" lon="1.3151897">
        <time>2022-07-08T11:38:48Z</time>
      </trkpt>
      <trkpt lat="42.019936" lon="1.315277">
        <time>2022-07-08T11:38:49Z</time>
      </trkpt>
      <trkpt lat="42.019943" lon="1.315362">
        <time>2022-07-08T11:38:50Z</time>
      </trkpt>
      <trkpt lat="42.01995" lon="1.3154451">
        <time>2022-07-08T11:38:51Z</time>
      </trkpt>
      <trkpt lat="42.019955" lon="1.3155217">
        <time>2022-07-08T11:38:52Z</time>
      </trkpt>
      <trkpt lat="42.019955" lon="1.3155987">
        <time>2022-07-08T11:38:53Z</time>
      </trkpt>
      <trkpt lat="42.019955" lon="1.3156804">
        <time>2022-07-08T11:38:54Z</time>
      </trkpt>
      <trkpt lat="42.01995" lon="1.31576">
        <time>2022-07-08T11:38:55Z</time>
      </trkpt>
      <trkpt lat="42.019947" lon="1.315838">
        <time>2022-07-08T11:38:56Z</time>
      </trkpt>
      <trkpt lat="42.01994" lon="1.3159143">
        <time>2022-07-08T11:38:57Z</time>
      </trkpt>
      <trkpt lat="42.019928" lon="1.3160627">
        <time>2022-07-08T11:38:59Z</time>
      </trkpt>
      <trkpt lat="42.01992" lon="1.3161347">
        <time>2022-07-08T11:39:00Z</time>
      </trkpt>
      <trkpt lat="42.019917" lon="1.3162013">
        <time>2022-07-08T11:39:01Z</time>
      </trkpt>
      <trkpt lat="42.019913" lon="1.3163337">
        <time>2022-07-08T11:39:03Z</time>
      </trkpt>
      <trkpt lat="42.019913" lon="1.3164726">
        <time>2022-07-08T11:39:05Z</time>
      </trkpt>
      <trkpt lat="42.019917" lon="1.316541">
        <time>2022-07-08T11:39:06Z</time>
      </trkpt>
      <trkpt lat="42.019924" lon="1.3166779">
        <time>2022-07-08T11:39:08Z</time>
      </trkpt>
      <trkpt lat="42.019936" lon="1.3167473">
        <time>2022-07-08T11:39:09Z</time>
      </trkpt>
      <trkpt lat="42.019962" lon="1.3168876">
        <time>2022-07-08T11:39:11Z</time>
      </trkpt>
      <trkpt lat="42.019985" lon="1.3169613">
        <time>2022-07-08T11:39:12Z</time>
      </trkpt>
      <trkpt lat="42.020004" lon="1.3170279">
        <time>2022-07-08T11:39:13Z</time>
      </trkpt>
      <trkpt lat="42.02003" lon="1.3170936">
        <time>2022-07-08T11:39:14Z</time>
      </trkpt>
      <trkpt lat="42.02006" lon="1.3171573">
        <time>2022-07-08T11:39:15Z</time>
      </trkpt>
      <trkpt lat="42.020096" lon="1.3172185">
        <time>2022-07-08T11:39:16Z</time>
      </trkpt>
      <trkpt lat="42.02013" lon="1.3172773">
        <time>2022-07-08T11:39:17Z</time>
      </trkpt>
      <trkpt lat="42.02017" lon="1.3173332">
        <time>2022-07-08T11:39:18Z</time>
      </trkpt>
      <trkpt lat="42.020214" lon="1.31739">
        <time>2022-07-08T11:39:19Z</time>
      </trkpt>
      <trkpt lat="42.020256" lon="1.3174406">
        <time>2022-07-08T11:39:20Z</time>
      </trkpt>
      <trkpt lat="42.020298" lon="1.3174889">
        <time>2022-07-08T11:39:21Z</time>
      </trkpt>
      <trkpt lat="42.020344" lon="1.3175342">
        <time>2022-07-08T11:39:22Z</time>
      </trkpt>
      <trkpt lat="42.02039" lon="1.3175776">
        <time>2022-07-08T11:39:23Z</time>
      </trkpt>
      <trkpt lat="42.02044" lon="1.3176179">
        <time>2022-07-08T11:39:24Z</time>
      </trkpt>
      <trkpt lat="42.020493" lon="1.3176546">
        <time>2022-07-08T11:39:25Z</time>
      </trkpt>
      <trkpt lat="42.02055" lon="1.3176906">
        <time>2022-07-08T11:39:26Z</time>
      </trkpt>
      <trkpt lat="42.020607" lon="1.3177242">
        <time>2022-07-08T11:39:27Z</time>
      </trkpt>
      <trkpt lat="42.02066" lon="1.3177543">
        <time>2022-07-08T11:39:28Z</time>
      </trkpt>
      <trkpt lat="42.020718" lon="1.3177866">
        <time>2022-07-08T11:39:29Z</time>
      </trkpt>
      <trkpt lat="42.02078" lon="1.3178182">
        <time>2022-07-08T11:39:30Z</time>
      </trkpt>
      <trkpt lat="42.020836" lon="1.3178495">
        <time>2022-07-08T11:39:31Z</time>
      </trkpt>
      <trkpt lat="42.020897" lon="1.3178818">
        <time>2022-07-08T11:39:32Z</time>
      </trkpt>
      <trkpt lat="42.02095" lon="1.3179111">
        <time>2022-07-08T11:39:33Z</time>
      </trkpt>
      <trkpt lat="42.021008" lon="1.3179445">
        <time>2022-07-08T11:39:34Z</time>
      </trkpt>
      <trkpt lat="42.021065" lon="1.3179781">
        <time>2022-07-08T11:39:35Z</time>
      </trkpt>
      <trkpt lat="42.02112" lon="1.3180141">
        <time>2022-07-08T11:39:36Z</time>
      </trkpt>
      <trkpt lat="42.02117" lon="1.3180525">
        <time>2022-07-08T11:39:37Z</time>
      </trkpt>
      <trkpt lat="42.021217" lon="1.3180898">
        <time>2022-07-08T11:39:38Z</time>
      </trkpt>
      <trkpt lat="42.021267" lon="1.3181295">
        <time>2022-07-08T11:39:39Z</time>
      </trkpt>
      <trkpt lat="42.021313" lon="1.3181722">
        <time>2022-07-08T11:39:40Z</time>
      </trkpt>
      <trkpt lat="42.02136" lon="1.3182158">
        <time>2022-07-08T11:39:41Z</time>
      </trkpt>
      <trkpt lat="42.0214" lon="1.3182615">
        <time>2022-07-08T11:39:42Z</time>
      </trkpt>
      <trkpt lat="42.021442" lon="1.3183072">
        <time>2022-07-08T11:39:43Z</time>
      </trkpt>
      <trkpt lat="42.02152" lon="1.3184015">
        <time>2022-07-08T11:39:45Z</time>
      </trkpt>
      <trkpt lat="42.02155" lon="1.3184495">
        <time>2022-07-08T11:39:46Z</time>
      </trkpt>
      <trkpt lat="42.021614" lon="1.3185441">
        <time>2022-07-08T11:39:48Z</time>
      </trkpt>
      <trkpt lat="42.021675" lon="1.3186418">
        <time>2022-07-08T11:39:50Z</time>
      </trkpt>
      <trkpt lat="42.021732" lon="1.3187381">
        <time>2022-07-08T11:39:52Z</time>
      </trkpt>
      <trkpt lat="42.021793" lon="1.3188301">
        <time>2022-07-08T11:39:54Z</time>
      </trkpt>
      <trkpt lat="42.02185" lon="1.3189242">
        <time>2022-07-08T11:39:56Z</time>
      </trkpt>
      <trkpt lat="42.021908" lon="1.3190191">
        <time>2022-07-08T11:39:58Z</time>
      </trkpt>
      <trkpt lat="42.021965" lon="1.3191161">
        <time>2022-07-08T11:40:00Z</time>
      </trkpt>
      <trkpt lat="42.02203" lon="1.3192161">
        <time>2022-07-08T11:40:02Z</time>
      </trkpt>
      <trkpt lat="42.022125" lon="1.3193707">
        <time>2022-07-08T11:40:05Z</time>
      </trkpt>
      <trkpt lat="42.022156" lon="1.3194231">
        <time>2022-07-08T11:40:06Z</time>
      </trkpt>
      <trkpt lat="42.022186" lon="1.3194778">
        <time>2022-07-08T11:40:07Z</time>
      </trkpt>
      <trkpt lat="42.022243" lon="1.3195895">
        <time>2022-07-08T11:40:09Z</time>
      </trkpt>
      <trkpt lat="42.022293" lon="1.3196994">
        <time>2022-07-08T11:40:11Z</time>
      </trkpt>
      <trkpt lat="42.02234" lon="1.3198118">
        <time>2022-07-08T11:40:13Z</time>
      </trkpt>
      <trkpt lat="42.02238" lon="1.3199278">
        <time>2022-07-08T11:40:15Z</time>
      </trkpt>
      <trkpt lat="42.022423" lon="1.3200455">
        <time>2022-07-08T11:40:17Z</time>
      </trkpt>
      <trkpt lat="42.022465" lon="1.3201641">
        <time>2022-07-08T11:40:19Z</time>
      </trkpt>
      <trkpt lat="42.022484" lon="1.3202271">
        <time>2022-07-08T11:40:20Z</time>
      </trkpt>
      <trkpt lat="42.022507" lon="1.3202841">
        <time>2022-07-08T11:40:21Z</time>
      </trkpt>
      <trkpt lat="42.022545" lon="1.3204001">
        <time>2022-07-08T11:40:23Z</time>
      </trkpt>
      <trkpt lat="42.022583" lon="1.3205191">
        <time>2022-07-08T11:40:25Z</time>
      </trkpt>
      <trkpt lat="42.02262" lon="1.3206391">
        <time>2022-07-08T11:40:27Z</time>
      </trkpt>
      <trkpt lat="42.02264" lon="1.3207014">
        <time>2022-07-08T11:40:28Z</time>
      </trkpt>
      <trkpt lat="42.02266" lon="1.3207651">
        <time>2022-07-08T11:40:29Z</time>
      </trkpt>
      <trkpt lat="42.022697" lon="1.3208967">
        <time>2022-07-08T11:40:31Z</time>
      </trkpt>
      <trkpt lat="42.022713" lon="1.3209654">
        <time>2022-07-08T11:40:32Z</time>
      </trkpt>
      <trkpt lat="42.02273" lon="1.3210361">
        <time>2022-07-08T11:40:33Z</time>
      </trkpt>
      <trkpt lat="42.022743" lon="1.321109">
        <time>2022-07-08T11:40:34Z</time>
      </trkpt>
      <trkpt lat="42.022755" lon="1.3211834">
        <time>2022-07-08T11:40:35Z</time>
      </trkpt>
      <trkpt lat="42.022766" lon="1.3212581">
        <time>2022-07-08T11:40:36Z</time>
      </trkpt>
      <trkpt lat="42.022774" lon="1.3213338">
        <time>2022-07-08T11:40:37Z</time>
      </trkpt>
      <trkpt lat="42.02278" lon="1.3214101">
        <time>2022-07-08T11:40:38Z</time>
      </trkpt>
      <trkpt lat="42.022785" lon="1.3214864">
        <time>2022-07-08T11:40:39Z</time>
      </trkpt>
      <trkpt lat="42.022785" lon="1.321567">
        <time>2022-07-08T11:40:40Z</time>
      </trkpt>
      <trkpt lat="42.022785" lon="1.3216404">
        <time>2022-07-08T11:40:41Z</time>
      </trkpt>
      <trkpt lat="42.02278" lon="1.3217137">
        <time>2022-07-08T11:40:42Z</time>
      </trkpt>
      <trkpt lat="42.022778" lon="1.321791">
        <time>2022-07-08T11:40:43Z</time>
      </trkpt>
      <trkpt lat="42.022774" lon="1.3218614">
        <time>2022-07-08T11:40:44Z</time>
      </trkpt>
      <trkpt lat="42.022766" lon="1.3219373">
        <time>2022-07-08T11:40:45Z</time>
      </trkpt>
      <trkpt lat="42.02276" lon="1.3220067">
        <time>2022-07-08T11:40:46Z</time>
      </trkpt>
      <trkpt lat="42.02275" lon="1.3220726">
        <time>2022-07-08T11:40:47Z</time>
      </trkpt>
      <trkpt lat="42.022743" lon="1.3221453">
        <time>2022-07-08T11:40:48Z</time>
      </trkpt>
      <trkpt lat="42.02273" lon="1.322217">
        <time>2022-07-08T11:40:49Z</time>
      </trkpt>
      <trkpt lat="42.022724" lon="1.3222893">
        <time>2022-07-08T11:40:50Z</time>
      </trkpt>
      <trkpt lat="42.022717" lon="1.3223614">
        <time>2022-07-08T11:40:51Z</time>
      </trkpt>
      <trkpt lat="42.022705" lon="1.3224334">
        <time>2022-07-08T11:40:52Z</time>
      </trkpt>
      <trkpt lat="42.022697" lon="1.3225107">
        <time>2022-07-08T11:40:53Z</time>
      </trkpt>
      <trkpt lat="42.02269" lon="1.3225824">
        <time>2022-07-08T11:40:54Z</time>
      </trkpt>
      <trkpt lat="42.022682" lon="1.322654">
        <time>2022-07-08T11:40:55Z</time>
      </trkpt>
      <trkpt lat="42.02267" lon="1.3227264">
        <time>2022-07-08T11:40:56Z</time>
      </trkpt>
      <trkpt lat="42.022663" lon="1.3227986">
        <time>2022-07-08T11:40:57Z</time>
      </trkpt>
      <trkpt lat="42.02265" lon="1.3228767">
        <time>2022-07-08T11:40:58Z</time>
      </trkpt>
      <trkpt lat="42.022644" lon="1.322948">
        <time>2022-07-08T11:40:59Z</time>
      </trkpt>
      <trkpt lat="42.022636" lon="1.32302">
        <time>2022-07-08T11:41:00Z</time>
      </trkpt>
      <trkpt lat="42.022625" lon="1.3230923">
        <time>2022-07-08T11:41:01Z</time>
      </trkpt>
      <trkpt lat="42.022617" lon="1.3231663">
        <time>2022-07-08T11:41:02Z</time>
      </trkpt>
      <trkpt lat="42.022606" lon="1.3232414">
        <time>2022-07-08T11:41:03Z</time>
      </trkpt>
      <trkpt lat="42.0226" lon="1.3233176">
        <time>2022-07-08T11:41:04Z</time>
      </trkpt>
      <trkpt lat="42.022587" lon="1.3233943">
        <time>2022-07-08T11:41:05Z</time>
      </trkpt>
      <trkpt lat="42.02258" lon="1.3234723">
        <time>2022-07-08T11:41:06Z</time>
      </trkpt>
      <trkpt lat="42.022568" lon="1.3235517">
        <time>2022-07-08T11:41:07Z</time>
      </trkpt>
      <trkpt lat="42.022556" lon="1.3236313">
        <time>2022-07-08T11:41:08Z</time>
      </trkpt>
      <trkpt lat="42.022537" lon="1.3237926">
        <time>2022-07-08T11:41:10Z</time>
      </trkpt>
      <trkpt lat="42.022526" lon="1.3238686">
        <time>2022-07-08T11:41:11Z</time>
      </trkpt>
      <trkpt lat="42.02252" lon="1.3239473">
        <time>2022-07-08T11:41:12Z</time>
      </trkpt>
      <trkpt lat="42.022507" lon="1.3240342">
        <time>2022-07-08T11:41:13Z</time>
      </trkpt>
      <trkpt lat="42.022495" lon="1.3241206">
        <time>2022-07-08T11:41:14Z</time>
      </trkpt>
      <trkpt lat="42.022484" lon="1.3242006">
        <time>2022-07-08T11:41:15Z</time>
      </trkpt>
      <trkpt lat="42.022472" lon="1.324281">
        <time>2022-07-08T11:41:16Z</time>
      </trkpt>
      <trkpt lat="42.022465" lon="1.3243606">
        <time>2022-07-08T11:41:17Z</time>
      </trkpt>
      <trkpt lat="42.022453" lon="1.3244399">
        <time>2022-07-08T11:41:18Z</time>
      </trkpt>
      <trkpt lat="42.022446" lon="1.3245232">
        <time>2022-07-08T11:41:19Z</time>
      </trkpt>
      <trkpt lat="42.022438" lon="1.3245989">
        <time>2022-07-08T11:41:20Z</time>
      </trkpt>
      <trkpt lat="42.022427" lon="1.3246746">
        <time>2022-07-08T11:41:21Z</time>
      </trkpt>
      <trkpt lat="42.02242" lon="1.3247546">
        <time>2022-07-08T11:41:22Z</time>
      </trkpt>
      <trkpt lat="42.022408" lon="1.3248335">
        <time>2022-07-08T11:41:23Z</time>
      </trkpt>
      <trkpt lat="42.022396" lon="1.3249129">
        <time>2022-07-08T11:41:24Z</time>
      </trkpt>
      <trkpt lat="42.022385" lon="1.3249925">
        <time>2022-07-08T11:41:25Z</time>
      </trkpt>
      <trkpt lat="42.022377" lon="1.3250729">
        <time>2022-07-08T11:41:26Z</time>
      </trkpt>
      <trkpt lat="42.022366" lon="1.3251536">
        <time>2022-07-08T11:41:27Z</time>
      </trkpt>
      <trkpt lat="42.022358" lon="1.3252286">
        <time>2022-07-08T11:41:28Z</time>
      </trkpt>
      <trkpt lat="42.022346" lon="1.3253119">
        <time>2022-07-08T11:41:29Z</time>
      </trkpt>
      <trkpt lat="42.022335" lon="1.3253952">
        <time>2022-07-08T11:41:30Z</time>
      </trkpt>
      <trkpt lat="42.022327" lon="1.3254712">
        <time>2022-07-08T11:41:31Z</time>
      </trkpt>
      <trkpt lat="42.022316" lon="1.3255519">
        <time>2022-07-08T11:41:32Z</time>
      </trkpt>
      <trkpt lat="42.02231" lon="1.3256302">
        <time>2022-07-08T11:41:33Z</time>
      </trkpt>
      <trkpt lat="42.0223" lon="1.3257018">
        <time>2022-07-08T11:41:34Z</time>
      </trkpt>
      <trkpt lat="42.02229" lon="1.3257775">
        <time>2022-07-08T11:41:35Z</time>
      </trkpt>
      <trkpt lat="42.02228" lon="1.3258508">
        <time>2022-07-08T11:41:36Z</time>
      </trkpt>
      <trkpt lat="42.02227" lon="1.3259219">
        <time>2022-07-08T11:41:37Z</time>
      </trkpt>
      <trkpt lat="42.022263" lon="1.3259875">
        <time>2022-07-08T11:41:38Z</time>
      </trkpt>
      <trkpt lat="42.02224" lon="1.3261262">
        <time>2022-07-08T11:41:40Z</time>
      </trkpt>
      <trkpt lat="42.02223" lon="1.3261929">
        <time>2022-07-08T11:41:41Z</time>
      </trkpt>
      <trkpt lat="42.02222" lon="1.3262604">
        <time>2022-07-08T11:41:42Z</time>
      </trkpt>
      <trkpt lat="42.0222" lon="1.3264065">
        <time>2022-07-08T11:41:44Z</time>
      </trkpt>
      <trkpt lat="42.022194" lon="1.3264788">
        <time>2022-07-08T11:41:45Z</time>
      </trkpt>
      <trkpt lat="42.022186" lon="1.3265514">
        <time>2022-07-08T11:41:46Z</time>
      </trkpt>
      <trkpt lat="42.02218" lon="1.3266251">
        <time>2022-07-08T11:41:47Z</time>
      </trkpt>
      <trkpt lat="42.022175" lon="1.3266991">
        <time>2022-07-08T11:41:48Z</time>
      </trkpt>
      <trkpt lat="42.022163" lon="1.3267738">
        <time>2022-07-08T11:41:49Z</time>
      </trkpt>
      <trkpt lat="42.022156" lon="1.3268495">
        <time>2022-07-08T11:41:50Z</time>
      </trkpt>
      <trkpt lat="42.02215" lon="1.3269252">
        <time>2022-07-08T11:41:51Z</time>
      </trkpt>
      <trkpt lat="42.02214" lon="1.3270011">
        <time>2022-07-08T11:41:52Z</time>
      </trkpt>
      <trkpt lat="42.022133" lon="1.3270788">
        <time>2022-07-08T11:41:53Z</time>
      </trkpt>
      <trkpt lat="42.02212" lon="1.3271575">
        <time>2022-07-08T11:41:54Z</time>
      </trkpt>
      <trkpt lat="42.022114" lon="1.3272421">
        <time>2022-07-08T11:41:55Z</time>
      </trkpt>
      <trkpt lat="42.022102" lon="1.3273197">
        <time>2022-07-08T11:41:56Z</time>
      </trkpt>
      <trkpt lat="42.02209" lon="1.3273971">
        <time>2022-07-08T11:41:57Z</time>
      </trkpt>
      <trkpt lat="42.022083" lon="1.3274741">
        <time>2022-07-08T11:41:58Z</time>
      </trkpt>
      <trkpt lat="42.022076" lon="1.32755">
        <time>2022-07-08T11:41:59Z</time>
      </trkpt>
      <trkpt lat="42.022068" lon="1.3276241">
        <time>2022-07-08T11:42:00Z</time>
      </trkpt>
      <trkpt lat="42.02206" lon="1.3276961">
        <time>2022-07-08T11:42:01Z</time>
      </trkpt>
      <trkpt lat="42.022057" lon="1.3277657">
        <time>2022-07-08T11:42:02Z</time>
      </trkpt>
      <trkpt lat="42.02205" lon="1.3279008">
        <time>2022-07-08T11:42:04Z</time>
      </trkpt>
      <trkpt lat="42.02204" lon="1.327965">
        <time>2022-07-08T11:42:05Z</time>
      </trkpt>
      <trkpt lat="42.022034" lon="1.3280871">
        <time>2022-07-08T11:42:07Z</time>
      </trkpt>
      <trkpt lat="42.022026" lon="1.3281854">
        <time>2022-07-08T11:42:09Z</time>
      </trkpt>
      <trkpt lat="42.022022" lon="1.3282454">
        <time>2022-07-08T11:42:11Z</time>
      </trkpt>
      <trkpt lat="42.022026" lon="1.3283807">
        <time>2022-07-08T11:43:02Z</time>
      </trkpt>
      <trkpt lat="42.022022" lon="1.3284965">
        <time>2022-07-08T11:43:05Z</time>
      </trkpt>
      <trkpt lat="42.022026" lon="1.3285937">
        <time>2022-07-08T11:43:07Z</time>
      </trkpt>
      <trkpt lat="42.022026" lon="1.3286897">
        <time>2022-07-08T11:43:09Z</time>
      </trkpt>
      <trkpt lat="42.022026" lon="1.3287891">
        <time>2022-07-08T11:43:11Z</time>
      </trkpt>
      <trkpt lat="42.022026" lon="1.3288914">
        <time>2022-07-08T11:43:13Z</time>
      </trkpt>
      <trkpt lat="42.02203" lon="1.3289984">
        <time>2022-07-08T11:43:15Z</time>
      </trkpt>
      <trkpt lat="42.02203" lon="1.3291084">
        <time>2022-07-08T11:43:17Z</time>
      </trkpt>
      <trkpt lat="42.022034" lon="1.3292238">
        <time>2022-07-08T11:43:19Z</time>
      </trkpt>
      <trkpt lat="42.022034" lon="1.329344">
        <time>2022-07-08T11:43:21Z</time>
      </trkpt>
      <trkpt lat="42.022034" lon="1.3294591">
        <time>2022-07-08T11:43:23Z</time>
      </trkpt>
      <trkpt lat="42.022034" lon="1.329578">
        <time>2022-07-08T11:43:25Z</time>
      </trkpt>
      <trkpt lat="42.022034" lon="1.3297061">
        <time>2022-07-08T11:43:27Z</time>
      </trkpt>
      <trkpt lat="42.022038" lon="1.32983">
        <time>2022-07-08T11:43:29Z</time>
      </trkpt>
      <trkpt lat="42.02204" lon="1.329892">
        <time>2022-07-08T11:43:30Z</time>
      </trkpt>
      <trkpt lat="42.022045" lon="1.3300188">
        <time>2022-07-08T11:43:32Z</time>
      </trkpt>
      <trkpt lat="42.02205" lon="1.330144">
        <time>2022-07-08T11:43:34Z</time>
      </trkpt>
      <trkpt lat="42.022053" lon="1.3302064">
        <time>2022-07-08T11:43:35Z</time>
      </trkpt>
      <trkpt lat="42.022053" lon="1.3303291">
        <time>2022-07-08T11:43:37Z</time>
      </trkpt>
      <trkpt lat="42.022057" lon="1.3304523">
        <time>2022-07-08T11:43:39Z</time>
      </trkpt>
      <trkpt lat="42.02206" lon="1.3305737">
        <time>2022-07-08T11:43:41Z</time>
      </trkpt>
      <trkpt lat="42.022064" lon="1.330696">
        <time>2022-07-08T11:43:43Z</time>
      </trkpt>
      <trkpt lat="42.022068" lon="1.330814">
        <time>2022-07-08T11:43:45Z</time>
      </trkpt>
      <trkpt lat="42.022068" lon="1.3309313">
        <time>2022-07-08T11:43:47Z</time>
      </trkpt>
      <trkpt lat="42.02207" lon="1.3310517">
        <time>2022-07-08T11:43:49Z</time>
      </trkpt>
      <trkpt lat="42.022076" lon="1.3311747">
        <time>2022-07-08T11:43:51Z</time>
      </trkpt>
      <trkpt lat="42.02208" lon="1.3312987">
        <time>2022-07-08T11:43:53Z</time>
      </trkpt>
      <trkpt lat="42.022087" lon="1.331427">
        <time>2022-07-08T11:43:55Z</time>
      </trkpt>
      <trkpt lat="42.02209" lon="1.331551">
        <time>2022-07-08T11:43:57Z</time>
      </trkpt>
      <trkpt lat="42.022095" lon="1.3316727">
        <time>2022-07-08T11:43:59Z</time>
      </trkpt>
      <trkpt lat="42.0221" lon="1.3317933">
        <time>2022-07-08T11:44:01Z</time>
      </trkpt>
      <trkpt lat="42.0221" lon="1.3319163">
        <time>2022-07-08T11:44:03Z</time>
      </trkpt>
      <trkpt lat="42.0221" lon="1.3319776">
        <time>2022-07-08T11:44:04Z</time>
      </trkpt>
      <trkpt lat="42.022102" lon="1.3321013">
        <time>2022-07-08T11:44:06Z</time>
      </trkpt>
      <trkpt lat="42.022106" lon="1.332225">
        <time>2022-07-08T11:44:08Z</time>
      </trkpt>
      <trkpt lat="42.022106" lon="1.3323497">
        <time>2022-07-08T11:44:10Z</time>
      </trkpt>
      <trkpt lat="42.02211" lon="1.3324746">
        <time>2022-07-08T11:44:12Z</time>
      </trkpt>
      <trkpt lat="42.022118" lon="1.3325987">
        <time>2022-07-08T11:44:14Z</time>
      </trkpt>
      <trkpt lat="42.022118" lon="1.3327236">
        <time>2022-07-08T11:44:16Z</time>
      </trkpt>
      <trkpt lat="42.02212" lon="1.3328496">
        <time>2022-07-08T11:44:18Z</time>
      </trkpt>
      <trkpt lat="42.022125" lon="1.3329756">
        <time>2022-07-08T11:44:20Z</time>
      </trkpt>
      <trkpt lat="42.02213" lon="1.3330996">
        <time>2022-07-08T11:44:22Z</time>
      </trkpt>
      <trkpt lat="42.02213" lon="1.333164">
        <time>2022-07-08T11:44:23Z</time>
      </trkpt>
      <trkpt lat="42.022133" lon="1.3332922">
        <time>2022-07-08T11:44:25Z</time>
      </trkpt>
      <trkpt lat="42.022137" lon="1.333357">
        <time>2022-07-08T11:44:26Z</time>
      </trkpt>
      <trkpt lat="42.02214" lon="1.3335503">
        <time>2022-07-08T11:44:29Z</time>
      </trkpt>
      <trkpt lat="42.022144" lon="1.3336756">
        <time>2022-07-08T11:44:31Z</time>
      </trkpt>
      <trkpt lat="42.022144" lon="1.3337986">
        <time>2022-07-08T11:44:33Z</time>
      </trkpt>
      <trkpt lat="42.02215" lon="1.3338593">
        <time>2022-07-08T11:44:34Z</time>
      </trkpt>
      <trkpt lat="42.02215" lon="1.33398">
        <time>2022-07-08T11:44:36Z</time>
      </trkpt>
      <trkpt lat="42.022152" lon="1.3340993">
        <time>2022-07-08T11:44:38Z</time>
      </trkpt>
      <trkpt lat="42.022152" lon="1.3342149">
        <time>2022-07-08T11:44:40Z</time>
      </trkpt>
      <trkpt lat="42.022156" lon="1.3343253">
        <time>2022-07-08T11:44:42Z</time>
      </trkpt>
      <trkpt lat="42.02216" lon="1.3344289">
        <time>2022-07-08T11:44:44Z</time>
      </trkpt>
      <trkpt lat="42.022167" lon="1.3345296">
        <time>2022-07-08T11:44:46Z</time>
      </trkpt>
      <trkpt lat="42.02218" lon="1.3346229">
        <time>2022-07-08T11:44:48Z</time>
      </trkpt>
      <trkpt lat="42.022194" lon="1.3347116">
        <time>2022-07-08T11:44:50Z</time>
      </trkpt>
      <trkpt lat="42.022213" lon="1.3348006">
        <time>2022-07-08T11:44:52Z</time>
      </trkpt>
      <trkpt lat="42.022236" lon="1.3348849">
        <time>2022-07-08T11:44:54Z</time>
      </trkpt>
      <trkpt lat="42.022266" lon="1.3349693">
        <time>2022-07-08T11:44:56Z</time>
      </trkpt>
      <trkpt lat="42.0223" lon="1.3350523">
        <time>2022-07-08T11:44:58Z</time>
      </trkpt>
      <trkpt lat="42.022343" lon="1.3351356">
        <time>2022-07-08T11:45:00Z</time>
      </trkpt>
      <trkpt lat="42.022392" lon="1.3352178">
        <time>2022-07-08T11:45:02Z</time>
      </trkpt>
      <trkpt lat="42.022446" lon="1.3353019">
        <time>2022-07-08T11:45:04Z</time>
      </trkpt>
      <trkpt lat="42.022507" lon="1.335388">
        <time>2022-07-08T11:45:06Z</time>
      </trkpt>
      <trkpt lat="42.022564" lon="1.3354692">
        <time>2022-07-08T11:45:08Z</time>
      </trkpt>
      <trkpt lat="42.022625" lon="1.3355546">
        <time>2022-07-08T11:45:10Z</time>
      </trkpt>
      <trkpt lat="42.02269" lon="1.3356459">
        <time>2022-07-08T11:45:12Z</time>
      </trkpt>
      <trkpt lat="42.02275" lon="1.3357385">
        <time>2022-07-08T11:45:14Z</time>
      </trkpt>
      <trkpt lat="42.02281" lon="1.3358299">
        <time>2022-07-08T11:45:16Z</time>
      </trkpt>
      <trkpt lat="42.022873" lon="1.3359275">
        <time>2022-07-08T11:45:18Z</time>
      </trkpt>
      <trkpt lat="42.022926" lon="1.3360312">
        <time>2022-07-08T11:45:20Z</time>
      </trkpt>
      <trkpt lat="42.022972" lon="1.3361402">
        <time>2022-07-08T11:45:22Z</time>
      </trkpt>
      <trkpt lat="42.023018" lon="1.3362478">
        <time>2022-07-08T11:45:24Z</time>
      </trkpt>
      <trkpt lat="42.023056" lon="1.3363489">
        <time>2022-07-08T11:45:26Z</time>
      </trkpt>
      <trkpt lat="42.023094" lon="1.3364515">
        <time>2022-07-08T11:45:28Z</time>
      </trkpt>
      <trkpt lat="42.023132" lon="1.3365575">
        <time>2022-07-08T11:45:30Z</time>
      </trkpt>
      <trkpt lat="42.023167" lon="1.3366698">
        <time>2022-07-08T11:45:32Z</time>
      </trkpt>
      <trkpt lat="42.023216" lon="1.3368412">
        <time>2022-07-08T11:45:35Z</time>
      </trkpt>
      <trkpt lat="42.02324" lon="1.3369585">
        <time>2022-07-08T11:45:37Z</time>
      </trkpt>
      <trkpt lat="42.02326" lon="1.3370779">
        <time>2022-07-08T11:45:39Z</time>
      </trkpt>
      <trkpt lat="42.023273" lon="1.3371975">
        <time>2022-07-08T11:45:41Z</time>
      </trkpt>
      <trkpt lat="42.02328" lon="1.3373195">
        <time>2022-07-08T11:45:43Z</time>
      </trkpt>
      <trkpt lat="42.023285" lon="1.3374511">
        <time>2022-07-08T11:45:45Z</time>
      </trkpt>
      <trkpt lat="42.023293" lon="1.3375754">
        <time>2022-07-08T11:45:47Z</time>
      </trkpt>
      <trkpt lat="42.023296" lon="1.3377025">
        <time>2022-07-08T11:45:49Z</time>
      </trkpt>
      <trkpt lat="42.0233" lon="1.3378218">
        <time>2022-07-08T11:45:51Z</time>
      </trkpt>
      <trkpt lat="42.023304" lon="1.3379498">
        <time>2022-07-08T11:45:53Z</time>
      </trkpt>
      <trkpt lat="42.023308" lon="1.3380154">
        <time>2022-07-08T11:45:54Z</time>
      </trkpt>
      <trkpt lat="42.023308" lon="1.3381414">
        <time>2022-07-08T11:45:56Z</time>
      </trkpt>
      <trkpt lat="42.02331" lon="1.3382691">
        <time>2022-07-08T11:45:58Z</time>
      </trkpt>
      <trkpt lat="42.023315" lon="1.3383925">
        <time>2022-07-08T11:46:00Z</time>
      </trkpt>
      <trkpt lat="42.02332" lon="1.3385098">
        <time>2022-07-08T11:46:02Z</time>
      </trkpt>
      <trkpt lat="42.02332" lon="1.3386278">
        <time>2022-07-08T11:46:04Z</time>
      </trkpt>
      <trkpt lat="42.02332" lon="1.3387442">
        <time>2022-07-08T11:46:06Z</time>
      </trkpt>
      <trkpt lat="42.023323" lon="1.3388574">
        <time>2022-07-08T11:46:08Z</time>
      </trkpt>
      <trkpt lat="42.023323" lon="1.3389621">
        <time>2022-07-08T11:46:10Z</time>
      </trkpt>
      <trkpt lat="42.023327" lon="1.3390567">
        <time>2022-07-08T11:46:12Z</time>
      </trkpt>
      <trkpt lat="42.023342" lon="1.3391432">
        <time>2022-07-08T11:46:14Z</time>
      </trkpt>
      <trkpt lat="42.023376" lon="1.339207">
        <time>2022-07-08T11:46:16Z</time>
      </trkpt>
      <trkpt lat="42.02343" lon="1.3392527">
        <time>2022-07-08T11:46:18Z</time>
      </trkpt>
      <trkpt lat="42.023483" lon="1.3392954">
        <time>2022-07-08T11:46:20Z</time>
      </trkpt>
      <trkpt lat="42.02354" lon="1.3393384">
        <time>2022-07-08T11:46:22Z</time>
      </trkpt>
      <trkpt lat="42.02359" lon="1.3393724">
        <time>2022-07-08T11:46:24Z</time>
      </trkpt>
      <trkpt lat="42.02364" lon="1.3393997">
        <time>2022-07-08T11:46:27Z</time>
      </trkpt>
      <trkpt lat="42.023754" lon="1.3393065">
        <time>2022-07-08T11:47:44Z</time>
      </trkpt>
      <trkpt lat="42.023766" lon="1.3392991">
        <time>2022-07-08T11:47:52Z</time>
      </trkpt>
      <trkpt lat="42.02269" lon="1.3416455">
        <time>2022-07-08T12:12:11Z</time>
      </trkpt>
      <trkpt lat="42.02313" lon="1.3411508">
        <time>2022-07-08T12:12:34Z</time>
      </trkpt>
      <trkpt lat="42.023155" lon="1.3410854">
        <time>2022-07-08T12:12:38Z</time>
      </trkpt>
      <trkpt lat="42.023796" lon="1.3394184">
        <time>2022-07-08T12:25:30Z</time>
      </trkpt>
      <trkpt lat="42.023815" lon="1.339395">
        <time>2022-07-08T12:26:08Z</time>
      </trkpt>
      <trkpt lat="42.023666" lon="1.3395038">
        <time>2022-07-08T12:47:01Z</time>
      </trkpt>
      <trkpt lat="42.023663" lon="1.3394637">
        <time>2022-07-08T12:47:48Z</time>
      </trkpt>
      <trkpt lat="42.02363" lon="1.3393074">
        <time>2022-07-08T12:48:08Z</time>
      </trkpt>
      <trkpt lat="42.02358" lon="1.3392824">
        <time>2022-07-08T12:48:11Z</time>
      </trkpt>
      <trkpt lat="42.02352" lon="1.3392625">
        <time>2022-07-08T12:48:14Z</time>
      </trkpt>
      <trkpt lat="42.023464" lon="1.3392441">
        <time>2022-07-08T12:48:17Z</time>
      </trkpt>
      <trkpt lat="42.0234" lon="1.3392298">
        <time>2022-07-08T12:48:20Z</time>
      </trkpt>
      <trkpt lat="42.023335" lon="1.3392191">
        <time>2022-07-08T12:48:23Z</time>
      </trkpt>
      <trkpt lat="42.023262" lon="1.3392011">
        <time>2022-07-08T12:48:26Z</time>
      </trkpt>
      <trkpt lat="42.0232" lon="1.3391844">
        <time>2022-07-08T12:48:28Z</time>
      </trkpt>
      <trkpt lat="42.02313" lon="1.3391684">
        <time>2022-07-08T12:48:30Z</time>
      </trkpt>
      <trkpt lat="42.023052" lon="1.3391521">
        <time>2022-07-08T12:48:32Z</time>
      </trkpt>
      <trkpt lat="42.02298" lon="1.3391371">
        <time>2022-07-08T12:48:34Z</time>
      </trkpt>
      <trkpt lat="42.022903" lon="1.3391235">
        <time>2022-07-08T12:48:36Z</time>
      </trkpt>
      <trkpt lat="42.022835" lon="1.3391051">
        <time>2022-07-08T12:48:38Z</time>
      </trkpt>
      <trkpt lat="42.02278" lon="1.3390825">
        <time>2022-07-08T12:48:40Z</time>
      </trkpt>
      <trkpt lat="42.02274" lon="1.3390554">
        <time>2022-07-08T12:48:42Z</time>
      </trkpt>
      <trkpt lat="42.022694" lon="1.3390051">
        <time>2022-07-08T12:48:45Z</time>
      </trkpt>
      <trkpt lat="42.022686" lon="1.3388995">
        <time>2022-07-08T12:48:49Z</time>
      </trkpt>
      <trkpt lat="42.0227" lon="1.3387692">
        <time>2022-07-08T12:48:52Z</time>
      </trkpt>
      <trkpt lat="42.022697" lon="1.3386778">
        <time>2022-07-08T12:48:54Z</time>
      </trkpt>
      <trkpt lat="42.022686" lon="1.3385965">
        <time>2022-07-08T12:48:56Z</time>
      </trkpt>
      <trkpt lat="42.02266" lon="1.3385291">
        <time>2022-07-08T12:48:58Z</time>
      </trkpt>
      <trkpt lat="42.02263" lon="1.3384665">
        <time>2022-07-08T12:49:00Z</time>
      </trkpt>
      <trkpt lat="42.0226" lon="1.3384079">
        <time>2022-07-08T12:49:02Z</time>
      </trkpt>
      <trkpt lat="42.022568" lon="1.3383505">
        <time>2022-07-08T12:49:04Z</time>
      </trkpt>
      <trkpt lat="42.022537" lon="1.3382941">
        <time>2022-07-08T12:49:06Z</time>
      </trkpt>
      <trkpt lat="42.02251" lon="1.3382366">
        <time>2022-07-08T12:49:08Z</time>
      </trkpt>
      <trkpt lat="42.02246" lon="1.3381552">
        <time>2022-07-08T12:49:11Z</time>
      </trkpt>
      <trkpt lat="42.022423" lon="1.3381026">
        <time>2022-07-08T12:49:13Z</time>
      </trkpt>
      <trkpt lat="42.02238" lon="1.3380469">
        <time>2022-07-08T12:49:15Z</time>
      </trkpt>
      <trkpt lat="42.022346" lon="1.3379872">
        <time>2022-07-08T12:49:17Z</time>
      </trkpt>
      <trkpt lat="42.022312" lon="1.3379276">
        <time>2022-07-08T12:49:19Z</time>
      </trkpt>
      <trkpt lat="42.022278" lon="1.3378723">
        <time>2022-07-08T12:49:21Z</time>
      </trkpt>
      <trkpt lat="42.022243" lon="1.3378229">
        <time>2022-07-08T12:49:23Z</time>
      </trkpt>
      <trkpt lat="42.022205" lon="1.3377728">
        <time>2022-07-08T12:49:25Z</time>
      </trkpt>
      <trkpt lat="42.02217" lon="1.3377192">
        <time>2022-07-08T12:49:27Z</time>
      </trkpt>
      <trkpt lat="42.022133" lon="1.3376389">
        <time>2022-07-08T12:49:30Z</time>
      </trkpt>
      <trkpt lat="42.02209" lon="1.3375719">
        <time>2022-07-08T12:49:33Z</time>
      </trkpt>
      <trkpt lat="42.022064" lon="1.3375165">
        <time>2022-07-08T12:49:36Z</time>
      </trkpt>
      <trkpt lat="42.022057" lon="1.3375266">
        <time>2022-07-08T12:49:43Z</time>
      </trkpt>
      <trkpt lat="42.02209" lon="1.3375809">
        <time>2022-07-08T12:49:46Z</time>
      </trkpt>
      <trkpt lat="42.022137" lon="1.3376518">
        <time>2022-07-08T12:49:49Z</time>
      </trkpt>
      <trkpt lat="42.02219" lon="1.3377246">
        <time>2022-07-08T12:49:52Z</time>
      </trkpt>
      <trkpt lat="42.022224" lon="1.3377739">
        <time>2022-07-08T12:49:54Z</time>
      </trkpt>
      <trkpt lat="42.022255" lon="1.3378279">
        <time>2022-07-08T12:49:56Z</time>
      </trkpt>
      <trkpt lat="42.02231" lon="1.3379066">
        <time>2022-07-08T12:49:59Z</time>
      </trkpt>
      <trkpt lat="42.022343" lon="1.3379575">
        <time>2022-07-08T12:50:01Z</time>
      </trkpt>
      <trkpt lat="42.022392" lon="1.3380319">
        <time>2022-07-08T12:50:04Z</time>
      </trkpt>
      <trkpt lat="42.02243" lon="1.3380779">
        <time>2022-07-08T12:50:06Z</time>
      </trkpt>
      <trkpt lat="42.02248" lon="1.3381302">
        <time>2022-07-08T12:50:09Z</time>
      </trkpt>
      <trkpt lat="42.022526" lon="1.3381469">
        <time>2022-07-08T12:50:13Z</time>
      </trkpt>
      <trkpt lat="42.022564" lon="1.3381898">
        <time>2022-07-08T13:29:12Z</time>
      </trkpt>
      <trkpt lat="42.022594" lon="1.3382086">
        <time>2022-07-08T13:58:16Z</time>
      </trkpt>
      <trkpt lat="42.022587" lon="1.3382832">
        <time>2022-07-08T13:58:19Z</time>
      </trkpt>
      <trkpt lat="42.022617" lon="1.3383739">
        <time>2022-07-08T13:58:22Z</time>
      </trkpt>
      <trkpt lat="42.022644" lon="1.3384385">
        <time>2022-07-08T13:58:24Z</time>
      </trkpt>
      <trkpt lat="42.022675" lon="1.3385018">
        <time>2022-07-08T13:58:26Z</time>
      </trkpt>
      <trkpt lat="42.022705" lon="1.3385684">
        <time>2022-07-08T13:58:28Z</time>
      </trkpt>
      <trkpt lat="42.022724" lon="1.3386458">
        <time>2022-07-08T13:58:30Z</time>
      </trkpt>
      <trkpt lat="42.022728" lon="1.3387219">
        <time>2022-07-08T13:58:32Z</time>
      </trkpt>
      <trkpt lat="42.022724" lon="1.3388175">
        <time>2022-07-08T13:58:35Z</time>
      </trkpt>
      <trkpt lat="42.022724" lon="1.3388975">
        <time>2022-07-08T13:58:38Z</time>
      </trkpt>
      <trkpt lat="42.022724" lon="1.3389735">
        <time>2022-07-08T13:58:41Z</time>
      </trkpt>
      <trkpt lat="42.022747" lon="1.3390448">
        <time>2022-07-08T13:58:44Z</time>
      </trkpt>
      <trkpt lat="42.02281" lon="1.3390988">
        <time>2022-07-08T13:58:47Z</time>
      </trkpt>
      <trkpt lat="42.022873" lon="1.3391272">
        <time>2022-07-08T13:58:49Z</time>
      </trkpt>
      <trkpt lat="42.022938" lon="1.3391521">
        <time>2022-07-08T13:58:51Z</time>
      </trkpt>
      <trkpt lat="42.023003" lon="1.3391745">
        <time>2022-07-08T13:58:53Z</time>
      </trkpt>
      <trkpt lat="42.02307" lon="1.3391895">
        <time>2022-07-08T13:58:55Z</time>
      </trkpt>
      <trkpt lat="42.023136" lon="1.3392009">
        <time>2022-07-08T13:58:57Z</time>
      </trkpt>
      <trkpt lat="42.023197" lon="1.3392131">
        <time>2022-07-08T13:58:59Z</time>
      </trkpt>
      <trkpt lat="42.02325" lon="1.3392302">
        <time>2022-07-08T13:59:01Z</time>
      </trkpt>
      <trkpt lat="42.023293" lon="1.3392625">
        <time>2022-07-08T13:59:03Z</time>
      </trkpt>
      <trkpt lat="42.02332" lon="1.3393505">
        <time>2022-07-08T13:59:06Z</time>
      </trkpt>
      <trkpt lat="42.023323" lon="1.3394225">
        <time>2022-07-08T13:59:08Z</time>
      </trkpt>
      <trkpt lat="42.02332" lon="1.3395025">
        <time>2022-07-08T13:59:10Z</time>
      </trkpt>
      <trkpt lat="42.023304" lon="1.3396355">
        <time>2022-07-08T13:59:13Z</time>
      </trkpt>
      <trkpt lat="42.023293" lon="1.3397285">
        <time>2022-07-08T13:59:15Z</time>
      </trkpt>
      <trkpt lat="42.023277" lon="1.3398215">
        <time>2022-07-08T13:59:17Z</time>
      </trkpt>
      <trkpt lat="42.023262" lon="1.3399152">
        <time>2022-07-08T13:59:19Z</time>
      </trkpt>
      <trkpt lat="42.023243" lon="1.3400048">
        <time>2022-07-08T13:59:21Z</time>
      </trkpt>
      <trkpt lat="42.02322" lon="1.3400995">
        <time>2022-07-08T13:59:23Z</time>
      </trkpt>
      <trkpt lat="42.0232" lon="1.3401932">
        <time>2022-07-08T13:59:25Z</time>
      </trkpt>
      <trkpt lat="42.023182" lon="1.3402808">
        <time>2022-07-08T13:59:27Z</time>
      </trkpt>
      <trkpt lat="42.023155" lon="1.3403748">
        <time>2022-07-08T13:59:29Z</time>
      </trkpt>
      <trkpt lat="42.023136" lon="1.3404647">
        <time>2022-07-08T13:59:31Z</time>
      </trkpt>
      <trkpt lat="42.02311" lon="1.3405558">
        <time>2022-07-08T13:59:33Z</time>
      </trkpt>
      <trkpt lat="42.023087" lon="1.3406478">
        <time>2022-07-08T13:59:35Z</time>
      </trkpt>
      <trkpt lat="42.023067" lon="1.3407345">
        <time>2022-07-08T13:59:37Z</time>
      </trkpt>
      <trkpt lat="42.023045" lon="1.3408225">
        <time>2022-07-08T13:59:39Z</time>
      </trkpt>
      <trkpt lat="42.023026" lon="1.3409114">
        <time>2022-07-08T13:59:41Z</time>
      </trkpt>
      <trkpt lat="42.023006" lon="1.3410027">
        <time>2022-07-08T13:59:43Z</time>
      </trkpt>
      <trkpt lat="42.022987" lon="1.341096">
        <time>2022-07-08T13:59:45Z</time>
      </trkpt>
      <trkpt lat="42.022964" lon="1.3411834">
        <time>2022-07-08T13:59:47Z</time>
      </trkpt>
      <trkpt lat="42.022938" lon="1.3412768">
        <time>2022-07-08T13:59:49Z</time>
      </trkpt>
      <trkpt lat="42.02291" lon="1.341369">
        <time>2022-07-08T13:59:51Z</time>
      </trkpt>
      <trkpt lat="42.02289" lon="1.3414557">
        <time>2022-07-08T13:59:53Z</time>
      </trkpt>
      <trkpt lat="42.02287" lon="1.3415498">
        <time>2022-07-08T13:59:55Z</time>
      </trkpt>
      <trkpt lat="42.02285" lon="1.3416404">
        <time>2022-07-08T13:59:57Z</time>
      </trkpt>
      <trkpt lat="42.022827" lon="1.341732">
        <time>2022-07-08T13:59:59Z</time>
      </trkpt>
      <trkpt lat="42.022808" lon="1.3418264">
        <time>2022-07-08T14:00:01Z</time>
      </trkpt>
      <trkpt lat="42.02279" lon="1.341915">
        <time>2022-07-08T14:00:03Z</time>
      </trkpt>
      <trkpt lat="42.022766" lon="1.3420104">
        <time>2022-07-08T14:00:05Z</time>
      </trkpt>
      <trkpt lat="42.022747" lon="1.3421041">
        <time>2022-07-08T14:00:07Z</time>
      </trkpt>
      <trkpt lat="42.022724" lon="1.3421947">
        <time>2022-07-08T14:00:09Z</time>
      </trkpt>
      <trkpt lat="42.0227" lon="1.3422827">
        <time>2022-07-08T14:00:11Z</time>
      </trkpt>
      <trkpt lat="42.022682" lon="1.3423734">
        <time>2022-07-08T14:00:13Z</time>
      </trkpt>
      <trkpt lat="42.02266" lon="1.34247">
        <time>2022-07-08T14:00:15Z</time>
      </trkpt>
      <trkpt lat="42.022636" lon="1.342564">
        <time>2022-07-08T14:00:17Z</time>
      </trkpt>
      <trkpt lat="42.022606" lon="1.3426994">
        <time>2022-07-08T14:00:20Z</time>
      </trkpt>
      <trkpt lat="42.022583" lon="1.342791">
        <time>2022-07-08T14:00:22Z</time>
      </trkpt>
      <trkpt lat="42.022564" lon="1.342883">
        <time>2022-07-08T14:00:24Z</time>
      </trkpt>
      <trkpt lat="42.022545" lon="1.3429754">
        <time>2022-07-08T14:00:26Z</time>
      </trkpt>
      <trkpt lat="42.022526" lon="1.343069">
        <time>2022-07-08T14:00:28Z</time>
      </trkpt>
      <trkpt lat="42.022507" lon="1.34316">
        <time>2022-07-08T14:00:30Z</time>
      </trkpt>
      <trkpt lat="42.022484" lon="1.343253">
        <time>2022-07-08T14:00:32Z</time>
      </trkpt>
      <trkpt lat="42.022465" lon="1.343348">
        <time>2022-07-08T14:00:34Z</time>
      </trkpt>
      <trkpt lat="42.02244" lon="1.343444">
        <time>2022-07-08T14:00:36Z</time>
      </trkpt>
      <trkpt lat="42.02242" lon="1.3435416">
        <time>2022-07-08T14:00:38Z</time>
      </trkpt>
      <trkpt lat="42.022392" lon="1.3436394">
        <time>2022-07-08T14:00:40Z</time>
      </trkpt>
      <trkpt lat="42.02237" lon="1.3437454">
        <time>2022-07-08T14:00:42Z</time>
      </trkpt>
      <trkpt lat="42.022346" lon="1.3438454">
        <time>2022-07-08T14:00:44Z</time>
      </trkpt>
      <trkpt lat="42.022324" lon="1.3439517">
        <time>2022-07-08T14:00:46Z</time>
      </trkpt>
      <trkpt lat="42.022297" lon="1.3440623">
        <time>2022-07-08T14:00:48Z</time>
      </trkpt>
      <trkpt lat="42.022278" lon="1.344164">
        <time>2022-07-08T14:00:50Z</time>
      </trkpt>
      <trkpt lat="42.022255" lon="1.3442687">
        <time>2022-07-08T14:00:52Z</time>
      </trkpt>
      <trkpt lat="42.022232" lon="1.3443683">
        <time>2022-07-08T14:00:54Z</time>
      </trkpt>
      <trkpt lat="42.02221" lon="1.3444673">
        <time>2022-07-08T14:00:56Z</time>
      </trkpt>
      <trkpt lat="42.022186" lon="1.344572">
        <time>2022-07-08T14:00:58Z</time>
      </trkpt>
      <trkpt lat="42.022163" lon="1.3446683">
        <time>2022-07-08T14:01:00Z</time>
      </trkpt>
      <trkpt lat="42.022137" lon="1.3447709">
        <time>2022-07-08T14:01:02Z</time>
      </trkpt>
      <trkpt lat="42.022114" lon="1.3448733">
        <time>2022-07-08T14:01:04Z</time>
      </trkpt>
      <trkpt lat="42.02209" lon="1.344971">
        <time>2022-07-08T14:01:06Z</time>
      </trkpt>
      <trkpt lat="42.022064" lon="1.3450702">
        <time>2022-07-08T14:01:08Z</time>
      </trkpt>
      <trkpt lat="42.02204" lon="1.3451703">
        <time>2022-07-08T14:01:10Z</time>
      </trkpt>
      <trkpt lat="42.02202" lon="1.3452706">
        <time>2022-07-08T14:01:12Z</time>
      </trkpt>
      <trkpt lat="42.021996" lon="1.3453696">
        <time>2022-07-08T14:01:14Z</time>
      </trkpt>
      <trkpt lat="42.021973" lon="1.3454679">
        <time>2022-07-08T14:01:16Z</time>
      </trkpt>
      <trkpt lat="42.02195" lon="1.345565">
        <time>2022-07-08T14:01:18Z</time>
      </trkpt>
      <trkpt lat="42.021923" lon="1.34566">
        <time>2022-07-08T14:01:20Z</time>
      </trkpt>
      <trkpt lat="42.0219" lon="1.3457506">
        <time>2022-07-08T14:01:22Z</time>
      </trkpt>
      <trkpt lat="42.021877" lon="1.3458465">
        <time>2022-07-08T14:01:24Z</time>
      </trkpt>
      <trkpt lat="42.021843" lon="1.3459939">
        <time>2022-07-08T14:01:27Z</time>
      </trkpt>
      <trkpt lat="42.02182" lon="1.3460892">
        <time>2022-07-08T14:01:29Z</time>
      </trkpt>
      <trkpt lat="42.021797" lon="1.3461859">
        <time>2022-07-08T14:01:31Z</time>
      </trkpt>
      <trkpt lat="42.021774" lon="1.3462822">
        <time>2022-07-08T14:01:33Z</time>
      </trkpt>
      <trkpt lat="42.02175" lon="1.3463795">
        <time>2022-07-08T14:01:35Z</time>
      </trkpt>
      <trkpt lat="42.02173" lon="1.3464773">
        <time>2022-07-08T14:01:37Z</time>
      </trkpt>
      <trkpt lat="42.021706" lon="1.3465745">
        <time>2022-07-08T14:01:39Z</time>
      </trkpt>
      <trkpt lat="42.02168" lon="1.3466705">
        <time>2022-07-08T14:01:41Z</time>
      </trkpt>
      <trkpt lat="42.021652" lon="1.3467679">
        <time>2022-07-08T14:01:43Z</time>
      </trkpt>
      <trkpt lat="42.02163" lon="1.3468665">
        <time>2022-07-08T14:01:45Z</time>
      </trkpt>
      <trkpt lat="42.021606" lon="1.3469629">
        <time>2022-07-08T14:01:47Z</time>
      </trkpt>
      <trkpt lat="42.021587" lon="1.3470595">
        <time>2022-07-08T14:01:49Z</time>
      </trkpt>
      <trkpt lat="42.021564" lon="1.3471578">
        <time>2022-07-08T14:01:51Z</time>
      </trkpt>
      <trkpt lat="42.02154" lon="1.3472571">
        <time>2022-07-08T14:01:53Z</time>
      </trkpt>
      <trkpt lat="42.021523" lon="1.3473622">
        <time>2022-07-08T14:01:55Z</time>
      </trkpt>
      <trkpt lat="42.021503" lon="1.3474696">
        <time>2022-07-08T14:01:57Z</time>
      </trkpt>
      <trkpt lat="42.02149" lon="1.3475772">
        <time>2022-07-08T14:01:59Z</time>
      </trkpt>
      <trkpt lat="42.021473" lon="1.3476905">
        <time>2022-07-08T14:02:01Z</time>
      </trkpt>
      <trkpt lat="42.021465" lon="1.3478042">
        <time>2022-07-08T14:02:03Z</time>
      </trkpt>
      <trkpt lat="42.02146" lon="1.3479215">
        <time>2022-07-08T14:02:05Z</time>
      </trkpt>
      <trkpt lat="42.021465" lon="1.3480401">
        <time>2022-07-08T14:02:07Z</time>
      </trkpt>
      <trkpt lat="42.02147" lon="1.3481525">
        <time>2022-07-08T14:02:09Z</time>
      </trkpt>
      <trkpt lat="42.021484" lon="1.3482668">
        <time>2022-07-08T14:02:11Z</time>
      </trkpt>
      <trkpt lat="42.021503" lon="1.3483815">
        <time>2022-07-08T14:02:13Z</time>
      </trkpt>
      <trkpt lat="42.021526" lon="1.3485001">
        <time>2022-07-08T14:02:15Z</time>
      </trkpt>
      <trkpt lat="42.02155" lon="1.3486282">
        <time>2022-07-08T14:02:17Z</time>
      </trkpt>
      <trkpt lat="42.02157" lon="1.3487481">
        <time>2022-07-08T14:02:19Z</time>
      </trkpt>
      <trkpt lat="42.02159" lon="1.3488657">
        <time>2022-07-08T14:02:21Z</time>
      </trkpt>
      <trkpt lat="42.0216" lon="1.3489258">
        <time>2022-07-08T14:02:22Z</time>
      </trkpt>
      <trkpt lat="42.021618" lon="1.3490515">
        <time>2022-07-08T14:02:24Z</time>
      </trkpt>
      <trkpt lat="42.021633" lon="1.3491741">
        <time>2022-07-08T14:02:26Z</time>
      </trkpt>
      <trkpt lat="42.02164" lon="1.3492345">
        <time>2022-07-08T14:02:27Z</time>
      </trkpt>
      <trkpt lat="42.021656" lon="1.3493555">
        <time>2022-07-08T14:02:29Z</time>
      </trkpt>
      <trkpt lat="42.021667" lon="1.3494738">
        <time>2022-07-08T14:02:31Z</time>
      </trkpt>
      <trkpt lat="42.021675" lon="1.3495958">
        <time>2022-07-08T14:02:33Z</time>
      </trkpt>
      <trkpt lat="42.021683" lon="1.3497175">
        <time>2022-07-08T14:02:35Z</time>
      </trkpt>
      <trkpt lat="42.021687" lon="1.3498358">
        <time>2022-07-08T14:02:37Z</time>
      </trkpt>
      <trkpt lat="42.02169" lon="1.3499521">
        <time>2022-07-08T14:02:39Z</time>
      </trkpt>
      <trkpt lat="42.021694" lon="1.3500668">
        <time>2022-07-08T14:02:41Z</time>
      </trkpt>
      <trkpt lat="42.021698" lon="1.350182">
        <time>2022-07-08T14:02:43Z</time>
      </trkpt>
      <trkpt lat="42.0217" lon="1.3502964">
        <time>2022-07-08T14:02:45Z</time>
      </trkpt>
      <trkpt lat="42.021706" lon="1.3504097">
        <time>2022-07-08T14:02:47Z</time>
      </trkpt>
      <trkpt lat="42.021713" lon="1.3505241">
        <time>2022-07-08T14:02:49Z</time>
      </trkpt>
      <trkpt lat="42.02172" lon="1.3506404">
        <time>2022-07-08T14:02:51Z</time>
      </trkpt>
      <trkpt lat="42.021732" lon="1.3507501">
        <time>2022-07-08T14:02:53Z</time>
      </trkpt>
      <trkpt lat="42.021748" lon="1.3508694">
        <time>2022-07-08T14:02:55Z</time>
      </trkpt>
      <trkpt lat="42.021767" lon="1.35098">
        <time>2022-07-08T14:02:57Z</time>
      </trkpt>
      <trkpt lat="42.02179" lon="1.3511007">
        <time>2022-07-08T14:02:59Z</time>
      </trkpt>
      <trkpt lat="42.021816" lon="1.3512224">
        <time>2022-07-08T14:03:01Z</time>
      </trkpt>
      <trkpt lat="42.02184" lon="1.3513417">
        <time>2022-07-08T14:03:03Z</time>
      </trkpt>
      <trkpt lat="42.021866" lon="1.351467">
        <time>2022-07-08T14:03:05Z</time>
      </trkpt>
      <trkpt lat="42.021893" lon="1.3515874">
        <time>2022-07-08T14:03:07Z</time>
      </trkpt>
      <trkpt lat="42.02192" lon="1.3517107">
        <time>2022-07-08T14:03:09Z</time>
      </trkpt>
      <trkpt lat="42.021946" lon="1.3518434">
        <time>2022-07-08T14:03:11Z</time>
      </trkpt>
      <trkpt lat="42.02197" lon="1.3519651">
        <time>2022-07-08T14:03:13Z</time>
      </trkpt>
      <trkpt lat="42.021988" lon="1.352089">
        <time>2022-07-08T14:03:15Z</time>
      </trkpt>
      <trkpt lat="42.022007" lon="1.3522193">
        <time>2022-07-08T14:03:17Z</time>
      </trkpt>
      <trkpt lat="42.022026" lon="1.352344">
        <time>2022-07-08T14:03:19Z</time>
      </trkpt>
      <trkpt lat="42.02204" lon="1.352463">
        <time>2022-07-08T14:03:21Z</time>
      </trkpt>
      <trkpt lat="42.022057" lon="1.3525827">
        <time>2022-07-08T14:03:23Z</time>
      </trkpt>
      <trkpt lat="42.022068" lon="1.3527007">
        <time>2022-07-08T14:03:25Z</time>
      </trkpt>
      <trkpt lat="42.02208" lon="1.352816">
        <time>2022-07-08T14:03:27Z</time>
      </trkpt>
      <trkpt lat="42.022087" lon="1.3529294">
        <time>2022-07-08T14:03:29Z</time>
      </trkpt>
      <trkpt lat="42.022095" lon="1.3530403">
        <time>2022-07-08T14:03:31Z</time>
      </trkpt>
      <trkpt lat="42.022102" lon="1.35315">
        <time>2022-07-08T14:03:33Z</time>
      </trkpt>
      <trkpt lat="42.022106" lon="1.3532603">
        <time>2022-07-08T14:03:35Z</time>
      </trkpt>
      <trkpt lat="42.022114" lon="1.3533716">
        <time>2022-07-08T14:03:37Z</time>
      </trkpt>
      <trkpt lat="42.02212" lon="1.353482">
        <time>2022-07-08T14:03:39Z</time>
      </trkpt>
      <trkpt lat="42.02213" lon="1.3535886">
        <time>2022-07-08T14:03:41Z</time>
      </trkpt>
      <trkpt lat="42.022133" lon="1.353694">
        <time>2022-07-08T14:03:43Z</time>
      </trkpt>
      <trkpt lat="42.02214" lon="1.3538007">
        <time>2022-07-08T14:03:45Z</time>
      </trkpt>
      <trkpt lat="42.022144" lon="1.3539076">
        <time>2022-07-08T14:03:47Z</time>
      </trkpt>
      <trkpt lat="42.02215" lon="1.3540167">
        <time>2022-07-08T14:03:49Z</time>
      </trkpt>
      <trkpt lat="42.022156" lon="1.3541256">
        <time>2022-07-08T14:03:51Z</time>
      </trkpt>
      <trkpt lat="42.022163" lon="1.3542377">
        <time>2022-07-08T14:03:53Z</time>
      </trkpt>
      <trkpt lat="42.02217" lon="1.3543526">
        <time>2022-07-08T14:03:55Z</time>
      </trkpt>
      <trkpt lat="42.02218" lon="1.3544647">
        <time>2022-07-08T14:03:57Z</time>
      </trkpt>
      <trkpt lat="42.02219" lon="1.3545829">
        <time>2022-07-08T14:03:59Z</time>
      </trkpt>
      <trkpt lat="42.0222" lon="1.3547006">
        <time>2022-07-08T14:04:01Z</time>
      </trkpt>
      <trkpt lat="42.022213" lon="1.354818">
        <time>2022-07-08T14:04:03Z</time>
      </trkpt>
      <trkpt lat="42.022217" lon="1.3549376">
        <time>2022-07-08T14:04:05Z</time>
      </trkpt>
      <trkpt lat="42.02222" lon="1.3550489">
        <time>2022-07-08T14:04:07Z</time>
      </trkpt>
      <trkpt lat="42.022217" lon="1.3551673">
        <time>2022-07-08T14:04:09Z</time>
      </trkpt>
      <trkpt lat="42.022205" lon="1.3552829">
        <time>2022-07-08T14:04:11Z</time>
      </trkpt>
      <trkpt lat="42.02219" lon="1.3553913">
        <time>2022-07-08T14:04:13Z</time>
      </trkpt>
      <trkpt lat="42.022175" lon="1.3554986">
        <time>2022-07-08T14:04:15Z</time>
      </trkpt>
      <trkpt lat="42.022156" lon="1.3556046">
        <time>2022-07-08T14:04:17Z</time>
      </trkpt>
      <trkpt lat="42.022137" lon="1.3557099">
        <time>2022-07-08T14:04:19Z</time>
      </trkpt>
      <trkpt lat="42.02212" lon="1.3558196">
        <time>2022-07-08T14:04:21Z</time>
      </trkpt>
      <trkpt lat="42.022106" lon="1.3559276">
        <time>2022-07-08T14:04:23Z</time>
      </trkpt>
      <trkpt lat="42.02209" lon="1.3560346">
        <time>2022-07-08T14:04:25Z</time>
      </trkpt>
      <trkpt lat="42.022076" lon="1.3561412">
        <time>2022-07-08T14:04:27Z</time>
      </trkpt>
      <trkpt lat="42.022068" lon="1.3562509">
        <time>2022-07-08T14:04:29Z</time>
      </trkpt>
      <trkpt lat="42.02206" lon="1.3563606">
        <time>2022-07-08T14:04:31Z</time>
      </trkpt>
      <trkpt lat="42.022057" lon="1.3564699">
        <time>2022-07-08T14:04:33Z</time>
      </trkpt>
      <trkpt lat="42.022057" lon="1.3565799">
        <time>2022-07-08T14:04:35Z</time>
      </trkpt>
      <trkpt lat="42.022064" lon="1.3566905">
        <time>2022-07-08T14:04:37Z</time>
      </trkpt>
      <trkpt lat="42.02208" lon="1.3567985">
        <time>2022-07-08T14:04:39Z</time>
      </trkpt>
      <trkpt lat="42.022095" lon="1.3569072">
        <time>2022-07-08T14:04:41Z</time>
      </trkpt>
      <trkpt lat="42.02212" lon="1.3570172">
        <time>2022-07-08T14:04:43Z</time>
      </trkpt>
      <trkpt lat="42.02215" lon="1.3571266">
        <time>2022-07-08T14:04:45Z</time>
      </trkpt>
      <trkpt lat="42.022182" lon="1.3572339">
        <time>2022-07-08T14:04:47Z</time>
      </trkpt>
      <trkpt lat="42.02223" lon="1.3573375">
        <time>2022-07-08T14:04:49Z</time>
      </trkpt>
      <trkpt lat="42.022274" lon="1.3574362">
        <time>2022-07-08T14:04:51Z</time>
      </trkpt>
      <trkpt lat="42.02233" lon="1.3575382">
        <time>2022-07-08T14:04:53Z</time>
      </trkpt>
      <trkpt lat="42.02238" lon="1.3576338">
        <time>2022-07-08T14:04:55Z</time>
      </trkpt>
      <trkpt lat="42.022434" lon="1.3577298">
        <time>2022-07-08T14:04:57Z</time>
      </trkpt>
      <trkpt lat="42.02246" lon="1.3577749">
        <time>2022-07-08T14:04:58Z</time>
      </trkpt>
      <trkpt lat="42.022514" lon="1.3578658">
        <time>2022-07-08T14:05:00Z</time>
      </trkpt>
      <trkpt lat="42.02256" lon="1.3579592">
        <time>2022-07-08T14:05:02Z</time>
      </trkpt>
      <trkpt lat="42.022594" lon="1.3580549">
        <time>2022-07-08T14:05:04Z</time>
      </trkpt>
      <trkpt lat="42.022625" lon="1.3581532">
        <time>2022-07-08T14:05:06Z</time>
      </trkpt>
      <trkpt lat="42.022648" lon="1.3582464">
        <time>2022-07-08T14:05:08Z</time>
      </trkpt>
      <trkpt lat="42.022667" lon="1.3583322">
        <time>2022-07-08T14:05:10Z</time>
      </trkpt>
      <trkpt lat="42.022686" lon="1.3584155">
        <time>2022-07-08T14:05:12Z</time>
      </trkpt>
      <trkpt lat="42.022697" lon="1.3585012">
        <time>2022-07-08T14:05:14Z</time>
      </trkpt>
      <trkpt lat="42.02271" lon="1.3585892">
        <time>2022-07-08T14:05:16Z</time>
      </trkpt>
      <trkpt lat="42.02272" lon="1.3586751">
        <time>2022-07-08T14:05:18Z</time>
      </trkpt>
      <trkpt lat="42.02273" lon="1.3587595">
        <time>2022-07-08T14:05:20Z</time>
      </trkpt>
      <trkpt lat="42.022743" lon="1.3588418">
        <time>2022-07-08T14:05:22Z</time>
      </trkpt>
      <trkpt lat="42.02275" lon="1.3589242">
        <time>2022-07-08T14:05:24Z</time>
      </trkpt>
      <trkpt lat="42.022755" lon="1.3590095">
        <time>2022-07-08T14:05:26Z</time>
      </trkpt>
      <trkpt lat="42.02276" lon="1.3590934">
        <time>2022-07-08T14:05:28Z</time>
      </trkpt>
      <trkpt lat="42.02276" lon="1.3591717">
        <time>2022-07-08T14:05:30Z</time>
      </trkpt>
      <trkpt lat="42.02276" lon="1.3592582">
        <time>2022-07-08T14:05:32Z</time>
      </trkpt>
      <trkpt lat="42.022755" lon="1.3593434">
        <time>2022-07-08T14:05:34Z</time>
      </trkpt>
      <trkpt lat="42.022747" lon="1.3594245">
        <time>2022-07-08T14:05:36Z</time>
      </trkpt>
      <trkpt lat="42.02274" lon="1.3595115">
        <time>2022-07-08T14:05:38Z</time>
      </trkpt>
      <trkpt lat="42.022724" lon="1.3595988">
        <time>2022-07-08T14:05:40Z</time>
      </trkpt>
      <trkpt lat="42.02271" lon="1.3596851">
        <time>2022-07-08T14:05:42Z</time>
      </trkpt>
      <trkpt lat="42.022694" lon="1.3597715">
        <time>2022-07-08T14:05:44Z</time>
      </trkpt>
      <trkpt lat="42.02268" lon="1.3598598">
        <time>2022-07-08T14:05:46Z</time>
      </trkpt>
      <trkpt lat="42.022663" lon="1.3599495">
        <time>2022-07-08T14:05:48Z</time>
      </trkpt>
      <trkpt lat="42.022644" lon="1.3600408">
        <time>2022-07-08T14:05:50Z</time>
      </trkpt>
      <trkpt lat="42.022625" lon="1.360133">
        <time>2022-07-08T14:05:52Z</time>
      </trkpt>
      <trkpt lat="42.022606" lon="1.3602245">
        <time>2022-07-08T14:05:54Z</time>
      </trkpt>
      <trkpt lat="42.02259" lon="1.3603171">
        <time>2022-07-08T14:05:56Z</time>
      </trkpt>
      <trkpt lat="42.022575" lon="1.3604118">
        <time>2022-07-08T14:05:58Z</time>
      </trkpt>
      <trkpt lat="42.02256" lon="1.360506">
        <time>2022-07-08T14:06:00Z</time>
      </trkpt>
      <trkpt lat="42.02254" lon="1.3606014">
        <time>2022-07-08T14:06:02Z</time>
      </trkpt>
      <trkpt lat="42.022526" lon="1.3606951">
        <time>2022-07-08T14:06:04Z</time>
      </trkpt>
      <trkpt lat="42.022507" lon="1.3607883">
        <time>2022-07-08T14:06:06Z</time>
      </trkpt>
      <trkpt lat="42.022484" lon="1.3608837">
        <time>2022-07-08T14:06:08Z</time>
      </trkpt>
      <trkpt lat="42.02246" lon="1.3609791">
        <time>2022-07-08T14:06:10Z</time>
      </trkpt>
      <trkpt lat="42.022438" lon="1.361075">
        <time>2022-07-08T14:06:12Z</time>
      </trkpt>
      <trkpt lat="42.022415" lon="1.361173">
        <time>2022-07-08T14:06:14Z</time>
      </trkpt>
      <trkpt lat="42.022392" lon="1.3612684">
        <time>2022-07-08T14:06:16Z</time>
      </trkpt>
      <trkpt lat="42.02236" lon="1.3613677">
        <time>2022-07-08T14:06:18Z</time>
      </trkpt>
      <trkpt lat="42.022335" lon="1.361466">
        <time>2022-07-08T14:06:20Z</time>
      </trkpt>
      <trkpt lat="42.022305" lon="1.361565">
        <time>2022-07-08T14:06:22Z</time>
      </trkpt>
      <trkpt lat="42.02227" lon="1.3616654">
        <time>2022-07-08T14:06:24Z</time>
      </trkpt>
      <trkpt lat="42.02224" lon="1.36177">
        <time>2022-07-08T14:06:26Z</time>
      </trkpt>
      <trkpt lat="42.02221" lon="1.3618743">
        <time>2022-07-08T14:06:28Z</time>
      </trkpt>
      <trkpt lat="42.02218" lon="1.3619803">
        <time>2022-07-08T14:06:30Z</time>
      </trkpt>
      <trkpt lat="42.02215" lon="1.362089">
        <time>2022-07-08T14:06:32Z</time>
      </trkpt>
      <trkpt lat="42.022118" lon="1.3622017">
        <time>2022-07-08T14:06:34Z</time>
      </trkpt>
      <trkpt lat="42.02209" lon="1.362317">
        <time>2022-07-08T14:06:36Z</time>
      </trkpt>
      <trkpt lat="42.02208" lon="1.3624344">
        <time>2022-07-08T14:06:38Z</time>
      </trkpt>
      <trkpt lat="42.02208" lon="1.3625534">
        <time>2022-07-08T14:06:40Z</time>
      </trkpt>
      <trkpt lat="42.022087" lon="1.3626747">
        <time>2022-07-08T14:06:42Z</time>
      </trkpt>
      <trkpt lat="42.0221" lon="1.3627963">
        <time>2022-07-08T14:06:44Z</time>
      </trkpt>
      <trkpt lat="42.022118" lon="1.3629167">
        <time>2022-07-08T14:06:46Z</time>
      </trkpt>
      <trkpt lat="42.022137" lon="1.3630344">
        <time>2022-07-08T14:06:48Z</time>
      </trkpt>
      <trkpt lat="42.022163" lon="1.3631563">
        <time>2022-07-08T14:06:50Z</time>
      </trkpt>
      <trkpt lat="42.022198" lon="1.3633406">
        <time>2022-07-08T14:06:53Z</time>
      </trkpt>
      <trkpt lat="42.022217" lon="1.3634597">
        <time>2022-07-08T14:06:55Z</time>
      </trkpt>
      <trkpt lat="42.022232" lon="1.363582">
        <time>2022-07-08T14:06:57Z</time>
      </trkpt>
      <trkpt lat="42.022236" lon="1.363703">
        <time>2022-07-08T14:06:59Z</time>
      </trkpt>
      <trkpt lat="42.02223" lon="1.3638186">
        <time>2022-07-08T14:07:01Z</time>
      </trkpt>
      <trkpt lat="42.022217" lon="1.363937">
        <time>2022-07-08T14:07:03Z</time>
      </trkpt>
      <trkpt lat="42.022198" lon="1.3640523">
        <time>2022-07-08T14:07:05Z</time>
      </trkpt>
      <trkpt lat="42.022175" lon="1.3641686">
        <time>2022-07-08T14:07:07Z</time>
      </trkpt>
      <trkpt lat="42.022156" lon="1.3642817">
        <time>2022-07-08T14:07:09Z</time>
      </trkpt>
      <trkpt lat="42.022137" lon="1.3643934">
        <time>2022-07-08T14:07:11Z</time>
      </trkpt>
      <trkpt lat="42.022114" lon="1.364507">
        <time>2022-07-08T14:07:13Z</time>
      </trkpt>
      <trkpt lat="42.0221" lon="1.3646159">
        <time>2022-07-08T14:07:15Z</time>
      </trkpt>
      <trkpt lat="42.022083" lon="1.364731">
        <time>2022-07-08T14:07:17Z</time>
      </trkpt>
      <trkpt lat="42.02207" lon="1.3648432">
        <time>2022-07-08T14:07:19Z</time>
      </trkpt>
      <trkpt lat="42.022064" lon="1.3649553">
        <time>2022-07-08T14:07:21Z</time>
      </trkpt>
      <trkpt lat="42.022053" lon="1.365067">
        <time>2022-07-08T14:07:23Z</time>
      </trkpt>
      <trkpt lat="42.022038" lon="1.3651793">
        <time>2022-07-08T14:07:25Z</time>
      </trkpt>
      <trkpt lat="42.022026" lon="1.3652933">
        <time>2022-07-08T14:07:27Z</time>
      </trkpt>
      <trkpt lat="42.022015" lon="1.365408">
        <time>2022-07-08T14:07:29Z</time>
      </trkpt>
      <trkpt lat="42.022003" lon="1.3655223">
        <time>2022-07-08T14:07:31Z</time>
      </trkpt>
      <trkpt lat="42.02199" lon="1.3656386">
        <time>2022-07-08T14:07:33Z</time>
      </trkpt>
      <trkpt lat="42.021988" lon="1.365755">
        <time>2022-07-08T14:07:35Z</time>
      </trkpt>
      <trkpt lat="42.02198" lon="1.3658715">
        <time>2022-07-08T14:07:37Z</time>
      </trkpt>
      <trkpt lat="42.021976" lon="1.3659883">
        <time>2022-07-08T14:07:39Z</time>
      </trkpt>
      <trkpt lat="42.02198" lon="1.3661016">
        <time>2022-07-08T14:07:41Z</time>
      </trkpt>
      <trkpt lat="42.021988" lon="1.3662113">
        <time>2022-07-08T14:07:43Z</time>
      </trkpt>
      <trkpt lat="42.022" lon="1.3663266">
        <time>2022-07-08T14:07:45Z</time>
      </trkpt>
      <trkpt lat="42.022015" lon="1.3664412">
        <time>2022-07-08T14:07:47Z</time>
      </trkpt>
      <trkpt lat="42.022038" lon="1.3665532">
        <time>2022-07-08T14:07:49Z</time>
      </trkpt>
      <trkpt lat="42.022068" lon="1.3666639">
        <time>2022-07-08T14:07:51Z</time>
      </trkpt>
      <trkpt lat="42.022102" lon="1.3667762">
        <time>2022-07-08T14:07:53Z</time>
      </trkpt>
      <trkpt lat="42.02214" lon="1.3668876">
        <time>2022-07-08T14:07:55Z</time>
      </trkpt>
      <trkpt lat="42.022213" lon="1.3670479">
        <time>2022-07-08T14:07:58Z</time>
      </trkpt>
      <trkpt lat="42.022266" lon="1.3671559">
        <time>2022-07-08T14:08:00Z</time>
      </trkpt>
      <trkpt lat="42.022293" lon="1.3672096">
        <time>2022-07-08T14:08:01Z</time>
      </trkpt>
      <trkpt lat="42.02235" lon="1.3673176">
        <time>2022-07-08T14:08:03Z</time>
      </trkpt>
      <trkpt lat="42.022377" lon="1.3673716">
        <time>2022-07-08T14:08:04Z</time>
      </trkpt>
      <trkpt lat="42.022434" lon="1.3674779">
        <time>2022-07-08T14:08:06Z</time>
      </trkpt>
      <trkpt lat="42.022495" lon="1.3675855">
        <time>2022-07-08T14:08:08Z</time>
      </trkpt>
      <trkpt lat="42.022552" lon="1.3676949">
        <time>2022-07-08T14:08:10Z</time>
      </trkpt>
      <trkpt lat="42.022587" lon="1.3677479">
        <time>2022-07-08T14:08:11Z</time>
      </trkpt>
      <trkpt lat="42.02265" lon="1.3678552">
        <time>2022-07-08T14:08:13Z</time>
      </trkpt>
      <trkpt lat="42.022686" lon="1.3679101">
        <time>2022-07-08T14:08:14Z</time>
      </trkpt>
      <trkpt lat="42.022717" lon="1.3679645">
        <time>2022-07-08T14:08:15Z</time>
      </trkpt>
      <trkpt lat="42.02278" lon="1.3680782">
        <time>2022-07-08T14:08:17Z</time>
      </trkpt>
      <trkpt lat="42.022816" lon="1.3681371">
        <time>2022-07-08T14:08:18Z</time>
      </trkpt>
      <trkpt lat="42.022842" lon="1.3681918">
        <time>2022-07-08T14:08:19Z</time>
      </trkpt>
      <trkpt lat="42.022873" lon="1.3682475">
        <time>2022-07-08T14:08:20Z</time>
      </trkpt>
      <trkpt lat="42.022926" lon="1.3683611">
        <time>2022-07-08T14:08:22Z</time>
      </trkpt>
      <trkpt lat="42.022953" lon="1.3684192">
        <time>2022-07-08T14:08:23Z</time>
      </trkpt>
      <trkpt lat="42.023" lon="1.3685392">
        <time>2022-07-08T14:08:25Z</time>
      </trkpt>
      <trkpt lat="42.023037" lon="1.3686671">
        <time>2022-07-08T14:08:27Z</time>
      </trkpt>
      <trkpt lat="42.023052" lon="1.3687328">
        <time>2022-07-08T14:08:28Z</time>
      </trkpt>
      <trkpt lat="42.023067" lon="1.3687978">
        <time>2022-07-08T14:08:29Z</time>
      </trkpt>
      <trkpt lat="42.023094" lon="1.3689191">
        <time>2022-07-08T14:08:31Z</time>
      </trkpt>
      <trkpt lat="42.023106" lon="1.3689808">
        <time>2022-07-08T14:08:32Z</time>
      </trkpt>
      <trkpt lat="42.023125" lon="1.3691045">
        <time>2022-07-08T14:08:34Z</time>
      </trkpt>
      <trkpt lat="42.023148" lon="1.3692288">
        <time>2022-07-08T14:08:36Z</time>
      </trkpt>
      <trkpt lat="42.023167" lon="1.3693452">
        <time>2022-07-08T14:08:38Z</time>
      </trkpt>
      <trkpt lat="42.023182" lon="1.3694648">
        <time>2022-07-08T14:08:40Z</time>
      </trkpt>
      <trkpt lat="42.023197" lon="1.3695798">
        <time>2022-07-08T14:08:42Z</time>
      </trkpt>
      <trkpt lat="42.023216" lon="1.3696882">
        <time>2022-07-08T14:08:44Z</time>
      </trkpt>
      <trkpt lat="42.02323" lon="1.3697925">
        <time>2022-07-08T14:08:46Z</time>
      </trkpt>
      <trkpt lat="42.023247" lon="1.3698968">
        <time>2022-07-08T14:08:48Z</time>
      </trkpt>
      <trkpt lat="42.023266" lon="1.3700001">
        <time>2022-07-08T14:08:50Z</time>
      </trkpt>
      <trkpt lat="42.023285" lon="1.3701007">
        <time>2022-07-08T14:08:52Z</time>
      </trkpt>
      <trkpt lat="42.023308" lon="1.3701981">
        <time>2022-07-08T14:08:54Z</time>
      </trkpt>
      <trkpt lat="42.023335" lon="1.3702958">
        <time>2022-07-08T14:08:56Z</time>
      </trkpt>
      <trkpt lat="42.023354" lon="1.3703884">
        <time>2022-07-08T14:08:58Z</time>
      </trkpt>
      <trkpt lat="42.023376" lon="1.3704817">
        <time>2022-07-08T14:09:00Z</time>
      </trkpt>
      <trkpt lat="42.023403" lon="1.3705754">
        <time>2022-07-08T14:09:02Z</time>
      </trkpt>
      <trkpt lat="42.023434" lon="1.3706654">
        <time>2022-07-08T14:09:04Z</time>
      </trkpt>
      <trkpt lat="42.023464" lon="1.3707525">
        <time>2022-07-08T14:09:06Z</time>
      </trkpt>
      <trkpt lat="42.023495" lon="1.3708347">
        <time>2022-07-08T14:09:08Z</time>
      </trkpt>
      <trkpt lat="42.023525" lon="1.3709167">
        <time>2022-07-08T14:09:10Z</time>
      </trkpt>
      <trkpt lat="42.023552" lon="1.3709995">
        <time>2022-07-08T14:09:12Z</time>
      </trkpt>
      <trkpt lat="42.02358" lon="1.3710841">
        <time>2022-07-08T14:09:14Z</time>
      </trkpt>
      <trkpt lat="42.02361" lon="1.3711697">
        <time>2022-07-08T14:09:16Z</time>
      </trkpt>
      <trkpt lat="42.023636" lon="1.3712587">
        <time>2022-07-08T14:09:18Z</time>
      </trkpt>
      <trkpt lat="42.023666" lon="1.3713474">
        <time>2022-07-08T14:09:20Z</time>
      </trkpt>
      <trkpt lat="42.0237" lon="1.3714384">
        <time>2022-07-08T14:09:22Z</time>
      </trkpt>
      <trkpt lat="42.023735" lon="1.3715347">
        <time>2022-07-08T14:09:24Z</time>
      </trkpt>
      <trkpt lat="42.02377" lon="1.371636">
        <time>2022-07-08T14:09:26Z</time>
      </trkpt>
      <trkpt lat="42.023804" lon="1.3717397">
        <time>2022-07-08T14:09:28Z</time>
      </trkpt>
      <trkpt lat="42.02384" lon="1.3718491">
        <time>2022-07-08T14:09:30Z</time>
      </trkpt>
      <trkpt lat="42.023876" lon="1.3719577">
        <time>2022-07-08T14:09:32Z</time>
      </trkpt>
      <trkpt lat="42.023914" lon="1.372068">
        <time>2022-07-08T14:09:34Z</time>
      </trkpt>
      <trkpt lat="42.023952" lon="1.3721817">
        <time>2022-07-08T14:09:36Z</time>
      </trkpt>
      <trkpt lat="42.02397" lon="1.3722403">
        <time>2022-07-08T14:09:37Z</time>
      </trkpt>
      <trkpt lat="42.02401" lon="1.3723527">
        <time>2022-07-08T14:09:39Z</time>
      </trkpt>
      <trkpt lat="42.024048" lon="1.372474">
        <time>2022-07-08T14:09:41Z</time>
      </trkpt>
      <trkpt lat="42.02409" lon="1.3725933">
        <time>2022-07-08T14:09:43Z</time>
      </trkpt>
      <trkpt lat="42.024128" lon="1.3727076">
        <time>2022-07-08T14:09:45Z</time>
      </trkpt>
      <trkpt lat="42.024162" lon="1.3728276">
        <time>2022-07-08T14:09:47Z</time>
      </trkpt>
      <trkpt lat="42.024193" lon="1.372955">
        <time>2022-07-08T14:09:49Z</time>
      </trkpt>
      <trkpt lat="42.024216" lon="1.3730793">
        <time>2022-07-08T14:09:51Z</time>
      </trkpt>
      <trkpt lat="42.02423" lon="1.3732077">
        <time>2022-07-08T14:09:53Z</time>
      </trkpt>
      <trkpt lat="42.02424" lon="1.373273">
        <time>2022-07-08T14:09:54Z</time>
      </trkpt>
      <trkpt lat="42.02425" lon="1.3734016">
        <time>2022-07-08T14:09:56Z</time>
      </trkpt>
      <trkpt lat="42.024254" lon="1.373465">
        <time>2022-07-08T14:09:57Z</time>
      </trkpt>
      <trkpt lat="42.02426" lon="1.3735883">
        <time>2022-07-08T14:09:59Z</time>
      </trkpt>
      <trkpt lat="42.02426" lon="1.373711">
        <time>2022-07-08T14:10:01Z</time>
      </trkpt>
      <trkpt lat="42.02426" lon="1.3738226">
        <time>2022-07-08T14:10:03Z</time>
      </trkpt>
      <trkpt lat="42.024265" lon="1.3739372">
        <time>2022-07-08T14:10:05Z</time>
      </trkpt>
      <trkpt lat="42.024265" lon="1.3740453">
        <time>2022-07-08T14:10:07Z</time>
      </trkpt>
      <trkpt lat="42.02427" lon="1.3741629">
        <time>2022-07-08T14:10:09Z</time>
      </trkpt>
      <trkpt lat="42.024277" lon="1.3742737">
        <time>2022-07-08T14:10:11Z</time>
      </trkpt>
      <trkpt lat="42.02428" lon="1.3743826">
        <time>2022-07-08T14:10:13Z</time>
      </trkpt>
      <trkpt lat="42.024292" lon="1.3744999">
        <time>2022-07-08T14:10:15Z</time>
      </trkpt>
      <trkpt lat="42.02431" lon="1.3746142">
        <time>2022-07-08T14:10:17Z</time>
      </trkpt>
      <trkpt lat="42.024338" lon="1.3747263">
        <time>2022-07-08T14:10:19Z</time>
      </trkpt>
      <trkpt lat="42.024372" lon="1.374836">
        <time>2022-07-08T14:10:21Z</time>
      </trkpt>
      <trkpt lat="42.024406" lon="1.3749442">
        <time>2022-07-08T14:10:23Z</time>
      </trkpt>
      <trkpt lat="42.024445" lon="1.3750472">
        <time>2022-07-08T14:10:25Z</time>
      </trkpt>
      <trkpt lat="42.024487" lon="1.375145">
        <time>2022-07-08T14:10:27Z</time>
      </trkpt>
      <trkpt lat="42.024532" lon="1.3752393">
        <time>2022-07-08T14:10:29Z</time>
      </trkpt>
      <trkpt lat="42.02458" lon="1.3753339">
        <time>2022-07-08T14:10:31Z</time>
      </trkpt>
      <trkpt lat="42.024624" lon="1.3754245">
        <time>2022-07-08T14:10:33Z</time>
      </trkpt>
      <trkpt lat="42.02467" lon="1.3755169">
        <time>2022-07-08T14:10:35Z</time>
      </trkpt>
      <trkpt lat="42.024715" lon="1.3756093">
        <time>2022-07-08T14:10:37Z</time>
      </trkpt>
      <trkpt lat="42.024757" lon="1.3757025">
        <time>2022-07-08T14:10:39Z</time>
      </trkpt>
      <trkpt lat="42.0248" lon="1.3757979">
        <time>2022-07-08T14:10:41Z</time>
      </trkpt>
      <trkpt lat="42.02484" lon="1.3758929">
        <time>2022-07-08T14:10:43Z</time>
      </trkpt>
      <trkpt lat="42.02488" lon="1.3759853">
        <time>2022-07-08T14:10:45Z</time>
      </trkpt>
      <trkpt lat="42.024914" lon="1.3760818">
        <time>2022-07-08T14:10:47Z</time>
      </trkpt>
      <trkpt lat="42.024952" lon="1.3761789">
        <time>2022-07-08T14:10:49Z</time>
      </trkpt>
      <trkpt lat="42.024986" lon="1.3762752">
        <time>2022-07-08T14:10:51Z</time>
      </trkpt>
      <trkpt lat="42.02502" lon="1.3763789">
        <time>2022-07-08T14:10:53Z</time>
      </trkpt>
      <trkpt lat="42.02506" lon="1.3764828">
        <time>2022-07-08T14:10:55Z</time>
      </trkpt>
      <trkpt lat="42.025093" lon="1.3765888">
        <time>2022-07-08T14:10:57Z</time>
      </trkpt>
      <trkpt lat="42.025124" lon="1.3767009">
        <time>2022-07-08T14:10:59Z</time>
      </trkpt>
      <trkpt lat="42.025154" lon="1.3768092">
        <time>2022-07-08T14:11:01Z</time>
      </trkpt>
      <trkpt lat="42.025185" lon="1.3769258">
        <time>2022-07-08T14:11:03Z</time>
      </trkpt>
      <trkpt lat="42.02522" lon="1.3770459">
        <time>2022-07-08T14:11:05Z</time>
      </trkpt>
      <trkpt lat="42.025238" lon="1.3771058">
        <time>2022-07-08T14:11:06Z</time>
      </trkpt>
      <trkpt lat="42.025276" lon="1.3772265">
        <time>2022-07-08T14:11:08Z</time>
      </trkpt>
      <trkpt lat="42.025314" lon="1.3773448">
        <time>2022-07-08T14:11:10Z</time>
      </trkpt>
      <trkpt lat="42.025337" lon="1.3774028">
        <time>2022-07-08T14:11:11Z</time>
      </trkpt>
      <trkpt lat="42.025414" lon="1.3775702">
        <time>2022-07-08T14:11:14Z</time>
      </trkpt>
      <trkpt lat="42.025467" lon="1.3776778">
        <time>2022-07-08T14:11:16Z</time>
      </trkpt>
      <trkpt lat="42.025524" lon="1.3777819">
        <time>2022-07-08T14:11:18Z</time>
      </trkpt>
      <trkpt lat="42.025555" lon="1.3778329">
        <time>2022-07-08T14:11:19Z</time>
      </trkpt>
      <trkpt lat="42.02562" lon="1.3779368">
        <time>2022-07-08T14:11:21Z</time>
      </trkpt>
      <trkpt lat="42.025684" lon="1.3780421">
        <time>2022-07-08T14:11:23Z</time>
      </trkpt>
      <trkpt lat="42.025715" lon="1.3780948">
        <time>2022-07-08T14:11:24Z</time>
      </trkpt>
      <trkpt lat="42.025776" lon="1.3782005">
        <time>2022-07-08T14:11:26Z</time>
      </trkpt>
      <trkpt lat="42.025837" lon="1.3783071">
        <time>2022-07-08T14:11:28Z</time>
      </trkpt>
      <trkpt lat="42.02587" lon="1.3783607">
        <time>2022-07-08T14:11:29Z</time>
      </trkpt>
      <trkpt lat="42.025936" lon="1.3784702">
        <time>2022-07-08T14:11:31Z</time>
      </trkpt>
      <trkpt lat="42.025967" lon="1.3785244">
        <time>2022-07-08T14:11:32Z</time>
      </trkpt>
      <trkpt lat="42.02603" lon="1.3786315">
        <time>2022-07-08T14:11:34Z</time>
      </trkpt>
      <trkpt lat="42.026062" lon="1.3786842">
        <time>2022-07-08T14:11:35Z</time>
      </trkpt>
      <trkpt lat="42.026096" lon="1.3787371">
        <time>2022-07-08T14:11:36Z</time>
      </trkpt>
      <trkpt lat="42.02616" lon="1.3788462">
        <time>2022-07-08T14:11:38Z</time>
      </trkpt>
      <trkpt lat="42.026196" lon="1.3788995">
        <time>2022-07-08T14:11:39Z</time>
      </trkpt>
      <trkpt lat="42.02623" lon="1.3789527">
        <time>2022-07-08T14:11:40Z</time>
      </trkpt>
      <trkpt lat="42.02629" lon="1.3790631">
        <time>2022-07-08T14:11:42Z</time>
      </trkpt>
      <trkpt lat="42.02632" lon="1.3791192">
        <time>2022-07-08T14:11:43Z</time>
      </trkpt>
      <trkpt lat="42.02635" lon="1.3791738">
        <time>2022-07-08T14:11:44Z</time>
      </trkpt>
      <trkpt lat="42.026405" lon="1.3792831">
        <time>2022-07-08T14:11:46Z</time>
      </trkpt>
      <trkpt lat="42.02646" lon="1.3793907">
        <time>2022-07-08T14:11:48Z</time>
      </trkpt>
      <trkpt lat="42.0265" lon="1.3795">
        <time>2022-07-08T14:11:50Z</time>
      </trkpt>
      <trkpt lat="42.02654" lon="1.3796151">
        <time>2022-07-08T14:11:52Z</time>
      </trkpt>
      <trkpt lat="42.02657" lon="1.3797327">
        <time>2022-07-08T14:11:54Z</time>
      </trkpt>
      <trkpt lat="42.0266" lon="1.3798558">
        <time>2022-07-08T14:11:56Z</time>
      </trkpt>
      <trkpt lat="42.026615" lon="1.3799185">
        <time>2022-07-08T14:11:57Z</time>
      </trkpt>
      <trkpt lat="42.026638" lon="1.3800417">
        <time>2022-07-08T14:11:59Z</time>
      </trkpt>
      <trkpt lat="42.026657" lon="1.3801614">
        <time>2022-07-08T14:12:01Z</time>
      </trkpt>
      <trkpt lat="42.026676" lon="1.3802865">
        <time>2022-07-08T14:12:03Z</time>
      </trkpt>
      <trkpt lat="42.026695" lon="1.3804104">
        <time>2022-07-08T14:12:05Z</time>
      </trkpt>
      <trkpt lat="42.026714" lon="1.380534">
        <time>2022-07-08T14:12:07Z</time>
      </trkpt>
      <trkpt lat="42.02673" lon="1.3806593">
        <time>2022-07-08T14:12:09Z</time>
      </trkpt>
      <trkpt lat="42.02674" lon="1.380717">
        <time>2022-07-08T14:12:10Z</time>
      </trkpt>
      <trkpt lat="42.026756" lon="1.3808447">
        <time>2022-07-08T14:12:12Z</time>
      </trkpt>
      <trkpt lat="42.02677" lon="1.3809744">
        <time>2022-07-08T14:12:14Z</time>
      </trkpt>
      <trkpt lat="42.026787" lon="1.3810993">
        <time>2022-07-08T14:12:16Z</time>
      </trkpt>
      <trkpt lat="42.026794" lon="1.3812287">
        <time>2022-07-08T14:12:18Z</time>
      </trkpt>
      <trkpt lat="42.0268" lon="1.38136">
        <time>2022-07-08T14:12:20Z</time>
      </trkpt>
      <trkpt lat="42.0268" lon="1.381541">
        <time>2022-07-08T14:12:23Z</time>
      </trkpt>
      <trkpt lat="42.026794" lon="1.3816583">
        <time>2022-07-08T14:12:25Z</time>
      </trkpt>
      <trkpt lat="42.026794" lon="1.3817713">
        <time>2022-07-08T14:12:27Z</time>
      </trkpt>
      <trkpt lat="42.02679" lon="1.3818797">
        <time>2022-07-08T14:12:29Z</time>
      </trkpt>
      <trkpt lat="42.026787" lon="1.381989">
        <time>2022-07-08T14:12:31Z</time>
      </trkpt>
      <trkpt lat="42.026783" lon="1.3820916">
        <time>2022-07-08T14:12:33Z</time>
      </trkpt>
      <trkpt lat="42.026783" lon="1.3821996">
        <time>2022-07-08T14:12:35Z</time>
      </trkpt>
      <trkpt lat="42.026787" lon="1.382304">
        <time>2022-07-08T14:12:37Z</time>
      </trkpt>
      <trkpt lat="42.0268" lon="1.382409">
        <time>2022-07-08T14:12:39Z</time>
      </trkpt>
      <trkpt lat="42.02681" lon="1.3825136">
        <time>2022-07-08T14:12:41Z</time>
      </trkpt>
      <trkpt lat="42.026825" lon="1.382618">
        <time>2022-07-08T14:12:43Z</time>
      </trkpt>
      <trkpt lat="42.026844" lon="1.382722">
        <time>2022-07-08T14:12:45Z</time>
      </trkpt>
      <trkpt lat="42.026867" lon="1.382831">
        <time>2022-07-08T14:12:47Z</time>
      </trkpt>
      <trkpt lat="42.026886" lon="1.38294">
        <time>2022-07-08T14:12:49Z</time>
      </trkpt>
      <trkpt lat="42.02691" lon="1.3830464">
        <time>2022-07-08T14:12:51Z</time>
      </trkpt>
      <trkpt lat="42.026928" lon="1.3831524">
        <time>2022-07-08T14:12:53Z</time>
      </trkpt>
      <trkpt lat="42.02695" lon="1.3832567">
        <time>2022-07-08T14:12:55Z</time>
      </trkpt>
      <trkpt lat="42.02697" lon="1.383353">
        <time>2022-07-08T14:12:57Z</time>
      </trkpt>
      <trkpt lat="42.02699" lon="1.3834534">
        <time>2022-07-08T14:12:59Z</time>
      </trkpt>
      <trkpt lat="42.027004" lon="1.3835543">
        <time>2022-07-08T14:13:01Z</time>
      </trkpt>
      <trkpt lat="42.027023" lon="1.3836616">
        <time>2022-07-08T14:13:03Z</time>
      </trkpt>
      <trkpt lat="42.027046" lon="1.3837707">
        <time>2022-07-08T14:13:05Z</time>
      </trkpt>
      <trkpt lat="42.027065" lon="1.383885">
        <time>2022-07-08T14:13:07Z</time>
      </trkpt>
      <trkpt lat="42.02709" lon="1.3840086">
        <time>2022-07-08T14:13:09Z</time>
      </trkpt>
      <trkpt lat="42.0271" lon="1.3840683">
        <time>2022-07-08T14:13:10Z</time>
      </trkpt>
      <trkpt lat="42.02712" lon="1.384197">
        <time>2022-07-08T14:13:12Z</time>
      </trkpt>
      <trkpt lat="42.02713" lon="1.3842642">
        <time>2022-07-08T14:13:13Z</time>
      </trkpt>
      <trkpt lat="42.027145" lon="1.3844017">
        <time>2022-07-08T14:13:15Z</time>
      </trkpt>
      <trkpt lat="42.027153" lon="1.384473">
        <time>2022-07-08T14:13:16Z</time>
      </trkpt>
      <trkpt lat="42.027157" lon="1.3845463">
        <time>2022-07-08T14:13:17Z</time>
      </trkpt>
      <trkpt lat="42.02716" lon="1.384622">
        <time>2022-07-08T14:13:18Z</time>
      </trkpt>
      <trkpt lat="42.02716" lon="1.3846996">
        <time>2022-07-08T14:13:19Z</time>
      </trkpt>
      <trkpt lat="42.02716" lon="1.3847786">
        <time>2022-07-08T14:13:20Z</time>
      </trkpt>
      <trkpt lat="42.02716" lon="1.3848573">
        <time>2022-07-08T14:13:21Z</time>
      </trkpt>
      <trkpt lat="42.027157" lon="1.384936">
        <time>2022-07-08T14:13:22Z</time>
      </trkpt>
      <trkpt lat="42.02715" lon="1.3850129">
        <time>2022-07-08T14:13:23Z</time>
      </trkpt>
      <trkpt lat="42.02714" lon="1.3850893">
        <time>2022-07-08T14:13:24Z</time>
      </trkpt>
      <trkpt lat="42.027134" lon="1.3851646">
        <time>2022-07-08T14:13:25Z</time>
      </trkpt>
      <trkpt lat="42.027126" lon="1.3852379">
        <time>2022-07-08T14:13:26Z</time>
      </trkpt>
      <trkpt lat="42.027107" lon="1.385379">
        <time>2022-07-08T14:13:28Z</time>
      </trkpt>
      <trkpt lat="42.027096" lon="1.3854506">
        <time>2022-07-08T14:13:29Z</time>
      </trkpt>
      <trkpt lat="42.027084" lon="1.3855206">
        <time>2022-07-08T14:13:30Z</time>
      </trkpt>
      <trkpt lat="42.027077" lon="1.385585">
        <time>2022-07-08T14:13:31Z</time>
      </trkpt>
      <trkpt lat="42.027065" lon="1.3856488">
        <time>2022-07-08T14:13:32Z</time>
      </trkpt>
      <trkpt lat="42.027046" lon="1.3857752">
        <time>2022-07-08T14:13:34Z</time>
      </trkpt>
      <trkpt lat="42.02703" lon="1.3858942">
        <time>2022-07-08T14:13:36Z</time>
      </trkpt>
      <trkpt lat="42.02701" lon="1.3860168">
        <time>2022-07-08T14:13:38Z</time>
      </trkpt>
      <trkpt lat="42.026997" lon="1.3861402">
        <time>2022-07-08T14:13:40Z</time>
      </trkpt>
      <trkpt lat="42.026978" lon="1.3862618">
        <time>2022-07-08T14:13:42Z</time>
      </trkpt>
      <trkpt lat="42.02696" lon="1.3863819">
        <time>2022-07-08T14:13:44Z</time>
      </trkpt>
      <trkpt lat="42.02694" lon="1.3864999">
        <time>2022-07-08T14:13:46Z</time>
      </trkpt>
      <trkpt lat="42.02692" lon="1.3866175">
        <time>2022-07-08T14:13:48Z</time>
      </trkpt>
      <trkpt lat="42.026905" lon="1.3867365">
        <time>2022-07-08T14:13:50Z</time>
      </trkpt>
      <trkpt lat="42.026886" lon="1.3868625">
        <time>2022-07-08T14:13:52Z</time>
      </trkpt>
      <trkpt lat="42.02688" lon="1.3869209">
        <time>2022-07-08T14:13:53Z</time>
      </trkpt>
      <trkpt lat="42.026867" lon="1.3870386">
        <time>2022-07-08T14:13:55Z</time>
      </trkpt>
      <trkpt lat="42.026848" lon="1.3871576">
        <time>2022-07-08T14:13:57Z</time>
      </trkpt>
      <trkpt lat="42.026833" lon="1.3872782">
        <time>2022-07-08T14:13:59Z</time>
      </trkpt>
      <trkpt lat="42.026817" lon="1.3873988">
        <time>2022-07-08T14:14:01Z</time>
      </trkpt>
      <trkpt lat="42.02681" lon="1.3874621">
        <time>2022-07-08T14:14:02Z</time>
      </trkpt>
      <trkpt lat="42.02679" lon="1.3875859">
        <time>2022-07-08T14:14:04Z</time>
      </trkpt>
      <trkpt lat="42.02678" lon="1.3876466">
        <time>2022-07-08T14:14:05Z</time>
      </trkpt>
      <trkpt lat="42.02676" lon="1.3877785">
        <time>2022-07-08T14:14:07Z</time>
      </trkpt>
      <trkpt lat="42.02675" lon="1.3878448">
        <time>2022-07-08T14:14:08Z</time>
      </trkpt>
      <trkpt lat="42.026733" lon="1.3879799">
        <time>2022-07-08T14:14:10Z</time>
      </trkpt>
      <trkpt lat="42.026722" lon="1.3880472">
        <time>2022-07-08T14:14:11Z</time>
      </trkpt>
      <trkpt lat="42.026707" lon="1.3881805">
        <time>2022-07-08T14:14:13Z</time>
      </trkpt>
      <trkpt lat="42.0267" lon="1.3882475">
        <time>2022-07-08T14:14:14Z</time>
      </trkpt>
      <trkpt lat="42.026684" lon="1.3883835">
        <time>2022-07-08T14:14:16Z</time>
      </trkpt>
      <trkpt lat="42.026676" lon="1.3884525">
        <time>2022-07-08T14:14:17Z</time>
      </trkpt>
      <trkpt lat="42.02666" lon="1.3885901">
        <time>2022-07-08T14:14:19Z</time>
      </trkpt>
      <trkpt lat="42.026653" lon="1.3886598">
        <time>2022-07-08T14:14:20Z</time>
      </trkpt>
      <trkpt lat="42.026646" lon="1.3887298">
        <time>2022-07-08T14:14:21Z</time>
      </trkpt>
      <trkpt lat="42.026638" lon="1.3888005">
        <time>2022-07-08T14:14:22Z</time>
      </trkpt>
      <trkpt lat="42.02663" lon="1.3888714">
        <time>2022-07-08T14:14:23Z</time>
      </trkpt>
      <trkpt lat="42.02661" lon="1.3890121">
        <time>2022-07-08T14:14:25Z</time>
      </trkpt>
      <trkpt lat="42.026604" lon="1.3890815">
        <time>2022-07-08T14:14:26Z</time>
      </trkpt>
      <trkpt lat="42.026592" lon="1.3891565">
        <time>2022-07-08T14:14:27Z</time>
      </trkpt>
      <trkpt lat="42.026585" lon="1.3892298">
        <time>2022-07-08T14:14:28Z</time>
      </trkpt>
      <trkpt lat="42.026573" lon="1.3893014">
        <time>2022-07-08T14:14:29Z</time>
      </trkpt>
      <trkpt lat="42.026566" lon="1.3893728">
        <time>2022-07-08T14:14:30Z</time>
      </trkpt>
      <trkpt lat="42.02655" lon="1.3895065">
        <time>2022-07-08T14:14:32Z</time>
      </trkpt>
      <trkpt lat="42.026543" lon="1.3895755">
        <time>2022-07-08T14:14:33Z</time>
      </trkpt>
      <trkpt lat="42.02653" lon="1.3896455">
        <time>2022-07-08T14:14:34Z</time>
      </trkpt>
      <trkpt lat="42.026516" lon="1.3897874">
        <time>2022-07-08T14:14:36Z</time>
      </trkpt>
      <trkpt lat="42.02651" lon="1.3898591">
        <time>2022-07-08T14:14:37Z</time>
      </trkpt>
      <trkpt lat="42.0265" lon="1.3899348">
        <time>2022-07-08T14:14:38Z</time>
      </trkpt>
      <trkpt lat="42.026493" lon="1.3900038">
        <time>2022-07-08T14:14:39Z</time>
      </trkpt>
      <trkpt lat="42.026474" lon="1.390143">
        <time>2022-07-08T14:14:41Z</time>
      </trkpt>
      <trkpt lat="42.02647" lon="1.390212">
        <time>2022-07-08T14:14:42Z</time>
      </trkpt>
      <trkpt lat="42.02646" lon="1.3902814">
        <time>2022-07-08T14:14:43Z</time>
      </trkpt>
      <trkpt lat="42.02645" lon="1.3903501">
        <time>2022-07-08T14:14:44Z</time>
      </trkpt>
      <trkpt lat="42.026436" lon="1.3904847">
        <time>2022-07-08T14:14:46Z</time>
      </trkpt>
      <trkpt lat="42.02643" lon="1.3905504">
        <time>2022-07-08T14:14:47Z</time>
      </trkpt>
      <trkpt lat="42.026413" lon="1.3906817">
        <time>2022-07-08T14:14:49Z</time>
      </trkpt>
      <trkpt lat="42.026405" lon="1.3908083">
        <time>2022-07-08T14:14:51Z</time>
      </trkpt>
      <trkpt lat="42.026398" lon="1.39093">
        <time>2022-07-08T14:14:53Z</time>
      </trkpt>
      <trkpt lat="42.026386" lon="1.3910484">
        <time>2022-07-08T14:14:55Z</time>
      </trkpt>
      <trkpt lat="42.02638" lon="1.391163">
        <time>2022-07-08T14:14:57Z</time>
      </trkpt>
      <trkpt lat="42.026375" lon="1.3912684">
        <time>2022-07-08T14:14:59Z</time>
      </trkpt>
      <trkpt lat="42.026375" lon="1.391374">
        <time>2022-07-08T14:15:01Z</time>
      </trkpt>
      <trkpt lat="42.026382" lon="1.3914787">
        <time>2022-07-08T14:15:03Z</time>
      </trkpt>
      <trkpt lat="42.026386" lon="1.3915787">
        <time>2022-07-08T14:15:05Z</time>
      </trkpt>
      <trkpt lat="42.026394" lon="1.3916761">
        <time>2022-07-08T14:15:07Z</time>
      </trkpt>
      <trkpt lat="42.02641" lon="1.3917724">
        <time>2022-07-08T14:15:09Z</time>
      </trkpt>
      <trkpt lat="42.02643" lon="1.3918667">
        <time>2022-07-08T14:15:11Z</time>
      </trkpt>
      <trkpt lat="42.02645" lon="1.3919604">
        <time>2022-07-08T14:15:13Z</time>
      </trkpt>
      <trkpt lat="42.026478" lon="1.3920487">
        <time>2022-07-08T14:15:15Z</time>
      </trkpt>
      <trkpt lat="42.026505" lon="1.392142">
        <time>2022-07-08T14:15:17Z</time>
      </trkpt>
      <trkpt lat="42.026535" lon="1.3922323">
        <time>2022-07-08T14:15:19Z</time>
      </trkpt>
      <trkpt lat="42.026566" lon="1.3923273">
        <time>2022-07-08T14:15:21Z</time>
      </trkpt>
      <trkpt lat="42.026596" lon="1.392426">
        <time>2022-07-08T14:15:23Z</time>
      </trkpt>
      <trkpt lat="42.026623" lon="1.3925216">
        <time>2022-07-08T14:15:25Z</time>
      </trkpt>
      <trkpt lat="42.026653" lon="1.3926296">
        <time>2022-07-08T14:15:27Z</time>
      </trkpt>
      <trkpt lat="42.02668" lon="1.39274">
        <time>2022-07-08T14:15:29Z</time>
      </trkpt>
      <trkpt lat="42.026707" lon="1.392847">
        <time>2022-07-08T14:15:31Z</time>
      </trkpt>
      <trkpt lat="42.026722" lon="1.392966">
        <time>2022-07-08T14:15:33Z</time>
      </trkpt>
      <trkpt lat="42.02673" lon="1.3930813">
        <time>2022-07-08T14:15:35Z</time>
      </trkpt>
      <trkpt lat="42.026733" lon="1.3931993">
        <time>2022-07-08T14:15:37Z</time>
      </trkpt>
      <trkpt lat="42.02673" lon="1.3933194">
        <time>2022-07-08T14:15:39Z</time>
      </trkpt>
      <trkpt lat="42.02673" lon="1.393436">
        <time>2022-07-08T14:15:41Z</time>
      </trkpt>
      <trkpt lat="42.02673" lon="1.393554">
        <time>2022-07-08T14:15:43Z</time>
      </trkpt>
      <trkpt lat="42.026722" lon="1.393684">
        <time>2022-07-08T14:15:45Z</time>
      </trkpt>
      <trkpt lat="42.02672" lon="1.3937446">
        <time>2022-07-08T14:15:46Z</time>
      </trkpt>
      <trkpt lat="42.02671" lon="1.3938743">
        <time>2022-07-08T14:15:48Z</time>
      </trkpt>
      <trkpt lat="42.0267" lon="1.394004">
        <time>2022-07-08T14:15:50Z</time>
      </trkpt>
      <trkpt lat="42.026684" lon="1.39412">
        <time>2022-07-08T14:15:52Z</time>
      </trkpt>
      <trkpt lat="42.02666" lon="1.3942423">
        <time>2022-07-08T14:15:54Z</time>
      </trkpt>
      <trkpt lat="42.026638" lon="1.3943563">
        <time>2022-07-08T14:15:56Z</time>
      </trkpt>
      <trkpt lat="42.02661" lon="1.3944633">
        <time>2022-07-08T14:15:58Z</time>
      </trkpt>
      <trkpt lat="42.026585" lon="1.3945783">
        <time>2022-07-08T14:16:00Z</time>
      </trkpt>
      <trkpt lat="42.026566" lon="1.3946862">
        <time>2022-07-08T14:16:02Z</time>
      </trkpt>
      <trkpt lat="42.02655" lon="1.3947986">
        <time>2022-07-08T14:16:04Z</time>
      </trkpt>
      <trkpt lat="42.026543" lon="1.3949146">
        <time>2022-07-08T14:16:06Z</time>
      </trkpt>
      <trkpt lat="42.02654" lon="1.3950343">
        <time>2022-07-08T14:16:08Z</time>
      </trkpt>
      <trkpt lat="42.02654" lon="1.395155">
        <time>2022-07-08T14:16:10Z</time>
      </trkpt>
      <trkpt lat="42.026543" lon="1.3952756">
        <time>2022-07-08T14:16:12Z</time>
      </trkpt>
      <trkpt lat="42.026546" lon="1.3953949">
        <time>2022-07-08T14:16:14Z</time>
      </trkpt>
      <trkpt lat="42.026554" lon="1.3955119">
        <time>2022-07-08T14:16:16Z</time>
      </trkpt>
      <trkpt lat="42.02656" lon="1.3956265">
        <time>2022-07-08T14:16:18Z</time>
      </trkpt>
      <trkpt lat="42.02657" lon="1.395739">
        <time>2022-07-08T14:16:20Z</time>
      </trkpt>
      <trkpt lat="42.026577" lon="1.3958485">
        <time>2022-07-08T14:16:22Z</time>
      </trkpt>
      <trkpt lat="42.026585" lon="1.3959546">
        <time>2022-07-08T14:16:24Z</time>
      </trkpt>
      <trkpt lat="42.026596" lon="1.3960599">
        <time>2022-07-08T14:16:26Z</time>
      </trkpt>
      <trkpt lat="42.026604" lon="1.3961653">
        <time>2022-07-08T14:16:28Z</time>
      </trkpt>
      <trkpt lat="42.02661" lon="1.3962659">
        <time>2022-07-08T14:16:30Z</time>
      </trkpt>
      <trkpt lat="42.02662" lon="1.3963625">
        <time>2022-07-08T14:16:32Z</time>
      </trkpt>
      <trkpt lat="42.026627" lon="1.3964665">
        <time>2022-07-08T14:16:34Z</time>
      </trkpt>
      <trkpt lat="42.026638" lon="1.3965712">
        <time>2022-07-08T14:16:36Z</time>
      </trkpt>
      <trkpt lat="42.02665" lon="1.3966769">
        <time>2022-07-08T14:16:38Z</time>
      </trkpt>
      <trkpt lat="42.02666" lon="1.3967808">
        <time>2022-07-08T14:16:40Z</time>
      </trkpt>
      <trkpt lat="42.026665" lon="1.3968868">
        <time>2022-07-08T14:16:42Z</time>
      </trkpt>
      <trkpt lat="42.02667" lon="1.3969969">
        <time>2022-07-08T14:16:44Z</time>
      </trkpt>
      <trkpt lat="42.02666" lon="1.3971089">
        <time>2022-07-08T14:16:46Z</time>
      </trkpt>
      <trkpt lat="42.02665" lon="1.3972192">
        <time>2022-07-08T14:16:48Z</time>
      </trkpt>
      <trkpt lat="42.02663" lon="1.3973255">
        <time>2022-07-08T14:16:50Z</time>
      </trkpt>
      <trkpt lat="42.026604" lon="1.3974289">
        <time>2022-07-08T14:16:52Z</time>
      </trkpt>
      <trkpt lat="42.026573" lon="1.3975205">
        <time>2022-07-08T14:16:54Z</time>
      </trkpt>
      <trkpt lat="42.026543" lon="1.3976055">
        <time>2022-07-08T14:16:56Z</time>
      </trkpt>
      <trkpt lat="42.026505" lon="1.3976859">
        <time>2022-07-08T14:16:58Z</time>
      </trkpt>
      <trkpt lat="42.026466" lon="1.3977629">
        <time>2022-07-08T14:17:00Z</time>
      </trkpt>
      <trkpt lat="42.02643" lon="1.3978412">
        <time>2022-07-08T14:17:02Z</time>
      </trkpt>
      <trkpt lat="42.026394" lon="1.3979179">
        <time>2022-07-08T14:17:04Z</time>
      </trkpt>
      <trkpt lat="42.026356" lon="1.3979942">
        <time>2022-07-08T14:17:06Z</time>
      </trkpt>
      <trkpt lat="42.02632" lon="1.3980732">
        <time>2022-07-08T14:17:08Z</time>
      </trkpt>
      <trkpt lat="42.02628" lon="1.3981535">
        <time>2022-07-08T14:17:10Z</time>
      </trkpt>
      <trkpt lat="42.026237" lon="1.3982385">
        <time>2022-07-08T14:17:12Z</time>
      </trkpt>
      <trkpt lat="42.02619" lon="1.3983254">
        <time>2022-07-08T14:17:14Z</time>
      </trkpt>
      <trkpt lat="42.02615" lon="1.3984071">
        <time>2022-07-08T14:17:16Z</time>
      </trkpt>
      <trkpt lat="42.026104" lon="1.3984969">
        <time>2022-07-08T14:17:18Z</time>
      </trkpt>
      <trkpt lat="42.026054" lon="1.3985934">
        <time>2022-07-08T14:17:20Z</time>
      </trkpt>
      <trkpt lat="42.026005" lon="1.3986851">
        <time>2022-07-08T14:17:22Z</time>
      </trkpt>
      <trkpt lat="42.025955" lon="1.3987762">
        <time>2022-07-08T14:17:24Z</time>
      </trkpt>
      <trkpt lat="42.025906" lon="1.3988681">
        <time>2022-07-08T14:17:26Z</time>
      </trkpt>
      <trkpt lat="42.02586" lon="1.3989601">
        <time>2022-07-08T14:17:28Z</time>
      </trkpt>
      <trkpt lat="42.025818" lon="1.3990558">
        <time>2022-07-08T14:17:30Z</time>
      </trkpt>
      <trkpt lat="42.02578" lon="1.3991525">
        <time>2022-07-08T14:17:32Z</time>
      </trkpt>
      <trkpt lat="42.02575" lon="1.3992485">
        <time>2022-07-08T14:17:34Z</time>
      </trkpt>
      <trkpt lat="42.02572" lon="1.3993471">
        <time>2022-07-08T14:17:36Z</time>
      </trkpt>
      <trkpt lat="42.025696" lon="1.3994498">
        <time>2022-07-08T14:17:38Z</time>
      </trkpt>
      <trkpt lat="42.025677" lon="1.3995571">
        <time>2022-07-08T14:17:40Z</time>
      </trkpt>
      <trkpt lat="42.02567" lon="1.3996701">
        <time>2022-07-08T14:17:42Z</time>
      </trkpt>
      <trkpt lat="42.025673" lon="1.3997844">
        <time>2022-07-08T14:17:44Z</time>
      </trkpt>
      <trkpt lat="42.025677" lon="1.3999025">
        <time>2022-07-08T14:17:46Z</time>
      </trkpt>
      <trkpt lat="42.025692" lon="1.4000161">
        <time>2022-07-08T14:17:48Z</time>
      </trkpt>
      <trkpt lat="42.025715" lon="1.4001274">
        <time>2022-07-08T14:17:50Z</time>
      </trkpt>
      <trkpt lat="42.02576" lon="1.400292">
        <time>2022-07-08T14:17:53Z</time>
      </trkpt>
      <trkpt lat="42.0258" lon="1.4003984">
        <time>2022-07-08T14:17:55Z</time>
      </trkpt>
      <trkpt lat="42.025845" lon="1.4005017">
        <time>2022-07-08T14:17:57Z</time>
      </trkpt>
      <trkpt lat="42.025894" lon="1.4006025">
        <time>2022-07-08T14:17:59Z</time>
      </trkpt>
      <trkpt lat="42.02594" lon="1.4006984">
        <time>2022-07-08T14:18:01Z</time>
      </trkpt>
      <trkpt lat="42.025986" lon="1.4007901">
        <time>2022-07-08T14:18:03Z</time>
      </trkpt>
      <trkpt lat="42.02603" lon="1.4008747">
        <time>2022-07-08T14:18:05Z</time>
      </trkpt>
      <trkpt lat="42.026073" lon="1.4009557">
        <time>2022-07-08T14:18:07Z</time>
      </trkpt>
      <trkpt lat="42.026115" lon="1.4010308">
        <time>2022-07-08T14:18:09Z</time>
      </trkpt>
      <trkpt lat="42.02616" lon="1.4011028">
        <time>2022-07-08T14:18:11Z</time>
      </trkpt>
      <trkpt lat="42.026203" lon="1.4011754">
        <time>2022-07-08T14:18:13Z</time>
      </trkpt>
      <trkpt lat="42.026237" lon="1.4012437">
        <time>2022-07-08T14:18:15Z</time>
      </trkpt>
      <trkpt lat="42.026276" lon="1.4013118">
        <time>2022-07-08T14:18:17Z</time>
      </trkpt>
      <trkpt lat="42.026314" lon="1.4013797">
        <time>2022-07-08T14:18:19Z</time>
      </trkpt>
      <trkpt lat="42.026352" lon="1.4014461">
        <time>2022-07-08T14:18:21Z</time>
      </trkpt>
      <trkpt lat="42.026386" lon="1.4015107">
        <time>2022-07-08T14:18:23Z</time>
      </trkpt>
      <trkpt lat="42.026417" lon="1.4015774">
        <time>2022-07-08T14:18:25Z</time>
      </trkpt>
      <trkpt lat="42.02645" lon="1.4016464">
        <time>2022-07-08T14:18:27Z</time>
      </trkpt>
      <trkpt lat="42.02648" lon="1.4017147">
        <time>2022-07-08T14:18:29Z</time>
      </trkpt>
      <trkpt lat="42.026512" lon="1.4017843">
        <time>2022-07-08T14:18:31Z</time>
      </trkpt>
      <trkpt lat="42.026543" lon="1.4018567">
        <time>2022-07-08T14:18:33Z</time>
      </trkpt>
      <trkpt lat="42.02657" lon="1.4019314">
        <time>2022-07-08T14:18:35Z</time>
      </trkpt>
      <trkpt lat="42.026592" lon="1.4020057">
        <time>2022-07-08T14:18:37Z</time>
      </trkpt>
      <trkpt lat="42.026615" lon="1.4020834">
        <time>2022-07-08T14:18:39Z</time>
      </trkpt>
      <trkpt lat="42.026634" lon="1.4021593">
        <time>2022-07-08T14:18:41Z</time>
      </trkpt>
      <trkpt lat="42.02665" lon="1.402237">
        <time>2022-07-08T14:18:43Z</time>
      </trkpt>
      <trkpt lat="42.02666" lon="1.4023134">
        <time>2022-07-08T14:18:45Z</time>
      </trkpt>
      <trkpt lat="42.026672" lon="1.402391">
        <time>2022-07-08T14:18:47Z</time>
      </trkpt>
      <trkpt lat="42.02668" lon="1.4024713">
        <time>2022-07-08T14:18:49Z</time>
      </trkpt>
      <trkpt lat="42.026684" lon="1.4025537">
        <time>2022-07-08T14:18:51Z</time>
      </trkpt>
      <trkpt lat="42.02668" lon="1.4026363">
        <time>2022-07-08T14:18:53Z</time>
      </trkpt>
      <trkpt lat="42.02668" lon="1.402722">
        <time>2022-07-08T14:18:55Z</time>
      </trkpt>
      <trkpt lat="42.026672" lon="1.402851">
        <time>2022-07-08T14:18:58Z</time>
      </trkpt>
      <trkpt lat="42.02666" lon="1.4029336">
        <time>2022-07-08T14:19:00Z</time>
      </trkpt>
      <trkpt lat="42.026646" lon="1.4030219">
        <time>2022-07-08T14:19:02Z</time>
      </trkpt>
      <trkpt lat="42.02663" lon="1.403111">
        <time>2022-07-08T14:19:04Z</time>
      </trkpt>
      <trkpt lat="42.026615" lon="1.4031973">
        <time>2022-07-08T14:19:06Z</time>
      </trkpt>
      <trkpt lat="42.0266" lon="1.4032856">
        <time>2022-07-08T14:19:08Z</time>
      </trkpt>
      <trkpt lat="42.02659" lon="1.4033716">
        <time>2022-07-08T14:19:10Z</time>
      </trkpt>
      <trkpt lat="42.026573" lon="1.4034582">
        <time>2022-07-08T14:19:12Z</time>
      </trkpt>
      <trkpt lat="42.026554" lon="1.4035423">
        <time>2022-07-08T14:19:14Z</time>
      </trkpt>
      <trkpt lat="42.02654" lon="1.4036256">
        <time>2022-07-08T14:19:16Z</time>
      </trkpt>
      <trkpt lat="42.026524" lon="1.4037069">
        <time>2022-07-08T14:19:18Z</time>
      </trkpt>
      <trkpt lat="42.026512" lon="1.403785">
        <time>2022-07-08T14:19:20Z</time>
      </trkpt>
      <trkpt lat="42.026497" lon="1.4038529">
        <time>2022-07-08T14:19:22Z</time>
      </trkpt>
      <trkpt lat="42.02648" lon="1.403947">
        <time>2022-07-08T14:19:25Z</time>
      </trkpt>
      <trkpt lat="42.026463" lon="1.40405">
        <time>2022-07-08T14:19:28Z</time>
      </trkpt>
      <trkpt lat="42.02645" lon="1.4041142">
        <time>2022-07-08T14:19:30Z</time>
      </trkpt>
      <trkpt lat="42.02644" lon="1.4042093">
        <time>2022-07-08T14:19:33Z</time>
      </trkpt>
      <trkpt lat="42.02643" lon="1.4043013">
        <time>2022-07-08T14:19:36Z</time>
      </trkpt>
      <trkpt lat="42.026413" lon="1.4043993">
        <time>2022-07-08T14:19:39Z</time>
      </trkpt>
      <trkpt lat="42.0264" lon="1.4044963">
        <time>2022-07-08T14:19:42Z</time>
      </trkpt>
      <trkpt lat="42.02639" lon="1.4045619">
        <time>2022-07-08T14:19:44Z</time>
      </trkpt>
      <trkpt lat="42.02637" lon="1.4046596">
        <time>2022-07-08T14:19:47Z</time>
      </trkpt>
      <trkpt lat="42.02636" lon="1.4047236">
        <time>2022-07-08T14:19:49Z</time>
      </trkpt>
      <trkpt lat="42.02635" lon="1.4048163">
        <time>2022-07-08T14:19:52Z</time>
      </trkpt>
      <trkpt lat="42.026333" lon="1.4049122">
        <time>2022-07-08T14:19:55Z</time>
      </trkpt>
      <trkpt lat="42.026325" lon="1.4049779">
        <time>2022-07-08T14:19:57Z</time>
      </trkpt>
      <trkpt lat="42.026318" lon="1.4050469">
        <time>2022-07-08T14:19:59Z</time>
      </trkpt>
      <trkpt lat="42.026306" lon="1.4051546">
        <time>2022-07-08T14:20:02Z</time>
      </trkpt>
      <trkpt lat="42.026302" lon="1.4052225">
        <time>2022-07-08T14:20:04Z</time>
      </trkpt>
      <trkpt lat="42.026295" lon="1.4052839">
        <time>2022-07-08T14:20:06Z</time>
      </trkpt>
      <trkpt lat="42.026287" lon="1.4053673">
        <time>2022-07-08T14:20:09Z</time>
      </trkpt>
      <trkpt lat="42.026287" lon="1.4054502">
        <time>2022-07-08T14:20:12Z</time>
      </trkpt>
      <trkpt lat="42.02629" lon="1.4055336">
        <time>2022-07-08T14:20:15Z</time>
      </trkpt>
      <trkpt lat="42.026295" lon="1.4056146">
        <time>2022-07-08T14:20:18Z</time>
      </trkpt>
      <trkpt lat="42.026287" lon="1.4056939">
        <time>2022-07-08T14:20:21Z</time>
      </trkpt>
      <trkpt lat="42.026287" lon="1.40577">
        <time>2022-07-08T14:20:24Z</time>
      </trkpt>
      <trkpt lat="42.02629" lon="1.4058502">
        <time>2022-07-08T14:20:27Z</time>
      </trkpt>
      <trkpt lat="42.026295" lon="1.4059249">
        <time>2022-07-08T14:20:30Z</time>
      </trkpt>
      <trkpt lat="42.0263" lon="1.4060032">
        <time>2022-07-08T14:20:33Z</time>
      </trkpt>
      <trkpt lat="42.0263" lon="1.4060788">
        <time>2022-07-08T14:20:36Z</time>
      </trkpt>
      <trkpt lat="42.026302" lon="1.4061515">
        <time>2022-07-08T14:20:39Z</time>
      </trkpt>
      <trkpt lat="42.026302" lon="1.4062202">
        <time>2022-07-08T14:20:42Z</time>
      </trkpt>
      <trkpt lat="42.026302" lon="1.4063092">
        <time>2022-07-08T14:20:46Z</time>
      </trkpt>
      <trkpt lat="42.026306" lon="1.4063742">
        <time>2022-07-08T14:20:49Z</time>
      </trkpt>
      <trkpt lat="42.02631" lon="1.4064639">
        <time>2022-07-08T14:20:53Z</time>
      </trkpt>
      <trkpt lat="42.026306" lon="1.4065329">
        <time>2022-07-08T14:20:56Z</time>
      </trkpt>
      <trkpt lat="42.02631" lon="1.4066008">
        <time>2022-07-08T14:20:59Z</time>
      </trkpt>
      <trkpt lat="42.02632" lon="1.4066885">
        <time>2022-07-08T14:21:03Z</time>
      </trkpt>
      <trkpt lat="42.026333" lon="1.4067736">
        <time>2022-07-08T14:21:07Z</time>
      </trkpt>
      <trkpt lat="42.02634" lon="1.4068415">
        <time>2022-07-08T14:21:10Z</time>
      </trkpt>
      <trkpt lat="42.026356" lon="1.4069122">
        <time>2022-07-08T14:21:13Z</time>
      </trkpt>
      <trkpt lat="42.02637" lon="1.4069828">
        <time>2022-07-08T14:21:16Z</time>
      </trkpt>
      <trkpt lat="42.026382" lon="1.4070522">
        <time>2022-07-08T14:21:19Z</time>
      </trkpt>
      <trkpt lat="42.026398" lon="1.4071192">
        <time>2022-07-08T14:21:22Z</time>
      </trkpt>
      <trkpt lat="42.02642" lon="1.4071882">
        <time>2022-07-08T14:21:25Z</time>
      </trkpt>
      <trkpt lat="42.02644" lon="1.4072754">
        <time>2022-07-08T14:21:29Z</time>
      </trkpt>
      <trkpt lat="42.02646" lon="1.4073411">
        <time>2022-07-08T14:21:32Z</time>
      </trkpt>
      <trkpt lat="42.026474" lon="1.4074072">
        <time>2022-07-08T14:21:35Z</time>
      </trkpt>
      <trkpt lat="42.02649" lon="1.4074779">
        <time>2022-07-08T14:21:38Z</time>
      </trkpt>
      <trkpt lat="42.0265" lon="1.4075499">
        <time>2022-07-08T14:21:41Z</time>
      </trkpt>
      <trkpt lat="42.026512" lon="1.4076241">
        <time>2022-07-08T14:21:44Z</time>
      </trkpt>
      <trkpt lat="42.02653" lon="1.4076948">
        <time>2022-07-08T14:21:47Z</time>
      </trkpt>
      <trkpt lat="42.02655" lon="1.4077641">
        <time>2022-07-08T14:21:50Z</time>
      </trkpt>
      <trkpt lat="42.02657" lon="1.4078331">
        <time>2022-07-08T14:21:53Z</time>
      </trkpt>
      <trkpt lat="42.026585" lon="1.4079014">
        <time>2022-07-08T14:21:56Z</time>
      </trkpt>
      <trkpt lat="42.026592" lon="1.4079931">
        <time>2022-07-08T14:22:00Z</time>
      </trkpt>
      <trkpt lat="42.026592" lon="1.4080584">
        <time>2022-07-08T14:22:03Z</time>
      </trkpt>
      <trkpt lat="42.026592" lon="1.4081461">
        <time>2022-07-08T14:22:07Z</time>
      </trkpt>
      <trkpt lat="42.026592" lon="1.4082295">
        <time>2022-07-08T14:22:11Z</time>
      </trkpt>
      <trkpt lat="42.026577" lon="1.4083318">
        <time>2022-07-08T14:22:16Z</time>
      </trkpt>
      <trkpt lat="42.02656" lon="1.4084151">
        <time>2022-07-08T14:22:20Z</time>
      </trkpt>
      <trkpt lat="42.026543" lon="1.4084958">
        <time>2022-07-08T14:22:24Z</time>
      </trkpt>
      <trkpt lat="42.02652" lon="1.4085797">
        <time>2022-07-08T14:22:28Z</time>
      </trkpt>
      <trkpt lat="42.02649" lon="1.4086561">
        <time>2022-07-08T14:22:32Z</time>
      </trkpt>
      <trkpt lat="42.02647" lon="1.4087315">
        <time>2022-07-08T14:22:36Z</time>
      </trkpt>
      <trkpt lat="42.02645" lon="1.4088068">
        <time>2022-07-08T14:22:40Z</time>
      </trkpt>
      <trkpt lat="42.026424" lon="1.4088734">
        <time>2022-07-08T14:22:44Z</time>
      </trkpt>
      <trkpt lat="42.026398" lon="1.4089324">
        <time>2022-07-08T14:22:48Z</time>
      </trkpt>
      <trkpt lat="42.02634" lon="1.4089477">
        <time>2022-07-08T14:28:11Z</time>
      </trkpt>
      <trkpt lat="42.02631" lon="1.4090188">
        <time>2022-07-08T14:28:14Z</time>
      </trkpt>
      <trkpt lat="42.02627" lon="1.4090848">
        <time>2022-07-08T14:28:17Z</time>
      </trkpt>
      <trkpt lat="42.02625" lon="1.4091481">
        <time>2022-07-08T14:28:20Z</time>
      </trkpt>
      <trkpt lat="42.026226" lon="1.4092017">
        <time>2022-07-08T14:28:23Z</time>
      </trkpt>
      <trkpt lat="42.026196" lon="1.409268">
        <time>2022-07-08T14:28:27Z</time>
      </trkpt>
      <trkpt lat="42.02616" lon="1.4093177">
        <time>2022-07-08T14:28:30Z</time>
      </trkpt>
      <trkpt lat="42.02612" lon="1.409381">
        <time>2022-07-08T14:28:34Z</time>
      </trkpt>
      <trkpt lat="42.026077" lon="1.4094467">
        <time>2022-07-08T14:28:38Z</time>
      </trkpt>
      <trkpt lat="42.02604" lon="1.409513">
        <time>2022-07-08T14:28:42Z</time>
      </trkpt>
      <trkpt lat="42.026" lon="1.4095833">
        <time>2022-07-08T14:28:46Z</time>
      </trkpt>
      <trkpt lat="42.025955" lon="1.4096514">
        <time>2022-07-08T14:28:50Z</time>
      </trkpt>
      <trkpt lat="42.025925" lon="1.4097041">
        <time>2022-07-08T14:28:53Z</time>
      </trkpt>
      <trkpt lat="42.02589" lon="1.409755">
        <time>2022-07-08T14:28:56Z</time>
      </trkpt>
      <trkpt lat="42.02585" lon="1.4098203">
        <time>2022-07-08T14:29:00Z</time>
      </trkpt>
      <trkpt lat="42.025806" lon="1.4098787">
        <time>2022-07-08T14:29:04Z</time>
      </trkpt>
      <trkpt lat="42.025764" lon="1.40993">
        <time>2022-07-08T14:29:08Z</time>
      </trkpt>
      <trkpt lat="42.025723" lon="1.4099886">
        <time>2022-07-08T14:29:12Z</time>
      </trkpt>
      <trkpt lat="42.02568" lon="1.4100417">
        <time>2022-07-08T14:29:16Z</time>
      </trkpt>
      <trkpt lat="42.025646" lon="1.410104">
        <time>2022-07-08T14:29:20Z</time>
      </trkpt>
      <trkpt lat="42.025608" lon="1.4101664">
        <time>2022-07-08T14:29:24Z</time>
      </trkpt>
      <trkpt lat="42.025566" lon="1.4102254">
        <time>2022-07-08T14:29:28Z</time>
      </trkpt>
      <trkpt lat="42.025528" lon="1.410286">
        <time>2022-07-08T14:29:32Z</time>
      </trkpt>
      <trkpt lat="42.02549" lon="1.4103416">
        <time>2022-07-08T14:29:36Z</time>
      </trkpt>
      <trkpt lat="42.025455" lon="1.410399">
        <time>2022-07-08T14:29:40Z</time>
      </trkpt>
      <trkpt lat="42.02543" lon="1.4104593">
        <time>2022-07-08T14:29:44Z</time>
      </trkpt>
      <trkpt lat="42.025394" lon="1.410532">
        <time>2022-07-08T14:29:49Z</time>
      </trkpt>
      <trkpt lat="42.02536" lon="1.4105966">
        <time>2022-07-08T14:29:54Z</time>
      </trkpt>
      <trkpt lat="42.025337" lon="1.4106576">
        <time>2022-07-08T14:29:58Z</time>
      </trkpt>
      <trkpt lat="42.025303" lon="1.41072">
        <time>2022-07-08T14:30:02Z</time>
      </trkpt>
      <trkpt lat="42.025265" lon="1.4107736">
        <time>2022-07-08T14:30:06Z</time>
      </trkpt>
      <trkpt lat="42.025238" lon="1.4108343">
        <time>2022-07-08T14:30:10Z</time>
      </trkpt>
      <trkpt lat="42.025215" lon="1.4108906">
        <time>2022-07-08T14:30:14Z</time>
      </trkpt>
      <trkpt lat="42.02518" lon="1.4109496">
        <time>2022-07-08T14:30:18Z</time>
      </trkpt>
      <trkpt lat="42.025154" lon="1.4110203">
        <time>2022-07-08T14:30:22Z</time>
      </trkpt>
      <trkpt lat="42.025116" lon="1.4110903">
        <time>2022-07-08T14:30:26Z</time>
      </trkpt>
      <trkpt lat="42.02509" lon="1.4111586">
        <time>2022-07-08T14:30:31Z</time>
      </trkpt>
      <trkpt lat="42.025063" lon="1.4112126">
        <time>2022-07-08T14:30:34Z</time>
      </trkpt>
      <trkpt lat="42.025036" lon="1.4112746">
        <time>2022-07-08T14:30:38Z</time>
      </trkpt>
      <trkpt lat="42.02501" lon="1.4113383">
        <time>2022-07-08T14:30:42Z</time>
      </trkpt>
      <trkpt lat="42.024982" lon="1.4113992">
        <time>2022-07-08T14:30:46Z</time>
      </trkpt>
      <trkpt lat="42.02495" lon="1.4114599">
        <time>2022-07-08T14:30:50Z</time>
      </trkpt>
      <trkpt lat="42.02491" lon="1.4115249">
        <time>2022-07-08T14:30:54Z</time>
      </trkpt>
      <trkpt lat="42.024876" lon="1.4115893">
        <time>2022-07-08T14:30:58Z</time>
      </trkpt>
      <trkpt lat="42.02484" lon="1.4116516">
        <time>2022-07-08T14:31:02Z</time>
      </trkpt>
      <trkpt lat="42.024815" lon="1.4117199">
        <time>2022-07-08T14:31:06Z</time>
      </trkpt>
      <trkpt lat="42.024784" lon="1.4117815">
        <time>2022-07-08T14:31:10Z</time>
      </trkpt>
      <trkpt lat="42.024754" lon="1.4118469">
        <time>2022-07-08T14:31:14Z</time>
      </trkpt>
      <trkpt lat="42.024727" lon="1.4119142">
        <time>2022-07-08T14:31:18Z</time>
      </trkpt>
      <trkpt lat="42.0247" lon="1.4119803">
        <time>2022-07-08T14:31:22Z</time>
      </trkpt>
      <trkpt lat="42.024677" lon="1.4120443">
        <time>2022-07-08T14:31:26Z</time>
      </trkpt>
      <trkpt lat="42.02465" lon="1.4121076">
        <time>2022-07-08T14:31:30Z</time>
      </trkpt>
      <trkpt lat="42.024624" lon="1.4121722">
        <time>2022-07-08T14:31:34Z</time>
      </trkpt>
      <trkpt lat="42.024597" lon="1.4122375">
        <time>2022-07-08T14:31:38Z</time>
      </trkpt>
      <trkpt lat="42.02458" lon="1.4123026">
        <time>2022-07-08T14:31:42Z</time>
      </trkpt>
      <trkpt lat="42.024555" lon="1.4123672">
        <time>2022-07-08T14:31:46Z</time>
      </trkpt>
      <trkpt lat="42.02453" lon="1.4124333">
        <time>2022-07-08T14:31:50Z</time>
      </trkpt>
      <trkpt lat="42.024498" lon="1.4125029">
        <time>2022-07-08T14:31:54Z</time>
      </trkpt>
      <trkpt lat="42.024464" lon="1.4125652">
        <time>2022-07-08T14:31:58Z</time>
      </trkpt>
      <trkpt lat="42.02443" lon="1.4126229">
        <time>2022-07-08T14:32:02Z</time>
      </trkpt>
      <trkpt lat="42.02439" lon="1.4126792">
        <time>2022-07-08T14:32:06Z</time>
      </trkpt>
      <trkpt lat="42.024357" lon="1.4127319">
        <time>2022-07-08T14:32:10Z</time>
      </trkpt>
      <trkpt lat="42.024315" lon="1.4127815">
        <time>2022-07-08T14:32:14Z</time>
      </trkpt>
      <trkpt lat="42.024277" lon="1.4128238">
        <time>2022-07-08T14:32:18Z</time>
      </trkpt>
      <trkpt lat="42.02423" lon="1.4128692">
        <time>2022-07-08T14:32:22Z</time>
      </trkpt>
      <trkpt lat="42.024178" lon="1.4129119">
        <time>2022-07-08T14:32:26Z</time>
      </trkpt>
      <trkpt lat="42.02413" lon="1.4129481">
        <time>2022-07-08T14:32:30Z</time>
      </trkpt>
      <trkpt lat="42.024075" lon="1.4129921">
        <time>2022-07-08T14:32:34Z</time>
      </trkpt>
      <trkpt lat="42.024033" lon="1.4130259">
        <time>2022-07-08T14:32:37Z</time>
      </trkpt>
      <trkpt lat="42.02399" lon="1.4130652">
        <time>2022-07-08T14:32:41Z</time>
      </trkpt>
      <trkpt lat="42.023937" lon="1.4130992">
        <time>2022-07-08T14:32:45Z</time>
      </trkpt>
      <trkpt lat="42.02388" lon="1.4131342">
        <time>2022-07-08T14:32:49Z</time>
      </trkpt>
      <trkpt lat="42.02382" lon="1.4131705">
        <time>2022-07-08T14:32:53Z</time>
      </trkpt>
      <trkpt lat="42.023777" lon="1.4132005">
        <time>2022-07-08T14:32:56Z</time>
      </trkpt>
      <trkpt lat="42.023727" lon="1.4132411">
        <time>2022-07-08T14:33:00Z</time>
      </trkpt>
      <trkpt lat="42.023685" lon="1.4132844">
        <time>2022-07-08T14:33:04Z</time>
      </trkpt>
      <trkpt lat="42.02364" lon="1.4133295">
        <time>2022-07-08T14:33:08Z</time>
      </trkpt>
      <trkpt lat="42.02359" lon="1.4133695">
        <time>2022-07-08T14:33:12Z</time>
      </trkpt>
      <trkpt lat="42.02354" lon="1.4134104">
        <time>2022-07-08T14:33:16Z</time>
      </trkpt>
      <trkpt lat="42.023495" lon="1.4134635">
        <time>2022-07-08T14:33:20Z</time>
      </trkpt>
      <trkpt lat="42.02345" lon="1.4135178">
        <time>2022-07-08T14:33:24Z</time>
      </trkpt>
      <trkpt lat="42.02341" lon="1.4135722">
        <time>2022-07-08T14:33:28Z</time>
      </trkpt>
      <trkpt lat="42.023376" lon="1.4136314">
        <time>2022-07-08T14:33:32Z</time>
      </trkpt>
      <trkpt lat="42.023346" lon="1.4136921">
        <time>2022-07-08T14:33:36Z</time>
      </trkpt>
      <trkpt lat="42.023308" lon="1.4137545">
        <time>2022-07-08T14:33:40Z</time>
      </trkpt>
      <trkpt lat="42.02327" lon="1.4138144">
        <time>2022-07-08T14:33:44Z</time>
      </trkpt>
      <trkpt lat="42.02324" lon="1.4138697">
        <time>2022-07-08T14:33:48Z</time>
      </trkpt>
      <trkpt lat="42.023197" lon="1.4139291">
        <time>2022-07-08T14:33:52Z</time>
      </trkpt>
      <trkpt lat="42.023155" lon="1.4139818">
        <time>2022-07-08T14:33:56Z</time>
      </trkpt>
      <trkpt lat="42.02312" lon="1.4140388">
        <time>2022-07-08T14:34:00Z</time>
      </trkpt>
      <trkpt lat="42.023087" lon="1.4140974">
        <time>2022-07-08T14:34:04Z</time>
      </trkpt>
      <trkpt lat="42.023045" lon="1.4141577">
        <time>2022-07-08T14:34:08Z</time>
      </trkpt>
      <trkpt lat="42.023006" lon="1.4142171">
        <time>2022-07-08T14:34:12Z</time>
      </trkpt>
      <trkpt lat="42.022964" lon="1.4142741">
        <time>2022-07-08T14:34:16Z</time>
      </trkpt>
      <trkpt lat="42.022926" lon="1.4143322">
        <time>2022-07-08T14:34:20Z</time>
      </trkpt>
      <trkpt lat="42.022896" lon="1.4143927">
        <time>2022-07-08T14:34:24Z</time>
      </trkpt>
      <trkpt lat="42.022854" lon="1.4144531">
        <time>2022-07-08T14:34:28Z</time>
      </trkpt>
      <trkpt lat="42.022816" lon="1.4145051">
        <time>2022-07-08T14:34:32Z</time>
      </trkpt>
      <trkpt lat="42.02278" lon="1.4145614">
        <time>2022-07-08T14:34:36Z</time>
      </trkpt>
      <trkpt lat="42.022747" lon="1.41462">
        <time>2022-07-08T14:34:40Z</time>
      </trkpt>
      <trkpt lat="42.02271" lon="1.4146804">
        <time>2022-07-08T14:34:44Z</time>
      </trkpt>
      <trkpt lat="42.022667" lon="1.4147421">
        <time>2022-07-08T14:34:49Z</time>
      </trkpt>
      <trkpt lat="42.022636" lon="1.4147947">
        <time>2022-07-08T14:34:52Z</time>
      </trkpt>
      <trkpt lat="42.0226" lon="1.414854">
        <time>2022-07-08T14:34:56Z</time>
      </trkpt>
      <trkpt lat="42.02256" lon="1.4149138">
        <time>2022-07-08T14:35:00Z</time>
      </trkpt>
      <trkpt lat="42.022526" lon="1.4149771">
        <time>2022-07-08T14:35:04Z</time>
      </trkpt>
      <trkpt lat="42.022488" lon="1.4150391">
        <time>2022-07-08T14:35:08Z</time>
      </trkpt>
      <trkpt lat="42.022453" lon="1.4151001">
        <time>2022-07-08T14:35:12Z</time>
      </trkpt>
      <trkpt lat="42.022423" lon="1.4151623">
        <time>2022-07-08T14:35:16Z</time>
      </trkpt>
      <trkpt lat="42.02239" lon="1.4152291">
        <time>2022-07-08T14:35:20Z</time>
      </trkpt>
      <trkpt lat="42.022358" lon="1.4152983">
        <time>2022-07-08T14:35:24Z</time>
      </trkpt>
      <trkpt lat="42.02233" lon="1.415354">
        <time>2022-07-08T14:35:27Z</time>
      </trkpt>
      <trkpt lat="42.022297" lon="1.415428">
        <time>2022-07-08T14:35:31Z</time>
      </trkpt>
      <trkpt lat="42.022266" lon="1.415498">
        <time>2022-07-08T14:35:35Z</time>
      </trkpt>
      <trkpt lat="42.022236" lon="1.4155644">
        <time>2022-07-08T14:35:39Z</time>
      </trkpt>
      <trkpt lat="42.022217" lon="1.4156407">
        <time>2022-07-08T14:35:43Z</time>
      </trkpt>
      <trkpt lat="42.022194" lon="1.4157237">
        <time>2022-07-08T14:35:47Z</time>
      </trkpt>
      <trkpt lat="42.02217" lon="1.4158096">
        <time>2022-07-08T14:35:51Z</time>
      </trkpt>
      <trkpt lat="42.022156" lon="1.415878">
        <time>2022-07-08T14:35:54Z</time>
      </trkpt>
      <trkpt lat="42.022144" lon="1.415945">
        <time>2022-07-08T14:35:57Z</time>
      </trkpt>
      <trkpt lat="42.022133" lon="1.4160163">
        <time>2022-07-08T14:36:00Z</time>
      </trkpt>
      <trkpt lat="42.02212" lon="1.41609">
        <time>2022-07-08T14:36:03Z</time>
      </trkpt>
      <trkpt lat="42.022114" lon="1.4161644">
        <time>2022-07-08T14:36:06Z</time>
      </trkpt>
      <trkpt lat="42.02211" lon="1.416242">
        <time>2022-07-08T14:36:09Z</time>
      </trkpt>
      <trkpt lat="42.022102" lon="1.4163213">
        <time>2022-07-08T14:36:12Z</time>
      </trkpt>
      <trkpt lat="42.022102" lon="1.4164063">
        <time>2022-07-08T14:36:15Z</time>
      </trkpt>
      <trkpt lat="42.022106" lon="1.4165003">
        <time>2022-07-08T14:36:18Z</time>
      </trkpt>
      <trkpt lat="42.02211" lon="1.416567">
        <time>2022-07-08T14:36:20Z</time>
      </trkpt>
      <trkpt lat="42.022114" lon="1.416669">
        <time>2022-07-08T14:36:23Z</time>
      </trkpt>
      <trkpt lat="42.02212" lon="1.4167377">
        <time>2022-07-08T14:36:25Z</time>
      </trkpt>
      <trkpt lat="42.02213" lon="1.4168056">
        <time>2022-07-08T14:36:27Z</time>
      </trkpt>
      <trkpt lat="42.022144" lon="1.4169086">
        <time>2022-07-08T14:36:30Z</time>
      </trkpt>
      <trkpt lat="42.022156" lon="1.4169756">
        <time>2022-07-08T14:36:32Z</time>
      </trkpt>
      <trkpt lat="42.022163" lon="1.4170439">
        <time>2022-07-08T14:36:34Z</time>
      </trkpt>
      <trkpt lat="42.02218" lon="1.4171436">
        <time>2022-07-08T14:36:37Z</time>
      </trkpt>
      <trkpt lat="42.02219" lon="1.4172096">
        <time>2022-07-08T14:36:39Z</time>
      </trkpt>
      <trkpt lat="42.02221" lon="1.417311">
        <time>2022-07-08T14:36:42Z</time>
      </trkpt>
      <trkpt lat="42.02222" lon="1.417377">
        <time>2022-07-08T14:36:44Z</time>
      </trkpt>
      <trkpt lat="42.022232" lon="1.4174436">
        <time>2022-07-08T14:36:46Z</time>
      </trkpt>
      <trkpt lat="42.022243" lon="1.417514">
        <time>2022-07-08T14:36:48Z</time>
      </trkpt>
      <trkpt lat="42.02226" lon="1.4176183">
        <time>2022-07-08T14:36:51Z</time>
      </trkpt>
      <trkpt lat="42.022266" lon="1.4176879">
        <time>2022-07-08T14:36:53Z</time>
      </trkpt>
      <trkpt lat="42.022278" lon="1.4177582">
        <time>2022-07-08T14:36:55Z</time>
      </trkpt>
      <trkpt lat="42.022285" lon="1.4178286">
        <time>2022-07-08T14:36:57Z</time>
      </trkpt>
      <trkpt lat="42.022293" lon="1.4179006">
        <time>2022-07-08T14:36:59Z</time>
      </trkpt>
      <trkpt lat="42.022297" lon="1.417969">
        <time>2022-07-08T14:37:01Z</time>
      </trkpt>
      <trkpt lat="42.022297" lon="1.4180396">
        <time>2022-07-08T14:37:03Z</time>
      </trkpt>
      <trkpt lat="42.0223" lon="1.4181423">
        <time>2022-07-08T14:37:06Z</time>
      </trkpt>
      <trkpt lat="42.022293" lon="1.418209">
        <time>2022-07-08T14:37:08Z</time>
      </trkpt>
      <trkpt lat="42.02228" lon="1.4183079">
        <time>2022-07-08T14:37:11Z</time>
      </trkpt>
      <trkpt lat="42.022263" lon="1.4183973">
        <time>2022-07-08T14:37:14Z</time>
      </trkpt>
      <trkpt lat="42.02224" lon="1.4184796">
        <time>2022-07-08T14:37:17Z</time>
      </trkpt>
      <trkpt lat="42.022213" lon="1.4185579">
        <time>2022-07-08T14:37:20Z</time>
      </trkpt>
      <trkpt lat="42.022186" lon="1.4186332">
        <time>2022-07-08T14:37:23Z</time>
      </trkpt>
      <trkpt lat="42.022156" lon="1.4187046">
        <time>2022-07-08T14:37:26Z</time>
      </trkpt>
      <trkpt lat="42.02212" lon="1.4187676">
        <time>2022-07-08T14:37:29Z</time>
      </trkpt>
      <trkpt lat="42.02209" lon="1.4188225">
        <time>2022-07-08T14:37:32Z</time>
      </trkpt>
      <trkpt lat="42.022053" lon="1.4188749">
        <time>2022-07-08T14:37:35Z</time>
      </trkpt>
      <trkpt lat="42.02201" lon="1.4189166">
        <time>2022-07-08T14:37:38Z</time>
      </trkpt>
      <trkpt lat="42.022045" lon="1.4188509">
        <time>2022-07-08T14:43:45Z</time>
      </trkpt>
      <trkpt lat="42.022083" lon="1.4187902">
        <time>2022-07-08T14:43:49Z</time>
      </trkpt>
      <trkpt lat="42.02212" lon="1.4187346">
        <time>2022-07-08T14:43:54Z</time>
      </trkpt>
      <trkpt lat="42.0221" lon="1.418819">
        <time>2022-07-08T14:44:17Z</time>
      </trkpt>
      <trkpt lat="42.022064" lon="1.4188756">
        <time>2022-07-08T14:44:23Z</time>
      </trkpt>
      <trkpt lat="42.02201" lon="1.4189166">
        <time>2022-07-08T14:44:28Z</time>
      </trkpt>
      <trkpt lat="42.021805" lon="1.4191025">
        <time>2022-07-08T14:51:26Z</time>
      </trkpt>
      <trkpt lat="42.021748" lon="1.419146">
        <time>2022-07-08T14:51:27Z</time>
      </trkpt>
      <trkpt lat="42.021683" lon="1.4191899">
        <time>2022-07-08T14:51:28Z</time>
      </trkpt>
      <trkpt lat="42.021606" lon="1.4192352">
        <time>2022-07-08T14:51:29Z</time>
      </trkpt>
      <trkpt lat="42.021523" lon="1.4192822">
        <time>2022-07-08T14:51:30Z</time>
      </trkpt>
      <trkpt lat="42.02144" lon="1.4193366">
        <time>2022-07-08T14:51:31Z</time>
      </trkpt>
      <trkpt lat="42.021355" lon="1.4193985">
        <time>2022-07-08T14:51:32Z</time>
      </trkpt>
      <trkpt lat="42.021275" lon="1.4194726">
        <time>2022-07-08T14:51:33Z</time>
      </trkpt>
      <trkpt lat="42.021206" lon="1.4195582">
        <time>2022-07-08T14:51:34Z</time>
      </trkpt>
      <trkpt lat="42.021145" lon="1.4196546">
        <time>2022-07-08T14:51:35Z</time>
      </trkpt>
      <trkpt lat="42.021095" lon="1.4197623">
        <time>2022-07-08T14:51:36Z</time>
      </trkpt>
      <trkpt lat="42.021065" lon="1.4198818">
        <time>2022-07-08T14:51:37Z</time>
      </trkpt>
      <trkpt lat="42.021046" lon="1.4200122">
        <time>2022-07-08T14:51:38Z</time>
      </trkpt>
      <trkpt lat="42.021034" lon="1.4201509">
        <time>2022-07-08T14:51:39Z</time>
      </trkpt>
      <trkpt lat="42.021034" lon="1.4202952">
        <time>2022-07-08T14:51:40Z</time>
      </trkpt>
      <trkpt lat="42.021038" lon="1.4204452">
        <time>2022-07-08T14:51:41Z</time>
      </trkpt>
      <trkpt lat="42.02104" lon="1.4206022">
        <time>2022-07-08T14:51:42Z</time>
      </trkpt>
      <trkpt lat="42.02105" lon="1.4207755">
        <time>2022-07-08T14:51:43Z</time>
      </trkpt>
      <trkpt lat="42.021053" lon="1.4209515">
        <time>2022-07-08T14:51:44Z</time>
      </trkpt>
      <trkpt lat="42.021053" lon="1.4211322">
        <time>2022-07-08T14:51:45Z</time>
      </trkpt>
      <trkpt lat="42.021046" lon="1.4213032">
        <time>2022-07-08T14:51:46Z</time>
      </trkpt>
      <trkpt lat="42.02103" lon="1.4214802">
        <time>2022-07-08T14:51:47Z</time>
      </trkpt>
      <trkpt lat="42.021004" lon="1.4216722">
        <time>2022-07-08T14:51:48Z</time>
      </trkpt>
      <trkpt lat="42.02097" lon="1.4218612">
        <time>2022-07-08T14:51:49Z</time>
      </trkpt>
      <trkpt lat="42.020927" lon="1.4220492">
        <time>2022-07-08T14:51:50Z</time>
      </trkpt>
      <trkpt lat="42.02088" lon="1.4222349">
        <time>2022-07-08T14:51:51Z</time>
      </trkpt>
      <trkpt lat="42.020832" lon="1.4224095">
        <time>2022-07-08T14:51:52Z</time>
      </trkpt>
      <trkpt lat="42.02078" lon="1.4225935">
        <time>2022-07-08T14:51:53Z</time>
      </trkpt>
      <trkpt lat="42.020718" lon="1.4228002">
        <time>2022-07-08T14:51:54Z</time>
      </trkpt>
      <trkpt lat="42.02066" lon="1.4230082">
        <time>2022-07-08T14:51:55Z</time>
      </trkpt>
      <trkpt lat="42.02059" lon="1.4232101">
        <time>2022-07-08T14:51:56Z</time>
      </trkpt>
      <trkpt lat="42.020515" lon="1.4234048">
        <time>2022-07-08T14:51:57Z</time>
      </trkpt>
      <trkpt lat="42.02043" lon="1.4235831">
        <time>2022-07-08T14:51:58Z</time>
      </trkpt>
      <trkpt lat="42.020317" lon="1.4237502">
        <time>2022-07-08T14:51:59Z</time>
      </trkpt>
      <trkpt lat="42.0202" lon="1.4239122">
        <time>2022-07-08T14:52:00Z</time>
      </trkpt>
      <trkpt lat="42.02008" lon="1.4240675">
        <time>2022-07-08T14:52:01Z</time>
      </trkpt>
      <trkpt lat="42.019955" lon="1.4241995">
        <time>2022-07-08T14:52:02Z</time>
      </trkpt>
      <trkpt lat="42.01982" lon="1.4243175">
        <time>2022-07-08T14:52:03Z</time>
      </trkpt>
      <trkpt lat="42.019688" lon="1.4244305">
        <time>2022-07-08T14:52:04Z</time>
      </trkpt>
      <trkpt lat="42.01955" lon="1.4245381">
        <time>2022-07-08T14:52:05Z</time>
      </trkpt>
      <trkpt lat="42.019417" lon="1.4246435">
        <time>2022-07-08T14:52:06Z</time>
      </trkpt>
      <trkpt lat="42.01934" lon="1.4247562">
        <time>2022-07-08T14:52:07Z</time>
      </trkpt>
      <trkpt lat="42.01928" lon="1.4248844">
        <time>2022-07-08T14:52:08Z</time>
      </trkpt>
      <trkpt lat="42.019238" lon="1.4250281">
        <time>2022-07-08T14:52:09Z</time>
      </trkpt>
      <trkpt lat="42.0192" lon="1.4251704">
        <time>2022-07-08T14:52:10Z</time>
      </trkpt>
      <trkpt lat="42.01916" lon="1.4253088">
        <time>2022-07-08T14:52:11Z</time>
      </trkpt>
      <trkpt lat="42.019123" lon="1.4254445">
        <time>2022-07-08T14:52:12Z</time>
      </trkpt>
      <trkpt lat="42.01908" lon="1.425577">
        <time>2022-07-08T14:52:13Z</time>
      </trkpt>
      <trkpt lat="42.019043" lon="1.4257051">
        <time>2022-07-08T14:52:14Z</time>
      </trkpt>
      <trkpt lat="42.01901" lon="1.4258288">
        <time>2022-07-08T14:52:15Z</time>
      </trkpt>
      <trkpt lat="42.01897" lon="1.4259491">
        <time>2022-07-08T14:52:16Z</time>
      </trkpt>
      <trkpt lat="42.018944" lon="1.4260647">
        <time>2022-07-08T14:52:17Z</time>
      </trkpt>
      <trkpt lat="42.018913" lon="1.4261907">
        <time>2022-07-08T14:52:18Z</time>
      </trkpt>
      <trkpt lat="42.018887" lon="1.4263095">
        <time>2022-07-08T14:52:19Z</time>
      </trkpt>
      <trkpt lat="42.01885" lon="1.4264817">
        <time>2022-07-08T14:52:21Z</time>
      </trkpt>
      <trkpt lat="42.01852" lon="1.427939">
        <time>2022-07-08T14:52:28Z</time>
      </trkpt>
      <trkpt lat="42.01814" lon="1.4293774">
        <time>2022-07-08T14:52:37Z</time>
      </trkpt>
      <trkpt lat="42.01808" lon="1.4296204">
        <time>2022-07-08T14:52:38Z</time>
      </trkpt>
      <trkpt lat="42.018032" lon="1.4298325">
        <time>2022-07-08T14:52:39Z</time>
      </trkpt>
      <trkpt lat="42.01799" lon="1.4300017">
        <time>2022-07-08T14:52:40Z</time>
      </trkpt>
      <trkpt lat="42.01795" lon="1.4301714">
        <time>2022-07-08T14:52:41Z</time>
      </trkpt>
      <trkpt lat="42.01787" lon="1.4303377">
        <time>2022-07-08T14:52:42Z</time>
      </trkpt>
      <trkpt lat="42.01777" lon="1.4305164">
        <time>2022-07-08T14:52:43Z</time>
      </trkpt>
      <trkpt lat="42.016705" lon="1.4318957">
        <time>2022-07-08T14:52:50Z</time>
      </trkpt>
      <trkpt lat="42.016666" lon="1.4319267">
        <time>2022-07-08T14:52:51Z</time>
      </trkpt>
      <trkpt lat="42.016495" lon="1.4320397">
        <time>2022-07-08T14:52:53Z</time>
      </trkpt>
      <trkpt lat="42.01594" lon="1.4328687">
        <time>2022-07-08T14:53:00Z</time>
      </trkpt>
      <trkpt lat="42.01582" lon="1.4331278">
        <time>2022-07-08T14:53:01Z</time>
      </trkpt>
      <trkpt lat="42.015728" lon="1.433369">
        <time>2022-07-08T14:53:02Z</time>
      </trkpt>
      <trkpt lat="42.015755" lon="1.4336333">
        <time>2022-07-08T14:53:03Z</time>
      </trkpt>
      <trkpt lat="42.015778" lon="1.4338961">
        <time>2022-07-08T14:53:04Z</time>
      </trkpt>
      <trkpt lat="42.015812" lon="1.4341657">
        <time>2022-07-08T14:53:05Z</time>
      </trkpt>
      <trkpt lat="42.015854" lon="1.4344296">
        <time>2022-07-08T14:53:06Z</time>
      </trkpt>
      <trkpt lat="42.01589" lon="1.4346813">
        <time>2022-07-08T14:53:07Z</time>
      </trkpt>
      <trkpt lat="42.015926" lon="1.4349227">
        <time>2022-07-08T14:53:08Z</time>
      </trkpt>
      <trkpt lat="42.015976" lon="1.4351597">
        <time>2022-07-08T14:53:09Z</time>
      </trkpt>
      <trkpt lat="42.016018" lon="1.435396">
        <time>2022-07-08T14:53:10Z</time>
      </trkpt>
      <trkpt lat="42.01607" lon="1.4356346">
        <time>2022-07-08T14:53:11Z</time>
      </trkpt>
      <trkpt lat="42.016098" lon="1.435892">
        <time>2022-07-08T14:53:12Z</time>
      </trkpt>
      <trkpt lat="42.016117" lon="1.4361477">
        <time>2022-07-08T14:53:13Z</time>
      </trkpt>
      <trkpt lat="42.016132" lon="1.4364007">
        <time>2022-07-08T14:53:14Z</time>
      </trkpt>
      <trkpt lat="42.016144" lon="1.4366586">
        <time>2022-07-08T14:53:15Z</time>
      </trkpt>
      <trkpt lat="42.016144" lon="1.4369186">
        <time>2022-07-08T14:53:16Z</time>
      </trkpt>
      <trkpt lat="42.01614" lon="1.4371827">
        <time>2022-07-08T14:53:17Z</time>
      </trkpt>
      <trkpt lat="42.016136" lon="1.437459">
        <time>2022-07-08T14:53:18Z</time>
      </trkpt>
      <trkpt lat="42.016174" lon="1.4377999">
        <time>2022-07-08T14:53:19Z</time>
      </trkpt>
      <trkpt lat="42.016197" lon="1.4405106">
        <time>2022-07-08T14:53:26Z</time>
      </trkpt>
      <trkpt lat="42.01619" lon="1.4407556">
        <time>2022-07-08T14:53:30Z</time>
      </trkpt>
      <trkpt lat="42.01534" lon="1.443954">
        <time>2022-07-08T14:53:45Z</time>
      </trkpt>
      <trkpt lat="42.01465" lon="1.442719">
        <time>2022-07-08T14:53:51Z</time>
      </trkpt>
      <trkpt lat="42.014538" lon="1.4429193">
        <time>2022-07-08T14:53:53Z</time>
      </trkpt>
      <trkpt lat="42.01444" lon="1.4430916">
        <time>2022-07-08T14:53:54Z</time>
      </trkpt>
      <trkpt lat="42.0147" lon="1.4436506">
        <time>2022-07-08T14:54:02Z</time>
      </trkpt>
      <trkpt lat="42.01478" lon="1.4436966">
        <time>2022-07-08T14:54:03Z</time>
      </trkpt>
      <trkpt lat="42.01484" lon="1.4437716">
        <time>2022-07-08T14:54:04Z</time>
      </trkpt>
      <trkpt lat="42.014885" lon="1.4438506">
        <time>2022-07-08T14:54:05Z</time>
      </trkpt>
      <trkpt lat="42.014927" lon="1.4439527">
        <time>2022-07-08T14:54:06Z</time>
      </trkpt>
      <trkpt lat="42.014965" lon="1.444069">
        <time>2022-07-08T14:54:07Z</time>
      </trkpt>
      <trkpt lat="42.01503" lon="1.4441723">
        <time>2022-07-08T14:54:08Z</time>
      </trkpt>
      <trkpt lat="42.01511" lon="1.4443073">
        <time>2022-07-08T14:54:10Z</time>
      </trkpt>
      <trkpt lat="42.01524" lon="1.4442843">
        <time>2022-07-08T14:54:11Z</time>
      </trkpt>
      <trkpt lat="42.01535" lon="1.444276">
        <time>2022-07-08T14:54:12Z</time>
      </trkpt>
      <trkpt lat="42.01549" lon="1.4442424">
        <time>2022-07-08T14:54:13Z</time>
      </trkpt>
      <trkpt lat="42.01563" lon="1.4442116">
        <time>2022-07-08T14:54:14Z</time>
      </trkpt>
      <trkpt lat="42.015785" lon="1.4442014">
        <time>2022-07-08T14:54:15Z</time>
      </trkpt>
      <trkpt lat="42.015896" lon="1.4442194">
        <time>2022-07-08T14:54:16Z</time>
      </trkpt>
      <trkpt lat="42.01607" lon="1.444276">
        <time>2022-07-08T14:54:17Z</time>
      </trkpt>
      <trkpt lat="42.016216" lon="1.4443473">
        <time>2022-07-08T14:54:18Z</time>
      </trkpt>
      <trkpt lat="42.016422" lon="1.444462">
        <time>2022-07-08T14:54:19Z</time>
      </trkpt>
      <trkpt lat="42.016575" lon="1.4445693">
        <time>2022-07-08T14:54:20Z</time>
      </trkpt>
      <trkpt lat="42.01669" lon="1.4446659">
        <time>2022-07-08T14:54:21Z</time>
      </trkpt>
      <trkpt lat="42.016766" lon="1.4448127">
        <time>2022-07-08T14:54:22Z</time>
      </trkpt>
      <trkpt lat="42.01683" lon="1.4450109">
        <time>2022-07-08T14:54:24Z</time>
      </trkpt>
      <trkpt lat="42.01686" lon="1.4451829">
        <time>2022-07-08T14:54:25Z</time>
      </trkpt>
      <trkpt lat="42.01695" lon="1.4454756">
        <time>2022-07-08T14:54:28Z</time>
      </trkpt>
      <trkpt lat="42.01783" lon="1.4467642">
        <time>2022-07-08T14:54:35Z</time>
      </trkpt>
      <trkpt lat="42.017853" lon="1.4469063">
        <time>2022-07-08T14:54:36Z</time>
      </trkpt>
      <trkpt lat="42.01789" lon="1.4470556">
        <time>2022-07-08T14:54:37Z</time>
      </trkpt>
      <trkpt lat="42.017914" lon="1.44721">
        <time>2022-07-08T14:54:38Z</time>
      </trkpt>
      <trkpt lat="42.01797" lon="1.4474529">
        <time>2022-07-08T14:54:39Z</time>
      </trkpt>
      <trkpt lat="42.018017" lon="1.4477016">
        <time>2022-07-08T14:54:40Z</time>
      </trkpt>
      <trkpt lat="42.01806" lon="1.4479929">
        <time>2022-07-08T14:54:42Z</time>
      </trkpt>
      <trkpt lat="42.018005" lon="1.4482746">
        <time>2022-07-08T14:54:43Z</time>
      </trkpt>
      <trkpt lat="42.01807" lon="1.4486645">
        <time>2022-07-08T14:54:45Z</time>
      </trkpt>
      <trkpt lat="42.017612" lon="1.4507256">
        <time>2022-07-08T14:54:52Z</time>
      </trkpt>
      <trkpt lat="42.01761" lon="1.4507653">
        <time>2022-07-08T14:54:53Z</time>
      </trkpt>
      <trkpt lat="42.017612" lon="1.4509759">
        <time>2022-07-08T14:54:55Z</time>
      </trkpt>
      <trkpt lat="42.017685" lon="1.4510882">
        <time>2022-07-08T14:54:56Z</time>
      </trkpt>
      <trkpt lat="42.01778" lon="1.4512548">
        <time>2022-07-08T14:54:58Z</time>
      </trkpt>
      <trkpt lat="42.01787" lon="1.4514165">
        <time>2022-07-08T14:54:59Z</time>
      </trkpt>
      <trkpt lat="42.018" lon="1.4516855">
        <time>2022-07-08T14:55:02Z</time>
      </trkpt>
      <trkpt lat="42.018497" lon="1.4530209">
        <time>2022-07-08T14:55:08Z</time>
      </trkpt>
      <trkpt lat="42.018574" lon="1.4532956">
        <time>2022-07-08T14:55:10Z</time>
      </trkpt>
      <trkpt lat="42.018635" lon="1.4535443">
        <time>2022-07-08T14:55:11Z</time>
      </trkpt>
      <trkpt lat="42.01868" lon="1.4537642">
        <time>2022-07-08T14:55:12Z</time>
      </trkpt>
      <trkpt lat="42.01872" lon="1.4539762">
        <time>2022-07-08T14:55:13Z</time>
      </trkpt>
      <trkpt lat="42.01874" lon="1.4541808">
        <time>2022-07-08T14:55:14Z</time>
      </trkpt>
      <trkpt lat="42.018784" lon="1.4544659">
        <time>2022-07-08T14:55:16Z</time>
      </trkpt>
      <trkpt lat="42.018806" lon="1.4547325">
        <time>2022-07-08T14:55:17Z</time>
      </trkpt>
      <trkpt lat="42.01888" lon="1.4564005">
        <time>2022-07-08T14:55:23Z</time>
      </trkpt>
      <trkpt lat="42.018856" lon="1.4564968">
        <time>2022-07-08T14:55:25Z</time>
      </trkpt>
      <trkpt lat="42.018826" lon="1.4567522">
        <time>2022-07-08T14:55:28Z</time>
      </trkpt>
      <trkpt lat="42.018787" lon="1.4568769">
        <time>2022-07-08T14:55:29Z</time>
      </trkpt>
      <trkpt lat="42.018753" lon="1.4569962">
        <time>2022-07-08T14:55:30Z</time>
      </trkpt>
      <trkpt lat="42.01679" lon="1.4626355">
        <time>2022-07-08T14:56:03Z</time>
      </trkpt>
      <trkpt lat="42.016388" lon="1.4638529">
        <time>2022-07-08T15:02:01Z</time>
      </trkpt>
      <trkpt lat="42.01643" lon="1.4639182">
        <time>2022-07-08T15:02:04Z</time>
      </trkpt>
      <trkpt lat="42.01649" lon="1.4639802">
        <time>2022-07-08T15:02:07Z</time>
      </trkpt>
      <trkpt lat="42.016514" lon="1.4640275">
        <time>2022-07-08T15:02:09Z</time>
      </trkpt>
      <trkpt lat="42.016518" lon="1.4640929">
        <time>2022-07-08T15:02:13Z</time>
      </trkpt>
      <trkpt lat="42.01653" lon="1.4641994">
        <time>2022-07-08T15:03:22Z</time>
      </trkpt>
      <trkpt lat="42.016537" lon="1.4642762">
        <time>2022-07-08T15:03:24Z</time>
      </trkpt>
      <trkpt lat="42.01655" lon="1.4643692">
        <time>2022-07-08T15:03:26Z</time>
      </trkpt>
      <trkpt lat="42.01656" lon="1.4644707">
        <time>2022-07-08T15:03:28Z</time>
      </trkpt>
      <trkpt lat="42.016575" lon="1.4645798">
        <time>2022-07-08T15:03:30Z</time>
      </trkpt>
      <trkpt lat="42.0166" lon="1.4647532">
        <time>2022-07-08T15:03:33Z</time>
      </trkpt>
      <trkpt lat="42.016624" lon="1.4648792">
        <time>2022-07-08T15:03:35Z</time>
      </trkpt>
      <trkpt lat="42.01665" lon="1.4650141">
        <time>2022-07-08T15:03:37Z</time>
      </trkpt>
      <trkpt lat="42.016666" lon="1.4650848">
        <time>2022-07-08T15:03:38Z</time>
      </trkpt>
      <trkpt lat="42.016678" lon="1.4651538">
        <time>2022-07-08T15:03:39Z</time>
      </trkpt>
      <trkpt lat="42.016693" lon="1.4652314">
        <time>2022-07-08T15:03:40Z</time>
      </trkpt>
      <trkpt lat="42.01671" lon="1.4653047">
        <time>2022-07-08T15:03:41Z</time>
      </trkpt>
      <trkpt lat="42.016727" lon="1.4653821">
        <time>2022-07-08T15:03:42Z</time>
      </trkpt>
      <trkpt lat="42.016747" lon="1.4654624">
        <time>2022-07-08T15:03:43Z</time>
      </trkpt>
      <trkpt lat="42.016766" lon="1.4655517">
        <time>2022-07-08T15:03:44Z</time>
      </trkpt>
      <trkpt lat="42.01679" lon="1.4656404">
        <time>2022-07-08T15:03:45Z</time>
      </trkpt>
      <trkpt lat="42.016808" lon="1.4657228">
        <time>2022-07-08T15:03:46Z</time>
      </trkpt>
      <trkpt lat="42.016827" lon="1.4658074">
        <time>2022-07-08T15:03:47Z</time>
      </trkpt>
      <trkpt lat="42.01685" lon="1.4658934">
        <time>2022-07-08T15:03:48Z</time>
      </trkpt>
      <trkpt lat="42.01687" lon="1.4659804">
        <time>2022-07-08T15:03:49Z</time>
      </trkpt>
      <trkpt lat="42.016888" lon="1.4660695">
        <time>2022-07-08T15:03:50Z</time>
      </trkpt>
      <trkpt lat="42.016907" lon="1.4661611">
        <time>2022-07-08T15:03:51Z</time>
      </trkpt>
      <trkpt lat="42.01693" lon="1.4662597">
        <time>2022-07-08T15:03:52Z</time>
      </trkpt>
      <trkpt lat="42.016956" lon="1.4663581">
        <time>2022-07-08T15:03:53Z</time>
      </trkpt>
      <trkpt lat="42.01698" lon="1.4664577">
        <time>2022-07-08T15:03:54Z</time>
      </trkpt>
      <trkpt lat="42.017" lon="1.4665587">
        <time>2022-07-08T15:03:55Z</time>
      </trkpt>
      <trkpt lat="42.01702" lon="1.4666607">
        <time>2022-07-08T15:03:56Z</time>
      </trkpt>
      <trkpt lat="42.01704" lon="1.466765">
        <time>2022-07-08T15:03:57Z</time>
      </trkpt>
      <trkpt lat="42.017063" lon="1.4668634">
        <time>2022-07-08T15:03:58Z</time>
      </trkpt>
      <trkpt lat="42.017086" lon="1.4669718">
        <time>2022-07-08T15:03:59Z</time>
      </trkpt>
      <trkpt lat="42.01711" lon="1.4670733">
        <time>2022-07-08T15:04:00Z</time>
      </trkpt>
      <trkpt lat="42.01713" lon="1.4671791">
        <time>2022-07-08T15:04:01Z</time>
      </trkpt>
      <trkpt lat="42.017155" lon="1.467288">
        <time>2022-07-08T15:04:02Z</time>
      </trkpt>
      <trkpt lat="42.017178" lon="1.4674003">
        <time>2022-07-08T15:04:03Z</time>
      </trkpt>
      <trkpt lat="42.017204" lon="1.4675227">
        <time>2022-07-08T15:04:04Z</time>
      </trkpt>
      <trkpt lat="42.01723" lon="1.4676437">
        <time>2022-07-08T15:04:05Z</time>
      </trkpt>
      <trkpt lat="42.01725" lon="1.4677567">
        <time>2022-07-08T15:04:06Z</time>
      </trkpt>
      <trkpt lat="42.017273" lon="1.4678727">
        <time>2022-07-08T15:04:07Z</time>
      </trkpt>
      <trkpt lat="42.01729" lon="1.467991">
        <time>2022-07-08T15:04:08Z</time>
      </trkpt>
      <trkpt lat="42.0173" lon="1.468111">
        <time>2022-07-08T15:04:09Z</time>
      </trkpt>
      <trkpt lat="42.017303" lon="1.4682404">
        <time>2022-07-08T15:04:10Z</time>
      </trkpt>
      <trkpt lat="42.017303" lon="1.4683694">
        <time>2022-07-08T15:04:11Z</time>
      </trkpt>
      <trkpt lat="42.017296" lon="1.4684957">
        <time>2022-07-08T15:04:12Z</time>
      </trkpt>
      <trkpt lat="42.017277" lon="1.4686207">
        <time>2022-07-08T15:04:13Z</time>
      </trkpt>
      <trkpt lat="42.017254" lon="1.4687374">
        <time>2022-07-08T15:04:14Z</time>
      </trkpt>
      <trkpt lat="42.017223" lon="1.468856">
        <time>2022-07-08T15:04:15Z</time>
      </trkpt>
      <trkpt lat="42.01719" lon="1.468976">
        <time>2022-07-08T15:04:16Z</time>
      </trkpt>
      <trkpt lat="42.01715" lon="1.4690976">
        <time>2022-07-08T15:04:17Z</time>
      </trkpt>
      <trkpt lat="42.017105" lon="1.4692206">
        <time>2022-07-08T15:04:18Z</time>
      </trkpt>
      <trkpt lat="42.01706" lon="1.4693453">
        <time>2022-07-08T15:04:19Z</time>
      </trkpt>
      <trkpt lat="42.017014" lon="1.469471">
        <time>2022-07-08T15:04:20Z</time>
      </trkpt>
      <trkpt lat="42.016968" lon="1.4696007">
        <time>2022-07-08T15:04:21Z</time>
      </trkpt>
      <trkpt lat="42.01693" lon="1.4697356">
        <time>2022-07-08T15:04:22Z</time>
      </trkpt>
      <trkpt lat="42.01689" lon="1.469884">
        <time>2022-07-08T15:04:23Z</time>
      </trkpt>
      <trkpt lat="42.016865" lon="1.4700344">
        <time>2022-07-08T15:04:24Z</time>
      </trkpt>
      <trkpt lat="42.016853" lon="1.4701853">
        <time>2022-07-08T15:04:25Z</time>
      </trkpt>
      <trkpt lat="42.01685" lon="1.4703263">
        <time>2022-07-08T15:04:26Z</time>
      </trkpt>
      <trkpt lat="42.016853" lon="1.4704679">
        <time>2022-07-08T15:04:27Z</time>
      </trkpt>
      <trkpt lat="42.01687" lon="1.4706093">
        <time>2022-07-08T15:04:28Z</time>
      </trkpt>
      <trkpt lat="42.016895" lon="1.4707489">
        <time>2022-07-08T15:04:29Z</time>
      </trkpt>
      <trkpt lat="42.01693" lon="1.4708853">
        <time>2022-07-08T15:04:30Z</time>
      </trkpt>
      <trkpt lat="42.01697" lon="1.4710203">
        <time>2022-07-08T15:04:31Z</time>
      </trkpt>
      <trkpt lat="42.01702" lon="1.4711536">
        <time>2022-07-08T15:04:32Z</time>
      </trkpt>
      <trkpt lat="42.01707" lon="1.4712852">
        <time>2022-07-08T15:04:33Z</time>
      </trkpt>
      <trkpt lat="42.017128" lon="1.4714162">
        <time>2022-07-08T15:04:34Z</time>
      </trkpt>
      <trkpt lat="42.01718" lon="1.4715472">
        <time>2022-07-08T15:04:35Z</time>
      </trkpt>
      <trkpt lat="42.017242" lon="1.471687">
        <time>2022-07-08T15:04:36Z</time>
      </trkpt>
      <trkpt lat="42.017303" lon="1.4718152">
        <time>2022-07-08T15:04:37Z</time>
      </trkpt>
      <trkpt lat="42.01737" lon="1.4719553">
        <time>2022-07-08T15:04:38Z</time>
      </trkpt>
      <trkpt lat="42.017433" lon="1.4720947">
        <time>2022-07-08T15:04:39Z</time>
      </trkpt>
      <trkpt lat="42.017494" lon="1.4722329">
        <time>2022-07-08T15:04:40Z</time>
      </trkpt>
      <trkpt lat="42.017555" lon="1.4723712">
        <time>2022-07-08T15:04:41Z</time>
      </trkpt>
      <trkpt lat="42.017616" lon="1.4725109">
        <time>2022-07-08T15:04:42Z</time>
      </trkpt>
      <trkpt lat="42.017673" lon="1.4726526">
        <time>2022-07-08T15:04:43Z</time>
      </trkpt>
      <trkpt lat="42.017723" lon="1.4727973">
        <time>2022-07-08T15:04:44Z</time>
      </trkpt>
      <trkpt lat="42.017765" lon="1.4729348">
        <time>2022-07-08T15:04:45Z</time>
      </trkpt>
      <trkpt lat="42.017796" lon="1.4730796">
        <time>2022-07-08T15:04:46Z</time>
      </trkpt>
      <trkpt lat="42.017815" lon="1.4732395">
        <time>2022-07-08T15:04:47Z</time>
      </trkpt>
      <trkpt lat="42.017822" lon="1.4733882">
        <time>2022-07-08T15:04:48Z</time>
      </trkpt>
      <trkpt lat="42.01782" lon="1.4735385">
        <time>2022-07-08T15:04:49Z</time>
      </trkpt>
      <trkpt lat="42.0178" lon="1.4736862">
        <time>2022-07-08T15:04:50Z</time>
      </trkpt>
      <trkpt lat="42.01777" lon="1.4738289">
        <time>2022-07-08T15:04:51Z</time>
      </trkpt>
      <trkpt lat="42.017727" lon="1.4739649">
        <time>2022-07-08T15:04:52Z</time>
      </trkpt>
      <trkpt lat="42.017605" lon="1.4742168">
        <time>2022-07-08T15:04:54Z</time>
      </trkpt>
      <trkpt lat="42.017536" lon="1.4743205">
        <time>2022-07-08T15:04:55Z</time>
      </trkpt>
      <trkpt lat="42.017452" lon="1.4744172">
        <time>2022-07-08T15:04:56Z</time>
      </trkpt>
      <trkpt lat="42.01736" lon="1.4745011">
        <time>2022-07-08T15:04:57Z</time>
      </trkpt>
      <trkpt lat="42.01727" lon="1.4745785">
        <time>2022-07-08T15:04:58Z</time>
      </trkpt>
      <trkpt lat="42.017174" lon="1.4746531">
        <time>2022-07-08T15:04:59Z</time>
      </trkpt>
      <trkpt lat="42.01708" lon="1.4747299">
        <time>2022-07-08T15:05:00Z</time>
      </trkpt>
      <trkpt lat="42.016987" lon="1.4748118">
        <time>2022-07-08T15:05:01Z</time>
      </trkpt>
      <trkpt lat="42.016907" lon="1.4749042">
        <time>2022-07-08T15:05:02Z</time>
      </trkpt>
      <trkpt lat="42.016834" lon="1.4750018">
        <time>2022-07-08T15:05:03Z</time>
      </trkpt>
      <trkpt lat="42.016777" lon="1.4751141">
        <time>2022-07-08T15:05:04Z</time>
      </trkpt>
      <trkpt lat="42.016735" lon="1.4752518">
        <time>2022-07-08T15:05:05Z</time>
      </trkpt>
      <trkpt lat="42.01671" lon="1.4753954">
        <time>2022-07-08T15:05:06Z</time>
      </trkpt>
      <trkpt lat="42.0167" lon="1.4755439">
        <time>2022-07-08T15:05:07Z</time>
      </trkpt>
      <trkpt lat="42.0167" lon="1.4756972">
        <time>2022-07-08T15:05:08Z</time>
      </trkpt>
      <trkpt lat="42.016712" lon="1.4758538">
        <time>2022-07-08T15:05:09Z</time>
      </trkpt>
      <trkpt lat="42.016727" lon="1.4760011">
        <time>2022-07-08T15:05:10Z</time>
      </trkpt>
      <trkpt lat="42.01674" lon="1.4761535">
        <time>2022-07-08T15:05:11Z</time>
      </trkpt>
      <trkpt lat="42.016747" lon="1.4763075">
        <time>2022-07-08T15:05:12Z</time>
      </trkpt>
      <trkpt lat="42.016743" lon="1.4764608">
        <time>2022-07-08T15:05:13Z</time>
      </trkpt>
      <trkpt lat="42.016724" lon="1.4766191">
        <time>2022-07-08T15:05:14Z</time>
      </trkpt>
      <trkpt lat="42.016693" lon="1.4767665">
        <time>2022-07-08T15:05:15Z</time>
      </trkpt>
      <trkpt lat="42.016644" lon="1.4769014">
        <time>2022-07-08T15:05:16Z</time>
      </trkpt>
      <trkpt lat="42.016582" lon="1.4770261">
        <time>2022-07-08T15:05:17Z</time>
      </trkpt>
      <trkpt lat="42.01651" lon="1.4771421">
        <time>2022-07-08T15:05:18Z</time>
      </trkpt>
      <trkpt lat="42.016434" lon="1.4772534">
        <time>2022-07-08T15:05:19Z</time>
      </trkpt>
      <trkpt lat="42.016354" lon="1.477354">
        <time>2022-07-08T15:05:20Z</time>
      </trkpt>
      <trkpt lat="42.01627" lon="1.4774587">
        <time>2022-07-08T15:05:21Z</time>
      </trkpt>
      <trkpt lat="42.016193" lon="1.4775717">
        <time>2022-07-08T15:05:22Z</time>
      </trkpt>
      <trkpt lat="42.016125" lon="1.4777021">
        <time>2022-07-08T15:05:23Z</time>
      </trkpt>
      <trkpt lat="42.01606" lon="1.4778361">
        <time>2022-07-08T15:05:24Z</time>
      </trkpt>
      <trkpt lat="42.016006" lon="1.4779718">
        <time>2022-07-08T15:05:25Z</time>
      </trkpt>
      <trkpt lat="42.01596" lon="1.4781084">
        <time>2022-07-08T15:05:26Z</time>
      </trkpt>
      <trkpt lat="42.01592" lon="1.4782357">
        <time>2022-07-08T15:05:27Z</time>
      </trkpt>
      <trkpt lat="42.015873" lon="1.4783638">
        <time>2022-07-08T15:05:28Z</time>
      </trkpt>
      <trkpt lat="42.015823" lon="1.4784987">
        <time>2022-07-08T15:05:29Z</time>
      </trkpt>
      <trkpt lat="42.015766" lon="1.4786264">
        <time>2022-07-08T15:05:30Z</time>
      </trkpt>
      <trkpt lat="42.0157" lon="1.4787457">
        <time>2022-07-08T15:05:31Z</time>
      </trkpt>
      <trkpt lat="42.015633" lon="1.4788481">
        <time>2022-07-08T15:05:32Z</time>
      </trkpt>
      <trkpt lat="42.01556" lon="1.4789417">
        <time>2022-07-08T15:05:33Z</time>
      </trkpt>
      <trkpt lat="42.015476" lon="1.4790324">
        <time>2022-07-08T15:05:34Z</time>
      </trkpt>
      <trkpt lat="42.01539" lon="1.479114">
        <time>2022-07-08T15:05:35Z</time>
      </trkpt>
      <trkpt lat="42.0153" lon="1.4791874">
        <time>2022-07-08T15:05:36Z</time>
      </trkpt>
      <trkpt lat="42.01521" lon="1.4792551">
        <time>2022-07-08T15:05:37Z</time>
      </trkpt>
      <trkpt lat="42.01512" lon="1.4793141">
        <time>2022-07-08T15:05:38Z</time>
      </trkpt>
      <trkpt lat="42.01503" lon="1.4793797">
        <time>2022-07-08T15:05:39Z</time>
      </trkpt>
      <trkpt lat="42.014935" lon="1.4794463">
        <time>2022-07-08T15:05:40Z</time>
      </trkpt>
      <trkpt lat="42.014843" lon="1.479516">
        <time>2022-07-08T15:05:41Z</time>
      </trkpt>
      <trkpt lat="42.01476" lon="1.479585">
        <time>2022-07-08T15:05:42Z</time>
      </trkpt>
      <trkpt lat="42.014668" lon="1.4796706">
        <time>2022-07-08T15:05:43Z</time>
      </trkpt>
      <trkpt lat="42.014584" lon="1.4797667">
        <time>2022-07-08T15:05:44Z</time>
      </trkpt>
      <trkpt lat="42.01451" lon="1.479873">
        <time>2022-07-08T15:05:45Z</time>
      </trkpt>
      <trkpt lat="42.014442" lon="1.4799906">
        <time>2022-07-08T15:05:46Z</time>
      </trkpt>
      <trkpt lat="42.014385" lon="1.4801166">
        <time>2022-07-08T15:05:47Z</time>
      </trkpt>
      <trkpt lat="42.014336" lon="1.4802517">
        <time>2022-07-08T15:05:48Z</time>
      </trkpt>
      <trkpt lat="42.014297" lon="1.4803836">
        <time>2022-07-08T15:05:49Z</time>
      </trkpt>
      <trkpt lat="42.014267" lon="1.480524">
        <time>2022-07-08T15:05:50Z</time>
      </trkpt>
      <trkpt lat="42.014236" lon="1.480669">
        <time>2022-07-08T15:05:51Z</time>
      </trkpt>
      <trkpt lat="42.01421" lon="1.480818">
        <time>2022-07-08T15:05:52Z</time>
      </trkpt>
      <trkpt lat="42.014183" lon="1.4809777">
        <time>2022-07-08T15:05:53Z</time>
      </trkpt>
      <trkpt lat="42.014153" lon="1.4811233">
        <time>2022-07-08T15:05:54Z</time>
      </trkpt>
      <trkpt lat="42.01411" lon="1.4812746">
        <time>2022-07-08T15:05:55Z</time>
      </trkpt>
      <trkpt lat="42.01406" lon="1.4814149">
        <time>2022-07-08T15:05:56Z</time>
      </trkpt>
      <trkpt lat="42.014004" lon="1.4815416">
        <time>2022-07-08T15:05:57Z</time>
      </trkpt>
      <trkpt lat="42.01393" lon="1.4816533">
        <time>2022-07-08T15:05:58Z</time>
      </trkpt>
      <trkpt lat="42.01385" lon="1.4817489">
        <time>2022-07-08T15:05:59Z</time>
      </trkpt>
      <trkpt lat="42.01376" lon="1.4818296">
        <time>2022-07-08T15:06:00Z</time>
      </trkpt>
      <trkpt lat="42.013664" lon="1.4819">
        <time>2022-07-08T15:06:01Z</time>
      </trkpt>
      <trkpt lat="42.013573" lon="1.4819616">
        <time>2022-07-08T15:06:02Z</time>
      </trkpt>
      <trkpt lat="42.013474" lon="1.482031">
        <time>2022-07-08T15:06:03Z</time>
      </trkpt>
      <trkpt lat="42.013382" lon="1.4821066">
        <time>2022-07-08T15:06:04Z</time>
      </trkpt>
      <trkpt lat="42.0133" lon="1.4821852">
        <time>2022-07-08T15:06:05Z</time>
      </trkpt>
      <trkpt lat="42.013226" lon="1.4822762">
        <time>2022-07-08T15:06:06Z</time>
      </trkpt>
      <trkpt lat="42.01316" lon="1.4823823">
        <time>2022-07-08T15:06:07Z</time>
      </trkpt>
      <trkpt lat="42.013107" lon="1.4825122">
        <time>2022-07-08T15:06:08Z</time>
      </trkpt>
      <trkpt lat="42.01307" lon="1.4826403">
        <time>2022-07-08T15:06:09Z</time>
      </trkpt>
      <trkpt lat="42.013042" lon="1.4827889">
        <time>2022-07-08T15:06:10Z</time>
      </trkpt>
      <trkpt lat="42.013027" lon="1.4829416">
        <time>2022-07-08T15:06:11Z</time>
      </trkpt>
      <trkpt lat="42.01302" lon="1.4832556">
        <time>2022-07-08T15:06:13Z</time>
      </trkpt>
      <trkpt lat="42.01302" lon="1.4834139">
        <time>2022-07-08T15:06:14Z</time>
      </trkpt>
      <trkpt lat="42.01302" lon="1.4835732">
        <time>2022-07-08T15:06:15Z</time>
      </trkpt>
      <trkpt lat="42.013016" lon="1.4837326">
        <time>2022-07-08T15:06:16Z</time>
      </trkpt>
      <trkpt lat="42.01301" lon="1.4838818">
        <time>2022-07-08T15:06:17Z</time>
      </trkpt>
      <trkpt lat="42.012993" lon="1.484034">
        <time>2022-07-08T15:06:18Z</time>
      </trkpt>
      <trkpt lat="42.012978" lon="1.4841876">
        <time>2022-07-08T15:06:19Z</time>
      </trkpt>
      <trkpt lat="42.01295" lon="1.4843426">
        <time>2022-07-08T15:06:20Z</time>
      </trkpt>
      <trkpt lat="42.012924" lon="1.4844955">
        <time>2022-07-08T15:06:21Z</time>
      </trkpt>
      <trkpt lat="42.012886" lon="1.4846462">
        <time>2022-07-08T15:06:22Z</time>
      </trkpt>
      <trkpt lat="42.012844" lon="1.4847928">
        <time>2022-07-08T15:06:23Z</time>
      </trkpt>
      <trkpt lat="42.0128" lon="1.4849359">
        <time>2022-07-08T15:06:24Z</time>
      </trkpt>
      <trkpt lat="42.01275" lon="1.4850765">
        <time>2022-07-08T15:06:25Z</time>
      </trkpt>
      <trkpt lat="42.01269" lon="1.4852226">
        <time>2022-07-08T15:06:26Z</time>
      </trkpt>
      <trkpt lat="42.012634" lon="1.4853635">
        <time>2022-07-08T15:06:27Z</time>
      </trkpt>
      <trkpt lat="42.012577" lon="1.4855019">
        <time>2022-07-08T15:06:28Z</time>
      </trkpt>
      <trkpt lat="42.01252" lon="1.4856372">
        <time>2022-07-08T15:06:29Z</time>
      </trkpt>
      <trkpt lat="42.012463" lon="1.4857719">
        <time>2022-07-08T15:06:30Z</time>
      </trkpt>
      <trkpt lat="42.012405" lon="1.4859072">
        <time>2022-07-08T15:06:31Z</time>
      </trkpt>
      <trkpt lat="42.01235" lon="1.4860442">
        <time>2022-07-08T15:06:32Z</time>
      </trkpt>
      <trkpt lat="42.012287" lon="1.4861832">
        <time>2022-07-08T15:06:33Z</time>
      </trkpt>
      <trkpt lat="42.012238" lon="1.4863155">
        <time>2022-07-08T15:06:34Z</time>
      </trkpt>
      <trkpt lat="42.012184" lon="1.4864545">
        <time>2022-07-08T15:06:35Z</time>
      </trkpt>
      <trkpt lat="42.01214" lon="1.4865996">
        <time>2022-07-08T15:06:36Z</time>
      </trkpt>
      <trkpt lat="42.012093" lon="1.4867488">
        <time>2022-07-08T15:06:37Z</time>
      </trkpt>
      <trkpt lat="42.01206" lon="1.4869025">
        <time>2022-07-08T15:06:38Z</time>
      </trkpt>
      <trkpt lat="42.012028" lon="1.4870698">
        <time>2022-07-08T15:06:39Z</time>
      </trkpt>
      <trkpt lat="42.012005" lon="1.4872348">
        <time>2022-07-08T15:06:40Z</time>
      </trkpt>
      <trkpt lat="42.011982" lon="1.4873972">
        <time>2022-07-08T15:06:41Z</time>
      </trkpt>
      <trkpt lat="42.01196" lon="1.4875555">
        <time>2022-07-08T15:06:42Z</time>
      </trkpt>
      <trkpt lat="42.011932" lon="1.4877075">
        <time>2022-07-08T15:06:43Z</time>
      </trkpt>
      <trkpt lat="42.011894" lon="1.4878525">
        <time>2022-07-08T15:06:44Z</time>
      </trkpt>
      <trkpt lat="42.011845" lon="1.4879895">
        <time>2022-07-08T15:06:45Z</time>
      </trkpt>
      <trkpt lat="42.011787" lon="1.4881169">
        <time>2022-07-08T15:06:46Z</time>
      </trkpt>
      <trkpt lat="42.011723" lon="1.4882364">
        <time>2022-07-08T15:06:47Z</time>
      </trkpt>
      <trkpt lat="42.01165" lon="1.4883488">
        <time>2022-07-08T15:06:48Z</time>
      </trkpt>
      <trkpt lat="42.011578" lon="1.4884568">
        <time>2022-07-08T15:06:49Z</time>
      </trkpt>
      <trkpt lat="42.0115" lon="1.4885615">
        <time>2022-07-08T15:06:50Z</time>
      </trkpt>
      <trkpt lat="42.011425" lon="1.4886655">
        <time>2022-07-08T15:06:51Z</time>
      </trkpt>
      <trkpt lat="42.011353" lon="1.4887677">
        <time>2022-07-08T15:06:52Z</time>
      </trkpt>
      <trkpt lat="42.011284" lon="1.4888722">
        <time>2022-07-08T15:06:53Z</time>
      </trkpt>
      <trkpt lat="42.01122" lon="1.4889791">
        <time>2022-07-08T15:06:54Z</time>
      </trkpt>
      <trkpt lat="42.01116" lon="1.4890901">
        <time>2022-07-08T15:06:55Z</time>
      </trkpt>
      <trkpt lat="42.011112" lon="1.4892055">
        <time>2022-07-08T15:06:56Z</time>
      </trkpt>
      <trkpt lat="42.011074" lon="1.4893241">
        <time>2022-07-08T15:06:57Z</time>
      </trkpt>
      <trkpt lat="42.01104" lon="1.4894458">
        <time>2022-07-08T15:06:58Z</time>
      </trkpt>
      <trkpt lat="42.011017" lon="1.4895694">
        <time>2022-07-08T15:06:59Z</time>
      </trkpt>
      <trkpt lat="42.011" lon="1.4896941">
        <time>2022-07-08T15:07:00Z</time>
      </trkpt>
      <trkpt lat="42.01099" lon="1.4898188">
        <time>2022-07-08T15:07:01Z</time>
      </trkpt>
      <trkpt lat="42.010986" lon="1.4899441">
        <time>2022-07-08T15:07:02Z</time>
      </trkpt>
      <trkpt lat="42.010983" lon="1.4900684">
        <time>2022-07-08T15:07:03Z</time>
      </trkpt>
      <trkpt lat="42.01098" lon="1.4901941">
        <time>2022-07-08T15:07:04Z</time>
      </trkpt>
      <trkpt lat="42.01097" lon="1.4903194">
        <time>2022-07-08T15:07:05Z</time>
      </trkpt>
      <trkpt lat="42.01096" lon="1.4904444">
        <time>2022-07-08T15:07:06Z</time>
      </trkpt>
      <trkpt lat="42.010944" lon="1.4905691">
        <time>2022-07-08T15:07:07Z</time>
      </trkpt>
      <trkpt lat="42.01093" lon="1.4906944">
        <time>2022-07-08T15:07:08Z</time>
      </trkpt>
      <trkpt lat="42.010906" lon="1.4908214">
        <time>2022-07-08T15:07:09Z</time>
      </trkpt>
      <trkpt lat="42.010883" lon="1.4909507">
        <time>2022-07-08T15:07:10Z</time>
      </trkpt>
      <trkpt lat="42.010857" lon="1.4910843">
        <time>2022-07-08T15:07:11Z</time>
      </trkpt>
      <trkpt lat="42.010834" lon="1.491222">
        <time>2022-07-08T15:07:12Z</time>
      </trkpt>
      <trkpt lat="42.010807" lon="1.491364">
        <time>2022-07-08T15:07:13Z</time>
      </trkpt>
      <trkpt lat="42.01078" lon="1.4915094">
        <time>2022-07-08T15:07:14Z</time>
      </trkpt>
      <trkpt lat="42.010754" lon="1.4916577">
        <time>2022-07-08T15:07:15Z</time>
      </trkpt>
      <trkpt lat="42.010723" lon="1.491808">
        <time>2022-07-08T15:07:16Z</time>
      </trkpt>
      <trkpt lat="42.010693" lon="1.4919584">
        <time>2022-07-08T15:07:17Z</time>
      </trkpt>
      <trkpt lat="42.010654" lon="1.4921067">
        <time>2022-07-08T15:07:18Z</time>
      </trkpt>
      <trkpt lat="42.010616" lon="1.492251">
        <time>2022-07-08T15:07:19Z</time>
      </trkpt>
      <trkpt lat="42.010567" lon="1.4923887">
        <time>2022-07-08T15:07:20Z</time>
      </trkpt>
      <trkpt lat="42.01051" lon="1.4925181">
        <time>2022-07-08T15:07:21Z</time>
      </trkpt>
      <trkpt lat="42.01044" lon="1.4926343">
        <time>2022-07-08T15:07:22Z</time>
      </trkpt>
      <trkpt lat="42.01037" lon="1.4927367">
        <time>2022-07-08T15:07:23Z</time>
      </trkpt>
      <trkpt lat="42.01029" lon="1.4928243">
        <time>2022-07-08T15:07:24Z</time>
      </trkpt>
      <trkpt lat="42.0102" lon="1.492897">
        <time>2022-07-08T15:07:25Z</time>
      </trkpt>
      <trkpt lat="42.010113" lon="1.4929563">
        <time>2022-07-08T15:07:26Z</time>
      </trkpt>
      <trkpt lat="42.010025" lon="1.4930034">
        <time>2022-07-08T15:07:27Z</time>
      </trkpt>
      <trkpt lat="42.00994" lon="1.4930396">
        <time>2022-07-08T15:07:28Z</time>
      </trkpt>
      <trkpt lat="42.00985" lon="1.493072">
        <time>2022-07-08T15:07:29Z</time>
      </trkpt>
      <trkpt lat="42.00967" lon="1.4931213">
        <time>2022-07-08T15:07:31Z</time>
      </trkpt>
      <trkpt lat="42.009583" lon="1.4931463">
        <time>2022-07-08T15:07:32Z</time>
      </trkpt>
      <trkpt lat="42.009495" lon="1.4931719">
        <time>2022-07-08T15:07:33Z</time>
      </trkpt>
      <trkpt lat="42.00941" lon="1.4931947">
        <time>2022-07-08T15:07:34Z</time>
      </trkpt>
      <trkpt lat="42.00932" lon="1.4932159">
        <time>2022-07-08T15:07:35Z</time>
      </trkpt>
      <trkpt lat="42.00923" lon="1.4932363">
        <time>2022-07-08T15:07:36Z</time>
      </trkpt>
      <trkpt lat="42.009144" lon="1.4932569">
        <time>2022-07-08T15:07:37Z</time>
      </trkpt>
      <trkpt lat="42.00906" lon="1.4932806">
        <time>2022-07-08T15:07:38Z</time>
      </trkpt>
      <trkpt lat="42.008972" lon="1.493307">
        <time>2022-07-08T15:07:39Z</time>
      </trkpt>
      <trkpt lat="42.008884" lon="1.4933369">
        <time>2022-07-08T15:07:40Z</time>
      </trkpt>
      <trkpt lat="42.0088" lon="1.4933707">
        <time>2022-07-08T15:07:41Z</time>
      </trkpt>
      <trkpt lat="42.008717" lon="1.4934096">
        <time>2022-07-08T15:07:42Z</time>
      </trkpt>
      <trkpt lat="42.00863" lon="1.4934527">
        <time>2022-07-08T15:07:43Z</time>
      </trkpt>
      <trkpt lat="42.00854" lon="1.493501">
        <time>2022-07-08T15:07:44Z</time>
      </trkpt>
      <trkpt lat="42.008457" lon="1.493555">
        <time>2022-07-08T15:07:45Z</time>
      </trkpt>
      <trkpt lat="42.00837" lon="1.4936149">
        <time>2022-07-08T15:07:46Z</time>
      </trkpt>
      <trkpt lat="42.00829" lon="1.4936752">
        <time>2022-07-08T15:07:47Z</time>
      </trkpt>
      <trkpt lat="42.0082" lon="1.493748">
        <time>2022-07-08T15:07:48Z</time>
      </trkpt>
      <trkpt lat="42.00812" lon="1.4938253">
        <time>2022-07-08T15:07:49Z</time>
      </trkpt>
      <trkpt lat="42.008038" lon="1.4939076">
        <time>2022-07-08T15:07:50Z</time>
      </trkpt>
      <trkpt lat="42.007957" lon="1.4939922">
        <time>2022-07-08T15:07:51Z</time>
      </trkpt>
      <trkpt lat="42.007877" lon="1.4940792">
        <time>2022-07-08T15:07:52Z</time>
      </trkpt>
      <trkpt lat="42.0078" lon="1.4941679">
        <time>2022-07-08T15:07:53Z</time>
      </trkpt>
      <trkpt lat="42.00772" lon="1.4942579">
        <time>2022-07-08T15:07:54Z</time>
      </trkpt>
      <trkpt lat="42.00764" lon="1.4943483">
        <time>2022-07-08T15:07:55Z</time>
      </trkpt>
      <trkpt lat="42.007565" lon="1.4944383">
        <time>2022-07-08T15:07:56Z</time>
      </trkpt>
      <trkpt lat="42.00749" lon="1.4945222">
        <time>2022-07-08T15:07:57Z</time>
      </trkpt>
      <trkpt lat="42.00741" lon="1.4946119">
        <time>2022-07-08T15:07:58Z</time>
      </trkpt>
      <trkpt lat="42.007328" lon="1.4946992">
        <time>2022-07-08T15:07:59Z</time>
      </trkpt>
      <trkpt lat="42.007248" lon="1.4947846">
        <time>2022-07-08T15:08:00Z</time>
      </trkpt>
      <trkpt lat="42.007168" lon="1.4948683">
        <time>2022-07-08T15:08:01Z</time>
      </trkpt>
      <trkpt lat="42.00709" lon="1.4949499">
        <time>2022-07-08T15:08:02Z</time>
      </trkpt>
      <trkpt lat="42.007015" lon="1.4950302">
        <time>2022-07-08T15:08:03Z</time>
      </trkpt>
      <trkpt lat="42.00694" lon="1.4951075">
        <time>2022-07-08T15:08:04Z</time>
      </trkpt>
      <trkpt lat="42.006866" lon="1.4951825">
        <time>2022-07-08T15:08:05Z</time>
      </trkpt>
      <trkpt lat="42.006798" lon="1.4952508">
        <time>2022-07-08T15:08:06Z</time>
      </trkpt>
      <trkpt lat="42.00672" lon="1.4953226">
        <time>2022-07-08T15:08:07Z</time>
      </trkpt>
      <trkpt lat="42.00665" lon="1.4953909">
        <time>2022-07-08T15:08:08Z</time>
      </trkpt>
      <trkpt lat="42.006577" lon="1.4954572">
        <time>2022-07-08T15:08:09Z</time>
      </trkpt>
      <trkpt lat="42.006508" lon="1.4955221">
        <time>2022-07-08T15:08:10Z</time>
      </trkpt>
      <trkpt lat="42.006447" lon="1.4955825">
        <time>2022-07-08T15:08:11Z</time>
      </trkpt>
      <trkpt lat="42.006382" lon="1.4956442">
        <time>2022-07-08T15:08:12Z</time>
      </trkpt>
      <trkpt lat="42.006317" lon="1.4957138">
        <time>2022-07-08T15:08:13Z</time>
      </trkpt>
      <trkpt lat="42.00626" lon="1.4957862">
        <time>2022-07-08T15:08:14Z</time>
      </trkpt>
      <trkpt lat="42.0062" lon="1.4958615">
        <time>2022-07-08T15:08:15Z</time>
      </trkpt>
      <trkpt lat="42.00615" lon="1.4959412">
        <time>2022-07-08T15:08:16Z</time>
      </trkpt>
      <trkpt lat="42.006104" lon="1.4960265">
        <time>2022-07-08T15:08:17Z</time>
      </trkpt>
      <trkpt lat="42.006065" lon="1.4961182">
        <time>2022-07-08T15:08:18Z</time>
      </trkpt>
      <trkpt lat="42.006035" lon="1.4962142">
        <time>2022-07-08T15:08:19Z</time>
      </trkpt>
      <trkpt lat="42.006012" lon="1.4963131">
        <time>2022-07-08T15:08:20Z</time>
      </trkpt>
      <trkpt lat="42.005997" lon="1.4964168">
        <time>2022-07-08T15:08:21Z</time>
      </trkpt>
      <trkpt lat="42.005985" lon="1.4965172">
        <time>2022-07-08T15:08:22Z</time>
      </trkpt>
      <trkpt lat="42.005978" lon="1.4966221">
        <time>2022-07-08T15:08:23Z</time>
      </trkpt>
      <trkpt lat="42.00597" lon="1.4967304">
        <time>2022-07-08T15:08:24Z</time>
      </trkpt>
      <trkpt lat="42.00596" lon="1.4968414">
        <time>2022-07-08T15:08:25Z</time>
      </trkpt>
      <trkpt lat="42.005947" lon="1.4969535">
        <time>2022-07-08T15:08:26Z</time>
      </trkpt>
      <trkpt lat="42.005924" lon="1.4970641">
        <time>2022-07-08T15:08:27Z</time>
      </trkpt>
      <trkpt lat="42.005894" lon="1.4971714">
        <time>2022-07-08T15:08:28Z</time>
      </trkpt>
      <trkpt lat="42.00585" lon="1.4972811">
        <time>2022-07-08T15:08:29Z</time>
      </trkpt>
      <trkpt lat="42.005802" lon="1.4973831">
        <time>2022-07-08T15:08:30Z</time>
      </trkpt>
      <trkpt lat="42.005745" lon="1.4974791">
        <time>2022-07-08T15:08:31Z</time>
      </trkpt>
      <trkpt lat="42.00569" lon="1.4975652">
        <time>2022-07-08T15:08:32Z</time>
      </trkpt>
      <trkpt lat="42.00563" lon="1.4976544">
        <time>2022-07-08T15:08:33Z</time>
      </trkpt>
      <trkpt lat="42.005566" lon="1.4977411">
        <time>2022-07-08T15:08:34Z</time>
      </trkpt>
      <trkpt lat="42.0055" lon="1.497827">
        <time>2022-07-08T15:08:35Z</time>
      </trkpt>
      <trkpt lat="42.00544" lon="1.4979074">
        <time>2022-07-08T15:08:36Z</time>
      </trkpt>
      <trkpt lat="42.005375" lon="1.4979894">
        <time>2022-07-08T15:08:37Z</time>
      </trkpt>
      <trkpt lat="42.00531" lon="1.4980724">
        <time>2022-07-08T15:08:38Z</time>
      </trkpt>
      <trkpt lat="42.00524" lon="1.4981601">
        <time>2022-07-08T15:08:39Z</time>
      </trkpt>
      <trkpt lat="42.005177" lon="1.4982392">
        <time>2022-07-08T15:08:40Z</time>
      </trkpt>
      <trkpt lat="42.005116" lon="1.4983184">
        <time>2022-07-08T15:08:41Z</time>
      </trkpt>
      <trkpt lat="42.005054" lon="1.498396">
        <time>2022-07-08T15:08:42Z</time>
      </trkpt>
      <trkpt lat="42.00499" lon="1.4984747">
        <time>2022-07-08T15:08:43Z</time>
      </trkpt>
      <trkpt lat="42.00493" lon="1.4985538">
        <time>2022-07-08T15:08:44Z</time>
      </trkpt>
      <trkpt lat="42.004864" lon="1.4986334">
        <time>2022-07-08T15:08:45Z</time>
      </trkpt>
      <trkpt lat="42.004803" lon="1.4987128">
        <time>2022-07-08T15:08:46Z</time>
      </trkpt>
      <trkpt lat="42.004677" lon="1.4988704">
        <time>2022-07-08T15:08:48Z</time>
      </trkpt>
      <trkpt lat="42.00461" lon="1.4989557">
        <time>2022-07-08T15:08:49Z</time>
      </trkpt>
      <trkpt lat="42.00454" lon="1.49904">
        <time>2022-07-08T15:08:50Z</time>
      </trkpt>
      <trkpt lat="42.00448" lon="1.4991181">
        <time>2022-07-08T15:08:51Z</time>
      </trkpt>
      <trkpt lat="42.004417" lon="1.4991953">
        <time>2022-07-08T15:08:52Z</time>
      </trkpt>
      <trkpt lat="42.00435" lon="1.4992781">
        <time>2022-07-08T15:08:53Z</time>
      </trkpt>
      <trkpt lat="42.004284" lon="1.4993587">
        <time>2022-07-08T15:08:54Z</time>
      </trkpt>
      <trkpt lat="42.004215" lon="1.499438">
        <time>2022-07-08T15:08:55Z</time>
      </trkpt>
      <trkpt lat="42.004154" lon="1.4995117">
        <time>2022-07-08T15:08:56Z</time>
      </trkpt>
      <trkpt lat="42.004093" lon="1.4995847">
        <time>2022-07-08T15:08:57Z</time>
      </trkpt>
      <trkpt lat="42.00403" lon="1.4996574">
        <time>2022-07-08T15:08:58Z</time>
      </trkpt>
      <trkpt lat="42.00396" lon="1.4997337">
        <time>2022-07-08T15:08:59Z</time>
      </trkpt>
      <trkpt lat="42.003895" lon="1.499804">
        <time>2022-07-08T15:09:00Z</time>
      </trkpt>
      <trkpt lat="42.003834" lon="1.4998734">
        <time>2022-07-08T15:09:01Z</time>
      </trkpt>
      <trkpt lat="42.003765" lon="1.499943">
        <time>2022-07-08T15:09:02Z</time>
      </trkpt>
      <trkpt lat="42.003696" lon="1.5000167">
        <time>2022-07-08T15:09:03Z</time>
      </trkpt>
      <trkpt lat="42.00363" lon="1.500083">
        <time>2022-07-08T15:09:04Z</time>
      </trkpt>
      <trkpt lat="42.003567" lon="1.500149">
        <time>2022-07-08T15:09:05Z</time>
      </trkpt>
      <trkpt lat="42.00351" lon="1.5002103">
        <time>2022-07-08T15:09:06Z</time>
      </trkpt>
      <trkpt lat="42.00345" lon="1.5002723">
        <time>2022-07-08T15:09:07Z</time>
      </trkpt>
      <trkpt lat="42.003384" lon="1.5003383">
        <time>2022-07-08T15:09:08Z</time>
      </trkpt>
      <trkpt lat="42.003323" lon="1.5004036">
        <time>2022-07-08T15:09:09Z</time>
      </trkpt>
      <trkpt lat="42.00327" lon="1.5004634">
        <time>2022-07-08T15:09:10Z</time>
      </trkpt>
      <trkpt lat="42.003212" lon="1.500522">
        <time>2022-07-08T15:09:11Z</time>
      </trkpt>
      <trkpt lat="42.00316" lon="1.5005796">
        <time>2022-07-08T15:09:12Z</time>
      </trkpt>
      <trkpt lat="42.0031" lon="1.5006399">
        <time>2022-07-08T15:09:13Z</time>
      </trkpt>
      <trkpt lat="42.003048" lon="1.5006989">
        <time>2022-07-08T15:09:14Z</time>
      </trkpt>
      <trkpt lat="42.003" lon="1.5007527">
        <time>2022-07-08T15:09:15Z</time>
      </trkpt>
      <trkpt lat="42.002945" lon="1.5008049">
        <time>2022-07-08T15:09:16Z</time>
      </trkpt>
      <trkpt lat="42.002895" lon="1.5008576">
        <time>2022-07-08T15:09:17Z</time>
      </trkpt>
      <trkpt lat="42.002846" lon="1.5009096">
        <time>2022-07-08T15:09:18Z</time>
      </trkpt>
      <trkpt lat="42.002796" lon="1.5009593">
        <time>2022-07-08T15:09:19Z</time>
      </trkpt>
      <trkpt lat="42.00275" lon="1.5010083">
        <time>2022-07-08T15:09:20Z</time>
      </trkpt>
      <trkpt lat="42.002705" lon="1.5010573">
        <time>2022-07-08T15:09:21Z</time>
      </trkpt>
      <trkpt lat="42.00266" lon="1.5011053">
        <time>2022-07-08T15:09:22Z</time>
      </trkpt>
      <trkpt lat="42.002613" lon="1.5011526">
        <time>2022-07-08T15:09:23Z</time>
      </trkpt>
      <trkpt lat="42.002567" lon="1.5011996">
        <time>2022-07-08T15:09:24Z</time>
      </trkpt>
      <trkpt lat="42.002525" lon="1.501246">
        <time>2022-07-08T15:09:25Z</time>
      </trkpt>
      <trkpt lat="42.00248" lon="1.5012916">
        <time>2022-07-08T15:09:26Z</time>
      </trkpt>
      <trkpt lat="42.002438" lon="1.5013366">
        <time>2022-07-08T15:09:27Z</time>
      </trkpt>
      <trkpt lat="42.00239" lon="1.5013813">
        <time>2022-07-08T15:09:28Z</time>
      </trkpt>
      <trkpt lat="42.002346" lon="1.5014286">
        <time>2022-07-08T15:09:29Z</time>
      </trkpt>
      <trkpt lat="42.0023" lon="1.5014735">
        <time>2022-07-08T15:09:30Z</time>
      </trkpt>
      <trkpt lat="42.00226" lon="1.5015126">
        <time>2022-07-08T15:09:31Z</time>
      </trkpt>
      <trkpt lat="42.002216" lon="1.5015492">
        <time>2022-07-08T15:09:32Z</time>
      </trkpt>
      <trkpt lat="42.00217" lon="1.5015826">
        <time>2022-07-08T15:09:33Z</time>
      </trkpt>
      <trkpt lat="42.00207" lon="1.5016376">
        <time>2022-07-08T15:09:35Z</time>
      </trkpt>
      <trkpt lat="42.002018" lon="1.5016565">
        <time>2022-07-08T15:09:36Z</time>
      </trkpt>
      <trkpt lat="42.001965" lon="1.5016706">
        <time>2022-07-08T15:09:37Z</time>
      </trkpt>
      <trkpt lat="42.00191" lon="1.5016806">
        <time>2022-07-08T15:09:38Z</time>
      </trkpt>
      <trkpt lat="42.001858" lon="1.5016875">
        <time>2022-07-08T15:09:39Z</time>
      </trkpt>
      <trkpt lat="42.0018" lon="1.5016929">
        <time>2022-07-08T15:09:40Z</time>
      </trkpt>
      <trkpt lat="42.00174" lon="1.5016975">
        <time>2022-07-08T15:09:41Z</time>
      </trkpt>
      <trkpt lat="42.001682" lon="1.5017016">
        <time>2022-07-08T15:09:42Z</time>
      </trkpt>
      <trkpt lat="42.001625" lon="1.5017049">
        <time>2022-07-08T15:09:43Z</time>
      </trkpt>
      <trkpt lat="42.001568" lon="1.5017105">
        <time>2022-07-08T15:09:44Z</time>
      </trkpt>
      <trkpt lat="42.00151" lon="1.5017189">
        <time>2022-07-08T15:09:45Z</time>
      </trkpt>
      <trkpt lat="42.001453" lon="1.5017298">
        <time>2022-07-08T15:09:46Z</time>
      </trkpt>
      <trkpt lat="42.001392" lon="1.5017428">
        <time>2022-07-08T15:09:47Z</time>
      </trkpt>
      <trkpt lat="42.00134" lon="1.5017579">
        <time>2022-07-08T15:09:48Z</time>
      </trkpt>
      <trkpt lat="42.00128" lon="1.5017786">
        <time>2022-07-08T15:09:49Z</time>
      </trkpt>
      <trkpt lat="42.001232" lon="1.5018042">
        <time>2022-07-08T15:09:50Z</time>
      </trkpt>
      <trkpt lat="42.001186" lon="1.5018322">
        <time>2022-07-08T15:09:51Z</time>
      </trkpt>
      <trkpt lat="42.0011" lon="1.5019022">
        <time>2022-07-08T15:09:53Z</time>
      </trkpt>
      <trkpt lat="42.001053" lon="1.5019416">
        <time>2022-07-08T15:09:54Z</time>
      </trkpt>
      <trkpt lat="42.000973" lon="1.5020269">
        <time>2022-07-08T15:09:56Z</time>
      </trkpt>
      <trkpt lat="42.000935" lon="1.5020735">
        <time>2022-07-08T15:09:57Z</time>
      </trkpt>
      <trkpt lat="42.000896" lon="1.5021222">
        <time>2022-07-08T15:09:58Z</time>
      </trkpt>
      <trkpt lat="42.000824" lon="1.5022225">
        <time>2022-07-08T15:10:00Z</time>
      </trkpt>
      <trkpt lat="42.000786" lon="1.5022782">
        <time>2022-07-08T15:10:01Z</time>
      </trkpt>
      <trkpt lat="42.00075" lon="1.5023298">
        <time>2022-07-08T15:10:02Z</time>
      </trkpt>
      <trkpt lat="42.000717" lon="1.5023825">
        <time>2022-07-08T15:10:03Z</time>
      </trkpt>
      <trkpt lat="42.000683" lon="1.5024362">
        <time>2022-07-08T15:10:04Z</time>
      </trkpt>
      <trkpt lat="42.000652" lon="1.5024894">
        <time>2022-07-08T15:10:05Z</time>
      </trkpt>
      <trkpt lat="42.000584" lon="1.5025969">
        <time>2022-07-08T15:10:07Z</time>
      </trkpt>
      <trkpt lat="42.000553" lon="1.5026515">
        <time>2022-07-08T15:10:08Z</time>
      </trkpt>
      <trkpt lat="42.000523" lon="1.5027082">
        <time>2022-07-08T15:10:09Z</time>
      </trkpt>
      <trkpt lat="42.00046" lon="1.5028211">
        <time>2022-07-08T15:10:11Z</time>
      </trkpt>
      <trkpt lat="42.00043" lon="1.5028775">
        <time>2022-07-08T15:10:12Z</time>
      </trkpt>
      <trkpt lat="42.0004" lon="1.5029348">
        <time>2022-07-08T15:10:13Z</time>
      </trkpt>
      <trkpt lat="42.00035" lon="1.5030508">
        <time>2022-07-08T15:10:15Z</time>
      </trkpt>
      <trkpt lat="42.000328" lon="1.5031108">
        <time>2022-07-08T15:10:16Z</time>
      </trkpt>
      <trkpt lat="42.000286" lon="1.5032378">
        <time>2022-07-08T15:10:18Z</time>
      </trkpt>
      <trkpt lat="42.00027" lon="1.5033015">
        <time>2022-07-08T15:10:19Z</time>
      </trkpt>
      <trkpt lat="42.00024" lon="1.5034375">
        <time>2022-07-08T15:10:21Z</time>
      </trkpt>
      <trkpt lat="42.000233" lon="1.5035051">
        <time>2022-07-08T15:10:22Z</time>
      </trkpt>
      <trkpt lat="42.00023" lon="1.5035781">
        <time>2022-07-08T15:10:23Z</time>
      </trkpt>
      <trkpt lat="42.00023" lon="1.5036504">
        <time>2022-07-08T15:10:24Z</time>
      </trkpt>
      <trkpt lat="42.00023" lon="1.5037187">
        <time>2022-07-08T15:10:25Z</time>
      </trkpt>
      <trkpt lat="42.000237" lon="1.5038592">
        <time>2022-07-08T15:10:27Z</time>
      </trkpt>
      <trkpt lat="42.00024" lon="1.503936">
        <time>2022-07-08T15:10:28Z</time>
      </trkpt>
      <trkpt lat="42.000248" lon="1.5040064">
        <time>2022-07-08T15:10:29Z</time>
      </trkpt>
      <trkpt lat="42.000256" lon="1.5040767">
        <time>2022-07-08T15:10:30Z</time>
      </trkpt>
      <trkpt lat="42.000263" lon="1.5041474">
        <time>2022-07-08T15:10:31Z</time>
      </trkpt>
      <trkpt lat="42.000267" lon="1.5042194">
        <time>2022-07-08T15:10:32Z</time>
      </trkpt>
      <trkpt lat="42.000275" lon="1.5042925">
        <time>2022-07-08T15:10:33Z</time>
      </trkpt>
      <trkpt lat="42.000282" lon="1.504366">
        <time>2022-07-08T15:10:34Z</time>
      </trkpt>
      <trkpt lat="42.000294" lon="1.5044397">
        <time>2022-07-08T15:10:35Z</time>
      </trkpt>
      <trkpt lat="42.000305" lon="1.5045137">
        <time>2022-07-08T15:10:36Z</time>
      </trkpt>
      <trkpt lat="42.000313" lon="1.504587">
        <time>2022-07-08T15:10:37Z</time>
      </trkpt>
      <trkpt lat="42.000324" lon="1.5046637">
        <time>2022-07-08T15:10:38Z</time>
      </trkpt>
      <trkpt lat="42.00033" lon="1.504739">
        <time>2022-07-08T15:10:39Z</time>
      </trkpt>
      <trkpt lat="42.000343" lon="1.5048097">
        <time>2022-07-08T15:10:40Z</time>
      </trkpt>
      <trkpt lat="42.00035" lon="1.504881">
        <time>2022-07-08T15:10:41Z</time>
      </trkpt>
      <trkpt lat="42.00036" lon="1.504953">
        <time>2022-07-08T15:10:42Z</time>
      </trkpt>
      <trkpt lat="42.000366" lon="1.5050261">
        <time>2022-07-08T15:10:43Z</time>
      </trkpt>
      <trkpt lat="42.000374" lon="1.5051028">
        <time>2022-07-08T15:10:44Z</time>
      </trkpt>
      <trkpt lat="42.00038" lon="1.5051737">
        <time>2022-07-08T15:10:45Z</time>
      </trkpt>
      <trkpt lat="42.00039" lon="1.505246">
        <time>2022-07-08T15:10:46Z</time>
      </trkpt>
      <trkpt lat="42.000397" lon="1.505318">
        <time>2022-07-08T15:10:47Z</time>
      </trkpt>
      <trkpt lat="42.000404" lon="1.5053897">
        <time>2022-07-08T15:10:48Z</time>
      </trkpt>
      <trkpt lat="42.000412" lon="1.5054624">
        <time>2022-07-08T15:10:49Z</time>
      </trkpt>
      <trkpt lat="42.000416" lon="1.5055354">
        <time>2022-07-08T15:10:50Z</time>
      </trkpt>
      <trkpt lat="42.000423" lon="1.5056087">
        <time>2022-07-08T15:10:51Z</time>
      </trkpt>
      <trkpt lat="42.00043" lon="1.5056827">
        <time>2022-07-08T15:10:52Z</time>
      </trkpt>
      <trkpt lat="42.000435" lon="1.5057567">
        <time>2022-07-08T15:10:53Z</time>
      </trkpt>
      <trkpt lat="42.000443" lon="1.5058314">
        <time>2022-07-08T15:10:54Z</time>
      </trkpt>
      <trkpt lat="42.00045" lon="1.505906">
        <time>2022-07-08T15:10:55Z</time>
      </trkpt>
      <trkpt lat="42.000454" lon="1.5059807">
        <time>2022-07-08T15:10:56Z</time>
      </trkpt>
      <trkpt lat="42.00046" lon="1.5060543">
        <time>2022-07-08T15:10:57Z</time>
      </trkpt>
      <trkpt lat="42.000465" lon="1.5061287">
        <time>2022-07-08T15:10:58Z</time>
      </trkpt>
      <trkpt lat="42.00047" lon="1.506202">
        <time>2022-07-08T15:10:59Z</time>
      </trkpt>
      <trkpt lat="42.00047" lon="1.50628">
        <time>2022-07-08T15:11:00Z</time>
      </trkpt>
      <trkpt lat="42.000473" lon="1.5063564">
        <time>2022-07-08T15:11:01Z</time>
      </trkpt>
      <trkpt lat="42.00047" lon="1.5064304">
        <time>2022-07-08T15:11:02Z</time>
      </trkpt>
      <trkpt lat="42.00047" lon="1.5065039">
        <time>2022-07-08T15:11:03Z</time>
      </trkpt>
      <trkpt lat="42.000465" lon="1.5065774">
        <time>2022-07-08T15:11:04Z</time>
      </trkpt>
      <trkpt lat="42.00046" lon="1.50665">
        <time>2022-07-08T15:11:05Z</time>
      </trkpt>
      <trkpt lat="42.000454" lon="1.5067277">
        <time>2022-07-08T15:11:06Z</time>
      </trkpt>
      <trkpt lat="42.000446" lon="1.5067947">
        <time>2022-07-08T15:11:07Z</time>
      </trkpt>
      <trkpt lat="42.00044" lon="1.5068634">
        <time>2022-07-08T15:11:08Z</time>
      </trkpt>
      <trkpt lat="42.000427" lon="1.506933">
        <time>2022-07-08T15:11:09Z</time>
      </trkpt>
      <trkpt lat="42.000416" lon="1.507003">
        <time>2022-07-08T15:11:10Z</time>
      </trkpt>
      <trkpt lat="42.000404" lon="1.5070733">
        <time>2022-07-08T15:11:11Z</time>
      </trkpt>
      <trkpt lat="42.00039" lon="1.5071449">
        <time>2022-07-08T15:11:12Z</time>
      </trkpt>
      <trkpt lat="42.000378" lon="1.5072173">
        <time>2022-07-08T15:11:13Z</time>
      </trkpt>
      <trkpt lat="42.000366" lon="1.5072906">
        <time>2022-07-08T15:11:14Z</time>
      </trkpt>
      <trkpt lat="42.00035" lon="1.5073636">
        <time>2022-07-08T15:11:15Z</time>
      </trkpt>
      <trkpt lat="42.000336" lon="1.5074363">
        <time>2022-07-08T15:11:16Z</time>
      </trkpt>
      <trkpt lat="42.000305" lon="1.5075825">
        <time>2022-07-08T15:11:18Z</time>
      </trkpt>
      <trkpt lat="42.000294" lon="1.5076526">
        <time>2022-07-08T15:11:19Z</time>
      </trkpt>
      <trkpt lat="42.00028" lon="1.5077219">
        <time>2022-07-08T15:11:20Z</time>
      </trkpt>
      <trkpt lat="42.000263" lon="1.5077906">
        <time>2022-07-08T15:11:21Z</time>
      </trkpt>
      <trkpt lat="42.000244" lon="1.50786">
        <time>2022-07-08T15:11:22Z</time>
      </trkpt>
      <trkpt lat="42.00023" lon="1.5079296">
        <time>2022-07-08T15:11:23Z</time>
      </trkpt>
      <trkpt lat="42.000214" lon="1.5079986">
        <time>2022-07-08T15:11:24Z</time>
      </trkpt>
      <trkpt lat="42.000195" lon="1.5080676">
        <time>2022-07-08T15:11:25Z</time>
      </trkpt>
      <trkpt lat="42.00018" lon="1.5081413">
        <time>2022-07-08T15:11:26Z</time>
      </trkpt>
      <trkpt lat="42.000164" lon="1.5082135">
        <time>2022-07-08T15:11:27Z</time>
      </trkpt>
      <trkpt lat="42.00015" lon="1.5082842">
        <time>2022-07-08T15:11:28Z</time>
      </trkpt>
      <trkpt lat="42.000134" lon="1.5083503">
        <time>2022-07-08T15:11:29Z</time>
      </trkpt>
      <trkpt lat="42.00012" lon="1.5084169">
        <time>2022-07-08T15:11:30Z</time>
      </trkpt>
      <trkpt lat="42.000088" lon="1.5085512">
        <time>2022-07-08T15:11:32Z</time>
      </trkpt>
      <trkpt lat="42.000072" lon="1.5086188">
        <time>2022-07-08T15:11:33Z</time>
      </trkpt>
      <trkpt lat="42.000057" lon="1.5086875">
        <time>2022-07-08T15:11:34Z</time>
      </trkpt>
      <trkpt lat="42.000042" lon="1.5087572">
        <time>2022-07-08T15:11:35Z</time>
      </trkpt>
      <trkpt lat="42.000027" lon="1.5088282">
        <time>2022-07-08T15:11:36Z</time>
      </trkpt>
      <trkpt lat="42.00001" lon="1.5088996">
        <time>2022-07-08T15:11:37Z</time>
      </trkpt>
      <trkpt lat="41.999992" lon="1.5089768">
        <time>2022-07-08T15:11:38Z</time>
      </trkpt>
      <trkpt lat="41.99998" lon="1.5090485">
        <time>2022-07-08T15:11:39Z</time>
      </trkpt>
      <trkpt lat="41.999966" lon="1.5091219">
        <time>2022-07-08T15:11:40Z</time>
      </trkpt>
      <trkpt lat="41.999947" lon="1.5091969">
        <time>2022-07-08T15:11:41Z</time>
      </trkpt>
      <trkpt lat="41.99993" lon="1.5092739">
        <time>2022-07-08T15:11:42Z</time>
      </trkpt>
      <trkpt lat="41.99991" lon="1.5093532">
        <time>2022-07-08T15:11:43Z</time>
      </trkpt>
      <trkpt lat="41.999886" lon="1.5094395">
        <time>2022-07-08T15:11:44Z</time>
      </trkpt>
      <trkpt lat="41.999863" lon="1.5095261">
        <time>2022-07-08T15:11:45Z</time>
      </trkpt>
      <trkpt lat="41.999832" lon="1.5096122">
        <time>2022-07-08T15:11:46Z</time>
      </trkpt>
      <trkpt lat="41.9998" lon="1.5096978">
        <time>2022-07-08T15:11:47Z</time>
      </trkpt>
      <trkpt lat="41.999763" lon="1.5097824">
        <time>2022-07-08T15:11:48Z</time>
      </trkpt>
      <trkpt lat="41.999725" lon="1.5098665">
        <time>2022-07-08T15:11:49Z</time>
      </trkpt>
      <trkpt lat="41.999676" lon="1.5099485">
        <time>2022-07-08T15:11:50Z</time>
      </trkpt>
      <trkpt lat="41.999626" lon="1.5100272">
        <time>2022-07-08T15:11:51Z</time>
      </trkpt>
      <trkpt lat="41.99957" lon="1.5101014">
        <time>2022-07-08T15:11:52Z</time>
      </trkpt>
      <trkpt lat="41.999508" lon="1.5101715">
        <time>2022-07-08T15:11:53Z</time>
      </trkpt>
      <trkpt lat="41.99944" lon="1.5102385">
        <time>2022-07-08T15:11:54Z</time>
      </trkpt>
      <trkpt lat="41.99937" lon="1.5103024">
        <time>2022-07-08T15:11:55Z</time>
      </trkpt>
      <trkpt lat="41.9993" lon="1.5103629">
        <time>2022-07-08T15:11:56Z</time>
      </trkpt>
      <trkpt lat="41.999226" lon="1.5104212">
        <time>2022-07-08T15:11:57Z</time>
      </trkpt>
      <trkpt lat="41.99915" lon="1.5104805">
        <time>2022-07-08T15:11:58Z</time>
      </trkpt>
      <trkpt lat="41.999077" lon="1.5105398">
        <time>2022-07-08T15:11:59Z</time>
      </trkpt>
      <trkpt lat="41.999" lon="1.5105991">
        <time>2022-07-08T15:12:00Z</time>
      </trkpt>
      <trkpt lat="41.998924" lon="1.5106591">
        <time>2022-07-08T15:12:01Z</time>
      </trkpt>
      <trkpt lat="41.99885" lon="1.5107211">
        <time>2022-07-08T15:12:02Z</time>
      </trkpt>
      <trkpt lat="41.99878" lon="1.5107858">
        <time>2022-07-08T15:12:03Z</time>
      </trkpt>
      <trkpt lat="41.998703" lon="1.5108575">
        <time>2022-07-08T15:12:04Z</time>
      </trkpt>
      <trkpt lat="41.99863" lon="1.5109278">
        <time>2022-07-08T15:12:05Z</time>
      </trkpt>
      <trkpt lat="41.99856" lon="1.5109985">
        <time>2022-07-08T15:12:06Z</time>
      </trkpt>
      <trkpt lat="41.998497" lon="1.5110701">
        <time>2022-07-08T15:12:07Z</time>
      </trkpt>
      <trkpt lat="41.998436" lon="1.5111434">
        <time>2022-07-08T15:12:08Z</time>
      </trkpt>
      <trkpt lat="41.99838" lon="1.5112177">
        <time>2022-07-08T15:12:09Z</time>
      </trkpt>
      <trkpt lat="41.99832" lon="1.511293">
        <time>2022-07-08T15:12:10Z</time>
      </trkpt>
      <trkpt lat="41.99827" lon="1.5113671">
        <time>2022-07-08T15:12:11Z</time>
      </trkpt>
      <trkpt lat="41.998215" lon="1.5114408">
        <time>2022-07-08T15:12:12Z</time>
      </trkpt>
      <trkpt lat="41.99816" lon="1.5115137">
        <time>2022-07-08T15:12:13Z</time>
      </trkpt>
      <trkpt lat="41.998116" lon="1.5115814">
        <time>2022-07-08T15:12:14Z</time>
      </trkpt>
      <trkpt lat="41.998066" lon="1.5116488">
        <time>2022-07-08T15:12:15Z</time>
      </trkpt>
      <trkpt lat="41.998016" lon="1.5117161">
        <time>2022-07-08T15:12:16Z</time>
      </trkpt>
      <trkpt lat="41.99797" lon="1.5117834">
        <time>2022-07-08T15:12:17Z</time>
      </trkpt>
      <trkpt lat="41.997925" lon="1.511855">
        <time>2022-07-08T15:12:18Z</time>
      </trkpt>
      <trkpt lat="41.997883" lon="1.5119201">
        <time>2022-07-08T15:12:19Z</time>
      </trkpt>
      <trkpt lat="41.997807" lon="1.5120534">
        <time>2022-07-08T15:12:21Z</time>
      </trkpt>
      <trkpt lat="41.997772" lon="1.512119">
        <time>2022-07-08T15:12:22Z</time>
      </trkpt>
      <trkpt lat="41.997734" lon="1.5121834">
        <time>2022-07-08T15:12:23Z</time>
      </trkpt>
      <trkpt lat="41.9977" lon="1.5122467">
        <time>2022-07-08T15:12:24Z</time>
      </trkpt>
      <trkpt lat="41.997665" lon="1.5123104">
        <time>2022-07-08T15:12:25Z</time>
      </trkpt>
      <trkpt lat="41.997635" lon="1.5123714">
        <time>2022-07-08T15:12:26Z</time>
      </trkpt>
      <trkpt lat="41.997604" lon="1.5124317">
        <time>2022-07-08T15:12:27Z</time>
      </trkpt>
      <trkpt lat="41.997574" lon="1.5124917">
        <time>2022-07-08T15:12:28Z</time>
      </trkpt>
      <trkpt lat="41.997543" lon="1.5125511">
        <time>2022-07-08T15:12:29Z</time>
      </trkpt>
      <trkpt lat="41.997517" lon="1.512612">
        <time>2022-07-08T15:12:30Z</time>
      </trkpt>
      <trkpt lat="41.997486" lon="1.5126714">
        <time>2022-07-08T15:12:31Z</time>
      </trkpt>
      <trkpt lat="41.99746" lon="1.5127294">
        <time>2022-07-08T15:12:32Z</time>
      </trkpt>
      <trkpt lat="41.997406" lon="1.512846">
        <time>2022-07-08T15:12:34Z</time>
      </trkpt>
      <trkpt lat="41.99738" lon="1.5129046">
        <time>2022-07-08T15:12:35Z</time>
      </trkpt>
      <trkpt lat="41.997322" lon="1.5130204">
        <time>2022-07-08T15:12:37Z</time>
      </trkpt>
      <trkpt lat="41.99729" lon="1.51308">
        <time>2022-07-08T15:12:38Z</time>
      </trkpt>
      <trkpt lat="41.997265" lon="1.5131413">
        <time>2022-07-08T15:12:39Z</time>
      </trkpt>
      <trkpt lat="41.997234" lon="1.5132086">
        <time>2022-07-08T15:12:40Z</time>
      </trkpt>
      <trkpt lat="41.99721" lon="1.513278">
        <time>2022-07-08T15:12:41Z</time>
      </trkpt>
      <trkpt lat="41.99719" lon="1.5133504">
        <time>2022-07-08T15:12:42Z</time>
      </trkpt>
      <trkpt lat="41.997166" lon="1.513424">
        <time>2022-07-08T15:12:43Z</time>
      </trkpt>
      <trkpt lat="41.99714" lon="1.5134987">
        <time>2022-07-08T15:12:44Z</time>
      </trkpt>
      <trkpt lat="41.997112" lon="1.5135723">
        <time>2022-07-08T15:12:45Z</time>
      </trkpt>
      <trkpt lat="41.997086" lon="1.5136423">
        <time>2022-07-08T15:12:46Z</time>
      </trkpt>
      <trkpt lat="41.99706" lon="1.5137143">
        <time>2022-07-08T15:12:47Z</time>
      </trkpt>
      <trkpt lat="41.997032" lon="1.5137906">
        <time>2022-07-08T15:12:48Z</time>
      </trkpt>
      <trkpt lat="41.997005" lon="1.5138687">
        <time>2022-07-08T15:12:49Z</time>
      </trkpt>
      <trkpt lat="41.996975" lon="1.5139619">
        <time>2022-07-08T15:12:50Z</time>
      </trkpt>
      <trkpt lat="41.996952" lon="1.5140439">
        <time>2022-07-08T15:12:51Z</time>
      </trkpt>
      <trkpt lat="41.99693" lon="1.5141296">
        <time>2022-07-08T15:12:52Z</time>
      </trkpt>
      <trkpt lat="41.996902" lon="1.5142183">
        <time>2022-07-08T15:12:53Z</time>
      </trkpt>
      <trkpt lat="41.99688" lon="1.5143106">
        <time>2022-07-08T15:12:54Z</time>
      </trkpt>
      <trkpt lat="41.996857" lon="1.5144049">
        <time>2022-07-08T15:12:55Z</time>
      </trkpt>
      <trkpt lat="41.996834" lon="1.5145019">
        <time>2022-07-08T15:12:56Z</time>
      </trkpt>
      <trkpt lat="41.996807" lon="1.5146006">
        <time>2022-07-08T15:12:57Z</time>
      </trkpt>
      <trkpt lat="41.996784" lon="1.5147009">
        <time>2022-07-08T15:12:58Z</time>
      </trkpt>
      <trkpt lat="41.996758" lon="1.5148039">
        <time>2022-07-08T15:12:59Z</time>
      </trkpt>
      <trkpt lat="41.996735" lon="1.5149083">
        <time>2022-07-08T15:13:00Z</time>
      </trkpt>
      <trkpt lat="41.996708" lon="1.5150186">
        <time>2022-07-08T15:13:01Z</time>
      </trkpt>
      <trkpt lat="41.99668" lon="1.5151256">
        <time>2022-07-08T15:13:02Z</time>
      </trkpt>
      <trkpt lat="41.99666" lon="1.5152292">
        <time>2022-07-08T15:13:03Z</time>
      </trkpt>
      <trkpt lat="41.996635" lon="1.5153302">
        <time>2022-07-08T15:13:04Z</time>
      </trkpt>
      <trkpt lat="41.996613" lon="1.515428">
        <time>2022-07-08T15:13:05Z</time>
      </trkpt>
      <trkpt lat="41.996593" lon="1.5155215">
        <time>2022-07-08T15:13:06Z</time>
      </trkpt>
      <trkpt lat="41.996574" lon="1.5156122">
        <time>2022-07-08T15:13:07Z</time>
      </trkpt>
      <trkpt lat="41.99656" lon="1.5156986">
        <time>2022-07-08T15:13:08Z</time>
      </trkpt>
      <trkpt lat="41.996544" lon="1.5157832">
        <time>2022-07-08T15:13:09Z</time>
      </trkpt>
      <trkpt lat="41.996532" lon="1.5158659">
        <time>2022-07-08T15:13:10Z</time>
      </trkpt>
      <trkpt lat="41.996517" lon="1.5159482">
        <time>2022-07-08T15:13:11Z</time>
      </trkpt>
      <trkpt lat="41.99651" lon="1.5160302">
        <time>2022-07-08T15:13:12Z</time>
      </trkpt>
      <trkpt lat="41.9965" lon="1.5161098">
        <time>2022-07-08T15:13:13Z</time>
      </trkpt>
      <trkpt lat="41.99649" lon="1.5161885">
        <time>2022-07-08T15:13:14Z</time>
      </trkpt>
      <trkpt lat="41.996483" lon="1.5162662">
        <time>2022-07-08T15:13:15Z</time>
      </trkpt>
      <trkpt lat="41.996475" lon="1.5163435">
        <time>2022-07-08T15:13:16Z</time>
      </trkpt>
      <trkpt lat="41.996468" lon="1.5164208">
        <time>2022-07-08T15:13:17Z</time>
      </trkpt>
      <trkpt lat="41.99646" lon="1.5164982">
        <time>2022-07-08T15:13:18Z</time>
      </trkpt>
      <trkpt lat="41.996452" lon="1.5165749">
        <time>2022-07-08T15:13:19Z</time>
      </trkpt>
      <trkpt lat="41.996445" lon="1.5166508">
        <time>2022-07-08T15:13:20Z</time>
      </trkpt>
      <trkpt lat="41.996437" lon="1.5167245">
        <time>2022-07-08T15:13:21Z</time>
      </trkpt>
      <trkpt lat="41.99642" lon="1.5168599">
        <time>2022-07-08T15:13:23Z</time>
      </trkpt>
      <trkpt lat="41.996414" lon="1.5169162">
        <time>2022-07-08T15:13:24Z</time>
      </trkpt>
      <trkpt lat="41.996395" lon="1.5170128">
        <time>2022-07-08T15:13:26Z</time>
      </trkpt>
      <trkpt lat="41.996372" lon="1.5170858">
        <time>2022-07-08T15:13:28Z</time>
      </trkpt>
      <trkpt lat="41.996357" lon="1.5171428">
        <time>2022-07-08T15:13:30Z</time>
      </trkpt>
      <trkpt lat="41.996346" lon="1.5171962">
        <time>2022-07-08T15:13:34Z</time>
      </trkpt>
      <trkpt lat="41.996326" lon="1.5172975">
        <time>2022-07-08T15:14:28Z</time>
      </trkpt>
      <trkpt lat="41.996334" lon="1.5173734">
        <time>2022-07-08T15:14:32Z</time>
      </trkpt>
      <trkpt lat="41.996365" lon="1.5174358">
        <time>2022-07-08T15:14:37Z</time>
      </trkpt>
      <trkpt lat="41.996387" lon="1.5175174">
        <time>2022-07-08T15:14:40Z</time>
      </trkpt>
      <trkpt lat="41.996376" lon="1.5176281">
        <time>2022-07-08T15:14:43Z</time>
      </trkpt>
      <trkpt lat="41.996365" lon="1.5177225">
        <time>2022-07-08T15:14:45Z</time>
      </trkpt>
      <trkpt lat="41.99635" lon="1.5178301">
        <time>2022-07-08T15:14:47Z</time>
      </trkpt>
      <trkpt lat="41.996334" lon="1.5179651">
        <time>2022-07-08T15:14:49Z</time>
      </trkpt>
      <trkpt lat="41.996326" lon="1.5180378">
        <time>2022-07-08T15:14:50Z</time>
      </trkpt>
      <trkpt lat="41.99632" lon="1.5181118">
        <time>2022-07-08T15:14:51Z</time>
      </trkpt>
      <trkpt lat="41.99631" lon="1.5181861">
        <time>2022-07-08T15:14:52Z</time>
      </trkpt>
      <trkpt lat="41.9963" lon="1.5182611">
        <time>2022-07-08T15:14:53Z</time>
      </trkpt>
      <trkpt lat="41.99629" lon="1.5183427">
        <time>2022-07-08T15:14:54Z</time>
      </trkpt>
      <trkpt lat="41.99628" lon="1.5184261">
        <time>2022-07-08T15:14:55Z</time>
      </trkpt>
      <trkpt lat="41.99627" lon="1.5185047">
        <time>2022-07-08T15:14:56Z</time>
      </trkpt>
      <trkpt lat="41.996254" lon="1.5185841">
        <time>2022-07-08T15:14:57Z</time>
      </trkpt>
      <trkpt lat="41.99624" lon="1.5186638">
        <time>2022-07-08T15:14:58Z</time>
      </trkpt>
      <trkpt lat="41.99622" lon="1.5187478">
        <time>2022-07-08T15:14:59Z</time>
      </trkpt>
      <trkpt lat="41.996197" lon="1.5188237">
        <time>2022-07-08T15:15:00Z</time>
      </trkpt>
      <trkpt lat="41.996174" lon="1.5189008">
        <time>2022-07-08T15:15:01Z</time>
      </trkpt>
      <trkpt lat="41.99615" lon="1.5189757">
        <time>2022-07-08T15:15:02Z</time>
      </trkpt>
      <trkpt lat="41.99612" lon="1.5190531">
        <time>2022-07-08T15:15:03Z</time>
      </trkpt>
      <trkpt lat="41.99609" lon="1.5191271">
        <time>2022-07-08T15:15:04Z</time>
      </trkpt>
      <trkpt lat="41.99606" lon="1.5191977">
        <time>2022-07-08T15:15:05Z</time>
      </trkpt>
      <trkpt lat="41.99603" lon="1.5192624">
        <time>2022-07-08T15:15:06Z</time>
      </trkpt>
      <trkpt lat="41.995995" lon="1.5193224">
        <time>2022-07-08T15:15:07Z</time>
      </trkpt>
      <trkpt lat="41.995956" lon="1.5193727">
        <time>2022-07-08T15:15:08Z</time>
      </trkpt>
      <trkpt lat="41.995914" lon="1.5194128">
        <time>2022-07-08T15:15:09Z</time>
      </trkpt>
      <trkpt lat="41.995872" lon="1.5194467">
        <time>2022-07-08T15:15:10Z</time>
      </trkpt>
      <trkpt lat="41.99579" lon="1.5195007">
        <time>2022-07-08T15:15:12Z</time>
      </trkpt>
      <trkpt lat="41.995705" lon="1.5195494">
        <time>2022-07-08T15:15:14Z</time>
      </trkpt>
      <trkpt lat="41.99563" lon="1.5195878">
        <time>2022-07-08T15:15:16Z</time>
      </trkpt>
      <trkpt lat="41.995552" lon="1.5196158">
        <time>2022-07-08T15:15:18Z</time>
      </trkpt>
      <trkpt lat="41.99548" lon="1.5196487">
        <time>2022-07-08T15:15:20Z</time>
      </trkpt>
      <trkpt lat="41.99542" lon="1.5196791">
        <time>2022-07-08T15:15:22Z</time>
      </trkpt>
      <trkpt lat="41.995354" lon="1.5197084">
        <time>2022-07-08T15:15:24Z</time>
      </trkpt>
      <trkpt lat="41.995296" lon="1.5197417">
        <time>2022-07-08T15:15:26Z</time>
      </trkpt>
      <trkpt lat="41.995243" lon="1.519772">
        <time>2022-07-08T15:15:28Z</time>
      </trkpt>
      <trkpt lat="41.995186" lon="1.5197971">
        <time>2022-07-08T15:15:30Z</time>
      </trkpt>
      <trkpt lat="41.995106" lon="1.5198187">
        <time>2022-07-08T15:15:33Z</time>
      </trkpt>
      <trkpt lat="41.995056" lon="1.5198184">
        <time>2022-07-08T15:15:35Z</time>
      </trkpt>
      <trkpt lat="41.994987" lon="1.5198038">
        <time>2022-07-08T15:15:38Z</time>
      </trkpt>
      <trkpt lat="41.994926" lon="1.519788">
        <time>2022-07-08T15:15:41Z</time>
      </trkpt>
      <trkpt lat="41.994865" lon="1.51978">
        <time>2022-07-08T15:15:44Z</time>
      </trkpt>
      <trkpt lat="41.994812" lon="1.519777">
        <time>2022-07-08T15:15:47Z</time>
      </trkpt>
      <trkpt lat="41.99477" lon="1.5197654">
        <time>2022-07-08T15:15:51Z</time>
      </trkpt>
      <trkpt lat="41.99531" lon="1.5212884">
        <time>2022-07-08T15:18:24Z</time>
      </trkpt>
      <trkpt lat="41.994907" lon="1.5202488">
        <time>2022-07-08T15:19:27Z</time>
      </trkpt>
      <trkpt lat="41.99492" lon="1.5203531">
        <time>2022-07-08T15:19:32Z</time>
      </trkpt>
      <trkpt lat="41.99495" lon="1.5204327">
        <time>2022-07-08T15:19:35Z</time>
      </trkpt>
      <trkpt lat="41.994987" lon="1.5204984">
        <time>2022-07-08T15:19:38Z</time>
      </trkpt>
      <trkpt lat="41.99501" lon="1.5205407">
        <time>2022-07-08T15:19:41Z</time>
      </trkpt>
      <trkpt lat="41.995052" lon="1.5206563">
        <time>2022-07-08T15:19:46Z</time>
      </trkpt>
      <trkpt lat="41.99508" lon="1.520735">
        <time>2022-07-08T15:19:48Z</time>
      </trkpt>
      <trkpt lat="41.995117" lon="1.5208297">
        <time>2022-07-08T15:19:50Z</time>
      </trkpt>
      <trkpt lat="41.99515" lon="1.520924">
        <time>2022-07-08T15:19:52Z</time>
      </trkpt>
      <trkpt lat="41.995186" lon="1.521022">
        <time>2022-07-08T15:19:54Z</time>
      </trkpt>
      <trkpt lat="41.995224" lon="1.5211273">
        <time>2022-07-08T15:19:56Z</time>
      </trkpt>
      <trkpt lat="41.99525" lon="1.521232">
        <time>2022-07-08T15:19:58Z</time>
      </trkpt>
      <trkpt lat="41.995277" lon="1.5213424">
        <time>2022-07-08T15:20:00Z</time>
      </trkpt>
      <trkpt lat="41.9953" lon="1.521454">
        <time>2022-07-08T15:20:02Z</time>
      </trkpt>
      <trkpt lat="41.995316" lon="1.52157">
        <time>2022-07-08T15:20:04Z</time>
      </trkpt>
      <trkpt lat="41.995323" lon="1.5216973">
        <time>2022-07-08T15:20:06Z</time>
      </trkpt>
      <trkpt lat="41.99532" lon="1.521759">
        <time>2022-07-08T15:20:07Z</time>
      </trkpt>
      <trkpt lat="41.995296" lon="1.5218673">
        <time>2022-07-08T15:20:09Z</time>
      </trkpt>
      <trkpt lat="41.995247" lon="1.5219643">
        <time>2022-07-08T15:20:11Z</time>
      </trkpt>
      <trkpt lat="41.995182" lon="1.522036">
        <time>2022-07-08T15:20:13Z</time>
      </trkpt>
      <trkpt lat="41.99511" lon="1.522094">
        <time>2022-07-08T15:20:15Z</time>
      </trkpt>
      <trkpt lat="41.995033" lon="1.5221543">
        <time>2022-07-08T15:20:17Z</time>
      </trkpt>
      <trkpt lat="41.994957" lon="1.522215">
        <time>2022-07-08T15:20:19Z</time>
      </trkpt>
      <trkpt lat="41.994884" lon="1.5222743">
        <time>2022-07-08T15:20:21Z</time>
      </trkpt>
      <trkpt lat="41.994816" lon="1.522344">
        <time>2022-07-08T15:20:23Z</time>
      </trkpt>
      <trkpt lat="41.994747" lon="1.5224113">
        <time>2022-07-08T15:20:25Z</time>
      </trkpt>
      <trkpt lat="41.99468" lon="1.5224673">
        <time>2022-07-08T15:20:27Z</time>
      </trkpt>
      <trkpt lat="41.99461" lon="1.5225209">
        <time>2022-07-08T15:20:29Z</time>
      </trkpt>
      <trkpt lat="41.994545" lon="1.5225753">
        <time>2022-07-08T15:20:31Z</time>
      </trkpt>
      <trkpt lat="41.994484" lon="1.5226319">
        <time>2022-07-08T15:20:33Z</time>
      </trkpt>
      <trkpt lat="41.99442" lon="1.5226853">
        <time>2022-07-08T15:20:35Z</time>
      </trkpt>
      <trkpt lat="41.994358" lon="1.522743">
        <time>2022-07-08T15:20:37Z</time>
      </trkpt>
      <trkpt lat="41.994297" lon="1.5227985">
        <time>2022-07-08T15:20:39Z</time>
      </trkpt>
      <trkpt lat="41.99424" lon="1.5228525">
        <time>2022-07-08T15:20:41Z</time>
      </trkpt>
      <trkpt lat="41.99418" lon="1.5229065">
        <time>2022-07-08T15:20:43Z</time>
      </trkpt>
      <trkpt lat="41.994118" lon="1.5229636">
        <time>2022-07-08T15:20:45Z</time>
      </trkpt>
      <trkpt lat="41.99406" lon="1.5230162">
        <time>2022-07-08T15:20:47Z</time>
      </trkpt>
      <trkpt lat="41.993996" lon="1.5230713">
        <time>2022-07-08T15:20:49Z</time>
      </trkpt>
      <trkpt lat="41.99393" lon="1.5231326">
        <time>2022-07-08T15:20:51Z</time>
      </trkpt>
      <trkpt lat="41.993874" lon="1.5231962">
        <time>2022-07-08T15:20:53Z</time>
      </trkpt>
      <trkpt lat="41.993828" lon="1.5232732">
        <time>2022-07-08T15:20:55Z</time>
      </trkpt>
      <trkpt lat="41.993786" lon="1.5233625">
        <time>2022-07-08T15:20:57Z</time>
      </trkpt>
      <trkpt lat="41.99376" lon="1.5234619">
        <time>2022-07-08T15:20:59Z</time>
      </trkpt>
      <trkpt lat="41.99374" lon="1.5235672">
        <time>2022-07-08T15:21:01Z</time>
      </trkpt>
      <trkpt lat="41.993736" lon="1.5236739">
        <time>2022-07-08T15:21:03Z</time>
      </trkpt>
      <trkpt lat="41.99374" lon="1.5237836">
        <time>2022-07-08T15:21:05Z</time>
      </trkpt>
      <trkpt lat="41.993748" lon="1.5238903">
        <time>2022-07-08T15:21:07Z</time>
      </trkpt>
      <trkpt lat="41.993755" lon="1.5239949">
        <time>2022-07-08T15:21:09Z</time>
      </trkpt>
      <trkpt lat="41.99375" lon="1.5240976">
        <time>2022-07-08T15:21:11Z</time>
      </trkpt>
      <trkpt lat="41.99375" lon="1.5241961">
        <time>2022-07-08T15:21:13Z</time>
      </trkpt>
      <trkpt lat="41.993755" lon="1.5242902">
        <time>2022-07-08T15:21:15Z</time>
      </trkpt>
      <trkpt lat="41.99376" lon="1.5243765">
        <time>2022-07-08T15:21:17Z</time>
      </trkpt>
      <trkpt lat="41.993767" lon="1.5244545">
        <time>2022-07-08T15:21:19Z</time>
      </trkpt>
      <trkpt lat="41.993782" lon="1.5245268">
        <time>2022-07-08T15:21:21Z</time>
      </trkpt>
      <trkpt lat="41.993797" lon="1.5245916">
        <time>2022-07-08T15:21:23Z</time>
      </trkpt>
      <trkpt lat="41.99381" lon="1.5246859">
        <time>2022-07-08T15:21:26Z</time>
      </trkpt>
      <trkpt lat="41.993816" lon="1.5247672">
        <time>2022-07-08T15:21:29Z</time>
      </trkpt>
      <trkpt lat="41.99382" lon="1.5248518">
        <time>2022-07-08T15:21:32Z</time>
      </trkpt>
      <trkpt lat="41.993816" lon="1.5249412">
        <time>2022-07-08T15:21:35Z</time>
      </trkpt>
      <trkpt lat="41.993813" lon="1.5250195">
        <time>2022-07-08T15:21:38Z</time>
      </trkpt>
      <trkpt lat="41.99382" lon="1.5250982">
        <time>2022-07-08T15:21:41Z</time>
      </trkpt>
      <trkpt lat="41.993828" lon="1.5251749">
        <time>2022-07-08T15:21:44Z</time>
      </trkpt>
      <trkpt lat="41.99384" lon="1.5252435">
        <time>2022-07-08T15:21:47Z</time>
      </trkpt>
      <trkpt lat="41.99384" lon="1.5252994">
        <time>2022-07-08T15:21:52Z</time>
      </trkpt>
      <trkpt lat="41.993843" lon="1.5259466">
        <time>2022-07-09T07:07:26Z</time>
      </trkpt>
      <trkpt lat="41.993843" lon="1.5259466">
        <time>2022-07-09T07:07:26Z</time>
      </trkpt>
      <trkpt lat="41.994003" lon="1.5260984">
        <time>2022-07-09T07:07:27Z</time>
      </trkpt>
      <trkpt lat="41.994003" lon="1.526106">
        <time>2022-07-09T07:07:28Z</time>
      </trkpt>
      <trkpt lat="41.994003" lon="1.5261797">
        <time>2022-07-09T07:07:34Z</time>
      </trkpt>
      <trkpt lat="41.99401" lon="1.526255">
        <time>2022-07-09T07:07:37Z</time>
      </trkpt>
      <trkpt lat="41.994022" lon="1.5263573">
        <time>2022-07-09T07:07:41Z</time>
      </trkpt>
      <trkpt lat="41.994026" lon="1.5264333">
        <time>2022-07-09T07:07:44Z</time>
      </trkpt>
      <trkpt lat="41.994034" lon="1.526505">
        <time>2022-07-09T07:07:47Z</time>
      </trkpt>
      <trkpt lat="41.99404" lon="1.5265772">
        <time>2022-07-09T07:07:50Z</time>
      </trkpt>
      <trkpt lat="41.994053" lon="1.5266486">
        <time>2022-07-09T07:07:53Z</time>
      </trkpt>
      <trkpt lat="41.994064" lon="1.5267162">
        <time>2022-07-09T07:07:56Z</time>
      </trkpt>
      <trkpt lat="41.994072" lon="1.5268123">
        <time>2022-07-09T07:08:00Z</time>
      </trkpt>
      <trkpt lat="41.994076" lon="1.5268869">
        <time>2022-07-09T07:08:03Z</time>
      </trkpt>
      <trkpt lat="41.99408" lon="1.5269599">
        <time>2022-07-09T07:08:06Z</time>
      </trkpt>
      <trkpt lat="41.994095" lon="1.5270512">
        <time>2022-07-09T07:08:10Z</time>
      </trkpt>
      <trkpt lat="41.994102" lon="1.5271236">
        <time>2022-07-09T07:08:13Z</time>
      </trkpt>
      <trkpt lat="41.994114" lon="1.5271969">
        <time>2022-07-09T07:08:16Z</time>
      </trkpt>
      <trkpt lat="41.994125" lon="1.527275">
        <time>2022-07-09T07:08:19Z</time>
      </trkpt>
      <trkpt lat="41.99414" lon="1.527357">
        <time>2022-07-09T07:08:22Z</time>
      </trkpt>
      <trkpt lat="41.994152" lon="1.5274342">
        <time>2022-07-09T07:08:25Z</time>
      </trkpt>
      <trkpt lat="41.994167" lon="1.5275116">
        <time>2022-07-09T07:08:28Z</time>
      </trkpt>
      <trkpt lat="41.994175" lon="1.5275886">
        <time>2022-07-09T07:08:31Z</time>
      </trkpt>
      <trkpt lat="41.994186" lon="1.5276972">
        <time>2022-07-09T07:08:35Z</time>
      </trkpt>
      <trkpt lat="41.994205" lon="1.5277855">
        <time>2022-07-09T07:08:38Z</time>
      </trkpt>
      <trkpt lat="41.994217" lon="1.5278755">
        <time>2022-07-09T07:08:41Z</time>
      </trkpt>
      <trkpt lat="41.99423" lon="1.5279659">
        <time>2022-07-09T07:08:44Z</time>
      </trkpt>
      <trkpt lat="41.994244" lon="1.5280589">
        <time>2022-07-09T07:08:47Z</time>
      </trkpt>
      <trkpt lat="41.99426" lon="1.5281569">
        <time>2022-07-09T07:08:50Z</time>
      </trkpt>
      <trkpt lat="41.994274" lon="1.5282513">
        <time>2022-07-09T07:08:53Z</time>
      </trkpt>
      <trkpt lat="41.99428" lon="1.5283399">
        <time>2022-07-09T07:08:56Z</time>
      </trkpt>
      <trkpt lat="41.99429" lon="1.5284293">
        <time>2022-07-09T07:08:59Z</time>
      </trkpt>
      <trkpt lat="41.9943" lon="1.5285172">
        <time>2022-07-09T07:09:02Z</time>
      </trkpt>
      <trkpt lat="41.994305" lon="1.5286095">
        <time>2022-07-09T07:09:05Z</time>
      </trkpt>
      <trkpt lat="41.994312" lon="1.5286965">
        <time>2022-07-09T07:09:08Z</time>
      </trkpt>
      <trkpt lat="41.994312" lon="1.5287809">
        <time>2022-07-09T07:10:41Z</time>
      </trkpt>
      <trkpt lat="41.994335" lon="1.5288565">
        <time>2022-07-09T07:10:45Z</time>
      </trkpt>
      <trkpt lat="41.994354" lon="1.5289462">
        <time>2022-07-09T07:10:49Z</time>
      </trkpt>
      <trkpt lat="41.994366" lon="1.5290213">
        <time>2022-07-09T07:10:52Z</time>
      </trkpt>
      <trkpt lat="41.994377" lon="1.5290996">
        <time>2022-07-09T07:10:55Z</time>
      </trkpt>
      <trkpt lat="41.994385" lon="1.5291755">
        <time>2022-07-09T07:10:58Z</time>
      </trkpt>
      <trkpt lat="41.994396" lon="1.5292525">
        <time>2022-07-09T07:11:01Z</time>
      </trkpt>
      <trkpt lat="41.994408" lon="1.5293319">
        <time>2022-07-09T07:11:04Z</time>
      </trkpt>
      <trkpt lat="41.99442" lon="1.5294119">
        <time>2022-07-09T07:11:07Z</time>
      </trkpt>
      <trkpt lat="41.99443" lon="1.5294949">
        <time>2022-07-09T07:11:10Z</time>
      </trkpt>
      <trkpt lat="41.994442" lon="1.5295779">
        <time>2022-07-09T07:11:13Z</time>
      </trkpt>
      <trkpt lat="41.994453" lon="1.5296658">
        <time>2022-07-09T07:11:16Z</time>
      </trkpt>
      <trkpt lat="41.994457" lon="1.5297552">
        <time>2022-07-09T07:11:19Z</time>
      </trkpt>
      <trkpt lat="41.99447" lon="1.5298445">
        <time>2022-07-09T07:11:22Z</time>
      </trkpt>
      <trkpt lat="41.994476" lon="1.5299325">
        <time>2022-07-09T07:11:25Z</time>
      </trkpt>
      <trkpt lat="41.994484" lon="1.5300199">
        <time>2022-07-09T07:11:28Z</time>
      </trkpt>
      <trkpt lat="41.99449" lon="1.5301082">
        <time>2022-07-09T07:11:31Z</time>
      </trkpt>
      <trkpt lat="41.994495" lon="1.5302259">
        <time>2022-07-09T07:11:35Z</time>
      </trkpt>
      <trkpt lat="41.99449" lon="1.5303131">
        <time>2022-07-09T07:11:38Z</time>
      </trkpt>
      <trkpt lat="41.994488" lon="1.5304002">
        <time>2022-07-09T07:11:41Z</time>
      </trkpt>
      <trkpt lat="41.99448" lon="1.5304862">
        <time>2022-07-09T07:11:44Z</time>
      </trkpt>
      <trkpt lat="41.994465" lon="1.5305712">
        <time>2022-07-09T07:11:47Z</time>
      </trkpt>
      <trkpt lat="41.994446" lon="1.5306568">
        <time>2022-07-09T07:11:50Z</time>
      </trkpt>
      <trkpt lat="41.994423" lon="1.5307465">
        <time>2022-07-09T07:11:53Z</time>
      </trkpt>
      <trkpt lat="41.9944" lon="1.5308342">
        <time>2022-07-09T07:11:56Z</time>
      </trkpt>
      <trkpt lat="41.99438" lon="1.5308945">
        <time>2022-07-09T07:11:58Z</time>
      </trkpt>
      <trkpt lat="41.99435" lon="1.5309855">
        <time>2022-07-09T07:12:01Z</time>
      </trkpt>
      <trkpt lat="41.994324" lon="1.5310755">
        <time>2022-07-09T07:12:04Z</time>
      </trkpt>
      <trkpt lat="41.994293" lon="1.5311629">
        <time>2022-07-09T07:12:07Z</time>
      </trkpt>
      <trkpt lat="41.99426" lon="1.5312492">
        <time>2022-07-09T07:12:10Z</time>
      </trkpt>
      <trkpt lat="41.99423" lon="1.5313345">
        <time>2022-07-09T07:12:13Z</time>
      </trkpt>
      <trkpt lat="41.9942" lon="1.5314225">
        <time>2022-07-09T07:12:16Z</time>
      </trkpt>
      <trkpt lat="41.994183" lon="1.5315118">
        <time>2022-07-09T07:12:19Z</time>
      </trkpt>
      <trkpt lat="41.994156" lon="1.5316021">
        <time>2022-07-09T07:12:22Z</time>
      </trkpt>
      <trkpt lat="41.994133" lon="1.5316825">
        <time>2022-07-09T07:12:25Z</time>
      </trkpt>
      <trkpt lat="41.99411" lon="1.5317662">
        <time>2022-07-09T07:12:28Z</time>
      </trkpt>
      <trkpt lat="41.994083" lon="1.5318534">
        <time>2022-07-09T07:12:31Z</time>
      </trkpt>
      <trkpt lat="41.994057" lon="1.5319378">
        <time>2022-07-09T07:12:34Z</time>
      </trkpt>
      <trkpt lat="41.994034" lon="1.5320245">
        <time>2022-07-09T07:12:37Z</time>
      </trkpt>
      <trkpt lat="41.994007" lon="1.5321125">
        <time>2022-07-09T07:12:40Z</time>
      </trkpt>
      <trkpt lat="41.993973" lon="1.5322075">
        <time>2022-07-09T07:12:43Z</time>
      </trkpt>
      <trkpt lat="41.993954" lon="1.5322764">
        <time>2022-07-09T07:12:45Z</time>
      </trkpt>
      <trkpt lat="41.993935" lon="1.5323484">
        <time>2022-07-09T07:12:47Z</time>
      </trkpt>
      <trkpt lat="41.99391" lon="1.5324204">
        <time>2022-07-09T07:12:49Z</time>
      </trkpt>
      <trkpt lat="41.99389" lon="1.5324931">
        <time>2022-07-09T07:12:51Z</time>
      </trkpt>
      <trkpt lat="41.993866" lon="1.5325677">
        <time>2022-07-09T07:12:53Z</time>
      </trkpt>
      <trkpt lat="41.993843" lon="1.5326434">
        <time>2022-07-09T07:12:55Z</time>
      </trkpt>
      <trkpt lat="41.99382" lon="1.532721">
        <time>2022-07-09T07:12:57Z</time>
      </trkpt>
      <trkpt lat="41.993793" lon="1.532801">
        <time>2022-07-09T07:12:59Z</time>
      </trkpt>
      <trkpt lat="41.99377" lon="1.5328845">
        <time>2022-07-09T07:13:01Z</time>
      </trkpt>
      <trkpt lat="41.993744" lon="1.5329697">
        <time>2022-07-09T07:13:03Z</time>
      </trkpt>
      <trkpt lat="41.993717" lon="1.5330554">
        <time>2022-07-09T07:13:05Z</time>
      </trkpt>
      <trkpt lat="41.99369" lon="1.5331414">
        <time>2022-07-09T07:13:07Z</time>
      </trkpt>
      <trkpt lat="41.993664" lon="1.5332284">
        <time>2022-07-09T07:13:09Z</time>
      </trkpt>
      <trkpt lat="41.993633" lon="1.5333164">
        <time>2022-07-09T07:13:11Z</time>
      </trkpt>
      <trkpt lat="41.993603" lon="1.533406">
        <time>2022-07-09T07:13:13Z</time>
      </trkpt>
      <trkpt lat="41.993576" lon="1.5334954">
        <time>2022-07-09T07:13:15Z</time>
      </trkpt>
      <trkpt lat="41.99354" lon="1.533586">
        <time>2022-07-09T07:13:17Z</time>
      </trkpt>
      <trkpt lat="41.993507" lon="1.5336821">
        <time>2022-07-09T07:13:19Z</time>
      </trkpt>
      <trkpt lat="41.99347" lon="1.5337797">
        <time>2022-07-09T07:13:21Z</time>
      </trkpt>
      <trkpt lat="41.993435" lon="1.533872">
        <time>2022-07-09T07:13:23Z</time>
      </trkpt>
      <trkpt lat="41.9934" lon="1.533964">
        <time>2022-07-09T07:13:25Z</time>
      </trkpt>
      <trkpt lat="41.993362" lon="1.5340594">
        <time>2022-07-09T07:13:27Z</time>
      </trkpt>
      <trkpt lat="41.993324" lon="1.5341507">
        <time>2022-07-09T07:13:29Z</time>
      </trkpt>
      <trkpt lat="41.993282" lon="1.5342411">
        <time>2022-07-09T07:13:31Z</time>
      </trkpt>
      <trkpt lat="41.993244" lon="1.5343274">
        <time>2022-07-09T07:13:33Z</time>
      </trkpt>
      <trkpt lat="41.99321" lon="1.5344157">
        <time>2022-07-09T07:13:35Z</time>
      </trkpt>
      <trkpt lat="41.99317" lon="1.534508">
        <time>2022-07-09T07:13:37Z</time>
      </trkpt>
      <trkpt lat="41.993137" lon="1.534593">
        <time>2022-07-09T07:13:39Z</time>
      </trkpt>
      <trkpt lat="41.9931" lon="1.5346804">
        <time>2022-07-09T07:13:41Z</time>
      </trkpt>
      <trkpt lat="41.993057" lon="1.5347757">
        <time>2022-07-09T07:13:43Z</time>
      </trkpt>
      <trkpt lat="41.993015" lon="1.5348737">
        <time>2022-07-09T07:13:45Z</time>
      </trkpt>
      <trkpt lat="41.992977" lon="1.534975">
        <time>2022-07-09T07:13:47Z</time>
      </trkpt>
      <trkpt lat="41.992935" lon="1.5350751">
        <time>2022-07-09T07:13:49Z</time>
      </trkpt>
      <trkpt lat="41.992893" lon="1.5351737">
        <time>2022-07-09T07:13:51Z</time>
      </trkpt>
      <trkpt lat="41.992855" lon="1.5352724">
        <time>2022-07-09T07:13:53Z</time>
      </trkpt>
      <trkpt lat="41.992817" lon="1.5353717">
        <time>2022-07-09T07:13:55Z</time>
      </trkpt>
      <trkpt lat="41.99278" lon="1.5354717">
        <time>2022-07-09T07:13:57Z</time>
      </trkpt>
      <trkpt lat="41.99274" lon="1.535571">
        <time>2022-07-09T07:13:59Z</time>
      </trkpt>
      <trkpt lat="41.9927" lon="1.5356697">
        <time>2022-07-09T07:14:01Z</time>
      </trkpt>
      <trkpt lat="41.992657" lon="1.5357686">
        <time>2022-07-09T07:14:03Z</time>
      </trkpt>
      <trkpt lat="41.99262" lon="1.5358673">
        <time>2022-07-09T07:14:05Z</time>
      </trkpt>
      <trkpt lat="41.99258" lon="1.5359637">
        <time>2022-07-09T07:14:07Z</time>
      </trkpt>
      <trkpt lat="41.992542" lon="1.536062">
        <time>2022-07-09T07:14:09Z</time>
      </trkpt>
      <trkpt lat="41.9925" lon="1.5361606">
        <time>2022-07-09T07:14:11Z</time>
      </trkpt>
      <trkpt lat="41.99246" lon="1.5362587">
        <time>2022-07-09T07:14:13Z</time>
      </trkpt>
      <trkpt lat="41.992416" lon="1.5363573">
        <time>2022-07-09T07:14:15Z</time>
      </trkpt>
      <trkpt lat="41.99237" lon="1.5364547">
        <time>2022-07-09T07:14:17Z</time>
      </trkpt>
      <trkpt lat="41.992325" lon="1.536549">
        <time>2022-07-09T07:14:19Z</time>
      </trkpt>
      <trkpt lat="41.99228" lon="1.5366436">
        <time>2022-07-09T07:14:21Z</time>
      </trkpt>
      <trkpt lat="41.99223" lon="1.536742">
        <time>2022-07-09T07:14:23Z</time>
      </trkpt>
      <trkpt lat="41.992188" lon="1.5368433">
        <time>2022-07-09T07:14:25Z</time>
      </trkpt>
      <trkpt lat="41.992146" lon="1.5369469">
        <time>2022-07-09T07:14:27Z</time>
      </trkpt>
      <trkpt lat="41.9921" lon="1.5370493">
        <time>2022-07-09T07:14:29Z</time>
      </trkpt>
      <trkpt lat="41.99205" lon="1.5371493">
        <time>2022-07-09T07:14:31Z</time>
      </trkpt>
      <trkpt lat="41.992023" lon="1.5371963">
        <time>2022-07-09T07:14:32Z</time>
      </trkpt>
      <trkpt lat="41.99196" lon="1.5372792">
        <time>2022-07-09T07:14:34Z</time>
      </trkpt>
      <trkpt lat="41.991882" lon="1.5373403">
        <time>2022-07-09T07:14:36Z</time>
      </trkpt>
      <trkpt lat="41.991795" lon="1.5373639">
        <time>2022-07-09T07:14:38Z</time>
      </trkpt>
      <trkpt lat="41.991707" lon="1.5373483">
        <time>2022-07-09T07:14:40Z</time>
      </trkpt>
      <trkpt lat="41.991623" lon="1.5372993">
        <time>2022-07-09T07:14:42Z</time>
      </trkpt>
      <trkpt lat="41.991543" lon="1.5372186">
        <time>2022-07-09T07:14:44Z</time>
      </trkpt>
      <trkpt lat="41.99147" lon="1.5371093">
        <time>2022-07-09T07:14:46Z</time>
      </trkpt>
      <trkpt lat="41.991436" lon="1.5370406">
        <time>2022-07-09T07:14:47Z</time>
      </trkpt>
      <trkpt lat="41.99141" lon="1.5369713">
        <time>2022-07-09T07:14:48Z</time>
      </trkpt>
      <trkpt lat="41.991383" lon="1.536896">
        <time>2022-07-09T07:14:49Z</time>
      </trkpt>
      <trkpt lat="41.991367" lon="1.5368156">
        <time>2022-07-09T07:14:50Z</time>
      </trkpt>
      <trkpt lat="41.991352" lon="1.5367316">
        <time>2022-07-09T07:14:51Z</time>
      </trkpt>
      <trkpt lat="41.99135" lon="1.536644">
        <time>2022-07-09T07:14:52Z</time>
      </trkpt>
      <trkpt lat="41.99135" lon="1.5365473">
        <time>2022-07-09T07:14:53Z</time>
      </trkpt>
      <trkpt lat="41.991356" lon="1.5364573">
        <time>2022-07-09T07:14:54Z</time>
      </trkpt>
      <trkpt lat="41.991367" lon="1.5363673">
        <time>2022-07-09T07:14:55Z</time>
      </trkpt>
      <trkpt lat="41.991394" lon="1.536275">
        <time>2022-07-09T07:14:56Z</time>
      </trkpt>
      <trkpt lat="41.99143" lon="1.536188">
        <time>2022-07-09T07:14:57Z</time>
      </trkpt>
      <trkpt lat="41.99147" lon="1.5361077">
        <time>2022-07-09T07:14:58Z</time>
      </trkpt>
      <trkpt lat="41.99152" lon="1.5360377">
        <time>2022-07-09T07:14:59Z</time>
      </trkpt>
      <trkpt lat="41.991573" lon="1.535983">
        <time>2022-07-09T07:15:00Z</time>
      </trkpt>
      <trkpt lat="41.991634" lon="1.5359443">
        <time>2022-07-09T07:15:01Z</time>
      </trkpt>
      <trkpt lat="41.991703" lon="1.535924">
        <time>2022-07-09T07:15:02Z</time>
      </trkpt>
      <trkpt lat="41.99177" lon="1.5359226">
        <time>2022-07-09T07:15:03Z</time>
      </trkpt>
      <trkpt lat="41.99184" lon="1.535938">
        <time>2022-07-09T07:15:04Z</time>
      </trkpt>
      <trkpt lat="41.9919" lon="1.5359637">
        <time>2022-07-09T07:15:05Z</time>
      </trkpt>
      <trkpt lat="41.991962" lon="1.5360034">
        <time>2022-07-09T07:15:06Z</time>
      </trkpt>
      <trkpt lat="41.992027" lon="1.5360496">
        <time>2022-07-09T07:15:07Z</time>
      </trkpt>
      <trkpt lat="41.99209" lon="1.5360993">
        <time>2022-07-09T07:15:08Z</time>
      </trkpt>
      <trkpt lat="41.99215" lon="1.5361507">
        <time>2022-07-09T07:15:09Z</time>
      </trkpt>
      <trkpt lat="41.99221" lon="1.536204">
        <time>2022-07-09T07:15:10Z</time>
      </trkpt>
      <trkpt lat="41.992264" lon="1.536256">
        <time>2022-07-09T07:15:11Z</time>
      </trkpt>
      <trkpt lat="41.99232" lon="1.536304">
        <time>2022-07-09T07:15:12Z</time>
      </trkpt>
      <trkpt lat="41.992386" lon="1.536355">
        <time>2022-07-09T07:15:13Z</time>
      </trkpt>
      <trkpt lat="41.992447" lon="1.5364046">
        <time>2022-07-09T07:15:14Z</time>
      </trkpt>
      <trkpt lat="41.992508" lon="1.5364532">
        <time>2022-07-09T07:15:15Z</time>
      </trkpt>
      <trkpt lat="41.992573" lon="1.5365013">
        <time>2022-07-09T07:15:16Z</time>
      </trkpt>
      <trkpt lat="41.99263" lon="1.5365449">
        <time>2022-07-09T07:15:17Z</time>
      </trkpt>
      <trkpt lat="41.992695" lon="1.5365913">
        <time>2022-07-09T07:15:18Z</time>
      </trkpt>
      <trkpt lat="41.99276" lon="1.536636">
        <time>2022-07-09T07:15:19Z</time>
      </trkpt>
      <trkpt lat="41.99283" lon="1.5366796">
        <time>2022-07-09T07:15:20Z</time>
      </trkpt>
      <trkpt lat="41.992897" lon="1.5367229">
        <time>2022-07-09T07:15:21Z</time>
      </trkpt>
      <trkpt lat="41.992966" lon="1.5367666">
        <time>2022-07-09T07:15:22Z</time>
      </trkpt>
      <trkpt lat="41.99304" lon="1.5368116">
        <time>2022-07-09T07:15:23Z</time>
      </trkpt>
      <trkpt lat="41.99311" lon="1.5368563">
        <time>2022-07-09T07:15:24Z</time>
      </trkpt>
      <trkpt lat="41.993183" lon="1.5369009">
        <time>2022-07-09T07:15:25Z</time>
      </trkpt>
      <trkpt lat="41.993256" lon="1.5369452">
        <time>2022-07-09T07:15:26Z</time>
      </trkpt>
      <trkpt lat="41.99333" lon="1.5369899">
        <time>2022-07-09T07:15:27Z</time>
      </trkpt>
      <trkpt lat="41.993404" lon="1.5370349">
        <time>2022-07-09T07:15:28Z</time>
      </trkpt>
      <trkpt lat="41.993484" lon="1.5370812">
        <time>2022-07-09T07:15:29Z</time>
      </trkpt>
      <trkpt lat="41.993565" lon="1.5371282">
        <time>2022-07-09T07:15:30Z</time>
      </trkpt>
      <trkpt lat="41.99365" lon="1.5371749">
        <time>2022-07-09T07:15:31Z</time>
      </trkpt>
      <trkpt lat="41.993736" lon="1.5372219">
        <time>2022-07-09T07:15:32Z</time>
      </trkpt>
      <trkpt lat="41.993828" lon="1.5372692">
        <time>2022-07-09T07:15:33Z</time>
      </trkpt>
      <trkpt lat="41.99392" lon="1.5373173">
        <time>2022-07-09T07:15:34Z</time>
      </trkpt>
      <trkpt lat="41.99402" lon="1.5373663">
        <time>2022-07-09T07:15:35Z</time>
      </trkpt>
      <trkpt lat="41.994118" lon="1.5374175">
        <time>2022-07-09T07:15:36Z</time>
      </trkpt>
      <trkpt lat="41.994217" lon="1.5374722">
        <time>2022-07-09T07:15:37Z</time>
      </trkpt>
      <trkpt lat="41.99432" lon="1.5375298">
        <time>2022-07-09T07:15:38Z</time>
      </trkpt>
      <trkpt lat="41.994423" lon="1.5375882">
        <time>2022-07-09T07:15:39Z</time>
      </trkpt>
      <trkpt lat="41.994526" lon="1.5376465">
        <time>2022-07-09T07:15:40Z</time>
      </trkpt>
      <trkpt lat="41.99464" lon="1.5377092">
        <time>2022-07-09T07:15:41Z</time>
      </trkpt>
      <trkpt lat="41.994747" lon="1.5377682">
        <time>2022-07-09T07:15:42Z</time>
      </trkpt>
      <trkpt lat="41.994858" lon="1.5378308">
        <time>2022-07-09T07:15:43Z</time>
      </trkpt>
      <trkpt lat="41.994965" lon="1.5378991">
        <time>2022-07-09T07:15:44Z</time>
      </trkpt>
      <trkpt lat="41.995075" lon="1.5379726">
        <time>2022-07-09T07:15:45Z</time>
      </trkpt>
      <trkpt lat="41.995182" lon="1.5380511">
        <time>2022-07-09T07:15:46Z</time>
      </trkpt>
      <trkpt lat="41.995396" lon="1.5382255">
        <time>2022-07-09T07:15:48Z</time>
      </trkpt>
      <trkpt lat="41.995502" lon="1.5383198">
        <time>2022-07-09T07:15:49Z</time>
      </trkpt>
      <trkpt lat="41.99561" lon="1.5384185">
        <time>2022-07-09T07:15:50Z</time>
      </trkpt>
      <trkpt lat="41.995712" lon="1.5385221">
        <time>2022-07-09T07:15:51Z</time>
      </trkpt>
      <trkpt lat="41.995815" lon="1.5386305">
        <time>2022-07-09T07:15:52Z</time>
      </trkpt>
      <trkpt lat="41.995914" lon="1.5387431">
        <time>2022-07-09T07:15:53Z</time>
      </trkpt>
      <trkpt lat="41.996014" lon="1.5388604">
        <time>2022-07-09T07:15:54Z</time>
      </trkpt>
      <trkpt lat="41.996113" lon="1.5389814">
        <time>2022-07-09T07:15:55Z</time>
      </trkpt>
      <trkpt lat="41.99621" lon="1.5391058">
        <time>2022-07-09T07:15:56Z</time>
      </trkpt>
      <trkpt lat="41.996304" lon="1.5392321">
        <time>2022-07-09T07:15:57Z</time>
      </trkpt>
      <trkpt lat="41.9964" lon="1.5393602">
        <time>2022-07-09T07:15:58Z</time>
      </trkpt>
      <trkpt lat="41.996494" lon="1.5394895">
        <time>2022-07-09T07:15:59Z</time>
      </trkpt>
      <trkpt lat="41.99659" lon="1.5396178">
        <time>2022-07-09T07:16:00Z</time>
      </trkpt>
      <trkpt lat="41.996685" lon="1.5397451">
        <time>2022-07-09T07:16:01Z</time>
      </trkpt>
      <trkpt lat="41.996784" lon="1.5398701">
        <time>2022-07-09T07:16:02Z</time>
      </trkpt>
      <trkpt lat="41.99689" lon="1.5399917">
        <time>2022-07-09T07:16:03Z</time>
      </trkpt>
      <trkpt lat="41.996994" lon="1.5401121">
        <time>2022-07-09T07:16:04Z</time>
      </trkpt>
      <trkpt lat="41.997097" lon="1.5402304">
        <time>2022-07-09T07:16:05Z</time>
      </trkpt>
      <trkpt lat="41.997204" lon="1.5403458">
        <time>2022-07-09T07:16:06Z</time>
      </trkpt>
      <trkpt lat="41.99731" lon="1.5404592">
        <time>2022-07-09T07:16:07Z</time>
      </trkpt>
      <trkpt lat="41.997417" lon="1.5405701">
        <time>2022-07-09T07:16:08Z</time>
      </trkpt>
      <trkpt lat="41.997528" lon="1.5406754">
        <time>2022-07-09T07:16:09Z</time>
      </trkpt>
      <trkpt lat="41.997646" lon="1.540778">
        <time>2022-07-09T07:16:10Z</time>
      </trkpt>
      <trkpt lat="41.99776" lon="1.5408758">
        <time>2022-07-09T07:16:11Z</time>
      </trkpt>
      <trkpt lat="41.997875" lon="1.5409721">
        <time>2022-07-09T07:16:12Z</time>
      </trkpt>
      <trkpt lat="41.997993" lon="1.5410657">
        <time>2022-07-09T07:16:13Z</time>
      </trkpt>
      <trkpt lat="41.998116" lon="1.5411544">
        <time>2022-07-09T07:16:14Z</time>
      </trkpt>
      <trkpt lat="41.998234" lon="1.5412394">
        <time>2022-07-09T07:16:15Z</time>
      </trkpt>
      <trkpt lat="41.998356" lon="1.5413214">
        <time>2022-07-09T07:16:16Z</time>
      </trkpt>
      <trkpt lat="41.998474" lon="1.5414021">
        <time>2022-07-09T07:16:17Z</time>
      </trkpt>
      <trkpt lat="41.998596" lon="1.5414827">
        <time>2022-07-09T07:16:18Z</time>
      </trkpt>
      <trkpt lat="41.99872" lon="1.5415641">
        <time>2022-07-09T07:16:19Z</time>
      </trkpt>
      <trkpt lat="41.998837" lon="1.5416467">
        <time>2022-07-09T07:16:20Z</time>
      </trkpt>
      <trkpt lat="41.99896" lon="1.5417317">
        <time>2022-07-09T07:16:21Z</time>
      </trkpt>
      <trkpt lat="41.999077" lon="1.5418204">
        <time>2022-07-09T07:16:22Z</time>
      </trkpt>
      <trkpt lat="41.99919" lon="1.541913">
        <time>2022-07-09T07:16:23Z</time>
      </trkpt>
      <trkpt lat="41.999306" lon="1.542009">
        <time>2022-07-09T07:16:24Z</time>
      </trkpt>
      <trkpt lat="41.999416" lon="1.5421087">
        <time>2022-07-09T07:16:25Z</time>
      </trkpt>
      <trkpt lat="41.999523" lon="1.542212">
        <time>2022-07-09T07:16:26Z</time>
      </trkpt>
      <trkpt lat="41.999626" lon="1.5423187">
        <time>2022-07-09T07:16:27Z</time>
      </trkpt>
      <trkpt lat="41.999725" lon="1.5424284">
        <time>2022-07-09T07:16:28Z</time>
      </trkpt>
      <trkpt lat="41.999825" lon="1.542541">
        <time>2022-07-09T07:16:29Z</time>
      </trkpt>
      <trkpt lat="41.999916" lon="1.5426563">
        <time>2022-07-09T07:16:30Z</time>
      </trkpt>
      <trkpt lat="42.000004" lon="1.5427736">
        <time>2022-07-09T07:16:31Z</time>
      </trkpt>
      <trkpt lat="42.000084" lon="1.5428929">
        <time>2022-07-09T07:16:32Z</time>
      </trkpt>
      <trkpt lat="42.000164" lon="1.5430146">
        <time>2022-07-09T07:16:33Z</time>
      </trkpt>
      <trkpt lat="42.000237" lon="1.543137">
        <time>2022-07-09T07:16:34Z</time>
      </trkpt>
      <trkpt lat="42.00031" lon="1.5432596">
        <time>2022-07-09T07:16:35Z</time>
      </trkpt>
      <trkpt lat="42.000378" lon="1.543383">
        <time>2022-07-09T07:16:36Z</time>
      </trkpt>
      <trkpt lat="42.000443" lon="1.5435053">
        <time>2022-07-09T07:16:37Z</time>
      </trkpt>
      <trkpt lat="42.000507" lon="1.5436273">
        <time>2022-07-09T07:16:38Z</time>
      </trkpt>
      <trkpt lat="42.00057" lon="1.5437493">
        <time>2022-07-09T07:16:39Z</time>
      </trkpt>
      <trkpt lat="42.000626" lon="1.54387">
        <time>2022-07-09T07:16:40Z</time>
      </trkpt>
      <trkpt lat="42.000683" lon="1.54399">
        <time>2022-07-09T07:16:41Z</time>
      </trkpt>
      <trkpt lat="42.00074" lon="1.5441077">
        <time>2022-07-09T07:16:42Z</time>
      </trkpt>
      <trkpt lat="42.000797" lon="1.5442239">
        <time>2022-07-09T07:16:43Z</time>
      </trkpt>
      <trkpt lat="42.00085" lon="1.5443406">
        <time>2022-07-09T07:16:44Z</time>
      </trkpt>
      <trkpt lat="42.000908" lon="1.5444576">
        <time>2022-07-09T07:16:45Z</time>
      </trkpt>
      <trkpt lat="42.00096" lon="1.5445746">
        <time>2022-07-09T07:16:46Z</time>
      </trkpt>
      <trkpt lat="42.001015" lon="1.5446903">
        <time>2022-07-09T07:16:47Z</time>
      </trkpt>
      <trkpt lat="42.001072" lon="1.5448056">
        <time>2022-07-09T07:16:48Z</time>
      </trkpt>
      <trkpt lat="42.00118" lon="1.5450397">
        <time>2022-07-09T07:16:50Z</time>
      </trkpt>
      <trkpt lat="42.001236" lon="1.5451579">
        <time>2022-07-09T07:16:51Z</time>
      </trkpt>
      <trkpt lat="42.001286" lon="1.545278">
        <time>2022-07-09T07:16:52Z</time>
      </trkpt>
      <trkpt lat="42.00134" lon="1.5453995">
        <time>2022-07-09T07:16:53Z</time>
      </trkpt>
      <trkpt lat="42.00139" lon="1.5455229">
        <time>2022-07-09T07:16:54Z</time>
      </trkpt>
      <trkpt lat="42.00144" lon="1.5456486">
        <time>2022-07-09T07:16:55Z</time>
      </trkpt>
      <trkpt lat="42.001488" lon="1.5457772">
        <time>2022-07-09T07:16:56Z</time>
      </trkpt>
      <trkpt lat="42.001534" lon="1.5459079">
        <time>2022-07-09T07:16:57Z</time>
      </trkpt>
      <trkpt lat="42.001575" lon="1.5460399">
        <time>2022-07-09T07:16:58Z</time>
      </trkpt>
      <trkpt lat="42.001614" lon="1.5461736">
        <time>2022-07-09T07:16:59Z</time>
      </trkpt>
      <trkpt lat="42.00165" lon="1.5463085">
        <time>2022-07-09T07:17:00Z</time>
      </trkpt>
      <trkpt lat="42.001682" lon="1.5464456">
        <time>2022-07-09T07:17:01Z</time>
      </trkpt>
      <trkpt lat="42.001713" lon="1.5465746">
        <time>2022-07-09T07:17:02Z</time>
      </trkpt>
      <trkpt lat="42.001736" lon="1.5467175">
        <time>2022-07-09T07:17:03Z</time>
      </trkpt>
      <trkpt lat="42.00176" lon="1.5468602">
        <time>2022-07-09T07:17:04Z</time>
      </trkpt>
      <trkpt lat="42.001778" lon="1.5470012">
        <time>2022-07-09T07:17:05Z</time>
      </trkpt>
      <trkpt lat="42.001797" lon="1.5471408">
        <time>2022-07-09T07:17:06Z</time>
      </trkpt>
      <trkpt lat="42.001812" lon="1.5472698">
        <time>2022-07-09T07:17:07Z</time>
      </trkpt>
      <trkpt lat="42.001827" lon="1.5474008">
        <time>2022-07-09T07:17:08Z</time>
      </trkpt>
      <trkpt lat="42.001842" lon="1.5475318">
        <time>2022-07-09T07:17:09Z</time>
      </trkpt>
      <trkpt lat="42.001858" lon="1.5476623">
        <time>2022-07-09T07:17:10Z</time>
      </trkpt>
      <trkpt lat="42.001873" lon="1.5477912">
        <time>2022-07-09T07:17:11Z</time>
      </trkpt>
      <trkpt lat="42.001884" lon="1.5479189">
        <time>2022-07-09T07:17:12Z</time>
      </trkpt>
      <trkpt lat="42.0019" lon="1.5480535">
        <time>2022-07-09T07:17:13Z</time>
      </trkpt>
      <trkpt lat="42.001915" lon="1.5481832">
        <time>2022-07-09T07:17:14Z</time>
      </trkpt>
      <trkpt lat="42.001926" lon="1.5483092">
        <time>2022-07-09T07:17:15Z</time>
      </trkpt>
      <trkpt lat="42.001938" lon="1.5484325">
        <time>2022-07-09T07:17:16Z</time>
      </trkpt>
      <trkpt lat="42.00195" lon="1.5485538">
        <time>2022-07-09T07:17:17Z</time>
      </trkpt>
      <trkpt lat="42.00196" lon="1.5486655">
        <time>2022-07-09T07:17:18Z</time>
      </trkpt>
      <trkpt lat="42.001976" lon="1.5487782">
        <time>2022-07-09T07:17:19Z</time>
      </trkpt>
      <trkpt lat="42.001987" lon="1.5488985">
        <time>2022-07-09T07:17:20Z</time>
      </trkpt>
      <trkpt lat="42.002" lon="1.5490161">
        <time>2022-07-09T07:17:21Z</time>
      </trkpt>
      <trkpt lat="42.002014" lon="1.5491241">
        <time>2022-07-09T07:17:22Z</time>
      </trkpt>
      <trkpt lat="42.002026" lon="1.5492325">
        <time>2022-07-09T07:17:23Z</time>
      </trkpt>
      <trkpt lat="42.002037" lon="1.5493472">
        <time>2022-07-09T07:17:24Z</time>
      </trkpt>
      <trkpt lat="42.002045" lon="1.5494528">
        <time>2022-07-09T07:17:25Z</time>
      </trkpt>
      <trkpt lat="42.002056" lon="1.5495661">
        <time>2022-07-09T07:17:26Z</time>
      </trkpt>
      <trkpt lat="42.002064" lon="1.5496771">
        <time>2022-07-09T07:17:27Z</time>
      </trkpt>
      <trkpt lat="42.002064" lon="1.5497859">
        <time>2022-07-09T07:17:28Z</time>
      </trkpt>
      <trkpt lat="42.002064" lon="1.5498865">
        <time>2022-07-09T07:17:29Z</time>
      </trkpt>
      <trkpt lat="42.00206" lon="1.5499945">
        <time>2022-07-09T07:17:30Z</time>
      </trkpt>
      <trkpt lat="42.00205" lon="1.5500997">
        <time>2022-07-09T07:17:31Z</time>
      </trkpt>
      <trkpt lat="42.002026" lon="1.5501945">
        <time>2022-07-09T07:17:32Z</time>
      </trkpt>
      <trkpt lat="42.001995" lon="1.5502841">
        <time>2022-07-09T07:17:33Z</time>
      </trkpt>
      <trkpt lat="42.001953" lon="1.5503705">
        <time>2022-07-09T07:17:34Z</time>
      </trkpt>
      <trkpt lat="42.001904" lon="1.5504491">
        <time>2022-07-09T07:17:35Z</time>
      </trkpt>
      <trkpt lat="42.00185" lon="1.5505234">
        <time>2022-07-09T07:17:36Z</time>
      </trkpt>
      <trkpt lat="42.001797" lon="1.5505941">
        <time>2022-07-09T07:17:37Z</time>
      </trkpt>
      <trkpt lat="42.001743" lon="1.5506641">
        <time>2022-07-09T07:17:38Z</time>
      </trkpt>
      <trkpt lat="42.001694" lon="1.5507284">
        <time>2022-07-09T07:17:39Z</time>
      </trkpt>
      <trkpt lat="42.001644" lon="1.5507958">
        <time>2022-07-09T07:17:40Z</time>
      </trkpt>
      <trkpt lat="42.001595" lon="1.5508667">
        <time>2022-07-09T07:17:41Z</time>
      </trkpt>
      <trkpt lat="42.00155" lon="1.5509491">
        <time>2022-07-09T07:17:42Z</time>
      </trkpt>
      <trkpt lat="42.00151" lon="1.5510294">
        <time>2022-07-09T07:17:43Z</time>
      </trkpt>
      <trkpt lat="42.00148" lon="1.551115">
        <time>2022-07-09T07:17:44Z</time>
      </trkpt>
      <trkpt lat="42.001453" lon="1.5512037">
        <time>2022-07-09T07:17:45Z</time>
      </trkpt>
      <trkpt lat="42.00144" lon="1.5513027">
        <time>2022-07-09T07:17:46Z</time>
      </trkpt>
      <trkpt lat="42.00143" lon="1.5514021">
        <time>2022-07-09T07:17:47Z</time>
      </trkpt>
      <trkpt lat="42.001434" lon="1.5515004">
        <time>2022-07-09T07:17:48Z</time>
      </trkpt>
      <trkpt lat="42.001446" lon="1.5515968">
        <time>2022-07-09T07:17:49Z</time>
      </trkpt>
      <trkpt lat="42.00147" lon="1.5516907">
        <time>2022-07-09T07:17:50Z</time>
      </trkpt>
      <trkpt lat="42.0015" lon="1.551782">
        <time>2022-07-09T07:17:51Z</time>
      </trkpt>
      <trkpt lat="42.001537" lon="1.5518681">
        <time>2022-07-09T07:17:52Z</time>
      </trkpt>
      <trkpt lat="42.001644" lon="1.5520251">
        <time>2022-07-09T07:17:54Z</time>
      </trkpt>
      <trkpt lat="42.001705" lon="1.5520984">
        <time>2022-07-09T07:17:55Z</time>
      </trkpt>
      <trkpt lat="42.00177" lon="1.5521708">
        <time>2022-07-09T07:17:56Z</time>
      </trkpt>
      <trkpt lat="42.00184" lon="1.552245">
        <time>2022-07-09T07:17:57Z</time>
      </trkpt>
      <trkpt lat="42.001904" lon="1.552324">
        <time>2022-07-09T07:17:58Z</time>
      </trkpt>
      <trkpt lat="42.00197" lon="1.552409">
        <time>2022-07-09T07:17:59Z</time>
      </trkpt>
      <trkpt lat="42.002026" lon="1.5525024">
        <time>2022-07-09T07:18:00Z</time>
      </trkpt>
      <trkpt lat="42.002075" lon="1.5526034">
        <time>2022-07-09T07:18:01Z</time>
      </trkpt>
      <trkpt lat="42.002117" lon="1.5527107">
        <time>2022-07-09T07:18:02Z</time>
      </trkpt>
      <trkpt lat="42.00215" lon="1.5528233">
        <time>2022-07-09T07:18:03Z</time>
      </trkpt>
      <trkpt lat="42.00218" lon="1.5529394">
        <time>2022-07-09T07:18:04Z</time>
      </trkpt>
      <trkpt lat="42.0022" lon="1.5530577">
        <time>2022-07-09T07:18:05Z</time>
      </trkpt>
      <trkpt lat="42.00222" lon="1.5531697">
        <time>2022-07-09T07:18:06Z</time>
      </trkpt>
      <trkpt lat="42.002235" lon="1.5532846">
        <time>2022-07-09T07:18:07Z</time>
      </trkpt>
      <trkpt lat="42.00225" lon="1.5534106">
        <time>2022-07-09T07:18:08Z</time>
      </trkpt>
      <trkpt lat="42.00226" lon="1.5535353">
        <time>2022-07-09T07:18:09Z</time>
      </trkpt>
      <trkpt lat="42.00226" lon="1.5536587">
        <time>2022-07-09T07:18:10Z</time>
      </trkpt>
      <trkpt lat="42.00225" lon="1.5537823">
        <time>2022-07-09T07:18:11Z</time>
      </trkpt>
      <trkpt lat="42.00224" lon="1.5538967">
        <time>2022-07-09T07:18:12Z</time>
      </trkpt>
      <trkpt lat="42.00222" lon="1.5540186">
        <time>2022-07-09T07:18:13Z</time>
      </trkpt>
      <trkpt lat="42.002197" lon="1.5541363">
        <time>2022-07-09T07:18:14Z</time>
      </trkpt>
      <trkpt lat="42.002163" lon="1.554248">
        <time>2022-07-09T07:18:15Z</time>
      </trkpt>
      <trkpt lat="42.002125" lon="1.5543534">
        <time>2022-07-09T07:18:16Z</time>
      </trkpt>
      <trkpt lat="42.002083" lon="1.5544534">
        <time>2022-07-09T07:18:17Z</time>
      </trkpt>
      <trkpt lat="42.002037" lon="1.5545493">
        <time>2022-07-09T07:18:18Z</time>
      </trkpt>
      <trkpt lat="42.00199" lon="1.5546427">
        <time>2022-07-09T07:18:19Z</time>
      </trkpt>
      <trkpt lat="42.001945" lon="1.5547353">
        <time>2022-07-09T07:18:20Z</time>
      </trkpt>
      <trkpt lat="42.001907" lon="1.5548227">
        <time>2022-07-09T07:18:21Z</time>
      </trkpt>
      <trkpt lat="42.00187" lon="1.5549133">
        <time>2022-07-09T07:18:22Z</time>
      </trkpt>
      <trkpt lat="42.001835" lon="1.5550137">
        <time>2022-07-09T07:18:23Z</time>
      </trkpt>
      <trkpt lat="42.001804" lon="1.5551143">
        <time>2022-07-09T07:18:24Z</time>
      </trkpt>
      <trkpt lat="42.001774" lon="1.5552156">
        <time>2022-07-09T07:18:25Z</time>
      </trkpt>
      <trkpt lat="42.001755" lon="1.5553113">
        <time>2022-07-09T07:18:26Z</time>
      </trkpt>
      <trkpt lat="42.001736" lon="1.5554106">
        <time>2022-07-09T07:18:27Z</time>
      </trkpt>
      <trkpt lat="42.00172" lon="1.5555186">
        <time>2022-07-09T07:18:28Z</time>
      </trkpt>
      <trkpt lat="42.00171" lon="1.5556263">
        <time>2022-07-09T07:18:29Z</time>
      </trkpt>
      <trkpt lat="42.0017" lon="1.5557352">
        <time>2022-07-09T07:18:30Z</time>
      </trkpt>
      <trkpt lat="42.001698" lon="1.5558443">
        <time>2022-07-09T07:18:31Z</time>
      </trkpt>
      <trkpt lat="42.001705" lon="1.5559533">
        <time>2022-07-09T07:18:32Z</time>
      </trkpt>
      <trkpt lat="42.00171" lon="1.556057">
        <time>2022-07-09T07:18:33Z</time>
      </trkpt>
      <trkpt lat="42.001724" lon="1.5561696">
        <time>2022-07-09T07:18:34Z</time>
      </trkpt>
      <trkpt lat="42.001743" lon="1.5562803">
        <time>2022-07-09T07:18:35Z</time>
      </trkpt>
      <trkpt lat="42.00177" lon="1.5563889">
        <time>2022-07-09T07:18:36Z</time>
      </trkpt>
      <trkpt lat="42.001797" lon="1.5564972">
        <time>2022-07-09T07:18:37Z</time>
      </trkpt>
      <trkpt lat="42.001823" lon="1.5565976">
        <time>2022-07-09T07:18:38Z</time>
      </trkpt>
      <trkpt lat="42.001858" lon="1.5567079">
        <time>2022-07-09T07:18:39Z</time>
      </trkpt>
      <trkpt lat="42.00189" lon="1.5568179">
        <time>2022-07-09T07:18:40Z</time>
      </trkpt>
      <trkpt lat="42.00192" lon="1.55693">
        <time>2022-07-09T07:18:41Z</time>
      </trkpt>
      <trkpt lat="42.00195" lon="1.5570436">
        <time>2022-07-09T07:18:42Z</time>
      </trkpt>
      <trkpt lat="42.001976" lon="1.5571595">
        <time>2022-07-09T07:18:43Z</time>
      </trkpt>
      <trkpt lat="42.002003" lon="1.5572772">
        <time>2022-07-09T07:18:44Z</time>
      </trkpt>
      <trkpt lat="42.00202" lon="1.5573959">
        <time>2022-07-09T07:18:45Z</time>
      </trkpt>
      <trkpt lat="42.002033" lon="1.5575153">
        <time>2022-07-09T07:18:46Z</time>
      </trkpt>
      <trkpt lat="42.002045" lon="1.5576355">
        <time>2022-07-09T07:18:47Z</time>
      </trkpt>
      <trkpt lat="42.00205" lon="1.5577569">
        <time>2022-07-09T07:18:48Z</time>
      </trkpt>
      <trkpt lat="42.00205" lon="1.5578712">
        <time>2022-07-09T07:18:49Z</time>
      </trkpt>
      <trkpt lat="42.00205" lon="1.5579869">
        <time>2022-07-09T07:18:50Z</time>
      </trkpt>
      <trkpt lat="42.00204" lon="1.5581102">
        <time>2022-07-09T07:18:51Z</time>
      </trkpt>
      <trkpt lat="42.002033" lon="1.5582305">
        <time>2022-07-09T07:18:52Z</time>
      </trkpt>
      <trkpt lat="42.00202" lon="1.5583478">
        <time>2022-07-09T07:18:53Z</time>
      </trkpt>
      <trkpt lat="42.00201" lon="1.5584625">
        <time>2022-07-09T07:18:54Z</time>
      </trkpt>
      <trkpt lat="42.002" lon="1.5585672">
        <time>2022-07-09T07:18:55Z</time>
      </trkpt>
      <trkpt lat="42.00199" lon="1.5586715">
        <time>2022-07-09T07:18:56Z</time>
      </trkpt>
      <trkpt lat="42.00197" lon="1.5588808">
        <time>2022-07-09T07:18:58Z</time>
      </trkpt>
      <trkpt lat="42.001957" lon="1.5589912">
        <time>2022-07-09T07:18:59Z</time>
      </trkpt>
      <trkpt lat="42.00194" lon="1.5590931">
        <time>2022-07-09T07:19:00Z</time>
      </trkpt>
      <trkpt lat="42.001926" lon="1.5592008">
        <time>2022-07-09T07:19:01Z</time>
      </trkpt>
      <trkpt lat="42.00191" lon="1.5593061">
        <time>2022-07-09T07:19:02Z</time>
      </trkpt>
      <trkpt lat="42.001896" lon="1.5594091">
        <time>2022-07-09T07:19:03Z</time>
      </trkpt>
      <trkpt lat="42.00188" lon="1.5595112">
        <time>2022-07-09T07:19:04Z</time>
      </trkpt>
      <trkpt lat="42.001865" lon="1.5596114">
        <time>2022-07-09T07:19:05Z</time>
      </trkpt>
      <trkpt lat="42.001846" lon="1.5597094">
        <time>2022-07-09T07:19:06Z</time>
      </trkpt>
      <trkpt lat="42.001823" lon="1.5598055">
        <time>2022-07-09T07:19:07Z</time>
      </trkpt>
      <trkpt lat="42.0018" lon="1.5599011">
        <time>2022-07-09T07:19:08Z</time>
      </trkpt>
      <trkpt lat="42.001774" lon="1.5599954">
        <time>2022-07-09T07:19:09Z</time>
      </trkpt>
      <trkpt lat="42.001747" lon="1.5600895">
        <time>2022-07-09T07:19:10Z</time>
      </trkpt>
      <trkpt lat="42.00172" lon="1.5601832">
        <time>2022-07-09T07:19:11Z</time>
      </trkpt>
      <trkpt lat="42.001694" lon="1.5602762">
        <time>2022-07-09T07:19:12Z</time>
      </trkpt>
      <trkpt lat="42.001663" lon="1.5603688">
        <time>2022-07-09T07:19:13Z</time>
      </trkpt>
      <trkpt lat="42.001633" lon="1.5604618">
        <time>2022-07-09T07:19:14Z</time>
      </trkpt>
      <trkpt lat="42.001602" lon="1.5605481">
        <time>2022-07-09T07:19:15Z</time>
      </trkpt>
      <trkpt lat="42.001568" lon="1.5606358">
        <time>2022-07-09T07:19:16Z</time>
      </trkpt>
      <trkpt lat="42.00153" lon="1.5607294">
        <time>2022-07-09T07:19:17Z</time>
      </trkpt>
      <trkpt lat="42.001488" lon="1.5608221">
        <time>2022-07-09T07:19:18Z</time>
      </trkpt>
      <trkpt lat="42.001446" lon="1.5609138">
        <time>2022-07-09T07:19:19Z</time>
      </trkpt>
      <trkpt lat="42.001408" lon="1.560999">
        <time>2022-07-09T07:19:20Z</time>
      </trkpt>
      <trkpt lat="42.00136" lon="1.5610924">
        <time>2022-07-09T07:19:21Z</time>
      </trkpt>
      <trkpt lat="42.001316" lon="1.5611851">
        <time>2022-07-09T07:19:22Z</time>
      </trkpt>
      <trkpt lat="42.001274" lon="1.5612781">
        <time>2022-07-09T07:19:23Z</time>
      </trkpt>
      <trkpt lat="42.001232" lon="1.561372">
        <time>2022-07-09T07:19:24Z</time>
      </trkpt>
      <trkpt lat="42.001194" lon="1.5614694">
        <time>2022-07-09T07:19:25Z</time>
      </trkpt>
      <trkpt lat="42.001156" lon="1.5615621">
        <time>2022-07-09T07:19:26Z</time>
      </trkpt>
      <trkpt lat="42.001118" lon="1.5616658">
        <time>2022-07-09T07:19:27Z</time>
      </trkpt>
      <trkpt lat="42.001083" lon="1.5617701">
        <time>2022-07-09T07:19:28Z</time>
      </trkpt>
      <trkpt lat="42.001053" lon="1.5618768">
        <time>2022-07-09T07:19:29Z</time>
      </trkpt>
      <trkpt lat="42.001022" lon="1.5619861">
        <time>2022-07-09T07:19:30Z</time>
      </trkpt>
      <trkpt lat="42.000996" lon="1.5620977">
        <time>2022-07-09T07:19:31Z</time>
      </trkpt>
      <trkpt lat="42.00096" lon="1.5622563">
        <time>2022-07-09T07:19:33Z</time>
      </trkpt>
      <trkpt lat="42.00093" lon="1.5623934">
        <time>2022-07-09T07:19:34Z</time>
      </trkpt>
      <trkpt lat="42.000908" lon="1.5625291">
        <time>2022-07-09T07:19:35Z</time>
      </trkpt>
      <trkpt lat="42.00088" lon="1.5626484">
        <time>2022-07-09T07:19:36Z</time>
      </trkpt>
      <trkpt lat="42.00086" lon="1.5627637">
        <time>2022-07-09T07:19:37Z</time>
      </trkpt>
      <trkpt lat="42.00083" lon="1.5628763">
        <time>2022-07-09T07:19:38Z</time>
      </trkpt>
      <trkpt lat="42.000805" lon="1.562994">
        <time>2022-07-09T07:19:39Z</time>
      </trkpt>
      <trkpt lat="42.000782" lon="1.5631074">
        <time>2022-07-09T07:19:40Z</time>
      </trkpt>
      <trkpt lat="42.000755" lon="1.5632193">
        <time>2022-07-09T07:19:41Z</time>
      </trkpt>
      <trkpt lat="42.000732" lon="1.5633277">
        <time>2022-07-09T07:19:42Z</time>
      </trkpt>
      <trkpt lat="42.000713" lon="1.5634336">
        <time>2022-07-09T07:19:43Z</time>
      </trkpt>
      <trkpt lat="42.000694" lon="1.5635357">
        <time>2022-07-09T07:19:44Z</time>
      </trkpt>
      <trkpt lat="42.000675" lon="1.5636367">
        <time>2022-07-09T07:19:45Z</time>
      </trkpt>
      <trkpt lat="42.00066" lon="1.5637373">
        <time>2022-07-09T07:19:46Z</time>
      </trkpt>
      <trkpt lat="42.00065" lon="1.5638306">
        <time>2022-07-09T07:19:47Z</time>
      </trkpt>
      <trkpt lat="42.00064" lon="1.563926">
        <time>2022-07-09T07:19:48Z</time>
      </trkpt>
      <trkpt lat="42.000633" lon="1.564022">
        <time>2022-07-09T07:19:49Z</time>
      </trkpt>
      <trkpt lat="42.00063" lon="1.564124">
        <time>2022-07-09T07:19:50Z</time>
      </trkpt>
      <trkpt lat="42.000633" lon="1.5642244">
        <time>2022-07-09T07:19:51Z</time>
      </trkpt>
      <trkpt lat="42.000637" lon="1.5643177">
        <time>2022-07-09T07:19:52Z</time>
      </trkpt>
      <trkpt lat="42.000645" lon="1.564412">
        <time>2022-07-09T07:19:53Z</time>
      </trkpt>
      <trkpt lat="42.00066" lon="1.5645076">
        <time>2022-07-09T07:19:54Z</time>
      </trkpt>
      <trkpt lat="42.000683" lon="1.5646033">
        <time>2022-07-09T07:19:55Z</time>
      </trkpt>
      <trkpt lat="42.000706" lon="1.5646986">
        <time>2022-07-09T07:19:56Z</time>
      </trkpt>
      <trkpt lat="42.00074" lon="1.5647913">
        <time>2022-07-09T07:19:57Z</time>
      </trkpt>
      <trkpt lat="42.00078" lon="1.5648823">
        <time>2022-07-09T07:19:58Z</time>
      </trkpt>
      <trkpt lat="42.000824" lon="1.5649699">
        <time>2022-07-09T07:19:59Z</time>
      </trkpt>
      <trkpt lat="42.000877" lon="1.5650586">
        <time>2022-07-09T07:20:00Z</time>
      </trkpt>
      <trkpt lat="42.001007" lon="1.5652156">
        <time>2022-07-09T07:20:02Z</time>
      </trkpt>
      <trkpt lat="42.001072" lon="1.5652803">
        <time>2022-07-09T07:20:03Z</time>
      </trkpt>
      <trkpt lat="42.001144" lon="1.5653416">
        <time>2022-07-09T07:20:04Z</time>
      </trkpt>
      <trkpt lat="42.00122" lon="1.5653982">
        <time>2022-07-09T07:20:05Z</time>
      </trkpt>
      <trkpt lat="42.0013" lon="1.5654519">
        <time>2022-07-09T07:20:06Z</time>
      </trkpt>
      <trkpt lat="42.001385" lon="1.5655023">
        <time>2022-07-09T07:20:07Z</time>
      </trkpt>
      <trkpt lat="42.001472" lon="1.5655506">
        <time>2022-07-09T07:20:08Z</time>
      </trkpt>
      <trkpt lat="42.00156" lon="1.5655969">
        <time>2022-07-09T07:20:09Z</time>
      </trkpt>
      <trkpt lat="42.00165" lon="1.5656415">
        <time>2022-07-09T07:20:10Z</time>
      </trkpt>
      <trkpt lat="42.00174" lon="1.5656859">
        <time>2022-07-09T07:20:11Z</time>
      </trkpt>
      <trkpt lat="42.001827" lon="1.5657293">
        <time>2022-07-09T07:20:12Z</time>
      </trkpt>
      <trkpt lat="42.001915" lon="1.5657729">
        <time>2022-07-09T07:20:13Z</time>
      </trkpt>
      <trkpt lat="42.002003" lon="1.5658165">
        <time>2022-07-09T07:20:14Z</time>
      </trkpt>
      <trkpt lat="42.002087" lon="1.5658609">
        <time>2022-07-09T07:20:15Z</time>
      </trkpt>
      <trkpt lat="42.002167" lon="1.5659082">
        <time>2022-07-09T07:20:16Z</time>
      </trkpt>
      <trkpt lat="42.002247" lon="1.5659579">
        <time>2022-07-09T07:20:17Z</time>
      </trkpt>
      <trkpt lat="42.002323" lon="1.5660121">
        <time>2022-07-09T07:20:18Z</time>
      </trkpt>
      <trkpt lat="42.002396" lon="1.5660706">
        <time>2022-07-09T07:20:19Z</time>
      </trkpt>
      <trkpt lat="42.002464" lon="1.5661331">
        <time>2022-07-09T07:20:20Z</time>
      </trkpt>
      <trkpt lat="42.00253" lon="1.5662016">
        <time>2022-07-09T07:20:21Z</time>
      </trkpt>
      <trkpt lat="42.002586" lon="1.5662755">
        <time>2022-07-09T07:20:22Z</time>
      </trkpt>
      <trkpt lat="42.002636" lon="1.5663538">
        <time>2022-07-09T07:20:23Z</time>
      </trkpt>
      <trkpt lat="42.002678" lon="1.5664302">
        <time>2022-07-09T07:20:24Z</time>
      </trkpt>
      <trkpt lat="42.00272" lon="1.5665115">
        <time>2022-07-09T07:20:25Z</time>
      </trkpt>
      <trkpt lat="42.002754" lon="1.5665965">
        <time>2022-07-09T07:20:26Z</time>
      </trkpt>
      <trkpt lat="42.002785" lon="1.5666898">
        <time>2022-07-09T07:20:27Z</time>
      </trkpt>
      <trkpt lat="42.002808" lon="1.5667821">
        <time>2022-07-09T07:20:28Z</time>
      </trkpt>
      <trkpt lat="42.002827" lon="1.5668685">
        <time>2022-07-09T07:20:29Z</time>
      </trkpt>
      <trkpt lat="42.002846" lon="1.5669565">
        <time>2022-07-09T07:20:30Z</time>
      </trkpt>
      <trkpt lat="42.002857" lon="1.5670452">
        <time>2022-07-09T07:20:31Z</time>
      </trkpt>
      <trkpt lat="42.002872" lon="1.5671391">
        <time>2022-07-09T07:20:32Z</time>
      </trkpt>
      <trkpt lat="42.002884" lon="1.5672258">
        <time>2022-07-09T07:20:33Z</time>
      </trkpt>
      <trkpt lat="42.002895" lon="1.5673128">
        <time>2022-07-09T07:20:34Z</time>
      </trkpt>
      <trkpt lat="42.002907" lon="1.5674012">
        <time>2022-07-09T07:20:35Z</time>
      </trkpt>
      <trkpt lat="42.002914" lon="1.5674951">
        <time>2022-07-09T07:20:36Z</time>
      </trkpt>
      <trkpt lat="42.002922" lon="1.5675875">
        <time>2022-07-09T07:20:37Z</time>
      </trkpt>
      <trkpt lat="42.00293" lon="1.5676775">
        <time>2022-07-09T07:20:38Z</time>
      </trkpt>
      <trkpt lat="42.002934" lon="1.5677662">
        <time>2022-07-09T07:20:39Z</time>
      </trkpt>
      <trkpt lat="42.002934" lon="1.5678538">
        <time>2022-07-09T07:20:40Z</time>
      </trkpt>
      <trkpt lat="42.002937" lon="1.5679412">
        <time>2022-07-09T07:20:41Z</time>
      </trkpt>
      <trkpt lat="42.002934" lon="1.5680281">
        <time>2022-07-09T07:20:42Z</time>
      </trkpt>
      <trkpt lat="42.00293" lon="1.5681158">
        <time>2022-07-09T07:20:43Z</time>
      </trkpt>
      <trkpt lat="42.002922" lon="1.5682027">
        <time>2022-07-09T07:20:44Z</time>
      </trkpt>
      <trkpt lat="42.002914" lon="1.5682894">
        <time>2022-07-09T07:20:45Z</time>
      </trkpt>
      <trkpt lat="42.002907" lon="1.5683758">
        <time>2022-07-09T07:20:46Z</time>
      </trkpt>
      <trkpt lat="42.002895" lon="1.5684625">
        <time>2022-07-09T07:20:47Z</time>
      </trkpt>
      <trkpt lat="42.00288" lon="1.5685492">
        <time>2022-07-09T07:20:48Z</time>
      </trkpt>
      <trkpt lat="42.002865" lon="1.5686368">
        <time>2022-07-09T07:20:49Z</time>
      </trkpt>
      <trkpt lat="42.00285" lon="1.5687264">
        <time>2022-07-09T07:20:50Z</time>
      </trkpt>
      <trkpt lat="42.002834" lon="1.5688168">
        <time>2022-07-09T07:20:51Z</time>
      </trkpt>
      <trkpt lat="42.002815" lon="1.568909">
        <time>2022-07-09T07:20:52Z</time>
      </trkpt>
      <trkpt lat="42.0028" lon="1.5690018">
        <time>2022-07-09T07:20:53Z</time>
      </trkpt>
      <trkpt lat="42.00278" lon="1.569095">
        <time>2022-07-09T07:20:54Z</time>
      </trkpt>
      <trkpt lat="42.00276" lon="1.569182">
        <time>2022-07-09T07:20:55Z</time>
      </trkpt>
      <trkpt lat="42.002743" lon="1.5692707">
        <time>2022-07-09T07:20:56Z</time>
      </trkpt>
      <trkpt lat="42.002724" lon="1.5693674">
        <time>2022-07-09T07:20:57Z</time>
      </trkpt>
      <trkpt lat="42.002697" lon="1.5694634">
        <time>2022-07-09T07:20:58Z</time>
      </trkpt>
      <trkpt lat="42.00267" lon="1.5695577">
        <time>2022-07-09T07:20:59Z</time>
      </trkpt>
      <trkpt lat="42.00264" lon="1.5696497">
        <time>2022-07-09T07:21:00Z</time>
      </trkpt>
      <trkpt lat="42.00261" lon="1.5697341">
        <time>2022-07-09T07:21:01Z</time>
      </trkpt>
      <trkpt lat="42.00257" lon="1.5698184">
        <time>2022-07-09T07:21:02Z</time>
      </trkpt>
      <trkpt lat="42.002525" lon="1.5699058">
        <time>2022-07-09T07:21:03Z</time>
      </trkpt>
      <trkpt lat="42.00245" lon="1.5700101">
        <time>2022-07-09T07:21:05Z</time>
      </trkpt>
      <trkpt lat="42.002377" lon="1.5700994">
        <time>2022-07-09T07:21:06Z</time>
      </trkpt>
      <trkpt lat="42.0023" lon="1.5701793">
        <time>2022-07-09T07:21:07Z</time>
      </trkpt>
      <trkpt lat="42.00223" lon="1.570248">
        <time>2022-07-09T07:21:08Z</time>
      </trkpt>
      <trkpt lat="42.002155" lon="1.570318">
        <time>2022-07-09T07:21:09Z</time>
      </trkpt>
      <trkpt lat="42.002083" lon="1.5703814">
        <time>2022-07-09T07:21:10Z</time>
      </trkpt>
      <trkpt lat="42.002007" lon="1.5704464">
        <time>2022-07-09T07:21:11Z</time>
      </trkpt>
      <trkpt lat="42.001934" lon="1.5705171">
        <time>2022-07-09T07:21:12Z</time>
      </trkpt>
      <trkpt lat="42.00186" lon="1.5706047">
        <time>2022-07-09T07:21:13Z</time>
      </trkpt>
      <trkpt lat="42.0018" lon="1.5707034">
        <time>2022-07-09T07:21:14Z</time>
      </trkpt>
      <trkpt lat="42.001747" lon="1.5708114">
        <time>2022-07-09T07:21:15Z</time>
      </trkpt>
      <trkpt lat="42.001713" lon="1.5709367">
        <time>2022-07-09T07:21:16Z</time>
      </trkpt>
      <trkpt lat="42.0017" lon="1.571066">
        <time>2022-07-09T07:21:17Z</time>
      </trkpt>
      <trkpt lat="42.001705" lon="1.571187">
        <time>2022-07-09T07:21:18Z</time>
      </trkpt>
      <trkpt lat="42.00173" lon="1.571305">
        <time>2022-07-09T07:21:19Z</time>
      </trkpt>
      <trkpt lat="42.001774" lon="1.5714136">
        <time>2022-07-09T07:21:20Z</time>
      </trkpt>
      <trkpt lat="42.00184" lon="1.5715079">
        <time>2022-07-09T07:21:21Z</time>
      </trkpt>
      <trkpt lat="42.001923" lon="1.571582">
        <time>2022-07-09T07:21:22Z</time>
      </trkpt>
      <trkpt lat="42.002018" lon="1.5716337">
        <time>2022-07-09T07:21:23Z</time>
      </trkpt>
      <trkpt lat="42.00212" lon="1.571663">
        <time>2022-07-09T07:21:24Z</time>
      </trkpt>
      <trkpt lat="42.002228" lon="1.571673">
        <time>2022-07-09T07:21:25Z</time>
      </trkpt>
      <trkpt lat="42.002342" lon="1.571669">
        <time>2022-07-09T07:21:26Z</time>
      </trkpt>
      <trkpt lat="42.002457" lon="1.5716556">
        <time>2022-07-09T07:21:27Z</time>
      </trkpt>
      <trkpt lat="42.002575" lon="1.5716356">
        <time>2022-07-09T07:21:28Z</time>
      </trkpt>
      <trkpt lat="42.002697" lon="1.5716124">
        <time>2022-07-09T07:21:29Z</time>
      </trkpt>
      <trkpt lat="42.002815" lon="1.5715877">
        <time>2022-07-09T07:21:30Z</time>
      </trkpt>
      <trkpt lat="42.002934" lon="1.5715634">
        <time>2022-07-09T07:21:31Z</time>
      </trkpt>
      <trkpt lat="42.00305" lon="1.5715446">
        <time>2022-07-09T07:21:32Z</time>
      </trkpt>
      <trkpt lat="42.003162" lon="1.571538">
        <time>2022-07-09T07:21:33Z</time>
      </trkpt>
      <trkpt lat="42.003273" lon="1.5715487">
        <time>2022-07-09T07:21:34Z</time>
      </trkpt>
      <trkpt lat="42.003372" lon="1.5715784">
        <time>2022-07-09T07:21:35Z</time>
      </trkpt>
      <trkpt lat="42.003468" lon="1.5716287">
        <time>2022-07-09T07:21:36Z</time>
      </trkpt>
      <trkpt lat="42.003548" lon="1.5716974">
        <time>2022-07-09T07:21:37Z</time>
      </trkpt>
      <trkpt lat="42.003613" lon="1.5717787">
        <time>2022-07-09T07:21:38Z</time>
      </trkpt>
      <trkpt lat="42.003674" lon="1.571868">
        <time>2022-07-09T07:21:39Z</time>
      </trkpt>
      <trkpt lat="42.003727" lon="1.5719633">
        <time>2022-07-09T07:21:40Z</time>
      </trkpt>
      <trkpt lat="42.00378" lon="1.572062">
        <time>2022-07-09T07:21:41Z</time>
      </trkpt>
      <trkpt lat="42.003826" lon="1.572163">
        <time>2022-07-09T07:21:42Z</time>
      </trkpt>
      <trkpt lat="42.003864" lon="1.572268">
        <time>2022-07-09T07:21:43Z</time>
      </trkpt>
      <trkpt lat="42.00389" lon="1.5723773">
        <time>2022-07-09T07:21:44Z</time>
      </trkpt>
      <trkpt lat="42.003902" lon="1.5724853">
        <time>2022-07-09T07:21:45Z</time>
      </trkpt>
      <trkpt lat="42.0039" lon="1.572588">
        <time>2022-07-09T07:21:46Z</time>
      </trkpt>
      <trkpt lat="42.00388" lon="1.5726813">
        <time>2022-07-09T07:21:47Z</time>
      </trkpt>
      <trkpt lat="42.00384" lon="1.5727606">
        <time>2022-07-09T07:21:48Z</time>
      </trkpt>
      <trkpt lat="42.00379" lon="1.5728242">
        <time>2022-07-09T07:21:49Z</time>
      </trkpt>
      <trkpt lat="42.003735" lon="1.5728716">
        <time>2022-07-09T07:21:50Z</time>
      </trkpt>
      <trkpt lat="42.003674" lon="1.5729059">
        <time>2022-07-09T07:21:51Z</time>
      </trkpt>
      <trkpt lat="42.0036" lon="1.5729322">
        <time>2022-07-09T07:21:52Z</time>
      </trkpt>
      <trkpt lat="42.00353" lon="1.5729513">
        <time>2022-07-09T07:21:53Z</time>
      </trkpt>
      <trkpt lat="42.003452" lon="1.5729649">
        <time>2022-07-09T07:21:54Z</time>
      </trkpt>
      <trkpt lat="42.003376" lon="1.5729746">
        <time>2022-07-09T07:21:55Z</time>
      </trkpt>
      <trkpt lat="42.003296" lon="1.5729829">
        <time>2022-07-09T07:21:56Z</time>
      </trkpt>
      <trkpt lat="42.00322" lon="1.57299">
        <time>2022-07-09T07:21:57Z</time>
      </trkpt>
      <trkpt lat="42.003143" lon="1.5729983">
        <time>2022-07-09T07:21:58Z</time>
      </trkpt>
      <trkpt lat="42.00307" lon="1.5730076">
        <time>2022-07-09T07:21:59Z</time>
      </trkpt>
      <trkpt lat="42.003" lon="1.573018">
        <time>2022-07-09T07:22:00Z</time>
      </trkpt>
      <trkpt lat="42.00293" lon="1.5730295">
        <time>2022-07-09T07:22:01Z</time>
      </trkpt>
      <trkpt lat="42.002857" lon="1.5730425">
        <time>2022-07-09T07:22:02Z</time>
      </trkpt>
      <trkpt lat="42.00279" lon="1.5730586">
        <time>2022-07-09T07:22:03Z</time>
      </trkpt>
      <trkpt lat="42.00272" lon="1.57308">
        <time>2022-07-09T07:22:04Z</time>
      </trkpt>
      <trkpt lat="42.002655" lon="1.5731065">
        <time>2022-07-09T07:22:05Z</time>
      </trkpt>
      <trkpt lat="42.00259" lon="1.5731382">
        <time>2022-07-09T07:22:06Z</time>
      </trkpt>
      <trkpt lat="42.002525" lon="1.5731735">
        <time>2022-07-09T07:22:07Z</time>
      </trkpt>
      <trkpt lat="42.002464" lon="1.5732132">
        <time>2022-07-09T07:22:08Z</time>
      </trkpt>
      <trkpt lat="42.002403" lon="1.5732565">
        <time>2022-07-09T07:22:09Z</time>
      </trkpt>
      <trkpt lat="42.002346" lon="1.5733029">
        <time>2022-07-09T07:22:10Z</time>
      </trkpt>
      <trkpt lat="42.00229" lon="1.5733522">
        <time>2022-07-09T07:22:11Z</time>
      </trkpt>
      <trkpt lat="42.002235" lon="1.5734038">
        <time>2022-07-09T07:22:12Z</time>
      </trkpt>
      <trkpt lat="42.002182" lon="1.5734572">
        <time>2022-07-09T07:22:13Z</time>
      </trkpt>
      <trkpt lat="42.00213" lon="1.5735109">
        <time>2022-07-09T07:22:14Z</time>
      </trkpt>
      <trkpt lat="42.00208" lon="1.5735658">
        <time>2022-07-09T07:22:15Z</time>
      </trkpt>
      <trkpt lat="42.002026" lon="1.5736202">
        <time>2022-07-09T07:22:16Z</time>
      </trkpt>
      <trkpt lat="42.00193" lon="1.5737255">
        <time>2022-07-09T07:22:18Z</time>
      </trkpt>
      <trkpt lat="42.00188" lon="1.5737776">
        <time>2022-07-09T07:22:19Z</time>
      </trkpt>
      <trkpt lat="42.00183" lon="1.5738299">
        <time>2022-07-09T07:22:20Z</time>
      </trkpt>
      <trkpt lat="42.001785" lon="1.5738811">
        <time>2022-07-09T07:22:21Z</time>
      </trkpt>
      <trkpt lat="42.00174" lon="1.5739318">
        <time>2022-07-09T07:22:22Z</time>
      </trkpt>
      <trkpt lat="42.001694" lon="1.5739815">
        <time>2022-07-09T07:22:23Z</time>
      </trkpt>
      <trkpt lat="42.001648" lon="1.5740311">
        <time>2022-07-09T07:22:24Z</time>
      </trkpt>
      <trkpt lat="42.001606" lon="1.5740808">
        <time>2022-07-09T07:22:25Z</time>
      </trkpt>
      <trkpt lat="42.001564" lon="1.5741302">
        <time>2022-07-09T07:22:26Z</time>
      </trkpt>
      <trkpt lat="42.00152" lon="1.5741775">
        <time>2022-07-09T07:22:27Z</time>
      </trkpt>
      <trkpt lat="42.001476" lon="1.5742241">
        <time>2022-07-09T07:22:28Z</time>
      </trkpt>
      <trkpt lat="42.001434" lon="1.5742708">
        <time>2022-07-09T07:22:29Z</time>
      </trkpt>
      <trkpt lat="42.001392" lon="1.5743165">
        <time>2022-07-09T07:22:30Z</time>
      </trkpt>
      <trkpt lat="42.001354" lon="1.5743618">
        <time>2022-07-09T07:22:31Z</time>
      </trkpt>
      <trkpt lat="42.001312" lon="1.5744067">
        <time>2022-07-09T07:22:32Z</time>
      </trkpt>
      <trkpt lat="42.001274" lon="1.5744511">
        <time>2022-07-09T07:22:33Z</time>
      </trkpt>
      <trkpt lat="42.001198" lon="1.5745374">
        <time>2022-07-09T07:22:35Z</time>
      </trkpt>
      <trkpt lat="42.00116" lon="1.5745808">
        <time>2022-07-09T07:22:36Z</time>
      </trkpt>
      <trkpt lat="42.001083" lon="1.5746658">
        <time>2022-07-09T07:22:38Z</time>
      </trkpt>
      <trkpt lat="42.001045" lon="1.5747101">
        <time>2022-07-09T07:22:39Z</time>
      </trkpt>
      <trkpt lat="42.000996" lon="1.5747675">
        <time>2022-07-09T07:22:41Z</time>
      </trkpt>
      <trkpt lat="42.00095" lon="1.5748187">
        <time>2022-07-09T07:22:42Z</time>
      </trkpt>
      <trkpt lat="42.000908" lon="1.574866">
        <time>2022-07-09T07:22:43Z</time>
      </trkpt>
      <trkpt lat="42.000866" lon="1.5749111">
        <time>2022-07-09T07:22:44Z</time>
      </trkpt>
      <trkpt lat="42.00083" lon="1.5749547">
        <time>2022-07-09T07:22:45Z</time>
      </trkpt>
      <trkpt lat="42.000763" lon="1.5750414">
        <time>2022-07-09T07:22:47Z</time>
      </trkpt>
      <trkpt lat="42.000694" lon="1.5751247">
        <time>2022-07-09T07:22:49Z</time>
      </trkpt>
      <trkpt lat="42.000633" lon="1.5752047">
        <time>2022-07-09T07:22:51Z</time>
      </trkpt>
      <trkpt lat="42.000572" lon="1.5752901">
        <time>2022-07-09T07:22:53Z</time>
      </trkpt>
      <trkpt lat="42.000515" lon="1.5753831">
        <time>2022-07-09T07:22:55Z</time>
      </trkpt>
      <trkpt lat="42.000458" lon="1.575482">
        <time>2022-07-09T07:22:57Z</time>
      </trkpt>
      <trkpt lat="42.000404" lon="1.5755883">
        <time>2022-07-09T07:22:59Z</time>
      </trkpt>
      <trkpt lat="42.000355" lon="1.5757017">
        <time>2022-07-09T07:23:01Z</time>
      </trkpt>
      <trkpt lat="42.00033" lon="1.5757617">
        <time>2022-07-09T07:23:02Z</time>
      </trkpt>
      <trkpt lat="42.000294" lon="1.5758904">
        <time>2022-07-09T07:23:04Z</time>
      </trkpt>
      <trkpt lat="42.00028" lon="1.5759591">
        <time>2022-07-09T07:23:05Z</time>
      </trkpt>
      <trkpt lat="42.000267" lon="1.5760297">
        <time>2022-07-09T07:23:06Z</time>
      </trkpt>
      <trkpt lat="42.000256" lon="1.5761033">
        <time>2022-07-09T07:23:07Z</time>
      </trkpt>
      <trkpt lat="42.00025" lon="1.5761807">
        <time>2022-07-09T07:23:08Z</time>
      </trkpt>
      <trkpt lat="42.000248" lon="1.5762618">
        <time>2022-07-09T07:23:09Z</time>
      </trkpt>
      <trkpt lat="42.000248" lon="1.5763453">
        <time>2022-07-09T07:23:10Z</time>
      </trkpt>
      <trkpt lat="42.00025" lon="1.5764307">
        <time>2022-07-09T07:23:11Z</time>
      </trkpt>
      <trkpt lat="42.00026" lon="1.576519">
        <time>2022-07-09T07:23:12Z</time>
      </trkpt>
      <trkpt lat="42.00027" lon="1.5766097">
        <time>2022-07-09T07:23:13Z</time>
      </trkpt>
      <trkpt lat="42.000286" lon="1.5767044">
        <time>2022-07-09T07:23:14Z</time>
      </trkpt>
      <trkpt lat="42.0003" lon="1.5768026">
        <time>2022-07-09T07:23:15Z</time>
      </trkpt>
      <trkpt lat="42.000324" lon="1.576904">
        <time>2022-07-09T07:23:16Z</time>
      </trkpt>
      <trkpt lat="42.00035" lon="1.5770084">
        <time>2022-07-09T07:23:17Z</time>
      </trkpt>
      <trkpt lat="42.000378" lon="1.5771164">
        <time>2022-07-09T07:23:18Z</time>
      </trkpt>
      <trkpt lat="42.00041" lon="1.5772266">
        <time>2022-07-09T07:23:19Z</time>
      </trkpt>
      <trkpt lat="42.000443" lon="1.5773389">
        <time>2022-07-09T07:23:20Z</time>
      </trkpt>
      <trkpt lat="42.000473" lon="1.5774547">
        <time>2022-07-09T07:23:21Z</time>
      </trkpt>
      <trkpt lat="42.0005" lon="1.5775716">
        <time>2022-07-09T07:23:22Z</time>
      </trkpt>
      <trkpt lat="42.00052" lon="1.5776889">
        <time>2022-07-09T07:23:23Z</time>
      </trkpt>
      <trkpt lat="42.00053" lon="1.5778056">
        <time>2022-07-09T07:23:24Z</time>
      </trkpt>
      <trkpt lat="42.000538" lon="1.577919">
        <time>2022-07-09T07:23:25Z</time>
      </trkpt>
      <trkpt lat="42.000538" lon="1.5780272">
        <time>2022-07-09T07:23:26Z</time>
      </trkpt>
      <trkpt lat="42.00053" lon="1.5781313">
        <time>2022-07-09T07:23:27Z</time>
      </trkpt>
      <trkpt lat="42.000523" lon="1.5782303">
        <time>2022-07-09T07:23:28Z</time>
      </trkpt>
      <trkpt lat="42.00051" lon="1.5783247">
        <time>2022-07-09T07:23:29Z</time>
      </trkpt>
      <trkpt lat="42.000496" lon="1.5784123">
        <time>2022-07-09T07:23:30Z</time>
      </trkpt>
      <trkpt lat="42.00048" lon="1.5784947">
        <time>2022-07-09T07:23:31Z</time>
      </trkpt>
      <trkpt lat="42.00047" lon="1.5785706">
        <time>2022-07-09T07:23:32Z</time>
      </trkpt>
      <trkpt lat="42.000454" lon="1.5786413">
        <time>2022-07-09T07:23:33Z</time>
      </trkpt>
      <trkpt lat="42.00044" lon="1.5787079">
        <time>2022-07-09T07:23:34Z</time>
      </trkpt>
      <trkpt lat="42.000412" lon="1.5788282">
        <time>2022-07-09T07:23:36Z</time>
      </trkpt>
      <trkpt lat="42.000393" lon="1.578931">
        <time>2022-07-09T07:23:38Z</time>
      </trkpt>
      <trkpt lat="42.000374" lon="1.5790226">
        <time>2022-07-09T07:23:40Z</time>
      </trkpt>
      <trkpt lat="42.000355" lon="1.5791069">
        <time>2022-07-09T07:23:42Z</time>
      </trkpt>
      <trkpt lat="42.000336" lon="1.5791826">
        <time>2022-07-09T07:23:44Z</time>
      </trkpt>
      <trkpt lat="42.00032" lon="1.5792589">
        <time>2022-07-09T07:23:46Z</time>
      </trkpt>
      <trkpt lat="42.0003" lon="1.5793313">
        <time>2022-07-09T07:23:48Z</time>
      </trkpt>
      <trkpt lat="42.000286" lon="1.5794042">
        <time>2022-07-09T07:23:50Z</time>
      </trkpt>
      <trkpt lat="42.000267" lon="1.5794746">
        <time>2022-07-09T07:23:52Z</time>
      </trkpt>
      <trkpt lat="42.00025" lon="1.5795456">
        <time>2022-07-09T07:23:54Z</time>
      </trkpt>
      <trkpt lat="42.000237" lon="1.5796173">
        <time>2022-07-09T07:23:56Z</time>
      </trkpt>
      <trkpt lat="42.00022" lon="1.5796899">
        <time>2022-07-09T07:23:58Z</time>
      </trkpt>
      <trkpt lat="42.000206" lon="1.5797646">
        <time>2022-07-09T07:24:00Z</time>
      </trkpt>
      <trkpt lat="42.00019" lon="1.5798379">
        <time>2022-07-09T07:24:02Z</time>
      </trkpt>
      <trkpt lat="42.00017" lon="1.5799096">
        <time>2022-07-09T07:24:04Z</time>
      </trkpt>
      <trkpt lat="42.00016" lon="1.5799825">
        <time>2022-07-09T07:24:06Z</time>
      </trkpt>
      <trkpt lat="42.000145" lon="1.5800592">
        <time>2022-07-09T07:24:08Z</time>
      </trkpt>
      <trkpt lat="42.00013" lon="1.5801369">
        <time>2022-07-09T07:24:10Z</time>
      </trkpt>
      <trkpt lat="42.00011" lon="1.5802169">
        <time>2022-07-09T07:24:12Z</time>
      </trkpt>
      <trkpt lat="42.000095" lon="1.5803006">
        <time>2022-07-09T07:24:14Z</time>
      </trkpt>
      <trkpt lat="42.00008" lon="1.5803878">
        <time>2022-07-09T07:24:16Z</time>
      </trkpt>
      <trkpt lat="42.00006" lon="1.5804785">
        <time>2022-07-09T07:24:18Z</time>
      </trkpt>
      <trkpt lat="42.000042" lon="1.5805732">
        <time>2022-07-09T07:24:20Z</time>
      </trkpt>
      <trkpt lat="42.000027" lon="1.5806695">
        <time>2022-07-09T07:24:22Z</time>
      </trkpt>
      <trkpt lat="42.000008" lon="1.5807681">
        <time>2022-07-09T07:24:24Z</time>
      </trkpt>
      <trkpt lat="41.99999" lon="1.5808655">
        <time>2022-07-09T07:24:26Z</time>
      </trkpt>
      <trkpt lat="41.99997" lon="1.5809678">
        <time>2022-07-09T07:24:28Z</time>
      </trkpt>
      <trkpt lat="41.999947" lon="1.5810769">
        <time>2022-07-09T07:24:30Z</time>
      </trkpt>
      <trkpt lat="41.999924" lon="1.5811921">
        <time>2022-07-09T07:24:32Z</time>
      </trkpt>
      <trkpt lat="41.999893" lon="1.5813168">
        <time>2022-07-09T07:24:34Z</time>
      </trkpt>
      <trkpt lat="41.999878" lon="1.5813831">
        <time>2022-07-09T07:24:35Z</time>
      </trkpt>
      <trkpt lat="41.99985" lon="1.5815232">
        <time>2022-07-09T07:24:37Z</time>
      </trkpt>
      <trkpt lat="41.99984" lon="1.5815969">
        <time>2022-07-09T07:24:38Z</time>
      </trkpt>
      <trkpt lat="41.999825" lon="1.5816731">
        <time>2022-07-09T07:24:39Z</time>
      </trkpt>
      <trkpt lat="41.99981" lon="1.5817528">
        <time>2022-07-09T07:24:40Z</time>
      </trkpt>
      <trkpt lat="41.999794" lon="1.5818357">
        <time>2022-07-09T07:24:41Z</time>
      </trkpt>
      <trkpt lat="41.99978" lon="1.5819231">
        <time>2022-07-09T07:24:42Z</time>
      </trkpt>
      <trkpt lat="41.99976" lon="1.5820144">
        <time>2022-07-09T07:24:43Z</time>
      </trkpt>
      <trkpt lat="41.99974" lon="1.5821095">
        <time>2022-07-09T07:24:44Z</time>
      </trkpt>
      <trkpt lat="41.99972" lon="1.5822095">
        <time>2022-07-09T07:24:45Z</time>
      </trkpt>
      <trkpt lat="41.999702" lon="1.5823147">
        <time>2022-07-09T07:24:46Z</time>
      </trkpt>
      <trkpt lat="41.999683" lon="1.5824244">
        <time>2022-07-09T07:24:47Z</time>
      </trkpt>
      <trkpt lat="41.999664" lon="1.5825311">
        <time>2022-07-09T07:24:48Z</time>
      </trkpt>
      <trkpt lat="41.999645" lon="1.5826517">
        <time>2022-07-09T07:24:49Z</time>
      </trkpt>
      <trkpt lat="41.999622" lon="1.5827668">
        <time>2022-07-09T07:24:50Z</time>
      </trkpt>
      <trkpt lat="41.999603" lon="1.582895">
        <time>2022-07-09T07:24:51Z</time>
      </trkpt>
      <trkpt lat="41.99958" lon="1.5830221">
        <time>2022-07-09T07:24:52Z</time>
      </trkpt>
      <trkpt lat="41.99956" lon="1.5831481">
        <time>2022-07-09T07:24:53Z</time>
      </trkpt>
      <trkpt lat="41.99954" lon="1.5832717">
        <time>2022-07-09T07:24:54Z</time>
      </trkpt>
      <trkpt lat="41.999493" lon="1.5835145">
        <time>2022-07-09T07:24:56Z</time>
      </trkpt>
      <trkpt lat="41.99947" lon="1.5836241">
        <time>2022-07-09T07:24:57Z</time>
      </trkpt>
      <trkpt lat="41.99944" lon="1.583739">
        <time>2022-07-09T07:24:58Z</time>
      </trkpt>
      <trkpt lat="41.99941" lon="1.5838461">
        <time>2022-07-09T07:24:59Z</time>
      </trkpt>
      <trkpt lat="41.99938" lon="1.5839471">
        <time>2022-07-09T07:25:00Z</time>
      </trkpt>
      <trkpt lat="41.999344" lon="1.5840414">
        <time>2022-07-09T07:25:01Z</time>
      </trkpt>
      <trkpt lat="41.999306" lon="1.5841271">
        <time>2022-07-09T07:25:02Z</time>
      </trkpt>
      <trkpt lat="41.999268" lon="1.5842044">
        <time>2022-07-09T07:25:03Z</time>
      </trkpt>
      <trkpt lat="41.999226" lon="1.5842714">
        <time>2022-07-09T07:25:04Z</time>
      </trkpt>
      <trkpt lat="41.999184" lon="1.5843321">
        <time>2022-07-09T07:25:05Z</time>
      </trkpt>
      <trkpt lat="41.99914" lon="1.5843858">
        <time>2022-07-09T07:25:06Z</time>
      </trkpt>
      <trkpt lat="41.9991" lon="1.5844344">
        <time>2022-07-09T07:25:07Z</time>
      </trkpt>
      <trkpt lat="41.999058" lon="1.5844787">
        <time>2022-07-09T07:25:08Z</time>
      </trkpt>
      <trkpt lat="41.999016" lon="1.5845197">
        <time>2022-07-09T07:25:09Z</time>
      </trkpt>
      <trkpt lat="41.998974" lon="1.5845591">
        <time>2022-07-09T07:25:10Z</time>
      </trkpt>
      <trkpt lat="41.99893" lon="1.584596">
        <time>2022-07-09T07:25:11Z</time>
      </trkpt>
      <trkpt lat="41.99885" lon="1.5846654">
        <time>2022-07-09T07:25:13Z</time>
      </trkpt>
      <trkpt lat="41.998775" lon="1.584728">
        <time>2022-07-09T07:25:15Z</time>
      </trkpt>
      <trkpt lat="41.998695" lon="1.5847913">
        <time>2022-07-09T07:25:17Z</time>
      </trkpt>
      <trkpt lat="41.998615" lon="1.5848583">
        <time>2022-07-09T07:25:19Z</time>
      </trkpt>
      <trkpt lat="41.998573" lon="1.584893">
        <time>2022-07-09T07:25:20Z</time>
      </trkpt>
      <trkpt lat="41.998493" lon="1.5849661">
        <time>2022-07-09T07:25:22Z</time>
      </trkpt>
      <trkpt lat="41.998455" lon="1.5850017">
        <time>2022-07-09T07:25:23Z</time>
      </trkpt>
      <trkpt lat="41.99837" lon="1.585083">
        <time>2022-07-09T07:25:25Z</time>
      </trkpt>
      <trkpt lat="41.99833" lon="1.5851266">
        <time>2022-07-09T07:25:26Z</time>
      </trkpt>
      <trkpt lat="41.998283" lon="1.5851723">
        <time>2022-07-09T07:25:27Z</time>
      </trkpt>
      <trkpt lat="41.99824" lon="1.5852193">
        <time>2022-07-09T07:25:28Z</time>
      </trkpt>
      <trkpt lat="41.9982" lon="1.585268">
        <time>2022-07-09T07:25:29Z</time>
      </trkpt>
      <trkpt lat="41.998158" lon="1.585318">
        <time>2022-07-09T07:25:30Z</time>
      </trkpt>
      <trkpt lat="41.99812" lon="1.5853696">
        <time>2022-07-09T07:25:31Z</time>
      </trkpt>
      <trkpt lat="41.998077" lon="1.5854236">
        <time>2022-07-09T07:25:32Z</time>
      </trkpt>
      <trkpt lat="41.99804" lon="1.5854787">
        <time>2022-07-09T07:25:33Z</time>
      </trkpt>
      <trkpt lat="41.997997" lon="1.5855349">
        <time>2022-07-09T07:25:34Z</time>
      </trkpt>
      <trkpt lat="41.99796" lon="1.5855926">
        <time>2022-07-09T07:25:35Z</time>
      </trkpt>
      <trkpt lat="41.997917" lon="1.5856516">
        <time>2022-07-09T07:25:36Z</time>
      </trkpt>
      <trkpt lat="41.99788" lon="1.5857103">
        <time>2022-07-09T07:25:37Z</time>
      </trkpt>
      <trkpt lat="41.997837" lon="1.5857689">
        <time>2022-07-09T07:25:38Z</time>
      </trkpt>
      <trkpt lat="41.997795" lon="1.585828">
        <time>2022-07-09T07:25:39Z</time>
      </trkpt>
      <trkpt lat="41.997753" lon="1.5858879">
        <time>2022-07-09T07:25:40Z</time>
      </trkpt>
      <trkpt lat="41.99771" lon="1.5859486">
        <time>2022-07-09T07:25:41Z</time>
      </trkpt>
      <trkpt lat="41.99767" lon="1.5860093">
        <time>2022-07-09T07:25:42Z</time>
      </trkpt>
      <trkpt lat="41.997627" lon="1.5860707">
        <time>2022-07-09T07:25:43Z</time>
      </trkpt>
      <trkpt lat="41.997585" lon="1.5861323">
        <time>2022-07-09T07:25:44Z</time>
      </trkpt>
      <trkpt lat="41.997543" lon="1.5861936">
        <time>2022-07-09T07:25:45Z</time>
      </trkpt>
      <trkpt lat="41.9975" lon="1.5862533">
        <time>2022-07-09T07:25:46Z</time>
      </trkpt>
      <trkpt lat="41.997463" lon="1.5863109">
        <time>2022-07-09T07:25:47Z</time>
      </trkpt>
      <trkpt lat="41.997425" lon="1.5863672">
        <time>2022-07-09T07:25:48Z</time>
      </trkpt>
      <trkpt lat="41.997387" lon="1.5864213">
        <time>2022-07-09T07:25:49Z</time>
      </trkpt>
      <trkpt lat="41.99735" lon="1.5864753">
        <time>2022-07-09T07:25:50Z</time>
      </trkpt>
      <trkpt lat="41.99731" lon="1.5865272">
        <time>2022-07-09T07:25:51Z</time>
      </trkpt>
      <trkpt lat="41.997276" lon="1.5865773">
        <time>2022-07-09T07:25:52Z</time>
      </trkpt>
      <trkpt lat="41.997208" lon="1.5866749">
        <time>2022-07-09T07:25:54Z</time>
      </trkpt>
      <trkpt lat="41.997147" lon="1.5867653">
        <time>2022-07-09T07:25:56Z</time>
      </trkpt>
      <trkpt lat="41.997093" lon="1.5868489">
        <time>2022-07-09T07:25:58Z</time>
      </trkpt>
      <trkpt lat="41.99704" lon="1.5869262">
        <time>2022-07-09T07:26:00Z</time>
      </trkpt>
      <trkpt lat="41.996994" lon="1.5869966">
        <time>2022-07-09T07:26:02Z</time>
      </trkpt>
      <trkpt lat="41.99695" lon="1.5870612">
        <time>2022-07-09T07:26:04Z</time>
      </trkpt>
      <trkpt lat="41.996906" lon="1.5871229">
        <time>2022-07-09T07:26:06Z</time>
      </trkpt>
      <trkpt lat="41.996864" lon="1.5871842">
        <time>2022-07-09T07:26:08Z</time>
      </trkpt>
      <trkpt lat="41.996822" lon="1.5872456">
        <time>2022-07-09T07:26:10Z</time>
      </trkpt>
      <trkpt lat="41.996777" lon="1.5873032">
        <time>2022-07-09T07:26:12Z</time>
      </trkpt>
      <trkpt lat="41.99674" lon="1.5873592">
        <time>2022-07-09T07:26:14Z</time>
      </trkpt>
      <trkpt lat="41.996696" lon="1.5874202">
        <time>2022-07-09T07:26:16Z</time>
      </trkpt>
      <trkpt lat="41.99666" lon="1.5874772">
        <time>2022-07-09T07:26:18Z</time>
      </trkpt>
      <trkpt lat="41.99662" lon="1.5875316">
        <time>2022-07-09T07:26:20Z</time>
      </trkpt>
      <trkpt lat="41.996582" lon="1.5875862">
        <time>2022-07-09T07:26:22Z</time>
      </trkpt>
      <trkpt lat="41.996548" lon="1.5876362">
        <time>2022-07-09T07:26:24Z</time>
      </trkpt>
      <trkpt lat="41.9965" lon="1.5877005">
        <time>2022-07-09T07:26:27Z</time>
      </trkpt>
      <trkpt lat="41.996452" lon="1.5877649">
        <time>2022-07-09T07:26:30Z</time>
      </trkpt>
      <trkpt lat="41.996407" lon="1.5878319">
        <time>2022-07-09T07:26:33Z</time>
      </trkpt>
      <trkpt lat="41.99636" lon="1.5878998">
        <time>2022-07-09T07:26:36Z</time>
      </trkpt>
      <trkpt lat="41.996315" lon="1.5879681">
        <time>2022-07-09T07:26:39Z</time>
      </trkpt>
      <trkpt lat="41.996265" lon="1.5880368">
        <time>2022-07-09T07:26:42Z</time>
      </trkpt>
      <trkpt lat="41.99623" lon="1.5880822">
        <time>2022-07-09T07:26:44Z</time>
      </trkpt>
      <trkpt lat="41.996178" lon="1.5881488">
        <time>2022-07-09T07:26:47Z</time>
      </trkpt>
      <trkpt lat="41.996128" lon="1.5882142">
        <time>2022-07-09T07:26:50Z</time>
      </trkpt>
      <trkpt lat="41.99607" lon="1.5882818">
        <time>2022-07-09T07:26:53Z</time>
      </trkpt>
      <trkpt lat="41.996014" lon="1.5883535">
        <time>2022-07-09T07:26:56Z</time>
      </trkpt>
      <trkpt lat="41.995975" lon="1.5883995">
        <time>2022-07-09T07:26:58Z</time>
      </trkpt>
      <trkpt lat="41.995934" lon="1.5884445">
        <time>2022-07-09T07:27:00Z</time>
      </trkpt>
      <trkpt lat="41.99589" lon="1.5884892">
        <time>2022-07-09T07:27:02Z</time>
      </trkpt>
      <trkpt lat="41.99585" lon="1.5885341">
        <time>2022-07-09T07:27:04Z</time>
      </trkpt>
      <trkpt lat="41.995804" lon="1.5885794">
        <time>2022-07-09T07:27:06Z</time>
      </trkpt>
      <trkpt lat="41.99576" lon="1.5886245">
        <time>2022-07-09T07:27:08Z</time>
      </trkpt>
      <trkpt lat="41.995716" lon="1.5886705">
        <time>2022-07-09T07:27:10Z</time>
      </trkpt>
      <trkpt lat="41.995667" lon="1.5887151">
        <time>2022-07-09T07:27:12Z</time>
      </trkpt>
      <trkpt lat="41.995617" lon="1.5887574">
        <time>2022-07-09T07:27:14Z</time>
      </trkpt>
      <trkpt lat="41.995567" lon="1.5887967">
        <time>2022-07-09T07:27:16Z</time>
      </trkpt>
      <trkpt lat="41.995518" lon="1.5888327">
        <time>2022-07-09T07:27:18Z</time>
      </trkpt>
      <trkpt lat="41.995457" lon="1.5888704">
        <time>2022-07-09T07:27:20Z</time>
      </trkpt>
      <trkpt lat="41.995396" lon="1.5889081">
        <time>2022-07-09T07:27:22Z</time>
      </trkpt>
      <trkpt lat="41.99534" lon="1.5889481">
        <time>2022-07-09T07:27:24Z</time>
      </trkpt>
      <trkpt lat="41.995277" lon="1.5889871">
        <time>2022-07-09T07:27:26Z</time>
      </trkpt>
      <trkpt lat="41.995213" lon="1.5890251">
        <time>2022-07-09T07:27:28Z</time>
      </trkpt>
      <trkpt lat="41.995144" lon="1.5890595">
        <time>2022-07-09T07:27:30Z</time>
      </trkpt>
      <trkpt lat="41.99507" lon="1.5890921">
        <time>2022-07-09T07:27:32Z</time>
      </trkpt>
      <trkpt lat="41.995003" lon="1.5891224">
        <time>2022-07-09T07:27:34Z</time>
      </trkpt>
      <trkpt lat="41.99493" lon="1.5891517">
        <time>2022-07-09T07:27:36Z</time>
      </trkpt>
      <trkpt lat="41.994858" lon="1.5891768">
        <time>2022-07-09T07:27:38Z</time>
      </trkpt>
      <trkpt lat="41.994785" lon="1.5892044">
        <time>2022-07-09T07:27:40Z</time>
      </trkpt>
      <trkpt lat="41.994717" lon="1.5892317">
        <time>2022-07-09T07:27:42Z</time>
      </trkpt>
      <trkpt lat="41.99464" lon="1.5892584">
        <time>2022-07-09T07:27:44Z</time>
      </trkpt>
      <trkpt lat="41.994568" lon="1.5892794">
        <time>2022-07-09T07:27:46Z</time>
      </trkpt>
      <trkpt lat="41.994488" lon="1.5893">
        <time>2022-07-09T07:27:48Z</time>
      </trkpt>
      <trkpt lat="41.994408" lon="1.5893208">
        <time>2022-07-09T07:27:50Z</time>
      </trkpt>
      <trkpt lat="41.994324" lon="1.5893453">
        <time>2022-07-09T07:27:52Z</time>
      </trkpt>
      <trkpt lat="41.994244" lon="1.589372">
        <time>2022-07-09T07:27:54Z</time>
      </trkpt>
      <trkpt lat="41.994164" lon="1.5894">
        <time>2022-07-09T07:27:56Z</time>
      </trkpt>
      <trkpt lat="41.994087" lon="1.5894297">
        <time>2022-07-09T07:27:58Z</time>
      </trkpt>
      <trkpt lat="41.994015" lon="1.5894591">
        <time>2022-07-09T07:28:00Z</time>
      </trkpt>
      <trkpt lat="41.99394" lon="1.5894871">
        <time>2022-07-09T07:28:02Z</time>
      </trkpt>
      <trkpt lat="41.993862" lon="1.5895133">
        <time>2022-07-09T07:28:04Z</time>
      </trkpt>
      <trkpt lat="41.993782" lon="1.58954">
        <time>2022-07-09T07:28:06Z</time>
      </trkpt>
      <trkpt lat="41.993706" lon="1.5895667">
        <time>2022-07-09T07:28:08Z</time>
      </trkpt>
      <trkpt lat="41.99363" lon="1.5895936">
        <time>2022-07-09T07:28:10Z</time>
      </trkpt>
      <trkpt lat="41.993553" lon="1.5896187">
        <time>2022-07-09T07:28:12Z</time>
      </trkpt>
      <trkpt lat="41.993477" lon="1.5896443">
        <time>2022-07-09T07:28:14Z</time>
      </trkpt>
      <trkpt lat="41.993404" lon="1.589669">
        <time>2022-07-09T07:28:16Z</time>
      </trkpt>
      <trkpt lat="41.993332" lon="1.589694">
        <time>2022-07-09T07:28:18Z</time>
      </trkpt>
      <trkpt lat="41.993263" lon="1.5897237">
        <time>2022-07-09T07:28:20Z</time>
      </trkpt>
      <trkpt lat="41.99319" lon="1.5897573">
        <time>2022-07-09T07:28:22Z</time>
      </trkpt>
      <trkpt lat="41.993126" lon="1.5897946">
        <time>2022-07-09T07:28:24Z</time>
      </trkpt>
      <trkpt lat="41.993065" lon="1.5898356">
        <time>2022-07-09T07:28:26Z</time>
      </trkpt>
      <trkpt lat="41.993004" lon="1.5898817">
        <time>2022-07-09T07:28:28Z</time>
      </trkpt>
      <trkpt lat="41.992947" lon="1.5899333">
        <time>2022-07-09T07:28:30Z</time>
      </trkpt>
      <trkpt lat="41.992897" lon="1.589989">
        <time>2022-07-09T07:28:32Z</time>
      </trkpt>
      <trkpt lat="41.992847" lon="1.5900517">
        <time>2022-07-09T07:28:34Z</time>
      </trkpt>
      <trkpt lat="41.9928" lon="1.59012">
        <time>2022-07-09T07:28:36Z</time>
      </trkpt>
      <trkpt lat="41.99276" lon="1.590194">
        <time>2022-07-09T07:28:38Z</time>
      </trkpt>
      <trkpt lat="41.99272" lon="1.5902696">
        <time>2022-07-09T07:28:40Z</time>
      </trkpt>
      <trkpt lat="41.992695" lon="1.5903499">
        <time>2022-07-09T07:28:42Z</time>
      </trkpt>
      <trkpt lat="41.992664" lon="1.5904349">
        <time>2022-07-09T07:28:44Z</time>
      </trkpt>
      <trkpt lat="41.99264" lon="1.5905246">
        <time>2022-07-09T07:28:46Z</time>
      </trkpt>
      <trkpt lat="41.992626" lon="1.590616">
        <time>2022-07-09T07:28:48Z</time>
      </trkpt>
      <trkpt lat="41.992622" lon="1.5907096">
        <time>2022-07-09T07:28:50Z</time>
      </trkpt>
      <trkpt lat="41.992626" lon="1.590807">
        <time>2022-07-09T07:28:52Z</time>
      </trkpt>
      <trkpt lat="41.992634" lon="1.5909063">
        <time>2022-07-09T07:28:54Z</time>
      </trkpt>
      <trkpt lat="41.992645" lon="1.5910043">
        <time>2022-07-09T07:28:56Z</time>
      </trkpt>
      <trkpt lat="41.99267" lon="1.5911">
        <time>2022-07-09T07:28:58Z</time>
      </trkpt>
      <trkpt lat="41.99269" lon="1.5911889">
        <time>2022-07-09T07:29:00Z</time>
      </trkpt>
      <trkpt lat="41.992718" lon="1.591275">
        <time>2022-07-09T07:29:02Z</time>
      </trkpt>
      <trkpt lat="41.99275" lon="1.5913622">
        <time>2022-07-09T07:29:04Z</time>
      </trkpt>
      <trkpt lat="41.99279" lon="1.591448">
        <time>2022-07-09T07:29:06Z</time>
      </trkpt>
      <trkpt lat="41.992844" lon="1.5915339">
        <time>2022-07-09T07:29:08Z</time>
      </trkpt>
      <trkpt lat="41.992897" lon="1.5916209">
        <time>2022-07-09T07:29:10Z</time>
      </trkpt>
      <trkpt lat="41.99295" lon="1.5917059">
        <time>2022-07-09T07:29:12Z</time>
      </trkpt>
      <trkpt lat="41.99301" lon="1.5917913">
        <time>2022-07-09T07:29:14Z</time>
      </trkpt>
      <trkpt lat="41.993073" lon="1.5918789">
        <time>2022-07-09T07:29:16Z</time>
      </trkpt>
      <trkpt lat="41.993137" lon="1.5919702">
        <time>2022-07-09T07:29:18Z</time>
      </trkpt>
      <trkpt lat="41.993202" lon="1.5920639">
        <time>2022-07-09T07:29:20Z</time>
      </trkpt>
      <trkpt lat="41.993233" lon="1.5921112">
        <time>2022-07-09T07:29:21Z</time>
      </trkpt>
      <trkpt lat="41.9933" lon="1.5922062">
        <time>2022-07-09T07:29:23Z</time>
      </trkpt>
      <trkpt lat="41.993332" lon="1.5922539">
        <time>2022-07-09T07:29:24Z</time>
      </trkpt>
      <trkpt lat="41.993397" lon="1.5923502">
        <time>2022-07-09T07:29:26Z</time>
      </trkpt>
      <trkpt lat="41.99343" lon="1.5923982">
        <time>2022-07-09T07:29:27Z</time>
      </trkpt>
      <trkpt lat="41.9935" lon="1.5924952">
        <time>2022-07-09T07:29:29Z</time>
      </trkpt>
      <trkpt lat="41.99357" lon="1.5925915">
        <time>2022-07-09T07:29:31Z</time>
      </trkpt>
      <trkpt lat="41.993637" lon="1.5926902">
        <time>2022-07-09T07:29:33Z</time>
      </trkpt>
      <trkpt lat="41.99367" lon="1.5927398">
        <time>2022-07-09T07:29:34Z</time>
      </trkpt>
      <trkpt lat="41.99374" lon="1.5928389">
        <time>2022-07-09T07:29:36Z</time>
      </trkpt>
      <trkpt lat="41.99378" lon="1.5928885">
        <time>2022-07-09T07:29:37Z</time>
      </trkpt>
      <trkpt lat="41.993847" lon="1.5929868">
        <time>2022-07-09T07:29:39Z</time>
      </trkpt>
      <trkpt lat="41.993916" lon="1.5930868">
        <time>2022-07-09T07:29:41Z</time>
      </trkpt>
      <trkpt lat="41.993954" lon="1.5931385">
        <time>2022-07-09T07:29:42Z</time>
      </trkpt>
      <trkpt lat="41.993988" lon="1.5931906">
        <time>2022-07-09T07:29:43Z</time>
      </trkpt>
      <trkpt lat="41.994022" lon="1.5932429">
        <time>2022-07-09T07:29:44Z</time>
      </trkpt>
      <trkpt lat="41.99409" lon="1.5933485">
        <time>2022-07-09T07:29:46Z</time>
      </trkpt>
      <trkpt lat="41.994125" lon="1.5934016">
        <time>2022-07-09T07:29:47Z</time>
      </trkpt>
      <trkpt lat="41.994164" lon="1.5934548">
        <time>2022-07-09T07:29:48Z</time>
      </trkpt>
      <trkpt lat="41.994198" lon="1.5935042">
        <time>2022-07-09T07:29:49Z</time>
      </trkpt>
      <trkpt lat="41.994267" lon="1.5936042">
        <time>2022-07-09T07:29:51Z</time>
      </trkpt>
      <trkpt lat="41.994305" lon="1.5936555">
        <time>2022-07-09T07:29:52Z</time>
      </trkpt>
      <trkpt lat="41.99434" lon="1.5937061">
        <time>2022-07-09T07:29:53Z</time>
      </trkpt>
      <trkpt lat="41.994408" lon="1.5938038">
        <time>2022-07-09T07:29:55Z</time>
      </trkpt>
      <trkpt lat="41.994473" lon="1.5938954">
        <time>2022-07-09T07:29:57Z</time>
      </trkpt>
      <trkpt lat="41.99453" lon="1.5939811">
        <time>2022-07-09T07:29:59Z</time>
      </trkpt>
      <trkpt lat="41.99459" lon="1.5940648">
        <time>2022-07-09T07:30:01Z</time>
      </trkpt>
      <trkpt lat="41.994648" lon="1.5941424">
        <time>2022-07-09T07:30:03Z</time>
      </trkpt>
      <trkpt lat="41.994698" lon="1.5942154">
        <time>2022-07-09T07:30:05Z</time>
      </trkpt>
      <trkpt lat="41.994743" lon="1.5942818">
        <time>2022-07-09T07:30:07Z</time>
      </trkpt>
      <trkpt lat="41.994793" lon="1.5943458">
        <time>2022-07-09T07:30:09Z</time>
      </trkpt>
      <trkpt lat="41.994843" lon="1.5944084">
        <time>2022-07-09T07:30:11Z</time>
      </trkpt>
      <trkpt lat="41.99489" lon="1.594467">
        <time>2022-07-09T07:30:13Z</time>
      </trkpt>
      <trkpt lat="41.994934" lon="1.5945241">
        <time>2022-07-09T07:30:15Z</time>
      </trkpt>
      <trkpt lat="41.99498" lon="1.5945784">
        <time>2022-07-09T07:30:17Z</time>
      </trkpt>
      <trkpt lat="41.995026" lon="1.5946324">
        <time>2022-07-09T07:30:19Z</time>
      </trkpt>
      <trkpt lat="41.995075" lon="1.5946814">
        <time>2022-07-09T07:30:21Z</time>
      </trkpt>
      <trkpt lat="41.99512" lon="1.5947287">
        <time>2022-07-09T07:30:23Z</time>
      </trkpt>
      <trkpt lat="41.99517" lon="1.5947804">
        <time>2022-07-09T07:30:25Z</time>
      </trkpt>
      <trkpt lat="41.99522" lon="1.5948334">
        <time>2022-07-09T07:30:27Z</time>
      </trkpt>
      <trkpt lat="41.995266" lon="1.5948851">
        <time>2022-07-09T07:30:29Z</time>
      </trkpt>
      <trkpt lat="41.99532" lon="1.5949354">
        <time>2022-07-09T07:30:31Z</time>
      </trkpt>
      <trkpt lat="41.99537" lon="1.5949848">
        <time>2022-07-09T07:30:33Z</time>
      </trkpt>
      <trkpt lat="41.99542" lon="1.5950364">
        <time>2022-07-09T07:30:35Z</time>
      </trkpt>
      <trkpt lat="41.99547" lon="1.5950878">
        <time>2022-07-09T07:30:37Z</time>
      </trkpt>
      <trkpt lat="41.99552" lon="1.595139">
        <time>2022-07-09T07:30:39Z</time>
      </trkpt>
      <trkpt lat="41.995575" lon="1.59519">
        <time>2022-07-09T07:30:41Z</time>
      </trkpt>
      <trkpt lat="41.995625" lon="1.5952407">
        <time>2022-07-09T07:30:43Z</time>
      </trkpt>
      <trkpt lat="41.995674" lon="1.5952947">
        <time>2022-07-09T07:30:45Z</time>
      </trkpt>
      <trkpt lat="41.995728" lon="1.5953474">
        <time>2022-07-09T07:30:47Z</time>
      </trkpt>
      <trkpt lat="41.99578" lon="1.5954007">
        <time>2022-07-09T07:30:49Z</time>
      </trkpt>
      <trkpt lat="41.99583" lon="1.5954564">
        <time>2022-07-09T07:30:51Z</time>
      </trkpt>
      <trkpt lat="41.995884" lon="1.5955113">
        <time>2022-07-09T07:30:53Z</time>
      </trkpt>
      <trkpt lat="41.995934" lon="1.5955637">
        <time>2022-07-09T07:30:55Z</time>
      </trkpt>
      <trkpt lat="41.995983" lon="1.5956143">
        <time>2022-07-09T07:30:57Z</time>
      </trkpt>
      <trkpt lat="41.99603" lon="1.595664">
        <time>2022-07-09T07:30:59Z</time>
      </trkpt>
      <trkpt lat="41.996075" lon="1.5957134">
        <time>2022-07-09T07:31:01Z</time>
      </trkpt>
      <trkpt lat="41.996117" lon="1.5957633">
        <time>2022-07-09T07:31:03Z</time>
      </trkpt>
      <trkpt lat="41.99616" lon="1.5958123">
        <time>2022-07-09T07:31:05Z</time>
      </trkpt>
      <trkpt lat="41.9962" lon="1.5958604">
        <time>2022-07-09T07:31:07Z</time>
      </trkpt>
      <trkpt lat="41.99624" lon="1.5959094">
        <time>2022-07-09T07:31:09Z</time>
      </trkpt>
      <trkpt lat="41.99628" lon="1.5959584">
        <time>2022-07-09T07:31:11Z</time>
      </trkpt>
      <trkpt lat="41.99632" lon="1.5960057">
        <time>2022-07-09T07:31:13Z</time>
      </trkpt>
      <trkpt lat="41.996353" lon="1.5960534">
        <time>2022-07-09T07:31:15Z</time>
      </trkpt>
      <trkpt lat="41.99639" lon="1.596103">
        <time>2022-07-09T07:31:17Z</time>
      </trkpt>
      <trkpt lat="41.996433" lon="1.5961527">
        <time>2022-07-09T07:31:19Z</time>
      </trkpt>
      <trkpt lat="41.99647" lon="1.5962007">
        <time>2022-07-09T07:31:21Z</time>
      </trkpt>
      <trkpt lat="41.996506" lon="1.5962507">
        <time>2022-07-09T07:31:23Z</time>
      </trkpt>
      <trkpt lat="41.996563" lon="1.5963227">
        <time>2022-07-09T07:31:26Z</time>
      </trkpt>
      <trkpt lat="41.996605" lon="1.5963713">
        <time>2022-07-09T07:31:28Z</time>
      </trkpt>
      <trkpt lat="41.996643" lon="1.5964199">
        <time>2022-07-09T07:31:30Z</time>
      </trkpt>
      <trkpt lat="41.99668" lon="1.5964683">
        <time>2022-07-09T07:31:32Z</time>
      </trkpt>
      <trkpt lat="41.996723" lon="1.5965183">
        <time>2022-07-09T07:31:34Z</time>
      </trkpt>
      <trkpt lat="41.99677" lon="1.5965786">
        <time>2022-07-09T07:31:37Z</time>
      </trkpt>
      <trkpt lat="41.996815" lon="1.5966333">
        <time>2022-07-09T07:31:39Z</time>
      </trkpt>
      <trkpt lat="41.996853" lon="1.5966846">
        <time>2022-07-09T07:31:41Z</time>
      </trkpt>
      <trkpt lat="41.99689" lon="1.5967369">
        <time>2022-07-09T07:31:43Z</time>
      </trkpt>
      <trkpt lat="41.99693" lon="1.5967866">
        <time>2022-07-09T07:31:45Z</time>
      </trkpt>
      <trkpt lat="41.996967" lon="1.5968319">
        <time>2022-07-09T07:31:47Z</time>
      </trkpt>
      <trkpt lat="41.997005" lon="1.5968813">
        <time>2022-07-09T07:31:49Z</time>
      </trkpt>
      <trkpt lat="41.997044" lon="1.5969332">
        <time>2022-07-09T07:31:51Z</time>
      </trkpt>
      <trkpt lat="41.99708" lon="1.596985">
        <time>2022-07-09T07:31:53Z</time>
      </trkpt>
      <trkpt lat="41.997116" lon="1.5970353">
        <time>2022-07-09T07:31:55Z</time>
      </trkpt>
      <trkpt lat="41.997173" lon="1.5971093">
        <time>2022-07-09T07:31:58Z</time>
      </trkpt>
      <trkpt lat="41.99721" lon="1.5971589">
        <time>2022-07-09T07:32:00Z</time>
      </trkpt>
      <trkpt lat="41.997246" lon="1.5972103">
        <time>2022-07-09T07:32:02Z</time>
      </trkpt>
      <trkpt lat="41.99728" lon="1.5972632">
        <time>2022-07-09T07:32:04Z</time>
      </trkpt>
      <trkpt lat="41.997314" lon="1.5973159">
        <time>2022-07-09T07:32:06Z</time>
      </trkpt>
      <trkpt lat="41.997353" lon="1.5973709">
        <time>2022-07-09T07:32:08Z</time>
      </trkpt>
      <trkpt lat="41.99739" lon="1.5974259">
        <time>2022-07-09T07:32:10Z</time>
      </trkpt>
      <trkpt lat="41.997425" lon="1.5974772">
        <time>2022-07-09T07:32:12Z</time>
      </trkpt>
      <trkpt lat="41.997463" lon="1.5975289">
        <time>2022-07-09T07:32:14Z</time>
      </trkpt>
      <trkpt lat="41.9975" lon="1.5975839">
        <time>2022-07-09T07:32:16Z</time>
      </trkpt>
      <trkpt lat="41.997536" lon="1.597642">
        <time>2022-07-09T07:32:18Z</time>
      </trkpt>
      <trkpt lat="41.997574" lon="1.5976962">
        <time>2022-07-09T07:32:20Z</time>
      </trkpt>
      <trkpt lat="41.99761" lon="1.5977516">
        <time>2022-07-09T07:32:22Z</time>
      </trkpt>
      <trkpt lat="41.997646" lon="1.5978053">
        <time>2022-07-09T07:32:24Z</time>
      </trkpt>
      <trkpt lat="41.99768" lon="1.5978606">
        <time>2022-07-09T07:32:26Z</time>
      </trkpt>
      <trkpt lat="41.99772" lon="1.5979152">
        <time>2022-07-09T07:32:28Z</time>
      </trkpt>
      <trkpt lat="41.997753" lon="1.5979708">
        <time>2022-07-09T07:32:30Z</time>
      </trkpt>
      <trkpt lat="41.997787" lon="1.5980276">
        <time>2022-07-09T07:32:32Z</time>
      </trkpt>
      <trkpt lat="41.99782" lon="1.5980829">
        <time>2022-07-09T07:32:34Z</time>
      </trkpt>
      <trkpt lat="41.99788" lon="1.5981668">
        <time>2022-07-09T07:32:37Z</time>
      </trkpt>
      <trkpt lat="41.99791" lon="1.5982195">
        <time>2022-07-09T07:32:39Z</time>
      </trkpt>
      <trkpt lat="41.99796" lon="1.5983015">
        <time>2022-07-09T07:32:42Z</time>
      </trkpt>
      <trkpt lat="41.99799" lon="1.5983539">
        <time>2022-07-09T07:32:44Z</time>
      </trkpt>
      <trkpt lat="41.99803" lon="1.5984288">
        <time>2022-07-09T07:32:47Z</time>
      </trkpt>
      <trkpt lat="41.998074" lon="1.5985012">
        <time>2022-07-09T07:32:50Z</time>
      </trkpt>
      <trkpt lat="41.998116" lon="1.5985705">
        <time>2022-07-09T07:32:53Z</time>
      </trkpt>
      <trkpt lat="41.99815" lon="1.5986378">
        <time>2022-07-09T07:32:56Z</time>
      </trkpt>
      <trkpt lat="41.99819" lon="1.5987048">
        <time>2022-07-09T07:32:59Z</time>
      </trkpt>
      <trkpt lat="41.99823" lon="1.5987712">
        <time>2022-07-09T07:33:02Z</time>
      </trkpt>
      <trkpt lat="41.998264" lon="1.5988369">
        <time>2022-07-09T07:33:05Z</time>
      </trkpt>
      <trkpt lat="41.998302" lon="1.5988991">
        <time>2022-07-09T07:33:08Z</time>
      </trkpt>
      <trkpt lat="41.998344" lon="1.5989615">
        <time>2022-07-09T07:33:11Z</time>
      </trkpt>
      <trkpt lat="41.99838" lon="1.5990208">
        <time>2022-07-09T07:33:14Z</time>
      </trkpt>
      <trkpt lat="41.998417" lon="1.5990838">
        <time>2022-07-09T07:33:17Z</time>
      </trkpt>
      <trkpt lat="41.998444" lon="1.5991428">
        <time>2022-07-09T07:33:20Z</time>
      </trkpt>
      <trkpt lat="41.998463" lon="1.5991888">
        <time>2022-07-09T07:37:11Z</time>
      </trkpt>
      <trkpt lat="41.998512" lon="1.5992638">
        <time>2022-07-09T07:37:15Z</time>
      </trkpt>
      <trkpt lat="41.998554" lon="1.5993255">
        <time>2022-07-09T07:37:18Z</time>
      </trkpt>
      <trkpt lat="41.99861" lon="1.5994174">
        <time>2022-07-09T07:37:22Z</time>
      </trkpt>
      <trkpt lat="41.998653" lon="1.5994852">
        <time>2022-07-09T07:37:25Z</time>
      </trkpt>
      <trkpt lat="41.99869" lon="1.5995505">
        <time>2022-07-09T07:37:28Z</time>
      </trkpt>
      <trkpt lat="41.998734" lon="1.5996195">
        <time>2022-07-09T07:37:31Z</time>
      </trkpt>
      <trkpt lat="41.998768" lon="1.5996838">
        <time>2022-07-09T07:37:34Z</time>
      </trkpt>
      <trkpt lat="41.99881" lon="1.5997524">
        <time>2022-07-09T07:37:37Z</time>
      </trkpt>
      <trkpt lat="41.99885" lon="1.5998218">
        <time>2022-07-09T07:37:40Z</time>
      </trkpt>
      <trkpt lat="41.998898" lon="1.5998855">
        <time>2022-07-09T07:37:43Z</time>
      </trkpt>
      <trkpt lat="41.998943" lon="1.5999458">
        <time>2022-07-09T07:37:46Z</time>
      </trkpt>
      <trkpt lat="41.99899" lon="1.5999985">
        <time>2022-07-09T07:37:49Z</time>
      </trkpt>
      <trkpt lat="41.999035" lon="1.6000512">
        <time>2022-07-09T07:37:52Z</time>
      </trkpt>
      <trkpt lat="41.999084" lon="1.6001024">
        <time>2022-07-09T07:37:55Z</time>
      </trkpt>
      <trkpt lat="41.999138" lon="1.6001501">
        <time>2022-07-09T07:37:58Z</time>
      </trkpt>
      <trkpt lat="41.99919" lon="1.6001948">
        <time>2022-07-09T07:38:01Z</time>
      </trkpt>
      <trkpt lat="41.99925" lon="1.6002381">
        <time>2022-07-09T07:38:04Z</time>
      </trkpt>
      <trkpt lat="41.999306" lon="1.6002795">
        <time>2022-07-09T07:38:07Z</time>
      </trkpt>
      <trkpt lat="41.99936" lon="1.6003194">
        <time>2022-07-09T07:38:10Z</time>
      </trkpt>
      <trkpt lat="41.999416" lon="1.6003574">
        <time>2022-07-09T07:38:13Z</time>
      </trkpt>
      <trkpt lat="41.999474" lon="1.6003921">
        <time>2022-07-09T07:38:16Z</time>
      </trkpt>
      <trkpt lat="41.99953" lon="1.6004257">
        <time>2022-07-09T07:38:19Z</time>
      </trkpt>
      <trkpt lat="41.999584" lon="1.6004628">
        <time>2022-07-09T07:38:22Z</time>
      </trkpt>
      <trkpt lat="41.999638" lon="1.6005007">
        <time>2022-07-09T07:38:25Z</time>
      </trkpt>
      <trkpt lat="41.99969" lon="1.6005348">
        <time>2022-07-09T07:38:28Z</time>
      </trkpt>
      <trkpt lat="41.99975" lon="1.6005718">
        <time>2022-07-09T07:38:31Z</time>
      </trkpt>
      <trkpt lat="41.9998" lon="1.6006114">
        <time>2022-07-09T07:38:34Z</time>
      </trkpt>
      <trkpt lat="41.999866" lon="1.6006688">
        <time>2022-07-09T07:38:38Z</time>
      </trkpt>
      <trkpt lat="41.999916" lon="1.6007164">
        <time>2022-07-09T07:38:41Z</time>
      </trkpt>
      <trkpt lat="41.999966" lon="1.6007653">
        <time>2022-07-09T07:38:44Z</time>
      </trkpt>
      <trkpt lat="42.000008" lon="1.6008188">
        <time>2022-07-09T07:38:47Z</time>
      </trkpt>
      <trkpt lat="42.00005" lon="1.600877">
        <time>2022-07-09T07:38:50Z</time>
      </trkpt>
      <trkpt lat="42.000084" lon="1.6009403">
        <time>2022-07-09T07:38:53Z</time>
      </trkpt>
      <trkpt lat="42.000122" lon="1.6010151">
        <time>2022-07-09T07:38:56Z</time>
      </trkpt>
      <trkpt lat="42.000153" lon="1.6010877">
        <time>2022-07-09T07:38:59Z</time>
      </trkpt>
      <trkpt lat="42.000183" lon="1.601164">
        <time>2022-07-09T07:39:02Z</time>
      </trkpt>
      <trkpt lat="42.00021" lon="1.6012421">
        <time>2022-07-09T07:39:05Z</time>
      </trkpt>
      <trkpt lat="42.000233" lon="1.6013243">
        <time>2022-07-09T07:39:08Z</time>
      </trkpt>
      <trkpt lat="42.000248" lon="1.6014041">
        <time>2022-07-09T07:39:11Z</time>
      </trkpt>
      <trkpt lat="42.000263" lon="1.601486">
        <time>2022-07-09T07:39:14Z</time>
      </trkpt>
      <trkpt lat="42.000282" lon="1.6015737">
        <time>2022-07-09T07:39:17Z</time>
      </trkpt>
      <trkpt lat="42.000298" lon="1.601663">
        <time>2022-07-09T07:39:20Z</time>
      </trkpt>
      <trkpt lat="42.00031" lon="1.6017476">
        <time>2022-07-09T07:39:23Z</time>
      </trkpt>
      <trkpt lat="42.000324" lon="1.601832">
        <time>2022-07-09T07:39:26Z</time>
      </trkpt>
      <trkpt lat="42.000343" lon="1.60192">
        <time>2022-07-09T07:39:29Z</time>
      </trkpt>
      <trkpt lat="42.000355" lon="1.6020043">
        <time>2022-07-09T07:39:32Z</time>
      </trkpt>
      <trkpt lat="42.000366" lon="1.6020907">
        <time>2022-07-09T07:39:35Z</time>
      </trkpt>
      <trkpt lat="42.000378" lon="1.6021773">
        <time>2022-07-09T07:39:38Z</time>
      </trkpt>
      <trkpt lat="42.0004" lon="1.6022673">
        <time>2022-07-09T07:39:41Z</time>
      </trkpt>
      <trkpt lat="42.000416" lon="1.6023633">
        <time>2022-07-09T07:39:44Z</time>
      </trkpt>
      <trkpt lat="42.000435" lon="1.6024543">
        <time>2022-07-09T07:39:47Z</time>
      </trkpt>
      <trkpt lat="42.000446" lon="1.6025426">
        <time>2022-07-09T07:39:50Z</time>
      </trkpt>
      <trkpt lat="42.00046" lon="1.602626">
        <time>2022-07-09T07:39:53Z</time>
      </trkpt>
      <trkpt lat="42.000473" lon="1.602715">
        <time>2022-07-09T07:39:56Z</time>
      </trkpt>
      <trkpt lat="42.00049" lon="1.6028026">
        <time>2022-07-09T07:39:59Z</time>
      </trkpt>
      <trkpt lat="42.0005" lon="1.6028919">
        <time>2022-07-09T07:40:02Z</time>
      </trkpt>
      <trkpt lat="42.000515" lon="1.6029823">
        <time>2022-07-09T07:40:05Z</time>
      </trkpt>
      <trkpt lat="42.00053" lon="1.6030749">
        <time>2022-07-09T07:40:08Z</time>
      </trkpt>
      <trkpt lat="42.000546" lon="1.6031632">
        <time>2022-07-09T07:40:11Z</time>
      </trkpt>
      <trkpt lat="42.000557" lon="1.6032513">
        <time>2022-07-09T07:40:14Z</time>
      </trkpt>
      <trkpt lat="42.000576" lon="1.6033436">
        <time>2022-07-09T07:40:17Z</time>
      </trkpt>
      <trkpt lat="42.0006" lon="1.6034323">
        <time>2022-07-09T07:40:20Z</time>
      </trkpt>
      <trkpt lat="42.00061" lon="1.6035156">
        <time>2022-07-09T07:40:23Z</time>
      </trkpt>
      <trkpt lat="42.00062" lon="1.603599">
        <time>2022-07-09T07:40:26Z</time>
      </trkpt>
      <trkpt lat="42.00063" lon="1.6036893">
        <time>2022-07-09T07:40:29Z</time>
      </trkpt>
      <trkpt lat="42.00065" lon="1.6037736">
        <time>2022-07-09T07:40:32Z</time>
      </trkpt>
      <trkpt lat="42.000668" lon="1.6038562">
        <time>2022-07-09T07:40:35Z</time>
      </trkpt>
      <trkpt lat="42.00069" lon="1.6039426">
        <time>2022-07-09T07:40:38Z</time>
      </trkpt>
      <trkpt lat="42.00071" lon="1.6040276">
        <time>2022-07-09T07:40:41Z</time>
      </trkpt>
      <trkpt lat="42.000736" lon="1.6041143">
        <time>2022-07-09T07:40:44Z</time>
      </trkpt>
      <trkpt lat="42.000755" lon="1.6041709">
        <time>2022-07-09T07:40:46Z</time>
      </trkpt>
      <trkpt lat="42.000786" lon="1.6042513">
        <time>2022-07-09T07:40:49Z</time>
      </trkpt>
      <trkpt lat="42.000816" lon="1.6043283">
        <time>2022-07-09T07:40:52Z</time>
      </trkpt>
      <trkpt lat="42.000847" lon="1.6044025">
        <time>2022-07-09T07:40:55Z</time>
      </trkpt>
      <trkpt lat="42.00089" lon="1.6044729">
        <time>2022-07-09T07:40:58Z</time>
      </trkpt>
      <trkpt lat="42.00093" lon="1.6045462">
        <time>2022-07-09T07:41:01Z</time>
      </trkpt>
      <trkpt lat="42.000957" lon="1.6046019">
        <time>2022-07-09T07:41:03Z</time>
      </trkpt>
      <trkpt lat="42.000996" lon="1.6046818">
        <time>2022-07-09T07:41:06Z</time>
      </trkpt>
      <trkpt lat="42.001034" lon="1.6047599">
        <time>2022-07-09T07:41:09Z</time>
      </trkpt>
      <trkpt lat="42.001083" lon="1.6048689">
        <time>2022-07-09T07:41:14Z</time>
      </trkpt>
      <trkpt lat="42.00111" lon="1.6049262">
        <time>2022-07-09T07:41:16Z</time>
      </trkpt>
      <trkpt lat="42.001144" lon="1.6050049">
        <time>2022-07-09T07:41:19Z</time>
      </trkpt>
      <trkpt lat="42.00117" lon="1.6050822">
        <time>2022-07-09T07:41:22Z</time>
      </trkpt>
      <trkpt lat="42.001198" lon="1.6051579">
        <time>2022-07-09T07:41:25Z</time>
      </trkpt>
      <trkpt lat="42.001217" lon="1.6052382">
        <time>2022-07-09T07:41:28Z</time>
      </trkpt>
      <trkpt lat="42.001232" lon="1.6053172">
        <time>2022-07-09T07:41:31Z</time>
      </trkpt>
      <trkpt lat="42.00125" lon="1.6053976">
        <time>2022-07-09T07:41:34Z</time>
      </trkpt>
      <trkpt lat="42.00127" lon="1.6054828">
        <time>2022-07-09T07:41:37Z</time>
      </trkpt>
      <trkpt lat="42.00129" lon="1.6055706">
        <time>2022-07-09T07:41:40Z</time>
      </trkpt>
      <trkpt lat="42.001316" lon="1.6056591">
        <time>2022-07-09T07:41:43Z</time>
      </trkpt>
      <trkpt lat="42.00134" lon="1.6057456">
        <time>2022-07-09T07:41:46Z</time>
      </trkpt>
      <trkpt lat="42.00136" lon="1.6058369">
        <time>2022-07-09T07:41:49Z</time>
      </trkpt>
      <trkpt lat="42.001377" lon="1.6059048">
        <time>2022-07-09T07:41:51Z</time>
      </trkpt>
      <trkpt lat="42.0014" lon="1.6059794">
        <time>2022-07-09T07:41:53Z</time>
      </trkpt>
      <trkpt lat="42.001423" lon="1.6060601">
        <time>2022-07-09T07:41:55Z</time>
      </trkpt>
      <trkpt lat="42.001446" lon="1.6061472">
        <time>2022-07-09T07:41:57Z</time>
      </trkpt>
      <trkpt lat="42.001472" lon="1.6062378">
        <time>2022-07-09T07:41:59Z</time>
      </trkpt>
      <trkpt lat="42.001503" lon="1.6063424">
        <time>2022-07-09T07:42:01Z</time>
      </trkpt>
      <trkpt lat="42.001534" lon="1.6064478">
        <time>2022-07-09T07:42:03Z</time>
      </trkpt>
      <trkpt lat="42.001564" lon="1.6065671">
        <time>2022-07-09T07:42:05Z</time>
      </trkpt>
      <trkpt lat="42.00158" lon="1.6066318">
        <time>2022-07-09T07:42:06Z</time>
      </trkpt>
      <trkpt lat="42.001614" lon="1.6067731">
        <time>2022-07-09T07:42:08Z</time>
      </trkpt>
      <trkpt lat="42.001625" lon="1.6068501">
        <time>2022-07-09T07:42:09Z</time>
      </trkpt>
      <trkpt lat="42.001637" lon="1.6069324">
        <time>2022-07-09T07:42:10Z</time>
      </trkpt>
      <trkpt lat="42.001644" lon="1.6070201">
        <time>2022-07-09T07:42:11Z</time>
      </trkpt>
      <trkpt lat="42.00165" lon="1.6071122">
        <time>2022-07-09T07:42:12Z</time>
      </trkpt>
      <trkpt lat="42.00165" lon="1.6072091">
        <time>2022-07-09T07:42:13Z</time>
      </trkpt>
      <trkpt lat="42.001648" lon="1.6073098">
        <time>2022-07-09T07:42:14Z</time>
      </trkpt>
      <trkpt lat="42.00164" lon="1.6074125">
        <time>2022-07-09T07:42:15Z</time>
      </trkpt>
      <trkpt lat="42.001625" lon="1.6075177">
        <time>2022-07-09T07:42:16Z</time>
      </trkpt>
      <trkpt lat="42.001602" lon="1.6076248">
        <time>2022-07-09T07:42:17Z</time>
      </trkpt>
      <trkpt lat="42.001575" lon="1.6077331">
        <time>2022-07-09T07:42:18Z</time>
      </trkpt>
      <trkpt lat="42.001545" lon="1.6078428">
        <time>2022-07-09T07:42:19Z</time>
      </trkpt>
      <trkpt lat="42.00151" lon="1.6079531">
        <time>2022-07-09T07:42:20Z</time>
      </trkpt>
      <trkpt lat="42.00147" lon="1.6080651">
        <time>2022-07-09T07:42:21Z</time>
      </trkpt>
      <trkpt lat="42.00142" lon="1.6081847">
        <time>2022-07-09T07:42:22Z</time>
      </trkpt>
      <trkpt lat="42.00137" lon="1.608306">
        <time>2022-07-09T07:42:23Z</time>
      </trkpt>
      <trkpt lat="42.001316" lon="1.6084248">
        <time>2022-07-09T07:42:24Z</time>
      </trkpt>
      <trkpt lat="42.001263" lon="1.6085421">
        <time>2022-07-09T07:42:25Z</time>
      </trkpt>
      <trkpt lat="42.00121" lon="1.6086587">
        <time>2022-07-09T07:42:26Z</time>
      </trkpt>
      <trkpt lat="42.001156" lon="1.608775">
        <time>2022-07-09T07:42:27Z</time>
      </trkpt>
      <trkpt lat="42.001102" lon="1.6088834">
        <time>2022-07-09T07:42:28Z</time>
      </trkpt>
      <trkpt lat="42.001045" lon="1.6089944">
        <time>2022-07-09T07:42:29Z</time>
      </trkpt>
      <trkpt lat="42.00099" lon="1.6091064">
        <time>2022-07-09T07:42:30Z</time>
      </trkpt>
      <trkpt lat="42.00093" lon="1.60922">
        <time>2022-07-09T07:42:31Z</time>
      </trkpt>
      <trkpt lat="42.000813" lon="1.6094514">
        <time>2022-07-09T07:42:33Z</time>
      </trkpt>
      <trkpt lat="42.00075" lon="1.6095667">
        <time>2022-07-09T07:42:34Z</time>
      </trkpt>
      <trkpt lat="42.00069" lon="1.6096814">
        <time>2022-07-09T07:42:35Z</time>
      </trkpt>
      <trkpt lat="42.000626" lon="1.609801">
        <time>2022-07-09T07:42:36Z</time>
      </trkpt>
      <trkpt lat="42.00056" lon="1.6099197">
        <time>2022-07-09T07:42:37Z</time>
      </trkpt>
      <trkpt lat="42.000496" lon="1.6100367">
        <time>2022-07-09T07:42:38Z</time>
      </trkpt>
      <trkpt lat="42.000427" lon="1.6101527">
        <time>2022-07-09T07:42:39Z</time>
      </trkpt>
      <trkpt lat="42.000362" lon="1.6102687">
        <time>2022-07-09T07:42:40Z</time>
      </trkpt>
      <trkpt lat="42.000294" lon="1.6103827">
        <time>2022-07-09T07:42:41Z</time>
      </trkpt>
      <trkpt lat="42.00023" lon="1.6104937">
        <time>2022-07-09T07:42:42Z</time>
      </trkpt>
      <trkpt lat="42.000164" lon="1.610605">
        <time>2022-07-09T07:42:43Z</time>
      </trkpt>
      <trkpt lat="42.0001" lon="1.6107167">
        <time>2022-07-09T07:42:44Z</time>
      </trkpt>
      <trkpt lat="42.000034" lon="1.610828">
        <time>2022-07-09T07:42:45Z</time>
      </trkpt>
      <trkpt lat="41.99997" lon="1.6109394">
        <time>2022-07-09T07:42:46Z</time>
      </trkpt>
      <trkpt lat="41.99991" lon="1.6110517">
        <time>2022-07-09T07:42:47Z</time>
      </trkpt>
      <trkpt lat="41.999847" lon="1.611165">
        <time>2022-07-09T07:42:48Z</time>
      </trkpt>
      <trkpt lat="41.999786" lon="1.6112807">
        <time>2022-07-09T07:42:49Z</time>
      </trkpt>
      <trkpt lat="41.999725" lon="1.611398">
        <time>2022-07-09T07:42:50Z</time>
      </trkpt>
      <trkpt lat="41.99967" lon="1.6115143">
        <time>2022-07-09T07:42:51Z</time>
      </trkpt>
      <trkpt lat="41.999607" lon="1.611632">
        <time>2022-07-09T07:42:52Z</time>
      </trkpt>
      <trkpt lat="41.999554" lon="1.6117489">
        <time>2022-07-09T07:42:53Z</time>
      </trkpt>
      <trkpt lat="41.999496" lon="1.6118664">
        <time>2022-07-09T07:42:54Z</time>
      </trkpt>
      <trkpt lat="41.999443" lon="1.611983">
        <time>2022-07-09T07:42:55Z</time>
      </trkpt>
      <trkpt lat="41.99939" lon="1.6121">
        <time>2022-07-09T07:42:56Z</time>
      </trkpt>
      <trkpt lat="41.999336" lon="1.6122156">
        <time>2022-07-09T07:42:57Z</time>
      </trkpt>
      <trkpt lat="41.999283" lon="1.6123296">
        <time>2022-07-09T07:42:58Z</time>
      </trkpt>
      <trkpt lat="41.99923" lon="1.612441">
        <time>2022-07-09T07:42:59Z</time>
      </trkpt>
      <trkpt lat="41.99918" lon="1.6125423">
        <time>2022-07-09T07:43:00Z</time>
      </trkpt>
      <trkpt lat="41.99913" lon="1.6126463">
        <time>2022-07-09T07:43:01Z</time>
      </trkpt>
      <trkpt lat="41.99908" lon="1.612739">
        <time>2022-07-09T07:43:02Z</time>
      </trkpt>
      <trkpt lat="41.999035" lon="1.612832">
        <time>2022-07-09T07:43:03Z</time>
      </trkpt>
      <trkpt lat="41.998985" lon="1.6129177">
        <time>2022-07-09T07:43:04Z</time>
      </trkpt>
      <trkpt lat="41.998943" lon="1.6129919">
        <time>2022-07-09T07:43:05Z</time>
      </trkpt>
      <trkpt lat="41.998898" lon="1.6130639">
        <time>2022-07-09T07:43:06Z</time>
      </trkpt>
      <trkpt lat="41.998856" lon="1.6131246">
        <time>2022-07-09T07:43:07Z</time>
      </trkpt>
      <trkpt lat="41.998814" lon="1.6131809">
        <time>2022-07-09T07:43:08Z</time>
      </trkpt>
      <trkpt lat="41.99877" lon="1.6132332">
        <time>2022-07-09T07:43:09Z</time>
      </trkpt>
      <trkpt lat="41.998734" lon="1.6132829">
        <time>2022-07-09T07:43:10Z</time>
      </trkpt>
      <trkpt lat="41.99869" lon="1.6133293">
        <time>2022-07-09T07:43:11Z</time>
      </trkpt>
      <trkpt lat="41.998657" lon="1.613372">
        <time>2022-07-09T07:43:12Z</time>
      </trkpt>
      <trkpt lat="41.99862" lon="1.6134115">
        <time>2022-07-09T07:43:13Z</time>
      </trkpt>
      <trkpt lat="41.998547" lon="1.6134849">
        <time>2022-07-09T07:43:15Z</time>
      </trkpt>
      <trkpt lat="41.998474" lon="1.6135539">
        <time>2022-07-09T07:43:17Z</time>
      </trkpt>
      <trkpt lat="41.998413" lon="1.6136153">
        <time>2022-07-09T07:43:19Z</time>
      </trkpt>
      <trkpt lat="41.99835" lon="1.6136758">
        <time>2022-07-09T07:43:21Z</time>
      </trkpt>
      <trkpt lat="41.99829" lon="1.6137342">
        <time>2022-07-09T07:43:23Z</time>
      </trkpt>
      <trkpt lat="41.998234" lon="1.6137916">
        <time>2022-07-09T07:43:25Z</time>
      </trkpt>
      <trkpt lat="41.99818" lon="1.6138462">
        <time>2022-07-09T07:43:27Z</time>
      </trkpt>
      <trkpt lat="41.998127" lon="1.6138935">
        <time>2022-07-09T07:43:29Z</time>
      </trkpt>
      <trkpt lat="41.998074" lon="1.6139512">
        <time>2022-07-09T07:43:31Z</time>
      </trkpt>
      <trkpt lat="41.99802" lon="1.6140099">
        <time>2022-07-09T07:43:33Z</time>
      </trkpt>
      <trkpt lat="41.997963" lon="1.6140676">
        <time>2022-07-09T07:43:35Z</time>
      </trkpt>
      <trkpt lat="41.997906" lon="1.6141279">
        <time>2022-07-09T07:43:37Z</time>
      </trkpt>
      <trkpt lat="41.997852" lon="1.6141889">
        <time>2022-07-09T07:43:39Z</time>
      </trkpt>
      <trkpt lat="41.997803" lon="1.6142468">
        <time>2022-07-09T07:43:41Z</time>
      </trkpt>
      <trkpt lat="41.99775" lon="1.6143092">
        <time>2022-07-09T07:43:43Z</time>
      </trkpt>
      <trkpt lat="41.9977" lon="1.6143692">
        <time>2022-07-09T07:43:45Z</time>
      </trkpt>
      <trkpt lat="41.997646" lon="1.6144292">
        <time>2022-07-09T07:43:47Z</time>
      </trkpt>
      <trkpt lat="41.99759" lon="1.6144942">
        <time>2022-07-09T07:43:49Z</time>
      </trkpt>
      <trkpt lat="41.997505" lon="1.6145926">
        <time>2022-07-09T07:43:52Z</time>
      </trkpt>
      <trkpt lat="41.99744" lon="1.6146655">
        <time>2022-07-09T07:43:54Z</time>
      </trkpt>
      <trkpt lat="41.99737" lon="1.6147368">
        <time>2022-07-09T07:43:56Z</time>
      </trkpt>
      <trkpt lat="41.997295" lon="1.6148138">
        <time>2022-07-09T07:43:58Z</time>
      </trkpt>
      <trkpt lat="41.99721" lon="1.6148975">
        <time>2022-07-09T07:44:00Z</time>
      </trkpt>
      <trkpt lat="41.997166" lon="1.6149409">
        <time>2022-07-09T07:44:01Z</time>
      </trkpt>
      <trkpt lat="41.99712" lon="1.6149851">
        <time>2022-07-09T07:44:02Z</time>
      </trkpt>
      <trkpt lat="41.99707" lon="1.6150318">
        <time>2022-07-09T07:44:03Z</time>
      </trkpt>
      <trkpt lat="41.99702" lon="1.6150801">
        <time>2022-07-09T07:44:04Z</time>
      </trkpt>
      <trkpt lat="41.996967" lon="1.6151325">
        <time>2022-07-09T07:44:05Z</time>
      </trkpt>
      <trkpt lat="41.996914" lon="1.6151898">
        <time>2022-07-09T07:44:06Z</time>
      </trkpt>
      <trkpt lat="41.99686" lon="1.6152498">
        <time>2022-07-09T07:44:07Z</time>
      </trkpt>
      <trkpt lat="41.996803" lon="1.6153115">
        <time>2022-07-09T07:44:08Z</time>
      </trkpt>
      <trkpt lat="41.996746" lon="1.6153731">
        <time>2022-07-09T07:44:09Z</time>
      </trkpt>
      <trkpt lat="41.99669" lon="1.6154361">
        <time>2022-07-09T07:44:10Z</time>
      </trkpt>
      <trkpt lat="41.996628" lon="1.6155025">
        <time>2022-07-09T07:44:11Z</time>
      </trkpt>
      <trkpt lat="41.996567" lon="1.6155698">
        <time>2022-07-09T07:44:12Z</time>
      </trkpt>
      <trkpt lat="41.996506" lon="1.6156385">
        <time>2022-07-09T07:44:13Z</time>
      </trkpt>
      <trkpt lat="41.99644" lon="1.6157081">
        <time>2022-07-09T07:44:14Z</time>
      </trkpt>
      <trkpt lat="41.996376" lon="1.6157801">
        <time>2022-07-09T07:44:15Z</time>
      </trkpt>
      <trkpt lat="41.996307" lon="1.6158525">
        <time>2022-07-09T07:44:16Z</time>
      </trkpt>
      <trkpt lat="41.99624" lon="1.6159275">
        <time>2022-07-09T07:44:17Z</time>
      </trkpt>
      <trkpt lat="41.99617" lon="1.6159991">
        <time>2022-07-09T07:44:18Z</time>
      </trkpt>
      <trkpt lat="41.996098" lon="1.6160787">
        <time>2022-07-09T07:44:19Z</time>
      </trkpt>
      <trkpt lat="41.99603" lon="1.6161528">
        <time>2022-07-09T07:44:20Z</time>
      </trkpt>
      <trkpt lat="41.99596" lon="1.6162288">
        <time>2022-07-09T07:44:21Z</time>
      </trkpt>
      <trkpt lat="41.995888" lon="1.6163055">
        <time>2022-07-09T07:44:22Z</time>
      </trkpt>
      <trkpt lat="41.995815" lon="1.6163821">
        <time>2022-07-09T07:44:23Z</time>
      </trkpt>
      <trkpt lat="41.99574" lon="1.6164588">
        <time>2022-07-09T07:44:24Z</time>
      </trkpt>
      <trkpt lat="41.995667" lon="1.6165354">
        <time>2022-07-09T07:44:25Z</time>
      </trkpt>
      <trkpt lat="41.995586" lon="1.6166171">
        <time>2022-07-09T07:44:26Z</time>
      </trkpt>
      <trkpt lat="41.995518" lon="1.6166914">
        <time>2022-07-09T07:44:27Z</time>
      </trkpt>
      <trkpt lat="41.995445" lon="1.6167644">
        <time>2022-07-09T07:44:28Z</time>
      </trkpt>
      <trkpt lat="41.995377" lon="1.6168361">
        <time>2022-07-09T07:44:29Z</time>
      </trkpt>
      <trkpt lat="41.995308" lon="1.616907">
        <time>2022-07-09T07:44:30Z</time>
      </trkpt>
      <trkpt lat="41.99524" lon="1.6169767">
        <time>2022-07-09T07:44:31Z</time>
      </trkpt>
      <trkpt lat="41.995174" lon="1.6170437">
        <time>2022-07-09T07:44:32Z</time>
      </trkpt>
      <trkpt lat="41.99511" lon="1.6171094">
        <time>2022-07-09T07:44:33Z</time>
      </trkpt>
      <trkpt lat="41.995052" lon="1.6171727">
        <time>2022-07-09T07:44:34Z</time>
      </trkpt>
      <trkpt lat="41.994995" lon="1.6172338">
        <time>2022-07-09T07:44:35Z</time>
      </trkpt>
      <trkpt lat="41.994938" lon="1.6172924">
        <time>2022-07-09T07:44:36Z</time>
      </trkpt>
      <trkpt lat="41.99489" lon="1.6173494">
        <time>2022-07-09T07:44:37Z</time>
      </trkpt>
      <trkpt lat="41.99484" lon="1.6174027">
        <time>2022-07-09T07:44:38Z</time>
      </trkpt>
      <trkpt lat="41.99479" lon="1.617453">
        <time>2022-07-09T07:44:39Z</time>
      </trkpt>
      <trkpt lat="41.994743" lon="1.617501">
        <time>2022-07-09T07:44:40Z</time>
      </trkpt>
      <trkpt lat="41.994698" lon="1.6175463">
        <time>2022-07-09T07:44:41Z</time>
      </trkpt>
      <trkpt lat="41.994656" lon="1.61759">
        <time>2022-07-09T07:44:42Z</time>
      </trkpt>
      <trkpt lat="41.994614" lon="1.6176307">
        <time>2022-07-09T07:44:43Z</time>
      </trkpt>
      <trkpt lat="41.994537" lon="1.617708">
        <time>2022-07-09T07:44:45Z</time>
      </trkpt>
      <trkpt lat="41.994473" lon="1.617777">
        <time>2022-07-09T07:44:47Z</time>
      </trkpt>
      <trkpt lat="41.994415" lon="1.6178377">
        <time>2022-07-09T07:44:49Z</time>
      </trkpt>
      <trkpt lat="41.994366" lon="1.6178963">
        <time>2022-07-09T07:44:51Z</time>
      </trkpt>
      <trkpt lat="41.994293" lon="1.6179739">
        <time>2022-07-09T07:44:54Z</time>
      </trkpt>
      <trkpt lat="41.99425" lon="1.6180199">
        <time>2022-07-09T07:44:56Z</time>
      </trkpt>
      <trkpt lat="41.994205" lon="1.618071">
        <time>2022-07-09T07:44:59Z</time>
      </trkpt>
      <trkpt lat="41.99416" lon="1.6181203">
        <time>2022-07-09T07:45:01Z</time>
      </trkpt>
      <trkpt lat="41.99412" lon="1.6181626">
        <time>2022-07-09T07:45:03Z</time>
      </trkpt>
      <trkpt lat="41.994064" lon="1.6182176">
        <time>2022-07-09T07:45:06Z</time>
      </trkpt>
      <trkpt lat="41.99401" lon="1.6182736">
        <time>2022-07-09T07:45:09Z</time>
      </trkpt>
      <trkpt lat="41.993958" lon="1.6183276">
        <time>2022-07-09T07:45:12Z</time>
      </trkpt>
      <trkpt lat="41.993904" lon="1.6183846">
        <time>2022-07-09T07:45:15Z</time>
      </trkpt>
      <trkpt lat="41.99385" lon="1.6184403">
        <time>2022-07-09T07:45:18Z</time>
      </trkpt>
      <trkpt lat="41.9938" lon="1.6184956">
        <time>2022-07-09T07:45:21Z</time>
      </trkpt>
      <trkpt lat="41.993744" lon="1.6185466">
        <time>2022-07-09T07:45:24Z</time>
      </trkpt>
      <trkpt lat="41.993694" lon="1.618601">
        <time>2022-07-09T07:45:27Z</time>
      </trkpt>
      <trkpt lat="41.993645" lon="1.618662">
        <time>2022-07-09T07:45:30Z</time>
      </trkpt>
      <trkpt lat="41.9936" lon="1.6187266">
        <time>2022-07-09T07:45:33Z</time>
      </trkpt>
      <trkpt lat="41.993553" lon="1.6187946">
        <time>2022-07-09T07:45:36Z</time>
      </trkpt>
      <trkpt lat="41.99351" lon="1.618866">
        <time>2022-07-09T07:45:39Z</time>
      </trkpt>
      <trkpt lat="41.993465" lon="1.618941">
        <time>2022-07-09T07:45:42Z</time>
      </trkpt>
      <trkpt lat="41.993443" lon="1.618995">
        <time>2022-07-09T07:45:44Z</time>
      </trkpt>
      <trkpt lat="41.99341" lon="1.619075">
        <time>2022-07-09T07:45:47Z</time>
      </trkpt>
      <trkpt lat="41.99338" lon="1.6191566">
        <time>2022-07-09T07:45:50Z</time>
      </trkpt>
      <trkpt lat="41.99336" lon="1.619247">
        <time>2022-07-09T07:45:53Z</time>
      </trkpt>
      <trkpt lat="41.993336" lon="1.6193379">
        <time>2022-07-09T07:45:56Z</time>
      </trkpt>
      <trkpt lat="41.993317" lon="1.6194263">
        <time>2022-07-09T07:45:59Z</time>
      </trkpt>
      <trkpt lat="41.99331" lon="1.6195183">
        <time>2022-07-09T07:46:02Z</time>
      </trkpt>
      <trkpt lat="41.993298" lon="1.6196122">
        <time>2022-07-09T07:46:05Z</time>
      </trkpt>
      <trkpt lat="41.99329" lon="1.6197059">
        <time>2022-07-09T07:46:08Z</time>
      </trkpt>
      <trkpt lat="41.993286" lon="1.6197675">
        <time>2022-07-09T07:46:10Z</time>
      </trkpt>
      <trkpt lat="41.99329" lon="1.6198603">
        <time>2022-07-09T07:46:13Z</time>
      </trkpt>
      <trkpt lat="41.993294" lon="1.6199253">
        <time>2022-07-09T07:46:15Z</time>
      </trkpt>
      <trkpt lat="41.993298" lon="1.6200162">
        <time>2022-07-09T07:46:18Z</time>
      </trkpt>
      <trkpt lat="41.9933" lon="1.6201075">
        <time>2022-07-09T07:46:21Z</time>
      </trkpt>
      <trkpt lat="41.993313" lon="1.6202016">
        <time>2022-07-09T07:46:24Z</time>
      </trkpt>
      <trkpt lat="41.99332" lon="1.6202989">
        <time>2022-07-09T07:46:27Z</time>
      </trkpt>
      <trkpt lat="41.99333" lon="1.6203903">
        <time>2022-07-09T07:46:30Z</time>
      </trkpt>
      <trkpt lat="41.99334" lon="1.6204776">
        <time>2022-07-09T07:46:33Z</time>
      </trkpt>
      <trkpt lat="41.99335" lon="1.6205733">
        <time>2022-07-09T07:46:36Z</time>
      </trkpt>
      <trkpt lat="41.993362" lon="1.6206652">
        <time>2022-07-09T07:46:39Z</time>
      </trkpt>
      <trkpt lat="41.99337" lon="1.6207266">
        <time>2022-07-09T07:46:41Z</time>
      </trkpt>
      <trkpt lat="41.993378" lon="1.6208172">
        <time>2022-07-09T07:46:44Z</time>
      </trkpt>
      <trkpt lat="41.99339" lon="1.6209075">
        <time>2022-07-09T07:46:47Z</time>
      </trkpt>
      <trkpt lat="41.9934" lon="1.6210022">
        <time>2022-07-09T07:46:50Z</time>
      </trkpt>
      <trkpt lat="41.993404" lon="1.6210976">
        <time>2022-07-09T07:46:53Z</time>
      </trkpt>
      <trkpt lat="41.993404" lon="1.6211642">
        <time>2022-07-09T07:46:55Z</time>
      </trkpt>
      <trkpt lat="41.993404" lon="1.6212615">
        <time>2022-07-09T07:46:58Z</time>
      </trkpt>
      <trkpt lat="41.993404" lon="1.6213642">
        <time>2022-07-09T07:47:01Z</time>
      </trkpt>
      <trkpt lat="41.9934" lon="1.6214312">
        <time>2022-07-09T07:47:03Z</time>
      </trkpt>
      <trkpt lat="41.993393" lon="1.6214975">
        <time>2022-07-09T07:47:05Z</time>
      </trkpt>
      <trkpt lat="41.993378" lon="1.6215905">
        <time>2022-07-09T07:47:08Z</time>
      </trkpt>
      <trkpt lat="41.99336" lon="1.6216851">
        <time>2022-07-09T07:47:11Z</time>
      </trkpt>
      <trkpt lat="41.993336" lon="1.6217792">
        <time>2022-07-09T07:47:14Z</time>
      </trkpt>
      <trkpt lat="41.99331" lon="1.6218735">
        <time>2022-07-09T07:47:17Z</time>
      </trkpt>
      <trkpt lat="41.993294" lon="1.6219372">
        <time>2022-07-09T07:47:19Z</time>
      </trkpt>
      <trkpt lat="41.99327" lon="1.6220385">
        <time>2022-07-09T07:47:22Z</time>
      </trkpt>
      <trkpt lat="41.993248" lon="1.6221049">
        <time>2022-07-09T07:47:24Z</time>
      </trkpt>
      <trkpt lat="41.993225" lon="1.6221728">
        <time>2022-07-09T07:47:26Z</time>
      </trkpt>
      <trkpt lat="41.993202" lon="1.6222435">
        <time>2022-07-09T07:47:28Z</time>
      </trkpt>
      <trkpt lat="41.99318" lon="1.6223139">
        <time>2022-07-09T07:47:30Z</time>
      </trkpt>
      <trkpt lat="41.993156" lon="1.6223855">
        <time>2022-07-09T07:47:32Z</time>
      </trkpt>
      <trkpt lat="41.993137" lon="1.6224564">
        <time>2022-07-09T07:47:34Z</time>
      </trkpt>
      <trkpt lat="41.99311" lon="1.6225268">
        <time>2022-07-09T07:47:36Z</time>
      </trkpt>
      <trkpt lat="41.993084" lon="1.6225921">
        <time>2022-07-09T07:47:38Z</time>
      </trkpt>
      <trkpt lat="41.993065" lon="1.6226611">
        <time>2022-07-09T07:47:40Z</time>
      </trkpt>
      <trkpt lat="41.993042" lon="1.6227328">
        <time>2022-07-09T07:47:42Z</time>
      </trkpt>
      <trkpt lat="41.993023" lon="1.6228018">
        <time>2022-07-09T07:47:44Z</time>
      </trkpt>
      <trkpt lat="41.993" lon="1.6228704">
        <time>2022-07-09T07:47:46Z</time>
      </trkpt>
      <trkpt lat="41.992977" lon="1.6229411">
        <time>2022-07-09T07:47:48Z</time>
      </trkpt>
      <trkpt lat="41.992958" lon="1.6230131">
        <time>2022-07-09T07:47:50Z</time>
      </trkpt>
      <trkpt lat="41.99294" lon="1.6230855">
        <time>2022-07-09T07:47:52Z</time>
      </trkpt>
      <trkpt lat="41.992916" lon="1.6231481">
        <time>2022-07-09T07:47:54Z</time>
      </trkpt>
      <trkpt lat="41.992893" lon="1.6232145">
        <time>2022-07-09T07:47:56Z</time>
      </trkpt>
      <trkpt lat="41.99287" lon="1.6232824">
        <time>2022-07-09T07:47:58Z</time>
      </trkpt>
      <trkpt lat="41.992847" lon="1.6233481">
        <time>2022-07-09T07:48:00Z</time>
      </trkpt>
      <trkpt lat="41.99283" lon="1.6234171">
        <time>2022-07-09T07:48:02Z</time>
      </trkpt>
      <trkpt lat="41.9928" lon="1.6234871">
        <time>2022-07-09T07:48:04Z</time>
      </trkpt>
      <trkpt lat="41.992767" lon="1.6235894">
        <time>2022-07-09T07:48:07Z</time>
      </trkpt>
      <trkpt lat="41.99274" lon="1.6236551">
        <time>2022-07-09T07:48:09Z</time>
      </trkpt>
      <trkpt lat="41.99272" lon="1.6237254">
        <time>2022-07-09T07:48:11Z</time>
      </trkpt>
      <trkpt lat="41.9927" lon="1.6237978">
        <time>2022-07-09T07:48:13Z</time>
      </trkpt>
      <trkpt lat="41.992676" lon="1.6238741">
        <time>2022-07-09T07:48:15Z</time>
      </trkpt>
      <trkpt lat="41.992653" lon="1.6239531">
        <time>2022-07-09T07:48:17Z</time>
      </trkpt>
      <trkpt lat="41.99263" lon="1.6240337">
        <time>2022-07-09T07:48:19Z</time>
      </trkpt>
      <trkpt lat="41.992607" lon="1.6241148">
        <time>2022-07-09T07:48:21Z</time>
      </trkpt>
      <trkpt lat="41.992584" lon="1.6241944">
        <time>2022-07-09T07:48:23Z</time>
      </trkpt>
      <trkpt lat="41.99256" lon="1.6242704">
        <time>2022-07-09T07:48:25Z</time>
      </trkpt>
      <trkpt lat="41.99254" lon="1.6243508">
        <time>2022-07-09T07:48:27Z</time>
      </trkpt>
      <trkpt lat="41.99251" lon="1.6244308">
        <time>2022-07-09T07:48:29Z</time>
      </trkpt>
      <trkpt lat="41.992493" lon="1.624511">
        <time>2022-07-09T07:48:31Z</time>
      </trkpt>
      <trkpt lat="41.99247" lon="1.6245943">
        <time>2022-07-09T07:48:33Z</time>
      </trkpt>
      <trkpt lat="41.99245" lon="1.6246761">
        <time>2022-07-09T07:48:35Z</time>
      </trkpt>
      <trkpt lat="41.992428" lon="1.6247591">
        <time>2022-07-09T07:48:37Z</time>
      </trkpt>
      <trkpt lat="41.992405" lon="1.6248413">
        <time>2022-07-09T07:48:39Z</time>
      </trkpt>
      <trkpt lat="41.992382" lon="1.6249278">
        <time>2022-07-09T07:48:41Z</time>
      </trkpt>
      <trkpt lat="41.99236" lon="1.6250077">
        <time>2022-07-09T07:48:43Z</time>
      </trkpt>
      <trkpt lat="41.992336" lon="1.6250924">
        <time>2022-07-09T07:48:45Z</time>
      </trkpt>
      <trkpt lat="41.99231" lon="1.6251763">
        <time>2022-07-09T07:48:47Z</time>
      </trkpt>
      <trkpt lat="41.992283" lon="1.6252581">
        <time>2022-07-09T07:48:49Z</time>
      </trkpt>
      <trkpt lat="41.99226" lon="1.6253457">
        <time>2022-07-09T07:48:51Z</time>
      </trkpt>
      <trkpt lat="41.992233" lon="1.62543">
        <time>2022-07-09T07:48:53Z</time>
      </trkpt>
      <trkpt lat="41.992207" lon="1.625509">
        <time>2022-07-09T07:48:55Z</time>
      </trkpt>
      <trkpt lat="41.99218" lon="1.6255964">
        <time>2022-07-09T07:48:57Z</time>
      </trkpt>
      <trkpt lat="41.992153" lon="1.625681">
        <time>2022-07-09T07:48:59Z</time>
      </trkpt>
      <trkpt lat="41.992134" lon="1.625761">
        <time>2022-07-09T07:49:01Z</time>
      </trkpt>
      <trkpt lat="41.99211" lon="1.6258453">
        <time>2022-07-09T07:49:03Z</time>
      </trkpt>
      <trkpt lat="41.992092" lon="1.6259314">
        <time>2022-07-09T07:49:05Z</time>
      </trkpt>
      <trkpt lat="41.99207" lon="1.6260157">
        <time>2022-07-09T07:49:07Z</time>
      </trkpt>
      <trkpt lat="41.99205" lon="1.6260973">
        <time>2022-07-09T07:49:09Z</time>
      </trkpt>
      <trkpt lat="41.992035" lon="1.6261833">
        <time>2022-07-09T07:49:11Z</time>
      </trkpt>
      <trkpt lat="41.992023" lon="1.6262733">
        <time>2022-07-09T07:49:13Z</time>
      </trkpt>
      <trkpt lat="41.992012" lon="1.6263586">
        <time>2022-07-09T07:49:15Z</time>
      </trkpt>
      <trkpt lat="41.992" lon="1.6264493">
        <time>2022-07-09T07:49:17Z</time>
      </trkpt>
      <trkpt lat="41.99199" lon="1.6265336">
        <time>2022-07-09T07:49:19Z</time>
      </trkpt>
      <trkpt lat="41.991978" lon="1.6266207">
        <time>2022-07-09T07:49:21Z</time>
      </trkpt>
      <trkpt lat="41.991966" lon="1.6267136">
        <time>2022-07-09T07:49:23Z</time>
      </trkpt>
      <trkpt lat="41.991955" lon="1.6267993">
        <time>2022-07-09T07:49:25Z</time>
      </trkpt>
      <trkpt lat="41.991943" lon="1.6268847">
        <time>2022-07-09T07:49:27Z</time>
      </trkpt>
      <trkpt lat="41.991932" lon="1.626971">
        <time>2022-07-09T07:49:29Z</time>
      </trkpt>
      <trkpt lat="41.99192" lon="1.6270566">
        <time>2022-07-09T07:49:31Z</time>
      </trkpt>
      <trkpt lat="41.991905" lon="1.6271399">
        <time>2022-07-09T07:49:33Z</time>
      </trkpt>
      <trkpt lat="41.991894" lon="1.6272249">
        <time>2022-07-09T07:49:35Z</time>
      </trkpt>
      <trkpt lat="41.99188" lon="1.6273086">
        <time>2022-07-09T07:49:37Z</time>
      </trkpt>
      <trkpt lat="41.991867" lon="1.627391">
        <time>2022-07-09T07:49:39Z</time>
      </trkpt>
      <trkpt lat="41.991856" lon="1.6274743">
        <time>2022-07-09T07:49:41Z</time>
      </trkpt>
      <trkpt lat="41.991844" lon="1.6275597">
        <time>2022-07-09T07:49:43Z</time>
      </trkpt>
      <trkpt lat="41.991833" lon="1.6276443">
        <time>2022-07-09T07:49:45Z</time>
      </trkpt>
      <trkpt lat="41.99182" lon="1.6277273">
        <time>2022-07-09T07:49:47Z</time>
      </trkpt>
      <trkpt lat="41.991802" lon="1.6278143">
        <time>2022-07-09T07:49:49Z</time>
      </trkpt>
      <trkpt lat="41.991787" lon="1.627896">
        <time>2022-07-09T07:49:51Z</time>
      </trkpt>
      <trkpt lat="41.991776" lon="1.6279863">
        <time>2022-07-09T07:49:53Z</time>
      </trkpt>
      <trkpt lat="41.99176" lon="1.6280713">
        <time>2022-07-09T07:49:55Z</time>
      </trkpt>
      <trkpt lat="41.99175" lon="1.6281586">
        <time>2022-07-09T07:49:57Z</time>
      </trkpt>
      <trkpt lat="41.991737" lon="1.6282516">
        <time>2022-07-09T07:49:59Z</time>
      </trkpt>
      <trkpt lat="41.991726" lon="1.628336">
        <time>2022-07-09T07:50:01Z</time>
      </trkpt>
      <trkpt lat="41.99172" lon="1.6284186">
        <time>2022-07-09T07:50:03Z</time>
      </trkpt>
      <trkpt lat="41.991703" lon="1.6285013">
        <time>2022-07-09T07:50:05Z</time>
      </trkpt>
      <trkpt lat="41.99169" lon="1.628583">
        <time>2022-07-09T07:50:07Z</time>
      </trkpt>
      <trkpt lat="41.991676" lon="1.6286663">
        <time>2022-07-09T07:50:09Z</time>
      </trkpt>
      <trkpt lat="41.991665" lon="1.6287519">
        <time>2022-07-09T07:50:11Z</time>
      </trkpt>
      <trkpt lat="41.99164" lon="1.6288979">
        <time>2022-07-09T07:50:14Z</time>
      </trkpt>
      <trkpt lat="41.991627" lon="1.6289922">
        <time>2022-07-09T07:50:16Z</time>
      </trkpt>
      <trkpt lat="41.99161" lon="1.6290972">
        <time>2022-07-09T07:50:18Z</time>
      </trkpt>
      <trkpt lat="41.991596" lon="1.6292019">
        <time>2022-07-09T07:50:20Z</time>
      </trkpt>
      <trkpt lat="41.99158" lon="1.6293149">
        <time>2022-07-09T07:50:22Z</time>
      </trkpt>
      <trkpt lat="41.991566" lon="1.6294389">
        <time>2022-07-09T07:50:24Z</time>
      </trkpt>
      <trkpt lat="41.99156" lon="1.6294988">
        <time>2022-07-09T07:50:25Z</time>
      </trkpt>
      <trkpt lat="41.991558" lon="1.6296282">
        <time>2022-07-09T07:50:27Z</time>
      </trkpt>
      <trkpt lat="41.99155" lon="1.6297802">
        <time>2022-07-09T07:50:29Z</time>
      </trkpt>
      <trkpt lat="41.99155" lon="1.6298589">
        <time>2022-07-09T07:50:30Z</time>
      </trkpt>
      <trkpt lat="41.99155" lon="1.6299399">
        <time>2022-07-09T07:50:31Z</time>
      </trkpt>
      <trkpt lat="41.99155" lon="1.6300229">
        <time>2022-07-09T07:50:32Z</time>
      </trkpt>
      <trkpt lat="41.991554" lon="1.6301092">
        <time>2022-07-09T07:50:33Z</time>
      </trkpt>
      <trkpt lat="41.991554" lon="1.6302009">
        <time>2022-07-09T07:50:34Z</time>
      </trkpt>
      <trkpt lat="41.991558" lon="1.6302968">
        <time>2022-07-09T07:50:35Z</time>
      </trkpt>
      <trkpt lat="41.991566" lon="1.6303968">
        <time>2022-07-09T07:50:36Z</time>
      </trkpt>
      <trkpt lat="41.99157" lon="1.6304942">
        <time>2022-07-09T07:50:37Z</time>
      </trkpt>
      <trkpt lat="41.991577" lon="1.6305969">
        <time>2022-07-09T07:50:38Z</time>
      </trkpt>
      <trkpt lat="41.99159" lon="1.6307052">
        <time>2022-07-09T07:50:39Z</time>
      </trkpt>
      <trkpt lat="41.991604" lon="1.6308188">
        <time>2022-07-09T07:50:40Z</time>
      </trkpt>
      <trkpt lat="41.991615" lon="1.6309391">
        <time>2022-07-09T07:50:41Z</time>
      </trkpt>
      <trkpt lat="41.991627" lon="1.6310735">
        <time>2022-07-09T07:50:42Z</time>
      </trkpt>
      <trkpt lat="41.991634" lon="1.6312104">
        <time>2022-07-09T07:50:43Z</time>
      </trkpt>
      <trkpt lat="41.991642" lon="1.6313412">
        <time>2022-07-09T07:50:44Z</time>
      </trkpt>
      <trkpt lat="41.991653" lon="1.6314791">
        <time>2022-07-09T07:50:45Z</time>
      </trkpt>
      <trkpt lat="41.991665" lon="1.6316228">
        <time>2022-07-09T07:50:46Z</time>
      </trkpt>
      <trkpt lat="41.991673" lon="1.6317722">
        <time>2022-07-09T07:50:47Z</time>
      </trkpt>
      <trkpt lat="41.99168" lon="1.6319251">
        <time>2022-07-09T07:50:48Z</time>
      </trkpt>
      <trkpt lat="41.991688" lon="1.6320918">
        <time>2022-07-09T07:50:49Z</time>
      </trkpt>
      <trkpt lat="41.99169" lon="1.6322478">
        <time>2022-07-09T07:50:50Z</time>
      </trkpt>
      <trkpt lat="41.99169" lon="1.6324074">
        <time>2022-07-09T07:50:51Z</time>
      </trkpt>
      <trkpt lat="41.99169" lon="1.6325707">
        <time>2022-07-09T07:50:52Z</time>
      </trkpt>
      <trkpt lat="41.991688" lon="1.6327358">
        <time>2022-07-09T07:50:53Z</time>
      </trkpt>
      <trkpt lat="41.991676" lon="1.6329011">
        <time>2022-07-09T07:50:54Z</time>
      </trkpt>
      <trkpt lat="41.99167" lon="1.6330675">
        <time>2022-07-09T07:50:55Z</time>
      </trkpt>
      <trkpt lat="41.991653" lon="1.6332331">
        <time>2022-07-09T07:50:56Z</time>
      </trkpt>
      <trkpt lat="41.991642" lon="1.6333982">
        <time>2022-07-09T07:50:57Z</time>
      </trkpt>
      <trkpt lat="41.991627" lon="1.6335634">
        <time>2022-07-09T07:50:58Z</time>
      </trkpt>
      <trkpt lat="41.99161" lon="1.6337281">
        <time>2022-07-09T07:50:59Z</time>
      </trkpt>
      <trkpt lat="41.9916" lon="1.6338904">
        <time>2022-07-09T07:51:00Z</time>
      </trkpt>
      <trkpt lat="41.991585" lon="1.6340511">
        <time>2022-07-09T07:51:01Z</time>
      </trkpt>
      <trkpt lat="41.99157" lon="1.6342088">
        <time>2022-07-09T07:51:02Z</time>
      </trkpt>
      <trkpt lat="41.991558" lon="1.6343731">
        <time>2022-07-09T07:51:03Z</time>
      </trkpt>
      <trkpt lat="41.991543" lon="1.6345314">
        <time>2022-07-09T07:51:04Z</time>
      </trkpt>
      <trkpt lat="41.99153" lon="1.6346834">
        <time>2022-07-09T07:51:05Z</time>
      </trkpt>
      <trkpt lat="41.99152" lon="1.6348294">
        <time>2022-07-09T07:51:06Z</time>
      </trkpt>
      <trkpt lat="41.991512" lon="1.6349701">
        <time>2022-07-09T07:51:07Z</time>
      </trkpt>
      <trkpt lat="41.991505" lon="1.6351074">
        <time>2022-07-09T07:51:08Z</time>
      </trkpt>
      <trkpt lat="41.9915" lon="1.635241">
        <time>2022-07-09T07:51:09Z</time>
      </trkpt>
      <trkpt lat="41.9915" lon="1.6353707">
        <time>2022-07-09T07:51:10Z</time>
      </trkpt>
      <trkpt lat="41.99151" lon="1.6354973">
        <time>2022-07-09T07:51:11Z</time>
      </trkpt>
      <trkpt lat="41.991516" lon="1.6356131">
        <time>2022-07-09T07:51:12Z</time>
      </trkpt>
      <trkpt lat="41.991528" lon="1.6357377">
        <time>2022-07-09T07:51:13Z</time>
      </trkpt>
      <trkpt lat="41.99154" lon="1.635859">
        <time>2022-07-09T07:51:14Z</time>
      </trkpt>
      <trkpt lat="41.991554" lon="1.6359774">
        <time>2022-07-09T07:51:15Z</time>
      </trkpt>
      <trkpt lat="41.99159" lon="1.6361977">
        <time>2022-07-09T07:51:17Z</time>
      </trkpt>
      <trkpt lat="41.991604" lon="1.6363018">
        <time>2022-07-09T07:51:18Z</time>
      </trkpt>
      <trkpt lat="41.991623" lon="1.6364048">
        <time>2022-07-09T07:51:19Z</time>
      </trkpt>
      <trkpt lat="41.991642" lon="1.636507">
        <time>2022-07-09T07:51:20Z</time>
      </trkpt>
      <trkpt lat="41.991657" lon="1.6366087">
        <time>2022-07-09T07:51:21Z</time>
      </trkpt>
      <trkpt lat="41.991673" lon="1.6367073">
        <time>2022-07-09T07:51:22Z</time>
      </trkpt>
      <trkpt lat="41.991688" lon="1.6368047">
        <time>2022-07-09T07:51:23Z</time>
      </trkpt>
      <trkpt lat="41.9917" lon="1.636906">
        <time>2022-07-09T07:51:24Z</time>
      </trkpt>
      <trkpt lat="41.99171" lon="1.6370057">
        <time>2022-07-09T07:51:25Z</time>
      </trkpt>
      <trkpt lat="41.991722" lon="1.6370966">
        <time>2022-07-09T07:51:26Z</time>
      </trkpt>
      <trkpt lat="41.991734" lon="1.637192">
        <time>2022-07-09T07:51:27Z</time>
      </trkpt>
      <trkpt lat="41.991745" lon="1.6372846">
        <time>2022-07-09T07:51:28Z</time>
      </trkpt>
      <trkpt lat="41.991756" lon="1.637375">
        <time>2022-07-09T07:51:29Z</time>
      </trkpt>
      <trkpt lat="41.99177" lon="1.6374637">
        <time>2022-07-09T07:51:30Z</time>
      </trkpt>
      <trkpt lat="41.991783" lon="1.637546">
        <time>2022-07-09T07:51:31Z</time>
      </trkpt>
      <trkpt lat="41.9918" lon="1.637636">
        <time>2022-07-09T07:51:32Z</time>
      </trkpt>
      <trkpt lat="41.991814" lon="1.6377243">
        <time>2022-07-09T07:51:33Z</time>
      </trkpt>
      <trkpt lat="41.991825" lon="1.637813">
        <time>2022-07-09T07:51:34Z</time>
      </trkpt>
      <trkpt lat="41.99184" lon="1.6379033">
        <time>2022-07-09T07:51:35Z</time>
      </trkpt>
      <trkpt lat="41.99185" lon="1.6379952">
        <time>2022-07-09T07:51:36Z</time>
      </trkpt>
      <trkpt lat="41.991867" lon="1.638081">
        <time>2022-07-09T07:51:37Z</time>
      </trkpt>
      <trkpt lat="41.991882" lon="1.6381743">
        <time>2022-07-09T07:51:38Z</time>
      </trkpt>
      <trkpt lat="41.991898" lon="1.638268">
        <time>2022-07-09T07:51:39Z</time>
      </trkpt>
      <trkpt lat="41.99191" lon="1.6383632">
        <time>2022-07-09T07:51:40Z</time>
      </trkpt>
      <trkpt lat="41.99192" lon="1.6384633">
        <time>2022-07-09T07:51:41Z</time>
      </trkpt>
      <trkpt lat="41.991932" lon="1.6385633">
        <time>2022-07-09T07:51:42Z</time>
      </trkpt>
      <trkpt lat="41.991936" lon="1.6386733">
        <time>2022-07-09T07:51:43Z</time>
      </trkpt>
      <trkpt lat="41.991943" lon="1.638786">
        <time>2022-07-09T07:51:44Z</time>
      </trkpt>
      <trkpt lat="41.991943" lon="1.6389003">
        <time>2022-07-09T07:51:45Z</time>
      </trkpt>
      <trkpt lat="41.99194" lon="1.6390172">
        <time>2022-07-09T07:51:46Z</time>
      </trkpt>
      <trkpt lat="41.99193" lon="1.6391276">
        <time>2022-07-09T07:51:47Z</time>
      </trkpt>
      <trkpt lat="41.99191" lon="1.6392386">
        <time>2022-07-09T07:51:48Z</time>
      </trkpt>
      <trkpt lat="41.99189" lon="1.6393533">
        <time>2022-07-09T07:51:49Z</time>
      </trkpt>
      <trkpt lat="41.99187" lon="1.6394686">
        <time>2022-07-09T07:51:50Z</time>
      </trkpt>
      <trkpt lat="41.991848" lon="1.6395856">
        <time>2022-07-09T07:51:51Z</time>
      </trkpt>
      <trkpt lat="41.991825" lon="1.6397133">
        <time>2022-07-09T07:51:52Z</time>
      </trkpt>
      <trkpt lat="41.99181" lon="1.6398419">
        <time>2022-07-09T07:51:53Z</time>
      </trkpt>
      <trkpt lat="41.991795" lon="1.6399719">
        <time>2022-07-09T07:51:54Z</time>
      </trkpt>
      <trkpt lat="41.99179" lon="1.6400936">
        <time>2022-07-09T07:51:55Z</time>
      </trkpt>
      <trkpt lat="41.9918" lon="1.6402159">
        <time>2022-07-09T07:51:56Z</time>
      </trkpt>
      <trkpt lat="41.991817" lon="1.6403359">
        <time>2022-07-09T07:51:57Z</time>
      </trkpt>
      <trkpt lat="41.99184" lon="1.6404516">
        <time>2022-07-09T07:51:58Z</time>
      </trkpt>
      <trkpt lat="41.991875" lon="1.640567">
        <time>2022-07-09T07:51:59Z</time>
      </trkpt>
      <trkpt lat="41.99191" lon="1.6406885">
        <time>2022-07-09T07:52:00Z</time>
      </trkpt>
      <trkpt lat="41.991936" lon="1.6408002">
        <time>2022-07-09T07:52:01Z</time>
      </trkpt>
      <trkpt lat="41.991947" lon="1.6409109">
        <time>2022-07-09T07:52:02Z</time>
      </trkpt>
      <trkpt lat="41.991947" lon="1.6410196">
        <time>2022-07-09T07:52:03Z</time>
      </trkpt>
      <trkpt lat="41.991932" lon="1.6411211">
        <time>2022-07-09T07:52:04Z</time>
      </trkpt>
      <trkpt lat="41.991898" lon="1.6412095">
        <time>2022-07-09T07:52:05Z</time>
      </trkpt>
      <trkpt lat="41.991848" lon="1.6412785">
        <time>2022-07-09T07:52:06Z</time>
      </trkpt>
      <trkpt lat="41.99178" lon="1.6413275">
        <time>2022-07-09T07:52:07Z</time>
      </trkpt>
      <trkpt lat="41.991707" lon="1.6413639">
        <time>2022-07-09T07:52:08Z</time>
      </trkpt>
      <trkpt lat="41.991627" lon="1.6413928">
        <time>2022-07-09T07:52:09Z</time>
      </trkpt>
      <trkpt lat="41.991547" lon="1.6414218">
        <time>2022-07-09T07:52:10Z</time>
      </trkpt>
      <trkpt lat="41.991463" lon="1.6414561">
        <time>2022-07-09T07:52:11Z</time>
      </trkpt>
      <trkpt lat="41.991383" lon="1.6415002">
        <time>2022-07-09T07:52:12Z</time>
      </trkpt>
      <trkpt lat="41.991306" lon="1.6415515">
        <time>2022-07-09T07:52:13Z</time>
      </trkpt>
      <trkpt lat="41.99123" lon="1.6416112">
        <time>2022-07-09T07:52:14Z</time>
      </trkpt>
      <trkpt lat="41.991158" lon="1.6416675">
        <time>2022-07-09T07:52:15Z</time>
      </trkpt>
      <trkpt lat="41.991093" lon="1.6417261">
        <time>2022-07-09T07:52:16Z</time>
      </trkpt>
      <trkpt lat="41.991028" lon="1.6417872">
        <time>2022-07-09T07:52:17Z</time>
      </trkpt>
      <trkpt lat="41.990963" lon="1.6418558">
        <time>2022-07-09T07:52:18Z</time>
      </trkpt>
      <trkpt lat="41.99085" lon="1.6419948">
        <time>2022-07-09T07:52:20Z</time>
      </trkpt>
      <trkpt lat="41.990795" lon="1.6420648">
        <time>2022-07-09T07:52:21Z</time>
      </trkpt>
      <trkpt lat="41.990753" lon="1.6421305">
        <time>2022-07-09T07:52:22Z</time>
      </trkpt>
      <trkpt lat="41.99071" lon="1.6421992">
        <time>2022-07-09T07:52:23Z</time>
      </trkpt>
      <trkpt lat="41.990677" lon="1.6422765">
        <time>2022-07-09T07:52:24Z</time>
      </trkpt>
      <trkpt lat="41.990646" lon="1.6423575">
        <time>2022-07-09T07:52:25Z</time>
      </trkpt>
      <trkpt lat="41.990623" lon="1.6424417">
        <time>2022-07-09T07:52:26Z</time>
      </trkpt>
      <trkpt lat="41.990604" lon="1.6425304">
        <time>2022-07-09T07:52:27Z</time>
      </trkpt>
      <trkpt lat="41.99059" lon="1.6426221">
        <time>2022-07-09T07:52:28Z</time>
      </trkpt>
      <trkpt lat="41.990574" lon="1.6427155">
        <time>2022-07-09T07:52:29Z</time>
      </trkpt>
      <trkpt lat="41.99056" lon="1.6428105">
        <time>2022-07-09T07:52:30Z</time>
      </trkpt>
      <trkpt lat="41.99055" lon="1.6429014">
        <time>2022-07-09T07:52:31Z</time>
      </trkpt>
      <trkpt lat="41.990543" lon="1.6430055">
        <time>2022-07-09T07:52:32Z</time>
      </trkpt>
      <trkpt lat="41.990543" lon="1.6431094">
        <time>2022-07-09T07:52:33Z</time>
      </trkpt>
      <trkpt lat="41.99055" lon="1.6432058">
        <time>2022-07-09T07:52:34Z</time>
      </trkpt>
      <trkpt lat="41.99057" lon="1.6433024">
        <time>2022-07-09T07:52:35Z</time>
      </trkpt>
      <trkpt lat="41.9906" lon="1.6433831">
        <time>2022-07-09T07:52:36Z</time>
      </trkpt>
      <trkpt lat="41.990643" lon="1.6434474">
        <time>2022-07-09T07:52:37Z</time>
      </trkpt>
      <trkpt lat="41.99068" lon="1.6434971">
        <time>2022-07-09T07:52:38Z</time>
      </trkpt>
      <trkpt lat="41.990726" lon="1.6435301">
        <time>2022-07-09T07:52:39Z</time>
      </trkpt>
      <trkpt lat="41.99077" lon="1.6435454">
        <time>2022-07-09T07:52:40Z</time>
      </trkpt>
      <trkpt lat="41.99085" lon="1.6435368">
        <time>2022-07-09T07:52:42Z</time>
      </trkpt>
      <trkpt lat="41.990913" lon="1.6434814">
        <time>2022-07-09T07:52:44Z</time>
      </trkpt>
      <trkpt lat="41.99099" lon="1.6433837">
        <time>2022-07-09T07:52:46Z</time>
      </trkpt>
      <trkpt lat="41.991028" lon="1.6433218">
        <time>2022-07-09T07:52:47Z</time>
      </trkpt>
      <trkpt lat="41.99107" lon="1.6432551">
        <time>2022-07-09T07:52:48Z</time>
      </trkpt>
      <trkpt lat="41.991108" lon="1.6431841">
        <time>2022-07-09T07:52:49Z</time>
      </trkpt>
      <trkpt lat="41.991142" lon="1.6431102">
        <time>2022-07-09T07:52:50Z</time>
      </trkpt>
      <trkpt lat="41.991177" lon="1.6430345">
        <time>2022-07-09T07:52:51Z</time>
      </trkpt>
      <trkpt lat="41.991215" lon="1.6429574">
        <time>2022-07-09T07:52:52Z</time>
      </trkpt>
      <trkpt lat="41.991253" lon="1.6428825">
        <time>2022-07-09T07:52:53Z</time>
      </trkpt>
      <trkpt lat="41.991295" lon="1.6428118">
        <time>2022-07-09T07:52:54Z</time>
      </trkpt>
      <trkpt lat="41.991337" lon="1.6427418">
        <time>2022-07-09T07:52:55Z</time>
      </trkpt>
      <trkpt lat="41.991386" lon="1.6426752">
        <time>2022-07-09T07:52:56Z</time>
      </trkpt>
      <trkpt lat="41.991436" lon="1.6426132">
        <time>2022-07-09T07:52:57Z</time>
      </trkpt>
      <trkpt lat="41.991486" lon="1.6425614">
        <time>2022-07-09T07:52:58Z</time>
      </trkpt>
      <trkpt lat="41.991543" lon="1.6425161">
        <time>2022-07-09T07:52:59Z</time>
      </trkpt>
      <trkpt lat="41.991604" lon="1.6424801">
        <time>2022-07-09T07:53:00Z</time>
      </trkpt>
      <trkpt lat="41.991673" lon="1.6424578">
        <time>2022-07-09T07:53:01Z</time>
      </trkpt>
      <trkpt lat="41.99174" lon="1.6424482">
        <time>2022-07-09T07:53:02Z</time>
      </trkpt>
      <trkpt lat="41.991806" lon="1.6424482">
        <time>2022-07-09T07:53:03Z</time>
      </trkpt>
      <trkpt lat="41.99188" lon="1.6424575">
        <time>2022-07-09T07:53:04Z</time>
      </trkpt>
      <trkpt lat="41.99195" lon="1.6424735">
        <time>2022-07-09T07:53:05Z</time>
      </trkpt>
      <trkpt lat="41.992023" lon="1.6424958">
        <time>2022-07-09T07:53:06Z</time>
      </trkpt>
      <trkpt lat="41.9921" lon="1.6425211">
        <time>2022-07-09T07:53:07Z</time>
      </trkpt>
      <trkpt lat="41.992176" lon="1.6425471">
        <time>2022-07-09T07:53:08Z</time>
      </trkpt>
      <trkpt lat="41.992252" lon="1.6425738">
        <time>2022-07-09T07:53:09Z</time>
      </trkpt>
      <trkpt lat="41.992332" lon="1.6426021">
        <time>2022-07-09T07:53:10Z</time>
      </trkpt>
      <trkpt lat="41.99241" lon="1.6426325">
        <time>2022-07-09T07:53:11Z</time>
      </trkpt>
      <trkpt lat="41.99249" lon="1.6426638">
        <time>2022-07-09T07:53:12Z</time>
      </trkpt>
      <trkpt lat="41.99257" lon="1.6426958">
        <time>2022-07-09T07:53:13Z</time>
      </trkpt>
      <trkpt lat="41.992657" lon="1.6427292">
        <time>2022-07-09T07:53:14Z</time>
      </trkpt>
      <trkpt lat="41.99274" lon="1.6427615">
        <time>2022-07-09T07:53:15Z</time>
      </trkpt>
      <trkpt lat="41.992825" lon="1.6427947">
        <time>2022-07-09T07:53:16Z</time>
      </trkpt>
      <trkpt lat="41.99291" lon="1.6428288">
        <time>2022-07-09T07:53:17Z</time>
      </trkpt>
      <trkpt lat="41.992992" lon="1.6428624">
        <time>2022-07-09T07:53:18Z</time>
      </trkpt>
      <trkpt lat="41.993076" lon="1.6428951">
        <time>2022-07-09T07:53:19Z</time>
      </trkpt>
      <trkpt lat="41.993164" lon="1.642927">
        <time>2022-07-09T07:53:20Z</time>
      </trkpt>
      <trkpt lat="41.993248" lon="1.6429597">
        <time>2022-07-09T07:53:21Z</time>
      </trkpt>
      <trkpt lat="41.993412" lon="1.6430261">
        <time>2022-07-09T07:53:23Z</time>
      </trkpt>
      <trkpt lat="41.9935" lon="1.6430558">
        <time>2022-07-09T07:53:24Z</time>
      </trkpt>
      <trkpt lat="41.993584" lon="1.6430768">
        <time>2022-07-09T07:53:25Z</time>
      </trkpt>
      <trkpt lat="41.993664" lon="1.6430861">
        <time>2022-07-09T07:53:26Z</time>
      </trkpt>
      <trkpt lat="41.993744" lon="1.6430844">
        <time>2022-07-09T07:53:27Z</time>
      </trkpt>
      <trkpt lat="41.99382" lon="1.6430697">
        <time>2022-07-09T07:53:28Z</time>
      </trkpt>
      <trkpt lat="41.993896" lon="1.6430397">
        <time>2022-07-09T07:53:29Z</time>
      </trkpt>
      <trkpt lat="41.99397" lon="1.6429944">
        <time>2022-07-09T07:53:30Z</time>
      </trkpt>
      <trkpt lat="41.994038" lon="1.6429387">
        <time>2022-07-09T07:53:31Z</time>
      </trkpt>
      <trkpt lat="41.994106" lon="1.6428754">
        <time>2022-07-09T07:53:32Z</time>
      </trkpt>
      <trkpt lat="41.99417" lon="1.6428047">
        <time>2022-07-09T07:53:33Z</time>
      </trkpt>
      <trkpt lat="41.994232" lon="1.6427331">
        <time>2022-07-09T07:53:34Z</time>
      </trkpt>
      <trkpt lat="41.9943" lon="1.6426655">
        <time>2022-07-09T07:53:35Z</time>
      </trkpt>
      <trkpt lat="41.994366" lon="1.6426091">
        <time>2022-07-09T07:53:36Z</time>
      </trkpt>
      <trkpt lat="41.994442" lon="1.6425651">
        <time>2022-07-09T07:53:37Z</time>
      </trkpt>
      <trkpt lat="41.994522" lon="1.6425399">
        <time>2022-07-09T07:53:38Z</time>
      </trkpt>
      <trkpt lat="41.994602" lon="1.6425318">
        <time>2022-07-09T07:53:39Z</time>
      </trkpt>
      <trkpt lat="41.99468" lon="1.6425378">
        <time>2022-07-09T07:53:40Z</time>
      </trkpt>
      <trkpt lat="41.994755" lon="1.6425555">
        <time>2022-07-09T07:53:41Z</time>
      </trkpt>
      <trkpt lat="41.994827" lon="1.6425824">
        <time>2022-07-09T07:53:42Z</time>
      </trkpt>
      <trkpt lat="41.994892" lon="1.6426178">
        <time>2022-07-09T07:53:43Z</time>
      </trkpt>
      <trkpt lat="41.994957" lon="1.6426594">
        <time>2022-07-09T07:53:44Z</time>
      </trkpt>
      <trkpt lat="41.99501" lon="1.6427054">
        <time>2022-07-09T07:53:45Z</time>
      </trkpt>
      <trkpt lat="41.995064" lon="1.6427535">
        <time>2022-07-09T07:53:46Z</time>
      </trkpt>
      <trkpt lat="41.995102" lon="1.6428014">
        <time>2022-07-09T07:53:47Z</time>
      </trkpt>
      <trkpt lat="41.995163" lon="1.6429027">
        <time>2022-07-09T07:53:49Z</time>
      </trkpt>
      <trkpt lat="41.995213" lon="1.6429988">
        <time>2022-07-09T07:53:51Z</time>
      </trkpt>
      <trkpt lat="41.995243" lon="1.643071">
        <time>2022-07-09T07:53:53Z</time>
      </trkpt>
      <trkpt lat="41.995342" lon="1.6432564">
        <time>2022-07-09T07:57:28Z</time>
      </trkpt>
      <trkpt lat="41.99538" lon="1.6433355">
        <time>2022-07-09T07:57:31Z</time>
      </trkpt>
      <trkpt lat="41.99541" lon="1.6433948">
        <time>2022-07-09T07:57:33Z</time>
      </trkpt>
      <trkpt lat="41.995434" lon="1.6434528">
        <time>2022-07-09T07:57:35Z</time>
      </trkpt>
      <trkpt lat="41.995457" lon="1.6435094">
        <time>2022-07-09T07:57:38Z</time>
      </trkpt>
      <trkpt lat="41.99549" lon="1.643622">
        <time>2022-07-09T07:58:54Z</time>
      </trkpt>
      <trkpt lat="41.995514" lon="1.6436931">
        <time>2022-07-09T07:58:57Z</time>
      </trkpt>
      <trkpt lat="41.99555" lon="1.6437718">
        <time>2022-07-09T07:59:00Z</time>
      </trkpt>
      <trkpt lat="41.99558" lon="1.6438491">
        <time>2022-07-09T07:59:03Z</time>
      </trkpt>
      <trkpt lat="41.995605" lon="1.6439325">
        <time>2022-07-09T07:59:06Z</time>
      </trkpt>
      <trkpt lat="41.995632" lon="1.644016">
        <time>2022-07-09T07:59:09Z</time>
      </trkpt>
      <trkpt lat="41.995667" lon="1.6441025">
        <time>2022-07-09T07:59:12Z</time>
      </trkpt>
      <trkpt lat="41.995705" lon="1.6441877">
        <time>2022-07-09T07:59:15Z</time>
      </trkpt>
      <trkpt lat="41.995735" lon="1.6442677">
        <time>2022-07-09T07:59:18Z</time>
      </trkpt>
      <trkpt lat="41.995773" lon="1.6443594">
        <time>2022-07-09T07:59:21Z</time>
      </trkpt>
      <trkpt lat="41.99581" lon="1.6444421">
        <time>2022-07-09T07:59:24Z</time>
      </trkpt>
      <trkpt lat="41.995834" lon="1.6444957">
        <time>2022-07-09T07:59:26Z</time>
      </trkpt>
      <trkpt lat="41.99587" lon="1.6445774">
        <time>2022-07-09T07:59:29Z</time>
      </trkpt>
      <trkpt lat="41.9959" lon="1.6446574">
        <time>2022-07-09T07:59:32Z</time>
      </trkpt>
      <trkpt lat="41.99594" lon="1.6447546">
        <time>2022-07-09T07:59:36Z</time>
      </trkpt>
      <trkpt lat="41.99598" lon="1.6448253">
        <time>2022-07-09T07:59:39Z</time>
      </trkpt>
      <trkpt lat="41.996014" lon="1.644893">
        <time>2022-07-09T07:59:42Z</time>
      </trkpt>
      <trkpt lat="41.996056" lon="1.6449584">
        <time>2022-07-09T07:59:45Z</time>
      </trkpt>
      <trkpt lat="41.9961" lon="1.645014">
        <time>2022-07-09T07:59:48Z</time>
      </trkpt>
      <trkpt lat="41.99616" lon="1.6450547">
        <time>2022-07-09T07:59:51Z</time>
      </trkpt>
      <trkpt lat="41.9962" lon="1.6450813">
        <time>2022-07-09T07:59:56Z</time>
      </trkpt>
      <trkpt lat="41.99631" lon="1.6451104">
        <time>2022-07-09T08:03:51Z</time>
      </trkpt>
      <trkpt lat="41.996365" lon="1.6451156">
        <time>2022-07-09T08:03:54Z</time>
      </trkpt>
      <trkpt lat="41.996464" lon="1.645073">
        <time>2022-07-09T08:04:07Z</time>
      </trkpt>
      <trkpt lat="41.996555" lon="1.6450547">
        <time>2022-07-09T08:04:10Z</time>
      </trkpt>
      <trkpt lat="41.996635" lon="1.6450427">
        <time>2022-07-09T08:04:12Z</time>
      </trkpt>
      <trkpt lat="41.996735" lon="1.6450224">
        <time>2022-07-09T08:04:14Z</time>
      </trkpt>
      <trkpt lat="41.996788" lon="1.645009">
        <time>2022-07-09T08:04:15Z</time>
      </trkpt>
      <trkpt lat="41.99684" lon="1.644995">
        <time>2022-07-09T08:04:16Z</time>
      </trkpt>
      <trkpt lat="41.9969" lon="1.6449777">
        <time>2022-07-09T08:04:17Z</time>
      </trkpt>
      <trkpt lat="41.996952" lon="1.6449537">
        <time>2022-07-09T08:04:18Z</time>
      </trkpt>
      <trkpt lat="41.997005" lon="1.644923">
        <time>2022-07-09T08:04:19Z</time>
      </trkpt>
      <trkpt lat="41.997055" lon="1.6448857">
        <time>2022-07-09T08:04:20Z</time>
      </trkpt>
      <trkpt lat="41.99711" lon="1.644844">
        <time>2022-07-09T08:04:21Z</time>
      </trkpt>
      <trkpt lat="41.997158" lon="1.6448007">
        <time>2022-07-09T08:04:22Z</time>
      </trkpt>
      <trkpt lat="41.997215" lon="1.6447587">
        <time>2022-07-09T08:04:23Z</time>
      </trkpt>
      <trkpt lat="41.99728" lon="1.644721">
        <time>2022-07-09T08:04:24Z</time>
      </trkpt>
      <trkpt lat="41.997345" lon="1.64469">
        <time>2022-07-09T08:04:25Z</time>
      </trkpt>
      <trkpt lat="41.997414" lon="1.6446713">
        <time>2022-07-09T08:04:26Z</time>
      </trkpt>
      <trkpt lat="41.997482" lon="1.644667">
        <time>2022-07-09T08:04:27Z</time>
      </trkpt>
      <trkpt lat="41.99755" lon="1.6446757">
        <time>2022-07-09T08:04:28Z</time>
      </trkpt>
      <trkpt lat="41.997616" lon="1.6446967">
        <time>2022-07-09T08:04:29Z</time>
      </trkpt>
      <trkpt lat="41.997673" lon="1.644732">
        <time>2022-07-09T08:04:30Z</time>
      </trkpt>
      <trkpt lat="41.997726" lon="1.6447793">
        <time>2022-07-09T08:04:31Z</time>
      </trkpt>
      <trkpt lat="41.997772" lon="1.644838">
        <time>2022-07-09T08:04:32Z</time>
      </trkpt>
      <trkpt lat="41.997807" lon="1.644906">
        <time>2022-07-09T08:04:33Z</time>
      </trkpt>
      <trkpt lat="41.997833" lon="1.6449803">
        <time>2022-07-09T08:04:34Z</time>
      </trkpt>
      <trkpt lat="41.99785" lon="1.6450607">
        <time>2022-07-09T08:04:35Z</time>
      </trkpt>
      <trkpt lat="41.997852" lon="1.6451467">
        <time>2022-07-09T08:04:36Z</time>
      </trkpt>
      <trkpt lat="41.997845" lon="1.6452351">
        <time>2022-07-09T08:04:37Z</time>
      </trkpt>
      <trkpt lat="41.99783" lon="1.6453236">
        <time>2022-07-09T08:04:38Z</time>
      </trkpt>
      <trkpt lat="41.997807" lon="1.645412">
        <time>2022-07-09T08:04:39Z</time>
      </trkpt>
      <trkpt lat="41.99776" lon="1.645591">
        <time>2022-07-09T08:04:41Z</time>
      </trkpt>
      <trkpt lat="41.99774" lon="1.6456847">
        <time>2022-07-09T08:04:42Z</time>
      </trkpt>
      <trkpt lat="41.99771" lon="1.6458817">
        <time>2022-07-09T08:04:44Z</time>
      </trkpt>
      <trkpt lat="41.9977" lon="1.6459767">
        <time>2022-07-09T08:04:45Z</time>
      </trkpt>
      <trkpt lat="41.99769" lon="1.6460763">
        <time>2022-07-09T08:04:46Z</time>
      </trkpt>
      <trkpt lat="41.997673" lon="1.6461797">
        <time>2022-07-09T08:04:47Z</time>
      </trkpt>
      <trkpt lat="41.99765" lon="1.646283">
        <time>2022-07-09T08:04:48Z</time>
      </trkpt>
      <trkpt lat="41.997616" lon="1.6463923">
        <time>2022-07-09T08:04:49Z</time>
      </trkpt>
      <trkpt lat="41.997574" lon="1.646497">
        <time>2022-07-09T08:04:50Z</time>
      </trkpt>
      <trkpt lat="41.997524" lon="1.646597">
        <time>2022-07-09T08:04:51Z</time>
      </trkpt>
      <trkpt lat="41.997467" lon="1.646693">
        <time>2022-07-09T08:04:52Z</time>
      </trkpt>
      <trkpt lat="41.997402" lon="1.6467869">
        <time>2022-07-09T08:04:53Z</time>
      </trkpt>
      <trkpt lat="41.997334" lon="1.6468803">
        <time>2022-07-09T08:04:54Z</time>
      </trkpt>
      <trkpt lat="41.997272" lon="1.646968">
        <time>2022-07-09T08:04:55Z</time>
      </trkpt>
      <trkpt lat="41.997204" lon="1.6470582">
        <time>2022-07-09T08:04:56Z</time>
      </trkpt>
      <trkpt lat="41.997135" lon="1.6471499">
        <time>2022-07-09T08:04:57Z</time>
      </trkpt>
      <trkpt lat="41.99706" lon="1.6472429">
        <time>2022-07-09T08:04:58Z</time>
      </trkpt>
      <trkpt lat="41.996986" lon="1.6473379">
        <time>2022-07-09T08:04:59Z</time>
      </trkpt>
      <trkpt lat="41.996906" lon="1.647444">
        <time>2022-07-09T08:05:00Z</time>
      </trkpt>
      <trkpt lat="41.996834" lon="1.647553">
        <time>2022-07-09T08:05:01Z</time>
      </trkpt>
      <trkpt lat="41.996765" lon="1.647668">
        <time>2022-07-09T08:05:02Z</time>
      </trkpt>
      <trkpt lat="41.99671" lon="1.6477807">
        <time>2022-07-09T08:05:03Z</time>
      </trkpt>
      <trkpt lat="41.99666" lon="1.6478993">
        <time>2022-07-09T08:05:04Z</time>
      </trkpt>
      <trkpt lat="41.99661" lon="1.6480219">
        <time>2022-07-09T08:05:05Z</time>
      </trkpt>
      <trkpt lat="41.99656" lon="1.6481493">
        <time>2022-07-09T08:05:06Z</time>
      </trkpt>
      <trkpt lat="41.99651" lon="1.6482882">
        <time>2022-07-09T08:05:07Z</time>
      </trkpt>
      <trkpt lat="41.996464" lon="1.6484183">
        <time>2022-07-09T08:05:08Z</time>
      </trkpt>
      <trkpt lat="41.99642" lon="1.6485499">
        <time>2022-07-09T08:05:09Z</time>
      </trkpt>
      <trkpt lat="41.996376" lon="1.6486835">
        <time>2022-07-09T08:05:10Z</time>
      </trkpt>
      <trkpt lat="41.99633" lon="1.6488175">
        <time>2022-07-09T08:05:11Z</time>
      </trkpt>
      <trkpt lat="41.99628" lon="1.6489576">
        <time>2022-07-09T08:05:12Z</time>
      </trkpt>
      <trkpt lat="41.996227" lon="1.6490899">
        <time>2022-07-09T08:05:13Z</time>
      </trkpt>
      <trkpt lat="41.996162" lon="1.6492096">
        <time>2022-07-09T08:05:14Z</time>
      </trkpt>
      <trkpt lat="41.99609" lon="1.6493145">
        <time>2022-07-09T08:05:15Z</time>
      </trkpt>
      <trkpt lat="41.996006" lon="1.6494049">
        <time>2022-07-09T08:05:16Z</time>
      </trkpt>
      <trkpt lat="41.995914" lon="1.649478">
        <time>2022-07-09T08:05:17Z</time>
      </trkpt>
      <trkpt lat="41.995815" lon="1.6495333">
        <time>2022-07-09T08:05:18Z</time>
      </trkpt>
      <trkpt lat="41.99571" lon="1.6495736">
        <time>2022-07-09T08:05:19Z</time>
      </trkpt>
      <trkpt lat="41.9956" lon="1.6496019">
        <time>2022-07-09T08:05:20Z</time>
      </trkpt>
      <trkpt lat="41.99549" lon="1.6496235">
        <time>2022-07-09T08:05:21Z</time>
      </trkpt>
      <trkpt lat="41.995384" lon="1.6496459">
        <time>2022-07-09T08:05:22Z</time>
      </trkpt>
      <trkpt lat="41.995277" lon="1.6496745">
        <time>2022-07-09T08:05:23Z</time>
      </trkpt>
      <trkpt lat="41.99517" lon="1.6497165">
        <time>2022-07-09T08:05:24Z</time>
      </trkpt>
      <trkpt lat="41.99507" lon="1.6497722">
        <time>2022-07-09T08:05:25Z</time>
      </trkpt>
      <trkpt lat="41.994972" lon="1.6498392">
        <time>2022-07-09T08:05:26Z</time>
      </trkpt>
      <trkpt lat="41.99487" lon="1.6499143">
        <time>2022-07-09T08:05:27Z</time>
      </trkpt>
      <trkpt lat="41.994774" lon="1.6499949">
        <time>2022-07-09T08:05:28Z</time>
      </trkpt>
      <trkpt lat="41.99468" lon="1.6500795">
        <time>2022-07-09T08:05:29Z</time>
      </trkpt>
      <trkpt lat="41.994583" lon="1.6501642">
        <time>2022-07-09T08:05:30Z</time>
      </trkpt>
      <trkpt lat="41.99449" lon="1.6502476">
        <time>2022-07-09T08:05:31Z</time>
      </trkpt>
      <trkpt lat="41.9944" lon="1.6503242">
        <time>2022-07-09T08:05:32Z</time>
      </trkpt>
      <trkpt lat="41.994305" lon="1.6504059">
        <time>2022-07-09T08:05:33Z</time>
      </trkpt>
      <trkpt lat="41.99421" lon="1.6504875">
        <time>2022-07-09T08:05:34Z</time>
      </trkpt>
      <trkpt lat="41.994118" lon="1.6505629">
        <time>2022-07-09T08:05:35Z</time>
      </trkpt>
      <trkpt lat="41.994026" lon="1.6506395">
        <time>2022-07-09T08:05:36Z</time>
      </trkpt>
      <trkpt lat="41.99393" lon="1.6507258">
        <time>2022-07-09T08:05:37Z</time>
      </trkpt>
      <trkpt lat="41.99384" lon="1.6508162">
        <time>2022-07-09T08:05:38Z</time>
      </trkpt>
      <trkpt lat="41.99376" lon="1.6509144">
        <time>2022-07-09T08:05:39Z</time>
      </trkpt>
      <trkpt lat="41.993694" lon="1.6510211">
        <time>2022-07-09T08:05:40Z</time>
      </trkpt>
      <trkpt lat="41.99364" lon="1.6511295">
        <time>2022-07-09T08:05:41Z</time>
      </trkpt>
      <trkpt lat="41.9936" lon="1.6512542">
        <time>2022-07-09T08:05:42Z</time>
      </trkpt>
      <trkpt lat="41.99357" lon="1.6513795">
        <time>2022-07-09T08:05:43Z</time>
      </trkpt>
      <trkpt lat="41.993546" lon="1.6515034">
        <time>2022-07-09T08:05:44Z</time>
      </trkpt>
      <trkpt lat="41.993507" lon="1.6517448">
        <time>2022-07-09T08:05:46Z</time>
      </trkpt>
      <trkpt lat="41.993496" lon="1.6518584">
        <time>2022-07-09T08:05:47Z</time>
      </trkpt>
      <trkpt lat="41.99349" lon="1.6519681">
        <time>2022-07-09T08:05:48Z</time>
      </trkpt>
      <trkpt lat="41.993484" lon="1.6520748">
        <time>2022-07-09T08:05:49Z</time>
      </trkpt>
      <trkpt lat="41.99348" lon="1.6521758">
        <time>2022-07-09T08:05:50Z</time>
      </trkpt>
      <trkpt lat="41.99348" lon="1.6522695">
        <time>2022-07-09T08:05:51Z</time>
      </trkpt>
      <trkpt lat="41.993484" lon="1.6523567">
        <time>2022-07-09T08:05:52Z</time>
      </trkpt>
      <trkpt lat="41.993492" lon="1.6524397">
        <time>2022-07-09T08:05:53Z</time>
      </trkpt>
      <trkpt lat="41.993504" lon="1.6525174">
        <time>2022-07-09T08:05:54Z</time>
      </trkpt>
      <trkpt lat="41.993515" lon="1.6525908">
        <time>2022-07-09T08:05:55Z</time>
      </trkpt>
      <trkpt lat="41.993526" lon="1.6526581">
        <time>2022-07-09T08:05:56Z</time>
      </trkpt>
      <trkpt lat="41.993557" lon="1.6527771">
        <time>2022-07-09T08:05:58Z</time>
      </trkpt>
      <trkpt lat="41.993587" lon="1.6528774">
        <time>2022-07-09T08:06:00Z</time>
      </trkpt>
      <trkpt lat="41.99361" lon="1.652961">
        <time>2022-07-09T08:06:02Z</time>
      </trkpt>
      <trkpt lat="41.993637" lon="1.6530367">
        <time>2022-07-09T08:06:04Z</time>
      </trkpt>
      <trkpt lat="41.99366" lon="1.6531044">
        <time>2022-07-09T08:06:06Z</time>
      </trkpt>
      <trkpt lat="41.993683" lon="1.6531674">
        <time>2022-07-09T08:06:08Z</time>
      </trkpt>
      <trkpt lat="41.9937" lon="1.6532301">
        <time>2022-07-09T08:06:10Z</time>
      </trkpt>
      <trkpt lat="41.99372" lon="1.6533267">
        <time>2022-07-09T08:06:13Z</time>
      </trkpt>
      <trkpt lat="41.99374" lon="1.6533908">
        <time>2022-07-09T08:06:15Z</time>
      </trkpt>
      <trkpt lat="41.99376" lon="1.6534537">
        <time>2022-07-09T08:06:17Z</time>
      </trkpt>
      <trkpt lat="41.99379" lon="1.6535457">
        <time>2022-07-09T08:06:20Z</time>
      </trkpt>
      <trkpt lat="41.993824" lon="1.6536384">
        <time>2022-07-09T08:06:23Z</time>
      </trkpt>
      <trkpt lat="41.993847" lon="1.6536998">
        <time>2022-07-09T08:06:25Z</time>
      </trkpt>
      <trkpt lat="41.99387" lon="1.6537614">
        <time>2022-07-09T08:06:27Z</time>
      </trkpt>
      <trkpt lat="41.993908" lon="1.6538503">
        <time>2022-07-09T08:06:30Z</time>
      </trkpt>
      <trkpt lat="41.993927" lon="1.653909">
        <time>2022-07-09T08:06:32Z</time>
      </trkpt>
      <trkpt lat="41.993954" lon="1.6539971">
        <time>2022-07-09T08:06:35Z</time>
      </trkpt>
      <trkpt lat="41.993984" lon="1.6540843">
        <time>2022-07-09T08:06:38Z</time>
      </trkpt>
      <trkpt lat="41.994015" lon="1.654167">
        <time>2022-07-09T08:06:41Z</time>
      </trkpt>
      <trkpt lat="41.994038" lon="1.6542504">
        <time>2022-07-09T08:06:44Z</time>
      </trkpt>
      <trkpt lat="41.99406" lon="1.6543354">
        <time>2022-07-09T08:06:47Z</time>
      </trkpt>
      <trkpt lat="41.994083" lon="1.654418">
        <time>2022-07-09T08:06:50Z</time>
      </trkpt>
      <trkpt lat="41.99411" lon="1.6544983">
        <time>2022-07-09T08:06:53Z</time>
      </trkpt>
      <trkpt lat="41.99414" lon="1.6545753">
        <time>2022-07-09T08:06:56Z</time>
      </trkpt>
      <trkpt lat="41.99418" lon="1.654646">
        <time>2022-07-09T08:06:59Z</time>
      </trkpt>
      <trkpt lat="41.994217" lon="1.6547116">
        <time>2022-07-09T08:07:02Z</time>
      </trkpt>
      <trkpt lat="41.994263" lon="1.6547713">
        <time>2022-07-09T08:07:05Z</time>
      </trkpt>
      <trkpt lat="41.99432" lon="1.654815">
        <time>2022-07-09T08:07:08Z</time>
      </trkpt>
      <trkpt lat="41.994377" lon="1.6548387">
        <time>2022-07-09T08:07:11Z</time>
      </trkpt>
      <trkpt lat="41.994442" lon="1.6548489">
        <time>2022-07-09T08:07:14Z</time>
      </trkpt>
      <trkpt lat="41.99451" lon="1.6548359">
        <time>2022-07-09T08:07:17Z</time>
      </trkpt>
      <trkpt lat="41.99458" lon="1.6548063">
        <time>2022-07-09T08:07:20Z</time>
      </trkpt>
      <trkpt lat="41.994648" lon="1.6547767">
        <time>2022-07-09T08:07:23Z</time>
      </trkpt>
      <trkpt lat="41.994694" lon="1.6547483">
        <time>2022-07-09T08:07:25Z</time>
      </trkpt>
      <trkpt lat="41.994755" lon="1.654703">
        <time>2022-07-09T08:07:28Z</time>
      </trkpt>
      <trkpt lat="41.994823" lon="1.6546576">
        <time>2022-07-09T08:07:31Z</time>
      </trkpt>
      <trkpt lat="41.99489" lon="1.6546177">
        <time>2022-07-09T08:07:34Z</time>
      </trkpt>
      <trkpt lat="41.994953" lon="1.6545804">
        <time>2022-07-09T08:07:37Z</time>
      </trkpt>
      <trkpt lat="41.995018" lon="1.654554">
        <time>2022-07-09T08:07:40Z</time>
      </trkpt>
      <trkpt lat="41.995087" lon="1.6545416">
        <time>2022-07-09T08:07:43Z</time>
      </trkpt>
      <trkpt lat="41.995155" lon="1.6545284">
        <time>2022-07-09T08:07:46Z</time>
      </trkpt>
      <trkpt lat="41.995228" lon="1.6545243">
        <time>2022-07-09T08:07:49Z</time>
      </trkpt>
      <trkpt lat="41.995323" lon="1.6545336">
        <time>2022-07-09T08:07:53Z</time>
      </trkpt>
      <trkpt lat="41.99539" lon="1.6545457">
        <time>2022-07-09T08:07:56Z</time>
      </trkpt>
      <trkpt lat="41.99544" lon="1.6545573">
        <time>2022-07-09T08:07:58Z</time>
      </trkpt>
      <trkpt lat="41.99551" lon="1.6545796">
        <time>2022-07-09T08:08:01Z</time>
      </trkpt>
      <trkpt lat="41.99558" lon="1.6545937">
        <time>2022-07-09T08:08:04Z</time>
      </trkpt>
      <trkpt lat="41.995644" lon="1.654605">
        <time>2022-07-09T08:08:07Z</time>
      </trkpt>
      <trkpt lat="41.99571" lon="1.6546193">
        <time>2022-07-09T08:08:10Z</time>
      </trkpt>
      <trkpt lat="41.995777" lon="1.6546327">
        <time>2022-07-09T08:08:13Z</time>
      </trkpt>
      <trkpt lat="41.995846" lon="1.6546353">
        <time>2022-07-09T08:08:16Z</time>
      </trkpt>
      <trkpt lat="41.99592" lon="1.6546413">
        <time>2022-07-09T08:08:19Z</time>
      </trkpt>
      <trkpt lat="41.99596" lon="1.6546546">
        <time>2022-07-09T08:08:21Z</time>
      </trkpt>
      <trkpt lat="41.99603" lon="1.6546786">
        <time>2022-07-09T08:08:24Z</time>
      </trkpt>
      <trkpt lat="41.996075" lon="1.6546899">
        <time>2022-07-09T08:08:26Z</time>
      </trkpt>
      <trkpt lat="41.996147" lon="1.6547083">
        <time>2022-07-09T08:08:29Z</time>
      </trkpt>
      <trkpt lat="41.996212" lon="1.6547263">
        <time>2022-07-09T08:08:32Z</time>
      </trkpt>
      <trkpt lat="41.99628" lon="1.6547446">
        <time>2022-07-09T08:08:35Z</time>
      </trkpt>
      <trkpt lat="41.996346" lon="1.6547619">
        <time>2022-07-09T08:08:38Z</time>
      </trkpt>
      <trkpt lat="41.99641" lon="1.6547832">
        <time>2022-07-09T08:08:41Z</time>
      </trkpt>
      <trkpt lat="41.99647" lon="1.6548086">
        <time>2022-07-09T08:08:44Z</time>
      </trkpt>
      <trkpt lat="41.996532" lon="1.6548406">
        <time>2022-07-09T08:08:47Z</time>
      </trkpt>
      <trkpt lat="41.996593" lon="1.6548766">
        <time>2022-07-09T08:08:50Z</time>
      </trkpt>
      <trkpt lat="41.996662" lon="1.6549186">
        <time>2022-07-09T08:08:53Z</time>
      </trkpt>
      <trkpt lat="41.99673" lon="1.6549616">
        <time>2022-07-09T08:08:56Z</time>
      </trkpt>
      <trkpt lat="41.996773" lon="1.6549922">
        <time>2022-07-09T08:08:58Z</time>
      </trkpt>
      <trkpt lat="41.996834" lon="1.655034">
        <time>2022-07-09T08:09:01Z</time>
      </trkpt>
      <trkpt lat="41.9969" lon="1.6550709">
        <time>2022-07-09T08:09:04Z</time>
      </trkpt>
      <trkpt lat="41.996944" lon="1.655098">
        <time>2022-07-09T08:09:06Z</time>
      </trkpt>
      <trkpt lat="41.997005" lon="1.6551396">
        <time>2022-07-09T08:09:09Z</time>
      </trkpt>
      <trkpt lat="41.99705" lon="1.6551689">
        <time>2022-07-09T08:09:11Z</time>
      </trkpt>
      <trkpt lat="41.997097" lon="1.6552006">
        <time>2022-07-09T08:09:13Z</time>
      </trkpt>
      <trkpt lat="41.997166" lon="1.6552405">
        <time>2022-07-09T08:09:16Z</time>
      </trkpt>
      <trkpt lat="41.997227" lon="1.6552823">
        <time>2022-07-09T08:09:19Z</time>
      </trkpt>
      <trkpt lat="41.99729" lon="1.6553242">
        <time>2022-07-09T08:09:22Z</time>
      </trkpt>
      <trkpt lat="41.997353" lon="1.6553628">
        <time>2022-07-09T08:09:25Z</time>
      </trkpt>
      <trkpt lat="41.997414" lon="1.6554005">
        <time>2022-07-09T08:09:28Z</time>
      </trkpt>
      <trkpt lat="41.997475" lon="1.6554412">
        <time>2022-07-09T08:09:31Z</time>
      </trkpt>
      <trkpt lat="41.99752" lon="1.6554669">
        <time>2022-07-09T08:09:33Z</time>
      </trkpt>
      <trkpt lat="41.997585" lon="1.6555079">
        <time>2022-07-09T08:09:36Z</time>
      </trkpt>
      <trkpt lat="41.99763" lon="1.6555369">
        <time>2022-07-09T08:09:38Z</time>
      </trkpt>
      <trkpt lat="41.997677" lon="1.6555638">
        <time>2022-07-09T08:09:40Z</time>
      </trkpt>
      <trkpt lat="41.99774" lon="1.6556039">
        <time>2022-07-09T08:09:43Z</time>
      </trkpt>
      <trkpt lat="41.99781" lon="1.6556466">
        <time>2022-07-09T08:09:46Z</time>
      </trkpt>
      <trkpt lat="41.99787" lon="1.6556885">
        <time>2022-07-09T08:09:49Z</time>
      </trkpt>
      <trkpt lat="41.997932" lon="1.6557245">
        <time>2022-07-09T08:09:52Z</time>
      </trkpt>
      <trkpt lat="41.997993" lon="1.6557592">
        <time>2022-07-09T08:09:55Z</time>
      </trkpt>
      <trkpt lat="41.998077" lon="1.6558086">
        <time>2022-07-09T08:09:59Z</time>
      </trkpt>
      <trkpt lat="41.998135" lon="1.6558561">
        <time>2022-07-09T08:10:02Z</time>
      </trkpt>
      <trkpt lat="41.998196" lon="1.6559085">
        <time>2022-07-09T08:10:05Z</time>
      </trkpt>
      <trkpt lat="41.998257" lon="1.6559662">
        <time>2022-07-09T08:10:08Z</time>
      </trkpt>
      <trkpt lat="41.998314" lon="1.6560328">
        <time>2022-07-09T08:10:11Z</time>
      </trkpt>
      <trkpt lat="41.99835" lon="1.6560816">
        <time>2022-07-09T08:10:13Z</time>
      </trkpt>
      <trkpt lat="41.998394" lon="1.6561542">
        <time>2022-07-09T08:10:16Z</time>
      </trkpt>
      <trkpt lat="41.998436" lon="1.6562225">
        <time>2022-07-09T08:10:19Z</time>
      </trkpt>
      <trkpt lat="41.998478" lon="1.6562855">
        <time>2022-07-09T08:10:22Z</time>
      </trkpt>
      <trkpt lat="41.998512" lon="1.6563431">
        <time>2022-07-09T08:10:25Z</time>
      </trkpt>
      <trkpt lat="41.998547" lon="1.6563975">
        <time>2022-07-09T08:10:28Z</time>
      </trkpt>
      <trkpt lat="41.99858" lon="1.6564509">
        <time>2022-07-09T08:10:31Z</time>
      </trkpt>
      <trkpt lat="41.998627" lon="1.6565222">
        <time>2022-07-09T08:10:35Z</time>
      </trkpt>
      <trkpt lat="41.998665" lon="1.6565695">
        <time>2022-07-09T08:10:38Z</time>
      </trkpt>
      <trkpt lat="41.998707" lon="1.6566131">
        <time>2022-07-09T08:10:41Z</time>
      </trkpt>
      <trkpt lat="41.99875" lon="1.6566561">
        <time>2022-07-09T08:10:44Z</time>
      </trkpt>
      <trkpt lat="41.998787" lon="1.6566961">
        <time>2022-07-09T08:10:47Z</time>
      </trkpt>
      <trkpt lat="41.99884" lon="1.6567534">
        <time>2022-07-09T08:10:51Z</time>
      </trkpt>
      <trkpt lat="41.99888" lon="1.6568007">
        <time>2022-07-09T08:10:54Z</time>
      </trkpt>
      <trkpt lat="41.998924" lon="1.6568658">
        <time>2022-07-09T08:10:58Z</time>
      </trkpt>
      <trkpt lat="41.998962" lon="1.6569124">
        <time>2022-07-09T08:11:01Z</time>
      </trkpt>
      <trkpt lat="41.998997" lon="1.6569624">
        <time>2022-07-09T08:11:04Z</time>
      </trkpt>
      <trkpt lat="41.99904" lon="1.6570355">
        <time>2022-07-09T08:11:08Z</time>
      </trkpt>
      <trkpt lat="41.999065" lon="1.6570928">
        <time>2022-07-09T08:11:11Z</time>
      </trkpt>
      <trkpt lat="41.99909" lon="1.6571535">
        <time>2022-07-09T08:11:14Z</time>
      </trkpt>
      <trkpt lat="41.999115" lon="1.6572411">
        <time>2022-07-09T08:11:18Z</time>
      </trkpt>
      <trkpt lat="41.99913" lon="1.6573077">
        <time>2022-07-09T08:11:21Z</time>
      </trkpt>
      <trkpt lat="41.99914" lon="1.6573781">
        <time>2022-07-09T08:11:24Z</time>
      </trkpt>
      <trkpt lat="41.999153" lon="1.657451">
        <time>2022-07-09T08:11:27Z</time>
      </trkpt>
      <trkpt lat="41.999157" lon="1.6575288">
        <time>2022-07-09T08:11:30Z</time>
      </trkpt>
      <trkpt lat="41.999157" lon="1.6576134">
        <time>2022-07-09T08:11:33Z</time>
      </trkpt>
      <trkpt lat="41.999165" lon="1.6577067">
        <time>2022-07-09T08:11:36Z</time>
      </trkpt>
      <trkpt lat="41.99917" lon="1.6577997">
        <time>2022-07-09T08:11:39Z</time>
      </trkpt>
      <trkpt lat="41.99918" lon="1.6578875">
        <time>2022-07-09T08:11:42Z</time>
      </trkpt>
      <trkpt lat="41.999207" lon="1.6579708">
        <time>2022-07-09T08:11:45Z</time>
      </trkpt>
      <trkpt lat="41.999233" lon="1.6580198">
        <time>2022-07-09T08:11:47Z</time>
      </trkpt>
      <trkpt lat="41.999283" lon="1.6580803">
        <time>2022-07-09T08:11:50Z</time>
      </trkpt>
      <trkpt lat="41.999344" lon="1.6581264">
        <time>2022-07-09T08:11:53Z</time>
      </trkpt>
      <trkpt lat="41.999416" lon="1.6581497">
        <time>2022-07-09T08:11:56Z</time>
      </trkpt>
      <trkpt lat="41.99947" lon="1.6581601">
        <time>2022-07-09T08:11:58Z</time>
      </trkpt>
      <trkpt lat="41.999527" lon="1.6581707">
        <time>2022-07-09T08:12:00Z</time>
      </trkpt>
      <trkpt lat="41.999584" lon="1.6581817">
        <time>2022-07-09T08:12:02Z</time>
      </trkpt>
      <trkpt lat="41.99964" lon="1.658193">
        <time>2022-07-09T08:12:04Z</time>
      </trkpt>
      <trkpt lat="41.999695" lon="1.658207">
        <time>2022-07-09T08:12:06Z</time>
      </trkpt>
      <trkpt lat="41.999756" lon="1.6582273">
        <time>2022-07-09T08:12:08Z</time>
      </trkpt>
      <trkpt lat="41.999817" lon="1.6582503">
        <time>2022-07-09T08:12:10Z</time>
      </trkpt>
      <trkpt lat="41.999874" lon="1.6582717">
        <time>2022-07-09T08:12:12Z</time>
      </trkpt>
      <trkpt lat="41.99993" lon="1.6582941">
        <time>2022-07-09T08:12:14Z</time>
      </trkpt>
      <trkpt lat="41.999985" lon="1.6583177">
        <time>2022-07-09T08:12:16Z</time>
      </trkpt>
      <trkpt lat="42.000034" lon="1.6583397">
        <time>2022-07-09T08:12:18Z</time>
      </trkpt>
      <trkpt lat="42.000088" lon="1.658362">
        <time>2022-07-09T08:12:20Z</time>
      </trkpt>
      <trkpt lat="42.00014" lon="1.6583834">
        <time>2022-07-09T08:12:22Z</time>
      </trkpt>
      <trkpt lat="42.00019" lon="1.658404">
        <time>2022-07-09T08:12:24Z</time>
      </trkpt>
      <trkpt lat="42.000263" lon="1.6584327">
        <time>2022-07-09T08:12:27Z</time>
      </trkpt>
      <trkpt lat="42.00031" lon="1.6584463">
        <time>2022-07-09T08:12:29Z</time>
      </trkpt>
      <trkpt lat="42.000378" lon="1.6584693">
        <time>2022-07-09T08:12:32Z</time>
      </trkpt>
      <trkpt lat="42.000423" lon="1.6584836">
        <time>2022-07-09T08:12:34Z</time>
      </trkpt>
      <trkpt lat="42.000496" lon="1.6585027">
        <time>2022-07-09T08:12:37Z</time>
      </trkpt>
      <trkpt lat="42.00056" lon="1.6585253">
        <time>2022-07-09T08:12:40Z</time>
      </trkpt>
      <trkpt lat="42.00063" lon="1.6585463">
        <time>2022-07-09T08:12:43Z</time>
      </trkpt>
      <trkpt lat="42.000675" lon="1.6585573">
        <time>2022-07-09T08:12:45Z</time>
      </trkpt>
      <trkpt lat="42.000748" lon="1.6585716">
        <time>2022-07-09T08:12:48Z</time>
      </trkpt>
      <trkpt lat="42.000793" lon="1.6585783">
        <time>2022-07-09T08:12:50Z</time>
      </trkpt>
      <trkpt lat="42.000862" lon="1.6585879">
        <time>2022-07-09T08:12:53Z</time>
      </trkpt>
      <trkpt lat="42.00091" lon="1.658598">
        <time>2022-07-09T08:12:55Z</time>
      </trkpt>
      <trkpt lat="42.00098" lon="1.6586173">
        <time>2022-07-09T08:12:58Z</time>
      </trkpt>
      <trkpt lat="42.00105" lon="1.6586399">
        <time>2022-07-09T08:13:01Z</time>
      </trkpt>
      <trkpt lat="42.001118" lon="1.6586579">
        <time>2022-07-09T08:13:04Z</time>
      </trkpt>
      <trkpt lat="42.00118" lon="1.6586776">
        <time>2022-07-09T08:13:07Z</time>
      </trkpt>
      <trkpt lat="42.001247" lon="1.6586963">
        <time>2022-07-09T08:13:10Z</time>
      </trkpt>
      <trkpt lat="42.00132" lon="1.6587206">
        <time>2022-07-09T08:13:13Z</time>
      </trkpt>
      <trkpt lat="42.00137" lon="1.6587406">
        <time>2022-07-09T08:13:15Z</time>
      </trkpt>
      <trkpt lat="42.00142" lon="1.6587609">
        <time>2022-07-09T08:13:17Z</time>
      </trkpt>
      <trkpt lat="42.001484" lon="1.6587889">
        <time>2022-07-09T08:13:20Z</time>
      </trkpt>
      <trkpt lat="42.001556" lon="1.6588066">
        <time>2022-07-09T08:13:23Z</time>
      </trkpt>
      <trkpt lat="42.00163" lon="1.658824">
        <time>2022-07-09T08:13:26Z</time>
      </trkpt>
      <trkpt lat="42.001682" lon="1.6588489">
        <time>2022-07-09T08:13:29Z</time>
      </trkpt>
      <trkpt lat="42.001747" lon="1.6588746">
        <time>2022-07-09T08:13:32Z</time>
      </trkpt>
      <trkpt lat="42.001816" lon="1.6588929">
        <time>2022-07-09T08:13:35Z</time>
      </trkpt>
      <trkpt lat="42.001884" lon="1.6588999">
        <time>2022-07-09T08:13:38Z</time>
      </trkpt>
      <trkpt lat="42.001957" lon="1.6588982">
        <time>2022-07-09T08:13:41Z</time>
      </trkpt>
      <trkpt lat="42.002007" lon="1.6588893">
        <time>2022-07-09T08:13:43Z</time>
      </trkpt>
      <trkpt lat="42.00208" lon="1.6588616">
        <time>2022-07-09T08:13:46Z</time>
      </trkpt>
      <trkpt lat="42.00213" lon="1.6588409">
        <time>2022-07-09T08:13:48Z</time>
      </trkpt>
      <trkpt lat="42.002182" lon="1.6588212">
        <time>2022-07-09T08:13:50Z</time>
      </trkpt>
      <trkpt lat="42.002243" lon="1.658801">
        <time>2022-07-09T08:13:52Z</time>
      </trkpt>
      <trkpt lat="42.0023" lon="1.6587772">
        <time>2022-07-09T08:13:54Z</time>
      </trkpt>
      <trkpt lat="42.00236" lon="1.6587486">
        <time>2022-07-09T08:13:56Z</time>
      </trkpt>
      <trkpt lat="42.00242" lon="1.6587173">
        <time>2022-07-09T08:13:58Z</time>
      </trkpt>
      <trkpt lat="42.002476" lon="1.658682">
        <time>2022-07-09T08:14:00Z</time>
      </trkpt>
      <trkpt lat="42.002525" lon="1.6586406">
        <time>2022-07-09T08:14:02Z</time>
      </trkpt>
      <trkpt lat="42.002575" lon="1.658597">
        <time>2022-07-09T08:14:04Z</time>
      </trkpt>
      <trkpt lat="42.002625" lon="1.6585519">
        <time>2022-07-09T08:14:06Z</time>
      </trkpt>
      <trkpt lat="42.002678" lon="1.6585063">
        <time>2022-07-09T08:14:08Z</time>
      </trkpt>
      <trkpt lat="42.002735" lon="1.6584637">
        <time>2022-07-09T08:14:10Z</time>
      </trkpt>
      <trkpt lat="42.002785" lon="1.6584216">
        <time>2022-07-09T08:14:12Z</time>
      </trkpt>
      <trkpt lat="42.002842" lon="1.658385">
        <time>2022-07-09T08:14:14Z</time>
      </trkpt>
      <trkpt lat="42.002888" lon="1.658352">
        <time>2022-07-09T08:14:16Z</time>
      </trkpt>
      <trkpt lat="42.00293" lon="1.658319">
        <time>2022-07-09T08:14:18Z</time>
      </trkpt>
      <trkpt lat="42.002987" lon="1.6582806">
        <time>2022-07-09T08:14:21Z</time>
      </trkpt>
      <trkpt lat="42.003048" lon="1.658251">
        <time>2022-07-09T08:14:24Z</time>
      </trkpt>
      <trkpt lat="42.003113" lon="1.6582344">
        <time>2022-07-09T08:14:27Z</time>
      </trkpt>
      <trkpt lat="42.003174" lon="1.6582286">
        <time>2022-07-09T08:14:30Z</time>
      </trkpt>
      <trkpt lat="42.00324" lon="1.6582284">
        <time>2022-07-09T08:14:33Z</time>
      </trkpt>
      <trkpt lat="42.003304" lon="1.6582223">
        <time>2022-07-09T08:14:36Z</time>
      </trkpt>
      <trkpt lat="42.00337" lon="1.658216">
        <time>2022-07-09T08:14:39Z</time>
      </trkpt>
      <trkpt lat="42.00343" lon="1.6582221">
        <time>2022-07-09T08:14:42Z</time>
      </trkpt>
      <trkpt lat="42.00349" lon="1.6582474">
        <time>2022-07-09T08:14:45Z</time>
      </trkpt>
      <trkpt lat="42.003555" lon="1.6582683">
        <time>2022-07-09T08:14:48Z</time>
      </trkpt>
      <trkpt lat="42.003616" lon="1.6582884">
        <time>2022-07-09T08:14:51Z</time>
      </trkpt>
      <trkpt lat="42.00367" lon="1.658317">
        <time>2022-07-09T08:14:54Z</time>
      </trkpt>
      <trkpt lat="42.00372" lon="1.6583507">
        <time>2022-07-09T08:14:57Z</time>
      </trkpt>
      <trkpt lat="42.003777" lon="1.6583993">
        <time>2022-07-09T08:15:01Z</time>
      </trkpt>
      <trkpt lat="42.003815" lon="1.6584426">
        <time>2022-07-09T08:15:04Z</time>
      </trkpt>
      <trkpt lat="42.00386" lon="1.6584803">
        <time>2022-07-09T08:15:07Z</time>
      </trkpt>
      <trkpt lat="42.003918" lon="1.658517">
        <time>2022-07-09T08:15:11Z</time>
      </trkpt>
      <trkpt lat="42.00397" lon="1.6585613">
        <time>2022-07-09T08:15:15Z</time>
      </trkpt>
      <trkpt lat="42.00401" lon="1.6586016">
        <time>2022-07-09T08:15:18Z</time>
      </trkpt>
      <trkpt lat="42.004063" lon="1.6586486">
        <time>2022-07-09T08:15:22Z</time>
      </trkpt>
      <trkpt lat="42.004112" lon="1.6586803">
        <time>2022-07-09T08:15:25Z</time>
      </trkpt>
      <trkpt lat="42.00417" lon="1.658728">
        <time>2022-07-09T08:15:29Z</time>
      </trkpt>
      <trkpt lat="42.004215" lon="1.6587737">
        <time>2022-07-09T08:15:32Z</time>
      </trkpt>
      <trkpt lat="42.004265" lon="1.6588206">
        <time>2022-07-09T08:15:35Z</time>
      </trkpt>
      <trkpt lat="42.00432" lon="1.6588613">
        <time>2022-07-09T08:15:38Z</time>
      </trkpt>
      <trkpt lat="42.004364" lon="1.6589006">
        <time>2022-07-09T08:15:41Z</time>
      </trkpt>
      <trkpt lat="42.00441" lon="1.6589439">
        <time>2022-07-09T08:15:44Z</time>
      </trkpt>
      <trkpt lat="42.004456" lon="1.6589916">
        <time>2022-07-09T08:15:47Z</time>
      </trkpt>
      <trkpt lat="42.004498" lon="1.6590463">
        <time>2022-07-09T08:15:50Z</time>
      </trkpt>
      <trkpt lat="42.004536" lon="1.6591086">
        <time>2022-07-09T08:15:53Z</time>
      </trkpt>
      <trkpt lat="42.00457" lon="1.6591703">
        <time>2022-07-09T08:15:56Z</time>
      </trkpt>
      <trkpt lat="42.004604" lon="1.659233">
        <time>2022-07-09T08:15:59Z</time>
      </trkpt>
      <trkpt lat="42.004623" lon="1.6592972">
        <time>2022-07-09T08:16:02Z</time>
      </trkpt>
      <trkpt lat="42.004654" lon="1.6593826">
        <time>2022-07-09T08:16:06Z</time>
      </trkpt>
      <trkpt lat="42.00469" lon="1.6594553">
        <time>2022-07-09T08:16:10Z</time>
      </trkpt>
      <trkpt lat="42.004726" lon="1.6595016">
        <time>2022-07-09T08:16:13Z</time>
      </trkpt>
      <trkpt lat="42.004784" lon="1.6595242">
        <time>2022-07-09T08:16:17Z</time>
      </trkpt>
      <trkpt lat="42.00482" lon="1.6595318">
        <time>2022-07-09T08:16:21Z</time>
      </trkpt>
      <trkpt lat="42.00487" lon="1.6595429">
        <time>2022-07-09T08:16:49Z</time>
      </trkpt>
      <trkpt lat="42.004944" lon="1.6595335">
        <time>2022-07-09T08:16:53Z</time>
      </trkpt>
      <trkpt lat="42.004997" lon="1.6595296">
        <time>2022-07-09T08:16:56Z</time>
      </trkpt>
      <trkpt lat="42.005066" lon="1.6595236">
        <time>2022-07-09T08:17:00Z</time>
      </trkpt>
      <trkpt lat="42.00513" lon="1.6595222">
        <time>2022-07-09T08:17:04Z</time>
      </trkpt>
      <trkpt lat="42.00518" lon="1.6595209">
        <time>2022-07-09T08:17:07Z</time>
      </trkpt>
      <trkpt lat="42.00523" lon="1.6595159">
        <time>2022-07-09T08:17:10Z</time>
      </trkpt>
      <trkpt lat="42.0053" lon="1.6595073">
        <time>2022-07-09T08:17:14Z</time>
      </trkpt>
      <trkpt lat="42.00535" lon="1.6595002">
        <time>2022-07-09T08:17:17Z</time>
      </trkpt>
      <trkpt lat="42.005417" lon="1.6594993">
        <time>2022-07-09T08:17:21Z</time>
      </trkpt>
      <trkpt lat="42.005466" lon="1.6595066">
        <time>2022-07-09T08:17:24Z</time>
      </trkpt>
      <trkpt lat="42.00553" lon="1.6595229">
        <time>2022-07-09T08:17:28Z</time>
      </trkpt>
      <trkpt lat="42.00558" lon="1.6595505">
        <time>2022-07-09T08:17:32Z</time>
      </trkpt>
      <trkpt lat="42.005642" lon="1.6595759">
        <time>2022-07-09T08:17:36Z</time>
      </trkpt>
      <trkpt lat="42.005688" lon="1.6595939">
        <time>2022-07-09T08:17:39Z</time>
      </trkpt>
      <trkpt lat="42.00575" lon="1.6596172">
        <time>2022-07-09T08:17:43Z</time>
      </trkpt>
      <trkpt lat="42.00581" lon="1.6596348">
        <time>2022-07-09T08:17:47Z</time>
      </trkpt>
      <trkpt lat="42.005875" lon="1.6596528">
        <time>2022-07-09T08:17:51Z</time>
      </trkpt>
      <trkpt lat="42.005936" lon="1.6596609">
        <time>2022-07-09T08:17:55Z</time>
      </trkpt>
      <trkpt lat="42.005997" lon="1.6596572">
        <time>2022-07-09T08:17:59Z</time>
      </trkpt>
      <trkpt lat="42.006065" lon="1.6596602">
        <time>2022-07-09T08:18:03Z</time>
      </trkpt>
      <trkpt lat="42.00611" lon="1.6596665">
        <time>2022-07-09T08:18:06Z</time>
      </trkpt>
      <trkpt lat="42.006176" lon="1.6596779">
        <time>2022-07-09T08:18:10Z</time>
      </trkpt>
      <trkpt lat="42.006237" lon="1.6596999">
        <time>2022-07-09T08:18:14Z</time>
      </trkpt>
      <trkpt lat="42.006298" lon="1.6597289">
        <time>2022-07-09T08:18:18Z</time>
      </trkpt>
      <trkpt lat="42.00635" lon="1.6597636">
        <time>2022-07-09T08:18:22Z</time>
      </trkpt>
      <trkpt lat="42.006397" lon="1.6598152">
        <time>2022-07-09T08:18:26Z</time>
      </trkpt>
      <trkpt lat="42.006424" lon="1.6598675">
        <time>2022-07-09T08:18:29Z</time>
      </trkpt>
      <trkpt lat="42.00645" lon="1.6599412">
        <time>2022-07-09T08:18:33Z</time>
      </trkpt>
      <trkpt lat="42.006462" lon="1.6600205">
        <time>2022-07-09T08:18:37Z</time>
      </trkpt>
      <trkpt lat="42.00648" lon="1.6601002">
        <time>2022-07-09T08:18:41Z</time>
      </trkpt>
      <trkpt lat="42.0065" lon="1.6601812">
        <time>2022-07-09T08:18:45Z</time>
      </trkpt>
      <trkpt lat="42.00651" lon="1.6602569">
        <time>2022-07-09T08:18:49Z</time>
      </trkpt>
      <trkpt lat="42.00653" lon="1.6603298">
        <time>2022-07-09T08:18:53Z</time>
      </trkpt>
      <trkpt lat="42.00656" lon="1.6604029">
        <time>2022-07-09T08:18:57Z</time>
      </trkpt>
      <trkpt lat="42.00659" lon="1.6604818">
        <time>2022-07-09T08:19:01Z</time>
      </trkpt>
      <trkpt lat="42.006622" lon="1.6605355">
        <time>2022-07-09T08:19:04Z</time>
      </trkpt>
      <trkpt lat="42.006668" lon="1.6605995">
        <time>2022-07-09T08:19:08Z</time>
      </trkpt>
      <trkpt lat="42.00671" lon="1.6606579">
        <time>2022-07-09T08:19:12Z</time>
      </trkpt>
      <trkpt lat="42.00675" lon="1.6607168">
        <time>2022-07-09T08:19:16Z</time>
      </trkpt>
      <trkpt lat="42.006794" lon="1.6607769">
        <time>2022-07-09T08:19:20Z</time>
      </trkpt>
      <trkpt lat="42.00683" lon="1.6608238">
        <time>2022-07-09T08:19:23Z</time>
      </trkpt>
      <trkpt lat="42.006874" lon="1.6608855">
        <time>2022-07-09T08:19:27Z</time>
      </trkpt>
      <trkpt lat="42.00692" lon="1.6609505">
        <time>2022-07-09T08:19:31Z</time>
      </trkpt>
      <trkpt lat="42.006954" lon="1.6609972">
        <time>2022-07-09T08:19:34Z</time>
      </trkpt>
      <trkpt lat="42.006996" lon="1.6610605">
        <time>2022-07-09T08:19:38Z</time>
      </trkpt>
      <trkpt lat="42.00704" lon="1.6611148">
        <time>2022-07-09T08:19:42Z</time>
      </trkpt>
      <trkpt lat="42.007084" lon="1.6611742">
        <time>2022-07-09T08:19:46Z</time>
      </trkpt>
      <trkpt lat="42.00712" lon="1.6612241">
        <time>2022-07-09T08:19:49Z</time>
      </trkpt>
      <trkpt lat="42.007153" lon="1.6612725">
        <time>2022-07-09T08:19:52Z</time>
      </trkpt>
      <trkpt lat="42.0072" lon="1.6613442">
        <time>2022-07-09T08:19:56Z</time>
      </trkpt>
      <trkpt lat="42.007225" lon="1.6613925">
        <time>2022-07-09T08:19:59Z</time>
      </trkpt>
      <trkpt lat="42.007267" lon="1.6614611">
        <time>2022-07-09T08:20:03Z</time>
      </trkpt>
      <trkpt lat="42.007305" lon="1.6615288">
        <time>2022-07-09T08:20:07Z</time>
      </trkpt>
      <trkpt lat="42.007343" lon="1.6615944">
        <time>2022-07-09T08:20:11Z</time>
      </trkpt>
      <trkpt lat="42.007385" lon="1.6616534">
        <time>2022-07-09T08:20:15Z</time>
      </trkpt>
      <trkpt lat="42.00743" lon="1.6617128">
        <time>2022-07-09T08:20:19Z</time>
      </trkpt>
      <trkpt lat="42.00748" lon="1.6617627">
        <time>2022-07-09T08:20:23Z</time>
      </trkpt>
      <trkpt lat="42.00753" lon="1.6618108">
        <time>2022-07-09T08:20:27Z</time>
      </trkpt>
      <trkpt lat="42.007587" lon="1.6618621">
        <time>2022-07-09T08:20:31Z</time>
      </trkpt>
      <trkpt lat="42.007645" lon="1.6619121">
        <time>2022-07-09T08:20:35Z</time>
      </trkpt>
      <trkpt lat="42.00769" lon="1.6619447">
        <time>2022-07-09T08:20:38Z</time>
      </trkpt>
      <trkpt lat="42.007744" lon="1.6619774">
        <time>2022-07-09T08:20:42Z</time>
      </trkpt>
      <trkpt lat="42.0078" lon="1.6620197">
        <time>2022-07-09T08:20:46Z</time>
      </trkpt>
      <trkpt lat="42.007843" lon="1.662057">
        <time>2022-07-09T08:20:49Z</time>
      </trkpt>
      <trkpt lat="42.0079" lon="1.6621097">
        <time>2022-07-09T08:20:53Z</time>
      </trkpt>
      <trkpt lat="42.007954" lon="1.6621678">
        <time>2022-07-09T08:20:57Z</time>
      </trkpt>
      <trkpt lat="42.00799" lon="1.6622174">
        <time>2022-07-09T08:21:00Z</time>
      </trkpt>
      <trkpt lat="42.008026" lon="1.6622671">
        <time>2022-07-09T08:21:03Z</time>
      </trkpt>
      <trkpt lat="42.008068" lon="1.6623358">
        <time>2022-07-09T08:21:07Z</time>
      </trkpt>
      <trkpt lat="42.0081" lon="1.6624044">
        <time>2022-07-09T08:21:11Z</time>
      </trkpt>
      <trkpt lat="42.008133" lon="1.6624757">
        <time>2022-07-09T08:21:15Z</time>
      </trkpt>
      <trkpt lat="42.008163" lon="1.6625473">
        <time>2022-07-09T08:21:19Z</time>
      </trkpt>
      <trkpt lat="42.008194" lon="1.6626201">
        <time>2022-07-09T08:21:23Z</time>
      </trkpt>
      <trkpt lat="42.008232" lon="1.6626841">
        <time>2022-07-09T08:21:27Z</time>
      </trkpt>
      <trkpt lat="42.008278" lon="1.6627446">
        <time>2022-07-09T08:21:31Z</time>
      </trkpt>
      <trkpt lat="42.00832" lon="1.66281">
        <time>2022-07-09T08:21:35Z</time>
      </trkpt>
      <trkpt lat="42.00836" lon="1.6628727">
        <time>2022-07-09T08:21:39Z</time>
      </trkpt>
      <trkpt lat="42.008404" lon="1.662913">
        <time>2022-07-09T08:21:42Z</time>
      </trkpt>
      <trkpt lat="42.008465" lon="1.6629521">
        <time>2022-07-09T08:21:46Z</time>
      </trkpt>
      <trkpt lat="42.00852" lon="1.6629716">
        <time>2022-07-09T08:21:49Z</time>
      </trkpt>
      <trkpt lat="42.008568" lon="1.6629827">
        <time>2022-07-09T08:21:52Z</time>
      </trkpt>
      <trkpt lat="42.00862" lon="1.6629916">
        <time>2022-07-09T08:21:55Z</time>
      </trkpt>
      <trkpt lat="42.00867" lon="1.6630003">
        <time>2022-07-09T08:21:58Z</time>
      </trkpt>
      <trkpt lat="42.008736" lon="1.6629907">
        <time>2022-07-09T08:22:02Z</time>
      </trkpt>
      <trkpt lat="42.00879" lon="1.6629797">
        <time>2022-07-09T08:22:05Z</time>
      </trkpt>
      <trkpt lat="42.008842" lon="1.6629606">
        <time>2022-07-09T08:22:08Z</time>
      </trkpt>
      <trkpt lat="42.008896" lon="1.6629337">
        <time>2022-07-09T08:22:11Z</time>
      </trkpt>
      <trkpt lat="42.00895" lon="1.6629037">
        <time>2022-07-09T08:22:14Z</time>
      </trkpt>
      <trkpt lat="42.009007" lon="1.6628697">
        <time>2022-07-09T08:22:17Z</time>
      </trkpt>
      <trkpt lat="42.009068" lon="1.662837">
        <time>2022-07-09T08:22:20Z</time>
      </trkpt>
      <trkpt lat="42.009132" lon="1.6628036">
        <time>2022-07-09T08:22:23Z</time>
      </trkpt>
      <trkpt lat="42.009197" lon="1.6627856">
        <time>2022-07-09T08:22:26Z</time>
      </trkpt>
      <trkpt lat="42.009254" lon="1.662767">
        <time>2022-07-09T08:22:29Z</time>
      </trkpt>
      <trkpt lat="42.009315" lon="1.6627604">
        <time>2022-07-09T08:22:32Z</time>
      </trkpt>
      <trkpt lat="42.009373" lon="1.6627496">
        <time>2022-07-09T08:22:35Z</time>
      </trkpt>
      <trkpt lat="42.009434" lon="1.6627414">
        <time>2022-07-09T08:22:38Z</time>
      </trkpt>
      <trkpt lat="42.009518" lon="1.6627464">
        <time>2022-07-09T08:22:42Z</time>
      </trkpt>
      <trkpt lat="42.00959" lon="1.662771">
        <time>2022-07-09T08:22:45Z</time>
      </trkpt>
      <trkpt lat="42.00965" lon="1.6628017">
        <time>2022-07-09T08:22:48Z</time>
      </trkpt>
      <trkpt lat="42.00972" lon="1.6628346">
        <time>2022-07-09T08:22:51Z</time>
      </trkpt>
      <trkpt lat="42.00979" lon="1.6628721">
        <time>2022-07-09T08:22:54Z</time>
      </trkpt>
      <trkpt lat="42.00984" lon="1.6628966">
        <time>2022-07-09T08:22:56Z</time>
      </trkpt>
      <trkpt lat="42.009903" lon="1.6629387">
        <time>2022-07-09T08:22:59Z</time>
      </trkpt>
      <trkpt lat="42.009968" lon="1.6629927">
        <time>2022-07-09T08:23:02Z</time>
      </trkpt>
      <trkpt lat="42.01002" lon="1.663035">
        <time>2022-07-09T08:23:04Z</time>
      </trkpt>
      <trkpt lat="42.01008" lon="1.6630807">
        <time>2022-07-09T08:23:06Z</time>
      </trkpt>
      <trkpt lat="42.01013" lon="1.66313">
        <time>2022-07-09T08:23:08Z</time>
      </trkpt>
      <trkpt lat="42.01019" lon="1.6631863">
        <time>2022-07-09T08:23:10Z</time>
      </trkpt>
      <trkpt lat="42.010246" lon="1.6632473">
        <time>2022-07-09T08:23:12Z</time>
      </trkpt>
      <trkpt lat="42.0103" lon="1.6633073">
        <time>2022-07-09T08:23:14Z</time>
      </trkpt>
      <trkpt lat="42.010357" lon="1.6633693">
        <time>2022-07-09T08:23:16Z</time>
      </trkpt>
      <trkpt lat="42.01041" lon="1.663428">
        <time>2022-07-09T08:23:18Z</time>
      </trkpt>
      <trkpt lat="42.010468" lon="1.6634753">
        <time>2022-07-09T08:23:20Z</time>
      </trkpt>
      <trkpt lat="42.01053" lon="1.66351">
        <time>2022-07-09T08:23:22Z</time>
      </trkpt>
      <trkpt lat="42.010597" lon="1.6635296">
        <time>2022-07-09T08:23:24Z</time>
      </trkpt>
      <trkpt lat="42.010662" lon="1.6635356">
        <time>2022-07-09T08:23:26Z</time>
      </trkpt>
      <trkpt lat="42.01073" lon="1.66353">
        <time>2022-07-09T08:23:28Z</time>
      </trkpt>
      <trkpt lat="42.010796" lon="1.663519">
        <time>2022-07-09T08:23:30Z</time>
      </trkpt>
      <trkpt lat="42.010853" lon="1.6635094">
        <time>2022-07-09T08:23:32Z</time>
      </trkpt>
      <trkpt lat="42.010902" lon="1.663499">
        <time>2022-07-09T08:23:34Z</time>
      </trkpt>
      <trkpt lat="42.010983" lon="1.6634773">
        <time>2022-07-09T08:23:37Z</time>
      </trkpt>
      <trkpt lat="42.011036" lon="1.6634597">
        <time>2022-07-09T08:23:39Z</time>
      </trkpt>
      <trkpt lat="42.01109" lon="1.6634413">
        <time>2022-07-09T08:23:41Z</time>
      </trkpt>
      <trkpt lat="42.011143" lon="1.6634207">
        <time>2022-07-09T08:23:43Z</time>
      </trkpt>
      <trkpt lat="42.011196" lon="1.663399">
        <time>2022-07-09T08:23:45Z</time>
      </trkpt>
      <trkpt lat="42.011246" lon="1.6633737">
        <time>2022-07-09T08:23:47Z</time>
      </trkpt>
      <trkpt lat="42.011303" lon="1.6633453">
        <time>2022-07-09T08:23:49Z</time>
      </trkpt>
      <trkpt lat="42.011353" lon="1.663316">
        <time>2022-07-09T08:23:51Z</time>
      </trkpt>
      <trkpt lat="42.011406" lon="1.663288">
        <time>2022-07-09T08:23:53Z</time>
      </trkpt>
      <trkpt lat="42.011456" lon="1.6632574">
        <time>2022-07-09T08:23:55Z</time>
      </trkpt>
      <trkpt lat="42.0115" lon="1.663226">
        <time>2022-07-09T08:23:57Z</time>
      </trkpt>
      <trkpt lat="42.01155" lon="1.6631987">
        <time>2022-07-09T08:23:59Z</time>
      </trkpt>
      <trkpt lat="42.011604" lon="1.6631798">
        <time>2022-07-09T08:24:01Z</time>
      </trkpt>
      <trkpt lat="42.011658" lon="1.6631674">
        <time>2022-07-09T08:24:03Z</time>
      </trkpt>
      <trkpt lat="42.01171" lon="1.6631618">
        <time>2022-07-09T08:24:05Z</time>
      </trkpt>
      <trkpt lat="42.011772" lon="1.6631631">
        <time>2022-07-09T08:24:07Z</time>
      </trkpt>
      <trkpt lat="42.011833" lon="1.6631677">
        <time>2022-07-09T08:24:09Z</time>
      </trkpt>
      <trkpt lat="42.011894" lon="1.6631794">
        <time>2022-07-09T08:24:11Z</time>
      </trkpt>
      <trkpt lat="42.011955" lon="1.6631941">
        <time>2022-07-09T08:24:13Z</time>
      </trkpt>
      <trkpt lat="42.012024" lon="1.6632067">
        <time>2022-07-09T08:24:15Z</time>
      </trkpt>
      <trkpt lat="42.01209" lon="1.663225">
        <time>2022-07-09T08:24:17Z</time>
      </trkpt>
      <trkpt lat="42.012146" lon="1.6632503">
        <time>2022-07-09T08:24:19Z</time>
      </trkpt>
      <trkpt lat="42.012203" lon="1.6632754">
        <time>2022-07-09T08:24:21Z</time>
      </trkpt>
      <trkpt lat="42.01226" lon="1.6632984">
        <time>2022-07-09T08:24:23Z</time>
      </trkpt>
      <trkpt lat="42.01232" lon="1.6633201">
        <time>2022-07-09T08:24:25Z</time>
      </trkpt>
      <trkpt lat="42.012383" lon="1.6633394">
        <time>2022-07-09T08:24:27Z</time>
      </trkpt>
      <trkpt lat="42.012447" lon="1.6633533">
        <time>2022-07-09T08:24:29Z</time>
      </trkpt>
      <trkpt lat="42.012512" lon="1.663368">
        <time>2022-07-09T08:24:31Z</time>
      </trkpt>
      <trkpt lat="42.012577" lon="1.663388">
        <time>2022-07-09T08:24:33Z</time>
      </trkpt>
      <trkpt lat="42.01264" lon="1.6634164">
        <time>2022-07-09T08:24:35Z</time>
      </trkpt>
      <trkpt lat="42.01271" lon="1.6634517">
        <time>2022-07-09T08:24:37Z</time>
      </trkpt>
      <trkpt lat="42.01278" lon="1.6634827">
        <time>2022-07-09T08:24:39Z</time>
      </trkpt>
      <trkpt lat="42.012848" lon="1.663516">
        <time>2022-07-09T08:24:41Z</time>
      </trkpt>
      <trkpt lat="42.01291" lon="1.6635487">
        <time>2022-07-09T08:24:43Z</time>
      </trkpt>
      <trkpt lat="42.012966" lon="1.6635803">
        <time>2022-07-09T08:24:45Z</time>
      </trkpt>
      <trkpt lat="42.013027" lon="1.6636059">
        <time>2022-07-09T08:24:47Z</time>
      </trkpt>
      <trkpt lat="42.013096" lon="1.6636223">
        <time>2022-07-09T08:24:49Z</time>
      </trkpt>
      <trkpt lat="42.01316" lon="1.66363">
        <time>2022-07-09T08:24:51Z</time>
      </trkpt>
      <trkpt lat="42.01322" lon="1.663636">
        <time>2022-07-09T08:24:53Z</time>
      </trkpt>
      <trkpt lat="42.01328" lon="1.6636373">
        <time>2022-07-09T08:24:55Z</time>
      </trkpt>
      <trkpt lat="42.013332" lon="1.663638">
        <time>2022-07-09T08:24:57Z</time>
      </trkpt>
      <trkpt lat="42.01339" lon="1.6636349">
        <time>2022-07-09T08:24:59Z</time>
      </trkpt>
      <trkpt lat="42.013443" lon="1.6636267">
        <time>2022-07-09T08:25:01Z</time>
      </trkpt>
      <trkpt lat="42.0135" lon="1.6636137">
        <time>2022-07-09T08:25:03Z</time>
      </trkpt>
      <trkpt lat="42.013554" lon="1.6635953">
        <time>2022-07-09T08:25:05Z</time>
      </trkpt>
      <trkpt lat="42.013607" lon="1.663576">
        <time>2022-07-09T08:25:07Z</time>
      </trkpt>
      <trkpt lat="42.013657" lon="1.663556">
        <time>2022-07-09T08:25:09Z</time>
      </trkpt>
      <trkpt lat="42.01371" lon="1.6635386">
        <time>2022-07-09T08:25:11Z</time>
      </trkpt>
      <trkpt lat="42.01376" lon="1.6635253">
        <time>2022-07-09T08:25:13Z</time>
      </trkpt>
      <trkpt lat="42.013813" lon="1.6635163">
        <time>2022-07-09T08:25:15Z</time>
      </trkpt>
      <trkpt lat="42.013885" lon="1.6635187">
        <time>2022-07-09T08:25:18Z</time>
      </trkpt>
      <trkpt lat="42.013954" lon="1.663528">
        <time>2022-07-09T08:25:21Z</time>
      </trkpt>
      <trkpt lat="42.014027" lon="1.6635302">
        <time>2022-07-09T08:25:24Z</time>
      </trkpt>
      <trkpt lat="42.014072" lon="1.663533">
        <time>2022-07-09T08:25:26Z</time>
      </trkpt>
      <trkpt lat="42.01414" lon="1.6635406">
        <time>2022-07-09T08:25:29Z</time>
      </trkpt>
      <trkpt lat="42.01421" lon="1.6635616">
        <time>2022-07-09T08:25:32Z</time>
      </trkpt>
      <trkpt lat="42.01426" lon="1.6635807">
        <time>2022-07-09T08:25:34Z</time>
      </trkpt>
      <trkpt lat="42.01433" lon="1.663605">
        <time>2022-07-09T08:25:37Z</time>
      </trkpt>
      <trkpt lat="42.014378" lon="1.6636249">
        <time>2022-07-09T08:25:39Z</time>
      </trkpt>
      <trkpt lat="42.014442" lon="1.6636646">
        <time>2022-07-09T08:25:42Z</time>
      </trkpt>
      <trkpt lat="42.0145" lon="1.6637212">
        <time>2022-07-09T08:25:45Z</time>
      </trkpt>
      <trkpt lat="42.01454" lon="1.663793">
        <time>2022-07-09T08:25:48Z</time>
      </trkpt>
      <trkpt lat="42.014565" lon="1.6638726">
        <time>2022-07-09T08:25:51Z</time>
      </trkpt>
      <trkpt lat="42.01457" lon="1.6639546">
        <time>2022-07-09T08:25:54Z</time>
      </trkpt>
      <trkpt lat="42.01455" lon="1.6640316">
        <time>2022-07-09T08:25:57Z</time>
      </trkpt>
      <trkpt lat="42.014515" lon="1.6641066">
        <time>2022-07-09T08:26:00Z</time>
      </trkpt>
      <trkpt lat="42.014473" lon="1.6641812">
        <time>2022-07-09T08:26:03Z</time>
      </trkpt>
      <trkpt lat="42.01443" lon="1.6642603">
        <time>2022-07-09T08:26:06Z</time>
      </trkpt>
      <trkpt lat="42.014393" lon="1.6643409">
        <time>2022-07-09T08:26:09Z</time>
      </trkpt>
      <trkpt lat="42.014366" lon="1.6644349">
        <time>2022-07-09T08:26:12Z</time>
      </trkpt>
      <trkpt lat="42.01436" lon="1.6645019">
        <time>2022-07-09T08:26:14Z</time>
      </trkpt>
      <trkpt lat="42.014366" lon="1.664604">
        <time>2022-07-09T08:26:17Z</time>
      </trkpt>
      <trkpt lat="42.014385" lon="1.6646659">
        <time>2022-07-09T08:26:19Z</time>
      </trkpt>
      <trkpt lat="42.014427" lon="1.6647482">
        <time>2022-07-09T08:26:22Z</time>
      </trkpt>
      <trkpt lat="42.014473" lon="1.6648215">
        <time>2022-07-09T08:26:25Z</time>
      </trkpt>
      <trkpt lat="42.014507" lon="1.6648736">
        <time>2022-07-09T08:26:27Z</time>
      </trkpt>
      <trkpt lat="42.014557" lon="1.6649503">
        <time>2022-07-09T08:26:30Z</time>
      </trkpt>
      <trkpt lat="42.014587" lon="1.6650006">
        <time>2022-07-09T08:26:32Z</time>
      </trkpt>
      <trkpt lat="42.01464" lon="1.6650779">
        <time>2022-07-09T08:26:35Z</time>
      </trkpt>
      <trkpt lat="42.01467" lon="1.6651275">
        <time>2022-07-09T08:26:37Z</time>
      </trkpt>
      <trkpt lat="42.014713" lon="1.6652045">
        <time>2022-07-09T08:26:40Z</time>
      </trkpt>
      <trkpt lat="42.01475" lon="1.6652862">
        <time>2022-07-09T08:26:43Z</time>
      </trkpt>
      <trkpt lat="42.014782" lon="1.6653742">
        <time>2022-07-09T08:26:46Z</time>
      </trkpt>
      <trkpt lat="42.014797" lon="1.6654629">
        <time>2022-07-09T08:26:49Z</time>
      </trkpt>
      <trkpt lat="42.014812" lon="1.6655235">
        <time>2022-07-09T08:26:51Z</time>
      </trkpt>
      <trkpt lat="42.014835" lon="1.6656152">
        <time>2022-07-09T08:26:54Z</time>
      </trkpt>
      <trkpt lat="42.014847" lon="1.6657412">
        <time>2022-07-09T08:26:58Z</time>
      </trkpt>
      <trkpt lat="42.014854" lon="1.6658121">
        <time>2022-07-09T08:27:00Z</time>
      </trkpt>
      <trkpt lat="42.01487" lon="1.6658839">
        <time>2022-07-09T08:27:02Z</time>
      </trkpt>
      <trkpt lat="42.01489" lon="1.6659555">
        <time>2022-07-09T08:27:04Z</time>
      </trkpt>
      <trkpt lat="42.0149" lon="1.6660272">
        <time>2022-07-09T08:27:06Z</time>
      </trkpt>
      <trkpt lat="42.01491" lon="1.6660945">
        <time>2022-07-09T08:27:08Z</time>
      </trkpt>
      <trkpt lat="42.01492" lon="1.6661592">
        <time>2022-07-09T08:27:10Z</time>
      </trkpt>
      <trkpt lat="42.01494" lon="1.6662542">
        <time>2022-07-09T08:27:13Z</time>
      </trkpt>
      <trkpt lat="42.014957" lon="1.6663548">
        <time>2022-07-09T08:27:16Z</time>
      </trkpt>
      <trkpt lat="42.014965" lon="1.6664178">
        <time>2022-07-09T08:27:18Z</time>
      </trkpt>
      <trkpt lat="42.014973" lon="1.6665138">
        <time>2022-07-09T08:27:21Z</time>
      </trkpt>
      <trkpt lat="42.01499" lon="1.6666129">
        <time>2022-07-09T08:27:24Z</time>
      </trkpt>
      <trkpt lat="42.014988" lon="1.6666821">
        <time>2022-07-09T08:27:26Z</time>
      </trkpt>
      <trkpt lat="42.014973" lon="1.6667851">
        <time>2022-07-09T08:27:29Z</time>
      </trkpt>
      <trkpt lat="42.01495" lon="1.6668458">
        <time>2022-07-09T08:27:31Z</time>
      </trkpt>
      <trkpt lat="42.01493" lon="1.6669085">
        <time>2022-07-09T08:27:33Z</time>
      </trkpt>
      <trkpt lat="42.014896" lon="1.6669987">
        <time>2022-07-09T08:27:36Z</time>
      </trkpt>
      <trkpt lat="42.01488" lon="1.6670618">
        <time>2022-07-09T08:27:38Z</time>
      </trkpt>
      <trkpt lat="42.014874" lon="1.6671611">
        <time>2022-07-09T08:27:41Z</time>
      </trkpt>
      <trkpt lat="42.01488" lon="1.6672618">
        <time>2022-07-09T08:27:44Z</time>
      </trkpt>
      <trkpt lat="42.014896" lon="1.6673294">
        <time>2022-07-09T08:27:46Z</time>
      </trkpt>
      <trkpt lat="42.014915" lon="1.6673938">
        <time>2022-07-09T08:27:48Z</time>
      </trkpt>
      <trkpt lat="42.014946" lon="1.6674868">
        <time>2022-07-09T08:27:51Z</time>
      </trkpt>
      <trkpt lat="42.014973" lon="1.6675475">
        <time>2022-07-09T08:27:53Z</time>
      </trkpt>
      <trkpt lat="42.01499" lon="1.6676078">
        <time>2022-07-09T08:27:55Z</time>
      </trkpt>
      <trkpt lat="42.015026" lon="1.6676948">
        <time>2022-07-09T08:27:58Z</time>
      </trkpt>
      <trkpt lat="42.015057" lon="1.6677831">
        <time>2022-07-09T08:28:01Z</time>
      </trkpt>
      <trkpt lat="42.01508" lon="1.6678741">
        <time>2022-07-09T08:28:04Z</time>
      </trkpt>
      <trkpt lat="42.0151" lon="1.6679617">
        <time>2022-07-09T08:28:07Z</time>
      </trkpt>
      <trkpt lat="42.01512" lon="1.6680421">
        <time>2022-07-09T08:28:10Z</time>
      </trkpt>
      <trkpt lat="42.01515" lon="1.6681257">
        <time>2022-07-09T08:28:13Z</time>
      </trkpt>
      <trkpt lat="42.015182" lon="1.6682098">
        <time>2022-07-09T08:28:16Z</time>
      </trkpt>
      <trkpt lat="42.01522" lon="1.6682931">
        <time>2022-07-09T08:28:19Z</time>
      </trkpt>
      <trkpt lat="42.015255" lon="1.6683767">
        <time>2022-07-09T08:28:22Z</time>
      </trkpt>
      <trkpt lat="42.015297" lon="1.6684574">
        <time>2022-07-09T08:28:25Z</time>
      </trkpt>
      <trkpt lat="42.01533" lon="1.6685374">
        <time>2022-07-09T08:28:28Z</time>
      </trkpt>
      <trkpt lat="42.01536" lon="1.6686127">
        <time>2022-07-09T08:28:31Z</time>
      </trkpt>
      <trkpt lat="42.015408" lon="1.668679">
        <time>2022-07-09T08:28:34Z</time>
      </trkpt>
      <trkpt lat="42.015457" lon="1.66874">
        <time>2022-07-09T08:28:37Z</time>
      </trkpt>
      <trkpt lat="42.015507" lon="1.6688011">
        <time>2022-07-09T08:28:40Z</time>
      </trkpt>
      <trkpt lat="42.015556" lon="1.6688564">
        <time>2022-07-09T08:28:43Z</time>
      </trkpt>
      <trkpt lat="42.01561" lon="1.6689028">
        <time>2022-07-09T08:28:46Z</time>
      </trkpt>
      <trkpt lat="42.015667" lon="1.6689401">
        <time>2022-07-09T08:28:49Z</time>
      </trkpt>
      <trkpt lat="42.01573" lon="1.6689681">
        <time>2022-07-09T08:28:52Z</time>
      </trkpt>
      <trkpt lat="42.015797" lon="1.669002">
        <time>2022-07-09T08:28:55Z</time>
      </trkpt>
      <trkpt lat="42.015858" lon="1.6690494">
        <time>2022-07-09T08:28:58Z</time>
      </trkpt>
      <trkpt lat="42.015907" lon="1.669123">
        <time>2022-07-09T08:29:01Z</time>
      </trkpt>
      <trkpt lat="42.01593" lon="1.66919">
        <time>2022-07-09T08:29:03Z</time>
      </trkpt>
      <trkpt lat="42.015945" lon="1.6692677">
        <time>2022-07-09T08:29:05Z</time>
      </trkpt>
      <trkpt lat="42.01596" lon="1.6693487">
        <time>2022-07-09T08:29:07Z</time>
      </trkpt>
      <trkpt lat="42.01598" lon="1.669438">
        <time>2022-07-09T08:29:09Z</time>
      </trkpt>
      <trkpt lat="42.016003" lon="1.6695241">
        <time>2022-07-09T08:29:11Z</time>
      </trkpt>
      <trkpt lat="42.016026" lon="1.669619">
        <time>2022-07-09T08:29:13Z</time>
      </trkpt>
      <trkpt lat="42.016052" lon="1.6697127">
        <time>2022-07-09T08:29:15Z</time>
      </trkpt>
      <trkpt lat="42.016075" lon="1.669808">
        <time>2022-07-09T08:29:17Z</time>
      </trkpt>
      <trkpt lat="42.0161" lon="1.669908">
        <time>2022-07-09T08:29:19Z</time>
      </trkpt>
      <trkpt lat="42.01612" lon="1.670004">
        <time>2022-07-09T08:29:21Z</time>
      </trkpt>
      <trkpt lat="42.016136" lon="1.6700933">
        <time>2022-07-09T08:29:23Z</time>
      </trkpt>
      <trkpt lat="42.01615" lon="1.6701837">
        <time>2022-07-09T08:29:25Z</time>
      </trkpt>
      <trkpt lat="42.01617" lon="1.6702737">
        <time>2022-07-09T08:29:27Z</time>
      </trkpt>
      <trkpt lat="42.016197" lon="1.6703613">
        <time>2022-07-09T08:29:29Z</time>
      </trkpt>
      <trkpt lat="42.01623" lon="1.6704496">
        <time>2022-07-09T08:29:31Z</time>
      </trkpt>
      <trkpt lat="42.016266" lon="1.6705277">
        <time>2022-07-09T08:29:33Z</time>
      </trkpt>
      <trkpt lat="42.0163" lon="1.670604">
        <time>2022-07-09T08:29:35Z</time>
      </trkpt>
      <trkpt lat="42.016346" lon="1.6706847">
        <time>2022-07-09T08:29:37Z</time>
      </trkpt>
      <trkpt lat="42.016384" lon="1.6707727">
        <time>2022-07-09T08:29:39Z</time>
      </trkpt>
      <trkpt lat="42.016434" lon="1.670853">
        <time>2022-07-09T08:29:41Z</time>
      </trkpt>
      <trkpt lat="42.016483" lon="1.6709273">
        <time>2022-07-09T08:29:43Z</time>
      </trkpt>
      <trkpt lat="42.01653" lon="1.6709996">
        <time>2022-07-09T08:29:45Z</time>
      </trkpt>
      <trkpt lat="42.01658" lon="1.6710687">
        <time>2022-07-09T08:29:47Z</time>
      </trkpt>
      <trkpt lat="42.01663" lon="1.67113">
        <time>2022-07-09T08:29:49Z</time>
      </trkpt>
      <trkpt lat="42.01668" lon="1.671181">
        <time>2022-07-09T08:29:51Z</time>
      </trkpt>
      <trkpt lat="42.01673" lon="1.6712253">
        <time>2022-07-09T08:29:53Z</time>
      </trkpt>
      <trkpt lat="42.01678" lon="1.6712713">
        <time>2022-07-09T08:29:55Z</time>
      </trkpt>
      <trkpt lat="42.016827" lon="1.6713176">
        <time>2022-07-09T08:29:57Z</time>
      </trkpt>
      <trkpt lat="42.01687" lon="1.6713643">
        <time>2022-07-09T08:29:59Z</time>
      </trkpt>
      <trkpt lat="42.01691" lon="1.6714083">
        <time>2022-07-09T08:30:01Z</time>
      </trkpt>
      <trkpt lat="42.016964" lon="1.6714693">
        <time>2022-07-09T08:30:04Z</time>
      </trkpt>
      <trkpt lat="42.017017" lon="1.671533">
        <time>2022-07-09T08:30:07Z</time>
      </trkpt>
      <trkpt lat="42.01707" lon="1.6715963">
        <time>2022-07-09T08:30:10Z</time>
      </trkpt>
      <trkpt lat="42.017124" lon="1.6716592">
        <time>2022-07-09T08:30:13Z</time>
      </trkpt>
      <trkpt lat="42.017174" lon="1.6717293">
        <time>2022-07-09T08:30:16Z</time>
      </trkpt>
      <trkpt lat="42.01722" lon="1.6717963">
        <time>2022-07-09T08:30:19Z</time>
      </trkpt>
      <trkpt lat="42.01727" lon="1.6718587">
        <time>2022-07-09T08:30:22Z</time>
      </trkpt>
      <trkpt lat="42.01732" lon="1.6719186">
        <time>2022-07-09T08:30:25Z</time>
      </trkpt>
      <trkpt lat="42.017353" lon="1.6719829">
        <time>2022-07-09T08:30:28Z</time>
      </trkpt>
      <trkpt lat="42.017395" lon="1.672045">
        <time>2022-07-09T08:30:31Z</time>
      </trkpt>
      <trkpt lat="42.017437" lon="1.6721036">
        <time>2022-07-09T08:30:34Z</time>
      </trkpt>
      <trkpt lat="42.01748" lon="1.6721646">
        <time>2022-07-09T08:30:37Z</time>
      </trkpt>
      <trkpt lat="42.017513" lon="1.672228">
        <time>2022-07-09T08:30:40Z</time>
      </trkpt>
      <trkpt lat="42.01756" lon="1.6722933">
        <time>2022-07-09T08:30:43Z</time>
      </trkpt>
      <trkpt lat="42.0176" lon="1.6723589">
        <time>2022-07-09T08:30:46Z</time>
      </trkpt>
      <trkpt lat="42.017635" lon="1.6724309">
        <time>2022-07-09T08:30:49Z</time>
      </trkpt>
      <trkpt lat="42.01767" lon="1.6725066">
        <time>2022-07-09T08:30:52Z</time>
      </trkpt>
      <trkpt lat="42.0177" lon="1.6725852">
        <time>2022-07-09T08:30:55Z</time>
      </trkpt>
      <trkpt lat="42.017727" lon="1.6726682">
        <time>2022-07-09T08:30:58Z</time>
      </trkpt>
      <trkpt lat="42.017754" lon="1.6727432">
        <time>2022-07-09T08:31:01Z</time>
      </trkpt>
      <trkpt lat="42.017776" lon="1.6728169">
        <time>2022-07-09T08:31:04Z</time>
      </trkpt>
      <trkpt lat="42.017803" lon="1.6729093">
        <time>2022-07-09T08:31:07Z</time>
      </trkpt>
      <trkpt lat="42.017822" lon="1.6729676">
        <time>2022-07-09T08:31:09Z</time>
      </trkpt>
      <trkpt lat="42.01785" lon="1.6730409">
        <time>2022-07-09T08:31:12Z</time>
      </trkpt>
      <trkpt lat="42.017876" lon="1.6731108">
        <time>2022-07-09T08:31:15Z</time>
      </trkpt>
      <trkpt lat="42.01791" lon="1.6731739">
        <time>2022-07-09T08:31:18Z</time>
      </trkpt>
      <trkpt lat="42.01795" lon="1.6732379">
        <time>2022-07-09T08:31:21Z</time>
      </trkpt>
      <trkpt lat="42.017982" lon="1.6733049">
        <time>2022-07-09T08:31:24Z</time>
      </trkpt>
      <trkpt lat="42.01802" lon="1.6733689">
        <time>2022-07-09T08:31:27Z</time>
      </trkpt>
      <trkpt lat="42.018047" lon="1.6734293">
        <time>2022-07-09T08:31:30Z</time>
      </trkpt>
      <trkpt lat="42.018078" lon="1.6734868">
        <time>2022-07-09T08:31:33Z</time>
      </trkpt>
      <trkpt lat="42.018112" lon="1.6735462">
        <time>2022-07-09T08:31:36Z</time>
      </trkpt>
      <trkpt lat="42.018158" lon="1.6736172">
        <time>2022-07-09T08:31:39Z</time>
      </trkpt>
      <trkpt lat="42.018192" lon="1.6736616">
        <time>2022-07-09T08:31:41Z</time>
      </trkpt>
      <trkpt lat="42.01825" lon="1.6737212">
        <time>2022-07-09T08:31:44Z</time>
      </trkpt>
      <trkpt lat="42.01831" lon="1.6737739">
        <time>2022-07-09T08:31:47Z</time>
      </trkpt>
      <trkpt lat="42.018368" lon="1.6738135">
        <time>2022-07-09T08:31:50Z</time>
      </trkpt>
      <trkpt lat="42.01842" lon="1.6738389">
        <time>2022-07-09T08:31:53Z</time>
      </trkpt>
      <trkpt lat="42.018482" lon="1.6738641">
        <time>2022-07-09T08:31:56Z</time>
      </trkpt>
      <trkpt lat="42.018543" lon="1.6738958">
        <time>2022-07-09T08:31:59Z</time>
      </trkpt>
      <trkpt lat="42.018604" lon="1.6739311">
        <time>2022-07-09T08:32:02Z</time>
      </trkpt>
      <trkpt lat="42.01867" lon="1.6739604">
        <time>2022-07-09T08:32:05Z</time>
      </trkpt>
      <trkpt lat="42.01874" lon="1.6740022">
        <time>2022-07-09T08:32:08Z</time>
      </trkpt>
      <trkpt lat="42.018787" lon="1.6740358">
        <time>2022-07-09T08:32:10Z</time>
      </trkpt>
      <trkpt lat="42.018833" lon="1.6740645">
        <time>2022-07-09T08:32:12Z</time>
      </trkpt>
      <trkpt lat="42.018906" lon="1.6741048">
        <time>2022-07-09T08:32:15Z</time>
      </trkpt>
      <trkpt lat="42.01897" lon="1.6741425">
        <time>2022-07-09T08:32:18Z</time>
      </trkpt>
      <trkpt lat="42.019012" lon="1.6741664">
        <time>2022-07-09T08:32:20Z</time>
      </trkpt>
      <trkpt lat="42.019077" lon="1.6742018">
        <time>2022-07-09T08:32:23Z</time>
      </trkpt>
      <trkpt lat="42.01912" lon="1.6742297">
        <time>2022-07-09T08:32:25Z</time>
      </trkpt>
      <trkpt lat="42.01918" lon="1.6742694">
        <time>2022-07-09T08:32:28Z</time>
      </trkpt>
      <trkpt lat="42.019245" lon="1.6742988">
        <time>2022-07-09T08:32:31Z</time>
      </trkpt>
      <trkpt lat="42.019306" lon="1.6743234">
        <time>2022-07-09T08:32:34Z</time>
      </trkpt>
      <trkpt lat="42.01938" lon="1.6743428">
        <time>2022-07-09T08:32:37Z</time>
      </trkpt>
      <trkpt lat="42.019432" lon="1.6743554">
        <time>2022-07-09T08:32:39Z</time>
      </trkpt>
      <trkpt lat="42.0195" lon="1.6743585">
        <time>2022-07-09T08:32:42Z</time>
      </trkpt>
      <trkpt lat="42.019573" lon="1.6743578">
        <time>2022-07-09T08:32:45Z</time>
      </trkpt>
      <trkpt lat="42.019646" lon="1.6743565">
        <time>2022-07-09T08:32:48Z</time>
      </trkpt>
      <trkpt lat="42.019695" lon="1.6743594">
        <time>2022-07-09T08:32:50Z</time>
      </trkpt>
      <trkpt lat="42.01977" lon="1.6743658">
        <time>2022-07-09T08:32:53Z</time>
      </trkpt>
      <trkpt lat="42.019836" lon="1.6743684">
        <time>2022-07-09T08:32:56Z</time>
      </trkpt>
      <trkpt lat="42.0199" lon="1.6743515">
        <time>2022-07-09T08:32:59Z</time>
      </trkpt>
      <trkpt lat="42.01997" lon="1.6743461">
        <time>2022-07-09T08:33:02Z</time>
      </trkpt>
      <trkpt lat="42.02002" lon="1.6743441">
        <time>2022-07-09T08:33:04Z</time>
      </trkpt>
      <trkpt lat="42.020092" lon="1.6743375">
        <time>2022-07-09T08:33:07Z</time>
      </trkpt>
      <trkpt lat="42.020157" lon="1.6743292">
        <time>2022-07-09T08:33:10Z</time>
      </trkpt>
      <trkpt lat="42.020226" lon="1.6743325">
        <time>2022-07-09T08:33:13Z</time>
      </trkpt>
      <trkpt lat="42.020275" lon="1.6743424">
        <time>2022-07-09T08:33:15Z</time>
      </trkpt>
      <trkpt lat="42.02035" lon="1.6743464">
        <time>2022-07-09T08:33:18Z</time>
      </trkpt>
      <trkpt lat="42.020424" lon="1.6743628">
        <time>2022-07-09T08:33:21Z</time>
      </trkpt>
      <trkpt lat="42.020477" lon="1.6743715">
        <time>2022-07-09T08:33:23Z</time>
      </trkpt>
      <trkpt lat="42.020554" lon="1.6743891">
        <time>2022-07-09T08:33:26Z</time>
      </trkpt>
      <trkpt lat="42.020603" lon="1.6744008">
        <time>2022-07-09T08:33:28Z</time>
      </trkpt>
      <trkpt lat="42.020657" lon="1.6744027">
        <time>2022-07-09T08:33:30Z</time>
      </trkpt>
      <trkpt lat="42.020714" lon="1.6744025">
        <time>2022-07-09T08:33:32Z</time>
      </trkpt>
      <trkpt lat="42.02078" lon="1.6743991">
        <time>2022-07-09T08:33:34Z</time>
      </trkpt>
      <trkpt lat="42.02085" lon="1.6743984">
        <time>2022-07-09T08:33:36Z</time>
      </trkpt>
      <trkpt lat="42.02093" lon="1.6743964">
        <time>2022-07-09T08:33:38Z</time>
      </trkpt>
      <trkpt lat="42.021008" lon="1.6743964">
        <time>2022-07-09T08:33:40Z</time>
      </trkpt>
      <trkpt lat="42.02108" lon="1.6743867">
        <time>2022-07-09T08:33:42Z</time>
      </trkpt>
      <trkpt lat="42.021156" lon="1.6743708">
        <time>2022-07-09T08:33:44Z</time>
      </trkpt>
      <trkpt lat="42.021225" lon="1.6743518">
        <time>2022-07-09T08:33:46Z</time>
      </trkpt>
      <trkpt lat="42.0213" lon="1.6743288">
        <time>2022-07-09T08:33:48Z</time>
      </trkpt>
      <trkpt lat="42.02137" lon="1.6743134">
        <time>2022-07-09T08:33:50Z</time>
      </trkpt>
      <trkpt lat="42.021442" lon="1.6742874">
        <time>2022-07-09T08:33:52Z</time>
      </trkpt>
      <trkpt lat="42.021515" lon="1.6742628">
        <time>2022-07-09T08:33:54Z</time>
      </trkpt>
      <trkpt lat="42.021584" lon="1.6742408">
        <time>2022-07-09T08:33:56Z</time>
      </trkpt>
      <trkpt lat="42.021656" lon="1.6742238">
        <time>2022-07-09T08:33:58Z</time>
      </trkpt>
      <trkpt lat="42.021736" lon="1.6742198">
        <time>2022-07-09T08:34:00Z</time>
      </trkpt>
      <trkpt lat="42.021812" lon="1.6742238">
        <time>2022-07-09T08:34:02Z</time>
      </trkpt>
      <trkpt lat="42.02189" lon="1.6742308">
        <time>2022-07-09T08:34:04Z</time>
      </trkpt>
      <trkpt lat="42.02197" lon="1.6742477">
        <time>2022-07-09T08:34:06Z</time>
      </trkpt>
      <trkpt lat="42.022045" lon="1.6742731">
        <time>2022-07-09T08:34:08Z</time>
      </trkpt>
      <trkpt lat="42.02212" lon="1.6742941">
        <time>2022-07-09T08:34:10Z</time>
      </trkpt>
      <trkpt lat="42.0222" lon="1.6743162">
        <time>2022-07-09T08:34:12Z</time>
      </trkpt>
      <trkpt lat="42.02228" lon="1.6743411">
        <time>2022-07-09T08:34:14Z</time>
      </trkpt>
      <trkpt lat="42.022366" lon="1.6743681">
        <time>2022-07-09T08:34:16Z</time>
      </trkpt>
      <trkpt lat="42.02245" lon="1.6743975">
        <time>2022-07-09T08:34:18Z</time>
      </trkpt>
      <trkpt lat="42.022537" lon="1.6744244">
        <time>2022-07-09T08:34:20Z</time>
      </trkpt>
      <trkpt lat="42.022625" lon="1.6744531">
        <time>2022-07-09T08:34:22Z</time>
      </trkpt>
      <trkpt lat="42.02271" lon="1.6744825">
        <time>2022-07-09T08:34:24Z</time>
      </trkpt>
      <trkpt lat="42.022797" lon="1.6745088">
        <time>2022-07-09T08:34:26Z</time>
      </trkpt>
      <trkpt lat="42.02288" lon="1.674527">
        <time>2022-07-09T08:34:28Z</time>
      </trkpt>
      <trkpt lat="42.022972" lon="1.6745352">
        <time>2022-07-09T08:34:30Z</time>
      </trkpt>
      <trkpt lat="42.02302" lon="1.6745352">
        <time>2022-07-09T08:34:31Z</time>
      </trkpt>
      <trkpt lat="42.02312" lon="1.6745228">
        <time>2022-07-09T08:34:33Z</time>
      </trkpt>
      <trkpt lat="42.023212" lon="1.6744992">
        <time>2022-07-09T08:34:35Z</time>
      </trkpt>
      <trkpt lat="42.02331" lon="1.6744615">
        <time>2022-07-09T08:34:37Z</time>
      </trkpt>
      <trkpt lat="42.023365" lon="1.6744415">
        <time>2022-07-09T08:34:38Z</time>
      </trkpt>
      <trkpt lat="42.02342" lon="1.6744255">
        <time>2022-07-09T08:34:39Z</time>
      </trkpt>
      <trkpt lat="42.023468" lon="1.6744168">
        <time>2022-07-09T08:34:40Z</time>
      </trkpt>
      <trkpt lat="42.023518" lon="1.6744121">
        <time>2022-07-09T08:34:41Z</time>
      </trkpt>
      <trkpt lat="42.023605" lon="1.6744227">
        <time>2022-07-09T08:34:43Z</time>
      </trkpt>
      <trkpt lat="42.023678" lon="1.6744498">
        <time>2022-07-09T08:34:45Z</time>
      </trkpt>
      <trkpt lat="42.023746" lon="1.6744905">
        <time>2022-07-09T08:34:47Z</time>
      </trkpt>
      <trkpt lat="42.023823" lon="1.6745335">
        <time>2022-07-09T08:34:49Z</time>
      </trkpt>
      <trkpt lat="42.0239" lon="1.6745828">
        <time>2022-07-09T08:34:51Z</time>
      </trkpt>
      <trkpt lat="42.023968" lon="1.6746324">
        <time>2022-07-09T08:34:53Z</time>
      </trkpt>
      <trkpt lat="42.02403" lon="1.6746718">
        <time>2022-07-09T08:34:55Z</time>
      </trkpt>
      <trkpt lat="42.024086" lon="1.6747054">
        <time>2022-07-09T08:34:57Z</time>
      </trkpt>
      <trkpt lat="42.02413" lon="1.6747288">
        <time>2022-07-09T08:34:59Z</time>
      </trkpt>
      <trkpt lat="42.02419" lon="1.6747451">
        <time>2022-07-09T08:35:01Z</time>
      </trkpt>
      <trkpt lat="42.02424" lon="1.6747638">
        <time>2022-07-09T08:35:03Z</time>
      </trkpt>
      <trkpt lat="42.024292" lon="1.6747811">
        <time>2022-07-09T08:35:05Z</time>
      </trkpt>
      <trkpt lat="42.024345" lon="1.6747937">
        <time>2022-07-09T08:35:07Z</time>
      </trkpt>
      <trkpt lat="42.0244" lon="1.674803">
        <time>2022-07-09T08:35:09Z</time>
      </trkpt>
      <trkpt lat="42.024452" lon="1.6748158">
        <time>2022-07-09T08:35:11Z</time>
      </trkpt>
      <trkpt lat="42.024506" lon="1.6748234">
        <time>2022-07-09T08:35:13Z</time>
      </trkpt>
      <trkpt lat="42.02458" lon="1.6748273">
        <time>2022-07-09T08:35:16Z</time>
      </trkpt>
      <trkpt lat="42.02463" lon="1.674829">
        <time>2022-07-09T08:35:18Z</time>
      </trkpt>
      <trkpt lat="42.02469" lon="1.6748317">
        <time>2022-07-09T08:35:20Z</time>
      </trkpt>
      <trkpt lat="42.02476" lon="1.6748397">
        <time>2022-07-09T08:35:23Z</time>
      </trkpt>
      <trkpt lat="42.024815" lon="1.6748648">
        <time>2022-07-09T08:35:25Z</time>
      </trkpt>
      <trkpt lat="42.024868" lon="1.6749007">
        <time>2022-07-09T08:35:27Z</time>
      </trkpt>
      <trkpt lat="42.024918" lon="1.6749383">
        <time>2022-07-09T08:35:29Z</time>
      </trkpt>
      <trkpt lat="42.02497" lon="1.6749754">
        <time>2022-07-09T08:35:31Z</time>
      </trkpt>
      <trkpt lat="42.02502" lon="1.6750124">
        <time>2022-07-09T08:35:33Z</time>
      </trkpt>
      <trkpt lat="42.025074" lon="1.67505">
        <time>2022-07-09T08:35:35Z</time>
      </trkpt>
      <trkpt lat="42.025124" lon="1.675092">
        <time>2022-07-09T08:35:37Z</time>
      </trkpt>
      <trkpt lat="42.025166" lon="1.6751347">
        <time>2022-07-09T08:35:39Z</time>
      </trkpt>
      <trkpt lat="42.025234" lon="1.6751827">
        <time>2022-07-09T08:35:42Z</time>
      </trkpt>
      <trkpt lat="42.02528" lon="1.6752107">
        <time>2022-07-09T08:35:44Z</time>
      </trkpt>
      <trkpt lat="42.02534" lon="1.6752553">
        <time>2022-07-09T08:35:47Z</time>
      </trkpt>
      <trkpt lat="42.02541" lon="1.675294">
        <time>2022-07-09T08:35:50Z</time>
      </trkpt>
      <trkpt lat="42.025467" lon="1.6753173">
        <time>2022-07-09T08:35:52Z</time>
      </trkpt>
      <trkpt lat="42.025524" lon="1.6753393">
        <time>2022-07-09T08:35:54Z</time>
      </trkpt>
      <trkpt lat="42.025578" lon="1.6753547">
        <time>2022-07-09T08:35:56Z</time>
      </trkpt>
      <trkpt lat="42.025635" lon="1.6753646">
        <time>2022-07-09T08:35:58Z</time>
      </trkpt>
      <trkpt lat="42.025696" lon="1.67537">
        <time>2022-07-09T08:36:00Z</time>
      </trkpt>
      <trkpt lat="42.02576" lon="1.6753807">
        <time>2022-07-09T08:36:02Z</time>
      </trkpt>
      <trkpt lat="42.025837" lon="1.6753983">
        <time>2022-07-09T08:36:04Z</time>
      </trkpt>
      <trkpt lat="42.025906" lon="1.6754106">
        <time>2022-07-09T08:36:06Z</time>
      </trkpt>
      <trkpt lat="42.025974" lon="1.6754233">
        <time>2022-07-09T08:36:08Z</time>
      </trkpt>
      <trkpt lat="42.02604" lon="1.675435">
        <time>2022-07-09T08:36:10Z</time>
      </trkpt>
      <trkpt lat="42.026104" lon="1.6754453">
        <time>2022-07-09T08:36:12Z</time>
      </trkpt>
      <trkpt lat="42.02617" lon="1.6754583">
        <time>2022-07-09T08:36:14Z</time>
      </trkpt>
      <trkpt lat="42.026237" lon="1.675473">
        <time>2022-07-09T08:36:16Z</time>
      </trkpt>
      <trkpt lat="42.026306" lon="1.6754982">
        <time>2022-07-09T08:36:18Z</time>
      </trkpt>
      <trkpt lat="42.026367" lon="1.6755422">
        <time>2022-07-09T08:36:20Z</time>
      </trkpt>
      <trkpt lat="42.026417" lon="1.6755983">
        <time>2022-07-09T08:36:22Z</time>
      </trkpt>
      <trkpt lat="42.02646" lon="1.675663">
        <time>2022-07-09T08:36:24Z</time>
      </trkpt>
      <trkpt lat="42.026493" lon="1.6757239">
        <time>2022-07-09T08:36:26Z</time>
      </trkpt>
      <trkpt lat="42.02653" lon="1.675779">
        <time>2022-07-09T08:36:28Z</time>
      </trkpt>
      <trkpt lat="42.02658" lon="1.6758397">
        <time>2022-07-09T08:36:31Z</time>
      </trkpt>
      <trkpt lat="42.026638" lon="1.6758896">
        <time>2022-07-09T08:36:34Z</time>
      </trkpt>
      <trkpt lat="42.026695" lon="1.675921">
        <time>2022-07-09T08:36:37Z</time>
      </trkpt>
      <trkpt lat="42.026764" lon="1.6759247">
        <time>2022-07-09T08:36:40Z</time>
      </trkpt>
      <trkpt lat="42.02684" lon="1.675929">
        <time>2022-07-09T08:36:43Z</time>
      </trkpt>
      <trkpt lat="42.026897" lon="1.6759353">
        <time>2022-07-09T08:36:45Z</time>
      </trkpt>
      <trkpt lat="42.02696" lon="1.6759453">
        <time>2022-07-09T08:36:47Z</time>
      </trkpt>
      <trkpt lat="42.02702" lon="1.6759542">
        <time>2022-07-09T08:36:49Z</time>
      </trkpt>
      <trkpt lat="42.02708" lon="1.6759616">
        <time>2022-07-09T08:36:51Z</time>
      </trkpt>
      <trkpt lat="42.027138" lon="1.6759719">
        <time>2022-07-09T08:36:53Z</time>
      </trkpt>
      <trkpt lat="42.027187" lon="1.6759835">
        <time>2022-07-09T08:36:55Z</time>
      </trkpt>
      <trkpt lat="42.027237" lon="1.6759946">
        <time>2022-07-09T08:36:57Z</time>
      </trkpt>
      <trkpt lat="42.027294" lon="1.6760006">
        <time>2022-07-09T08:37:00Z</time>
      </trkpt>
      <trkpt lat="42.02735" lon="1.6759915">
        <time>2022-07-09T08:37:03Z</time>
      </trkpt>
      <trkpt lat="42.027412" lon="1.6759815">
        <time>2022-07-09T08:37:06Z</time>
      </trkpt>
      <trkpt lat="42.027473" lon="1.6759763">
        <time>2022-07-09T08:37:09Z</time>
      </trkpt>
      <trkpt lat="42.02754" lon="1.6759766">
        <time>2022-07-09T08:37:12Z</time>
      </trkpt>
      <trkpt lat="42.02761" lon="1.6759742">
        <time>2022-07-09T08:37:15Z</time>
      </trkpt>
      <trkpt lat="42.027676" lon="1.675967">
        <time>2022-07-09T08:37:18Z</time>
      </trkpt>
      <trkpt lat="42.02774" lon="1.675952">
        <time>2022-07-09T08:37:21Z</time>
      </trkpt>
      <trkpt lat="42.02779" lon="1.6759449">
        <time>2022-07-09T08:37:24Z</time>
      </trkpt>
      <trkpt lat="42.02786" lon="1.6759462">
        <time>2022-07-09T08:37:27Z</time>
      </trkpt>
      <trkpt lat="42.027905" lon="1.6759442">
        <time>2022-07-09T08:37:29Z</time>
      </trkpt>
      <trkpt lat="42.028008" lon="1.6759466">
        <time>2022-07-09T08:37:33Z</time>
      </trkpt>
      <trkpt lat="42.028057" lon="1.6759635">
        <time>2022-07-09T08:37:35Z</time>
      </trkpt>
      <trkpt lat="42.028122" lon="1.6759949">
        <time>2022-07-09T08:37:38Z</time>
      </trkpt>
      <trkpt lat="42.02817" lon="1.6760355">
        <time>2022-07-09T08:37:41Z</time>
      </trkpt>
      <trkpt lat="42.028225" lon="1.6760845">
        <time>2022-07-09T08:37:44Z</time>
      </trkpt>
      <trkpt lat="42.02828" lon="1.6761459">
        <time>2022-07-09T08:37:47Z</time>
      </trkpt>
      <trkpt lat="42.028328" lon="1.6762046">
        <time>2022-07-09T08:37:50Z</time>
      </trkpt>
      <trkpt lat="42.028378" lon="1.6762565">
        <time>2022-07-09T08:37:53Z</time>
      </trkpt>
      <trkpt lat="42.02843" lon="1.6763072">
        <time>2022-07-09T08:37:56Z</time>
      </trkpt>
      <trkpt lat="42.02848" lon="1.6763602">
        <time>2022-07-09T08:37:59Z</time>
      </trkpt>
      <trkpt lat="42.028534" lon="1.6764212">
        <time>2022-07-09T08:38:02Z</time>
      </trkpt>
      <trkpt lat="42.028595" lon="1.6764879">
        <time>2022-07-09T08:38:05Z</time>
      </trkpt>
      <trkpt lat="42.028633" lon="1.6765403">
        <time>2022-07-09T08:38:07Z</time>
      </trkpt>
      <trkpt lat="42.028675" lon="1.6765882">
        <time>2022-07-09T08:38:09Z</time>
      </trkpt>
      <trkpt lat="42.028713" lon="1.6766322">
        <time>2022-07-09T08:38:11Z</time>
      </trkpt>
      <trkpt lat="42.028755" lon="1.6766765">
        <time>2022-07-09T08:38:13Z</time>
      </trkpt>
      <trkpt lat="42.0288" lon="1.6767272">
        <time>2022-07-09T08:38:15Z</time>
      </trkpt>
      <trkpt lat="42.02885" lon="1.6767802">
        <time>2022-07-09T08:38:17Z</time>
      </trkpt>
      <trkpt lat="42.028896" lon="1.6768275">
        <time>2022-07-09T08:38:19Z</time>
      </trkpt>
      <trkpt lat="42.028946" lon="1.6768749">
        <time>2022-07-09T08:38:21Z</time>
      </trkpt>
      <trkpt lat="42.02899" lon="1.6769239">
        <time>2022-07-09T08:38:23Z</time>
      </trkpt>
      <trkpt lat="42.029037" lon="1.6769745">
        <time>2022-07-09T08:38:25Z</time>
      </trkpt>
      <trkpt lat="42.02908" lon="1.6770272">
        <time>2022-07-09T08:38:27Z</time>
      </trkpt>
      <trkpt lat="42.029125" lon="1.6770792">
        <time>2022-07-09T08:38:29Z</time>
      </trkpt>
      <trkpt lat="42.029167" lon="1.6771321">
        <time>2022-07-09T08:38:31Z</time>
      </trkpt>
      <trkpt lat="42.02921" lon="1.6771826">
        <time>2022-07-09T08:38:33Z</time>
      </trkpt>
      <trkpt lat="42.029274" lon="1.6772555">
        <time>2022-07-09T08:38:36Z</time>
      </trkpt>
      <trkpt lat="42.02932" lon="1.6773052">
        <time>2022-07-09T08:38:38Z</time>
      </trkpt>
      <trkpt lat="42.02936" lon="1.6773528">
        <time>2022-07-09T08:38:40Z</time>
      </trkpt>
      <trkpt lat="42.0294" lon="1.6773982">
        <time>2022-07-09T08:38:42Z</time>
      </trkpt>
      <trkpt lat="42.029438" lon="1.6774455">
        <time>2022-07-09T08:38:44Z</time>
      </trkpt>
      <trkpt lat="42.029476" lon="1.6774938">
        <time>2022-07-09T08:38:46Z</time>
      </trkpt>
      <trkpt lat="42.029522" lon="1.6775402">
        <time>2022-07-09T08:38:48Z</time>
      </trkpt>
      <trkpt lat="42.029564" lon="1.6775851">
        <time>2022-07-09T08:38:50Z</time>
      </trkpt>
      <trkpt lat="42.029606" lon="1.6776365">
        <time>2022-07-09T08:38:52Z</time>
      </trkpt>
      <trkpt lat="42.029644" lon="1.6776878">
        <time>2022-07-09T08:38:54Z</time>
      </trkpt>
      <trkpt lat="42.029682" lon="1.6777351">
        <time>2022-07-09T08:38:56Z</time>
      </trkpt>
      <trkpt lat="42.02972" lon="1.6777818">
        <time>2022-07-09T08:38:58Z</time>
      </trkpt>
      <trkpt lat="42.02976" lon="1.6778281">
        <time>2022-07-09T08:39:00Z</time>
      </trkpt>
      <trkpt lat="42.029816" lon="1.6778991">
        <time>2022-07-09T08:39:03Z</time>
      </trkpt>
      <trkpt lat="42.029858" lon="1.6779457">
        <time>2022-07-09T08:39:05Z</time>
      </trkpt>
      <trkpt lat="42.0299" lon="1.6779921">
        <time>2022-07-09T08:39:07Z</time>
      </trkpt>
      <trkpt lat="42.029938" lon="1.6780365">
        <time>2022-07-09T08:39:09Z</time>
      </trkpt>
      <trkpt lat="42.02998" lon="1.6780788">
        <time>2022-07-09T08:39:11Z</time>
      </trkpt>
      <trkpt lat="42.03002" lon="1.6781231">
        <time>2022-07-09T08:39:13Z</time>
      </trkpt>
      <trkpt lat="42.030083" lon="1.6781728">
        <time>2022-07-09T08:39:16Z</time>
      </trkpt>
      <trkpt lat="42.03014" lon="1.6781951">
        <time>2022-07-09T08:39:18Z</time>
      </trkpt>
      <trkpt lat="42.030197" lon="1.6782037">
        <time>2022-07-09T08:39:20Z</time>
      </trkpt>
      <trkpt lat="42.03025" lon="1.6782024">
        <time>2022-07-09T08:39:22Z</time>
      </trkpt>
      <trkpt lat="42.0303" lon="1.6781934">
        <time>2022-07-09T08:39:24Z</time>
      </trkpt>
      <trkpt lat="42.030354" lon="1.6781712">
        <time>2022-07-09T08:39:26Z</time>
      </trkpt>
      <trkpt lat="42.030426" lon="1.6781194">
        <time>2022-07-09T08:39:29Z</time>
      </trkpt>
      <trkpt lat="42.03047" lon="1.6780758">
        <time>2022-07-09T08:39:31Z</time>
      </trkpt>
      <trkpt lat="42.03051" lon="1.6780268">
        <time>2022-07-09T08:39:33Z</time>
      </trkpt>
      <trkpt lat="42.030552" lon="1.6779771">
        <time>2022-07-09T08:39:35Z</time>
      </trkpt>
      <trkpt lat="42.030598" lon="1.6779358">
        <time>2022-07-09T08:39:37Z</time>
      </trkpt>
      <trkpt lat="42.030647" lon="1.6779088">
        <time>2022-07-09T08:39:39Z</time>
      </trkpt>
      <trkpt lat="42.030697" lon="1.6778798">
        <time>2022-07-09T08:39:41Z</time>
      </trkpt>
      <trkpt lat="42.030743" lon="1.6778518">
        <time>2022-07-09T08:39:43Z</time>
      </trkpt>
      <trkpt lat="42.030792" lon="1.6778275">
        <time>2022-07-09T08:39:45Z</time>
      </trkpt>
      <trkpt lat="42.030857" lon="1.6777802">
        <time>2022-07-09T08:39:48Z</time>
      </trkpt>
      <trkpt lat="42.030903" lon="1.6777571">
        <time>2022-07-09T08:39:50Z</time>
      </trkpt>
      <trkpt lat="42.03099" lon="1.6777445">
        <time>2022-07-09T08:39:53Z</time>
      </trkpt>
      <trkpt lat="42.031055" lon="1.6777405">
        <time>2022-07-09T08:39:55Z</time>
      </trkpt>
      <trkpt lat="42.03112" lon="1.6777334">
        <time>2022-07-09T08:39:57Z</time>
      </trkpt>
      <trkpt lat="42.031174" lon="1.6777191">
        <time>2022-07-09T08:39:59Z</time>
      </trkpt>
      <trkpt lat="42.031227" lon="1.6776935">
        <time>2022-07-09T08:40:01Z</time>
      </trkpt>
      <trkpt lat="42.031277" lon="1.6776592">
        <time>2022-07-09T08:40:03Z</time>
      </trkpt>
      <trkpt lat="42.031334" lon="1.6776224">
        <time>2022-07-09T08:40:05Z</time>
      </trkpt>
      <trkpt lat="42.03139" lon="1.6775849">
        <time>2022-07-09T08:40:07Z</time>
      </trkpt>
      <trkpt lat="42.03145" lon="1.6775441">
        <time>2022-07-09T08:40:09Z</time>
      </trkpt>
      <trkpt lat="42.0315" lon="1.6774905">
        <time>2022-07-09T08:40:11Z</time>
      </trkpt>
      <trkpt lat="42.031555" lon="1.6774242">
        <time>2022-07-09T08:40:13Z</time>
      </trkpt>
      <trkpt lat="42.03161" lon="1.6773512">
        <time>2022-07-09T08:40:15Z</time>
      </trkpt>
      <trkpt lat="42.031662" lon="1.6772828">
        <time>2022-07-09T08:40:17Z</time>
      </trkpt>
      <trkpt lat="42.03173" lon="1.6772245">
        <time>2022-07-09T08:40:19Z</time>
      </trkpt>
      <trkpt lat="42.0318" lon="1.6771759">
        <time>2022-07-09T08:40:21Z</time>
      </trkpt>
      <trkpt lat="42.031876" lon="1.6771486">
        <time>2022-07-09T08:40:23Z</time>
      </trkpt>
      <trkpt lat="42.031956" lon="1.6771415">
        <time>2022-07-09T08:40:25Z</time>
      </trkpt>
      <trkpt lat="42.032036" lon="1.6771502">
        <time>2022-07-09T08:40:27Z</time>
      </trkpt>
      <trkpt lat="42.03211" lon="1.6771622">
        <time>2022-07-09T08:40:29Z</time>
      </trkpt>
      <trkpt lat="42.032173" lon="1.6771859">
        <time>2022-07-09T08:40:31Z</time>
      </trkpt>
      <trkpt lat="42.032234" lon="1.6772078">
        <time>2022-07-09T08:40:33Z</time>
      </trkpt>
      <trkpt lat="42.032295" lon="1.6772228">
        <time>2022-07-09T08:40:35Z</time>
      </trkpt>
      <trkpt lat="42.03236" lon="1.6772305">
        <time>2022-07-09T08:40:37Z</time>
      </trkpt>
      <trkpt lat="42.03243" lon="1.6772312">
        <time>2022-07-09T08:40:39Z</time>
      </trkpt>
      <trkpt lat="42.03253" lon="1.6772188">
        <time>2022-07-09T08:40:42Z</time>
      </trkpt>
      <trkpt lat="42.0326" lon="1.6772095">
        <time>2022-07-09T08:40:44Z</time>
      </trkpt>
      <trkpt lat="42.032673" lon="1.6772048">
        <time>2022-07-09T08:40:46Z</time>
      </trkpt>
      <trkpt lat="42.032745" lon="1.6772106">
        <time>2022-07-09T08:40:48Z</time>
      </trkpt>
      <trkpt lat="42.03282" lon="1.6772242">
        <time>2022-07-09T08:40:50Z</time>
      </trkpt>
      <trkpt lat="42.032894" lon="1.6772479">
        <time>2022-07-09T08:40:52Z</time>
      </trkpt>
      <trkpt lat="42.03296" lon="1.6772928">
        <time>2022-07-09T08:40:54Z</time>
      </trkpt>
      <trkpt lat="42.03301" lon="1.6773568">
        <time>2022-07-09T08:40:56Z</time>
      </trkpt>
      <trkpt lat="42.03304" lon="1.6774338">
        <time>2022-07-09T08:40:58Z</time>
      </trkpt>
      <trkpt lat="42.033043" lon="1.6775215">
        <time>2022-07-09T08:41:00Z</time>
      </trkpt>
      <trkpt lat="42.033043" lon="1.6775995">
        <time>2022-07-09T08:41:02Z</time>
      </trkpt>
      <trkpt lat="42.03303" lon="1.6776748">
        <time>2022-07-09T08:41:04Z</time>
      </trkpt>
      <trkpt lat="42.033012" lon="1.6777514">
        <time>2022-07-09T08:41:06Z</time>
      </trkpt>
      <trkpt lat="42.032997" lon="1.6778212">
        <time>2022-07-09T08:41:08Z</time>
      </trkpt>
      <trkpt lat="42.032978" lon="1.6778865">
        <time>2022-07-09T08:41:10Z</time>
      </trkpt>
      <trkpt lat="42.032955" lon="1.6779785">
        <time>2022-07-09T08:41:13Z</time>
      </trkpt>
      <trkpt lat="42.03293" lon="1.6780702">
        <time>2022-07-09T08:41:16Z</time>
      </trkpt>
      <trkpt lat="42.032906" lon="1.6781604">
        <time>2022-07-09T08:41:19Z</time>
      </trkpt>
      <trkpt lat="42.03289" lon="1.6782454">
        <time>2022-07-09T08:41:22Z</time>
      </trkpt>
      <trkpt lat="42.032867" lon="1.6783168">
        <time>2022-07-09T08:41:25Z</time>
      </trkpt>
      <trkpt lat="42.032852" lon="1.6783588">
        <time>2022-07-09T08:41:29Z</time>
      </trkpt>
      <trkpt lat="42.032833" lon="1.6785328">
        <time>2022-07-09T08:46:43Z</time>
      </trkpt>
      <trkpt lat="42.032806" lon="1.6786118">
        <time>2022-07-09T08:46:47Z</time>
      </trkpt>
      <trkpt lat="42.03279" lon="1.6786838">
        <time>2022-07-09T08:46:50Z</time>
      </trkpt>
      <trkpt lat="42.03278" lon="1.6787628">
        <time>2022-07-09T08:46:53Z</time>
      </trkpt>
      <trkpt lat="42.03278" lon="1.6788378">
        <time>2022-07-09T08:46:56Z</time>
      </trkpt>
      <trkpt lat="42.032784" lon="1.6789148">
        <time>2022-07-09T08:46:59Z</time>
      </trkpt>
      <trkpt lat="42.032803" lon="1.6789972">
        <time>2022-07-09T08:47:02Z</time>
      </trkpt>
      <trkpt lat="42.03284" lon="1.6790718">
        <time>2022-07-09T08:47:05Z</time>
      </trkpt>
      <trkpt lat="42.03289" lon="1.6791378">
        <time>2022-07-09T08:47:08Z</time>
      </trkpt>
      <trkpt lat="42.032944" lon="1.6792004">
        <time>2022-07-09T08:47:11Z</time>
      </trkpt>
      <trkpt lat="42.032997" lon="1.6792551">
        <time>2022-07-09T08:47:14Z</time>
      </trkpt>
      <trkpt lat="42.03305" lon="1.6793061">
        <time>2022-07-09T08:47:17Z</time>
      </trkpt>
      <trkpt lat="42.033108" lon="1.6793561">
        <time>2022-07-09T08:47:20Z</time>
      </trkpt>
      <trkpt lat="42.03316" lon="1.6794021">
        <time>2022-07-09T08:47:23Z</time>
      </trkpt>
      <trkpt lat="42.033215" lon="1.6794474">
        <time>2022-07-09T08:47:26Z</time>
      </trkpt>
      <trkpt lat="42.033264" lon="1.6794947">
        <time>2022-07-09T08:47:29Z</time>
      </trkpt>
      <trkpt lat="42.033318" lon="1.6795465">
        <time>2022-07-09T08:47:32Z</time>
      </trkpt>
      <trkpt lat="42.033363" lon="1.679599">
        <time>2022-07-09T08:47:35Z</time>
      </trkpt>
      <trkpt lat="42.033405" lon="1.6796627">
        <time>2022-07-09T08:47:38Z</time>
      </trkpt>
      <trkpt lat="42.033432" lon="1.6797334">
        <time>2022-07-09T08:47:41Z</time>
      </trkpt>
      <trkpt lat="42.033455" lon="1.679816">
        <time>2022-07-09T08:47:44Z</time>
      </trkpt>
      <trkpt lat="42.033463" lon="1.679901">
        <time>2022-07-09T08:47:47Z</time>
      </trkpt>
      <trkpt lat="42.03346" lon="1.6799847">
        <time>2022-07-09T08:47:50Z</time>
      </trkpt>
      <trkpt lat="42.033455" lon="1.6800667">
        <time>2022-07-09T08:47:53Z</time>
      </trkpt>
      <trkpt lat="42.033447" lon="1.6801513">
        <time>2022-07-09T08:47:56Z</time>
      </trkpt>
      <trkpt lat="42.033424" lon="1.6802247">
        <time>2022-07-09T08:47:59Z</time>
      </trkpt>
      <trkpt lat="42.033398" lon="1.6802987">
        <time>2022-07-09T08:48:02Z</time>
      </trkpt>
      <trkpt lat="42.033382" lon="1.6803814">
        <time>2022-07-09T08:48:05Z</time>
      </trkpt>
      <trkpt lat="42.033367" lon="1.6804587">
        <time>2022-07-09T08:48:08Z</time>
      </trkpt>
      <trkpt lat="42.033344" lon="1.680534">
        <time>2022-07-09T08:48:11Z</time>
      </trkpt>
      <trkpt lat="42.033325" lon="1.6806173">
        <time>2022-07-09T08:48:14Z</time>
      </trkpt>
      <trkpt lat="42.033314" lon="1.6807023">
        <time>2022-07-09T08:48:17Z</time>
      </trkpt>
      <trkpt lat="42.0333" lon="1.6807823">
        <time>2022-07-09T08:48:20Z</time>
      </trkpt>
      <trkpt lat="42.033287" lon="1.6808667">
        <time>2022-07-09T08:48:23Z</time>
      </trkpt>
      <trkpt lat="42.033283" lon="1.6809634">
        <time>2022-07-09T08:48:26Z</time>
      </trkpt>
      <trkpt lat="42.033264" lon="1.6810551">
        <time>2022-07-09T08:48:29Z</time>
      </trkpt>
      <trkpt lat="42.03324" lon="1.6811436">
        <time>2022-07-09T08:48:32Z</time>
      </trkpt>
      <trkpt lat="42.033222" lon="1.6812327">
        <time>2022-07-09T08:48:35Z</time>
      </trkpt>
      <trkpt lat="42.033215" lon="1.6813177">
        <time>2022-07-09T08:48:38Z</time>
      </trkpt>
      <trkpt lat="42.03321" lon="1.681404">
        <time>2022-07-09T08:48:41Z</time>
      </trkpt>
      <trkpt lat="42.03321" lon="1.6814843">
        <time>2022-07-09T08:48:44Z</time>
      </trkpt>
      <trkpt lat="42.03322" lon="1.6815723">
        <time>2022-07-09T08:48:47Z</time>
      </trkpt>
      <trkpt lat="42.033226" lon="1.6816614">
        <time>2022-07-09T08:48:50Z</time>
      </trkpt>
      <trkpt lat="42.03324" lon="1.6817447">
        <time>2022-07-09T08:48:53Z</time>
      </trkpt>
      <trkpt lat="42.033264" lon="1.6818267">
        <time>2022-07-09T08:48:56Z</time>
      </trkpt>
      <trkpt lat="42.033287" lon="1.6819026">
        <time>2022-07-09T08:48:59Z</time>
      </trkpt>
      <trkpt lat="42.03331" lon="1.681981">
        <time>2022-07-09T08:49:02Z</time>
      </trkpt>
      <trkpt lat="42.033325" lon="1.6820604">
        <time>2022-07-09T08:49:05Z</time>
      </trkpt>
      <trkpt lat="42.033344" lon="1.6821374">
        <time>2022-07-09T08:49:08Z</time>
      </trkpt>
      <trkpt lat="42.033367" lon="1.6822146">
        <time>2022-07-09T08:49:11Z</time>
      </trkpt>
      <trkpt lat="42.033394" lon="1.682289">
        <time>2022-07-09T08:49:14Z</time>
      </trkpt>
      <trkpt lat="42.033424" lon="1.6823646">
        <time>2022-07-09T08:49:17Z</time>
      </trkpt>
      <trkpt lat="42.033455" lon="1.6824399">
        <time>2022-07-09T08:49:20Z</time>
      </trkpt>
      <trkpt lat="42.03349" lon="1.6825153">
        <time>2022-07-09T08:49:23Z</time>
      </trkpt>
      <trkpt lat="42.033516" lon="1.6825936">
        <time>2022-07-09T08:49:26Z</time>
      </trkpt>
      <trkpt lat="42.033535" lon="1.6826743">
        <time>2022-07-09T08:49:29Z</time>
      </trkpt>
      <trkpt lat="42.03355" lon="1.682756">
        <time>2022-07-09T08:49:32Z</time>
      </trkpt>
      <trkpt lat="42.033566" lon="1.6828372">
        <time>2022-07-09T08:49:35Z</time>
      </trkpt>
      <trkpt lat="42.03359" lon="1.6829106">
        <time>2022-07-09T08:49:38Z</time>
      </trkpt>
      <trkpt lat="42.033604" lon="1.6829766">
        <time>2022-07-09T08:49:41Z</time>
      </trkpt>
      <trkpt lat="42.03361" lon="1.6830612">
        <time>2022-07-09T08:49:45Z</time>
      </trkpt>
      <trkpt lat="42.03362" lon="1.6831262">
        <time>2022-07-09T08:49:48Z</time>
      </trkpt>
      <trkpt lat="42.03363" lon="1.6832156">
        <time>2022-07-09T08:49:52Z</time>
      </trkpt>
      <trkpt lat="42.03364" lon="1.6832839">
        <time>2022-07-09T08:49:55Z</time>
      </trkpt>
      <trkpt lat="42.03366" lon="1.683373">
        <time>2022-07-09T08:49:59Z</time>
      </trkpt>
      <trkpt lat="42.03368" lon="1.6834385">
        <time>2022-07-09T08:50:02Z</time>
      </trkpt>
      <trkpt lat="42.033695" lon="1.6835059">
        <time>2022-07-09T08:50:05Z</time>
      </trkpt>
      <trkpt lat="42.033703" lon="1.6835773">
        <time>2022-07-09T08:50:08Z</time>
      </trkpt>
      <trkpt lat="42.03371" lon="1.6836452">
        <time>2022-07-09T08:50:11Z</time>
      </trkpt>
      <trkpt lat="42.033726" lon="1.6837353">
        <time>2022-07-09T08:50:15Z</time>
      </trkpt>
      <trkpt lat="42.033733" lon="1.683806">
        <time>2022-07-09T08:50:18Z</time>
      </trkpt>
      <trkpt lat="42.033737" lon="1.6838802">
        <time>2022-07-09T08:50:21Z</time>
      </trkpt>
      <trkpt lat="42.033733" lon="1.6839563">
        <time>2022-07-09T08:50:24Z</time>
      </trkpt>
      <trkpt lat="42.033722" lon="1.6840246">
        <time>2022-07-09T08:50:27Z</time>
      </trkpt>
      <trkpt lat="42.033703" lon="1.684094">
        <time>2022-07-09T08:50:30Z</time>
      </trkpt>
      <trkpt lat="42.033684" lon="1.6841626">
        <time>2022-07-09T08:50:33Z</time>
      </trkpt>
      <trkpt lat="42.03366" lon="1.6842309">
        <time>2022-07-09T08:50:36Z</time>
      </trkpt>
      <trkpt lat="42.033634" lon="1.6842949">
        <time>2022-07-09T08:50:39Z</time>
      </trkpt>
      <trkpt lat="42.033607" lon="1.6843642">
        <time>2022-07-09T08:50:42Z</time>
      </trkpt>
      <trkpt lat="42.03357" lon="1.6844279">
        <time>2022-07-09T08:50:45Z</time>
      </trkpt>
      <trkpt lat="42.03352" lon="1.6844792">
        <time>2022-07-09T08:50:48Z</time>
      </trkpt>
      <trkpt lat="42.03347" lon="1.6845205">
        <time>2022-07-09T08:50:51Z</time>
      </trkpt>
      <trkpt lat="42.033417" lon="1.6845531">
        <time>2022-07-09T08:50:54Z</time>
      </trkpt>
      <trkpt lat="42.03336" lon="1.6845772">
        <time>2022-07-09T08:50:57Z</time>
      </trkpt>
      <trkpt lat="42.0333" lon="1.6845939">
        <time>2022-07-09T08:51:00Z</time>
      </trkpt>
      <trkpt lat="42.033234" lon="1.6846102">
        <time>2022-07-09T08:51:03Z</time>
      </trkpt>
      <trkpt lat="42.033176" lon="1.6846305">
        <time>2022-07-09T08:51:06Z</time>
      </trkpt>
      <trkpt lat="42.03311" lon="1.6846461">
        <time>2022-07-09T08:51:09Z</time>
      </trkpt>
      <trkpt lat="42.033062" lon="1.6846678">
        <time>2022-07-09T08:51:12Z</time>
      </trkpt>
      <trkpt lat="42.033005" lon="1.6846871">
        <time>2022-07-09T08:51:15Z</time>
      </trkpt>
      <trkpt lat="42.032948" lon="1.6847092">
        <time>2022-07-09T08:51:18Z</time>
      </trkpt>
      <trkpt lat="42.032887" lon="1.6847292">
        <time>2022-07-09T08:51:21Z</time>
      </trkpt>
      <trkpt lat="42.03283" lon="1.6847491">
        <time>2022-07-09T08:51:24Z</time>
      </trkpt>
      <trkpt lat="42.03277" lon="1.6847718">
        <time>2022-07-09T08:51:27Z</time>
      </trkpt>
      <trkpt lat="42.03271" lon="1.6847864">
        <time>2022-07-09T08:51:30Z</time>
      </trkpt>
      <trkpt lat="42.032654" lon="1.6848122">
        <time>2022-07-09T08:51:33Z</time>
      </trkpt>
      <trkpt lat="42.0326" lon="1.6848458">
        <time>2022-07-09T08:51:36Z</time>
      </trkpt>
      <trkpt lat="42.03255" lon="1.6848872">
        <time>2022-07-09T08:51:39Z</time>
      </trkpt>
      <trkpt lat="42.032513" lon="1.6849395">
        <time>2022-07-09T08:51:42Z</time>
      </trkpt>
      <trkpt lat="42.03248" lon="1.6849988">
        <time>2022-07-09T08:51:45Z</time>
      </trkpt>
      <trkpt lat="42.032455" lon="1.6850752">
        <time>2022-07-09T08:51:48Z</time>
      </trkpt>
      <trkpt lat="42.03244" lon="1.6851555">
        <time>2022-07-09T08:51:51Z</time>
      </trkpt>
      <trkpt lat="42.03243" lon="1.6852365">
        <time>2022-07-09T08:51:54Z</time>
      </trkpt>
      <trkpt lat="42.032417" lon="1.6853164">
        <time>2022-07-09T08:51:57Z</time>
      </trkpt>
      <trkpt lat="42.032406" lon="1.6854005">
        <time>2022-07-09T08:52:00Z</time>
      </trkpt>
      <trkpt lat="42.03239" lon="1.6854814">
        <time>2022-07-09T08:52:03Z</time>
      </trkpt>
      <trkpt lat="42.03238" lon="1.6855658">
        <time>2022-07-09T08:52:06Z</time>
      </trkpt>
      <trkpt lat="42.032368" lon="1.6856471">
        <time>2022-07-09T08:52:09Z</time>
      </trkpt>
      <trkpt lat="42.03236" lon="1.6857264">
        <time>2022-07-09T08:52:12Z</time>
      </trkpt>
      <trkpt lat="42.032352" lon="1.6858112">
        <time>2022-07-09T08:52:15Z</time>
      </trkpt>
      <trkpt lat="42.03234" lon="1.6858951">
        <time>2022-07-09T08:52:18Z</time>
      </trkpt>
      <trkpt lat="42.032326" lon="1.6859828">
        <time>2022-07-09T08:52:21Z</time>
      </trkpt>
      <trkpt lat="42.032307" lon="1.6860662">
        <time>2022-07-09T08:52:24Z</time>
      </trkpt>
      <trkpt lat="42.032284" lon="1.6861434">
        <time>2022-07-09T08:52:27Z</time>
      </trkpt>
      <trkpt lat="42.032272" lon="1.6862248">
        <time>2022-07-09T08:52:30Z</time>
      </trkpt>
      <trkpt lat="42.032265" lon="1.6863058">
        <time>2022-07-09T08:52:33Z</time>
      </trkpt>
      <trkpt lat="42.032257" lon="1.6863874">
        <time>2022-07-09T08:52:36Z</time>
      </trkpt>
      <trkpt lat="42.03225" lon="1.686467">
        <time>2022-07-09T08:52:39Z</time>
      </trkpt>
      <trkpt lat="42.03224" lon="1.6865481">
        <time>2022-07-09T08:52:42Z</time>
      </trkpt>
      <trkpt lat="42.032234" lon="1.6866264">
        <time>2022-07-09T08:52:45Z</time>
      </trkpt>
      <trkpt lat="42.032223" lon="1.6867024">
        <time>2022-07-09T08:52:48Z</time>
      </trkpt>
      <trkpt lat="42.03221" lon="1.6867818">
        <time>2022-07-09T08:52:51Z</time>
      </trkpt>
      <trkpt lat="42.032196" lon="1.6868577">
        <time>2022-07-09T08:52:54Z</time>
      </trkpt>
      <trkpt lat="42.032173" lon="1.6869334">
        <time>2022-07-09T08:52:57Z</time>
      </trkpt>
      <trkpt lat="42.03215" lon="1.6870078">
        <time>2022-07-09T08:53:00Z</time>
      </trkpt>
      <trkpt lat="42.032124" lon="1.6870834">
        <time>2022-07-09T08:53:03Z</time>
      </trkpt>
      <trkpt lat="42.03209" lon="1.6871527">
        <time>2022-07-09T08:53:06Z</time>
      </trkpt>
      <trkpt lat="42.03205" lon="1.6872153">
        <time>2022-07-09T08:53:09Z</time>
      </trkpt>
      <trkpt lat="42.03201" lon="1.6872774">
        <time>2022-07-09T08:53:12Z</time>
      </trkpt>
      <trkpt lat="42.031967" lon="1.687338">
        <time>2022-07-09T08:53:15Z</time>
      </trkpt>
      <trkpt lat="42.031925" lon="1.6874007">
        <time>2022-07-09T08:53:18Z</time>
      </trkpt>
      <trkpt lat="42.031887" lon="1.6874653">
        <time>2022-07-09T08:53:21Z</time>
      </trkpt>
      <trkpt lat="42.03185" lon="1.687534">
        <time>2022-07-09T08:53:24Z</time>
      </trkpt>
      <trkpt lat="42.03181" lon="1.687596">
        <time>2022-07-09T08:53:27Z</time>
      </trkpt>
      <trkpt lat="42.031773" lon="1.6876577">
        <time>2022-07-09T08:53:30Z</time>
      </trkpt>
      <trkpt lat="42.03174" lon="1.6877207">
        <time>2022-07-09T08:53:33Z</time>
      </trkpt>
      <trkpt lat="42.031704" lon="1.6877906">
        <time>2022-07-09T08:53:36Z</time>
      </trkpt>
      <trkpt lat="42.031666" lon="1.6878641">
        <time>2022-07-09T08:53:39Z</time>
      </trkpt>
      <trkpt lat="42.03163" lon="1.687953">
        <time>2022-07-09T08:53:42Z</time>
      </trkpt>
      <trkpt lat="42.03161" lon="1.6880203">
        <time>2022-07-09T08:53:44Z</time>
      </trkpt>
      <trkpt lat="42.031586" lon="1.6880894">
        <time>2022-07-09T08:53:46Z</time>
      </trkpt>
      <trkpt lat="42.031563" lon="1.688159">
        <time>2022-07-09T08:53:48Z</time>
      </trkpt>
      <trkpt lat="42.03154" lon="1.688233">
        <time>2022-07-09T08:53:50Z</time>
      </trkpt>
      <trkpt lat="42.031517" lon="1.6883084">
        <time>2022-07-09T08:53:52Z</time>
      </trkpt>
      <trkpt lat="42.031494" lon="1.6883863">
        <time>2022-07-09T08:53:54Z</time>
      </trkpt>
      <trkpt lat="42.03147" lon="1.6884643">
        <time>2022-07-09T08:53:56Z</time>
      </trkpt>
      <trkpt lat="42.031452" lon="1.688538">
        <time>2022-07-09T08:53:58Z</time>
      </trkpt>
      <trkpt lat="42.03143" lon="1.6886173">
        <time>2022-07-09T08:54:00Z</time>
      </trkpt>
      <trkpt lat="42.031406" lon="1.6886936">
        <time>2022-07-09T08:54:02Z</time>
      </trkpt>
      <trkpt lat="42.031387" lon="1.688766">
        <time>2022-07-09T08:54:04Z</time>
      </trkpt>
      <trkpt lat="42.031364" lon="1.6888419">
        <time>2022-07-09T08:54:06Z</time>
      </trkpt>
      <trkpt lat="42.03135" lon="1.6889147">
        <time>2022-07-09T08:54:08Z</time>
      </trkpt>
      <trkpt lat="42.03133" lon="1.6889813">
        <time>2022-07-09T08:54:10Z</time>
      </trkpt>
      <trkpt lat="42.031315" lon="1.689047">
        <time>2022-07-09T08:54:12Z</time>
      </trkpt>
      <trkpt lat="42.031296" lon="1.6891123">
        <time>2022-07-09T08:54:14Z</time>
      </trkpt>
      <trkpt lat="42.03127" lon="1.689207">
        <time>2022-07-09T08:54:17Z</time>
      </trkpt>
      <trkpt lat="42.031246" lon="1.6892693">
        <time>2022-07-09T08:54:19Z</time>
      </trkpt>
      <trkpt lat="42.03121" lon="1.6893606">
        <time>2022-07-09T08:54:22Z</time>
      </trkpt>
      <trkpt lat="42.03119" lon="1.689418">
        <time>2022-07-09T08:54:24Z</time>
      </trkpt>
      <trkpt lat="42.031143" lon="1.6894956">
        <time>2022-07-09T08:54:27Z</time>
      </trkpt>
      <trkpt lat="42.031097" lon="1.6895692">
        <time>2022-07-09T08:54:30Z</time>
      </trkpt>
      <trkpt lat="42.03106" lon="1.6896106">
        <time>2022-07-09T08:54:32Z</time>
      </trkpt>
      <trkpt lat="42.031006" lon="1.6896616">
        <time>2022-07-09T08:54:35Z</time>
      </trkpt>
      <trkpt lat="42.030945" lon="1.6897086">
        <time>2022-07-09T08:54:38Z</time>
      </trkpt>
      <trkpt lat="42.030903" lon="1.6897355">
        <time>2022-07-09T08:54:40Z</time>
      </trkpt>
      <trkpt lat="42.03084" lon="1.6897663">
        <time>2022-07-09T08:54:43Z</time>
      </trkpt>
      <trkpt lat="42.030754" lon="1.6897956">
        <time>2022-07-09T08:54:47Z</time>
      </trkpt>
      <trkpt lat="42.030685" lon="1.6898153">
        <time>2022-07-09T08:54:50Z</time>
      </trkpt>
      <trkpt lat="42.03062" lon="1.6898319">
        <time>2022-07-09T08:54:53Z</time>
      </trkpt>
      <trkpt lat="42.030556" lon="1.6898589">
        <time>2022-07-09T08:54:56Z</time>
      </trkpt>
      <trkpt lat="42.030495" lon="1.6899033">
        <time>2022-07-09T08:54:59Z</time>
      </trkpt>
      <trkpt lat="42.03045" lon="1.6899656">
        <time>2022-07-09T08:55:02Z</time>
      </trkpt>
      <trkpt lat="42.030415" lon="1.6900395">
        <time>2022-07-09T08:55:05Z</time>
      </trkpt>
      <trkpt lat="42.030384" lon="1.6901269">
        <time>2022-07-09T08:55:08Z</time>
      </trkpt>
      <trkpt lat="42.030357" lon="1.6902169">
        <time>2022-07-09T08:55:11Z</time>
      </trkpt>
      <trkpt lat="42.03034" lon="1.6903052">
        <time>2022-07-09T08:55:14Z</time>
      </trkpt>
      <trkpt lat="42.030323" lon="1.6903722">
        <time>2022-07-09T08:55:16Z</time>
      </trkpt>
      <trkpt lat="42.030304" lon="1.6904352">
        <time>2022-07-09T08:55:18Z</time>
      </trkpt>
      <trkpt lat="42.030277" lon="1.6905285">
        <time>2022-07-09T08:55:21Z</time>
      </trkpt>
      <trkpt lat="42.030262" lon="1.6906282">
        <time>2022-07-09T08:55:24Z</time>
      </trkpt>
      <trkpt lat="42.03025" lon="1.6907012">
        <time>2022-07-09T08:55:26Z</time>
      </trkpt>
      <trkpt lat="42.030247" lon="1.6907772">
        <time>2022-07-09T08:55:28Z</time>
      </trkpt>
      <trkpt lat="42.03025" lon="1.6908559">
        <time>2022-07-09T08:55:30Z</time>
      </trkpt>
      <trkpt lat="42.030254" lon="1.6909459">
        <time>2022-07-09T08:55:32Z</time>
      </trkpt>
      <trkpt lat="42.03025" lon="1.6910349">
        <time>2022-07-09T08:55:34Z</time>
      </trkpt>
      <trkpt lat="42.030235" lon="1.6911325">
        <time>2022-07-09T08:55:36Z</time>
      </trkpt>
      <trkpt lat="42.030205" lon="1.6912205">
        <time>2022-07-09T08:55:38Z</time>
      </trkpt>
      <trkpt lat="42.030167" lon="1.6912895">
        <time>2022-07-09T08:55:40Z</time>
      </trkpt>
      <trkpt lat="42.030117" lon="1.6913462">
        <time>2022-07-09T08:55:42Z</time>
      </trkpt>
      <trkpt lat="42.03007" lon="1.6914012">
        <time>2022-07-09T08:55:44Z</time>
      </trkpt>
      <trkpt lat="42.03004" lon="1.6914588">
        <time>2022-07-09T08:55:46Z</time>
      </trkpt>
      <trkpt lat="42.03001" lon="1.6915195">
        <time>2022-07-09T08:55:48Z</time>
      </trkpt>
      <trkpt lat="42.02998" lon="1.6915792">
        <time>2022-07-09T08:55:50Z</time>
      </trkpt>
      <trkpt lat="42.029957" lon="1.6916422">
        <time>2022-07-09T08:55:52Z</time>
      </trkpt>
      <trkpt lat="42.02995" lon="1.6917115">
        <time>2022-07-09T08:55:54Z</time>
      </trkpt>
      <trkpt lat="42.02994" lon="1.6917802">
        <time>2022-07-09T08:55:56Z</time>
      </trkpt>
      <trkpt lat="42.029934" lon="1.6918749">
        <time>2022-07-09T08:55:59Z</time>
      </trkpt>
      <trkpt lat="42.029926" lon="1.6919708">
        <time>2022-07-09T08:56:02Z</time>
      </trkpt>
      <trkpt lat="42.029915" lon="1.6920725">
        <time>2022-07-09T08:56:05Z</time>
      </trkpt>
      <trkpt lat="42.029907" lon="1.6921425">
        <time>2022-07-09T08:56:07Z</time>
      </trkpt>
      <trkpt lat="42.029892" lon="1.6922121">
        <time>2022-07-09T08:56:09Z</time>
      </trkpt>
      <trkpt lat="42.029873" lon="1.6922818">
        <time>2022-07-09T08:56:11Z</time>
      </trkpt>
      <trkpt lat="42.029854" lon="1.6923522">
        <time>2022-07-09T08:56:13Z</time>
      </trkpt>
      <trkpt lat="42.02983" lon="1.6924188">
        <time>2022-07-09T08:56:15Z</time>
      </trkpt>
      <trkpt lat="42.029808" lon="1.6924841">
        <time>2022-07-09T08:56:17Z</time>
      </trkpt>
      <trkpt lat="42.029785" lon="1.6925454">
        <time>2022-07-09T08:56:19Z</time>
      </trkpt>
      <trkpt lat="42.029755" lon="1.6926274">
        <time>2022-07-09T08:56:22Z</time>
      </trkpt>
      <trkpt lat="42.029724" lon="1.6927058">
        <time>2022-07-09T08:56:25Z</time>
      </trkpt>
      <trkpt lat="42.029697" lon="1.6927824">
        <time>2022-07-09T08:56:28Z</time>
      </trkpt>
      <trkpt lat="42.029675" lon="1.6928648">
        <time>2022-07-09T08:56:31Z</time>
      </trkpt>
      <trkpt lat="42.029655" lon="1.6929485">
        <time>2022-07-09T08:56:34Z</time>
      </trkpt>
      <trkpt lat="42.029633" lon="1.6930307">
        <time>2022-07-09T08:56:37Z</time>
      </trkpt>
      <trkpt lat="42.029602" lon="1.693109">
        <time>2022-07-09T08:56:40Z</time>
      </trkpt>
      <trkpt lat="42.029575" lon="1.6931927">
        <time>2022-07-09T08:56:43Z</time>
      </trkpt>
      <trkpt lat="42.029545" lon="1.6932834">
        <time>2022-07-09T08:56:46Z</time>
      </trkpt>
      <trkpt lat="42.029514" lon="1.6933727">
        <time>2022-07-09T08:56:49Z</time>
      </trkpt>
      <trkpt lat="42.02948" lon="1.6934555">
        <time>2022-07-09T08:56:52Z</time>
      </trkpt>
      <trkpt lat="42.029438" lon="1.6935374">
        <time>2022-07-09T08:56:55Z</time>
      </trkpt>
      <trkpt lat="42.0294" lon="1.693624">
        <time>2022-07-09T08:56:58Z</time>
      </trkpt>
      <trkpt lat="42.029377" lon="1.6936814">
        <time>2022-07-09T08:57:00Z</time>
      </trkpt>
      <trkpt lat="42.029335" lon="1.6938001">
        <time>2022-07-09T08:57:04Z</time>
      </trkpt>
      <trkpt lat="42.029316" lon="1.6938614">
        <time>2022-07-09T08:57:06Z</time>
      </trkpt>
      <trkpt lat="42.02929" lon="1.6939521">
        <time>2022-07-09T08:57:09Z</time>
      </trkpt>
      <trkpt lat="42.02927" lon="1.694038">
        <time>2022-07-09T08:57:12Z</time>
      </trkpt>
      <trkpt lat="42.029243" lon="1.6941267">
        <time>2022-07-09T08:57:15Z</time>
      </trkpt>
      <trkpt lat="42.02923" lon="1.6941891">
        <time>2022-07-09T08:57:17Z</time>
      </trkpt>
      <trkpt lat="42.029205" lon="1.694282">
        <time>2022-07-09T08:57:20Z</time>
      </trkpt>
      <trkpt lat="42.029182" lon="1.6943754">
        <time>2022-07-09T08:57:23Z</time>
      </trkpt>
      <trkpt lat="42.02916" lon="1.6944671">
        <time>2022-07-09T08:57:26Z</time>
      </trkpt>
      <trkpt lat="42.029137" lon="1.6945597">
        <time>2022-07-09T08:57:29Z</time>
      </trkpt>
      <trkpt lat="42.029114" lon="1.694651">
        <time>2022-07-09T08:57:32Z</time>
      </trkpt>
      <trkpt lat="42.029095" lon="1.6947436">
        <time>2022-07-09T08:57:35Z</time>
      </trkpt>
      <trkpt lat="42.029076" lon="1.6948353">
        <time>2022-07-09T08:57:38Z</time>
      </trkpt>
      <trkpt lat="42.029057" lon="1.6949253">
        <time>2022-07-09T08:57:41Z</time>
      </trkpt>
      <trkpt lat="42.029037" lon="1.694986">
        <time>2022-07-09T08:57:43Z</time>
      </trkpt>
      <trkpt lat="42.02901" lon="1.6950753">
        <time>2022-07-09T08:57:46Z</time>
      </trkpt>
      <trkpt lat="42.028984" lon="1.695167">
        <time>2022-07-09T08:57:49Z</time>
      </trkpt>
      <trkpt lat="42.02896" lon="1.695262">
        <time>2022-07-09T08:57:52Z</time>
      </trkpt>
      <trkpt lat="42.028946" lon="1.6953253">
        <time>2022-07-09T08:57:54Z</time>
      </trkpt>
      <trkpt lat="42.02892" lon="1.6954167">
        <time>2022-07-09T08:57:57Z</time>
      </trkpt>
      <trkpt lat="42.0289" lon="1.6955043">
        <time>2022-07-09T08:58:00Z</time>
      </trkpt>
      <trkpt lat="42.028877" lon="1.6955936">
        <time>2022-07-09T08:58:03Z</time>
      </trkpt>
      <trkpt lat="42.028866" lon="1.6956573">
        <time>2022-07-09T08:58:05Z</time>
      </trkpt>
      <trkpt lat="42.028847" lon="1.6957513">
        <time>2022-07-09T08:58:08Z</time>
      </trkpt>
      <trkpt lat="42.028824" lon="1.6958463">
        <time>2022-07-09T08:58:11Z</time>
      </trkpt>
      <trkpt lat="42.028812" lon="1.6959423">
        <time>2022-07-09T08:58:14Z</time>
      </trkpt>
      <trkpt lat="42.028797" lon="1.696039">
        <time>2022-07-09T08:58:17Z</time>
      </trkpt>
      <trkpt lat="42.028786" lon="1.6961036">
        <time>2022-07-09T08:58:19Z</time>
      </trkpt>
      <trkpt lat="42.028767" lon="1.6961973">
        <time>2022-07-09T08:58:22Z</time>
      </trkpt>
      <trkpt lat="42.02875" lon="1.6962926">
        <time>2022-07-09T08:58:25Z</time>
      </trkpt>
      <trkpt lat="42.028744" lon="1.6963903">
        <time>2022-07-09T08:58:28Z</time>
      </trkpt>
      <trkpt lat="42.028732" lon="1.696489">
        <time>2022-07-09T08:58:31Z</time>
      </trkpt>
      <trkpt lat="42.02873" lon="1.6965556">
        <time>2022-07-09T08:58:33Z</time>
      </trkpt>
      <trkpt lat="42.028717" lon="1.696657">
        <time>2022-07-09T08:58:36Z</time>
      </trkpt>
      <trkpt lat="42.028713" lon="1.6967266">
        <time>2022-07-09T08:58:38Z</time>
      </trkpt>
      <trkpt lat="42.028706" lon="1.6968359">
        <time>2022-07-09T08:58:41Z</time>
      </trkpt>
      <trkpt lat="42.0287" lon="1.696909">
        <time>2022-07-09T08:58:43Z</time>
      </trkpt>
      <trkpt lat="42.028698" lon="1.6969836">
        <time>2022-07-09T08:58:45Z</time>
      </trkpt>
      <trkpt lat="42.02869" lon="1.6970602">
        <time>2022-07-09T08:58:47Z</time>
      </trkpt>
      <trkpt lat="42.028687" lon="1.6971352">
        <time>2022-07-09T08:58:49Z</time>
      </trkpt>
      <trkpt lat="42.028683" lon="1.6972126">
        <time>2022-07-09T08:58:51Z</time>
      </trkpt>
      <trkpt lat="42.028675" lon="1.6972879">
        <time>2022-07-09T08:58:53Z</time>
      </trkpt>
      <trkpt lat="42.028667" lon="1.6973696">
        <time>2022-07-09T08:58:55Z</time>
      </trkpt>
      <trkpt lat="42.028656" lon="1.6974525">
        <time>2022-07-09T08:58:57Z</time>
      </trkpt>
      <trkpt lat="42.02865" lon="1.6975302">
        <time>2022-07-09T08:58:59Z</time>
      </trkpt>
      <trkpt lat="42.02864" lon="1.6976146">
        <time>2022-07-09T08:59:01Z</time>
      </trkpt>
      <trkpt lat="42.02863" lon="1.6977018">
        <time>2022-07-09T08:59:03Z</time>
      </trkpt>
      <trkpt lat="42.028618" lon="1.6977905">
        <time>2022-07-09T08:59:05Z</time>
      </trkpt>
      <trkpt lat="42.028603" lon="1.6978781">
        <time>2022-07-09T08:59:07Z</time>
      </trkpt>
      <trkpt lat="42.028587" lon="1.6979655">
        <time>2022-07-09T08:59:09Z</time>
      </trkpt>
      <trkpt lat="42.02857" lon="1.6980572">
        <time>2022-07-09T08:59:11Z</time>
      </trkpt>
      <trkpt lat="42.028538" lon="1.6981988">
        <time>2022-07-09T08:59:14Z</time>
      </trkpt>
      <trkpt lat="42.02851" lon="1.6983042">
        <time>2022-07-09T08:59:16Z</time>
      </trkpt>
      <trkpt lat="42.028484" lon="1.6984118">
        <time>2022-07-09T08:59:18Z</time>
      </trkpt>
      <trkpt lat="42.028458" lon="1.6985224">
        <time>2022-07-09T08:59:20Z</time>
      </trkpt>
      <trkpt lat="42.02843" lon="1.6986365">
        <time>2022-07-09T08:59:22Z</time>
      </trkpt>
      <trkpt lat="42.0284" lon="1.6987531">
        <time>2022-07-09T08:59:24Z</time>
      </trkpt>
      <trkpt lat="42.02837" lon="1.6988758">
        <time>2022-07-09T08:59:26Z</time>
      </trkpt>
      <trkpt lat="42.02834" lon="1.6990018">
        <time>2022-07-09T08:59:28Z</time>
      </trkpt>
      <trkpt lat="42.02831" lon="1.6991285">
        <time>2022-07-09T08:59:30Z</time>
      </trkpt>
      <trkpt lat="42.02828" lon="1.6992558">
        <time>2022-07-09T08:59:32Z</time>
      </trkpt>
      <trkpt lat="42.028267" lon="1.6993228">
        <time>2022-07-09T08:59:33Z</time>
      </trkpt>
      <trkpt lat="42.02825" lon="1.6993898">
        <time>2022-07-09T08:59:34Z</time>
      </trkpt>
      <trkpt lat="42.028217" lon="1.6995298">
        <time>2022-07-09T08:59:36Z</time>
      </trkpt>
      <trkpt lat="42.028202" lon="1.6995988">
        <time>2022-07-09T08:59:37Z</time>
      </trkpt>
      <trkpt lat="42.028187" lon="1.6996688">
        <time>2022-07-09T08:59:38Z</time>
      </trkpt>
      <trkpt lat="42.028168" lon="1.6997402">
        <time>2022-07-09T08:59:39Z</time>
      </trkpt>
      <trkpt lat="42.028152" lon="1.6998124">
        <time>2022-07-09T08:59:40Z</time>
      </trkpt>
      <trkpt lat="42.028133" lon="1.6998851">
        <time>2022-07-09T08:59:41Z</time>
      </trkpt>
      <trkpt lat="42.02812" lon="1.6999594">
        <time>2022-07-09T08:59:42Z</time>
      </trkpt>
      <trkpt lat="42.0281" lon="1.7000345">
        <time>2022-07-09T08:59:43Z</time>
      </trkpt>
      <trkpt lat="42.028084" lon="1.7001097">
        <time>2022-07-09T08:59:44Z</time>
      </trkpt>
      <trkpt lat="42.02806" lon="1.7001858">
        <time>2022-07-09T08:59:45Z</time>
      </trkpt>
      <trkpt lat="42.02804" lon="1.7002628">
        <time>2022-07-09T08:59:46Z</time>
      </trkpt>
      <trkpt lat="42.02802" lon="1.700342">
        <time>2022-07-09T08:59:47Z</time>
      </trkpt>
      <trkpt lat="42.027996" lon="1.7004235">
        <time>2022-07-09T08:59:48Z</time>
      </trkpt>
      <trkpt lat="42.027973" lon="1.7005078">
        <time>2022-07-09T08:59:49Z</time>
      </trkpt>
      <trkpt lat="42.027954" lon="1.7005948">
        <time>2022-07-09T08:59:50Z</time>
      </trkpt>
      <trkpt lat="42.027935" lon="1.7006848">
        <time>2022-07-09T08:59:51Z</time>
      </trkpt>
      <trkpt lat="42.027912" lon="1.7007768">
        <time>2022-07-09T08:59:52Z</time>
      </trkpt>
      <trkpt lat="42.027893" lon="1.7008698">
        <time>2022-07-09T08:59:53Z</time>
      </trkpt>
      <trkpt lat="42.02787" lon="1.7009621">
        <time>2022-07-09T08:59:54Z</time>
      </trkpt>
      <trkpt lat="42.027847" lon="1.7010541">
        <time>2022-07-09T08:59:55Z</time>
      </trkpt>
      <trkpt lat="42.027824" lon="1.7011478">
        <time>2022-07-09T08:59:56Z</time>
      </trkpt>
      <trkpt lat="42.027798" lon="1.7012438">
        <time>2022-07-09T08:59:57Z</time>
      </trkpt>
      <trkpt lat="42.027775" lon="1.7013414">
        <time>2022-07-09T08:59:58Z</time>
      </trkpt>
      <trkpt lat="42.027752" lon="1.701441">
        <time>2022-07-09T08:59:59Z</time>
      </trkpt>
      <trkpt lat="42.027725" lon="1.7015387">
        <time>2022-07-09T09:00:00Z</time>
      </trkpt>
      <trkpt lat="42.0277" lon="1.7016337">
        <time>2022-07-09T09:00:01Z</time>
      </trkpt>
      <trkpt lat="42.02767" lon="1.7017294">
        <time>2022-07-09T09:00:02Z</time>
      </trkpt>
      <trkpt lat="42.027645" lon="1.7018254">
        <time>2022-07-09T09:00:03Z</time>
      </trkpt>
      <trkpt lat="42.027622" lon="1.7019207">
        <time>2022-07-09T09:00:04Z</time>
      </trkpt>
      <trkpt lat="42.027596" lon="1.7020164">
        <time>2022-07-09T09:00:05Z</time>
      </trkpt>
      <trkpt lat="42.02757" lon="1.7021134">
        <time>2022-07-09T09:00:06Z</time>
      </trkpt>
      <trkpt lat="42.027542" lon="1.7022123">
        <time>2022-07-09T09:00:07Z</time>
      </trkpt>
      <trkpt lat="42.027515" lon="1.7023127">
        <time>2022-07-09T09:00:08Z</time>
      </trkpt>
      <trkpt lat="42.02749" lon="1.7024133">
        <time>2022-07-09T09:00:09Z</time>
      </trkpt>
      <trkpt lat="42.02746" lon="1.7025163">
        <time>2022-07-09T09:00:10Z</time>
      </trkpt>
      <trkpt lat="42.027424" lon="1.7026213">
        <time>2022-07-09T09:00:11Z</time>
      </trkpt>
      <trkpt lat="42.027393" lon="1.7027287">
        <time>2022-07-09T09:00:12Z</time>
      </trkpt>
      <trkpt lat="42.02736" lon="1.7028383">
        <time>2022-07-09T09:00:13Z</time>
      </trkpt>
      <trkpt lat="42.027325" lon="1.7029494">
        <time>2022-07-09T09:00:14Z</time>
      </trkpt>
      <trkpt lat="42.02729" lon="1.7030624">
        <time>2022-07-09T09:00:15Z</time>
      </trkpt>
      <trkpt lat="42.027256" lon="1.703177">
        <time>2022-07-09T09:00:16Z</time>
      </trkpt>
      <trkpt lat="42.027218" lon="1.7032937">
        <time>2022-07-09T09:00:17Z</time>
      </trkpt>
      <trkpt lat="42.02718" lon="1.7034217">
        <time>2022-07-09T09:00:18Z</time>
      </trkpt>
      <trkpt lat="42.027153" lon="1.7035414">
        <time>2022-07-09T09:00:19Z</time>
      </trkpt>
      <trkpt lat="42.027115" lon="1.7037864">
        <time>2022-07-09T09:00:21Z</time>
      </trkpt>
      <trkpt lat="42.027107" lon="1.7039057">
        <time>2022-07-09T09:00:22Z</time>
      </trkpt>
      <trkpt lat="42.027107" lon="1.7040213">
        <time>2022-07-09T09:00:23Z</time>
      </trkpt>
      <trkpt lat="42.02712" lon="1.704135">
        <time>2022-07-09T09:00:24Z</time>
      </trkpt>
      <trkpt lat="42.02713" lon="1.704249">
        <time>2022-07-09T09:00:25Z</time>
      </trkpt>
      <trkpt lat="42.02715" lon="1.704362">
        <time>2022-07-09T09:00:26Z</time>
      </trkpt>
      <trkpt lat="42.02717" lon="1.704474">
        <time>2022-07-09T09:00:27Z</time>
      </trkpt>
      <trkpt lat="42.027187" lon="1.704584">
        <time>2022-07-09T09:00:28Z</time>
      </trkpt>
      <trkpt lat="42.027206" lon="1.7046916">
        <time>2022-07-09T09:00:29Z</time>
      </trkpt>
      <trkpt lat="42.027225" lon="1.704795">
        <time>2022-07-09T09:00:30Z</time>
      </trkpt>
      <trkpt lat="42.027245" lon="1.7049019">
        <time>2022-07-09T09:00:31Z</time>
      </trkpt>
      <trkpt lat="42.027264" lon="1.7049986">
        <time>2022-07-09T09:00:32Z</time>
      </trkpt>
      <trkpt lat="42.02728" lon="1.7050936">
        <time>2022-07-09T09:00:33Z</time>
      </trkpt>
      <trkpt lat="42.027294" lon="1.7051883">
        <time>2022-07-09T09:00:34Z</time>
      </trkpt>
      <trkpt lat="42.027306" lon="1.7052757">
        <time>2022-07-09T09:00:35Z</time>
      </trkpt>
      <trkpt lat="42.02732" lon="1.7053713">
        <time>2022-07-09T09:00:36Z</time>
      </trkpt>
      <trkpt lat="42.02733" lon="1.7054666">
        <time>2022-07-09T09:00:37Z</time>
      </trkpt>
      <trkpt lat="42.027336" lon="1.7055613">
        <time>2022-07-09T09:00:38Z</time>
      </trkpt>
      <trkpt lat="42.02734" lon="1.7056563">
        <time>2022-07-09T09:00:39Z</time>
      </trkpt>
      <trkpt lat="42.02734" lon="1.7057526">
        <time>2022-07-09T09:00:40Z</time>
      </trkpt>
      <trkpt lat="42.027344" lon="1.7058502">
        <time>2022-07-09T09:00:41Z</time>
      </trkpt>
      <trkpt lat="42.02734" lon="1.7059479">
        <time>2022-07-09T09:00:42Z</time>
      </trkpt>
      <trkpt lat="42.027336" lon="1.7060475">
        <time>2022-07-09T09:00:43Z</time>
      </trkpt>
      <trkpt lat="42.027332" lon="1.7061496">
        <time>2022-07-09T09:00:44Z</time>
      </trkpt>
      <trkpt lat="42.02733" lon="1.7062529">
        <time>2022-07-09T09:00:45Z</time>
      </trkpt>
      <trkpt lat="42.02733" lon="1.7063593">
        <time>2022-07-09T09:00:46Z</time>
      </trkpt>
      <trkpt lat="42.027325" lon="1.7064676">
        <time>2022-07-09T09:00:47Z</time>
      </trkpt>
      <trkpt lat="42.02733" lon="1.7065766">
        <time>2022-07-09T09:00:48Z</time>
      </trkpt>
      <trkpt lat="42.027336" lon="1.7066866">
        <time>2022-07-09T09:00:49Z</time>
      </trkpt>
      <trkpt lat="42.027348" lon="1.7067999">
        <time>2022-07-09T09:00:50Z</time>
      </trkpt>
      <trkpt lat="42.027367" lon="1.7069119">
        <time>2022-07-09T09:00:51Z</time>
      </trkpt>
      <trkpt lat="42.027397" lon="1.7070239">
        <time>2022-07-09T09:00:52Z</time>
      </trkpt>
      <trkpt lat="42.02743" lon="1.7071346">
        <time>2022-07-09T09:00:53Z</time>
      </trkpt>
      <trkpt lat="42.027473" lon="1.7072426">
        <time>2022-07-09T09:00:54Z</time>
      </trkpt>
      <trkpt lat="42.027523" lon="1.7073466">
        <time>2022-07-09T09:00:55Z</time>
      </trkpt>
      <trkpt lat="42.02756" lon="1.7074406">
        <time>2022-07-09T09:00:56Z</time>
      </trkpt>
      <trkpt lat="42.027603" lon="1.7075312">
        <time>2022-07-09T09:00:57Z</time>
      </trkpt>
      <trkpt lat="42.02765" lon="1.7076232">
        <time>2022-07-09T09:00:58Z</time>
      </trkpt>
      <trkpt lat="42.027702" lon="1.7077155">
        <time>2022-07-09T09:00:59Z</time>
      </trkpt>
      <trkpt lat="42.027752" lon="1.7078066">
        <time>2022-07-09T09:01:00Z</time>
      </trkpt>
      <trkpt lat="42.027805" lon="1.707897">
        <time>2022-07-09T09:01:01Z</time>
      </trkpt>
      <trkpt lat="42.02786" lon="1.7079883">
        <time>2022-07-09T09:01:02Z</time>
      </trkpt>
      <trkpt lat="42.027912" lon="1.7080822">
        <time>2022-07-09T09:01:03Z</time>
      </trkpt>
      <trkpt lat="42.02797" lon="1.7081776">
        <time>2022-07-09T09:01:04Z</time>
      </trkpt>
      <trkpt lat="42.02803" lon="1.7082742">
        <time>2022-07-09T09:01:05Z</time>
      </trkpt>
      <trkpt lat="42.02809" lon="1.7083715">
        <time>2022-07-09T09:01:06Z</time>
      </trkpt>
      <trkpt lat="42.028152" lon="1.7084723">
        <time>2022-07-09T09:01:07Z</time>
      </trkpt>
      <trkpt lat="42.02821" lon="1.7085752">
        <time>2022-07-09T09:01:08Z</time>
      </trkpt>
      <trkpt lat="42.028267" lon="1.7086812">
        <time>2022-07-09T09:01:09Z</time>
      </trkpt>
      <trkpt lat="42.028324" lon="1.7087879">
        <time>2022-07-09T09:01:10Z</time>
      </trkpt>
      <trkpt lat="42.028378" lon="1.7088945">
        <time>2022-07-09T09:01:11Z</time>
      </trkpt>
      <trkpt lat="42.028423" lon="1.7090015">
        <time>2022-07-09T09:01:12Z</time>
      </trkpt>
      <trkpt lat="42.028458" lon="1.7091095">
        <time>2022-07-09T09:01:13Z</time>
      </trkpt>
      <trkpt lat="42.028484" lon="1.7092209">
        <time>2022-07-09T09:01:14Z</time>
      </trkpt>
      <trkpt lat="42.0285" lon="1.7093349">
        <time>2022-07-09T09:01:15Z</time>
      </trkpt>
      <trkpt lat="42.02851" lon="1.7094508">
        <time>2022-07-09T09:01:16Z</time>
      </trkpt>
      <trkpt lat="42.028515" lon="1.7095685">
        <time>2022-07-09T09:01:17Z</time>
      </trkpt>
      <trkpt lat="42.028515" lon="1.7096882">
        <time>2022-07-09T09:01:18Z</time>
      </trkpt>
      <trkpt lat="42.02851" lon="1.7098112">
        <time>2022-07-09T09:01:19Z</time>
      </trkpt>
      <trkpt lat="42.028507" lon="1.7099358">
        <time>2022-07-09T09:01:20Z</time>
      </trkpt>
      <trkpt lat="42.0285" lon="1.7100614">
        <time>2022-07-09T09:01:21Z</time>
      </trkpt>
      <trkpt lat="42.028492" lon="1.7101865">
        <time>2022-07-09T09:01:22Z</time>
      </trkpt>
      <trkpt lat="42.02849" lon="1.7103121">
        <time>2022-07-09T09:01:23Z</time>
      </trkpt>
      <trkpt lat="42.02848" lon="1.7104385">
        <time>2022-07-09T09:01:24Z</time>
      </trkpt>
      <trkpt lat="42.028473" lon="1.7105645">
        <time>2022-07-09T09:01:25Z</time>
      </trkpt>
      <trkpt lat="42.02847" lon="1.7106922">
        <time>2022-07-09T09:01:26Z</time>
      </trkpt>
      <trkpt lat="42.02846" lon="1.7108198">
        <time>2022-07-09T09:01:27Z</time>
      </trkpt>
      <trkpt lat="42.028454" lon="1.7109481">
        <time>2022-07-09T09:01:28Z</time>
      </trkpt>
      <trkpt lat="42.028446" lon="1.7110778">
        <time>2022-07-09T09:01:29Z</time>
      </trkpt>
      <trkpt lat="42.02843" lon="1.7113388">
        <time>2022-07-09T09:01:31Z</time>
      </trkpt>
      <trkpt lat="42.028423" lon="1.7114705">
        <time>2022-07-09T09:01:32Z</time>
      </trkpt>
      <trkpt lat="42.02842" lon="1.7116017">
        <time>2022-07-09T09:01:33Z</time>
      </trkpt>
      <trkpt lat="42.02841" lon="1.7117248">
        <time>2022-07-09T09:01:34Z</time>
      </trkpt>
      <trkpt lat="42.028404" lon="1.7118518">
        <time>2022-07-09T09:01:35Z</time>
      </trkpt>
      <trkpt lat="42.0284" lon="1.7119888">
        <time>2022-07-09T09:01:36Z</time>
      </trkpt>
      <trkpt lat="42.028393" lon="1.7121238">
        <time>2022-07-09T09:01:37Z</time>
      </trkpt>
      <trkpt lat="42.02839" lon="1.7122568">
        <time>2022-07-09T09:01:38Z</time>
      </trkpt>
      <trkpt lat="42.02838" lon="1.7123808">
        <time>2022-07-09T09:01:39Z</time>
      </trkpt>
      <trkpt lat="42.02837" lon="1.7125155">
        <time>2022-07-09T09:01:40Z</time>
      </trkpt>
      <trkpt lat="42.028362" lon="1.7126504">
        <time>2022-07-09T09:01:41Z</time>
      </trkpt>
      <trkpt lat="42.02836" lon="1.7127864">
        <time>2022-07-09T09:01:42Z</time>
      </trkpt>
      <trkpt lat="42.02835" lon="1.7129234">
        <time>2022-07-09T09:01:43Z</time>
      </trkpt>
      <trkpt lat="42.028343" lon="1.7130611">
        <time>2022-07-09T09:01:44Z</time>
      </trkpt>
      <trkpt lat="42.02834" lon="1.7131997">
        <time>2022-07-09T09:01:45Z</time>
      </trkpt>
      <trkpt lat="42.02833" lon="1.7133384">
        <time>2022-07-09T09:01:46Z</time>
      </trkpt>
      <trkpt lat="42.028324" lon="1.7134777">
        <time>2022-07-09T09:01:47Z</time>
      </trkpt>
      <trkpt lat="42.02832" lon="1.7136174">
        <time>2022-07-09T09:01:48Z</time>
      </trkpt>
      <trkpt lat="42.028313" lon="1.7137574">
        <time>2022-07-09T09:01:49Z</time>
      </trkpt>
      <trkpt lat="42.02831" lon="1.7138988">
        <time>2022-07-09T09:01:50Z</time>
      </trkpt>
      <trkpt lat="42.0283" lon="1.7140411">
        <time>2022-07-09T09:01:51Z</time>
      </trkpt>
      <trkpt lat="42.028294" lon="1.7141851">
        <time>2022-07-09T09:01:52Z</time>
      </trkpt>
      <trkpt lat="42.028286" lon="1.7143288">
        <time>2022-07-09T09:01:53Z</time>
      </trkpt>
      <trkpt lat="42.028275" lon="1.7144734">
        <time>2022-07-09T09:01:54Z</time>
      </trkpt>
      <trkpt lat="42.028267" lon="1.7146181">
        <time>2022-07-09T09:01:55Z</time>
      </trkpt>
      <trkpt lat="42.02826" lon="1.714763">
        <time>2022-07-09T09:01:56Z</time>
      </trkpt>
      <trkpt lat="42.02825" lon="1.7149067">
        <time>2022-07-09T09:01:57Z</time>
      </trkpt>
      <trkpt lat="42.028244" lon="1.7150503">
        <time>2022-07-09T09:01:58Z</time>
      </trkpt>
      <trkpt lat="42.028236" lon="1.715194">
        <time>2022-07-09T09:01:59Z</time>
      </trkpt>
      <trkpt lat="42.02823" lon="1.7153374">
        <time>2022-07-09T09:02:00Z</time>
      </trkpt>
      <trkpt lat="42.02822" lon="1.7154797">
        <time>2022-07-09T09:02:01Z</time>
      </trkpt>
      <trkpt lat="42.02821" lon="1.7156214">
        <time>2022-07-09T09:02:02Z</time>
      </trkpt>
      <trkpt lat="42.028202" lon="1.715762">
        <time>2022-07-09T09:02:03Z</time>
      </trkpt>
      <trkpt lat="42.02819" lon="1.7159016">
        <time>2022-07-09T09:02:04Z</time>
      </trkpt>
      <trkpt lat="42.028183" lon="1.716042">
        <time>2022-07-09T09:02:05Z</time>
      </trkpt>
      <trkpt lat="42.02817" lon="1.716184">
        <time>2022-07-09T09:02:06Z</time>
      </trkpt>
      <trkpt lat="42.02816" lon="1.7163264">
        <time>2022-07-09T09:02:07Z</time>
      </trkpt>
      <trkpt lat="42.02815" lon="1.71647">
        <time>2022-07-09T09:02:08Z</time>
      </trkpt>
      <trkpt lat="42.02813" lon="1.7166144">
        <time>2022-07-09T09:02:09Z</time>
      </trkpt>
      <trkpt lat="42.028114" lon="1.7167493">
        <time>2022-07-09T09:02:10Z</time>
      </trkpt>
      <trkpt lat="42.02809" lon="1.716897">
        <time>2022-07-09T09:02:11Z</time>
      </trkpt>
      <trkpt lat="42.028065" lon="1.7170416">
        <time>2022-07-09T09:02:12Z</time>
      </trkpt>
      <trkpt lat="42.02803" lon="1.7171836">
        <time>2022-07-09T09:02:13Z</time>
      </trkpt>
      <trkpt lat="42.027985" lon="1.7173203">
        <time>2022-07-09T09:02:14Z</time>
      </trkpt>
      <trkpt lat="42.02793" lon="1.7174469">
        <time>2022-07-09T09:02:15Z</time>
      </trkpt>
      <trkpt lat="42.027863" lon="1.7175627">
        <time>2022-07-09T09:02:16Z</time>
      </trkpt>
      <trkpt lat="42.027786" lon="1.7176709">
        <time>2022-07-09T09:02:17Z</time>
      </trkpt>
      <trkpt lat="42.027702" lon="1.7177767">
        <time>2022-07-09T09:02:18Z</time>
      </trkpt>
      <trkpt lat="42.02762" lon="1.7178832">
        <time>2022-07-09T09:02:19Z</time>
      </trkpt>
      <trkpt lat="42.027542" lon="1.717986">
        <time>2022-07-09T09:02:20Z</time>
      </trkpt>
      <trkpt lat="42.027473" lon="1.7180996">
        <time>2022-07-09T09:02:21Z</time>
      </trkpt>
      <trkpt lat="42.027412" lon="1.718236">
        <time>2022-07-09T09:02:22Z</time>
      </trkpt>
      <trkpt lat="42.027367" lon="1.7183793">
        <time>2022-07-09T09:02:23Z</time>
      </trkpt>
      <trkpt lat="42.027332" lon="1.7185276">
        <time>2022-07-09T09:02:24Z</time>
      </trkpt>
      <trkpt lat="42.0273" lon="1.7186775">
        <time>2022-07-09T09:02:25Z</time>
      </trkpt>
      <trkpt lat="42.02727" lon="1.718828">
        <time>2022-07-09T09:02:26Z</time>
      </trkpt>
      <trkpt lat="42.02724" lon="1.7189776">
        <time>2022-07-09T09:02:27Z</time>
      </trkpt>
      <trkpt lat="42.02721" lon="1.7191266">
        <time>2022-07-09T09:02:28Z</time>
      </trkpt>
      <trkpt lat="42.027176" lon="1.7192736">
        <time>2022-07-09T09:02:29Z</time>
      </trkpt>
      <trkpt lat="42.027138" lon="1.7194172">
        <time>2022-07-09T09:02:30Z</time>
      </trkpt>
      <trkpt lat="42.02709" lon="1.7195536">
        <time>2022-07-09T09:02:31Z</time>
      </trkpt>
      <trkpt lat="42.02703" lon="1.7196789">
        <time>2022-07-09T09:02:32Z</time>
      </trkpt>
      <trkpt lat="42.02696" lon="1.7197902">
        <time>2022-07-09T09:02:33Z</time>
      </trkpt>
      <trkpt lat="42.02688" lon="1.7198862">
        <time>2022-07-09T09:02:34Z</time>
      </trkpt>
      <trkpt lat="42.026787" lon="1.7199706">
        <time>2022-07-09T09:02:35Z</time>
      </trkpt>
      <trkpt lat="42.02669" lon="1.7200472">
        <time>2022-07-09T09:02:36Z</time>
      </trkpt>
      <trkpt lat="42.02659" lon="1.7201192">
        <time>2022-07-09T09:02:37Z</time>
      </trkpt>
      <trkpt lat="42.026382" lon="1.7202582">
        <time>2022-07-09T09:02:39Z</time>
      </trkpt>
      <trkpt lat="42.02627" lon="1.7203236">
        <time>2022-07-09T09:02:40Z</time>
      </trkpt>
      <trkpt lat="42.026165" lon="1.7203861">
        <time>2022-07-09T09:02:41Z</time>
      </trkpt>
      <trkpt lat="42.02606" lon="1.7204466">
        <time>2022-07-09T09:02:42Z</time>
      </trkpt>
      <trkpt lat="42.025948" lon="1.7205042">
        <time>2022-07-09T09:02:43Z</time>
      </trkpt>
      <trkpt lat="42.02584" lon="1.7205635">
        <time>2022-07-09T09:02:44Z</time>
      </trkpt>
      <trkpt lat="42.02574" lon="1.7206296">
        <time>2022-07-09T09:02:45Z</time>
      </trkpt>
      <trkpt lat="42.025646" lon="1.7207072">
        <time>2022-07-09T09:02:46Z</time>
      </trkpt>
      <trkpt lat="42.025566" lon="1.7207981">
        <time>2022-07-09T09:02:47Z</time>
      </trkpt>
      <trkpt lat="42.025497" lon="1.7208942">
        <time>2022-07-09T09:02:48Z</time>
      </trkpt>
      <trkpt lat="42.025436" lon="1.7210022">
        <time>2022-07-09T09:02:49Z</time>
      </trkpt>
      <trkpt lat="42.025375" lon="1.7211258">
        <time>2022-07-09T09:02:50Z</time>
      </trkpt>
      <trkpt lat="42.025322" lon="1.7212425">
        <time>2022-07-09T09:02:51Z</time>
      </trkpt>
      <trkpt lat="42.025272" lon="1.7213628">
        <time>2022-07-09T09:02:52Z</time>
      </trkpt>
      <trkpt lat="42.025223" lon="1.7214855">
        <time>2022-07-09T09:02:53Z</time>
      </trkpt>
      <trkpt lat="42.02518" lon="1.7216102">
        <time>2022-07-09T09:02:54Z</time>
      </trkpt>
      <trkpt lat="42.025143" lon="1.7217368">
        <time>2022-07-09T09:02:55Z</time>
      </trkpt>
      <trkpt lat="42.025112" lon="1.7218645">
        <time>2022-07-09T09:02:56Z</time>
      </trkpt>
      <trkpt lat="42.02509" lon="1.7219995">
        <time>2022-07-09T09:02:57Z</time>
      </trkpt>
      <trkpt lat="42.025078" lon="1.7221308">
        <time>2022-07-09T09:02:58Z</time>
      </trkpt>
      <trkpt lat="42.025066" lon="1.7222551">
        <time>2022-07-09T09:02:59Z</time>
      </trkpt>
      <trkpt lat="42.025063" lon="1.7223744">
        <time>2022-07-09T09:03:00Z</time>
      </trkpt>
      <trkpt lat="42.025063" lon="1.7224904">
        <time>2022-07-09T09:03:01Z</time>
      </trkpt>
      <trkpt lat="42.025066" lon="1.7226034">
        <time>2022-07-09T09:03:02Z</time>
      </trkpt>
      <trkpt lat="42.025066" lon="1.7227131">
        <time>2022-07-09T09:03:03Z</time>
      </trkpt>
      <trkpt lat="42.02507" lon="1.7228194">
        <time>2022-07-09T09:03:04Z</time>
      </trkpt>
      <trkpt lat="42.025063" lon="1.7229228">
        <time>2022-07-09T09:03:05Z</time>
      </trkpt>
      <trkpt lat="42.02505" lon="1.7230214">
        <time>2022-07-09T09:03:06Z</time>
      </trkpt>
      <trkpt lat="42.025024" lon="1.7231125">
        <time>2022-07-09T09:03:07Z</time>
      </trkpt>
      <trkpt lat="42.02499" lon="1.7231934">
        <time>2022-07-09T09:03:08Z</time>
      </trkpt>
      <trkpt lat="42.024952" lon="1.7232628">
        <time>2022-07-09T09:03:09Z</time>
      </trkpt>
      <trkpt lat="42.024906" lon="1.7233218">
        <time>2022-07-09T09:03:10Z</time>
      </trkpt>
      <trkpt lat="42.024857" lon="1.7233725">
        <time>2022-07-09T09:03:11Z</time>
      </trkpt>
      <trkpt lat="42.024807" lon="1.7234157">
        <time>2022-07-09T09:03:12Z</time>
      </trkpt>
      <trkpt lat="42.024757" lon="1.7234495">
        <time>2022-07-09T09:03:13Z</time>
      </trkpt>
      <trkpt lat="42.024704" lon="1.7234725">
        <time>2022-07-09T09:03:14Z</time>
      </trkpt>
      <trkpt lat="42.024654" lon="1.7234874">
        <time>2022-07-09T09:03:15Z</time>
      </trkpt>
      <trkpt lat="42.024567" lon="1.7234968">
        <time>2022-07-09T09:03:17Z</time>
      </trkpt>
      <trkpt lat="42.024483" lon="1.7234851">
        <time>2022-07-09T09:03:19Z</time>
      </trkpt>
      <trkpt lat="42.024406" lon="1.7234664">
        <time>2022-07-09T09:03:21Z</time>
      </trkpt>
      <trkpt lat="42.024338" lon="1.7234474">
        <time>2022-07-09T09:03:23Z</time>
      </trkpt>
      <trkpt lat="42.024277" lon="1.7234274">
        <time>2022-07-09T09:03:25Z</time>
      </trkpt>
      <trkpt lat="42.02422" lon="1.7234081">
        <time>2022-07-09T09:03:27Z</time>
      </trkpt>
      <trkpt lat="42.024162" lon="1.7233901">
        <time>2022-07-09T09:03:29Z</time>
      </trkpt>
      <trkpt lat="42.024113" lon="1.7233764">
        <time>2022-07-09T09:03:31Z</time>
      </trkpt>
      <trkpt lat="42.024063" lon="1.7233598">
        <time>2022-07-09T09:03:33Z</time>
      </trkpt>
      <trkpt lat="42.02399" lon="1.7233394">
        <time>2022-07-09T09:03:36Z</time>
      </trkpt>
      <trkpt lat="42.023922" lon="1.7233385">
        <time>2022-07-09T09:03:39Z</time>
      </trkpt>
      <trkpt lat="42.02385" lon="1.7233624">
        <time>2022-07-09T09:03:42Z</time>
      </trkpt>
      <trkpt lat="42.02378" lon="1.7234107">
        <time>2022-07-09T09:03:45Z</time>
      </trkpt>
      <trkpt lat="42.02374" lon="1.7234521">
        <time>2022-07-09T09:03:47Z</time>
      </trkpt>
      <trkpt lat="42.0237" lon="1.7234961">
        <time>2022-07-09T09:03:49Z</time>
      </trkpt>
      <trkpt lat="42.023643" lon="1.7235768">
        <time>2022-07-09T09:03:52Z</time>
      </trkpt>
      <trkpt lat="42.023598" lon="1.7236592">
        <time>2022-07-09T09:03:55Z</time>
      </trkpt>
      <trkpt lat="42.023567" lon="1.7237211">
        <time>2022-07-09T09:03:57Z</time>
      </trkpt>
      <trkpt lat="42.02355" lon="1.7237794">
        <time>2022-07-09T09:03:59Z</time>
      </trkpt>
      <trkpt lat="42.02353" lon="1.7238431">
        <time>2022-07-09T09:04:01Z</time>
      </trkpt>
      <trkpt lat="42.023518" lon="1.7239151">
        <time>2022-07-09T09:04:04Z</time>
      </trkpt>
      <trkpt lat="42.02358" lon="1.7240251">
        <time>2022-07-09T09:06:58Z</time>
      </trkpt>
      <trkpt lat="42.023636" lon="1.7240474">
        <time>2022-07-09T09:07:01Z</time>
      </trkpt>
      <trkpt lat="42.0237" lon="1.724071">
        <time>2022-07-09T09:07:04Z</time>
      </trkpt>
      <trkpt lat="42.023754" lon="1.7240981">
        <time>2022-07-09T09:07:07Z</time>
      </trkpt>
      <trkpt lat="42.023808" lon="1.7241248">
        <time>2022-07-09T09:07:10Z</time>
      </trkpt>
      <trkpt lat="42.023872" lon="1.7241608">
        <time>2022-07-09T09:07:13Z</time>
      </trkpt>
      <trkpt lat="42.02393" lon="1.7241987">
        <time>2022-07-09T09:07:16Z</time>
      </trkpt>
      <trkpt lat="42.023994" lon="1.7242388">
        <time>2022-07-09T09:07:19Z</time>
      </trkpt>
      <trkpt lat="42.02406" lon="1.7242737">
        <time>2022-07-09T09:07:22Z</time>
      </trkpt>
      <trkpt lat="42.024124" lon="1.7243054">
        <time>2022-07-09T09:07:25Z</time>
      </trkpt>
      <trkpt lat="42.02419" lon="1.7243434">
        <time>2022-07-09T09:07:28Z</time>
      </trkpt>
      <trkpt lat="42.02425" lon="1.7243781">
        <time>2022-07-09T09:07:31Z</time>
      </trkpt>
      <trkpt lat="42.02431" lon="1.7244194">
        <time>2022-07-09T09:07:34Z</time>
      </trkpt>
      <trkpt lat="42.024364" lon="1.7244734">
        <time>2022-07-09T09:07:37Z</time>
      </trkpt>
      <trkpt lat="42.02441" lon="1.7245411">
        <time>2022-07-09T09:07:40Z</time>
      </trkpt>
      <trkpt lat="42.024452" lon="1.7246118">
        <time>2022-07-09T09:07:43Z</time>
      </trkpt>
      <trkpt lat="42.024483" lon="1.7246927">
        <time>2022-07-09T09:07:46Z</time>
      </trkpt>
      <trkpt lat="42.024513" lon="1.7247734">
        <time>2022-07-09T09:07:49Z</time>
      </trkpt>
      <trkpt lat="42.024544" lon="1.7248634">
        <time>2022-07-09T09:07:52Z</time>
      </trkpt>
      <trkpt lat="42.02457" lon="1.7249514">
        <time>2022-07-09T09:07:55Z</time>
      </trkpt>
      <trkpt lat="42.0246" lon="1.7250674">
        <time>2022-07-09T09:07:59Z</time>
      </trkpt>
      <trkpt lat="42.02463" lon="1.7251527">
        <time>2022-07-09T09:08:02Z</time>
      </trkpt>
      <trkpt lat="42.02466" lon="1.7252374">
        <time>2022-07-09T09:08:05Z</time>
      </trkpt>
      <trkpt lat="42.024685" lon="1.7253164">
        <time>2022-07-09T09:08:08Z</time>
      </trkpt>
      <trkpt lat="42.024715" lon="1.7254003">
        <time>2022-07-09T09:08:11Z</time>
      </trkpt>
      <trkpt lat="42.024746" lon="1.7254834">
        <time>2022-07-09T09:08:14Z</time>
      </trkpt>
      <trkpt lat="42.024784" lon="1.7255653">
        <time>2022-07-09T09:08:17Z</time>
      </trkpt>
      <trkpt lat="42.024826" lon="1.7256407">
        <time>2022-07-09T09:08:20Z</time>
      </trkpt>
      <trkpt lat="42.02487" lon="1.7257127">
        <time>2022-07-09T09:08:23Z</time>
      </trkpt>
      <trkpt lat="42.024925" lon="1.7257754">
        <time>2022-07-09T09:08:26Z</time>
      </trkpt>
      <trkpt lat="42.02496" lon="1.725817">
        <time>2022-07-09T09:08:28Z</time>
      </trkpt>
      <trkpt lat="42.025017" lon="1.725879">
        <time>2022-07-09T09:08:31Z</time>
      </trkpt>
      <trkpt lat="42.02507" lon="1.7259496">
        <time>2022-07-09T09:08:34Z</time>
      </trkpt>
      <trkpt lat="42.025116" lon="1.7260216">
        <time>2022-07-09T09:08:37Z</time>
      </trkpt>
      <trkpt lat="42.025154" lon="1.7261007">
        <time>2022-07-09T09:08:40Z</time>
      </trkpt>
      <trkpt lat="42.025192" lon="1.7261777">
        <time>2022-07-09T09:08:43Z</time>
      </trkpt>
      <trkpt lat="42.02521" lon="1.7262323">
        <time>2022-07-09T09:08:45Z</time>
      </trkpt>
      <trkpt lat="42.02524" lon="1.7263147">
        <time>2022-07-09T09:08:48Z</time>
      </trkpt>
      <trkpt lat="42.025265" lon="1.7264067">
        <time>2022-07-09T09:08:51Z</time>
      </trkpt>
      <trkpt lat="42.02529" lon="1.7265034">
        <time>2022-07-09T09:08:54Z</time>
      </trkpt>
      <trkpt lat="42.025307" lon="1.7265676">
        <time>2022-07-09T09:08:56Z</time>
      </trkpt>
      <trkpt lat="42.025326" lon="1.7266316">
        <time>2022-07-09T09:08:58Z</time>
      </trkpt>
      <trkpt lat="42.02535" lon="1.7266986">
        <time>2022-07-09T09:09:00Z</time>
      </trkpt>
      <trkpt lat="42.025368" lon="1.7267686">
        <time>2022-07-09T09:09:02Z</time>
      </trkpt>
      <trkpt lat="42.02539" lon="1.7268403">
        <time>2022-07-09T09:09:04Z</time>
      </trkpt>
      <trkpt lat="42.02541" lon="1.726908">
        <time>2022-07-09T09:09:06Z</time>
      </trkpt>
      <trkpt lat="42.02543" lon="1.726975">
        <time>2022-07-09T09:09:08Z</time>
      </trkpt>
      <trkpt lat="42.025444" lon="1.7270403">
        <time>2022-07-09T09:09:10Z</time>
      </trkpt>
      <trkpt lat="42.025463" lon="1.7271053">
        <time>2022-07-09T09:09:12Z</time>
      </trkpt>
      <trkpt lat="42.02549" lon="1.727191">
        <time>2022-07-09T09:09:15Z</time>
      </trkpt>
      <trkpt lat="42.025517" lon="1.7272733">
        <time>2022-07-09T09:09:18Z</time>
      </trkpt>
      <trkpt lat="42.02554" lon="1.7273517">
        <time>2022-07-09T09:09:21Z</time>
      </trkpt>
      <trkpt lat="42.025562" lon="1.7274306">
        <time>2022-07-09T09:09:24Z</time>
      </trkpt>
      <trkpt lat="42.02558" lon="1.7275096">
        <time>2022-07-09T09:09:27Z</time>
      </trkpt>
      <trkpt lat="42.025604" lon="1.7275872">
        <time>2022-07-09T09:09:30Z</time>
      </trkpt>
      <trkpt lat="42.025627" lon="1.7276623">
        <time>2022-07-09T09:09:33Z</time>
      </trkpt>
      <trkpt lat="42.025646" lon="1.7277353">
        <time>2022-07-09T09:09:36Z</time>
      </trkpt>
      <trkpt lat="42.02567" lon="1.7278093">
        <time>2022-07-09T09:09:39Z</time>
      </trkpt>
      <trkpt lat="42.025692" lon="1.727886">
        <time>2022-07-09T09:09:42Z</time>
      </trkpt>
      <trkpt lat="42.025715" lon="1.72796">
        <time>2022-07-09T09:09:45Z</time>
      </trkpt>
      <trkpt lat="42.025738" lon="1.7280335">
        <time>2022-07-09T09:09:48Z</time>
      </trkpt>
      <trkpt lat="42.02576" lon="1.728112">
        <time>2022-07-09T09:09:51Z</time>
      </trkpt>
      <trkpt lat="42.025784" lon="1.7281926">
        <time>2022-07-09T09:09:54Z</time>
      </trkpt>
      <trkpt lat="42.02581" lon="1.7282716">
        <time>2022-07-09T09:09:57Z</time>
      </trkpt>
      <trkpt lat="42.025837" lon="1.7283529">
        <time>2022-07-09T09:10:00Z</time>
      </trkpt>
      <trkpt lat="42.025864" lon="1.7284279">
        <time>2022-07-09T09:10:03Z</time>
      </trkpt>
      <trkpt lat="42.025887" lon="1.7285062">
        <time>2022-07-09T09:10:06Z</time>
      </trkpt>
      <trkpt lat="42.02591" lon="1.7285795">
        <time>2022-07-09T09:10:09Z</time>
      </trkpt>
      <trkpt lat="42.02594" lon="1.7286556">
        <time>2022-07-09T09:10:12Z</time>
      </trkpt>
      <trkpt lat="42.025967" lon="1.7287233">
        <time>2022-07-09T09:10:15Z</time>
      </trkpt>
      <trkpt lat="42.026005" lon="1.7287825">
        <time>2022-07-09T09:10:18Z</time>
      </trkpt>
      <trkpt lat="42.02604" lon="1.7288369">
        <time>2022-07-09T09:10:21Z</time>
      </trkpt>
      <trkpt lat="42.02608" lon="1.7288909">
        <time>2022-07-09T09:10:24Z</time>
      </trkpt>
      <trkpt lat="42.026127" lon="1.7289445">
        <time>2022-07-09T09:10:27Z</time>
      </trkpt>
      <trkpt lat="42.026173" lon="1.7289996">
        <time>2022-07-09T09:10:30Z</time>
      </trkpt>
      <trkpt lat="42.02621" lon="1.7290568">
        <time>2022-07-09T09:10:33Z</time>
      </trkpt>
      <trkpt lat="42.026257" lon="1.7291142">
        <time>2022-07-09T09:10:36Z</time>
      </trkpt>
      <trkpt lat="42.0263" lon="1.7291629">
        <time>2022-07-09T09:10:39Z</time>
      </trkpt>
      <trkpt lat="42.02634" lon="1.7292136">
        <time>2022-07-09T09:10:42Z</time>
      </trkpt>
      <trkpt lat="42.026375" lon="1.7292639">
        <time>2022-07-09T09:10:45Z</time>
      </trkpt>
      <trkpt lat="42.026413" lon="1.7293146">
        <time>2022-07-09T09:10:48Z</time>
      </trkpt>
      <trkpt lat="42.02645" lon="1.7293615">
        <time>2022-07-09T09:10:51Z</time>
      </trkpt>
      <trkpt lat="42.026493" lon="1.7294155">
        <time>2022-07-09T09:10:54Z</time>
      </trkpt>
      <trkpt lat="42.02654" lon="1.7294682">
        <time>2022-07-09T09:10:57Z</time>
      </trkpt>
      <trkpt lat="42.026585" lon="1.7295228">
        <time>2022-07-09T09:11:00Z</time>
      </trkpt>
      <trkpt lat="42.026627" lon="1.7295725">
        <time>2022-07-09T09:11:03Z</time>
      </trkpt>
      <trkpt lat="42.02667" lon="1.7296145">
        <time>2022-07-09T09:11:06Z</time>
      </trkpt>
      <trkpt lat="42.02671" lon="1.7296596">
        <time>2022-07-09T09:11:09Z</time>
      </trkpt>
      <trkpt lat="42.02676" lon="1.7297179">
        <time>2022-07-09T09:11:13Z</time>
      </trkpt>
      <trkpt lat="42.0268" lon="1.7297632">
        <time>2022-07-09T09:11:16Z</time>
      </trkpt>
      <trkpt lat="42.026848" lon="1.7298238">
        <time>2022-07-09T09:11:20Z</time>
      </trkpt>
      <trkpt lat="42.026886" lon="1.7298685">
        <time>2022-07-09T09:11:23Z</time>
      </trkpt>
      <trkpt lat="42.02694" lon="1.7299205">
        <time>2022-07-09T09:11:27Z</time>
      </trkpt>
      <trkpt lat="42.026978" lon="1.7299635">
        <time>2022-07-09T09:11:30Z</time>
      </trkpt>
      <trkpt lat="42.027023" lon="1.7300228">
        <time>2022-07-09T09:11:34Z</time>
      </trkpt>
      <trkpt lat="42.027058" lon="1.7300755">
        <time>2022-07-09T09:11:37Z</time>
      </trkpt>
      <trkpt lat="42.027096" lon="1.7301512">
        <time>2022-07-09T09:11:41Z</time>
      </trkpt>
      <trkpt lat="42.027115" lon="1.7302141">
        <time>2022-07-09T09:11:44Z</time>
      </trkpt>
      <trkpt lat="42.027126" lon="1.7303075">
        <time>2022-07-09T09:11:48Z</time>
      </trkpt>
      <trkpt lat="42.027126" lon="1.7304038">
        <time>2022-07-09T09:11:52Z</time>
      </trkpt>
      <trkpt lat="42.027126" lon="1.7304745">
        <time>2022-07-09T09:11:55Z</time>
      </trkpt>
      <trkpt lat="42.027122" lon="1.7305461">
        <time>2022-07-09T09:11:58Z</time>
      </trkpt>
      <trkpt lat="42.02712" lon="1.7306224">
        <time>2022-07-09T09:12:01Z</time>
      </trkpt>
      <trkpt lat="42.027115" lon="1.7307105">
        <time>2022-07-09T09:12:04Z</time>
      </trkpt>
      <trkpt lat="42.02711" lon="1.7308035">
        <time>2022-07-09T09:12:07Z</time>
      </trkpt>
      <trkpt lat="42.027107" lon="1.7308958">
        <time>2022-07-09T09:12:10Z</time>
      </trkpt>
      <trkpt lat="42.027107" lon="1.7309928">
        <time>2022-07-09T09:12:13Z</time>
      </trkpt>
      <trkpt lat="42.027107" lon="1.7310548">
        <time>2022-07-09T09:12:15Z</time>
      </trkpt>
      <trkpt lat="42.027107" lon="1.7311478">
        <time>2022-07-09T09:12:18Z</time>
      </trkpt>
      <trkpt lat="42.027107" lon="1.7312088">
        <time>2022-07-09T09:12:20Z</time>
      </trkpt>
      <trkpt lat="42.027107" lon="1.7313008">
        <time>2022-07-09T09:12:23Z</time>
      </trkpt>
      <trkpt lat="42.027107" lon="1.7313948">
        <time>2022-07-09T09:12:26Z</time>
      </trkpt>
      <trkpt lat="42.027103" lon="1.7314888">
        <time>2022-07-09T09:12:29Z</time>
      </trkpt>
      <trkpt lat="42.027103" lon="1.7315744">
        <time>2022-07-09T09:12:32Z</time>
      </trkpt>
      <trkpt lat="42.027103" lon="1.7316711">
        <time>2022-07-09T09:12:35Z</time>
      </trkpt>
      <trkpt lat="42.027107" lon="1.7317641">
        <time>2022-07-09T09:12:38Z</time>
      </trkpt>
      <trkpt lat="42.027103" lon="1.7318314">
        <time>2022-07-09T09:12:40Z</time>
      </trkpt>
      <trkpt lat="42.027107" lon="1.7319281">
        <time>2022-07-09T09:12:43Z</time>
      </trkpt>
      <trkpt lat="42.027107" lon="1.7320287">
        <time>2022-07-09T09:12:46Z</time>
      </trkpt>
      <trkpt lat="42.027115" lon="1.7321627">
        <time>2022-07-09T09:12:50Z</time>
      </trkpt>
      <trkpt lat="42.02712" lon="1.7322251">
        <time>2022-07-09T09:12:52Z</time>
      </trkpt>
      <trkpt lat="42.027134" lon="1.7323121">
        <time>2022-07-09T09:12:55Z</time>
      </trkpt>
      <trkpt lat="42.02716" lon="1.7324038">
        <time>2022-07-09T09:12:58Z</time>
      </trkpt>
      <trkpt lat="42.027187" lon="1.7324944">
        <time>2022-07-09T09:13:01Z</time>
      </trkpt>
      <trkpt lat="42.027206" lon="1.732553">
        <time>2022-07-09T09:13:03Z</time>
      </trkpt>
      <trkpt lat="42.02723" lon="1.7326441">
        <time>2022-07-09T09:13:06Z</time>
      </trkpt>
      <trkpt lat="42.02725" lon="1.7327037">
        <time>2022-07-09T09:13:08Z</time>
      </trkpt>
      <trkpt lat="42.027275" lon="1.7327887">
        <time>2022-07-09T09:13:11Z</time>
      </trkpt>
      <trkpt lat="42.02729" lon="1.7328477">
        <time>2022-07-09T09:13:13Z</time>
      </trkpt>
      <trkpt lat="42.027317" lon="1.732936">
        <time>2022-07-09T09:13:16Z</time>
      </trkpt>
      <trkpt lat="42.027332" lon="1.7329947">
        <time>2022-07-09T09:13:18Z</time>
      </trkpt>
      <trkpt lat="42.02735" lon="1.7330787">
        <time>2022-07-09T09:13:21Z</time>
      </trkpt>
      <trkpt lat="42.027378" lon="1.7331643">
        <time>2022-07-09T09:13:24Z</time>
      </trkpt>
      <trkpt lat="42.027397" lon="1.7332231">
        <time>2022-07-09T09:13:26Z</time>
      </trkpt>
      <trkpt lat="42.027424" lon="1.7333083">
        <time>2022-07-09T09:13:29Z</time>
      </trkpt>
      <trkpt lat="42.02745" lon="1.7333887">
        <time>2022-07-09T09:13:32Z</time>
      </trkpt>
      <trkpt lat="42.027473" lon="1.7334636">
        <time>2022-07-09T09:13:35Z</time>
      </trkpt>
      <trkpt lat="42.0275" lon="1.7335414">
        <time>2022-07-09T09:13:38Z</time>
      </trkpt>
      <trkpt lat="42.027527" lon="1.7336227">
        <time>2022-07-09T09:13:41Z</time>
      </trkpt>
      <trkpt lat="42.027554" lon="1.7337067">
        <time>2022-07-09T09:13:44Z</time>
      </trkpt>
      <trkpt lat="42.027573" lon="1.7337626">
        <time>2022-07-09T09:13:46Z</time>
      </trkpt>
      <trkpt lat="42.02759" lon="1.733852">
        <time>2022-07-09T09:13:49Z</time>
      </trkpt>
      <trkpt lat="42.027615" lon="1.733941">
        <time>2022-07-09T09:13:52Z</time>
      </trkpt>
      <trkpt lat="42.027645" lon="1.7340333">
        <time>2022-07-09T09:13:55Z</time>
      </trkpt>
      <trkpt lat="42.027668" lon="1.7340957">
        <time>2022-07-09T09:13:57Z</time>
      </trkpt>
      <trkpt lat="42.027695" lon="1.7341527">
        <time>2022-07-09T09:13:59Z</time>
      </trkpt>
      <trkpt lat="42.027733" lon="1.734237">
        <time>2022-07-09T09:14:02Z</time>
      </trkpt>
      <trkpt lat="42.027763" lon="1.7343243">
        <time>2022-07-09T09:14:05Z</time>
      </trkpt>
      <trkpt lat="42.027794" lon="1.7344106">
        <time>2022-07-09T09:14:08Z</time>
      </trkpt>
      <trkpt lat="42.027824" lon="1.7344986">
        <time>2022-07-09T09:14:11Z</time>
      </trkpt>
      <trkpt lat="42.02786" lon="1.7345773">
        <time>2022-07-09T09:14:14Z</time>
      </trkpt>
      <trkpt lat="42.027897" lon="1.7346476">
        <time>2022-07-09T09:14:17Z</time>
      </trkpt>
      <trkpt lat="42.027946" lon="1.7346916">
        <time>2022-07-09T09:14:20Z</time>
      </trkpt>
      <trkpt lat="42.028015" lon="1.734709">
        <time>2022-07-09T09:14:23Z</time>
      </trkpt>
      <trkpt lat="42.02808" lon="1.734696">
        <time>2022-07-09T09:14:26Z</time>
      </trkpt>
      <trkpt lat="42.028126" lon="1.7346786">
        <time>2022-07-09T09:14:28Z</time>
      </trkpt>
      <trkpt lat="42.02819" lon="1.7346383">
        <time>2022-07-09T09:14:31Z</time>
      </trkpt>
      <trkpt lat="42.028255" lon="1.7345793">
        <time>2022-07-09T09:14:34Z</time>
      </trkpt>
      <trkpt lat="42.028297" lon="1.7345387">
        <time>2022-07-09T09:14:36Z</time>
      </trkpt>
      <trkpt lat="42.028343" lon="1.734497">
        <time>2022-07-09T09:14:38Z</time>
      </trkpt>
      <trkpt lat="42.028385" lon="1.7344496">
        <time>2022-07-09T09:14:40Z</time>
      </trkpt>
      <trkpt lat="42.02843" lon="1.734403">
        <time>2022-07-09T09:14:42Z</time>
      </trkpt>
      <trkpt lat="42.02848" lon="1.73435">
        <time>2022-07-09T09:14:44Z</time>
      </trkpt>
      <trkpt lat="42.028526" lon="1.734298">
        <time>2022-07-09T09:14:46Z</time>
      </trkpt>
      <trkpt lat="42.028576" lon="1.7342453">
        <time>2022-07-09T09:14:48Z</time>
      </trkpt>
      <trkpt lat="42.02862" lon="1.7341927">
        <time>2022-07-09T09:14:50Z</time>
      </trkpt>
      <trkpt lat="42.028667" lon="1.7341423">
        <time>2022-07-09T09:14:52Z</time>
      </trkpt>
      <trkpt lat="42.028717" lon="1.7340953">
        <time>2022-07-09T09:14:54Z</time>
      </trkpt>
      <trkpt lat="42.028774" lon="1.7340487">
        <time>2022-07-09T09:14:56Z</time>
      </trkpt>
      <trkpt lat="42.02883" lon="1.7340051">
        <time>2022-07-09T09:14:58Z</time>
      </trkpt>
      <trkpt lat="42.028893" lon="1.7339771">
        <time>2022-07-09T09:15:00Z</time>
      </trkpt>
      <trkpt lat="42.02895" lon="1.7339721">
        <time>2022-07-09T09:15:02Z</time>
      </trkpt>
      <trkpt lat="42.028996" lon="1.7339834">
        <time>2022-07-09T09:15:04Z</time>
      </trkpt>
      <trkpt lat="42.029045" lon="1.7340117">
        <time>2022-07-09T09:15:07Z</time>
      </trkpt>
      <trkpt lat="42.029087" lon="1.734064">
        <time>2022-07-09T09:15:10Z</time>
      </trkpt>
      <trkpt lat="42.029114" lon="1.7341274">
        <time>2022-07-09T09:15:13Z</time>
      </trkpt>
      <trkpt lat="42.029144" lon="1.734195">
        <time>2022-07-09T09:15:16Z</time>
      </trkpt>
      <trkpt lat="42.02917" lon="1.7342657">
        <time>2022-07-09T09:15:19Z</time>
      </trkpt>
      <trkpt lat="42.029198" lon="1.7343373">
        <time>2022-07-09T09:15:22Z</time>
      </trkpt>
      <trkpt lat="42.02923" lon="1.734409">
        <time>2022-07-09T09:15:25Z</time>
      </trkpt>
      <trkpt lat="42.02926" lon="1.734481">
        <time>2022-07-09T09:15:28Z</time>
      </trkpt>
      <trkpt lat="42.029293" lon="1.7345623">
        <time>2022-07-09T09:15:31Z</time>
      </trkpt>
      <trkpt lat="42.02932" lon="1.7346383">
        <time>2022-07-09T09:15:34Z</time>
      </trkpt>
      <trkpt lat="42.029358" lon="1.7347144">
        <time>2022-07-09T09:15:37Z</time>
      </trkpt>
      <trkpt lat="42.029392" lon="1.7347846">
        <time>2022-07-09T09:15:40Z</time>
      </trkpt>
      <trkpt lat="42.029427" lon="1.7348647">
        <time>2022-07-09T09:15:43Z</time>
      </trkpt>
      <trkpt lat="42.02946" lon="1.734947">
        <time>2022-07-09T09:15:46Z</time>
      </trkpt>
      <trkpt lat="42.02949" lon="1.735022">
        <time>2022-07-09T09:15:49Z</time>
      </trkpt>
      <trkpt lat="42.029522" lon="1.7350969">
        <time>2022-07-09T09:15:52Z</time>
      </trkpt>
      <trkpt lat="42.029552" lon="1.7351676">
        <time>2022-07-09T09:15:55Z</time>
      </trkpt>
      <trkpt lat="42.029583" lon="1.7352413">
        <time>2022-07-09T09:15:58Z</time>
      </trkpt>
      <trkpt lat="42.029613" lon="1.7353109">
        <time>2022-07-09T09:16:01Z</time>
      </trkpt>
      <trkpt lat="42.029644" lon="1.735384">
        <time>2022-07-09T09:16:04Z</time>
      </trkpt>
      <trkpt lat="42.029675" lon="1.7354543">
        <time>2022-07-09T09:16:07Z</time>
      </trkpt>
      <trkpt lat="42.029705" lon="1.7355169">
        <time>2022-07-09T09:16:10Z</time>
      </trkpt>
      <trkpt lat="42.029736" lon="1.73558">
        <time>2022-07-09T09:16:13Z</time>
      </trkpt>
      <trkpt lat="42.029766" lon="1.7356457">
        <time>2022-07-09T09:16:16Z</time>
      </trkpt>
      <trkpt lat="42.029793" lon="1.7357183">
        <time>2022-07-09T09:16:19Z</time>
      </trkpt>
      <trkpt lat="42.029823" lon="1.7357852">
        <time>2022-07-09T09:16:22Z</time>
      </trkpt>
      <trkpt lat="42.029854" lon="1.735858">
        <time>2022-07-09T09:16:25Z</time>
      </trkpt>
      <trkpt lat="42.029884" lon="1.735932">
        <time>2022-07-09T09:16:28Z</time>
      </trkpt>
      <trkpt lat="42.02992" lon="1.736004">
        <time>2022-07-09T09:16:31Z</time>
      </trkpt>
      <trkpt lat="42.029957" lon="1.7360783">
        <time>2022-07-09T09:16:34Z</time>
      </trkpt>
      <trkpt lat="42.02999" lon="1.736149">
        <time>2022-07-09T09:16:37Z</time>
      </trkpt>
      <trkpt lat="42.030025" lon="1.7362196">
        <time>2022-07-09T09:16:40Z</time>
      </trkpt>
      <trkpt lat="42.03006" lon="1.7362835">
        <time>2022-07-09T09:16:43Z</time>
      </trkpt>
      <trkpt lat="42.03009" lon="1.7363536">
        <time>2022-07-09T09:16:46Z</time>
      </trkpt>
      <trkpt lat="42.030125" lon="1.7364212">
        <time>2022-07-09T09:16:49Z</time>
      </trkpt>
      <trkpt lat="42.030167" lon="1.7364736">
        <time>2022-07-09T09:16:52Z</time>
      </trkpt>
      <trkpt lat="42.030224" lon="1.7365212">
        <time>2022-07-09T09:16:55Z</time>
      </trkpt>
      <trkpt lat="42.030285" lon="1.7365426">
        <time>2022-07-09T09:16:58Z</time>
      </trkpt>
      <trkpt lat="42.030342" lon="1.7365422">
        <time>2022-07-09T09:17:01Z</time>
      </trkpt>
      <trkpt lat="42.030407" lon="1.736527">
        <time>2022-07-09T09:17:04Z</time>
      </trkpt>
      <trkpt lat="42.030464" lon="1.7364979">
        <time>2022-07-09T09:17:07Z</time>
      </trkpt>
      <trkpt lat="42.030533" lon="1.7364665">
        <time>2022-07-09T09:17:10Z</time>
      </trkpt>
      <trkpt lat="42.030582" lon="1.736442">
        <time>2022-07-09T09:17:12Z</time>
      </trkpt>
      <trkpt lat="42.030632" lon="1.7364129">
        <time>2022-07-09T09:17:14Z</time>
      </trkpt>
      <trkpt lat="42.03069" lon="1.7363836">
        <time>2022-07-09T09:17:16Z</time>
      </trkpt>
      <trkpt lat="42.030746" lon="1.7363499">
        <time>2022-07-09T09:17:18Z</time>
      </trkpt>
      <trkpt lat="42.030804" lon="1.7363156">
        <time>2022-07-09T09:17:20Z</time>
      </trkpt>
      <trkpt lat="42.03086" lon="1.7362796">
        <time>2022-07-09T09:17:22Z</time>
      </trkpt>
      <trkpt lat="42.03092" lon="1.7362412">
        <time>2022-07-09T09:17:24Z</time>
      </trkpt>
      <trkpt lat="42.030975" lon="1.7362056">
        <time>2022-07-09T09:17:26Z</time>
      </trkpt>
      <trkpt lat="42.031033" lon="1.7361723">
        <time>2022-07-09T09:17:28Z</time>
      </trkpt>
      <trkpt lat="42.031086" lon="1.7361393">
        <time>2022-07-09T09:17:30Z</time>
      </trkpt>
      <trkpt lat="42.031136" lon="1.7361042">
        <time>2022-07-09T09:17:32Z</time>
      </trkpt>
      <trkpt lat="42.031185" lon="1.7360697">
        <time>2022-07-09T09:17:34Z</time>
      </trkpt>
      <trkpt lat="42.03123" lon="1.7360393">
        <time>2022-07-09T09:17:36Z</time>
      </trkpt>
      <trkpt lat="42.031277" lon="1.7360103">
        <time>2022-07-09T09:17:38Z</time>
      </trkpt>
      <trkpt lat="42.031322" lon="1.735979">
        <time>2022-07-09T09:17:40Z</time>
      </trkpt>
      <trkpt lat="42.03137" lon="1.7359483">
        <time>2022-07-09T09:17:42Z</time>
      </trkpt>
      <trkpt lat="42.031437" lon="1.735906">
        <time>2022-07-09T09:17:45Z</time>
      </trkpt>
      <trkpt lat="42.031483" lon="1.7358769">
        <time>2022-07-09T09:17:47Z</time>
      </trkpt>
      <trkpt lat="42.03155" lon="1.7358394">
        <time>2022-07-09T09:17:50Z</time>
      </trkpt>
      <trkpt lat="42.031635" lon="1.7357846">
        <time>2022-07-09T09:17:54Z</time>
      </trkpt>
      <trkpt lat="42.031677" lon="1.7357566">
        <time>2022-07-09T09:17:56Z</time>
      </trkpt>
      <trkpt lat="42.031746" lon="1.7357147">
        <time>2022-07-09T09:17:59Z</time>
      </trkpt>
      <trkpt lat="42.031815" lon="1.7356743">
        <time>2022-07-09T09:18:02Z</time>
      </trkpt>
      <trkpt lat="42.031864" lon="1.7356436">
        <time>2022-07-09T09:18:05Z</time>
      </trkpt>
      <trkpt lat="42.031918" lon="1.7356123">
        <time>2022-07-09T09:18:07Z</time>
      </trkpt>
      <trkpt lat="42.031967" lon="1.7355807">
        <time>2022-07-09T09:18:09Z</time>
      </trkpt>
      <trkpt lat="42.032013" lon="1.735549">
        <time>2022-07-09T09:18:11Z</time>
      </trkpt>
      <trkpt lat="42.03206" lon="1.73552">
        <time>2022-07-09T09:18:13Z</time>
      </trkpt>
      <trkpt lat="42.03211" lon="1.7354944">
        <time>2022-07-09T09:18:15Z</time>
      </trkpt>
      <trkpt lat="42.032158" lon="1.7354664">
        <time>2022-07-09T09:18:17Z</time>
      </trkpt>
      <trkpt lat="42.0322" lon="1.7354324">
        <time>2022-07-09T09:18:19Z</time>
      </trkpt>
      <trkpt lat="42.03226" lon="1.7353867">
        <time>2022-07-09T09:18:22Z</time>
      </trkpt>
      <trkpt lat="42.032303" lon="1.7353576">
        <time>2022-07-09T09:18:24Z</time>
      </trkpt>
      <trkpt lat="42.03237" lon="1.735309">
        <time>2022-07-09T09:18:27Z</time>
      </trkpt>
      <trkpt lat="42.03242" lon="1.7352804">
        <time>2022-07-09T09:18:29Z</time>
      </trkpt>
      <trkpt lat="42.032475" lon="1.7352554">
        <time>2022-07-09T09:18:31Z</time>
      </trkpt>
      <trkpt lat="42.03252" lon="1.7352337">
        <time>2022-07-09T09:18:33Z</time>
      </trkpt>
      <trkpt lat="42.03257" lon="1.7352104">
        <time>2022-07-09T09:18:35Z</time>
      </trkpt>
      <trkpt lat="42.032623" lon="1.7351924">
        <time>2022-07-09T09:18:37Z</time>
      </trkpt>
      <trkpt lat="42.032673" lon="1.7351761">
        <time>2022-07-09T09:18:39Z</time>
      </trkpt>
      <trkpt lat="42.032726" lon="1.7351611">
        <time>2022-07-09T09:18:41Z</time>
      </trkpt>
      <trkpt lat="42.032803" lon="1.735139">
        <time>2022-07-09T09:18:44Z</time>
      </trkpt>
      <trkpt lat="42.032852" lon="1.735129">
        <time>2022-07-09T09:18:46Z</time>
      </trkpt>
      <trkpt lat="42.0329" lon="1.73512">
        <time>2022-07-09T09:18:48Z</time>
      </trkpt>
      <trkpt lat="42.032974" lon="1.7351047">
        <time>2022-07-09T09:18:51Z</time>
      </trkpt>
      <trkpt lat="42.033043" lon="1.7350917">
        <time>2022-07-09T09:18:54Z</time>
      </trkpt>
      <trkpt lat="42.033115" lon="1.7350774">
        <time>2022-07-09T09:18:57Z</time>
      </trkpt>
      <trkpt lat="42.033184" lon="1.7350637">
        <time>2022-07-09T09:19:00Z</time>
      </trkpt>
      <trkpt lat="42.033253" lon="1.7350518">
        <time>2022-07-09T09:19:03Z</time>
      </trkpt>
      <trkpt lat="42.033318" lon="1.735038">
        <time>2022-07-09T09:19:06Z</time>
      </trkpt>
      <trkpt lat="42.03338" lon="1.7350247">
        <time>2022-07-09T09:19:09Z</time>
      </trkpt>
      <trkpt lat="42.033443" lon="1.7350034">
        <time>2022-07-09T09:19:12Z</time>
      </trkpt>
      <trkpt lat="42.033504" lon="1.7349824">
        <time>2022-07-09T09:19:15Z</time>
      </trkpt>
      <trkpt lat="42.033573" lon="1.7349705">
        <time>2022-07-09T09:19:18Z</time>
      </trkpt>
      <trkpt lat="42.033634" lon="1.7349608">
        <time>2022-07-09T09:19:21Z</time>
      </trkpt>
      <trkpt lat="42.033695" lon="1.7349445">
        <time>2022-07-09T09:19:24Z</time>
      </trkpt>
      <trkpt lat="42.033752" lon="1.73493">
        <time>2022-07-09T09:19:27Z</time>
      </trkpt>
      <trkpt lat="42.033813" lon="1.7349191">
        <time>2022-07-09T09:19:30Z</time>
      </trkpt>
      <trkpt lat="42.03388" lon="1.7349148">
        <time>2022-07-09T09:19:33Z</time>
      </trkpt>
      <trkpt lat="42.033947" lon="1.7349178">
        <time>2022-07-09T09:19:36Z</time>
      </trkpt>
      <trkpt lat="42.03401" lon="1.7349094">
        <time>2022-07-09T09:19:39Z</time>
      </trkpt>
      <trkpt lat="42.034073" lon="1.7348974">
        <time>2022-07-09T09:19:42Z</time>
      </trkpt>
      <trkpt lat="42.03414" lon="1.7348894">
        <time>2022-07-09T09:19:45Z</time>
      </trkpt>
      <trkpt lat="42.034203" lon="1.7348834">
        <time>2022-07-09T09:19:48Z</time>
      </trkpt>
      <trkpt lat="42.034267" lon="1.7348784">
        <time>2022-07-09T09:19:51Z</time>
      </trkpt>
      <trkpt lat="42.03433" lon="1.7348717">
        <time>2022-07-09T09:19:54Z</time>
      </trkpt>
      <trkpt lat="42.034397" lon="1.7348688">
        <time>2022-07-09T09:19:57Z</time>
      </trkpt>
      <trkpt lat="42.03446" lon="1.7348588">
        <time>2022-07-09T09:20:00Z</time>
      </trkpt>
      <trkpt lat="42.03452" lon="1.7348421">
        <time>2022-07-09T09:20:03Z</time>
      </trkpt>
      <trkpt lat="42.034584" lon="1.7348255">
        <time>2022-07-09T09:20:06Z</time>
      </trkpt>
      <trkpt lat="42.03464" lon="1.7348131">
        <time>2022-07-09T09:20:09Z</time>
      </trkpt>
      <trkpt lat="42.0347" lon="1.7347964">
        <time>2022-07-09T09:20:12Z</time>
      </trkpt>
      <trkpt lat="42.034763" lon="1.7347845">
        <time>2022-07-09T09:20:15Z</time>
      </trkpt>
      <trkpt lat="42.034824" lon="1.7347748">
        <time>2022-07-09T09:20:18Z</time>
      </trkpt>
      <trkpt lat="42.03489" lon="1.7347765">
        <time>2022-07-09T09:20:21Z</time>
      </trkpt>
      <trkpt lat="42.034954" lon="1.7347711">
        <time>2022-07-09T09:20:24Z</time>
      </trkpt>
      <trkpt lat="42.03502" lon="1.7347668">
        <time>2022-07-09T09:20:27Z</time>
      </trkpt>
      <trkpt lat="42.0351" lon="1.7347784">
        <time>2022-07-09T09:20:31Z</time>
      </trkpt>
      <trkpt lat="42.035152" lon="1.7347912">
        <time>2022-07-09T09:20:34Z</time>
      </trkpt>
      <trkpt lat="42.035206" lon="1.7348081">
        <time>2022-07-09T09:20:37Z</time>
      </trkpt>
      <trkpt lat="42.035267" lon="1.7348328">
        <time>2022-07-09T09:20:40Z</time>
      </trkpt>
      <trkpt lat="42.035324" lon="1.7348571">
        <time>2022-07-09T09:20:43Z</time>
      </trkpt>
      <trkpt lat="42.035397" lon="1.7348751">
        <time>2022-07-09T09:20:47Z</time>
      </trkpt>
      <trkpt lat="42.03546" lon="1.7349035">
        <time>2022-07-09T09:20:50Z</time>
      </trkpt>
      <trkpt lat="42.035515" lon="1.7349344">
        <time>2022-07-09T09:20:53Z</time>
      </trkpt>
      <trkpt lat="42.03557" lon="1.7349608">
        <time>2022-07-09T09:20:56Z</time>
      </trkpt>
      <trkpt lat="42.035618" lon="1.7349811">
        <time>2022-07-09T09:20:59Z</time>
      </trkpt>
      <trkpt lat="42.035675" lon="1.7350061">
        <time>2022-07-09T09:21:02Z</time>
      </trkpt>
      <trkpt lat="42.035732" lon="1.7350278">
        <time>2022-07-09T09:21:05Z</time>
      </trkpt>
      <trkpt lat="42.03579" lon="1.7350541">
        <time>2022-07-09T09:21:08Z</time>
      </trkpt>
      <trkpt lat="42.035854" lon="1.7350804">
        <time>2022-07-09T09:21:11Z</time>
      </trkpt>
      <trkpt lat="42.035915" lon="1.7351147">
        <time>2022-07-09T09:21:14Z</time>
      </trkpt>
      <trkpt lat="42.035988" lon="1.7351458">
        <time>2022-07-09T09:21:17Z</time>
      </trkpt>
      <trkpt lat="42.036034" lon="1.7351651">
        <time>2022-07-09T09:21:19Z</time>
      </trkpt>
      <trkpt lat="42.03611" lon="1.7352041">
        <time>2022-07-09T09:21:22Z</time>
      </trkpt>
      <trkpt lat="42.03616" lon="1.7352324">
        <time>2022-07-09T09:21:24Z</time>
      </trkpt>
      <trkpt lat="42.03621" lon="1.7352574">
        <time>2022-07-09T09:21:26Z</time>
      </trkpt>
      <trkpt lat="42.03626" lon="1.7352794">
        <time>2022-07-09T09:21:28Z</time>
      </trkpt>
      <trkpt lat="42.036316" lon="1.7353071">
        <time>2022-07-09T09:21:31Z</time>
      </trkpt>
      <trkpt lat="42.03637" lon="1.7353307">
        <time>2022-07-09T09:21:34Z</time>
      </trkpt>
      <trkpt lat="42.036423" lon="1.7353528">
        <time>2022-07-09T09:21:37Z</time>
      </trkpt>
      <trkpt lat="42.036476" lon="1.7353724">
        <time>2022-07-09T09:21:40Z</time>
      </trkpt>
      <trkpt lat="42.036533" lon="1.735398">
        <time>2022-07-09T09:21:43Z</time>
      </trkpt>
      <trkpt lat="42.036587" lon="1.7354177">
        <time>2022-07-09T09:21:46Z</time>
      </trkpt>
      <trkpt lat="42.03664" lon="1.7354493">
        <time>2022-07-09T09:21:49Z</time>
      </trkpt>
      <trkpt lat="42.03669" lon="1.7354788">
        <time>2022-07-09T09:21:52Z</time>
      </trkpt>
      <trkpt lat="42.036743" lon="1.7355064">
        <time>2022-07-09T09:21:55Z</time>
      </trkpt>
      <trkpt lat="42.036793" lon="1.7355313">
        <time>2022-07-09T09:21:58Z</time>
      </trkpt>
      <trkpt lat="42.036854" lon="1.7355493">
        <time>2022-07-09T09:22:01Z</time>
      </trkpt>
      <trkpt lat="42.03691" lon="1.7355717">
        <time>2022-07-09T09:22:04Z</time>
      </trkpt>
      <trkpt lat="42.036972" lon="1.7355983">
        <time>2022-07-09T09:22:07Z</time>
      </trkpt>
      <trkpt lat="42.03703" lon="1.7356243">
        <time>2022-07-09T09:22:10Z</time>
      </trkpt>
      <trkpt lat="42.037083" lon="1.7356464">
        <time>2022-07-09T09:22:13Z</time>
      </trkpt>
      <trkpt lat="42.03714" lon="1.7356681">
        <time>2022-07-09T09:22:16Z</time>
      </trkpt>
      <trkpt lat="42.037197" lon="1.735694">
        <time>2022-07-09T09:22:19Z</time>
      </trkpt>
      <trkpt lat="42.037254" lon="1.7357217">
        <time>2022-07-09T09:22:22Z</time>
      </trkpt>
      <trkpt lat="42.037308" lon="1.735753">
        <time>2022-07-09T09:22:25Z</time>
      </trkpt>
      <trkpt lat="42.037365" lon="1.7357813">
        <time>2022-07-09T09:22:28Z</time>
      </trkpt>
      <trkpt lat="42.037422" lon="1.7358013">
        <time>2022-07-09T09:22:31Z</time>
      </trkpt>
      <trkpt lat="42.037476" lon="1.735824">
        <time>2022-07-09T09:22:34Z</time>
      </trkpt>
      <trkpt lat="42.03753" lon="1.7358526">
        <time>2022-07-09T09:22:37Z</time>
      </trkpt>
      <trkpt lat="42.037586" lon="1.7358843">
        <time>2022-07-09T09:22:40Z</time>
      </trkpt>
      <trkpt lat="42.037643" lon="1.735917">
        <time>2022-07-09T09:22:43Z</time>
      </trkpt>
      <trkpt lat="42.037693" lon="1.735955">
        <time>2022-07-09T09:22:46Z</time>
      </trkpt>
      <trkpt lat="42.037743" lon="1.7359966">
        <time>2022-07-09T09:22:49Z</time>
      </trkpt>
      <trkpt lat="42.037796" lon="1.736045">
        <time>2022-07-09T09:22:52Z</time>
      </trkpt>
      <trkpt lat="42.03785" lon="1.7361033">
        <time>2022-07-09T09:22:55Z</time>
      </trkpt>
      <trkpt lat="42.037907" lon="1.7361662">
        <time>2022-07-09T09:22:58Z</time>
      </trkpt>
      <trkpt lat="42.037983" lon="1.736252">
        <time>2022-07-09T09:23:02Z</time>
      </trkpt>
      <trkpt lat="42.03804" lon="1.736321">
        <time>2022-07-09T09:23:05Z</time>
      </trkpt>
      <trkpt lat="42.038082" lon="1.7363687">
        <time>2022-07-09T09:23:07Z</time>
      </trkpt>
      <trkpt lat="42.038124" lon="1.7364156">
        <time>2022-07-09T09:23:09Z</time>
      </trkpt>
      <trkpt lat="42.038162" lon="1.7364609">
        <time>2022-07-09T09:23:11Z</time>
      </trkpt>
      <trkpt lat="42.038204" lon="1.7365073">
        <time>2022-07-09T09:23:13Z</time>
      </trkpt>
      <trkpt lat="42.03825" lon="1.736553">
        <time>2022-07-09T09:23:15Z</time>
      </trkpt>
      <trkpt lat="42.038292" lon="1.736594">
        <time>2022-07-09T09:23:17Z</time>
      </trkpt>
      <trkpt lat="42.038334" lon="1.7366302">
        <time>2022-07-09T09:23:19Z</time>
      </trkpt>
      <trkpt lat="42.038383" lon="1.7366599">
        <time>2022-07-09T09:23:21Z</time>
      </trkpt>
      <trkpt lat="42.038433" lon="1.7366799">
        <time>2022-07-09T09:23:23Z</time>
      </trkpt>
      <trkpt lat="42.038486" lon="1.736687">
        <time>2022-07-09T09:23:25Z</time>
      </trkpt>
      <trkpt lat="42.038563" lon="1.7366729">
        <time>2022-07-09T09:23:28Z</time>
      </trkpt>
      <trkpt lat="42.03861" lon="1.7366506">
        <time>2022-07-09T09:23:30Z</time>
      </trkpt>
      <trkpt lat="42.038654" lon="1.7366192">
        <time>2022-07-09T09:23:32Z</time>
      </trkpt>
      <trkpt lat="42.03872" lon="1.7365689">
        <time>2022-07-09T09:23:35Z</time>
      </trkpt>
      <trkpt lat="42.038776" lon="1.7365179">
        <time>2022-07-09T09:23:38Z</time>
      </trkpt>
      <trkpt lat="42.038834" lon="1.736468">
        <time>2022-07-09T09:23:41Z</time>
      </trkpt>
      <trkpt lat="42.038883" lon="1.7364233">
        <time>2022-07-09T09:23:44Z</time>
      </trkpt>
      <trkpt lat="42.038933" lon="1.7363813">
        <time>2022-07-09T09:23:47Z</time>
      </trkpt>
      <trkpt lat="42.038982" lon="1.7363366">
        <time>2022-07-09T09:23:50Z</time>
      </trkpt>
      <trkpt lat="42.03903" lon="1.7362906">
        <time>2022-07-09T09:23:53Z</time>
      </trkpt>
      <trkpt lat="42.039078" lon="1.7362499">
        <time>2022-07-09T09:23:56Z</time>
      </trkpt>
      <trkpt lat="42.03913" lon="1.7362183">
        <time>2022-07-09T09:23:59Z</time>
      </trkpt>
      <trkpt lat="42.03919" lon="1.7361989">
        <time>2022-07-09T09:24:02Z</time>
      </trkpt>
      <trkpt lat="42.039246" lon="1.7361963">
        <time>2022-07-09T09:24:05Z</time>
      </trkpt>
      <trkpt lat="42.039307" lon="1.7362093">
        <time>2022-07-09T09:24:08Z</time>
      </trkpt>
      <trkpt lat="42.039364" lon="1.7362343">
        <time>2022-07-09T09:24:11Z</time>
      </trkpt>
      <trkpt lat="42.03942" lon="1.7362729">
        <time>2022-07-09T09:24:14Z</time>
      </trkpt>
      <trkpt lat="42.039474" lon="1.7363163">
        <time>2022-07-09T09:24:17Z</time>
      </trkpt>
      <trkpt lat="42.039524" lon="1.7363636">
        <time>2022-07-09T09:24:20Z</time>
      </trkpt>
      <trkpt lat="42.039577" lon="1.7364113">
        <time>2022-07-09T09:24:23Z</time>
      </trkpt>
      <trkpt lat="42.039627" lon="1.736457">
        <time>2022-07-09T09:24:26Z</time>
      </trkpt>
      <trkpt lat="42.03968" lon="1.7365023">
        <time>2022-07-09T09:24:29Z</time>
      </trkpt>
      <trkpt lat="42.03973" lon="1.7365483">
        <time>2022-07-09T09:24:32Z</time>
      </trkpt>
      <trkpt lat="42.03978" lon="1.7365986">
        <time>2022-07-09T09:24:35Z</time>
      </trkpt>
      <trkpt lat="42.03983" lon="1.7366476">
        <time>2022-07-09T09:24:38Z</time>
      </trkpt>
      <trkpt lat="42.039883" lon="1.7366956">
        <time>2022-07-09T09:24:41Z</time>
      </trkpt>
      <trkpt lat="42.039932" lon="1.7367363">
        <time>2022-07-09T09:24:44Z</time>
      </trkpt>
      <trkpt lat="42.03998" lon="1.7367766">
        <time>2022-07-09T09:24:47Z</time>
      </trkpt>
      <trkpt lat="42.040035" lon="1.7368066">
        <time>2022-07-09T09:24:50Z</time>
      </trkpt>
      <trkpt lat="42.040096" lon="1.7368379">
        <time>2022-07-09T09:24:53Z</time>
      </trkpt>
      <trkpt lat="42.04016" lon="1.7368599">
        <time>2022-07-09T09:24:56Z</time>
      </trkpt>
      <trkpt lat="42.040226" lon="1.7368675">
        <time>2022-07-09T09:24:59Z</time>
      </trkpt>
      <trkpt lat="42.04029" lon="1.7368623">
        <time>2022-07-09T09:25:02Z</time>
      </trkpt>
      <trkpt lat="42.04035" lon="1.7368512">
        <time>2022-07-09T09:25:05Z</time>
      </trkpt>
      <trkpt lat="42.04042" lon="1.7368382">
        <time>2022-07-09T09:25:08Z</time>
      </trkpt>
      <trkpt lat="42.04048" lon="1.736826">
        <time>2022-07-09T09:25:11Z</time>
      </trkpt>
      <trkpt lat="42.040546" lon="1.7368146">
        <time>2022-07-09T09:25:14Z</time>
      </trkpt>
      <trkpt lat="42.040607" lon="1.7367972">
        <time>2022-07-09T09:25:17Z</time>
      </trkpt>
      <trkpt lat="42.040672" lon="1.7367862">
        <time>2022-07-09T09:25:20Z</time>
      </trkpt>
      <trkpt lat="42.040733" lon="1.7367762">
        <time>2022-07-09T09:25:23Z</time>
      </trkpt>
      <trkpt lat="42.040802" lon="1.736771">
        <time>2022-07-09T09:25:26Z</time>
      </trkpt>
      <trkpt lat="42.04087" lon="1.7367606">
        <time>2022-07-09T09:25:29Z</time>
      </trkpt>
      <trkpt lat="42.04093" lon="1.7367415">
        <time>2022-07-09T09:25:32Z</time>
      </trkpt>
      <trkpt lat="42.040997" lon="1.7367239">
        <time>2022-07-09T09:25:35Z</time>
      </trkpt>
      <trkpt lat="42.041058" lon="1.7367156">
        <time>2022-07-09T09:25:38Z</time>
      </trkpt>
      <trkpt lat="42.041122" lon="1.7367086">
        <time>2022-07-09T09:25:41Z</time>
      </trkpt>
      <trkpt lat="42.041183" lon="1.7366943">
        <time>2022-07-09T09:25:44Z</time>
      </trkpt>
      <trkpt lat="42.041245" lon="1.7366819">
        <time>2022-07-09T09:25:47Z</time>
      </trkpt>
      <trkpt lat="42.041306" lon="1.7366747">
        <time>2022-07-09T09:25:50Z</time>
      </trkpt>
      <trkpt lat="42.041367" lon="1.7366667">
        <time>2022-07-09T09:25:53Z</time>
      </trkpt>
      <trkpt lat="42.04143" lon="1.7366602">
        <time>2022-07-09T09:25:56Z</time>
      </trkpt>
      <trkpt lat="42.041492" lon="1.7366576">
        <time>2022-07-09T09:25:59Z</time>
      </trkpt>
      <trkpt lat="42.041553" lon="1.7366556">
        <time>2022-07-09T09:26:02Z</time>
      </trkpt>
      <trkpt lat="42.041615" lon="1.7366523">
        <time>2022-07-09T09:26:05Z</time>
      </trkpt>
      <trkpt lat="42.04168" lon="1.7366407">
        <time>2022-07-09T09:26:08Z</time>
      </trkpt>
      <trkpt lat="42.041744" lon="1.7366253">
        <time>2022-07-09T09:26:11Z</time>
      </trkpt>
      <trkpt lat="42.0418" lon="1.736604">
        <time>2022-07-09T09:26:14Z</time>
      </trkpt>
      <trkpt lat="42.041862" lon="1.7365906">
        <time>2022-07-09T09:26:17Z</time>
      </trkpt>
      <trkpt lat="42.041924" lon="1.7365817">
        <time>2022-07-09T09:26:20Z</time>
      </trkpt>
      <trkpt lat="42.04199" lon="1.7365683">
        <time>2022-07-09T09:26:23Z</time>
      </trkpt>
      <trkpt lat="42.042053" lon="1.7365637">
        <time>2022-07-09T09:26:26Z</time>
      </trkpt>
      <trkpt lat="42.042118" lon="1.7365587">
        <time>2022-07-09T09:26:29Z</time>
      </trkpt>
      <trkpt lat="42.04218" lon="1.7365427">
        <time>2022-07-09T09:26:32Z</time>
      </trkpt>
      <trkpt lat="42.04224" lon="1.7365286">
        <time>2022-07-09T09:26:35Z</time>
      </trkpt>
      <trkpt lat="42.042305" lon="1.7365186">
        <time>2022-07-09T09:26:38Z</time>
      </trkpt>
      <trkpt lat="42.042377" lon="1.7365294">
        <time>2022-07-09T09:26:41Z</time>
      </trkpt>
      <trkpt lat="42.04245" lon="1.7365713">
        <time>2022-07-09T09:26:44Z</time>
      </trkpt>
      <trkpt lat="42.042496" lon="1.7366136">
        <time>2022-07-09T09:26:46Z</time>
      </trkpt>
      <trkpt lat="42.04254" lon="1.7366623">
        <time>2022-07-09T09:26:48Z</time>
      </trkpt>
      <trkpt lat="42.042587" lon="1.7367123">
        <time>2022-07-09T09:26:50Z</time>
      </trkpt>
      <trkpt lat="42.042652" lon="1.7367853">
        <time>2022-07-09T09:26:53Z</time>
      </trkpt>
      <trkpt lat="42.042694" lon="1.7368363">
        <time>2022-07-09T09:26:55Z</time>
      </trkpt>
      <trkpt lat="42.04274" lon="1.7368879">
        <time>2022-07-09T09:26:57Z</time>
      </trkpt>
      <trkpt lat="42.04278" lon="1.7369373">
        <time>2022-07-09T09:26:59Z</time>
      </trkpt>
      <trkpt lat="42.042828" lon="1.7369874">
        <time>2022-07-09T09:27:01Z</time>
      </trkpt>
      <trkpt lat="42.042873" lon="1.7370386">
        <time>2022-07-09T09:27:03Z</time>
      </trkpt>
      <trkpt lat="42.042915" lon="1.7370956">
        <time>2022-07-09T09:27:05Z</time>
      </trkpt>
      <trkpt lat="42.04296" lon="1.7371486">
        <time>2022-07-09T09:27:07Z</time>
      </trkpt>
      <trkpt lat="42.043003" lon="1.737198">
        <time>2022-07-09T09:27:09Z</time>
      </trkpt>
      <trkpt lat="42.04305" lon="1.7372487">
        <time>2022-07-09T09:27:11Z</time>
      </trkpt>
      <trkpt lat="42.04309" lon="1.7372979">
        <time>2022-07-09T09:27:13Z</time>
      </trkpt>
      <trkpt lat="42.043137" lon="1.7373459">
        <time>2022-07-09T09:27:15Z</time>
      </trkpt>
      <trkpt lat="42.04318" lon="1.7373962">
        <time>2022-07-09T09:27:17Z</time>
      </trkpt>
      <trkpt lat="42.04322" lon="1.737445">
        <time>2022-07-09T09:27:19Z</time>
      </trkpt>
      <trkpt lat="42.043266" lon="1.7374955">
        <time>2022-07-09T09:27:21Z</time>
      </trkpt>
      <trkpt lat="42.04331" lon="1.737546">
        <time>2022-07-09T09:27:23Z</time>
      </trkpt>
      <trkpt lat="42.043354" lon="1.737595">
        <time>2022-07-09T09:27:25Z</time>
      </trkpt>
      <trkpt lat="42.043396" lon="1.7376462">
        <time>2022-07-09T09:27:27Z</time>
      </trkpt>
      <trkpt lat="42.043438" lon="1.7376976">
        <time>2022-07-09T09:27:29Z</time>
      </trkpt>
      <trkpt lat="42.043488" lon="1.7377553">
        <time>2022-07-09T09:27:31Z</time>
      </trkpt>
      <trkpt lat="42.04354" lon="1.7378173">
        <time>2022-07-09T09:27:33Z</time>
      </trkpt>
      <trkpt lat="42.043602" lon="1.7378832">
        <time>2022-07-09T09:27:35Z</time>
      </trkpt>
      <trkpt lat="42.043663" lon="1.7379493">
        <time>2022-07-09T09:27:37Z</time>
      </trkpt>
      <trkpt lat="42.043724" lon="1.738017">
        <time>2022-07-09T09:27:39Z</time>
      </trkpt>
      <trkpt lat="42.043785" lon="1.7380875">
        <time>2022-07-09T09:27:41Z</time>
      </trkpt>
      <trkpt lat="42.043854" lon="1.738169">
        <time>2022-07-09T09:27:43Z</time>
      </trkpt>
      <trkpt lat="42.04393" lon="1.7382532">
        <time>2022-07-09T09:27:45Z</time>
      </trkpt>
      <trkpt lat="42.04397" lon="1.7382972">
        <time>2022-07-09T09:27:46Z</time>
      </trkpt>
      <trkpt lat="42.044006" lon="1.7383416">
        <time>2022-07-09T09:27:47Z</time>
      </trkpt>
      <trkpt lat="42.044083" lon="1.7384336">
        <time>2022-07-09T09:27:49Z</time>
      </trkpt>
      <trkpt lat="42.04412" lon="1.7384802">
        <time>2022-07-09T09:27:50Z</time>
      </trkpt>
      <trkpt lat="42.0442" lon="1.7385726">
        <time>2022-07-09T09:27:52Z</time>
      </trkpt>
      <trkpt lat="42.044243" lon="1.7386189">
        <time>2022-07-09T09:27:53Z</time>
      </trkpt>
      <trkpt lat="42.044285" lon="1.7386672">
        <time>2022-07-09T09:27:54Z</time>
      </trkpt>
      <trkpt lat="42.044327" lon="1.7387152">
        <time>2022-07-09T09:27:55Z</time>
      </trkpt>
      <trkpt lat="42.044373" lon="1.7387642">
        <time>2022-07-09T09:27:56Z</time>
      </trkpt>
      <trkpt lat="42.044415" lon="1.7388126">
        <time>2022-07-09T09:27:57Z</time>
      </trkpt>
      <trkpt lat="42.04446" lon="1.7388619">
        <time>2022-07-09T09:27:58Z</time>
      </trkpt>
      <trkpt lat="42.044502" lon="1.7389112">
        <time>2022-07-09T09:27:59Z</time>
      </trkpt>
      <trkpt lat="42.044548" lon="1.7389609">
        <time>2022-07-09T09:28:00Z</time>
      </trkpt>
      <trkpt lat="42.04459" lon="1.7390106">
        <time>2022-07-09T09:28:01Z</time>
      </trkpt>
      <trkpt lat="42.044636" lon="1.7390602">
        <time>2022-07-09T09:28:02Z</time>
      </trkpt>
      <trkpt lat="42.04468" lon="1.7391092">
        <time>2022-07-09T09:28:03Z</time>
      </trkpt>
      <trkpt lat="42.044727" lon="1.7391565">
        <time>2022-07-09T09:28:04Z</time>
      </trkpt>
      <trkpt lat="42.044777" lon="1.7391995">
        <time>2022-07-09T09:28:05Z</time>
      </trkpt>
      <trkpt lat="42.044827" lon="1.7392385">
        <time>2022-07-09T09:28:06Z</time>
      </trkpt>
      <trkpt lat="42.04488" lon="1.7392725">
        <time>2022-07-09T09:28:07Z</time>
      </trkpt>
      <trkpt lat="42.044994" lon="1.7393225">
        <time>2022-07-09T09:28:09Z</time>
      </trkpt>
      <trkpt lat="42.04505" lon="1.7393398">
        <time>2022-07-09T09:28:10Z</time>
      </trkpt>
      <trkpt lat="42.045113" lon="1.7393541">
        <time>2022-07-09T09:28:11Z</time>
      </trkpt>
      <trkpt lat="42.045174" lon="1.7393662">
        <time>2022-07-09T09:28:12Z</time>
      </trkpt>
      <trkpt lat="42.045235" lon="1.7393765">
        <time>2022-07-09T09:28:13Z</time>
      </trkpt>
      <trkpt lat="42.045296" lon="1.7393849">
        <time>2022-07-09T09:28:14Z</time>
      </trkpt>
      <trkpt lat="42.045357" lon="1.7393935">
        <time>2022-07-09T09:28:15Z</time>
      </trkpt>
      <trkpt lat="42.04542" lon="1.7394018">
        <time>2022-07-09T09:28:16Z</time>
      </trkpt>
      <trkpt lat="42.04548" lon="1.7394085">
        <time>2022-07-09T09:28:17Z</time>
      </trkpt>
      <trkpt lat="42.045547" lon="1.7394152">
        <time>2022-07-09T09:28:18Z</time>
      </trkpt>
      <trkpt lat="42.045612" lon="1.7394215">
        <time>2022-07-09T09:28:19Z</time>
      </trkpt>
      <trkpt lat="42.04568" lon="1.7394278">
        <time>2022-07-09T09:28:20Z</time>
      </trkpt>
      <trkpt lat="42.045746" lon="1.7394351">
        <time>2022-07-09T09:28:21Z</time>
      </trkpt>
      <trkpt lat="42.045815" lon="1.7394434">
        <time>2022-07-09T09:28:22Z</time>
      </trkpt>
      <trkpt lat="42.045883" lon="1.7394525">
        <time>2022-07-09T09:28:23Z</time>
      </trkpt>
      <trkpt lat="42.04595" lon="1.7394618">
        <time>2022-07-09T09:28:24Z</time>
      </trkpt>
      <trkpt lat="42.04602" lon="1.7394692">
        <time>2022-07-09T09:28:25Z</time>
      </trkpt>
      <trkpt lat="42.04609" lon="1.7394755">
        <time>2022-07-09T09:28:26Z</time>
      </trkpt>
      <trkpt lat="42.046158" lon="1.7394828">
        <time>2022-07-09T09:28:27Z</time>
      </trkpt>
      <trkpt lat="42.046227" lon="1.7394902">
        <time>2022-07-09T09:28:28Z</time>
      </trkpt>
      <trkpt lat="42.046295" lon="1.7394981">
        <time>2022-07-09T09:28:29Z</time>
      </trkpt>
      <trkpt lat="42.04636" lon="1.7395065">
        <time>2022-07-09T09:28:30Z</time>
      </trkpt>
      <trkpt lat="42.046425" lon="1.7395145">
        <time>2022-07-09T09:28:31Z</time>
      </trkpt>
      <trkpt lat="42.046486" lon="1.7395225">
        <time>2022-07-09T09:28:32Z</time>
      </trkpt>
      <trkpt lat="42.04655" lon="1.7395284">
        <time>2022-07-09T09:28:33Z</time>
      </trkpt>
      <trkpt lat="42.046608" lon="1.7395341">
        <time>2022-07-09T09:28:34Z</time>
      </trkpt>
      <trkpt lat="42.04667" lon="1.7395401">
        <time>2022-07-09T09:28:35Z</time>
      </trkpt>
      <trkpt lat="42.046734" lon="1.7395477">
        <time>2022-07-09T09:28:36Z</time>
      </trkpt>
      <trkpt lat="42.04679" lon="1.7395555">
        <time>2022-07-09T09:28:37Z</time>
      </trkpt>
      <trkpt lat="42.046856" lon="1.7395631">
        <time>2022-07-09T09:28:38Z</time>
      </trkpt>
      <trkpt lat="42.046917" lon="1.7395704">
        <time>2022-07-09T09:28:39Z</time>
      </trkpt>
      <trkpt lat="42.04698" lon="1.7395754">
        <time>2022-07-09T09:28:40Z</time>
      </trkpt>
      <trkpt lat="42.047043" lon="1.7395804">
        <time>2022-07-09T09:28:41Z</time>
      </trkpt>
      <trkpt lat="42.047108" lon="1.7395874">
        <time>2022-07-09T09:28:42Z</time>
      </trkpt>
      <trkpt lat="42.047173" lon="1.7395961">
        <time>2022-07-09T09:28:43Z</time>
      </trkpt>
      <trkpt lat="42.04724" lon="1.7396038">
        <time>2022-07-09T09:28:44Z</time>
      </trkpt>
      <trkpt lat="42.047306" lon="1.7396073">
        <time>2022-07-09T09:28:45Z</time>
      </trkpt>
      <trkpt lat="42.04738" lon="1.739609">
        <time>2022-07-09T09:28:46Z</time>
      </trkpt>
      <trkpt lat="42.047443" lon="1.7396107">
        <time>2022-07-09T09:28:47Z</time>
      </trkpt>
      <trkpt lat="42.047516" lon="1.7396151">
        <time>2022-07-09T09:28:48Z</time>
      </trkpt>
      <trkpt lat="42.047592" lon="1.7396207">
        <time>2022-07-09T09:28:49Z</time>
      </trkpt>
      <trkpt lat="42.04767" lon="1.739627">
        <time>2022-07-09T09:28:50Z</time>
      </trkpt>
      <trkpt lat="42.04775" lon="1.7396346">
        <time>2022-07-09T09:28:51Z</time>
      </trkpt>
      <trkpt lat="42.047832" lon="1.7396433">
        <time>2022-07-09T09:28:52Z</time>
      </trkpt>
      <trkpt lat="42.04792" lon="1.7396533">
        <time>2022-07-09T09:28:53Z</time>
      </trkpt>
      <trkpt lat="42.048004" lon="1.7396634">
        <time>2022-07-09T09:28:54Z</time>
      </trkpt>
      <trkpt lat="42.04809" lon="1.739674">
        <time>2022-07-09T09:28:55Z</time>
      </trkpt>
      <trkpt lat="42.048172" lon="1.739683">
        <time>2022-07-09T09:28:56Z</time>
      </trkpt>
      <trkpt lat="42.048256" lon="1.7396927">
        <time>2022-07-09T09:28:57Z</time>
      </trkpt>
      <trkpt lat="42.04834" lon="1.7397033">
        <time>2022-07-09T09:28:58Z</time>
      </trkpt>
      <trkpt lat="42.04843" lon="1.7397159">
        <time>2022-07-09T09:28:59Z</time>
      </trkpt>
      <trkpt lat="42.04852" lon="1.7397263">
        <time>2022-07-09T09:29:00Z</time>
      </trkpt>
      <trkpt lat="42.048607" lon="1.7397346">
        <time>2022-07-09T09:29:01Z</time>
      </trkpt>
      <trkpt lat="42.04869" lon="1.7397434">
        <time>2022-07-09T09:29:02Z</time>
      </trkpt>
      <trkpt lat="42.048767" lon="1.7397519">
        <time>2022-07-09T09:29:03Z</time>
      </trkpt>
      <trkpt lat="42.048843" lon="1.739762">
        <time>2022-07-09T09:29:04Z</time>
      </trkpt>
      <trkpt lat="42.048927" lon="1.7397753">
        <time>2022-07-09T09:29:05Z</time>
      </trkpt>
      <trkpt lat="42.04901" lon="1.7397892">
        <time>2022-07-09T09:29:06Z</time>
      </trkpt>
      <trkpt lat="42.049095" lon="1.7398022">
        <time>2022-07-09T09:29:07Z</time>
      </trkpt>
      <trkpt lat="42.04918" lon="1.7398089">
        <time>2022-07-09T09:29:08Z</time>
      </trkpt>
      <trkpt lat="42.04926" lon="1.7398133">
        <time>2022-07-09T09:29:09Z</time>
      </trkpt>
      <trkpt lat="42.049335" lon="1.7398189">
        <time>2022-07-09T09:29:10Z</time>
      </trkpt>
      <trkpt lat="42.04941" lon="1.7398266">
        <time>2022-07-09T09:29:11Z</time>
      </trkpt>
      <trkpt lat="42.04949" lon="1.7398343">
        <time>2022-07-09T09:29:12Z</time>
      </trkpt>
      <trkpt lat="42.049572" lon="1.7398406">
        <time>2022-07-09T09:29:13Z</time>
      </trkpt>
      <trkpt lat="42.04965" lon="1.7398475">
        <time>2022-07-09T09:29:14Z</time>
      </trkpt>
      <trkpt lat="42.049725" lon="1.7398579">
        <time>2022-07-09T09:29:15Z</time>
      </trkpt>
      <trkpt lat="42.0498" lon="1.7398729">
        <time>2022-07-09T09:29:16Z</time>
      </trkpt>
      <trkpt lat="42.049873" lon="1.7398933">
        <time>2022-07-09T09:29:17Z</time>
      </trkpt>
      <trkpt lat="42.04994" lon="1.7399186">
        <time>2022-07-09T09:29:18Z</time>
      </trkpt>
      <trkpt lat="42.050007" lon="1.7399503">
        <time>2022-07-09T09:29:19Z</time>
      </trkpt>
      <trkpt lat="42.05008" lon="1.7399882">
        <time>2022-07-09T09:29:20Z</time>
      </trkpt>
      <trkpt lat="42.05015" lon="1.7400303">
        <time>2022-07-09T09:29:21Z</time>
      </trkpt>
      <trkpt lat="42.05022" lon="1.7400763">
        <time>2022-07-09T09:29:22Z</time>
      </trkpt>
      <trkpt lat="42.05029" lon="1.7401253">
        <time>2022-07-09T09:29:23Z</time>
      </trkpt>
      <trkpt lat="42.05043" lon="1.7402352">
        <time>2022-07-09T09:29:25Z</time>
      </trkpt>
      <trkpt lat="42.050503" lon="1.740292">
        <time>2022-07-09T09:29:26Z</time>
      </trkpt>
      <trkpt lat="42.050575" lon="1.7403482">
        <time>2022-07-09T09:29:27Z</time>
      </trkpt>
      <trkpt lat="42.050644" lon="1.7404048">
        <time>2022-07-09T09:29:28Z</time>
      </trkpt>
      <trkpt lat="42.050713" lon="1.7404622">
        <time>2022-07-09T09:29:29Z</time>
      </trkpt>
      <trkpt lat="42.05078" lon="1.7405195">
        <time>2022-07-09T09:29:30Z</time>
      </trkpt>
      <trkpt lat="42.05085" lon="1.7405772">
        <time>2022-07-09T09:29:31Z</time>
      </trkpt>
      <trkpt lat="42.05092" lon="1.7406368">
        <time>2022-07-09T09:29:32Z</time>
      </trkpt>
      <trkpt lat="42.050983" lon="1.7406936">
        <time>2022-07-09T09:29:33Z</time>
      </trkpt>
      <trkpt lat="42.051056" lon="1.7407565">
        <time>2022-07-09T09:29:34Z</time>
      </trkpt>
      <trkpt lat="42.051132" lon="1.7408185">
        <time>2022-07-09T09:29:35Z</time>
      </trkpt>
      <trkpt lat="42.05121" lon="1.7408792">
        <time>2022-07-09T09:29:36Z</time>
      </trkpt>
      <trkpt lat="42.051285" lon="1.7409402">
        <time>2022-07-09T09:29:37Z</time>
      </trkpt>
      <trkpt lat="42.051365" lon="1.7410015">
        <time>2022-07-09T09:29:38Z</time>
      </trkpt>
      <trkpt lat="42.05144" lon="1.7410629">
        <time>2022-07-09T09:29:39Z</time>
      </trkpt>
      <trkpt lat="42.05152" lon="1.7411242">
        <time>2022-07-09T09:29:40Z</time>
      </trkpt>
      <trkpt lat="42.0516" lon="1.7411865">
        <time>2022-07-09T09:29:41Z</time>
      </trkpt>
      <trkpt lat="42.051678" lon="1.7412496">
        <time>2022-07-09T09:29:42Z</time>
      </trkpt>
      <trkpt lat="42.051758" lon="1.7413121">
        <time>2022-07-09T09:29:43Z</time>
      </trkpt>
      <trkpt lat="42.051834" lon="1.7413745">
        <time>2022-07-09T09:29:44Z</time>
      </trkpt>
      <trkpt lat="42.051907" lon="1.7414352">
        <time>2022-07-09T09:29:45Z</time>
      </trkpt>
      <trkpt lat="42.05198" lon="1.7414948">
        <time>2022-07-09T09:29:46Z</time>
      </trkpt>
      <trkpt lat="42.052048" lon="1.7415519">
        <time>2022-07-09T09:29:47Z</time>
      </trkpt>
      <trkpt lat="42.052113" lon="1.7416072">
        <time>2022-07-09T09:29:48Z</time>
      </trkpt>
      <trkpt lat="42.052177" lon="1.7416595">
        <time>2022-07-09T09:29:49Z</time>
      </trkpt>
      <trkpt lat="42.05224" lon="1.7417089">
        <time>2022-07-09T09:29:50Z</time>
      </trkpt>
      <trkpt lat="42.0523" lon="1.7417581">
        <time>2022-07-09T09:29:51Z</time>
      </trkpt>
      <trkpt lat="42.05236" lon="1.7418075">
        <time>2022-07-09T09:29:52Z</time>
      </trkpt>
      <trkpt lat="42.052418" lon="1.7418559">
        <time>2022-07-09T09:29:53Z</time>
      </trkpt>
      <trkpt lat="42.052475" lon="1.7419038">
        <time>2022-07-09T09:29:54Z</time>
      </trkpt>
      <trkpt lat="42.052532" lon="1.7419509">
        <time>2022-07-09T09:29:55Z</time>
      </trkpt>
      <trkpt lat="42.05258" lon="1.7419965">
        <time>2022-07-09T09:29:56Z</time>
      </trkpt>
      <trkpt lat="42.05263" lon="1.7420408">
        <time>2022-07-09T09:29:57Z</time>
      </trkpt>
      <trkpt lat="42.05268" lon="1.7420838">
        <time>2022-07-09T09:29:58Z</time>
      </trkpt>
      <trkpt lat="42.05273" lon="1.7421255">
        <time>2022-07-09T09:29:59Z</time>
      </trkpt>
      <trkpt lat="42.05278" lon="1.7421658">
        <time>2022-07-09T09:30:00Z</time>
      </trkpt>
      <trkpt lat="42.05283" lon="1.7422061">
        <time>2022-07-09T09:30:01Z</time>
      </trkpt>
      <trkpt lat="42.052876" lon="1.7422462">
        <time>2022-07-09T09:30:02Z</time>
      </trkpt>
      <trkpt lat="42.052925" lon="1.7422857">
        <time>2022-07-09T09:30:03Z</time>
      </trkpt>
      <trkpt lat="42.05297" lon="1.7423271">
        <time>2022-07-09T09:30:04Z</time>
      </trkpt>
      <trkpt lat="42.053013" lon="1.7423714">
        <time>2022-07-09T09:30:05Z</time>
      </trkpt>
      <trkpt lat="42.053055" lon="1.7424191">
        <time>2022-07-09T09:30:06Z</time>
      </trkpt>
      <trkpt lat="42.053097" lon="1.7424715">
        <time>2022-07-09T09:30:07Z</time>
      </trkpt>
      <trkpt lat="42.053135" lon="1.7425284">
        <time>2022-07-09T09:30:08Z</time>
      </trkpt>
      <trkpt lat="42.05317" lon="1.7425901">
        <time>2022-07-09T09:30:09Z</time>
      </trkpt>
      <trkpt lat="42.053204" lon="1.7426567">
        <time>2022-07-09T09:30:10Z</time>
      </trkpt>
      <trkpt lat="42.053234" lon="1.7427341">
        <time>2022-07-09T09:30:11Z</time>
      </trkpt>
      <trkpt lat="42.05326" lon="1.7428077">
        <time>2022-07-09T09:30:12Z</time>
      </trkpt>
      <trkpt lat="42.053288" lon="1.7428834">
        <time>2022-07-09T09:30:13Z</time>
      </trkpt>
      <trkpt lat="42.05331" lon="1.742961">
        <time>2022-07-09T09:30:14Z</time>
      </trkpt>
      <trkpt lat="42.053337" lon="1.7430404">
        <time>2022-07-09T09:30:15Z</time>
      </trkpt>
      <trkpt lat="42.05336" lon="1.743123">
        <time>2022-07-09T09:30:16Z</time>
      </trkpt>
      <trkpt lat="42.053383" lon="1.7432067">
        <time>2022-07-09T09:30:17Z</time>
      </trkpt>
      <trkpt lat="42.053402" lon="1.7432914">
        <time>2022-07-09T09:30:18Z</time>
      </trkpt>
      <trkpt lat="42.053425" lon="1.7433771">
        <time>2022-07-09T09:30:19Z</time>
      </trkpt>
      <trkpt lat="42.053448" lon="1.7434627">
        <time>2022-07-09T09:30:20Z</time>
      </trkpt>
      <trkpt lat="42.053467" lon="1.7435486">
        <time>2022-07-09T09:30:21Z</time>
      </trkpt>
      <trkpt lat="42.05349" lon="1.7436367">
        <time>2022-07-09T09:30:22Z</time>
      </trkpt>
      <trkpt lat="42.05351" lon="1.7437253">
        <time>2022-07-09T09:30:23Z</time>
      </trkpt>
      <trkpt lat="42.05353" lon="1.7438151">
        <time>2022-07-09T09:30:24Z</time>
      </trkpt>
      <trkpt lat="42.053555" lon="1.7439051">
        <time>2022-07-09T09:30:25Z</time>
      </trkpt>
      <trkpt lat="42.053574" lon="1.7439903">
        <time>2022-07-09T09:30:26Z</time>
      </trkpt>
      <trkpt lat="42.053596" lon="1.7440773">
        <time>2022-07-09T09:30:27Z</time>
      </trkpt>
      <trkpt lat="42.05362" lon="1.7441707">
        <time>2022-07-09T09:30:28Z</time>
      </trkpt>
      <trkpt lat="42.053642" lon="1.7442616">
        <time>2022-07-09T09:30:29Z</time>
      </trkpt>
      <trkpt lat="42.053665" lon="1.7443514">
        <time>2022-07-09T09:30:30Z</time>
      </trkpt>
      <trkpt lat="42.053688" lon="1.74444">
        <time>2022-07-09T09:30:31Z</time>
      </trkpt>
      <trkpt lat="42.05371" lon="1.7445294">
        <time>2022-07-09T09:30:32Z</time>
      </trkpt>
      <trkpt lat="42.053734" lon="1.7446187">
        <time>2022-07-09T09:30:33Z</time>
      </trkpt>
      <trkpt lat="42.053753" lon="1.7447066">
        <time>2022-07-09T09:30:34Z</time>
      </trkpt>
      <trkpt lat="42.053776" lon="1.744794">
        <time>2022-07-09T09:30:35Z</time>
      </trkpt>
      <trkpt lat="42.053795" lon="1.7448803">
        <time>2022-07-09T09:30:36Z</time>
      </trkpt>
      <trkpt lat="42.053818" lon="1.7449653">
        <time>2022-07-09T09:30:37Z</time>
      </trkpt>
      <trkpt lat="42.053837" lon="1.7450446">
        <time>2022-07-09T09:30:38Z</time>
      </trkpt>
      <trkpt lat="42.05386" lon="1.745131">
        <time>2022-07-09T09:30:39Z</time>
      </trkpt>
      <trkpt lat="42.053883" lon="1.7452173">
        <time>2022-07-09T09:30:40Z</time>
      </trkpt>
      <trkpt lat="42.053905" lon="1.7453033">
        <time>2022-07-09T09:30:41Z</time>
      </trkpt>
      <trkpt lat="42.053947" lon="1.7454756">
        <time>2022-07-09T09:30:43Z</time>
      </trkpt>
      <trkpt lat="42.053967" lon="1.7455606">
        <time>2022-07-09T09:30:44Z</time>
      </trkpt>
      <trkpt lat="42.05399" lon="1.7456447">
        <time>2022-07-09T09:30:45Z</time>
      </trkpt>
      <trkpt lat="42.054012" lon="1.7457286">
        <time>2022-07-09T09:30:46Z</time>
      </trkpt>
      <trkpt lat="42.05403" lon="1.7458103">
        <time>2022-07-09T09:30:47Z</time>
      </trkpt>
      <trkpt lat="42.054054" lon="1.7458913">
        <time>2022-07-09T09:30:48Z</time>
      </trkpt>
      <trkpt lat="42.054077" lon="1.7459713">
        <time>2022-07-09T09:30:49Z</time>
      </trkpt>
      <trkpt lat="42.054096" lon="1.74605">
        <time>2022-07-09T09:30:50Z</time>
      </trkpt>
      <trkpt lat="42.054115" lon="1.7461283">
        <time>2022-07-09T09:30:51Z</time>
      </trkpt>
      <trkpt lat="42.054134" lon="1.7462053">
        <time>2022-07-09T09:30:52Z</time>
      </trkpt>
      <trkpt lat="42.054153" lon="1.746282">
        <time>2022-07-09T09:30:53Z</time>
      </trkpt>
      <trkpt lat="42.054173" lon="1.7463576">
        <time>2022-07-09T09:30:54Z</time>
      </trkpt>
      <trkpt lat="42.05419" lon="1.7464329">
        <time>2022-07-09T09:30:55Z</time>
      </trkpt>
      <trkpt lat="42.05421" lon="1.7465079">
        <time>2022-07-09T09:30:56Z</time>
      </trkpt>
      <trkpt lat="42.054226" lon="1.7465823">
        <time>2022-07-09T09:30:57Z</time>
      </trkpt>
      <trkpt lat="42.054253" lon="1.7466795">
        <time>2022-07-09T09:30:59Z</time>
      </trkpt>
      <trkpt lat="42.054276" lon="1.7467682">
        <time>2022-07-09T09:31:00Z</time>
      </trkpt>
      <trkpt lat="42.054295" lon="1.7468503">
        <time>2022-07-09T09:31:01Z</time>
      </trkpt>
      <trkpt lat="42.054314" lon="1.7469289">
        <time>2022-07-09T09:31:02Z</time>
      </trkpt>
      <trkpt lat="42.054333" lon="1.7470043">
        <time>2022-07-09T09:31:03Z</time>
      </trkpt>
      <trkpt lat="42.05435" lon="1.7470772">
        <time>2022-07-09T09:31:04Z</time>
      </trkpt>
      <trkpt lat="42.05437" lon="1.7471492">
        <time>2022-07-09T09:31:05Z</time>
      </trkpt>
      <trkpt lat="42.054386" lon="1.7472209">
        <time>2022-07-09T09:31:06Z</time>
      </trkpt>
      <trkpt lat="42.0544" lon="1.7472936">
        <time>2022-07-09T09:31:07Z</time>
      </trkpt>
      <trkpt lat="42.054417" lon="1.7473665">
        <time>2022-07-09T09:31:08Z</time>
      </trkpt>
      <trkpt lat="42.054432" lon="1.7474356">
        <time>2022-07-09T09:31:09Z</time>
      </trkpt>
      <trkpt lat="42.05445" lon="1.7475119">
        <time>2022-07-09T09:31:10Z</time>
      </trkpt>
      <trkpt lat="42.05447" lon="1.7475905">
        <time>2022-07-09T09:31:11Z</time>
      </trkpt>
      <trkpt lat="42.05449" lon="1.7476702">
        <time>2022-07-09T09:31:12Z</time>
      </trkpt>
      <trkpt lat="42.05451" lon="1.7477522">
        <time>2022-07-09T09:31:13Z</time>
      </trkpt>
      <trkpt lat="42.05453" lon="1.7478352">
        <time>2022-07-09T09:31:14Z</time>
      </trkpt>
      <trkpt lat="42.054554" lon="1.7479199">
        <time>2022-07-09T09:31:15Z</time>
      </trkpt>
      <trkpt lat="42.054577" lon="1.7480052">
        <time>2022-07-09T09:31:16Z</time>
      </trkpt>
      <trkpt lat="42.054596" lon="1.7480925">
        <time>2022-07-09T09:31:17Z</time>
      </trkpt>
      <trkpt lat="42.05462" lon="1.7481818">
        <time>2022-07-09T09:31:18Z</time>
      </trkpt>
      <trkpt lat="42.05464" lon="1.7482725">
        <time>2022-07-09T09:31:19Z</time>
      </trkpt>
      <trkpt lat="42.05466" lon="1.7483629">
        <time>2022-07-09T09:31:20Z</time>
      </trkpt>
      <trkpt lat="42.05468" lon="1.7484539">
        <time>2022-07-09T09:31:21Z</time>
      </trkpt>
      <trkpt lat="42.054703" lon="1.7485461">
        <time>2022-07-09T09:31:22Z</time>
      </trkpt>
      <trkpt lat="42.054726" lon="1.7486385">
        <time>2022-07-09T09:31:23Z</time>
      </trkpt>
      <trkpt lat="42.05475" lon="1.7487319">
        <time>2022-07-09T09:31:24Z</time>
      </trkpt>
      <trkpt lat="42.054775" lon="1.7488252">
        <time>2022-07-09T09:31:25Z</time>
      </trkpt>
      <trkpt lat="42.0548" lon="1.7489188">
        <time>2022-07-09T09:31:26Z</time>
      </trkpt>
      <trkpt lat="42.05482" lon="1.7490115">
        <time>2022-07-09T09:31:27Z</time>
      </trkpt>
      <trkpt lat="42.054848" lon="1.7491045">
        <time>2022-07-09T09:31:28Z</time>
      </trkpt>
      <trkpt lat="42.05487" lon="1.7491965">
        <time>2022-07-09T09:31:29Z</time>
      </trkpt>
      <trkpt lat="42.054893" lon="1.7492871">
        <time>2022-07-09T09:31:30Z</time>
      </trkpt>
      <trkpt lat="42.054916" lon="1.7493755">
        <time>2022-07-09T09:31:31Z</time>
      </trkpt>
      <trkpt lat="42.05494" lon="1.7494612">
        <time>2022-07-09T09:31:32Z</time>
      </trkpt>
      <trkpt lat="42.05496" lon="1.7495434">
        <time>2022-07-09T09:31:33Z</time>
      </trkpt>
      <trkpt lat="42.05498" lon="1.7496225">
        <time>2022-07-09T09:31:34Z</time>
      </trkpt>
      <trkpt lat="42.055" lon="1.7496988">
        <time>2022-07-09T09:31:35Z</time>
      </trkpt>
      <trkpt lat="42.055023" lon="1.7497718">
        <time>2022-07-09T09:31:36Z</time>
      </trkpt>
      <trkpt lat="42.055042" lon="1.7498422">
        <time>2022-07-09T09:31:37Z</time>
      </trkpt>
      <trkpt lat="42.055065" lon="1.7499121">
        <time>2022-07-09T09:31:38Z</time>
      </trkpt>
      <trkpt lat="42.055084" lon="1.7499801">
        <time>2022-07-09T09:31:39Z</time>
      </trkpt>
      <trkpt lat="42.055103" lon="1.7500474">
        <time>2022-07-09T09:31:40Z</time>
      </trkpt>
      <trkpt lat="42.055122" lon="1.7501144">
        <time>2022-07-09T09:31:41Z</time>
      </trkpt>
      <trkpt lat="42.055164" lon="1.7502505">
        <time>2022-07-09T09:31:43Z</time>
      </trkpt>
      <trkpt lat="42.055183" lon="1.7503198">
        <time>2022-07-09T09:31:44Z</time>
      </trkpt>
      <trkpt lat="42.055206" lon="1.7503898">
        <time>2022-07-09T09:31:45Z</time>
      </trkpt>
      <trkpt lat="42.055225" lon="1.7504605">
        <time>2022-07-09T09:31:46Z</time>
      </trkpt>
      <trkpt lat="42.055244" lon="1.7505325">
        <time>2022-07-09T09:31:47Z</time>
      </trkpt>
      <trkpt lat="42.055264" lon="1.7506031">
        <time>2022-07-09T09:31:48Z</time>
      </trkpt>
      <trkpt lat="42.055283" lon="1.7506738">
        <time>2022-07-09T09:31:49Z</time>
      </trkpt>
      <trkpt lat="42.0553" lon="1.7507434">
        <time>2022-07-09T09:31:50Z</time>
      </trkpt>
      <trkpt lat="42.05532" lon="1.7508135">
        <time>2022-07-09T09:31:51Z</time>
      </trkpt>
      <trkpt lat="42.055344" lon="1.7508827">
        <time>2022-07-09T09:31:52Z</time>
      </trkpt>
      <trkpt lat="42.055363" lon="1.7509501">
        <time>2022-07-09T09:31:53Z</time>
      </trkpt>
      <trkpt lat="42.055386" lon="1.7510161">
        <time>2022-07-09T09:31:54Z</time>
      </trkpt>
      <trkpt lat="42.055405" lon="1.7510824">
        <time>2022-07-09T09:31:55Z</time>
      </trkpt>
      <trkpt lat="42.055443" lon="1.7512168">
        <time>2022-07-09T09:31:57Z</time>
      </trkpt>
      <trkpt lat="42.055458" lon="1.7512851">
        <time>2022-07-09T09:31:58Z</time>
      </trkpt>
      <trkpt lat="42.055492" lon="1.751425">
        <time>2022-07-09T09:32:00Z</time>
      </trkpt>
      <trkpt lat="42.055508" lon="1.751497">
        <time>2022-07-09T09:32:01Z</time>
      </trkpt>
      <trkpt lat="42.05552" lon="1.7515714">
        <time>2022-07-09T09:32:02Z</time>
      </trkpt>
      <trkpt lat="42.055534" lon="1.7516457">
        <time>2022-07-09T09:32:03Z</time>
      </trkpt>
      <trkpt lat="42.055542" lon="1.7517225">
        <time>2022-07-09T09:32:04Z</time>
      </trkpt>
      <trkpt lat="42.055553" lon="1.7518004">
        <time>2022-07-09T09:32:05Z</time>
      </trkpt>
      <trkpt lat="42.05556" lon="1.7518795">
        <time>2022-07-09T09:32:06Z</time>
      </trkpt>
      <trkpt lat="42.055573" lon="1.7519584">
        <time>2022-07-09T09:32:07Z</time>
      </trkpt>
      <trkpt lat="42.055576" lon="1.7520365">
        <time>2022-07-09T09:32:08Z</time>
      </trkpt>
      <trkpt lat="42.05558" lon="1.752115">
        <time>2022-07-09T09:32:09Z</time>
      </trkpt>
      <trkpt lat="42.055584" lon="1.7521948">
        <time>2022-07-09T09:32:10Z</time>
      </trkpt>
      <trkpt lat="42.055588" lon="1.7522751">
        <time>2022-07-09T09:32:11Z</time>
      </trkpt>
      <trkpt lat="42.05559" lon="1.7523544">
        <time>2022-07-09T09:32:12Z</time>
      </trkpt>
      <trkpt lat="42.055595" lon="1.7524327">
        <time>2022-07-09T09:32:13Z</time>
      </trkpt>
      <trkpt lat="42.0556" lon="1.7525094">
        <time>2022-07-09T09:32:14Z</time>
      </trkpt>
      <trkpt lat="42.055603" lon="1.7525854">
        <time>2022-07-09T09:32:15Z</time>
      </trkpt>
      <trkpt lat="42.055607" lon="1.7526624">
        <time>2022-07-09T09:32:16Z</time>
      </trkpt>
      <trkpt lat="42.05561" lon="1.7527457">
        <time>2022-07-09T09:32:17Z</time>
      </trkpt>
      <trkpt lat="42.055614" lon="1.7528224">
        <time>2022-07-09T09:32:18Z</time>
      </trkpt>
      <trkpt lat="42.05562" lon="1.7528994">
        <time>2022-07-09T09:32:19Z</time>
      </trkpt>
      <trkpt lat="42.05562" lon="1.7529764">
        <time>2022-07-09T09:32:20Z</time>
      </trkpt>
      <trkpt lat="42.055622" lon="1.7530524">
        <time>2022-07-09T09:32:21Z</time>
      </trkpt>
      <trkpt lat="42.055626" lon="1.753127">
        <time>2022-07-09T09:32:22Z</time>
      </trkpt>
      <trkpt lat="42.05563" lon="1.7532">
        <time>2022-07-09T09:32:23Z</time>
      </trkpt>
      <trkpt lat="42.05563" lon="1.7532717">
        <time>2022-07-09T09:32:24Z</time>
      </trkpt>
      <trkpt lat="42.055634" lon="1.753413">
        <time>2022-07-09T09:32:26Z</time>
      </trkpt>
      <trkpt lat="42.055637" lon="1.7534823">
        <time>2022-07-09T09:32:27Z</time>
      </trkpt>
      <trkpt lat="42.05564" lon="1.753551">
        <time>2022-07-09T09:32:28Z</time>
      </trkpt>
      <trkpt lat="42.055645" lon="1.7536184">
        <time>2022-07-09T09:32:29Z</time>
      </trkpt>
      <trkpt lat="42.055653" lon="1.7537533">
        <time>2022-07-09T09:32:31Z</time>
      </trkpt>
      <trkpt lat="42.055653" lon="1.7538897">
        <time>2022-07-09T09:32:33Z</time>
      </trkpt>
      <trkpt lat="42.055653" lon="1.7539573">
        <time>2022-07-09T09:32:34Z</time>
      </trkpt>
      <trkpt lat="42.055645" lon="1.7540927">
        <time>2022-07-09T09:32:36Z</time>
      </trkpt>
      <trkpt lat="42.055637" lon="1.7541593">
        <time>2022-07-09T09:32:37Z</time>
      </trkpt>
      <trkpt lat="42.055614" lon="1.7542887">
        <time>2022-07-09T09:32:39Z</time>
      </trkpt>
      <trkpt lat="42.05559" lon="1.7544117">
        <time>2022-07-09T09:32:41Z</time>
      </trkpt>
      <trkpt lat="42.055576" lon="1.7544723">
        <time>2022-07-09T09:32:42Z</time>
      </trkpt>
      <trkpt lat="42.05555" lon="1.7545899">
        <time>2022-07-09T09:32:44Z</time>
      </trkpt>
      <trkpt lat="42.05553" lon="1.754705">
        <time>2022-07-09T09:32:46Z</time>
      </trkpt>
      <trkpt lat="42.055515" lon="1.7548193">
        <time>2022-07-09T09:32:48Z</time>
      </trkpt>
      <trkpt lat="42.055504" lon="1.7549282">
        <time>2022-07-09T09:32:50Z</time>
      </trkpt>
      <trkpt lat="42.055504" lon="1.7550349">
        <time>2022-07-09T09:32:52Z</time>
      </trkpt>
      <trkpt lat="42.055504" lon="1.7551396">
        <time>2022-07-09T09:32:54Z</time>
      </trkpt>
      <trkpt lat="42.055504" lon="1.7552433">
        <time>2022-07-09T09:32:56Z</time>
      </trkpt>
      <trkpt lat="42.0555" lon="1.7553446">
        <time>2022-07-09T09:32:58Z</time>
      </trkpt>
      <trkpt lat="42.05549" lon="1.7554466">
        <time>2022-07-09T09:33:00Z</time>
      </trkpt>
      <trkpt lat="42.055477" lon="1.755549">
        <time>2022-07-09T09:33:02Z</time>
      </trkpt>
      <trkpt lat="42.055458" lon="1.7556473">
        <time>2022-07-09T09:33:04Z</time>
      </trkpt>
      <trkpt lat="42.055435" lon="1.7557396">
        <time>2022-07-09T09:33:06Z</time>
      </trkpt>
      <trkpt lat="42.055416" lon="1.7558275">
        <time>2022-07-09T09:33:08Z</time>
      </trkpt>
      <trkpt lat="42.055393" lon="1.7559112">
        <time>2022-07-09T09:33:10Z</time>
      </trkpt>
      <trkpt lat="42.055367" lon="1.7559903">
        <time>2022-07-09T09:33:12Z</time>
      </trkpt>
      <trkpt lat="42.055344" lon="1.7560673">
        <time>2022-07-09T09:33:14Z</time>
      </trkpt>
      <trkpt lat="42.055317" lon="1.756146">
        <time>2022-07-09T09:33:16Z</time>
      </trkpt>
      <trkpt lat="42.055294" lon="1.7562236">
        <time>2022-07-09T09:33:18Z</time>
      </trkpt>
      <trkpt lat="42.055267" lon="1.7562993">
        <time>2022-07-09T09:33:20Z</time>
      </trkpt>
      <trkpt lat="42.05524" lon="1.7563769">
        <time>2022-07-09T09:33:22Z</time>
      </trkpt>
      <trkpt lat="42.055218" lon="1.7564529">
        <time>2022-07-09T09:33:24Z</time>
      </trkpt>
      <trkpt lat="42.05519" lon="1.7565305">
        <time>2022-07-09T09:33:26Z</time>
      </trkpt>
      <trkpt lat="42.055164" lon="1.7566099">
        <time>2022-07-09T09:33:28Z</time>
      </trkpt>
      <trkpt lat="42.055138" lon="1.7566912">
        <time>2022-07-09T09:33:30Z</time>
      </trkpt>
      <trkpt lat="42.05511" lon="1.7567769">
        <time>2022-07-09T09:33:32Z</time>
      </trkpt>
      <trkpt lat="42.055084" lon="1.7568668">
        <time>2022-07-09T09:33:34Z</time>
      </trkpt>
      <trkpt lat="42.055054" lon="1.7569605">
        <time>2022-07-09T09:33:36Z</time>
      </trkpt>
      <trkpt lat="42.05503" lon="1.7570499">
        <time>2022-07-09T09:33:38Z</time>
      </trkpt>
      <trkpt lat="42.055004" lon="1.7571442">
        <time>2022-07-09T09:33:40Z</time>
      </trkpt>
      <trkpt lat="42.054974" lon="1.7572359">
        <time>2022-07-09T09:33:42Z</time>
      </trkpt>
      <trkpt lat="42.054947" lon="1.7573282">
        <time>2022-07-09T09:33:44Z</time>
      </trkpt>
      <trkpt lat="42.05492" lon="1.7574222">
        <time>2022-07-09T09:33:46Z</time>
      </trkpt>
      <trkpt lat="42.054893" lon="1.7575165">
        <time>2022-07-09T09:33:48Z</time>
      </trkpt>
      <trkpt lat="42.054863" lon="1.7576091">
        <time>2022-07-09T09:33:50Z</time>
      </trkpt>
      <trkpt lat="42.054836" lon="1.7576985">
        <time>2022-07-09T09:33:52Z</time>
      </trkpt>
      <trkpt lat="42.05481" lon="1.7577856">
        <time>2022-07-09T09:33:54Z</time>
      </trkpt>
      <trkpt lat="42.05478" lon="1.7578732">
        <time>2022-07-09T09:33:56Z</time>
      </trkpt>
      <trkpt lat="42.054752" lon="1.7579648">
        <time>2022-07-09T09:33:58Z</time>
      </trkpt>
      <trkpt lat="42.05472" lon="1.7580651">
        <time>2022-07-09T09:34:00Z</time>
      </trkpt>
      <trkpt lat="42.05469" lon="1.7581801">
        <time>2022-07-09T09:34:02Z</time>
      </trkpt>
      <trkpt lat="42.05466" lon="1.7583082">
        <time>2022-07-09T09:34:04Z</time>
      </trkpt>
      <trkpt lat="42.05464" lon="1.7583731">
        <time>2022-07-09T09:34:05Z</time>
      </trkpt>
      <trkpt lat="42.054626" lon="1.7584305">
        <time>2022-07-09T09:34:06Z</time>
      </trkpt>
      <trkpt lat="42.054604" lon="1.7585168">
        <time>2022-07-09T09:34:08Z</time>
      </trkpt>
      <trkpt lat="42.05459" lon="1.7585661">
        <time>2022-07-09T09:34:10Z</time>
      </trkpt>
      <trkpt lat="42.054558" lon="1.7587118">
        <time>2022-07-09T09:34:43Z</time>
      </trkpt>
      <trkpt lat="42.054535" lon="1.7588141">
        <time>2022-07-09T09:34:45Z</time>
      </trkpt>
      <trkpt lat="42.054504" lon="1.7589362">
        <time>2022-07-09T09:34:47Z</time>
      </trkpt>
      <trkpt lat="42.05449" lon="1.7590058">
        <time>2022-07-09T09:34:48Z</time>
      </trkpt>
      <trkpt lat="42.05447" lon="1.7590785">
        <time>2022-07-09T09:34:49Z</time>
      </trkpt>
      <trkpt lat="42.05445" lon="1.7591554">
        <time>2022-07-09T09:34:50Z</time>
      </trkpt>
      <trkpt lat="42.054432" lon="1.7592365">
        <time>2022-07-09T09:34:51Z</time>
      </trkpt>
      <trkpt lat="42.05441" lon="1.7593207">
        <time>2022-07-09T09:34:52Z</time>
      </trkpt>
      <trkpt lat="42.05439" lon="1.7594085">
        <time>2022-07-09T09:34:53Z</time>
      </trkpt>
      <trkpt lat="42.054367" lon="1.7594994">
        <time>2022-07-09T09:34:54Z</time>
      </trkpt>
      <trkpt lat="42.054348" lon="1.7595944">
        <time>2022-07-09T09:34:55Z</time>
      </trkpt>
      <trkpt lat="42.05432" lon="1.7596924">
        <time>2022-07-09T09:34:56Z</time>
      </trkpt>
      <trkpt lat="42.0543" lon="1.7597941">
        <time>2022-07-09T09:34:57Z</time>
      </trkpt>
      <trkpt lat="42.05427" lon="1.7598994">
        <time>2022-07-09T09:34:58Z</time>
      </trkpt>
      <trkpt lat="42.054245" lon="1.7600081">
        <time>2022-07-09T09:34:59Z</time>
      </trkpt>
      <trkpt lat="42.05422" lon="1.76012">
        <time>2022-07-09T09:35:00Z</time>
      </trkpt>
      <trkpt lat="42.054188" lon="1.7602341">
        <time>2022-07-09T09:35:01Z</time>
      </trkpt>
      <trkpt lat="42.05416" lon="1.7603507">
        <time>2022-07-09T09:35:02Z</time>
      </trkpt>
      <trkpt lat="42.05413" lon="1.7604711">
        <time>2022-07-09T09:35:03Z</time>
      </trkpt>
      <trkpt lat="42.054104" lon="1.7605938">
        <time>2022-07-09T09:35:04Z</time>
      </trkpt>
      <trkpt lat="42.054077" lon="1.7607198">
        <time>2022-07-09T09:35:05Z</time>
      </trkpt>
      <trkpt lat="42.054047" lon="1.7608491">
        <time>2022-07-09T09:35:06Z</time>
      </trkpt>
      <trkpt lat="42.05402" lon="1.7609814">
        <time>2022-07-09T09:35:07Z</time>
      </trkpt>
      <trkpt lat="42.053993" lon="1.7611171">
        <time>2022-07-09T09:35:08Z</time>
      </trkpt>
      <trkpt lat="42.053967" lon="1.7612541">
        <time>2022-07-09T09:35:09Z</time>
      </trkpt>
      <trkpt lat="42.053944" lon="1.7613934">
        <time>2022-07-09T09:35:10Z</time>
      </trkpt>
      <trkpt lat="42.053917" lon="1.761533">
        <time>2022-07-09T09:35:11Z</time>
      </trkpt>
      <trkpt lat="42.053894" lon="1.761674">
        <time>2022-07-09T09:35:12Z</time>
      </trkpt>
      <trkpt lat="42.05387" lon="1.7618157">
        <time>2022-07-09T09:35:13Z</time>
      </trkpt>
      <trkpt lat="42.05385" lon="1.7619587">
        <time>2022-07-09T09:35:14Z</time>
      </trkpt>
      <trkpt lat="42.05382" lon="1.7621014">
        <time>2022-07-09T09:35:15Z</time>
      </trkpt>
      <trkpt lat="42.053795" lon="1.7622447">
        <time>2022-07-09T09:35:16Z</time>
      </trkpt>
      <trkpt lat="42.053772" lon="1.7623874">
        <time>2022-07-09T09:35:17Z</time>
      </trkpt>
      <trkpt lat="42.053745" lon="1.7625307">
        <time>2022-07-09T09:35:18Z</time>
      </trkpt>
      <trkpt lat="42.05369" lon="1.7628284">
        <time>2022-07-09T09:35:20Z</time>
      </trkpt>
      <trkpt lat="42.053665" lon="1.7629687">
        <time>2022-07-09T09:35:21Z</time>
      </trkpt>
      <trkpt lat="42.053642" lon="1.76311">
        <time>2022-07-09T09:35:22Z</time>
      </trkpt>
      <trkpt lat="42.05362" lon="1.7632537">
        <time>2022-07-09T09:35:23Z</time>
      </trkpt>
      <trkpt lat="42.053596" lon="1.7633986">
        <time>2022-07-09T09:35:24Z</time>
      </trkpt>
      <trkpt lat="42.05358" lon="1.7635437">
        <time>2022-07-09T09:35:25Z</time>
      </trkpt>
      <trkpt lat="42.053566" lon="1.7636876">
        <time>2022-07-09T09:35:26Z</time>
      </trkpt>
      <trkpt lat="42.053555" lon="1.76383">
        <time>2022-07-09T09:35:27Z</time>
      </trkpt>
      <trkpt lat="42.053547" lon="1.763972">
        <time>2022-07-09T09:35:28Z</time>
      </trkpt>
      <trkpt lat="42.053535" lon="1.7641127">
        <time>2022-07-09T09:35:29Z</time>
      </trkpt>
      <trkpt lat="42.053528" lon="1.7642527">
        <time>2022-07-09T09:35:30Z</time>
      </trkpt>
      <trkpt lat="42.05352" lon="1.764391">
        <time>2022-07-09T09:35:31Z</time>
      </trkpt>
      <trkpt lat="42.053513" lon="1.7645277">
        <time>2022-07-09T09:35:32Z</time>
      </trkpt>
      <trkpt lat="42.05351" lon="1.7646637">
        <time>2022-07-09T09:35:33Z</time>
      </trkpt>
      <trkpt lat="42.0535" lon="1.7647983">
        <time>2022-07-09T09:35:34Z</time>
      </trkpt>
      <trkpt lat="42.053493" lon="1.7649326">
        <time>2022-07-09T09:35:35Z</time>
      </trkpt>
      <trkpt lat="42.053486" lon="1.7650673">
        <time>2022-07-09T09:35:36Z</time>
      </trkpt>
      <trkpt lat="42.053482" lon="1.7652019">
        <time>2022-07-09T09:35:37Z</time>
      </trkpt>
      <trkpt lat="42.053474" lon="1.7653357">
        <time>2022-07-09T09:35:38Z</time>
      </trkpt>
      <trkpt lat="42.053467" lon="1.7654697">
        <time>2022-07-09T09:35:39Z</time>
      </trkpt>
      <trkpt lat="42.05346" lon="1.7656133">
        <time>2022-07-09T09:35:40Z</time>
      </trkpt>
      <trkpt lat="42.053455" lon="1.7657449">
        <time>2022-07-09T09:35:41Z</time>
      </trkpt>
      <trkpt lat="42.05345" lon="1.7658776">
        <time>2022-07-09T09:35:42Z</time>
      </trkpt>
      <trkpt lat="42.053444" lon="1.7660109">
        <time>2022-07-09T09:35:43Z</time>
      </trkpt>
      <trkpt lat="42.05344" lon="1.7661439">
        <time>2022-07-09T09:35:44Z</time>
      </trkpt>
      <trkpt lat="42.053432" lon="1.7662762">
        <time>2022-07-09T09:35:45Z</time>
      </trkpt>
      <trkpt lat="42.05343" lon="1.7664089">
        <time>2022-07-09T09:35:46Z</time>
      </trkpt>
      <trkpt lat="42.053425" lon="1.7665426">
        <time>2022-07-09T09:35:47Z</time>
      </trkpt>
      <trkpt lat="42.05342" lon="1.766676">
        <time>2022-07-09T09:35:48Z</time>
      </trkpt>
      <trkpt lat="42.053413" lon="1.7668099">
        <time>2022-07-09T09:35:49Z</time>
      </trkpt>
      <trkpt lat="42.05341" lon="1.7669436">
        <time>2022-07-09T09:35:50Z</time>
      </trkpt>
      <trkpt lat="42.053402" lon="1.7670783">
        <time>2022-07-09T09:35:51Z</time>
      </trkpt>
      <trkpt lat="42.053394" lon="1.7672136">
        <time>2022-07-09T09:35:52Z</time>
      </trkpt>
      <trkpt lat="42.05339" lon="1.7673496">
        <time>2022-07-09T09:35:53Z</time>
      </trkpt>
      <trkpt lat="42.053383" lon="1.7674862">
        <time>2022-07-09T09:35:54Z</time>
      </trkpt>
      <trkpt lat="42.053383" lon="1.7676232">
        <time>2022-07-09T09:35:55Z</time>
      </trkpt>
      <trkpt lat="42.053387" lon="1.7677596">
        <time>2022-07-09T09:35:56Z</time>
      </trkpt>
      <trkpt lat="42.0534" lon="1.7678945">
        <time>2022-07-09T09:35:57Z</time>
      </trkpt>
      <trkpt lat="42.05342" lon="1.7680255">
        <time>2022-07-09T09:35:58Z</time>
      </trkpt>
      <trkpt lat="42.053455" lon="1.7681543">
        <time>2022-07-09T09:35:59Z</time>
      </trkpt>
      <trkpt lat="42.053497" lon="1.7682799">
        <time>2022-07-09T09:36:00Z</time>
      </trkpt>
      <trkpt lat="42.053547" lon="1.7684048">
        <time>2022-07-09T09:36:01Z</time>
      </trkpt>
      <trkpt lat="42.0536" lon="1.7685299">
        <time>2022-07-09T09:36:02Z</time>
      </trkpt>
      <trkpt lat="42.053658" lon="1.7686555">
        <time>2022-07-09T09:36:03Z</time>
      </trkpt>
      <trkpt lat="42.05372" lon="1.7687829">
        <time>2022-07-09T09:36:04Z</time>
      </trkpt>
      <trkpt lat="42.05378" lon="1.7689096">
        <time>2022-07-09T09:36:05Z</time>
      </trkpt>
      <trkpt lat="42.05384" lon="1.7690336">
        <time>2022-07-09T09:36:06Z</time>
      </trkpt>
      <trkpt lat="42.053898" lon="1.7691542">
        <time>2022-07-09T09:36:07Z</time>
      </trkpt>
      <trkpt lat="42.05395" lon="1.7692778">
        <time>2022-07-09T09:36:08Z</time>
      </trkpt>
      <trkpt lat="42.053993" lon="1.7693869">
        <time>2022-07-09T09:36:09Z</time>
      </trkpt>
      <trkpt lat="42.05403" lon="1.7694905">
        <time>2022-07-09T09:36:10Z</time>
      </trkpt>
      <trkpt lat="42.05406" lon="1.7695851">
        <time>2022-07-09T09:36:11Z</time>
      </trkpt>
      <trkpt lat="42.05408" lon="1.7696664">
        <time>2022-07-09T09:36:12Z</time>
      </trkpt>
      <trkpt lat="42.054092" lon="1.7697285">
        <time>2022-07-09T09:36:13Z</time>
      </trkpt>
      <trkpt lat="42.054104" lon="1.7698025">
        <time>2022-07-09T09:36:15Z</time>
      </trkpt>
      <trkpt lat="42.05414" lon="1.7699279">
        <time>2022-07-09T09:36:44Z</time>
      </trkpt>
      <trkpt lat="42.05416" lon="1.7699955">
        <time>2022-07-09T09:36:46Z</time>
      </trkpt>
      <trkpt lat="42.054184" lon="1.7700862">
        <time>2022-07-09T09:36:48Z</time>
      </trkpt>
      <trkpt lat="42.054207" lon="1.7701898">
        <time>2022-07-09T09:36:50Z</time>
      </trkpt>
      <trkpt lat="42.054237" lon="1.7703108">
        <time>2022-07-09T09:36:52Z</time>
      </trkpt>
      <trkpt lat="42.054253" lon="1.7703731">
        <time>2022-07-09T09:36:53Z</time>
      </trkpt>
      <trkpt lat="42.054287" lon="1.7705034">
        <time>2022-07-09T09:36:55Z</time>
      </trkpt>
      <trkpt lat="42.054314" lon="1.7706385">
        <time>2022-07-09T09:36:57Z</time>
      </trkpt>
      <trkpt lat="42.054325" lon="1.7707118">
        <time>2022-07-09T09:36:58Z</time>
      </trkpt>
      <trkpt lat="42.054325" lon="1.7707838">
        <time>2022-07-09T09:36:59Z</time>
      </trkpt>
      <trkpt lat="42.05432" lon="1.7708545">
        <time>2022-07-09T09:37:00Z</time>
      </trkpt>
      <trkpt lat="42.054317" lon="1.7709185">
        <time>2022-07-09T09:37:01Z</time>
      </trkpt>
      <trkpt lat="42.05428" lon="1.7710414">
        <time>2022-07-09T09:37:03Z</time>
      </trkpt>
      <trkpt lat="42.054222" lon="1.7711561">
        <time>2022-07-09T09:37:05Z</time>
      </trkpt>
      <trkpt lat="42.05419" lon="1.7712071">
        <time>2022-07-09T09:37:06Z</time>
      </trkpt>
      <trkpt lat="42.054123" lon="1.7712971">
        <time>2022-07-09T09:37:08Z</time>
      </trkpt>
      <trkpt lat="42.054047" lon="1.7713804">
        <time>2022-07-09T09:37:10Z</time>
      </trkpt>
      <trkpt lat="42.054012" lon="1.7714188">
        <time>2022-07-09T09:37:11Z</time>
      </trkpt>
      <trkpt lat="42.053936" lon="1.7714931">
        <time>2022-07-09T09:37:13Z</time>
      </trkpt>
      <trkpt lat="42.05386" lon="1.7715684">
        <time>2022-07-09T09:37:15Z</time>
      </trkpt>
      <trkpt lat="42.05382" lon="1.7716074">
        <time>2022-07-09T09:37:16Z</time>
      </trkpt>
      <trkpt lat="42.05374" lon="1.7716851">
        <time>2022-07-09T09:37:18Z</time>
      </trkpt>
      <trkpt lat="42.05366" lon="1.7717631">
        <time>2022-07-09T09:37:20Z</time>
      </trkpt>
      <trkpt lat="42.053623" lon="1.7718017">
        <time>2022-07-09T09:37:21Z</time>
      </trkpt>
      <trkpt lat="42.053547" lon="1.771877">
        <time>2022-07-09T09:37:23Z</time>
      </trkpt>
      <trkpt lat="42.05347" lon="1.7719498">
        <time>2022-07-09T09:37:25Z</time>
      </trkpt>
      <trkpt lat="42.053394" lon="1.7720253">
        <time>2022-07-09T09:37:27Z</time>
      </trkpt>
      <trkpt lat="42.053356" lon="1.772063">
        <time>2022-07-09T09:37:28Z</time>
      </trkpt>
      <trkpt lat="42.053276" lon="1.7721307">
        <time>2022-07-09T09:37:30Z</time>
      </trkpt>
      <trkpt lat="42.05319" lon="1.7721744">
        <time>2022-07-09T09:37:32Z</time>
      </trkpt>
      <trkpt lat="42.0531" lon="1.7721931">
        <time>2022-07-09T09:37:34Z</time>
      </trkpt>
      <trkpt lat="42.05303" lon="1.772202">
        <time>2022-07-09T09:37:36Z</time>
      </trkpt>
      <trkpt lat="42.052956" lon="1.772215">
        <time>2022-07-09T09:37:38Z</time>
      </trkpt>
      <trkpt lat="42.05289" lon="1.7722267">
        <time>2022-07-09T09:37:40Z</time>
      </trkpt>
      <trkpt lat="42.05284" lon="1.7722317">
        <time>2022-07-09T09:37:42Z</time>
      </trkpt>
      <trkpt lat="42.052784" lon="1.7722324">
        <time>2022-07-09T09:37:45Z</time>
      </trkpt>
      <trkpt lat="42.052643" lon="1.772097">
        <time>2022-07-09T09:39:13Z</time>
      </trkpt>
      <trkpt lat="42.052746" lon="1.7721887">
        <time>2022-07-09T09:40:09Z</time>
      </trkpt>
      <trkpt lat="42.052715" lon="1.7722074">
        <time>2022-07-09T09:40:26Z</time>
      </trkpt>
      <trkpt lat="42.052734" lon="1.7721647">
        <time>2022-07-09T09:40:35Z</time>
      </trkpt>
      <trkpt lat="42.052773" lon="1.77216">
        <time>2022-07-09T09:40:43Z</time>
      </trkpt>
      <trkpt lat="42.052727" lon="1.772176">
        <time>2022-07-09T09:40:50Z</time>
      </trkpt>
      <trkpt lat="42.05271" lon="1.772124">
        <time>2022-07-09T09:40:58Z</time>
      </trkpt>
      <trkpt lat="42.052753" lon="1.7720897">
        <time>2022-07-09T09:41:07Z</time>
      </trkpt>
      <trkpt lat="42.052826" lon="1.7721027">
        <time>2022-07-09T09:44:17Z</time>
      </trkpt>
      <trkpt lat="42.05287" lon="1.7720693">
        <time>2022-07-09T09:44:24Z</time>
      </trkpt>
      <trkpt lat="42.052933" lon="1.7719494">
        <time>2022-07-09T09:44:35Z</time>
      </trkpt>
      <trkpt lat="42.052937" lon="1.771911">
        <time>2022-07-09T09:44:43Z</time>
      </trkpt>
      <trkpt lat="42.052887" lon="1.7720526">
        <time>2022-07-09T09:44:56Z</time>
      </trkpt>
      <trkpt lat="42.052856" lon="1.7723573">
        <time>2022-07-09T09:45:27Z</time>
      </trkpt>
      <trkpt lat="42.052837" lon="1.7724353">
        <time>2022-07-09T09:45:31Z</time>
      </trkpt>
      <trkpt lat="42.052822" lon="1.7725347">
        <time>2022-07-09T09:45:34Z</time>
      </trkpt>
      <trkpt lat="42.052807" lon="1.772609">
        <time>2022-07-09T09:45:36Z</time>
      </trkpt>
      <trkpt lat="42.05279" lon="1.7726864">
        <time>2022-07-09T09:45:38Z</time>
      </trkpt>
      <trkpt lat="42.052773" lon="1.7727426">
        <time>2022-07-09T09:45:40Z</time>
      </trkpt>
      <trkpt lat="42.052757" lon="1.7727807">
        <time>2022-07-09T09:45:44Z</time>
      </trkpt>
      <trkpt lat="42.052723" lon="1.7726877">
        <time>2022-07-09T09:46:10Z</time>
      </trkpt>
      <trkpt lat="42.052692" lon="1.7728797">
        <time>2022-07-09T09:46:15Z</time>
      </trkpt>
      <trkpt lat="42.05268" lon="1.77295">
        <time>2022-07-09T09:46:17Z</time>
      </trkpt>
      <trkpt lat="42.05267" lon="1.772999">
        <time>2022-07-09T09:46:20Z</time>
      </trkpt>
      <trkpt lat="42.05271" lon="1.7726734">
        <time>2022-07-09T09:46:51Z</time>
      </trkpt>
      <trkpt lat="42.05271" lon="1.7725763">
        <time>2022-07-09T09:46:55Z</time>
      </trkpt>
      <trkpt lat="42.05273" lon="1.7725267">
        <time>2022-07-09T09:46:58Z</time>
      </trkpt>
      <trkpt lat="42.052773" lon="1.772456">
        <time>2022-07-09T09:47:02Z</time>
      </trkpt>
      <trkpt lat="42.05282" lon="1.7724257">
        <time>2022-07-09T09:47:05Z</time>
      </trkpt>
      <trkpt lat="42.052856" lon="1.7724191">
        <time>2022-07-09T09:47:10Z</time>
      </trkpt>
      <trkpt lat="42.052868" lon="1.772384">
        <time>2022-07-09T09:47:37Z</time>
      </trkpt>
      <trkpt lat="42.05286" lon="1.7723653">
        <time>2022-07-09T09:47:44Z</time>
      </trkpt>
      <trkpt lat="42.05264" lon="1.7723447">
        <time>2022-07-09T09:48:49Z</time>
      </trkpt>
      <trkpt lat="42.052704" lon="1.7723154">
        <time>2022-07-09T09:49:43Z</time>
      </trkpt>
      <trkpt lat="42.0527" lon="1.7721328">
        <time>2022-07-09T09:50:04Z</time>
      </trkpt>
      <trkpt lat="42.052822" lon="1.7722977">
        <time>2022-07-09T09:50:28Z</time>
      </trkpt>
      <trkpt lat="42.052708" lon="1.7723161">
        <time>2022-07-09T09:51:05Z</time>
      </trkpt>
      <trkpt lat="42.05275" lon="1.7722458">
        <time>2022-07-09T09:51:10Z</time>
      </trkpt>
      <trkpt lat="42.052795" lon="1.7721791">
        <time>2022-07-09T09:51:13Z</time>
      </trkpt>
      <trkpt lat="42.052853" lon="1.772081">
        <time>2022-07-09T09:51:22Z</time>
      </trkpt>
      <trkpt lat="42.052845" lon="1.772094">
        <time>2022-07-09T09:51:23Z</time>
      </trkpt>
      <trkpt lat="42.05279" lon="1.7720984">
        <time>2022-07-09T09:52:04Z</time>
      </trkpt>
      <trkpt lat="42.05278" lon="1.7720368">
        <time>2022-07-09T09:52:10Z</time>
      </trkpt>
      <trkpt lat="42.052807" lon="1.771952">
        <time>2022-07-09T09:52:23Z</time>
      </trkpt>
      <trkpt lat="42.05285" lon="1.7718837">
        <time>2022-07-09T09:52:26Z</time>
      </trkpt>
      <trkpt lat="42.052887" lon="1.7718741">
        <time>2022-07-09T09:52:29Z</time>
      </trkpt>
      <trkpt lat="42.05286" lon="1.7718251">
        <time>2022-07-09T09:52:44Z</time>
      </trkpt>
      <trkpt lat="42.05286" lon="1.7715584">
        <time>2022-07-09T09:53:50Z</time>
      </trkpt>
      <trkpt lat="42.052864" lon="1.7714331">
        <time>2022-07-09T09:53:51Z</time>
      </trkpt>
      <trkpt lat="42.052868" lon="1.7713281">
        <time>2022-07-09T09:53:52Z</time>
      </trkpt>
      <trkpt lat="42.052868" lon="1.7712377">
        <time>2022-07-09T09:53:53Z</time>
      </trkpt>
      <trkpt lat="42.05287" lon="1.7711577">
        <time>2022-07-09T09:53:54Z</time>
      </trkpt>
      <trkpt lat="42.05287" lon="1.7710844">
        <time>2022-07-09T09:53:55Z</time>
      </trkpt>
      <trkpt lat="42.052876" lon="1.7710178">
        <time>2022-07-09T09:53:56Z</time>
      </trkpt>
      <trkpt lat="42.052876" lon="1.7709564">
        <time>2022-07-09T09:53:57Z</time>
      </trkpt>
      <trkpt lat="42.052876" lon="1.7708495">
        <time>2022-07-09T09:53:59Z</time>
      </trkpt>
      <trkpt lat="42.052876" lon="1.7707578">
        <time>2022-07-09T09:54:01Z</time>
      </trkpt>
      <trkpt lat="42.052876" lon="1.7706745">
        <time>2022-07-09T09:54:03Z</time>
      </trkpt>
      <trkpt lat="42.05288" lon="1.7713474">
        <time>2022-07-09T09:54:06Z</time>
      </trkpt>
      <trkpt lat="42.05282" lon="1.7716842">
        <time>2022-07-09T09:54:10Z</time>
      </trkpt>
      <trkpt lat="42.0528" lon="1.7718148">
        <time>2022-07-09T09:54:11Z</time>
      </trkpt>
      <trkpt lat="42.052776" lon="1.7719197">
        <time>2022-07-09T09:54:12Z</time>
      </trkpt>
      <trkpt lat="42.05276" lon="1.7720038">
        <time>2022-07-09T09:54:13Z</time>
      </trkpt>
      <trkpt lat="42.052746" lon="1.7720671">
        <time>2022-07-09T09:54:14Z</time>
      </trkpt>
      <trkpt lat="42.052727" lon="1.7720975">
        <time>2022-07-09T09:54:16Z</time>
      </trkpt>
      <trkpt lat="42.052715" lon="1.7721715">
        <time>2022-07-09T09:54:23Z</time>
      </trkpt>
      <trkpt lat="42.052708" lon="1.7722545">
        <time>2022-07-09T09:54:25Z</time>
      </trkpt>
      <trkpt lat="42.0527" lon="1.7723118">
        <time>2022-07-09T09:54:27Z</time>
      </trkpt>
      <trkpt lat="42.05282" lon="1.7723591">
        <time>2022-07-09T09:54:50Z</time>
      </trkpt>
      <trkpt lat="42.052853" lon="1.7723144">
        <time>2022-07-09T09:54:54Z</time>
      </trkpt>
      <trkpt lat="42.05283" lon="1.7724104">
        <time>2022-07-09T09:54:59Z</time>
      </trkpt>
      <trkpt lat="42.05281" lon="1.7724718">
        <time>2022-07-09T09:55:02Z</time>
      </trkpt>
      <trkpt lat="42.052776" lon="1.7722821">
        <time>2022-07-09T09:55:50Z</time>
      </trkpt>
      <trkpt lat="42.0528" lon="1.7721921">
        <time>2022-07-09T09:56:13Z</time>
      </trkpt>
      <trkpt lat="42.05281" lon="1.7721378">
        <time>2022-07-09T09:56:20Z</time>
      </trkpt>
      <trkpt lat="42.052723" lon="1.7721361">
        <time>2022-07-09T09:56:42Z</time>
      </trkpt>
      <trkpt lat="42.052715" lon="1.7721281">
        <time>2022-07-09T09:56:58Z</time>
      </trkpt>
      <trkpt lat="42.05265" lon="1.7720731">
        <time>2022-07-09T09:58:06Z</time>
      </trkpt>
      <trkpt lat="42.052685" lon="1.7720878">
        <time>2022-07-09T09:58:08Z</time>
      </trkpt>
      <trkpt lat="42.052685" lon="1.7720695">
        <time>2022-07-09T09:58:16Z</time>
      </trkpt>
      <trkpt lat="42.05267" lon="1.7720535">
        <time>2022-07-09T09:58:24Z</time>
      </trkpt>
      <trkpt lat="42.052616" lon="1.7720565">
        <time>2022-07-09T09:58:38Z</time>
      </trkpt>
      <trkpt lat="42.052555" lon="1.7719887">
        <time>2022-07-09T09:59:23Z</time>
      </trkpt>
      <trkpt lat="42.0526" lon="1.7720017">
        <time>2022-07-09T09:59:31Z</time>
      </trkpt>
      <trkpt lat="42.052643" lon="1.7720125">
        <time>2022-07-09T09:59:38Z</time>
      </trkpt>
      <trkpt lat="42.052826" lon="1.772317">
        <time>2022-07-09T10:03:20Z</time>
      </trkpt>
      <trkpt lat="42.052876" lon="1.7723348">
        <time>2022-07-09T10:03:23Z</time>
      </trkpt>
      <trkpt lat="42.052876" lon="1.7723771">
        <time>2022-07-09T10:03:28Z</time>
      </trkpt>
      <trkpt lat="42.052807" lon="1.7724241">
        <time>2022-07-09T10:03:32Z</time>
      </trkpt>
      <trkpt lat="42.052746" lon="1.7724931">
        <time>2022-07-09T10:03:35Z</time>
      </trkpt>
      <trkpt lat="42.052704" lon="1.7725484">
        <time>2022-07-09T10:03:37Z</time>
      </trkpt>
      <trkpt lat="42.05266" lon="1.7726058">
        <time>2022-07-09T10:03:39Z</time>
      </trkpt>
      <trkpt lat="42.052624" lon="1.7726591">
        <time>2022-07-09T10:03:41Z</time>
      </trkpt>
      <trkpt lat="42.05258" lon="1.7727114">
        <time>2022-07-09T10:03:43Z</time>
      </trkpt>
      <trkpt lat="42.05254" lon="1.7727624">
        <time>2022-07-09T10:03:45Z</time>
      </trkpt>
      <trkpt lat="42.052498" lon="1.7728194">
        <time>2022-07-09T10:03:47Z</time>
      </trkpt>
      <trkpt lat="42.052464" lon="1.7728808">
        <time>2022-07-09T10:03:49Z</time>
      </trkpt>
      <trkpt lat="42.052437" lon="1.7729374">
        <time>2022-07-09T10:03:51Z</time>
      </trkpt>
      <trkpt lat="42.052395" lon="1.7730128">
        <time>2022-07-09T10:03:54Z</time>
      </trkpt>
      <trkpt lat="42.05233" lon="1.7730614">
        <time>2022-07-09T10:03:57Z</time>
      </trkpt>
      <trkpt lat="42.052273" lon="1.7730827">
        <time>2022-07-09T10:03:59Z</time>
      </trkpt>
      <trkpt lat="42.052208" lon="1.7730967">
        <time>2022-07-09T10:04:01Z</time>
      </trkpt>
      <trkpt lat="42.052143" lon="1.7731074">
        <time>2022-07-09T10:04:03Z</time>
      </trkpt>
      <trkpt lat="42.052074" lon="1.7731144">
        <time>2022-07-09T10:04:05Z</time>
      </trkpt>
      <trkpt lat="42.052006" lon="1.7731184">
        <time>2022-07-09T10:04:07Z</time>
      </trkpt>
      <trkpt lat="42.05193" lon="1.7731208">
        <time>2022-07-09T10:04:09Z</time>
      </trkpt>
      <trkpt lat="42.051857" lon="1.7731197">
        <time>2022-07-09T10:04:11Z</time>
      </trkpt>
      <trkpt lat="42.051777" lon="1.7731171">
        <time>2022-07-09T10:04:13Z</time>
      </trkpt>
      <trkpt lat="42.0517" lon="1.7731154">
        <time>2022-07-09T10:04:15Z</time>
      </trkpt>
      <trkpt lat="42.051624" lon="1.7731141">
        <time>2022-07-09T10:04:17Z</time>
      </trkpt>
      <trkpt lat="42.051548" lon="1.7731178">
        <time>2022-07-09T10:04:19Z</time>
      </trkpt>
      <trkpt lat="42.05147" lon="1.7731258">
        <time>2022-07-09T10:04:21Z</time>
      </trkpt>
      <trkpt lat="42.051395" lon="1.7731377">
        <time>2022-07-09T10:04:23Z</time>
      </trkpt>
      <trkpt lat="42.051315" lon="1.7731524">
        <time>2022-07-09T10:04:25Z</time>
      </trkpt>
      <trkpt lat="42.05124" lon="1.7731684">
        <time>2022-07-09T10:04:27Z</time>
      </trkpt>
      <trkpt lat="42.051167" lon="1.7731874">
        <time>2022-07-09T10:04:29Z</time>
      </trkpt>
      <trkpt lat="42.051098" lon="1.7732047">
        <time>2022-07-09T10:04:31Z</time>
      </trkpt>
      <trkpt lat="42.051033" lon="1.773221">
        <time>2022-07-09T10:04:33Z</time>
      </trkpt>
      <trkpt lat="42.050972" lon="1.7732368">
        <time>2022-07-09T10:04:35Z</time>
      </trkpt>
      <trkpt lat="42.050915" lon="1.773252">
        <time>2022-07-09T10:04:37Z</time>
      </trkpt>
      <trkpt lat="42.050858" lon="1.7732667">
        <time>2022-07-09T10:04:39Z</time>
      </trkpt>
      <trkpt lat="42.0508" lon="1.7732804">
        <time>2022-07-09T10:04:41Z</time>
      </trkpt>
      <trkpt lat="42.050743" lon="1.7732947">
        <time>2022-07-09T10:04:43Z</time>
      </trkpt>
      <trkpt lat="42.050686" lon="1.773307">
        <time>2022-07-09T10:04:45Z</time>
      </trkpt>
      <trkpt lat="42.050632" lon="1.7733197">
        <time>2022-07-09T10:04:47Z</time>
      </trkpt>
      <trkpt lat="42.050575" lon="1.7733337">
        <time>2022-07-09T10:04:49Z</time>
      </trkpt>
      <trkpt lat="42.050518" lon="1.7733487">
        <time>2022-07-09T10:04:51Z</time>
      </trkpt>
      <trkpt lat="42.05046" lon="1.7733654">
        <time>2022-07-09T10:04:53Z</time>
      </trkpt>
      <trkpt lat="42.050404" lon="1.7733804">
        <time>2022-07-09T10:04:55Z</time>
      </trkpt>
      <trkpt lat="42.05035" lon="1.7733936">
        <time>2022-07-09T10:04:57Z</time>
      </trkpt>
      <trkpt lat="42.050293" lon="1.7734083">
        <time>2022-07-09T10:04:59Z</time>
      </trkpt>
      <trkpt lat="42.050232" lon="1.7734237">
        <time>2022-07-09T10:05:01Z</time>
      </trkpt>
      <trkpt lat="42.05018" lon="1.7734387">
        <time>2022-07-09T10:05:03Z</time>
      </trkpt>
      <trkpt lat="42.05012" lon="1.7734523">
        <time>2022-07-09T10:05:05Z</time>
      </trkpt>
      <trkpt lat="42.050064" lon="1.773467">
        <time>2022-07-09T10:05:07Z</time>
      </trkpt>
      <trkpt lat="42.050007" lon="1.773482">
        <time>2022-07-09T10:05:09Z</time>
      </trkpt>
      <trkpt lat="42.04995" lon="1.7734976">
        <time>2022-07-09T10:05:11Z</time>
      </trkpt>
      <trkpt lat="42.04989" lon="1.7735126">
        <time>2022-07-09T10:05:13Z</time>
      </trkpt>
      <trkpt lat="42.049828" lon="1.773527">
        <time>2022-07-09T10:05:15Z</time>
      </trkpt>
      <trkpt lat="42.04977" lon="1.773539">
        <time>2022-07-09T10:05:17Z</time>
      </trkpt>
      <trkpt lat="42.04971" lon="1.773552">
        <time>2022-07-09T10:05:19Z</time>
      </trkpt>
      <trkpt lat="42.049652" lon="1.773566">
        <time>2022-07-09T10:05:21Z</time>
      </trkpt>
      <trkpt lat="42.049564" lon="1.7735866">
        <time>2022-07-09T10:05:24Z</time>
      </trkpt>
      <trkpt lat="42.049507" lon="1.7736013">
        <time>2022-07-09T10:05:26Z</time>
      </trkpt>
      <trkpt lat="42.049454" lon="1.7736169">
        <time>2022-07-09T10:05:28Z</time>
      </trkpt>
      <trkpt lat="42.049397" lon="1.773634">
        <time>2022-07-09T10:05:30Z</time>
      </trkpt>
      <trkpt lat="42.049343" lon="1.773651">
        <time>2022-07-09T10:05:32Z</time>
      </trkpt>
      <trkpt lat="42.049286" lon="1.7736686">
        <time>2022-07-09T10:05:34Z</time>
      </trkpt>
      <trkpt lat="42.04923" lon="1.773685">
        <time>2022-07-09T10:05:36Z</time>
      </trkpt>
      <trkpt lat="42.049175" lon="1.7737">
        <time>2022-07-09T10:05:38Z</time>
      </trkpt>
      <trkpt lat="42.04912" lon="1.773713">
        <time>2022-07-09T10:05:40Z</time>
      </trkpt>
      <trkpt lat="42.04904" lon="1.7737316">
        <time>2022-07-09T10:05:43Z</time>
      </trkpt>
      <trkpt lat="42.048992" lon="1.773744">
        <time>2022-07-09T10:05:45Z</time>
      </trkpt>
      <trkpt lat="42.048946" lon="1.7737585">
        <time>2022-07-09T10:05:47Z</time>
      </trkpt>
      <trkpt lat="42.048874" lon="1.7737815">
        <time>2022-07-09T10:05:50Z</time>
      </trkpt>
      <trkpt lat="42.048805" lon="1.7738069">
        <time>2022-07-09T10:05:53Z</time>
      </trkpt>
      <trkpt lat="42.048733" lon="1.7738333">
        <time>2022-07-09T10:05:56Z</time>
      </trkpt>
      <trkpt lat="42.048664" lon="1.7738569">
        <time>2022-07-09T10:05:59Z</time>
      </trkpt>
      <trkpt lat="42.04859" lon="1.773886">
        <time>2022-07-09T10:06:02Z</time>
      </trkpt>
      <trkpt lat="42.048546" lon="1.7739059">
        <time>2022-07-09T10:06:04Z</time>
      </trkpt>
      <trkpt lat="42.048473" lon="1.773935">
        <time>2022-07-09T10:06:07Z</time>
      </trkpt>
      <trkpt lat="42.0484" lon="1.7739606">
        <time>2022-07-09T10:06:10Z</time>
      </trkpt>
      <trkpt lat="42.048355" lon="1.7739795">
        <time>2022-07-09T10:06:12Z</time>
      </trkpt>
      <trkpt lat="42.04828" lon="1.7740089">
        <time>2022-07-09T10:06:15Z</time>
      </trkpt>
      <trkpt lat="42.048233" lon="1.7740285">
        <time>2022-07-09T10:06:17Z</time>
      </trkpt>
      <trkpt lat="42.04816" lon="1.7740592">
        <time>2022-07-09T10:06:20Z</time>
      </trkpt>
      <trkpt lat="42.04809" lon="1.7740909">
        <time>2022-07-09T10:06:23Z</time>
      </trkpt>
      <trkpt lat="42.048042" lon="1.7741115">
        <time>2022-07-09T10:06:25Z</time>
      </trkpt>
      <trkpt lat="42.047977" lon="1.7741442">
        <time>2022-07-09T10:06:28Z</time>
      </trkpt>
      <trkpt lat="42.04791" lon="1.7741722">
        <time>2022-07-09T10:06:31Z</time>
      </trkpt>
      <trkpt lat="42.04785" lon="1.7741889">
        <time>2022-07-09T10:06:34Z</time>
      </trkpt>
      <trkpt lat="42.047882" lon="1.7742039">
        <time>2022-07-09T10:06:49Z</time>
      </trkpt>
      <trkpt lat="42.047947" lon="1.7741889">
        <time>2022-07-09T10:06:53Z</time>
      </trkpt>
      <trkpt lat="42.048" lon="1.7741688">
        <time>2022-07-09T10:06:56Z</time>
      </trkpt>
      <trkpt lat="42.048054" lon="1.7741499">
        <time>2022-07-09T10:06:59Z</time>
      </trkpt>
      <trkpt lat="42.048107" lon="1.7741295">
        <time>2022-07-09T10:07:02Z</time>
      </trkpt>
      <trkpt lat="42.048164" lon="1.7741045">
        <time>2022-07-09T10:07:05Z</time>
      </trkpt>
      <trkpt lat="42.04822" lon="1.7740825">
        <time>2022-07-09T10:07:08Z</time>
      </trkpt>
      <trkpt lat="42.04829" lon="1.7740653">
        <time>2022-07-09T10:07:11Z</time>
      </trkpt>
      <trkpt lat="42.048355" lon="1.7740442">
        <time>2022-07-09T10:07:14Z</time>
      </trkpt>
      <trkpt lat="42.048416" lon="1.7740206">
        <time>2022-07-09T10:07:17Z</time>
      </trkpt>
      <trkpt lat="42.048477" lon="1.7739949">
        <time>2022-07-09T10:07:20Z</time>
      </trkpt>
      <trkpt lat="42.04853" lon="1.7739712">
        <time>2022-07-09T10:07:23Z</time>
      </trkpt>
      <trkpt lat="42.048584" lon="1.7739515">
        <time>2022-07-09T10:07:26Z</time>
      </trkpt>
      <trkpt lat="42.048656" lon="1.773925">
        <time>2022-07-09T10:07:30Z</time>
      </trkpt>
      <trkpt lat="42.048706" lon="1.7739079">
        <time>2022-07-09T10:07:33Z</time>
      </trkpt>
      <trkpt lat="42.048763" lon="1.7739025">
        <time>2022-07-09T10:07:37Z</time>
      </trkpt>
      <trkpt lat="42.048813" lon="1.7738979">
        <time>2022-07-09T10:07:41Z</time>
      </trkpt>
      <trkpt lat="42.04886" lon="1.7738556">
        <time>2022-07-09T10:08:27Z</time>
      </trkpt>
      <trkpt lat="42.04889" lon="1.7737849">
        <time>2022-07-09T10:08:31Z</time>
      </trkpt>
      <trkpt lat="42.04893" lon="1.7737256">
        <time>2022-07-09T10:08:35Z</time>
      </trkpt>
      <trkpt lat="42.04898" lon="1.773708">
        <time>2022-07-09T10:08:39Z</time>
      </trkpt>
      <trkpt lat="42.04904" lon="1.7737073">
        <time>2022-07-09T10:08:43Z</time>
      </trkpt>
      <trkpt lat="42.049053" lon="1.7737303">
        <time>2022-07-09T10:08:50Z</time>
      </trkpt>
      <trkpt lat="42.048996" lon="1.7737592">
        <time>2022-07-09T10:08:55Z</time>
      </trkpt>
      <trkpt lat="42.048943" lon="1.773786">
        <time>2022-07-09T10:08:59Z</time>
      </trkpt>
      <trkpt lat="42.04889" lon="1.773824">
        <time>2022-07-09T10:09:03Z</time>
      </trkpt>
      <trkpt lat="42.048847" lon="1.7738609">
        <time>2022-07-09T10:09:07Z</time>
      </trkpt>
      <trkpt lat="42.04883" lon="1.7738312">
        <time>2022-07-09T10:49:18Z</time>
      </trkpt>
      <trkpt lat="42.04875" lon="1.7738096">
        <time>2022-07-09T10:49:23Z</time>
      </trkpt>
      <trkpt lat="42.048687" lon="1.7738286">
        <time>2022-07-09T10:49:26Z</time>
      </trkpt>
      <trkpt lat="42.048622" lon="1.7738587">
        <time>2022-07-09T10:49:29Z</time>
      </trkpt>
      <trkpt lat="42.04855" lon="1.773893">
        <time>2022-07-09T10:49:32Z</time>
      </trkpt>
      <trkpt lat="42.048504" lon="1.773914">
        <time>2022-07-09T10:49:34Z</time>
      </trkpt>
      <trkpt lat="42.04843" lon="1.7739469">
        <time>2022-07-09T10:49:37Z</time>
      </trkpt>
      <trkpt lat="42.04838" lon="1.7739682">
        <time>2022-07-09T10:49:39Z</time>
      </trkpt>
      <trkpt lat="42.048332" lon="1.7739899">
        <time>2022-07-09T10:49:41Z</time>
      </trkpt>
      <trkpt lat="42.04826" lon="1.7740216">
        <time>2022-07-09T10:49:44Z</time>
      </trkpt>
      <trkpt lat="42.04821" lon="1.7740402">
        <time>2022-07-09T10:49:46Z</time>
      </trkpt>
      <trkpt lat="42.048153" lon="1.7740606">
        <time>2022-07-09T10:49:48Z</time>
      </trkpt>
      <trkpt lat="42.0481" lon="1.7740846">
        <time>2022-07-09T10:49:50Z</time>
      </trkpt>
      <trkpt lat="42.048046" lon="1.7741072">
        <time>2022-07-09T10:49:52Z</time>
      </trkpt>
      <trkpt lat="42.047993" lon="1.7741319">
        <time>2022-07-09T10:49:54Z</time>
      </trkpt>
      <trkpt lat="42.047947" lon="1.7741569">
        <time>2022-07-09T10:49:56Z</time>
      </trkpt>
      <trkpt lat="42.04787" lon="1.7741916">
        <time>2022-07-09T10:49:59Z</time>
      </trkpt>
      <trkpt lat="42.047813" lon="1.7742159">
        <time>2022-07-09T10:50:01Z</time>
      </trkpt>
      <trkpt lat="42.04776" lon="1.7742416">
        <time>2022-07-09T10:50:03Z</time>
      </trkpt>
      <trkpt lat="42.047703" lon="1.7742685">
        <time>2022-07-09T10:50:05Z</time>
      </trkpt>
      <trkpt lat="42.04765" lon="1.7743002">
        <time>2022-07-09T10:50:07Z</time>
      </trkpt>
      <trkpt lat="42.047596" lon="1.7743225">
        <time>2022-07-09T10:50:09Z</time>
      </trkpt>
      <trkpt lat="42.04754" lon="1.7743452">
        <time>2022-07-09T10:50:11Z</time>
      </trkpt>
      <trkpt lat="42.04748" lon="1.7743655">
        <time>2022-07-09T10:50:13Z</time>
      </trkpt>
      <trkpt lat="42.04743" lon="1.7743886">
        <time>2022-07-09T10:50:15Z</time>
      </trkpt>
      <trkpt lat="42.047375" lon="1.7744151">
        <time>2022-07-09T10:50:17Z</time>
      </trkpt>
      <trkpt lat="42.047314" lon="1.7744381">
        <time>2022-07-09T10:50:19Z</time>
      </trkpt>
      <trkpt lat="42.047253" lon="1.7744548">
        <time>2022-07-09T10:50:21Z</time>
      </trkpt>
      <trkpt lat="42.04719" lon="1.7744699">
        <time>2022-07-09T10:50:23Z</time>
      </trkpt>
      <trkpt lat="42.047127" lon="1.7744808">
        <time>2022-07-09T10:50:25Z</time>
      </trkpt>
      <trkpt lat="42.04707" lon="1.7744832">
        <time>2022-07-09T10:50:27Z</time>
      </trkpt>
      <trkpt lat="42.047012" lon="1.7744812">
        <time>2022-07-09T10:50:29Z</time>
      </trkpt>
      <trkpt lat="42.04696" lon="1.7744771">
        <time>2022-07-09T10:50:31Z</time>
      </trkpt>
      <trkpt lat="42.046906" lon="1.7744706">
        <time>2022-07-09T10:50:33Z</time>
      </trkpt>
      <trkpt lat="42.046856" lon="1.7744632">
        <time>2022-07-09T10:50:35Z</time>
      </trkpt>
      <trkpt lat="42.046787" lon="1.7744465">
        <time>2022-07-09T10:50:38Z</time>
      </trkpt>
      <trkpt lat="42.046715" lon="1.7744279">
        <time>2022-07-09T10:50:41Z</time>
      </trkpt>
      <trkpt lat="42.046646" lon="1.7744122">
        <time>2022-07-09T10:50:44Z</time>
      </trkpt>
      <trkpt lat="42.046574" lon="1.7743986">
        <time>2022-07-09T10:50:47Z</time>
      </trkpt>
      <trkpt lat="42.046528" lon="1.7743899">
        <time>2022-07-09T10:50:49Z</time>
      </trkpt>
      <trkpt lat="42.046455" lon="1.7743822">
        <time>2022-07-09T10:50:52Z</time>
      </trkpt>
      <trkpt lat="42.046375" lon="1.7743815">
        <time>2022-07-09T10:50:55Z</time>
      </trkpt>
      <trkpt lat="42.04632" lon="1.7743869">
        <time>2022-07-09T10:50:57Z</time>
      </trkpt>
      <trkpt lat="42.04626" lon="1.7743945">
        <time>2022-07-09T10:50:59Z</time>
      </trkpt>
      <trkpt lat="42.046196" lon="1.7744106">
        <time>2022-07-09T10:51:01Z</time>
      </trkpt>
      <trkpt lat="42.04612" lon="1.7744355">
        <time>2022-07-09T10:51:03Z</time>
      </trkpt>
      <trkpt lat="42.046036" lon="1.7744672">
        <time>2022-07-09T10:51:05Z</time>
      </trkpt>
      <trkpt lat="42.04595" lon="1.7745019">
        <time>2022-07-09T10:51:07Z</time>
      </trkpt>
      <trkpt lat="42.045868" lon="1.7745396">
        <time>2022-07-09T10:51:09Z</time>
      </trkpt>
      <trkpt lat="42.045776" lon="1.7745771">
        <time>2022-07-09T10:51:11Z</time>
      </trkpt>
      <trkpt lat="42.045685" lon="1.7746159">
        <time>2022-07-09T10:51:13Z</time>
      </trkpt>
      <trkpt lat="42.045597" lon="1.7746545">
        <time>2022-07-09T10:51:15Z</time>
      </trkpt>
      <trkpt lat="42.04551" lon="1.7746898">
        <time>2022-07-09T10:51:17Z</time>
      </trkpt>
      <trkpt lat="42.045418" lon="1.7747262">
        <time>2022-07-09T10:51:19Z</time>
      </trkpt>
      <trkpt lat="42.045326" lon="1.7747645">
        <time>2022-07-09T10:51:21Z</time>
      </trkpt>
      <trkpt lat="42.04524" lon="1.7748041">
        <time>2022-07-09T10:51:23Z</time>
      </trkpt>
      <trkpt lat="42.04519" lon="1.7748238">
        <time>2022-07-09T10:51:24Z</time>
      </trkpt>
      <trkpt lat="42.045097" lon="1.7748595">
        <time>2022-07-09T10:51:26Z</time>
      </trkpt>
      <trkpt lat="42.04505" lon="1.7748761">
        <time>2022-07-09T10:51:27Z</time>
      </trkpt>
      <trkpt lat="42.044964" lon="1.7749078">
        <time>2022-07-09T10:51:29Z</time>
      </trkpt>
      <trkpt lat="42.04487" lon="1.7749465">
        <time>2022-07-09T10:51:31Z</time>
      </trkpt>
      <trkpt lat="42.044777" lon="1.7749825">
        <time>2022-07-09T10:51:33Z</time>
      </trkpt>
      <trkpt lat="42.044674" lon="1.7750179">
        <time>2022-07-09T10:51:35Z</time>
      </trkpt>
      <trkpt lat="42.04462" lon="1.7750335">
        <time>2022-07-09T10:51:36Z</time>
      </trkpt>
      <trkpt lat="42.044563" lon="1.7750485">
        <time>2022-07-09T10:51:37Z</time>
      </trkpt>
      <trkpt lat="42.044514" lon="1.7750621">
        <time>2022-07-09T10:51:38Z</time>
      </trkpt>
      <trkpt lat="42.044453" lon="1.7750758">
        <time>2022-07-09T10:51:39Z</time>
      </trkpt>
      <trkpt lat="42.0444" lon="1.7750894">
        <time>2022-07-09T10:51:40Z</time>
      </trkpt>
      <trkpt lat="42.044342" lon="1.7751034">
        <time>2022-07-09T10:51:41Z</time>
      </trkpt>
      <trkpt lat="42.044277" lon="1.7751205">
        <time>2022-07-09T10:51:42Z</time>
      </trkpt>
      <trkpt lat="42.044216" lon="1.7751365">
        <time>2022-07-09T10:51:43Z</time>
      </trkpt>
      <trkpt lat="42.04415" lon="1.7751508">
        <time>2022-07-09T10:51:44Z</time>
      </trkpt>
      <trkpt lat="42.044086" lon="1.7751651">
        <time>2022-07-09T10:51:45Z</time>
      </trkpt>
      <trkpt lat="42.04402" lon="1.7751784">
        <time>2022-07-09T10:51:46Z</time>
      </trkpt>
      <trkpt lat="42.043953" lon="1.7751935">
        <time>2022-07-09T10:51:47Z</time>
      </trkpt>
      <trkpt lat="42.043884" lon="1.7752087">
        <time>2022-07-09T10:51:48Z</time>
      </trkpt>
      <trkpt lat="42.043816" lon="1.7752248">
        <time>2022-07-09T10:51:49Z</time>
      </trkpt>
      <trkpt lat="42.04375" lon="1.7752397">
        <time>2022-07-09T10:51:50Z</time>
      </trkpt>
      <trkpt lat="42.043682" lon="1.7752554">
        <time>2022-07-09T10:51:51Z</time>
      </trkpt>
      <trkpt lat="42.043613" lon="1.7752697">
        <time>2022-07-09T10:51:52Z</time>
      </trkpt>
      <trkpt lat="42.04355" lon="1.7752824">
        <time>2022-07-09T10:51:53Z</time>
      </trkpt>
      <trkpt lat="42.043484" lon="1.775295">
        <time>2022-07-09T10:51:54Z</time>
      </trkpt>
      <trkpt lat="42.04342" lon="1.7753061">
        <time>2022-07-09T10:51:55Z</time>
      </trkpt>
      <trkpt lat="42.04335" lon="1.775315">
        <time>2022-07-09T10:51:56Z</time>
      </trkpt>
      <trkpt lat="42.043285" lon="1.7753214">
        <time>2022-07-09T10:51:57Z</time>
      </trkpt>
      <trkpt lat="42.04322" lon="1.7753243">
        <time>2022-07-09T10:51:58Z</time>
      </trkpt>
      <trkpt lat="42.0431" lon="1.7753211">
        <time>2022-07-09T10:52:00Z</time>
      </trkpt>
      <trkpt lat="42.04304" lon="1.7753154">
        <time>2022-07-09T10:52:01Z</time>
      </trkpt>
      <trkpt lat="42.042988" lon="1.7753067">
        <time>2022-07-09T10:52:02Z</time>
      </trkpt>
      <trkpt lat="42.042934" lon="1.7752954">
        <time>2022-07-09T10:52:03Z</time>
      </trkpt>
      <trkpt lat="42.042885" lon="1.7752818">
        <time>2022-07-09T10:52:04Z</time>
      </trkpt>
      <trkpt lat="42.04279" lon="1.7752504">
        <time>2022-07-09T10:52:06Z</time>
      </trkpt>
      <trkpt lat="42.042698" lon="1.7752168">
        <time>2022-07-09T10:52:08Z</time>
      </trkpt>
      <trkpt lat="42.042614" lon="1.7751848">
        <time>2022-07-09T10:52:10Z</time>
      </trkpt>
      <trkpt lat="42.042538" lon="1.7751588">
        <time>2022-07-09T10:52:12Z</time>
      </trkpt>
      <trkpt lat="42.04246" lon="1.7751408">
        <time>2022-07-09T10:52:14Z</time>
      </trkpt>
      <trkpt lat="42.04239" lon="1.7751298">
        <time>2022-07-09T10:52:16Z</time>
      </trkpt>
      <trkpt lat="42.042313" lon="1.7751278">
        <time>2022-07-09T10:52:18Z</time>
      </trkpt>
      <trkpt lat="42.042248" lon="1.7751334">
        <time>2022-07-09T10:52:20Z</time>
      </trkpt>
      <trkpt lat="42.04218" lon="1.7751448">
        <time>2022-07-09T10:52:22Z</time>
      </trkpt>
      <trkpt lat="42.04211" lon="1.7751617">
        <time>2022-07-09T10:52:24Z</time>
      </trkpt>
      <trkpt lat="42.04204" lon="1.7751827">
        <time>2022-07-09T10:52:26Z</time>
      </trkpt>
      <trkpt lat="42.04197" lon="1.7752104">
        <time>2022-07-09T10:52:28Z</time>
      </trkpt>
      <trkpt lat="42.0419" lon="1.7752391">
        <time>2022-07-09T10:52:30Z</time>
      </trkpt>
      <trkpt lat="42.041836" lon="1.7752694">
        <time>2022-07-09T10:52:32Z</time>
      </trkpt>
      <trkpt lat="42.041763" lon="1.7753037">
        <time>2022-07-09T10:52:34Z</time>
      </trkpt>
      <trkpt lat="42.041687" lon="1.775351">
        <time>2022-07-09T10:52:36Z</time>
      </trkpt>
      <trkpt lat="42.04161" lon="1.7754338">
        <time>2022-07-09T10:52:38Z</time>
      </trkpt>
      <trkpt lat="42.041573" lon="1.7754878">
        <time>2022-07-09T10:52:39Z</time>
      </trkpt>
      <trkpt lat="42.041542" lon="1.7755527">
        <time>2022-07-09T10:52:40Z</time>
      </trkpt>
      <trkpt lat="42.04151" lon="1.7756214">
        <time>2022-07-09T10:52:41Z</time>
      </trkpt>
      <trkpt lat="42.041477" lon="1.775704">
        <time>2022-07-09T10:52:42Z</time>
      </trkpt>
      <trkpt lat="42.041443" lon="1.7757903">
        <time>2022-07-09T10:52:43Z</time>
      </trkpt>
      <trkpt lat="42.0414" lon="1.7758781">
        <time>2022-07-09T10:52:44Z</time>
      </trkpt>
      <trkpt lat="42.041355" lon="1.775964">
        <time>2022-07-09T10:52:45Z</time>
      </trkpt>
      <trkpt lat="42.041298" lon="1.7760477">
        <time>2022-07-09T10:52:46Z</time>
      </trkpt>
      <trkpt lat="42.041237" lon="1.7761284">
        <time>2022-07-09T10:52:47Z</time>
      </trkpt>
      <trkpt lat="42.041172" lon="1.776206">
        <time>2022-07-09T10:52:48Z</time>
      </trkpt>
      <trkpt lat="42.041096" lon="1.7762797">
        <time>2022-07-09T10:52:49Z</time>
      </trkpt>
      <trkpt lat="42.041016" lon="1.77635">
        <time>2022-07-09T10:52:50Z</time>
      </trkpt>
      <trkpt lat="42.040936" lon="1.7764174">
        <time>2022-07-09T10:52:51Z</time>
      </trkpt>
      <trkpt lat="42.040848" lon="1.776484">
        <time>2022-07-09T10:52:52Z</time>
      </trkpt>
      <trkpt lat="42.040764" lon="1.7765527">
        <time>2022-07-09T10:52:53Z</time>
      </trkpt>
      <trkpt lat="42.04068" lon="1.7766243">
        <time>2022-07-09T10:52:54Z</time>
      </trkpt>
      <trkpt lat="42.040592" lon="1.7767006">
        <time>2022-07-09T10:52:55Z</time>
      </trkpt>
      <trkpt lat="42.04051" lon="1.7767847">
        <time>2022-07-09T10:52:56Z</time>
      </trkpt>
      <trkpt lat="42.04043" lon="1.776878">
        <time>2022-07-09T10:52:57Z</time>
      </trkpt>
      <trkpt lat="42.04035" lon="1.7769799">
        <time>2022-07-09T10:52:58Z</time>
      </trkpt>
      <trkpt lat="42.04028" lon="1.777092">
        <time>2022-07-09T10:52:59Z</time>
      </trkpt>
      <trkpt lat="42.040215" lon="1.777224">
        <time>2022-07-09T10:53:00Z</time>
      </trkpt>
      <trkpt lat="42.040157" lon="1.777362">
        <time>2022-07-09T10:53:01Z</time>
      </trkpt>
      <trkpt lat="42.040108" lon="1.7775047">
        <time>2022-07-09T10:53:02Z</time>
      </trkpt>
      <trkpt lat="42.04007" lon="1.77765">
        <time>2022-07-09T10:53:03Z</time>
      </trkpt>
      <trkpt lat="42.040035" lon="1.7777857">
        <time>2022-07-09T10:53:04Z</time>
      </trkpt>
      <trkpt lat="42.04" lon="1.7779313">
        <time>2022-07-09T10:53:05Z</time>
      </trkpt>
      <trkpt lat="42.03997" lon="1.7780646">
        <time>2022-07-09T10:53:06Z</time>
      </trkpt>
      <trkpt lat="42.03994" lon="1.778196">
        <time>2022-07-09T10:53:07Z</time>
      </trkpt>
      <trkpt lat="42.039913" lon="1.7783253">
        <time>2022-07-09T10:53:08Z</time>
      </trkpt>
      <trkpt lat="42.039886" lon="1.778451">
        <time>2022-07-09T10:53:09Z</time>
      </trkpt>
      <trkpt lat="42.03986" lon="1.7785733">
        <time>2022-07-09T10:53:10Z</time>
      </trkpt>
      <trkpt lat="42.039837" lon="1.7786926">
        <time>2022-07-09T10:53:11Z</time>
      </trkpt>
      <trkpt lat="42.03981" lon="1.7788153">
        <time>2022-07-09T10:53:12Z</time>
      </trkpt>
      <trkpt lat="42.039783" lon="1.7789322">
        <time>2022-07-09T10:53:13Z</time>
      </trkpt>
      <trkpt lat="42.039757" lon="1.7790366">
        <time>2022-07-09T10:53:14Z</time>
      </trkpt>
      <trkpt lat="42.039722" lon="1.7791373">
        <time>2022-07-09T10:53:15Z</time>
      </trkpt>
      <trkpt lat="42.039684" lon="1.7792336">
        <time>2022-07-09T10:53:16Z</time>
      </trkpt>
      <trkpt lat="42.039642" lon="1.7793236">
        <time>2022-07-09T10:53:17Z</time>
      </trkpt>
      <trkpt lat="42.039597" lon="1.7794056">
        <time>2022-07-09T10:53:18Z</time>
      </trkpt>
      <trkpt lat="42.039494" lon="1.7795463">
        <time>2022-07-09T10:53:20Z</time>
      </trkpt>
      <trkpt lat="42.039436" lon="1.779604">
        <time>2022-07-09T10:53:21Z</time>
      </trkpt>
      <trkpt lat="42.03937" lon="1.7796465">
        <time>2022-07-09T10:53:22Z</time>
      </trkpt>
      <trkpt lat="42.03931" lon="1.7796669">
        <time>2022-07-09T10:53:23Z</time>
      </trkpt>
      <trkpt lat="42.03925" lon="1.7796649">
        <time>2022-07-09T10:53:24Z</time>
      </trkpt>
      <trkpt lat="42.039192" lon="1.7796452">
        <time>2022-07-09T10:53:25Z</time>
      </trkpt>
      <trkpt lat="42.039143" lon="1.7796116">
        <time>2022-07-09T10:53:26Z</time>
      </trkpt>
      <trkpt lat="42.039093" lon="1.7795663">
        <time>2022-07-09T10:53:27Z</time>
      </trkpt>
      <trkpt lat="42.039043" lon="1.7795142">
        <time>2022-07-09T10:53:28Z</time>
      </trkpt>
      <trkpt lat="42.038994" lon="1.7794592">
        <time>2022-07-09T10:53:29Z</time>
      </trkpt>
      <trkpt lat="42.038944" lon="1.7794065">
        <time>2022-07-09T10:53:30Z</time>
      </trkpt>
      <trkpt lat="42.03889" lon="1.779362">
        <time>2022-07-09T10:53:31Z</time>
      </trkpt>
      <trkpt lat="42.03884" lon="1.7793276">
        <time>2022-07-09T10:53:32Z</time>
      </trkpt>
      <trkpt lat="42.038788" lon="1.779303">
        <time>2022-07-09T10:53:33Z</time>
      </trkpt>
      <trkpt lat="42.03874" lon="1.7792943">
        <time>2022-07-09T10:53:34Z</time>
      </trkpt>
      <trkpt lat="42.038643" lon="1.7793432">
        <time>2022-07-09T10:53:36Z</time>
      </trkpt>
      <trkpt lat="42.038593" lon="1.7793922">
        <time>2022-07-09T10:53:37Z</time>
      </trkpt>
      <trkpt lat="42.038548" lon="1.7794507">
        <time>2022-07-09T10:53:38Z</time>
      </trkpt>
      <trkpt lat="42.038498" lon="1.7795149">
        <time>2022-07-09T10:53:39Z</time>
      </trkpt>
      <trkpt lat="42.038445" lon="1.7795823">
        <time>2022-07-09T10:53:40Z</time>
      </trkpt>
      <trkpt lat="42.038387" lon="1.77965">
        <time>2022-07-09T10:53:41Z</time>
      </trkpt>
      <trkpt lat="42.03833" lon="1.779712">
        <time>2022-07-09T10:53:42Z</time>
      </trkpt>
      <trkpt lat="42.038265" lon="1.7797656">
        <time>2022-07-09T10:53:43Z</time>
      </trkpt>
      <trkpt lat="42.0382" lon="1.7798085">
        <time>2022-07-09T10:53:44Z</time>
      </trkpt>
      <trkpt lat="42.038136" lon="1.7798415">
        <time>2022-07-09T10:53:45Z</time>
      </trkpt>
      <trkpt lat="42.038063" lon="1.7798673">
        <time>2022-07-09T10:53:46Z</time>
      </trkpt>
      <trkpt lat="42.03799" lon="1.7798879">
        <time>2022-07-09T10:53:47Z</time>
      </trkpt>
      <trkpt lat="42.037907" lon="1.7799052">
        <time>2022-07-09T10:53:48Z</time>
      </trkpt>
      <trkpt lat="42.03783" lon="1.7799206">
        <time>2022-07-09T10:53:49Z</time>
      </trkpt>
      <trkpt lat="42.03775" lon="1.7799342">
        <time>2022-07-09T10:53:50Z</time>
      </trkpt>
      <trkpt lat="42.03767" lon="1.7799466">
        <time>2022-07-09T10:53:51Z</time>
      </trkpt>
      <trkpt lat="42.03759" lon="1.7799582">
        <time>2022-07-09T10:53:52Z</time>
      </trkpt>
      <trkpt lat="42.037506" lon="1.7799705">
        <time>2022-07-09T10:53:53Z</time>
      </trkpt>
      <trkpt lat="42.037415" lon="1.7799835">
        <time>2022-07-09T10:53:54Z</time>
      </trkpt>
      <trkpt lat="42.037323" lon="1.7799962">
        <time>2022-07-09T10:53:55Z</time>
      </trkpt>
      <trkpt lat="42.037235" lon="1.7800089">
        <time>2022-07-09T10:53:56Z</time>
      </trkpt>
      <trkpt lat="42.037148" lon="1.7800225">
        <time>2022-07-09T10:53:57Z</time>
      </trkpt>
      <trkpt lat="42.037056" lon="1.7800355">
        <time>2022-07-09T10:53:58Z</time>
      </trkpt>
      <trkpt lat="42.03696" lon="1.7800485">
        <time>2022-07-09T10:53:59Z</time>
      </trkpt>
      <trkpt lat="42.036865" lon="1.7800622">
        <time>2022-07-09T10:54:00Z</time>
      </trkpt>
      <trkpt lat="42.036766" lon="1.7800752">
        <time>2022-07-09T10:54:01Z</time>
      </trkpt>
      <trkpt lat="42.036667" lon="1.7800895">
        <time>2022-07-09T10:54:02Z</time>
      </trkpt>
      <trkpt lat="42.036568" lon="1.7801045">
        <time>2022-07-09T10:54:03Z</time>
      </trkpt>
      <trkpt lat="42.036457" lon="1.7801222">
        <time>2022-07-09T10:54:04Z</time>
      </trkpt>
      <trkpt lat="42.036358" lon="1.7801398">
        <time>2022-07-09T10:54:05Z</time>
      </trkpt>
      <trkpt lat="42.036255" lon="1.7801645">
        <time>2022-07-09T10:54:06Z</time>
      </trkpt>
      <trkpt lat="42.036156" lon="1.7802025">
        <time>2022-07-09T10:54:07Z</time>
      </trkpt>
      <trkpt lat="42.036064" lon="1.7802598">
        <time>2022-07-09T10:54:08Z</time>
      </trkpt>
      <trkpt lat="42.035984" lon="1.7803375">
        <time>2022-07-09T10:54:09Z</time>
      </trkpt>
      <trkpt lat="42.035915" lon="1.7804345">
        <time>2022-07-09T10:54:10Z</time>
      </trkpt>
      <trkpt lat="42.035862" lon="1.7805492">
        <time>2022-07-09T10:54:11Z</time>
      </trkpt>
      <trkpt lat="42.035816" lon="1.7806752">
        <time>2022-07-09T10:54:12Z</time>
      </trkpt>
      <trkpt lat="42.035778" lon="1.7808098">
        <time>2022-07-09T10:54:13Z</time>
      </trkpt>
      <trkpt lat="42.035744" lon="1.7809504">
        <time>2022-07-09T10:54:14Z</time>
      </trkpt>
      <trkpt lat="42.035713" lon="1.7810944">
        <time>2022-07-09T10:54:15Z</time>
      </trkpt>
      <trkpt lat="42.035686" lon="1.7812434">
        <time>2022-07-09T10:54:16Z</time>
      </trkpt>
      <trkpt lat="42.035664" lon="1.7813948">
        <time>2022-07-09T10:54:17Z</time>
      </trkpt>
      <trkpt lat="42.035633" lon="1.7815485">
        <time>2022-07-09T10:54:18Z</time>
      </trkpt>
      <trkpt lat="42.0356" lon="1.7817011">
        <time>2022-07-09T10:54:19Z</time>
      </trkpt>
      <trkpt lat="42.035557" lon="1.7818518">
        <time>2022-07-09T10:54:20Z</time>
      </trkpt>
      <trkpt lat="42.035507" lon="1.7819971">
        <time>2022-07-09T10:54:21Z</time>
      </trkpt>
      <trkpt lat="42.03545" lon="1.7821372">
        <time>2022-07-09T10:54:22Z</time>
      </trkpt>
      <trkpt lat="42.03539" lon="1.7822721">
        <time>2022-07-09T10:54:23Z</time>
      </trkpt>
      <trkpt lat="42.035324" lon="1.7824024">
        <time>2022-07-09T10:54:24Z</time>
      </trkpt>
      <trkpt lat="42.035255" lon="1.7825301">
        <time>2022-07-09T10:54:25Z</time>
      </trkpt>
      <trkpt lat="42.035187" lon="1.7826561">
        <time>2022-07-09T10:54:26Z</time>
      </trkpt>
      <trkpt lat="42.03512" lon="1.7827804">
        <time>2022-07-09T10:54:27Z</time>
      </trkpt>
      <trkpt lat="42.034977" lon="1.7830278">
        <time>2022-07-09T10:54:29Z</time>
      </trkpt>
      <trkpt lat="42.03491" lon="1.7831477">
        <time>2022-07-09T10:54:30Z</time>
      </trkpt>
      <trkpt lat="42.034832" lon="1.7832638">
        <time>2022-07-09T10:54:31Z</time>
      </trkpt>
      <trkpt lat="42.03476" lon="1.7833765">
        <time>2022-07-09T10:54:32Z</time>
      </trkpt>
      <trkpt lat="42.034683" lon="1.7834858">
        <time>2022-07-09T10:54:33Z</time>
      </trkpt>
      <trkpt lat="42.034607" lon="1.7835921">
        <time>2022-07-09T10:54:34Z</time>
      </trkpt>
      <trkpt lat="42.03453" lon="1.783696">
        <time>2022-07-09T10:54:35Z</time>
      </trkpt>
      <trkpt lat="42.03445" lon="1.7837974">
        <time>2022-07-09T10:54:36Z</time>
      </trkpt>
      <trkpt lat="42.03437" lon="1.783897">
        <time>2022-07-09T10:54:37Z</time>
      </trkpt>
      <trkpt lat="42.034294" lon="1.783995">
        <time>2022-07-09T10:54:38Z</time>
      </trkpt>
      <trkpt lat="42.034214" lon="1.7840917">
        <time>2022-07-09T10:54:39Z</time>
      </trkpt>
      <trkpt lat="42.034134" lon="1.7841874">
        <time>2022-07-09T10:54:40Z</time>
      </trkpt>
      <trkpt lat="42.034058" lon="1.7842807">
        <time>2022-07-09T10:54:41Z</time>
      </trkpt>
      <trkpt lat="42.033978" lon="1.7843734">
        <time>2022-07-09T10:54:42Z</time>
      </trkpt>
      <trkpt lat="42.033897" lon="1.7844657">
        <time>2022-07-09T10:54:43Z</time>
      </trkpt>
      <trkpt lat="42.03382" lon="1.784559">
        <time>2022-07-09T10:54:44Z</time>
      </trkpt>
      <trkpt lat="42.033752" lon="1.7846447">
        <time>2022-07-09T10:54:45Z</time>
      </trkpt>
      <trkpt lat="42.033676" lon="1.7847377">
        <time>2022-07-09T10:54:46Z</time>
      </trkpt>
      <trkpt lat="42.0336" lon="1.7848283">
        <time>2022-07-09T10:54:47Z</time>
      </trkpt>
      <trkpt lat="42.03353" lon="1.7849166">
        <time>2022-07-09T10:54:48Z</time>
      </trkpt>
      <trkpt lat="42.033463" lon="1.7849977">
        <time>2022-07-09T10:54:49Z</time>
      </trkpt>
      <trkpt lat="42.033398" lon="1.7850833">
        <time>2022-07-09T10:54:50Z</time>
      </trkpt>
      <trkpt lat="42.033333" lon="1.7851653">
        <time>2022-07-09T10:54:51Z</time>
      </trkpt>
      <trkpt lat="42.033268" lon="1.785244">
        <time>2022-07-09T10:54:52Z</time>
      </trkpt>
      <trkpt lat="42.033203" lon="1.7853186">
        <time>2022-07-09T10:54:53Z</time>
      </trkpt>
      <trkpt lat="42.033142" lon="1.7853906">
        <time>2022-07-09T10:54:54Z</time>
      </trkpt>
      <trkpt lat="42.033085" lon="1.785461">
        <time>2022-07-09T10:54:55Z</time>
      </trkpt>
      <trkpt lat="42.033028" lon="1.785529">
        <time>2022-07-09T10:54:56Z</time>
      </trkpt>
      <trkpt lat="42.03297" lon="1.7855966">
        <time>2022-07-09T10:54:57Z</time>
      </trkpt>
      <trkpt lat="42.03292" lon="1.7856634">
        <time>2022-07-09T10:54:58Z</time>
      </trkpt>
      <trkpt lat="42.032867" lon="1.78573">
        <time>2022-07-09T10:54:59Z</time>
      </trkpt>
      <trkpt lat="42.032818" lon="1.785798">
        <time>2022-07-09T10:55:00Z</time>
      </trkpt>
      <trkpt lat="42.032772" lon="1.785866">
        <time>2022-07-09T10:55:01Z</time>
      </trkpt>
      <trkpt lat="42.032726" lon="1.7859349">
        <time>2022-07-09T10:55:02Z</time>
      </trkpt>
      <trkpt lat="42.03268" lon="1.786006">
        <time>2022-07-09T10:55:03Z</time>
      </trkpt>
      <trkpt lat="42.032642" lon="1.7860796">
        <time>2022-07-09T10:55:04Z</time>
      </trkpt>
      <trkpt lat="42.032604" lon="1.7861556">
        <time>2022-07-09T10:55:05Z</time>
      </trkpt>
      <trkpt lat="42.032566" lon="1.7862337">
        <time>2022-07-09T10:55:06Z</time>
      </trkpt>
      <trkpt lat="42.03253" lon="1.7863123">
        <time>2022-07-09T10:55:07Z</time>
      </trkpt>
      <trkpt lat="42.032497" lon="1.7863929">
        <time>2022-07-09T10:55:08Z</time>
      </trkpt>
      <trkpt lat="42.032467" lon="1.7864736">
        <time>2022-07-09T10:55:09Z</time>
      </trkpt>
      <trkpt lat="42.032433" lon="1.7865533">
        <time>2022-07-09T10:55:10Z</time>
      </trkpt>
      <trkpt lat="42.032402" lon="1.7866336">
        <time>2022-07-09T10:55:11Z</time>
      </trkpt>
      <trkpt lat="42.032368" lon="1.7867146">
        <time>2022-07-09T10:55:12Z</time>
      </trkpt>
      <trkpt lat="42.032337" lon="1.7867949">
        <time>2022-07-09T10:55:13Z</time>
      </trkpt>
      <trkpt lat="42.032307" lon="1.7868749">
        <time>2022-07-09T10:55:14Z</time>
      </trkpt>
      <trkpt lat="42.032276" lon="1.7869499">
        <time>2022-07-09T10:55:15Z</time>
      </trkpt>
      <trkpt lat="42.032246" lon="1.7870259">
        <time>2022-07-09T10:55:16Z</time>
      </trkpt>
      <trkpt lat="42.03222" lon="1.7871033">
        <time>2022-07-09T10:55:17Z</time>
      </trkpt>
      <trkpt lat="42.032185" lon="1.7871863">
        <time>2022-07-09T10:55:18Z</time>
      </trkpt>
      <trkpt lat="42.032154" lon="1.7872686">
        <time>2022-07-09T10:55:19Z</time>
      </trkpt>
      <trkpt lat="42.032124" lon="1.7873505">
        <time>2022-07-09T10:55:20Z</time>
      </trkpt>
      <trkpt lat="42.032093" lon="1.7874312">
        <time>2022-07-09T10:55:21Z</time>
      </trkpt>
      <trkpt lat="42.032063" lon="1.7875116">
        <time>2022-07-09T10:55:22Z</time>
      </trkpt>
      <trkpt lat="42.032032" lon="1.7875875">
        <time>2022-07-09T10:55:23Z</time>
      </trkpt>
      <trkpt lat="42.031998" lon="1.7876709">
        <time>2022-07-09T10:55:24Z</time>
      </trkpt>
      <trkpt lat="42.031967" lon="1.7877539">
        <time>2022-07-09T10:55:25Z</time>
      </trkpt>
      <trkpt lat="42.031937" lon="1.7878312">
        <time>2022-07-09T10:55:26Z</time>
      </trkpt>
      <trkpt lat="42.031902" lon="1.7879102">
        <time>2022-07-09T10:55:27Z</time>
      </trkpt>
      <trkpt lat="42.031868" lon="1.7879959">
        <time>2022-07-09T10:55:28Z</time>
      </trkpt>
      <trkpt lat="42.031807" lon="1.788163">
        <time>2022-07-09T10:55:30Z</time>
      </trkpt>
      <trkpt lat="42.031776" lon="1.7882448">
        <time>2022-07-09T10:55:31Z</time>
      </trkpt>
      <trkpt lat="42.031742" lon="1.7883343">
        <time>2022-07-09T10:55:32Z</time>
      </trkpt>
      <trkpt lat="42.031708" lon="1.7884163">
        <time>2022-07-09T10:55:33Z</time>
      </trkpt>
      <trkpt lat="42.031673" lon="1.7885056">
        <time>2022-07-09T10:55:34Z</time>
      </trkpt>
      <trkpt lat="42.031643" lon="1.7885863">
        <time>2022-07-09T10:55:35Z</time>
      </trkpt>
      <trkpt lat="42.031612" lon="1.7886672">
        <time>2022-07-09T10:55:36Z</time>
      </trkpt>
      <trkpt lat="42.03158" lon="1.7887563">
        <time>2022-07-09T10:55:37Z</time>
      </trkpt>
      <trkpt lat="42.031548" lon="1.7888372">
        <time>2022-07-09T10:55:38Z</time>
      </trkpt>
      <trkpt lat="42.031517" lon="1.7889192">
        <time>2022-07-09T10:55:39Z</time>
      </trkpt>
      <trkpt lat="42.031483" lon="1.7890059">
        <time>2022-07-09T10:55:40Z</time>
      </trkpt>
      <trkpt lat="42.031452" lon="1.7890909">
        <time>2022-07-09T10:55:41Z</time>
      </trkpt>
      <trkpt lat="42.031425" lon="1.7891703">
        <time>2022-07-09T10:55:42Z</time>
      </trkpt>
      <trkpt lat="42.031395" lon="1.7892522">
        <time>2022-07-09T10:55:43Z</time>
      </trkpt>
      <trkpt lat="42.03136" lon="1.7893412">
        <time>2022-07-09T10:55:44Z</time>
      </trkpt>
      <trkpt lat="42.03133" lon="1.7894282">
        <time>2022-07-09T10:55:45Z</time>
      </trkpt>
      <trkpt lat="42.0313" lon="1.7895142">
        <time>2022-07-09T10:55:46Z</time>
      </trkpt>
      <trkpt lat="42.03127" lon="1.7895919">
        <time>2022-07-09T10:55:47Z</time>
      </trkpt>
      <trkpt lat="42.03124" lon="1.7896702">
        <time>2022-07-09T10:55:48Z</time>
      </trkpt>
      <trkpt lat="42.031208" lon="1.7897472">
        <time>2022-07-09T10:55:49Z</time>
      </trkpt>
      <trkpt lat="42.031178" lon="1.7898235">
        <time>2022-07-09T10:55:50Z</time>
      </trkpt>
      <trkpt lat="42.031147" lon="1.7899011">
        <time>2022-07-09T10:55:51Z</time>
      </trkpt>
      <trkpt lat="42.03112" lon="1.7899789">
        <time>2022-07-09T10:55:52Z</time>
      </trkpt>
      <trkpt lat="42.03109" lon="1.7900568">
        <time>2022-07-09T10:55:53Z</time>
      </trkpt>
      <trkpt lat="42.031055" lon="1.7901405">
        <time>2022-07-09T10:55:54Z</time>
      </trkpt>
      <trkpt lat="42.031025" lon="1.7902222">
        <time>2022-07-09T10:55:55Z</time>
      </trkpt>
      <trkpt lat="42.03099" lon="1.7903035">
        <time>2022-07-09T10:55:56Z</time>
      </trkpt>
      <trkpt lat="42.03096" lon="1.7903805">
        <time>2022-07-09T10:55:57Z</time>
      </trkpt>
      <trkpt lat="42.03093" lon="1.7904592">
        <time>2022-07-09T10:55:58Z</time>
      </trkpt>
      <trkpt lat="42.0309" lon="1.7905385">
        <time>2022-07-09T10:55:59Z</time>
      </trkpt>
      <trkpt lat="42.03087" lon="1.7906182">
        <time>2022-07-09T10:56:00Z</time>
      </trkpt>
      <trkpt lat="42.030838" lon="1.7906985">
        <time>2022-07-09T10:56:01Z</time>
      </trkpt>
      <trkpt lat="42.030804" lon="1.7907828">
        <time>2022-07-09T10:56:02Z</time>
      </trkpt>
      <trkpt lat="42.030766" lon="1.7908638">
        <time>2022-07-09T10:56:03Z</time>
      </trkpt>
      <trkpt lat="42.03073" lon="1.7909348">
        <time>2022-07-09T10:56:04Z</time>
      </trkpt>
      <trkpt lat="42.03069" lon="1.7909988">
        <time>2022-07-09T10:56:05Z</time>
      </trkpt>
      <trkpt lat="42.030643" lon="1.7910554">
        <time>2022-07-09T10:56:06Z</time>
      </trkpt>
      <trkpt lat="42.03059" lon="1.7911068">
        <time>2022-07-09T10:56:07Z</time>
      </trkpt>
      <trkpt lat="42.03054" lon="1.7911505">
        <time>2022-07-09T10:56:08Z</time>
      </trkpt>
      <trkpt lat="42.030487" lon="1.7911918">
        <time>2022-07-09T10:56:09Z</time>
      </trkpt>
      <trkpt lat="42.03043" lon="1.7912295">
        <time>2022-07-09T10:56:10Z</time>
      </trkpt>
      <trkpt lat="42.030373" lon="1.7912657">
        <time>2022-07-09T10:56:11Z</time>
      </trkpt>
      <trkpt lat="42.03032" lon="1.7913032">
        <time>2022-07-09T10:56:12Z</time>
      </trkpt>
      <trkpt lat="42.030262" lon="1.7913425">
        <time>2022-07-09T10:56:13Z</time>
      </trkpt>
      <trkpt lat="42.030212" lon="1.7913837">
        <time>2022-07-09T10:56:14Z</time>
      </trkpt>
      <trkpt lat="42.030163" lon="1.7914351">
        <time>2022-07-09T10:56:15Z</time>
      </trkpt>
      <trkpt lat="42.030113" lon="1.7914908">
        <time>2022-07-09T10:56:16Z</time>
      </trkpt>
      <trkpt lat="42.030067" lon="1.79155">
        <time>2022-07-09T10:56:17Z</time>
      </trkpt>
      <trkpt lat="42.030018" lon="1.7916127">
        <time>2022-07-09T10:56:18Z</time>
      </trkpt>
      <trkpt lat="42.02997" lon="1.7916774">
        <time>2022-07-09T10:56:19Z</time>
      </trkpt>
      <trkpt lat="42.02992" lon="1.7917395">
        <time>2022-07-09T10:56:20Z</time>
      </trkpt>
      <trkpt lat="42.02986" lon="1.7917964">
        <time>2022-07-09T10:56:21Z</time>
      </trkpt>
      <trkpt lat="42.029797" lon="1.791843">
        <time>2022-07-09T10:56:22Z</time>
      </trkpt>
      <trkpt lat="42.02973" lon="1.7918798">
        <time>2022-07-09T10:56:23Z</time>
      </trkpt>
      <trkpt lat="42.029663" lon="1.7919071">
        <time>2022-07-09T10:56:24Z</time>
      </trkpt>
      <trkpt lat="42.029594" lon="1.7919288">
        <time>2022-07-09T10:56:25Z</time>
      </trkpt>
      <trkpt lat="42.029526" lon="1.791946">
        <time>2022-07-09T10:56:26Z</time>
      </trkpt>
      <trkpt lat="42.029453" lon="1.791962">
        <time>2022-07-09T10:56:27Z</time>
      </trkpt>
      <trkpt lat="42.029385" lon="1.7919767">
        <time>2022-07-09T10:56:28Z</time>
      </trkpt>
      <trkpt lat="42.02932" lon="1.791993">
        <time>2022-07-09T10:56:29Z</time>
      </trkpt>
      <trkpt lat="42.029255" lon="1.7920134">
        <time>2022-07-09T10:56:30Z</time>
      </trkpt>
      <trkpt lat="42.02919" lon="1.7920424">
        <time>2022-07-09T10:56:31Z</time>
      </trkpt>
      <trkpt lat="42.029125" lon="1.7920824">
        <time>2022-07-09T10:56:32Z</time>
      </trkpt>
      <trkpt lat="42.02906" lon="1.7921298">
        <time>2022-07-09T10:56:33Z</time>
      </trkpt>
      <trkpt lat="42.029003" lon="1.7921767">
        <time>2022-07-09T10:56:34Z</time>
      </trkpt>
      <trkpt lat="42.028885" lon="1.792283">
        <time>2022-07-09T10:56:36Z</time>
      </trkpt>
      <trkpt lat="42.028828" lon="1.7923343">
        <time>2022-07-09T10:56:37Z</time>
      </trkpt>
      <trkpt lat="42.028774" lon="1.7923807">
        <time>2022-07-09T10:56:38Z</time>
      </trkpt>
      <trkpt lat="42.028717" lon="1.79243">
        <time>2022-07-09T10:56:39Z</time>
      </trkpt>
      <trkpt lat="42.028664" lon="1.7924787">
        <time>2022-07-09T10:56:40Z</time>
      </trkpt>
      <trkpt lat="42.02861" lon="1.7925253">
        <time>2022-07-09T10:56:41Z</time>
      </trkpt>
      <trkpt lat="42.02856" lon="1.7925667">
        <time>2022-07-09T10:56:42Z</time>
      </trkpt>
      <trkpt lat="42.028507" lon="1.7926093">
        <time>2022-07-09T10:56:43Z</time>
      </trkpt>
      <trkpt lat="42.028454" lon="1.7926477">
        <time>2022-07-09T10:56:44Z</time>
      </trkpt>
      <trkpt lat="42.0284" lon="1.7926873">
        <time>2022-07-09T10:56:45Z</time>
      </trkpt>
      <trkpt lat="42.028347" lon="1.792728">
        <time>2022-07-09T10:56:46Z</time>
      </trkpt>
      <trkpt lat="42.028297" lon="1.7927684">
        <time>2022-07-09T10:56:47Z</time>
      </trkpt>
      <trkpt lat="42.02824" lon="1.7928094">
        <time>2022-07-09T10:56:48Z</time>
      </trkpt>
      <trkpt lat="42.028175" lon="1.7928473">
        <time>2022-07-09T10:56:49Z</time>
      </trkpt>
      <trkpt lat="42.028107" lon="1.7928846">
        <time>2022-07-09T10:56:50Z</time>
      </trkpt>
      <trkpt lat="42.028034" lon="1.7929193">
        <time>2022-07-09T10:56:51Z</time>
      </trkpt>
      <trkpt lat="42.027958" lon="1.7929533">
        <time>2022-07-09T10:56:52Z</time>
      </trkpt>
      <trkpt lat="42.02788" lon="1.792984">
        <time>2022-07-09T10:56:53Z</time>
      </trkpt>
      <trkpt lat="42.0278" lon="1.7930093">
        <time>2022-07-09T10:56:54Z</time>
      </trkpt>
      <trkpt lat="42.02772" lon="1.793028">
        <time>2022-07-09T10:56:55Z</time>
      </trkpt>
      <trkpt lat="42.027637" lon="1.7930382">
        <time>2022-07-09T10:56:56Z</time>
      </trkpt>
      <trkpt lat="42.027557" lon="1.7930427">
        <time>2022-07-09T10:56:57Z</time>
      </trkpt>
      <trkpt lat="42.02747" lon="1.7930416">
        <time>2022-07-09T10:56:58Z</time>
      </trkpt>
      <trkpt lat="42.02739" lon="1.7930396">
        <time>2022-07-09T10:56:59Z</time>
      </trkpt>
      <trkpt lat="42.027298" lon="1.7930346">
        <time>2022-07-09T10:57:00Z</time>
      </trkpt>
      <trkpt lat="42.027214" lon="1.7930313">
        <time>2022-07-09T10:57:01Z</time>
      </trkpt>
      <trkpt lat="42.027126" lon="1.793031">
        <time>2022-07-09T10:57:02Z</time>
      </trkpt>
      <trkpt lat="42.02703" lon="1.7930436">
        <time>2022-07-09T10:57:03Z</time>
      </trkpt>
      <trkpt lat="42.02694" lon="1.793072">
        <time>2022-07-09T10:57:04Z</time>
      </trkpt>
      <trkpt lat="42.026863" lon="1.7931106">
        <time>2022-07-09T10:57:05Z</time>
      </trkpt>
      <trkpt lat="42.026787" lon="1.7931639">
        <time>2022-07-09T10:57:06Z</time>
      </trkpt>
      <trkpt lat="42.02671" lon="1.793232">
        <time>2022-07-09T10:57:07Z</time>
      </trkpt>
      <trkpt lat="42.026638" lon="1.7933056">
        <time>2022-07-09T10:57:08Z</time>
      </trkpt>
      <trkpt lat="42.026573" lon="1.7933823">
        <time>2022-07-09T10:57:09Z</time>
      </trkpt>
      <trkpt lat="42.02651" lon="1.7934612">
        <time>2022-07-09T10:57:10Z</time>
      </trkpt>
      <trkpt lat="42.026447" lon="1.7935429">
        <time>2022-07-09T10:57:11Z</time>
      </trkpt>
      <trkpt lat="42.026386" lon="1.793626">
        <time>2022-07-09T10:57:12Z</time>
      </trkpt>
      <trkpt lat="42.02633" lon="1.7937036">
        <time>2022-07-09T10:57:13Z</time>
      </trkpt>
      <trkpt lat="42.02627" lon="1.7937832">
        <time>2022-07-09T10:57:14Z</time>
      </trkpt>
      <trkpt lat="42.02621" lon="1.793868">
        <time>2022-07-09T10:57:15Z</time>
      </trkpt>
      <trkpt lat="42.026154" lon="1.7939448">
        <time>2022-07-09T10:57:16Z</time>
      </trkpt>
      <trkpt lat="42.026096" lon="1.7940216">
        <time>2022-07-09T10:57:17Z</time>
      </trkpt>
      <trkpt lat="42.026035" lon="1.7941005">
        <time>2022-07-09T10:57:18Z</time>
      </trkpt>
      <trkpt lat="42.02597" lon="1.7941759">
        <time>2022-07-09T10:57:19Z</time>
      </trkpt>
      <trkpt lat="42.02591" lon="1.7942475">
        <time>2022-07-09T10:57:20Z</time>
      </trkpt>
      <trkpt lat="42.025845" lon="1.7943149">
        <time>2022-07-09T10:57:21Z</time>
      </trkpt>
      <trkpt lat="42.02578" lon="1.7943772">
        <time>2022-07-09T10:57:22Z</time>
      </trkpt>
      <trkpt lat="42.025715" lon="1.7944295">
        <time>2022-07-09T10:57:23Z</time>
      </trkpt>
      <trkpt lat="42.02564" lon="1.7944769">
        <time>2022-07-09T10:57:24Z</time>
      </trkpt>
      <trkpt lat="42.02557" lon="1.7945122">
        <time>2022-07-09T10:57:25Z</time>
      </trkpt>
      <trkpt lat="42.025497" lon="1.7945389">
        <time>2022-07-09T10:57:26Z</time>
      </trkpt>
      <trkpt lat="42.02542" lon="1.7945582">
        <time>2022-07-09T10:57:27Z</time>
      </trkpt>
      <trkpt lat="42.025337" lon="1.7945735">
        <time>2022-07-09T10:57:28Z</time>
      </trkpt>
      <trkpt lat="42.025257" lon="1.7945882">
        <time>2022-07-09T10:57:29Z</time>
      </trkpt>
      <trkpt lat="42.025177" lon="1.7946055">
        <time>2022-07-09T10:57:30Z</time>
      </trkpt>
      <trkpt lat="42.0251" lon="1.7946309">
        <time>2022-07-09T10:57:31Z</time>
      </trkpt>
      <trkpt lat="42.02503" lon="1.7946682">
        <time>2022-07-09T10:57:32Z</time>
      </trkpt>
      <trkpt lat="42.024963" lon="1.7947128">
        <time>2022-07-09T10:57:33Z</time>
      </trkpt>
      <trkpt lat="42.024902" lon="1.7947698">
        <time>2022-07-09T10:57:34Z</time>
      </trkpt>
      <trkpt lat="42.024834" lon="1.7948415">
        <time>2022-07-09T10:57:35Z</time>
      </trkpt>
      <trkpt lat="42.024776" lon="1.7949125">
        <time>2022-07-09T10:57:36Z</time>
      </trkpt>
      <trkpt lat="42.024715" lon="1.7949885">
        <time>2022-07-09T10:57:37Z</time>
      </trkpt>
      <trkpt lat="42.024654" lon="1.7950674">
        <time>2022-07-09T10:57:38Z</time>
      </trkpt>
      <trkpt lat="42.024593" lon="1.7951485">
        <time>2022-07-09T10:57:39Z</time>
      </trkpt>
      <trkpt lat="42.02447" lon="1.7953151">
        <time>2022-07-09T10:57:41Z</time>
      </trkpt>
      <trkpt lat="42.02441" lon="1.7954018">
        <time>2022-07-09T10:57:42Z</time>
      </trkpt>
      <trkpt lat="42.024353" lon="1.7954907">
        <time>2022-07-09T10:57:43Z</time>
      </trkpt>
      <trkpt lat="42.024296" lon="1.7955761">
        <time>2022-07-09T10:57:44Z</time>
      </trkpt>
      <trkpt lat="42.02424" lon="1.7956718">
        <time>2022-07-09T10:57:45Z</time>
      </trkpt>
      <trkpt lat="42.024185" lon="1.7957711">
        <time>2022-07-09T10:57:46Z</time>
      </trkpt>
      <trkpt lat="42.02414" lon="1.7958754">
        <time>2022-07-09T10:57:47Z</time>
      </trkpt>
      <trkpt lat="42.0241" lon="1.7959851">
        <time>2022-07-09T10:57:48Z</time>
      </trkpt>
      <trkpt lat="42.024067" lon="1.7960991">
        <time>2022-07-09T10:57:49Z</time>
      </trkpt>
      <trkpt lat="42.024036" lon="1.7962254">
        <time>2022-07-09T10:57:50Z</time>
      </trkpt>
      <trkpt lat="42.024014" lon="1.7963511">
        <time>2022-07-09T10:57:51Z</time>
      </trkpt>
      <trkpt lat="42.02399" lon="1.7964767">
        <time>2022-07-09T10:57:52Z</time>
      </trkpt>
      <trkpt lat="42.02397" lon="1.7966001">
        <time>2022-07-09T10:57:53Z</time>
      </trkpt>
      <trkpt lat="42.023952" lon="1.7967224">
        <time>2022-07-09T10:57:54Z</time>
      </trkpt>
      <trkpt lat="42.023937" lon="1.7968427">
        <time>2022-07-09T10:57:55Z</time>
      </trkpt>
      <trkpt lat="42.023922" lon="1.7969614">
        <time>2022-07-09T10:57:56Z</time>
      </trkpt>
      <trkpt lat="42.023907" lon="1.7970784">
        <time>2022-07-09T10:57:57Z</time>
      </trkpt>
      <trkpt lat="42.02389" lon="1.7971941">
        <time>2022-07-09T10:57:58Z</time>
      </trkpt>
      <trkpt lat="42.023876" lon="1.7973024">
        <time>2022-07-09T10:57:59Z</time>
      </trkpt>
      <trkpt lat="42.02386" lon="1.7974194">
        <time>2022-07-09T10:58:00Z</time>
      </trkpt>
      <trkpt lat="42.023846" lon="1.7975364">
        <time>2022-07-09T10:58:01Z</time>
      </trkpt>
      <trkpt lat="42.023827" lon="1.7976534">
        <time>2022-07-09T10:58:02Z</time>
      </trkpt>
      <trkpt lat="42.023808" lon="1.79777">
        <time>2022-07-09T10:58:03Z</time>
      </trkpt>
      <trkpt lat="42.023785" lon="1.797888">
        <time>2022-07-09T10:58:04Z</time>
      </trkpt>
      <trkpt lat="42.023758" lon="1.798007">
        <time>2022-07-09T10:58:05Z</time>
      </trkpt>
      <trkpt lat="42.023727" lon="1.7981263">
        <time>2022-07-09T10:58:06Z</time>
      </trkpt>
      <trkpt lat="42.023693" lon="1.7982457">
        <time>2022-07-09T10:58:07Z</time>
      </trkpt>
      <trkpt lat="42.023655" lon="1.7983654">
        <time>2022-07-09T10:58:08Z</time>
      </trkpt>
      <trkpt lat="42.023617" lon="1.7984854">
        <time>2022-07-09T10:58:09Z</time>
      </trkpt>
      <trkpt lat="42.023575" lon="1.798606">
        <time>2022-07-09T10:58:10Z</time>
      </trkpt>
      <trkpt lat="42.02353" lon="1.7987274">
        <time>2022-07-09T10:58:11Z</time>
      </trkpt>
      <trkpt lat="42.023483" lon="1.7988493">
        <time>2022-07-09T10:58:12Z</time>
      </trkpt>
      <trkpt lat="42.02344" lon="1.7989724">
        <time>2022-07-09T10:58:13Z</time>
      </trkpt>
      <trkpt lat="42.023407" lon="1.7990984">
        <time>2022-07-09T10:58:14Z</time>
      </trkpt>
      <trkpt lat="42.02338" lon="1.7992277">
        <time>2022-07-09T10:58:15Z</time>
      </trkpt>
      <trkpt lat="42.02336" lon="1.7993584">
        <time>2022-07-09T10:58:16Z</time>
      </trkpt>
      <trkpt lat="42.02336" lon="1.7994877">
        <time>2022-07-09T10:58:17Z</time>
      </trkpt>
      <trkpt lat="42.02337" lon="1.7996147">
        <time>2022-07-09T10:58:18Z</time>
      </trkpt>
      <trkpt lat="42.02339" lon="1.7997397">
        <time>2022-07-09T10:58:19Z</time>
      </trkpt>
      <trkpt lat="42.023415" lon="1.799862">
        <time>2022-07-09T10:58:20Z</time>
      </trkpt>
      <trkpt lat="42.023445" lon="1.7999754">
        <time>2022-07-09T10:58:21Z</time>
      </trkpt>
      <trkpt lat="42.023476" lon="1.8000903">
        <time>2022-07-09T10:58:22Z</time>
      </trkpt>
      <trkpt lat="42.02351" lon="1.8002143">
        <time>2022-07-09T10:58:23Z</time>
      </trkpt>
      <trkpt lat="42.023544" lon="1.800328">
        <time>2022-07-09T10:58:24Z</time>
      </trkpt>
      <trkpt lat="42.023582" lon="1.800442">
        <time>2022-07-09T10:58:25Z</time>
      </trkpt>
      <trkpt lat="42.02362" lon="1.8005561">
        <time>2022-07-09T10:58:26Z</time>
      </trkpt>
      <trkpt lat="42.023663" lon="1.8006697">
        <time>2022-07-09T10:58:27Z</time>
      </trkpt>
      <trkpt lat="42.0237" lon="1.800785">
        <time>2022-07-09T10:58:28Z</time>
      </trkpt>
      <trkpt lat="42.023743" lon="1.8009">
        <time>2022-07-09T10:58:29Z</time>
      </trkpt>
      <trkpt lat="42.02378" lon="1.8010126">
        <time>2022-07-09T10:58:30Z</time>
      </trkpt>
      <trkpt lat="42.02382" lon="1.8011236">
        <time>2022-07-09T10:58:31Z</time>
      </trkpt>
      <trkpt lat="42.023857" lon="1.8012396">
        <time>2022-07-09T10:58:32Z</time>
      </trkpt>
      <trkpt lat="42.02389" lon="1.8013457">
        <time>2022-07-09T10:58:33Z</time>
      </trkpt>
      <trkpt lat="42.023926" lon="1.8014597">
        <time>2022-07-09T10:58:34Z</time>
      </trkpt>
      <trkpt lat="42.023952" lon="1.8015727">
        <time>2022-07-09T10:58:35Z</time>
      </trkpt>
      <trkpt lat="42.02397" lon="1.801683">
        <time>2022-07-09T10:58:36Z</time>
      </trkpt>
      <trkpt lat="42.023975" lon="1.8017913">
        <time>2022-07-09T10:58:37Z</time>
      </trkpt>
      <trkpt lat="42.023964" lon="1.8018917">
        <time>2022-07-09T10:58:38Z</time>
      </trkpt>
      <trkpt lat="42.02394" lon="1.8019817">
        <time>2022-07-09T10:58:39Z</time>
      </trkpt>
      <trkpt lat="42.02391" lon="1.8020576">
        <time>2022-07-09T10:58:40Z</time>
      </trkpt>
      <trkpt lat="42.02387" lon="1.8021259">
        <time>2022-07-09T10:58:41Z</time>
      </trkpt>
      <trkpt lat="42.023823" lon="1.802189">
        <time>2022-07-09T10:58:42Z</time>
      </trkpt>
      <trkpt lat="42.023777" lon="1.8022476">
        <time>2022-07-09T10:58:43Z</time>
      </trkpt>
      <trkpt lat="42.023724" lon="1.802303">
        <time>2022-07-09T10:58:44Z</time>
      </trkpt>
      <trkpt lat="42.023674" lon="1.8023562">
        <time>2022-07-09T10:58:45Z</time>
      </trkpt>
      <trkpt lat="42.023567" lon="1.8024637">
        <time>2022-07-09T10:58:47Z</time>
      </trkpt>
      <trkpt lat="42.023514" lon="1.8025163">
        <time>2022-07-09T10:58:48Z</time>
      </trkpt>
      <trkpt lat="42.023457" lon="1.8025687">
        <time>2022-07-09T10:58:49Z</time>
      </trkpt>
      <trkpt lat="42.023407" lon="1.8026153">
        <time>2022-07-09T10:58:50Z</time>
      </trkpt>
      <trkpt lat="42.023357" lon="1.8026633">
        <time>2022-07-09T10:58:51Z</time>
      </trkpt>
      <trkpt lat="42.023308" lon="1.8027142">
        <time>2022-07-09T10:58:52Z</time>
      </trkpt>
      <trkpt lat="42.02326" lon="1.802773">
        <time>2022-07-09T10:58:53Z</time>
      </trkpt>
      <trkpt lat="42.023216" lon="1.8028352">
        <time>2022-07-09T10:58:54Z</time>
      </trkpt>
      <trkpt lat="42.02318" lon="1.8028955">
        <time>2022-07-09T10:58:55Z</time>
      </trkpt>
      <trkpt lat="42.023144" lon="1.8029612">
        <time>2022-07-09T10:58:56Z</time>
      </trkpt>
      <trkpt lat="42.023117" lon="1.8030312">
        <time>2022-07-09T10:58:57Z</time>
      </trkpt>
      <trkpt lat="42.02309" lon="1.8031049">
        <time>2022-07-09T10:58:58Z</time>
      </trkpt>
      <trkpt lat="42.02307" lon="1.8031873">
        <time>2022-07-09T10:58:59Z</time>
      </trkpt>
      <trkpt lat="42.023052" lon="1.8032689">
        <time>2022-07-09T10:59:00Z</time>
      </trkpt>
      <trkpt lat="42.023037" lon="1.8033506">
        <time>2022-07-09T10:59:01Z</time>
      </trkpt>
      <trkpt lat="42.023026" lon="1.8034309">
        <time>2022-07-09T10:59:02Z</time>
      </trkpt>
      <trkpt lat="42.023014" lon="1.8035113">
        <time>2022-07-09T10:59:03Z</time>
      </trkpt>
      <trkpt lat="42.023006" lon="1.8035916">
        <time>2022-07-09T10:59:04Z</time>
      </trkpt>
      <trkpt lat="42.022995" lon="1.8036702">
        <time>2022-07-09T10:59:05Z</time>
      </trkpt>
      <trkpt lat="42.022987" lon="1.8037469">
        <time>2022-07-09T10:59:06Z</time>
      </trkpt>
      <trkpt lat="42.022976" lon="1.8038232">
        <time>2022-07-09T10:59:07Z</time>
      </trkpt>
      <trkpt lat="42.022964" lon="1.8038988">
        <time>2022-07-09T10:59:08Z</time>
      </trkpt>
      <trkpt lat="42.02295" lon="1.8039736">
        <time>2022-07-09T10:59:09Z</time>
      </trkpt>
      <trkpt lat="42.022934" lon="1.8040476">
        <time>2022-07-09T10:59:10Z</time>
      </trkpt>
      <trkpt lat="42.02292" lon="1.8041209">
        <time>2022-07-09T10:59:11Z</time>
      </trkpt>
      <trkpt lat="42.0229" lon="1.8041935">
        <time>2022-07-09T10:59:12Z</time>
      </trkpt>
      <trkpt lat="42.02288" lon="1.8042612">
        <time>2022-07-09T10:59:13Z</time>
      </trkpt>
      <trkpt lat="42.02286" lon="1.8043342">
        <time>2022-07-09T10:59:14Z</time>
      </trkpt>
      <trkpt lat="42.022842" lon="1.8044065">
        <time>2022-07-09T10:59:15Z</time>
      </trkpt>
      <trkpt lat="42.02282" lon="1.8044778">
        <time>2022-07-09T10:59:16Z</time>
      </trkpt>
      <trkpt lat="42.0228" lon="1.8045478">
        <time>2022-07-09T10:59:17Z</time>
      </trkpt>
      <trkpt lat="42.022778" lon="1.8046162">
        <time>2022-07-09T10:59:18Z</time>
      </trkpt>
      <trkpt lat="42.02276" lon="1.8046815">
        <time>2022-07-09T10:59:19Z</time>
      </trkpt>
      <trkpt lat="42.02274" lon="1.8047448">
        <time>2022-07-09T10:59:20Z</time>
      </trkpt>
      <trkpt lat="42.02272" lon="1.8048059">
        <time>2022-07-09T10:59:21Z</time>
      </trkpt>
      <trkpt lat="42.022686" lon="1.8049225">
        <time>2022-07-09T10:59:23Z</time>
      </trkpt>
      <trkpt lat="42.022655" lon="1.8050288">
        <time>2022-07-09T10:59:25Z</time>
      </trkpt>
      <trkpt lat="42.022625" lon="1.8051372">
        <time>2022-07-09T10:59:27Z</time>
      </trkpt>
      <trkpt lat="42.022594" lon="1.8052425">
        <time>2022-07-09T10:59:29Z</time>
      </trkpt>
      <trkpt lat="42.022568" lon="1.8053448">
        <time>2022-07-09T10:59:31Z</time>
      </trkpt>
      <trkpt lat="42.02254" lon="1.8054465">
        <time>2022-07-09T10:59:33Z</time>
      </trkpt>
      <trkpt lat="42.02251" lon="1.8055462">
        <time>2022-07-09T10:59:35Z</time>
      </trkpt>
      <trkpt lat="42.022484" lon="1.8056442">
        <time>2022-07-09T10:59:37Z</time>
      </trkpt>
      <trkpt lat="42.02246" lon="1.8057348">
        <time>2022-07-09T10:59:39Z</time>
      </trkpt>
      <trkpt lat="42.022438" lon="1.8058261">
        <time>2022-07-09T10:59:41Z</time>
      </trkpt>
      <trkpt lat="42.02241" lon="1.8059164">
        <time>2022-07-09T10:59:43Z</time>
      </trkpt>
      <trkpt lat="42.022385" lon="1.8060075">
        <time>2022-07-09T10:59:45Z</time>
      </trkpt>
      <trkpt lat="42.022358" lon="1.8061011">
        <time>2022-07-09T10:59:47Z</time>
      </trkpt>
      <trkpt lat="42.022327" lon="1.8062137">
        <time>2022-07-09T10:59:49Z</time>
      </trkpt>
      <trkpt lat="42.022293" lon="1.8063471">
        <time>2022-07-09T10:59:51Z</time>
      </trkpt>
      <trkpt lat="42.02226" lon="1.8064988">
        <time>2022-07-09T10:59:53Z</time>
      </trkpt>
      <trkpt lat="42.02222" lon="1.8066638">
        <time>2022-07-09T10:59:55Z</time>
      </trkpt>
      <trkpt lat="42.022198" lon="1.8067545">
        <time>2022-07-09T10:59:56Z</time>
      </trkpt>
      <trkpt lat="42.022175" lon="1.8068491">
        <time>2022-07-09T10:59:57Z</time>
      </trkpt>
      <trkpt lat="42.022152" lon="1.8069464">
        <time>2022-07-09T10:59:58Z</time>
      </trkpt>
      <trkpt lat="42.02213" lon="1.8070468">
        <time>2022-07-09T10:59:59Z</time>
      </trkpt>
      <trkpt lat="42.022106" lon="1.8071507">
        <time>2022-07-09T11:00:00Z</time>
      </trkpt>
      <trkpt lat="42.022083" lon="1.8072574">
        <time>2022-07-09T11:00:01Z</time>
      </trkpt>
      <trkpt lat="42.022057" lon="1.8073674">
        <time>2022-07-09T11:00:02Z</time>
      </trkpt>
      <trkpt lat="42.022034" lon="1.8074794">
        <time>2022-07-09T11:00:03Z</time>
      </trkpt>
      <trkpt lat="42.022007" lon="1.8075931">
        <time>2022-07-09T11:00:04Z</time>
      </trkpt>
      <trkpt lat="42.02198" lon="1.8077077">
        <time>2022-07-09T11:00:05Z</time>
      </trkpt>
      <trkpt lat="42.021954" lon="1.8078231">
        <time>2022-07-09T11:00:06Z</time>
      </trkpt>
      <trkpt lat="42.021927" lon="1.807937">
        <time>2022-07-09T11:00:07Z</time>
      </trkpt>
      <trkpt lat="42.0219" lon="1.8080493">
        <time>2022-07-09T11:00:08Z</time>
      </trkpt>
      <trkpt lat="42.021877" lon="1.8081601">
        <time>2022-07-09T11:00:09Z</time>
      </trkpt>
      <trkpt lat="42.02185" lon="1.8082714">
        <time>2022-07-09T11:00:10Z</time>
      </trkpt>
      <trkpt lat="42.021824" lon="1.808382">
        <time>2022-07-09T11:00:11Z</time>
      </trkpt>
      <trkpt lat="42.021797" lon="1.8084927">
        <time>2022-07-09T11:00:12Z</time>
      </trkpt>
      <trkpt lat="42.021774" lon="1.8085953">
        <time>2022-07-09T11:00:13Z</time>
      </trkpt>
      <trkpt lat="42.021748" lon="1.8087077">
        <time>2022-07-09T11:00:14Z</time>
      </trkpt>
      <trkpt lat="42.021725" lon="1.80882">
        <time>2022-07-09T11:00:15Z</time>
      </trkpt>
      <trkpt lat="42.021698" lon="1.8089314">
        <time>2022-07-09T11:00:16Z</time>
      </trkpt>
      <trkpt lat="42.021675" lon="1.8090416">
        <time>2022-07-09T11:00:17Z</time>
      </trkpt>
      <trkpt lat="42.02165" lon="1.8091507">
        <time>2022-07-09T11:00:18Z</time>
      </trkpt>
      <trkpt lat="42.02162" lon="1.8092593">
        <time>2022-07-09T11:00:19Z</time>
      </trkpt>
      <trkpt lat="42.0216" lon="1.8093697">
        <time>2022-07-09T11:00:20Z</time>
      </trkpt>
      <trkpt lat="42.021572" lon="1.8094807">
        <time>2022-07-09T11:00:21Z</time>
      </trkpt>
      <trkpt lat="42.02155" lon="1.80959">
        <time>2022-07-09T11:00:22Z</time>
      </trkpt>
      <trkpt lat="42.021526" lon="1.8096989">
        <time>2022-07-09T11:00:23Z</time>
      </trkpt>
      <trkpt lat="42.0215" lon="1.8098084">
        <time>2022-07-09T11:00:24Z</time>
      </trkpt>
      <trkpt lat="42.021477" lon="1.8099183">
        <time>2022-07-09T11:00:25Z</time>
      </trkpt>
      <trkpt lat="42.021446" lon="1.8100263">
        <time>2022-07-09T11:00:26Z</time>
      </trkpt>
      <trkpt lat="42.02141" lon="1.8101317">
        <time>2022-07-09T11:00:27Z</time>
      </trkpt>
      <trkpt lat="42.021374" lon="1.8102313">
        <time>2022-07-09T11:00:28Z</time>
      </trkpt>
      <trkpt lat="42.021328" lon="1.8103193">
        <time>2022-07-09T11:00:29Z</time>
      </trkpt>
      <trkpt lat="42.021275" lon="1.8104013">
        <time>2022-07-09T11:00:30Z</time>
      </trkpt>
      <trkpt lat="42.02121" lon="1.8104693">
        <time>2022-07-09T11:00:31Z</time>
      </trkpt>
      <trkpt lat="42.021137" lon="1.8105294">
        <time>2022-07-09T11:00:32Z</time>
      </trkpt>
      <trkpt lat="42.021065" lon="1.8105823">
        <time>2022-07-09T11:00:33Z</time>
      </trkpt>
      <trkpt lat="42.020992" lon="1.8106353">
        <time>2022-07-09T11:00:34Z</time>
      </trkpt>
      <trkpt lat="42.02092" lon="1.8106906">
        <time>2022-07-09T11:00:35Z</time>
      </trkpt>
      <trkpt lat="42.020844" lon="1.8107606">
        <time>2022-07-09T11:00:36Z</time>
      </trkpt>
      <trkpt lat="42.02077" lon="1.8108313">
        <time>2022-07-09T11:00:37Z</time>
      </trkpt>
      <trkpt lat="42.020695" lon="1.810907">
        <time>2022-07-09T11:00:38Z</time>
      </trkpt>
      <trkpt lat="42.02062" lon="1.810987">
        <time>2022-07-09T11:00:39Z</time>
      </trkpt>
      <trkpt lat="42.02054" lon="1.8110687">
        <time>2022-07-09T11:00:40Z</time>
      </trkpt>
      <trkpt lat="42.020462" lon="1.8111546">
        <time>2022-07-09T11:00:41Z</time>
      </trkpt>
      <trkpt lat="42.020382" lon="1.8112496">
        <time>2022-07-09T11:00:42Z</time>
      </trkpt>
      <trkpt lat="42.020298" lon="1.8113476">
        <time>2022-07-09T11:00:43Z</time>
      </trkpt>
      <trkpt lat="42.02022" lon="1.8114426">
        <time>2022-07-09T11:00:44Z</time>
      </trkpt>
      <trkpt lat="42.02014" lon="1.8115389">
        <time>2022-07-09T11:00:45Z</time>
      </trkpt>
      <trkpt lat="42.02007" lon="1.8116382">
        <time>2022-07-09T11:00:46Z</time>
      </trkpt>
      <trkpt lat="42.019993" lon="1.8117427">
        <time>2022-07-09T11:00:47Z</time>
      </trkpt>
      <trkpt lat="42.019917" lon="1.8118486">
        <time>2022-07-09T11:00:48Z</time>
      </trkpt>
      <trkpt lat="42.019844" lon="1.8119552">
        <time>2022-07-09T11:00:49Z</time>
      </trkpt>
      <trkpt lat="42.019768" lon="1.8120626">
        <time>2022-07-09T11:00:50Z</time>
      </trkpt>
      <trkpt lat="42.019695" lon="1.8121679">
        <time>2022-07-09T11:00:51Z</time>
      </trkpt>
      <trkpt lat="42.01962" lon="1.8122742">
        <time>2022-07-09T11:00:52Z</time>
      </trkpt>
      <trkpt lat="42.01955" lon="1.8123813">
        <time>2022-07-09T11:00:53Z</time>
      </trkpt>
      <trkpt lat="42.01948" lon="1.8124906">
        <time>2022-07-09T11:00:54Z</time>
      </trkpt>
      <trkpt lat="42.019367" lon="1.8127186">
        <time>2022-07-09T11:00:56Z</time>
      </trkpt>
      <trkpt lat="42.01932" lon="1.8128356">
        <time>2022-07-09T11:00:57Z</time>
      </trkpt>
      <trkpt lat="42.019287" lon="1.8129473">
        <time>2022-07-09T11:00:58Z</time>
      </trkpt>
      <trkpt lat="42.019257" lon="1.8130633">
        <time>2022-07-09T11:00:59Z</time>
      </trkpt>
      <trkpt lat="42.01923" lon="1.8131926">
        <time>2022-07-09T11:01:00Z</time>
      </trkpt>
      <trkpt lat="42.019207" lon="1.813322">
        <time>2022-07-09T11:01:01Z</time>
      </trkpt>
      <trkpt lat="42.01918" lon="1.8134499">
        <time>2022-07-09T11:01:02Z</time>
      </trkpt>
      <trkpt lat="42.01916" lon="1.8135706">
        <time>2022-07-09T11:01:03Z</time>
      </trkpt>
      <trkpt lat="42.019142" lon="1.8137015">
        <time>2022-07-09T11:01:04Z</time>
      </trkpt>
      <trkpt lat="42.019123" lon="1.8138316">
        <time>2022-07-09T11:01:05Z</time>
      </trkpt>
      <trkpt lat="42.019104" lon="1.8139609">
        <time>2022-07-09T11:01:06Z</time>
      </trkpt>
      <trkpt lat="42.01909" lon="1.8140815">
        <time>2022-07-09T11:01:07Z</time>
      </trkpt>
      <trkpt lat="42.01907" lon="1.8142049">
        <time>2022-07-09T11:01:08Z</time>
      </trkpt>
      <trkpt lat="42.019054" lon="1.8143373">
        <time>2022-07-09T11:01:09Z</time>
      </trkpt>
      <trkpt lat="42.01904" lon="1.8144679">
        <time>2022-07-09T11:01:10Z</time>
      </trkpt>
      <trkpt lat="42.019024" lon="1.8145893">
        <time>2022-07-09T11:01:11Z</time>
      </trkpt>
      <trkpt lat="42.01901" lon="1.8147125">
        <time>2022-07-09T11:01:12Z</time>
      </trkpt>
      <trkpt lat="42.018993" lon="1.8148372">
        <time>2022-07-09T11:01:13Z</time>
      </trkpt>
      <trkpt lat="42.01898" lon="1.8149712">
        <time>2022-07-09T11:01:14Z</time>
      </trkpt>
      <trkpt lat="42.01896" lon="1.8150939">
        <time>2022-07-09T11:01:15Z</time>
      </trkpt>
      <trkpt lat="42.018944" lon="1.8152186">
        <time>2022-07-09T11:01:16Z</time>
      </trkpt>
      <trkpt lat="42.01893" lon="1.8153446">
        <time>2022-07-09T11:01:17Z</time>
      </trkpt>
      <trkpt lat="42.01891" lon="1.8154712">
        <time>2022-07-09T11:01:18Z</time>
      </trkpt>
      <trkpt lat="42.01889" lon="1.8155979">
        <time>2022-07-09T11:01:19Z</time>
      </trkpt>
      <trkpt lat="42.018875" lon="1.8157305">
        <time>2022-07-09T11:01:20Z</time>
      </trkpt>
      <trkpt lat="42.01886" lon="1.8158568">
        <time>2022-07-09T11:01:21Z</time>
      </trkpt>
      <trkpt lat="42.018845" lon="1.8159702">
        <time>2022-07-09T11:01:22Z</time>
      </trkpt>
      <trkpt lat="42.018833" lon="1.8160821">
        <time>2022-07-09T11:01:23Z</time>
      </trkpt>
      <trkpt lat="42.018818" lon="1.8161992">
        <time>2022-07-09T11:01:24Z</time>
      </trkpt>
      <trkpt lat="42.018806" lon="1.8163118">
        <time>2022-07-09T11:01:25Z</time>
      </trkpt>
      <trkpt lat="42.018795" lon="1.8164208">
        <time>2022-07-09T11:01:26Z</time>
      </trkpt>
      <trkpt lat="42.018784" lon="1.8165195">
        <time>2022-07-09T11:01:27Z</time>
      </trkpt>
      <trkpt lat="42.018776" lon="1.8166162">
        <time>2022-07-09T11:01:28Z</time>
      </trkpt>
      <trkpt lat="42.01877" lon="1.8167155">
        <time>2022-07-09T11:01:29Z</time>
      </trkpt>
      <trkpt lat="42.01876" lon="1.8168094">
        <time>2022-07-09T11:01:30Z</time>
      </trkpt>
      <trkpt lat="42.018753" lon="1.8168994">
        <time>2022-07-09T11:01:31Z</time>
      </trkpt>
      <trkpt lat="42.01874" lon="1.8169851">
        <time>2022-07-09T11:01:32Z</time>
      </trkpt>
      <trkpt lat="42.018734" lon="1.8170668">
        <time>2022-07-09T11:01:33Z</time>
      </trkpt>
      <trkpt lat="42.018723" lon="1.8171401">
        <time>2022-07-09T11:01:34Z</time>
      </trkpt>
      <trkpt lat="42.018715" lon="1.8172175">
        <time>2022-07-09T11:01:35Z</time>
      </trkpt>
      <trkpt lat="42.018703" lon="1.8172928">
        <time>2022-07-09T11:01:36Z</time>
      </trkpt>
      <trkpt lat="42.018692" lon="1.8173668">
        <time>2022-07-09T11:01:37Z</time>
      </trkpt>
      <trkpt lat="42.018684" lon="1.8174348">
        <time>2022-07-09T11:01:38Z</time>
      </trkpt>
      <trkpt lat="42.018673" lon="1.8175088">
        <time>2022-07-09T11:01:39Z</time>
      </trkpt>
      <trkpt lat="42.018658" lon="1.8175821">
        <time>2022-07-09T11:01:40Z</time>
      </trkpt>
      <trkpt lat="42.018635" lon="1.8176538">
        <time>2022-07-09T11:01:41Z</time>
      </trkpt>
      <trkpt lat="42.01861" lon="1.8177248">
        <time>2022-07-09T11:01:42Z</time>
      </trkpt>
      <trkpt lat="42.018578" lon="1.8177968">
        <time>2022-07-09T11:01:43Z</time>
      </trkpt>
      <trkpt lat="42.018543" lon="1.8178668">
        <time>2022-07-09T11:01:44Z</time>
      </trkpt>
      <trkpt lat="42.018505" lon="1.8179381">
        <time>2022-07-09T11:01:45Z</time>
      </trkpt>
      <trkpt lat="42.018463" lon="1.8180114">
        <time>2022-07-09T11:01:46Z</time>
      </trkpt>
      <trkpt lat="42.018417" lon="1.8180867">
        <time>2022-07-09T11:01:47Z</time>
      </trkpt>
      <trkpt lat="42.018368" lon="1.8181638">
        <time>2022-07-09T11:01:48Z</time>
      </trkpt>
      <trkpt lat="42.01832" lon="1.8182431">
        <time>2022-07-09T11:01:49Z</time>
      </trkpt>
      <trkpt lat="42.018265" lon="1.8183244">
        <time>2022-07-09T11:01:50Z</time>
      </trkpt>
      <trkpt lat="42.01821" lon="1.818407">
        <time>2022-07-09T11:01:51Z</time>
      </trkpt>
      <trkpt lat="42.018154" lon="1.8184924">
        <time>2022-07-09T11:01:52Z</time>
      </trkpt>
      <trkpt lat="42.018097" lon="1.8185804">
        <time>2022-07-09T11:01:53Z</time>
      </trkpt>
      <trkpt lat="42.01804" lon="1.8186707">
        <time>2022-07-09T11:01:54Z</time>
      </trkpt>
      <trkpt lat="42.017982" lon="1.818763">
        <time>2022-07-09T11:01:55Z</time>
      </trkpt>
      <trkpt lat="42.01792" lon="1.8188567">
        <time>2022-07-09T11:01:56Z</time>
      </trkpt>
      <trkpt lat="42.017864" lon="1.818951">
        <time>2022-07-09T11:01:57Z</time>
      </trkpt>
      <trkpt lat="42.017735" lon="1.8191338">
        <time>2022-07-09T11:01:59Z</time>
      </trkpt>
      <trkpt lat="42.017666" lon="1.8192184">
        <time>2022-07-09T11:02:00Z</time>
      </trkpt>
      <trkpt lat="42.017593" lon="1.8192974">
        <time>2022-07-09T11:02:01Z</time>
      </trkpt>
      <trkpt lat="42.017517" lon="1.81937">
        <time>2022-07-09T11:02:02Z</time>
      </trkpt>
      <trkpt lat="42.01744" lon="1.8194367">
        <time>2022-07-09T11:02:03Z</time>
      </trkpt>
      <trkpt lat="42.01736" lon="1.8194981">
        <time>2022-07-09T11:02:04Z</time>
      </trkpt>
      <trkpt lat="42.017284" lon="1.8195513">
        <time>2022-07-09T11:02:05Z</time>
      </trkpt>
      <trkpt lat="42.0172" lon="1.8196063">
        <time>2022-07-09T11:02:06Z</time>
      </trkpt>
      <trkpt lat="42.01712" lon="1.8196597">
        <time>2022-07-09T11:02:07Z</time>
      </trkpt>
      <trkpt lat="42.017044" lon="1.819708">
        <time>2022-07-09T11:02:08Z</time>
      </trkpt>
      <trkpt lat="42.01696" lon="1.8197603">
        <time>2022-07-09T11:02:09Z</time>
      </trkpt>
      <trkpt lat="42.01688" lon="1.81981">
        <time>2022-07-09T11:02:10Z</time>
      </trkpt>
      <trkpt lat="42.0168" lon="1.8198583">
        <time>2022-07-09T11:02:11Z</time>
      </trkpt>
      <trkpt lat="42.01672" lon="1.819905">
        <time>2022-07-09T11:02:12Z</time>
      </trkpt>
      <trkpt lat="42.016644" lon="1.8199503">
        <time>2022-07-09T11:02:13Z</time>
      </trkpt>
      <trkpt lat="42.016575" lon="1.8199927">
        <time>2022-07-09T11:02:14Z</time>
      </trkpt>
      <trkpt lat="42.0165" lon="1.8200376">
        <time>2022-07-09T11:02:15Z</time>
      </trkpt>
      <trkpt lat="42.01643" lon="1.8200814">
        <time>2022-07-09T11:02:16Z</time>
      </trkpt>
      <trkpt lat="42.016365" lon="1.820122">
        <time>2022-07-09T11:02:17Z</time>
      </trkpt>
      <trkpt lat="42.0163" lon="1.8201613">
        <time>2022-07-09T11:02:18Z</time>
      </trkpt>
      <trkpt lat="42.01624" lon="1.8201993">
        <time>2022-07-09T11:02:19Z</time>
      </trkpt>
      <trkpt lat="42.01618" lon="1.8202343">
        <time>2022-07-09T11:02:20Z</time>
      </trkpt>
      <trkpt lat="42.016113" lon="1.82027">
        <time>2022-07-09T11:02:21Z</time>
      </trkpt>
      <trkpt lat="42.01606" lon="1.820303">
        <time>2022-07-09T11:02:22Z</time>
      </trkpt>
      <trkpt lat="42.016003" lon="1.8203356">
        <time>2022-07-09T11:02:23Z</time>
      </trkpt>
      <trkpt lat="42.01595" lon="1.8203676">
        <time>2022-07-09T11:02:24Z</time>
      </trkpt>
      <trkpt lat="42.0159" lon="1.8203976">
        <time>2022-07-09T11:02:25Z</time>
      </trkpt>
      <trkpt lat="42.01585" lon="1.8204263">
        <time>2022-07-09T11:02:26Z</time>
      </trkpt>
      <trkpt lat="42.015804" lon="1.8204533">
        <time>2022-07-09T11:02:27Z</time>
      </trkpt>
      <trkpt lat="42.01576" lon="1.8204796">
        <time>2022-07-09T11:02:28Z</time>
      </trkpt>
      <trkpt lat="42.01568" lon="1.8205292">
        <time>2022-07-09T11:02:30Z</time>
      </trkpt>
      <trkpt lat="42.015606" lon="1.8205793">
        <time>2022-07-09T11:02:32Z</time>
      </trkpt>
      <trkpt lat="42.01554" lon="1.8206323">
        <time>2022-07-09T11:02:34Z</time>
      </trkpt>
      <trkpt lat="42.015476" lon="1.8206929">
        <time>2022-07-09T11:02:36Z</time>
      </trkpt>
      <trkpt lat="42.015408" lon="1.8207623">
        <time>2022-07-09T11:02:38Z</time>
      </trkpt>
      <trkpt lat="42.01533" lon="1.8208447">
        <time>2022-07-09T11:02:40Z</time>
      </trkpt>
      <trkpt lat="42.01529" lon="1.820892">
        <time>2022-07-09T11:02:41Z</time>
      </trkpt>
      <trkpt lat="42.015247" lon="1.8209426">
        <time>2022-07-09T11:02:42Z</time>
      </trkpt>
      <trkpt lat="42.0152" lon="1.8209972">
        <time>2022-07-09T11:02:43Z</time>
      </trkpt>
      <trkpt lat="42.015156" lon="1.8210555">
        <time>2022-07-09T11:02:44Z</time>
      </trkpt>
      <trkpt lat="42.01511" lon="1.8211123">
        <time>2022-07-09T11:02:45Z</time>
      </trkpt>
      <trkpt lat="42.01506" lon="1.8211763">
        <time>2022-07-09T11:02:46Z</time>
      </trkpt>
      <trkpt lat="42.015007" lon="1.8212426">
        <time>2022-07-09T11:02:47Z</time>
      </trkpt>
      <trkpt lat="42.014954" lon="1.8213112">
        <time>2022-07-09T11:02:48Z</time>
      </trkpt>
      <trkpt lat="42.014904" lon="1.8213758">
        <time>2022-07-09T11:02:49Z</time>
      </trkpt>
      <trkpt lat="42.014847" lon="1.8214478">
        <time>2022-07-09T11:02:50Z</time>
      </trkpt>
      <trkpt lat="42.01479" lon="1.8215202">
        <time>2022-07-09T11:02:51Z</time>
      </trkpt>
      <trkpt lat="42.014732" lon="1.8215942">
        <time>2022-07-09T11:02:52Z</time>
      </trkpt>
      <trkpt lat="42.014675" lon="1.8216699">
        <time>2022-07-09T11:02:53Z</time>
      </trkpt>
      <trkpt lat="42.01462" lon="1.8217422">
        <time>2022-07-09T11:02:54Z</time>
      </trkpt>
      <trkpt lat="42.01456" lon="1.8218246">
        <time>2022-07-09T11:02:55Z</time>
      </trkpt>
      <trkpt lat="42.014503" lon="1.8219109">
        <time>2022-07-09T11:02:56Z</time>
      </trkpt>
      <trkpt lat="42.01445" lon="1.8220001">
        <time>2022-07-09T11:02:57Z</time>
      </trkpt>
      <trkpt lat="42.0144" lon="1.8220932">
        <time>2022-07-09T11:02:58Z</time>
      </trkpt>
      <trkpt lat="42.01435" lon="1.8221889">
        <time>2022-07-09T11:02:59Z</time>
      </trkpt>
      <trkpt lat="42.0143" lon="1.8222879">
        <time>2022-07-09T11:03:00Z</time>
      </trkpt>
      <trkpt lat="42.01425" lon="1.8223892">
        <time>2022-07-09T11:03:01Z</time>
      </trkpt>
      <trkpt lat="42.014206" lon="1.8224919">
        <time>2022-07-09T11:03:02Z</time>
      </trkpt>
      <trkpt lat="42.01416" lon="1.8225952">
        <time>2022-07-09T11:03:03Z</time>
      </trkpt>
      <trkpt lat="42.014065" lon="1.8228031">
        <time>2022-07-09T11:03:05Z</time>
      </trkpt>
      <trkpt lat="42.01402" lon="1.8229072">
        <time>2022-07-09T11:03:06Z</time>
      </trkpt>
      <trkpt lat="42.01397" lon="1.8230112">
        <time>2022-07-09T11:03:07Z</time>
      </trkpt>
      <trkpt lat="42.013924" lon="1.8231152">
        <time>2022-07-09T11:03:08Z</time>
      </trkpt>
      <trkpt lat="42.01387" lon="1.8232262">
        <time>2022-07-09T11:03:09Z</time>
      </trkpt>
      <trkpt lat="42.01382" lon="1.8233352">
        <time>2022-07-09T11:03:10Z</time>
      </trkpt>
      <trkpt lat="42.01377" lon="1.8234358">
        <time>2022-07-09T11:03:11Z</time>
      </trkpt>
      <trkpt lat="42.013725" lon="1.8235385">
        <time>2022-07-09T11:03:12Z</time>
      </trkpt>
      <trkpt lat="42.01367" lon="1.8236485">
        <time>2022-07-09T11:03:13Z</time>
      </trkpt>
      <trkpt lat="42.013622" lon="1.8237581">
        <time>2022-07-09T11:03:14Z</time>
      </trkpt>
      <trkpt lat="42.013577" lon="1.8238605">
        <time>2022-07-09T11:03:15Z</time>
      </trkpt>
      <trkpt lat="42.01353" lon="1.8239661">
        <time>2022-07-09T11:03:16Z</time>
      </trkpt>
      <trkpt lat="42.01349" lon="1.8240741">
        <time>2022-07-09T11:03:17Z</time>
      </trkpt>
      <trkpt lat="42.013443" lon="1.8241909">
        <time>2022-07-09T11:03:18Z</time>
      </trkpt>
      <trkpt lat="42.013397" lon="1.8243065">
        <time>2022-07-09T11:03:19Z</time>
      </trkpt>
      <trkpt lat="42.013355" lon="1.8244132">
        <time>2022-07-09T11:03:20Z</time>
      </trkpt>
      <trkpt lat="42.01331" lon="1.8245221">
        <time>2022-07-09T11:03:21Z</time>
      </trkpt>
      <trkpt lat="42.013268" lon="1.8246331">
        <time>2022-07-09T11:03:22Z</time>
      </trkpt>
      <trkpt lat="42.013226" lon="1.8247452">
        <time>2022-07-09T11:03:23Z</time>
      </trkpt>
      <trkpt lat="42.01318" lon="1.8248655">
        <time>2022-07-09T11:03:24Z</time>
      </trkpt>
      <trkpt lat="42.013134" lon="1.8249835">
        <time>2022-07-09T11:03:25Z</time>
      </trkpt>
      <trkpt lat="42.013092" lon="1.8250998">
        <time>2022-07-09T11:03:26Z</time>
      </trkpt>
      <trkpt lat="42.013054" lon="1.8252078">
        <time>2022-07-09T11:03:27Z</time>
      </trkpt>
      <trkpt lat="42.013012" lon="1.8253161">
        <time>2022-07-09T11:03:28Z</time>
      </trkpt>
      <trkpt lat="42.01297" lon="1.8254328">
        <time>2022-07-09T11:03:29Z</time>
      </trkpt>
      <trkpt lat="42.012928" lon="1.8255461">
        <time>2022-07-09T11:03:30Z</time>
      </trkpt>
      <trkpt lat="42.012886" lon="1.8256564">
        <time>2022-07-09T11:03:31Z</time>
      </trkpt>
      <trkpt lat="42.012848" lon="1.8257571">
        <time>2022-07-09T11:03:32Z</time>
      </trkpt>
      <trkpt lat="42.01281" lon="1.8258581">
        <time>2022-07-09T11:03:33Z</time>
      </trkpt>
      <trkpt lat="42.01277" lon="1.8259665">
        <time>2022-07-09T11:03:34Z</time>
      </trkpt>
      <trkpt lat="42.012733" lon="1.8260654">
        <time>2022-07-09T11:03:35Z</time>
      </trkpt>
      <trkpt lat="42.012695" lon="1.826166">
        <time>2022-07-09T11:03:36Z</time>
      </trkpt>
      <trkpt lat="42.01266" lon="1.8262664">
        <time>2022-07-09T11:03:37Z</time>
      </trkpt>
      <trkpt lat="42.012623" lon="1.826372">
        <time>2022-07-09T11:03:38Z</time>
      </trkpt>
      <trkpt lat="42.01259" lon="1.8264748">
        <time>2022-07-09T11:03:39Z</time>
      </trkpt>
      <trkpt lat="42.01256" lon="1.8265761">
        <time>2022-07-09T11:03:40Z</time>
      </trkpt>
      <trkpt lat="42.012543" lon="1.8266758">
        <time>2022-07-09T11:03:41Z</time>
      </trkpt>
      <trkpt lat="42.012527" lon="1.8267751">
        <time>2022-07-09T11:03:42Z</time>
      </trkpt>
      <trkpt lat="42.012524" lon="1.8268734">
        <time>2022-07-09T11:03:43Z</time>
      </trkpt>
      <trkpt lat="42.012527" lon="1.8269644">
        <time>2022-07-09T11:03:44Z</time>
      </trkpt>
      <trkpt lat="42.01253" lon="1.8270557">
        <time>2022-07-09T11:03:45Z</time>
      </trkpt>
      <trkpt lat="42.012543" lon="1.8271481">
        <time>2022-07-09T11:03:46Z</time>
      </trkpt>
      <trkpt lat="42.012554" lon="1.827239">
        <time>2022-07-09T11:03:47Z</time>
      </trkpt>
      <trkpt lat="42.012566" lon="1.8273283">
        <time>2022-07-09T11:03:48Z</time>
      </trkpt>
      <trkpt lat="42.01258" lon="1.827417">
        <time>2022-07-09T11:03:49Z</time>
      </trkpt>
      <trkpt lat="42.012596" lon="1.8275044">
        <time>2022-07-09T11:03:50Z</time>
      </trkpt>
      <trkpt lat="42.012615" lon="1.8275964">
        <time>2022-07-09T11:03:51Z</time>
      </trkpt>
      <trkpt lat="42.01263" lon="1.8276857">
        <time>2022-07-09T11:03:52Z</time>
      </trkpt>
      <trkpt lat="42.01265" lon="1.8277664">
        <time>2022-07-09T11:03:53Z</time>
      </trkpt>
      <trkpt lat="42.01267" lon="1.827853">
        <time>2022-07-09T11:03:54Z</time>
      </trkpt>
      <trkpt lat="42.012684" lon="1.8279377">
        <time>2022-07-09T11:03:55Z</time>
      </trkpt>
      <trkpt lat="42.012703" lon="1.8280207">
        <time>2022-07-09T11:03:56Z</time>
      </trkpt>
      <trkpt lat="42.01272" lon="1.8281014">
        <time>2022-07-09T11:03:57Z</time>
      </trkpt>
      <trkpt lat="42.012733" lon="1.8281814">
        <time>2022-07-09T11:03:58Z</time>
      </trkpt>
      <trkpt lat="42.01275" lon="1.8282557">
        <time>2022-07-09T11:03:59Z</time>
      </trkpt>
      <trkpt lat="42.012764" lon="1.8283303">
        <time>2022-07-09T11:04:00Z</time>
      </trkpt>
      <trkpt lat="42.01278" lon="1.8284054">
        <time>2022-07-09T11:04:01Z</time>
      </trkpt>
      <trkpt lat="42.0128" lon="1.8284796">
        <time>2022-07-09T11:04:02Z</time>
      </trkpt>
      <trkpt lat="42.012817" lon="1.828554">
        <time>2022-07-09T11:04:03Z</time>
      </trkpt>
      <trkpt lat="42.012833" lon="1.8286287">
        <time>2022-07-09T11:04:04Z</time>
      </trkpt>
      <trkpt lat="42.01285" lon="1.8287096">
        <time>2022-07-09T11:04:05Z</time>
      </trkpt>
      <trkpt lat="42.012867" lon="1.8287896">
        <time>2022-07-09T11:04:06Z</time>
      </trkpt>
      <trkpt lat="42.01288" lon="1.8288683">
        <time>2022-07-09T11:04:07Z</time>
      </trkpt>
      <trkpt lat="42.01291" lon="1.8290173">
        <time>2022-07-09T11:04:09Z</time>
      </trkpt>
      <trkpt lat="42.012943" lon="1.8291793">
        <time>2022-07-09T11:04:11Z</time>
      </trkpt>
      <trkpt lat="42.01296" lon="1.8292663">
        <time>2022-07-09T11:04:12Z</time>
      </trkpt>
      <trkpt lat="42.012974" lon="1.829355">
        <time>2022-07-09T11:04:13Z</time>
      </trkpt>
      <trkpt lat="42.012993" lon="1.8294443">
        <time>2022-07-09T11:04:14Z</time>
      </trkpt>
      <trkpt lat="42.013023" lon="1.829616">
        <time>2022-07-09T11:04:16Z</time>
      </trkpt>
      <trkpt lat="42.01304" lon="1.829713">
        <time>2022-07-09T11:04:17Z</time>
      </trkpt>
      <trkpt lat="42.01305" lon="1.8298043">
        <time>2022-07-09T11:04:18Z</time>
      </trkpt>
      <trkpt lat="42.013054" lon="1.8298993">
        <time>2022-07-09T11:04:19Z</time>
      </trkpt>
      <trkpt lat="42.013058" lon="1.8299953">
        <time>2022-07-09T11:04:20Z</time>
      </trkpt>
      <trkpt lat="42.013058" lon="1.8300983">
        <time>2022-07-09T11:04:21Z</time>
      </trkpt>
      <trkpt lat="42.013058" lon="1.8301996">
        <time>2022-07-09T11:04:22Z</time>
      </trkpt>
      <trkpt lat="42.013065" lon="1.83029">
        <time>2022-07-09T11:04:23Z</time>
      </trkpt>
      <trkpt lat="42.01308" lon="1.8303746">
        <time>2022-07-09T11:04:24Z</time>
      </trkpt>
      <trkpt lat="42.013107" lon="1.8304496">
        <time>2022-07-09T11:04:25Z</time>
      </trkpt>
      <trkpt lat="42.013145" lon="1.830503">
        <time>2022-07-09T11:04:26Z</time>
      </trkpt>
      <trkpt lat="42.01319" lon="1.8305275">
        <time>2022-07-09T11:04:27Z</time>
      </trkpt>
      <trkpt lat="42.013237" lon="1.8305306">
        <time>2022-07-09T11:04:28Z</time>
      </trkpt>
      <trkpt lat="42.01334" lon="1.8304965">
        <time>2022-07-09T11:04:30Z</time>
      </trkpt>
      <trkpt lat="42.0134" lon="1.8304709">
        <time>2022-07-09T11:04:31Z</time>
      </trkpt>
      <trkpt lat="42.013466" lon="1.8304456">
        <time>2022-07-09T11:04:32Z</time>
      </trkpt>
      <trkpt lat="42.013527" lon="1.8304226">
        <time>2022-07-09T11:04:33Z</time>
      </trkpt>
      <trkpt lat="42.01359" lon="1.8304036">
        <time>2022-07-09T11:04:34Z</time>
      </trkpt>
      <trkpt lat="42.01366" lon="1.8303889">
        <time>2022-07-09T11:04:35Z</time>
      </trkpt>
      <trkpt lat="42.013725" lon="1.8303783">
        <time>2022-07-09T11:04:36Z</time>
      </trkpt>
      <trkpt lat="42.013794" lon="1.8303713">
        <time>2022-07-09T11:04:37Z</time>
      </trkpt>
      <trkpt lat="42.01387" lon="1.8303713">
        <time>2022-07-09T11:04:38Z</time>
      </trkpt>
      <trkpt lat="42.013943" lon="1.8303766">
        <time>2022-07-09T11:04:39Z</time>
      </trkpt>
      <trkpt lat="42.014008" lon="1.8303846">
        <time>2022-07-09T11:04:40Z</time>
      </trkpt>
      <trkpt lat="42.01408" lon="1.830398">
        <time>2022-07-09T11:04:41Z</time>
      </trkpt>
      <trkpt lat="42.014153" lon="1.8304156">
        <time>2022-07-09T11:04:42Z</time>
      </trkpt>
      <trkpt lat="42.014225" lon="1.8304366">
        <time>2022-07-09T11:04:43Z</time>
      </trkpt>
      <trkpt lat="42.0143" lon="1.830462">
        <time>2022-07-09T11:04:44Z</time>
      </trkpt>
      <trkpt lat="42.01437" lon="1.8304886">
        <time>2022-07-09T11:04:45Z</time>
      </trkpt>
      <trkpt lat="42.014446" lon="1.8305227">
        <time>2022-07-09T11:04:46Z</time>
      </trkpt>
      <trkpt lat="42.014523" lon="1.8305609">
        <time>2022-07-09T11:04:47Z</time>
      </trkpt>
      <trkpt lat="42.0146" lon="1.8306046">
        <time>2022-07-09T11:04:48Z</time>
      </trkpt>
      <trkpt lat="42.014668" lon="1.830648">
        <time>2022-07-09T11:04:49Z</time>
      </trkpt>
      <trkpt lat="42.01474" lon="1.8306983">
        <time>2022-07-09T11:04:50Z</time>
      </trkpt>
      <trkpt lat="42.014812" lon="1.8307519">
        <time>2022-07-09T11:04:51Z</time>
      </trkpt>
      <trkpt lat="42.014885" lon="1.8308109">
        <time>2022-07-09T11:04:52Z</time>
      </trkpt>
      <trkpt lat="42.014954" lon="1.8308753">
        <time>2022-07-09T11:04:53Z</time>
      </trkpt>
      <trkpt lat="42.01502" lon="1.8309395">
        <time>2022-07-09T11:04:54Z</time>
      </trkpt>
      <trkpt lat="42.01508" lon="1.8310102">
        <time>2022-07-09T11:04:55Z</time>
      </trkpt>
      <trkpt lat="42.01515" lon="1.8310913">
        <time>2022-07-09T11:04:56Z</time>
      </trkpt>
      <trkpt lat="42.01521" lon="1.8311756">
        <time>2022-07-09T11:04:57Z</time>
      </trkpt>
      <trkpt lat="42.015263" lon="1.8312632">
        <time>2022-07-09T11:04:58Z</time>
      </trkpt>
      <trkpt lat="42.015316" lon="1.8313476">
        <time>2022-07-09T11:04:59Z</time>
      </trkpt>
      <trkpt lat="42.015366" lon="1.8314359">
        <time>2022-07-09T11:05:00Z</time>
      </trkpt>
      <trkpt lat="42.01542" lon="1.8315345">
        <time>2022-07-09T11:05:01Z</time>
      </trkpt>
      <trkpt lat="42.01547" lon="1.8316345">
        <time>2022-07-09T11:05:02Z</time>
      </trkpt>
      <trkpt lat="42.01551" lon="1.8317375">
        <time>2022-07-09T11:05:03Z</time>
      </trkpt>
      <trkpt lat="42.015556" lon="1.8318433">
        <time>2022-07-09T11:05:04Z</time>
      </trkpt>
      <trkpt lat="42.01559" lon="1.8319446">
        <time>2022-07-09T11:05:05Z</time>
      </trkpt>
      <trkpt lat="42.015625" lon="1.8320506">
        <time>2022-07-09T11:05:06Z</time>
      </trkpt>
      <trkpt lat="42.01566" lon="1.8321679">
        <time>2022-07-09T11:05:07Z</time>
      </trkpt>
      <trkpt lat="42.015686" lon="1.8322852">
        <time>2022-07-09T11:05:08Z</time>
      </trkpt>
      <trkpt lat="42.01571" lon="1.8323956">
        <time>2022-07-09T11:05:09Z</time>
      </trkpt>
      <trkpt lat="42.01573" lon="1.8325179">
        <time>2022-07-09T11:05:10Z</time>
      </trkpt>
      <trkpt lat="42.01575" lon="1.8326322">
        <time>2022-07-09T11:05:11Z</time>
      </trkpt>
      <trkpt lat="42.015766" lon="1.8327562">
        <time>2022-07-09T11:05:12Z</time>
      </trkpt>
      <trkpt lat="42.015778" lon="1.8328766">
        <time>2022-07-09T11:05:13Z</time>
      </trkpt>
      <trkpt lat="42.015797" lon="1.8331025">
        <time>2022-07-09T11:05:15Z</time>
      </trkpt>
      <trkpt lat="42.01581" lon="1.8333225">
        <time>2022-07-09T11:05:17Z</time>
      </trkpt>
      <trkpt lat="42.015812" lon="1.8334402">
        <time>2022-07-09T11:05:18Z</time>
      </trkpt>
      <trkpt lat="42.015812" lon="1.8335485">
        <time>2022-07-09T11:05:19Z</time>
      </trkpt>
      <trkpt lat="42.015812" lon="1.8336575">
        <time>2022-07-09T11:05:20Z</time>
      </trkpt>
      <trkpt lat="42.015812" lon="1.8337688">
        <time>2022-07-09T11:05:21Z</time>
      </trkpt>
      <trkpt lat="42.01581" lon="1.8338819">
        <time>2022-07-09T11:05:22Z</time>
      </trkpt>
      <trkpt lat="42.01581" lon="1.8340032">
        <time>2022-07-09T11:05:23Z</time>
      </trkpt>
      <trkpt lat="42.0158" lon="1.8341228">
        <time>2022-07-09T11:05:24Z</time>
      </trkpt>
      <trkpt lat="42.015797" lon="1.8342345">
        <time>2022-07-09T11:05:25Z</time>
      </trkpt>
      <trkpt lat="42.01579" lon="1.8343478">
        <time>2022-07-09T11:05:26Z</time>
      </trkpt>
      <trkpt lat="42.015778" lon="1.8344622">
        <time>2022-07-09T11:05:27Z</time>
      </trkpt>
      <trkpt lat="42.01577" lon="1.8345854">
        <time>2022-07-09T11:05:28Z</time>
      </trkpt>
      <trkpt lat="42.015762" lon="1.8347071">
        <time>2022-07-09T11:05:29Z</time>
      </trkpt>
      <trkpt lat="42.015755" lon="1.8348278">
        <time>2022-07-09T11:05:30Z</time>
      </trkpt>
      <trkpt lat="42.015747" lon="1.8349481">
        <time>2022-07-09T11:05:31Z</time>
      </trkpt>
      <trkpt lat="42.01574" lon="1.8350677">
        <time>2022-07-09T11:05:32Z</time>
      </trkpt>
      <trkpt lat="42.015736" lon="1.8351878">
        <time>2022-07-09T11:05:33Z</time>
      </trkpt>
      <trkpt lat="42.015728" lon="1.8353064">
        <time>2022-07-09T11:05:34Z</time>
      </trkpt>
      <trkpt lat="42.01572" lon="1.8354257">
        <time>2022-07-09T11:05:35Z</time>
      </trkpt>
      <trkpt lat="42.015713" lon="1.8355451">
        <time>2022-07-09T11:05:36Z</time>
      </trkpt>
      <trkpt lat="42.015705" lon="1.8356571">
        <time>2022-07-09T11:05:37Z</time>
      </trkpt>
      <trkpt lat="42.015697" lon="1.8357804">
        <time>2022-07-09T11:05:38Z</time>
      </trkpt>
      <trkpt lat="42.01569" lon="1.8359038">
        <time>2022-07-09T11:05:39Z</time>
      </trkpt>
      <trkpt lat="42.015682" lon="1.8360271">
        <time>2022-07-09T11:05:40Z</time>
      </trkpt>
      <trkpt lat="42.01568" lon="1.8361511">
        <time>2022-07-09T11:05:41Z</time>
      </trkpt>
      <trkpt lat="42.01567" lon="1.8362671">
        <time>2022-07-09T11:05:42Z</time>
      </trkpt>
      <trkpt lat="42.015663" lon="1.8363941">
        <time>2022-07-09T11:05:43Z</time>
      </trkpt>
      <trkpt lat="42.015656" lon="1.8365214">
        <time>2022-07-09T11:05:44Z</time>
      </trkpt>
      <trkpt lat="42.01565" lon="1.8366494">
        <time>2022-07-09T11:05:45Z</time>
      </trkpt>
      <trkpt lat="42.015644" lon="1.8367791">
        <time>2022-07-09T11:05:46Z</time>
      </trkpt>
      <trkpt lat="42.015636" lon="1.8369011">
        <time>2022-07-09T11:05:47Z</time>
      </trkpt>
      <trkpt lat="42.015625" lon="1.8370271">
        <time>2022-07-09T11:05:48Z</time>
      </trkpt>
      <trkpt lat="42.015617" lon="1.8371651">
        <time>2022-07-09T11:05:49Z</time>
      </trkpt>
      <trkpt lat="42.015606" lon="1.8373027">
        <time>2022-07-09T11:05:50Z</time>
      </trkpt>
      <trkpt lat="42.0156" lon="1.8374407">
        <time>2022-07-09T11:05:51Z</time>
      </trkpt>
      <trkpt lat="42.01559" lon="1.8375701">
        <time>2022-07-09T11:05:52Z</time>
      </trkpt>
      <trkpt lat="42.015583" lon="1.837702">
        <time>2022-07-09T11:05:53Z</time>
      </trkpt>
      <trkpt lat="42.015575" lon="1.8378347">
        <time>2022-07-09T11:05:54Z</time>
      </trkpt>
      <trkpt lat="42.015564" lon="1.8379784">
        <time>2022-07-09T11:05:55Z</time>
      </trkpt>
      <trkpt lat="42.015556" lon="1.8381218">
        <time>2022-07-09T11:05:56Z</time>
      </trkpt>
      <trkpt lat="42.01555" lon="1.8382654">
        <time>2022-07-09T11:05:57Z</time>
      </trkpt>
      <trkpt lat="42.01554" lon="1.8384094">
        <time>2022-07-09T11:05:58Z</time>
      </trkpt>
      <trkpt lat="42.015537" lon="1.8385551">
        <time>2022-07-09T11:05:59Z</time>
      </trkpt>
      <trkpt lat="42.015533" lon="1.8387021">
        <time>2022-07-09T11:06:00Z</time>
      </trkpt>
      <trkpt lat="42.01553" lon="1.8388411">
        <time>2022-07-09T11:06:01Z</time>
      </trkpt>
      <trkpt lat="42.015526" lon="1.838996">
        <time>2022-07-09T11:06:02Z</time>
      </trkpt>
      <trkpt lat="42.015522" lon="1.839141">
        <time>2022-07-09T11:06:03Z</time>
      </trkpt>
      <trkpt lat="42.015526" lon="1.8392897">
        <time>2022-07-09T11:06:04Z</time>
      </trkpt>
      <trkpt lat="42.015533" lon="1.8394407">
        <time>2022-07-09T11:06:05Z</time>
      </trkpt>
      <trkpt lat="42.01554" lon="1.8396037">
        <time>2022-07-09T11:06:06Z</time>
      </trkpt>
      <trkpt lat="42.015556" lon="1.8397653">
        <time>2022-07-09T11:06:07Z</time>
      </trkpt>
      <trkpt lat="42.015575" lon="1.839915">
        <time>2022-07-09T11:06:08Z</time>
      </trkpt>
      <trkpt lat="42.015602" lon="1.8400657">
        <time>2022-07-09T11:06:09Z</time>
      </trkpt>
      <trkpt lat="42.015636" lon="1.8402181">
        <time>2022-07-09T11:06:10Z</time>
      </trkpt>
      <trkpt lat="42.01567" lon="1.84037">
        <time>2022-07-09T11:06:11Z</time>
      </trkpt>
      <trkpt lat="42.015713" lon="1.8405213">
        <time>2022-07-09T11:06:12Z</time>
      </trkpt>
      <trkpt lat="42.01577" lon="1.840689">
        <time>2022-07-09T11:06:13Z</time>
      </trkpt>
      <trkpt lat="42.01582" lon="1.8408287">
        <time>2022-07-09T11:06:14Z</time>
      </trkpt>
      <trkpt lat="42.015873" lon="1.8409653">
        <time>2022-07-09T11:06:15Z</time>
      </trkpt>
      <trkpt lat="42.01598" lon="1.841248">
        <time>2022-07-09T11:06:17Z</time>
      </trkpt>
      <trkpt lat="42.01601" lon="1.8413843">
        <time>2022-07-09T11:06:18Z</time>
      </trkpt>
      <trkpt lat="42.01603" lon="1.8415073">
        <time>2022-07-09T11:06:19Z</time>
      </trkpt>
      <trkpt lat="42.01603" lon="1.8416339">
        <time>2022-07-09T11:06:20Z</time>
      </trkpt>
      <trkpt lat="42.01602" lon="1.8417419">
        <time>2022-07-09T11:06:21Z</time>
      </trkpt>
      <trkpt lat="42.016" lon="1.84184">
        <time>2022-07-09T11:06:22Z</time>
      </trkpt>
      <trkpt lat="42.015965" lon="1.8419286">
        <time>2022-07-09T11:06:23Z</time>
      </trkpt>
      <trkpt lat="42.015923" lon="1.8420006">
        <time>2022-07-09T11:06:24Z</time>
      </trkpt>
      <trkpt lat="42.01588" lon="1.8420593">
        <time>2022-07-09T11:06:25Z</time>
      </trkpt>
      <trkpt lat="42.015835" lon="1.8421156">
        <time>2022-07-09T11:06:26Z</time>
      </trkpt>
      <trkpt lat="42.015793" lon="1.8421663">
        <time>2022-07-09T11:06:27Z</time>
      </trkpt>
      <trkpt lat="42.01575" lon="1.8422116">
        <time>2022-07-09T11:06:28Z</time>
      </trkpt>
      <trkpt lat="42.015713" lon="1.8422526">
        <time>2022-07-09T11:06:29Z</time>
      </trkpt>
      <trkpt lat="42.01565" lon="1.8423187">
        <time>2022-07-09T11:06:31Z</time>
      </trkpt>
      <trkpt lat="42.015594" lon="1.8423766">
        <time>2022-07-09T11:06:33Z</time>
      </trkpt>
      <trkpt lat="42.01554" lon="1.842428">
        <time>2022-07-09T11:06:35Z</time>
      </trkpt>
      <trkpt lat="42.015488" lon="1.8424773">
        <time>2022-07-09T11:06:37Z</time>
      </trkpt>
      <trkpt lat="42.015434" lon="1.8425276">
        <time>2022-07-09T11:06:39Z</time>
      </trkpt>
      <trkpt lat="42.015385" lon="1.8425792">
        <time>2022-07-09T11:06:41Z</time>
      </trkpt>
      <trkpt lat="42.01533" lon="1.8426329">
        <time>2022-07-09T11:06:43Z</time>
      </trkpt>
      <trkpt lat="42.01529" lon="1.8426802">
        <time>2022-07-09T11:06:45Z</time>
      </trkpt>
      <trkpt lat="42.01525" lon="1.8427182">
        <time>2022-07-09T11:06:47Z</time>
      </trkpt>
      <trkpt lat="42.0152" lon="1.842773">
        <time>2022-07-09T11:06:50Z</time>
      </trkpt>
      <trkpt lat="42.01516" lon="1.8428212">
        <time>2022-07-09T11:06:53Z</time>
      </trkpt>
      <trkpt lat="42.015114" lon="1.8428712">
        <time>2022-07-09T11:06:56Z</time>
      </trkpt>
      <trkpt lat="42.015068" lon="1.8429239">
        <time>2022-07-09T11:06:59Z</time>
      </trkpt>
      <trkpt lat="42.015022" lon="1.8429736">
        <time>2022-07-09T11:07:02Z</time>
      </trkpt>
      <trkpt lat="42.01498" lon="1.8430246">
        <time>2022-07-09T11:07:05Z</time>
      </trkpt>
      <trkpt lat="42.014935" lon="1.8430722">
        <time>2022-07-09T11:07:08Z</time>
      </trkpt>
      <trkpt lat="42.01489" lon="1.8431259">
        <time>2022-07-09T11:07:11Z</time>
      </trkpt>
      <trkpt lat="42.014843" lon="1.8431776">
        <time>2022-07-09T11:07:14Z</time>
      </trkpt>
      <trkpt lat="42.014797" lon="1.8432271">
        <time>2022-07-09T11:07:17Z</time>
      </trkpt>
      <trkpt lat="42.01475" lon="1.8432785">
        <time>2022-07-09T11:07:20Z</time>
      </trkpt>
      <trkpt lat="42.0147" lon="1.8433262">
        <time>2022-07-09T11:07:23Z</time>
      </trkpt>
      <trkpt lat="42.014652" lon="1.8433712">
        <time>2022-07-09T11:07:26Z</time>
      </trkpt>
      <trkpt lat="42.014606" lon="1.8434192">
        <time>2022-07-09T11:07:29Z</time>
      </trkpt>
      <trkpt lat="42.01456" lon="1.8434732">
        <time>2022-07-09T11:07:32Z</time>
      </trkpt>
      <trkpt lat="42.01451" lon="1.8435255">
        <time>2022-07-09T11:07:35Z</time>
      </trkpt>
      <trkpt lat="42.014458" lon="1.8435749">
        <time>2022-07-09T11:07:38Z</time>
      </trkpt>
      <trkpt lat="42.01441" lon="1.8436248">
        <time>2022-07-09T11:07:41Z</time>
      </trkpt>
      <trkpt lat="42.01436" lon="1.8436779">
        <time>2022-07-09T11:07:44Z</time>
      </trkpt>
      <trkpt lat="42.014317" lon="1.8437328">
        <time>2022-07-09T11:07:47Z</time>
      </trkpt>
      <trkpt lat="42.014267" lon="1.8437872">
        <time>2022-07-09T11:07:50Z</time>
      </trkpt>
      <trkpt lat="42.014225" lon="1.8438438">
        <time>2022-07-09T11:07:53Z</time>
      </trkpt>
      <trkpt lat="42.01418" lon="1.8439019">
        <time>2022-07-09T11:07:56Z</time>
      </trkpt>
      <trkpt lat="42.014133" lon="1.8439605">
        <time>2022-07-09T11:07:59Z</time>
      </trkpt>
      <trkpt lat="42.014088" lon="1.8440155">
        <time>2022-07-09T11:08:02Z</time>
      </trkpt>
      <trkpt lat="42.01404" lon="1.8440715">
        <time>2022-07-09T11:08:05Z</time>
      </trkpt>
      <trkpt lat="42.014" lon="1.8441281">
        <time>2022-07-09T11:08:08Z</time>
      </trkpt>
      <trkpt lat="42.01395" lon="1.8441885">
        <time>2022-07-09T11:08:11Z</time>
      </trkpt>
      <trkpt lat="42.013905" lon="1.8442538">
        <time>2022-07-09T11:08:14Z</time>
      </trkpt>
      <trkpt lat="42.013855" lon="1.8443282">
        <time>2022-07-09T11:08:17Z</time>
      </trkpt>
      <trkpt lat="42.013805" lon="1.8444111">
        <time>2022-07-09T11:08:20Z</time>
      </trkpt>
      <trkpt lat="42.013767" lon="1.8444711">
        <time>2022-07-09T11:08:22Z</time>
      </trkpt>
      <trkpt lat="42.01373" lon="1.8445342">
        <time>2022-07-09T11:08:24Z</time>
      </trkpt>
      <trkpt lat="42.013683" lon="1.8446032">
        <time>2022-07-09T11:08:26Z</time>
      </trkpt>
      <trkpt lat="42.01364" lon="1.8446785">
        <time>2022-07-09T11:08:28Z</time>
      </trkpt>
      <trkpt lat="42.013596" lon="1.8447561">
        <time>2022-07-09T11:08:30Z</time>
      </trkpt>
      <trkpt lat="42.013546" lon="1.8448368">
        <time>2022-07-09T11:08:32Z</time>
      </trkpt>
      <trkpt lat="42.013496" lon="1.8449211">
        <time>2022-07-09T11:08:34Z</time>
      </trkpt>
      <trkpt lat="42.013447" lon="1.8450072">
        <time>2022-07-09T11:08:36Z</time>
      </trkpt>
      <trkpt lat="42.013393" lon="1.8450968">
        <time>2022-07-09T11:08:38Z</time>
      </trkpt>
      <trkpt lat="42.013344" lon="1.8451868">
        <time>2022-07-09T11:08:40Z</time>
      </trkpt>
      <trkpt lat="42.013294" lon="1.8452752">
        <time>2022-07-09T11:08:42Z</time>
      </trkpt>
      <trkpt lat="42.013245" lon="1.8453615">
        <time>2022-07-09T11:08:44Z</time>
      </trkpt>
      <trkpt lat="42.01319" lon="1.8454428">
        <time>2022-07-09T11:08:46Z</time>
      </trkpt>
      <trkpt lat="42.013138" lon="1.8455354">
        <time>2022-07-09T11:08:48Z</time>
      </trkpt>
      <trkpt lat="42.013092" lon="1.8456258">
        <time>2022-07-09T11:08:50Z</time>
      </trkpt>
      <trkpt lat="42.01304" lon="1.8457228">
        <time>2022-07-09T11:08:52Z</time>
      </trkpt>
      <trkpt lat="42.012985" lon="1.8458161">
        <time>2022-07-09T11:08:54Z</time>
      </trkpt>
      <trkpt lat="42.01293" lon="1.8459101">
        <time>2022-07-09T11:08:56Z</time>
      </trkpt>
      <trkpt lat="42.01288" lon="1.8460047">
        <time>2022-07-09T11:08:58Z</time>
      </trkpt>
      <trkpt lat="42.012825" lon="1.8460991">
        <time>2022-07-09T11:09:00Z</time>
      </trkpt>
      <trkpt lat="42.01277" lon="1.8461941">
        <time>2022-07-09T11:09:02Z</time>
      </trkpt>
      <trkpt lat="42.01272" lon="1.8462894">
        <time>2022-07-09T11:09:04Z</time>
      </trkpt>
      <trkpt lat="42.012665" lon="1.8463881">
        <time>2022-07-09T11:09:06Z</time>
      </trkpt>
      <trkpt lat="42.01261" lon="1.8464854">
        <time>2022-07-09T11:09:08Z</time>
      </trkpt>
      <trkpt lat="42.012558" lon="1.8465807">
        <time>2022-07-09T11:09:10Z</time>
      </trkpt>
      <trkpt lat="42.0125" lon="1.846673">
        <time>2022-07-09T11:09:12Z</time>
      </trkpt>
      <trkpt lat="42.012444" lon="1.846765">
        <time>2022-07-09T11:09:14Z</time>
      </trkpt>
      <trkpt lat="42.01239" lon="1.8468544">
        <time>2022-07-09T11:09:16Z</time>
      </trkpt>
      <trkpt lat="42.012337" lon="1.8469411">
        <time>2022-07-09T11:09:18Z</time>
      </trkpt>
      <trkpt lat="42.012276" lon="1.8470241">
        <time>2022-07-09T11:09:20Z</time>
      </trkpt>
      <trkpt lat="42.012215" lon="1.8471004">
        <time>2022-07-09T11:09:22Z</time>
      </trkpt>
      <trkpt lat="42.01215" lon="1.8471698">
        <time>2022-07-09T11:09:24Z</time>
      </trkpt>
      <trkpt lat="42.01209" lon="1.8472288">
        <time>2022-07-09T11:09:26Z</time>
      </trkpt>
      <trkpt lat="42.012028" lon="1.8472754">
        <time>2022-07-09T11:09:28Z</time>
      </trkpt>
      <trkpt lat="42.01197" lon="1.8473134">
        <time>2022-07-09T11:09:30Z</time>
      </trkpt>
      <trkpt lat="42.011913" lon="1.847347">
        <time>2022-07-09T11:09:32Z</time>
      </trkpt>
      <trkpt lat="42.011856" lon="1.8473717">
        <time>2022-07-09T11:09:34Z</time>
      </trkpt>
      <trkpt lat="42.0118" lon="1.847389">
        <time>2022-07-09T11:09:36Z</time>
      </trkpt>
      <trkpt lat="42.01174" lon="1.8474034">
        <time>2022-07-09T11:09:38Z</time>
      </trkpt>
      <trkpt lat="42.011684" lon="1.8474116">
        <time>2022-07-09T11:09:40Z</time>
      </trkpt>
      <trkpt lat="42.011623" lon="1.8474157">
        <time>2022-07-09T11:09:42Z</time>
      </trkpt>
      <trkpt lat="42.011562" lon="1.8474107">
        <time>2022-07-09T11:09:44Z</time>
      </trkpt>
      <trkpt lat="42.011505" lon="1.847401">
        <time>2022-07-09T11:09:46Z</time>
      </trkpt>
      <trkpt lat="42.011448" lon="1.8473873">
        <time>2022-07-09T11:09:48Z</time>
      </trkpt>
      <trkpt lat="42.01139" lon="1.8473704">
        <time>2022-07-09T11:09:50Z</time>
      </trkpt>
      <trkpt lat="42.011333" lon="1.8473583">
        <time>2022-07-09T11:09:52Z</time>
      </trkpt>
      <trkpt lat="42.011272" lon="1.8473498">
        <time>2022-07-09T11:09:54Z</time>
      </trkpt>
      <trkpt lat="42.01121" lon="1.8473364">
        <time>2022-07-09T11:09:56Z</time>
      </trkpt>
      <trkpt lat="42.011154" lon="1.8473188">
        <time>2022-07-09T11:09:58Z</time>
      </trkpt>
      <trkpt lat="42.011097" lon="1.8473014">
        <time>2022-07-09T11:10:00Z</time>
      </trkpt>
      <trkpt lat="42.011044" lon="1.8472904">
        <time>2022-07-09T11:10:02Z</time>
      </trkpt>
      <trkpt lat="42.01099" lon="1.8472828">
        <time>2022-07-09T11:10:04Z</time>
      </trkpt>
      <trkpt lat="42.010933" lon="1.8472694">
        <time>2022-07-09T11:10:06Z</time>
      </trkpt>
      <trkpt lat="42.01087" lon="1.8472503">
        <time>2022-07-09T11:10:08Z</time>
      </trkpt>
      <trkpt lat="42.010796" lon="1.8472251">
        <time>2022-07-09T11:10:10Z</time>
      </trkpt>
      <trkpt lat="42.010708" lon="1.8471991">
        <time>2022-07-09T11:10:12Z</time>
      </trkpt>
      <trkpt lat="42.010612" lon="1.8471937">
        <time>2022-07-09T11:10:14Z</time>
      </trkpt>
      <trkpt lat="42.01056" lon="1.8472041">
        <time>2022-07-09T11:10:15Z</time>
      </trkpt>
      <trkpt lat="42.010506" lon="1.8472174">
        <time>2022-07-09T11:10:16Z</time>
      </trkpt>
      <trkpt lat="42.01045" lon="1.847229">
        <time>2022-07-09T11:10:17Z</time>
      </trkpt>
      <trkpt lat="42.01039" lon="1.8472373">
        <time>2022-07-09T11:10:18Z</time>
      </trkpt>
      <trkpt lat="42.010334" lon="1.8472451">
        <time>2022-07-09T11:10:19Z</time>
      </trkpt>
      <trkpt lat="42.010277" lon="1.8472587">
        <time>2022-07-09T11:10:20Z</time>
      </trkpt>
      <trkpt lat="42.010227" lon="1.8472797">
        <time>2022-07-09T11:10:21Z</time>
      </trkpt>
      <trkpt lat="42.01017" lon="1.8473104">
        <time>2022-07-09T11:10:22Z</time>
      </trkpt>
      <trkpt lat="42.01012" lon="1.847345">
        <time>2022-07-09T11:10:23Z</time>
      </trkpt>
      <trkpt lat="42.010067" lon="1.8473827">
        <time>2022-07-09T11:10:24Z</time>
      </trkpt>
      <trkpt lat="42.010017" lon="1.8474203">
        <time>2022-07-09T11:10:25Z</time>
      </trkpt>
      <trkpt lat="42.00997" lon="1.8474574">
        <time>2022-07-09T11:10:26Z</time>
      </trkpt>
      <trkpt lat="42.009922" lon="1.847499">
        <time>2022-07-09T11:10:27Z</time>
      </trkpt>
      <trkpt lat="42.009872" lon="1.8475406">
        <time>2022-07-09T11:10:28Z</time>
      </trkpt>
      <trkpt lat="42.009773" lon="1.8476276">
        <time>2022-07-09T11:10:30Z</time>
      </trkpt>
      <trkpt lat="42.009724" lon="1.847673">
        <time>2022-07-09T11:10:31Z</time>
      </trkpt>
      <trkpt lat="42.009674" lon="1.847721">
        <time>2022-07-09T11:10:32Z</time>
      </trkpt>
      <trkpt lat="42.009624" lon="1.8477687">
        <time>2022-07-09T11:10:33Z</time>
      </trkpt>
      <trkpt lat="42.009575" lon="1.8478163">
        <time>2022-07-09T11:10:34Z</time>
      </trkpt>
      <trkpt lat="42.009525" lon="1.84786">
        <time>2022-07-09T11:10:35Z</time>
      </trkpt>
      <trkpt lat="42.009476" lon="1.847908">
        <time>2022-07-09T11:10:36Z</time>
      </trkpt>
      <trkpt lat="42.009426" lon="1.8479553">
        <time>2022-07-09T11:10:37Z</time>
      </trkpt>
      <trkpt lat="42.009377" lon="1.8480033">
        <time>2022-07-09T11:10:38Z</time>
      </trkpt>
      <trkpt lat="42.009327" lon="1.84805">
        <time>2022-07-09T11:10:39Z</time>
      </trkpt>
      <trkpt lat="42.009277" lon="1.8480973">
        <time>2022-07-09T11:10:40Z</time>
      </trkpt>
      <trkpt lat="42.009228" lon="1.8481456">
        <time>2022-07-09T11:10:41Z</time>
      </trkpt>
      <trkpt lat="42.009182" lon="1.8481923">
        <time>2022-07-09T11:10:42Z</time>
      </trkpt>
      <trkpt lat="42.00913" lon="1.8482449">
        <time>2022-07-09T11:10:43Z</time>
      </trkpt>
      <trkpt lat="42.00908" lon="1.8483">
        <time>2022-07-09T11:10:44Z</time>
      </trkpt>
      <trkpt lat="42.00903" lon="1.8483583">
        <time>2022-07-09T11:10:45Z</time>
      </trkpt>
      <trkpt lat="42.008987" lon="1.8484173">
        <time>2022-07-09T11:10:46Z</time>
      </trkpt>
      <trkpt lat="42.008938" lon="1.8484856">
        <time>2022-07-09T11:10:47Z</time>
      </trkpt>
      <trkpt lat="42.00889" lon="1.8485572">
        <time>2022-07-09T11:10:48Z</time>
      </trkpt>
      <trkpt lat="42.008842" lon="1.8486313">
        <time>2022-07-09T11:10:49Z</time>
      </trkpt>
      <trkpt lat="42.008793" lon="1.8486999">
        <time>2022-07-09T11:10:50Z</time>
      </trkpt>
      <trkpt lat="42.008743" lon="1.8487719">
        <time>2022-07-09T11:10:51Z</time>
      </trkpt>
      <trkpt lat="42.00869" lon="1.8488503">
        <time>2022-07-09T11:10:52Z</time>
      </trkpt>
      <trkpt lat="42.008636" lon="1.8489239">
        <time>2022-07-09T11:10:53Z</time>
      </trkpt>
      <trkpt lat="42.008583" lon="1.8489989">
        <time>2022-07-09T11:10:54Z</time>
      </trkpt>
      <trkpt lat="42.00853" lon="1.8490746">
        <time>2022-07-09T11:10:55Z</time>
      </trkpt>
      <trkpt lat="42.008472" lon="1.8491516">
        <time>2022-07-09T11:10:56Z</time>
      </trkpt>
      <trkpt lat="42.008415" lon="1.8492289">
        <time>2022-07-09T11:10:57Z</time>
      </trkpt>
      <trkpt lat="42.00836" lon="1.8493079">
        <time>2022-07-09T11:10:58Z</time>
      </trkpt>
      <trkpt lat="42.008305" lon="1.8493886">
        <time>2022-07-09T11:10:59Z</time>
      </trkpt>
      <trkpt lat="42.008247" lon="1.8494762">
        <time>2022-07-09T11:11:00Z</time>
      </trkpt>
      <trkpt lat="42.008194" lon="1.8495575">
        <time>2022-07-09T11:11:01Z</time>
      </trkpt>
      <trkpt lat="42.008137" lon="1.8496395">
        <time>2022-07-09T11:11:02Z</time>
      </trkpt>
      <trkpt lat="42.008083" lon="1.8497225">
        <time>2022-07-09T11:11:03Z</time>
      </trkpt>
      <trkpt lat="42.00803" lon="1.8498062">
        <time>2022-07-09T11:11:04Z</time>
      </trkpt>
      <trkpt lat="42.007973" lon="1.8498932">
        <time>2022-07-09T11:11:05Z</time>
      </trkpt>
      <trkpt lat="42.007923" lon="1.8499823">
        <time>2022-07-09T11:11:06Z</time>
      </trkpt>
      <trkpt lat="42.00787" lon="1.8500725">
        <time>2022-07-09T11:11:07Z</time>
      </trkpt>
      <trkpt lat="42.007816" lon="1.8501703">
        <time>2022-07-09T11:11:08Z</time>
      </trkpt>
      <trkpt lat="42.007763" lon="1.8502668">
        <time>2022-07-09T11:11:09Z</time>
      </trkpt>
      <trkpt lat="42.007717" lon="1.8503622">
        <time>2022-07-09T11:11:10Z</time>
      </trkpt>
      <trkpt lat="42.00767" lon="1.8504579">
        <time>2022-07-09T11:11:11Z</time>
      </trkpt>
      <trkpt lat="42.007626" lon="1.8505572">
        <time>2022-07-09T11:11:12Z</time>
      </trkpt>
      <trkpt lat="42.007584" lon="1.8506591">
        <time>2022-07-09T11:11:13Z</time>
      </trkpt>
      <trkpt lat="42.007545" lon="1.8507556">
        <time>2022-07-09T11:11:14Z</time>
      </trkpt>
      <trkpt lat="42.007504" lon="1.8508545">
        <time>2022-07-09T11:11:15Z</time>
      </trkpt>
      <trkpt lat="42.007458" lon="1.8509638">
        <time>2022-07-09T11:11:16Z</time>
      </trkpt>
      <trkpt lat="42.007412" lon="1.8510729">
        <time>2022-07-09T11:11:17Z</time>
      </trkpt>
      <trkpt lat="42.007366" lon="1.8511832">
        <time>2022-07-09T11:11:18Z</time>
      </trkpt>
      <trkpt lat="42.007317" lon="1.8512938">
        <time>2022-07-09T11:11:19Z</time>
      </trkpt>
      <trkpt lat="42.00727" lon="1.8513975">
        <time>2022-07-09T11:11:20Z</time>
      </trkpt>
      <trkpt lat="42.00722" lon="1.8515089">
        <time>2022-07-09T11:11:21Z</time>
      </trkpt>
      <trkpt lat="42.00717" lon="1.8516119">
        <time>2022-07-09T11:11:22Z</time>
      </trkpt>
      <trkpt lat="42.007122" lon="1.8517219">
        <time>2022-07-09T11:11:23Z</time>
      </trkpt>
      <trkpt lat="42.007072" lon="1.8518262">
        <time>2022-07-09T11:11:24Z</time>
      </trkpt>
      <trkpt lat="42.007023" lon="1.8519309">
        <time>2022-07-09T11:11:25Z</time>
      </trkpt>
      <trkpt lat="42.00697" lon="1.8520435">
        <time>2022-07-09T11:11:26Z</time>
      </trkpt>
      <trkpt lat="42.006916" lon="1.8521541">
        <time>2022-07-09T11:11:27Z</time>
      </trkpt>
      <trkpt lat="42.006866" lon="1.8522631">
        <time>2022-07-09T11:11:28Z</time>
      </trkpt>
      <trkpt lat="42.006817" lon="1.8523651">
        <time>2022-07-09T11:11:29Z</time>
      </trkpt>
      <trkpt lat="42.006718" lon="1.8525771">
        <time>2022-07-09T11:11:31Z</time>
      </trkpt>
      <trkpt lat="42.006664" lon="1.8526905">
        <time>2022-07-09T11:11:32Z</time>
      </trkpt>
      <trkpt lat="42.00661" lon="1.8528014">
        <time>2022-07-09T11:11:33Z</time>
      </trkpt>
      <trkpt lat="42.00656" lon="1.8529094">
        <time>2022-07-09T11:11:34Z</time>
      </trkpt>
      <trkpt lat="42.006516" lon="1.8530095">
        <time>2022-07-09T11:11:35Z</time>
      </trkpt>
      <trkpt lat="42.00647" lon="1.8531095">
        <time>2022-07-09T11:11:36Z</time>
      </trkpt>
      <trkpt lat="42.006416" lon="1.8532128">
        <time>2022-07-09T11:11:37Z</time>
      </trkpt>
      <trkpt lat="42.006367" lon="1.8533098">
        <time>2022-07-09T11:11:38Z</time>
      </trkpt>
      <trkpt lat="42.006313" lon="1.8534014">
        <time>2022-07-09T11:11:39Z</time>
      </trkpt>
      <trkpt lat="42.00626" lon="1.8534888">
        <time>2022-07-09T11:11:40Z</time>
      </trkpt>
      <trkpt lat="42.006207" lon="1.8535714">
        <time>2022-07-09T11:11:41Z</time>
      </trkpt>
      <trkpt lat="42.006153" lon="1.8536505">
        <time>2022-07-09T11:11:42Z</time>
      </trkpt>
      <trkpt lat="42.0061" lon="1.8537245">
        <time>2022-07-09T11:11:43Z</time>
      </trkpt>
      <trkpt lat="42.006042" lon="1.8537928">
        <time>2022-07-09T11:11:44Z</time>
      </trkpt>
      <trkpt lat="42.00599" lon="1.8538555">
        <time>2022-07-09T11:11:45Z</time>
      </trkpt>
      <trkpt lat="42.00593" lon="1.8539141">
        <time>2022-07-09T11:11:46Z</time>
      </trkpt>
      <trkpt lat="42.005875" lon="1.8539684">
        <time>2022-07-09T11:11:47Z</time>
      </trkpt>
      <trkpt lat="42.005814" lon="1.8540194">
        <time>2022-07-09T11:11:48Z</time>
      </trkpt>
      <trkpt lat="42.005753" lon="1.8540674">
        <time>2022-07-09T11:11:49Z</time>
      </trkpt>
      <trkpt lat="42.005688" lon="1.8541135">
        <time>2022-07-09T11:11:50Z</time>
      </trkpt>
      <trkpt lat="42.005623" lon="1.8541584">
        <time>2022-07-09T11:11:51Z</time>
      </trkpt>
      <trkpt lat="42.005554" lon="1.8542024">
        <time>2022-07-09T11:11:52Z</time>
      </trkpt>
      <trkpt lat="42.00549" lon="1.8542451">
        <time>2022-07-09T11:11:53Z</time>
      </trkpt>
      <trkpt lat="42.00542" lon="1.8542874">
        <time>2022-07-09T11:11:54Z</time>
      </trkpt>
      <trkpt lat="42.005356" lon="1.8543297">
        <time>2022-07-09T11:11:55Z</time>
      </trkpt>
      <trkpt lat="42.00529" lon="1.854372">
        <time>2022-07-09T11:11:56Z</time>
      </trkpt>
      <trkpt lat="42.005226" lon="1.8544111">
        <time>2022-07-09T11:11:57Z</time>
      </trkpt>
      <trkpt lat="42.005157" lon="1.8544524">
        <time>2022-07-09T11:11:58Z</time>
      </trkpt>
      <trkpt lat="42.005093" lon="1.854493">
        <time>2022-07-09T11:11:59Z</time>
      </trkpt>
      <trkpt lat="42.005024" lon="1.8545321">
        <time>2022-07-09T11:12:00Z</time>
      </trkpt>
      <trkpt lat="42.00496" lon="1.8545707">
        <time>2022-07-09T11:12:01Z</time>
      </trkpt>
      <trkpt lat="42.004894" lon="1.8546101">
        <time>2022-07-09T11:12:02Z</time>
      </trkpt>
      <trkpt lat="42.00483" lon="1.8546497">
        <time>2022-07-09T11:12:03Z</time>
      </trkpt>
      <trkpt lat="42.004765" lon="1.8546877">
        <time>2022-07-09T11:12:04Z</time>
      </trkpt>
      <trkpt lat="42.004704" lon="1.8547227">
        <time>2022-07-09T11:12:05Z</time>
      </trkpt>
      <trkpt lat="42.004642" lon="1.8547587">
        <time>2022-07-09T11:12:06Z</time>
      </trkpt>
      <trkpt lat="42.00458" lon="1.8547953">
        <time>2022-07-09T11:12:07Z</time>
      </trkpt>
      <trkpt lat="42.00452" lon="1.8548328">
        <time>2022-07-09T11:12:08Z</time>
      </trkpt>
      <trkpt lat="42.004456" lon="1.8548714">
        <time>2022-07-09T11:12:09Z</time>
      </trkpt>
      <trkpt lat="42.00439" lon="1.8549107">
        <time>2022-07-09T11:12:10Z</time>
      </trkpt>
      <trkpt lat="42.004326" lon="1.854949">
        <time>2022-07-09T11:12:11Z</time>
      </trkpt>
      <trkpt lat="42.004265" lon="1.8549877">
        <time>2022-07-09T11:12:12Z</time>
      </trkpt>
      <trkpt lat="42.0042" lon="1.8550271">
        <time>2022-07-09T11:12:13Z</time>
      </trkpt>
      <trkpt lat="42.004135" lon="1.8550667">
        <time>2022-07-09T11:12:14Z</time>
      </trkpt>
      <trkpt lat="42.00407" lon="1.8551064">
        <time>2022-07-09T11:12:15Z</time>
      </trkpt>
      <trkpt lat="42.004005" lon="1.8551453">
        <time>2022-07-09T11:12:16Z</time>
      </trkpt>
      <trkpt lat="42.00394" lon="1.8551867">
        <time>2022-07-09T11:12:17Z</time>
      </trkpt>
      <trkpt lat="42.003876" lon="1.8552283">
        <time>2022-07-09T11:12:18Z</time>
      </trkpt>
      <trkpt lat="42.003807" lon="1.8552704">
        <time>2022-07-09T11:12:19Z</time>
      </trkpt>
      <trkpt lat="42.003742" lon="1.8553096">
        <time>2022-07-09T11:12:20Z</time>
      </trkpt>
      <trkpt lat="42.003666" lon="1.8553493">
        <time>2022-07-09T11:12:21Z</time>
      </trkpt>
      <trkpt lat="42.00359" lon="1.8553843">
        <time>2022-07-09T11:12:22Z</time>
      </trkpt>
      <trkpt lat="42.00352" lon="1.8554137">
        <time>2022-07-09T11:12:23Z</time>
      </trkpt>
      <trkpt lat="42.003445" lon="1.85544">
        <time>2022-07-09T11:12:24Z</time>
      </trkpt>
      <trkpt lat="42.00337" lon="1.8554623">
        <time>2022-07-09T11:12:25Z</time>
      </trkpt>
      <trkpt lat="42.00329" lon="1.8554777">
        <time>2022-07-09T11:12:26Z</time>
      </trkpt>
      <trkpt lat="42.00321" lon="1.8554837">
        <time>2022-07-09T11:12:27Z</time>
      </trkpt>
      <trkpt lat="42.003124" lon="1.8554816">
        <time>2022-07-09T11:12:28Z</time>
      </trkpt>
      <trkpt lat="42.003044" lon="1.8554736">
        <time>2022-07-09T11:12:29Z</time>
      </trkpt>
      <trkpt lat="42.00296" lon="1.8554606">
        <time>2022-07-09T11:12:30Z</time>
      </trkpt>
      <trkpt lat="42.002876" lon="1.855446">
        <time>2022-07-09T11:12:31Z</time>
      </trkpt>
      <trkpt lat="42.002792" lon="1.8554317">
        <time>2022-07-09T11:12:32Z</time>
      </trkpt>
      <trkpt lat="42.002705" lon="1.8554193">
        <time>2022-07-09T11:12:33Z</time>
      </trkpt>
      <trkpt lat="42.002533" lon="1.8554074">
        <time>2022-07-09T11:12:35Z</time>
      </trkpt>
      <trkpt lat="42.002438" lon="1.8554124">
        <time>2022-07-09T11:12:36Z</time>
      </trkpt>
      <trkpt lat="42.002346" lon="1.855427">
        <time>2022-07-09T11:12:37Z</time>
      </trkpt>
      <trkpt lat="42.002254" lon="1.8554513">
        <time>2022-07-09T11:12:38Z</time>
      </trkpt>
      <trkpt lat="42.002163" lon="1.855484">
        <time>2022-07-09T11:12:39Z</time>
      </trkpt>
      <trkpt lat="42.002075" lon="1.855524">
        <time>2022-07-09T11:12:40Z</time>
      </trkpt>
      <trkpt lat="42.001984" lon="1.855572">
        <time>2022-07-09T11:12:41Z</time>
      </trkpt>
      <trkpt lat="42.001892" lon="1.8556253">
        <time>2022-07-09T11:12:42Z</time>
      </trkpt>
      <trkpt lat="42.0018" lon="1.8556813">
        <time>2022-07-09T11:12:43Z</time>
      </trkpt>
      <trkpt lat="42.001705" lon="1.8557383">
        <time>2022-07-09T11:12:44Z</time>
      </trkpt>
      <trkpt lat="42.00161" lon="1.8557982">
        <time>2022-07-09T11:12:45Z</time>
      </trkpt>
      <trkpt lat="42.001514" lon="1.8558604">
        <time>2022-07-09T11:12:46Z</time>
      </trkpt>
      <trkpt lat="42.00142" lon="1.8559233">
        <time>2022-07-09T11:12:47Z</time>
      </trkpt>
      <trkpt lat="42.001324" lon="1.855987">
        <time>2022-07-09T11:12:48Z</time>
      </trkpt>
      <trkpt lat="42.001232" lon="1.8560493">
        <time>2022-07-09T11:12:49Z</time>
      </trkpt>
      <trkpt lat="42.00114" lon="1.8561116">
        <time>2022-07-09T11:12:50Z</time>
      </trkpt>
      <trkpt lat="42.00105" lon="1.856172">
        <time>2022-07-09T11:12:51Z</time>
      </trkpt>
      <trkpt lat="42.00096" lon="1.8562306">
        <time>2022-07-09T11:12:52Z</time>
      </trkpt>
      <trkpt lat="42.00087" lon="1.8562869">
        <time>2022-07-09T11:12:53Z</time>
      </trkpt>
      <trkpt lat="42.000782" lon="1.8563423">
        <time>2022-07-09T11:12:54Z</time>
      </trkpt>
      <trkpt lat="42.000698" lon="1.8563976">
        <time>2022-07-09T11:12:55Z</time>
      </trkpt>
      <trkpt lat="42.000614" lon="1.8564533">
        <time>2022-07-09T11:12:56Z</time>
      </trkpt>
      <trkpt lat="42.00053" lon="1.8565075">
        <time>2022-07-09T11:12:57Z</time>
      </trkpt>
      <trkpt lat="42.00045" lon="1.8565613">
        <time>2022-07-09T11:12:58Z</time>
      </trkpt>
      <trkpt lat="42.00037" lon="1.8566136">
        <time>2022-07-09T11:12:59Z</time>
      </trkpt>
      <trkpt lat="42.000286" lon="1.8566649">
        <time>2022-07-09T11:13:00Z</time>
      </trkpt>
      <trkpt lat="42.000206" lon="1.8567165">
        <time>2022-07-09T11:13:01Z</time>
      </trkpt>
      <trkpt lat="42.000126" lon="1.8567683">
        <time>2022-07-09T11:13:02Z</time>
      </trkpt>
      <trkpt lat="42.000046" lon="1.8568193">
        <time>2022-07-09T11:13:03Z</time>
      </trkpt>
      <trkpt lat="41.99997" lon="1.8568705">
        <time>2022-07-09T11:13:04Z</time>
      </trkpt>
      <trkpt lat="41.999893" lon="1.8569216">
        <time>2022-07-09T11:13:05Z</time>
      </trkpt>
      <trkpt lat="41.999813" lon="1.8569705">
        <time>2022-07-09T11:13:06Z</time>
      </trkpt>
      <trkpt lat="41.999737" lon="1.8570166">
        <time>2022-07-09T11:13:07Z</time>
      </trkpt>
      <trkpt lat="41.99966" lon="1.8570572">
        <time>2022-07-09T11:13:08Z</time>
      </trkpt>
      <trkpt lat="41.99958" lon="1.8570923">
        <time>2022-07-09T11:13:09Z</time>
      </trkpt>
      <trkpt lat="41.9995" lon="1.8571196">
        <time>2022-07-09T11:13:10Z</time>
      </trkpt>
      <trkpt lat="41.999416" lon="1.8571396">
        <time>2022-07-09T11:13:11Z</time>
      </trkpt>
      <trkpt lat="41.999336" lon="1.8571515">
        <time>2022-07-09T11:13:12Z</time>
      </trkpt>
      <trkpt lat="41.999252" lon="1.8571572">
        <time>2022-07-09T11:13:13Z</time>
      </trkpt>
      <trkpt lat="41.99917" lon="1.8571572">
        <time>2022-07-09T11:13:14Z</time>
      </trkpt>
      <trkpt lat="41.99908" lon="1.8571529">
        <time>2022-07-09T11:13:15Z</time>
      </trkpt>
      <trkpt lat="41.998993" lon="1.8571455">
        <time>2022-07-09T11:13:16Z</time>
      </trkpt>
      <trkpt lat="41.99891" lon="1.8571376">
        <time>2022-07-09T11:13:17Z</time>
      </trkpt>
      <trkpt lat="41.99882" lon="1.8571285">
        <time>2022-07-09T11:13:18Z</time>
      </trkpt>
      <trkpt lat="41.998734" lon="1.8571188">
        <time>2022-07-09T11:13:19Z</time>
      </trkpt>
      <trkpt lat="41.998646" lon="1.8571075">
        <time>2022-07-09T11:13:20Z</time>
      </trkpt>
      <trkpt lat="41.998558" lon="1.8570956">
        <time>2022-07-09T11:13:21Z</time>
      </trkpt>
      <trkpt lat="41.99847" lon="1.8570843">
        <time>2022-07-09T11:13:22Z</time>
      </trkpt>
      <trkpt lat="41.998383" lon="1.8570735">
        <time>2022-07-09T11:13:23Z</time>
      </trkpt>
      <trkpt lat="41.998295" lon="1.8570629">
        <time>2022-07-09T11:13:24Z</time>
      </trkpt>
      <trkpt lat="41.998207" lon="1.8570513">
        <time>2022-07-09T11:13:25Z</time>
      </trkpt>
      <trkpt lat="41.99812" lon="1.8570379">
        <time>2022-07-09T11:13:26Z</time>
      </trkpt>
      <trkpt lat="41.998035" lon="1.857021">
        <time>2022-07-09T11:13:27Z</time>
      </trkpt>
      <trkpt lat="41.997955" lon="1.8569989">
        <time>2022-07-09T11:13:28Z</time>
      </trkpt>
      <trkpt lat="41.99787" lon="1.856975">
        <time>2022-07-09T11:13:29Z</time>
      </trkpt>
      <trkpt lat="41.997795" lon="1.8569479">
        <time>2022-07-09T11:13:30Z</time>
      </trkpt>
      <trkpt lat="41.997715" lon="1.8569156">
        <time>2022-07-09T11:13:31Z</time>
      </trkpt>
      <trkpt lat="41.99764" lon="1.8568789">
        <time>2022-07-09T11:13:32Z</time>
      </trkpt>
      <trkpt lat="41.997566" lon="1.8568406">
        <time>2022-07-09T11:13:33Z</time>
      </trkpt>
      <trkpt lat="41.997498" lon="1.8568037">
        <time>2022-07-09T11:13:34Z</time>
      </trkpt>
      <trkpt lat="41.99743" lon="1.856772">
        <time>2022-07-09T11:13:35Z</time>
      </trkpt>
      <trkpt lat="41.99736" lon="1.8567499">
        <time>2022-07-09T11:13:36Z</time>
      </trkpt>
      <trkpt lat="41.99729" lon="1.8567396">
        <time>2022-07-09T11:13:37Z</time>
      </trkpt>
      <trkpt lat="41.997166" lon="1.8567516">
        <time>2022-07-09T11:13:39Z</time>
      </trkpt>
      <trkpt lat="41.997105" lon="1.8567733">
        <time>2022-07-09T11:13:40Z</time>
      </trkpt>
      <trkpt lat="41.99705" lon="1.8568046">
        <time>2022-07-09T11:13:41Z</time>
      </trkpt>
      <trkpt lat="41.996998" lon="1.8568482">
        <time>2022-07-09T11:13:42Z</time>
      </trkpt>
      <trkpt lat="41.99695" lon="1.8569016">
        <time>2022-07-09T11:13:43Z</time>
      </trkpt>
      <trkpt lat="41.9969" lon="1.8569629">
        <time>2022-07-09T11:13:44Z</time>
      </trkpt>
      <trkpt lat="41.996853" lon="1.8570316">
        <time>2022-07-09T11:13:45Z</time>
      </trkpt>
      <trkpt lat="41.996807" lon="1.8571062">
        <time>2022-07-09T11:13:46Z</time>
      </trkpt>
      <trkpt lat="41.99676" lon="1.8571858">
        <time>2022-07-09T11:13:47Z</time>
      </trkpt>
      <trkpt lat="41.996716" lon="1.8572689">
        <time>2022-07-09T11:13:48Z</time>
      </trkpt>
      <trkpt lat="41.99667" lon="1.8573543">
        <time>2022-07-09T11:13:49Z</time>
      </trkpt>
      <trkpt lat="41.996624" lon="1.857441">
        <time>2022-07-09T11:13:50Z</time>
      </trkpt>
      <trkpt lat="41.996574" lon="1.8575289">
        <time>2022-07-09T11:13:51Z</time>
      </trkpt>
      <trkpt lat="41.99652" lon="1.8576152">
        <time>2022-07-09T11:13:52Z</time>
      </trkpt>
      <trkpt lat="41.996464" lon="1.8576993">
        <time>2022-07-09T11:13:53Z</time>
      </trkpt>
      <trkpt lat="41.996403" lon="1.8577782">
        <time>2022-07-09T11:13:54Z</time>
      </trkpt>
      <trkpt lat="41.996334" lon="1.8578519">
        <time>2022-07-09T11:13:55Z</time>
      </trkpt>
      <trkpt lat="41.99626" lon="1.8579183">
        <time>2022-07-09T11:13:56Z</time>
      </trkpt>
      <trkpt lat="41.996185" lon="1.8579786">
        <time>2022-07-09T11:13:57Z</time>
      </trkpt>
      <trkpt lat="41.99611" lon="1.8580322">
        <time>2022-07-09T11:13:58Z</time>
      </trkpt>
      <trkpt lat="41.99603" lon="1.8580809">
        <time>2022-07-09T11:13:59Z</time>
      </trkpt>
      <trkpt lat="41.995945" lon="1.8581272">
        <time>2022-07-09T11:14:00Z</time>
      </trkpt>
      <trkpt lat="41.995865" lon="1.8581725">
        <time>2022-07-09T11:14:01Z</time>
      </trkpt>
      <trkpt lat="41.99578" lon="1.8582175">
        <time>2022-07-09T11:14:02Z</time>
      </trkpt>
      <trkpt lat="41.9957" lon="1.8582615">
        <time>2022-07-09T11:14:03Z</time>
      </trkpt>
      <trkpt lat="41.995617" lon="1.8583062">
        <time>2022-07-09T11:14:04Z</time>
      </trkpt>
      <trkpt lat="41.995533" lon="1.8583509">
        <time>2022-07-09T11:14:05Z</time>
      </trkpt>
      <trkpt lat="41.99545" lon="1.8583952">
        <time>2022-07-09T11:14:06Z</time>
      </trkpt>
      <trkpt lat="41.99536" lon="1.8584394">
        <time>2022-07-09T11:14:07Z</time>
      </trkpt>
      <trkpt lat="41.995277" lon="1.8584836">
        <time>2022-07-09T11:14:08Z</time>
      </trkpt>
      <trkpt lat="41.99519" lon="1.8585265">
        <time>2022-07-09T11:14:09Z</time>
      </trkpt>
      <trkpt lat="41.995106" lon="1.8585665">
        <time>2022-07-09T11:14:10Z</time>
      </trkpt>
      <trkpt lat="41.995018" lon="1.8586025">
        <time>2022-07-09T11:14:11Z</time>
      </trkpt>
      <trkpt lat="41.994926" lon="1.8586345">
        <time>2022-07-09T11:14:12Z</time>
      </trkpt>
      <trkpt lat="41.99484" lon="1.8586628">
        <time>2022-07-09T11:14:13Z</time>
      </trkpt>
      <trkpt lat="41.99474" lon="1.8586898">
        <time>2022-07-09T11:14:14Z</time>
      </trkpt>
      <trkpt lat="41.994648" lon="1.8587165">
        <time>2022-07-09T11:14:15Z</time>
      </trkpt>
      <trkpt lat="41.99456" lon="1.8587425">
        <time>2022-07-09T11:14:16Z</time>
      </trkpt>
      <trkpt lat="41.994473" lon="1.8587751">
        <time>2022-07-09T11:14:17Z</time>
      </trkpt>
      <trkpt lat="41.99439" lon="1.8588212">
        <time>2022-07-09T11:14:18Z</time>
      </trkpt>
      <trkpt lat="41.9943" lon="1.8588811">
        <time>2022-07-09T11:14:19Z</time>
      </trkpt>
      <trkpt lat="41.994225" lon="1.8589405">
        <time>2022-07-09T11:14:20Z</time>
      </trkpt>
      <trkpt lat="41.994156" lon="1.8590062">
        <time>2022-07-09T11:14:21Z</time>
      </trkpt>
      <trkpt lat="41.99409" lon="1.8590804">
        <time>2022-07-09T11:14:22Z</time>
      </trkpt>
      <trkpt lat="41.99403" lon="1.8591619">
        <time>2022-07-09T11:14:23Z</time>
      </trkpt>
      <trkpt lat="41.993973" lon="1.8592515">
        <time>2022-07-09T11:14:24Z</time>
      </trkpt>
      <trkpt lat="41.993923" lon="1.8593484">
        <time>2022-07-09T11:14:25Z</time>
      </trkpt>
      <trkpt lat="41.993877" lon="1.8594508">
        <time>2022-07-09T11:14:26Z</time>
      </trkpt>
      <trkpt lat="41.99383" lon="1.8595548">
        <time>2022-07-09T11:14:27Z</time>
      </trkpt>
      <trkpt lat="41.993786" lon="1.8596572">
        <time>2022-07-09T11:14:28Z</time>
      </trkpt>
      <trkpt lat="41.993732" lon="1.8597561">
        <time>2022-07-09T11:14:29Z</time>
      </trkpt>
      <trkpt lat="41.99367" lon="1.8598478">
        <time>2022-07-09T11:14:30Z</time>
      </trkpt>
      <trkpt lat="41.993607" lon="1.8599274">
        <time>2022-07-09T11:14:31Z</time>
      </trkpt>
      <trkpt lat="41.993538" lon="1.8599944">
        <time>2022-07-09T11:14:32Z</time>
      </trkpt>
      <trkpt lat="41.993465" lon="1.8600495">
        <time>2022-07-09T11:14:33Z</time>
      </trkpt>
      <trkpt lat="41.993385" lon="1.8600968">
        <time>2022-07-09T11:14:34Z</time>
      </trkpt>
      <trkpt lat="41.99331" lon="1.860138">
        <time>2022-07-09T11:14:35Z</time>
      </trkpt>
      <trkpt lat="41.99323" lon="1.8601778">
        <time>2022-07-09T11:14:36Z</time>
      </trkpt>
      <trkpt lat="41.99315" lon="1.8602201">
        <time>2022-07-09T11:14:37Z</time>
      </trkpt>
      <trkpt lat="41.993073" lon="1.8602668">
        <time>2022-07-09T11:14:38Z</time>
      </trkpt>
      <trkpt lat="41.992996" lon="1.860316">
        <time>2022-07-09T11:14:39Z</time>
      </trkpt>
      <trkpt lat="41.99292" lon="1.8603644">
        <time>2022-07-09T11:14:40Z</time>
      </trkpt>
      <trkpt lat="41.99284" lon="1.8604054">
        <time>2022-07-09T11:14:41Z</time>
      </trkpt>
      <trkpt lat="41.99276" lon="1.8604318">
        <time>2022-07-09T11:14:42Z</time>
      </trkpt>
      <trkpt lat="41.99259" lon="1.86045">
        <time>2022-07-09T11:14:44Z</time>
      </trkpt>
      <trkpt lat="41.99251" lon="1.8604558">
        <time>2022-07-09T11:14:45Z</time>
      </trkpt>
      <trkpt lat="41.992428" lon="1.860466">
        <time>2022-07-09T11:14:46Z</time>
      </trkpt>
      <trkpt lat="41.99235" lon="1.860486">
        <time>2022-07-09T11:14:47Z</time>
      </trkpt>
      <trkpt lat="41.992275" lon="1.8605161">
        <time>2022-07-09T11:14:48Z</time>
      </trkpt>
      <trkpt lat="41.992207" lon="1.8605558">
        <time>2022-07-09T11:14:49Z</time>
      </trkpt>
      <trkpt lat="41.992138" lon="1.8606033">
        <time>2022-07-09T11:14:50Z</time>
      </trkpt>
      <trkpt lat="41.992073" lon="1.8606564">
        <time>2022-07-09T11:14:51Z</time>
      </trkpt>
      <trkpt lat="41.992004" lon="1.8607197">
        <time>2022-07-09T11:14:52Z</time>
      </trkpt>
      <trkpt lat="41.991943" lon="1.8607811">
        <time>2022-07-09T11:14:53Z</time>
      </trkpt>
      <trkpt lat="41.991882" lon="1.860847">
        <time>2022-07-09T11:14:54Z</time>
      </trkpt>
      <trkpt lat="41.991825" lon="1.860918">
        <time>2022-07-09T11:14:55Z</time>
      </trkpt>
      <trkpt lat="41.991768" lon="1.8609921">
        <time>2022-07-09T11:14:56Z</time>
      </trkpt>
      <trkpt lat="41.99172" lon="1.861071">
        <time>2022-07-09T11:14:57Z</time>
      </trkpt>
      <trkpt lat="41.991673" lon="1.8611554">
        <time>2022-07-09T11:14:58Z</time>
      </trkpt>
      <trkpt lat="41.991627" lon="1.8612447">
        <time>2022-07-09T11:14:59Z</time>
      </trkpt>
      <trkpt lat="41.991577" lon="1.8613367">
        <time>2022-07-09T11:15:00Z</time>
      </trkpt>
      <trkpt lat="41.991528" lon="1.8614271">
        <time>2022-07-09T11:15:01Z</time>
      </trkpt>
      <trkpt lat="41.991478" lon="1.861515">
        <time>2022-07-09T11:15:02Z</time>
      </trkpt>
      <trkpt lat="41.991425" lon="1.8616027">
        <time>2022-07-09T11:15:03Z</time>
      </trkpt>
      <trkpt lat="41.991375" lon="1.8616937">
        <time>2022-07-09T11:15:04Z</time>
      </trkpt>
      <trkpt lat="41.991333" lon="1.861789">
        <time>2022-07-09T11:15:05Z</time>
      </trkpt>
      <trkpt lat="41.991295" lon="1.861889">
        <time>2022-07-09T11:15:06Z</time>
      </trkpt>
      <trkpt lat="41.99127" lon="1.8619937">
        <time>2022-07-09T11:15:07Z</time>
      </trkpt>
      <trkpt lat="41.99124" lon="1.8621097">
        <time>2022-07-09T11:15:08Z</time>
      </trkpt>
      <trkpt lat="41.99122" lon="1.862218">
        <time>2022-07-09T11:15:09Z</time>
      </trkpt>
      <trkpt lat="41.991196" lon="1.8623283">
        <time>2022-07-09T11:15:10Z</time>
      </trkpt>
      <trkpt lat="41.99117" lon="1.86244">
        <time>2022-07-09T11:15:11Z</time>
      </trkpt>
      <trkpt lat="41.99114" lon="1.8625506">
        <time>2022-07-09T11:15:12Z</time>
      </trkpt>
      <trkpt lat="41.991108" lon="1.8626534">
        <time>2022-07-09T11:15:13Z</time>
      </trkpt>
      <trkpt lat="41.991066" lon="1.862765">
        <time>2022-07-09T11:15:14Z</time>
      </trkpt>
      <trkpt lat="41.991024" lon="1.8628759">
        <time>2022-07-09T11:15:15Z</time>
      </trkpt>
      <trkpt lat="41.990982" lon="1.8629797">
        <time>2022-07-09T11:15:16Z</time>
      </trkpt>
      <trkpt lat="41.990936" lon="1.8630836">
        <time>2022-07-09T11:15:17Z</time>
      </trkpt>
      <trkpt lat="41.990883" lon="1.8631853">
        <time>2022-07-09T11:15:18Z</time>
      </trkpt>
      <trkpt lat="41.99082" lon="1.8632807">
        <time>2022-07-09T11:15:19Z</time>
      </trkpt>
      <trkpt lat="41.99075" lon="1.8633629">
        <time>2022-07-09T11:15:20Z</time>
      </trkpt>
      <trkpt lat="41.99067" lon="1.863425">
        <time>2022-07-09T11:15:21Z</time>
      </trkpt>
      <trkpt lat="41.990578" lon="1.8634562">
        <time>2022-07-09T11:15:22Z</time>
      </trkpt>
      <trkpt lat="41.990486" lon="1.8634566">
        <time>2022-07-09T11:15:23Z</time>
      </trkpt>
      <trkpt lat="41.990395" lon="1.8634316">
        <time>2022-07-09T11:15:24Z</time>
      </trkpt>
      <trkpt lat="41.990307" lon="1.8633893">
        <time>2022-07-09T11:15:25Z</time>
      </trkpt>
      <trkpt lat="41.99022" lon="1.863335">
        <time>2022-07-09T11:15:26Z</time>
      </trkpt>
      <trkpt lat="41.990128" lon="1.8632733">
        <time>2022-07-09T11:15:27Z</time>
      </trkpt>
      <trkpt lat="41.990036" lon="1.8632176">
        <time>2022-07-09T11:15:28Z</time>
      </trkpt>
      <trkpt lat="41.989937" lon="1.863177">
        <time>2022-07-09T11:15:29Z</time>
      </trkpt>
      <trkpt lat="41.989838" lon="1.8631526">
        <time>2022-07-09T11:15:30Z</time>
      </trkpt>
      <trkpt lat="41.98974" lon="1.8631476">
        <time>2022-07-09T11:15:31Z</time>
      </trkpt>
      <trkpt lat="41.98963" lon="1.8631626">
        <time>2022-07-09T11:15:32Z</time>
      </trkpt>
      <trkpt lat="41.98953" lon="1.863187">
        <time>2022-07-09T11:15:33Z</time>
      </trkpt>
      <trkpt lat="41.989426" lon="1.863219">
        <time>2022-07-09T11:15:34Z</time>
      </trkpt>
      <trkpt lat="41.989323" lon="1.863256">
        <time>2022-07-09T11:15:35Z</time>
      </trkpt>
      <trkpt lat="41.989216" lon="1.8632973">
        <time>2022-07-09T11:15:36Z</time>
      </trkpt>
      <trkpt lat="41.98911" lon="1.863339">
        <time>2022-07-09T11:15:37Z</time>
      </trkpt>
      <trkpt lat="41.989006" lon="1.8633842">
        <time>2022-07-09T11:15:38Z</time>
      </trkpt>
      <trkpt lat="41.98891" lon="1.8634377">
        <time>2022-07-09T11:15:39Z</time>
      </trkpt>
      <trkpt lat="41.988815" lon="1.8635063">
        <time>2022-07-09T11:15:40Z</time>
      </trkpt>
      <trkpt lat="41.98873" lon="1.8635896">
        <time>2022-07-09T11:15:41Z</time>
      </trkpt>
      <trkpt lat="41.988655" lon="1.8636773">
        <time>2022-07-09T11:15:42Z</time>
      </trkpt>
      <trkpt lat="41.98857" lon="1.8637823">
        <time>2022-07-09T11:15:43Z</time>
      </trkpt>
      <trkpt lat="41.988487" lon="1.8638866">
        <time>2022-07-09T11:15:44Z</time>
      </trkpt>
      <trkpt lat="41.988403" lon="1.8639857">
        <time>2022-07-09T11:15:45Z</time>
      </trkpt>
      <trkpt lat="41.98831" lon="1.8640813">
        <time>2022-07-09T11:15:46Z</time>
      </trkpt>
      <trkpt lat="41.988125" lon="1.8642629">
        <time>2022-07-09T11:15:48Z</time>
      </trkpt>
      <trkpt lat="41.98803" lon="1.8643506">
        <time>2022-07-09T11:15:49Z</time>
      </trkpt>
      <trkpt lat="41.987938" lon="1.8644359">
        <time>2022-07-09T11:15:50Z</time>
      </trkpt>
      <trkpt lat="41.987843" lon="1.8645189">
        <time>2022-07-09T11:15:51Z</time>
      </trkpt>
      <trkpt lat="41.98775" lon="1.8645992">
        <time>2022-07-09T11:15:52Z</time>
      </trkpt>
      <trkpt lat="41.987656" lon="1.8646775">
        <time>2022-07-09T11:15:53Z</time>
      </trkpt>
      <trkpt lat="41.987556" lon="1.8647606">
        <time>2022-07-09T11:15:54Z</time>
      </trkpt>
      <trkpt lat="41.987457" lon="1.8648399">
        <time>2022-07-09T11:15:55Z</time>
      </trkpt>
      <trkpt lat="41.987354" lon="1.8649143">
        <time>2022-07-09T11:15:56Z</time>
      </trkpt>
      <trkpt lat="41.987263" lon="1.8649786">
        <time>2022-07-09T11:15:57Z</time>
      </trkpt>
      <trkpt lat="41.98716" lon="1.8650342">
        <time>2022-07-09T11:15:58Z</time>
      </trkpt>
      <trkpt lat="41.98706" lon="1.8650812">
        <time>2022-07-09T11:15:59Z</time>
      </trkpt>
      <trkpt lat="41.986958" lon="1.8651252">
        <time>2022-07-09T11:16:00Z</time>
      </trkpt>
      <trkpt lat="41.98686" lon="1.8651723">
        <time>2022-07-09T11:16:01Z</time>
      </trkpt>
      <trkpt lat="41.986763" lon="1.8652263">
        <time>2022-07-09T11:16:02Z</time>
      </trkpt>
      <trkpt lat="41.98667" lon="1.8652955">
        <time>2022-07-09T11:16:03Z</time>
      </trkpt>
      <trkpt lat="41.986595" lon="1.8653759">
        <time>2022-07-09T11:16:04Z</time>
      </trkpt>
      <trkpt lat="41.986538" lon="1.8654603">
        <time>2022-07-09T11:16:05Z</time>
      </trkpt>
      <trkpt lat="41.986504" lon="1.8655559">
        <time>2022-07-09T11:16:06Z</time>
      </trkpt>
      <trkpt lat="41.986485" lon="1.8656602">
        <time>2022-07-09T11:16:07Z</time>
      </trkpt>
      <trkpt lat="41.986485" lon="1.8657702">
        <time>2022-07-09T11:16:08Z</time>
      </trkpt>
      <trkpt lat="41.986492" lon="1.8658845">
        <time>2022-07-09T11:16:09Z</time>
      </trkpt>
      <trkpt lat="41.986504" lon="1.8660022">
        <time>2022-07-09T11:16:10Z</time>
      </trkpt>
      <trkpt lat="41.986515" lon="1.8661236">
        <time>2022-07-09T11:16:11Z</time>
      </trkpt>
      <trkpt lat="41.986515" lon="1.8662455">
        <time>2022-07-09T11:16:12Z</time>
      </trkpt>
      <trkpt lat="41.9865" lon="1.8663609">
        <time>2022-07-09T11:16:13Z</time>
      </trkpt>
      <trkpt lat="41.986465" lon="1.8664595">
        <time>2022-07-09T11:16:14Z</time>
      </trkpt>
      <trkpt lat="41.986412" lon="1.8665315">
        <time>2022-07-09T11:16:15Z</time>
      </trkpt>
      <trkpt lat="41.98635" lon="1.8665688">
        <time>2022-07-09T11:16:16Z</time>
      </trkpt>
      <trkpt lat="41.98628" lon="1.8665775">
        <time>2022-07-09T11:16:17Z</time>
      </trkpt>
      <trkpt lat="41.986202" lon="1.8665665">
        <time>2022-07-09T11:16:18Z</time>
      </trkpt>
      <trkpt lat="41.986122" lon="1.8665419">
        <time>2022-07-09T11:16:19Z</time>
      </trkpt>
      <trkpt lat="41.98604" lon="1.8665092">
        <time>2022-07-09T11:16:20Z</time>
      </trkpt>
      <trkpt lat="41.985954" lon="1.8664742">
        <time>2022-07-09T11:16:21Z</time>
      </trkpt>
      <trkpt lat="41.985867" lon="1.8664429">
        <time>2022-07-09T11:16:22Z</time>
      </trkpt>
      <trkpt lat="41.98578" lon="1.8664212">
        <time>2022-07-09T11:16:23Z</time>
      </trkpt>
      <trkpt lat="41.985695" lon="1.8664166">
        <time>2022-07-09T11:16:24Z</time>
      </trkpt>
      <trkpt lat="41.985603" lon="1.8664266">
        <time>2022-07-09T11:16:25Z</time>
      </trkpt>
      <trkpt lat="41.985516" lon="1.8664509">
        <time>2022-07-09T11:16:26Z</time>
      </trkpt>
      <trkpt lat="41.985435" lon="1.8664812">
        <time>2022-07-09T11:16:27Z</time>
      </trkpt>
      <trkpt lat="41.985344" lon="1.8665226">
        <time>2022-07-09T11:16:28Z</time>
      </trkpt>
      <trkpt lat="41.985256" lon="1.8665671">
        <time>2022-07-09T11:16:29Z</time>
      </trkpt>
      <trkpt lat="41.985172" lon="1.8666162">
        <time>2022-07-09T11:16:30Z</time>
      </trkpt>
      <trkpt lat="41.98509" lon="1.8666701">
        <time>2022-07-09T11:16:31Z</time>
      </trkpt>
      <trkpt lat="41.985004" lon="1.8667308">
        <time>2022-07-09T11:16:32Z</time>
      </trkpt>
      <trkpt lat="41.98493" lon="1.8667985">
        <time>2022-07-09T11:16:33Z</time>
      </trkpt>
      <trkpt lat="41.984856" lon="1.8668728">
        <time>2022-07-09T11:16:34Z</time>
      </trkpt>
      <trkpt lat="41.98479" lon="1.8669535">
        <time>2022-07-09T11:16:35Z</time>
      </trkpt>
      <trkpt lat="41.984726" lon="1.8670381">
        <time>2022-07-09T11:16:36Z</time>
      </trkpt>
      <trkpt lat="41.984665" lon="1.8671259">
        <time>2022-07-09T11:16:37Z</time>
      </trkpt>
      <trkpt lat="41.984608" lon="1.8672148">
        <time>2022-07-09T11:16:38Z</time>
      </trkpt>
      <trkpt lat="41.98455" lon="1.8673042">
        <time>2022-07-09T11:16:39Z</time>
      </trkpt>
      <trkpt lat="41.984497" lon="1.8673924">
        <time>2022-07-09T11:16:40Z</time>
      </trkpt>
      <trkpt lat="41.984447" lon="1.8674791">
        <time>2022-07-09T11:16:41Z</time>
      </trkpt>
      <trkpt lat="41.984394" lon="1.8675641">
        <time>2022-07-09T11:16:42Z</time>
      </trkpt>
      <trkpt lat="41.98435" lon="1.8676494">
        <time>2022-07-09T11:16:43Z</time>
      </trkpt>
      <trkpt lat="41.984303" lon="1.8677344">
        <time>2022-07-09T11:16:44Z</time>
      </trkpt>
      <trkpt lat="41.984264" lon="1.8678211">
        <time>2022-07-09T11:16:45Z</time>
      </trkpt>
      <trkpt lat="41.98423" lon="1.8679094">
        <time>2022-07-09T11:16:46Z</time>
      </trkpt>
      <trkpt lat="41.984207" lon="1.8680065">
        <time>2022-07-09T11:16:47Z</time>
      </trkpt>
      <trkpt lat="41.98419" lon="1.8681028">
        <time>2022-07-09T11:16:48Z</time>
      </trkpt>
      <trkpt lat="41.984188" lon="1.8681991">
        <time>2022-07-09T11:16:49Z</time>
      </trkpt>
      <trkpt lat="41.984188" lon="1.8682965">
        <time>2022-07-09T11:16:50Z</time>
      </trkpt>
      <trkpt lat="41.984188" lon="1.8684831">
        <time>2022-07-09T11:16:52Z</time>
      </trkpt>
      <trkpt lat="41.984177" lon="1.8685831">
        <time>2022-07-09T11:16:53Z</time>
      </trkpt>
      <trkpt lat="41.984154" lon="1.8686697">
        <time>2022-07-09T11:16:54Z</time>
      </trkpt>
      <trkpt lat="41.98412" lon="1.8687447">
        <time>2022-07-09T11:16:55Z</time>
      </trkpt>
      <trkpt lat="41.98407" lon="1.8688024">
        <time>2022-07-09T11:16:56Z</time>
      </trkpt>
      <trkpt lat="41.984013" lon="1.8688381">
        <time>2022-07-09T11:16:57Z</time>
      </trkpt>
      <trkpt lat="41.98395" lon="1.8688524">
        <time>2022-07-09T11:16:58Z</time>
      </trkpt>
      <trkpt lat="41.983887" lon="1.868849">
        <time>2022-07-09T11:16:59Z</time>
      </trkpt>
      <trkpt lat="41.983818" lon="1.8688331">
        <time>2022-07-09T11:17:00Z</time>
      </trkpt>
      <trkpt lat="41.98375" lon="1.8688074">
        <time>2022-07-09T11:17:01Z</time>
      </trkpt>
      <trkpt lat="41.98368" lon="1.8687744">
        <time>2022-07-09T11:17:02Z</time>
      </trkpt>
      <trkpt lat="41.98361" lon="1.8687378">
        <time>2022-07-09T11:17:03Z</time>
      </trkpt>
      <trkpt lat="41.98354" lon="1.8687001">
        <time>2022-07-09T11:17:04Z</time>
      </trkpt>
      <trkpt lat="41.983467" lon="1.8686664">
        <time>2022-07-09T11:17:05Z</time>
      </trkpt>
      <trkpt lat="41.98339" lon="1.8686415">
        <time>2022-07-09T11:17:06Z</time>
      </trkpt>
      <trkpt lat="41.983315" lon="1.8686302">
        <time>2022-07-09T11:17:07Z</time>
      </trkpt>
      <trkpt lat="41.983242" lon="1.8686352">
        <time>2022-07-09T11:17:08Z</time>
      </trkpt>
      <trkpt lat="41.983166" lon="1.8686554">
        <time>2022-07-09T11:17:09Z</time>
      </trkpt>
      <trkpt lat="41.983093" lon="1.8686888">
        <time>2022-07-09T11:17:10Z</time>
      </trkpt>
      <trkpt lat="41.983025" lon="1.8687341">
        <time>2022-07-09T11:17:11Z</time>
      </trkpt>
      <trkpt lat="41.982956" lon="1.8687891">
        <time>2022-07-09T11:17:12Z</time>
      </trkpt>
      <trkpt lat="41.982895" lon="1.8688542">
        <time>2022-07-09T11:17:13Z</time>
      </trkpt>
      <trkpt lat="41.98284" lon="1.8689291">
        <time>2022-07-09T11:17:14Z</time>
      </trkpt>
      <trkpt lat="41.98279" lon="1.8690144">
        <time>2022-07-09T11:17:15Z</time>
      </trkpt>
      <trkpt lat="41.98275" lon="1.8691055">
        <time>2022-07-09T11:17:16Z</time>
      </trkpt>
      <trkpt lat="41.982708" lon="1.8692005">
        <time>2022-07-09T11:17:17Z</time>
      </trkpt>
      <trkpt lat="41.982666" lon="1.8692981">
        <time>2022-07-09T11:17:18Z</time>
      </trkpt>
      <trkpt lat="41.982624" lon="1.8693944">
        <time>2022-07-09T11:17:19Z</time>
      </trkpt>
      <trkpt lat="41.982574" lon="1.8694804">
        <time>2022-07-09T11:17:20Z</time>
      </trkpt>
      <trkpt lat="41.982513" lon="1.8695514">
        <time>2022-07-09T11:17:21Z</time>
      </trkpt>
      <trkpt lat="41.982445" lon="1.8696021">
        <time>2022-07-09T11:17:22Z</time>
      </trkpt>
      <trkpt lat="41.982372" lon="1.8696338">
        <time>2022-07-09T11:17:23Z</time>
      </trkpt>
      <trkpt lat="41.982296" lon="1.8696561">
        <time>2022-07-09T11:17:24Z</time>
      </trkpt>
      <trkpt lat="41.982216" lon="1.8696787">
        <time>2022-07-09T11:17:25Z</time>
      </trkpt>
      <trkpt lat="41.982136" lon="1.8697088">
        <time>2022-07-09T11:17:26Z</time>
      </trkpt>
      <trkpt lat="41.98206" lon="1.8697534">
        <time>2022-07-09T11:17:27Z</time>
      </trkpt>
      <trkpt lat="41.981987" lon="1.869814">
        <time>2022-07-09T11:17:28Z</time>
      </trkpt>
      <trkpt lat="41.981922" lon="1.8698877">
        <time>2022-07-09T11:17:29Z</time>
      </trkpt>
      <trkpt lat="41.98186" lon="1.8699694">
        <time>2022-07-09T11:17:30Z</time>
      </trkpt>
      <trkpt lat="41.9818" lon="1.8700567">
        <time>2022-07-09T11:17:31Z</time>
      </trkpt>
      <trkpt lat="41.981743" lon="1.8701484">
        <time>2022-07-09T11:17:32Z</time>
      </trkpt>
      <trkpt lat="41.981686" lon="1.8702403">
        <time>2022-07-09T11:17:33Z</time>
      </trkpt>
      <trkpt lat="41.98163" lon="1.870332">
        <time>2022-07-09T11:17:34Z</time>
      </trkpt>
      <trkpt lat="41.98157" lon="1.8704244">
        <time>2022-07-09T11:17:35Z</time>
      </trkpt>
      <trkpt lat="41.981514" lon="1.870517">
        <time>2022-07-09T11:17:36Z</time>
      </trkpt>
      <trkpt lat="41.981453" lon="1.870607">
        <time>2022-07-09T11:17:37Z</time>
      </trkpt>
      <trkpt lat="41.981388" lon="1.8706924">
        <time>2022-07-09T11:17:38Z</time>
      </trkpt>
      <trkpt lat="41.981316" lon="1.8707677">
        <time>2022-07-09T11:17:39Z</time>
      </trkpt>
      <trkpt lat="41.981243" lon="1.8708317">
        <time>2022-07-09T11:17:40Z</time>
      </trkpt>
      <trkpt lat="41.981167" lon="1.8708876">
        <time>2022-07-09T11:17:41Z</time>
      </trkpt>
      <trkpt lat="41.98109" lon="1.8709366">
        <time>2022-07-09T11:17:42Z</time>
      </trkpt>
      <trkpt lat="41.981007" lon="1.8709837">
        <time>2022-07-09T11:17:43Z</time>
      </trkpt>
      <trkpt lat="41.98093" lon="1.8710223">
        <time>2022-07-09T11:17:44Z</time>
      </trkpt>
      <trkpt lat="41.980854" lon="1.8710583">
        <time>2022-07-09T11:17:45Z</time>
      </trkpt>
      <trkpt lat="41.980774" lon="1.871097">
        <time>2022-07-09T11:17:46Z</time>
      </trkpt>
      <trkpt lat="41.980698" lon="1.871132">
        <time>2022-07-09T11:17:47Z</time>
      </trkpt>
      <trkpt lat="41.980618" lon="1.8711706">
        <time>2022-07-09T11:17:48Z</time>
      </trkpt>
      <trkpt lat="41.980537" lon="1.871212">
        <time>2022-07-09T11:17:49Z</time>
      </trkpt>
      <trkpt lat="41.98047" lon="1.8712503">
        <time>2022-07-09T11:17:50Z</time>
      </trkpt>
      <trkpt lat="41.9804" lon="1.871293">
        <time>2022-07-09T11:17:51Z</time>
      </trkpt>
      <trkpt lat="41.980328" lon="1.8713443">
        <time>2022-07-09T11:17:52Z</time>
      </trkpt>
      <trkpt lat="41.980263" lon="1.8713983">
        <time>2022-07-09T11:17:53Z</time>
      </trkpt>
      <trkpt lat="41.980194" lon="1.8714536">
        <time>2022-07-09T11:17:54Z</time>
      </trkpt>
      <trkpt lat="41.980076" lon="1.8715609">
        <time>2022-07-09T11:17:56Z</time>
      </trkpt>
      <trkpt lat="41.980015" lon="1.871617">
        <time>2022-07-09T11:17:57Z</time>
      </trkpt>
      <trkpt lat="41.979958" lon="1.8716736">
        <time>2022-07-09T11:17:58Z</time>
      </trkpt>
      <trkpt lat="41.979897" lon="1.8717309">
        <time>2022-07-09T11:17:59Z</time>
      </trkpt>
      <trkpt lat="41.97984" lon="1.8717877">
        <time>2022-07-09T11:18:00Z</time>
      </trkpt>
      <trkpt lat="41.979782" lon="1.871843">
        <time>2022-07-09T11:18:01Z</time>
      </trkpt>
      <trkpt lat="41.979725" lon="1.8718972">
        <time>2022-07-09T11:18:02Z</time>
      </trkpt>
      <trkpt lat="41.979668" lon="1.8719486">
        <time>2022-07-09T11:18:03Z</time>
      </trkpt>
      <trkpt lat="41.97961" lon="1.871995">
        <time>2022-07-09T11:18:04Z</time>
      </trkpt>
      <trkpt lat="41.97955" lon="1.8720353">
        <time>2022-07-09T11:18:05Z</time>
      </trkpt>
      <trkpt lat="41.979492" lon="1.8720692">
        <time>2022-07-09T11:18:06Z</time>
      </trkpt>
      <trkpt lat="41.97943" lon="1.8720973">
        <time>2022-07-09T11:18:07Z</time>
      </trkpt>
      <trkpt lat="41.979374" lon="1.8721206">
        <time>2022-07-09T11:18:08Z</time>
      </trkpt>
      <trkpt lat="41.979317" lon="1.872139">
        <time>2022-07-09T11:18:09Z</time>
      </trkpt>
      <trkpt lat="41.97926" lon="1.872152">
        <time>2022-07-09T11:18:10Z</time>
      </trkpt>
      <trkpt lat="41.979202" lon="1.8721603">
        <time>2022-07-09T11:18:11Z</time>
      </trkpt>
      <trkpt lat="41.97915" lon="1.8721663">
        <time>2022-07-09T11:18:12Z</time>
      </trkpt>
      <trkpt lat="41.97909" lon="1.8721722">
        <time>2022-07-09T11:18:13Z</time>
      </trkpt>
      <trkpt lat="41.97904" lon="1.8721815">
        <time>2022-07-09T11:18:14Z</time>
      </trkpt>
      <trkpt lat="41.978985" lon="1.8721952">
        <time>2022-07-09T11:18:15Z</time>
      </trkpt>
      <trkpt lat="41.978935" lon="1.8722149">
        <time>2022-07-09T11:18:16Z</time>
      </trkpt>
      <trkpt lat="41.978886" lon="1.8722396">
        <time>2022-07-09T11:18:17Z</time>
      </trkpt>
      <trkpt lat="41.97884" lon="1.8722686">
        <time>2022-07-09T11:18:18Z</time>
      </trkpt>
      <trkpt lat="41.978794" lon="1.8723019">
        <time>2022-07-09T11:18:19Z</time>
      </trkpt>
      <trkpt lat="41.978706" lon="1.8723736">
        <time>2022-07-09T11:18:21Z</time>
      </trkpt>
      <trkpt lat="41.978664" lon="1.8724099">
        <time>2022-07-09T11:18:22Z</time>
      </trkpt>
      <trkpt lat="41.978584" lon="1.8724866">
        <time>2022-07-09T11:18:24Z</time>
      </trkpt>
      <trkpt lat="41.978504" lon="1.8725603">
        <time>2022-07-09T11:18:26Z</time>
      </trkpt>
      <trkpt lat="41.978428" lon="1.8726355">
        <time>2022-07-09T11:18:28Z</time>
      </trkpt>
      <trkpt lat="41.978394" lon="1.8726796">
        <time>2022-07-09T11:18:29Z</time>
      </trkpt>
      <trkpt lat="41.97834" lon="1.8727852">
        <time>2022-07-09T11:18:31Z</time>
      </trkpt>
      <trkpt lat="41.978317" lon="1.8729062">
        <time>2022-07-09T11:18:33Z</time>
      </trkpt>
      <trkpt lat="41.978302" lon="1.8730305">
        <time>2022-07-09T11:18:35Z</time>
      </trkpt>
      <trkpt lat="41.978294" lon="1.8731579">
        <time>2022-07-09T11:18:37Z</time>
      </trkpt>
      <trkpt lat="41.978287" lon="1.8732245">
        <time>2022-07-09T11:18:38Z</time>
      </trkpt>
      <trkpt lat="41.978256" lon="1.8733531">
        <time>2022-07-09T11:18:40Z</time>
      </trkpt>
      <trkpt lat="41.97823" lon="1.8734149">
        <time>2022-07-09T11:18:41Z</time>
      </trkpt>
      <trkpt lat="41.978188" lon="1.8734695">
        <time>2022-07-09T11:18:42Z</time>
      </trkpt>
      <trkpt lat="41.978134" lon="1.8735118">
        <time>2022-07-09T11:18:43Z</time>
      </trkpt>
      <trkpt lat="41.978077" lon="1.8735435">
        <time>2022-07-09T11:18:44Z</time>
      </trkpt>
      <trkpt lat="41.978016" lon="1.8735652">
        <time>2022-07-09T11:18:45Z</time>
      </trkpt>
      <trkpt lat="41.97795" lon="1.8735812">
        <time>2022-07-09T11:18:46Z</time>
      </trkpt>
      <trkpt lat="41.977882" lon="1.8735931">
        <time>2022-07-09T11:18:47Z</time>
      </trkpt>
      <trkpt lat="41.97781" lon="1.8736038">
        <time>2022-07-09T11:18:48Z</time>
      </trkpt>
      <trkpt lat="41.97775" lon="1.8736135">
        <time>2022-07-09T11:18:49Z</time>
      </trkpt>
      <trkpt lat="41.97768" lon="1.8736255">
        <time>2022-07-09T11:18:50Z</time>
      </trkpt>
      <trkpt lat="41.97761" lon="1.8736471">
        <time>2022-07-09T11:18:51Z</time>
      </trkpt>
      <trkpt lat="41.97755" lon="1.8736755">
        <time>2022-07-09T11:18:52Z</time>
      </trkpt>
      <trkpt lat="41.97749" lon="1.8737141">
        <time>2022-07-09T11:18:53Z</time>
      </trkpt>
      <trkpt lat="41.977436" lon="1.8737618">
        <time>2022-07-09T11:18:54Z</time>
      </trkpt>
      <trkpt lat="41.977383" lon="1.8738165">
        <time>2022-07-09T11:18:55Z</time>
      </trkpt>
      <trkpt lat="41.97733" lon="1.8738737">
        <time>2022-07-09T11:18:56Z</time>
      </trkpt>
      <trkpt lat="41.97728" lon="1.873931">
        <time>2022-07-09T11:18:57Z</time>
      </trkpt>
      <trkpt lat="41.977222" lon="1.8739854">
        <time>2022-07-09T11:18:58Z</time>
      </trkpt>
      <trkpt lat="41.977165" lon="1.8740355">
        <time>2022-07-09T11:18:59Z</time>
      </trkpt>
      <trkpt lat="41.977108" lon="1.8740817">
        <time>2022-07-09T11:19:00Z</time>
      </trkpt>
      <trkpt lat="41.97705" lon="1.8741244">
        <time>2022-07-09T11:19:01Z</time>
      </trkpt>
      <trkpt lat="41.97699" lon="1.8741637">
        <time>2022-07-09T11:19:02Z</time>
      </trkpt>
      <trkpt lat="41.976864" lon="1.8742371">
        <time>2022-07-09T11:19:04Z</time>
      </trkpt>
      <trkpt lat="41.9768" lon="1.8742688">
        <time>2022-07-09T11:19:05Z</time>
      </trkpt>
      <trkpt lat="41.976738" lon="1.874299">
        <time>2022-07-09T11:19:06Z</time>
      </trkpt>
      <trkpt lat="41.976685" lon="1.8743278">
        <time>2022-07-09T11:19:07Z</time>
      </trkpt>
      <trkpt lat="41.976627" lon="1.8743564">
        <time>2022-07-09T11:19:08Z</time>
      </trkpt>
      <trkpt lat="41.97657" lon="1.8743864">
        <time>2022-07-09T11:19:09Z</time>
      </trkpt>
      <trkpt lat="41.976517" lon="1.8744204">
        <time>2022-07-09T11:19:10Z</time>
      </trkpt>
      <trkpt lat="41.976463" lon="1.8744597">
        <time>2022-07-09T11:19:11Z</time>
      </trkpt>
      <trkpt lat="41.97641" lon="1.8745034">
        <time>2022-07-09T11:19:12Z</time>
      </trkpt>
      <trkpt lat="41.976357" lon="1.874557">
        <time>2022-07-09T11:19:13Z</time>
      </trkpt>
      <trkpt lat="41.97631" lon="1.8746097">
        <time>2022-07-09T11:19:14Z</time>
      </trkpt>
      <trkpt lat="41.97626" lon="1.874671">
        <time>2022-07-09T11:19:15Z</time>
      </trkpt>
      <trkpt lat="41.976215" lon="1.8747296">
        <time>2022-07-09T11:19:16Z</time>
      </trkpt>
      <trkpt lat="41.976166" lon="1.8747964">
        <time>2022-07-09T11:19:17Z</time>
      </trkpt>
      <trkpt lat="41.97612" lon="1.8748647">
        <time>2022-07-09T11:19:18Z</time>
      </trkpt>
      <trkpt lat="41.976074" lon="1.8749337">
        <time>2022-07-09T11:19:19Z</time>
      </trkpt>
      <trkpt lat="41.976032" lon="1.8750033">
        <time>2022-07-09T11:19:20Z</time>
      </trkpt>
      <trkpt lat="41.97599" lon="1.875075">
        <time>2022-07-09T11:19:21Z</time>
      </trkpt>
      <trkpt lat="41.97595" lon="1.8751427">
        <time>2022-07-09T11:19:22Z</time>
      </trkpt>
      <trkpt lat="41.975906" lon="1.8752156">
        <time>2022-07-09T11:19:23Z</time>
      </trkpt>
      <trkpt lat="41.975864" lon="1.875283">
        <time>2022-07-09T11:19:24Z</time>
      </trkpt>
      <trkpt lat="41.97582" lon="1.8753554">
        <time>2022-07-09T11:19:25Z</time>
      </trkpt>
      <trkpt lat="41.97577" lon="1.8754257">
        <time>2022-07-09T11:19:26Z</time>
      </trkpt>
      <trkpt lat="41.975727" lon="1.8754929">
        <time>2022-07-09T11:19:27Z</time>
      </trkpt>
      <trkpt lat="41.97568" lon="1.8755597">
        <time>2022-07-09T11:19:28Z</time>
      </trkpt>
      <trkpt lat="41.975643" lon="1.8756226">
        <time>2022-07-09T11:19:29Z</time>
      </trkpt>
      <trkpt lat="41.975605" lon="1.875688">
        <time>2022-07-09T11:19:30Z</time>
      </trkpt>
      <trkpt lat="41.975563" lon="1.875759">
        <time>2022-07-09T11:19:31Z</time>
      </trkpt>
      <trkpt lat="41.97552" lon="1.8758293">
        <time>2022-07-09T11:19:32Z</time>
      </trkpt>
      <trkpt lat="41.975483" lon="1.8758982">
        <time>2022-07-09T11:19:33Z</time>
      </trkpt>
      <trkpt lat="41.975437" lon="1.8759719">
        <time>2022-07-09T11:19:34Z</time>
      </trkpt>
      <trkpt lat="41.9754" lon="1.8760387">
        <time>2022-07-09T11:19:35Z</time>
      </trkpt>
      <trkpt lat="41.975353" lon="1.8761057">
        <time>2022-07-09T11:19:36Z</time>
      </trkpt>
      <trkpt lat="41.97531" lon="1.8761729">
        <time>2022-07-09T11:19:37Z</time>
      </trkpt>
      <trkpt lat="41.975266" lon="1.8762393">
        <time>2022-07-09T11:19:38Z</time>
      </trkpt>
      <trkpt lat="41.975224" lon="1.8763076">
        <time>2022-07-09T11:19:39Z</time>
      </trkpt>
      <trkpt lat="41.97518" lon="1.8763789">
        <time>2022-07-09T11:19:40Z</time>
      </trkpt>
      <trkpt lat="41.975136" lon="1.8764583">
        <time>2022-07-09T11:19:41Z</time>
      </trkpt>
      <trkpt lat="41.97509" lon="1.8765336">
        <time>2022-07-09T11:19:42Z</time>
      </trkpt>
      <trkpt lat="41.975044" lon="1.8766056">
        <time>2022-07-09T11:19:43Z</time>
      </trkpt>
      <trkpt lat="41.975" lon="1.8766779">
        <time>2022-07-09T11:19:44Z</time>
      </trkpt>
      <trkpt lat="41.974953" lon="1.8767493">
        <time>2022-07-09T11:19:45Z</time>
      </trkpt>
      <trkpt lat="41.974903" lon="1.8768193">
        <time>2022-07-09T11:19:46Z</time>
      </trkpt>
      <trkpt lat="41.97486" lon="1.8768866">
        <time>2022-07-09T11:19:47Z</time>
      </trkpt>
      <trkpt lat="41.974823" lon="1.876949">
        <time>2022-07-09T11:19:48Z</time>
      </trkpt>
      <trkpt lat="41.974792" lon="1.8770059">
        <time>2022-07-09T11:19:49Z</time>
      </trkpt>
      <trkpt lat="41.974766" lon="1.8770579">
        <time>2022-07-09T11:19:50Z</time>
      </trkpt>
      <trkpt lat="41.97472" lon="1.8771539">
        <time>2022-07-09T11:19:52Z</time>
      </trkpt>
      <trkpt lat="41.97468" lon="1.8772233">
        <time>2022-07-09T11:19:54Z</time>
      </trkpt>
      <trkpt lat="41.97464" lon="1.8772606">
        <time>2022-07-09T11:19:56Z</time>
      </trkpt>
      <trkpt lat="41.974606" lon="1.8772839">
        <time>2022-07-09T11:20:03Z</time>
      </trkpt>
      <trkpt lat="41.974617" lon="1.8773426">
        <time>2022-07-09T11:20:17Z</time>
      </trkpt>
      <trkpt lat="41.97462" lon="1.8774086">
        <time>2022-07-09T11:20:23Z</time>
      </trkpt>
      <trkpt lat="41.974846" lon="1.8772542">
        <time>2022-07-09T11:29:54Z</time>
      </trkpt>
      <trkpt lat="41.974808" lon="1.8772099">
        <time>2022-07-09T11:29:57Z</time>
      </trkpt>
      <trkpt lat="41.97476" lon="1.8771809">
        <time>2022-07-09T11:30:00Z</time>
      </trkpt>
      <trkpt lat="41.974697" lon="1.8771763">
        <time>2022-07-09T11:30:03Z</time>
      </trkpt>
      <trkpt lat="41.97466" lon="1.8771976">
        <time>2022-07-09T11:30:07Z</time>
      </trkpt>
      <trkpt lat="41.974586" lon="1.8772259">
        <time>2022-07-09T11:30:53Z</time>
      </trkpt>
      <trkpt lat="41.974518" lon="1.8772455">
        <time>2022-07-09T11:30:56Z</time>
      </trkpt>
      <trkpt lat="41.97446" lon="1.8772513">
        <time>2022-07-09T11:30:58Z</time>
      </trkpt>
      <trkpt lat="41.974407" lon="1.8772546">
        <time>2022-07-09T11:31:00Z</time>
      </trkpt>
      <trkpt lat="41.974346" lon="1.8772548">
        <time>2022-07-09T11:31:02Z</time>
      </trkpt>
      <trkpt lat="41.97428" lon="1.8772418">
        <time>2022-07-09T11:31:04Z</time>
      </trkpt>
      <trkpt lat="41.97421" lon="1.8772266">
        <time>2022-07-09T11:31:06Z</time>
      </trkpt>
      <trkpt lat="41.97413" lon="1.8772125">
        <time>2022-07-09T11:31:08Z</time>
      </trkpt>
      <trkpt lat="41.974064" lon="1.8771979">
        <time>2022-07-09T11:31:10Z</time>
      </trkpt>
      <trkpt lat="41.97402" lon="1.8771809">
        <time>2022-07-09T11:31:12Z</time>
      </trkpt>
      <trkpt lat="41.97391" lon="1.8771542">
        <time>2022-07-09T11:31:46Z</time>
      </trkpt>
      <trkpt lat="41.973827" lon="1.8771576">
        <time>2022-07-09T11:31:49Z</time>
      </trkpt>
      <trkpt lat="41.973763" lon="1.8771505">
        <time>2022-07-09T11:31:51Z</time>
      </trkpt>
      <trkpt lat="41.973698" lon="1.8771336">
        <time>2022-07-09T11:31:53Z</time>
      </trkpt>
      <trkpt lat="41.973633" lon="1.877111">
        <time>2022-07-09T11:31:55Z</time>
      </trkpt>
      <trkpt lat="41.973568" lon="1.877088">
        <time>2022-07-09T11:31:57Z</time>
      </trkpt>
      <trkpt lat="41.97351" lon="1.877093">
        <time>2022-07-09T11:31:59Z</time>
      </trkpt>
      <trkpt lat="41.97347" lon="1.8771286">
        <time>2022-07-09T11:32:01Z</time>
      </trkpt>
      <trkpt lat="41.973427" lon="1.8771776">
        <time>2022-07-09T11:32:03Z</time>
      </trkpt>
      <trkpt lat="41.973396" lon="1.8772299">
        <time>2022-07-09T11:32:05Z</time>
      </trkpt>
      <trkpt lat="41.97336" lon="1.8773136">
        <time>2022-07-09T11:32:08Z</time>
      </trkpt>
      <trkpt lat="41.973324" lon="1.8773962">
        <time>2022-07-09T11:32:11Z</time>
      </trkpt>
      <trkpt lat="41.97329" lon="1.8774976">
        <time>2022-07-09T11:32:14Z</time>
      </trkpt>
      <trkpt lat="41.97326" lon="1.8775736">
        <time>2022-07-09T11:32:16Z</time>
      </trkpt>
      <trkpt lat="41.973232" lon="1.8776472">
        <time>2022-07-09T11:32:18Z</time>
      </trkpt>
      <trkpt lat="41.973213" lon="1.8777232">
        <time>2022-07-09T11:32:20Z</time>
      </trkpt>
      <trkpt lat="41.973206" lon="1.8777972">
        <time>2022-07-09T11:32:22Z</time>
      </trkpt>
      <trkpt lat="41.97322" lon="1.8778692">
        <time>2022-07-09T11:32:24Z</time>
      </trkpt>
      <trkpt lat="41.97325" lon="1.8779318">
        <time>2022-07-09T11:32:26Z</time>
      </trkpt>
      <trkpt lat="41.97329" lon="1.8779899">
        <time>2022-07-09T11:32:28Z</time>
      </trkpt>
      <trkpt lat="41.973343" lon="1.8780482">
        <time>2022-07-09T11:32:30Z</time>
      </trkpt>
      <trkpt lat="41.9734" lon="1.8781039">
        <time>2022-07-09T11:32:32Z</time>
      </trkpt>
      <trkpt lat="41.97346" lon="1.8781588">
        <time>2022-07-09T11:32:34Z</time>
      </trkpt>
      <trkpt lat="41.97352" lon="1.8782152">
        <time>2022-07-09T11:32:36Z</time>
      </trkpt>
      <trkpt lat="41.973576" lon="1.8782709">
        <time>2022-07-09T11:32:38Z</time>
      </trkpt>
      <trkpt lat="41.97363" lon="1.8783215">
        <time>2022-07-09T11:32:40Z</time>
      </trkpt>
      <trkpt lat="41.97368" lon="1.8783646">
        <time>2022-07-09T11:32:42Z</time>
      </trkpt>
      <trkpt lat="41.97373" lon="1.8784035">
        <time>2022-07-09T11:32:44Z</time>
      </trkpt>
      <trkpt lat="41.97377" lon="1.8784431">
        <time>2022-07-09T11:32:46Z</time>
      </trkpt>
      <trkpt lat="41.97383" lon="1.8785095">
        <time>2022-07-09T11:32:50Z</time>
      </trkpt>
      <trkpt lat="41.97387" lon="1.8785661">
        <time>2022-07-09T11:32:54Z</time>
      </trkpt>
      <trkpt lat="41.97387" lon="1.8786849">
        <time>2022-07-09T11:33:26Z</time>
      </trkpt>
      <trkpt lat="41.973854" lon="1.8787751">
        <time>2022-07-09T11:33:29Z</time>
      </trkpt>
      <trkpt lat="41.97385" lon="1.8788635">
        <time>2022-07-09T11:33:32Z</time>
      </trkpt>
      <trkpt lat="41.97385" lon="1.8789451">
        <time>2022-07-09T11:33:35Z</time>
      </trkpt>
      <trkpt lat="41.973858" lon="1.8790195">
        <time>2022-07-09T11:33:38Z</time>
      </trkpt>
      <trkpt lat="41.973854" lon="1.8790935">
        <time>2022-07-09T11:33:41Z</time>
      </trkpt>
      <trkpt lat="41.97384" lon="1.8791721">
        <time>2022-07-09T11:33:44Z</time>
      </trkpt>
      <trkpt lat="41.97384" lon="1.8792424">
        <time>2022-07-09T11:33:47Z</time>
      </trkpt>
      <trkpt lat="41.973846" lon="1.8793118">
        <time>2022-07-09T11:33:50Z</time>
      </trkpt>
      <trkpt lat="41.973843" lon="1.8794107">
        <time>2022-07-09T11:33:54Z</time>
      </trkpt>
      <trkpt lat="41.973827" lon="1.8794744">
        <time>2022-07-09T11:33:57Z</time>
      </trkpt>
      <trkpt lat="41.973797" lon="1.8795238">
        <time>2022-07-09T11:34:01Z</time>
      </trkpt>
      <trkpt lat="41.973747" lon="1.8795621">
        <time>2022-07-09T11:34:05Z</time>
      </trkpt>
      <trkpt lat="41.973694" lon="1.8795941">
        <time>2022-07-09T11:34:08Z</time>
      </trkpt>
      <trkpt lat="41.973633" lon="1.8796264">
        <time>2022-07-09T11:34:11Z</time>
      </trkpt>
      <trkpt lat="41.973564" lon="1.8796651">
        <time>2022-07-09T11:34:14Z</time>
      </trkpt>
      <trkpt lat="41.973515" lon="1.8796948">
        <time>2022-07-09T11:34:16Z</time>
      </trkpt>
      <trkpt lat="41.973465" lon="1.8797258">
        <time>2022-07-09T11:34:18Z</time>
      </trkpt>
      <trkpt lat="41.97342" lon="1.8797574">
        <time>2022-07-09T11:34:20Z</time>
      </trkpt>
      <trkpt lat="41.973366" lon="1.8797861">
        <time>2022-07-09T11:34:22Z</time>
      </trkpt>
      <trkpt lat="41.97331" lon="1.8798201">
        <time>2022-07-09T11:34:24Z</time>
      </trkpt>
      <trkpt lat="41.973248" lon="1.8798594">
        <time>2022-07-09T11:34:26Z</time>
      </trkpt>
      <trkpt lat="41.97318" lon="1.8799007">
        <time>2022-07-09T11:34:28Z</time>
      </trkpt>
      <trkpt lat="41.97311" lon="1.8799434">
        <time>2022-07-09T11:34:30Z</time>
      </trkpt>
      <trkpt lat="41.973045" lon="1.8799838">
        <time>2022-07-09T11:34:32Z</time>
      </trkpt>
      <trkpt lat="41.972977" lon="1.8800194">
        <time>2022-07-09T11:34:34Z</time>
      </trkpt>
      <trkpt lat="41.9729" lon="1.8800488">
        <time>2022-07-09T11:34:36Z</time>
      </trkpt>
      <trkpt lat="41.972828" lon="1.8800724">
        <time>2022-07-09T11:34:38Z</time>
      </trkpt>
      <trkpt lat="41.972755" lon="1.880108">
        <time>2022-07-09T11:34:40Z</time>
      </trkpt>
      <trkpt lat="41.972687" lon="1.8801421">
        <time>2022-07-09T11:34:42Z</time>
      </trkpt>
      <trkpt lat="41.972622" lon="1.8801727">
        <time>2022-07-09T11:34:44Z</time>
      </trkpt>
      <trkpt lat="41.97255" lon="1.8802077">
        <time>2022-07-09T11:34:46Z</time>
      </trkpt>
      <trkpt lat="41.97247" lon="1.8802451">
        <time>2022-07-09T11:34:48Z</time>
      </trkpt>
      <trkpt lat="41.972385" lon="1.880283">
        <time>2022-07-09T11:34:50Z</time>
      </trkpt>
      <trkpt lat="41.972298" lon="1.880322">
        <time>2022-07-09T11:34:52Z</time>
      </trkpt>
      <trkpt lat="41.97225" lon="1.8803407">
        <time>2022-07-09T11:34:53Z</time>
      </trkpt>
      <trkpt lat="41.97216" lon="1.8803676">
        <time>2022-07-09T11:34:55Z</time>
      </trkpt>
      <trkpt lat="41.972076" lon="1.880379">
        <time>2022-07-09T11:34:57Z</time>
      </trkpt>
      <trkpt lat="41.97201" lon="1.880385">
        <time>2022-07-09T11:34:59Z</time>
      </trkpt>
      <trkpt lat="41.97196" lon="1.8803923">
        <time>2022-07-09T11:35:01Z</time>
      </trkpt>
      <trkpt lat="41.9719" lon="1.880403">
        <time>2022-07-09T11:35:04Z</time>
      </trkpt>
      <trkpt lat="41.97195" lon="1.8804181">
        <time>2022-07-09T11:36:14Z</time>
      </trkpt>
      <trkpt lat="41.972015" lon="1.8803854">
        <time>2022-07-09T11:36:17Z</time>
      </trkpt>
      <trkpt lat="41.972088" lon="1.8803563">
        <time>2022-07-09T11:36:20Z</time>
      </trkpt>
      <trkpt lat="41.97216" lon="1.8803316">
        <time>2022-07-09T11:36:23Z</time>
      </trkpt>
      <trkpt lat="41.972206" lon="1.8803134">
        <time>2022-07-09T11:36:25Z</time>
      </trkpt>
      <trkpt lat="41.972267" lon="1.8802867">
        <time>2022-07-09T11:36:28Z</time>
      </trkpt>
      <trkpt lat="41.97234" lon="1.8802544">
        <time>2022-07-09T11:36:31Z</time>
      </trkpt>
      <trkpt lat="41.972397" lon="1.8802167">
        <time>2022-07-09T11:36:34Z</time>
      </trkpt>
      <trkpt lat="41.97245" lon="1.8801833">
        <time>2022-07-09T11:36:37Z</time>
      </trkpt>
      <trkpt lat="41.972527" lon="1.8801514">
        <time>2022-07-09T11:36:40Z</time>
      </trkpt>
      <trkpt lat="41.97258" lon="1.880135">
        <time>2022-07-09T11:36:42Z</time>
      </trkpt>
      <trkpt lat="41.972656" lon="1.880108">
        <time>2022-07-09T11:36:45Z</time>
      </trkpt>
      <trkpt lat="41.972702" lon="1.880089">
        <time>2022-07-09T11:36:47Z</time>
      </trkpt>
      <trkpt lat="41.972767" lon="1.8800601">
        <time>2022-07-09T11:36:50Z</time>
      </trkpt>
      <trkpt lat="41.972828" lon="1.8800261">
        <time>2022-07-09T11:36:53Z</time>
      </trkpt>
      <trkpt lat="41.972878" lon="1.8800037">
        <time>2022-07-09T11:36:55Z</time>
      </trkpt>
      <trkpt lat="41.97293" lon="1.8799824">
        <time>2022-07-09T11:36:57Z</time>
      </trkpt>
      <trkpt lat="41.972984" lon="1.879966">
        <time>2022-07-09T11:36:59Z</time>
      </trkpt>
      <trkpt lat="41.973045" lon="1.8799298">
        <time>2022-07-09T11:37:02Z</time>
      </trkpt>
      <trkpt lat="41.97311" lon="1.8798691">
        <time>2022-07-09T11:37:06Z</time>
      </trkpt>
      <trkpt lat="41.973175" lon="1.8798194">
        <time>2022-07-09T11:37:09Z</time>
      </trkpt>
      <trkpt lat="41.973225" lon="1.8797938">
        <time>2022-07-09T11:37:11Z</time>
      </trkpt>
      <trkpt lat="41.973278" lon="1.8797667">
        <time>2022-07-09T11:37:14Z</time>
      </trkpt>
      <trkpt lat="41.97334" lon="1.8797418">
        <time>2022-07-09T11:37:17Z</time>
      </trkpt>
      <trkpt lat="41.973392" lon="1.8797277">
        <time>2022-07-09T11:37:19Z</time>
      </trkpt>
      <trkpt lat="41.973442" lon="1.8797175">
        <time>2022-07-09T11:37:21Z</time>
      </trkpt>
      <trkpt lat="41.97351" lon="1.8796917">
        <time>2022-07-09T11:37:24Z</time>
      </trkpt>
      <trkpt lat="41.97356" lon="1.8796571">
        <time>2022-07-09T11:37:27Z</time>
      </trkpt>
      <trkpt lat="41.97361" lon="1.8796275">
        <time>2022-07-09T11:37:30Z</time>
      </trkpt>
      <trkpt lat="41.97366" lon="1.8796037">
        <time>2022-07-09T11:37:33Z</time>
      </trkpt>
      <trkpt lat="41.973736" lon="1.8795865">
        <time>2022-07-09T11:37:37Z</time>
      </trkpt>
      <trkpt lat="41.973812" lon="1.8795855">
        <time>2022-07-09T11:37:40Z</time>
      </trkpt>
      <trkpt lat="41.973873" lon="1.8795855">
        <time>2022-07-09T11:37:42Z</time>
      </trkpt>
      <trkpt lat="41.97395" lon="1.8795881">
        <time>2022-07-09T11:37:44Z</time>
      </trkpt>
      <trkpt lat="41.974026" lon="1.8795915">
        <time>2022-07-09T11:37:46Z</time>
      </trkpt>
      <trkpt lat="41.974094" lon="1.8795907">
        <time>2022-07-09T11:37:48Z</time>
      </trkpt>
      <trkpt lat="41.97415" lon="1.8795902">
        <time>2022-07-09T11:37:50Z</time>
      </trkpt>
      <trkpt lat="41.974213" lon="1.8795855">
        <time>2022-07-09T11:37:52Z</time>
      </trkpt>
      <trkpt lat="41.974274" lon="1.8795815">
        <time>2022-07-09T11:37:54Z</time>
      </trkpt>
      <trkpt lat="41.974342" lon="1.8795835">
        <time>2022-07-09T11:37:56Z</time>
      </trkpt>
      <trkpt lat="41.97443" lon="1.8795905">
        <time>2022-07-09T11:37:58Z</time>
      </trkpt>
      <trkpt lat="41.974525" lon="1.8795958">
        <time>2022-07-09T11:38:00Z</time>
      </trkpt>
      <trkpt lat="41.974617" lon="1.8795985">
        <time>2022-07-09T11:38:02Z</time>
      </trkpt>
      <trkpt lat="41.974716" lon="1.8795981">
        <time>2022-07-09T11:38:04Z</time>
      </trkpt>
      <trkpt lat="41.974808" lon="1.8795921">
        <time>2022-07-09T11:38:06Z</time>
      </trkpt>
      <trkpt lat="41.974903" lon="1.8795841">
        <time>2022-07-09T11:38:08Z</time>
      </trkpt>
      <trkpt lat="41.975" lon="1.8795761">
        <time>2022-07-09T11:38:10Z</time>
      </trkpt>
      <trkpt lat="41.97508" lon="1.8795688">
        <time>2022-07-09T11:38:12Z</time>
      </trkpt>
      <trkpt lat="41.975136" lon="1.8795681">
        <time>2022-07-09T11:38:14Z</time>
      </trkpt>
      <trkpt lat="41.975178" lon="1.8795738">
        <time>2022-07-09T11:38:17Z</time>
      </trkpt>
      <trkpt lat="41.9753" lon="1.8795317">
        <time>2022-07-09T11:39:10Z</time>
      </trkpt>
      <trkpt lat="41.97523" lon="1.8795611">
        <time>2022-07-09T11:39:14Z</time>
      </trkpt>
      <trkpt lat="41.97517" lon="1.8795675">
        <time>2022-07-09T11:39:17Z</time>
      </trkpt>
      <trkpt lat="41.9751" lon="1.8795664">
        <time>2022-07-09T11:39:20Z</time>
      </trkpt>
      <trkpt lat="41.975044" lon="1.8795425">
        <time>2022-07-09T11:39:23Z</time>
      </trkpt>
      <trkpt lat="41.974983" lon="1.8794894">
        <time>2022-07-09T11:39:26Z</time>
      </trkpt>
      <trkpt lat="41.974915" lon="1.8794315">
        <time>2022-07-09T11:39:29Z</time>
      </trkpt>
      <trkpt lat="41.97486" lon="1.8793844">
        <time>2022-07-09T11:39:31Z</time>
      </trkpt>
      <trkpt lat="41.9748" lon="1.8793252">
        <time>2022-07-09T11:39:33Z</time>
      </trkpt>
      <trkpt lat="41.974735" lon="1.8792552">
        <time>2022-07-09T11:39:35Z</time>
      </trkpt>
      <trkpt lat="41.974663" lon="1.8791754">
        <time>2022-07-09T11:39:37Z</time>
      </trkpt>
      <trkpt lat="41.974586" lon="1.8790948">
        <time>2022-07-09T11:39:39Z</time>
      </trkpt>
      <trkpt lat="41.974545" lon="1.8790559">
        <time>2022-07-09T11:39:40Z</time>
      </trkpt>
      <trkpt lat="41.974464" lon="1.8789811">
        <time>2022-07-09T11:39:42Z</time>
      </trkpt>
      <trkpt lat="41.97438" lon="1.8789128">
        <time>2022-07-09T11:39:44Z</time>
      </trkpt>
      <trkpt lat="41.9743" lon="1.8788434">
        <time>2022-07-09T11:39:46Z</time>
      </trkpt>
      <trkpt lat="41.97426" lon="1.8788018">
        <time>2022-07-09T11:39:47Z</time>
      </trkpt>
      <trkpt lat="41.97419" lon="1.8787181">
        <time>2022-07-09T11:39:49Z</time>
      </trkpt>
      <trkpt lat="41.97413" lon="1.8786342">
        <time>2022-07-09T11:39:51Z</time>
      </trkpt>
      <trkpt lat="41.974075" lon="1.8785502">
        <time>2022-07-09T11:39:53Z</time>
      </trkpt>
      <trkpt lat="41.974022" lon="1.8784791">
        <time>2022-07-09T11:39:55Z</time>
      </trkpt>
      <trkpt lat="41.97396" lon="1.8784178">
        <time>2022-07-09T11:39:57Z</time>
      </trkpt>
      <trkpt lat="41.973915" lon="1.8783678">
        <time>2022-07-09T11:39:59Z</time>
      </trkpt>
      <trkpt lat="41.97388" lon="1.8783258">
        <time>2022-07-09T11:40:02Z</time>
      </trkpt>
      <trkpt lat="41.97386" lon="1.8786725">
        <time>2022-07-09T11:43:10Z</time>
      </trkpt>
      <trkpt lat="41.97385" lon="1.8787445">
        <time>2022-07-09T11:43:17Z</time>
      </trkpt>
      <trkpt lat="41.97389" lon="1.8787662">
        <time>2022-07-09T11:43:28Z</time>
      </trkpt>
      <trkpt lat="41.9739" lon="1.8786732">
        <time>2022-07-09T11:43:33Z</time>
      </trkpt>
      <trkpt lat="41.9739" lon="1.8785892">
        <time>2022-07-09T11:43:37Z</time>
      </trkpt>
      <trkpt lat="41.973904" lon="1.8785005">
        <time>2022-07-09T11:43:39Z</time>
      </trkpt>
      <trkpt lat="41.973915" lon="1.8784084">
        <time>2022-07-09T11:43:55Z</time>
      </trkpt>
      <trkpt lat="41.97392" lon="1.8783659">
        <time>2022-07-09T11:43:58Z</time>
      </trkpt>
      <trkpt lat="41.973923" lon="1.8788165">
        <time>2022-07-09T11:48:10Z</time>
      </trkpt>
      <trkpt lat="41.973907" lon="1.8789265">
        <time>2022-07-09T11:48:17Z</time>
      </trkpt>
      <trkpt lat="41.9739" lon="1.8790115">
        <time>2022-07-09T11:48:20Z</time>
      </trkpt>
      <trkpt lat="41.9739" lon="1.8790752">
        <time>2022-07-09T11:48:24Z</time>
      </trkpt>
      <trkpt lat="41.973915" lon="1.8790462">
        <time>2022-07-09T11:48:40Z</time>
      </trkpt>
      <trkpt lat="41.973938" lon="1.8788178">
        <time>2022-07-09T11:50:05Z</time>
      </trkpt>
      <trkpt lat="41.973995" lon="1.8785665">
        <time>2022-07-09T12:01:13Z</time>
      </trkpt>
      <trkpt lat="41.974" lon="1.8785305">
        <time>2022-07-09T12:01:17Z</time>
      </trkpt>
      <trkpt lat="41.97396" lon="1.8785782">
        <time>2022-07-09T12:01:22Z</time>
      </trkpt>
      <trkpt lat="41.973938" lon="1.8786378">
        <time>2022-07-09T12:01:35Z</time>
      </trkpt>
      <trkpt lat="41.973934" lon="1.8786511">
        <time>2022-07-09T12:06:57Z</time>
      </trkpt>
      <trkpt lat="41.97379" lon="1.8785365">
        <time>2022-07-09T12:11:03Z</time>
      </trkpt>
      <trkpt lat="41.97387" lon="1.8784149">
        <time>2022-07-09T12:11:26Z</time>
      </trkpt>
      <trkpt lat="41.973904" lon="1.8783665">
        <time>2022-07-09T12:11:29Z</time>
      </trkpt>
      <trkpt lat="41.97394" lon="1.8783058">
        <time>2022-07-09T12:11:32Z</time>
      </trkpt>
      <trkpt lat="41.973953" lon="1.8783292">
        <time>2022-07-09T12:11:38Z</time>
      </trkpt>
      <trkpt lat="41.973686" lon="1.8789564">
        <time>2022-07-09T12:11:55Z</time>
      </trkpt>
      <trkpt lat="41.97382" lon="1.8785715">
        <time>2022-07-09T12:12:00Z</time>
      </trkpt>
      <trkpt lat="41.97387" lon="1.8782475">
        <time>2022-07-09T12:12:58Z</time>
      </trkpt>
      <trkpt lat="41.97386" lon="1.8782262">
        <time>2022-07-09T12:14:36Z</time>
      </trkpt>
      <trkpt lat="41.97389" lon="1.8781508">
        <time>2022-07-09T12:14:40Z</time>
      </trkpt>
      <trkpt lat="41.9739" lon="1.8784015">
        <time>2022-07-09T12:15:24Z</time>
      </trkpt>
      <trkpt lat="41.973892" lon="1.8784575">
        <time>2022-07-09T12:15:33Z</time>
      </trkpt>
      <trkpt lat="41.973892" lon="1.8783562">
        <time>2022-07-09T12:28:51Z</time>
      </trkpt>
      <trkpt lat="41.97394" lon="1.8781989">
        <time>2022-07-09T12:31:53Z</time>
      </trkpt>
      <trkpt lat="41.97394" lon="1.8783545">
        <time>2022-07-09T12:35:08Z</time>
      </trkpt>
      <trkpt lat="41.973965" lon="1.8783265">
        <time>2022-07-09T12:35:27Z</time>
      </trkpt>
      <trkpt lat="41.973927" lon="1.8781562">
        <time>2022-07-09T12:39:37Z</time>
      </trkpt>
      <trkpt lat="41.973953" lon="1.8782471">
        <time>2022-07-09T12:41:13Z</time>
      </trkpt>
      <trkpt lat="41.97397" lon="1.8781629">
        <time>2022-07-09T12:41:19Z</time>
      </trkpt>
      <trkpt lat="41.973988" lon="1.8780495">
        <time>2022-07-09T12:41:22Z</time>
      </trkpt>
      <trkpt lat="41.974" lon="1.8779808">
        <time>2022-07-09T12:41:24Z</time>
      </trkpt>
      <trkpt lat="41.974" lon="1.8779105">
        <time>2022-07-09T12:41:27Z</time>
      </trkpt>
      <trkpt lat="41.97399" lon="1.8778919">
        <time>2022-07-09T12:41:36Z</time>
      </trkpt>
      <trkpt lat="41.973946" lon="1.8784795">
        <time>2022-07-09T12:45:15Z</time>
      </trkpt>
      <trkpt lat="41.973938" lon="1.8785698">
        <time>2022-07-09T12:45:18Z</time>
      </trkpt>
      <trkpt lat="41.97394" lon="1.8786385">
        <time>2022-07-09T12:45:20Z</time>
      </trkpt>
      <trkpt lat="41.973938" lon="1.8787075">
        <time>2022-07-09T12:45:22Z</time>
      </trkpt>
      <trkpt lat="41.973934" lon="1.8788018">
        <time>2022-07-09T12:45:25Z</time>
      </trkpt>
      <trkpt lat="41.973923" lon="1.8788822">
        <time>2022-07-09T12:45:28Z</time>
      </trkpt>
      <trkpt lat="41.973915" lon="1.8789592">
        <time>2022-07-09T12:45:31Z</time>
      </trkpt>
      <trkpt lat="41.973904" lon="1.8790349">
        <time>2022-07-09T12:45:34Z</time>
      </trkpt>
      <trkpt lat="41.973896" lon="1.8791028">
        <time>2022-07-09T12:45:37Z</time>
      </trkpt>
      <trkpt lat="41.97386" lon="1.8791572">
        <time>2022-07-09T12:45:41Z</time>
      </trkpt>
      <trkpt lat="41.973858" lon="1.8792435">
        <time>2022-07-09T12:46:40Z</time>
      </trkpt>
      <trkpt lat="41.97389" lon="1.8793259">
        <time>2022-07-09T12:46:44Z</time>
      </trkpt>
      <trkpt lat="41.97389" lon="1.8794291">
        <time>2022-07-09T12:46:48Z</time>
      </trkpt>
      <trkpt lat="41.97388" lon="1.8795015">
        <time>2022-07-09T12:46:51Z</time>
      </trkpt>
      <trkpt lat="41.973892" lon="1.8795848">
        <time>2022-07-09T12:46:55Z</time>
      </trkpt>
      <trkpt lat="41.973946" lon="1.8796308">
        <time>2022-07-09T12:46:59Z</time>
      </trkpt>
      <trkpt lat="41.974" lon="1.8796328">
        <time>2022-07-09T12:47:02Z</time>
      </trkpt>
      <trkpt lat="41.974068" lon="1.8796202">
        <time>2022-07-09T12:47:05Z</time>
      </trkpt>
      <trkpt lat="41.974133" lon="1.8796058">
        <time>2022-07-09T12:47:08Z</time>
      </trkpt>
      <trkpt lat="41.974182" lon="1.8795974">
        <time>2022-07-09T12:47:10Z</time>
      </trkpt>
      <trkpt lat="41.974262" lon="1.8795909">
        <time>2022-07-09T12:47:13Z</time>
      </trkpt>
      <trkpt lat="41.97433" lon="1.8795915">
        <time>2022-07-09T12:47:15Z</time>
      </trkpt>
      <trkpt lat="41.9744" lon="1.8795952">
        <time>2022-07-09T12:47:17Z</time>
      </trkpt>
      <trkpt lat="41.974476" lon="1.8795958">
        <time>2022-07-09T12:47:19Z</time>
      </trkpt>
      <trkpt lat="41.974556" lon="1.8795938">
        <time>2022-07-09T12:47:21Z</time>
      </trkpt>
      <trkpt lat="41.974644" lon="1.8795878">
        <time>2022-07-09T12:47:23Z</time>
      </trkpt>
      <trkpt lat="41.97474" lon="1.8795772">
        <time>2022-07-09T12:47:25Z</time>
      </trkpt>
      <trkpt lat="41.974792" lon="1.8795738">
        <time>2022-07-09T12:47:26Z</time>
      </trkpt>
      <trkpt lat="41.97489" lon="1.8795595">
        <time>2022-07-09T12:47:28Z</time>
      </trkpt>
      <trkpt lat="41.97499" lon="1.8795505">
        <time>2022-07-09T12:47:30Z</time>
      </trkpt>
      <trkpt lat="41.975086" lon="1.8795378">
        <time>2022-07-09T12:47:32Z</time>
      </trkpt>
      <trkpt lat="41.97518" lon="1.8795325">
        <time>2022-07-09T12:47:34Z</time>
      </trkpt>
      <trkpt lat="41.975235" lon="1.8795315">
        <time>2022-07-09T12:47:35Z</time>
      </trkpt>
      <trkpt lat="41.975285" lon="1.8795295">
        <time>2022-07-09T12:47:36Z</time>
      </trkpt>
      <trkpt lat="41.975384" lon="1.8795182">
        <time>2022-07-09T12:47:38Z</time>
      </trkpt>
      <trkpt lat="41.975437" lon="1.8795109">
        <time>2022-07-09T12:47:39Z</time>
      </trkpt>
      <trkpt lat="41.975536" lon="1.8794981">
        <time>2022-07-09T12:47:41Z</time>
      </trkpt>
      <trkpt lat="41.975624" lon="1.8794965">
        <time>2022-07-09T12:47:43Z</time>
      </trkpt>
      <trkpt lat="41.9757" lon="1.8795042">
        <time>2022-07-09T12:47:45Z</time>
      </trkpt>
      <trkpt lat="41.97577" lon="1.8795308">
        <time>2022-07-09T12:47:47Z</time>
      </trkpt>
      <trkpt lat="41.975834" lon="1.8795688">
        <time>2022-07-09T12:47:49Z</time>
      </trkpt>
      <trkpt lat="41.975914" lon="1.8796052">
        <time>2022-07-09T12:47:51Z</time>
      </trkpt>
      <trkpt lat="41.97601" lon="1.8796371">
        <time>2022-07-09T12:47:53Z</time>
      </trkpt>
      <trkpt lat="41.976067" lon="1.8796518">
        <time>2022-07-09T12:47:54Z</time>
      </trkpt>
      <trkpt lat="41.97612" lon="1.8796635">
        <time>2022-07-09T12:47:55Z</time>
      </trkpt>
      <trkpt lat="41.97618" lon="1.8796738">
        <time>2022-07-09T12:47:56Z</time>
      </trkpt>
      <trkpt lat="41.976254" lon="1.8796822">
        <time>2022-07-09T12:47:57Z</time>
      </trkpt>
      <trkpt lat="41.97633" lon="1.8796891">
        <time>2022-07-09T12:47:58Z</time>
      </trkpt>
      <trkpt lat="41.9764" lon="1.8796958">
        <time>2022-07-09T12:47:59Z</time>
      </trkpt>
      <trkpt lat="41.97648" lon="1.8797051">
        <time>2022-07-09T12:48:00Z</time>
      </trkpt>
      <trkpt lat="41.976562" lon="1.8797182">
        <time>2022-07-09T12:48:01Z</time>
      </trkpt>
      <trkpt lat="41.97665" lon="1.8797328">
        <time>2022-07-09T12:48:02Z</time>
      </trkpt>
      <trkpt lat="41.976738" lon="1.8797481">
        <time>2022-07-09T12:48:03Z</time>
      </trkpt>
      <trkpt lat="41.976917" lon="1.8797785">
        <time>2022-07-09T12:48:05Z</time>
      </trkpt>
      <trkpt lat="41.97701" lon="1.8797961">
        <time>2022-07-09T12:48:06Z</time>
      </trkpt>
      <trkpt lat="41.977093" lon="1.8798171">
        <time>2022-07-09T12:48:07Z</time>
      </trkpt>
      <trkpt lat="41.97718" lon="1.8798485">
        <time>2022-07-09T12:48:08Z</time>
      </trkpt>
      <trkpt lat="41.97726" lon="1.8798862">
        <time>2022-07-09T12:48:09Z</time>
      </trkpt>
      <trkpt lat="41.977333" lon="1.8799281">
        <time>2022-07-09T12:48:10Z</time>
      </trkpt>
      <trkpt lat="41.977406" lon="1.8799741">
        <time>2022-07-09T12:48:11Z</time>
      </trkpt>
      <trkpt lat="41.977478" lon="1.8800218">
        <time>2022-07-09T12:48:12Z</time>
      </trkpt>
      <trkpt lat="41.977543" lon="1.8800714">
        <time>2022-07-09T12:48:13Z</time>
      </trkpt>
      <trkpt lat="41.977608" lon="1.8801231">
        <time>2022-07-09T12:48:14Z</time>
      </trkpt>
      <trkpt lat="41.97767" lon="1.8801794">
        <time>2022-07-09T12:48:15Z</time>
      </trkpt>
      <trkpt lat="41.97772" lon="1.8802418">
        <time>2022-07-09T12:48:16Z</time>
      </trkpt>
      <trkpt lat="41.97776" lon="1.880311">
        <time>2022-07-09T12:48:17Z</time>
      </trkpt>
      <trkpt lat="41.977787" lon="1.8803864">
        <time>2022-07-09T12:48:18Z</time>
      </trkpt>
      <trkpt lat="41.9778" lon="1.8804661">
        <time>2022-07-09T12:48:19Z</time>
      </trkpt>
      <trkpt lat="41.9778" lon="1.8805461">
        <time>2022-07-09T12:48:20Z</time>
      </trkpt>
      <trkpt lat="41.977787" lon="1.8806248">
        <time>2022-07-09T12:48:21Z</time>
      </trkpt>
      <trkpt lat="41.97776" lon="1.8806974">
        <time>2022-07-09T12:48:22Z</time>
      </trkpt>
      <trkpt lat="41.977726" lon="1.8807594">
        <time>2022-07-09T12:48:23Z</time>
      </trkpt>
      <trkpt lat="41.977684" lon="1.8808097">
        <time>2022-07-09T12:48:24Z</time>
      </trkpt>
      <trkpt lat="41.97763" lon="1.880848">
        <time>2022-07-09T12:48:25Z</time>
      </trkpt>
      <trkpt lat="41.977573" lon="1.8808757">
        <time>2022-07-09T12:48:26Z</time>
      </trkpt>
      <trkpt lat="41.977512" lon="1.880896">
        <time>2022-07-09T12:48:27Z</time>
      </trkpt>
      <trkpt lat="41.97745" lon="1.880911">
        <time>2022-07-09T12:48:28Z</time>
      </trkpt>
      <trkpt lat="41.977386" lon="1.880924">
        <time>2022-07-09T12:48:29Z</time>
      </trkpt>
      <trkpt lat="41.977325" lon="1.880939">
        <time>2022-07-09T12:48:30Z</time>
      </trkpt>
      <trkpt lat="41.97726" lon="1.8809603">
        <time>2022-07-09T12:48:31Z</time>
      </trkpt>
      <trkpt lat="41.977203" lon="1.8809897">
        <time>2022-07-09T12:48:32Z</time>
      </trkpt>
      <trkpt lat="41.977142" lon="1.8810267">
        <time>2022-07-09T12:48:33Z</time>
      </trkpt>
      <trkpt lat="41.97709" lon="1.8810663">
        <time>2022-07-09T12:48:34Z</time>
      </trkpt>
      <trkpt lat="41.97703" lon="1.8811116">
        <time>2022-07-09T12:48:35Z</time>
      </trkpt>
      <trkpt lat="41.976974" lon="1.8811623">
        <time>2022-07-09T12:48:36Z</time>
      </trkpt>
      <trkpt lat="41.97692" lon="1.8812183">
        <time>2022-07-09T12:48:37Z</time>
      </trkpt>
      <trkpt lat="41.976868" lon="1.881281">
        <time>2022-07-09T12:48:38Z</time>
      </trkpt>
      <trkpt lat="41.976826" lon="1.8813527">
        <time>2022-07-09T12:48:39Z</time>
      </trkpt>
      <trkpt lat="41.97679" lon="1.8814323">
        <time>2022-07-09T12:48:40Z</time>
      </trkpt>
      <trkpt lat="41.97677" lon="1.8815197">
        <time>2022-07-09T12:48:41Z</time>
      </trkpt>
      <trkpt lat="41.976757" lon="1.881612">
        <time>2022-07-09T12:48:42Z</time>
      </trkpt>
      <trkpt lat="41.976757" lon="1.8817083">
        <time>2022-07-09T12:48:43Z</time>
      </trkpt>
      <trkpt lat="41.976765" lon="1.881805">
        <time>2022-07-09T12:48:44Z</time>
      </trkpt>
      <trkpt lat="41.976788" lon="1.8818994">
        <time>2022-07-09T12:48:45Z</time>
      </trkpt>
      <trkpt lat="41.97682" lon="1.8819913">
        <time>2022-07-09T12:48:46Z</time>
      </trkpt>
      <trkpt lat="41.976864" lon="1.8820792">
        <time>2022-07-09T12:48:47Z</time>
      </trkpt>
      <trkpt lat="41.976913" lon="1.8821646">
        <time>2022-07-09T12:48:48Z</time>
      </trkpt>
      <trkpt lat="41.97697" lon="1.8822479">
        <time>2022-07-09T12:48:49Z</time>
      </trkpt>
      <trkpt lat="41.977036" lon="1.8823307">
        <time>2022-07-09T12:48:50Z</time>
      </trkpt>
      <trkpt lat="41.9771" lon="1.882414">
        <time>2022-07-09T12:48:51Z</time>
      </trkpt>
      <trkpt lat="41.97717" lon="1.8825029">
        <time>2022-07-09T12:48:52Z</time>
      </trkpt>
      <trkpt lat="41.977238" lon="1.8825849">
        <time>2022-07-09T12:48:53Z</time>
      </trkpt>
      <trkpt lat="41.977303" lon="1.8826673">
        <time>2022-07-09T12:48:54Z</time>
      </trkpt>
      <trkpt lat="41.97737" lon="1.882749">
        <time>2022-07-09T12:48:55Z</time>
      </trkpt>
      <trkpt lat="41.977436" lon="1.8828293">
        <time>2022-07-09T12:48:56Z</time>
      </trkpt>
      <trkpt lat="41.977505" lon="1.8829093">
        <time>2022-07-09T12:48:57Z</time>
      </trkpt>
      <trkpt lat="41.977573" lon="1.8829886">
        <time>2022-07-09T12:48:58Z</time>
      </trkpt>
      <trkpt lat="41.97764" lon="1.8830696">
        <time>2022-07-09T12:48:59Z</time>
      </trkpt>
      <trkpt lat="41.97771" lon="1.8831615">
        <time>2022-07-09T12:49:00Z</time>
      </trkpt>
      <trkpt lat="41.977776" lon="1.8832543">
        <time>2022-07-09T12:49:01Z</time>
      </trkpt>
      <trkpt lat="41.97784" lon="1.8833499">
        <time>2022-07-09T12:49:02Z</time>
      </trkpt>
      <trkpt lat="41.9779" lon="1.8834482">
        <time>2022-07-09T12:49:03Z</time>
      </trkpt>
      <trkpt lat="41.97796" lon="1.8835475">
        <time>2022-07-09T12:49:04Z</time>
      </trkpt>
      <trkpt lat="41.978012" lon="1.883647">
        <time>2022-07-09T12:49:05Z</time>
      </trkpt>
      <trkpt lat="41.978058" lon="1.8837402">
        <time>2022-07-09T12:49:06Z</time>
      </trkpt>
      <trkpt lat="41.9781" lon="1.8838339">
        <time>2022-07-09T12:49:07Z</time>
      </trkpt>
      <trkpt lat="41.97814" lon="1.8839259">
        <time>2022-07-09T12:49:08Z</time>
      </trkpt>
      <trkpt lat="41.978184" lon="1.8840156">
        <time>2022-07-09T12:49:09Z</time>
      </trkpt>
      <trkpt lat="41.978226" lon="1.8841015">
        <time>2022-07-09T12:49:10Z</time>
      </trkpt>
      <trkpt lat="41.978264" lon="1.8841839">
        <time>2022-07-09T12:49:11Z</time>
      </trkpt>
      <trkpt lat="41.978302" lon="1.8842633">
        <time>2022-07-09T12:49:12Z</time>
      </trkpt>
      <trkpt lat="41.978336" lon="1.8843379">
        <time>2022-07-09T12:49:13Z</time>
      </trkpt>
      <trkpt lat="41.97837" lon="1.8844129">
        <time>2022-07-09T12:49:14Z</time>
      </trkpt>
      <trkpt lat="41.97841" lon="1.8844799">
        <time>2022-07-09T12:49:15Z</time>
      </trkpt>
      <trkpt lat="41.978443" lon="1.8845392">
        <time>2022-07-09T12:49:16Z</time>
      </trkpt>
      <trkpt lat="41.978477" lon="1.8845912">
        <time>2022-07-09T12:49:17Z</time>
      </trkpt>
      <trkpt lat="41.978516" lon="1.8846345">
        <time>2022-07-09T12:49:18Z</time>
      </trkpt>
      <trkpt lat="41.97859" lon="1.8846965">
        <time>2022-07-09T12:49:20Z</time>
      </trkpt>
      <trkpt lat="41.978657" lon="1.8847345">
        <time>2022-07-09T12:49:22Z</time>
      </trkpt>
      <trkpt lat="41.978752" lon="1.8847655">
        <time>2022-07-09T12:49:25Z</time>
      </trkpt>
      <trkpt lat="41.978813" lon="1.8847766">
        <time>2022-07-09T12:49:27Z</time>
      </trkpt>
      <trkpt lat="41.97887" lon="1.8847848">
        <time>2022-07-09T12:49:29Z</time>
      </trkpt>
      <trkpt lat="41.978928" lon="1.8847959">
        <time>2022-07-09T12:49:31Z</time>
      </trkpt>
      <trkpt lat="41.978977" lon="1.8848048">
        <time>2022-07-09T12:49:33Z</time>
      </trkpt>
      <trkpt lat="41.97902" lon="1.8848056">
        <time>2022-07-09T12:49:35Z</time>
      </trkpt>
      <trkpt lat="41.979084" lon="1.8848135">
        <time>2022-07-09T12:49:38Z</time>
      </trkpt>
      <trkpt lat="41.979153" lon="1.8848245">
        <time>2022-07-09T12:49:41Z</time>
      </trkpt>
      <trkpt lat="41.979202" lon="1.8848321">
        <time>2022-07-09T12:49:43Z</time>
      </trkpt>
      <trkpt lat="41.97927" lon="1.8848459">
        <time>2022-07-09T12:49:46Z</time>
      </trkpt>
      <trkpt lat="41.979332" lon="1.8848559">
        <time>2022-07-09T12:49:49Z</time>
      </trkpt>
      <trkpt lat="41.979397" lon="1.8848648">
        <time>2022-07-09T12:49:52Z</time>
      </trkpt>
      <trkpt lat="41.979465" lon="1.8848665">
        <time>2022-07-09T12:49:55Z</time>
      </trkpt>
      <trkpt lat="41.97953" lon="1.8848711">
        <time>2022-07-09T12:49:58Z</time>
      </trkpt>
      <trkpt lat="41.97959" lon="1.8848861">
        <time>2022-07-09T12:50:01Z</time>
      </trkpt>
      <trkpt lat="41.979652" lon="1.8849015">
        <time>2022-07-09T12:50:04Z</time>
      </trkpt>
      <trkpt lat="41.979706" lon="1.8849158">
        <time>2022-07-09T12:50:07Z</time>
      </trkpt>
      <trkpt lat="41.979767" lon="1.8849199">
        <time>2022-07-09T12:50:10Z</time>
      </trkpt>
      <trkpt lat="41.979824" lon="1.8849245">
        <time>2022-07-09T12:50:13Z</time>
      </trkpt>
      <trkpt lat="41.979885" lon="1.8849308">
        <time>2022-07-09T12:50:16Z</time>
      </trkpt>
      <trkpt lat="41.97995" lon="1.8849372">
        <time>2022-07-09T12:50:19Z</time>
      </trkpt>
      <trkpt lat="41.980007" lon="1.8849365">
        <time>2022-07-09T12:50:22Z</time>
      </trkpt>
      <trkpt lat="41.98007" lon="1.8849375">
        <time>2022-07-09T12:50:25Z</time>
      </trkpt>
      <trkpt lat="41.980125" lon="1.8849418">
        <time>2022-07-09T12:50:28Z</time>
      </trkpt>
      <trkpt lat="41.980183" lon="1.8849448">
        <time>2022-07-09T12:50:31Z</time>
      </trkpt>
      <trkpt lat="41.980247" lon="1.8849492">
        <time>2022-07-09T12:50:34Z</time>
      </trkpt>
      <trkpt lat="41.980312" lon="1.8849558">
        <time>2022-07-09T12:50:37Z</time>
      </trkpt>
      <trkpt lat="41.980373" lon="1.8849678">
        <time>2022-07-09T12:50:40Z</time>
      </trkpt>
      <trkpt lat="41.980434" lon="1.8849798">
        <time>2022-07-09T12:50:43Z</time>
      </trkpt>
      <trkpt lat="41.980495" lon="1.8849915">
        <time>2022-07-09T12:50:46Z</time>
      </trkpt>
      <trkpt lat="41.980556" lon="1.8850081">
        <time>2022-07-09T12:50:49Z</time>
      </trkpt>
      <trkpt lat="41.98062" lon="1.8850335">
        <time>2022-07-09T12:50:52Z</time>
      </trkpt>
      <trkpt lat="41.980686" lon="1.8850715">
        <time>2022-07-09T12:50:55Z</time>
      </trkpt>
      <trkpt lat="41.980747" lon="1.8851191">
        <time>2022-07-09T12:50:58Z</time>
      </trkpt>
      <trkpt lat="41.980804" lon="1.8851697">
        <time>2022-07-09T12:51:01Z</time>
      </trkpt>
      <trkpt lat="41.980854" lon="1.8852282">
        <time>2022-07-09T12:51:04Z</time>
      </trkpt>
      <trkpt lat="41.980907" lon="1.8852948">
        <time>2022-07-09T12:51:07Z</time>
      </trkpt>
      <trkpt lat="41.98096" lon="1.8853668">
        <time>2022-07-09T12:51:10Z</time>
      </trkpt>
      <trkpt lat="41.980995" lon="1.8854277">
        <time>2022-07-09T12:51:12Z</time>
      </trkpt>
      <trkpt lat="41.981026" lon="1.8854865">
        <time>2022-07-09T12:51:14Z</time>
      </trkpt>
      <trkpt lat="41.98106" lon="1.8855401">
        <time>2022-07-09T12:51:16Z</time>
      </trkpt>
      <trkpt lat="41.981094" lon="1.8855934">
        <time>2022-07-09T12:51:18Z</time>
      </trkpt>
      <trkpt lat="41.981133" lon="1.8856457">
        <time>2022-07-09T12:51:20Z</time>
      </trkpt>
      <trkpt lat="41.98117" lon="1.8856988">
        <time>2022-07-09T12:51:22Z</time>
      </trkpt>
      <trkpt lat="41.981205" lon="1.8857495">
        <time>2022-07-09T12:51:24Z</time>
      </trkpt>
      <trkpt lat="41.981236" lon="1.8858001">
        <time>2022-07-09T12:51:26Z</time>
      </trkpt>
      <trkpt lat="41.98127" lon="1.8858804">
        <time>2022-07-09T12:51:29Z</time>
      </trkpt>
      <trkpt lat="41.981434" lon="1.8859577">
        <time>2022-07-09T12:52:38Z</time>
      </trkpt>
      <trkpt lat="41.9813" lon="1.8860587">
        <time>2022-07-09T12:53:25Z</time>
      </trkpt>
      <trkpt lat="41.98134" lon="1.886134">
        <time>2022-07-09T12:53:28Z</time>
      </trkpt>
      <trkpt lat="41.981396" lon="1.8862171">
        <time>2022-07-09T12:53:31Z</time>
      </trkpt>
      <trkpt lat="41.981434" lon="1.8862787">
        <time>2022-07-09T12:53:33Z</time>
      </trkpt>
      <trkpt lat="41.98147" lon="1.8863397">
        <time>2022-07-09T12:53:35Z</time>
      </trkpt>
      <trkpt lat="41.981503" lon="1.8863964">
        <time>2022-07-09T12:53:37Z</time>
      </trkpt>
      <trkpt lat="41.98154" lon="1.8864514">
        <time>2022-07-09T12:53:39Z</time>
      </trkpt>
      <trkpt lat="41.98158" lon="1.886502">
        <time>2022-07-09T12:53:41Z</time>
      </trkpt>
      <trkpt lat="41.981613" lon="1.8865601">
        <time>2022-07-09T12:53:43Z</time>
      </trkpt>
      <trkpt lat="41.981647" lon="1.8866204">
        <time>2022-07-09T12:53:45Z</time>
      </trkpt>
      <trkpt lat="41.981678" lon="1.8866874">
        <time>2022-07-09T12:53:47Z</time>
      </trkpt>
      <trkpt lat="41.98171" lon="1.886754">
        <time>2022-07-09T12:53:49Z</time>
      </trkpt>
      <trkpt lat="41.981735" lon="1.8868197">
        <time>2022-07-09T12:53:51Z</time>
      </trkpt>
      <trkpt lat="41.981766" lon="1.8868804">
        <time>2022-07-09T12:53:53Z</time>
      </trkpt>
      <trkpt lat="41.981792" lon="1.886945">
        <time>2022-07-09T12:53:55Z</time>
      </trkpt>
      <trkpt lat="41.981823" lon="1.8870066">
        <time>2022-07-09T12:53:57Z</time>
      </trkpt>
      <trkpt lat="41.981853" lon="1.8870667">
        <time>2022-07-09T12:53:59Z</time>
      </trkpt>
      <trkpt lat="41.981888" lon="1.8871197">
        <time>2022-07-09T12:54:01Z</time>
      </trkpt>
      <trkpt lat="41.98193" lon="1.8871657">
        <time>2022-07-09T12:54:03Z</time>
      </trkpt>
      <trkpt lat="41.98198" lon="1.887204">
        <time>2022-07-09T12:54:05Z</time>
      </trkpt>
      <trkpt lat="41.98203" lon="1.887233">
        <time>2022-07-09T12:54:07Z</time>
      </trkpt>
      <trkpt lat="41.982082" lon="1.887256">
        <time>2022-07-09T12:54:09Z</time>
      </trkpt>
      <trkpt lat="41.982136" lon="1.8872724">
        <time>2022-07-09T12:54:11Z</time>
      </trkpt>
      <trkpt lat="41.982193" lon="1.8872776">
        <time>2022-07-09T12:54:13Z</time>
      </trkpt>
      <trkpt lat="41.98225" lon="1.887269">
        <time>2022-07-09T12:54:15Z</time>
      </trkpt>
      <trkpt lat="41.982307" lon="1.887252">
        <time>2022-07-09T12:54:17Z</time>
      </trkpt>
      <trkpt lat="41.982365" lon="1.887233">
        <time>2022-07-09T12:54:19Z</time>
      </trkpt>
      <trkpt lat="41.98242" lon="1.8872156">
        <time>2022-07-09T12:54:21Z</time>
      </trkpt>
      <trkpt lat="41.98248" lon="1.8871996">
        <time>2022-07-09T12:54:23Z</time>
      </trkpt>
      <trkpt lat="41.982536" lon="1.8871844">
        <time>2022-07-09T12:54:25Z</time>
      </trkpt>
      <trkpt lat="41.982597" lon="1.887168">
        <time>2022-07-09T12:54:27Z</time>
      </trkpt>
      <trkpt lat="41.98266" lon="1.8871514">
        <time>2022-07-09T12:54:29Z</time>
      </trkpt>
      <trkpt lat="41.98272" lon="1.8871373">
        <time>2022-07-09T12:54:31Z</time>
      </trkpt>
      <trkpt lat="41.982784" lon="1.8871284">
        <time>2022-07-09T12:54:33Z</time>
      </trkpt>
      <trkpt lat="41.982845" lon="1.8871291">
        <time>2022-07-09T12:54:35Z</time>
      </trkpt>
      <trkpt lat="41.98291" lon="1.8871384">
        <time>2022-07-09T12:54:37Z</time>
      </trkpt>
      <trkpt lat="41.98297" lon="1.887157">
        <time>2022-07-09T12:54:39Z</time>
      </trkpt>
      <trkpt lat="41.983032" lon="1.8871853">
        <time>2022-07-09T12:54:41Z</time>
      </trkpt>
      <trkpt lat="41.983097" lon="1.8872269">
        <time>2022-07-09T12:54:43Z</time>
      </trkpt>
      <trkpt lat="41.983162" lon="1.8872807">
        <time>2022-07-09T12:54:45Z</time>
      </trkpt>
      <trkpt lat="41.983227" lon="1.8873377">
        <time>2022-07-09T12:54:47Z</time>
      </trkpt>
      <trkpt lat="41.983295" lon="1.8873943">
        <time>2022-07-09T12:54:49Z</time>
      </trkpt>
      <trkpt lat="41.983364" lon="1.8874509">
        <time>2022-07-09T12:54:51Z</time>
      </trkpt>
      <trkpt lat="41.983437" lon="1.8875093">
        <time>2022-07-09T12:54:53Z</time>
      </trkpt>
      <trkpt lat="41.98351" lon="1.8875726">
        <time>2022-07-09T12:54:55Z</time>
      </trkpt>
      <trkpt lat="41.98358" lon="1.8876406">
        <time>2022-07-09T12:54:57Z</time>
      </trkpt>
      <trkpt lat="41.983658" lon="1.8877072">
        <time>2022-07-09T12:54:59Z</time>
      </trkpt>
      <trkpt lat="41.983734" lon="1.8877653">
        <time>2022-07-09T12:55:01Z</time>
      </trkpt>
      <trkpt lat="41.983818" lon="1.8878139">
        <time>2022-07-09T12:55:03Z</time>
      </trkpt>
      <trkpt lat="41.983902" lon="1.8878543">
        <time>2022-07-09T12:55:05Z</time>
      </trkpt>
      <trkpt lat="41.983994" lon="1.8878906">
        <time>2022-07-09T12:55:07Z</time>
      </trkpt>
      <trkpt lat="41.984043" lon="1.8879086">
        <time>2022-07-09T12:55:08Z</time>
      </trkpt>
      <trkpt lat="41.984135" lon="1.8879503">
        <time>2022-07-09T12:55:10Z</time>
      </trkpt>
      <trkpt lat="41.984226" lon="1.8880063">
        <time>2022-07-09T12:55:12Z</time>
      </trkpt>
      <trkpt lat="41.984318" lon="1.888076">
        <time>2022-07-09T12:55:14Z</time>
      </trkpt>
      <trkpt lat="41.98436" lon="1.8881129">
        <time>2022-07-09T12:55:15Z</time>
      </trkpt>
      <trkpt lat="41.984444" lon="1.8881896">
        <time>2022-07-09T12:55:17Z</time>
      </trkpt>
      <trkpt lat="41.98449" lon="1.8882296">
        <time>2022-07-09T12:55:18Z</time>
      </trkpt>
      <trkpt lat="41.98453" lon="1.8882693">
        <time>2022-07-09T12:55:19Z</time>
      </trkpt>
      <trkpt lat="41.984615" lon="1.8883486">
        <time>2022-07-09T12:55:21Z</time>
      </trkpt>
      <trkpt lat="41.984657" lon="1.8883862">
        <time>2022-07-09T12:55:22Z</time>
      </trkpt>
      <trkpt lat="41.984703" lon="1.8884215">
        <time>2022-07-09T12:55:23Z</time>
      </trkpt>
      <trkpt lat="41.98479" lon="1.8884813">
        <time>2022-07-09T12:55:25Z</time>
      </trkpt>
      <trkpt lat="41.984886" lon="1.8885236">
        <time>2022-07-09T12:55:27Z</time>
      </trkpt>
      <trkpt lat="41.984936" lon="1.8885386">
        <time>2022-07-09T12:55:28Z</time>
      </trkpt>
      <trkpt lat="41.98503" lon="1.8885568">
        <time>2022-07-09T12:55:30Z</time>
      </trkpt>
      <trkpt lat="41.98513" lon="1.8885732">
        <time>2022-07-09T12:55:32Z</time>
      </trkpt>
      <trkpt lat="41.985218" lon="1.8886082">
        <time>2022-07-09T12:55:34Z</time>
      </trkpt>
      <trkpt lat="41.985294" lon="1.8886739">
        <time>2022-07-09T12:55:36Z</time>
      </trkpt>
      <trkpt lat="41.985344" lon="1.8887599">
        <time>2022-07-09T12:55:38Z</time>
      </trkpt>
      <trkpt lat="41.98538" lon="1.8888606">
        <time>2022-07-09T12:55:40Z</time>
      </trkpt>
      <trkpt lat="41.985394" lon="1.8889709">
        <time>2022-07-09T12:55:42Z</time>
      </trkpt>
      <trkpt lat="41.985397" lon="1.8890783">
        <time>2022-07-09T12:55:44Z</time>
      </trkpt>
      <trkpt lat="41.985397" lon="1.8891839">
        <time>2022-07-09T12:55:46Z</time>
      </trkpt>
      <trkpt lat="41.98539" lon="1.8892878">
        <time>2022-07-09T12:55:48Z</time>
      </trkpt>
      <trkpt lat="41.985374" lon="1.8893921">
        <time>2022-07-09T12:55:50Z</time>
      </trkpt>
      <trkpt lat="41.985363" lon="1.8894942">
        <time>2022-07-09T12:55:52Z</time>
      </trkpt>
      <trkpt lat="41.985355" lon="1.8895962">
        <time>2022-07-09T12:55:54Z</time>
      </trkpt>
      <trkpt lat="41.98535" lon="1.8896959">
        <time>2022-07-09T12:55:56Z</time>
      </trkpt>
      <trkpt lat="41.98535" lon="1.8897928">
        <time>2022-07-09T12:55:58Z</time>
      </trkpt>
      <trkpt lat="41.98536" lon="1.8898835">
        <time>2022-07-09T12:56:00Z</time>
      </trkpt>
      <trkpt lat="41.98538" lon="1.8899709">
        <time>2022-07-09T12:56:02Z</time>
      </trkpt>
      <trkpt lat="41.985413" lon="1.8900526">
        <time>2022-07-09T12:56:04Z</time>
      </trkpt>
      <trkpt lat="41.985462" lon="1.8901205">
        <time>2022-07-09T12:56:06Z</time>
      </trkpt>
      <trkpt lat="41.98552" lon="1.8901678">
        <time>2022-07-09T12:56:08Z</time>
      </trkpt>
      <trkpt lat="41.985584" lon="1.8901935">
        <time>2022-07-09T12:56:10Z</time>
      </trkpt>
      <trkpt lat="41.98565" lon="1.8902035">
        <time>2022-07-09T12:56:12Z</time>
      </trkpt>
      <trkpt lat="41.98571" lon="1.8901962">
        <time>2022-07-09T12:56:14Z</time>
      </trkpt>
      <trkpt lat="41.985767" lon="1.8901768">
        <time>2022-07-09T12:56:16Z</time>
      </trkpt>
      <trkpt lat="41.98582" lon="1.8901522">
        <time>2022-07-09T12:56:18Z</time>
      </trkpt>
      <trkpt lat="41.985874" lon="1.8901289">
        <time>2022-07-09T12:56:20Z</time>
      </trkpt>
      <trkpt lat="41.985924" lon="1.8901058">
        <time>2022-07-09T12:56:22Z</time>
      </trkpt>
      <trkpt lat="41.985977" lon="1.8900852">
        <time>2022-07-09T12:56:24Z</time>
      </trkpt>
      <trkpt lat="41.98603" lon="1.8900672">
        <time>2022-07-09T12:56:26Z</time>
      </trkpt>
      <trkpt lat="41.986084" lon="1.8900479">
        <time>2022-07-09T12:56:28Z</time>
      </trkpt>
      <trkpt lat="41.986134" lon="1.8900266">
        <time>2022-07-09T12:56:30Z</time>
      </trkpt>
      <trkpt lat="41.986187" lon="1.8900055">
        <time>2022-07-09T12:56:32Z</time>
      </trkpt>
      <trkpt lat="41.986237" lon="1.8899812">
        <time>2022-07-09T12:56:34Z</time>
      </trkpt>
      <trkpt lat="41.98629" lon="1.8899568">
        <time>2022-07-09T12:56:36Z</time>
      </trkpt>
      <trkpt lat="41.98634" lon="1.8899353">
        <time>2022-07-09T12:56:38Z</time>
      </trkpt>
      <trkpt lat="41.986393" lon="1.8899199">
        <time>2022-07-09T12:56:40Z</time>
      </trkpt>
      <trkpt lat="41.98647" lon="1.8899039">
        <time>2022-07-09T12:56:43Z</time>
      </trkpt>
      <trkpt lat="41.986526" lon="1.8898982">
        <time>2022-07-09T12:56:45Z</time>
      </trkpt>
      <trkpt lat="41.986576" lon="1.8898985">
        <time>2022-07-09T12:56:47Z</time>
      </trkpt>
      <trkpt lat="41.986652" lon="1.8899152">
        <time>2022-07-09T12:56:50Z</time>
      </trkpt>
      <trkpt lat="41.986702" lon="1.8899409">
        <time>2022-07-09T12:56:52Z</time>
      </trkpt>
      <trkpt lat="41.98675" lon="1.8899748">
        <time>2022-07-09T12:56:54Z</time>
      </trkpt>
      <trkpt lat="41.986797" lon="1.8900119">
        <time>2022-07-09T12:56:56Z</time>
      </trkpt>
      <trkpt lat="41.986843" lon="1.8900509">
        <time>2022-07-09T12:56:58Z</time>
      </trkpt>
      <trkpt lat="41.98689" lon="1.8900925">
        <time>2022-07-09T12:57:00Z</time>
      </trkpt>
      <trkpt lat="41.986935" lon="1.8901352">
        <time>2022-07-09T12:57:02Z</time>
      </trkpt>
      <trkpt lat="41.986977" lon="1.8901769">
        <time>2022-07-09T12:57:04Z</time>
      </trkpt>
      <trkpt lat="41.98702" lon="1.8902194">
        <time>2022-07-09T12:57:06Z</time>
      </trkpt>
      <trkpt lat="41.98706" lon="1.8902619">
        <time>2022-07-09T12:57:08Z</time>
      </trkpt>
      <trkpt lat="41.987103" lon="1.8903035">
        <time>2022-07-09T12:57:10Z</time>
      </trkpt>
      <trkpt lat="41.987144" lon="1.8903484">
        <time>2022-07-09T12:57:12Z</time>
      </trkpt>
      <trkpt lat="41.98721" lon="1.8904208">
        <time>2022-07-09T12:57:15Z</time>
      </trkpt>
      <trkpt lat="41.987247" lon="1.8904675">
        <time>2022-07-09T12:57:17Z</time>
      </trkpt>
      <trkpt lat="41.98729" lon="1.8905149">
        <time>2022-07-09T12:57:19Z</time>
      </trkpt>
      <trkpt lat="41.98733" lon="1.8905641">
        <time>2022-07-09T12:57:21Z</time>
      </trkpt>
      <trkpt lat="41.987373" lon="1.8906115">
        <time>2022-07-09T12:57:23Z</time>
      </trkpt>
      <trkpt lat="41.987415" lon="1.8906585">
        <time>2022-07-09T12:57:25Z</time>
      </trkpt>
      <trkpt lat="41.987457" lon="1.8907058">
        <time>2022-07-09T12:57:27Z</time>
      </trkpt>
      <trkpt lat="41.9875" lon="1.8907531">
        <time>2022-07-09T12:57:29Z</time>
      </trkpt>
      <trkpt lat="41.987545" lon="1.8907971">
        <time>2022-07-09T12:57:31Z</time>
      </trkpt>
      <trkpt lat="41.98759" lon="1.8908371">
        <time>2022-07-09T12:57:33Z</time>
      </trkpt>
      <trkpt lat="41.987637" lon="1.8908741">
        <time>2022-07-09T12:57:35Z</time>
      </trkpt>
      <trkpt lat="41.987686" lon="1.8909057">
        <time>2022-07-09T12:57:37Z</time>
      </trkpt>
      <trkpt lat="41.987736" lon="1.8909371">
        <time>2022-07-09T12:57:39Z</time>
      </trkpt>
      <trkpt lat="41.987785" lon="1.8909655">
        <time>2022-07-09T12:57:41Z</time>
      </trkpt>
      <trkpt lat="41.987835" lon="1.8909931">
        <time>2022-07-09T12:57:43Z</time>
      </trkpt>
      <trkpt lat="41.987885" lon="1.8910167">
        <time>2022-07-09T12:57:45Z</time>
      </trkpt>
      <trkpt lat="41.987934" lon="1.8910418">
        <time>2022-07-09T12:57:47Z</time>
      </trkpt>
      <trkpt lat="41.987984" lon="1.8910705">
        <time>2022-07-09T12:57:49Z</time>
      </trkpt>
      <trkpt lat="41.988037" lon="1.8910974">
        <time>2022-07-09T12:57:51Z</time>
      </trkpt>
      <trkpt lat="41.988087" lon="1.8911225">
        <time>2022-07-09T12:57:53Z</time>
      </trkpt>
      <trkpt lat="41.98814" lon="1.8911477">
        <time>2022-07-09T12:57:55Z</time>
      </trkpt>
      <trkpt lat="41.98819" lon="1.8911715">
        <time>2022-07-09T12:57:57Z</time>
      </trkpt>
      <trkpt lat="41.98824" lon="1.8911921">
        <time>2022-07-09T12:57:59Z</time>
      </trkpt>
      <trkpt lat="41.988293" lon="1.8912094">
        <time>2022-07-09T12:58:01Z</time>
      </trkpt>
      <trkpt lat="41.988342" lon="1.891226">
        <time>2022-07-09T12:58:03Z</time>
      </trkpt>
      <trkpt lat="41.988396" lon="1.8912427">
        <time>2022-07-09T12:58:05Z</time>
      </trkpt>
      <trkpt lat="41.98845" lon="1.8912587">
        <time>2022-07-09T12:58:07Z</time>
      </trkpt>
      <trkpt lat="41.988503" lon="1.8912804">
        <time>2022-07-09T12:58:09Z</time>
      </trkpt>
      <trkpt lat="41.988552" lon="1.891301">
        <time>2022-07-09T12:58:11Z</time>
      </trkpt>
      <trkpt lat="41.9886" lon="1.891317">
        <time>2022-07-09T12:58:13Z</time>
      </trkpt>
      <trkpt lat="41.98867" lon="1.8913294">
        <time>2022-07-09T12:58:16Z</time>
      </trkpt>
      <trkpt lat="41.98874" lon="1.8913437">
        <time>2022-07-09T12:58:19Z</time>
      </trkpt>
      <trkpt lat="41.988808" lon="1.8913617">
        <time>2022-07-09T12:58:22Z</time>
      </trkpt>
      <trkpt lat="41.988857" lon="1.891373">
        <time>2022-07-09T12:58:24Z</time>
      </trkpt>
      <trkpt lat="41.988926" lon="1.8913817">
        <time>2022-07-09T12:58:27Z</time>
      </trkpt>
      <trkpt lat="41.98897" lon="1.891383">
        <time>2022-07-09T12:58:29Z</time>
      </trkpt>
      <trkpt lat="41.98904" lon="1.891376">
        <time>2022-07-09T12:58:32Z</time>
      </trkpt>
      <trkpt lat="41.989086" lon="1.8913684">
        <time>2022-07-09T12:58:34Z</time>
      </trkpt>
      <trkpt lat="41.98916" lon="1.8913621">
        <time>2022-07-09T12:58:37Z</time>
      </trkpt>
      <trkpt lat="41.989227" lon="1.8913614">
        <time>2022-07-09T12:58:40Z</time>
      </trkpt>
      <trkpt lat="41.989296" lon="1.8913587">
        <time>2022-07-09T12:58:43Z</time>
      </trkpt>
      <trkpt lat="41.989365" lon="1.8913563">
        <time>2022-07-09T12:58:46Z</time>
      </trkpt>
      <trkpt lat="41.989433" lon="1.8913604">
        <time>2022-07-09T12:58:49Z</time>
      </trkpt>
      <trkpt lat="41.989483" lon="1.8913734">
        <time>2022-07-09T12:58:51Z</time>
      </trkpt>
      <trkpt lat="41.98955" lon="1.8914018">
        <time>2022-07-09T12:58:54Z</time>
      </trkpt>
      <trkpt lat="41.98962" lon="1.8914357">
        <time>2022-07-09T12:58:57Z</time>
      </trkpt>
      <trkpt lat="41.989685" lon="1.8914723">
        <time>2022-07-09T12:59:00Z</time>
      </trkpt>
      <trkpt lat="41.98975" lon="1.8915074">
        <time>2022-07-09T12:59:03Z</time>
      </trkpt>
      <trkpt lat="41.98982" lon="1.8915387">
        <time>2022-07-09T12:59:06Z</time>
      </trkpt>
      <trkpt lat="41.989883" lon="1.8915724">
        <time>2022-07-09T12:59:09Z</time>
      </trkpt>
      <trkpt lat="41.989952" lon="1.891612">
        <time>2022-07-09T12:59:12Z</time>
      </trkpt>
      <trkpt lat="41.99002" lon="1.8916523">
        <time>2022-07-09T12:59:15Z</time>
      </trkpt>
      <trkpt lat="41.990086" lon="1.891701">
        <time>2022-07-09T12:59:18Z</time>
      </trkpt>
      <trkpt lat="41.990124" lon="1.891737">
        <time>2022-07-09T12:59:20Z</time>
      </trkpt>
      <trkpt lat="41.990185" lon="1.891788">
        <time>2022-07-09T12:59:23Z</time>
      </trkpt>
      <trkpt lat="41.99023" lon="1.8918173">
        <time>2022-07-09T12:59:25Z</time>
      </trkpt>
      <trkpt lat="41.990276" lon="1.891847">
        <time>2022-07-09T12:59:27Z</time>
      </trkpt>
      <trkpt lat="41.99034" lon="1.8918906">
        <time>2022-07-09T12:59:30Z</time>
      </trkpt>
      <trkpt lat="41.990406" lon="1.8919417">
        <time>2022-07-09T12:59:33Z</time>
      </trkpt>
      <trkpt lat="41.990448" lon="1.89198">
        <time>2022-07-09T12:59:35Z</time>
      </trkpt>
      <trkpt lat="41.990505" lon="1.8920417">
        <time>2022-07-09T12:59:38Z</time>
      </trkpt>
      <trkpt lat="41.99054" lon="1.89209">
        <time>2022-07-09T12:59:40Z</time>
      </trkpt>
      <trkpt lat="41.990578" lon="1.892174">
        <time>2022-07-09T12:59:43Z</time>
      </trkpt>
      <trkpt lat="41.990612" lon="1.89226">
        <time>2022-07-09T12:59:46Z</time>
      </trkpt>
      <trkpt lat="41.990643" lon="1.8923407">
        <time>2022-07-09T12:59:49Z</time>
      </trkpt>
      <trkpt lat="41.990673" lon="1.892422">
        <time>2022-07-09T12:59:52Z</time>
      </trkpt>
      <trkpt lat="41.990707" lon="1.892503">
        <time>2022-07-09T12:59:55Z</time>
      </trkpt>
      <trkpt lat="41.990746" lon="1.89258">
        <time>2022-07-09T12:59:58Z</time>
      </trkpt>
      <trkpt lat="41.99078" lon="1.892625">
        <time>2022-07-09T13:00:00Z</time>
      </trkpt>
      <trkpt lat="41.990837" lon="1.8926803">
        <time>2022-07-09T13:00:03Z</time>
      </trkpt>
      <trkpt lat="41.9909" lon="1.892715">
        <time>2022-07-09T13:00:06Z</time>
      </trkpt>
      <trkpt lat="41.990967" lon="1.8927246">
        <time>2022-07-09T13:00:09Z</time>
      </trkpt>
      <trkpt lat="41.99103" lon="1.8927066">
        <time>2022-07-09T13:00:12Z</time>
      </trkpt>
      <trkpt lat="41.9911" lon="1.892679">
        <time>2022-07-09T13:00:15Z</time>
      </trkpt>
      <trkpt lat="41.99117" lon="1.892643">
        <time>2022-07-09T13:00:18Z</time>
      </trkpt>
      <trkpt lat="41.991234" lon="1.8926127">
        <time>2022-07-09T13:00:21Z</time>
      </trkpt>
      <trkpt lat="41.991306" lon="1.8925964">
        <time>2022-07-09T13:00:24Z</time>
      </trkpt>
      <trkpt lat="41.99138" lon="1.8925977">
        <time>2022-07-09T13:00:27Z</time>
      </trkpt>
      <trkpt lat="41.991444" lon="1.8926209">
        <time>2022-07-09T13:00:30Z</time>
      </trkpt>
      <trkpt lat="41.991512" lon="1.892659">
        <time>2022-07-09T13:00:33Z</time>
      </trkpt>
      <trkpt lat="41.991573" lon="1.8927093">
        <time>2022-07-09T13:00:36Z</time>
      </trkpt>
      <trkpt lat="41.991627" lon="1.8927716">
        <time>2022-07-09T13:00:39Z</time>
      </trkpt>
      <trkpt lat="41.991676" lon="1.892844">
        <time>2022-07-09T13:00:42Z</time>
      </trkpt>
      <trkpt lat="41.991722" lon="1.8929206">
        <time>2022-07-09T13:00:45Z</time>
      </trkpt>
      <trkpt lat="41.99176" lon="1.8930026">
        <time>2022-07-09T13:00:48Z</time>
      </trkpt>
      <trkpt lat="41.991795" lon="1.8930897">
        <time>2022-07-09T13:00:51Z</time>
      </trkpt>
      <trkpt lat="41.991817" lon="1.8931442">
        <time>2022-07-09T13:00:53Z</time>
      </trkpt>
      <trkpt lat="41.991856" lon="1.8932236">
        <time>2022-07-09T13:00:56Z</time>
      </trkpt>
      <trkpt lat="41.99188" lon="1.8932769">
        <time>2022-07-09T13:00:58Z</time>
      </trkpt>
      <trkpt lat="41.991917" lon="1.8933606">
        <time>2022-07-09T13:01:01Z</time>
      </trkpt>
      <trkpt lat="41.99195" lon="1.8934473">
        <time>2022-07-09T13:01:04Z</time>
      </trkpt>
      <trkpt lat="41.991985" lon="1.8935343">
        <time>2022-07-09T13:01:07Z</time>
      </trkpt>
      <trkpt lat="41.992023" lon="1.8936145">
        <time>2022-07-09T13:01:10Z</time>
      </trkpt>
      <trkpt lat="41.992065" lon="1.8936926">
        <time>2022-07-09T13:01:13Z</time>
      </trkpt>
      <trkpt lat="41.992107" lon="1.8937756">
        <time>2022-07-09T13:01:16Z</time>
      </trkpt>
      <trkpt lat="41.992146" lon="1.8938533">
        <time>2022-07-09T13:01:19Z</time>
      </trkpt>
      <trkpt lat="41.992195" lon="1.8939253">
        <time>2022-07-09T13:01:22Z</time>
      </trkpt>
      <trkpt lat="41.992245" lon="1.8939909">
        <time>2022-07-09T13:01:25Z</time>
      </trkpt>
      <trkpt lat="41.992306" lon="1.8940493">
        <time>2022-07-09T13:01:28Z</time>
      </trkpt>
      <trkpt lat="41.99237" lon="1.8940909">
        <time>2022-07-09T13:01:31Z</time>
      </trkpt>
      <trkpt lat="41.992435" lon="1.894123">
        <time>2022-07-09T13:01:34Z</time>
      </trkpt>
      <trkpt lat="41.992504" lon="1.8941553">
        <time>2022-07-09T13:01:37Z</time>
      </trkpt>
      <trkpt lat="41.992573" lon="1.8941876">
        <time>2022-07-09T13:01:40Z</time>
      </trkpt>
      <trkpt lat="41.992615" lon="1.8942112">
        <time>2022-07-09T13:01:42Z</time>
      </trkpt>
      <trkpt lat="41.992683" lon="1.8942616">
        <time>2022-07-09T13:01:46Z</time>
      </trkpt>
      <trkpt lat="41.99273" lon="1.8943073">
        <time>2022-07-09T13:01:48Z</time>
      </trkpt>
      <trkpt lat="41.992764" lon="1.8943539">
        <time>2022-07-09T13:01:50Z</time>
      </trkpt>
      <trkpt lat="41.992794" lon="1.8944036">
        <time>2022-07-09T13:01:52Z</time>
      </trkpt>
      <trkpt lat="41.992836" lon="1.8944849">
        <time>2022-07-09T13:01:55Z</time>
      </trkpt>
      <trkpt lat="41.992867" lon="1.8945729">
        <time>2022-07-09T13:01:58Z</time>
      </trkpt>
      <trkpt lat="41.992897" lon="1.8946642">
        <time>2022-07-09T13:02:01Z</time>
      </trkpt>
      <trkpt lat="41.99292" lon="1.8947545">
        <time>2022-07-09T13:02:04Z</time>
      </trkpt>
      <trkpt lat="41.992954" lon="1.8948395">
        <time>2022-07-09T13:02:07Z</time>
      </trkpt>
      <trkpt lat="41.99299" lon="1.8948885">
        <time>2022-07-09T13:02:09Z</time>
      </trkpt>
      <trkpt lat="41.99304" lon="1.8949525">
        <time>2022-07-09T13:02:12Z</time>
      </trkpt>
      <trkpt lat="41.99308" lon="1.8949915">
        <time>2022-07-09T13:02:14Z</time>
      </trkpt>
      <trkpt lat="41.993145" lon="1.8950301">
        <time>2022-07-09T13:02:17Z</time>
      </trkpt>
      <trkpt lat="41.99321" lon="1.8950498">
        <time>2022-07-09T13:02:20Z</time>
      </trkpt>
      <trkpt lat="41.99328" lon="1.8950589">
        <time>2022-07-09T13:02:23Z</time>
      </trkpt>
      <trkpt lat="41.993347" lon="1.8950609">
        <time>2022-07-09T13:02:26Z</time>
      </trkpt>
      <trkpt lat="41.99341" lon="1.8950648">
        <time>2022-07-09T13:02:29Z</time>
      </trkpt>
      <trkpt lat="41.993473" lon="1.8950715">
        <time>2022-07-09T13:02:32Z</time>
      </trkpt>
      <trkpt lat="41.993534" lon="1.8950804">
        <time>2022-07-09T13:02:35Z</time>
      </trkpt>
      <trkpt lat="41.9936" lon="1.8951021">
        <time>2022-07-09T13:02:38Z</time>
      </trkpt>
      <trkpt lat="41.99366" lon="1.8951355">
        <time>2022-07-09T13:02:41Z</time>
      </trkpt>
      <trkpt lat="41.993717" lon="1.8951778">
        <time>2022-07-09T13:02:44Z</time>
      </trkpt>
      <trkpt lat="41.993767" lon="1.8952352">
        <time>2022-07-09T13:02:47Z</time>
      </trkpt>
      <trkpt lat="41.99381" lon="1.8953005">
        <time>2022-07-09T13:02:50Z</time>
      </trkpt>
      <trkpt lat="41.993847" lon="1.8953772">
        <time>2022-07-09T13:02:53Z</time>
      </trkpt>
      <trkpt lat="41.993877" lon="1.8954562">
        <time>2022-07-09T13:02:56Z</time>
      </trkpt>
      <trkpt lat="41.993908" lon="1.8955388">
        <time>2022-07-09T13:02:59Z</time>
      </trkpt>
      <trkpt lat="41.99394" lon="1.8956218">
        <time>2022-07-09T13:03:02Z</time>
      </trkpt>
      <trkpt lat="41.99396" lon="1.8956769">
        <time>2022-07-09T13:03:04Z</time>
      </trkpt>
      <trkpt lat="41.993984" lon="1.8957615">
        <time>2022-07-09T13:03:07Z</time>
      </trkpt>
      <trkpt lat="41.994007" lon="1.8958437">
        <time>2022-07-09T13:03:10Z</time>
      </trkpt>
      <trkpt lat="41.99404" lon="1.8959194">
        <time>2022-07-09T13:03:13Z</time>
      </trkpt>
      <trkpt lat="41.994083" lon="1.8959931">
        <time>2022-07-09T13:03:16Z</time>
      </trkpt>
      <trkpt lat="41.99411" lon="1.8960441">
        <time>2022-07-09T13:03:18Z</time>
      </trkpt>
      <trkpt lat="41.994152" lon="1.8961104">
        <time>2022-07-09T13:03:21Z</time>
      </trkpt>
      <trkpt lat="41.994198" lon="1.8961614">
        <time>2022-07-09T13:03:24Z</time>
      </trkpt>
      <trkpt lat="41.994255" lon="1.8962095">
        <time>2022-07-09T13:03:27Z</time>
      </trkpt>
      <trkpt lat="41.99431" lon="1.8962548">
        <time>2022-07-09T13:03:30Z</time>
      </trkpt>
      <trkpt lat="41.994366" lon="1.8962911">
        <time>2022-07-09T13:03:33Z</time>
      </trkpt>
      <trkpt lat="41.99443" lon="1.8963244">
        <time>2022-07-09T13:03:36Z</time>
      </trkpt>
      <trkpt lat="41.99449" lon="1.8963561">
        <time>2022-07-09T13:03:39Z</time>
      </trkpt>
      <trkpt lat="41.994553" lon="1.8963741">
        <time>2022-07-09T13:03:42Z</time>
      </trkpt>
      <trkpt lat="41.994614" lon="1.896365">
        <time>2022-07-09T13:03:45Z</time>
      </trkpt>
      <trkpt lat="41.99469" lon="1.8963164">
        <time>2022-07-09T13:03:49Z</time>
      </trkpt>
      <trkpt lat="41.99474" lon="1.8962564">
        <time>2022-07-09T13:03:52Z</time>
      </trkpt>
      <trkpt lat="41.994785" lon="1.8961995">
        <time>2022-07-09T13:03:55Z</time>
      </trkpt>
      <trkpt lat="41.994835" lon="1.8961455">
        <time>2022-07-09T13:03:58Z</time>
      </trkpt>
      <trkpt lat="41.994892" lon="1.8961041">
        <time>2022-07-09T13:04:01Z</time>
      </trkpt>
      <trkpt lat="41.994957" lon="1.8960818">
        <time>2022-07-09T13:04:04Z</time>
      </trkpt>
      <trkpt lat="41.99502" lon="1.8960841">
        <time>2022-07-09T13:04:07Z</time>
      </trkpt>
      <trkpt lat="41.99508" lon="1.8961167">
        <time>2022-07-09T13:04:10Z</time>
      </trkpt>
      <trkpt lat="41.995132" lon="1.8961735">
        <time>2022-07-09T13:04:13Z</time>
      </trkpt>
      <trkpt lat="41.995163" lon="1.896221">
        <time>2022-07-09T13:04:15Z</time>
      </trkpt>
      <trkpt lat="41.995205" lon="1.8962967">
        <time>2022-07-09T13:04:18Z</time>
      </trkpt>
      <trkpt lat="41.995235" lon="1.89635">
        <time>2022-07-09T13:04:20Z</time>
      </trkpt>
      <trkpt lat="41.99527" lon="1.896406">
        <time>2022-07-09T13:04:22Z</time>
      </trkpt>
      <trkpt lat="41.995304" lon="1.8964617">
        <time>2022-07-09T13:04:24Z</time>
      </trkpt>
      <trkpt lat="41.99534" lon="1.8965167">
        <time>2022-07-09T13:04:26Z</time>
      </trkpt>
      <trkpt lat="41.995377" lon="1.8965724">
        <time>2022-07-09T13:04:28Z</time>
      </trkpt>
      <trkpt lat="41.99542" lon="1.8966241">
        <time>2022-07-09T13:04:30Z</time>
      </trkpt>
      <trkpt lat="41.995464" lon="1.8966714">
        <time>2022-07-09T13:04:32Z</time>
      </trkpt>
      <trkpt lat="41.995514" lon="1.8967127">
        <time>2022-07-09T13:04:34Z</time>
      </trkpt>
      <trkpt lat="41.99556" lon="1.8967484">
        <time>2022-07-09T13:04:36Z</time>
      </trkpt>
      <trkpt lat="41.99561" lon="1.8967794">
        <time>2022-07-09T13:04:38Z</time>
      </trkpt>
      <trkpt lat="41.995663" lon="1.8968071">
        <time>2022-07-09T13:04:40Z</time>
      </trkpt>
      <trkpt lat="41.995716" lon="1.8968333">
        <time>2022-07-09T13:04:42Z</time>
      </trkpt>
      <trkpt lat="41.99577" lon="1.896859">
        <time>2022-07-09T13:04:44Z</time>
      </trkpt>
      <trkpt lat="41.995827" lon="1.8968837">
        <time>2022-07-09T13:04:46Z</time>
      </trkpt>
      <trkpt lat="41.995884" lon="1.8969027">
        <time>2022-07-09T13:04:48Z</time>
      </trkpt>
      <trkpt lat="41.99595" lon="1.896917">
        <time>2022-07-09T13:04:50Z</time>
      </trkpt>
      <trkpt lat="41.99601" lon="1.8969316">
        <time>2022-07-09T13:04:52Z</time>
      </trkpt>
      <trkpt lat="41.99607" lon="1.896948">
        <time>2022-07-09T13:04:54Z</time>
      </trkpt>
      <trkpt lat="41.996136" lon="1.896967">
        <time>2022-07-09T13:04:56Z</time>
      </trkpt>
      <trkpt lat="41.996204" lon="1.8969897">
        <time>2022-07-09T13:04:58Z</time>
      </trkpt>
      <trkpt lat="41.996273" lon="1.8970137">
        <time>2022-07-09T13:05:00Z</time>
      </trkpt>
      <trkpt lat="41.996338" lon="1.8970389">
        <time>2022-07-09T13:05:02Z</time>
      </trkpt>
      <trkpt lat="41.996407" lon="1.8970686">
        <time>2022-07-09T13:05:04Z</time>
      </trkpt>
      <trkpt lat="41.996483" lon="1.8971037">
        <time>2022-07-09T13:05:06Z</time>
      </trkpt>
      <trkpt lat="41.996555" lon="1.8971397">
        <time>2022-07-09T13:05:08Z</time>
      </trkpt>
      <trkpt lat="41.99667" lon="1.8971937">
        <time>2022-07-09T13:05:11Z</time>
      </trkpt>
      <trkpt lat="41.996746" lon="1.8972319">
        <time>2022-07-09T13:05:13Z</time>
      </trkpt>
      <trkpt lat="41.996822" lon="1.8972687">
        <time>2022-07-09T13:05:15Z</time>
      </trkpt>
      <trkpt lat="41.996902" lon="1.8973126">
        <time>2022-07-09T13:05:17Z</time>
      </trkpt>
      <trkpt lat="41.99698" lon="1.8973576">
        <time>2022-07-09T13:05:19Z</time>
      </trkpt>
      <trkpt lat="41.997055" lon="1.8974043">
        <time>2022-07-09T13:05:21Z</time>
      </trkpt>
      <trkpt lat="41.99713" lon="1.8974543">
        <time>2022-07-09T13:05:23Z</time>
      </trkpt>
      <trkpt lat="41.99721" lon="1.8975047">
        <time>2022-07-09T13:05:25Z</time>
      </trkpt>
      <trkpt lat="41.99729" lon="1.897556">
        <time>2022-07-09T13:05:27Z</time>
      </trkpt>
      <trkpt lat="41.99737" lon="1.8976046">
        <time>2022-07-09T13:05:29Z</time>
      </trkpt>
      <trkpt lat="41.997456" lon="1.8976493">
        <time>2022-07-09T13:05:31Z</time>
      </trkpt>
      <trkpt lat="41.99754" lon="1.8976866">
        <time>2022-07-09T13:05:33Z</time>
      </trkpt>
      <trkpt lat="41.997623" lon="1.8977213">
        <time>2022-07-09T13:05:35Z</time>
      </trkpt>
      <trkpt lat="41.997715" lon="1.8977553">
        <time>2022-07-09T13:05:37Z</time>
      </trkpt>
      <trkpt lat="41.997803" lon="1.8977892">
        <time>2022-07-09T13:05:39Z</time>
      </trkpt>
      <trkpt lat="41.99789" lon="1.8978169">
        <time>2022-07-09T13:05:41Z</time>
      </trkpt>
      <trkpt lat="41.997974" lon="1.8978386">
        <time>2022-07-09T13:05:43Z</time>
      </trkpt>
      <trkpt lat="41.998062" lon="1.8978586">
        <time>2022-07-09T13:05:45Z</time>
      </trkpt>
      <trkpt lat="41.99815" lon="1.8978763">
        <time>2022-07-09T13:05:47Z</time>
      </trkpt>
      <trkpt lat="41.99824" lon="1.8978919">
        <time>2022-07-09T13:05:49Z</time>
      </trkpt>
      <trkpt lat="41.998333" lon="1.897906">
        <time>2022-07-09T13:05:51Z</time>
      </trkpt>
      <trkpt lat="41.99842" lon="1.8979156">
        <time>2022-07-09T13:05:53Z</time>
      </trkpt>
      <trkpt lat="41.998524" lon="1.8979229">
        <time>2022-07-09T13:05:56Z</time>
      </trkpt>
      <trkpt lat="41.998577" lon="1.8979275">
        <time>2022-07-09T13:05:57Z</time>
      </trkpt>
      <trkpt lat="41.998627" lon="1.8979322">
        <time>2022-07-09T13:05:58Z</time>
      </trkpt>
      <trkpt lat="41.998722" lon="1.8979429">
        <time>2022-07-09T13:06:00Z</time>
      </trkpt>
      <trkpt lat="41.998802" lon="1.8979579">
        <time>2022-07-09T13:06:02Z</time>
      </trkpt>
      <trkpt lat="41.998875" lon="1.8979772">
        <time>2022-07-09T13:06:04Z</time>
      </trkpt>
      <trkpt lat="41.99895" lon="1.8980016">
        <time>2022-07-09T13:06:06Z</time>
      </trkpt>
      <trkpt lat="41.999023" lon="1.8980329">
        <time>2022-07-09T13:06:08Z</time>
      </trkpt>
      <trkpt lat="41.99909" lon="1.8980675">
        <time>2022-07-09T13:06:10Z</time>
      </trkpt>
      <trkpt lat="41.99915" lon="1.8981051">
        <time>2022-07-09T13:06:12Z</time>
      </trkpt>
      <trkpt lat="41.99921" lon="1.8981385">
        <time>2022-07-09T13:06:14Z</time>
      </trkpt>
      <trkpt lat="41.99927" lon="1.8981742">
        <time>2022-07-09T13:06:16Z</time>
      </trkpt>
      <trkpt lat="41.999336" lon="1.8982128">
        <time>2022-07-09T13:06:18Z</time>
      </trkpt>
      <trkpt lat="41.999397" lon="1.8982545">
        <time>2022-07-09T13:06:20Z</time>
      </trkpt>
      <trkpt lat="41.999454" lon="1.8983026">
        <time>2022-07-09T13:06:22Z</time>
      </trkpt>
      <trkpt lat="41.999504" lon="1.8983592">
        <time>2022-07-09T13:06:24Z</time>
      </trkpt>
      <trkpt lat="41.999554" lon="1.8984221">
        <time>2022-07-09T13:06:26Z</time>
      </trkpt>
      <trkpt lat="41.999615" lon="1.8985171">
        <time>2022-07-09T13:06:29Z</time>
      </trkpt>
      <trkpt lat="41.99965" lon="1.8985802">
        <time>2022-07-09T13:06:31Z</time>
      </trkpt>
      <trkpt lat="41.99968" lon="1.8986415">
        <time>2022-07-09T13:06:33Z</time>
      </trkpt>
      <trkpt lat="41.999706" lon="1.8987031">
        <time>2022-07-09T13:06:35Z</time>
      </trkpt>
      <trkpt lat="41.99973" lon="1.8987658">
        <time>2022-07-09T13:06:37Z</time>
      </trkpt>
      <trkpt lat="41.99976" lon="1.8988268">
        <time>2022-07-09T13:06:39Z</time>
      </trkpt>
      <trkpt lat="41.999786" lon="1.8988851">
        <time>2022-07-09T13:06:41Z</time>
      </trkpt>
      <trkpt lat="41.999817" lon="1.8989465">
        <time>2022-07-09T13:06:43Z</time>
      </trkpt>
      <trkpt lat="41.999844" lon="1.8990088">
        <time>2022-07-09T13:06:45Z</time>
      </trkpt>
      <trkpt lat="41.999866" lon="1.8990698">
        <time>2022-07-09T13:06:47Z</time>
      </trkpt>
      <trkpt lat="41.99991" lon="1.8991611">
        <time>2022-07-09T13:06:50Z</time>
      </trkpt>
      <trkpt lat="41.99994" lon="1.8992244">
        <time>2022-07-09T13:06:52Z</time>
      </trkpt>
      <trkpt lat="41.999973" lon="1.8992834">
        <time>2022-07-09T13:06:54Z</time>
      </trkpt>
      <trkpt lat="42.00001" lon="1.8993374">
        <time>2022-07-09T13:06:56Z</time>
      </trkpt>
      <trkpt lat="42.000053" lon="1.8993858">
        <time>2022-07-09T13:06:58Z</time>
      </trkpt>
      <trkpt lat="42.0001" lon="1.8994285">
        <time>2022-07-09T13:07:00Z</time>
      </trkpt>
      <trkpt lat="42.00015" lon="1.8994681">
        <time>2022-07-09T13:07:02Z</time>
      </trkpt>
      <trkpt lat="42.0002" lon="1.8995051">
        <time>2022-07-09T13:07:04Z</time>
      </trkpt>
      <trkpt lat="42.000248" lon="1.8995408">
        <time>2022-07-09T13:07:06Z</time>
      </trkpt>
      <trkpt lat="42.000305" lon="1.8995714">
        <time>2022-07-09T13:07:08Z</time>
      </trkpt>
      <trkpt lat="42.000366" lon="1.8995987">
        <time>2022-07-09T13:07:10Z</time>
      </trkpt>
      <trkpt lat="42.000427" lon="1.8996247">
        <time>2022-07-09T13:07:12Z</time>
      </trkpt>
      <trkpt lat="42.00049" lon="1.8996544">
        <time>2022-07-09T13:07:14Z</time>
      </trkpt>
      <trkpt lat="42.00055" lon="1.8996867">
        <time>2022-07-09T13:07:16Z</time>
      </trkpt>
      <trkpt lat="42.000607" lon="1.899718">
        <time>2022-07-09T13:07:18Z</time>
      </trkpt>
      <trkpt lat="42.000668" lon="1.8997564">
        <time>2022-07-09T13:07:20Z</time>
      </trkpt>
      <trkpt lat="42.00072" lon="1.8997947">
        <time>2022-07-09T13:07:22Z</time>
      </trkpt>
      <trkpt lat="42.00078" lon="1.899837">
        <time>2022-07-09T13:07:24Z</time>
      </trkpt>
      <trkpt lat="42.00083" lon="1.8998897">
        <time>2022-07-09T13:07:26Z</time>
      </trkpt>
      <trkpt lat="42.000885" lon="1.8999448">
        <time>2022-07-09T13:07:28Z</time>
      </trkpt>
      <trkpt lat="42.000942" lon="1.8999934">
        <time>2022-07-09T13:07:30Z</time>
      </trkpt>
      <trkpt lat="42.00099" lon="1.9000434">
        <time>2022-07-09T13:07:32Z</time>
      </trkpt>
      <trkpt lat="42.00104" lon="1.9000918">
        <time>2022-07-09T13:07:34Z</time>
      </trkpt>
      <trkpt lat="42.001095" lon="1.900143">
        <time>2022-07-09T13:07:36Z</time>
      </trkpt>
      <trkpt lat="42.001152" lon="1.90019">
        <time>2022-07-09T13:07:38Z</time>
      </trkpt>
      <trkpt lat="42.00121" lon="1.900236">
        <time>2022-07-09T13:07:40Z</time>
      </trkpt>
      <trkpt lat="42.001263" lon="1.9002804">
        <time>2022-07-09T13:07:42Z</time>
      </trkpt>
      <trkpt lat="42.00132" lon="1.9003267">
        <time>2022-07-09T13:07:44Z</time>
      </trkpt>
      <trkpt lat="42.001377" lon="1.9003733">
        <time>2022-07-09T13:07:46Z</time>
      </trkpt>
      <trkpt lat="42.00143" lon="1.9004194">
        <time>2022-07-09T13:07:48Z</time>
      </trkpt>
      <trkpt lat="42.00149" lon="1.900468">
        <time>2022-07-09T13:07:50Z</time>
      </trkpt>
      <trkpt lat="42.00155" lon="1.9005197">
        <time>2022-07-09T13:07:52Z</time>
      </trkpt>
      <trkpt lat="42.00161" lon="1.9005704">
        <time>2022-07-09T13:07:54Z</time>
      </trkpt>
      <trkpt lat="42.001667" lon="1.9006213">
        <time>2022-07-09T13:07:56Z</time>
      </trkpt>
      <trkpt lat="42.00173" lon="1.9006773">
        <time>2022-07-09T13:07:58Z</time>
      </trkpt>
      <trkpt lat="42.001793" lon="1.900738">
        <time>2022-07-09T13:08:00Z</time>
      </trkpt>
      <trkpt lat="42.001846" lon="1.900803">
        <time>2022-07-09T13:08:02Z</time>
      </trkpt>
      <trkpt lat="42.0019" lon="1.900871">
        <time>2022-07-09T13:08:04Z</time>
      </trkpt>
      <trkpt lat="42.001953" lon="1.9009427">
        <time>2022-07-09T13:08:06Z</time>
      </trkpt>
      <trkpt lat="42.002" lon="1.9010164">
        <time>2022-07-09T13:08:08Z</time>
      </trkpt>
      <trkpt lat="42.00204" lon="1.901093">
        <time>2022-07-09T13:08:10Z</time>
      </trkpt>
      <trkpt lat="42.00208" lon="1.9011726">
        <time>2022-07-09T13:08:12Z</time>
      </trkpt>
      <trkpt lat="42.002117" lon="1.9012537">
        <time>2022-07-09T13:08:14Z</time>
      </trkpt>
      <trkpt lat="42.00216" lon="1.9013333">
        <time>2022-07-09T13:08:16Z</time>
      </trkpt>
      <trkpt lat="42.0022" lon="1.9014109">
        <time>2022-07-09T13:08:18Z</time>
      </trkpt>
      <trkpt lat="42.002243" lon="1.9014876">
        <time>2022-07-09T13:08:20Z</time>
      </trkpt>
      <trkpt lat="42.00229" lon="1.9015636">
        <time>2022-07-09T13:08:22Z</time>
      </trkpt>
      <trkpt lat="42.00234" lon="1.901642">
        <time>2022-07-09T13:08:24Z</time>
      </trkpt>
      <trkpt lat="42.002388" lon="1.9017166">
        <time>2022-07-09T13:08:26Z</time>
      </trkpt>
      <trkpt lat="42.002445" lon="1.9017853">
        <time>2022-07-09T13:08:28Z</time>
      </trkpt>
      <trkpt lat="42.002502" lon="1.9018463">
        <time>2022-07-09T13:08:30Z</time>
      </trkpt>
      <trkpt lat="42.002563" lon="1.9019029">
        <time>2022-07-09T13:08:32Z</time>
      </trkpt>
      <trkpt lat="42.002625" lon="1.9019569">
        <time>2022-07-09T13:08:34Z</time>
      </trkpt>
      <trkpt lat="42.00269" lon="1.9020053">
        <time>2022-07-09T13:08:36Z</time>
      </trkpt>
      <trkpt lat="42.002754" lon="1.9020456">
        <time>2022-07-09T13:08:38Z</time>
      </trkpt>
      <trkpt lat="42.002823" lon="1.9020863">
        <time>2022-07-09T13:08:40Z</time>
      </trkpt>
      <trkpt lat="42.002888" lon="1.9021236">
        <time>2022-07-09T13:08:42Z</time>
      </trkpt>
      <trkpt lat="42.002953" lon="1.9021639">
        <time>2022-07-09T13:08:44Z</time>
      </trkpt>
      <trkpt lat="42.003017" lon="1.9022123">
        <time>2022-07-09T13:08:46Z</time>
      </trkpt>
      <trkpt lat="42.00308" lon="1.9022729">
        <time>2022-07-09T13:08:48Z</time>
      </trkpt>
      <trkpt lat="42.00313" lon="1.9023435">
        <time>2022-07-09T13:08:50Z</time>
      </trkpt>
      <trkpt lat="42.003178" lon="1.9024159">
        <time>2022-07-09T13:08:52Z</time>
      </trkpt>
      <trkpt lat="42.00322" lon="1.9024969">
        <time>2022-07-09T13:08:54Z</time>
      </trkpt>
      <trkpt lat="42.003258" lon="1.9025812">
        <time>2022-07-09T13:08:56Z</time>
      </trkpt>
      <trkpt lat="42.003296" lon="1.9026679">
        <time>2022-07-09T13:08:58Z</time>
      </trkpt>
      <trkpt lat="42.003326" lon="1.9027525">
        <time>2022-07-09T13:09:00Z</time>
      </trkpt>
      <trkpt lat="42.00336" lon="1.9028425">
        <time>2022-07-09T13:09:02Z</time>
      </trkpt>
      <trkpt lat="42.003395" lon="1.9029329">
        <time>2022-07-09T13:09:04Z</time>
      </trkpt>
      <trkpt lat="42.003433" lon="1.9030199">
        <time>2022-07-09T13:09:06Z</time>
      </trkpt>
      <trkpt lat="42.00347" lon="1.9031042">
        <time>2022-07-09T13:09:08Z</time>
      </trkpt>
      <trkpt lat="42.00351" lon="1.9031852">
        <time>2022-07-09T13:09:10Z</time>
      </trkpt>
      <trkpt lat="42.00355" lon="1.9032722">
        <time>2022-07-09T13:09:12Z</time>
      </trkpt>
      <trkpt lat="42.0036" lon="1.9033558">
        <time>2022-07-09T13:09:14Z</time>
      </trkpt>
      <trkpt lat="42.003647" lon="1.9034379">
        <time>2022-07-09T13:09:16Z</time>
      </trkpt>
      <trkpt lat="42.003696" lon="1.9035145">
        <time>2022-07-09T13:09:18Z</time>
      </trkpt>
      <trkpt lat="42.00375" lon="1.9035935">
        <time>2022-07-09T13:09:20Z</time>
      </trkpt>
      <trkpt lat="42.003803" lon="1.9036739">
        <time>2022-07-09T13:09:22Z</time>
      </trkpt>
      <trkpt lat="42.003853" lon="1.9037559">
        <time>2022-07-09T13:09:24Z</time>
      </trkpt>
      <trkpt lat="42.003902" lon="1.9038322">
        <time>2022-07-09T13:09:26Z</time>
      </trkpt>
      <trkpt lat="42.003952" lon="1.9039022">
        <time>2022-07-09T13:09:28Z</time>
      </trkpt>
      <trkpt lat="42.004" lon="1.9039725">
        <time>2022-07-09T13:09:30Z</time>
      </trkpt>
      <trkpt lat="42.004055" lon="1.9040395">
        <time>2022-07-09T13:09:32Z</time>
      </trkpt>
      <trkpt lat="42.004105" lon="1.9041028">
        <time>2022-07-09T13:09:34Z</time>
      </trkpt>
      <trkpt lat="42.00415" lon="1.9041681">
        <time>2022-07-09T13:09:36Z</time>
      </trkpt>
      <trkpt lat="42.004192" lon="1.9042302">
        <time>2022-07-09T13:09:38Z</time>
      </trkpt>
      <trkpt lat="42.004234" lon="1.9042882">
        <time>2022-07-09T13:09:40Z</time>
      </trkpt>
      <trkpt lat="42.004276" lon="1.9043381">
        <time>2022-07-09T13:09:42Z</time>
      </trkpt>
      <trkpt lat="42.00432" lon="1.9043822">
        <time>2022-07-09T13:09:44Z</time>
      </trkpt>
      <trkpt lat="42.00436" lon="1.9044218">
        <time>2022-07-09T13:09:46Z</time>
      </trkpt>
      <trkpt lat="42.004417" lon="1.9044758">
        <time>2022-07-09T13:09:49Z</time>
      </trkpt>
      <trkpt lat="42.004475" lon="1.9045255">
        <time>2022-07-09T13:09:52Z</time>
      </trkpt>
      <trkpt lat="42.004536" lon="1.9045788">
        <time>2022-07-09T13:09:55Z</time>
      </trkpt>
      <trkpt lat="42.004578" lon="1.9046115">
        <time>2022-07-09T13:09:57Z</time>
      </trkpt>
      <trkpt lat="42.004642" lon="1.9046625">
        <time>2022-07-09T13:10:00Z</time>
      </trkpt>
      <trkpt lat="42.004684" lon="1.9046981">
        <time>2022-07-09T13:10:02Z</time>
      </trkpt>
      <trkpt lat="42.00474" lon="1.9047562">
        <time>2022-07-09T13:10:05Z</time>
      </trkpt>
      <trkpt lat="42.004795" lon="1.9048182">
        <time>2022-07-09T13:10:08Z</time>
      </trkpt>
      <trkpt lat="42.00485" lon="1.9048889">
        <time>2022-07-09T13:10:11Z</time>
      </trkpt>
      <trkpt lat="42.004887" lon="1.9049371">
        <time>2022-07-09T13:10:13Z</time>
      </trkpt>
      <trkpt lat="42.004932" lon="1.9050118">
        <time>2022-07-09T13:10:16Z</time>
      </trkpt>
      <trkpt lat="42.004982" lon="1.9050899">
        <time>2022-07-09T13:10:19Z</time>
      </trkpt>
      <trkpt lat="42.00501" lon="1.9051439">
        <time>2022-07-09T13:10:21Z</time>
      </trkpt>
      <trkpt lat="42.005047" lon="1.9052352">
        <time>2022-07-09T13:10:24Z</time>
      </trkpt>
      <trkpt lat="42.005066" lon="1.9052998">
        <time>2022-07-09T13:10:26Z</time>
      </trkpt>
      <trkpt lat="42.005085" lon="1.9053655">
        <time>2022-07-09T13:10:28Z</time>
      </trkpt>
      <trkpt lat="42.005108" lon="1.9054601">
        <time>2022-07-09T13:10:31Z</time>
      </trkpt>
      <trkpt lat="42.005123" lon="1.9055201">
        <time>2022-07-09T13:10:33Z</time>
      </trkpt>
      <trkpt lat="42.00515" lon="1.9056134">
        <time>2022-07-09T13:10:36Z</time>
      </trkpt>
      <trkpt lat="42.005173" lon="1.9057055">
        <time>2022-07-09T13:10:39Z</time>
      </trkpt>
      <trkpt lat="42.005196" lon="1.9058008">
        <time>2022-07-09T13:10:42Z</time>
      </trkpt>
      <trkpt lat="42.005215" lon="1.9058964">
        <time>2022-07-09T13:10:45Z</time>
      </trkpt>
      <trkpt lat="42.005222" lon="1.9059614">
        <time>2022-07-09T13:10:47Z</time>
      </trkpt>
      <trkpt lat="42.005238" lon="1.9060627">
        <time>2022-07-09T13:10:50Z</time>
      </trkpt>
      <trkpt lat="42.00525" lon="1.9061297">
        <time>2022-07-09T13:10:52Z</time>
      </trkpt>
      <trkpt lat="42.00527" lon="1.906226">
        <time>2022-07-09T13:10:55Z</time>
      </trkpt>
      <trkpt lat="42.005283" lon="1.9062891">
        <time>2022-07-09T13:10:57Z</time>
      </trkpt>
      <trkpt lat="42.005302" lon="1.9063861">
        <time>2022-07-09T13:11:00Z</time>
      </trkpt>
      <trkpt lat="42.005318" lon="1.9064537">
        <time>2022-07-09T13:11:02Z</time>
      </trkpt>
      <trkpt lat="42.00534" lon="1.9065547">
        <time>2022-07-09T13:11:05Z</time>
      </trkpt>
      <trkpt lat="42.005352" lon="1.9066231">
        <time>2022-07-09T13:11:07Z</time>
      </trkpt>
      <trkpt lat="42.005367" lon="1.906689">
        <time>2022-07-09T13:11:09Z</time>
      </trkpt>
      <trkpt lat="42.00539" lon="1.9067844">
        <time>2022-07-09T13:11:12Z</time>
      </trkpt>
      <trkpt lat="42.0054" lon="1.9068471">
        <time>2022-07-09T13:11:14Z</time>
      </trkpt>
      <trkpt lat="42.00542" lon="1.9069331">
        <time>2022-07-09T13:11:17Z</time>
      </trkpt>
      <trkpt lat="42.005436" lon="1.9069824">
        <time>2022-07-09T13:11:20Z</time>
      </trkpt>
      <trkpt lat="42.005413" lon="1.9071021">
        <time>2022-07-09T13:13:50Z</time>
      </trkpt>
      <trkpt lat="42.005432" lon="1.9072027">
        <time>2022-07-09T13:13:53Z</time>
      </trkpt>
      <trkpt lat="42.005444" lon="1.9072807">
        <time>2022-07-09T13:13:55Z</time>
      </trkpt>
      <trkpt lat="42.00545" lon="1.9073601">
        <time>2022-07-09T13:13:57Z</time>
      </trkpt>
      <trkpt lat="42.005447" lon="1.907443">
        <time>2022-07-09T13:13:59Z</time>
      </trkpt>
      <trkpt lat="42.005447" lon="1.9075294">
        <time>2022-07-09T13:14:01Z</time>
      </trkpt>
      <trkpt lat="42.005444" lon="1.9076177">
        <time>2022-07-09T13:14:03Z</time>
      </trkpt>
      <trkpt lat="42.00544" lon="1.907708">
        <time>2022-07-09T13:14:05Z</time>
      </trkpt>
      <trkpt lat="42.005432" lon="1.9078051">
        <time>2022-07-09T13:14:07Z</time>
      </trkpt>
      <trkpt lat="42.00543" lon="1.9078964">
        <time>2022-07-09T13:14:09Z</time>
      </trkpt>
      <trkpt lat="42.005424" lon="1.9079967">
        <time>2022-07-09T13:14:11Z</time>
      </trkpt>
      <trkpt lat="42.005424" lon="1.9080974">
        <time>2022-07-09T13:14:13Z</time>
      </trkpt>
      <trkpt lat="42.005417" lon="1.9081937">
        <time>2022-07-09T13:14:15Z</time>
      </trkpt>
      <trkpt lat="42.005413" lon="1.9082954">
        <time>2022-07-09T13:14:17Z</time>
      </trkpt>
      <trkpt lat="42.005405" lon="1.9083923">
        <time>2022-07-09T13:14:19Z</time>
      </trkpt>
      <trkpt lat="42.005398" lon="1.9084893">
        <time>2022-07-09T13:14:21Z</time>
      </trkpt>
      <trkpt lat="42.005386" lon="1.9085933">
        <time>2022-07-09T13:14:23Z</time>
      </trkpt>
      <trkpt lat="42.005383" lon="1.90869">
        <time>2022-07-09T13:14:25Z</time>
      </trkpt>
      <trkpt lat="42.00538" lon="1.908787">
        <time>2022-07-09T13:14:27Z</time>
      </trkpt>
      <trkpt lat="42.00538" lon="1.908885">
        <time>2022-07-09T13:14:29Z</time>
      </trkpt>
      <trkpt lat="42.00538" lon="1.9089841">
        <time>2022-07-09T13:14:31Z</time>
      </trkpt>
      <trkpt lat="42.005383" lon="1.9090847">
        <time>2022-07-09T13:14:33Z</time>
      </trkpt>
      <trkpt lat="42.005386" lon="1.9091864">
        <time>2022-07-09T13:14:35Z</time>
      </trkpt>
      <trkpt lat="42.00539" lon="1.909289">
        <time>2022-07-09T13:14:37Z</time>
      </trkpt>
      <trkpt lat="42.0054" lon="1.909393">
        <time>2022-07-09T13:14:39Z</time>
      </trkpt>
      <trkpt lat="42.005417" lon="1.9094924">
        <time>2022-07-09T13:14:41Z</time>
      </trkpt>
      <trkpt lat="42.005436" lon="1.9095913">
        <time>2022-07-09T13:14:43Z</time>
      </trkpt>
      <trkpt lat="42.00545" lon="1.909693">
        <time>2022-07-09T13:14:45Z</time>
      </trkpt>
      <trkpt lat="42.005466" lon="1.90979">
        <time>2022-07-09T13:14:47Z</time>
      </trkpt>
      <trkpt lat="42.00548" lon="1.9098903">
        <time>2022-07-09T13:14:49Z</time>
      </trkpt>
      <trkpt lat="42.005493" lon="1.9099896">
        <time>2022-07-09T13:14:51Z</time>
      </trkpt>
      <trkpt lat="42.0055" lon="1.910089">
        <time>2022-07-09T13:14:53Z</time>
      </trkpt>
      <trkpt lat="42.005505" lon="1.9101906">
        <time>2022-07-09T13:14:55Z</time>
      </trkpt>
      <trkpt lat="42.005505" lon="1.9102919">
        <time>2022-07-09T13:14:57Z</time>
      </trkpt>
      <trkpt lat="42.0055" lon="1.9103903">
        <time>2022-07-09T13:14:59Z</time>
      </trkpt>
      <trkpt lat="42.005493" lon="1.9104873">
        <time>2022-07-09T13:15:01Z</time>
      </trkpt>
      <trkpt lat="42.005486" lon="1.9105816">
        <time>2022-07-09T13:15:03Z</time>
      </trkpt>
      <trkpt lat="42.005474" lon="1.9106827">
        <time>2022-07-09T13:15:05Z</time>
      </trkpt>
      <trkpt lat="42.005463" lon="1.9107846">
        <time>2022-07-09T13:15:07Z</time>
      </trkpt>
      <trkpt lat="42.00545" lon="1.9108846">
        <time>2022-07-09T13:15:09Z</time>
      </trkpt>
      <trkpt lat="42.005436" lon="1.9109836">
        <time>2022-07-09T13:15:11Z</time>
      </trkpt>
      <trkpt lat="42.00543" lon="1.9110806">
        <time>2022-07-09T13:15:13Z</time>
      </trkpt>
      <trkpt lat="42.005417" lon="1.9111776">
        <time>2022-07-09T13:15:15Z</time>
      </trkpt>
      <trkpt lat="42.00541" lon="1.9112756">
        <time>2022-07-09T13:15:17Z</time>
      </trkpt>
      <trkpt lat="42.005394" lon="1.9113716">
        <time>2022-07-09T13:15:19Z</time>
      </trkpt>
      <trkpt lat="42.00538" lon="1.9114692">
        <time>2022-07-09T13:15:21Z</time>
      </trkpt>
      <trkpt lat="42.005367" lon="1.9115666">
        <time>2022-07-09T13:15:23Z</time>
      </trkpt>
      <trkpt lat="42.005352" lon="1.9116639">
        <time>2022-07-09T13:15:25Z</time>
      </trkpt>
      <trkpt lat="42.00534" lon="1.9117606">
        <time>2022-07-09T13:15:27Z</time>
      </trkpt>
      <trkpt lat="42.00533" lon="1.9118572">
        <time>2022-07-09T13:15:29Z</time>
      </trkpt>
      <trkpt lat="42.005318" lon="1.9119532">
        <time>2022-07-09T13:15:31Z</time>
      </trkpt>
      <trkpt lat="42.005306" lon="1.9120493">
        <time>2022-07-09T13:15:33Z</time>
      </trkpt>
      <trkpt lat="42.00529" lon="1.9121456">
        <time>2022-07-09T13:15:35Z</time>
      </trkpt>
      <trkpt lat="42.005272" lon="1.9122409">
        <time>2022-07-09T13:15:37Z</time>
      </trkpt>
      <trkpt lat="42.005245" lon="1.9123296">
        <time>2022-07-09T13:15:39Z</time>
      </trkpt>
      <trkpt lat="42.005207" lon="1.9124119">
        <time>2022-07-09T13:15:41Z</time>
      </trkpt>
      <trkpt lat="42.005165" lon="1.9124843">
        <time>2022-07-09T13:15:43Z</time>
      </trkpt>
      <trkpt lat="42.005116" lon="1.9125439">
        <time>2022-07-09T13:15:45Z</time>
      </trkpt>
      <trkpt lat="42.005062" lon="1.9125979">
        <time>2022-07-09T13:15:47Z</time>
      </trkpt>
      <trkpt lat="42.00501" lon="1.9126432">
        <time>2022-07-09T13:15:49Z</time>
      </trkpt>
      <trkpt lat="42.004955" lon="1.9126832">
        <time>2022-07-09T13:15:51Z</time>
      </trkpt>
      <trkpt lat="42.004906" lon="1.9127226">
        <time>2022-07-09T13:15:53Z</time>
      </trkpt>
      <trkpt lat="42.00486" lon="1.9127586">
        <time>2022-07-09T13:15:55Z</time>
      </trkpt>
      <trkpt lat="42.00481" lon="1.9127868">
        <time>2022-07-09T13:15:57Z</time>
      </trkpt>
      <trkpt lat="42.00476" lon="1.9128102">
        <time>2022-07-09T13:15:59Z</time>
      </trkpt>
      <trkpt lat="42.00471" lon="1.9128258">
        <time>2022-07-09T13:16:01Z</time>
      </trkpt>
      <trkpt lat="42.00464" lon="1.9128399">
        <time>2022-07-09T13:16:04Z</time>
      </trkpt>
      <trkpt lat="42.00459" lon="1.9128408">
        <time>2022-07-09T13:16:06Z</time>
      </trkpt>
      <trkpt lat="42.004513" lon="1.9128239">
        <time>2022-07-09T13:16:09Z</time>
      </trkpt>
      <trkpt lat="42.004444" lon="1.9127933">
        <time>2022-07-09T13:16:12Z</time>
      </trkpt>
      <trkpt lat="42.0044" lon="1.9127686">
        <time>2022-07-09T13:16:14Z</time>
      </trkpt>
      <trkpt lat="42.004333" lon="1.912728">
        <time>2022-07-09T13:16:17Z</time>
      </trkpt>
      <trkpt lat="42.00429" lon="1.9127018">
        <time>2022-07-09T13:16:19Z</time>
      </trkpt>
      <trkpt lat="42.004223" lon="1.9126632">
        <time>2022-07-09T13:16:22Z</time>
      </trkpt>
      <trkpt lat="42.004166" lon="1.9126192">
        <time>2022-07-09T13:16:25Z</time>
      </trkpt>
      <trkpt lat="42.004116" lon="1.9125619">
        <time>2022-07-09T13:16:28Z</time>
      </trkpt>
      <trkpt lat="42.00406" lon="1.9125059">
        <time>2022-07-09T13:16:31Z</time>
      </trkpt>
      <trkpt lat="42.004005" lon="1.9124646">
        <time>2022-07-09T13:16:34Z</time>
      </trkpt>
      <trkpt lat="42.00394" lon="1.9124286">
        <time>2022-07-09T13:16:37Z</time>
      </trkpt>
      <trkpt lat="42.003872" lon="1.9124062">
        <time>2022-07-09T13:16:40Z</time>
      </trkpt>
      <trkpt lat="42.003807" lon="1.9124053">
        <time>2022-07-09T13:16:43Z</time>
      </trkpt>
      <trkpt lat="42.00374" lon="1.9124256">
        <time>2022-07-09T13:16:46Z</time>
      </trkpt>
      <trkpt lat="42.00367" lon="1.9124606">
        <time>2022-07-09T13:16:49Z</time>
      </trkpt>
      <trkpt lat="42.003624" lon="1.9124936">
        <time>2022-07-09T13:16:51Z</time>
      </trkpt>
      <trkpt lat="42.003567" lon="1.9125546">
        <time>2022-07-09T13:16:54Z</time>
      </trkpt>
      <trkpt lat="42.003506" lon="1.9126116">
        <time>2022-07-09T13:16:57Z</time>
      </trkpt>
      <trkpt lat="42.00345" lon="1.9126626">
        <time>2022-07-09T13:17:00Z</time>
      </trkpt>
      <trkpt lat="42.00339" lon="1.9127146">
        <time>2022-07-09T13:17:03Z</time>
      </trkpt>
      <trkpt lat="42.003338" lon="1.9127712">
        <time>2022-07-09T13:17:06Z</time>
      </trkpt>
      <trkpt lat="42.00328" lon="1.9128199">
        <time>2022-07-09T13:17:09Z</time>
      </trkpt>
      <trkpt lat="42.003227" lon="1.9128726">
        <time>2022-07-09T13:17:12Z</time>
      </trkpt>
      <trkpt lat="42.003178" lon="1.9129349">
        <time>2022-07-09T13:17:15Z</time>
      </trkpt>
      <trkpt lat="42.003143" lon="1.9129813">
        <time>2022-07-09T13:17:17Z</time>
      </trkpt>
      <trkpt lat="42.003094" lon="1.9130483">
        <time>2022-07-09T13:17:20Z</time>
      </trkpt>
      <trkpt lat="42.00304" lon="1.9131129">
        <time>2022-07-09T13:17:23Z</time>
      </trkpt>
      <trkpt lat="42.002987" lon="1.9131758">
        <time>2022-07-09T13:17:26Z</time>
      </trkpt>
      <trkpt lat="42.002953" lon="1.9132233">
        <time>2022-07-09T13:17:28Z</time>
      </trkpt>
      <trkpt lat="42.00291" lon="1.9132909">
        <time>2022-07-09T13:17:31Z</time>
      </trkpt>
      <trkpt lat="42.00286" lon="1.9133602">
        <time>2022-07-09T13:17:34Z</time>
      </trkpt>
      <trkpt lat="42.002827" lon="1.9134059">
        <time>2022-07-09T13:17:36Z</time>
      </trkpt>
      <trkpt lat="42.00278" lon="1.9134772">
        <time>2022-07-09T13:17:39Z</time>
      </trkpt>
      <trkpt lat="42.002735" lon="1.9135451">
        <time>2022-07-09T13:17:42Z</time>
      </trkpt>
      <trkpt lat="42.00269" lon="1.9136152">
        <time>2022-07-09T13:17:45Z</time>
      </trkpt>
      <trkpt lat="42.00264" lon="1.9136872">
        <time>2022-07-09T13:17:48Z</time>
      </trkpt>
      <trkpt lat="42.00261" lon="1.9137332">
        <time>2022-07-09T13:17:50Z</time>
      </trkpt>
      <trkpt lat="42.002556" lon="1.9138045">
        <time>2022-07-09T13:17:53Z</time>
      </trkpt>
      <trkpt lat="42.00251" lon="1.9138769">
        <time>2022-07-09T13:17:56Z</time>
      </trkpt>
      <trkpt lat="42.00247" lon="1.9139522">
        <time>2022-07-09T13:17:59Z</time>
      </trkpt>
      <trkpt lat="42.00243" lon="1.9140322">
        <time>2022-07-09T13:18:02Z</time>
      </trkpt>
      <trkpt lat="42.00238" lon="1.9141382">
        <time>2022-07-09T13:18:06Z</time>
      </trkpt>
      <trkpt lat="42.002346" lon="1.9142245">
        <time>2022-07-09T13:18:09Z</time>
      </trkpt>
      <trkpt lat="42.002316" lon="1.9143132">
        <time>2022-07-09T13:18:12Z</time>
      </trkpt>
      <trkpt lat="42.002296" lon="1.9144042">
        <time>2022-07-09T13:18:15Z</time>
      </trkpt>
      <trkpt lat="42.00229" lon="1.9144938">
        <time>2022-07-09T13:18:18Z</time>
      </trkpt>
      <trkpt lat="42.002277" lon="1.9145541">
        <time>2022-07-09T13:18:20Z</time>
      </trkpt>
      <trkpt lat="42.00226" lon="1.9146438">
        <time>2022-07-09T13:18:23Z</time>
      </trkpt>
      <trkpt lat="42.002243" lon="1.9147358">
        <time>2022-07-09T13:18:26Z</time>
      </trkpt>
      <trkpt lat="42.002228" lon="1.9148295">
        <time>2022-07-09T13:18:29Z</time>
      </trkpt>
      <trkpt lat="42.0022" lon="1.9149188">
        <time>2022-07-09T13:18:32Z</time>
      </trkpt>
      <trkpt lat="42.002167" lon="1.9150051">
        <time>2022-07-09T13:18:35Z</time>
      </trkpt>
      <trkpt lat="42.002132" lon="1.9150875">
        <time>2022-07-09T13:18:38Z</time>
      </trkpt>
      <trkpt lat="42.002087" lon="1.9151641">
        <time>2022-07-09T13:18:41Z</time>
      </trkpt>
      <trkpt lat="42.00204" lon="1.9152408">
        <time>2022-07-09T13:18:44Z</time>
      </trkpt>
      <trkpt lat="42.002" lon="1.9153185">
        <time>2022-07-09T13:18:47Z</time>
      </trkpt>
      <trkpt lat="42.001965" lon="1.9153972">
        <time>2022-07-09T13:18:50Z</time>
      </trkpt>
      <trkpt lat="42.001923" lon="1.9154701">
        <time>2022-07-09T13:18:53Z</time>
      </trkpt>
      <trkpt lat="42.001877" lon="1.9155397">
        <time>2022-07-09T13:18:56Z</time>
      </trkpt>
      <trkpt lat="42.00183" lon="1.9156091">
        <time>2022-07-09T13:18:59Z</time>
      </trkpt>
      <trkpt lat="42.00178" lon="1.9156698">
        <time>2022-07-09T13:19:02Z</time>
      </trkpt>
      <trkpt lat="42.001728" lon="1.9157288">
        <time>2022-07-09T13:19:05Z</time>
      </trkpt>
      <trkpt lat="42.00166" lon="1.9158014">
        <time>2022-07-09T13:19:09Z</time>
      </trkpt>
      <trkpt lat="42.001606" lon="1.9158431">
        <time>2022-07-09T13:19:12Z</time>
      </trkpt>
      <trkpt lat="42.00155" lon="1.9158851">
        <time>2022-07-09T13:19:15Z</time>
      </trkpt>
      <trkpt lat="42.00149" lon="1.915925">
        <time>2022-07-09T13:19:18Z</time>
      </trkpt>
      <trkpt lat="42.001434" lon="1.9159614">
        <time>2022-07-09T13:19:21Z</time>
      </trkpt>
      <trkpt lat="42.001377" lon="1.9159931">
        <time>2022-07-09T13:19:24Z</time>
      </trkpt>
      <trkpt lat="42.00132" lon="1.9160284">
        <time>2022-07-09T13:19:27Z</time>
      </trkpt>
      <trkpt lat="42.001263" lon="1.9160604">
        <time>2022-07-09T13:19:30Z</time>
      </trkpt>
      <trkpt lat="42.0012" lon="1.9160904">
        <time>2022-07-09T13:19:33Z</time>
      </trkpt>
      <trkpt lat="42.00115" lon="1.9161204">
        <time>2022-07-09T13:19:36Z</time>
      </trkpt>
      <trkpt lat="42.00109" lon="1.9161568">
        <time>2022-07-09T13:19:39Z</time>
      </trkpt>
      <trkpt lat="42.001038" lon="1.9161897">
        <time>2022-07-09T13:19:42Z</time>
      </trkpt>
      <trkpt lat="42.00098" lon="1.9162234">
        <time>2022-07-09T13:19:45Z</time>
      </trkpt>
      <trkpt lat="42.000923" lon="1.9162548">
        <time>2022-07-09T13:19:48Z</time>
      </trkpt>
      <trkpt lat="42.000862" lon="1.9162904">
        <time>2022-07-09T13:19:51Z</time>
      </trkpt>
      <trkpt lat="42.000805" lon="1.916326">
        <time>2022-07-09T13:19:54Z</time>
      </trkpt>
      <trkpt lat="42.000744" lon="1.916363">
        <time>2022-07-09T13:19:57Z</time>
      </trkpt>
      <trkpt lat="42.000687" lon="1.9163971">
        <time>2022-07-09T13:20:00Z</time>
      </trkpt>
      <trkpt lat="42.000626" lon="1.9164307">
        <time>2022-07-09T13:20:03Z</time>
      </trkpt>
      <trkpt lat="42.00057" lon="1.916468">
        <time>2022-07-09T13:20:06Z</time>
      </trkpt>
      <trkpt lat="42.00051" lon="1.9165107">
        <time>2022-07-09T13:20:09Z</time>
      </trkpt>
      <trkpt lat="42.000454" lon="1.9165527">
        <time>2022-07-09T13:20:12Z</time>
      </trkpt>
      <trkpt lat="42.000393" lon="1.9165857">
        <time>2022-07-09T13:20:15Z</time>
      </trkpt>
      <trkpt lat="42.000336" lon="1.916616">
        <time>2022-07-09T13:20:18Z</time>
      </trkpt>
      <trkpt lat="42.000282" lon="1.9166473">
        <time>2022-07-09T13:20:21Z</time>
      </trkpt>
      <trkpt lat="42.000225" lon="1.9166857">
        <time>2022-07-09T13:20:24Z</time>
      </trkpt>
      <trkpt lat="42.000168" lon="1.9167197">
        <time>2022-07-09T13:20:27Z</time>
      </trkpt>
      <trkpt lat="42.00011" lon="1.9167414">
        <time>2022-07-09T13:20:30Z</time>
      </trkpt>
      <trkpt lat="42.00005" lon="1.9167644">
        <time>2022-07-09T13:20:33Z</time>
      </trkpt>
      <trkpt lat="41.999992" lon="1.9167824">
        <time>2022-07-09T13:20:36Z</time>
      </trkpt>
      <trkpt lat="41.999928" lon="1.9167874">
        <time>2022-07-09T13:20:39Z</time>
      </trkpt>
      <trkpt lat="41.999866" lon="1.9167876">
        <time>2022-07-09T13:20:42Z</time>
      </trkpt>
      <trkpt lat="41.999805" lon="1.9167776">
        <time>2022-07-09T13:20:45Z</time>
      </trkpt>
      <trkpt lat="41.999763" lon="1.9167657">
        <time>2022-07-09T13:20:48Z</time>
      </trkpt>
      <trkpt lat="41.999706" lon="1.916744">
        <time>2022-07-09T13:21:40Z</time>
      </trkpt>
      <trkpt lat="41.999653" lon="1.916714">
        <time>2022-07-09T13:21:43Z</time>
      </trkpt>
      <trkpt lat="41.99959" lon="1.9166796">
        <time>2022-07-09T13:21:46Z</time>
      </trkpt>
      <trkpt lat="41.999535" lon="1.9166423">
        <time>2022-07-09T13:21:49Z</time>
      </trkpt>
      <trkpt lat="41.99948" lon="1.916607">
        <time>2022-07-09T13:21:52Z</time>
      </trkpt>
      <trkpt lat="41.999424" lon="1.9165777">
        <time>2022-07-09T13:21:55Z</time>
      </trkpt>
      <trkpt lat="41.999363" lon="1.9165587">
        <time>2022-07-09T13:21:58Z</time>
      </trkpt>
      <trkpt lat="41.999302" lon="1.9165441">
        <time>2022-07-09T13:22:01Z</time>
      </trkpt>
      <trkpt lat="41.99924" lon="1.9165443">
        <time>2022-07-09T13:22:04Z</time>
      </trkpt>
      <trkpt lat="41.999187" lon="1.9165767">
        <time>2022-07-09T13:22:07Z</time>
      </trkpt>
      <trkpt lat="41.999134" lon="1.916626">
        <time>2022-07-09T13:22:10Z</time>
      </trkpt>
      <trkpt lat="41.99909" lon="1.9166833">
        <time>2022-07-09T13:22:13Z</time>
      </trkpt>
      <trkpt lat="41.99905" lon="1.916747">
        <time>2022-07-09T13:22:16Z</time>
      </trkpt>
      <trkpt lat="41.999027" lon="1.9168177">
        <time>2022-07-09T13:22:19Z</time>
      </trkpt>
      <trkpt lat="41.999016" lon="1.9168967">
        <time>2022-07-09T13:22:22Z</time>
      </trkpt>
      <trkpt lat="41.999012" lon="1.916979">
        <time>2022-07-09T13:22:25Z</time>
      </trkpt>
      <trkpt lat="41.999027" lon="1.9170597">
        <time>2022-07-09T13:22:28Z</time>
      </trkpt>
      <trkpt lat="41.999058" lon="1.9171354">
        <time>2022-07-09T13:22:31Z</time>
      </trkpt>
      <trkpt lat="41.9991" lon="1.917202">
        <time>2022-07-09T13:22:34Z</time>
      </trkpt>
      <trkpt lat="41.999153" lon="1.917253">
        <time>2022-07-09T13:22:37Z</time>
      </trkpt>
      <trkpt lat="41.99921" lon="1.9172963">
        <time>2022-07-09T13:22:40Z</time>
      </trkpt>
      <trkpt lat="41.99928" lon="1.9173334">
        <time>2022-07-09T13:22:43Z</time>
      </trkpt>
      <trkpt lat="41.99935" lon="1.9173577">
        <time>2022-07-09T13:22:46Z</time>
      </trkpt>
      <trkpt lat="41.999405" lon="1.917374">
        <time>2022-07-09T13:22:48Z</time>
      </trkpt>
      <trkpt lat="41.999454" lon="1.91739">
        <time>2022-07-09T13:22:50Z</time>
      </trkpt>
      <trkpt lat="41.999508" lon="1.9174026">
        <time>2022-07-09T13:22:52Z</time>
      </trkpt>
      <trkpt lat="41.999588" lon="1.9174166">
        <time>2022-07-09T13:22:55Z</time>
      </trkpt>
      <trkpt lat="41.999638" lon="1.917428">
        <time>2022-07-09T13:22:57Z</time>
      </trkpt>
      <trkpt lat="41.999714" lon="1.9174546">
        <time>2022-07-09T13:23:00Z</time>
      </trkpt>
      <trkpt lat="41.999763" lon="1.9174773">
        <time>2022-07-09T13:23:02Z</time>
      </trkpt>
      <trkpt lat="41.999817" lon="1.917501">
        <time>2022-07-09T13:23:04Z</time>
      </trkpt>
      <trkpt lat="41.999863" lon="1.9175273">
        <time>2022-07-09T13:23:06Z</time>
      </trkpt>
      <trkpt lat="41.999912" lon="1.9175619">
        <time>2022-07-09T13:23:08Z</time>
      </trkpt>
      <trkpt lat="41.999958" lon="1.9176023">
        <time>2022-07-09T13:23:10Z</time>
      </trkpt>
      <trkpt lat="41.999996" lon="1.9176499">
        <time>2022-07-09T13:23:12Z</time>
      </trkpt>
      <trkpt lat="42.00003" lon="1.9177042">
        <time>2022-07-09T13:23:14Z</time>
      </trkpt>
      <trkpt lat="42.000065" lon="1.9177579">
        <time>2022-07-09T13:23:16Z</time>
      </trkpt>
      <trkpt lat="42.0001" lon="1.9178102">
        <time>2022-07-09T13:23:18Z</time>
      </trkpt>
      <trkpt lat="42.00014" lon="1.9178863">
        <time>2022-07-09T13:23:21Z</time>
      </trkpt>
      <trkpt lat="42.000183" lon="1.9179609">
        <time>2022-07-09T13:23:24Z</time>
      </trkpt>
      <trkpt lat="42.000225" lon="1.9180323">
        <time>2022-07-09T13:23:27Z</time>
      </trkpt>
      <trkpt lat="42.000263" lon="1.918096">
        <time>2022-07-09T13:23:30Z</time>
      </trkpt>
      <trkpt lat="42.000294" lon="1.9181635">
        <time>2022-07-09T13:23:33Z</time>
      </trkpt>
      <trkpt lat="42.000324" lon="1.9182342">
        <time>2022-07-09T13:23:36Z</time>
      </trkpt>
      <trkpt lat="42.00035" lon="1.9183083">
        <time>2022-07-09T13:23:39Z</time>
      </trkpt>
      <trkpt lat="42.000374" lon="1.9183882">
        <time>2022-07-09T13:23:42Z</time>
      </trkpt>
      <trkpt lat="42.00039" lon="1.9184688">
        <time>2022-07-09T13:23:45Z</time>
      </trkpt>
      <trkpt lat="42.000404" lon="1.9185508">
        <time>2022-07-09T13:23:48Z</time>
      </trkpt>
      <trkpt lat="42.000412" lon="1.9186316">
        <time>2022-07-09T13:23:51Z</time>
      </trkpt>
      <trkpt lat="42.000412" lon="1.9187149">
        <time>2022-07-09T13:23:54Z</time>
      </trkpt>
      <trkpt lat="42.000416" lon="1.9187958">
        <time>2022-07-09T13:23:57Z</time>
      </trkpt>
      <trkpt lat="42.00041" lon="1.9188741">
        <time>2022-07-09T13:24:00Z</time>
      </trkpt>
      <trkpt lat="42.00039" lon="1.9189539">
        <time>2022-07-09T13:24:03Z</time>
      </trkpt>
      <trkpt lat="42.00037" lon="1.9190255">
        <time>2022-07-09T13:24:06Z</time>
      </trkpt>
      <trkpt lat="42.000336" lon="1.9190929">
        <time>2022-07-09T13:24:09Z</time>
      </trkpt>
      <trkpt lat="42.000294" lon="1.9191601">
        <time>2022-07-09T13:24:12Z</time>
      </trkpt>
      <trkpt lat="42.000256" lon="1.9192238">
        <time>2022-07-09T13:24:15Z</time>
      </trkpt>
      <trkpt lat="42.00021" lon="1.9192852">
        <time>2022-07-09T13:24:18Z</time>
      </trkpt>
      <trkpt lat="42.000168" lon="1.9193459">
        <time>2022-07-09T13:24:21Z</time>
      </trkpt>
      <trkpt lat="42.00013" lon="1.9194099">
        <time>2022-07-09T13:24:24Z</time>
      </trkpt>
      <trkpt lat="42.000095" lon="1.9194834">
        <time>2022-07-09T13:24:27Z</time>
      </trkpt>
      <trkpt lat="42.00006" lon="1.9195619">
        <time>2022-07-09T13:24:30Z</time>
      </trkpt>
      <trkpt lat="42.000034" lon="1.9196398">
        <time>2022-07-09T13:24:33Z</time>
      </trkpt>
      <trkpt lat="42.00001" lon="1.9197215">
        <time>2022-07-09T13:24:36Z</time>
      </trkpt>
      <trkpt lat="41.999996" lon="1.9198055">
        <time>2022-07-09T13:24:39Z</time>
      </trkpt>
      <trkpt lat="41.999985" lon="1.9198902">
        <time>2022-07-09T13:24:42Z</time>
      </trkpt>
      <trkpt lat="41.999973" lon="1.9199741">
        <time>2022-07-09T13:24:45Z</time>
      </trkpt>
      <trkpt lat="41.999966" lon="1.9200615">
        <time>2022-07-09T13:24:48Z</time>
      </trkpt>
      <trkpt lat="41.999966" lon="1.9201458">
        <time>2022-07-09T13:24:51Z</time>
      </trkpt>
      <trkpt lat="41.999966" lon="1.9202181">
        <time>2022-07-09T13:24:54Z</time>
      </trkpt>
      <trkpt lat="41.999966" lon="1.9203031">
        <time>2022-07-09T13:24:58Z</time>
      </trkpt>
      <trkpt lat="41.99996" lon="1.9203768">
        <time>2022-07-09T13:25:01Z</time>
      </trkpt>
      <trkpt lat="41.999966" lon="1.9204631">
        <time>2022-07-09T13:25:04Z</time>
      </trkpt>
      <trkpt lat="41.99997" lon="1.9205624">
        <time>2022-07-09T13:25:07Z</time>
      </trkpt>
      <trkpt lat="41.999966" lon="1.9206327">
        <time>2022-07-09T13:25:09Z</time>
      </trkpt>
      <trkpt lat="41.999966" lon="1.9207067">
        <time>2022-07-09T13:25:11Z</time>
      </trkpt>
      <trkpt lat="41.99996" lon="1.920788">
        <time>2022-07-09T13:25:13Z</time>
      </trkpt>
      <trkpt lat="41.999966" lon="1.9208714">
        <time>2022-07-09T13:25:15Z</time>
      </trkpt>
      <trkpt lat="41.999966" lon="1.9209614">
        <time>2022-07-09T13:25:17Z</time>
      </trkpt>
      <trkpt lat="41.999966" lon="1.9210641">
        <time>2022-07-09T13:25:19Z</time>
      </trkpt>
      <trkpt lat="41.99997" lon="1.9211787">
        <time>2022-07-09T13:25:21Z</time>
      </trkpt>
      <trkpt lat="41.999973" lon="1.9213014">
        <time>2022-07-09T13:25:23Z</time>
      </trkpt>
      <trkpt lat="41.999973" lon="1.9214071">
        <time>2022-07-09T13:25:25Z</time>
      </trkpt>
      <trkpt lat="41.999973" lon="1.9214714">
        <time>2022-07-09T13:25:27Z</time>
      </trkpt>
      <trkpt lat="41.999992" lon="1.9216107">
        <time>2022-07-09T13:26:17Z</time>
      </trkpt>
      <trkpt lat="41.99999" lon="1.92173">
        <time>2022-07-09T13:26:20Z</time>
      </trkpt>
      <trkpt lat="41.999985" lon="1.9218304">
        <time>2022-07-09T13:26:22Z</time>
      </trkpt>
      <trkpt lat="41.999985" lon="1.9219327">
        <time>2022-07-09T13:26:24Z</time>
      </trkpt>
      <trkpt lat="41.999985" lon="1.9220427">
        <time>2022-07-09T13:26:26Z</time>
      </trkpt>
      <trkpt lat="41.999985" lon="1.9221658">
        <time>2022-07-09T13:26:28Z</time>
      </trkpt>
      <trkpt lat="41.99999" lon="1.922292">
        <time>2022-07-09T13:26:30Z</time>
      </trkpt>
      <trkpt lat="41.999992" lon="1.9223604">
        <time>2022-07-09T13:26:31Z</time>
      </trkpt>
      <trkpt lat="41.999992" lon="1.9225144">
        <time>2022-07-09T13:26:33Z</time>
      </trkpt>
      <trkpt lat="41.999992" lon="1.9225941">
        <time>2022-07-09T13:26:34Z</time>
      </trkpt>
      <trkpt lat="41.999992" lon="1.9226787">
        <time>2022-07-09T13:26:35Z</time>
      </trkpt>
      <trkpt lat="41.999992" lon="1.9227667">
        <time>2022-07-09T13:26:36Z</time>
      </trkpt>
      <trkpt lat="41.999992" lon="1.9228593">
        <time>2022-07-09T13:26:37Z</time>
      </trkpt>
      <trkpt lat="41.999992" lon="1.922963">
        <time>2022-07-09T13:26:38Z</time>
      </trkpt>
      <trkpt lat="41.999992" lon="1.9230694">
        <time>2022-07-09T13:26:39Z</time>
      </trkpt>
      <trkpt lat="41.999996" lon="1.9231707">
        <time>2022-07-09T13:26:40Z</time>
      </trkpt>
      <trkpt lat="41.999996" lon="1.9232783">
        <time>2022-07-09T13:26:41Z</time>
      </trkpt>
      <trkpt lat="41.999996" lon="1.9233893">
        <time>2022-07-09T13:26:42Z</time>
      </trkpt>
      <trkpt lat="41.999996" lon="1.923514">
        <time>2022-07-09T13:26:43Z</time>
      </trkpt>
      <trkpt lat="41.999996" lon="1.9236397">
        <time>2022-07-09T13:26:44Z</time>
      </trkpt>
      <trkpt lat="41.999992" lon="1.9237673">
        <time>2022-07-09T13:26:45Z</time>
      </trkpt>
      <trkpt lat="41.99999" lon="1.9238896">
        <time>2022-07-09T13:26:46Z</time>
      </trkpt>
      <trkpt lat="41.99998" lon="1.9240156">
        <time>2022-07-09T13:26:47Z</time>
      </trkpt>
      <trkpt lat="41.999973" lon="1.9241457">
        <time>2022-07-09T13:26:48Z</time>
      </trkpt>
      <trkpt lat="41.999966" lon="1.924279">
        <time>2022-07-09T13:26:49Z</time>
      </trkpt>
      <trkpt lat="41.999954" lon="1.9244167">
        <time>2022-07-09T13:26:50Z</time>
      </trkpt>
      <trkpt lat="41.99994" lon="1.9245583">
        <time>2022-07-09T13:26:51Z</time>
      </trkpt>
      <trkpt lat="41.999928" lon="1.9247016">
        <time>2022-07-09T13:26:52Z</time>
      </trkpt>
      <trkpt lat="41.999916" lon="1.924838">
        <time>2022-07-09T13:26:53Z</time>
      </trkpt>
      <trkpt lat="41.999905" lon="1.9249793">
        <time>2022-07-09T13:26:54Z</time>
      </trkpt>
      <trkpt lat="41.99989" lon="1.9251319">
        <time>2022-07-09T13:26:55Z</time>
      </trkpt>
      <trkpt lat="41.999878" lon="1.925273">
        <time>2022-07-09T13:26:56Z</time>
      </trkpt>
      <trkpt lat="41.999866" lon="1.9254153">
        <time>2022-07-09T13:26:57Z</time>
      </trkpt>
      <trkpt lat="41.99985" lon="1.9255782">
        <time>2022-07-09T13:26:58Z</time>
      </trkpt>
      <trkpt lat="41.99984" lon="1.9257243">
        <time>2022-07-09T13:26:59Z</time>
      </trkpt>
      <trkpt lat="41.99983" lon="1.9258766">
        <time>2022-07-09T13:27:00Z</time>
      </trkpt>
      <trkpt lat="41.999817" lon="1.926014">
        <time>2022-07-09T13:27:01Z</time>
      </trkpt>
      <trkpt lat="41.999805" lon="1.9261576">
        <time>2022-07-09T13:27:02Z</time>
      </trkpt>
      <trkpt lat="41.999798" lon="1.9262946">
        <time>2022-07-09T13:27:03Z</time>
      </trkpt>
      <trkpt lat="41.999786" lon="1.9264183">
        <time>2022-07-09T13:27:04Z</time>
      </trkpt>
      <trkpt lat="41.99978" lon="1.9265493">
        <time>2022-07-09T13:27:05Z</time>
      </trkpt>
      <trkpt lat="41.999775" lon="1.9266769">
        <time>2022-07-09T13:27:06Z</time>
      </trkpt>
      <trkpt lat="41.99978" lon="1.9268032">
        <time>2022-07-09T13:27:07Z</time>
      </trkpt>
      <trkpt lat="41.99979" lon="1.9269276">
        <time>2022-07-09T13:27:08Z</time>
      </trkpt>
      <trkpt lat="41.99981" lon="1.9270482">
        <time>2022-07-09T13:27:09Z</time>
      </trkpt>
      <trkpt lat="41.99984" lon="1.9271653">
        <time>2022-07-09T13:27:10Z</time>
      </trkpt>
      <trkpt lat="41.999886" lon="1.9272779">
        <time>2022-07-09T13:27:11Z</time>
      </trkpt>
      <trkpt lat="41.999935" lon="1.9273859">
        <time>2022-07-09T13:27:12Z</time>
      </trkpt>
      <trkpt lat="41.999996" lon="1.9274889">
        <time>2022-07-09T13:27:13Z</time>
      </trkpt>
      <trkpt lat="42.00006" lon="1.9275879">
        <time>2022-07-09T13:27:14Z</time>
      </trkpt>
      <trkpt lat="42.000137" lon="1.9276823">
        <time>2022-07-09T13:27:15Z</time>
      </trkpt>
      <trkpt lat="42.000214" lon="1.9277738">
        <time>2022-07-09T13:27:16Z</time>
      </trkpt>
      <trkpt lat="42.000286" lon="1.9278592">
        <time>2022-07-09T13:27:17Z</time>
      </trkpt>
      <trkpt lat="42.000366" lon="1.9279453">
        <time>2022-07-09T13:27:18Z</time>
      </trkpt>
      <trkpt lat="42.00046" lon="1.9280362">
        <time>2022-07-09T13:27:19Z</time>
      </trkpt>
      <trkpt lat="42.00056" lon="1.9281249">
        <time>2022-07-09T13:27:20Z</time>
      </trkpt>
      <trkpt lat="42.000656" lon="1.9282146">
        <time>2022-07-09T13:27:21Z</time>
      </trkpt>
      <trkpt lat="42.000748" lon="1.9283051">
        <time>2022-07-09T13:27:22Z</time>
      </trkpt>
      <trkpt lat="42.000835" lon="1.9283909">
        <time>2022-07-09T13:27:23Z</time>
      </trkpt>
      <trkpt lat="42.000927" lon="1.9284865">
        <time>2022-07-09T13:27:24Z</time>
      </trkpt>
      <trkpt lat="42.001015" lon="1.9285812">
        <time>2022-07-09T13:27:25Z</time>
      </trkpt>
      <trkpt lat="42.001106" lon="1.9286755">
        <time>2022-07-09T13:27:26Z</time>
      </trkpt>
      <trkpt lat="42.001198" lon="1.9287672">
        <time>2022-07-09T13:27:27Z</time>
      </trkpt>
      <trkpt lat="42.00129" lon="1.9288545">
        <time>2022-07-09T13:27:28Z</time>
      </trkpt>
      <trkpt lat="42.00139" lon="1.9289342">
        <time>2022-07-09T13:27:29Z</time>
      </trkpt>
      <trkpt lat="42.00149" lon="1.9290044">
        <time>2022-07-09T13:27:30Z</time>
      </trkpt>
      <trkpt lat="42.0016" lon="1.9290632">
        <time>2022-07-09T13:27:31Z</time>
      </trkpt>
      <trkpt lat="42.001705" lon="1.9291108">
        <time>2022-07-09T13:27:32Z</time>
      </trkpt>
      <trkpt lat="42.00181" lon="1.9291478">
        <time>2022-07-09T13:27:33Z</time>
      </trkpt>
      <trkpt lat="42.001907" lon="1.9291772">
        <time>2022-07-09T13:27:34Z</time>
      </trkpt>
      <trkpt lat="42.002007" lon="1.9292004">
        <time>2022-07-09T13:27:35Z</time>
      </trkpt>
      <trkpt lat="42.002193" lon="1.9292492">
        <time>2022-07-09T13:27:37Z</time>
      </trkpt>
      <trkpt lat="42.002357" lon="1.9293247">
        <time>2022-07-09T13:27:39Z</time>
      </trkpt>
      <trkpt lat="42.002426" lon="1.9293888">
        <time>2022-07-09T13:27:40Z</time>
      </trkpt>
      <trkpt lat="42.00248" lon="1.9294665">
        <time>2022-07-09T13:27:41Z</time>
      </trkpt>
      <trkpt lat="42.002514" lon="1.929555">
        <time>2022-07-09T13:27:42Z</time>
      </trkpt>
      <trkpt lat="42.00253" lon="1.9296517">
        <time>2022-07-09T13:27:43Z</time>
      </trkpt>
      <trkpt lat="42.00253" lon="1.9297454">
        <time>2022-07-09T13:27:44Z</time>
      </trkpt>
      <trkpt lat="42.00251" lon="1.9298455">
        <time>2022-07-09T13:27:45Z</time>
      </trkpt>
      <trkpt lat="42.002472" lon="1.9299377">
        <time>2022-07-09T13:27:46Z</time>
      </trkpt>
      <trkpt lat="42.00242" lon="1.9300218">
        <time>2022-07-09T13:27:47Z</time>
      </trkpt>
      <trkpt lat="42.00236" lon="1.9300954">
        <time>2022-07-09T13:27:48Z</time>
      </trkpt>
      <trkpt lat="42.002296" lon="1.9301671">
        <time>2022-07-09T13:27:49Z</time>
      </trkpt>
      <trkpt lat="42.002228" lon="1.9302381">
        <time>2022-07-09T13:27:50Z</time>
      </trkpt>
      <trkpt lat="42.00216" lon="1.9303094">
        <time>2022-07-09T13:27:51Z</time>
      </trkpt>
      <trkpt lat="42.00209" lon="1.9303834">
        <time>2022-07-09T13:27:52Z</time>
      </trkpt>
      <trkpt lat="42.00202" lon="1.9304621">
        <time>2022-07-09T13:27:53Z</time>
      </trkpt>
      <trkpt lat="42.001957" lon="1.9305474">
        <time>2022-07-09T13:27:54Z</time>
      </trkpt>
      <trkpt lat="42.0019" lon="1.9306374">
        <time>2022-07-09T13:27:55Z</time>
      </trkpt>
      <trkpt lat="42.001842" lon="1.9307394">
        <time>2022-07-09T13:27:56Z</time>
      </trkpt>
      <trkpt lat="42.0018" lon="1.9308434">
        <time>2022-07-09T13:27:57Z</time>
      </trkpt>
      <trkpt lat="42.001762" lon="1.93095">
        <time>2022-07-09T13:27:58Z</time>
      </trkpt>
      <trkpt lat="42.00173" lon="1.9310594">
        <time>2022-07-09T13:27:59Z</time>
      </trkpt>
      <trkpt lat="42.001705" lon="1.9311734">
        <time>2022-07-09T13:28:00Z</time>
      </trkpt>
      <trkpt lat="42.00168" lon="1.9312878">
        <time>2022-07-09T13:28:01Z</time>
      </trkpt>
      <trkpt lat="42.00165" lon="1.9314021">
        <time>2022-07-09T13:28:02Z</time>
      </trkpt>
      <trkpt lat="42.00163" lon="1.9315157">
        <time>2022-07-09T13:28:03Z</time>
      </trkpt>
      <trkpt lat="42.00161" lon="1.9316294">
        <time>2022-07-09T13:28:04Z</time>
      </trkpt>
      <trkpt lat="42.00159" lon="1.9317434">
        <time>2022-07-09T13:28:05Z</time>
      </trkpt>
      <trkpt lat="42.001583" lon="1.9318503">
        <time>2022-07-09T13:28:06Z</time>
      </trkpt>
      <trkpt lat="42.00158" lon="1.9319667">
        <time>2022-07-09T13:28:07Z</time>
      </trkpt>
      <trkpt lat="42.001583" lon="1.9320728">
        <time>2022-07-09T13:28:08Z</time>
      </trkpt>
      <trkpt lat="42.0016" lon="1.932179">
        <time>2022-07-09T13:28:09Z</time>
      </trkpt>
      <trkpt lat="42.00162" lon="1.932292">
        <time>2022-07-09T13:28:10Z</time>
      </trkpt>
      <trkpt lat="42.001656" lon="1.9323996">
        <time>2022-07-09T13:28:11Z</time>
      </trkpt>
      <trkpt lat="42.001694" lon="1.932497">
        <time>2022-07-09T13:28:12Z</time>
      </trkpt>
      <trkpt lat="42.001743" lon="1.9325993">
        <time>2022-07-09T13:28:13Z</time>
      </trkpt>
      <trkpt lat="42.001793" lon="1.932699">
        <time>2022-07-09T13:28:14Z</time>
      </trkpt>
      <trkpt lat="42.001846" lon="1.932799">
        <time>2022-07-09T13:28:15Z</time>
      </trkpt>
      <trkpt lat="42.001896" lon="1.9329">
        <time>2022-07-09T13:28:16Z</time>
      </trkpt>
      <trkpt lat="42.00194" lon="1.932996">
        <time>2022-07-09T13:28:17Z</time>
      </trkpt>
      <trkpt lat="42.00198" lon="1.9330896">
        <time>2022-07-09T13:28:18Z</time>
      </trkpt>
      <trkpt lat="42.002014" lon="1.9331967">
        <time>2022-07-09T13:28:19Z</time>
      </trkpt>
      <trkpt lat="42.00204" lon="1.9333043">
        <time>2022-07-09T13:28:20Z</time>
      </trkpt>
      <trkpt lat="42.00206" lon="1.9334186">
        <time>2022-07-09T13:28:21Z</time>
      </trkpt>
      <trkpt lat="42.002064" lon="1.933529">
        <time>2022-07-09T13:28:22Z</time>
      </trkpt>
      <trkpt lat="42.002052" lon="1.9336307">
        <time>2022-07-09T13:28:23Z</time>
      </trkpt>
      <trkpt lat="42.002026" lon="1.9337183">
        <time>2022-07-09T13:28:24Z</time>
      </trkpt>
      <trkpt lat="42.00199" lon="1.9337883">
        <time>2022-07-09T13:28:25Z</time>
      </trkpt>
      <trkpt lat="42.00195" lon="1.9338443">
        <time>2022-07-09T13:28:26Z</time>
      </trkpt>
      <trkpt lat="42.0019" lon="1.9338866">
        <time>2022-07-09T13:28:27Z</time>
      </trkpt>
      <trkpt lat="42.001846" lon="1.9339147">
        <time>2022-07-09T13:28:28Z</time>
      </trkpt>
      <trkpt lat="42.001793" lon="1.9339266">
        <time>2022-07-09T13:28:29Z</time>
      </trkpt>
      <trkpt lat="42.00174" lon="1.933928">
        <time>2022-07-09T13:28:30Z</time>
      </trkpt>
      <trkpt lat="42.001686" lon="1.93392">
        <time>2022-07-09T13:28:31Z</time>
      </trkpt>
      <trkpt lat="42.001633" lon="1.9339106">
        <time>2022-07-09T13:28:32Z</time>
      </trkpt>
      <trkpt lat="42.001583" lon="1.933903">
        <time>2022-07-09T13:28:33Z</time>
      </trkpt>
      <trkpt lat="42.00149" lon="1.9338833">
        <time>2022-07-09T13:28:35Z</time>
      </trkpt>
      <trkpt lat="42.00145" lon="1.9338697">
        <time>2022-07-09T13:28:36Z</time>
      </trkpt>
      <trkpt lat="42.001366" lon="1.9338473">
        <time>2022-07-09T13:28:38Z</time>
      </trkpt>
      <trkpt lat="42.00125" lon="1.9338337">
        <time>2022-07-09T13:28:41Z</time>
      </trkpt>
      <trkpt lat="42.00118" lon="1.9338427">
        <time>2022-07-09T13:28:43Z</time>
      </trkpt>
      <trkpt lat="42.00111" lon="1.9338623">
        <time>2022-07-09T13:28:45Z</time>
      </trkpt>
      <trkpt lat="42.001045" lon="1.93389">
        <time>2022-07-09T13:28:47Z</time>
      </trkpt>
      <trkpt lat="42.00099" lon="1.9339327">
        <time>2022-07-09T13:28:49Z</time>
      </trkpt>
      <trkpt lat="42.000946" lon="1.9339987">
        <time>2022-07-09T13:28:51Z</time>
      </trkpt>
      <trkpt lat="42.000904" lon="1.9340737">
        <time>2022-07-09T13:28:53Z</time>
      </trkpt>
      <trkpt lat="42.000874" lon="1.934157">
        <time>2022-07-09T13:28:55Z</time>
      </trkpt>
      <trkpt lat="42.000854" lon="1.9342453">
        <time>2022-07-09T13:28:57Z</time>
      </trkpt>
      <trkpt lat="42.000843" lon="1.934338">
        <time>2022-07-09T13:28:59Z</time>
      </trkpt>
      <trkpt lat="42.00083" lon="1.9344326">
        <time>2022-07-09T13:29:01Z</time>
      </trkpt>
      <trkpt lat="42.000824" lon="1.934525">
        <time>2022-07-09T13:29:03Z</time>
      </trkpt>
      <trkpt lat="42.000813" lon="1.9346136">
        <time>2022-07-09T13:29:05Z</time>
      </trkpt>
      <trkpt lat="42.000797" lon="1.9346997">
        <time>2022-07-09T13:29:07Z</time>
      </trkpt>
      <trkpt lat="42.000782" lon="1.934781">
        <time>2022-07-09T13:29:09Z</time>
      </trkpt>
      <trkpt lat="42.000763" lon="1.9348539">
        <time>2022-07-09T13:29:11Z</time>
      </trkpt>
      <trkpt lat="42.000744" lon="1.9349223">
        <time>2022-07-09T13:29:13Z</time>
      </trkpt>
      <trkpt lat="42.00072" lon="1.9349899">
        <time>2022-07-09T13:29:15Z</time>
      </trkpt>
      <trkpt lat="42.000687" lon="1.9350523">
        <time>2022-07-09T13:29:17Z</time>
      </trkpt>
      <trkpt lat="42.00065" lon="1.9351056">
        <time>2022-07-09T13:29:19Z</time>
      </trkpt>
      <trkpt lat="42.000607" lon="1.935151">
        <time>2022-07-09T13:29:21Z</time>
      </trkpt>
      <trkpt lat="42.00056" lon="1.9351889">
        <time>2022-07-09T13:29:23Z</time>
      </trkpt>
      <trkpt lat="42.000515" lon="1.9352186">
        <time>2022-07-09T13:29:25Z</time>
      </trkpt>
      <trkpt lat="42.000465" lon="1.9352349">
        <time>2022-07-09T13:29:27Z</time>
      </trkpt>
      <trkpt lat="42.000397" lon="1.9352429">
        <time>2022-07-09T13:29:30Z</time>
      </trkpt>
      <trkpt lat="42.00033" lon="1.9352319">
        <time>2022-07-09T13:29:33Z</time>
      </trkpt>
      <trkpt lat="42.000267" lon="1.935218">
        <time>2022-07-09T13:29:36Z</time>
      </trkpt>
      <trkpt lat="42.000206" lon="1.9351976">
        <time>2022-07-09T13:29:39Z</time>
      </trkpt>
      <trkpt lat="42.00015" lon="1.935169">
        <time>2022-07-09T13:29:42Z</time>
      </trkpt>
      <trkpt lat="42.000095" lon="1.9351406">
        <time>2022-07-09T13:29:45Z</time>
      </trkpt>
      <trkpt lat="42.000042" lon="1.9351085">
        <time>2022-07-09T13:29:48Z</time>
      </trkpt>
      <trkpt lat="41.999985" lon="1.9350706">
        <time>2022-07-09T13:29:51Z</time>
      </trkpt>
      <trkpt lat="41.99993" lon="1.9350333">
        <time>2022-07-09T13:29:54Z</time>
      </trkpt>
      <trkpt lat="41.999874" lon="1.9349983">
        <time>2022-07-09T13:29:57Z</time>
      </trkpt>
      <trkpt lat="41.99982" lon="1.9349597">
        <time>2022-07-09T13:30:00Z</time>
      </trkpt>
      <trkpt lat="41.99976" lon="1.9349216">
        <time>2022-07-09T13:30:03Z</time>
      </trkpt>
      <trkpt lat="41.999702" lon="1.9348893">
        <time>2022-07-09T13:30:06Z</time>
      </trkpt>
      <trkpt lat="41.99965" lon="1.9348656">
        <time>2022-07-09T13:30:09Z</time>
      </trkpt>
      <trkpt lat="41.99959" lon="1.9348563">
        <time>2022-07-09T13:30:12Z</time>
      </trkpt>
      <trkpt lat="41.99953" lon="1.9348689">
        <time>2022-07-09T13:30:15Z</time>
      </trkpt>
      <trkpt lat="41.999474" lon="1.9348936">
        <time>2022-07-09T13:30:18Z</time>
      </trkpt>
      <trkpt lat="41.999416" lon="1.9349283">
        <time>2022-07-09T13:30:21Z</time>
      </trkpt>
      <trkpt lat="41.99936" lon="1.9349669">
        <time>2022-07-09T13:30:24Z</time>
      </trkpt>
      <trkpt lat="41.99931" lon="1.9350185">
        <time>2022-07-09T13:30:27Z</time>
      </trkpt>
      <trkpt lat="41.999264" lon="1.9350803">
        <time>2022-07-09T13:30:30Z</time>
      </trkpt>
      <trkpt lat="41.999214" lon="1.9351426">
        <time>2022-07-09T13:30:33Z</time>
      </trkpt>
      <trkpt lat="41.99917" lon="1.9352052">
        <time>2022-07-09T13:30:36Z</time>
      </trkpt>
      <trkpt lat="41.999123" lon="1.9352713">
        <time>2022-07-09T13:30:39Z</time>
      </trkpt>
      <trkpt lat="41.999077" lon="1.9353439">
        <time>2022-07-09T13:30:42Z</time>
      </trkpt>
      <trkpt lat="41.999046" lon="1.9353929">
        <time>2022-07-09T13:30:44Z</time>
      </trkpt>
      <trkpt lat="41.998997" lon="1.9354626">
        <time>2022-07-09T13:30:47Z</time>
      </trkpt>
      <trkpt lat="41.998955" lon="1.9355276">
        <time>2022-07-09T13:30:50Z</time>
      </trkpt>
      <trkpt lat="41.99891" lon="1.9355942">
        <time>2022-07-09T13:30:53Z</time>
      </trkpt>
      <trkpt lat="41.99887" lon="1.9356552">
        <time>2022-07-09T13:30:56Z</time>
      </trkpt>
      <trkpt lat="41.998833" lon="1.9357239">
        <time>2022-07-09T13:30:59Z</time>
      </trkpt>
      <trkpt lat="41.998802" lon="1.9358032">
        <time>2022-07-09T13:31:02Z</time>
      </trkpt>
      <trkpt lat="41.99878" lon="1.9358848">
        <time>2022-07-09T13:31:05Z</time>
      </trkpt>
      <trkpt lat="41.99876" lon="1.9359665">
        <time>2022-07-09T13:31:08Z</time>
      </trkpt>
      <trkpt lat="41.99875" lon="1.9360645">
        <time>2022-07-09T13:31:11Z</time>
      </trkpt>
      <trkpt lat="41.998753" lon="1.9361448">
        <time>2022-07-09T13:31:13Z</time>
      </trkpt>
      <trkpt lat="41.998768" lon="1.9362335">
        <time>2022-07-09T13:31:15Z</time>
      </trkpt>
      <trkpt lat="41.9988" lon="1.9363306">
        <time>2022-07-09T13:31:17Z</time>
      </trkpt>
      <trkpt lat="41.99885" lon="1.9364365">
        <time>2022-07-09T13:31:19Z</time>
      </trkpt>
      <trkpt lat="41.998886" lon="1.9364959">
        <time>2022-07-09T13:31:20Z</time>
      </trkpt>
      <trkpt lat="41.99892" lon="1.9365622">
        <time>2022-07-09T13:31:21Z</time>
      </trkpt>
      <trkpt lat="41.99895" lon="1.9366375">
        <time>2022-07-09T13:31:22Z</time>
      </trkpt>
      <trkpt lat="41.99898" lon="1.9367218">
        <time>2022-07-09T13:31:23Z</time>
      </trkpt>
      <trkpt lat="41.999004" lon="1.9368159">
        <time>2022-07-09T13:31:24Z</time>
      </trkpt>
      <trkpt lat="41.999016" lon="1.9369231">
        <time>2022-07-09T13:31:25Z</time>
      </trkpt>
      <trkpt lat="41.999016" lon="1.9370315">
        <time>2022-07-09T13:31:26Z</time>
      </trkpt>
      <trkpt lat="41.999004" lon="1.9371401">
        <time>2022-07-09T13:31:27Z</time>
      </trkpt>
      <trkpt lat="41.99899" lon="1.9372488">
        <time>2022-07-09T13:31:28Z</time>
      </trkpt>
      <trkpt lat="41.99897" lon="1.9373509">
        <time>2022-07-09T13:31:29Z</time>
      </trkpt>
      <trkpt lat="41.998943" lon="1.9374621">
        <time>2022-07-09T13:31:30Z</time>
      </trkpt>
      <trkpt lat="41.998917" lon="1.9375648">
        <time>2022-07-09T13:31:31Z</time>
      </trkpt>
      <trkpt lat="41.998886" lon="1.9376684">
        <time>2022-07-09T13:31:32Z</time>
      </trkpt>
      <trkpt lat="41.998856" lon="1.9377728">
        <time>2022-07-09T13:31:33Z</time>
      </trkpt>
      <trkpt lat="41.99882" lon="1.9378774">
        <time>2022-07-09T13:31:34Z</time>
      </trkpt>
      <trkpt lat="41.998787" lon="1.9379811">
        <time>2022-07-09T13:31:35Z</time>
      </trkpt>
      <trkpt lat="41.998756" lon="1.9380838">
        <time>2022-07-09T13:31:36Z</time>
      </trkpt>
      <trkpt lat="41.998722" lon="1.9381864">
        <time>2022-07-09T13:31:37Z</time>
      </trkpt>
      <trkpt lat="41.998688" lon="1.938289">
        <time>2022-07-09T13:31:38Z</time>
      </trkpt>
      <trkpt lat="41.998657" lon="1.9383901">
        <time>2022-07-09T13:31:39Z</time>
      </trkpt>
      <trkpt lat="41.998623" lon="1.9384894">
        <time>2022-07-09T13:31:40Z</time>
      </trkpt>
      <trkpt lat="41.99859" lon="1.9385874">
        <time>2022-07-09T13:31:41Z</time>
      </trkpt>
      <trkpt lat="41.998558" lon="1.9386834">
        <time>2022-07-09T13:31:42Z</time>
      </trkpt>
      <trkpt lat="41.998528" lon="1.9387767">
        <time>2022-07-09T13:31:43Z</time>
      </trkpt>
      <trkpt lat="41.998497" lon="1.9388674">
        <time>2022-07-09T13:31:44Z</time>
      </trkpt>
      <trkpt lat="41.99847" lon="1.9389547">
        <time>2022-07-09T13:31:45Z</time>
      </trkpt>
      <trkpt lat="41.998444" lon="1.9390395">
        <time>2022-07-09T13:31:46Z</time>
      </trkpt>
      <trkpt lat="41.998417" lon="1.9391228">
        <time>2022-07-09T13:31:47Z</time>
      </trkpt>
      <trkpt lat="41.99839" lon="1.9392045">
        <time>2022-07-09T13:31:48Z</time>
      </trkpt>
      <trkpt lat="41.998363" lon="1.9392837">
        <time>2022-07-09T13:31:49Z</time>
      </trkpt>
      <trkpt lat="41.99834" lon="1.9393624">
        <time>2022-07-09T13:31:50Z</time>
      </trkpt>
      <trkpt lat="41.998318" lon="1.93944">
        <time>2022-07-09T13:31:51Z</time>
      </trkpt>
      <trkpt lat="41.998295" lon="1.9395177">
        <time>2022-07-09T13:31:52Z</time>
      </trkpt>
      <trkpt lat="41.99828" lon="1.9395953">
        <time>2022-07-09T13:31:53Z</time>
      </trkpt>
      <trkpt lat="41.99826" lon="1.9397534">
        <time>2022-07-09T13:31:55Z</time>
      </trkpt>
      <trkpt lat="41.99826" lon="1.939833">
        <time>2022-07-09T13:31:56Z</time>
      </trkpt>
      <trkpt lat="41.998264" lon="1.9399114">
        <time>2022-07-09T13:31:57Z</time>
      </trkpt>
      <trkpt lat="41.998276" lon="1.9399863">
        <time>2022-07-09T13:31:58Z</time>
      </trkpt>
      <trkpt lat="41.9983" lon="1.9400584">
        <time>2022-07-09T13:31:59Z</time>
      </trkpt>
      <trkpt lat="41.998325" lon="1.9401277">
        <time>2022-07-09T13:32:00Z</time>
      </trkpt>
      <trkpt lat="41.99836" lon="1.9401933">
        <time>2022-07-09T13:32:01Z</time>
      </trkpt>
      <trkpt lat="41.9984" lon="1.9402556">
        <time>2022-07-09T13:32:02Z</time>
      </trkpt>
      <trkpt lat="41.99845" lon="1.9403133">
        <time>2022-07-09T13:32:03Z</time>
      </trkpt>
      <trkpt lat="41.99851" lon="1.940368">
        <time>2022-07-09T13:32:04Z</time>
      </trkpt>
      <trkpt lat="41.998566" lon="1.940422">
        <time>2022-07-09T13:32:05Z</time>
      </trkpt>
      <trkpt lat="41.998627" lon="1.9404783">
        <time>2022-07-09T13:32:06Z</time>
      </trkpt>
      <trkpt lat="41.998688" lon="1.940541">
        <time>2022-07-09T13:32:07Z</time>
      </trkpt>
      <trkpt lat="41.998745" lon="1.9406143">
        <time>2022-07-09T13:32:08Z</time>
      </trkpt>
      <trkpt lat="41.998795" lon="1.9406986">
        <time>2022-07-09T13:32:09Z</time>
      </trkpt>
      <trkpt lat="41.998837" lon="1.9407914">
        <time>2022-07-09T13:32:10Z</time>
      </trkpt>
      <trkpt lat="41.998875" lon="1.940891">
        <time>2022-07-09T13:32:11Z</time>
      </trkpt>
      <trkpt lat="41.998898" lon="1.9409959">
        <time>2022-07-09T13:32:12Z</time>
      </trkpt>
      <trkpt lat="41.998913" lon="1.941105">
        <time>2022-07-09T13:32:13Z</time>
      </trkpt>
      <trkpt lat="41.998924" lon="1.9412153">
        <time>2022-07-09T13:32:14Z</time>
      </trkpt>
      <trkpt lat="41.99893" lon="1.9413257">
        <time>2022-07-09T13:32:15Z</time>
      </trkpt>
      <trkpt lat="41.99894" lon="1.9414356">
        <time>2022-07-09T13:32:16Z</time>
      </trkpt>
      <trkpt lat="41.99895" lon="1.9415452">
        <time>2022-07-09T13:32:17Z</time>
      </trkpt>
      <trkpt lat="41.998974" lon="1.941661">
        <time>2022-07-09T13:32:18Z</time>
      </trkpt>
      <trkpt lat="41.999" lon="1.9417716">
        <time>2022-07-09T13:32:19Z</time>
      </trkpt>
      <trkpt lat="41.999046" lon="1.9418736">
        <time>2022-07-09T13:32:20Z</time>
      </trkpt>
      <trkpt lat="41.9991" lon="1.9419619">
        <time>2022-07-09T13:32:21Z</time>
      </trkpt>
      <trkpt lat="41.999165" lon="1.9420322">
        <time>2022-07-09T13:32:22Z</time>
      </trkpt>
      <trkpt lat="41.999237" lon="1.9420873">
        <time>2022-07-09T13:32:23Z</time>
      </trkpt>
      <trkpt lat="41.99933" lon="1.9421287">
        <time>2022-07-09T13:32:24Z</time>
      </trkpt>
      <trkpt lat="41.99942" lon="1.9421586">
        <time>2022-07-09T13:32:25Z</time>
      </trkpt>
      <trkpt lat="41.99952" lon="1.9421823">
        <time>2022-07-09T13:32:26Z</time>
      </trkpt>
      <trkpt lat="41.999622" lon="1.9422013">
        <time>2022-07-09T13:32:27Z</time>
      </trkpt>
      <trkpt lat="41.999737" lon="1.9422183">
        <time>2022-07-09T13:32:28Z</time>
      </trkpt>
      <trkpt lat="41.999847" lon="1.9422336">
        <time>2022-07-09T13:32:29Z</time>
      </trkpt>
      <trkpt lat="41.99996" lon="1.9422482">
        <time>2022-07-09T13:32:30Z</time>
      </trkpt>
      <trkpt lat="42.000072" lon="1.9422619">
        <time>2022-07-09T13:32:31Z</time>
      </trkpt>
      <trkpt lat="42.000187" lon="1.9422742">
        <time>2022-07-09T13:32:32Z</time>
      </trkpt>
      <trkpt lat="42.0003" lon="1.9422859">
        <time>2022-07-09T13:32:33Z</time>
      </trkpt>
      <trkpt lat="42.000423" lon="1.9422992">
        <time>2022-07-09T13:32:34Z</time>
      </trkpt>
      <trkpt lat="42.00054" lon="1.9423113">
        <time>2022-07-09T13:32:35Z</time>
      </trkpt>
      <trkpt lat="42.000656" lon="1.9423239">
        <time>2022-07-09T13:32:36Z</time>
      </trkpt>
      <trkpt lat="42.000763" lon="1.9423373">
        <time>2022-07-09T13:32:37Z</time>
      </trkpt>
      <trkpt lat="42.000866" lon="1.9423538">
        <time>2022-07-09T13:32:38Z</time>
      </trkpt>
      <trkpt lat="42.00097" lon="1.9423748">
        <time>2022-07-09T13:32:39Z</time>
      </trkpt>
      <trkpt lat="42.00106" lon="1.9423999">
        <time>2022-07-09T13:32:40Z</time>
      </trkpt>
      <trkpt lat="42.00115" lon="1.9424316">
        <time>2022-07-09T13:32:41Z</time>
      </trkpt>
      <trkpt lat="42.00123" lon="1.9424732">
        <time>2022-07-09T13:32:42Z</time>
      </trkpt>
      <trkpt lat="42.0013" lon="1.9425288">
        <time>2022-07-09T13:32:43Z</time>
      </trkpt>
      <trkpt lat="42.001366" lon="1.9426001">
        <time>2022-07-09T13:32:44Z</time>
      </trkpt>
      <trkpt lat="42.00142" lon="1.9426862">
        <time>2022-07-09T13:32:45Z</time>
      </trkpt>
      <trkpt lat="42.001457" lon="1.9427868">
        <time>2022-07-09T13:32:46Z</time>
      </trkpt>
      <trkpt lat="42.00149" lon="1.9429005">
        <time>2022-07-09T13:32:47Z</time>
      </trkpt>
      <trkpt lat="42.001514" lon="1.9430232">
        <time>2022-07-09T13:32:48Z</time>
      </trkpt>
      <trkpt lat="42.001534" lon="1.9431539">
        <time>2022-07-09T13:32:49Z</time>
      </trkpt>
      <trkpt lat="42.001545" lon="1.9432862">
        <time>2022-07-09T13:32:50Z</time>
      </trkpt>
      <trkpt lat="42.00155" lon="1.9434192">
        <time>2022-07-09T13:32:51Z</time>
      </trkpt>
      <trkpt lat="42.00155" lon="1.9435438">
        <time>2022-07-09T13:32:52Z</time>
      </trkpt>
      <trkpt lat="42.00154" lon="1.9436594">
        <time>2022-07-09T13:32:53Z</time>
      </trkpt>
      <trkpt lat="42.001526" lon="1.9437681">
        <time>2022-07-09T13:32:54Z</time>
      </trkpt>
      <trkpt lat="42.0015" lon="1.9438708">
        <time>2022-07-09T13:32:55Z</time>
      </trkpt>
      <trkpt lat="42.00146" lon="1.9439651">
        <time>2022-07-09T13:32:56Z</time>
      </trkpt>
      <trkpt lat="42.00142" lon="1.9440448">
        <time>2022-07-09T13:32:57Z</time>
      </trkpt>
      <trkpt lat="42.00129" lon="1.9441857">
        <time>2022-07-09T13:32:59Z</time>
      </trkpt>
      <trkpt lat="42.00121" lon="1.9442505">
        <time>2022-07-09T13:33:00Z</time>
      </trkpt>
      <trkpt lat="42.00113" lon="1.9443117">
        <time>2022-07-09T13:33:01Z</time>
      </trkpt>
      <trkpt lat="42.001045" lon="1.9443711">
        <time>2022-07-09T13:33:02Z</time>
      </trkpt>
      <trkpt lat="42.00096" lon="1.9444255">
        <time>2022-07-09T13:33:03Z</time>
      </trkpt>
      <trkpt lat="42.00087" lon="1.944483">
        <time>2022-07-09T13:33:04Z</time>
      </trkpt>
      <trkpt lat="42.00078" lon="1.9445398">
        <time>2022-07-09T13:33:05Z</time>
      </trkpt>
      <trkpt lat="42.000687" lon="1.944596">
        <time>2022-07-09T13:33:06Z</time>
      </trkpt>
      <trkpt lat="42.000595" lon="1.9446514">
        <time>2022-07-09T13:33:07Z</time>
      </trkpt>
      <trkpt lat="42.000507" lon="1.9447031">
        <time>2022-07-09T13:33:08Z</time>
      </trkpt>
      <trkpt lat="42.00042" lon="1.9447567">
        <time>2022-07-09T13:33:09Z</time>
      </trkpt>
      <trkpt lat="42.000324" lon="1.9448161">
        <time>2022-07-09T13:33:10Z</time>
      </trkpt>
      <trkpt lat="42.00024" lon="1.944874">
        <time>2022-07-09T13:33:11Z</time>
      </trkpt>
      <trkpt lat="42.000153" lon="1.9449464">
        <time>2022-07-09T13:33:12Z</time>
      </trkpt>
      <trkpt lat="42.00008" lon="1.945019">
        <time>2022-07-09T13:33:13Z</time>
      </trkpt>
      <trkpt lat="42.000015" lon="1.9451007">
        <time>2022-07-09T13:33:14Z</time>
      </trkpt>
      <trkpt lat="41.999958" lon="1.945199">
        <time>2022-07-09T13:33:15Z</time>
      </trkpt>
      <trkpt lat="41.999912" lon="1.9453031">
        <time>2022-07-09T13:33:16Z</time>
      </trkpt>
      <trkpt lat="41.999874" lon="1.9454113">
        <time>2022-07-09T13:33:17Z</time>
      </trkpt>
      <trkpt lat="41.99985" lon="1.9455221">
        <time>2022-07-09T13:33:18Z</time>
      </trkpt>
      <trkpt lat="41.999832" lon="1.945628">
        <time>2022-07-09T13:33:19Z</time>
      </trkpt>
      <trkpt lat="41.99982" lon="1.9457437">
        <time>2022-07-09T13:33:20Z</time>
      </trkpt>
      <trkpt lat="41.999817" lon="1.945857">
        <time>2022-07-09T13:33:21Z</time>
      </trkpt>
      <trkpt lat="41.999825" lon="1.9459693">
        <time>2022-07-09T13:33:22Z</time>
      </trkpt>
      <trkpt lat="41.999844" lon="1.9460707">
        <time>2022-07-09T13:33:23Z</time>
      </trkpt>
      <trkpt lat="41.999878" lon="1.9461731">
        <time>2022-07-09T13:33:24Z</time>
      </trkpt>
      <trkpt lat="41.999928" lon="1.946269">
        <time>2022-07-09T13:33:25Z</time>
      </trkpt>
      <trkpt lat="41.99998" lon="1.9463627">
        <time>2022-07-09T13:33:26Z</time>
      </trkpt>
      <trkpt lat="42.000042" lon="1.9464504">
        <time>2022-07-09T13:33:27Z</time>
      </trkpt>
      <trkpt lat="42.000103" lon="1.9465407">
        <time>2022-07-09T13:33:28Z</time>
      </trkpt>
      <trkpt lat="42.00016" lon="1.946636">
        <time>2022-07-09T13:33:29Z</time>
      </trkpt>
      <trkpt lat="42.00021" lon="1.946736">
        <time>2022-07-09T13:33:30Z</time>
      </trkpt>
      <trkpt lat="42.00025" lon="1.946851">
        <time>2022-07-09T13:33:31Z</time>
      </trkpt>
      <trkpt lat="42.000286" lon="1.9469707">
        <time>2022-07-09T13:33:32Z</time>
      </trkpt>
      <trkpt lat="42.0003" lon="1.9470943">
        <time>2022-07-09T13:33:33Z</time>
      </trkpt>
      <trkpt lat="42.000313" lon="1.947214">
        <time>2022-07-09T13:33:34Z</time>
      </trkpt>
      <trkpt lat="42.000313" lon="1.947348">
        <time>2022-07-09T13:33:35Z</time>
      </trkpt>
      <trkpt lat="42.000305" lon="1.9474777">
        <time>2022-07-09T13:33:36Z</time>
      </trkpt>
      <trkpt lat="42.000282" lon="1.9475996">
        <time>2022-07-09T13:33:37Z</time>
      </trkpt>
      <trkpt lat="42.000248" lon="1.9477103">
        <time>2022-07-09T13:33:38Z</time>
      </trkpt>
      <trkpt lat="42.000206" lon="1.9478027">
        <time>2022-07-09T13:33:39Z</time>
      </trkpt>
      <trkpt lat="42.00014" lon="1.9478849">
        <time>2022-07-09T13:33:40Z</time>
      </trkpt>
      <trkpt lat="42.000072" lon="1.9479553">
        <time>2022-07-09T13:33:41Z</time>
      </trkpt>
      <trkpt lat="41.999996" lon="1.9480156">
        <time>2022-07-09T13:33:42Z</time>
      </trkpt>
      <trkpt lat="41.99992" lon="1.9480666">
        <time>2022-07-09T13:33:43Z</time>
      </trkpt>
      <trkpt lat="41.99984" lon="1.9481136">
        <time>2022-07-09T13:33:44Z</time>
      </trkpt>
      <trkpt lat="41.99976" lon="1.9481577">
        <time>2022-07-09T13:33:45Z</time>
      </trkpt>
      <trkpt lat="41.99967" lon="1.9482002">
        <time>2022-07-09T13:33:46Z</time>
      </trkpt>
      <trkpt lat="41.999573" lon="1.9482383">
        <time>2022-07-09T13:33:47Z</time>
      </trkpt>
      <trkpt lat="41.99948" lon="1.9482703">
        <time>2022-07-09T13:33:48Z</time>
      </trkpt>
      <trkpt lat="41.9994" lon="1.9482952">
        <time>2022-07-09T13:33:49Z</time>
      </trkpt>
      <trkpt lat="41.999317" lon="1.9483136">
        <time>2022-07-09T13:33:50Z</time>
      </trkpt>
      <trkpt lat="41.99923" lon="1.9483236">
        <time>2022-07-09T13:33:51Z</time>
      </trkpt>
      <trkpt lat="41.99915" lon="1.9483266">
        <time>2022-07-09T13:33:52Z</time>
      </trkpt>
      <trkpt lat="41.999077" lon="1.9483199">
        <time>2022-07-09T13:33:53Z</time>
      </trkpt>
      <trkpt lat="41.999012" lon="1.9483056">
        <time>2022-07-09T13:33:54Z</time>
      </trkpt>
      <trkpt lat="41.99895" lon="1.9482796">
        <time>2022-07-09T13:33:55Z</time>
      </trkpt>
      <trkpt lat="41.998894" lon="1.9482403">
        <time>2022-07-09T13:33:56Z</time>
      </trkpt>
      <trkpt lat="41.99884" lon="1.9481887">
        <time>2022-07-09T13:33:57Z</time>
      </trkpt>
      <trkpt lat="41.99879" lon="1.9481189">
        <time>2022-07-09T13:33:58Z</time>
      </trkpt>
      <trkpt lat="41.998753" lon="1.948046">
        <time>2022-07-09T13:33:59Z</time>
      </trkpt>
      <trkpt lat="41.998714" lon="1.9479634">
        <time>2022-07-09T13:34:00Z</time>
      </trkpt>
      <trkpt lat="41.99868" lon="1.9478693">
        <time>2022-07-09T13:34:01Z</time>
      </trkpt>
      <trkpt lat="41.998604" lon="1.9476904">
        <time>2022-07-09T13:34:03Z</time>
      </trkpt>
      <trkpt lat="41.998558" lon="1.9476063">
        <time>2022-07-09T13:34:04Z</time>
      </trkpt>
      <trkpt lat="41.9985" lon="1.9475353">
        <time>2022-07-09T13:34:05Z</time>
      </trkpt>
      <trkpt lat="41.998436" lon="1.9474794">
        <time>2022-07-09T13:34:06Z</time>
      </trkpt>
      <trkpt lat="41.998363" lon="1.9474376">
        <time>2022-07-09T13:34:07Z</time>
      </trkpt>
      <trkpt lat="41.998283" lon="1.94741">
        <time>2022-07-09T13:34:08Z</time>
      </trkpt>
      <trkpt lat="41.9982" lon="1.9473946">
        <time>2022-07-09T13:34:09Z</time>
      </trkpt>
      <trkpt lat="41.998116" lon="1.9473923">
        <time>2022-07-09T13:34:10Z</time>
      </trkpt>
      <trkpt lat="41.998028" lon="1.9474059">
        <time>2022-07-09T13:34:11Z</time>
      </trkpt>
      <trkpt lat="41.997948" lon="1.9474373">
        <time>2022-07-09T13:34:12Z</time>
      </trkpt>
      <trkpt lat="41.997875" lon="1.9474859">
        <time>2022-07-09T13:34:13Z</time>
      </trkpt>
      <trkpt lat="41.99781" lon="1.9475499">
        <time>2022-07-09T13:34:14Z</time>
      </trkpt>
      <trkpt lat="41.99775" lon="1.947623">
        <time>2022-07-09T13:34:15Z</time>
      </trkpt>
      <trkpt lat="41.997696" lon="1.9477013">
        <time>2022-07-09T13:34:16Z</time>
      </trkpt>
      <trkpt lat="41.997643" lon="1.94778">
        <time>2022-07-09T13:34:17Z</time>
      </trkpt>
      <trkpt lat="41.997585" lon="1.9478546">
        <time>2022-07-09T13:34:18Z</time>
      </trkpt>
      <trkpt lat="41.997524" lon="1.9479223">
        <time>2022-07-09T13:34:19Z</time>
      </trkpt>
      <trkpt lat="41.997456" lon="1.9479793">
        <time>2022-07-09T13:34:20Z</time>
      </trkpt>
      <trkpt lat="41.997383" lon="1.9480246">
        <time>2022-07-09T13:34:21Z</time>
      </trkpt>
      <trkpt lat="41.99731" lon="1.9480597">
        <time>2022-07-09T13:34:22Z</time>
      </trkpt>
      <trkpt lat="41.99724" lon="1.9480853">
        <time>2022-07-09T13:34:23Z</time>
      </trkpt>
      <trkpt lat="41.99716" lon="1.9481063">
        <time>2022-07-09T13:34:24Z</time>
      </trkpt>
      <trkpt lat="41.997086" lon="1.9481252">
        <time>2022-07-09T13:34:25Z</time>
      </trkpt>
      <trkpt lat="41.99701" lon="1.9481436">
        <time>2022-07-09T13:34:26Z</time>
      </trkpt>
      <trkpt lat="41.99693" lon="1.9481609">
        <time>2022-07-09T13:34:27Z</time>
      </trkpt>
      <trkpt lat="41.996853" lon="1.9481772">
        <time>2022-07-09T13:34:28Z</time>
      </trkpt>
      <trkpt lat="41.99678" lon="1.9481943">
        <time>2022-07-09T13:34:29Z</time>
      </trkpt>
      <trkpt lat="41.99671" lon="1.9482126">
        <time>2022-07-09T13:34:30Z</time>
      </trkpt>
      <trkpt lat="41.99664" lon="1.9482373">
        <time>2022-07-09T13:34:31Z</time>
      </trkpt>
      <trkpt lat="41.99657" lon="1.9482669">
        <time>2022-07-09T13:34:32Z</time>
      </trkpt>
      <trkpt lat="41.996502" lon="1.9483006">
        <time>2022-07-09T13:34:33Z</time>
      </trkpt>
      <trkpt lat="41.996437" lon="1.9483372">
        <time>2022-07-09T13:34:34Z</time>
      </trkpt>
      <trkpt lat="41.996372" lon="1.9483778">
        <time>2022-07-09T13:34:35Z</time>
      </trkpt>
      <trkpt lat="41.996307" lon="1.9484199">
        <time>2022-07-09T13:34:36Z</time>
      </trkpt>
      <trkpt lat="41.996243" lon="1.9484652">
        <time>2022-07-09T13:34:37Z</time>
      </trkpt>
      <trkpt lat="41.99618" lon="1.9485126">
        <time>2022-07-09T13:34:38Z</time>
      </trkpt>
      <trkpt lat="41.99612" lon="1.9485612">
        <time>2022-07-09T13:34:39Z</time>
      </trkpt>
      <trkpt lat="41.99606" lon="1.9486092">
        <time>2022-07-09T13:34:40Z</time>
      </trkpt>
      <trkpt lat="41.996002" lon="1.9486562">
        <time>2022-07-09T13:34:41Z</time>
      </trkpt>
      <trkpt lat="41.995945" lon="1.9487022">
        <time>2022-07-09T13:34:42Z</time>
      </trkpt>
      <trkpt lat="41.99589" lon="1.9487475">
        <time>2022-07-09T13:34:43Z</time>
      </trkpt>
      <trkpt lat="41.99584" lon="1.9487926">
        <time>2022-07-09T13:34:44Z</time>
      </trkpt>
      <trkpt lat="41.99579" lon="1.9488369">
        <time>2022-07-09T13:34:45Z</time>
      </trkpt>
      <trkpt lat="41.99574" lon="1.9488792">
        <time>2022-07-09T13:34:46Z</time>
      </trkpt>
      <trkpt lat="41.99569" lon="1.9489192">
        <time>2022-07-09T13:34:47Z</time>
      </trkpt>
      <trkpt lat="41.995644" lon="1.9489568">
        <time>2022-07-09T13:34:48Z</time>
      </trkpt>
      <trkpt lat="41.9956" lon="1.9489932">
        <time>2022-07-09T13:34:49Z</time>
      </trkpt>
      <trkpt lat="41.99556" lon="1.9490275">
        <time>2022-07-09T13:34:50Z</time>
      </trkpt>
      <trkpt lat="41.99548" lon="1.9490932">
        <time>2022-07-09T13:34:52Z</time>
      </trkpt>
      <trkpt lat="41.995407" lon="1.9491539">
        <time>2022-07-09T13:34:54Z</time>
      </trkpt>
      <trkpt lat="41.995342" lon="1.9492081">
        <time>2022-07-09T13:34:56Z</time>
      </trkpt>
      <trkpt lat="41.99528" lon="1.9492575">
        <time>2022-07-09T13:34:58Z</time>
      </trkpt>
      <trkpt lat="41.995224" lon="1.9493026">
        <time>2022-07-09T13:35:00Z</time>
      </trkpt>
      <trkpt lat="41.995174" lon="1.9493462">
        <time>2022-07-09T13:35:02Z</time>
      </trkpt>
      <trkpt lat="41.99513" lon="1.9493902">
        <time>2022-07-09T13:35:04Z</time>
      </trkpt>
      <trkpt lat="41.99508" lon="1.9494315">
        <time>2022-07-09T13:35:06Z</time>
      </trkpt>
      <trkpt lat="41.99501" lon="1.9494939">
        <time>2022-07-09T13:35:09Z</time>
      </trkpt>
      <trkpt lat="41.994965" lon="1.9495331">
        <time>2022-07-09T13:35:11Z</time>
      </trkpt>
      <trkpt lat="41.99492" lon="1.9495769">
        <time>2022-07-09T13:35:13Z</time>
      </trkpt>
      <trkpt lat="41.994873" lon="1.9496225">
        <time>2022-07-09T13:35:15Z</time>
      </trkpt>
      <trkpt lat="41.99483" lon="1.9496632">
        <time>2022-07-09T13:35:17Z</time>
      </trkpt>
      <trkpt lat="41.994766" lon="1.9497122">
        <time>2022-07-09T13:35:20Z</time>
      </trkpt>
      <trkpt lat="41.994705" lon="1.9497595">
        <time>2022-07-09T13:35:23Z</time>
      </trkpt>
      <trkpt lat="41.994648" lon="1.9498105">
        <time>2022-07-09T13:35:26Z</time>
      </trkpt>
      <trkpt lat="41.99459" lon="1.9498582">
        <time>2022-07-09T13:35:29Z</time>
      </trkpt>
      <trkpt lat="41.994534" lon="1.9499058">
        <time>2022-07-09T13:35:32Z</time>
      </trkpt>
      <trkpt lat="41.994476" lon="1.9499558">
        <time>2022-07-09T13:35:35Z</time>
      </trkpt>
      <trkpt lat="41.99442" lon="1.9500052">
        <time>2022-07-09T13:35:38Z</time>
      </trkpt>
      <trkpt lat="41.99436" lon="1.9500561">
        <time>2022-07-09T13:35:41Z</time>
      </trkpt>
      <trkpt lat="41.994305" lon="1.9501078">
        <time>2022-07-09T13:35:44Z</time>
      </trkpt>
      <trkpt lat="41.994247" lon="1.9501631">
        <time>2022-07-09T13:35:47Z</time>
      </trkpt>
      <trkpt lat="41.994186" lon="1.9502242">
        <time>2022-07-09T13:35:50Z</time>
      </trkpt>
      <trkpt lat="41.994137" lon="1.9502901">
        <time>2022-07-09T13:35:53Z</time>
      </trkpt>
      <trkpt lat="41.994102" lon="1.9503468">
        <time>2022-07-09T13:35:55Z</time>
      </trkpt>
      <trkpt lat="41.994072" lon="1.9504114">
        <time>2022-07-09T13:35:57Z</time>
      </trkpt>
      <trkpt lat="41.994045" lon="1.9504877">
        <time>2022-07-09T13:35:59Z</time>
      </trkpt>
      <trkpt lat="41.994026" lon="1.9505664">
        <time>2022-07-09T13:36:01Z</time>
      </trkpt>
      <trkpt lat="41.994015" lon="1.9506521">
        <time>2022-07-09T13:36:03Z</time>
      </trkpt>
      <trkpt lat="41.994015" lon="1.9507511">
        <time>2022-07-09T13:36:05Z</time>
      </trkpt>
      <trkpt lat="41.994026" lon="1.9508504">
        <time>2022-07-09T13:36:07Z</time>
      </trkpt>
      <trkpt lat="41.99404" lon="1.9509507">
        <time>2022-07-09T13:36:09Z</time>
      </trkpt>
      <trkpt lat="41.994064" lon="1.9510441">
        <time>2022-07-09T13:36:11Z</time>
      </trkpt>
      <trkpt lat="41.99409" lon="1.9511458">
        <time>2022-07-09T13:36:13Z</time>
      </trkpt>
      <trkpt lat="41.994118" lon="1.9512554">
        <time>2022-07-09T13:36:15Z</time>
      </trkpt>
      <trkpt lat="41.994144" lon="1.95137">
        <time>2022-07-09T13:36:17Z</time>
      </trkpt>
      <trkpt lat="41.994175" lon="1.9514958">
        <time>2022-07-09T13:36:19Z</time>
      </trkpt>
      <trkpt lat="41.994194" lon="1.9515647">
        <time>2022-07-09T13:36:20Z</time>
      </trkpt>
      <trkpt lat="41.994213" lon="1.9516383">
        <time>2022-07-09T13:36:21Z</time>
      </trkpt>
      <trkpt lat="41.994236" lon="1.9517107">
        <time>2022-07-09T13:36:22Z</time>
      </trkpt>
      <trkpt lat="41.99426" lon="1.9517883">
        <time>2022-07-09T13:36:23Z</time>
      </trkpt>
      <trkpt lat="41.99428" lon="1.951874">
        <time>2022-07-09T13:36:24Z</time>
      </trkpt>
      <trkpt lat="41.9943" lon="1.951964">
        <time>2022-07-09T13:36:25Z</time>
      </trkpt>
      <trkpt lat="41.99432" lon="1.952057">
        <time>2022-07-09T13:36:26Z</time>
      </trkpt>
      <trkpt lat="41.994335" lon="1.952153">
        <time>2022-07-09T13:36:27Z</time>
      </trkpt>
      <trkpt lat="41.994347" lon="1.95225">
        <time>2022-07-09T13:36:28Z</time>
      </trkpt>
      <trkpt lat="41.994343" lon="1.9523554">
        <time>2022-07-09T13:36:29Z</time>
      </trkpt>
      <trkpt lat="41.994335" lon="1.9524517">
        <time>2022-07-09T13:36:30Z</time>
      </trkpt>
      <trkpt lat="41.994312" lon="1.9525486">
        <time>2022-07-09T13:36:31Z</time>
      </trkpt>
      <trkpt lat="41.99428" lon="1.9526423">
        <time>2022-07-09T13:36:32Z</time>
      </trkpt>
      <trkpt lat="41.99424" lon="1.9527327">
        <time>2022-07-09T13:36:33Z</time>
      </trkpt>
      <trkpt lat="41.994186" lon="1.9528173">
        <time>2022-07-09T13:36:34Z</time>
      </trkpt>
      <trkpt lat="41.994125" lon="1.952897">
        <time>2022-07-09T13:36:35Z</time>
      </trkpt>
      <trkpt lat="41.994064" lon="1.9529703">
        <time>2022-07-09T13:36:36Z</time>
      </trkpt>
      <trkpt lat="41.994" lon="1.9530376">
        <time>2022-07-09T13:36:37Z</time>
      </trkpt>
      <trkpt lat="41.993935" lon="1.953099">
        <time>2022-07-09T13:36:38Z</time>
      </trkpt>
      <trkpt lat="41.993874" lon="1.9531553">
        <time>2022-07-09T13:36:39Z</time>
      </trkpt>
      <trkpt lat="41.993816" lon="1.953207">
        <time>2022-07-09T13:36:40Z</time>
      </trkpt>
      <trkpt lat="41.99376" lon="1.9532546">
        <time>2022-07-09T13:36:41Z</time>
      </trkpt>
      <trkpt lat="41.99371" lon="1.9532987">
        <time>2022-07-09T13:36:42Z</time>
      </trkpt>
      <trkpt lat="41.99366" lon="1.9533403">
        <time>2022-07-09T13:36:43Z</time>
      </trkpt>
      <trkpt lat="41.993614" lon="1.9533793">
        <time>2022-07-09T13:36:44Z</time>
      </trkpt>
      <trkpt lat="41.993572" lon="1.9534147">
        <time>2022-07-09T13:36:45Z</time>
      </trkpt>
      <trkpt lat="41.993492" lon="1.95348">
        <time>2022-07-09T13:36:47Z</time>
      </trkpt>
      <trkpt lat="41.993427" lon="1.9535433">
        <time>2022-07-09T13:36:49Z</time>
      </trkpt>
      <trkpt lat="41.993366" lon="1.9536113">
        <time>2022-07-09T13:36:51Z</time>
      </trkpt>
      <trkpt lat="41.99332" lon="1.9536862">
        <time>2022-07-09T13:36:53Z</time>
      </trkpt>
      <trkpt lat="41.99328" lon="1.9537686">
        <time>2022-07-09T13:36:55Z</time>
      </trkpt>
      <trkpt lat="41.99325" lon="1.9538573">
        <time>2022-07-09T13:36:57Z</time>
      </trkpt>
      <trkpt lat="41.99324" lon="1.9539549">
        <time>2022-07-09T13:36:59Z</time>
      </trkpt>
      <trkpt lat="41.993237" lon="1.9540633">
        <time>2022-07-09T13:37:01Z</time>
      </trkpt>
      <trkpt lat="41.993248" lon="1.9541876">
        <time>2022-07-09T13:37:03Z</time>
      </trkpt>
      <trkpt lat="41.993267" lon="1.9543316">
        <time>2022-07-09T13:37:05Z</time>
      </trkpt>
      <trkpt lat="41.99328" lon="1.9544029">
        <time>2022-07-09T13:37:06Z</time>
      </trkpt>
      <trkpt lat="41.99329" lon="1.9544783">
        <time>2022-07-09T13:37:07Z</time>
      </trkpt>
      <trkpt lat="41.9933" lon="1.9545512">
        <time>2022-07-09T13:37:08Z</time>
      </trkpt>
      <trkpt lat="41.993317" lon="1.9546286">
        <time>2022-07-09T13:37:09Z</time>
      </trkpt>
      <trkpt lat="41.993332" lon="1.9547153">
        <time>2022-07-09T13:37:10Z</time>
      </trkpt>
      <trkpt lat="41.99335" lon="1.9548032">
        <time>2022-07-09T13:37:11Z</time>
      </trkpt>
      <trkpt lat="41.99337" lon="1.954894">
        <time>2022-07-09T13:37:12Z</time>
      </trkpt>
      <trkpt lat="41.993385" lon="1.9549873">
        <time>2022-07-09T13:37:13Z</time>
      </trkpt>
      <trkpt lat="41.993404" lon="1.9550836">
        <time>2022-07-09T13:37:14Z</time>
      </trkpt>
      <trkpt lat="41.993423" lon="1.9551892">
        <time>2022-07-09T13:37:15Z</time>
      </trkpt>
      <trkpt lat="41.99346" lon="1.9553909">
        <time>2022-07-09T13:37:17Z</time>
      </trkpt>
      <trkpt lat="41.99348" lon="1.9555019">
        <time>2022-07-09T13:37:18Z</time>
      </trkpt>
      <trkpt lat="41.9935" lon="1.9556125">
        <time>2022-07-09T13:37:19Z</time>
      </trkpt>
      <trkpt lat="41.993515" lon="1.9557229">
        <time>2022-07-09T13:37:20Z</time>
      </trkpt>
      <trkpt lat="41.993526" lon="1.9558342">
        <time>2022-07-09T13:37:21Z</time>
      </trkpt>
      <trkpt lat="41.993538" lon="1.9559462">
        <time>2022-07-09T13:37:22Z</time>
      </trkpt>
      <trkpt lat="41.99354" lon="1.9560609">
        <time>2022-07-09T13:37:23Z</time>
      </trkpt>
      <trkpt lat="41.993546" lon="1.9561685">
        <time>2022-07-09T13:37:24Z</time>
      </trkpt>
      <trkpt lat="41.993546" lon="1.9562786">
        <time>2022-07-09T13:37:25Z</time>
      </trkpt>
      <trkpt lat="41.99354" lon="1.9563918">
        <time>2022-07-09T13:37:26Z</time>
      </trkpt>
      <trkpt lat="41.99353" lon="1.9565145">
        <time>2022-07-09T13:37:27Z</time>
      </trkpt>
      <trkpt lat="41.99352" lon="1.9566345">
        <time>2022-07-09T13:37:28Z</time>
      </trkpt>
      <trkpt lat="41.993504" lon="1.9567542">
        <time>2022-07-09T13:37:29Z</time>
      </trkpt>
      <trkpt lat="41.993484" lon="1.9568738">
        <time>2022-07-09T13:37:30Z</time>
      </trkpt>
      <trkpt lat="41.993465" lon="1.9569935">
        <time>2022-07-09T13:37:31Z</time>
      </trkpt>
      <trkpt lat="41.993446" lon="1.9571052">
        <time>2022-07-09T13:37:32Z</time>
      </trkpt>
      <trkpt lat="41.993423" lon="1.9572204">
        <time>2022-07-09T13:37:33Z</time>
      </trkpt>
      <trkpt lat="41.9934" lon="1.9573458">
        <time>2022-07-09T13:37:34Z</time>
      </trkpt>
      <trkpt lat="41.993378" lon="1.9574691">
        <time>2022-07-09T13:37:35Z</time>
      </trkpt>
      <trkpt lat="41.99336" lon="1.9575914">
        <time>2022-07-09T13:37:36Z</time>
      </trkpt>
      <trkpt lat="41.99334" lon="1.9577131">
        <time>2022-07-09T13:37:37Z</time>
      </trkpt>
      <trkpt lat="41.99332" lon="1.9578338">
        <time>2022-07-09T13:37:38Z</time>
      </trkpt>
      <trkpt lat="41.9933" lon="1.9579535">
        <time>2022-07-09T13:37:39Z</time>
      </trkpt>
      <trkpt lat="41.993282" lon="1.9580721">
        <time>2022-07-09T13:37:40Z</time>
      </trkpt>
      <trkpt lat="41.99326" lon="1.958188">
        <time>2022-07-09T13:37:41Z</time>
      </trkpt>
      <trkpt lat="41.99324" lon="1.9583011">
        <time>2022-07-09T13:37:42Z</time>
      </trkpt>
      <trkpt lat="41.99322" lon="1.9584057">
        <time>2022-07-09T13:37:43Z</time>
      </trkpt>
      <trkpt lat="41.9932" lon="1.958515">
        <time>2022-07-09T13:37:44Z</time>
      </trkpt>
      <trkpt lat="41.993176" lon="1.958618">
        <time>2022-07-09T13:37:45Z</time>
      </trkpt>
      <trkpt lat="41.993153" lon="1.9587162">
        <time>2022-07-09T13:37:46Z</time>
      </trkpt>
      <trkpt lat="41.993126" lon="1.9588101">
        <time>2022-07-09T13:37:47Z</time>
      </trkpt>
      <trkpt lat="41.993103" lon="1.9588977">
        <time>2022-07-09T13:37:48Z</time>
      </trkpt>
      <trkpt lat="41.993076" lon="1.9589801">
        <time>2022-07-09T13:37:49Z</time>
      </trkpt>
      <trkpt lat="41.993053" lon="1.9590567">
        <time>2022-07-09T13:37:50Z</time>
      </trkpt>
      <trkpt lat="41.99303" lon="1.9591267">
        <time>2022-07-09T13:37:51Z</time>
      </trkpt>
      <trkpt lat="41.993008" lon="1.9591941">
        <time>2022-07-09T13:37:52Z</time>
      </trkpt>
      <trkpt lat="41.992985" lon="1.9592574">
        <time>2022-07-09T13:37:53Z</time>
      </trkpt>
      <trkpt lat="41.992943" lon="1.9593698">
        <time>2022-07-09T13:37:55Z</time>
      </trkpt>
      <trkpt lat="41.992905" lon="1.9594774">
        <time>2022-07-09T13:37:57Z</time>
      </trkpt>
      <trkpt lat="41.992867" lon="1.9595737">
        <time>2022-07-09T13:37:59Z</time>
      </trkpt>
      <trkpt lat="41.992836" lon="1.9596604">
        <time>2022-07-09T13:38:01Z</time>
      </trkpt>
      <trkpt lat="41.992805" lon="1.9597424">
        <time>2022-07-09T13:38:03Z</time>
      </trkpt>
      <trkpt lat="41.99278" lon="1.9598191">
        <time>2022-07-09T13:38:05Z</time>
      </trkpt>
      <trkpt lat="41.992752" lon="1.9598911">
        <time>2022-07-09T13:38:07Z</time>
      </trkpt>
      <trkpt lat="41.992725" lon="1.9599603">
        <time>2022-07-09T13:38:09Z</time>
      </trkpt>
      <trkpt lat="41.992702" lon="1.9600234">
        <time>2022-07-09T13:38:11Z</time>
      </trkpt>
      <trkpt lat="41.99268" lon="1.960078">
        <time>2022-07-09T13:38:13Z</time>
      </trkpt>
      <trkpt lat="41.992657" lon="1.960144">
        <time>2022-07-09T13:38:16Z</time>
      </trkpt>
      <trkpt lat="41.992622" lon="1.960235">
        <time>2022-07-09T13:38:36Z</time>
      </trkpt>
      <trkpt lat="41.99259" lon="1.9603124">
        <time>2022-07-09T13:38:41Z</time>
      </trkpt>
      <trkpt lat="41.992565" lon="1.9603794">
        <time>2022-07-09T13:38:45Z</time>
      </trkpt>
      <trkpt lat="41.992535" lon="1.9604427">
        <time>2022-07-09T13:38:51Z</time>
      </trkpt>
      <trkpt lat="41.992485" lon="1.9605327">
        <time>2022-07-09T14:07:20Z</time>
      </trkpt>
      <trkpt lat="41.992455" lon="1.9606091">
        <time>2022-07-09T14:07:23Z</time>
      </trkpt>
      <trkpt lat="41.992424" lon="1.960698">
        <time>2022-07-09T14:07:26Z</time>
      </trkpt>
      <trkpt lat="41.992393" lon="1.9607874">
        <time>2022-07-09T14:07:29Z</time>
      </trkpt>
      <trkpt lat="41.992363" lon="1.960871">
        <time>2022-07-09T14:07:32Z</time>
      </trkpt>
      <trkpt lat="41.992332" lon="1.9609557">
        <time>2022-07-09T14:07:35Z</time>
      </trkpt>
      <trkpt lat="41.99231" lon="1.961012">
        <time>2022-07-09T14:07:37Z</time>
      </trkpt>
      <trkpt lat="41.992275" lon="1.9610933">
        <time>2022-07-09T14:07:40Z</time>
      </trkpt>
      <trkpt lat="41.992256" lon="1.96115">
        <time>2022-07-09T14:07:42Z</time>
      </trkpt>
      <trkpt lat="41.99223" lon="1.961236">
        <time>2022-07-09T14:07:45Z</time>
      </trkpt>
      <trkpt lat="41.992203" lon="1.96132">
        <time>2022-07-09T14:07:48Z</time>
      </trkpt>
      <trkpt lat="41.99217" lon="1.9614036">
        <time>2022-07-09T14:07:51Z</time>
      </trkpt>
      <trkpt lat="41.992134" lon="1.9614943">
        <time>2022-07-09T14:07:54Z</time>
      </trkpt>
      <trkpt lat="41.99211" lon="1.961557">
        <time>2022-07-09T14:07:56Z</time>
      </trkpt>
      <trkpt lat="41.99208" lon="1.9616519">
        <time>2022-07-09T14:07:59Z</time>
      </trkpt>
      <trkpt lat="41.992058" lon="1.961715">
        <time>2022-07-09T14:08:01Z</time>
      </trkpt>
      <trkpt lat="41.992035" lon="1.9617757">
        <time>2022-07-09T14:08:03Z</time>
      </trkpt>
      <trkpt lat="41.992004" lon="1.961864">
        <time>2022-07-09T14:08:06Z</time>
      </trkpt>
      <trkpt lat="41.991978" lon="1.9619586">
        <time>2022-07-09T14:08:09Z</time>
      </trkpt>
      <trkpt lat="41.991962" lon="1.9620256">
        <time>2022-07-09T14:08:11Z</time>
      </trkpt>
      <trkpt lat="41.991947" lon="1.9620947">
        <time>2022-07-09T14:08:13Z</time>
      </trkpt>
      <trkpt lat="41.991936" lon="1.962199">
        <time>2022-07-09T14:08:16Z</time>
      </trkpt>
      <trkpt lat="41.991932" lon="1.9622706">
        <time>2022-07-09T14:08:18Z</time>
      </trkpt>
      <trkpt lat="41.991936" lon="1.962343">
        <time>2022-07-09T14:08:20Z</time>
      </trkpt>
      <trkpt lat="41.99195" lon="1.962418">
        <time>2022-07-09T14:08:22Z</time>
      </trkpt>
      <trkpt lat="41.99197" lon="1.9625013">
        <time>2022-07-09T14:08:24Z</time>
      </trkpt>
      <trkpt lat="41.991997" lon="1.9625976">
        <time>2022-07-09T14:08:26Z</time>
      </trkpt>
      <trkpt lat="41.992035" lon="1.9627097">
        <time>2022-07-09T14:08:28Z</time>
      </trkpt>
      <trkpt lat="41.992054" lon="1.9627723">
        <time>2022-07-09T14:08:29Z</time>
      </trkpt>
      <trkpt lat="41.992096" lon="1.9629142">
        <time>2022-07-09T14:08:31Z</time>
      </trkpt>
      <trkpt lat="41.99213" lon="1.9630766">
        <time>2022-07-09T14:08:33Z</time>
      </trkpt>
      <trkpt lat="41.992146" lon="1.9631629">
        <time>2022-07-09T14:08:34Z</time>
      </trkpt>
      <trkpt lat="41.992157" lon="1.9632512">
        <time>2022-07-09T14:08:35Z</time>
      </trkpt>
      <trkpt lat="41.99216" lon="1.9633403">
        <time>2022-07-09T14:08:36Z</time>
      </trkpt>
      <trkpt lat="41.992153" lon="1.9634256">
        <time>2022-07-09T14:08:37Z</time>
      </trkpt>
      <trkpt lat="41.992138" lon="1.9635053">
        <time>2022-07-09T14:08:38Z</time>
      </trkpt>
      <trkpt lat="41.992115" lon="1.9635769">
        <time>2022-07-09T14:08:39Z</time>
      </trkpt>
      <trkpt lat="41.99209" lon="1.9636385">
        <time>2022-07-09T14:08:40Z</time>
      </trkpt>
      <trkpt lat="41.992054" lon="1.9636905">
        <time>2022-07-09T14:08:41Z</time>
      </trkpt>
      <trkpt lat="41.991978" lon="1.9637703">
        <time>2022-07-09T14:08:43Z</time>
      </trkpt>
      <trkpt lat="41.991913" lon="1.9638249">
        <time>2022-07-09T14:08:45Z</time>
      </trkpt>
      <trkpt lat="41.99186" lon="1.9638612">
        <time>2022-07-09T14:08:47Z</time>
      </trkpt>
      <trkpt lat="41.99181" lon="1.9638855">
        <time>2022-07-09T14:08:49Z</time>
      </trkpt>
      <trkpt lat="41.991768" lon="1.9639043">
        <time>2022-07-09T14:08:51Z</time>
      </trkpt>
      <trkpt lat="41.991703" lon="1.9639319">
        <time>2022-07-09T14:08:54Z</time>
      </trkpt>
      <trkpt lat="41.99165" lon="1.9639525">
        <time>2022-07-09T14:08:57Z</time>
      </trkpt>
      <trkpt lat="41.9916" lon="1.9639698">
        <time>2022-07-09T14:09:02Z</time>
      </trkpt>
      <trkpt lat="41.99151" lon="1.9640069">
        <time>2022-07-09T14:12:10Z</time>
      </trkpt>
      <trkpt lat="41.99144" lon="1.9640568">
        <time>2022-07-09T14:12:13Z</time>
      </trkpt>
      <trkpt lat="41.99139" lon="1.9640862">
        <time>2022-07-09T14:12:15Z</time>
      </trkpt>
      <trkpt lat="41.991344" lon="1.9641095">
        <time>2022-07-09T14:12:17Z</time>
      </trkpt>
      <trkpt lat="41.99128" lon="1.9641445">
        <time>2022-07-09T14:12:20Z</time>
      </trkpt>
      <trkpt lat="41.991215" lon="1.9641808">
        <time>2022-07-09T14:12:23Z</time>
      </trkpt>
      <trkpt lat="41.991173" lon="1.9642112">
        <time>2022-07-09T14:12:25Z</time>
      </trkpt>
      <trkpt lat="41.99111" lon="1.9642671">
        <time>2022-07-09T14:12:28Z</time>
      </trkpt>
      <trkpt lat="41.99106" lon="1.9643325">
        <time>2022-07-09T14:12:31Z</time>
      </trkpt>
      <trkpt lat="41.991013" lon="1.9644059">
        <time>2022-07-09T14:12:34Z</time>
      </trkpt>
      <trkpt lat="41.99098" lon="1.9644926">
        <time>2022-07-09T14:12:37Z</time>
      </trkpt>
      <trkpt lat="41.99095" lon="1.9645885">
        <time>2022-07-09T14:12:40Z</time>
      </trkpt>
      <trkpt lat="41.990944" lon="1.9646555">
        <time>2022-07-09T14:12:42Z</time>
      </trkpt>
      <trkpt lat="41.99094" lon="1.9647309">
        <time>2022-07-09T14:12:44Z</time>
      </trkpt>
      <trkpt lat="41.990944" lon="1.9648129">
        <time>2022-07-09T14:12:46Z</time>
      </trkpt>
      <trkpt lat="41.990948" lon="1.9649018">
        <time>2022-07-09T14:12:48Z</time>
      </trkpt>
      <trkpt lat="41.99096" lon="1.9649968">
        <time>2022-07-09T14:12:50Z</time>
      </trkpt>
      <trkpt lat="41.99097" lon="1.9650959">
        <time>2022-07-09T14:12:52Z</time>
      </trkpt>
      <trkpt lat="41.990982" lon="1.9651989">
        <time>2022-07-09T14:12:54Z</time>
      </trkpt>
      <trkpt lat="41.991" lon="1.9653025">
        <time>2022-07-09T14:12:56Z</time>
      </trkpt>
      <trkpt lat="41.991016" lon="1.9654055">
        <time>2022-07-09T14:12:58Z</time>
      </trkpt>
      <trkpt lat="41.991035" lon="1.9655081">
        <time>2022-07-09T14:13:00Z</time>
      </trkpt>
      <trkpt lat="41.991055" lon="1.9656111">
        <time>2022-07-09T14:13:02Z</time>
      </trkpt>
      <trkpt lat="41.991074" lon="1.9657152">
        <time>2022-07-09T14:13:04Z</time>
      </trkpt>
      <trkpt lat="41.991085" lon="1.9658195">
        <time>2022-07-09T14:13:06Z</time>
      </trkpt>
      <trkpt lat="41.991096" lon="1.9659228">
        <time>2022-07-09T14:13:08Z</time>
      </trkpt>
      <trkpt lat="41.991108" lon="1.9660242">
        <time>2022-07-09T14:13:10Z</time>
      </trkpt>
      <trkpt lat="41.991123" lon="1.9661248">
        <time>2022-07-09T14:13:12Z</time>
      </trkpt>
      <trkpt lat="41.991142" lon="1.9662261">
        <time>2022-07-09T14:13:14Z</time>
      </trkpt>
      <trkpt lat="41.99116" lon="1.9663295">
        <time>2022-07-09T14:13:16Z</time>
      </trkpt>
      <trkpt lat="41.99118" lon="1.9664338">
        <time>2022-07-09T14:13:18Z</time>
      </trkpt>
      <trkpt lat="41.9912" lon="1.9665388">
        <time>2022-07-09T14:13:20Z</time>
      </trkpt>
      <trkpt lat="41.99122" lon="1.9666485">
        <time>2022-07-09T14:13:22Z</time>
      </trkpt>
      <trkpt lat="41.991238" lon="1.9667598">
        <time>2022-07-09T14:13:24Z</time>
      </trkpt>
      <trkpt lat="41.991257" lon="1.9668764">
        <time>2022-07-09T14:13:26Z</time>
      </trkpt>
      <trkpt lat="41.99128" lon="1.9669974">
        <time>2022-07-09T14:13:28Z</time>
      </trkpt>
      <trkpt lat="41.991287" lon="1.9670618">
        <time>2022-07-09T14:13:29Z</time>
      </trkpt>
      <trkpt lat="41.991314" lon="1.9671965">
        <time>2022-07-09T14:13:31Z</time>
      </trkpt>
      <trkpt lat="41.99133" lon="1.9672668">
        <time>2022-07-09T14:13:32Z</time>
      </trkpt>
      <trkpt lat="41.99134" lon="1.9673384">
        <time>2022-07-09T14:13:33Z</time>
      </trkpt>
      <trkpt lat="41.991352" lon="1.967411">
        <time>2022-07-09T14:13:34Z</time>
      </trkpt>
      <trkpt lat="41.991367" lon="1.9674851">
        <time>2022-07-09T14:13:35Z</time>
      </trkpt>
      <trkpt lat="41.99138" lon="1.9675584">
        <time>2022-07-09T14:13:36Z</time>
      </trkpt>
      <trkpt lat="41.99139" lon="1.967632">
        <time>2022-07-09T14:13:37Z</time>
      </trkpt>
      <trkpt lat="41.991405" lon="1.9677061">
        <time>2022-07-09T14:13:38Z</time>
      </trkpt>
      <trkpt lat="41.991417" lon="1.967779">
        <time>2022-07-09T14:13:39Z</time>
      </trkpt>
      <trkpt lat="41.991432" lon="1.9678504">
        <time>2022-07-09T14:13:40Z</time>
      </trkpt>
      <trkpt lat="41.991444" lon="1.9679204">
        <time>2022-07-09T14:13:41Z</time>
      </trkpt>
      <trkpt lat="41.99146" lon="1.967988">
        <time>2022-07-09T14:13:42Z</time>
      </trkpt>
      <trkpt lat="41.99147" lon="1.9680537">
        <time>2022-07-09T14:13:43Z</time>
      </trkpt>
      <trkpt lat="41.99148" lon="1.9681181">
        <time>2022-07-09T14:13:44Z</time>
      </trkpt>
      <trkpt lat="41.9915" lon="1.968243">
        <time>2022-07-09T14:13:46Z</time>
      </trkpt>
      <trkpt lat="41.99152" lon="1.9683634">
        <time>2022-07-09T14:13:48Z</time>
      </trkpt>
      <trkpt lat="41.99154" lon="1.9684807">
        <time>2022-07-09T14:13:50Z</time>
      </trkpt>
      <trkpt lat="41.99156" lon="1.9685957">
        <time>2022-07-09T14:13:52Z</time>
      </trkpt>
      <trkpt lat="41.99158" lon="1.968708">
        <time>2022-07-09T14:13:54Z</time>
      </trkpt>
      <trkpt lat="41.991596" lon="1.968819">
        <time>2022-07-09T14:13:56Z</time>
      </trkpt>
      <trkpt lat="41.991615" lon="1.9689277">
        <time>2022-07-09T14:13:58Z</time>
      </trkpt>
      <trkpt lat="41.991634" lon="1.969036">
        <time>2022-07-09T14:14:00Z</time>
      </trkpt>
      <trkpt lat="41.991657" lon="1.9691447">
        <time>2022-07-09T14:14:02Z</time>
      </trkpt>
      <trkpt lat="41.991676" lon="1.9692523">
        <time>2022-07-09T14:14:04Z</time>
      </trkpt>
      <trkpt lat="41.991695" lon="1.969367">
        <time>2022-07-09T14:14:06Z</time>
      </trkpt>
      <trkpt lat="41.99172" lon="1.969487">
        <time>2022-07-09T14:14:08Z</time>
      </trkpt>
      <trkpt lat="41.99174" lon="1.969617">
        <time>2022-07-09T14:14:10Z</time>
      </trkpt>
      <trkpt lat="41.991756" lon="1.9696864">
        <time>2022-07-09T14:14:11Z</time>
      </trkpt>
      <trkpt lat="41.991768" lon="1.9697534">
        <time>2022-07-09T14:14:12Z</time>
      </trkpt>
      <trkpt lat="41.991783" lon="1.9698237">
        <time>2022-07-09T14:14:13Z</time>
      </trkpt>
      <trkpt lat="41.991802" lon="1.9698963">
        <time>2022-07-09T14:14:14Z</time>
      </trkpt>
      <trkpt lat="41.991825" lon="1.9699703">
        <time>2022-07-09T14:14:15Z</time>
      </trkpt>
      <trkpt lat="41.991856" lon="1.970049">
        <time>2022-07-09T14:14:16Z</time>
      </trkpt>
      <trkpt lat="41.991886" lon="1.9701246">
        <time>2022-07-09T14:14:17Z</time>
      </trkpt>
      <trkpt lat="41.991924" lon="1.970198">
        <time>2022-07-09T14:14:18Z</time>
      </trkpt>
      <trkpt lat="41.991966" lon="1.97027">
        <time>2022-07-09T14:14:19Z</time>
      </trkpt>
      <trkpt lat="41.992012" lon="1.970341">
        <time>2022-07-09T14:14:20Z</time>
      </trkpt>
      <trkpt lat="41.99206" lon="1.9704113">
        <time>2022-07-09T14:14:21Z</time>
      </trkpt>
      <trkpt lat="41.99211" lon="1.970482">
        <time>2022-07-09T14:14:22Z</time>
      </trkpt>
      <trkpt lat="41.992165" lon="1.970554">
        <time>2022-07-09T14:14:23Z</time>
      </trkpt>
      <trkpt lat="41.992218" lon="1.9706277">
        <time>2022-07-09T14:14:24Z</time>
      </trkpt>
      <trkpt lat="41.992275" lon="1.9707016">
        <time>2022-07-09T14:14:25Z</time>
      </trkpt>
      <trkpt lat="41.99233" lon="1.9707767">
        <time>2022-07-09T14:14:26Z</time>
      </trkpt>
      <trkpt lat="41.992386" lon="1.9708526">
        <time>2022-07-09T14:14:27Z</time>
      </trkpt>
      <trkpt lat="41.992443" lon="1.9709306">
        <time>2022-07-09T14:14:28Z</time>
      </trkpt>
      <trkpt lat="41.9925" lon="1.971009">
        <time>2022-07-09T14:14:29Z</time>
      </trkpt>
      <trkpt lat="41.99256" lon="1.9710892">
        <time>2022-07-09T14:14:30Z</time>
      </trkpt>
      <trkpt lat="41.99262" lon="1.9711692">
        <time>2022-07-09T14:14:31Z</time>
      </trkpt>
      <trkpt lat="41.992683" lon="1.9712507">
        <time>2022-07-09T14:14:32Z</time>
      </trkpt>
      <trkpt lat="41.99274" lon="1.9713316">
        <time>2022-07-09T14:14:33Z</time>
      </trkpt>
      <trkpt lat="41.9928" lon="1.9714116">
        <time>2022-07-09T14:14:34Z</time>
      </trkpt>
      <trkpt lat="41.99286" lon="1.9714899">
        <time>2022-07-09T14:14:35Z</time>
      </trkpt>
      <trkpt lat="41.992916" lon="1.971566">
        <time>2022-07-09T14:14:36Z</time>
      </trkpt>
      <trkpt lat="41.99297" lon="1.9716393">
        <time>2022-07-09T14:14:37Z</time>
      </trkpt>
      <trkpt lat="41.993023" lon="1.9717103">
        <time>2022-07-09T14:14:38Z</time>
      </trkpt>
      <trkpt lat="41.993073" lon="1.9717796">
        <time>2022-07-09T14:14:39Z</time>
      </trkpt>
      <trkpt lat="41.993122" lon="1.9718477">
        <time>2022-07-09T14:14:40Z</time>
      </trkpt>
      <trkpt lat="41.993168" lon="1.971913">
        <time>2022-07-09T14:14:41Z</time>
      </trkpt>
      <trkpt lat="41.99321" lon="1.9719709">
        <time>2022-07-09T14:14:42Z</time>
      </trkpt>
      <trkpt lat="41.993256" lon="1.972032">
        <time>2022-07-09T14:14:43Z</time>
      </trkpt>
      <trkpt lat="41.993298" lon="1.9720902">
        <time>2022-07-09T14:14:44Z</time>
      </trkpt>
      <trkpt lat="41.99334" lon="1.972147">
        <time>2022-07-09T14:14:45Z</time>
      </trkpt>
      <trkpt lat="41.99338" lon="1.9722023">
        <time>2022-07-09T14:14:46Z</time>
      </trkpt>
      <trkpt lat="41.99342" lon="1.9722549">
        <time>2022-07-09T14:14:47Z</time>
      </trkpt>
      <trkpt lat="41.993492" lon="1.9723549">
        <time>2022-07-09T14:14:49Z</time>
      </trkpt>
      <trkpt lat="41.993526" lon="1.9724013">
        <time>2022-07-09T14:14:50Z</time>
      </trkpt>
      <trkpt lat="41.993565" lon="1.9724473">
        <time>2022-07-09T14:14:51Z</time>
      </trkpt>
      <trkpt lat="41.993637" lon="1.9725373">
        <time>2022-07-09T14:14:53Z</time>
      </trkpt>
      <trkpt lat="41.993706" lon="1.9726286">
        <time>2022-07-09T14:14:55Z</time>
      </trkpt>
      <trkpt lat="41.99374" lon="1.9726746">
        <time>2022-07-09T14:14:56Z</time>
      </trkpt>
      <trkpt lat="41.99381" lon="1.9727672">
        <time>2022-07-09T14:14:58Z</time>
      </trkpt>
      <trkpt lat="41.993885" lon="1.9728678">
        <time>2022-07-09T14:15:00Z</time>
      </trkpt>
      <trkpt lat="41.993923" lon="1.97292">
        <time>2022-07-09T14:15:01Z</time>
      </trkpt>
      <trkpt lat="41.993958" lon="1.9729745">
        <time>2022-07-09T14:15:02Z</time>
      </trkpt>
      <trkpt lat="41.993996" lon="1.9730315">
        <time>2022-07-09T14:15:03Z</time>
      </trkpt>
      <trkpt lat="41.994038" lon="1.9730902">
        <time>2022-07-09T14:15:04Z</time>
      </trkpt>
      <trkpt lat="41.99408" lon="1.9731495">
        <time>2022-07-09T14:15:05Z</time>
      </trkpt>
      <trkpt lat="41.99412" lon="1.9732093">
        <time>2022-07-09T14:15:06Z</time>
      </trkpt>
      <trkpt lat="41.994164" lon="1.9732692">
        <time>2022-07-09T14:15:07Z</time>
      </trkpt>
      <trkpt lat="41.994205" lon="1.9733295">
        <time>2022-07-09T14:15:08Z</time>
      </trkpt>
      <trkpt lat="41.99425" lon="1.9733925">
        <time>2022-07-09T14:15:09Z</time>
      </trkpt>
      <trkpt lat="41.994297" lon="1.9734572">
        <time>2022-07-09T14:15:10Z</time>
      </trkpt>
      <trkpt lat="41.99434" lon="1.9735229">
        <time>2022-07-09T14:15:11Z</time>
      </trkpt>
      <trkpt lat="41.994385" lon="1.9735892">
        <time>2022-07-09T14:15:12Z</time>
      </trkpt>
      <trkpt lat="41.994434" lon="1.9736562">
        <time>2022-07-09T14:15:13Z</time>
      </trkpt>
      <trkpt lat="41.99448" lon="1.9737228">
        <time>2022-07-09T14:15:14Z</time>
      </trkpt>
      <trkpt lat="41.994534" lon="1.9737915">
        <time>2022-07-09T14:15:15Z</time>
      </trkpt>
      <trkpt lat="41.994583" lon="1.9738618">
        <time>2022-07-09T14:15:16Z</time>
      </trkpt>
      <trkpt lat="41.994637" lon="1.9739342">
        <time>2022-07-09T14:15:17Z</time>
      </trkpt>
      <trkpt lat="41.99469" lon="1.9740071">
        <time>2022-07-09T14:15:18Z</time>
      </trkpt>
      <trkpt lat="41.994743" lon="1.9740819">
        <time>2022-07-09T14:15:19Z</time>
      </trkpt>
      <trkpt lat="41.994797" lon="1.9741561">
        <time>2022-07-09T14:15:20Z</time>
      </trkpt>
      <trkpt lat="41.99485" lon="1.9742302">
        <time>2022-07-09T14:15:21Z</time>
      </trkpt>
      <trkpt lat="41.994904" lon="1.9743044">
        <time>2022-07-09T14:15:22Z</time>
      </trkpt>
      <trkpt lat="41.994957" lon="1.9743795">
        <time>2022-07-09T14:15:23Z</time>
      </trkpt>
      <trkpt lat="41.99501" lon="1.9744538">
        <time>2022-07-09T14:15:24Z</time>
      </trkpt>
      <trkpt lat="41.995064" lon="1.9745275">
        <time>2022-07-09T14:15:25Z</time>
      </trkpt>
      <trkpt lat="41.995117" lon="1.9745995">
        <time>2022-07-09T14:15:26Z</time>
      </trkpt>
      <trkpt lat="41.99517" lon="1.9746685">
        <time>2022-07-09T14:15:27Z</time>
      </trkpt>
      <trkpt lat="41.995224" lon="1.9747318">
        <time>2022-07-09T14:15:28Z</time>
      </trkpt>
      <trkpt lat="41.995274" lon="1.9747915">
        <time>2022-07-09T14:15:29Z</time>
      </trkpt>
      <trkpt lat="41.99533" lon="1.9748471">
        <time>2022-07-09T14:15:30Z</time>
      </trkpt>
      <trkpt lat="41.995384" lon="1.9749005">
        <time>2022-07-09T14:15:31Z</time>
      </trkpt>
      <trkpt lat="41.995445" lon="1.9749508">
        <time>2022-07-09T14:15:32Z</time>
      </trkpt>
      <trkpt lat="41.995502" lon="1.9749978">
        <time>2022-07-09T14:15:33Z</time>
      </trkpt>
      <trkpt lat="41.995564" lon="1.9750428">
        <time>2022-07-09T14:15:34Z</time>
      </trkpt>
      <trkpt lat="41.99563" lon="1.9750841">
        <time>2022-07-09T14:15:35Z</time>
      </trkpt>
      <trkpt lat="41.995693" lon="1.9751208">
        <time>2022-07-09T14:15:36Z</time>
      </trkpt>
      <trkpt lat="41.995758" lon="1.9751571">
        <time>2022-07-09T14:15:37Z</time>
      </trkpt>
      <trkpt lat="41.995823" lon="1.9751931">
        <time>2022-07-09T14:15:38Z</time>
      </trkpt>
      <trkpt lat="41.995884" lon="1.9752305">
        <time>2022-07-09T14:15:39Z</time>
      </trkpt>
      <trkpt lat="41.99595" lon="1.9752685">
        <time>2022-07-09T14:15:40Z</time>
      </trkpt>
      <trkpt lat="41.996017" lon="1.9753071">
        <time>2022-07-09T14:15:41Z</time>
      </trkpt>
      <trkpt lat="41.99608" lon="1.9753451">
        <time>2022-07-09T14:15:42Z</time>
      </trkpt>
      <trkpt lat="41.99614" lon="1.9753841">
        <time>2022-07-09T14:15:43Z</time>
      </trkpt>
      <trkpt lat="41.9962" lon="1.9754221">
        <time>2022-07-09T14:15:44Z</time>
      </trkpt>
      <trkpt lat="41.99626" lon="1.9754595">
        <time>2022-07-09T14:15:45Z</time>
      </trkpt>
      <trkpt lat="41.996323" lon="1.9754964">
        <time>2022-07-09T14:15:46Z</time>
      </trkpt>
      <trkpt lat="41.99638" lon="1.9755324">
        <time>2022-07-09T14:15:47Z</time>
      </trkpt>
      <trkpt lat="41.996433" lon="1.975568">
        <time>2022-07-09T14:15:48Z</time>
      </trkpt>
      <trkpt lat="41.996487" lon="1.9756031">
        <time>2022-07-09T14:15:49Z</time>
      </trkpt>
      <trkpt lat="41.99654" lon="1.9756361">
        <time>2022-07-09T14:15:50Z</time>
      </trkpt>
      <trkpt lat="41.99659" lon="1.9756664">
        <time>2022-07-09T14:15:51Z</time>
      </trkpt>
      <trkpt lat="41.996635" lon="1.9756941">
        <time>2022-07-09T14:15:52Z</time>
      </trkpt>
      <trkpt lat="41.99673" lon="1.975746">
        <time>2022-07-09T14:15:54Z</time>
      </trkpt>
      <trkpt lat="41.996777" lon="1.9757737">
        <time>2022-07-09T14:15:55Z</time>
      </trkpt>
      <trkpt lat="41.996857" lon="1.9758241">
        <time>2022-07-09T14:15:57Z</time>
      </trkpt>
      <trkpt lat="41.99693" lon="1.9758704">
        <time>2022-07-09T14:15:59Z</time>
      </trkpt>
      <trkpt lat="41.997" lon="1.9759127">
        <time>2022-07-09T14:16:01Z</time>
      </trkpt>
      <trkpt lat="41.99707" lon="1.9759517">
        <time>2022-07-09T14:16:03Z</time>
      </trkpt>
      <trkpt lat="41.99714" lon="1.9759934">
        <time>2022-07-09T14:16:05Z</time>
      </trkpt>
      <trkpt lat="41.997204" lon="1.976037">
        <time>2022-07-09T14:16:07Z</time>
      </trkpt>
      <trkpt lat="41.99727" lon="1.976078">
        <time>2022-07-09T14:16:09Z</time>
      </trkpt>
      <trkpt lat="41.997334" lon="1.9761151">
        <time>2022-07-09T14:16:11Z</time>
      </trkpt>
      <trkpt lat="41.997402" lon="1.9761517">
        <time>2022-07-09T14:16:13Z</time>
      </trkpt>
      <trkpt lat="41.997467" lon="1.9761853">
        <time>2022-07-09T14:16:15Z</time>
      </trkpt>
      <trkpt lat="41.99753" lon="1.9762146">
        <time>2022-07-09T14:16:17Z</time>
      </trkpt>
      <trkpt lat="41.9976" lon="1.976243">
        <time>2022-07-09T14:16:19Z</time>
      </trkpt>
      <trkpt lat="41.99767" lon="1.9762717">
        <time>2022-07-09T14:16:21Z</time>
      </trkpt>
      <trkpt lat="41.99774" lon="1.9763017">
        <time>2022-07-09T14:16:23Z</time>
      </trkpt>
      <trkpt lat="41.997818" lon="1.976329">
        <time>2022-07-09T14:16:25Z</time>
      </trkpt>
      <trkpt lat="41.997894" lon="1.9763553">
        <time>2022-07-09T14:16:27Z</time>
      </trkpt>
      <trkpt lat="41.99797" lon="1.9763877">
        <time>2022-07-09T14:16:29Z</time>
      </trkpt>
      <trkpt lat="41.998055" lon="1.9764253">
        <time>2022-07-09T14:16:31Z</time>
      </trkpt>
      <trkpt lat="41.99814" lon="1.9764633">
        <time>2022-07-09T14:16:33Z</time>
      </trkpt>
      <trkpt lat="41.998222" lon="1.9765004">
        <time>2022-07-09T14:16:35Z</time>
      </trkpt>
      <trkpt lat="41.998306" lon="1.976537">
        <time>2022-07-09T14:16:37Z</time>
      </trkpt>
      <trkpt lat="41.998386" lon="1.976578">
        <time>2022-07-09T14:16:39Z</time>
      </trkpt>
      <trkpt lat="41.998466" lon="1.9766227">
        <time>2022-07-09T14:16:41Z</time>
      </trkpt>
      <trkpt lat="41.998547" lon="1.9766637">
        <time>2022-07-09T14:16:43Z</time>
      </trkpt>
      <trkpt lat="41.998627" lon="1.9767079">
        <time>2022-07-09T14:16:45Z</time>
      </trkpt>
      <trkpt lat="41.998707" lon="1.9767536">
        <time>2022-07-09T14:16:47Z</time>
      </trkpt>
      <trkpt lat="41.998783" lon="1.9767977">
        <time>2022-07-09T14:16:49Z</time>
      </trkpt>
      <trkpt lat="41.998863" lon="1.976845">
        <time>2022-07-09T14:16:51Z</time>
      </trkpt>
      <trkpt lat="41.998943" lon="1.9769007">
        <time>2022-07-09T14:16:53Z</time>
      </trkpt>
      <trkpt lat="41.99902" lon="1.9769703">
        <time>2022-07-09T14:16:55Z</time>
      </trkpt>
      <trkpt lat="41.999058" lon="1.9770089">
        <time>2022-07-09T14:16:56Z</time>
      </trkpt>
      <trkpt lat="41.999123" lon="1.9770873">
        <time>2022-07-09T14:16:58Z</time>
      </trkpt>
      <trkpt lat="41.999187" lon="1.9771566">
        <time>2022-07-09T14:17:00Z</time>
      </trkpt>
      <trkpt lat="41.999256" lon="1.9772129">
        <time>2022-07-09T14:17:02Z</time>
      </trkpt>
      <trkpt lat="41.99932" lon="1.9772493">
        <time>2022-07-09T14:17:04Z</time>
      </trkpt>
      <trkpt lat="41.999382" lon="1.977263">
        <time>2022-07-09T14:17:06Z</time>
      </trkpt>
      <trkpt lat="41.999443" lon="1.9772643">
        <time>2022-07-09T14:17:08Z</time>
      </trkpt>
      <trkpt lat="41.9995" lon="1.9772583">
        <time>2022-07-09T14:17:10Z</time>
      </trkpt>
      <trkpt lat="41.999557" lon="1.9772476">
        <time>2022-07-09T14:17:12Z</time>
      </trkpt>
      <trkpt lat="41.99961" lon="1.9772359">
        <time>2022-07-09T14:17:14Z</time>
      </trkpt>
      <trkpt lat="41.99967" lon="1.9772253">
        <time>2022-07-09T14:17:16Z</time>
      </trkpt>
      <trkpt lat="41.999725" lon="1.977221">
        <time>2022-07-09T14:17:18Z</time>
      </trkpt>
      <trkpt lat="41.999798" lon="1.977222">
        <time>2022-07-09T14:17:21Z</time>
      </trkpt>
      <trkpt lat="41.999874" lon="1.9772363">
        <time>2022-07-09T14:17:25Z</time>
      </trkpt>
      <trkpt lat="41.99994" lon="1.9772667">
        <time>2022-07-09T14:17:28Z</time>
      </trkpt>
      <trkpt lat="42.000008" lon="1.9773012">
        <time>2022-07-09T14:17:31Z</time>
      </trkpt>
      <trkpt lat="42.00008" lon="1.97734">
        <time>2022-07-09T14:17:34Z</time>
      </trkpt>
      <trkpt lat="42.000122" lon="1.9773699">
        <time>2022-07-09T14:17:36Z</time>
      </trkpt>
      <trkpt lat="42.00019" lon="1.9774129">
        <time>2022-07-09T14:17:39Z</time>
      </trkpt>
      <trkpt lat="42.00026" lon="1.977454">
        <time>2022-07-09T14:17:42Z</time>
      </trkpt>
      <trkpt lat="42.00031" lon="1.9774823">
        <time>2022-07-09T14:17:44Z</time>
      </trkpt>
      <trkpt lat="42.000355" lon="1.9775113">
        <time>2022-07-09T14:17:46Z</time>
      </trkpt>
      <trkpt lat="42.0004" lon="1.9775393">
        <time>2022-07-09T14:17:48Z</time>
      </trkpt>
      <trkpt lat="42.000465" lon="1.9775729">
        <time>2022-07-09T14:17:51Z</time>
      </trkpt>
      <trkpt lat="42.000526" lon="1.9775989">
        <time>2022-07-09T14:17:54Z</time>
      </trkpt>
      <trkpt lat="42.000603" lon="1.9776273">
        <time>2022-07-09T14:17:57Z</time>
      </trkpt>
      <trkpt lat="42.000652" lon="1.9776436">
        <time>2022-07-09T14:17:59Z</time>
      </trkpt>
      <trkpt lat="42.0007" lon="1.9776562">
        <time>2022-07-09T14:18:01Z</time>
      </trkpt>
      <trkpt lat="42.000774" lon="1.9776802">
        <time>2022-07-09T14:18:04Z</time>
      </trkpt>
      <trkpt lat="42.00084" lon="1.9777112">
        <time>2022-07-09T14:18:07Z</time>
      </trkpt>
      <trkpt lat="42.000908" lon="1.9777356">
        <time>2022-07-09T14:18:10Z</time>
      </trkpt>
      <trkpt lat="42.00095" lon="1.9777522">
        <time>2022-07-09T14:18:12Z</time>
      </trkpt>
      <trkpt lat="42.001015" lon="1.977778">
        <time>2022-07-09T14:18:15Z</time>
      </trkpt>
      <trkpt lat="42.00108" lon="1.9778079">
        <time>2022-07-09T14:18:18Z</time>
      </trkpt>
      <trkpt lat="42.00114" lon="1.9778283">
        <time>2022-07-09T14:18:21Z</time>
      </trkpt>
      <trkpt lat="42.001205" lon="1.9778405">
        <time>2022-07-09T14:18:24Z</time>
      </trkpt>
      <trkpt lat="42.001263" lon="1.9778496">
        <time>2022-07-09T14:18:27Z</time>
      </trkpt>
      <trkpt lat="42.00132" lon="1.9778559">
        <time>2022-07-09T14:18:30Z</time>
      </trkpt>
      <trkpt lat="42.001385" lon="1.9778665">
        <time>2022-07-09T14:18:33Z</time>
      </trkpt>
      <trkpt lat="42.001453" lon="1.9778905">
        <time>2022-07-09T14:18:36Z</time>
      </trkpt>
      <trkpt lat="42.001526" lon="1.9779205">
        <time>2022-07-09T14:18:39Z</time>
      </trkpt>
      <trkpt lat="42.001575" lon="1.9779392">
        <time>2022-07-09T14:18:41Z</time>
      </trkpt>
      <trkpt lat="42.001625" lon="1.9779558">
        <time>2022-07-09T14:18:43Z</time>
      </trkpt>
      <trkpt lat="42.0017" lon="1.9779782">
        <time>2022-07-09T14:18:46Z</time>
      </trkpt>
      <trkpt lat="42.001755" lon="1.9779905">
        <time>2022-07-09T14:18:48Z</time>
      </trkpt>
      <trkpt lat="42.001804" lon="1.9780031">
        <time>2022-07-09T14:18:50Z</time>
      </trkpt>
      <trkpt lat="42.001858" lon="1.9780189">
        <time>2022-07-09T14:18:52Z</time>
      </trkpt>
      <trkpt lat="42.001915" lon="1.9780382">
        <time>2022-07-09T14:18:54Z</time>
      </trkpt>
      <trkpt lat="42.00197" lon="1.9780562">
        <time>2022-07-09T14:18:56Z</time>
      </trkpt>
      <trkpt lat="42.002026" lon="1.9780709">
        <time>2022-07-09T14:18:58Z</time>
      </trkpt>
      <trkpt lat="42.002075" lon="1.9780842">
        <time>2022-07-09T14:19:00Z</time>
      </trkpt>
      <trkpt lat="42.00213" lon="1.9780948">
        <time>2022-07-09T14:19:02Z</time>
      </trkpt>
      <trkpt lat="42.002205" lon="1.9781141">
        <time>2022-07-09T14:19:05Z</time>
      </trkpt>
      <trkpt lat="42.00226" lon="1.9781295">
        <time>2022-07-09T14:19:07Z</time>
      </trkpt>
      <trkpt lat="42.00231" lon="1.9781455">
        <time>2022-07-09T14:19:09Z</time>
      </trkpt>
      <trkpt lat="42.002373" lon="1.9781644">
        <time>2022-07-09T14:19:11Z</time>
      </trkpt>
      <trkpt lat="42.002434" lon="1.9781858">
        <time>2022-07-09T14:19:13Z</time>
      </trkpt>
      <trkpt lat="42.002495" lon="1.9782075">
        <time>2022-07-09T14:19:15Z</time>
      </trkpt>
      <trkpt lat="42.00256" lon="1.9782271">
        <time>2022-07-09T14:19:17Z</time>
      </trkpt>
      <trkpt lat="42.00263" lon="1.9782492">
        <time>2022-07-09T14:19:19Z</time>
      </trkpt>
      <trkpt lat="42.002697" lon="1.9782768">
        <time>2022-07-09T14:19:21Z</time>
      </trkpt>
      <trkpt lat="42.00276" lon="1.9783028">
        <time>2022-07-09T14:19:23Z</time>
      </trkpt>
      <trkpt lat="42.00283" lon="1.9783278">
        <time>2022-07-09T14:19:25Z</time>
      </trkpt>
      <trkpt lat="42.002895" lon="1.9783502">
        <time>2022-07-09T14:19:27Z</time>
      </trkpt>
      <trkpt lat="42.002964" lon="1.9783725">
        <time>2022-07-09T14:19:29Z</time>
      </trkpt>
      <trkpt lat="42.003033" lon="1.9783962">
        <time>2022-07-09T14:19:31Z</time>
      </trkpt>
      <trkpt lat="42.0031" lon="1.9784157">
        <time>2022-07-09T14:19:33Z</time>
      </trkpt>
      <trkpt lat="42.00317" lon="1.9784344">
        <time>2022-07-09T14:19:35Z</time>
      </trkpt>
      <trkpt lat="42.003242" lon="1.9784567">
        <time>2022-07-09T14:19:37Z</time>
      </trkpt>
      <trkpt lat="42.003315" lon="1.9784788">
        <time>2022-07-09T14:19:39Z</time>
      </trkpt>
      <trkpt lat="42.00339" lon="1.9784977">
        <time>2022-07-09T14:19:41Z</time>
      </trkpt>
      <trkpt lat="42.003468" lon="1.9785154">
        <time>2022-07-09T14:19:43Z</time>
      </trkpt>
      <trkpt lat="42.003544" lon="1.9785354">
        <time>2022-07-09T14:19:45Z</time>
      </trkpt>
      <trkpt lat="42.003616" lon="1.9785597">
        <time>2022-07-09T14:19:47Z</time>
      </trkpt>
      <trkpt lat="42.00369" lon="1.9785777">
        <time>2022-07-09T14:19:49Z</time>
      </trkpt>
      <trkpt lat="42.00376" lon="1.978589">
        <time>2022-07-09T14:19:51Z</time>
      </trkpt>
      <trkpt lat="42.00383" lon="1.9786057">
        <time>2022-07-09T14:19:53Z</time>
      </trkpt>
      <trkpt lat="42.0039" lon="1.9786247">
        <time>2022-07-09T14:19:55Z</time>
      </trkpt>
      <trkpt lat="42.003967" lon="1.9786431">
        <time>2022-07-09T14:19:57Z</time>
      </trkpt>
      <trkpt lat="42.004036" lon="1.9786651">
        <time>2022-07-09T14:19:59Z</time>
      </trkpt>
      <trkpt lat="42.00411" lon="1.9786878">
        <time>2022-07-09T14:20:01Z</time>
      </trkpt>
      <trkpt lat="42.004215" lon="1.9787234">
        <time>2022-07-09T14:20:04Z</time>
      </trkpt>
      <trkpt lat="42.00429" lon="1.9787464">
        <time>2022-07-09T14:20:06Z</time>
      </trkpt>
      <trkpt lat="42.004368" lon="1.97877">
        <time>2022-07-09T14:20:08Z</time>
      </trkpt>
      <trkpt lat="42.00445" lon="1.9787947">
        <time>2022-07-09T14:20:10Z</time>
      </trkpt>
      <trkpt lat="42.004536" lon="1.9788264">
        <time>2022-07-09T14:20:12Z</time>
      </trkpt>
      <trkpt lat="42.004585" lon="1.978842">
        <time>2022-07-09T14:20:13Z</time>
      </trkpt>
      <trkpt lat="42.004684" lon="1.9788754">
        <time>2022-07-09T14:20:15Z</time>
      </trkpt>
      <trkpt lat="42.004734" lon="1.9788914">
        <time>2022-07-09T14:20:16Z</time>
      </trkpt>
      <trkpt lat="42.004787" lon="1.9789068">
        <time>2022-07-09T14:20:17Z</time>
      </trkpt>
      <trkpt lat="42.004845" lon="1.9789214">
        <time>2022-07-09T14:20:18Z</time>
      </trkpt>
      <trkpt lat="42.0049" lon="1.978937">
        <time>2022-07-09T14:20:19Z</time>
      </trkpt>
      <trkpt lat="42.004955" lon="1.9789543">
        <time>2022-07-09T14:20:20Z</time>
      </trkpt>
      <trkpt lat="42.005013" lon="1.9789723">
        <time>2022-07-09T14:20:21Z</time>
      </trkpt>
      <trkpt lat="42.005066" lon="1.978991">
        <time>2022-07-09T14:20:22Z</time>
      </trkpt>
      <trkpt lat="42.005123" lon="1.9790107">
        <time>2022-07-09T14:20:23Z</time>
      </trkpt>
      <trkpt lat="42.005177" lon="1.9790323">
        <time>2022-07-09T14:20:24Z</time>
      </trkpt>
      <trkpt lat="42.00523" lon="1.979055">
        <time>2022-07-09T14:20:25Z</time>
      </trkpt>
      <trkpt lat="42.00528" lon="1.979081">
        <time>2022-07-09T14:20:26Z</time>
      </trkpt>
      <trkpt lat="42.005333" lon="1.9791106">
        <time>2022-07-09T14:20:27Z</time>
      </trkpt>
      <trkpt lat="42.005383" lon="1.979143">
        <time>2022-07-09T14:20:28Z</time>
      </trkpt>
      <trkpt lat="42.005432" lon="1.979178">
        <time>2022-07-09T14:20:29Z</time>
      </trkpt>
      <trkpt lat="42.005478" lon="1.9792147">
        <time>2022-07-09T14:20:30Z</time>
      </trkpt>
      <trkpt lat="42.005527" lon="1.9792533">
        <time>2022-07-09T14:20:31Z</time>
      </trkpt>
      <trkpt lat="42.005573" lon="1.9792947">
        <time>2022-07-09T14:20:32Z</time>
      </trkpt>
      <trkpt lat="42.005623" lon="1.9793366">
        <time>2022-07-09T14:20:33Z</time>
      </trkpt>
      <trkpt lat="42.00567" lon="1.979378">
        <time>2022-07-09T14:20:34Z</time>
      </trkpt>
      <trkpt lat="42.00572" lon="1.9794179">
        <time>2022-07-09T14:20:35Z</time>
      </trkpt>
      <trkpt lat="42.005764" lon="1.9794576">
        <time>2022-07-09T14:20:36Z</time>
      </trkpt>
      <trkpt lat="42.00581" lon="1.9794986">
        <time>2022-07-09T14:20:37Z</time>
      </trkpt>
      <trkpt lat="42.005856" lon="1.9795406">
        <time>2022-07-09T14:20:38Z</time>
      </trkpt>
      <trkpt lat="42.0059" lon="1.9795833">
        <time>2022-07-09T14:20:39Z</time>
      </trkpt>
      <trkpt lat="42.005943" lon="1.9796252">
        <time>2022-07-09T14:20:40Z</time>
      </trkpt>
      <trkpt lat="42.00599" lon="1.9796666">
        <time>2022-07-09T14:20:41Z</time>
      </trkpt>
      <trkpt lat="42.00603" lon="1.9797069">
        <time>2022-07-09T14:20:42Z</time>
      </trkpt>
      <trkpt lat="42.006077" lon="1.979746">
        <time>2022-07-09T14:20:43Z</time>
      </trkpt>
      <trkpt lat="42.006123" lon="1.9797837">
        <time>2022-07-09T14:20:44Z</time>
      </trkpt>
      <trkpt lat="42.00617" lon="1.9798199">
        <time>2022-07-09T14:20:45Z</time>
      </trkpt>
      <trkpt lat="42.006214" lon="1.9798542">
        <time>2022-07-09T14:20:46Z</time>
      </trkpt>
      <trkpt lat="42.00626" lon="1.9798872">
        <time>2022-07-09T14:20:47Z</time>
      </trkpt>
      <trkpt lat="42.006306" lon="1.9799169">
        <time>2022-07-09T14:20:48Z</time>
      </trkpt>
      <trkpt lat="42.006397" lon="1.9799696">
        <time>2022-07-09T14:20:50Z</time>
      </trkpt>
      <trkpt lat="42.006447" lon="1.9799912">
        <time>2022-07-09T14:20:51Z</time>
      </trkpt>
      <trkpt lat="42.006546" lon="1.9800236">
        <time>2022-07-09T14:20:53Z</time>
      </trkpt>
      <trkpt lat="42.006645" lon="1.9800426">
        <time>2022-07-09T14:20:55Z</time>
      </trkpt>
      <trkpt lat="42.006695" lon="1.9800485">
        <time>2022-07-09T14:20:56Z</time>
      </trkpt>
      <trkpt lat="42.006798" lon="1.9800549">
        <time>2022-07-09T14:20:58Z</time>
      </trkpt>
      <trkpt lat="42.006847" lon="1.9800559">
        <time>2022-07-09T14:20:59Z</time>
      </trkpt>
      <trkpt lat="42.0069" lon="1.9800552">
        <time>2022-07-09T14:21:00Z</time>
      </trkpt>
      <trkpt lat="42.007004" lon="1.980053">
        <time>2022-07-09T14:21:02Z</time>
      </trkpt>
      <trkpt lat="42.007053" lon="1.9800513">
        <time>2022-07-09T14:21:03Z</time>
      </trkpt>
      <trkpt lat="42.007156" lon="1.9800466">
        <time>2022-07-09T14:21:05Z</time>
      </trkpt>
      <trkpt lat="42.00721" lon="1.9800435">
        <time>2022-07-09T14:21:06Z</time>
      </trkpt>
      <trkpt lat="42.007313" lon="1.9800376">
        <time>2022-07-09T14:21:08Z</time>
      </trkpt>
      <trkpt lat="42.007366" lon="1.9800342">
        <time>2022-07-09T14:21:09Z</time>
      </trkpt>
      <trkpt lat="42.007423" lon="1.9800316">
        <time>2022-07-09T14:21:10Z</time>
      </trkpt>
      <trkpt lat="42.00748" lon="1.9800292">
        <time>2022-07-09T14:21:11Z</time>
      </trkpt>
      <trkpt lat="42.007534" lon="1.9800273">
        <time>2022-07-09T14:21:12Z</time>
      </trkpt>
      <trkpt lat="42.00759" lon="1.9800256">
        <time>2022-07-09T14:21:13Z</time>
      </trkpt>
      <trkpt lat="42.00765" lon="1.9800243">
        <time>2022-07-09T14:21:14Z</time>
      </trkpt>
      <trkpt lat="42.007706" lon="1.9800233">
        <time>2022-07-09T14:21:15Z</time>
      </trkpt>
      <trkpt lat="42.007763" lon="1.9800212">
        <time>2022-07-09T14:21:16Z</time>
      </trkpt>
      <trkpt lat="42.007816" lon="1.9800186">
        <time>2022-07-09T14:21:17Z</time>
      </trkpt>
      <trkpt lat="42.007874" lon="1.9800149">
        <time>2022-07-09T14:21:18Z</time>
      </trkpt>
      <trkpt lat="42.00798" lon="1.9800097">
        <time>2022-07-09T14:21:20Z</time>
      </trkpt>
      <trkpt lat="42.008038" lon="1.980008">
        <time>2022-07-09T14:21:21Z</time>
      </trkpt>
      <trkpt lat="42.008095" lon="1.9800067">
        <time>2022-07-09T14:21:22Z</time>
      </trkpt>
      <trkpt lat="42.008152" lon="1.9800067">
        <time>2022-07-09T14:21:23Z</time>
      </trkpt>
      <trkpt lat="42.00821" lon="1.980006">
        <time>2022-07-09T14:21:24Z</time>
      </trkpt>
      <trkpt lat="42.008263" lon="1.980005">
        <time>2022-07-09T14:21:25Z</time>
      </trkpt>
      <trkpt lat="42.00832" lon="1.9800036">
        <time>2022-07-09T14:21:26Z</time>
      </trkpt>
      <trkpt lat="42.008377" lon="1.9800023">
        <time>2022-07-09T14:21:27Z</time>
      </trkpt>
      <trkpt lat="42.008434" lon="1.980002">
        <time>2022-07-09T14:21:28Z</time>
      </trkpt>
      <trkpt lat="42.00849" lon="1.9800026">
        <time>2022-07-09T14:21:29Z</time>
      </trkpt>
      <trkpt lat="42.008545" lon="1.980005">
        <time>2022-07-09T14:21:30Z</time>
      </trkpt>
      <trkpt lat="42.0086" lon="1.9800086">
        <time>2022-07-09T14:21:31Z</time>
      </trkpt>
      <trkpt lat="42.00866" lon="1.9800143">
        <time>2022-07-09T14:21:32Z</time>
      </trkpt>
      <trkpt lat="42.008717" lon="1.9800216">
        <time>2022-07-09T14:21:33Z</time>
      </trkpt>
      <trkpt lat="42.008778" lon="1.9800296">
        <time>2022-07-09T14:21:34Z</time>
      </trkpt>
      <trkpt lat="42.00884" lon="1.9800392">
        <time>2022-07-09T14:21:35Z</time>
      </trkpt>
      <trkpt lat="42.008896" lon="1.9800509">
        <time>2022-07-09T14:21:36Z</time>
      </trkpt>
      <trkpt lat="42.008957" lon="1.980063">
        <time>2022-07-09T14:21:37Z</time>
      </trkpt>
      <trkpt lat="42.009014" lon="1.9800756">
        <time>2022-07-09T14:21:38Z</time>
      </trkpt>
      <trkpt lat="42.009075" lon="1.9800876">
        <time>2022-07-09T14:21:39Z</time>
      </trkpt>
      <trkpt lat="42.009132" lon="1.9801003">
        <time>2022-07-09T14:21:40Z</time>
      </trkpt>
      <trkpt lat="42.009197" lon="1.9801126">
        <time>2022-07-09T14:21:41Z</time>
      </trkpt>
      <trkpt lat="42.00926" lon="1.9801246">
        <time>2022-07-09T14:21:42Z</time>
      </trkpt>
      <trkpt lat="42.00932" lon="1.9801372">
        <time>2022-07-09T14:21:43Z</time>
      </trkpt>
      <trkpt lat="42.00938" lon="1.9801499">
        <time>2022-07-09T14:21:44Z</time>
      </trkpt>
      <trkpt lat="42.009445" lon="1.980163">
        <time>2022-07-09T14:21:45Z</time>
      </trkpt>
      <trkpt lat="42.00951" lon="1.9801766">
        <time>2022-07-09T14:21:46Z</time>
      </trkpt>
      <trkpt lat="42.00957" lon="1.9801922">
        <time>2022-07-09T14:21:47Z</time>
      </trkpt>
      <trkpt lat="42.009636" lon="1.9802116">
        <time>2022-07-09T14:21:48Z</time>
      </trkpt>
      <trkpt lat="42.0097" lon="1.9802369">
        <time>2022-07-09T14:21:49Z</time>
      </trkpt>
      <trkpt lat="42.00976" lon="1.980269">
        <time>2022-07-09T14:21:50Z</time>
      </trkpt>
      <trkpt lat="42.00982" lon="1.9803069">
        <time>2022-07-09T14:21:51Z</time>
      </trkpt>
      <trkpt lat="42.009876" lon="1.9803499">
        <time>2022-07-09T14:21:52Z</time>
      </trkpt>
      <trkpt lat="42.009926" lon="1.9803965">
        <time>2022-07-09T14:21:53Z</time>
      </trkpt>
      <trkpt lat="42.009975" lon="1.9804462">
        <time>2022-07-09T14:21:54Z</time>
      </trkpt>
      <trkpt lat="42.01002" lon="1.9804969">
        <time>2022-07-09T14:21:55Z</time>
      </trkpt>
      <trkpt lat="42.010063" lon="1.9805479">
        <time>2022-07-09T14:21:56Z</time>
      </trkpt>
      <trkpt lat="42.010105" lon="1.9805982">
        <time>2022-07-09T14:21:57Z</time>
      </trkpt>
      <trkpt lat="42.010147" lon="1.9806479">
        <time>2022-07-09T14:21:58Z</time>
      </trkpt>
      <trkpt lat="42.01019" lon="1.9806958">
        <time>2022-07-09T14:21:59Z</time>
      </trkpt>
      <trkpt lat="42.010227" lon="1.9807422">
        <time>2022-07-09T14:22:00Z</time>
      </trkpt>
      <trkpt lat="42.01027" lon="1.9807869">
        <time>2022-07-09T14:22:01Z</time>
      </trkpt>
      <trkpt lat="42.010307" lon="1.9808276">
        <time>2022-07-09T14:22:02Z</time>
      </trkpt>
      <trkpt lat="42.010387" lon="1.9808959">
        <time>2022-07-09T14:22:04Z</time>
      </trkpt>
      <trkpt lat="42.010433" lon="1.9809275">
        <time>2022-07-09T14:22:05Z</time>
      </trkpt>
      <trkpt lat="42.01052" lon="1.9809759">
        <time>2022-07-09T14:22:07Z</time>
      </trkpt>
      <trkpt lat="42.010612" lon="1.9810005">
        <time>2022-07-09T14:22:09Z</time>
      </trkpt>
      <trkpt lat="42.01071" lon="1.9810082">
        <time>2022-07-09T14:22:11Z</time>
      </trkpt>
      <trkpt lat="42.010807" lon="1.9810061">
        <time>2022-07-09T14:22:13Z</time>
      </trkpt>
      <trkpt lat="42.010906" lon="1.9810039">
        <time>2022-07-09T14:22:15Z</time>
      </trkpt>
      <trkpt lat="42.010952" lon="1.9810045">
        <time>2022-07-09T14:22:16Z</time>
      </trkpt>
      <trkpt lat="42.01105" lon="1.9810095">
        <time>2022-07-09T14:22:18Z</time>
      </trkpt>
      <trkpt lat="42.0111" lon="1.9810115">
        <time>2022-07-09T14:22:19Z</time>
      </trkpt>
      <trkpt lat="42.01115" lon="1.9810158">
        <time>2022-07-09T14:22:20Z</time>
      </trkpt>
      <trkpt lat="42.01125" lon="1.9810299">
        <time>2022-07-09T14:22:22Z</time>
      </trkpt>
      <trkpt lat="42.011353" lon="1.9810514">
        <time>2022-07-09T14:22:24Z</time>
      </trkpt>
      <trkpt lat="42.011402" lon="1.9810631">
        <time>2022-07-09T14:22:25Z</time>
      </trkpt>
      <trkpt lat="42.011456" lon="1.9810745">
        <time>2022-07-09T14:22:26Z</time>
      </trkpt>
      <trkpt lat="42.01155" lon="1.9810925">
        <time>2022-07-09T14:22:28Z</time>
      </trkpt>
      <trkpt lat="42.01166" lon="1.9811091">
        <time>2022-07-09T14:22:30Z</time>
      </trkpt>
      <trkpt lat="42.01172" lon="1.9811195">
        <time>2022-07-09T14:22:31Z</time>
      </trkpt>
      <trkpt lat="42.011776" lon="1.9811321">
        <time>2022-07-09T14:22:32Z</time>
      </trkpt>
      <trkpt lat="42.011833" lon="1.9811481">
        <time>2022-07-09T14:22:33Z</time>
      </trkpt>
      <trkpt lat="42.01189" lon="1.9811698">
        <time>2022-07-09T14:22:34Z</time>
      </trkpt>
      <trkpt lat="42.011944" lon="1.9811984">
        <time>2022-07-09T14:22:35Z</time>
      </trkpt>
      <trkpt lat="42.012043" lon="1.9812758">
        <time>2022-07-09T14:22:37Z</time>
      </trkpt>
      <trkpt lat="42.012085" lon="1.9813248">
        <time>2022-07-09T14:22:38Z</time>
      </trkpt>
      <trkpt lat="42.012123" lon="1.9813794">
        <time>2022-07-09T14:22:39Z</time>
      </trkpt>
      <trkpt lat="42.012157" lon="1.9814384">
        <time>2022-07-09T14:22:40Z</time>
      </trkpt>
      <trkpt lat="42.012188" lon="1.9815015">
        <time>2022-07-09T14:22:41Z</time>
      </trkpt>
      <trkpt lat="42.012215" lon="1.9815668">
        <time>2022-07-09T14:22:42Z</time>
      </trkpt>
      <trkpt lat="42.01224" lon="1.9816338">
        <time>2022-07-09T14:22:43Z</time>
      </trkpt>
      <trkpt lat="42.012264" lon="1.9817011">
        <time>2022-07-09T14:22:44Z</time>
      </trkpt>
      <trkpt lat="42.01229" lon="1.9817684">
        <time>2022-07-09T14:22:45Z</time>
      </trkpt>
      <trkpt lat="42.012318" lon="1.9818305">
        <time>2022-07-09T14:22:46Z</time>
      </trkpt>
      <trkpt lat="42.012383" lon="1.9819567">
        <time>2022-07-09T14:22:48Z</time>
      </trkpt>
      <trkpt lat="42.012424" lon="1.982017">
        <time>2022-07-09T14:22:49Z</time>
      </trkpt>
      <trkpt lat="42.012466" lon="1.9820731">
        <time>2022-07-09T14:22:50Z</time>
      </trkpt>
      <trkpt lat="42.01251" lon="1.9821247">
        <time>2022-07-09T14:22:51Z</time>
      </trkpt>
      <trkpt lat="42.012554" lon="1.9821703">
        <time>2022-07-09T14:22:52Z</time>
      </trkpt>
      <trkpt lat="42.0126" lon="1.9822167">
        <time>2022-07-09T14:22:53Z</time>
      </trkpt>
      <trkpt lat="42.012653" lon="1.9822634">
        <time>2022-07-09T14:22:54Z</time>
      </trkpt>
      <trkpt lat="42.012707" lon="1.9823084">
        <time>2022-07-09T14:22:55Z</time>
      </trkpt>
      <trkpt lat="42.012756" lon="1.9823524">
        <time>2022-07-09T14:22:56Z</time>
      </trkpt>
      <trkpt lat="42.012806" lon="1.9823958">
        <time>2022-07-09T14:22:57Z</time>
      </trkpt>
      <trkpt lat="42.012856" lon="1.9824377">
        <time>2022-07-09T14:22:58Z</time>
      </trkpt>
      <trkpt lat="42.012905" lon="1.9824787">
        <time>2022-07-09T14:22:59Z</time>
      </trkpt>
      <trkpt lat="42.012955" lon="1.9825184">
        <time>2022-07-09T14:23:00Z</time>
      </trkpt>
      <trkpt lat="42.013" lon="1.982558">
        <time>2022-07-09T14:23:01Z</time>
      </trkpt>
      <trkpt lat="42.01305" lon="1.9825984">
        <time>2022-07-09T14:23:02Z</time>
      </trkpt>
      <trkpt lat="42.0131" lon="1.9826393">
        <time>2022-07-09T14:23:03Z</time>
      </trkpt>
      <trkpt lat="42.013153" lon="1.982681">
        <time>2022-07-09T14:23:04Z</time>
      </trkpt>
      <trkpt lat="42.013203" lon="1.9827207">
        <time>2022-07-09T14:23:05Z</time>
      </trkpt>
      <trkpt lat="42.013252" lon="1.9827597">
        <time>2022-07-09T14:23:06Z</time>
      </trkpt>
      <trkpt lat="42.0133" lon="1.9827961">
        <time>2022-07-09T14:23:07Z</time>
      </trkpt>
      <trkpt lat="42.013355" lon="1.9828304">
        <time>2022-07-09T14:23:08Z</time>
      </trkpt>
      <trkpt lat="42.013405" lon="1.9828627">
        <time>2022-07-09T14:23:09Z</time>
      </trkpt>
      <trkpt lat="42.01346" lon="1.9828933">
        <time>2022-07-09T14:23:10Z</time>
      </trkpt>
      <trkpt lat="42.01351" lon="1.9829214">
        <time>2022-07-09T14:23:11Z</time>
      </trkpt>
      <trkpt lat="42.013565" lon="1.982948">
        <time>2022-07-09T14:23:12Z</time>
      </trkpt>
      <trkpt lat="42.01362" lon="1.9829724">
        <time>2022-07-09T14:23:13Z</time>
      </trkpt>
      <trkpt lat="42.01367" lon="1.982995">
        <time>2022-07-09T14:23:14Z</time>
      </trkpt>
      <trkpt lat="42.013725" lon="1.9830166">
        <time>2022-07-09T14:23:15Z</time>
      </trkpt>
      <trkpt lat="42.013783" lon="1.983037">
        <time>2022-07-09T14:23:16Z</time>
      </trkpt>
      <trkpt lat="42.01384" lon="1.9830563">
        <time>2022-07-09T14:23:17Z</time>
      </trkpt>
      <trkpt lat="42.013893" lon="1.9830753">
        <time>2022-07-09T14:23:18Z</time>
      </trkpt>
      <trkpt lat="42.01395" lon="1.983094">
        <time>2022-07-09T14:23:19Z</time>
      </trkpt>
      <trkpt lat="42.014004" lon="1.9831133">
        <time>2022-07-09T14:23:20Z</time>
      </trkpt>
      <trkpt lat="42.014057" lon="1.9831316">
        <time>2022-07-09T14:23:21Z</time>
      </trkpt>
      <trkpt lat="42.01411" lon="1.983151">
        <time>2022-07-09T14:23:22Z</time>
      </trkpt>
      <trkpt lat="42.014164" lon="1.9831697">
        <time>2022-07-09T14:23:23Z</time>
      </trkpt>
      <trkpt lat="42.014217" lon="1.9831879">
        <time>2022-07-09T14:23:24Z</time>
      </trkpt>
      <trkpt lat="42.014267" lon="1.9832059">
        <time>2022-07-09T14:23:25Z</time>
      </trkpt>
      <trkpt lat="42.01432" lon="1.9832233">
        <time>2022-07-09T14:23:26Z</time>
      </trkpt>
      <trkpt lat="42.014374" lon="1.9832432">
        <time>2022-07-09T14:23:27Z</time>
      </trkpt>
      <trkpt lat="42.014427" lon="1.9832633">
        <time>2022-07-09T14:23:28Z</time>
      </trkpt>
      <trkpt lat="42.014473" lon="1.9832809">
        <time>2022-07-09T14:23:29Z</time>
      </trkpt>
      <trkpt lat="42.014523" lon="1.983298">
        <time>2022-07-09T14:23:30Z</time>
      </trkpt>
      <trkpt lat="42.014572" lon="1.9833143">
        <time>2022-07-09T14:23:31Z</time>
      </trkpt>
      <trkpt lat="42.01468" lon="1.983349">
        <time>2022-07-09T14:23:33Z</time>
      </trkpt>
      <trkpt lat="42.01473" lon="1.9833659">
        <time>2022-07-09T14:23:34Z</time>
      </trkpt>
      <trkpt lat="42.01478" lon="1.9833839">
        <time>2022-07-09T14:23:35Z</time>
      </trkpt>
      <trkpt lat="42.01483" lon="1.9834036">
        <time>2022-07-09T14:23:36Z</time>
      </trkpt>
      <trkpt lat="42.014885" lon="1.9834229">
        <time>2022-07-09T14:23:37Z</time>
      </trkpt>
      <trkpt lat="42.01494" lon="1.9834425">
        <time>2022-07-09T14:23:38Z</time>
      </trkpt>
      <trkpt lat="42.01499" lon="1.9834622">
        <time>2022-07-09T14:23:39Z</time>
      </trkpt>
      <trkpt lat="42.015045" lon="1.9834802">
        <time>2022-07-09T14:23:40Z</time>
      </trkpt>
      <trkpt lat="42.0151" lon="1.9834986">
        <time>2022-07-09T14:23:41Z</time>
      </trkpt>
      <trkpt lat="42.015152" lon="1.9835162">
        <time>2022-07-09T14:23:42Z</time>
      </trkpt>
      <trkpt lat="42.01525" lon="1.9835498">
        <time>2022-07-09T14:23:44Z</time>
      </trkpt>
      <trkpt lat="42.015305" lon="1.9835659">
        <time>2022-07-09T14:23:45Z</time>
      </trkpt>
      <trkpt lat="42.015358" lon="1.9835839">
        <time>2022-07-09T14:23:46Z</time>
      </trkpt>
      <trkpt lat="42.01541" lon="1.9836009">
        <time>2022-07-09T14:23:47Z</time>
      </trkpt>
      <trkpt lat="42.015465" lon="1.9836189">
        <time>2022-07-09T14:23:48Z</time>
      </trkpt>
      <trkpt lat="42.015522" lon="1.9836365">
        <time>2022-07-09T14:23:49Z</time>
      </trkpt>
      <trkpt lat="42.01557" lon="1.9836532">
        <time>2022-07-09T14:23:50Z</time>
      </trkpt>
      <trkpt lat="42.01563" lon="1.9836742">
        <time>2022-07-09T14:23:51Z</time>
      </trkpt>
      <trkpt lat="42.015686" lon="1.9836966">
        <time>2022-07-09T14:23:52Z</time>
      </trkpt>
      <trkpt lat="42.01574" lon="1.9837202">
        <time>2022-07-09T14:23:53Z</time>
      </trkpt>
      <trkpt lat="42.015793" lon="1.9837452">
        <time>2022-07-09T14:23:54Z</time>
      </trkpt>
      <trkpt lat="42.01585" lon="1.9837699">
        <time>2022-07-09T14:23:55Z</time>
      </trkpt>
      <trkpt lat="42.015903" lon="1.9837948">
        <time>2022-07-09T14:23:56Z</time>
      </trkpt>
      <trkpt lat="42.015957" lon="1.9838202">
        <time>2022-07-09T14:23:57Z</time>
      </trkpt>
      <trkpt lat="42.01601" lon="1.9838462">
        <time>2022-07-09T14:23:58Z</time>
      </trkpt>
      <trkpt lat="42.016064" lon="1.9838722">
        <time>2022-07-09T14:23:59Z</time>
      </trkpt>
      <trkpt lat="42.016117" lon="1.9838985">
        <time>2022-07-09T14:24:00Z</time>
      </trkpt>
      <trkpt lat="42.016167" lon="1.9839249">
        <time>2022-07-09T14:24:01Z</time>
      </trkpt>
      <trkpt lat="42.01622" lon="1.9839509">
        <time>2022-07-09T14:24:02Z</time>
      </trkpt>
      <trkpt lat="42.016273" lon="1.9839759">
        <time>2022-07-09T14:24:03Z</time>
      </trkpt>
      <trkpt lat="42.016327" lon="1.9839989">
        <time>2022-07-09T14:24:04Z</time>
      </trkpt>
      <trkpt lat="42.016376" lon="1.9840238">
        <time>2022-07-09T14:24:05Z</time>
      </trkpt>
      <trkpt lat="42.016426" lon="1.9840502">
        <time>2022-07-09T14:24:06Z</time>
      </trkpt>
      <trkpt lat="42.016476" lon="1.9840772">
        <time>2022-07-09T14:24:07Z</time>
      </trkpt>
      <trkpt lat="42.016525" lon="1.9841038">
        <time>2022-07-09T14:24:08Z</time>
      </trkpt>
      <trkpt lat="42.01657" lon="1.9841301">
        <time>2022-07-09T14:24:09Z</time>
      </trkpt>
      <trkpt lat="42.016617" lon="1.9841561">
        <time>2022-07-09T14:24:10Z</time>
      </trkpt>
      <trkpt lat="42.016716" lon="1.9842122">
        <time>2022-07-09T14:24:12Z</time>
      </trkpt>
      <trkpt lat="42.016766" lon="1.9842385">
        <time>2022-07-09T14:24:13Z</time>
      </trkpt>
      <trkpt lat="42.016815" lon="1.9842641">
        <time>2022-07-09T14:24:14Z</time>
      </trkpt>
      <trkpt lat="42.016865" lon="1.9842895">
        <time>2022-07-09T14:24:15Z</time>
      </trkpt>
      <trkpt lat="42.016914" lon="1.9843144">
        <time>2022-07-09T14:24:16Z</time>
      </trkpt>
      <trkpt lat="42.016964" lon="1.9843395">
        <time>2022-07-09T14:24:17Z</time>
      </trkpt>
      <trkpt lat="42.017014" lon="1.9843638">
        <time>2022-07-09T14:24:18Z</time>
      </trkpt>
      <trkpt lat="42.017067" lon="1.9843875">
        <time>2022-07-09T14:24:19Z</time>
      </trkpt>
      <trkpt lat="42.017113" lon="1.9844098">
        <time>2022-07-09T14:24:20Z</time>
      </trkpt>
      <trkpt lat="42.01722" lon="1.9844614">
        <time>2022-07-09T14:24:22Z</time>
      </trkpt>
      <trkpt lat="42.01727" lon="1.9844891">
        <time>2022-07-09T14:24:23Z</time>
      </trkpt>
      <trkpt lat="42.01732" lon="1.9845154">
        <time>2022-07-09T14:24:24Z</time>
      </trkpt>
      <trkpt lat="42.017365" lon="1.9845384">
        <time>2022-07-09T14:24:25Z</time>
      </trkpt>
      <trkpt lat="42.017464" lon="1.9845895">
        <time>2022-07-09T14:24:27Z</time>
      </trkpt>
      <trkpt lat="42.01751" lon="1.9846138">
        <time>2022-07-09T14:24:28Z</time>
      </trkpt>
      <trkpt lat="42.01756" lon="1.9846392">
        <time>2022-07-09T14:24:29Z</time>
      </trkpt>
      <trkpt lat="42.01766" lon="1.9846891">
        <time>2022-07-09T14:24:31Z</time>
      </trkpt>
      <trkpt lat="42.017708" lon="1.9847138">
        <time>2022-07-09T14:24:32Z</time>
      </trkpt>
      <trkpt lat="42.017757" lon="1.9847394">
        <time>2022-07-09T14:24:33Z</time>
      </trkpt>
      <trkpt lat="42.017803" lon="1.9847634">
        <time>2022-07-09T14:24:34Z</time>
      </trkpt>
      <trkpt lat="42.017853" lon="1.9847891">
        <time>2022-07-09T14:24:35Z</time>
      </trkpt>
      <trkpt lat="42.017902" lon="1.9848138">
        <time>2022-07-09T14:24:36Z</time>
      </trkpt>
      <trkpt lat="42.01799" lon="1.984858">
        <time>2022-07-09T14:24:38Z</time>
      </trkpt>
      <trkpt lat="42.018085" lon="1.9848961">
        <time>2022-07-09T14:24:40Z</time>
      </trkpt>
      <trkpt lat="42.01813" lon="1.9849128">
        <time>2022-07-09T14:24:41Z</time>
      </trkpt>
      <trkpt lat="42.018234" lon="1.9849434">
        <time>2022-07-09T14:24:43Z</time>
      </trkpt>
      <trkpt lat="42.018284" lon="1.984956">
        <time>2022-07-09T14:24:44Z</time>
      </trkpt>
      <trkpt lat="42.018383" lon="1.9849881">
        <time>2022-07-09T14:24:46Z</time>
      </trkpt>
      <trkpt lat="42.01843" lon="1.9850065">
        <time>2022-07-09T14:24:47Z</time>
      </trkpt>
      <trkpt lat="42.018517" lon="1.9850547">
        <time>2022-07-09T14:24:49Z</time>
      </trkpt>
      <trkpt lat="42.01856" lon="1.985084">
        <time>2022-07-09T14:24:50Z</time>
      </trkpt>
      <trkpt lat="42.01864" lon="1.9851494">
        <time>2022-07-09T14:24:52Z</time>
      </trkpt>
      <trkpt lat="42.018715" lon="1.9852217">
        <time>2022-07-09T14:24:54Z</time>
      </trkpt>
      <trkpt lat="42.01879" lon="1.985298">
        <time>2022-07-09T14:24:56Z</time>
      </trkpt>
      <trkpt lat="42.018864" lon="1.985375">
        <time>2022-07-09T14:24:58Z</time>
      </trkpt>
      <trkpt lat="42.018932" lon="1.9854543">
        <time>2022-07-09T14:25:00Z</time>
      </trkpt>
      <trkpt lat="42.019005" lon="1.985533">
        <time>2022-07-09T14:25:02Z</time>
      </trkpt>
      <trkpt lat="42.019077" lon="1.9856124">
        <time>2022-07-09T14:25:04Z</time>
      </trkpt>
      <trkpt lat="42.019146" lon="1.985693">
        <time>2022-07-09T14:25:06Z</time>
      </trkpt>
      <trkpt lat="42.019184" lon="1.9857327">
        <time>2022-07-09T14:25:07Z</time>
      </trkpt>
      <trkpt lat="42.019253" lon="1.9858093">
        <time>2022-07-09T14:25:09Z</time>
      </trkpt>
      <trkpt lat="42.019325" lon="1.9858854">
        <time>2022-07-09T14:25:11Z</time>
      </trkpt>
      <trkpt lat="42.019398" lon="1.9859663">
        <time>2022-07-09T14:25:13Z</time>
      </trkpt>
      <trkpt lat="42.019432" lon="1.9860077">
        <time>2022-07-09T14:25:14Z</time>
      </trkpt>
      <trkpt lat="42.019505" lon="1.9860903">
        <time>2022-07-09T14:25:16Z</time>
      </trkpt>
      <trkpt lat="42.019573" lon="1.9861714">
        <time>2022-07-09T14:25:18Z</time>
      </trkpt>
      <trkpt lat="42.019646" lon="1.9862486">
        <time>2022-07-09T14:25:20Z</time>
      </trkpt>
      <trkpt lat="42.01972" lon="1.9863223">
        <time>2022-07-09T14:25:22Z</time>
      </trkpt>
      <trkpt lat="42.01979" lon="1.986394">
        <time>2022-07-09T14:25:24Z</time>
      </trkpt>
      <trkpt lat="42.019867" lon="1.986456">
        <time>2022-07-09T14:25:26Z</time>
      </trkpt>
      <trkpt lat="42.01995" lon="1.9865123">
        <time>2022-07-09T14:25:28Z</time>
      </trkpt>
      <trkpt lat="42.02003" lon="1.9865687">
        <time>2022-07-09T14:25:30Z</time>
      </trkpt>
      <trkpt lat="42.02012" lon="1.986631">
        <time>2022-07-09T14:25:32Z</time>
      </trkpt>
      <trkpt lat="42.0202" lon="1.9867183">
        <time>2022-07-09T14:25:34Z</time>
      </trkpt>
      <trkpt lat="42.020237" lon="1.9867693">
        <time>2022-07-09T14:25:35Z</time>
      </trkpt>
      <trkpt lat="42.020264" lon="1.986826">
        <time>2022-07-09T14:25:36Z</time>
      </trkpt>
      <trkpt lat="42.020306" lon="1.9869583">
        <time>2022-07-09T14:25:38Z</time>
      </trkpt>
      <trkpt lat="42.020317" lon="1.9870206">
        <time>2022-07-09T14:25:39Z</time>
      </trkpt>
      <trkpt lat="42.020325" lon="1.9871526">
        <time>2022-07-09T14:25:41Z</time>
      </trkpt>
      <trkpt lat="42.02033" lon="1.9872806">
        <time>2022-07-09T14:25:43Z</time>
      </trkpt>
      <trkpt lat="42.020336" lon="1.9874003">
        <time>2022-07-09T14:25:45Z</time>
      </trkpt>
      <trkpt lat="42.020355" lon="1.9875313">
        <time>2022-07-09T14:25:47Z</time>
      </trkpt>
      <trkpt lat="42.020386" lon="1.987649">
        <time>2022-07-09T14:25:49Z</time>
      </trkpt>
      <trkpt lat="42.020428" lon="1.987759">
        <time>2022-07-09T14:25:51Z</time>
      </trkpt>
      <trkpt lat="42.02046" lon="1.9878119">
        <time>2022-07-09T14:25:52Z</time>
      </trkpt>
      <trkpt lat="42.020515" lon="1.9879146">
        <time>2022-07-09T14:25:54Z</time>
      </trkpt>
      <trkpt lat="42.020546" lon="1.9879673">
        <time>2022-07-09T14:25:55Z</time>
      </trkpt>
      <trkpt lat="42.02061" lon="1.9880702">
        <time>2022-07-09T14:25:57Z</time>
      </trkpt>
      <trkpt lat="42.02067" lon="1.9881756">
        <time>2022-07-09T14:25:59Z</time>
      </trkpt>
      <trkpt lat="42.020695" lon="1.9882306">
        <time>2022-07-09T14:26:00Z</time>
      </trkpt>
      <trkpt lat="42.020718" lon="1.9883419">
        <time>2022-07-09T14:26:02Z</time>
      </trkpt>
      <trkpt lat="42.02071" lon="1.9884459">
        <time>2022-07-09T14:26:04Z</time>
      </trkpt>
      <trkpt lat="42.02068" lon="1.9885333">
        <time>2022-07-09T14:26:06Z</time>
      </trkpt>
      <trkpt lat="42.02063" lon="1.9886096">
        <time>2022-07-09T14:26:08Z</time>
      </trkpt>
      <trkpt lat="42.020573" lon="1.9886826">
        <time>2022-07-09T14:26:10Z</time>
      </trkpt>
      <trkpt lat="42.020508" lon="1.9887539">
        <time>2022-07-09T14:26:12Z</time>
      </trkpt>
      <trkpt lat="42.020447" lon="1.9888306">
        <time>2022-07-09T14:26:14Z</time>
      </trkpt>
      <trkpt lat="42.020386" lon="1.9889076">
        <time>2022-07-09T14:26:16Z</time>
      </trkpt>
      <trkpt lat="42.02033" lon="1.9889879">
        <time>2022-07-09T14:26:18Z</time>
      </trkpt>
      <trkpt lat="42.020283" lon="1.9890776">
        <time>2022-07-09T14:26:20Z</time>
      </trkpt>
      <trkpt lat="42.020237" lon="1.9891655">
        <time>2022-07-09T14:26:22Z</time>
      </trkpt>
      <trkpt lat="42.020187" lon="1.9892433">
        <time>2022-07-09T14:26:24Z</time>
      </trkpt>
      <trkpt lat="42.02013" lon="1.9893119">
        <time>2022-07-09T14:26:26Z</time>
      </trkpt>
      <trkpt lat="42.02007" lon="1.9893786">
        <time>2022-07-09T14:26:28Z</time>
      </trkpt>
      <trkpt lat="42.02001" lon="1.9894412">
        <time>2022-07-09T14:26:30Z</time>
      </trkpt>
      <trkpt lat="42.019955" lon="1.9895048">
        <time>2022-07-09T14:26:32Z</time>
      </trkpt>
      <trkpt lat="42.01991" lon="1.9895685">
        <time>2022-07-09T14:26:34Z</time>
      </trkpt>
      <trkpt lat="42.01987" lon="1.9896362">
        <time>2022-07-09T14:26:36Z</time>
      </trkpt>
      <trkpt lat="42.019855" lon="1.9897115">
        <time>2022-07-09T14:26:38Z</time>
      </trkpt>
      <trkpt lat="42.01988" lon="1.9897755">
        <time>2022-07-09T14:26:40Z</time>
      </trkpt>
      <trkpt lat="42.019928" lon="1.9898078">
        <time>2022-07-09T14:26:42Z</time>
      </trkpt>
      <trkpt lat="42.019993" lon="1.9897958">
        <time>2022-07-09T14:26:44Z</time>
      </trkpt>
      <trkpt lat="42.02005" lon="1.9897382">
        <time>2022-07-09T14:26:46Z</time>
      </trkpt>
      <trkpt lat="42.020103" lon="1.9896642">
        <time>2022-07-09T14:26:48Z</time>
      </trkpt>
      <trkpt lat="42.020157" lon="1.9895872">
        <time>2022-07-09T14:26:50Z</time>
      </trkpt>
      <trkpt lat="42.020203" lon="1.9895219">
        <time>2022-07-09T14:26:52Z</time>
      </trkpt>
      <trkpt lat="42.02023" lon="1.9894805">
        <time>2022-07-09T14:26:54Z</time>
      </trkpt>
      <trkpt lat="42.020287" lon="1.9894389">
        <time>2022-07-09T14:29:24Z</time>
      </trkpt>
      <trkpt lat="42.020283" lon="1.9893672">
        <time>2022-07-09T14:29:28Z</time>
      </trkpt>
      <trkpt lat="42.020306" lon="1.9893095">
        <time>2022-07-09T14:29:34Z</time>
      </trkpt>
      <trkpt lat="42.020363" lon="1.9893186">
        <time>2022-07-09T14:29:40Z</time>
      </trkpt>
      <trkpt lat="42.020306" lon="1.9893432">
        <time>2022-07-09T14:29:47Z</time>
      </trkpt>
      <trkpt lat="42.020283" lon="1.9893175">
        <time>2022-07-09T14:29:51Z</time>
      </trkpt>
      <trkpt lat="42.020267" lon="1.9892205">
        <time>2022-07-09T14:29:58Z</time>
      </trkpt>
      <trkpt lat="42.020245" lon="1.9891909">
        <time>2022-07-09T14:30:06Z</time>
      </trkpt>
      <trkpt lat="42.0202" lon="1.9892188">
        <time>2022-07-09T14:30:15Z</time>
      </trkpt>
      <trkpt lat="42.02027" lon="1.9892956">
        <time>2022-07-09T14:30:37Z</time>
      </trkpt>
      <trkpt lat="42.020233" lon="1.9893229">
        <time>2022-07-09T14:30:45Z</time>
      </trkpt>
      <trkpt lat="42.020287" lon="1.9893289">
        <time>2022-07-09T14:30:54Z</time>
      </trkpt>
      <trkpt lat="42.02032" lon="1.9893562">
        <time>2022-07-09T14:30:56Z</time>
      </trkpt>
      <trkpt lat="42.02036" lon="1.9893895">
        <time>2022-07-09T14:30:59Z</time>
      </trkpt>
      <trkpt lat="42.020405" lon="1.9894465">
        <time>2022-07-09T14:31:05Z</time>
      </trkpt>
      <trkpt lat="42.020367" lon="1.9894449">
        <time>2022-07-09T14:31:11Z</time>
      </trkpt>
      <trkpt lat="42.020313" lon="1.9893966">
        <time>2022-07-09T14:31:13Z</time>
      </trkpt>
      <trkpt lat="42.02027" lon="1.9893342">
        <time>2022-07-09T14:31:15Z</time>
      </trkpt>
      <trkpt lat="42.02025" lon="1.9892865">
        <time>2022-07-09T14:31:17Z</time>
      </trkpt>
      <trkpt lat="42.020252" lon="1.9892879">
        <time>2022-07-09T14:31:24Z</time>
      </trkpt>
      <trkpt lat="42.020367" lon="1.9892392">
        <time>2022-07-09T14:32:39Z</time>
      </trkpt>
      <trkpt lat="42.02036" lon="1.9893632">
        <time>2022-07-09T14:32:45Z</time>
      </trkpt>
      <trkpt lat="42.020374" lon="1.9895083">
        <time>2022-07-09T14:32:48Z</time>
      </trkpt>
      <trkpt lat="42.020382" lon="1.9895738">
        <time>2022-07-09T14:32:49Z</time>
      </trkpt>
      <trkpt lat="42.02042" lon="1.9896802">
        <time>2022-07-09T14:32:51Z</time>
      </trkpt>
      <trkpt lat="42.020435" lon="1.9897325">
        <time>2022-07-09T14:32:53Z</time>
      </trkpt>
      <trkpt lat="42.020382" lon="1.9897352">
        <time>2022-07-09T14:32:58Z</time>
      </trkpt>
      <trkpt lat="42.02023" lon="1.9895539">
        <time>2022-07-09T14:36:52Z</time>
      </trkpt>
      <trkpt lat="42.020187" lon="1.9895852">
        <time>2022-07-09T14:40:09Z</time>
      </trkpt>
      <trkpt lat="42.02019" lon="1.9895539">
        <time>2022-07-09T14:40:16Z</time>
      </trkpt>
      <trkpt lat="42.020176" lon="1.9895419">
        <time>2022-07-09T14:43:00Z</time>
      </trkpt>
      <trkpt lat="42.02022" lon="1.9895389">
        <time>2022-07-09T14:43:18Z</time>
      </trkpt>
      <trkpt lat="42.020172" lon="1.9895638">
        <time>2022-07-09T15:03:06Z</time>
      </trkpt>
      <trkpt lat="42.02021" lon="1.9894872">
        <time>2022-07-09T15:03:54Z</time>
      </trkpt>
      <trkpt lat="42.020287" lon="1.9894736">
        <time>2022-07-09T15:03:59Z</time>
      </trkpt>
      <trkpt lat="42.02035" lon="1.9894589">
        <time>2022-07-09T15:04:03Z</time>
      </trkpt>
      <trkpt lat="42.020363" lon="1.9894292">
        <time>2022-07-09T15:04:11Z</time>
      </trkpt>
      <trkpt lat="42.02034" lon="1.9894519">
        <time>2022-07-09T15:04:19Z</time>
      </trkpt>
      <trkpt lat="42.020348" lon="1.9893745">
        <time>2022-07-09T15:06:39Z</time>
      </trkpt>
      <trkpt lat="42.020283" lon="1.9895152">
        <time>2022-07-09T15:07:24Z</time>
      </trkpt>
      <trkpt lat="42.02023" lon="1.9895465">
        <time>2022-07-09T15:07:30Z</time>
      </trkpt>
      <trkpt lat="42.020218" lon="1.9895649">
        <time>2022-07-09T15:07:44Z</time>
      </trkpt>
      <trkpt lat="42.02013" lon="1.9894623">
        <time>2022-07-09T15:10:18Z</time>
      </trkpt>
      <trkpt lat="42.020252" lon="1.989551">
        <time>2022-07-09T15:11:06Z</time>
      </trkpt>
      <trkpt lat="42.020313" lon="1.9894922">
        <time>2022-07-09T15:11:09Z</time>
      </trkpt>
      <trkpt lat="42.020348" lon="1.9894615">
        <time>2022-07-09T15:11:12Z</time>
      </trkpt>
      <trkpt lat="42.02035" lon="1.9895205">
        <time>2022-07-09T15:11:19Z</time>
      </trkpt>
      <trkpt lat="42.0204" lon="1.9895298">
        <time>2022-07-09T15:11:25Z</time>
      </trkpt>
      <trkpt lat="42.020454" lon="1.9894775">
        <time>2022-07-09T15:11:30Z</time>
      </trkpt>
      <trkpt lat="42.020504" lon="1.9894242">
        <time>2022-07-09T15:11:35Z</time>
      </trkpt>
      <trkpt lat="42.020214" lon="1.9895039">
        <time>2022-07-09T15:11:46Z</time>
      </trkpt>
      <trkpt lat="42.02036" lon="1.9895452">
        <time>2022-07-09T15:12:14Z</time>
      </trkpt>
      <trkpt lat="42.02036" lon="1.9896026">
        <time>2022-07-09T15:12:17Z</time>
      </trkpt>
      <trkpt lat="42.02032" lon="1.9896495">
        <time>2022-07-09T15:12:24Z</time>
      </trkpt>
      <trkpt lat="42.02028" lon="1.9896126">
        <time>2022-07-09T15:12:29Z</time>
      </trkpt>
      <trkpt lat="42.02025" lon="1.9896152">
        <time>2022-07-09T15:12:44Z</time>
      </trkpt>
      <trkpt lat="42.020187" lon="1.9896219">
        <time>2022-07-09T15:12:46Z</time>
      </trkpt>
      <trkpt lat="42.020145" lon="1.9896299">
        <time>2022-07-09T15:12:48Z</time>
      </trkpt>
      <trkpt lat="42.020153" lon="1.9896755">
        <time>2022-07-09T15:12:51Z</time>
      </trkpt>
      <trkpt lat="42.020195" lon="1.9897225">
        <time>2022-07-09T15:12:53Z</time>
      </trkpt>
      <trkpt lat="42.020237" lon="1.9897486">
        <time>2022-07-09T15:12:55Z</time>
      </trkpt>
      <trkpt lat="42.020306" lon="1.9897475">
        <time>2022-07-09T15:12:58Z</time>
      </trkpt>
      <trkpt lat="42.020344" lon="1.9897366">
        <time>2022-07-09T15:13:01Z</time>
      </trkpt>
      <trkpt lat="42.020294" lon="1.9896688">
        <time>2022-07-09T15:13:06Z</time>
      </trkpt>
      <trkpt lat="42.020218" lon="1.9896322">
        <time>2022-07-09T15:13:10Z</time>
      </trkpt>
      <trkpt lat="42.02014" lon="1.989618">
        <time>2022-07-09T15:13:12Z</time>
      </trkpt>
      <trkpt lat="42.02006" lon="1.9896113">
        <time>2022-07-09T15:13:14Z</time>
      </trkpt>
      <trkpt lat="42.019985" lon="1.9896076">
        <time>2022-07-09T15:13:16Z</time>
      </trkpt>
      <trkpt lat="42.019928" lon="1.9895946">
        <time>2022-07-09T15:13:18Z</time>
      </trkpt>
      <trkpt lat="42.019913" lon="1.9895645">
        <time>2022-07-09T15:13:21Z</time>
      </trkpt>
      <trkpt lat="42.019905" lon="1.989605">
        <time>2022-07-09T15:13:26Z</time>
      </trkpt>
      <trkpt lat="42.019974" lon="1.9896226">
        <time>2022-07-09T15:13:40Z</time>
      </trkpt>
      <trkpt lat="42.02002" lon="1.9896019">
        <time>2022-07-09T15:13:47Z</time>
      </trkpt>
      <trkpt lat="42.020092" lon="1.9895692">
        <time>2022-07-09T15:13:55Z</time>
      </trkpt>
      <trkpt lat="42.02014" lon="1.9895602">
        <time>2022-07-09T15:13:57Z</time>
      </trkpt>
      <trkpt lat="42.020164" lon="1.9895589">
        <time>2022-07-09T15:14:01Z</time>
      </trkpt>
      <trkpt lat="42.020077" lon="1.9895889">
        <time>2022-07-09T15:14:04Z</time>
      </trkpt>
      <trkpt lat="42.02002" lon="1.9896235">
        <time>2022-07-09T15:14:06Z</time>
      </trkpt>
      <trkpt lat="42.02005" lon="1.9896319">
        <time>2022-07-09T15:14:10Z</time>
      </trkpt>
      <trkpt lat="42.02012" lon="1.9896246">
        <time>2022-07-09T15:14:13Z</time>
      </trkpt>
      <trkpt lat="42.020172" lon="1.9895896">
        <time>2022-07-09T15:14:16Z</time>
      </trkpt>
      <trkpt lat="42.020206" lon="1.9895443">
        <time>2022-07-09T15:14:21Z</time>
      </trkpt>
      <trkpt lat="42.020195" lon="1.9894122">
        <time>2022-07-09T15:14:33Z</time>
      </trkpt>
      <trkpt lat="42.020195" lon="1.9894116">
        <time>2022-07-09T15:14:34Z</time>
      </trkpt>
      <trkpt lat="42.020264" lon="1.9894753">
        <time>2022-07-09T15:14:53Z</time>
      </trkpt>
      <trkpt lat="42.02027" lon="1.9894916">
        <time>2022-07-09T15:15:12Z</time>
      </trkpt>
      <trkpt lat="42.020348" lon="1.9894886">
        <time>2022-07-09T15:15:16Z</time>
      </trkpt>
      <trkpt lat="42.02041" lon="1.9894873">
        <time>2022-07-09T15:15:18Z</time>
      </trkpt>
      <trkpt lat="42.020447" lon="1.9895332">
        <time>2022-07-09T15:15:21Z</time>
      </trkpt>
      <trkpt lat="42.02043" lon="1.9895216">
        <time>2022-07-09T15:15:26Z</time>
      </trkpt>
      <trkpt lat="42.020397" lon="1.9894632">
        <time>2022-07-09T15:15:29Z</time>
      </trkpt>
      <trkpt lat="42.020416" lon="1.9894146">
        <time>2022-07-09T15:15:34Z</time>
      </trkpt>
      <trkpt lat="42.020367" lon="1.9894159">
        <time>2022-07-09T15:15:39Z</time>
      </trkpt>
      <trkpt lat="42.020355" lon="1.9894123">
        <time>2022-07-09T15:15:52Z</time>
      </trkpt>
      <trkpt lat="42.020416" lon="1.9894416">
        <time>2022-07-09T15:15:57Z</time>
      </trkpt>
      <trkpt lat="42.02038" lon="1.9894316">
        <time>2022-07-09T15:16:07Z</time>
      </trkpt>
      <trkpt lat="42.02036" lon="1.9894439">
        <time>2022-07-09T15:16:12Z</time>
      </trkpt>
      <trkpt lat="42.02028" lon="1.9894832">
        <time>2022-07-09T15:16:26Z</time>
      </trkpt>
      <trkpt lat="42.020275" lon="1.9894959">
        <time>2022-07-09T15:16:38Z</time>
      </trkpt>
      <trkpt lat="42.020218" lon="1.9894816">
        <time>2022-07-09T15:16:41Z</time>
      </trkpt>
      <trkpt lat="42.020164" lon="1.9894645">
        <time>2022-07-09T15:16:44Z</time>
      </trkpt>
      <trkpt lat="42.02011" lon="1.9894983">
        <time>2022-07-09T15:16:58Z</time>
      </trkpt>
      <trkpt lat="42.02017" lon="1.9895113">
        <time>2022-07-09T15:17:06Z</time>
      </trkpt>
      <trkpt lat="42.019985" lon="1.9895953">
        <time>2022-07-09T15:18:44Z</time>
      </trkpt>
      <trkpt lat="42.019928" lon="1.9896299">
        <time>2022-07-09T15:18:49Z</time>
      </trkpt>
      <trkpt lat="42.019886" lon="1.9896276">
        <time>2022-07-09T15:18:59Z</time>
      </trkpt>
      <trkpt lat="42.019833" lon="1.9896423">
        <time>2022-07-09T15:19:02Z</time>
      </trkpt>
      <trkpt lat="42.019764" lon="1.9896749">
        <time>2022-07-09T15:19:07Z</time>
      </trkpt>
      <trkpt lat="42.01974" lon="1.9896976">
        <time>2022-07-09T15:19:10Z</time>
      </trkpt>
      <trkpt lat="42.01964" lon="1.9897559">
        <time>2022-07-09T15:19:14Z</time>
      </trkpt>
      <trkpt lat="42.01963" lon="1.9897785">
        <time>2022-07-09T15:19:17Z</time>
      </trkpt>
      <trkpt lat="42.01972" lon="1.9897522">
        <time>2022-07-09T15:19:20Z</time>
      </trkpt>
      <trkpt lat="42.019802" lon="1.9897345">
        <time>2022-07-09T15:19:22Z</time>
      </trkpt>
      <trkpt lat="42.01986" lon="1.9897243">
        <time>2022-07-09T15:19:25Z</time>
      </trkpt>
      <trkpt lat="42.019894" lon="1.9897019">
        <time>2022-07-09T15:19:35Z</time>
      </trkpt>
      <trkpt lat="42.019962" lon="1.9896775">
        <time>2022-07-09T15:19:38Z</time>
      </trkpt>
      <trkpt lat="42.01987" lon="1.9897279">
        <time>2022-07-09T15:19:44Z</time>
      </trkpt>
      <trkpt lat="42.01993" lon="1.9897149">
        <time>2022-07-09T15:19:47Z</time>
      </trkpt>
      <trkpt lat="42.020172" lon="1.9895788">
        <time>2022-07-09T15:20:12Z</time>
      </trkpt>
      <trkpt lat="42.02011" lon="1.9895972">
        <time>2022-07-09T15:20:17Z</time>
      </trkpt>
      <trkpt lat="42.020084" lon="1.9896152">
        <time>2022-07-09T15:20:25Z</time>
      </trkpt>
      <trkpt lat="42.02001" lon="1.9896555">
        <time>2022-07-09T15:21:25Z</time>
      </trkpt>
      <trkpt lat="42.020073" lon="1.9896659">
        <time>2022-07-09T15:21:36Z</time>
      </trkpt>
      <trkpt lat="42.020134" lon="1.9896629">
        <time>2022-07-09T15:21:40Z</time>
      </trkpt>
      <trkpt lat="42.02019" lon="1.9896479">
        <time>2022-07-09T15:21:44Z</time>
      </trkpt>
      <trkpt lat="42.020195" lon="1.9896302">
        <time>2022-07-09T15:21:53Z</time>
      </trkpt>
      <trkpt lat="42.02017" lon="1.9896638">
        <time>2022-07-09T15:21:57Z</time>
      </trkpt>
      <trkpt lat="42.02019" lon="1.9896395">
        <time>2022-07-09T15:22:05Z</time>
      </trkpt>
      <trkpt lat="42.020237" lon="1.9897019">
        <time>2022-07-09T15:22:10Z</time>
      </trkpt>
      <trkpt lat="42.020348" lon="1.9898039">
        <time>2022-07-09T15:22:19Z</time>
      </trkpt>
      <trkpt lat="42.020386" lon="1.9896972">
        <time>2022-07-09T15:22:29Z</time>
      </trkpt>
      <trkpt lat="42.02028" lon="1.9897289">
        <time>2022-07-09T15:22:40Z</time>
      </trkpt>
      <trkpt lat="42.020332" lon="1.9898422">
        <time>2022-07-09T15:22:49Z</time>
      </trkpt>
      <trkpt lat="42.02017" lon="1.9895573">
        <time>2022-07-09T15:23:19Z</time>
      </trkpt>
      <trkpt lat="42.020153" lon="1.9894972">
        <time>2022-07-09T15:23:22Z</time>
      </trkpt>
      <trkpt lat="42.02011" lon="1.9894402">
        <time>2022-07-09T15:23:25Z</time>
      </trkpt>
      <trkpt lat="42.02006" lon="1.9893949">
        <time>2022-07-09T15:23:27Z</time>
      </trkpt>
      <trkpt lat="42.020042" lon="1.9893506">
        <time>2022-07-09T15:23:30Z</time>
      </trkpt>
      <trkpt lat="42.020016" lon="1.9893003">
        <time>2022-07-09T15:23:38Z</time>
      </trkpt>
      <trkpt lat="42.020115" lon="1.9896282">
        <time>2022-07-09T15:25:33Z</time>
      </trkpt>
      <trkpt lat="42.020187" lon="1.9896358">
        <time>2022-07-09T15:25:37Z</time>
      </trkpt>
      <trkpt lat="42.02025" lon="1.9896185">
        <time>2022-07-09T15:25:40Z</time>
      </trkpt>
      <trkpt lat="42.02031" lon="1.9896106">
        <time>2022-07-09T15:25:44Z</time>
      </trkpt>
      <trkpt lat="42.020374" lon="1.9895699">
        <time>2022-07-09T15:25:48Z</time>
      </trkpt>
      <trkpt lat="42.02041" lon="1.9895376">
        <time>2022-07-09T15:25:51Z</time>
      </trkpt>
      <trkpt lat="42.020412" lon="1.9894539">
        <time>2022-07-09T15:25:55Z</time>
      </trkpt>
      <trkpt lat="42.02038" lon="1.9893936">
        <time>2022-07-09T15:25:58Z</time>
      </trkpt>
      <trkpt lat="42.020332" lon="1.9893756">
        <time>2022-07-09T15:26:02Z</time>
      </trkpt>
      <trkpt lat="42.020428" lon="1.9895322">
        <time>2022-07-09T15:26:19Z</time>
      </trkpt>
      <trkpt lat="42.020393" lon="1.9894595">
        <time>2022-07-09T15:26:50Z</time>
      </trkpt>
      <trkpt lat="42.020443" lon="1.9894159">
        <time>2022-07-09T15:27:05Z</time>
      </trkpt>
      <trkpt lat="42.02024" lon="1.9895445">
        <time>2022-07-09T15:34:40Z</time>
      </trkpt>
      <trkpt lat="42.020233" lon="1.9895996">
        <time>2022-07-09T15:35:33Z</time>
      </trkpt>
      <trkpt lat="42.020245" lon="1.9896193">
        <time>2022-07-09T15:57:46Z</time>
      </trkpt>
      <trkpt lat="42.020283" lon="1.9895838">
        <time>2022-07-09T15:57:50Z</time>
      </trkpt>
      <trkpt lat="42.020336" lon="1.9895889">
        <time>2022-07-09T15:57:57Z</time>
      </trkpt>
      <trkpt lat="42.020382" lon="1.9895673">
        <time>2022-07-09T15:58:01Z</time>
      </trkpt>
      <trkpt lat="42.020363" lon="1.9895053">
        <time>2022-07-09T15:58:07Z</time>
      </trkpt>
      <trkpt lat="42.020336" lon="1.9893559">
        <time>2022-07-09T15:58:26Z</time>
      </trkpt>
      <trkpt lat="42.02038" lon="1.9893626">
        <time>2022-07-09T15:58:30Z</time>
      </trkpt>
      <trkpt lat="42.02036" lon="1.9894729">
        <time>2022-07-09T15:59:08Z</time>
      </trkpt>
      <trkpt lat="42.020103" lon="1.9897456">
        <time>2022-07-09T15:59:22Z</time>
      </trkpt>
      <trkpt lat="42.02044" lon="1.9894686">
        <time>2022-07-09T15:59:32Z</time>
      </trkpt>
      <trkpt lat="42.02048" lon="1.9894022">
        <time>2022-07-09T15:59:34Z</time>
      </trkpt>
      <trkpt lat="42.02034" lon="1.9892939">
        <time>2022-07-09T15:59:49Z</time>
      </trkpt>
      <trkpt lat="42.020298" lon="1.9892639">
        <time>2022-07-09T15:59:56Z</time>
      </trkpt>
      <trkpt lat="42.020287" lon="1.9892932">
        <time>2022-07-09T16:00:03Z</time>
      </trkpt>
      <trkpt lat="42.020176" lon="1.9894432">
        <time>2022-07-09T16:02:05Z</time>
      </trkpt>
      <trkpt lat="42.020134" lon="1.9895076">
        <time>2022-07-09T16:02:11Z</time>
      </trkpt>
      <trkpt lat="42.020103" lon="1.9895889">
        <time>2022-07-09T16:02:15Z</time>
      </trkpt>
      <trkpt lat="42.020073" lon="1.9896562">
        <time>2022-07-09T16:02:18Z</time>
      </trkpt>
      <trkpt lat="42.02003" lon="1.9897078">
        <time>2022-07-09T16:02:21Z</time>
      </trkpt>
      <trkpt lat="42.019985" lon="1.9897416">
        <time>2022-07-09T16:02:24Z</time>
      </trkpt>
      <trkpt lat="42.019928" lon="1.9897583">
        <time>2022-07-09T16:02:27Z</time>
      </trkpt>
      <trkpt lat="42.019875" lon="1.9897598">
        <time>2022-07-09T16:02:30Z</time>
      </trkpt>
      <trkpt lat="42.01983" lon="1.9897468">
        <time>2022-07-09T16:02:33Z</time>
      </trkpt>
      <trkpt lat="42.01977" lon="1.9897245">
        <time>2022-07-09T16:02:37Z</time>
      </trkpt>
      <trkpt lat="42.019714" lon="1.9897316">
        <time>2022-07-09T16:02:41Z</time>
      </trkpt>
      <trkpt lat="42.01965" lon="1.9897685">
        <time>2022-07-09T16:02:45Z</time>
      </trkpt>
      <trkpt lat="42.019604" lon="1.9898162">
        <time>2022-07-09T16:02:48Z</time>
      </trkpt>
      <trkpt lat="42.01956" lon="1.9898778">
        <time>2022-07-09T16:02:51Z</time>
      </trkpt>
      <trkpt lat="42.019524" lon="1.9899429">
        <time>2022-07-09T16:02:54Z</time>
      </trkpt>
      <trkpt lat="42.019485" lon="1.9900138">
        <time>2022-07-09T16:02:57Z</time>
      </trkpt>
      <trkpt lat="42.01945" lon="1.9900872">
        <time>2022-07-09T16:03:00Z</time>
      </trkpt>
      <trkpt lat="42.019417" lon="1.9901586">
        <time>2022-07-09T16:03:03Z</time>
      </trkpt>
      <trkpt lat="42.019382" lon="1.9902341">
        <time>2022-07-09T16:03:06Z</time>
      </trkpt>
      <trkpt lat="42.019356" lon="1.9903098">
        <time>2022-07-09T16:03:09Z</time>
      </trkpt>
      <trkpt lat="42.01933" lon="1.9903861">
        <time>2022-07-09T16:03:12Z</time>
      </trkpt>
      <trkpt lat="42.01931" lon="1.9904672">
        <time>2022-07-09T16:03:15Z</time>
      </trkpt>
      <trkpt lat="42.019287" lon="1.9905455">
        <time>2022-07-09T16:03:18Z</time>
      </trkpt>
      <trkpt lat="42.019264" lon="1.9906292">
        <time>2022-07-09T16:03:21Z</time>
      </trkpt>
      <trkpt lat="42.01924" lon="1.9907135">
        <time>2022-07-09T16:03:24Z</time>
      </trkpt>
      <trkpt lat="42.01922" lon="1.9907922">
        <time>2022-07-09T16:03:27Z</time>
      </trkpt>
      <trkpt lat="42.019203" lon="1.9908755">
        <time>2022-07-09T16:03:30Z</time>
      </trkpt>
      <trkpt lat="42.01919" lon="1.9909585">
        <time>2022-07-09T16:03:33Z</time>
      </trkpt>
      <trkpt lat="42.019184" lon="1.9910421">
        <time>2022-07-09T16:03:36Z</time>
      </trkpt>
      <trkpt lat="42.019176" lon="1.9911492">
        <time>2022-07-09T16:03:40Z</time>
      </trkpt>
      <trkpt lat="42.019173" lon="1.9912305">
        <time>2022-07-09T16:03:43Z</time>
      </trkpt>
      <trkpt lat="42.01917" lon="1.9913192">
        <time>2022-07-09T16:03:46Z</time>
      </trkpt>
      <trkpt lat="42.019165" lon="1.9913994">
        <time>2022-07-09T16:03:49Z</time>
      </trkpt>
      <trkpt lat="42.01917" lon="1.9914784">
        <time>2022-07-09T16:03:52Z</time>
      </trkpt>
      <trkpt lat="42.019176" lon="1.9915588">
        <time>2022-07-09T16:03:55Z</time>
      </trkpt>
      <trkpt lat="42.019184" lon="1.9916447">
        <time>2022-07-09T16:03:58Z</time>
      </trkpt>
      <trkpt lat="42.01919" lon="1.9917278">
        <time>2022-07-09T16:04:01Z</time>
      </trkpt>
      <trkpt lat="42.0192" lon="1.9918125">
        <time>2022-07-09T16:04:04Z</time>
      </trkpt>
      <trkpt lat="42.019207" lon="1.9918954">
        <time>2022-07-09T16:04:07Z</time>
      </trkpt>
      <trkpt lat="42.01922" lon="1.9919751">
        <time>2022-07-09T16:04:10Z</time>
      </trkpt>
      <trkpt lat="42.019234" lon="1.9920595">
        <time>2022-07-09T16:04:13Z</time>
      </trkpt>
      <trkpt lat="42.01924" lon="1.9921415">
        <time>2022-07-09T16:04:16Z</time>
      </trkpt>
      <trkpt lat="42.019257" lon="1.992225">
        <time>2022-07-09T16:04:19Z</time>
      </trkpt>
      <trkpt lat="42.01927" lon="1.9923067">
        <time>2022-07-09T16:04:22Z</time>
      </trkpt>
      <trkpt lat="42.019295" lon="1.9923958">
        <time>2022-07-09T16:04:25Z</time>
      </trkpt>
      <trkpt lat="42.01932" lon="1.9924828">
        <time>2022-07-09T16:04:28Z</time>
      </trkpt>
      <trkpt lat="42.01934" lon="1.992542">
        <time>2022-07-09T16:04:30Z</time>
      </trkpt>
      <trkpt lat="42.019367" lon="1.9926277">
        <time>2022-07-09T16:04:33Z</time>
      </trkpt>
      <trkpt lat="42.019386" lon="1.9926901">
        <time>2022-07-09T16:04:35Z</time>
      </trkpt>
      <trkpt lat="42.019417" lon="1.992779">
        <time>2022-07-09T16:04:38Z</time>
      </trkpt>
      <trkpt lat="42.019447" lon="1.9928651">
        <time>2022-07-09T16:04:41Z</time>
      </trkpt>
      <trkpt lat="42.01949" lon="1.9929497">
        <time>2022-07-09T16:04:44Z</time>
      </trkpt>
      <trkpt lat="42.019516" lon="1.9930058">
        <time>2022-07-09T16:04:46Z</time>
      </trkpt>
      <trkpt lat="42.019558" lon="1.9930828">
        <time>2022-07-09T16:04:49Z</time>
      </trkpt>
      <trkpt lat="42.019604" lon="1.993162">
        <time>2022-07-09T16:04:52Z</time>
      </trkpt>
      <trkpt lat="42.019646" lon="1.9932398">
        <time>2022-07-09T16:04:55Z</time>
      </trkpt>
      <trkpt lat="42.019688" lon="1.993317">
        <time>2022-07-09T16:04:58Z</time>
      </trkpt>
      <trkpt lat="42.019722" lon="1.9933677">
        <time>2022-07-09T16:05:00Z</time>
      </trkpt>
      <trkpt lat="42.01977" lon="1.993442">
        <time>2022-07-09T16:05:03Z</time>
      </trkpt>
      <trkpt lat="42.01982" lon="1.9935144">
        <time>2022-07-09T16:05:06Z</time>
      </trkpt>
      <trkpt lat="42.019855" lon="1.993563">
        <time>2022-07-09T16:05:08Z</time>
      </trkpt>
      <trkpt lat="42.01991" lon="1.993634">
        <time>2022-07-09T16:05:11Z</time>
      </trkpt>
      <trkpt lat="42.01996" lon="1.9937084">
        <time>2022-07-09T16:05:14Z</time>
      </trkpt>
      <trkpt lat="42.01999" lon="1.9937607">
        <time>2022-07-09T16:05:16Z</time>
      </trkpt>
      <trkpt lat="42.020042" lon="1.993835">
        <time>2022-07-09T16:05:19Z</time>
      </trkpt>
      <trkpt lat="42.020077" lon="1.9938806">
        <time>2022-07-09T16:05:21Z</time>
      </trkpt>
      <trkpt lat="42.020126" lon="1.9939541">
        <time>2022-07-09T16:05:24Z</time>
      </trkpt>
      <trkpt lat="42.020172" lon="1.9940274">
        <time>2022-07-09T16:05:27Z</time>
      </trkpt>
      <trkpt lat="42.02022" lon="1.9941037">
        <time>2022-07-09T16:05:30Z</time>
      </trkpt>
      <trkpt lat="42.020267" lon="1.9941837">
        <time>2022-07-09T16:05:33Z</time>
      </trkpt>
      <trkpt lat="42.020294" lon="1.994238">
        <time>2022-07-09T16:05:35Z</time>
      </trkpt>
      <trkpt lat="42.020336" lon="1.9943186">
        <time>2022-07-09T16:05:38Z</time>
      </trkpt>
      <trkpt lat="42.02038" lon="1.9944003">
        <time>2022-07-09T16:05:41Z</time>
      </trkpt>
      <trkpt lat="42.02041" lon="1.9944793">
        <time>2022-07-09T16:05:44Z</time>
      </trkpt>
      <trkpt lat="42.02044" lon="1.994557">
        <time>2022-07-09T16:05:47Z</time>
      </trkpt>
      <trkpt lat="42.02047" lon="1.9946296">
        <time>2022-07-09T16:05:50Z</time>
      </trkpt>
      <trkpt lat="42.020493" lon="1.994704">
        <time>2022-07-09T16:05:53Z</time>
      </trkpt>
      <trkpt lat="42.020515" lon="1.9947783">
        <time>2022-07-09T16:05:56Z</time>
      </trkpt>
      <trkpt lat="42.02054" lon="1.9948553">
        <time>2022-07-09T16:05:59Z</time>
      </trkpt>
      <trkpt lat="42.02056" lon="1.9949332">
        <time>2022-07-09T16:06:02Z</time>
      </trkpt>
      <trkpt lat="42.020584" lon="1.9950136">
        <time>2022-07-09T16:06:05Z</time>
      </trkpt>
      <trkpt lat="42.020603" lon="1.9950986">
        <time>2022-07-09T16:06:08Z</time>
      </trkpt>
      <trkpt lat="42.020622" lon="1.9951847">
        <time>2022-07-09T16:06:11Z</time>
      </trkpt>
      <trkpt lat="42.020638" lon="1.995269">
        <time>2022-07-09T16:06:14Z</time>
      </trkpt>
      <trkpt lat="42.02065" lon="1.9953473">
        <time>2022-07-09T16:06:17Z</time>
      </trkpt>
      <trkpt lat="42.02066" lon="1.9954319">
        <time>2022-07-09T16:06:20Z</time>
      </trkpt>
      <trkpt lat="42.02067" lon="1.9955196">
        <time>2022-07-09T16:06:23Z</time>
      </trkpt>
      <trkpt lat="42.020676" lon="1.99561">
        <time>2022-07-09T16:06:26Z</time>
      </trkpt>
      <trkpt lat="42.020683" lon="1.9956969">
        <time>2022-07-09T16:06:29Z</time>
      </trkpt>
      <trkpt lat="42.02069" lon="1.9957826">
        <time>2022-07-09T16:06:32Z</time>
      </trkpt>
      <trkpt lat="42.020695" lon="1.9958699">
        <time>2022-07-09T16:06:35Z</time>
      </trkpt>
      <trkpt lat="42.0207" lon="1.9959569">
        <time>2022-07-09T16:06:38Z</time>
      </trkpt>
      <trkpt lat="42.0207" lon="1.9960465">
        <time>2022-07-09T16:06:41Z</time>
      </trkpt>
      <trkpt lat="42.02069" lon="1.9961426">
        <time>2022-07-09T16:06:44Z</time>
      </trkpt>
      <trkpt lat="42.020683" lon="1.9962339">
        <time>2022-07-09T16:06:47Z</time>
      </trkpt>
      <trkpt lat="42.02068" lon="1.9963496">
        <time>2022-07-09T16:06:51Z</time>
      </trkpt>
      <trkpt lat="42.020676" lon="1.9964362">
        <time>2022-07-09T16:06:54Z</time>
      </trkpt>
      <trkpt lat="42.02067" lon="1.9965189">
        <time>2022-07-09T16:06:57Z</time>
      </trkpt>
      <trkpt lat="42.020657" lon="1.9966046">
        <time>2022-07-09T16:07:00Z</time>
      </trkpt>
      <trkpt lat="42.020645" lon="1.9966946">
        <time>2022-07-09T16:07:03Z</time>
      </trkpt>
      <trkpt lat="42.020634" lon="1.9967782">
        <time>2022-07-09T16:07:06Z</time>
      </trkpt>
      <trkpt lat="42.02062" lon="1.9968636">
        <time>2022-07-09T16:07:09Z</time>
      </trkpt>
      <trkpt lat="42.020607" lon="1.9969472">
        <time>2022-07-09T16:07:12Z</time>
      </trkpt>
      <trkpt lat="42.020588" lon="1.9970286">
        <time>2022-07-09T16:07:15Z</time>
      </trkpt>
      <trkpt lat="42.02057" lon="1.9971092">
        <time>2022-07-09T16:07:18Z</time>
      </trkpt>
      <trkpt lat="42.020542" lon="1.9971905">
        <time>2022-07-09T16:07:21Z</time>
      </trkpt>
      <trkpt lat="42.02052" lon="1.9972695">
        <time>2022-07-09T16:07:24Z</time>
      </trkpt>
      <trkpt lat="42.02049" lon="1.9973506">
        <time>2022-07-09T16:07:27Z</time>
      </trkpt>
      <trkpt lat="42.02046" lon="1.9974306">
        <time>2022-07-09T16:07:30Z</time>
      </trkpt>
      <trkpt lat="42.020424" lon="1.9975092">
        <time>2022-07-09T16:07:33Z</time>
      </trkpt>
      <trkpt lat="42.02039" lon="1.9975878">
        <time>2022-07-09T16:07:36Z</time>
      </trkpt>
      <trkpt lat="42.020355" lon="1.9976665">
        <time>2022-07-09T16:07:39Z</time>
      </trkpt>
      <trkpt lat="42.02032" lon="1.9977422">
        <time>2022-07-09T16:07:42Z</time>
      </trkpt>
      <trkpt lat="42.020287" lon="1.9978162">
        <time>2022-07-09T16:07:45Z</time>
      </trkpt>
      <trkpt lat="42.02025" lon="1.9978901">
        <time>2022-07-09T16:07:48Z</time>
      </trkpt>
      <trkpt lat="42.02021" lon="1.9979621">
        <time>2022-07-09T16:07:51Z</time>
      </trkpt>
      <trkpt lat="42.020157" lon="1.9980536">
        <time>2022-07-09T16:07:55Z</time>
      </trkpt>
      <trkpt lat="42.02012" lon="1.9981241">
        <time>2022-07-09T16:07:58Z</time>
      </trkpt>
      <trkpt lat="42.020077" lon="1.9981922">
        <time>2022-07-09T16:08:01Z</time>
      </trkpt>
      <trkpt lat="42.02003" lon="1.9982598">
        <time>2022-07-09T16:08:04Z</time>
      </trkpt>
      <trkpt lat="42.01999" lon="1.9983288">
        <time>2022-07-09T16:08:07Z</time>
      </trkpt>
      <trkpt lat="42.019947" lon="1.9983952">
        <time>2022-07-09T16:08:10Z</time>
      </trkpt>
      <trkpt lat="42.019905" lon="1.9984652">
        <time>2022-07-09T16:08:13Z</time>
      </trkpt>
      <trkpt lat="42.019867" lon="1.9985365">
        <time>2022-07-09T16:08:16Z</time>
      </trkpt>
      <trkpt lat="42.019836" lon="1.9985858">
        <time>2022-07-09T16:08:18Z</time>
      </trkpt>
      <trkpt lat="42.01979" lon="1.9986551">
        <time>2022-07-09T16:08:21Z</time>
      </trkpt>
      <trkpt lat="42.01975" lon="1.9987237">
        <time>2022-07-09T16:08:24Z</time>
      </trkpt>
      <trkpt lat="42.019707" lon="1.9987905">
        <time>2022-07-09T16:08:27Z</time>
      </trkpt>
      <trkpt lat="42.01966" lon="1.9988588">
        <time>2022-07-09T16:08:30Z</time>
      </trkpt>
      <trkpt lat="42.01963" lon="1.9989024">
        <time>2022-07-09T16:08:32Z</time>
      </trkpt>
      <trkpt lat="42.019585" lon="1.9989655">
        <time>2022-07-09T16:08:35Z</time>
      </trkpt>
      <trkpt lat="42.01954" lon="1.9990281">
        <time>2022-07-09T16:08:38Z</time>
      </trkpt>
      <trkpt lat="42.019493" lon="1.9990945">
        <time>2022-07-09T16:08:41Z</time>
      </trkpt>
      <trkpt lat="42.01945" lon="1.9991632">
        <time>2022-07-09T16:08:44Z</time>
      </trkpt>
      <trkpt lat="42.019413" lon="1.9992315">
        <time>2022-07-09T16:08:47Z</time>
      </trkpt>
      <trkpt lat="42.01938" lon="1.9992964">
        <time>2022-07-09T16:08:50Z</time>
      </trkpt>
      <trkpt lat="42.019344" lon="1.9993625">
        <time>2022-07-09T16:08:53Z</time>
      </trkpt>
      <trkpt lat="42.019302" lon="1.999425">
        <time>2022-07-09T16:08:56Z</time>
      </trkpt>
      <trkpt lat="42.019264" lon="1.9994904">
        <time>2022-07-09T16:08:59Z</time>
      </trkpt>
      <trkpt lat="42.019226" lon="1.9995581">
        <time>2022-07-09T16:09:02Z</time>
      </trkpt>
      <trkpt lat="42.019184" lon="1.9996254">
        <time>2022-07-09T16:09:05Z</time>
      </trkpt>
      <trkpt lat="42.01915" lon="1.9996897">
        <time>2022-07-09T16:09:08Z</time>
      </trkpt>
      <trkpt lat="42.01911" lon="1.9997548">
        <time>2022-07-09T16:09:11Z</time>
      </trkpt>
      <trkpt lat="42.019073" lon="1.999822">
        <time>2022-07-09T16:09:14Z</time>
      </trkpt>
      <trkpt lat="42.019035" lon="1.9998881">
        <time>2022-07-09T16:09:17Z</time>
      </trkpt>
      <trkpt lat="42.019" lon="1.9999458">
        <time>2022-07-09T16:09:20Z</time>
      </trkpt>
      <trkpt lat="42.01897" lon="1.9999948">
        <time>2022-07-09T16:09:22Z</time>
      </trkpt>
      <trkpt lat="42.018932" lon="2.0000634">
        <time>2022-07-09T16:09:25Z</time>
      </trkpt>
      <trkpt lat="42.018894" lon="2.0001278">
        <time>2022-07-09T16:09:28Z</time>
      </trkpt>
      <trkpt lat="42.01886" lon="2.0001907">
        <time>2022-07-09T16:09:31Z</time>
      </trkpt>
      <trkpt lat="42.01882" lon="2.0002577">
        <time>2022-07-09T16:09:34Z</time>
      </trkpt>
      <trkpt lat="42.01878" lon="2.0003211">
        <time>2022-07-09T16:09:37Z</time>
      </trkpt>
      <trkpt lat="42.01874" lon="2.0003848">
        <time>2022-07-09T16:09:40Z</time>
      </trkpt>
      <trkpt lat="42.018703" lon="2.000448">
        <time>2022-07-09T16:09:43Z</time>
      </trkpt>
      <trkpt lat="42.018665" lon="2.0005105">
        <time>2022-07-09T16:09:46Z</time>
      </trkpt>
      <trkpt lat="42.018623" lon="2.000574">
        <time>2022-07-09T16:09:49Z</time>
      </trkpt>
      <trkpt lat="42.01858" lon="2.000644">
        <time>2022-07-09T16:09:52Z</time>
      </trkpt>
      <trkpt lat="42.01854" lon="2.000717">
        <time>2022-07-09T16:09:55Z</time>
      </trkpt>
      <trkpt lat="42.018497" lon="2.0007837">
        <time>2022-07-09T16:09:58Z</time>
      </trkpt>
      <trkpt lat="42.01844" lon="2.0008717">
        <time>2022-07-09T16:10:02Z</time>
      </trkpt>
      <trkpt lat="42.018402" lon="2.000936">
        <time>2022-07-09T16:10:05Z</time>
      </trkpt>
      <trkpt lat="42.01836" lon="2.0009966">
        <time>2022-07-09T16:10:08Z</time>
      </trkpt>
      <trkpt lat="42.018322" lon="2.0010583">
        <time>2022-07-09T16:10:11Z</time>
      </trkpt>
      <trkpt lat="42.018284" lon="2.00112">
        <time>2022-07-09T16:10:14Z</time>
      </trkpt>
      <trkpt lat="42.018246" lon="2.0011837">
        <time>2022-07-09T16:10:17Z</time>
      </trkpt>
      <trkpt lat="42.018208" lon="2.001246">
        <time>2022-07-09T16:10:20Z</time>
      </trkpt>
      <trkpt lat="42.018173" lon="2.0013022">
        <time>2022-07-09T16:10:23Z</time>
      </trkpt>
      <trkpt lat="42.018143" lon="2.001356">
        <time>2022-07-09T16:10:26Z</time>
      </trkpt>
      <trkpt lat="42.0181" lon="2.0014246">
        <time>2022-07-09T16:10:30Z</time>
      </trkpt>
      <trkpt lat="42.018063" lon="2.001488">
        <time>2022-07-09T16:10:34Z</time>
      </trkpt>
      <trkpt lat="42.018024" lon="2.001549">
        <time>2022-07-09T16:10:38Z</time>
      </trkpt>
      <trkpt lat="42.017982" lon="2.0016136">
        <time>2022-07-09T16:10:42Z</time>
      </trkpt>
      <trkpt lat="42.017952" lon="2.001666">
        <time>2022-07-09T16:10:45Z</time>
      </trkpt>
      <trkpt lat="42.017914" lon="2.001738">
        <time>2022-07-09T16:10:49Z</time>
      </trkpt>
      <trkpt lat="42.017883" lon="2.0017934">
        <time>2022-07-09T16:10:52Z</time>
      </trkpt>
      <trkpt lat="42.01784" lon="2.0018642">
        <time>2022-07-09T16:10:56Z</time>
      </trkpt>
      <trkpt lat="42.017803" lon="2.0019174">
        <time>2022-07-09T16:10:59Z</time>
      </trkpt>
      <trkpt lat="42.01777" lon="2.0019703">
        <time>2022-07-09T16:11:02Z</time>
      </trkpt>
      <trkpt lat="42.017727" lon="2.0020382">
        <time>2022-07-09T16:11:06Z</time>
      </trkpt>
      <trkpt lat="42.017696" lon="2.0020902">
        <time>2022-07-09T16:11:09Z</time>
      </trkpt>
      <trkpt lat="42.017654" lon="2.0021596">
        <time>2022-07-09T16:11:13Z</time>
      </trkpt>
      <trkpt lat="42.017624" lon="2.002212">
        <time>2022-07-09T16:11:16Z</time>
      </trkpt>
      <trkpt lat="42.017582" lon="2.002284">
        <time>2022-07-09T16:11:20Z</time>
      </trkpt>
      <trkpt lat="42.017555" lon="2.0023365">
        <time>2022-07-09T16:11:23Z</time>
      </trkpt>
      <trkpt lat="42.017517" lon="2.002406">
        <time>2022-07-09T16:11:27Z</time>
      </trkpt>
      <trkpt lat="42.01748" lon="2.0024827">
        <time>2022-07-09T16:11:31Z</time>
      </trkpt>
      <trkpt lat="42.017456" lon="2.0025423">
        <time>2022-07-09T16:11:34Z</time>
      </trkpt>
      <trkpt lat="42.017426" lon="2.002622">
        <time>2022-07-09T16:11:38Z</time>
      </trkpt>
      <trkpt lat="42.017403" lon="2.002683">
        <time>2022-07-09T16:11:41Z</time>
      </trkpt>
      <trkpt lat="42.017376" lon="2.002765">
        <time>2022-07-09T16:11:45Z</time>
      </trkpt>
      <trkpt lat="42.01736" lon="2.0028296">
        <time>2022-07-09T16:11:48Z</time>
      </trkpt>
      <trkpt lat="42.017338" lon="2.0029142">
        <time>2022-07-09T16:11:52Z</time>
      </trkpt>
      <trkpt lat="42.01732" lon="2.0029795">
        <time>2022-07-09T16:11:55Z</time>
      </trkpt>
      <trkpt lat="42.0173" lon="2.0030441">
        <time>2022-07-09T16:11:58Z</time>
      </trkpt>
      <trkpt lat="42.01728" lon="2.0031354">
        <time>2022-07-09T16:12:02Z</time>
      </trkpt>
      <trkpt lat="42.01727" lon="2.0032063">
        <time>2022-07-09T16:12:05Z</time>
      </trkpt>
      <trkpt lat="42.01725" lon="2.0033133">
        <time>2022-07-09T16:12:10Z</time>
      </trkpt>
      <trkpt lat="42.017235" lon="2.003372">
        <time>2022-07-09T16:12:18Z</time>
      </trkpt>
      <trkpt lat="42.0172" lon="2.0034125">
        <time>2022-07-09T16:13:41Z</time>
      </trkpt>
      <trkpt lat="42.017193" lon="2.0034845">
        <time>2022-07-09T16:13:44Z</time>
      </trkpt>
      <trkpt lat="42.017185" lon="2.0035646">
        <time>2022-07-09T16:13:47Z</time>
      </trkpt>
      <trkpt lat="42.017178" lon="2.0036385">
        <time>2022-07-09T16:13:50Z</time>
      </trkpt>
      <trkpt lat="42.017178" lon="2.003713">
        <time>2022-07-09T16:13:53Z</time>
      </trkpt>
      <trkpt lat="42.01718" lon="2.0037873">
        <time>2022-07-09T16:13:56Z</time>
      </trkpt>
      <trkpt lat="42.017185" lon="2.0038643">
        <time>2022-07-09T16:13:59Z</time>
      </trkpt>
      <trkpt lat="42.01718" lon="2.0039432">
        <time>2022-07-09T16:14:02Z</time>
      </trkpt>
      <trkpt lat="42.017185" lon="2.0040243">
        <time>2022-07-09T16:14:05Z</time>
      </trkpt>
      <trkpt lat="42.017185" lon="2.0041034">
        <time>2022-07-09T16:14:08Z</time>
      </trkpt>
      <trkpt lat="42.017185" lon="2.0041804">
        <time>2022-07-09T16:14:11Z</time>
      </trkpt>
      <trkpt lat="42.01719" lon="2.004262">
        <time>2022-07-09T16:14:14Z</time>
      </trkpt>
      <trkpt lat="42.017197" lon="2.0043411">
        <time>2022-07-09T16:14:17Z</time>
      </trkpt>
      <trkpt lat="42.017197" lon="2.0044236">
        <time>2022-07-09T16:14:20Z</time>
      </trkpt>
      <trkpt lat="42.017204" lon="2.0045068">
        <time>2022-07-09T16:14:23Z</time>
      </trkpt>
      <trkpt lat="42.017212" lon="2.0045874">
        <time>2022-07-09T16:14:26Z</time>
      </trkpt>
      <trkpt lat="42.01722" lon="2.004671">
        <time>2022-07-09T16:14:29Z</time>
      </trkpt>
      <trkpt lat="42.017235" lon="2.0047457">
        <time>2022-07-09T16:14:32Z</time>
      </trkpt>
      <trkpt lat="42.01725" lon="2.0048206">
        <time>2022-07-09T16:14:35Z</time>
      </trkpt>
      <trkpt lat="42.01727" lon="2.0048969">
        <time>2022-07-09T16:14:38Z</time>
      </trkpt>
      <trkpt lat="42.01729" lon="2.0049744">
        <time>2022-07-09T16:14:41Z</time>
      </trkpt>
      <trkpt lat="42.017303" lon="2.0050492">
        <time>2022-07-09T16:14:44Z</time>
      </trkpt>
      <trkpt lat="42.017323" lon="2.0051224">
        <time>2022-07-09T16:14:47Z</time>
      </trkpt>
      <trkpt lat="42.01734" lon="2.0051994">
        <time>2022-07-09T16:14:50Z</time>
      </trkpt>
      <trkpt lat="42.01736" lon="2.0052729">
        <time>2022-07-09T16:14:53Z</time>
      </trkpt>
      <trkpt lat="42.017384" lon="2.0053432">
        <time>2022-07-09T16:14:56Z</time>
      </trkpt>
      <trkpt lat="42.017406" lon="2.0054147">
        <time>2022-07-09T16:14:59Z</time>
      </trkpt>
      <trkpt lat="42.01743" lon="2.0054858">
        <time>2022-07-09T16:15:02Z</time>
      </trkpt>
      <trkpt lat="42.017452" lon="2.005557">
        <time>2022-07-09T16:15:05Z</time>
      </trkpt>
      <trkpt lat="42.01748" lon="2.005624">
        <time>2022-07-09T16:15:08Z</time>
      </trkpt>
      <trkpt lat="42.0175" lon="2.0056908">
        <time>2022-07-09T16:15:11Z</time>
      </trkpt>
      <trkpt lat="42.017532" lon="2.0057538">
        <time>2022-07-09T16:15:14Z</time>
      </trkpt>
      <trkpt lat="42.017563" lon="2.0058181">
        <time>2022-07-09T16:15:17Z</time>
      </trkpt>
      <trkpt lat="42.017593" lon="2.0058784">
        <time>2022-07-09T16:15:20Z</time>
      </trkpt>
      <trkpt lat="42.017628" lon="2.0059402">
        <time>2022-07-09T16:15:23Z</time>
      </trkpt>
      <trkpt lat="42.01767" lon="2.006019">
        <time>2022-07-09T16:15:27Z</time>
      </trkpt>
      <trkpt lat="42.0177" lon="2.0060804">
        <time>2022-07-09T16:15:30Z</time>
      </trkpt>
      <trkpt lat="42.017735" lon="2.006144">
        <time>2022-07-09T16:15:33Z</time>
      </trkpt>
      <trkpt lat="42.017773" lon="2.0062068">
        <time>2022-07-09T16:15:36Z</time>
      </trkpt>
      <trkpt lat="42.017807" lon="2.0062654">
        <time>2022-07-09T16:15:39Z</time>
      </trkpt>
      <trkpt lat="42.017845" lon="2.0063214">
        <time>2022-07-09T16:15:42Z</time>
      </trkpt>
      <trkpt lat="42.01788" lon="2.006381">
        <time>2022-07-09T16:15:45Z</time>
      </trkpt>
      <trkpt lat="42.017918" lon="2.0064387">
        <time>2022-07-09T16:15:48Z</time>
      </trkpt>
      <trkpt lat="42.017956" lon="2.0064964">
        <time>2022-07-09T16:15:51Z</time>
      </trkpt>
      <trkpt lat="42.01799" lon="2.006553">
        <time>2022-07-09T16:15:54Z</time>
      </trkpt>
      <trkpt lat="42.01803" lon="2.0066118">
        <time>2022-07-09T16:15:57Z</time>
      </trkpt>
      <trkpt lat="42.018066" lon="2.006668">
        <time>2022-07-09T16:16:00Z</time>
      </trkpt>
      <trkpt lat="42.018105" lon="2.0067234">
        <time>2022-07-09T16:16:03Z</time>
      </trkpt>
      <trkpt lat="42.018143" lon="2.006777">
        <time>2022-07-09T16:16:06Z</time>
      </trkpt>
      <trkpt lat="42.01818" lon="2.0068307">
        <time>2022-07-09T16:16:09Z</time>
      </trkpt>
      <trkpt lat="42.01822" lon="2.006887">
        <time>2022-07-09T16:16:12Z</time>
      </trkpt>
      <trkpt lat="42.018253" lon="2.0069447">
        <time>2022-07-09T16:16:15Z</time>
      </trkpt>
      <trkpt lat="42.018284" lon="2.0070047">
        <time>2022-07-09T16:16:18Z</time>
      </trkpt>
      <trkpt lat="42.01832" lon="2.0070658">
        <time>2022-07-09T16:16:21Z</time>
      </trkpt>
      <trkpt lat="42.018353" lon="2.0071278">
        <time>2022-07-09T16:16:24Z</time>
      </trkpt>
      <trkpt lat="42.018383" lon="2.0071871">
        <time>2022-07-09T16:16:27Z</time>
      </trkpt>
      <trkpt lat="42.018417" lon="2.0072484">
        <time>2022-07-09T16:16:30Z</time>
      </trkpt>
      <trkpt lat="42.018444" lon="2.0073123">
        <time>2022-07-09T16:16:33Z</time>
      </trkpt>
      <trkpt lat="42.018475" lon="2.0073752">
        <time>2022-07-09T16:16:36Z</time>
      </trkpt>
      <trkpt lat="42.0185" lon="2.0074372">
        <time>2022-07-09T16:16:39Z</time>
      </trkpt>
      <trkpt lat="42.01853" lon="2.007503">
        <time>2022-07-09T16:16:42Z</time>
      </trkpt>
      <trkpt lat="42.018562" lon="2.0075684">
        <time>2022-07-09T16:16:45Z</time>
      </trkpt>
      <trkpt lat="42.018585" lon="2.0076334">
        <time>2022-07-09T16:16:48Z</time>
      </trkpt>
      <trkpt lat="42.018612" lon="2.007697">
        <time>2022-07-09T16:16:51Z</time>
      </trkpt>
      <trkpt lat="42.018635" lon="2.007764">
        <time>2022-07-09T16:16:54Z</time>
      </trkpt>
      <trkpt lat="42.018658" lon="2.007831">
        <time>2022-07-09T16:16:57Z</time>
      </trkpt>
      <trkpt lat="42.018677" lon="2.0078976">
        <time>2022-07-09T16:17:00Z</time>
      </trkpt>
      <trkpt lat="42.018696" lon="2.0079668">
        <time>2022-07-09T16:17:03Z</time>
      </trkpt>
      <trkpt lat="42.01872" lon="2.0080383">
        <time>2022-07-09T16:17:06Z</time>
      </trkpt>
      <trkpt lat="42.018734" lon="2.008108">
        <time>2022-07-09T16:17:09Z</time>
      </trkpt>
      <trkpt lat="42.01875" lon="2.0081737">
        <time>2022-07-09T16:17:12Z</time>
      </trkpt>
      <trkpt lat="42.018772" lon="2.008262">
        <time>2022-07-09T16:17:16Z</time>
      </trkpt>
      <trkpt lat="42.018787" lon="2.0083287">
        <time>2022-07-09T16:17:19Z</time>
      </trkpt>
      <trkpt lat="42.018806" lon="2.008399">
        <time>2022-07-09T16:17:22Z</time>
      </trkpt>
      <trkpt lat="42.01882" lon="2.008492">
        <time>2022-07-09T16:17:26Z</time>
      </trkpt>
      <trkpt lat="42.018833" lon="2.0085685">
        <time>2022-07-09T16:17:29Z</time>
      </trkpt>
      <trkpt lat="42.01884" lon="2.0086446">
        <time>2022-07-09T16:17:32Z</time>
      </trkpt>
      <trkpt lat="42.01885" lon="2.008719">
        <time>2022-07-09T16:17:35Z</time>
      </trkpt>
      <trkpt lat="42.01886" lon="2.0087936">
        <time>2022-07-09T16:17:38Z</time>
      </trkpt>
      <trkpt lat="42.018867" lon="2.0088663">
        <time>2022-07-09T16:17:41Z</time>
      </trkpt>
      <trkpt lat="42.018875" lon="2.00894">
        <time>2022-07-09T16:17:44Z</time>
      </trkpt>
      <trkpt lat="42.018883" lon="2.0090127">
        <time>2022-07-09T16:17:47Z</time>
      </trkpt>
      <trkpt lat="42.018887" lon="2.0090866">
        <time>2022-07-09T16:17:50Z</time>
      </trkpt>
      <trkpt lat="42.01889" lon="2.0091588">
        <time>2022-07-09T16:17:53Z</time>
      </trkpt>
      <trkpt lat="42.01889" lon="2.0092297">
        <time>2022-07-09T16:17:56Z</time>
      </trkpt>
      <trkpt lat="42.018887" lon="2.0093021">
        <time>2022-07-09T16:17:59Z</time>
      </trkpt>
      <trkpt lat="42.018887" lon="2.009377">
        <time>2022-07-09T16:18:02Z</time>
      </trkpt>
      <trkpt lat="42.018883" lon="2.009451">
        <time>2022-07-09T16:18:05Z</time>
      </trkpt>
      <trkpt lat="42.01888" lon="2.0095258">
        <time>2022-07-09T16:18:08Z</time>
      </trkpt>
      <trkpt lat="42.01887" lon="2.0095985">
        <time>2022-07-09T16:18:11Z</time>
      </trkpt>
      <trkpt lat="42.018867" lon="2.0096695">
        <time>2022-07-09T16:18:14Z</time>
      </trkpt>
      <trkpt lat="42.01886" lon="2.0097582">
        <time>2022-07-09T16:18:18Z</time>
      </trkpt>
      <trkpt lat="42.018852" lon="2.0098438">
        <time>2022-07-09T16:18:22Z</time>
      </trkpt>
      <trkpt lat="42.01885" lon="2.0099108">
        <time>2022-07-09T16:18:25Z</time>
      </trkpt>
      <trkpt lat="42.018845" lon="2.010002">
        <time>2022-07-09T16:18:29Z</time>
      </trkpt>
      <trkpt lat="42.018837" lon="2.010095">
        <time>2022-07-09T16:18:33Z</time>
      </trkpt>
      <trkpt lat="42.01883" lon="2.0101805">
        <time>2022-07-09T16:18:37Z</time>
      </trkpt>
      <trkpt lat="42.018818" lon="2.0102491">
        <time>2022-07-09T16:18:40Z</time>
      </trkpt>
      <trkpt lat="42.018803" lon="2.0103338">
        <time>2022-07-09T16:18:44Z</time>
      </trkpt>
      <trkpt lat="42.01879" lon="2.010419">
        <time>2022-07-09T16:18:48Z</time>
      </trkpt>
      <trkpt lat="42.018784" lon="2.010481">
        <time>2022-07-09T16:18:51Z</time>
      </trkpt>
      <trkpt lat="42.01877" lon="2.0105665">
        <time>2022-07-09T16:18:55Z</time>
      </trkpt>
      <trkpt lat="42.018753" lon="2.010651">
        <time>2022-07-09T16:18:59Z</time>
      </trkpt>
      <trkpt lat="42.018738" lon="2.0107338">
        <time>2022-07-09T16:19:03Z</time>
      </trkpt>
      <trkpt lat="42.018723" lon="2.0108125">
        <time>2022-07-09T16:19:07Z</time>
      </trkpt>
      <trkpt lat="42.01871" lon="2.0108972">
        <time>2022-07-09T16:19:11Z</time>
      </trkpt>
      <trkpt lat="42.018696" lon="2.010981">
        <time>2022-07-09T16:19:15Z</time>
      </trkpt>
      <trkpt lat="42.018684" lon="2.011064">
        <time>2022-07-09T16:19:19Z</time>
      </trkpt>
      <trkpt lat="42.01866" lon="2.0111506">
        <time>2022-07-09T16:19:23Z</time>
      </trkpt>
      <trkpt lat="42.01865" lon="2.0112169">
        <time>2022-07-09T16:19:26Z</time>
      </trkpt>
      <trkpt lat="42.01864" lon="2.0112855">
        <time>2022-07-09T16:19:29Z</time>
      </trkpt>
      <trkpt lat="42.018623" lon="2.0113697">
        <time>2022-07-09T16:19:33Z</time>
      </trkpt>
      <trkpt lat="42.018616" lon="2.0114331">
        <time>2022-07-09T16:19:36Z</time>
      </trkpt>
      <trkpt lat="42.01861" lon="2.0115209">
        <time>2022-07-09T16:19:40Z</time>
      </trkpt>
      <trkpt lat="42.018604" lon="2.0116117">
        <time>2022-07-09T16:19:44Z</time>
      </trkpt>
      <trkpt lat="42.0186" lon="2.0116782">
        <time>2022-07-09T16:19:47Z</time>
      </trkpt>
      <trkpt lat="42.018597" lon="2.0117614">
        <time>2022-07-09T16:19:51Z</time>
      </trkpt>
      <trkpt lat="42.018597" lon="2.0118444">
        <time>2022-07-09T16:19:55Z</time>
      </trkpt>
      <trkpt lat="42.018597" lon="2.0119321">
        <time>2022-07-09T16:19:59Z</time>
      </trkpt>
      <trkpt lat="42.018593" lon="2.0120199">
        <time>2022-07-09T16:20:03Z</time>
      </trkpt>
      <trkpt lat="42.018597" lon="2.0120873">
        <time>2022-07-09T16:20:06Z</time>
      </trkpt>
      <trkpt lat="42.0186" lon="2.0121758">
        <time>2022-07-09T16:20:10Z</time>
      </trkpt>
      <trkpt lat="42.0186" lon="2.012244">
        <time>2022-07-09T16:20:13Z</time>
      </trkpt>
      <trkpt lat="42.018604" lon="2.0123355">
        <time>2022-07-09T16:20:17Z</time>
      </trkpt>
      <trkpt lat="42.01861" lon="2.0124197">
        <time>2022-07-09T16:20:21Z</time>
      </trkpt>
      <trkpt lat="42.018623" lon="2.0124998">
        <time>2022-07-09T16:20:25Z</time>
      </trkpt>
      <trkpt lat="42.01864" lon="2.012587">
        <time>2022-07-09T16:20:29Z</time>
      </trkpt>
      <trkpt lat="42.018654" lon="2.0126543">
        <time>2022-07-09T16:20:32Z</time>
      </trkpt>
      <trkpt lat="42.018665" lon="2.0127194">
        <time>2022-07-09T16:20:35Z</time>
      </trkpt>
      <trkpt lat="42.018684" lon="2.0128071">
        <time>2022-07-09T16:20:39Z</time>
      </trkpt>
      <trkpt lat="42.018696" lon="2.012875">
        <time>2022-07-09T16:20:42Z</time>
      </trkpt>
      <trkpt lat="42.01871" lon="2.0129418">
        <time>2022-07-09T16:20:45Z</time>
      </trkpt>
      <trkpt lat="42.018726" lon="2.0130105">
        <time>2022-07-09T16:20:48Z</time>
      </trkpt>
      <trkpt lat="42.01875" lon="2.013096">
        <time>2022-07-09T16:20:52Z</time>
      </trkpt>
      <trkpt lat="42.01877" lon="2.0131626">
        <time>2022-07-09T16:20:55Z</time>
      </trkpt>
      <trkpt lat="42.01879" lon="2.0132263">
        <time>2022-07-09T16:20:58Z</time>
      </trkpt>
      <trkpt lat="42.01881" lon="2.013289">
        <time>2022-07-09T16:21:01Z</time>
      </trkpt>
      <trkpt lat="42.018833" lon="2.013372">
        <time>2022-07-09T16:21:05Z</time>
      </trkpt>
      <trkpt lat="42.01886" lon="2.0134556">
        <time>2022-07-09T16:21:09Z</time>
      </trkpt>
      <trkpt lat="42.018887" lon="2.0135176">
        <time>2022-07-09T16:21:12Z</time>
      </trkpt>
      <trkpt lat="42.018917" lon="2.0135746">
        <time>2022-07-09T16:21:15Z</time>
      </trkpt>
      <trkpt lat="42.018944" lon="2.0136354">
        <time>2022-07-09T16:21:18Z</time>
      </trkpt>
      <trkpt lat="42.018974" lon="2.0136924">
        <time>2022-07-09T16:21:21Z</time>
      </trkpt>
      <trkpt lat="42.01901" lon="2.013767">
        <time>2022-07-09T16:21:25Z</time>
      </trkpt>
      <trkpt lat="42.019043" lon="2.013838">
        <time>2022-07-09T16:21:29Z</time>
      </trkpt>
      <trkpt lat="42.01908" lon="2.013904">
        <time>2022-07-09T16:21:33Z</time>
      </trkpt>
      <trkpt lat="42.01911" lon="2.0139563">
        <time>2022-07-09T16:21:36Z</time>
      </trkpt>
      <trkpt lat="42.01916" lon="2.0140376">
        <time>2022-07-09T16:21:41Z</time>
      </trkpt>
      <trkpt lat="42.019203" lon="2.0140958">
        <time>2022-07-09T16:21:45Z</time>
      </trkpt>
      <trkpt lat="42.019245" lon="2.0141556">
        <time>2022-07-09T16:21:49Z</time>
      </trkpt>
      <trkpt lat="42.019287" lon="2.0142226">
        <time>2022-07-09T16:21:53Z</time>
      </trkpt>
      <trkpt lat="42.01932" lon="2.0142713">
        <time>2022-07-09T16:21:56Z</time>
      </trkpt>
      <trkpt lat="42.01937" lon="2.0143363">
        <time>2022-07-09T16:22:00Z</time>
      </trkpt>
      <trkpt lat="42.01941" lon="2.0143824">
        <time>2022-07-09T16:22:03Z</time>
      </trkpt>
      <trkpt lat="42.019447" lon="2.0144308">
        <time>2022-07-09T16:22:06Z</time>
      </trkpt>
      <trkpt lat="42.01948" lon="2.014479">
        <time>2022-07-09T16:22:09Z</time>
      </trkpt>
      <trkpt lat="42.01953" lon="2.0145373">
        <time>2022-07-09T16:22:13Z</time>
      </trkpt>
      <trkpt lat="42.019585" lon="2.014592">
        <time>2022-07-09T16:22:17Z</time>
      </trkpt>
      <trkpt lat="42.019627" lon="2.0146344">
        <time>2022-07-09T16:22:20Z</time>
      </trkpt>
      <trkpt lat="42.01967" lon="2.014673">
        <time>2022-07-09T16:22:23Z</time>
      </trkpt>
      <trkpt lat="42.019714" lon="2.01471">
        <time>2022-07-09T16:22:26Z</time>
      </trkpt>
      <trkpt lat="42.01977" lon="2.0147579">
        <time>2022-07-09T16:22:30Z</time>
      </trkpt>
      <trkpt lat="42.019817" lon="2.0147972">
        <time>2022-07-09T16:22:33Z</time>
      </trkpt>
      <trkpt lat="42.019863" lon="2.0148356">
        <time>2022-07-09T16:22:36Z</time>
      </trkpt>
      <trkpt lat="42.01991" lon="2.0148723">
        <time>2022-07-09T16:22:39Z</time>
      </trkpt>
      <trkpt lat="42.019955" lon="2.0149095">
        <time>2022-07-09T16:22:42Z</time>
      </trkpt>
      <trkpt lat="42.019997" lon="2.0149443">
        <time>2022-07-09T16:22:45Z</time>
      </trkpt>
      <trkpt lat="42.020054" lon="2.0149882">
        <time>2022-07-09T16:22:49Z</time>
      </trkpt>
      <trkpt lat="42.020103" lon="2.0150154">
        <time>2022-07-09T16:22:52Z</time>
      </trkpt>
      <trkpt lat="42.02016" lon="2.0150583">
        <time>2022-07-09T16:22:56Z</time>
      </trkpt>
      <trkpt lat="42.020214" lon="2.0150514">
        <time>2022-07-09T16:23:00Z</time>
      </trkpt>
      <trkpt lat="42.020264" lon="2.0149896">
        <time>2022-07-09T16:23:04Z</time>
      </trkpt>
      <trkpt lat="42.0203" lon="2.0149593">
        <time>2022-07-09T16:23:07Z</time>
      </trkpt>
      <trkpt lat="42.020355" lon="2.014976">
        <time>2022-07-09T16:25:22Z</time>
      </trkpt>
      <trkpt lat="42.020393" lon="2.0150363">
        <time>2022-07-09T16:25:26Z</time>
      </trkpt>
      <trkpt lat="42.020443" lon="2.0150876">
        <time>2022-07-09T16:25:30Z</time>
      </trkpt>
      <trkpt lat="42.02048" lon="2.0151322">
        <time>2022-07-09T16:25:34Z</time>
      </trkpt>
      <trkpt lat="42.020523" lon="2.0151808">
        <time>2022-07-09T16:25:38Z</time>
      </trkpt>
      <trkpt lat="42.02056" lon="2.0152273">
        <time>2022-07-09T16:25:42Z</time>
      </trkpt>
      <trkpt lat="42.0206" lon="2.0152717">
        <time>2022-07-09T16:25:46Z</time>
      </trkpt>
      <trkpt lat="42.02065" lon="2.0153346">
        <time>2022-07-09T16:25:51Z</time>
      </trkpt>
      <trkpt lat="42.020687" lon="2.015384">
        <time>2022-07-09T16:25:56Z</time>
      </trkpt>
      <trkpt lat="42.020687" lon="2.0154946">
        <time>2022-07-09T16:26:06Z</time>
      </trkpt>
      <trkpt lat="42.02071" lon="2.0155785">
        <time>2022-07-09T16:26:09Z</time>
      </trkpt>
      <trkpt lat="42.02074" lon="2.0156362">
        <time>2022-07-09T16:26:11Z</time>
      </trkpt>
      <trkpt lat="42.020775" lon="2.0156932">
        <time>2022-07-09T16:26:13Z</time>
      </trkpt>
      <trkpt lat="42.020813" lon="2.0157483">
        <time>2022-07-09T16:26:15Z</time>
      </trkpt>
      <trkpt lat="42.020847" lon="2.0158043">
        <time>2022-07-09T16:26:17Z</time>
      </trkpt>
      <trkpt lat="42.02088" lon="2.0158622">
        <time>2022-07-09T16:26:19Z</time>
      </trkpt>
      <trkpt lat="42.020916" lon="2.0159202">
        <time>2022-07-09T16:26:21Z</time>
      </trkpt>
      <trkpt lat="42.020947" lon="2.0159786">
        <time>2022-07-09T16:26:23Z</time>
      </trkpt>
      <trkpt lat="42.020977" lon="2.0160365">
        <time>2022-07-09T16:26:25Z</time>
      </trkpt>
      <trkpt lat="42.021004" lon="2.0160918">
        <time>2022-07-09T16:26:27Z</time>
      </trkpt>
      <trkpt lat="42.02104" lon="2.0161698">
        <time>2022-07-09T16:26:30Z</time>
      </trkpt>
      <trkpt lat="42.021072" lon="2.016244">
        <time>2022-07-09T16:26:33Z</time>
      </trkpt>
      <trkpt lat="42.021107" lon="2.0163162">
        <time>2022-07-09T16:26:36Z</time>
      </trkpt>
      <trkpt lat="42.021137" lon="2.0163825">
        <time>2022-07-09T16:26:39Z</time>
      </trkpt>
      <trkpt lat="42.021168" lon="2.0164456">
        <time>2022-07-09T16:26:42Z</time>
      </trkpt>
      <trkpt lat="42.0212" lon="2.0165122">
        <time>2022-07-09T16:26:45Z</time>
      </trkpt>
      <trkpt lat="42.021225" lon="2.0165799">
        <time>2022-07-09T16:26:48Z</time>
      </trkpt>
      <trkpt lat="42.021255" lon="2.0166452">
        <time>2022-07-09T16:26:51Z</time>
      </trkpt>
      <trkpt lat="42.02129" lon="2.0167274">
        <time>2022-07-09T16:26:55Z</time>
      </trkpt>
      <trkpt lat="42.021317" lon="2.0167856">
        <time>2022-07-09T16:26:58Z</time>
      </trkpt>
      <trkpt lat="42.02135" lon="2.016863">
        <time>2022-07-09T16:27:02Z</time>
      </trkpt>
      <trkpt lat="42.02138" lon="2.016925">
        <time>2022-07-09T16:27:05Z</time>
      </trkpt>
      <trkpt lat="42.021408" lon="2.0169883">
        <time>2022-07-09T16:27:08Z</time>
      </trkpt>
      <trkpt lat="42.021442" lon="2.0170522">
        <time>2022-07-09T16:27:11Z</time>
      </trkpt>
      <trkpt lat="42.021473" lon="2.0171168">
        <time>2022-07-09T16:27:14Z</time>
      </trkpt>
      <trkpt lat="42.0215" lon="2.0171793">
        <time>2022-07-09T16:27:17Z</time>
      </trkpt>
      <trkpt lat="42.02153" lon="2.0172439">
        <time>2022-07-09T16:27:20Z</time>
      </trkpt>
      <trkpt lat="42.02156" lon="2.0173075">
        <time>2022-07-09T16:27:23Z</time>
      </trkpt>
      <trkpt lat="42.02159" lon="2.0173695">
        <time>2022-07-09T16:27:26Z</time>
      </trkpt>
      <trkpt lat="42.021626" lon="2.0174298">
        <time>2022-07-09T16:27:29Z</time>
      </trkpt>
      <trkpt lat="42.021656" lon="2.017486">
        <time>2022-07-09T16:27:32Z</time>
      </trkpt>
      <trkpt lat="42.021694" lon="2.0175395">
        <time>2022-07-09T16:27:35Z</time>
      </trkpt>
      <trkpt lat="42.021736" lon="2.0175948">
        <time>2022-07-09T16:27:38Z</time>
      </trkpt>
      <trkpt lat="42.02178" lon="2.017654">
        <time>2022-07-09T16:27:41Z</time>
      </trkpt>
      <trkpt lat="42.021812" lon="2.017712">
        <time>2022-07-09T16:27:44Z</time>
      </trkpt>
      <trkpt lat="42.021854" lon="2.0177646">
        <time>2022-07-09T16:27:47Z</time>
      </trkpt>
      <trkpt lat="42.021893" lon="2.0178099">
        <time>2022-07-09T16:27:50Z</time>
      </trkpt>
      <trkpt lat="42.02194" lon="2.01786">
        <time>2022-07-09T16:27:53Z</time>
      </trkpt>
      <trkpt lat="42.02198" lon="2.017913">
        <time>2022-07-09T16:27:56Z</time>
      </trkpt>
      <trkpt lat="42.022022" lon="2.0179684">
        <time>2022-07-09T16:27:59Z</time>
      </trkpt>
      <trkpt lat="42.022068" lon="2.01802">
        <time>2022-07-09T16:28:02Z</time>
      </trkpt>
      <trkpt lat="42.022114" lon="2.018067">
        <time>2022-07-09T16:28:05Z</time>
      </trkpt>
      <trkpt lat="42.02216" lon="2.0181139">
        <time>2022-07-09T16:28:08Z</time>
      </trkpt>
      <trkpt lat="42.022205" lon="2.0181572">
        <time>2022-07-09T16:28:11Z</time>
      </trkpt>
      <trkpt lat="42.022255" lon="2.0181997">
        <time>2022-07-09T16:28:14Z</time>
      </trkpt>
      <trkpt lat="42.022305" lon="2.0182354">
        <time>2022-07-09T16:28:17Z</time>
      </trkpt>
      <trkpt lat="42.022358" lon="2.0182755">
        <time>2022-07-09T16:28:20Z</time>
      </trkpt>
      <trkpt lat="42.022408" lon="2.0183184">
        <time>2022-07-09T16:28:23Z</time>
      </trkpt>
      <trkpt lat="42.022457" lon="2.0183558">
        <time>2022-07-09T16:28:26Z</time>
      </trkpt>
      <trkpt lat="42.022503" lon="2.0183985">
        <time>2022-07-09T16:28:29Z</time>
      </trkpt>
      <trkpt lat="42.022552" lon="2.0184395">
        <time>2022-07-09T16:28:32Z</time>
      </trkpt>
      <trkpt lat="42.022606" lon="2.0184784">
        <time>2022-07-09T16:28:35Z</time>
      </trkpt>
      <trkpt lat="42.022655" lon="2.0185149">
        <time>2022-07-09T16:28:38Z</time>
      </trkpt>
      <trkpt lat="42.02271" lon="2.018551">
        <time>2022-07-09T16:28:41Z</time>
      </trkpt>
      <trkpt lat="42.02276" lon="2.0185902">
        <time>2022-07-09T16:28:44Z</time>
      </trkpt>
      <trkpt lat="42.022816" lon="2.0186367">
        <time>2022-07-09T16:28:47Z</time>
      </trkpt>
      <trkpt lat="42.022865" lon="2.0186825">
        <time>2022-07-09T16:28:50Z</time>
      </trkpt>
      <trkpt lat="42.02292" lon="2.018723">
        <time>2022-07-09T16:28:53Z</time>
      </trkpt>
      <trkpt lat="42.022972" lon="2.0187607">
        <time>2022-07-09T16:28:56Z</time>
      </trkpt>
      <trkpt lat="42.02302" lon="2.018796">
        <time>2022-07-09T16:28:59Z</time>
      </trkpt>
      <trkpt lat="42.023075" lon="2.018829">
        <time>2022-07-09T16:29:02Z</time>
      </trkpt>
      <trkpt lat="42.02313" lon="2.0188653">
        <time>2022-07-09T16:29:05Z</time>
      </trkpt>
      <trkpt lat="42.0232" lon="2.0189164">
        <time>2022-07-09T16:29:09Z</time>
      </trkpt>
      <trkpt lat="42.02325" lon="2.0189583">
        <time>2022-07-09T16:29:12Z</time>
      </trkpt>
      <trkpt lat="42.023304" lon="2.019002">
        <time>2022-07-09T16:29:15Z</time>
      </trkpt>
      <trkpt lat="42.023354" lon="2.0190413">
        <time>2022-07-09T16:29:18Z</time>
      </trkpt>
      <trkpt lat="42.023403" lon="2.0190794">
        <time>2022-07-09T16:29:21Z</time>
      </trkpt>
      <trkpt lat="42.023453" lon="2.019119">
        <time>2022-07-09T16:29:24Z</time>
      </trkpt>
      <trkpt lat="42.023502" lon="2.0191557">
        <time>2022-07-09T16:29:27Z</time>
      </trkpt>
      <trkpt lat="42.02355" lon="2.0191941">
        <time>2022-07-09T16:29:30Z</time>
      </trkpt>
      <trkpt lat="42.023594" lon="2.0192423">
        <time>2022-07-09T16:29:33Z</time>
      </trkpt>
      <trkpt lat="42.023643" lon="2.0192933">
        <time>2022-07-09T16:29:36Z</time>
      </trkpt>
      <trkpt lat="42.023693" lon="2.0193343">
        <time>2022-07-09T16:29:39Z</time>
      </trkpt>
      <trkpt lat="42.02374" lon="2.0193753">
        <time>2022-07-09T16:29:42Z</time>
      </trkpt>
      <trkpt lat="42.023777" lon="2.0194213">
        <time>2022-07-09T16:29:45Z</time>
      </trkpt>
      <trkpt lat="42.02382" lon="2.0194774">
        <time>2022-07-09T16:29:48Z</time>
      </trkpt>
      <trkpt lat="42.02386" lon="2.0195417">
        <time>2022-07-09T16:29:51Z</time>
      </trkpt>
      <trkpt lat="42.023903" lon="2.0196047">
        <time>2022-07-09T16:29:54Z</time>
      </trkpt>
      <trkpt lat="42.023937" lon="2.0196688">
        <time>2022-07-09T16:29:57Z</time>
      </trkpt>
      <trkpt lat="42.023975" lon="2.0197294">
        <time>2022-07-09T16:30:00Z</time>
      </trkpt>
      <trkpt lat="42.024014" lon="2.0197933">
        <time>2022-07-09T16:30:03Z</time>
      </trkpt>
      <trkpt lat="42.02405" lon="2.0198576">
        <time>2022-07-09T16:30:06Z</time>
      </trkpt>
      <trkpt lat="42.024086" lon="2.0199246">
        <time>2022-07-09T16:30:09Z</time>
      </trkpt>
      <trkpt lat="42.024124" lon="2.019984">
        <time>2022-07-09T16:30:12Z</time>
      </trkpt>
      <trkpt lat="42.024162" lon="2.0200493">
        <time>2022-07-09T16:30:15Z</time>
      </trkpt>
      <trkpt lat="42.0242" lon="2.0201156">
        <time>2022-07-09T16:30:18Z</time>
      </trkpt>
      <trkpt lat="42.02424" lon="2.0201805">
        <time>2022-07-09T16:30:21Z</time>
      </trkpt>
      <trkpt lat="42.024273" lon="2.0202467">
        <time>2022-07-09T16:30:24Z</time>
      </trkpt>
      <trkpt lat="42.024307" lon="2.0203133">
        <time>2022-07-09T16:30:27Z</time>
      </trkpt>
      <trkpt lat="42.024345" lon="2.020382">
        <time>2022-07-09T16:30:30Z</time>
      </trkpt>
      <trkpt lat="42.02438" lon="2.0204494">
        <time>2022-07-09T16:30:33Z</time>
      </trkpt>
      <trkpt lat="42.024414" lon="2.020515">
        <time>2022-07-09T16:30:36Z</time>
      </trkpt>
      <trkpt lat="42.02445" lon="2.0205836">
        <time>2022-07-09T16:30:39Z</time>
      </trkpt>
      <trkpt lat="42.02448" lon="2.02065">
        <time>2022-07-09T16:30:42Z</time>
      </trkpt>
      <trkpt lat="42.024506" lon="2.0207243">
        <time>2022-07-09T16:30:45Z</time>
      </trkpt>
      <trkpt lat="42.024532" lon="2.020793">
        <time>2022-07-09T16:30:48Z</time>
      </trkpt>
      <trkpt lat="42.02456" lon="2.0208685">
        <time>2022-07-09T16:30:51Z</time>
      </trkpt>
      <trkpt lat="42.02459" lon="2.020953">
        <time>2022-07-09T16:30:54Z</time>
      </trkpt>
      <trkpt lat="42.02462" lon="2.0210423">
        <time>2022-07-09T16:30:57Z</time>
      </trkpt>
      <trkpt lat="42.024643" lon="2.0211437">
        <time>2022-07-09T16:31:00Z</time>
      </trkpt>
      <trkpt lat="42.02466" lon="2.02121">
        <time>2022-07-09T16:31:02Z</time>
      </trkpt>
      <trkpt lat="42.024673" lon="2.0212746">
        <time>2022-07-09T16:31:04Z</time>
      </trkpt>
      <trkpt lat="42.024685" lon="2.0213413">
        <time>2022-07-09T16:31:06Z</time>
      </trkpt>
      <trkpt lat="42.024704" lon="2.0214396">
        <time>2022-07-09T16:31:09Z</time>
      </trkpt>
      <trkpt lat="42.02471" lon="2.0215037">
        <time>2022-07-09T16:31:11Z</time>
      </trkpt>
      <trkpt lat="42.024727" lon="2.0215993">
        <time>2022-07-09T16:31:14Z</time>
      </trkpt>
      <trkpt lat="42.02475" lon="2.021728">
        <time>2022-07-09T16:31:18Z</time>
      </trkpt>
      <trkpt lat="42.024757" lon="2.021792">
        <time>2022-07-09T16:31:20Z</time>
      </trkpt>
      <trkpt lat="42.02477" lon="2.0218883">
        <time>2022-07-09T16:31:23Z</time>
      </trkpt>
      <trkpt lat="42.02478" lon="2.0219855">
        <time>2022-07-09T16:31:26Z</time>
      </trkpt>
      <trkpt lat="42.024788" lon="2.0220513">
        <time>2022-07-09T16:31:28Z</time>
      </trkpt>
      <trkpt lat="42.02479" lon="2.0221512">
        <time>2022-07-09T16:31:31Z</time>
      </trkpt>
      <trkpt lat="42.02479" lon="2.0222533">
        <time>2022-07-09T16:31:34Z</time>
      </trkpt>
      <trkpt lat="42.024784" lon="2.0223248">
        <time>2022-07-09T16:31:36Z</time>
      </trkpt>
      <trkpt lat="42.024776" lon="2.0223958">
        <time>2022-07-09T16:31:38Z</time>
      </trkpt>
      <trkpt lat="42.02477" lon="2.0224655">
        <time>2022-07-09T16:31:40Z</time>
      </trkpt>
      <trkpt lat="42.02476" lon="2.0225365">
        <time>2022-07-09T16:31:42Z</time>
      </trkpt>
      <trkpt lat="42.024746" lon="2.022637">
        <time>2022-07-09T16:31:45Z</time>
      </trkpt>
      <trkpt lat="42.024742" lon="2.0227053">
        <time>2022-07-09T16:31:47Z</time>
      </trkpt>
      <trkpt lat="42.02474" lon="2.0227716">
        <time>2022-07-09T16:31:49Z</time>
      </trkpt>
      <trkpt lat="42.02472" lon="2.022869">
        <time>2022-07-09T16:31:52Z</time>
      </trkpt>
      <trkpt lat="42.024704" lon="2.0229352">
        <time>2022-07-09T16:31:54Z</time>
      </trkpt>
      <trkpt lat="42.024677" lon="2.0230381">
        <time>2022-07-09T16:31:57Z</time>
      </trkpt>
      <trkpt lat="42.02466" lon="2.0231009">
        <time>2022-07-09T16:31:59Z</time>
      </trkpt>
      <trkpt lat="42.02464" lon="2.0231676">
        <time>2022-07-09T16:32:01Z</time>
      </trkpt>
      <trkpt lat="42.024616" lon="2.0232348">
        <time>2022-07-09T16:32:03Z</time>
      </trkpt>
      <trkpt lat="42.024593" lon="2.0233002">
        <time>2022-07-09T16:32:05Z</time>
      </trkpt>
      <trkpt lat="42.02457" lon="2.0233636">
        <time>2022-07-09T16:32:07Z</time>
      </trkpt>
      <trkpt lat="42.02455" lon="2.0234296">
        <time>2022-07-09T16:32:09Z</time>
      </trkpt>
      <trkpt lat="42.02453" lon="2.023495">
        <time>2022-07-09T16:32:11Z</time>
      </trkpt>
      <trkpt lat="42.024506" lon="2.0235603">
        <time>2022-07-09T16:32:13Z</time>
      </trkpt>
      <trkpt lat="42.024483" lon="2.0236244">
        <time>2022-07-09T16:32:15Z</time>
      </trkpt>
      <trkpt lat="42.02444" lon="2.0237195">
        <time>2022-07-09T16:32:18Z</time>
      </trkpt>
      <trkpt lat="42.02441" lon="2.023781">
        <time>2022-07-09T16:32:20Z</time>
      </trkpt>
      <trkpt lat="42.024384" lon="2.0238404">
        <time>2022-07-09T16:32:22Z</time>
      </trkpt>
      <trkpt lat="42.024338" lon="2.023929">
        <time>2022-07-09T16:32:25Z</time>
      </trkpt>
      <trkpt lat="42.024307" lon="2.0239878">
        <time>2022-07-09T16:32:27Z</time>
      </trkpt>
      <trkpt lat="42.024277" lon="2.0240445">
        <time>2022-07-09T16:32:29Z</time>
      </trkpt>
      <trkpt lat="42.024242" lon="2.0240998">
        <time>2022-07-09T16:32:31Z</time>
      </trkpt>
      <trkpt lat="42.024208" lon="2.024152">
        <time>2022-07-09T16:32:33Z</time>
      </trkpt>
      <trkpt lat="42.02417" lon="2.024198">
        <time>2022-07-09T16:32:35Z</time>
      </trkpt>
      <trkpt lat="42.024124" lon="2.0242429">
        <time>2022-07-09T16:32:37Z</time>
      </trkpt>
      <trkpt lat="42.02408" lon="2.0242906">
        <time>2022-07-09T16:32:39Z</time>
      </trkpt>
      <trkpt lat="42.024033" lon="2.0243444">
        <time>2022-07-09T16:32:41Z</time>
      </trkpt>
      <trkpt lat="42.02399" lon="2.0244005">
        <time>2022-07-09T16:32:43Z</time>
      </trkpt>
      <trkpt lat="42.02395" lon="2.024455">
        <time>2022-07-09T16:32:45Z</time>
      </trkpt>
      <trkpt lat="42.023907" lon="2.0245087">
        <time>2022-07-09T16:32:47Z</time>
      </trkpt>
      <trkpt lat="42.02386" lon="2.024562">
        <time>2022-07-09T16:32:49Z</time>
      </trkpt>
      <trkpt lat="42.023815" lon="2.0246124">
        <time>2022-07-09T16:32:51Z</time>
      </trkpt>
      <trkpt lat="42.02377" lon="2.0246615">
        <time>2022-07-09T16:32:53Z</time>
      </trkpt>
      <trkpt lat="42.02372" lon="2.024707">
        <time>2022-07-09T16:32:55Z</time>
      </trkpt>
      <trkpt lat="42.023666" lon="2.0247538">
        <time>2022-07-09T16:32:57Z</time>
      </trkpt>
      <trkpt lat="42.023613" lon="2.024795">
        <time>2022-07-09T16:32:59Z</time>
      </trkpt>
      <trkpt lat="42.02356" lon="2.0248358">
        <time>2022-07-09T16:33:01Z</time>
      </trkpt>
      <trkpt lat="42.023506" lon="2.0248768">
        <time>2022-07-09T16:33:03Z</time>
      </trkpt>
      <trkpt lat="42.023457" lon="2.0249157">
        <time>2022-07-09T16:33:05Z</time>
      </trkpt>
      <trkpt lat="42.023403" lon="2.0249534">
        <time>2022-07-09T16:33:07Z</time>
      </trkpt>
      <trkpt lat="42.023346" lon="2.024992">
        <time>2022-07-09T16:33:09Z</time>
      </trkpt>
      <trkpt lat="42.023293" lon="2.0250301">
        <time>2022-07-09T16:33:11Z</time>
      </trkpt>
      <trkpt lat="42.02324" lon="2.0250673">
        <time>2022-07-09T16:33:13Z</time>
      </trkpt>
      <trkpt lat="42.023186" lon="2.0251038">
        <time>2022-07-09T16:33:15Z</time>
      </trkpt>
      <trkpt lat="42.023132" lon="2.0251398">
        <time>2022-07-09T16:33:17Z</time>
      </trkpt>
      <trkpt lat="42.02307" lon="2.0251803">
        <time>2022-07-09T16:33:19Z</time>
      </trkpt>
      <trkpt lat="42.02301" lon="2.0252244">
        <time>2022-07-09T16:33:21Z</time>
      </trkpt>
      <trkpt lat="42.02295" lon="2.0252714">
        <time>2022-07-09T16:33:23Z</time>
      </trkpt>
      <trkpt lat="42.022884" lon="2.0253217">
        <time>2022-07-09T16:33:25Z</time>
      </trkpt>
      <trkpt lat="42.02282" lon="2.0253735">
        <time>2022-07-09T16:33:27Z</time>
      </trkpt>
      <trkpt lat="42.022755" lon="2.0254283">
        <time>2022-07-09T16:33:29Z</time>
      </trkpt>
      <trkpt lat="42.02269" lon="2.0254843">
        <time>2022-07-09T16:33:31Z</time>
      </trkpt>
      <trkpt lat="42.022617" lon="2.0255444">
        <time>2022-07-09T16:33:33Z</time>
      </trkpt>
      <trkpt lat="42.02255" lon="2.025608">
        <time>2022-07-09T16:33:35Z</time>
      </trkpt>
      <trkpt lat="42.02248" lon="2.0256746">
        <time>2022-07-09T16:33:37Z</time>
      </trkpt>
      <trkpt lat="42.02241" lon="2.025743">
        <time>2022-07-09T16:33:39Z</time>
      </trkpt>
      <trkpt lat="42.022343" lon="2.0258117">
        <time>2022-07-09T16:33:41Z</time>
      </trkpt>
      <trkpt lat="42.022274" lon="2.0258846">
        <time>2022-07-09T16:33:43Z</time>
      </trkpt>
      <trkpt lat="42.0222" lon="2.0259655">
        <time>2022-07-09T16:33:45Z</time>
      </trkpt>
      <trkpt lat="42.022133" lon="2.0260475">
        <time>2022-07-09T16:33:47Z</time>
      </trkpt>
      <trkpt lat="42.022064" lon="2.0261316">
        <time>2022-07-09T16:33:49Z</time>
      </trkpt>
      <trkpt lat="42.02199" lon="2.0262172">
        <time>2022-07-09T16:33:51Z</time>
      </trkpt>
      <trkpt lat="42.021923" lon="2.026304">
        <time>2022-07-09T16:33:53Z</time>
      </trkpt>
      <trkpt lat="42.021854" lon="2.026391">
        <time>2022-07-09T16:33:55Z</time>
      </trkpt>
      <trkpt lat="42.021786" lon="2.0264807">
        <time>2022-07-09T16:33:57Z</time>
      </trkpt>
      <trkpt lat="42.021717" lon="2.026574">
        <time>2022-07-09T16:33:59Z</time>
      </trkpt>
      <trkpt lat="42.021683" lon="2.0266206">
        <time>2022-07-09T16:34:00Z</time>
      </trkpt>
      <trkpt lat="42.021645" lon="2.0266676">
        <time>2022-07-09T16:34:01Z</time>
      </trkpt>
      <trkpt lat="42.021576" lon="2.0267587">
        <time>2022-07-09T16:34:03Z</time>
      </trkpt>
      <trkpt lat="42.02154" lon="2.0268033">
        <time>2022-07-09T16:34:04Z</time>
      </trkpt>
      <trkpt lat="42.021473" lon="2.0268934">
        <time>2022-07-09T16:34:06Z</time>
      </trkpt>
      <trkpt lat="42.02144" lon="2.026937">
        <time>2022-07-09T16:34:07Z</time>
      </trkpt>
      <trkpt lat="42.02137" lon="2.0270226">
        <time>2022-07-09T16:34:09Z</time>
      </trkpt>
      <trkpt lat="42.0213" lon="2.0271082">
        <time>2022-07-09T16:34:11Z</time>
      </trkpt>
      <trkpt lat="42.02123" lon="2.0271974">
        <time>2022-07-09T16:34:13Z</time>
      </trkpt>
      <trkpt lat="42.021194" lon="2.027242">
        <time>2022-07-09T16:34:14Z</time>
      </trkpt>
      <trkpt lat="42.02112" lon="2.0273316">
        <time>2022-07-09T16:34:16Z</time>
      </trkpt>
      <trkpt lat="42.02104" lon="2.0274234">
        <time>2022-07-09T16:34:18Z</time>
      </trkpt>
      <trkpt lat="42.021004" lon="2.0274704">
        <time>2022-07-09T16:34:19Z</time>
      </trkpt>
      <trkpt lat="42.020924" lon="2.0275645">
        <time>2022-07-09T16:34:21Z</time>
      </trkpt>
      <trkpt lat="42.02088" lon="2.0276115">
        <time>2022-07-09T16:34:22Z</time>
      </trkpt>
      <trkpt lat="42.020844" lon="2.0276604">
        <time>2022-07-09T16:34:23Z</time>
      </trkpt>
      <trkpt lat="42.0208" lon="2.0277095">
        <time>2022-07-09T16:34:24Z</time>
      </trkpt>
      <trkpt lat="42.02076" lon="2.0277572">
        <time>2022-07-09T16:34:25Z</time>
      </trkpt>
      <trkpt lat="42.020718" lon="2.027804">
        <time>2022-07-09T16:34:26Z</time>
      </trkpt>
      <trkpt lat="42.020676" lon="2.0278502">
        <time>2022-07-09T16:34:27Z</time>
      </trkpt>
      <trkpt lat="42.020634" lon="2.0278974">
        <time>2022-07-09T16:34:28Z</time>
      </trkpt>
      <trkpt lat="42.02059" lon="2.0279446">
        <time>2022-07-09T16:34:29Z</time>
      </trkpt>
      <trkpt lat="42.02055" lon="2.027992">
        <time>2022-07-09T16:34:30Z</time>
      </trkpt>
      <trkpt lat="42.020508" lon="2.028039">
        <time>2022-07-09T16:34:31Z</time>
      </trkpt>
      <trkpt lat="42.020466" lon="2.0280855">
        <time>2022-07-09T16:34:32Z</time>
      </trkpt>
      <trkpt lat="42.020428" lon="2.028133">
        <time>2022-07-09T16:34:33Z</time>
      </trkpt>
      <trkpt lat="42.02039" lon="2.0281775">
        <time>2022-07-09T16:34:34Z</time>
      </trkpt>
      <trkpt lat="42.02031" lon="2.0282702">
        <time>2022-07-09T16:34:36Z</time>
      </trkpt>
      <trkpt lat="42.02027" lon="2.0283165">
        <time>2022-07-09T16:34:37Z</time>
      </trkpt>
      <trkpt lat="42.02023" lon="2.0283625">
        <time>2022-07-09T16:34:38Z</time>
      </trkpt>
      <trkpt lat="42.020187" lon="2.028407">
        <time>2022-07-09T16:34:39Z</time>
      </trkpt>
      <trkpt lat="42.020145" lon="2.0284512">
        <time>2022-07-09T16:34:40Z</time>
      </trkpt>
      <trkpt lat="42.020103" lon="2.0284953">
        <time>2022-07-09T16:34:41Z</time>
      </trkpt>
      <trkpt lat="42.02006" lon="2.0285392">
        <time>2022-07-09T16:34:42Z</time>
      </trkpt>
      <trkpt lat="42.020016" lon="2.0285845">
        <time>2022-07-09T16:34:43Z</time>
      </trkpt>
      <trkpt lat="42.019974" lon="2.0286298">
        <time>2022-07-09T16:34:44Z</time>
      </trkpt>
      <trkpt lat="42.019928" lon="2.028675">
        <time>2022-07-09T16:34:45Z</time>
      </trkpt>
      <trkpt lat="42.019882" lon="2.0287206">
        <time>2022-07-09T16:34:46Z</time>
      </trkpt>
      <trkpt lat="42.01984" lon="2.0287645">
        <time>2022-07-09T16:34:47Z</time>
      </trkpt>
      <trkpt lat="42.019794" lon="2.0288079">
        <time>2022-07-09T16:34:48Z</time>
      </trkpt>
      <trkpt lat="42.019753" lon="2.0288508">
        <time>2022-07-09T16:34:49Z</time>
      </trkpt>
      <trkpt lat="42.019707" lon="2.0288932">
        <time>2022-07-09T16:34:50Z</time>
      </trkpt>
      <trkpt lat="42.019665" lon="2.0289342">
        <time>2022-07-09T16:34:51Z</time>
      </trkpt>
      <trkpt lat="42.019627" lon="2.0289748">
        <time>2022-07-09T16:34:52Z</time>
      </trkpt>
      <trkpt lat="42.019585" lon="2.0290148">
        <time>2022-07-09T16:34:53Z</time>
      </trkpt>
      <trkpt lat="42.01951" lon="2.0290926">
        <time>2022-07-09T16:34:55Z</time>
      </trkpt>
      <trkpt lat="42.019436" lon="2.0291686">
        <time>2022-07-09T16:34:57Z</time>
      </trkpt>
      <trkpt lat="42.019363" lon="2.0292428">
        <time>2022-07-09T16:34:59Z</time>
      </trkpt>
      <trkpt lat="42.01929" lon="2.0293138">
        <time>2022-07-09T16:35:01Z</time>
      </trkpt>
      <trkpt lat="42.019215" lon="2.0293882">
        <time>2022-07-09T16:35:03Z</time>
      </trkpt>
      <trkpt lat="42.019176" lon="2.0294254">
        <time>2022-07-09T16:35:04Z</time>
      </trkpt>
      <trkpt lat="42.019096" lon="2.0295045">
        <time>2022-07-09T16:35:06Z</time>
      </trkpt>
      <trkpt lat="42.01906" lon="2.0295408">
        <time>2022-07-09T16:35:07Z</time>
      </trkpt>
      <trkpt lat="42.018982" lon="2.0296135">
        <time>2022-07-09T16:35:09Z</time>
      </trkpt>
      <trkpt lat="42.01894" lon="2.0296512">
        <time>2022-07-09T16:35:10Z</time>
      </trkpt>
      <trkpt lat="42.01886" lon="2.0297294">
        <time>2022-07-09T16:35:12Z</time>
      </trkpt>
      <trkpt lat="42.018784" lon="2.0298045">
        <time>2022-07-09T16:35:14Z</time>
      </trkpt>
      <trkpt lat="42.01874" lon="2.0298429">
        <time>2022-07-09T16:35:15Z</time>
      </trkpt>
      <trkpt lat="42.018658" lon="2.0299225">
        <time>2022-07-09T16:35:17Z</time>
      </trkpt>
      <trkpt lat="42.01862" lon="2.0299604">
        <time>2022-07-09T16:35:18Z</time>
      </trkpt>
      <trkpt lat="42.018543" lon="2.03003">
        <time>2022-07-09T16:35:20Z</time>
      </trkpt>
      <trkpt lat="42.018463" lon="2.0301042">
        <time>2022-07-09T16:35:22Z</time>
      </trkpt>
      <trkpt lat="42.018387" lon="2.0301747">
        <time>2022-07-09T16:35:24Z</time>
      </trkpt>
      <trkpt lat="42.018314" lon="2.0302448">
        <time>2022-07-09T16:35:26Z</time>
      </trkpt>
      <trkpt lat="42.018238" lon="2.0303168">
        <time>2022-07-09T16:35:28Z</time>
      </trkpt>
      <trkpt lat="42.018166" lon="2.0303874">
        <time>2022-07-09T16:35:30Z</time>
      </trkpt>
      <trkpt lat="42.018097" lon="2.0304592">
        <time>2022-07-09T16:35:32Z</time>
      </trkpt>
      <trkpt lat="42.018024" lon="2.0305333">
        <time>2022-07-09T16:35:34Z</time>
      </trkpt>
      <trkpt lat="42.01795" lon="2.0306084">
        <time>2022-07-09T16:35:36Z</time>
      </trkpt>
      <trkpt lat="42.01783" lon="2.0307271">
        <time>2022-07-09T16:35:39Z</time>
      </trkpt>
      <trkpt lat="42.017757" lon="2.0308096">
        <time>2022-07-09T16:35:41Z</time>
      </trkpt>
      <trkpt lat="42.01772" lon="2.0308535">
        <time>2022-07-09T16:35:42Z</time>
      </trkpt>
      <trkpt lat="42.017647" lon="2.0309467">
        <time>2022-07-09T16:35:44Z</time>
      </trkpt>
      <trkpt lat="42.017574" lon="2.0310383">
        <time>2022-07-09T16:35:46Z</time>
      </trkpt>
      <trkpt lat="42.0175" lon="2.0311394">
        <time>2022-07-09T16:35:48Z</time>
      </trkpt>
      <trkpt lat="42.017467" lon="2.0311928">
        <time>2022-07-09T16:35:49Z</time>
      </trkpt>
      <trkpt lat="42.017433" lon="2.0312455">
        <time>2022-07-09T16:35:50Z</time>
      </trkpt>
      <trkpt lat="42.0174" lon="2.031295">
        <time>2022-07-09T16:35:51Z</time>
      </trkpt>
      <trkpt lat="42.017326" lon="2.031402">
        <time>2022-07-09T16:35:53Z</time>
      </trkpt>
      <trkpt lat="42.01729" lon="2.0314577">
        <time>2022-07-09T16:35:54Z</time>
      </trkpt>
      <trkpt lat="42.017254" lon="2.031513">
        <time>2022-07-09T16:35:55Z</time>
      </trkpt>
      <trkpt lat="42.017216" lon="2.0315645">
        <time>2022-07-09T16:35:56Z</time>
      </trkpt>
      <trkpt lat="42.017143" lon="2.0316784">
        <time>2022-07-09T16:35:58Z</time>
      </trkpt>
      <trkpt lat="42.017105" lon="2.0317354">
        <time>2022-07-09T16:35:59Z</time>
      </trkpt>
      <trkpt lat="42.017067" lon="2.0317907">
        <time>2022-07-09T16:36:00Z</time>
      </trkpt>
      <trkpt lat="42.01703" lon="2.0318463">
        <time>2022-07-09T16:36:01Z</time>
      </trkpt>
      <trkpt lat="42.01699" lon="2.031902">
        <time>2022-07-09T16:36:02Z</time>
      </trkpt>
      <trkpt lat="42.016956" lon="2.0319583">
        <time>2022-07-09T16:36:03Z</time>
      </trkpt>
      <trkpt lat="42.01692" lon="2.032014">
        <time>2022-07-09T16:36:04Z</time>
      </trkpt>
      <trkpt lat="42.016876" lon="2.0320694">
        <time>2022-07-09T16:36:05Z</time>
      </trkpt>
      <trkpt lat="42.016838" lon="2.0321236">
        <time>2022-07-09T16:36:06Z</time>
      </trkpt>
      <trkpt lat="42.016796" lon="2.032177">
        <time>2022-07-09T16:36:07Z</time>
      </trkpt>
      <trkpt lat="42.016754" lon="2.0322294">
        <time>2022-07-09T16:36:08Z</time>
      </trkpt>
      <trkpt lat="42.01671" lon="2.0322804">
        <time>2022-07-09T16:36:09Z</time>
      </trkpt>
      <trkpt lat="42.016666" lon="2.0323267">
        <time>2022-07-09T16:36:10Z</time>
      </trkpt>
      <trkpt lat="42.016624" lon="2.032372">
        <time>2022-07-09T16:36:11Z</time>
      </trkpt>
      <trkpt lat="42.01658" lon="2.032417">
        <time>2022-07-09T16:36:12Z</time>
      </trkpt>
      <trkpt lat="42.016533" lon="2.0324614">
        <time>2022-07-09T16:36:13Z</time>
      </trkpt>
      <trkpt lat="42.016487" lon="2.0325058">
        <time>2022-07-09T16:36:14Z</time>
      </trkpt>
      <trkpt lat="42.01644" lon="2.0325496">
        <time>2022-07-09T16:36:15Z</time>
      </trkpt>
      <trkpt lat="42.01639" lon="2.032593">
        <time>2022-07-09T16:36:16Z</time>
      </trkpt>
      <trkpt lat="42.016346" lon="2.0326343">
        <time>2022-07-09T16:36:17Z</time>
      </trkpt>
      <trkpt lat="42.016296" lon="2.032675">
        <time>2022-07-09T16:36:18Z</time>
      </trkpt>
      <trkpt lat="42.016247" lon="2.0327153">
        <time>2022-07-09T16:36:19Z</time>
      </trkpt>
      <trkpt lat="42.016197" lon="2.0327547">
        <time>2022-07-09T16:36:20Z</time>
      </trkpt>
      <trkpt lat="42.01615" lon="2.0327933">
        <time>2022-07-09T16:36:21Z</time>
      </trkpt>
      <trkpt lat="42.016098" lon="2.0328336">
        <time>2022-07-09T16:36:22Z</time>
      </trkpt>
      <trkpt lat="42.01605" lon="2.0328703">
        <time>2022-07-09T16:36:23Z</time>
      </trkpt>
      <trkpt lat="42.016003" lon="2.032906">
        <time>2022-07-09T16:36:24Z</time>
      </trkpt>
      <trkpt lat="42.015953" lon="2.0329413">
        <time>2022-07-09T16:36:25Z</time>
      </trkpt>
      <trkpt lat="42.015903" lon="2.0329764">
        <time>2022-07-09T16:36:26Z</time>
      </trkpt>
      <trkpt lat="42.015854" lon="2.033012">
        <time>2022-07-09T16:36:27Z</time>
      </trkpt>
      <trkpt lat="42.015804" lon="2.0330489">
        <time>2022-07-09T16:36:28Z</time>
      </trkpt>
      <trkpt lat="42.015755" lon="2.0330858">
        <time>2022-07-09T16:36:29Z</time>
      </trkpt>
      <trkpt lat="42.015705" lon="2.0331225">
        <time>2022-07-09T16:36:30Z</time>
      </trkpt>
      <trkpt lat="42.015656" lon="2.0331607">
        <time>2022-07-09T16:36:31Z</time>
      </trkpt>
      <trkpt lat="42.015602" lon="2.0332012">
        <time>2022-07-09T16:36:32Z</time>
      </trkpt>
      <trkpt lat="42.015553" lon="2.0332396">
        <time>2022-07-09T16:36:33Z</time>
      </trkpt>
      <trkpt lat="42.015503" lon="2.0332782">
        <time>2022-07-09T16:36:34Z</time>
      </trkpt>
      <trkpt lat="42.015453" lon="2.0333192">
        <time>2022-07-09T16:36:35Z</time>
      </trkpt>
      <trkpt lat="42.015404" lon="2.0333643">
        <time>2022-07-09T16:36:36Z</time>
      </trkpt>
      <trkpt lat="42.015354" lon="2.0334098">
        <time>2022-07-09T16:36:37Z</time>
      </trkpt>
      <trkpt lat="42.015305" lon="2.0334551">
        <time>2022-07-09T16:36:38Z</time>
      </trkpt>
      <trkpt lat="42.01526" lon="2.0334983">
        <time>2022-07-09T16:36:39Z</time>
      </trkpt>
      <trkpt lat="42.01521" lon="2.0335426">
        <time>2022-07-09T16:36:40Z</time>
      </trkpt>
      <trkpt lat="42.015163" lon="2.0335913">
        <time>2022-07-09T16:36:41Z</time>
      </trkpt>
      <trkpt lat="42.015114" lon="2.0336406">
        <time>2022-07-09T16:36:42Z</time>
      </trkpt>
      <trkpt lat="42.015068" lon="2.0336888">
        <time>2022-07-09T16:36:43Z</time>
      </trkpt>
      <trkpt lat="42.01498" lon="2.0337856">
        <time>2022-07-09T16:36:45Z</time>
      </trkpt>
      <trkpt lat="42.01494" lon="2.033835">
        <time>2022-07-09T16:36:46Z</time>
      </trkpt>
      <trkpt lat="42.014896" lon="2.0338845">
        <time>2022-07-09T16:36:47Z</time>
      </trkpt>
      <trkpt lat="42.01486" lon="2.0339348">
        <time>2022-07-09T16:36:48Z</time>
      </trkpt>
      <trkpt lat="42.014816" lon="2.0339844">
        <time>2022-07-09T16:36:49Z</time>
      </trkpt>
      <trkpt lat="42.01478" lon="2.0340354">
        <time>2022-07-09T16:36:50Z</time>
      </trkpt>
      <trkpt lat="42.01474" lon="2.0340874">
        <time>2022-07-09T16:36:51Z</time>
      </trkpt>
      <trkpt lat="42.0147" lon="2.034141">
        <time>2022-07-09T16:36:52Z</time>
      </trkpt>
      <trkpt lat="42.014664" lon="2.0341983">
        <time>2022-07-09T16:36:53Z</time>
      </trkpt>
      <trkpt lat="42.014626" lon="2.0342565">
        <time>2022-07-09T16:36:54Z</time>
      </trkpt>
      <trkpt lat="42.01459" lon="2.0343127">
        <time>2022-07-09T16:36:55Z</time>
      </trkpt>
      <trkpt lat="42.014553" lon="2.034376">
        <time>2022-07-09T16:36:56Z</time>
      </trkpt>
      <trkpt lat="42.014515" lon="2.0344398">
        <time>2022-07-09T16:36:57Z</time>
      </trkpt>
      <trkpt lat="42.014477" lon="2.0345066">
        <time>2022-07-09T16:36:58Z</time>
      </trkpt>
      <trkpt lat="42.01444" lon="2.0345747">
        <time>2022-07-09T16:36:59Z</time>
      </trkpt>
      <trkpt lat="42.0144" lon="2.0346448">
        <time>2022-07-09T16:37:00Z</time>
      </trkpt>
      <trkpt lat="42.014362" lon="2.0347102">
        <time>2022-07-09T16:37:01Z</time>
      </trkpt>
      <trkpt lat="42.01432" lon="2.0347803">
        <time>2022-07-09T16:37:02Z</time>
      </trkpt>
      <trkpt lat="42.01428" lon="2.0348525">
        <time>2022-07-09T16:37:03Z</time>
      </trkpt>
      <trkpt lat="42.014236" lon="2.0349271">
        <time>2022-07-09T16:37:04Z</time>
      </trkpt>
      <trkpt lat="42.01419" lon="2.0350027">
        <time>2022-07-09T16:37:05Z</time>
      </trkpt>
      <trkpt lat="42.014145" lon="2.0350814">
        <time>2022-07-09T16:37:06Z</time>
      </trkpt>
      <trkpt lat="42.0141" lon="2.0351634">
        <time>2022-07-09T16:37:07Z</time>
      </trkpt>
      <trkpt lat="42.01405" lon="2.0352464">
        <time>2022-07-09T16:37:08Z</time>
      </trkpt>
      <trkpt lat="42.014" lon="2.0353298">
        <time>2022-07-09T16:37:09Z</time>
      </trkpt>
      <trkpt lat="42.01395" lon="2.0354145">
        <time>2022-07-09T16:37:10Z</time>
      </trkpt>
      <trkpt lat="42.0139" lon="2.0355005">
        <time>2022-07-09T16:37:11Z</time>
      </trkpt>
      <trkpt lat="42.013844" lon="2.0355926">
        <time>2022-07-09T16:37:12Z</time>
      </trkpt>
      <trkpt lat="42.01379" lon="2.0356839">
        <time>2022-07-09T16:37:13Z</time>
      </trkpt>
      <trkpt lat="42.013737" lon="2.0357745">
        <time>2022-07-09T16:37:14Z</time>
      </trkpt>
      <trkpt lat="42.013683" lon="2.0358658">
        <time>2022-07-09T16:37:15Z</time>
      </trkpt>
      <trkpt lat="42.01363" lon="2.0359564">
        <time>2022-07-09T16:37:16Z</time>
      </trkpt>
      <trkpt lat="42.013577" lon="2.036049">
        <time>2022-07-09T16:37:17Z</time>
      </trkpt>
      <trkpt lat="42.013523" lon="2.0361364">
        <time>2022-07-09T16:37:18Z</time>
      </trkpt>
      <trkpt lat="42.013466" lon="2.0362287">
        <time>2022-07-09T16:37:19Z</time>
      </trkpt>
      <trkpt lat="42.013405" lon="2.0363317">
        <time>2022-07-09T16:37:20Z</time>
      </trkpt>
      <trkpt lat="42.013344" lon="2.0364337">
        <time>2022-07-09T16:37:21Z</time>
      </trkpt>
      <trkpt lat="42.01328" lon="2.0365348">
        <time>2022-07-09T16:37:22Z</time>
      </trkpt>
      <trkpt lat="42.013218" lon="2.0366359">
        <time>2022-07-09T16:37:23Z</time>
      </trkpt>
      <trkpt lat="42.01316" lon="2.0367358">
        <time>2022-07-09T16:37:24Z</time>
      </trkpt>
      <trkpt lat="42.0131" lon="2.0368352">
        <time>2022-07-09T16:37:25Z</time>
      </trkpt>
      <trkpt lat="42.013042" lon="2.036932">
        <time>2022-07-09T16:37:26Z</time>
      </trkpt>
      <trkpt lat="42.012985" lon="2.0370274">
        <time>2022-07-09T16:37:27Z</time>
      </trkpt>
      <trkpt lat="42.01293" lon="2.0371168">
        <time>2022-07-09T16:37:28Z</time>
      </trkpt>
      <trkpt lat="42.012875" lon="2.037215">
        <time>2022-07-09T16:37:29Z</time>
      </trkpt>
      <trkpt lat="42.012814" lon="2.0373137">
        <time>2022-07-09T16:37:30Z</time>
      </trkpt>
      <trkpt lat="42.012753" lon="2.0374124">
        <time>2022-07-09T16:37:31Z</time>
      </trkpt>
      <trkpt lat="42.012688" lon="2.0375097">
        <time>2022-07-09T16:37:32Z</time>
      </trkpt>
      <trkpt lat="42.012627" lon="2.0376">
        <time>2022-07-09T16:37:33Z</time>
      </trkpt>
      <trkpt lat="42.012554" lon="2.0376978">
        <time>2022-07-09T16:37:34Z</time>
      </trkpt>
      <trkpt lat="42.01248" lon="2.037795">
        <time>2022-07-09T16:37:35Z</time>
      </trkpt>
      <trkpt lat="42.01241" lon="2.0378916">
        <time>2022-07-09T16:37:36Z</time>
      </trkpt>
      <trkpt lat="42.01233" lon="2.0379877">
        <time>2022-07-09T16:37:37Z</time>
      </trkpt>
      <trkpt lat="42.012253" lon="2.0380774">
        <time>2022-07-09T16:37:38Z</time>
      </trkpt>
      <trkpt lat="42.012173" lon="2.038167">
        <time>2022-07-09T16:37:39Z</time>
      </trkpt>
      <trkpt lat="42.012085" lon="2.038256">
        <time>2022-07-09T16:37:40Z</time>
      </trkpt>
      <trkpt lat="42.011997" lon="2.0383434">
        <time>2022-07-09T16:37:41Z</time>
      </trkpt>
      <trkpt lat="42.011906" lon="2.0384297">
        <time>2022-07-09T16:37:42Z</time>
      </trkpt>
      <trkpt lat="42.01181" lon="2.0385146">
        <time>2022-07-09T16:37:43Z</time>
      </trkpt>
      <trkpt lat="42.011715" lon="2.038599">
        <time>2022-07-09T16:37:44Z</time>
      </trkpt>
      <trkpt lat="42.011616" lon="2.0386834">
        <time>2022-07-09T16:37:45Z</time>
      </trkpt>
      <trkpt lat="42.011517" lon="2.0387676">
        <time>2022-07-09T16:37:46Z</time>
      </trkpt>
      <trkpt lat="42.01132" lon="2.0389433">
        <time>2022-07-09T16:37:48Z</time>
      </trkpt>
      <trkpt lat="42.011215" lon="2.039034">
        <time>2022-07-09T16:37:49Z</time>
      </trkpt>
      <trkpt lat="42.011112" lon="2.0391352">
        <time>2022-07-09T16:37:50Z</time>
      </trkpt>
      <trkpt lat="42.011013" lon="2.0392416">
        <time>2022-07-09T16:37:51Z</time>
      </trkpt>
      <trkpt lat="42.01092" lon="2.0393517">
        <time>2022-07-09T16:37:52Z</time>
      </trkpt>
      <trkpt lat="42.010834" lon="2.0394654">
        <time>2022-07-09T16:37:53Z</time>
      </trkpt>
      <trkpt lat="42.010746" lon="2.039582">
        <time>2022-07-09T16:37:54Z</time>
      </trkpt>
      <trkpt lat="42.010666" lon="2.0397027">
        <time>2022-07-09T16:37:55Z</time>
      </trkpt>
      <trkpt lat="42.01059" lon="2.0398273">
        <time>2022-07-09T16:37:56Z</time>
      </trkpt>
      <trkpt lat="42.010517" lon="2.0399559">
        <time>2022-07-09T16:37:57Z</time>
      </trkpt>
      <trkpt lat="42.010452" lon="2.0400882">
        <time>2022-07-09T16:37:58Z</time>
      </trkpt>
      <trkpt lat="42.01039" lon="2.0402262">
        <time>2022-07-09T16:37:59Z</time>
      </trkpt>
      <trkpt lat="42.010334" lon="2.04037">
        <time>2022-07-09T16:38:00Z</time>
      </trkpt>
      <trkpt lat="42.01029" lon="2.0405173">
        <time>2022-07-09T16:38:01Z</time>
      </trkpt>
      <trkpt lat="42.01025" lon="2.0406673">
        <time>2022-07-09T16:38:02Z</time>
      </trkpt>
      <trkpt lat="42.010216" lon="2.04082">
        <time>2022-07-09T16:38:03Z</time>
      </trkpt>
      <trkpt lat="42.01019" lon="2.0409756">
        <time>2022-07-09T16:38:04Z</time>
      </trkpt>
      <trkpt lat="42.010166" lon="2.041127">
        <time>2022-07-09T16:38:05Z</time>
      </trkpt>
      <trkpt lat="42.010147" lon="2.0412862">
        <time>2022-07-09T16:38:06Z</time>
      </trkpt>
      <trkpt lat="42.01013" lon="2.041452">
        <time>2022-07-09T16:38:07Z</time>
      </trkpt>
      <trkpt lat="42.010117" lon="2.0416205">
        <time>2022-07-09T16:38:08Z</time>
      </trkpt>
      <trkpt lat="42.0101" lon="2.0417917">
        <time>2022-07-09T16:38:09Z</time>
      </trkpt>
      <trkpt lat="42.010086" lon="2.0419652">
        <time>2022-07-09T16:38:10Z</time>
      </trkpt>
      <trkpt lat="42.010075" lon="2.0421405">
        <time>2022-07-09T16:38:11Z</time>
      </trkpt>
      <trkpt lat="42.01006" lon="2.0423176">
        <time>2022-07-09T16:38:12Z</time>
      </trkpt>
      <trkpt lat="42.010044" lon="2.042497">
        <time>2022-07-09T16:38:13Z</time>
      </trkpt>
      <trkpt lat="42.010025" lon="2.0426896">
        <time>2022-07-09T16:38:14Z</time>
      </trkpt>
      <trkpt lat="42.010006" lon="2.0428672">
        <time>2022-07-09T16:38:15Z</time>
      </trkpt>
      <trkpt lat="42.009983" lon="2.0430465">
        <time>2022-07-09T16:38:16Z</time>
      </trkpt>
      <trkpt lat="42.009956" lon="2.043227">
        <time>2022-07-09T16:38:17Z</time>
      </trkpt>
      <trkpt lat="42.009926" lon="2.0434036">
        <time>2022-07-09T16:38:18Z</time>
      </trkpt>
      <trkpt lat="42.009888" lon="2.0435882">
        <time>2022-07-09T16:38:19Z</time>
      </trkpt>
      <trkpt lat="42.009842" lon="2.0437672">
        <time>2022-07-09T16:38:20Z</time>
      </trkpt>
      <trkpt lat="42.0098" lon="2.0439312">
        <time>2022-07-09T16:38:21Z</time>
      </trkpt>
      <trkpt lat="42.00975" lon="2.0440958">
        <time>2022-07-09T16:38:22Z</time>
      </trkpt>
      <trkpt lat="42.009697" lon="2.044259">
        <time>2022-07-09T16:38:23Z</time>
      </trkpt>
      <trkpt lat="42.009636" lon="2.0444214">
        <time>2022-07-09T16:38:24Z</time>
      </trkpt>
      <trkpt lat="42.009575" lon="2.0445821">
        <time>2022-07-09T16:38:25Z</time>
      </trkpt>
      <trkpt lat="42.009506" lon="2.0447412">
        <time>2022-07-09T16:38:26Z</time>
      </trkpt>
      <trkpt lat="42.00944" lon="2.0448976">
        <time>2022-07-09T16:38:27Z</time>
      </trkpt>
      <trkpt lat="42.009373" lon="2.0450518">
        <time>2022-07-09T16:38:28Z</time>
      </trkpt>
      <trkpt lat="42.009304" lon="2.045204">
        <time>2022-07-09T16:38:29Z</time>
      </trkpt>
      <trkpt lat="42.00923" lon="2.0453641">
        <time>2022-07-09T16:38:30Z</time>
      </trkpt>
      <trkpt lat="42.009163" lon="2.04551">
        <time>2022-07-09T16:38:31Z</time>
      </trkpt>
      <trkpt lat="42.009094" lon="2.045657">
        <time>2022-07-09T16:38:32Z</time>
      </trkpt>
      <trkpt lat="42.009026" lon="2.0458035">
        <time>2022-07-09T16:38:33Z</time>
      </trkpt>
      <trkpt lat="42.008957" lon="2.0459504">
        <time>2022-07-09T16:38:34Z</time>
      </trkpt>
      <trkpt lat="42.00889" lon="2.0460966">
        <time>2022-07-09T16:38:35Z</time>
      </trkpt>
      <trkpt lat="42.008816" lon="2.0462427">
        <time>2022-07-09T16:38:36Z</time>
      </trkpt>
      <trkpt lat="42.008747" lon="2.0463889">
        <time>2022-07-09T16:38:37Z</time>
      </trkpt>
      <trkpt lat="42.00868" lon="2.046534">
        <time>2022-07-09T16:38:38Z</time>
      </trkpt>
      <trkpt lat="42.008606" lon="2.0466802">
        <time>2022-07-09T16:38:39Z</time>
      </trkpt>
      <trkpt lat="42.008537" lon="2.0468252">
        <time>2022-07-09T16:38:40Z</time>
      </trkpt>
      <trkpt lat="42.00847" lon="2.04697">
        <time>2022-07-09T16:38:41Z</time>
      </trkpt>
      <trkpt lat="42.0084" lon="2.0471122">
        <time>2022-07-09T16:38:42Z</time>
      </trkpt>
      <trkpt lat="42.008335" lon="2.0472524">
        <time>2022-07-09T16:38:43Z</time>
      </trkpt>
      <trkpt lat="42.008266" lon="2.047392">
        <time>2022-07-09T16:38:44Z</time>
      </trkpt>
      <trkpt lat="42.0082" lon="2.047531">
        <time>2022-07-09T16:38:45Z</time>
      </trkpt>
      <trkpt lat="42.008137" lon="2.0476708">
        <time>2022-07-09T16:38:46Z</time>
      </trkpt>
      <trkpt lat="42.008068" lon="2.04781">
        <time>2022-07-09T16:38:47Z</time>
      </trkpt>
      <trkpt lat="42.008003" lon="2.0479507">
        <time>2022-07-09T16:38:48Z</time>
      </trkpt>
      <trkpt lat="42.007935" lon="2.048092">
        <time>2022-07-09T16:38:49Z</time>
      </trkpt>
      <trkpt lat="42.007866" lon="2.0482342">
        <time>2022-07-09T16:38:50Z</time>
      </trkpt>
      <trkpt lat="42.007797" lon="2.0483782">
        <time>2022-07-09T16:38:51Z</time>
      </trkpt>
      <trkpt lat="42.00773" lon="2.0485227">
        <time>2022-07-09T16:38:52Z</time>
      </trkpt>
      <trkpt lat="42.007664" lon="2.0486674">
        <time>2022-07-09T16:38:53Z</time>
      </trkpt>
      <trkpt lat="42.0076" lon="2.0488129">
        <time>2022-07-09T16:38:54Z</time>
      </trkpt>
      <trkpt lat="42.00748" lon="2.0491052">
        <time>2022-07-09T16:38:56Z</time>
      </trkpt>
      <trkpt lat="42.007427" lon="2.0492518">
        <time>2022-07-09T16:38:57Z</time>
      </trkpt>
      <trkpt lat="42.00738" lon="2.0494">
        <time>2022-07-09T16:38:58Z</time>
      </trkpt>
      <trkpt lat="42.00734" lon="2.04955">
        <time>2022-07-09T16:38:59Z</time>
      </trkpt>
      <trkpt lat="42.0073" lon="2.049704">
        <time>2022-07-09T16:39:00Z</time>
      </trkpt>
      <trkpt lat="42.00727" lon="2.0498605">
        <time>2022-07-09T16:39:01Z</time>
      </trkpt>
      <trkpt lat="42.007244" lon="2.050019">
        <time>2022-07-09T16:39:02Z</time>
      </trkpt>
      <trkpt lat="42.007225" lon="2.0501814">
        <time>2022-07-09T16:39:03Z</time>
      </trkpt>
      <trkpt lat="42.00721" lon="2.0503469">
        <time>2022-07-09T16:39:04Z</time>
      </trkpt>
      <trkpt lat="42.007202" lon="2.0505147">
        <time>2022-07-09T16:39:05Z</time>
      </trkpt>
      <trkpt lat="42.0072" lon="2.0506852">
        <time>2022-07-09T16:39:06Z</time>
      </trkpt>
      <trkpt lat="42.007202" lon="2.0508578">
        <time>2022-07-09T16:39:07Z</time>
      </trkpt>
      <trkpt lat="42.007214" lon="2.0510314">
        <time>2022-07-09T16:39:08Z</time>
      </trkpt>
      <trkpt lat="42.007236" lon="2.0512054">
        <time>2022-07-09T16:39:09Z</time>
      </trkpt>
      <trkpt lat="42.007263" lon="2.0513794">
        <time>2022-07-09T16:39:10Z</time>
      </trkpt>
      <trkpt lat="42.007298" lon="2.0515528">
        <time>2022-07-09T16:39:11Z</time>
      </trkpt>
      <trkpt lat="42.00734" lon="2.051724">
        <time>2022-07-09T16:39:12Z</time>
      </trkpt>
      <trkpt lat="42.00739" lon="2.051894">
        <time>2022-07-09T16:39:13Z</time>
      </trkpt>
      <trkpt lat="42.007446" lon="2.052062">
        <time>2022-07-09T16:39:14Z</time>
      </trkpt>
      <trkpt lat="42.007507" lon="2.0522287">
        <time>2022-07-09T16:39:15Z</time>
      </trkpt>
      <trkpt lat="42.007572" lon="2.052395">
        <time>2022-07-09T16:39:16Z</time>
      </trkpt>
      <trkpt lat="42.00764" lon="2.0525603">
        <time>2022-07-09T16:39:17Z</time>
      </trkpt>
      <trkpt lat="42.00771" lon="2.0527241">
        <time>2022-07-09T16:39:18Z</time>
      </trkpt>
      <trkpt lat="42.007782" lon="2.0528858">
        <time>2022-07-09T16:39:19Z</time>
      </trkpt>
      <trkpt lat="42.007854" lon="2.0530453">
        <time>2022-07-09T16:39:20Z</time>
      </trkpt>
      <trkpt lat="42.007923" lon="2.053203">
        <time>2022-07-09T16:39:21Z</time>
      </trkpt>
      <trkpt lat="42.007996" lon="2.0533586">
        <time>2022-07-09T16:39:22Z</time>
      </trkpt>
      <trkpt lat="42.008064" lon="2.0535107">
        <time>2022-07-09T16:39:23Z</time>
      </trkpt>
      <trkpt lat="42.008133" lon="2.0536594">
        <time>2022-07-09T16:39:24Z</time>
      </trkpt>
      <trkpt lat="42.0082" lon="2.0538046">
        <time>2022-07-09T16:39:25Z</time>
      </trkpt>
      <trkpt lat="42.008266" lon="2.053946">
        <time>2022-07-09T16:39:26Z</time>
      </trkpt>
      <trkpt lat="42.008327" lon="2.0540853">
        <time>2022-07-09T16:39:27Z</time>
      </trkpt>
      <trkpt lat="42.008385" lon="2.0542219">
        <time>2022-07-09T16:39:28Z</time>
      </trkpt>
      <trkpt lat="42.00844" lon="2.0543566">
        <time>2022-07-09T16:39:29Z</time>
      </trkpt>
      <trkpt lat="42.008488" lon="2.0544887">
        <time>2022-07-09T16:39:30Z</time>
      </trkpt>
      <trkpt lat="42.00853" lon="2.0546184">
        <time>2022-07-09T16:39:31Z</time>
      </trkpt>
      <trkpt lat="42.008568" lon="2.054745">
        <time>2022-07-09T16:39:32Z</time>
      </trkpt>
      <trkpt lat="42.008602" lon="2.054868">
        <time>2022-07-09T16:39:33Z</time>
      </trkpt>
      <trkpt lat="42.008633" lon="2.0549884">
        <time>2022-07-09T16:39:34Z</time>
      </trkpt>
      <trkpt lat="42.00866" lon="2.0551043">
        <time>2022-07-09T16:39:35Z</time>
      </trkpt>
      <trkpt lat="42.008682" lon="2.0552173">
        <time>2022-07-09T16:39:36Z</time>
      </trkpt>
      <trkpt lat="42.0087" lon="2.055328">
        <time>2022-07-09T16:39:37Z</time>
      </trkpt>
      <trkpt lat="42.008717" lon="2.055435">
        <time>2022-07-09T16:39:38Z</time>
      </trkpt>
      <trkpt lat="42.00873" lon="2.0555382">
        <time>2022-07-09T16:39:39Z</time>
      </trkpt>
      <trkpt lat="42.00874" lon="2.0556395">
        <time>2022-07-09T16:39:40Z</time>
      </trkpt>
      <trkpt lat="42.008747" lon="2.055739">
        <time>2022-07-09T16:39:41Z</time>
      </trkpt>
      <trkpt lat="42.008755" lon="2.055836">
        <time>2022-07-09T16:39:42Z</time>
      </trkpt>
      <trkpt lat="42.00876" lon="2.05593">
        <time>2022-07-09T16:39:43Z</time>
      </trkpt>
      <trkpt lat="42.008762" lon="2.056021">
        <time>2022-07-09T16:39:44Z</time>
      </trkpt>
      <trkpt lat="42.008766" lon="2.0561082">
        <time>2022-07-09T16:39:45Z</time>
      </trkpt>
      <trkpt lat="42.008766" lon="2.0561926">
        <time>2022-07-09T16:39:46Z</time>
      </trkpt>
      <trkpt lat="42.00877" lon="2.0562747">
        <time>2022-07-09T16:39:47Z</time>
      </trkpt>
      <trkpt lat="42.008774" lon="2.0563543">
        <time>2022-07-09T16:39:48Z</time>
      </trkpt>
      <trkpt lat="42.008778" lon="2.0564313">
        <time>2022-07-09T16:39:49Z</time>
      </trkpt>
      <trkpt lat="42.00878" lon="2.0565066">
        <time>2022-07-09T16:39:50Z</time>
      </trkpt>
      <trkpt lat="42.00878" lon="2.0565796">
        <time>2022-07-09T16:39:51Z</time>
      </trkpt>
      <trkpt lat="42.008785" lon="2.05665">
        <time>2022-07-09T16:39:52Z</time>
      </trkpt>
      <trkpt lat="42.00879" lon="2.0567832">
        <time>2022-07-09T16:39:54Z</time>
      </trkpt>
      <trkpt lat="42.008797" lon="2.056908">
        <time>2022-07-09T16:39:56Z</time>
      </trkpt>
      <trkpt lat="42.00881" lon="2.0570261">
        <time>2022-07-09T16:39:58Z</time>
      </trkpt>
      <trkpt lat="42.008823" lon="2.057191">
        <time>2022-07-09T16:40:01Z</time>
      </trkpt>
      <trkpt lat="42.008835" lon="2.0572906">
        <time>2022-07-09T16:40:03Z</time>
      </trkpt>
      <trkpt lat="42.00885" lon="2.0573819">
        <time>2022-07-09T16:40:05Z</time>
      </trkpt>
      <trkpt lat="42.00886" lon="2.0574658">
        <time>2022-07-09T16:40:07Z</time>
      </trkpt>
      <trkpt lat="42.008877" lon="2.0575461">
        <time>2022-07-09T16:40:09Z</time>
      </trkpt>
      <trkpt lat="42.008892" lon="2.0576262">
        <time>2022-07-09T16:40:11Z</time>
      </trkpt>
      <trkpt lat="42.008907" lon="2.0577066">
        <time>2022-07-09T16:40:13Z</time>
      </trkpt>
      <trkpt lat="42.008926" lon="2.0577826">
        <time>2022-07-09T16:40:15Z</time>
      </trkpt>
      <trkpt lat="42.008945" lon="2.05786">
        <time>2022-07-09T16:40:17Z</time>
      </trkpt>
      <trkpt lat="42.008965" lon="2.0579348">
        <time>2022-07-09T16:40:19Z</time>
      </trkpt>
      <trkpt lat="42.008987" lon="2.0580072">
        <time>2022-07-09T16:40:21Z</time>
      </trkpt>
      <trkpt lat="42.00901" lon="2.0580785">
        <time>2022-07-09T16:40:23Z</time>
      </trkpt>
      <trkpt lat="42.00903" lon="2.0581465">
        <time>2022-07-09T16:40:25Z</time>
      </trkpt>
      <trkpt lat="42.009052" lon="2.0582135">
        <time>2022-07-09T16:40:27Z</time>
      </trkpt>
      <trkpt lat="42.009068" lon="2.0582795">
        <time>2022-07-09T16:40:29Z</time>
      </trkpt>
      <trkpt lat="42.009087" lon="2.0583403">
        <time>2022-07-09T16:40:31Z</time>
      </trkpt>
      <trkpt lat="42.009117" lon="2.0584261">
        <time>2022-07-09T16:40:34Z</time>
      </trkpt>
      <trkpt lat="42.009148" lon="2.0585136">
        <time>2022-07-09T16:40:37Z</time>
      </trkpt>
      <trkpt lat="42.009163" lon="2.058571">
        <time>2022-07-09T16:40:39Z</time>
      </trkpt>
      <trkpt lat="42.009186" lon="2.0586615">
        <time>2022-07-09T16:40:42Z</time>
      </trkpt>
      <trkpt lat="42.0092" lon="2.0587199">
        <time>2022-07-09T16:40:44Z</time>
      </trkpt>
      <trkpt lat="42.009224" lon="2.058803">
        <time>2022-07-09T16:40:47Z</time>
      </trkpt>
      <trkpt lat="42.009247" lon="2.0588865">
        <time>2022-07-09T16:40:50Z</time>
      </trkpt>
      <trkpt lat="42.00927" lon="2.058972">
        <time>2022-07-09T16:40:53Z</time>
      </trkpt>
      <trkpt lat="42.009293" lon="2.0590584">
        <time>2022-07-09T16:40:56Z</time>
      </trkpt>
      <trkpt lat="42.009308" lon="2.0591185">
        <time>2022-07-09T16:40:58Z</time>
      </trkpt>
      <trkpt lat="42.009323" lon="2.0592108">
        <time>2022-07-09T16:41:01Z</time>
      </trkpt>
      <trkpt lat="42.00934" lon="2.0593042">
        <time>2022-07-09T16:41:04Z</time>
      </trkpt>
      <trkpt lat="42.009346" lon="2.0593665">
        <time>2022-07-09T16:41:06Z</time>
      </trkpt>
      <trkpt lat="42.009354" lon="2.0594602">
        <time>2022-07-09T16:41:09Z</time>
      </trkpt>
      <trkpt lat="42.009365" lon="2.0595207">
        <time>2022-07-09T16:41:11Z</time>
      </trkpt>
      <trkpt lat="42.009373" lon="2.0596068">
        <time>2022-07-09T16:41:14Z</time>
      </trkpt>
      <trkpt lat="42.009388" lon="2.0596871">
        <time>2022-07-09T16:41:17Z</time>
      </trkpt>
      <trkpt lat="42.009407" lon="2.059765">
        <time>2022-07-09T16:41:20Z</time>
      </trkpt>
      <trkpt lat="42.00943" lon="2.059836">
        <time>2022-07-09T16:41:23Z</time>
      </trkpt>
      <trkpt lat="42.009453" lon="2.0599127">
        <time>2022-07-09T16:41:26Z</time>
      </trkpt>
      <trkpt lat="42.009464" lon="2.0599914">
        <time>2022-07-09T16:41:29Z</time>
      </trkpt>
      <trkpt lat="42.00947" lon="2.0600731">
        <time>2022-07-09T16:41:32Z</time>
      </trkpt>
      <trkpt lat="42.009483" lon="2.0601528">
        <time>2022-07-09T16:41:35Z</time>
      </trkpt>
      <trkpt lat="42.00949" lon="2.060238">
        <time>2022-07-09T16:41:38Z</time>
      </trkpt>
      <trkpt lat="42.0095" lon="2.0603225">
        <time>2022-07-09T16:41:41Z</time>
      </trkpt>
      <trkpt lat="42.009502" lon="2.0604074">
        <time>2022-07-09T16:41:44Z</time>
      </trkpt>
      <trkpt lat="42.009506" lon="2.0604937">
        <time>2022-07-09T16:41:47Z</time>
      </trkpt>
      <trkpt lat="42.00951" lon="2.0605783">
        <time>2022-07-09T16:41:50Z</time>
      </trkpt>
      <trkpt lat="42.00951" lon="2.0606627">
        <time>2022-07-09T16:41:53Z</time>
      </trkpt>
      <trkpt lat="42.009506" lon="2.0607507">
        <time>2022-07-09T16:41:56Z</time>
      </trkpt>
      <trkpt lat="42.009502" lon="2.0608387">
        <time>2022-07-09T16:41:59Z</time>
      </trkpt>
      <trkpt lat="42.009506" lon="2.0609267">
        <time>2022-07-09T16:42:02Z</time>
      </trkpt>
      <trkpt lat="42.009506" lon="2.0610135">
        <time>2022-07-09T16:42:05Z</time>
      </trkpt>
      <trkpt lat="42.009506" lon="2.0611022">
        <time>2022-07-09T16:42:08Z</time>
      </trkpt>
      <trkpt lat="42.009514" lon="2.0611901">
        <time>2022-07-09T16:42:11Z</time>
      </trkpt>
      <trkpt lat="42.00952" lon="2.0612822">
        <time>2022-07-09T16:42:14Z</time>
      </trkpt>
      <trkpt lat="42.009525" lon="2.061378">
        <time>2022-07-09T16:42:17Z</time>
      </trkpt>
      <trkpt lat="42.00953" lon="2.0614424">
        <time>2022-07-09T16:42:19Z</time>
      </trkpt>
      <trkpt lat="42.009533" lon="2.0615454">
        <time>2022-07-09T16:42:22Z</time>
      </trkpt>
      <trkpt lat="42.009537" lon="2.061615">
        <time>2022-07-09T16:42:24Z</time>
      </trkpt>
      <trkpt lat="42.009537" lon="2.061696">
        <time>2022-07-09T16:42:26Z</time>
      </trkpt>
      <trkpt lat="42.009537" lon="2.0617845">
        <time>2022-07-09T16:42:28Z</time>
      </trkpt>
      <trkpt lat="42.009537" lon="2.0618808">
        <time>2022-07-09T16:42:30Z</time>
      </trkpt>
      <trkpt lat="42.009537" lon="2.0619807">
        <time>2022-07-09T16:42:32Z</time>
      </trkpt>
      <trkpt lat="42.00954" lon="2.062081">
        <time>2022-07-09T16:42:34Z</time>
      </trkpt>
      <trkpt lat="42.00954" lon="2.0621843">
        <time>2022-07-09T16:42:36Z</time>
      </trkpt>
      <trkpt lat="42.009544" lon="2.0622907">
        <time>2022-07-09T16:42:38Z</time>
      </trkpt>
      <trkpt lat="42.00955" lon="2.0623991">
        <time>2022-07-09T16:42:40Z</time>
      </trkpt>
      <trkpt lat="42.009552" lon="2.0625114">
        <time>2022-07-09T16:42:42Z</time>
      </trkpt>
      <trkpt lat="42.009556" lon="2.0626295">
        <time>2022-07-09T16:42:44Z</time>
      </trkpt>
      <trkpt lat="42.009556" lon="2.062757">
        <time>2022-07-09T16:42:46Z</time>
      </trkpt>
      <trkpt lat="42.009552" lon="2.0628893">
        <time>2022-07-09T16:42:48Z</time>
      </trkpt>
      <trkpt lat="42.009556" lon="2.063029">
        <time>2022-07-09T16:42:50Z</time>
      </trkpt>
      <trkpt lat="42.00956" lon="2.0631018">
        <time>2022-07-09T16:42:51Z</time>
      </trkpt>
      <trkpt lat="42.00956" lon="2.0631757">
        <time>2022-07-09T16:42:52Z</time>
      </trkpt>
      <trkpt lat="42.009563" lon="2.063252">
        <time>2022-07-09T16:42:53Z</time>
      </trkpt>
      <trkpt lat="42.00957" lon="2.0633314">
        <time>2022-07-09T16:42:54Z</time>
      </trkpt>
      <trkpt lat="42.009575" lon="2.0634136">
        <time>2022-07-09T16:42:55Z</time>
      </trkpt>
      <trkpt lat="42.009583" lon="2.063492">
        <time>2022-07-09T16:42:56Z</time>
      </trkpt>
      <trkpt lat="42.009594" lon="2.0635793">
        <time>2022-07-09T16:42:57Z</time>
      </trkpt>
      <trkpt lat="42.0096" lon="2.063669">
        <time>2022-07-09T16:42:58Z</time>
      </trkpt>
      <trkpt lat="42.009617" lon="2.0637608">
        <time>2022-07-09T16:42:59Z</time>
      </trkpt>
      <trkpt lat="42.009632" lon="2.0638537">
        <time>2022-07-09T16:43:00Z</time>
      </trkpt>
      <trkpt lat="42.00965" lon="2.0639477">
        <time>2022-07-09T16:43:01Z</time>
      </trkpt>
      <trkpt lat="42.00967" lon="2.0640442">
        <time>2022-07-09T16:43:02Z</time>
      </trkpt>
      <trkpt lat="42.009697" lon="2.0641422">
        <time>2022-07-09T16:43:03Z</time>
      </trkpt>
      <trkpt lat="42.009724" lon="2.0642424">
        <time>2022-07-09T16:43:04Z</time>
      </trkpt>
      <trkpt lat="42.009758" lon="2.064345">
        <time>2022-07-09T16:43:05Z</time>
      </trkpt>
      <trkpt lat="42.009792" lon="2.0644517">
        <time>2022-07-09T16:43:06Z</time>
      </trkpt>
      <trkpt lat="42.009834" lon="2.0645583">
        <time>2022-07-09T16:43:07Z</time>
      </trkpt>
      <trkpt lat="42.00988" lon="2.0646653">
        <time>2022-07-09T16:43:08Z</time>
      </trkpt>
      <trkpt lat="42.009926" lon="2.0647724">
        <time>2022-07-09T16:43:09Z</time>
      </trkpt>
      <trkpt lat="42.010036" lon="2.0649862">
        <time>2022-07-09T16:43:11Z</time>
      </trkpt>
      <trkpt lat="42.010094" lon="2.0650942">
        <time>2022-07-09T16:43:12Z</time>
      </trkpt>
      <trkpt lat="42.010155" lon="2.065204">
        <time>2022-07-09T16:43:13Z</time>
      </trkpt>
      <trkpt lat="42.010216" lon="2.065316">
        <time>2022-07-09T16:43:14Z</time>
      </trkpt>
      <trkpt lat="42.010277" lon="2.0654316">
        <time>2022-07-09T16:43:15Z</time>
      </trkpt>
      <trkpt lat="42.010338" lon="2.0655503">
        <time>2022-07-09T16:43:16Z</time>
      </trkpt>
      <trkpt lat="42.0104" lon="2.0656734">
        <time>2022-07-09T16:43:17Z</time>
      </trkpt>
      <trkpt lat="42.010452" lon="2.0657916">
        <time>2022-07-09T16:43:18Z</time>
      </trkpt>
      <trkpt lat="42.010506" lon="2.0659246">
        <time>2022-07-09T16:43:19Z</time>
      </trkpt>
      <trkpt lat="42.010555" lon="2.06605">
        <time>2022-07-09T16:43:20Z</time>
      </trkpt>
      <trkpt lat="42.0106" lon="2.066189">
        <time>2022-07-09T16:43:21Z</time>
      </trkpt>
      <trkpt lat="42.010647" lon="2.066329">
        <time>2022-07-09T16:43:22Z</time>
      </trkpt>
      <trkpt lat="42.01069" lon="2.0664692">
        <time>2022-07-09T16:43:23Z</time>
      </trkpt>
      <trkpt lat="42.010727" lon="2.0666113">
        <time>2022-07-09T16:43:24Z</time>
      </trkpt>
      <trkpt lat="42.01076" lon="2.066756">
        <time>2022-07-09T16:43:25Z</time>
      </trkpt>
      <trkpt lat="42.0108" lon="2.066901">
        <time>2022-07-09T16:43:26Z</time>
      </trkpt>
      <trkpt lat="42.010834" lon="2.0670474">
        <time>2022-07-09T16:43:27Z</time>
      </trkpt>
      <trkpt lat="42.010868" lon="2.0671942">
        <time>2022-07-09T16:43:28Z</time>
      </trkpt>
      <trkpt lat="42.010902" lon="2.0673416">
        <time>2022-07-09T16:43:29Z</time>
      </trkpt>
      <trkpt lat="42.010933" lon="2.0674906">
        <time>2022-07-09T16:43:30Z</time>
      </trkpt>
      <trkpt lat="42.010967" lon="2.0676413">
        <time>2022-07-09T16:43:31Z</time>
      </trkpt>
      <trkpt lat="42.010998" lon="2.067793">
        <time>2022-07-09T16:43:32Z</time>
      </trkpt>
      <trkpt lat="42.011032" lon="2.0679452">
        <time>2022-07-09T16:43:33Z</time>
      </trkpt>
      <trkpt lat="42.011063" lon="2.0680983">
        <time>2022-07-09T16:43:34Z</time>
      </trkpt>
      <trkpt lat="42.011097" lon="2.0682518">
        <time>2022-07-09T16:43:35Z</time>
      </trkpt>
      <trkpt lat="42.011127" lon="2.0684066">
        <time>2022-07-09T16:43:36Z</time>
      </trkpt>
      <trkpt lat="42.011158" lon="2.0685625">
        <time>2022-07-09T16:43:37Z</time>
      </trkpt>
      <trkpt lat="42.011192" lon="2.0687199">
        <time>2022-07-09T16:43:38Z</time>
      </trkpt>
      <trkpt lat="42.011223" lon="2.0688763">
        <time>2022-07-09T16:43:39Z</time>
      </trkpt>
      <trkpt lat="42.011253" lon="2.0690336">
        <time>2022-07-09T16:43:40Z</time>
      </trkpt>
      <trkpt lat="42.011288" lon="2.0691898">
        <time>2022-07-09T16:43:41Z</time>
      </trkpt>
      <trkpt lat="42.011322" lon="2.069346">
        <time>2022-07-09T16:43:42Z</time>
      </trkpt>
      <trkpt lat="42.011353" lon="2.069501">
        <time>2022-07-09T16:43:43Z</time>
      </trkpt>
      <trkpt lat="42.011387" lon="2.0696552">
        <time>2022-07-09T16:43:44Z</time>
      </trkpt>
      <trkpt lat="42.011417" lon="2.0698094">
        <time>2022-07-09T16:43:45Z</time>
      </trkpt>
      <trkpt lat="42.011448" lon="2.0699623">
        <time>2022-07-09T16:43:46Z</time>
      </trkpt>
      <trkpt lat="42.01148" lon="2.070113">
        <time>2022-07-09T16:43:47Z</time>
      </trkpt>
      <trkpt lat="42.01151" lon="2.0702612">
        <time>2022-07-09T16:43:48Z</time>
      </trkpt>
      <trkpt lat="42.01154" lon="2.0704076">
        <time>2022-07-09T16:43:49Z</time>
      </trkpt>
      <trkpt lat="42.01157" lon="2.0705512">
        <time>2022-07-09T16:43:50Z</time>
      </trkpt>
      <trkpt lat="42.011597" lon="2.0706909">
        <time>2022-07-09T16:43:51Z</time>
      </trkpt>
      <trkpt lat="42.011627" lon="2.0708272">
        <time>2022-07-09T16:43:52Z</time>
      </trkpt>
      <trkpt lat="42.011654" lon="2.0709605">
        <time>2022-07-09T16:43:53Z</time>
      </trkpt>
      <trkpt lat="42.01168" lon="2.0710897">
        <time>2022-07-09T16:43:54Z</time>
      </trkpt>
      <trkpt lat="42.011707" lon="2.0712159">
        <time>2022-07-09T16:43:55Z</time>
      </trkpt>
      <trkpt lat="42.011734" lon="2.0713375">
        <time>2022-07-09T16:43:56Z</time>
      </trkpt>
      <trkpt lat="42.011757" lon="2.0714548">
        <time>2022-07-09T16:43:57Z</time>
      </trkpt>
      <trkpt lat="42.01178" lon="2.0715687">
        <time>2022-07-09T16:43:58Z</time>
      </trkpt>
      <trkpt lat="42.011803" lon="2.0716796">
        <time>2022-07-09T16:43:59Z</time>
      </trkpt>
      <trkpt lat="42.011826" lon="2.0717936">
        <time>2022-07-09T16:44:00Z</time>
      </trkpt>
      <trkpt lat="42.01185" lon="2.071896">
        <time>2022-07-09T16:44:01Z</time>
      </trkpt>
      <trkpt lat="42.011868" lon="2.0719962">
        <time>2022-07-09T16:44:02Z</time>
      </trkpt>
      <trkpt lat="42.011887" lon="2.0720925">
        <time>2022-07-09T16:44:03Z</time>
      </trkpt>
      <trkpt lat="42.011906" lon="2.0721848">
        <time>2022-07-09T16:44:04Z</time>
      </trkpt>
      <trkpt lat="42.01192" lon="2.0722735">
        <time>2022-07-09T16:44:05Z</time>
      </trkpt>
      <trkpt lat="42.01194" lon="2.072358">
        <time>2022-07-09T16:44:06Z</time>
      </trkpt>
      <trkpt lat="42.01196" lon="2.0724378">
        <time>2022-07-09T16:44:07Z</time>
      </trkpt>
      <trkpt lat="42.011974" lon="2.072515">
        <time>2022-07-09T16:44:08Z</time>
      </trkpt>
      <trkpt lat="42.011986" lon="2.0725887">
        <time>2022-07-09T16:44:09Z</time>
      </trkpt>
      <trkpt lat="42.012" lon="2.0726597">
        <time>2022-07-09T16:44:10Z</time>
      </trkpt>
      <trkpt lat="42.012012" lon="2.0727272">
        <time>2022-07-09T16:44:11Z</time>
      </trkpt>
      <trkpt lat="42.012024" lon="2.0727918">
        <time>2022-07-09T16:44:12Z</time>
      </trkpt>
      <trkpt lat="42.012062" lon="2.0729642">
        <time>2022-07-09T16:44:15Z</time>
      </trkpt>
      <trkpt lat="42.01208" lon="2.0730677">
        <time>2022-07-09T16:44:17Z</time>
      </trkpt>
      <trkpt lat="42.0121" lon="2.0731652">
        <time>2022-07-09T16:44:19Z</time>
      </trkpt>
      <trkpt lat="42.01212" lon="2.073259">
        <time>2022-07-09T16:44:21Z</time>
      </trkpt>
      <trkpt lat="42.012135" lon="2.0733438">
        <time>2022-07-09T16:44:23Z</time>
      </trkpt>
      <trkpt lat="42.012146" lon="2.0734243">
        <time>2022-07-09T16:44:25Z</time>
      </trkpt>
      <trkpt lat="42.012157" lon="2.0735004">
        <time>2022-07-09T16:44:27Z</time>
      </trkpt>
      <trkpt lat="42.01217" lon="2.0735693">
        <time>2022-07-09T16:44:29Z</time>
      </trkpt>
      <trkpt lat="42.01218" lon="2.0736368">
        <time>2022-07-09T16:44:31Z</time>
      </trkpt>
      <trkpt lat="42.0122" lon="2.0737317">
        <time>2022-07-09T16:44:34Z</time>
      </trkpt>
      <trkpt lat="42.012215" lon="2.07382">
        <time>2022-07-09T16:44:37Z</time>
      </trkpt>
      <trkpt lat="42.01223" lon="2.0739005">
        <time>2022-07-09T16:44:40Z</time>
      </trkpt>
      <trkpt lat="42.01224" lon="2.0739863">
        <time>2022-07-09T16:44:43Z</time>
      </trkpt>
      <trkpt lat="42.01225" lon="2.0740716">
        <time>2022-07-09T16:44:46Z</time>
      </trkpt>
      <trkpt lat="42.012257" lon="2.0741568">
        <time>2022-07-09T16:44:49Z</time>
      </trkpt>
      <trkpt lat="42.012264" lon="2.0742438">
        <time>2022-07-09T16:44:52Z</time>
      </trkpt>
      <trkpt lat="42.01227" lon="2.074331">
        <time>2022-07-09T16:44:55Z</time>
      </trkpt>
      <trkpt lat="42.012276" lon="2.0744162">
        <time>2022-07-09T16:44:58Z</time>
      </trkpt>
      <trkpt lat="42.012283" lon="2.0744996">
        <time>2022-07-09T16:45:01Z</time>
      </trkpt>
      <trkpt lat="42.012287" lon="2.07458">
        <time>2022-07-09T16:45:04Z</time>
      </trkpt>
      <trkpt lat="42.01229" lon="2.074661">
        <time>2022-07-09T16:45:07Z</time>
      </trkpt>
      <trkpt lat="42.0123" lon="2.0747411">
        <time>2022-07-09T16:45:10Z</time>
      </trkpt>
      <trkpt lat="42.012302" lon="2.0748193">
        <time>2022-07-09T16:45:13Z</time>
      </trkpt>
      <trkpt lat="42.012302" lon="2.074899">
        <time>2022-07-09T16:45:16Z</time>
      </trkpt>
      <trkpt lat="42.012306" lon="2.074978">
        <time>2022-07-09T16:45:19Z</time>
      </trkpt>
      <trkpt lat="42.01231" lon="2.0750837">
        <time>2022-07-09T16:45:23Z</time>
      </trkpt>
      <trkpt lat="42.012314" lon="2.075166">
        <time>2022-07-09T16:45:26Z</time>
      </trkpt>
      <trkpt lat="42.012314" lon="2.075246">
        <time>2022-07-09T16:45:29Z</time>
      </trkpt>
      <trkpt lat="42.01231" lon="2.0753248">
        <time>2022-07-09T16:45:32Z</time>
      </trkpt>
      <trkpt lat="42.01231" lon="2.0754054">
        <time>2022-07-09T16:45:35Z</time>
      </trkpt>
      <trkpt lat="42.012306" lon="2.0754826">
        <time>2022-07-09T16:45:38Z</time>
      </trkpt>
      <trkpt lat="42.012302" lon="2.075564">
        <time>2022-07-09T16:45:41Z</time>
      </trkpt>
      <trkpt lat="42.0123" lon="2.0756447">
        <time>2022-07-09T16:45:44Z</time>
      </trkpt>
      <trkpt lat="42.01229" lon="2.0757222">
        <time>2022-07-09T16:45:47Z</time>
      </trkpt>
      <trkpt lat="42.01228" lon="2.075802">
        <time>2022-07-09T16:45:50Z</time>
      </trkpt>
      <trkpt lat="42.012268" lon="2.0758793">
        <time>2022-07-09T16:45:53Z</time>
      </trkpt>
      <trkpt lat="42.012257" lon="2.0759563">
        <time>2022-07-09T16:45:56Z</time>
      </trkpt>
      <trkpt lat="42.012245" lon="2.0760324">
        <time>2022-07-09T16:45:59Z</time>
      </trkpt>
      <trkpt lat="42.012238" lon="2.07611">
        <time>2022-07-09T16:46:02Z</time>
      </trkpt>
      <trkpt lat="42.01223" lon="2.076187">
        <time>2022-07-09T16:46:05Z</time>
      </trkpt>
      <trkpt lat="42.012226" lon="2.0762622">
        <time>2022-07-09T16:46:08Z</time>
      </trkpt>
      <trkpt lat="42.01222" lon="2.0763392">
        <time>2022-07-09T16:46:11Z</time>
      </trkpt>
      <trkpt lat="42.01221" lon="2.0764143">
        <time>2022-07-09T16:46:14Z</time>
      </trkpt>
      <trkpt lat="42.012203" lon="2.0764797">
        <time>2022-07-09T16:46:17Z</time>
      </trkpt>
      <trkpt lat="42.0122" lon="2.0765574">
        <time>2022-07-09T16:46:21Z</time>
      </trkpt>
      <trkpt lat="42.01219" lon="2.0766487">
        <time>2022-07-09T16:46:26Z</time>
      </trkpt>
      <trkpt lat="42.01218" lon="2.076727">
        <time>2022-07-09T16:46:30Z</time>
      </trkpt>
      <trkpt lat="42.01217" lon="2.0767899">
        <time>2022-07-09T16:46:33Z</time>
      </trkpt>
      <trkpt lat="42.01216" lon="2.0768785">
        <time>2022-07-09T16:46:37Z</time>
      </trkpt>
      <trkpt lat="42.012157" lon="2.076947">
        <time>2022-07-09T16:46:40Z</time>
      </trkpt>
      <trkpt lat="42.012154" lon="2.0770335">
        <time>2022-07-09T16:46:44Z</time>
      </trkpt>
      <trkpt lat="42.01214" lon="2.0771194">
        <time>2022-07-09T16:46:48Z</time>
      </trkpt>
      <trkpt lat="42.012127" lon="2.0771835">
        <time>2022-07-09T16:46:51Z</time>
      </trkpt>
      <trkpt lat="42.01212" lon="2.077272">
        <time>2022-07-09T16:46:55Z</time>
      </trkpt>
      <trkpt lat="42.01211" lon="2.0773585">
        <time>2022-07-09T16:46:59Z</time>
      </trkpt>
      <trkpt lat="42.012104" lon="2.0774236">
        <time>2022-07-09T16:47:02Z</time>
      </trkpt>
      <trkpt lat="42.012093" lon="2.0775132">
        <time>2022-07-09T16:47:06Z</time>
      </trkpt>
      <trkpt lat="42.01208" lon="2.0775816">
        <time>2022-07-09T16:47:09Z</time>
      </trkpt>
      <trkpt lat="42.01207" lon="2.0776455">
        <time>2022-07-09T16:47:12Z</time>
      </trkpt>
      <trkpt lat="42.01206" lon="2.0777328">
        <time>2022-07-09T16:47:16Z</time>
      </trkpt>
      <trkpt lat="42.012047" lon="2.0778236">
        <time>2022-07-09T16:47:20Z</time>
      </trkpt>
      <trkpt lat="42.01204" lon="2.0778885">
        <time>2022-07-09T16:47:23Z</time>
      </trkpt>
      <trkpt lat="42.012024" lon="2.0779796">
        <time>2022-07-09T16:47:27Z</time>
      </trkpt>
      <trkpt lat="42.012012" lon="2.0780497">
        <time>2022-07-09T16:47:30Z</time>
      </trkpt>
      <trkpt lat="42.011997" lon="2.078117">
        <time>2022-07-09T16:47:33Z</time>
      </trkpt>
      <trkpt lat="42.011986" lon="2.0781858">
        <time>2022-07-09T16:47:36Z</time>
      </trkpt>
      <trkpt lat="42.011974" lon="2.0782511">
        <time>2022-07-09T16:47:39Z</time>
      </trkpt>
      <trkpt lat="42.011963" lon="2.0783389">
        <time>2022-07-09T16:47:43Z</time>
      </trkpt>
      <trkpt lat="42.01195" lon="2.0784056">
        <time>2022-07-09T16:47:46Z</time>
      </trkpt>
      <trkpt lat="42.011932" lon="2.0784962">
        <time>2022-07-09T16:47:50Z</time>
      </trkpt>
      <trkpt lat="42.011917" lon="2.0785651">
        <time>2022-07-09T16:47:53Z</time>
      </trkpt>
      <trkpt lat="42.011894" lon="2.0786302">
        <time>2022-07-09T16:47:56Z</time>
      </trkpt>
      <trkpt lat="42.01188" lon="2.0786974">
        <time>2022-07-09T16:47:59Z</time>
      </trkpt>
      <trkpt lat="42.011864" lon="2.0787656">
        <time>2022-07-09T16:48:02Z</time>
      </trkpt>
      <trkpt lat="42.01184" lon="2.0788314">
        <time>2022-07-09T16:48:05Z</time>
      </trkpt>
      <trkpt lat="42.01182" lon="2.0788941">
        <time>2022-07-09T16:48:08Z</time>
      </trkpt>
      <trkpt lat="42.0118" lon="2.078976">
        <time>2022-07-09T16:48:12Z</time>
      </trkpt>
      <trkpt lat="42.011776" lon="2.0790641">
        <time>2022-07-09T16:48:16Z</time>
      </trkpt>
      <trkpt lat="42.011757" lon="2.0791311">
        <time>2022-07-09T16:48:19Z</time>
      </trkpt>
      <trkpt lat="42.011734" lon="2.0791974">
        <time>2022-07-09T16:48:22Z</time>
      </trkpt>
      <trkpt lat="42.011715" lon="2.0792656">
        <time>2022-07-09T16:48:25Z</time>
      </trkpt>
      <trkpt lat="42.011692" lon="2.079331">
        <time>2022-07-09T16:48:28Z</time>
      </trkpt>
      <trkpt lat="42.01167" lon="2.0793936">
        <time>2022-07-09T16:48:31Z</time>
      </trkpt>
      <trkpt lat="42.011642" lon="2.0794544">
        <time>2022-07-09T16:48:34Z</time>
      </trkpt>
      <trkpt lat="42.011616" lon="2.0795114">
        <time>2022-07-09T16:48:37Z</time>
      </trkpt>
      <trkpt lat="42.011585" lon="2.079593">
        <time>2022-07-09T16:48:41Z</time>
      </trkpt>
      <trkpt lat="42.011562" lon="2.079656">
        <time>2022-07-09T16:48:44Z</time>
      </trkpt>
      <trkpt lat="42.011543" lon="2.079723">
        <time>2022-07-09T16:48:47Z</time>
      </trkpt>
      <trkpt lat="42.011513" lon="2.0797923">
        <time>2022-07-09T16:48:50Z</time>
      </trkpt>
      <trkpt lat="42.01148" lon="2.0798619">
        <time>2022-07-09T16:48:53Z</time>
      </trkpt>
      <trkpt lat="42.011448" lon="2.0799322">
        <time>2022-07-09T16:48:56Z</time>
      </trkpt>
      <trkpt lat="42.011417" lon="2.0800028">
        <time>2022-07-09T16:48:59Z</time>
      </trkpt>
      <trkpt lat="42.011387" lon="2.0800705">
        <time>2022-07-09T16:49:02Z</time>
      </trkpt>
      <trkpt lat="42.01136" lon="2.0801377">
        <time>2022-07-09T16:49:05Z</time>
      </trkpt>
      <trkpt lat="42.01133" lon="2.0802069">
        <time>2022-07-09T16:49:08Z</time>
      </trkpt>
      <trkpt lat="42.0113" lon="2.0802746">
        <time>2022-07-09T16:49:11Z</time>
      </trkpt>
      <trkpt lat="42.011272" lon="2.0803394">
        <time>2022-07-09T16:49:14Z</time>
      </trkpt>
      <trkpt lat="42.011242" lon="2.0804057">
        <time>2022-07-09T16:49:17Z</time>
      </trkpt>
      <trkpt lat="42.01121" lon="2.0804732">
        <time>2022-07-09T16:49:20Z</time>
      </trkpt>
      <trkpt lat="42.01118" lon="2.0805426">
        <time>2022-07-09T16:49:23Z</time>
      </trkpt>
      <trkpt lat="42.011143" lon="2.0806112">
        <time>2022-07-09T16:49:26Z</time>
      </trkpt>
      <trkpt lat="42.011105" lon="2.0806818">
        <time>2022-07-09T16:49:29Z</time>
      </trkpt>
      <trkpt lat="42.011074" lon="2.0807502">
        <time>2022-07-09T16:49:32Z</time>
      </trkpt>
      <trkpt lat="42.01104" lon="2.0808156">
        <time>2022-07-09T16:49:35Z</time>
      </trkpt>
      <trkpt lat="42.01099" lon="2.0809035">
        <time>2022-07-09T16:49:39Z</time>
      </trkpt>
      <trkpt lat="42.010952" lon="2.0809715">
        <time>2022-07-09T16:49:42Z</time>
      </trkpt>
      <trkpt lat="42.010918" lon="2.081038">
        <time>2022-07-09T16:49:45Z</time>
      </trkpt>
      <trkpt lat="42.010883" lon="2.0811067">
        <time>2022-07-09T16:49:48Z</time>
      </trkpt>
      <trkpt lat="42.010845" lon="2.081175">
        <time>2022-07-09T16:49:51Z</time>
      </trkpt>
      <trkpt lat="42.01081" lon="2.0812423">
        <time>2022-07-09T16:49:54Z</time>
      </trkpt>
      <trkpt lat="42.010777" lon="2.0813134">
        <time>2022-07-09T16:49:57Z</time>
      </trkpt>
      <trkpt lat="42.01074" lon="2.081391">
        <time>2022-07-09T16:50:00Z</time>
      </trkpt>
      <trkpt lat="42.01071" lon="2.0814404">
        <time>2022-07-09T16:50:02Z</time>
      </trkpt>
      <trkpt lat="42.01067" lon="2.0815187">
        <time>2022-07-09T16:50:05Z</time>
      </trkpt>
      <trkpt lat="42.010643" lon="2.0815754">
        <time>2022-07-09T16:50:07Z</time>
      </trkpt>
      <trkpt lat="42.010605" lon="2.0816557">
        <time>2022-07-09T16:50:10Z</time>
      </trkpt>
      <trkpt lat="42.010567" lon="2.0817356">
        <time>2022-07-09T16:50:13Z</time>
      </trkpt>
      <trkpt lat="42.01053" lon="2.0818071">
        <time>2022-07-09T16:50:16Z</time>
      </trkpt>
      <trkpt lat="42.01049" lon="2.081875">
        <time>2022-07-09T16:50:19Z</time>
      </trkpt>
      <trkpt lat="42.010456" lon="2.0819438">
        <time>2022-07-09T16:50:22Z</time>
      </trkpt>
      <trkpt lat="42.010418" lon="2.0820148">
        <time>2022-07-09T16:50:25Z</time>
      </trkpt>
      <trkpt lat="42.010376" lon="2.0820847">
        <time>2022-07-09T16:50:28Z</time>
      </trkpt>
      <trkpt lat="42.010338" lon="2.082155">
        <time>2022-07-09T16:50:31Z</time>
      </trkpt>
      <trkpt lat="42.010296" lon="2.0822263">
        <time>2022-07-09T16:50:34Z</time>
      </trkpt>
      <trkpt lat="42.010258" lon="2.0823007">
        <time>2022-07-09T16:50:37Z</time>
      </trkpt>
      <trkpt lat="42.01022" lon="2.0823724">
        <time>2022-07-09T16:50:40Z</time>
      </trkpt>
      <trkpt lat="42.010178" lon="2.0824463">
        <time>2022-07-09T16:50:43Z</time>
      </trkpt>
      <trkpt lat="42.010136" lon="2.082518">
        <time>2022-07-09T16:50:46Z</time>
      </trkpt>
      <trkpt lat="42.010098" lon="2.0825918">
        <time>2022-07-09T16:50:49Z</time>
      </trkpt>
      <trkpt lat="42.010056" lon="2.0826664">
        <time>2022-07-09T16:50:52Z</time>
      </trkpt>
      <trkpt lat="42.010017" lon="2.082745">
        <time>2022-07-09T16:50:55Z</time>
      </trkpt>
      <trkpt lat="42.009975" lon="2.0828257">
        <time>2022-07-09T16:50:58Z</time>
      </trkpt>
      <trkpt lat="42.009945" lon="2.0828834">
        <time>2022-07-09T16:51:00Z</time>
      </trkpt>
      <trkpt lat="42.00991" lon="2.0829446">
        <time>2022-07-09T16:51:02Z</time>
      </trkpt>
      <trkpt lat="42.009876" lon="2.0830088">
        <time>2022-07-09T16:51:04Z</time>
      </trkpt>
      <trkpt lat="42.009842" lon="2.0830746">
        <time>2022-07-09T16:51:06Z</time>
      </trkpt>
      <trkpt lat="42.009804" lon="2.0831444">
        <time>2022-07-09T16:51:08Z</time>
      </trkpt>
      <trkpt lat="42.009766" lon="2.0832143">
        <time>2022-07-09T16:51:10Z</time>
      </trkpt>
      <trkpt lat="42.00973" lon="2.083283">
        <time>2022-07-09T16:51:12Z</time>
      </trkpt>
      <trkpt lat="42.009697" lon="2.083353">
        <time>2022-07-09T16:51:14Z</time>
      </trkpt>
      <trkpt lat="42.00966" lon="2.083433">
        <time>2022-07-09T16:51:16Z</time>
      </trkpt>
      <trkpt lat="42.009617" lon="2.0835173">
        <time>2022-07-09T16:51:18Z</time>
      </trkpt>
      <trkpt lat="42.00957" lon="2.0836053">
        <time>2022-07-09T16:51:20Z</time>
      </trkpt>
      <trkpt lat="42.00952" lon="2.083695">
        <time>2022-07-09T16:51:22Z</time>
      </trkpt>
      <trkpt lat="42.009468" lon="2.0837936">
        <time>2022-07-09T16:51:24Z</time>
      </trkpt>
      <trkpt lat="42.00941" lon="2.083905">
        <time>2022-07-09T16:51:26Z</time>
      </trkpt>
      <trkpt lat="42.009384" lon="2.083961">
        <time>2022-07-09T16:51:27Z</time>
      </trkpt>
      <trkpt lat="42.009323" lon="2.084074">
        <time>2022-07-09T16:51:29Z</time>
      </trkpt>
      <trkpt lat="42.009293" lon="2.0841355">
        <time>2022-07-09T16:51:30Z</time>
      </trkpt>
      <trkpt lat="42.00926" lon="2.084198">
        <time>2022-07-09T16:51:31Z</time>
      </trkpt>
      <trkpt lat="42.009224" lon="2.0842633">
        <time>2022-07-09T16:51:32Z</time>
      </trkpt>
      <trkpt lat="42.009186" lon="2.0843303">
        <time>2022-07-09T16:51:33Z</time>
      </trkpt>
      <trkpt lat="42.00915" lon="2.0844007">
        <time>2022-07-09T16:51:34Z</time>
      </trkpt>
      <trkpt lat="42.009113" lon="2.084473">
        <time>2022-07-09T16:51:35Z</time>
      </trkpt>
      <trkpt lat="42.00907" lon="2.084547">
        <time>2022-07-09T16:51:36Z</time>
      </trkpt>
      <trkpt lat="42.00903" lon="2.0846217">
        <time>2022-07-09T16:51:37Z</time>
      </trkpt>
      <trkpt lat="42.008987" lon="2.0846987">
        <time>2022-07-09T16:51:38Z</time>
      </trkpt>
      <trkpt lat="42.008945" lon="2.084779">
        <time>2022-07-09T16:51:39Z</time>
      </trkpt>
      <trkpt lat="42.008904" lon="2.0848606">
        <time>2022-07-09T16:51:40Z</time>
      </trkpt>
      <trkpt lat="42.008858" lon="2.084946">
        <time>2022-07-09T16:51:41Z</time>
      </trkpt>
      <trkpt lat="42.008812" lon="2.0850341">
        <time>2022-07-09T16:51:42Z</time>
      </trkpt>
      <trkpt lat="42.008762" lon="2.0851245">
        <time>2022-07-09T16:51:43Z</time>
      </trkpt>
      <trkpt lat="42.008713" lon="2.085217">
        <time>2022-07-09T16:51:44Z</time>
      </trkpt>
      <trkpt lat="42.008663" lon="2.0853095">
        <time>2022-07-09T16:51:45Z</time>
      </trkpt>
      <trkpt lat="42.008617" lon="2.0853972">
        <time>2022-07-09T16:51:46Z</time>
      </trkpt>
      <trkpt lat="42.008564" lon="2.0854926">
        <time>2022-07-09T16:51:47Z</time>
      </trkpt>
      <trkpt lat="42.008514" lon="2.0855873">
        <time>2022-07-09T16:51:48Z</time>
      </trkpt>
      <trkpt lat="42.008457" lon="2.085681">
        <time>2022-07-09T16:51:49Z</time>
      </trkpt>
      <trkpt lat="42.00835" lon="2.0858665">
        <time>2022-07-09T16:51:51Z</time>
      </trkpt>
      <trkpt lat="42.008293" lon="2.085965">
        <time>2022-07-09T16:51:52Z</time>
      </trkpt>
      <trkpt lat="42.00824" lon="2.0860648">
        <time>2022-07-09T16:51:53Z</time>
      </trkpt>
      <trkpt lat="42.008186" lon="2.0861588">
        <time>2022-07-09T16:51:54Z</time>
      </trkpt>
      <trkpt lat="42.008133" lon="2.0862591">
        <time>2022-07-09T16:51:55Z</time>
      </trkpt>
      <trkpt lat="42.008076" lon="2.0863593">
        <time>2022-07-09T16:51:56Z</time>
      </trkpt>
      <trkpt lat="42.00802" lon="2.0864599">
        <time>2022-07-09T16:51:57Z</time>
      </trkpt>
      <trkpt lat="42.00796" lon="2.086561">
        <time>2022-07-09T16:51:58Z</time>
      </trkpt>
      <trkpt lat="42.0079" lon="2.0866616">
        <time>2022-07-09T16:51:59Z</time>
      </trkpt>
      <trkpt lat="42.007835" lon="2.0867612">
        <time>2022-07-09T16:52:00Z</time>
      </trkpt>
      <trkpt lat="42.00777" lon="2.0868602">
        <time>2022-07-09T16:52:01Z</time>
      </trkpt>
      <trkpt lat="42.007706" lon="2.0869534">
        <time>2022-07-09T16:52:02Z</time>
      </trkpt>
      <trkpt lat="42.007633" lon="2.0870538">
        <time>2022-07-09T16:52:03Z</time>
      </trkpt>
      <trkpt lat="42.007565" lon="2.0871458">
        <time>2022-07-09T16:52:04Z</time>
      </trkpt>
      <trkpt lat="42.00749" lon="2.0872436">
        <time>2022-07-09T16:52:05Z</time>
      </trkpt>
      <trkpt lat="42.007416" lon="2.0873322">
        <time>2022-07-09T16:52:06Z</time>
      </trkpt>
      <trkpt lat="42.007336" lon="2.0874264">
        <time>2022-07-09T16:52:07Z</time>
      </trkpt>
      <trkpt lat="42.007256" lon="2.0875177">
        <time>2022-07-09T16:52:08Z</time>
      </trkpt>
      <trkpt lat="42.007168" lon="2.087612">
        <time>2022-07-09T16:52:09Z</time>
      </trkpt>
      <trkpt lat="42.007076" lon="2.0877008">
        <time>2022-07-09T16:52:10Z</time>
      </trkpt>
      <trkpt lat="42.006996" lon="2.0877802">
        <time>2022-07-09T16:52:11Z</time>
      </trkpt>
      <trkpt lat="42.00691" lon="2.0878572">
        <time>2022-07-09T16:52:12Z</time>
      </trkpt>
      <trkpt lat="42.00682" lon="2.087932">
        <time>2022-07-09T16:52:13Z</time>
      </trkpt>
      <trkpt lat="42.006733" lon="2.088005">
        <time>2022-07-09T16:52:14Z</time>
      </trkpt>
      <trkpt lat="42.006645" lon="2.088075">
        <time>2022-07-09T16:52:15Z</time>
      </trkpt>
      <trkpt lat="42.006557" lon="2.0881414">
        <time>2022-07-09T16:52:16Z</time>
      </trkpt>
      <trkpt lat="42.006466" lon="2.088204">
        <time>2022-07-09T16:52:17Z</time>
      </trkpt>
      <trkpt lat="42.006374" lon="2.0882626">
        <time>2022-07-09T16:52:18Z</time>
      </trkpt>
      <trkpt lat="42.00628" lon="2.0883205">
        <time>2022-07-09T16:52:19Z</time>
      </trkpt>
      <trkpt lat="42.006187" lon="2.0883749">
        <time>2022-07-09T16:52:20Z</time>
      </trkpt>
      <trkpt lat="42.0061" lon="2.0884228">
        <time>2022-07-09T16:52:21Z</time>
      </trkpt>
      <trkpt lat="42.006016" lon="2.0884678">
        <time>2022-07-09T16:52:22Z</time>
      </trkpt>
      <trkpt lat="42.00593" lon="2.0885105">
        <time>2022-07-09T16:52:23Z</time>
      </trkpt>
      <trkpt lat="42.00585" lon="2.0885475">
        <time>2022-07-09T16:52:24Z</time>
      </trkpt>
      <trkpt lat="42.005768" lon="2.088583">
        <time>2022-07-09T16:52:25Z</time>
      </trkpt>
      <trkpt lat="42.005688" lon="2.0886164">
        <time>2022-07-09T16:52:26Z</time>
      </trkpt>
      <trkpt lat="42.005608" lon="2.088648">
        <time>2022-07-09T16:52:27Z</time>
      </trkpt>
      <trkpt lat="42.005535" lon="2.0886765">
        <time>2022-07-09T16:52:28Z</time>
      </trkpt>
      <trkpt lat="42.00546" lon="2.0887074">
        <time>2022-07-09T16:52:29Z</time>
      </trkpt>
      <trkpt lat="42.005383" lon="2.088742">
        <time>2022-07-09T16:52:30Z</time>
      </trkpt>
      <trkpt lat="42.00531" lon="2.0887747">
        <time>2022-07-09T16:52:31Z</time>
      </trkpt>
      <trkpt lat="42.005238" lon="2.088808">
        <time>2022-07-09T16:52:32Z</time>
      </trkpt>
      <trkpt lat="42.005173" lon="2.088839">
        <time>2022-07-09T16:52:33Z</time>
      </trkpt>
      <trkpt lat="42.00511" lon="2.088871">
        <time>2022-07-09T16:52:34Z</time>
      </trkpt>
      <trkpt lat="42.00505" lon="2.0889034">
        <time>2022-07-09T16:52:35Z</time>
      </trkpt>
      <trkpt lat="42.00499" lon="2.088937">
        <time>2022-07-09T16:52:36Z</time>
      </trkpt>
      <trkpt lat="42.004936" lon="2.0889695">
        <time>2022-07-09T16:52:37Z</time>
      </trkpt>
      <trkpt lat="42.00488" lon="2.0890007">
        <time>2022-07-09T16:52:38Z</time>
      </trkpt>
      <trkpt lat="42.00483" lon="2.0890305">
        <time>2022-07-09T16:52:39Z</time>
      </trkpt>
      <trkpt lat="42.004776" lon="2.089065">
        <time>2022-07-09T16:52:40Z</time>
      </trkpt>
      <trkpt lat="42.004723" lon="2.089101">
        <time>2022-07-09T16:52:41Z</time>
      </trkpt>
      <trkpt lat="42.00467" lon="2.0891378">
        <time>2022-07-09T16:52:42Z</time>
      </trkpt>
      <trkpt lat="42.004616" lon="2.0891771">
        <time>2022-07-09T16:52:43Z</time>
      </trkpt>
      <trkpt lat="42.004566" lon="2.0892158">
        <time>2022-07-09T16:52:44Z</time>
      </trkpt>
      <trkpt lat="42.00452" lon="2.0892558">
        <time>2022-07-09T16:52:45Z</time>
      </trkpt>
      <trkpt lat="42.004467" lon="2.0893">
        <time>2022-07-09T16:52:46Z</time>
      </trkpt>
      <trkpt lat="42.00442" lon="2.0893414">
        <time>2022-07-09T16:52:47Z</time>
      </trkpt>
      <trkpt lat="42.00437" lon="2.0893867">
        <time>2022-07-09T16:52:48Z</time>
      </trkpt>
      <trkpt lat="42.004326" lon="2.089433">
        <time>2022-07-09T16:52:49Z</time>
      </trkpt>
      <trkpt lat="42.00428" lon="2.0894804">
        <time>2022-07-09T16:52:50Z</time>
      </trkpt>
      <trkpt lat="42.004242" lon="2.089525">
        <time>2022-07-09T16:52:51Z</time>
      </trkpt>
      <trkpt lat="42.004158" lon="2.0896218">
        <time>2022-07-09T16:52:53Z</time>
      </trkpt>
      <trkpt lat="42.004116" lon="2.089673">
        <time>2022-07-09T16:52:54Z</time>
      </trkpt>
      <trkpt lat="42.004074" lon="2.0897226">
        <time>2022-07-09T16:52:55Z</time>
      </trkpt>
      <trkpt lat="42.00404" lon="2.089767">
        <time>2022-07-09T16:52:56Z</time>
      </trkpt>
      <trkpt lat="42.003956" lon="2.0898702">
        <time>2022-07-09T16:52:58Z</time>
      </trkpt>
      <trkpt lat="42.00392" lon="2.0899186">
        <time>2022-07-09T16:52:59Z</time>
      </trkpt>
      <trkpt lat="42.003887" lon="2.0899696">
        <time>2022-07-09T16:53:00Z</time>
      </trkpt>
      <trkpt lat="42.00382" lon="2.0900733">
        <time>2022-07-09T16:53:02Z</time>
      </trkpt>
      <trkpt lat="42.003784" lon="2.0901222">
        <time>2022-07-09T16:53:03Z</time>
      </trkpt>
      <trkpt lat="42.003716" lon="2.0902193">
        <time>2022-07-09T16:53:05Z</time>
      </trkpt>
      <trkpt lat="42.003643" lon="2.0903122">
        <time>2022-07-09T16:53:07Z</time>
      </trkpt>
      <trkpt lat="42.003574" lon="2.0903997">
        <time>2022-07-09T16:53:09Z</time>
      </trkpt>
      <trkpt lat="42.0035" lon="2.0904846">
        <time>2022-07-09T16:53:11Z</time>
      </trkpt>
      <trkpt lat="42.003433" lon="2.0905669">
        <time>2022-07-09T16:53:13Z</time>
      </trkpt>
      <trkpt lat="42.003365" lon="2.0906463">
        <time>2022-07-09T16:53:15Z</time>
      </trkpt>
      <trkpt lat="42.003292" lon="2.0907216">
        <time>2022-07-09T16:53:17Z</time>
      </trkpt>
      <trkpt lat="42.00322" lon="2.0907955">
        <time>2022-07-09T16:53:19Z</time>
      </trkpt>
      <trkpt lat="42.003147" lon="2.0908663">
        <time>2022-07-09T16:53:21Z</time>
      </trkpt>
      <trkpt lat="42.00307" lon="2.0909328">
        <time>2022-07-09T16:53:23Z</time>
      </trkpt>
      <trkpt lat="42.002995" lon="2.0909956">
        <time>2022-07-09T16:53:25Z</time>
      </trkpt>
      <trkpt lat="42.00292" lon="2.091054">
        <time>2022-07-09T16:53:27Z</time>
      </trkpt>
      <trkpt lat="42.00284" lon="2.0911062">
        <time>2022-07-09T16:53:29Z</time>
      </trkpt>
      <trkpt lat="42.00276" lon="2.0911539">
        <time>2022-07-09T16:53:31Z</time>
      </trkpt>
      <trkpt lat="42.002686" lon="2.0912004">
        <time>2022-07-09T16:53:33Z</time>
      </trkpt>
      <trkpt lat="42.002613" lon="2.091241">
        <time>2022-07-09T16:53:35Z</time>
      </trkpt>
      <trkpt lat="42.00254" lon="2.0912776">
        <time>2022-07-09T16:53:37Z</time>
      </trkpt>
      <trkpt lat="42.002472" lon="2.091312">
        <time>2022-07-09T16:53:39Z</time>
      </trkpt>
      <trkpt lat="42.002403" lon="2.0913444">
        <time>2022-07-09T16:53:41Z</time>
      </trkpt>
      <trkpt lat="42.00233" lon="2.0913732">
        <time>2022-07-09T16:53:43Z</time>
      </trkpt>
      <trkpt lat="42.002262" lon="2.0914025">
        <time>2022-07-09T16:53:45Z</time>
      </trkpt>
      <trkpt lat="42.002193" lon="2.0914326">
        <time>2022-07-09T16:53:47Z</time>
      </trkpt>
      <trkpt lat="42.002125" lon="2.0914626">
        <time>2022-07-09T16:53:49Z</time>
      </trkpt>
      <trkpt lat="42.00206" lon="2.0914912">
        <time>2022-07-09T16:53:51Z</time>
      </trkpt>
      <trkpt lat="42.001987" lon="2.0915232">
        <time>2022-07-09T16:53:53Z</time>
      </trkpt>
      <trkpt lat="42.001892" lon="2.0915625">
        <time>2022-07-09T16:53:56Z</time>
      </trkpt>
      <trkpt lat="42.001823" lon="2.0915902">
        <time>2022-07-09T16:53:58Z</time>
      </trkpt>
      <trkpt lat="42.00176" lon="2.0916188">
        <time>2022-07-09T16:54:00Z</time>
      </trkpt>
      <trkpt lat="42.00169" lon="2.091648">
        <time>2022-07-09T16:54:02Z</time>
      </trkpt>
      <trkpt lat="42.00162" lon="2.0916798">
        <time>2022-07-09T16:54:04Z</time>
      </trkpt>
      <trkpt lat="42.001556" lon="2.0917113">
        <time>2022-07-09T16:54:06Z</time>
      </trkpt>
      <trkpt lat="42.00149" lon="2.0917401">
        <time>2022-07-09T16:54:08Z</time>
      </trkpt>
      <trkpt lat="42.001423" lon="2.0917692">
        <time>2022-07-09T16:54:10Z</time>
      </trkpt>
      <trkpt lat="42.001354" lon="2.0917988">
        <time>2022-07-09T16:54:12Z</time>
      </trkpt>
      <trkpt lat="42.001286" lon="2.0918286">
        <time>2022-07-09T16:54:14Z</time>
      </trkpt>
      <trkpt lat="42.00122" lon="2.0918581">
        <time>2022-07-09T16:54:16Z</time>
      </trkpt>
      <trkpt lat="42.00116" lon="2.091888">
        <time>2022-07-09T16:54:18Z</time>
      </trkpt>
      <trkpt lat="42.001095" lon="2.0919158">
        <time>2022-07-09T16:54:20Z</time>
      </trkpt>
      <trkpt lat="42.001038" lon="2.0919402">
        <time>2022-07-09T16:54:22Z</time>
      </trkpt>
      <trkpt lat="42.000984" lon="2.0919626">
        <time>2022-07-09T16:54:24Z</time>
      </trkpt>
      <trkpt lat="42.000927" lon="2.0919821">
        <time>2022-07-09T16:54:26Z</time>
      </trkpt>
      <trkpt lat="42.00087" lon="2.0920002">
        <time>2022-07-09T16:54:28Z</time>
      </trkpt>
      <trkpt lat="42.000813" lon="2.0920162">
        <time>2022-07-09T16:54:30Z</time>
      </trkpt>
      <trkpt lat="42.00076" lon="2.0920346">
        <time>2022-07-09T16:54:32Z</time>
      </trkpt>
      <trkpt lat="42.000706" lon="2.0920517">
        <time>2022-07-09T16:54:34Z</time>
      </trkpt>
      <trkpt lat="42.000656" lon="2.0920682">
        <time>2022-07-09T16:54:36Z</time>
      </trkpt>
      <trkpt lat="42.000607" lon="2.0920835">
        <time>2022-07-09T16:54:38Z</time>
      </trkpt>
      <trkpt lat="42.000538" lon="2.0921059">
        <time>2022-07-09T16:54:41Z</time>
      </trkpt>
      <trkpt lat="42.00048" lon="2.0921268">
        <time>2022-07-09T16:54:44Z</time>
      </trkpt>
      <trkpt lat="42.000366" lon="2.0921907">
        <time>2022-07-09T16:57:39Z</time>
      </trkpt>
      <trkpt lat="42.000317" lon="2.0922139">
        <time>2022-07-09T16:57:41Z</time>
      </trkpt>
      <trkpt lat="42.000263" lon="2.0922382">
        <time>2022-07-09T16:57:43Z</time>
      </trkpt>
      <trkpt lat="42.00021" lon="2.092262">
        <time>2022-07-09T16:57:45Z</time>
      </trkpt>
      <trkpt lat="42.00016" lon="2.092286">
        <time>2022-07-09T16:57:47Z</time>
      </trkpt>
      <trkpt lat="42.00011" lon="2.0923128">
        <time>2022-07-09T16:57:49Z</time>
      </trkpt>
      <trkpt lat="42.000057" lon="2.0923398">
        <time>2022-07-09T16:57:51Z</time>
      </trkpt>
      <trkpt lat="42.0" lon="2.0923657">
        <time>2022-07-09T16:57:53Z</time>
      </trkpt>
      <trkpt lat="41.999947" lon="2.09239">
        <time>2022-07-09T16:57:55Z</time>
      </trkpt>
      <trkpt lat="41.99989" lon="2.092415">
        <time>2022-07-09T16:57:57Z</time>
      </trkpt>
      <trkpt lat="41.999832" lon="2.09244">
        <time>2022-07-09T16:57:59Z</time>
      </trkpt>
      <trkpt lat="41.99978" lon="2.092462">
        <time>2022-07-09T16:58:01Z</time>
      </trkpt>
      <trkpt lat="41.999725" lon="2.0924842">
        <time>2022-07-09T16:58:03Z</time>
      </trkpt>
      <trkpt lat="41.99964" lon="2.0925179">
        <time>2022-07-09T16:58:06Z</time>
      </trkpt>
      <trkpt lat="41.999588" lon="2.0925398">
        <time>2022-07-09T16:58:08Z</time>
      </trkpt>
      <trkpt lat="41.999535" lon="2.0925624">
        <time>2022-07-09T16:58:10Z</time>
      </trkpt>
      <trkpt lat="41.999477" lon="2.0925884">
        <time>2022-07-09T16:58:12Z</time>
      </trkpt>
      <trkpt lat="41.999424" lon="2.092612">
        <time>2022-07-09T16:58:14Z</time>
      </trkpt>
      <trkpt lat="41.999374" lon="2.0926347">
        <time>2022-07-09T16:58:16Z</time>
      </trkpt>
      <trkpt lat="41.99933" lon="2.092657">
        <time>2022-07-09T16:58:18Z</time>
      </trkpt>
      <trkpt lat="41.99926" lon="2.0926924">
        <time>2022-07-09T16:58:21Z</time>
      </trkpt>
      <trkpt lat="41.99919" lon="2.0927274">
        <time>2022-07-09T16:58:24Z</time>
      </trkpt>
      <trkpt lat="41.99912" lon="2.0927637">
        <time>2022-07-09T16:58:27Z</time>
      </trkpt>
      <trkpt lat="41.999073" lon="2.0927875">
        <time>2022-07-09T16:58:29Z</time>
      </trkpt>
      <trkpt lat="41.999004" lon="2.092822">
        <time>2022-07-09T16:58:32Z</time>
      </trkpt>
      <trkpt lat="41.998936" lon="2.092864">
        <time>2022-07-09T16:58:35Z</time>
      </trkpt>
      <trkpt lat="41.998886" lon="2.09289">
        <time>2022-07-09T16:58:37Z</time>
      </trkpt>
      <trkpt lat="41.99884" lon="2.092914">
        <time>2022-07-09T16:58:39Z</time>
      </trkpt>
      <trkpt lat="41.99877" lon="2.0929503">
        <time>2022-07-09T16:58:42Z</time>
      </trkpt>
      <trkpt lat="41.998703" lon="2.092986">
        <time>2022-07-09T16:58:45Z</time>
      </trkpt>
      <trkpt lat="41.998634" lon="2.0930238">
        <time>2022-07-09T16:58:48Z</time>
      </trkpt>
      <trkpt lat="41.998585" lon="2.0930467">
        <time>2022-07-09T16:58:50Z</time>
      </trkpt>
      <trkpt lat="41.99854" lon="2.0930707">
        <time>2022-07-09T16:58:52Z</time>
      </trkpt>
      <trkpt lat="41.99847" lon="2.093105">
        <time>2022-07-09T16:58:55Z</time>
      </trkpt>
      <trkpt lat="41.998405" lon="2.0931396">
        <time>2022-07-09T16:58:58Z</time>
      </trkpt>
      <trkpt lat="41.99834" lon="2.0931716">
        <time>2022-07-09T16:59:01Z</time>
      </trkpt>
      <trkpt lat="41.998276" lon="2.0932026">
        <time>2022-07-09T16:59:04Z</time>
      </trkpt>
      <trkpt lat="41.99821" lon="2.0932353">
        <time>2022-07-09T16:59:07Z</time>
      </trkpt>
      <trkpt lat="41.998142" lon="2.093271">
        <time>2022-07-09T16:59:10Z</time>
      </trkpt>
      <trkpt lat="41.998074" lon="2.0933046">
        <time>2022-07-09T16:59:13Z</time>
      </trkpt>
      <trkpt lat="41.998005" lon="2.093344">
        <time>2022-07-09T16:59:16Z</time>
      </trkpt>
      <trkpt lat="41.99795" lon="2.0933726">
        <time>2022-07-09T16:59:18Z</time>
      </trkpt>
      <trkpt lat="41.9979" lon="2.0934024">
        <time>2022-07-09T16:59:20Z</time>
      </trkpt>
      <trkpt lat="41.997845" lon="2.0934336">
        <time>2022-07-09T16:59:22Z</time>
      </trkpt>
      <trkpt lat="41.997795" lon="2.0934656">
        <time>2022-07-09T16:59:24Z</time>
      </trkpt>
      <trkpt lat="41.99774" lon="2.0934982">
        <time>2022-07-09T16:59:26Z</time>
      </trkpt>
      <trkpt lat="41.997684" lon="2.0935316">
        <time>2022-07-09T16:59:28Z</time>
      </trkpt>
      <trkpt lat="41.997627" lon="2.0935624">
        <time>2022-07-09T16:59:30Z</time>
      </trkpt>
      <trkpt lat="41.997574" lon="2.0935936">
        <time>2022-07-09T16:59:32Z</time>
      </trkpt>
      <trkpt lat="41.997513" lon="2.0936296">
        <time>2022-07-09T16:59:34Z</time>
      </trkpt>
      <trkpt lat="41.99745" lon="2.0936663">
        <time>2022-07-09T16:59:36Z</time>
      </trkpt>
      <trkpt lat="41.997387" lon="2.093705">
        <time>2022-07-09T16:59:38Z</time>
      </trkpt>
      <trkpt lat="41.997322" lon="2.093745">
        <time>2022-07-09T16:59:40Z</time>
      </trkpt>
      <trkpt lat="41.997253" lon="2.093785">
        <time>2022-07-09T16:59:42Z</time>
      </trkpt>
      <trkpt lat="41.997185" lon="2.0938253">
        <time>2022-07-09T16:59:44Z</time>
      </trkpt>
      <trkpt lat="41.997112" lon="2.0938706">
        <time>2022-07-09T16:59:46Z</time>
      </trkpt>
      <trkpt lat="41.99704" lon="2.0939193">
        <time>2022-07-09T16:59:48Z</time>
      </trkpt>
      <trkpt lat="41.99696" lon="2.0939686">
        <time>2022-07-09T16:59:50Z</time>
      </trkpt>
      <trkpt lat="41.996876" lon="2.0940197">
        <time>2022-07-09T16:59:52Z</time>
      </trkpt>
      <trkpt lat="41.996788" lon="2.0940776">
        <time>2022-07-09T16:59:54Z</time>
      </trkpt>
      <trkpt lat="41.996746" lon="2.094107">
        <time>2022-07-09T16:59:55Z</time>
      </trkpt>
      <trkpt lat="41.996655" lon="2.0941696">
        <time>2022-07-09T16:59:57Z</time>
      </trkpt>
      <trkpt lat="41.996567" lon="2.0942342">
        <time>2022-07-09T16:59:59Z</time>
      </trkpt>
      <trkpt lat="41.996475" lon="2.0942993">
        <time>2022-07-09T17:00:01Z</time>
      </trkpt>
      <trkpt lat="41.99643" lon="2.0943327">
        <time>2022-07-09T17:00:02Z</time>
      </trkpt>
      <trkpt lat="41.996384" lon="2.0943658">
        <time>2022-07-09T17:00:03Z</time>
      </trkpt>
      <trkpt lat="41.996334" lon="2.094401">
        <time>2022-07-09T17:00:04Z</time>
      </trkpt>
      <trkpt lat="41.996284" lon="2.0944374">
        <time>2022-07-09T17:00:05Z</time>
      </trkpt>
      <trkpt lat="41.99623" lon="2.0944746">
        <time>2022-07-09T17:00:06Z</time>
      </trkpt>
      <trkpt lat="41.996178" lon="2.0945132">
        <time>2022-07-09T17:00:07Z</time>
      </trkpt>
      <trkpt lat="41.996124" lon="2.094553">
        <time>2022-07-09T17:00:08Z</time>
      </trkpt>
      <trkpt lat="41.996067" lon="2.0945942">
        <time>2022-07-09T17:00:09Z</time>
      </trkpt>
      <trkpt lat="41.996006" lon="2.0946372">
        <time>2022-07-09T17:00:10Z</time>
      </trkpt>
      <trkpt lat="41.995945" lon="2.0946815">
        <time>2022-07-09T17:00:11Z</time>
      </trkpt>
      <trkpt lat="41.995823" lon="2.0947707">
        <time>2022-07-09T17:00:13Z</time>
      </trkpt>
      <trkpt lat="41.995758" lon="2.0948188">
        <time>2022-07-09T17:00:14Z</time>
      </trkpt>
      <trkpt lat="41.995697" lon="2.0948653">
        <time>2022-07-09T17:00:15Z</time>
      </trkpt>
      <trkpt lat="41.995625" lon="2.0949202">
        <time>2022-07-09T17:00:16Z</time>
      </trkpt>
      <trkpt lat="41.995552" lon="2.0949767">
        <time>2022-07-09T17:00:17Z</time>
      </trkpt>
      <trkpt lat="41.99548" lon="2.0950348">
        <time>2022-07-09T17:00:18Z</time>
      </trkpt>
      <trkpt lat="41.995407" lon="2.0950959">
        <time>2022-07-09T17:00:19Z</time>
      </trkpt>
      <trkpt lat="41.995335" lon="2.0951586">
        <time>2022-07-09T17:00:20Z</time>
      </trkpt>
      <trkpt lat="41.99526" lon="2.095224">
        <time>2022-07-09T17:00:21Z</time>
      </trkpt>
      <trkpt lat="41.995186" lon="2.0952916">
        <time>2022-07-09T17:00:22Z</time>
      </trkpt>
      <trkpt lat="41.99511" lon="2.0953636">
        <time>2022-07-09T17:00:23Z</time>
      </trkpt>
      <trkpt lat="41.995033" lon="2.0954385">
        <time>2022-07-09T17:00:24Z</time>
      </trkpt>
      <trkpt lat="41.994957" lon="2.0955176">
        <time>2022-07-09T17:00:25Z</time>
      </trkpt>
      <trkpt lat="41.994884" lon="2.095593">
        <time>2022-07-09T17:00:26Z</time>
      </trkpt>
      <trkpt lat="41.994812" lon="2.0956726">
        <time>2022-07-09T17:00:27Z</time>
      </trkpt>
      <trkpt lat="41.994736" lon="2.0957632">
        <time>2022-07-09T17:00:28Z</time>
      </trkpt>
      <trkpt lat="41.99466" lon="2.095856">
        <time>2022-07-09T17:00:29Z</time>
      </trkpt>
      <trkpt lat="41.994587" lon="2.0959492">
        <time>2022-07-09T17:00:30Z</time>
      </trkpt>
      <trkpt lat="41.994514" lon="2.0960424">
        <time>2022-07-09T17:00:31Z</time>
      </trkpt>
      <trkpt lat="41.99445" lon="2.0961359">
        <time>2022-07-09T17:00:32Z</time>
      </trkpt>
      <trkpt lat="41.994385" lon="2.096228">
        <time>2022-07-09T17:00:33Z</time>
      </trkpt>
      <trkpt lat="41.994324" lon="2.0963182">
        <time>2022-07-09T17:00:34Z</time>
      </trkpt>
      <trkpt lat="41.994267" lon="2.0964081">
        <time>2022-07-09T17:00:35Z</time>
      </trkpt>
      <trkpt lat="41.99421" lon="2.0964959">
        <time>2022-07-09T17:00:36Z</time>
      </trkpt>
      <trkpt lat="41.994156" lon="2.0965812">
        <time>2022-07-09T17:00:37Z</time>
      </trkpt>
      <trkpt lat="41.994102" lon="2.0966628">
        <time>2022-07-09T17:00:38Z</time>
      </trkpt>
      <trkpt lat="41.99405" lon="2.096734">
        <time>2022-07-09T17:00:39Z</time>
      </trkpt>
      <trkpt lat="41.99399" lon="2.0968018">
        <time>2022-07-09T17:00:40Z</time>
      </trkpt>
      <trkpt lat="41.99393" lon="2.0968542">
        <time>2022-07-09T17:00:41Z</time>
      </trkpt>
      <trkpt lat="41.993862" lon="2.0968935">
        <time>2022-07-09T17:00:42Z</time>
      </trkpt>
      <trkpt lat="41.99379" lon="2.096913">
        <time>2022-07-09T17:00:43Z</time>
      </trkpt>
      <trkpt lat="41.993717" lon="2.0969152">
        <time>2022-07-09T17:00:44Z</time>
      </trkpt>
      <trkpt lat="41.993645" lon="2.0969012">
        <time>2022-07-09T17:00:45Z</time>
      </trkpt>
      <trkpt lat="41.99358" lon="2.0968747">
        <time>2022-07-09T17:00:46Z</time>
      </trkpt>
      <trkpt lat="41.993515" lon="2.0968394">
        <time>2022-07-09T17:00:47Z</time>
      </trkpt>
      <trkpt lat="41.99345" lon="2.096799">
        <time>2022-07-09T17:00:48Z</time>
      </trkpt>
      <trkpt lat="41.99339" lon="2.0967557">
        <time>2022-07-09T17:00:49Z</time>
      </trkpt>
      <trkpt lat="41.99333" lon="2.0967114">
        <time>2022-07-09T17:00:50Z</time>
      </trkpt>
      <trkpt lat="41.993267" lon="2.0966675">
        <time>2022-07-09T17:00:51Z</time>
      </trkpt>
      <trkpt lat="41.993206" lon="2.0966258">
        <time>2022-07-09T17:00:52Z</time>
      </trkpt>
      <trkpt lat="41.99315" lon="2.0965858">
        <time>2022-07-09T17:00:53Z</time>
      </trkpt>
      <trkpt lat="41.993088" lon="2.096548">
        <time>2022-07-09T17:00:54Z</time>
      </trkpt>
      <trkpt lat="41.99303" lon="2.0965126">
        <time>2022-07-09T17:00:55Z</time>
      </trkpt>
      <trkpt lat="41.99297" lon="2.0964792">
        <time>2022-07-09T17:00:56Z</time>
      </trkpt>
      <trkpt lat="41.99291" lon="2.096449">
        <time>2022-07-09T17:00:57Z</time>
      </trkpt>
      <trkpt lat="41.99285" lon="2.0964212">
        <time>2022-07-09T17:00:58Z</time>
      </trkpt>
      <trkpt lat="41.99279" lon="2.0963957">
        <time>2022-07-09T17:00:59Z</time>
      </trkpt>
      <trkpt lat="41.99273" lon="2.0963721">
        <time>2022-07-09T17:01:00Z</time>
      </trkpt>
      <trkpt lat="41.992672" lon="2.096351">
        <time>2022-07-09T17:01:01Z</time>
      </trkpt>
      <trkpt lat="41.99261" lon="2.0963318">
        <time>2022-07-09T17:01:02Z</time>
      </trkpt>
      <trkpt lat="41.99255" lon="2.096315">
        <time>2022-07-09T17:01:03Z</time>
      </trkpt>
      <trkpt lat="41.992493" lon="2.0963006">
        <time>2022-07-09T17:01:04Z</time>
      </trkpt>
      <trkpt lat="41.99243" lon="2.0962863">
        <time>2022-07-09T17:01:05Z</time>
      </trkpt>
      <trkpt lat="41.99237" lon="2.0962725">
        <time>2022-07-09T17:01:06Z</time>
      </trkpt>
      <trkpt lat="41.99231" lon="2.0962582">
        <time>2022-07-09T17:01:07Z</time>
      </trkpt>
      <trkpt lat="41.99225" lon="2.096244">
        <time>2022-07-09T17:01:08Z</time>
      </trkpt>
      <trkpt lat="41.992188" lon="2.0962281">
        <time>2022-07-09T17:01:09Z</time>
      </trkpt>
      <trkpt lat="41.992126" lon="2.0962105">
        <time>2022-07-09T17:01:10Z</time>
      </trkpt>
      <trkpt lat="41.99207" lon="2.0961916">
        <time>2022-07-09T17:01:11Z</time>
      </trkpt>
      <trkpt lat="41.99201" lon="2.09617">
        <time>2022-07-09T17:01:12Z</time>
      </trkpt>
      <trkpt lat="41.99195" lon="2.0961463">
        <time>2022-07-09T17:01:13Z</time>
      </trkpt>
      <trkpt lat="41.99189" lon="2.0961208">
        <time>2022-07-09T17:01:14Z</time>
      </trkpt>
      <trkpt lat="41.991837" lon="2.0960946">
        <time>2022-07-09T17:01:15Z</time>
      </trkpt>
      <trkpt lat="41.99178" lon="2.0960665">
        <time>2022-07-09T17:01:16Z</time>
      </trkpt>
      <trkpt lat="41.991722" lon="2.0960362">
        <time>2022-07-09T17:01:17Z</time>
      </trkpt>
      <trkpt lat="41.99161" lon="2.0959682">
        <time>2022-07-09T17:01:19Z</time>
      </trkpt>
      <trkpt lat="41.991558" lon="2.0959308">
        <time>2022-07-09T17:01:20Z</time>
      </trkpt>
      <trkpt lat="41.991505" lon="2.0958903">
        <time>2022-07-09T17:01:21Z</time>
      </trkpt>
      <trkpt lat="41.99145" lon="2.0958462">
        <time>2022-07-09T17:01:22Z</time>
      </trkpt>
      <trkpt lat="41.991398" lon="2.0957992">
        <time>2022-07-09T17:01:23Z</time>
      </trkpt>
      <trkpt lat="41.991344" lon="2.0957491">
        <time>2022-07-09T17:01:24Z</time>
      </trkpt>
      <trkpt lat="41.99129" lon="2.0956962">
        <time>2022-07-09T17:01:25Z</time>
      </trkpt>
      <trkpt lat="41.991238" lon="2.09564">
        <time>2022-07-09T17:01:26Z</time>
      </trkpt>
      <trkpt lat="41.991184" lon="2.0955815">
        <time>2022-07-09T17:01:27Z</time>
      </trkpt>
      <trkpt lat="41.991135" lon="2.0955212">
        <time>2022-07-09T17:01:28Z</time>
      </trkpt>
      <trkpt lat="41.991077" lon="2.0954602">
        <time>2022-07-09T17:01:29Z</time>
      </trkpt>
      <trkpt lat="41.991024" lon="2.0953991">
        <time>2022-07-09T17:01:30Z</time>
      </trkpt>
      <trkpt lat="41.990967" lon="2.0953393">
        <time>2022-07-09T17:01:31Z</time>
      </trkpt>
      <trkpt lat="41.990902" lon="2.0952764">
        <time>2022-07-09T17:01:32Z</time>
      </trkpt>
      <trkpt lat="41.99084" lon="2.095221">
        <time>2022-07-09T17:01:33Z</time>
      </trkpt>
      <trkpt lat="41.990772" lon="2.0951705">
        <time>2022-07-09T17:01:34Z</time>
      </trkpt>
      <trkpt lat="41.990704" lon="2.0951269">
        <time>2022-07-09T17:01:35Z</time>
      </trkpt>
      <trkpt lat="41.990627" lon="2.0950906">
        <time>2022-07-09T17:01:36Z</time>
      </trkpt>
      <trkpt lat="41.99055" lon="2.0950632">
        <time>2022-07-09T17:01:37Z</time>
      </trkpt>
      <trkpt lat="41.99047" lon="2.0950487">
        <time>2022-07-09T17:01:38Z</time>
      </trkpt>
      <trkpt lat="41.99039" lon="2.095051">
        <time>2022-07-09T17:01:39Z</time>
      </trkpt>
      <trkpt lat="41.990314" lon="2.0950716">
        <time>2022-07-09T17:01:40Z</time>
      </trkpt>
      <trkpt lat="41.99024" lon="2.0951114">
        <time>2022-07-09T17:01:41Z</time>
      </trkpt>
      <trkpt lat="41.99017" lon="2.0951703">
        <time>2022-07-09T17:01:42Z</time>
      </trkpt>
      <trkpt lat="41.99011" lon="2.0952446">
        <time>2022-07-09T17:01:43Z</time>
      </trkpt>
      <trkpt lat="41.99005" lon="2.095332">
        <time>2022-07-09T17:01:44Z</time>
      </trkpt>
      <trkpt lat="41.989998" lon="2.0954273">
        <time>2022-07-09T17:01:45Z</time>
      </trkpt>
      <trkpt lat="41.989944" lon="2.0955253">
        <time>2022-07-09T17:01:46Z</time>
      </trkpt>
      <trkpt lat="41.989895" lon="2.0956175">
        <time>2022-07-09T17:01:47Z</time>
      </trkpt>
      <trkpt lat="41.98984" lon="2.095711">
        <time>2022-07-09T17:01:48Z</time>
      </trkpt>
      <trkpt lat="41.98978" lon="2.0958107">
        <time>2022-07-09T17:01:49Z</time>
      </trkpt>
      <trkpt lat="41.989716" lon="2.095908">
        <time>2022-07-09T17:01:50Z</time>
      </trkpt>
      <trkpt lat="41.989647" lon="2.0960007">
        <time>2022-07-09T17:01:51Z</time>
      </trkpt>
      <trkpt lat="41.989574" lon="2.0960875">
        <time>2022-07-09T17:01:52Z</time>
      </trkpt>
      <trkpt lat="41.989494" lon="2.0961661">
        <time>2022-07-09T17:01:53Z</time>
      </trkpt>
      <trkpt lat="41.989414" lon="2.0962288">
        <time>2022-07-09T17:01:54Z</time>
      </trkpt>
      <trkpt lat="41.98933" lon="2.0962782">
        <time>2022-07-09T17:01:55Z</time>
      </trkpt>
      <trkpt lat="41.989243" lon="2.0963123">
        <time>2022-07-09T17:01:56Z</time>
      </trkpt>
      <trkpt lat="41.989155" lon="2.0963333">
        <time>2022-07-09T17:01:57Z</time>
      </trkpt>
      <trkpt lat="41.989067" lon="2.0963423">
        <time>2022-07-09T17:01:58Z</time>
      </trkpt>
      <trkpt lat="41.98898" lon="2.0963395">
        <time>2022-07-09T17:01:59Z</time>
      </trkpt>
      <trkpt lat="41.98889" lon="2.0963316">
        <time>2022-07-09T17:02:00Z</time>
      </trkpt>
      <trkpt lat="41.988804" lon="2.0963209">
        <time>2022-07-09T17:02:01Z</time>
      </trkpt>
      <trkpt lat="41.988712" lon="2.0963082">
        <time>2022-07-09T17:02:02Z</time>
      </trkpt>
      <trkpt lat="41.988625" lon="2.0962932">
        <time>2022-07-09T17:02:03Z</time>
      </trkpt>
      <trkpt lat="41.988533" lon="2.0962782">
        <time>2022-07-09T17:02:04Z</time>
      </trkpt>
      <trkpt lat="41.98844" lon="2.0962648">
        <time>2022-07-09T17:02:05Z</time>
      </trkpt>
      <trkpt lat="41.98835" lon="2.096251">
        <time>2022-07-09T17:02:06Z</time>
      </trkpt>
      <trkpt lat="41.988262" lon="2.0962346">
        <time>2022-07-09T17:02:07Z</time>
      </trkpt>
      <trkpt lat="41.98818" lon="2.0962162">
        <time>2022-07-09T17:02:08Z</time>
      </trkpt>
      <trkpt lat="41.98809" lon="2.0961976">
        <time>2022-07-09T17:02:09Z</time>
      </trkpt>
      <trkpt lat="41.988007" lon="2.0961773">
        <time>2022-07-09T17:02:10Z</time>
      </trkpt>
      <trkpt lat="41.987923" lon="2.0961573">
        <time>2022-07-09T17:02:11Z</time>
      </trkpt>
      <trkpt lat="41.98784" lon="2.0961375">
        <time>2022-07-09T17:02:12Z</time>
      </trkpt>
      <trkpt lat="41.98775" lon="2.096119">
        <time>2022-07-09T17:02:13Z</time>
      </trkpt>
      <trkpt lat="41.98767" lon="2.0960987">
        <time>2022-07-09T17:02:14Z</time>
      </trkpt>
      <trkpt lat="41.98759" lon="2.096077">
        <time>2022-07-09T17:02:15Z</time>
      </trkpt>
      <trkpt lat="41.98751" lon="2.096056">
        <time>2022-07-09T17:02:16Z</time>
      </trkpt>
      <trkpt lat="41.987434" lon="2.0960357">
        <time>2022-07-09T17:02:17Z</time>
      </trkpt>
      <trkpt lat="41.987354" lon="2.096016">
        <time>2022-07-09T17:02:18Z</time>
      </trkpt>
      <trkpt lat="41.987278" lon="2.0959983">
        <time>2022-07-09T17:02:19Z</time>
      </trkpt>
      <trkpt lat="41.987198" lon="2.095983">
        <time>2022-07-09T17:02:20Z</time>
      </trkpt>
      <trkpt lat="41.987125" lon="2.095969">
        <time>2022-07-09T17:02:21Z</time>
      </trkpt>
      <trkpt lat="41.98705" lon="2.0959594">
        <time>2022-07-09T17:02:22Z</time>
      </trkpt>
      <trkpt lat="41.986977" lon="2.0959554">
        <time>2022-07-09T17:02:23Z</time>
      </trkpt>
      <trkpt lat="41.986904" lon="2.0959642">
        <time>2022-07-09T17:02:24Z</time>
      </trkpt>
      <trkpt lat="41.98684" lon="2.095983">
        <time>2022-07-09T17:02:25Z</time>
      </trkpt>
      <trkpt lat="41.986774" lon="2.0960176">
        <time>2022-07-09T17:02:26Z</time>
      </trkpt>
      <trkpt lat="41.98672" lon="2.0960667">
        <time>2022-07-09T17:02:27Z</time>
      </trkpt>
      <trkpt lat="41.986675" lon="2.0961266">
        <time>2022-07-09T17:02:28Z</time>
      </trkpt>
      <trkpt lat="41.986633" lon="2.096191">
        <time>2022-07-09T17:02:29Z</time>
      </trkpt>
      <trkpt lat="41.986603" lon="2.0962546">
        <time>2022-07-09T17:02:30Z</time>
      </trkpt>
      <trkpt lat="41.98657" lon="2.096319">
        <time>2022-07-09T17:02:31Z</time>
      </trkpt>
      <trkpt lat="41.986538" lon="2.096371">
        <time>2022-07-09T17:02:32Z</time>
      </trkpt>
      <trkpt lat="41.98646" lon="2.0964415">
        <time>2022-07-09T17:02:34Z</time>
      </trkpt>
      <trkpt lat="41.986374" lon="2.0964782">
        <time>2022-07-09T17:02:36Z</time>
      </trkpt>
      <trkpt lat="41.986275" lon="2.0964997">
        <time>2022-07-09T17:02:38Z</time>
      </trkpt>
      <trkpt lat="41.98623" lon="2.0965047">
        <time>2022-07-09T17:02:39Z</time>
      </trkpt>
      <trkpt lat="41.98614" lon="2.09651">
        <time>2022-07-09T17:02:41Z</time>
      </trkpt>
      <trkpt lat="41.986065" lon="2.0965123">
        <time>2022-07-09T17:02:43Z</time>
      </trkpt>
      <trkpt lat="41.98601" lon="2.0965033">
        <time>2022-07-09T17:02:45Z</time>
      </trkpt>
      <trkpt lat="41.985977" lon="2.0964882">
        <time>2022-07-09T17:02:52Z</time>
      </trkpt>
      <trkpt lat="41.985977" lon="2.0964181">
        <time>2022-07-09T17:03:24Z</time>
      </trkpt>
      <trkpt lat="41.98599" lon="2.0963392">
        <time>2022-07-09T17:03:30Z</time>
      </trkpt>
      <trkpt lat="41.985985" lon="2.096267">
        <time>2022-07-09T17:03:34Z</time>
      </trkpt>
      <trkpt lat="41.985962" lon="2.0961893">
        <time>2022-07-09T17:03:38Z</time>
      </trkpt>
      <trkpt lat="41.985928" lon="2.0961146">
        <time>2022-07-09T17:03:42Z</time>
      </trkpt>
      <trkpt lat="41.985912" lon="2.0960493">
        <time>2022-07-09T17:03:45Z</time>
      </trkpt>
      <trkpt lat="41.985897" lon="2.095974">
        <time>2022-07-09T17:03:49Z</time>
      </trkpt>
      <trkpt lat="41.98591" lon="2.095888">
        <time>2022-07-09T17:03:54Z</time>
      </trkpt>
      <trkpt lat="41.98592" lon="2.0958183">
        <time>2022-07-09T17:03:58Z</time>
      </trkpt>
      <trkpt lat="41.98596" lon="2.0957587">
        <time>2022-07-09T17:04:02Z</time>
      </trkpt>
      <trkpt lat="41.98587" lon="2.0956225">
        <time>2022-07-09T17:05:44Z</time>
      </trkpt>
      <trkpt lat="41.985935" lon="2.0956266">
        <time>2022-07-09T17:06:03Z</time>
      </trkpt>
      <trkpt lat="41.985928" lon="2.0959508">
        <time>2022-07-09T17:07:57Z</time>
      </trkpt>
      <trkpt lat="41.9861" lon="2.096085">
        <time>2022-07-09T17:08:13Z</time>
      </trkpt>
      <trkpt lat="41.986107" lon="2.0961978">
        <time>2022-07-09T17:08:17Z</time>
      </trkpt>
      <trkpt lat="41.986115" lon="2.0962706">
        <time>2022-07-09T17:08:19Z</time>
      </trkpt>
      <trkpt lat="41.986134" lon="2.096329">
        <time>2022-07-09T17:08:21Z</time>
      </trkpt>
      <trkpt lat="41.986156" lon="2.096386">
        <time>2022-07-09T17:08:24Z</time>
      </trkpt>
      <trkpt lat="41.986214" lon="2.0964205">
        <time>2022-07-09T17:08:27Z</time>
      </trkpt>
      <trkpt lat="41.986282" lon="2.0964227">
        <time>2022-07-09T17:08:30Z</time>
      </trkpt>
      <trkpt lat="41.986343" lon="2.0963752">
        <time>2022-07-09T17:08:33Z</time>
      </trkpt>
      <trkpt lat="41.986393" lon="2.0962887">
        <time>2022-07-09T17:08:36Z</time>
      </trkpt>
      <trkpt lat="41.986427" lon="2.0962207">
        <time>2022-07-09T17:08:38Z</time>
      </trkpt>
      <trkpt lat="41.986473" lon="2.0961523">
        <time>2022-07-09T17:08:40Z</time>
      </trkpt>
      <trkpt lat="41.986515" lon="2.0960932">
        <time>2022-07-09T17:08:42Z</time>
      </trkpt>
      <trkpt lat="41.98656" lon="2.0960312">
        <time>2022-07-09T17:08:44Z</time>
      </trkpt>
      <trkpt lat="41.986607" lon="2.0959682">
        <time>2022-07-09T17:08:47Z</time>
      </trkpt>
      <trkpt lat="41.986645" lon="2.0959182">
        <time>2022-07-09T17:08:50Z</time>
      </trkpt>
      <trkpt lat="41.986652" lon="2.095838">
        <time>2022-07-09T17:08:53Z</time>
      </trkpt>
      <trkpt lat="41.986626" lon="2.0957494">
        <time>2022-07-09T17:08:56Z</time>
      </trkpt>
      <trkpt lat="41.98659" lon="2.0956936">
        <time>2022-07-09T17:08:58Z</time>
      </trkpt>
      <trkpt lat="41.986553" lon="2.0956447">
        <time>2022-07-09T17:09:00Z</time>
      </trkpt>
      <trkpt lat="41.986515" lon="2.0956028">
        <time>2022-07-09T17:09:02Z</time>
      </trkpt>
      <trkpt lat="41.98647" lon="2.095562">
        <time>2022-07-09T17:09:04Z</time>
      </trkpt>
      <trkpt lat="41.98642" lon="2.0955236">
        <time>2022-07-09T17:09:07Z</time>
      </trkpt>
      <trkpt lat="41.98619" lon="2.0955443">
        <time>2022-07-09T17:09:55Z</time>
      </trkpt>
      <trkpt lat="41.983585" lon="2.0956566">
        <time>2022-07-10T07:29:56Z</time>
      </trkpt>
      <trkpt lat="41.98389" lon="2.0953884">
        <time>2022-07-10T07:29:56Z</time>
      </trkpt>
      <trkpt lat="41.983887" lon="2.0953066">
        <time>2022-07-10T07:29:57Z</time>
      </trkpt>
      <trkpt lat="41.983917" lon="2.095273">
        <time>2022-07-10T07:29:58Z</time>
      </trkpt>
      <trkpt lat="41.983887" lon="2.0952604">
        <time>2022-07-10T07:29:59Z</time>
      </trkpt>
      <trkpt lat="41.98385" lon="2.0952513">
        <time>2022-07-10T07:30:00Z</time>
      </trkpt>
      <trkpt lat="41.98377" lon="2.0952373">
        <time>2022-07-10T07:30:02Z</time>
      </trkpt>
      <trkpt lat="41.98369" lon="2.0951757">
        <time>2022-07-10T07:30:05Z</time>
      </trkpt>
      <trkpt lat="41.983643" lon="2.0951455">
        <time>2022-07-10T07:30:07Z</time>
      </trkpt>
      <trkpt lat="41.983578" lon="2.0951056">
        <time>2022-07-10T07:30:10Z</time>
      </trkpt>
      <trkpt lat="41.983517" lon="2.0950754">
        <time>2022-07-10T07:30:13Z</time>
      </trkpt>
      <trkpt lat="41.983482" lon="2.0950797">
        <time>2022-07-10T07:30:16Z</time>
      </trkpt>
      <trkpt lat="41.983578" lon="2.0951343">
        <time>2022-07-10T07:30:47Z</time>
      </trkpt>
      <trkpt lat="41.983646" lon="2.0951633">
        <time>2022-07-10T07:30:49Z</time>
      </trkpt>
      <trkpt lat="41.983723" lon="2.0951986">
        <time>2022-07-10T07:30:51Z</time>
      </trkpt>
      <trkpt lat="41.9838" lon="2.095234">
        <time>2022-07-10T07:30:53Z</time>
      </trkpt>
      <trkpt lat="41.98388" lon="2.095274">
        <time>2022-07-10T07:30:55Z</time>
      </trkpt>
      <trkpt lat="41.983967" lon="2.0953188">
        <time>2022-07-10T07:30:57Z</time>
      </trkpt>
      <trkpt lat="41.98401" lon="2.0953436">
        <time>2022-07-10T07:30:58Z</time>
      </trkpt>
      <trkpt lat="41.984104" lon="2.0953956">
        <time>2022-07-10T07:31:00Z</time>
      </trkpt>
      <trkpt lat="41.98415" lon="2.0954185">
        <time>2022-07-10T07:31:01Z</time>
      </trkpt>
      <trkpt lat="41.984196" lon="2.0954406">
        <time>2022-07-10T07:31:02Z</time>
      </trkpt>
      <trkpt lat="41.984287" lon="2.0954907">
        <time>2022-07-10T07:31:04Z</time>
      </trkpt>
      <trkpt lat="41.98438" lon="2.095542">
        <time>2022-07-10T07:31:06Z</time>
      </trkpt>
      <trkpt lat="41.984467" lon="2.095595">
        <time>2022-07-10T07:31:08Z</time>
      </trkpt>
      <trkpt lat="41.98455" lon="2.095648">
        <time>2022-07-10T07:31:10Z</time>
      </trkpt>
      <trkpt lat="41.984627" lon="2.0957036">
        <time>2022-07-10T07:31:12Z</time>
      </trkpt>
      <trkpt lat="41.984688" lon="2.0957704">
        <time>2022-07-10T07:31:14Z</time>
      </trkpt>
      <trkpt lat="41.98473" lon="2.095845">
        <time>2022-07-10T07:31:16Z</time>
      </trkpt>
      <trkpt lat="41.98476" lon="2.0959299">
        <time>2022-07-10T07:31:18Z</time>
      </trkpt>
      <trkpt lat="41.984783" lon="2.0960243">
        <time>2022-07-10T07:31:20Z</time>
      </trkpt>
      <trkpt lat="41.984806" lon="2.096123">
        <time>2022-07-10T07:31:22Z</time>
      </trkpt>
      <trkpt lat="41.98483" lon="2.0962262">
        <time>2022-07-10T07:31:24Z</time>
      </trkpt>
      <trkpt lat="41.98485" lon="2.0963364">
        <time>2022-07-10T07:31:26Z</time>
      </trkpt>
      <trkpt lat="41.98487" lon="2.0964499">
        <time>2022-07-10T07:31:28Z</time>
      </trkpt>
      <trkpt lat="41.984894" lon="2.0965679">
        <time>2022-07-10T07:31:30Z</time>
      </trkpt>
      <trkpt lat="41.98492" lon="2.0966914">
        <time>2022-07-10T07:31:32Z</time>
      </trkpt>
      <trkpt lat="41.984936" lon="2.096757">
        <time>2022-07-10T07:31:33Z</time>
      </trkpt>
      <trkpt lat="41.984966" lon="2.096899">
        <time>2022-07-10T07:31:35Z</time>
      </trkpt>
      <trkpt lat="41.98498" lon="2.0969756">
        <time>2022-07-10T07:31:36Z</time>
      </trkpt>
      <trkpt lat="41.985" lon="2.0970569">
        <time>2022-07-10T07:31:37Z</time>
      </trkpt>
      <trkpt lat="41.985016" lon="2.097141">
        <time>2022-07-10T07:31:38Z</time>
      </trkpt>
      <trkpt lat="41.98503" lon="2.0972285">
        <time>2022-07-10T07:31:39Z</time>
      </trkpt>
      <trkpt lat="41.98505" lon="2.097318">
        <time>2022-07-10T07:31:40Z</time>
      </trkpt>
      <trkpt lat="41.985065" lon="2.0974085">
        <time>2022-07-10T07:31:41Z</time>
      </trkpt>
      <trkpt lat="41.98508" lon="2.0974998">
        <time>2022-07-10T07:31:42Z</time>
      </trkpt>
      <trkpt lat="41.985092" lon="2.097591">
        <time>2022-07-10T07:31:43Z</time>
      </trkpt>
      <trkpt lat="41.9851" lon="2.097682">
        <time>2022-07-10T07:31:44Z</time>
      </trkpt>
      <trkpt lat="41.985096" lon="2.0977695">
        <time>2022-07-10T07:31:45Z</time>
      </trkpt>
      <trkpt lat="41.985085" lon="2.0978532">
        <time>2022-07-10T07:31:46Z</time>
      </trkpt>
      <trkpt lat="41.98506" lon="2.0979319">
        <time>2022-07-10T07:31:47Z</time>
      </trkpt>
      <trkpt lat="41.98503" lon="2.0980022">
        <time>2022-07-10T07:31:48Z</time>
      </trkpt>
      <trkpt lat="41.98499" lon="2.0980616">
        <time>2022-07-10T07:31:49Z</time>
      </trkpt>
      <trkpt lat="41.984936" lon="2.0981095">
        <time>2022-07-10T07:31:50Z</time>
      </trkpt>
      <trkpt lat="41.98488" lon="2.0981462">
        <time>2022-07-10T07:31:51Z</time>
      </trkpt>
      <trkpt lat="41.984814" lon="2.0981736">
        <time>2022-07-10T07:31:52Z</time>
      </trkpt>
      <trkpt lat="41.984745" lon="2.0981932">
        <time>2022-07-10T07:31:53Z</time>
      </trkpt>
      <trkpt lat="41.984673" lon="2.0982056">
        <time>2022-07-10T07:31:54Z</time>
      </trkpt>
      <trkpt lat="41.984592" lon="2.0982163">
        <time>2022-07-10T07:31:55Z</time>
      </trkpt>
      <trkpt lat="41.984444" lon="2.0982316">
        <time>2022-07-10T07:31:57Z</time>
      </trkpt>
      <trkpt lat="41.984364" lon="2.0982385">
        <time>2022-07-10T07:31:58Z</time>
      </trkpt>
      <trkpt lat="41.984287" lon="2.0982428">
        <time>2022-07-10T07:31:59Z</time>
      </trkpt>
      <trkpt lat="41.98421" lon="2.098246">
        <time>2022-07-10T07:32:00Z</time>
      </trkpt>
      <trkpt lat="41.98413" lon="2.0982494">
        <time>2022-07-10T07:32:01Z</time>
      </trkpt>
      <trkpt lat="41.98405" lon="2.0982528">
        <time>2022-07-10T07:32:02Z</time>
      </trkpt>
      <trkpt lat="41.983967" lon="2.098256">
        <time>2022-07-10T07:32:03Z</time>
      </trkpt>
      <trkpt lat="41.98388" lon="2.0982587">
        <time>2022-07-10T07:32:04Z</time>
      </trkpt>
      <trkpt lat="41.983795" lon="2.0982616">
        <time>2022-07-10T07:32:05Z</time>
      </trkpt>
      <trkpt lat="41.983707" lon="2.0982652">
        <time>2022-07-10T07:32:06Z</time>
      </trkpt>
      <trkpt lat="41.983627" lon="2.0982687">
        <time>2022-07-10T07:32:07Z</time>
      </trkpt>
      <trkpt lat="41.98355" lon="2.0982711">
        <time>2022-07-10T07:32:08Z</time>
      </trkpt>
      <trkpt lat="41.983463" lon="2.0982728">
        <time>2022-07-10T07:32:09Z</time>
      </trkpt>
      <trkpt lat="41.983383" lon="2.0982726">
        <time>2022-07-10T07:32:10Z</time>
      </trkpt>
      <trkpt lat="41.9833" lon="2.0982697">
        <time>2022-07-10T07:32:11Z</time>
      </trkpt>
      <trkpt lat="41.983227" lon="2.0982637">
        <time>2022-07-10T07:32:12Z</time>
      </trkpt>
      <trkpt lat="41.983154" lon="2.098252">
        <time>2022-07-10T07:32:13Z</time>
      </trkpt>
      <trkpt lat="41.983078" lon="2.098235">
        <time>2022-07-10T07:32:14Z</time>
      </trkpt>
      <trkpt lat="41.983" lon="2.0982113">
        <time>2022-07-10T07:32:15Z</time>
      </trkpt>
      <trkpt lat="41.98293" lon="2.098185">
        <time>2022-07-10T07:32:16Z</time>
      </trkpt>
      <trkpt lat="41.982857" lon="2.0981572">
        <time>2022-07-10T07:32:17Z</time>
      </trkpt>
      <trkpt lat="41.982796" lon="2.0981302">
        <time>2022-07-10T07:32:18Z</time>
      </trkpt>
      <trkpt lat="41.982727" lon="2.0980992">
        <time>2022-07-10T07:32:19Z</time>
      </trkpt>
      <trkpt lat="41.982662" lon="2.0980706">
        <time>2022-07-10T07:32:20Z</time>
      </trkpt>
      <trkpt lat="41.9826" lon="2.0980456">
        <time>2022-07-10T07:32:21Z</time>
      </trkpt>
      <trkpt lat="41.98254" lon="2.0980272">
        <time>2022-07-10T07:32:22Z</time>
      </trkpt>
      <trkpt lat="41.982487" lon="2.0980163">
        <time>2022-07-10T07:32:23Z</time>
      </trkpt>
      <trkpt lat="41.98243" lon="2.0980122">
        <time>2022-07-10T07:32:24Z</time>
      </trkpt>
      <trkpt lat="41.982376" lon="2.0980132">
        <time>2022-07-10T07:32:25Z</time>
      </trkpt>
      <trkpt lat="41.982327" lon="2.098018">
        <time>2022-07-10T07:32:26Z</time>
      </trkpt>
      <trkpt lat="41.982277" lon="2.0980234">
        <time>2022-07-10T07:32:27Z</time>
      </trkpt>
      <trkpt lat="41.98219" lon="2.098039">
        <time>2022-07-10T07:32:29Z</time>
      </trkpt>
      <trkpt lat="41.982105" lon="2.0980556">
        <time>2022-07-10T07:32:31Z</time>
      </trkpt>
      <trkpt lat="41.982033" lon="2.098071">
        <time>2022-07-10T07:32:33Z</time>
      </trkpt>
      <trkpt lat="41.981964" lon="2.098085">
        <time>2022-07-10T07:32:35Z</time>
      </trkpt>
      <trkpt lat="41.9819" lon="2.0980964">
        <time>2022-07-10T07:32:37Z</time>
      </trkpt>
      <trkpt lat="41.981834" lon="2.098108">
        <time>2022-07-10T07:32:39Z</time>
      </trkpt>
      <trkpt lat="41.98177" lon="2.0981188">
        <time>2022-07-10T07:32:41Z</time>
      </trkpt>
      <trkpt lat="41.98171" lon="2.0981297">
        <time>2022-07-10T07:32:43Z</time>
      </trkpt>
      <trkpt lat="41.981644" lon="2.0981421">
        <time>2022-07-10T07:32:45Z</time>
      </trkpt>
      <trkpt lat="41.981586" lon="2.098159">
        <time>2022-07-10T07:32:47Z</time>
      </trkpt>
      <trkpt lat="41.981525" lon="2.0981774">
        <time>2022-07-10T07:32:49Z</time>
      </trkpt>
      <trkpt lat="41.981464" lon="2.0981934">
        <time>2022-07-10T07:32:51Z</time>
      </trkpt>
      <trkpt lat="41.981403" lon="2.0982065">
        <time>2022-07-10T07:32:53Z</time>
      </trkpt>
      <trkpt lat="41.981346" lon="2.0982203">
        <time>2022-07-10T07:32:55Z</time>
      </trkpt>
      <trkpt lat="41.981285" lon="2.0982354">
        <time>2022-07-10T07:32:57Z</time>
      </trkpt>
      <trkpt lat="41.981228" lon="2.0982504">
        <time>2022-07-10T07:32:59Z</time>
      </trkpt>
      <trkpt lat="41.981167" lon="2.0982637">
        <time>2022-07-10T07:33:01Z</time>
      </trkpt>
      <trkpt lat="41.98111" lon="2.0982795">
        <time>2022-07-10T07:33:03Z</time>
      </trkpt>
      <trkpt lat="41.981052" lon="2.0982964">
        <time>2022-07-10T07:33:05Z</time>
      </trkpt>
      <trkpt lat="41.98099" lon="2.0983138">
        <time>2022-07-10T07:33:07Z</time>
      </trkpt>
      <trkpt lat="41.980938" lon="2.098334">
        <time>2022-07-10T07:33:09Z</time>
      </trkpt>
      <trkpt lat="41.980885" lon="2.0983577">
        <time>2022-07-10T07:33:11Z</time>
      </trkpt>
      <trkpt lat="41.98083" lon="2.0983887">
        <time>2022-07-10T07:33:13Z</time>
      </trkpt>
      <trkpt lat="41.980778" lon="2.098421">
        <time>2022-07-10T07:33:15Z</time>
      </trkpt>
      <trkpt lat="41.980732" lon="2.0984507">
        <time>2022-07-10T07:33:17Z</time>
      </trkpt>
      <trkpt lat="41.98069" lon="2.0984833">
        <time>2022-07-10T07:33:19Z</time>
      </trkpt>
      <trkpt lat="41.980633" lon="2.0985434">
        <time>2022-07-10T07:33:22Z</time>
      </trkpt>
      <trkpt lat="41.980595" lon="2.0985901">
        <time>2022-07-10T07:33:24Z</time>
      </trkpt>
      <trkpt lat="41.980545" lon="2.0986621">
        <time>2022-07-10T07:33:27Z</time>
      </trkpt>
      <trkpt lat="41.980495" lon="2.0987344">
        <time>2022-07-10T07:33:30Z</time>
      </trkpt>
      <trkpt lat="41.980457" lon="2.098809">
        <time>2022-07-10T07:33:33Z</time>
      </trkpt>
      <trkpt lat="41.98042" lon="2.0988858">
        <time>2022-07-10T07:33:36Z</time>
      </trkpt>
      <trkpt lat="41.980385" lon="2.0989647">
        <time>2022-07-10T07:33:39Z</time>
      </trkpt>
      <trkpt lat="41.980343" lon="2.099047">
        <time>2022-07-10T07:33:42Z</time>
      </trkpt>
      <trkpt lat="41.98031" lon="2.0991318">
        <time>2022-07-10T07:33:45Z</time>
      </trkpt>
      <trkpt lat="41.980278" lon="2.099214">
        <time>2022-07-10T07:33:48Z</time>
      </trkpt>
      <trkpt lat="41.980244" lon="2.0992954">
        <time>2022-07-10T07:33:51Z</time>
      </trkpt>
      <trkpt lat="41.98021" lon="2.0993705">
        <time>2022-07-10T07:33:54Z</time>
      </trkpt>
      <trkpt lat="41.980175" lon="2.0994513">
        <time>2022-07-10T07:33:57Z</time>
      </trkpt>
      <trkpt lat="41.980137" lon="2.0995321">
        <time>2022-07-10T07:34:00Z</time>
      </trkpt>
      <trkpt lat="41.9801" lon="2.0996118">
        <time>2022-07-10T07:34:03Z</time>
      </trkpt>
      <trkpt lat="41.980064" lon="2.0996907">
        <time>2022-07-10T07:34:06Z</time>
      </trkpt>
      <trkpt lat="41.98003" lon="2.0997713">
        <time>2022-07-10T07:34:09Z</time>
      </trkpt>
      <trkpt lat="41.98" lon="2.099852">
        <time>2022-07-10T07:34:12Z</time>
      </trkpt>
      <trkpt lat="41.97997" lon="2.0999358">
        <time>2022-07-10T07:34:15Z</time>
      </trkpt>
      <trkpt lat="41.979946" lon="2.099989">
        <time>2022-07-10T07:34:17Z</time>
      </trkpt>
      <trkpt lat="41.979904" lon="2.1000683">
        <time>2022-07-10T07:34:20Z</time>
      </trkpt>
      <trkpt lat="41.97987" lon="2.1001487">
        <time>2022-07-10T07:34:23Z</time>
      </trkpt>
      <trkpt lat="41.97983" lon="2.1002316">
        <time>2022-07-10T07:34:26Z</time>
      </trkpt>
      <trkpt lat="41.979794" lon="2.1003177">
        <time>2022-07-10T07:34:29Z</time>
      </trkpt>
      <trkpt lat="41.97977" lon="2.1003766">
        <time>2022-07-10T07:34:31Z</time>
      </trkpt>
      <trkpt lat="41.979733" lon="2.100472">
        <time>2022-07-10T07:34:34Z</time>
      </trkpt>
      <trkpt lat="41.979706" lon="2.1005383">
        <time>2022-07-10T07:34:36Z</time>
      </trkpt>
      <trkpt lat="41.979675" lon="2.1006045">
        <time>2022-07-10T07:34:38Z</time>
      </trkpt>
      <trkpt lat="41.979645" lon="2.1006703">
        <time>2022-07-10T07:34:40Z</time>
      </trkpt>
      <trkpt lat="41.979614" lon="2.1007373">
        <time>2022-07-10T07:34:42Z</time>
      </trkpt>
      <trkpt lat="41.979584" lon="2.1008074">
        <time>2022-07-10T07:34:44Z</time>
      </trkpt>
      <trkpt lat="41.979557" lon="2.1008754">
        <time>2022-07-10T07:34:46Z</time>
      </trkpt>
      <trkpt lat="41.979527" lon="2.1009479">
        <time>2022-07-10T07:34:48Z</time>
      </trkpt>
      <trkpt lat="41.979496" lon="2.101018">
        <time>2022-07-10T07:34:50Z</time>
      </trkpt>
      <trkpt lat="41.979465" lon="2.101088">
        <time>2022-07-10T07:34:52Z</time>
      </trkpt>
      <trkpt lat="41.979435" lon="2.1011596">
        <time>2022-07-10T07:34:54Z</time>
      </trkpt>
      <trkpt lat="41.979404" lon="2.1012323">
        <time>2022-07-10T07:34:56Z</time>
      </trkpt>
      <trkpt lat="41.979374" lon="2.101301">
        <time>2022-07-10T07:34:58Z</time>
      </trkpt>
      <trkpt lat="41.979343" lon="2.1013703">
        <time>2022-07-10T07:35:00Z</time>
      </trkpt>
      <trkpt lat="41.97931" lon="2.1014402">
        <time>2022-07-10T07:35:02Z</time>
      </trkpt>
      <trkpt lat="41.979275" lon="2.101512">
        <time>2022-07-10T07:35:04Z</time>
      </trkpt>
      <trkpt lat="41.979244" lon="2.1015842">
        <time>2022-07-10T07:35:06Z</time>
      </trkpt>
      <trkpt lat="41.979214" lon="2.101656">
        <time>2022-07-10T07:35:08Z</time>
      </trkpt>
      <trkpt lat="41.979183" lon="2.101728">
        <time>2022-07-10T07:35:10Z</time>
      </trkpt>
      <trkpt lat="41.979156" lon="2.1017992">
        <time>2022-07-10T07:35:12Z</time>
      </trkpt>
      <trkpt lat="41.979126" lon="2.1018713">
        <time>2022-07-10T07:35:14Z</time>
      </trkpt>
      <trkpt lat="41.9791" lon="2.1019459">
        <time>2022-07-10T07:35:16Z</time>
      </trkpt>
      <trkpt lat="41.979076" lon="2.1020222">
        <time>2022-07-10T07:35:18Z</time>
      </trkpt>
      <trkpt lat="41.979057" lon="2.1021008">
        <time>2022-07-10T07:35:20Z</time>
      </trkpt>
      <trkpt lat="41.979042" lon="2.1021836">
        <time>2022-07-10T07:35:22Z</time>
      </trkpt>
      <trkpt lat="41.979034" lon="2.1022675">
        <time>2022-07-10T07:35:24Z</time>
      </trkpt>
      <trkpt lat="41.97903" lon="2.1023536">
        <time>2022-07-10T07:35:26Z</time>
      </trkpt>
      <trkpt lat="41.97903" lon="2.1024406">
        <time>2022-07-10T07:35:28Z</time>
      </trkpt>
      <trkpt lat="41.979034" lon="2.1025276">
        <time>2022-07-10T07:35:30Z</time>
      </trkpt>
      <trkpt lat="41.979042" lon="2.1026125">
        <time>2022-07-10T07:35:32Z</time>
      </trkpt>
      <trkpt lat="41.97905" lon="2.1026943">
        <time>2022-07-10T07:35:34Z</time>
      </trkpt>
      <trkpt lat="41.97906" lon="2.1027746">
        <time>2022-07-10T07:35:36Z</time>
      </trkpt>
      <trkpt lat="41.97907" lon="2.1028533">
        <time>2022-07-10T07:35:38Z</time>
      </trkpt>
      <trkpt lat="41.979076" lon="2.1029298">
        <time>2022-07-10T07:35:40Z</time>
      </trkpt>
      <trkpt lat="41.979088" lon="2.103001">
        <time>2022-07-10T07:35:42Z</time>
      </trkpt>
      <trkpt lat="41.979095" lon="2.1030686">
        <time>2022-07-10T07:35:44Z</time>
      </trkpt>
      <trkpt lat="41.979107" lon="2.1031332">
        <time>2022-07-10T07:35:46Z</time>
      </trkpt>
      <trkpt lat="41.979122" lon="2.103227">
        <time>2022-07-10T07:35:49Z</time>
      </trkpt>
      <trkpt lat="41.979134" lon="2.1033173">
        <time>2022-07-10T07:35:52Z</time>
      </trkpt>
      <trkpt lat="41.97914" lon="2.1033776">
        <time>2022-07-10T07:35:54Z</time>
      </trkpt>
      <trkpt lat="41.979156" lon="2.1034698">
        <time>2022-07-10T07:35:57Z</time>
      </trkpt>
      <trkpt lat="41.979164" lon="2.1035337">
        <time>2022-07-10T07:35:59Z</time>
      </trkpt>
      <trkpt lat="41.97918" lon="2.1036296">
        <time>2022-07-10T07:36:02Z</time>
      </trkpt>
      <trkpt lat="41.97919" lon="2.103727">
        <time>2022-07-10T07:36:05Z</time>
      </trkpt>
      <trkpt lat="41.97921" lon="2.1038294">
        <time>2022-07-10T07:36:08Z</time>
      </trkpt>
      <trkpt lat="41.97923" lon="2.1039414">
        <time>2022-07-10T07:36:11Z</time>
      </trkpt>
      <trkpt lat="41.97924" lon="2.1040242">
        <time>2022-07-10T07:36:13Z</time>
      </trkpt>
      <trkpt lat="41.979248" lon="2.104117">
        <time>2022-07-10T07:36:15Z</time>
      </trkpt>
      <trkpt lat="41.979244" lon="2.1042182">
        <time>2022-07-10T07:36:17Z</time>
      </trkpt>
      <trkpt lat="41.979225" lon="2.1043184">
        <time>2022-07-10T07:36:19Z</time>
      </trkpt>
      <trkpt lat="41.97918" lon="2.104405">
        <time>2022-07-10T07:36:21Z</time>
      </trkpt>
      <trkpt lat="41.97912" lon="2.1044745">
        <time>2022-07-10T07:36:23Z</time>
      </trkpt>
      <trkpt lat="41.979046" lon="2.1045284">
        <time>2022-07-10T07:36:25Z</time>
      </trkpt>
      <trkpt lat="41.97897" lon="2.104576">
        <time>2022-07-10T07:36:27Z</time>
      </trkpt>
      <trkpt lat="41.978893" lon="2.1046255">
        <time>2022-07-10T07:36:29Z</time>
      </trkpt>
      <trkpt lat="41.978817" lon="2.1046755">
        <time>2022-07-10T07:36:31Z</time>
      </trkpt>
      <trkpt lat="41.97874" lon="2.1047244">
        <time>2022-07-10T07:36:33Z</time>
      </trkpt>
      <trkpt lat="41.978664" lon="2.104773">
        <time>2022-07-10T07:36:35Z</time>
      </trkpt>
      <trkpt lat="41.97859" lon="2.1048222">
        <time>2022-07-10T07:36:37Z</time>
      </trkpt>
      <trkpt lat="41.978516" lon="2.1048727">
        <time>2022-07-10T07:36:39Z</time>
      </trkpt>
      <trkpt lat="41.97844" lon="2.1049252">
        <time>2022-07-10T07:36:41Z</time>
      </trkpt>
      <trkpt lat="41.978363" lon="2.1049788">
        <time>2022-07-10T07:36:43Z</time>
      </trkpt>
      <trkpt lat="41.978287" lon="2.105035">
        <time>2022-07-10T07:36:45Z</time>
      </trkpt>
      <trkpt lat="41.97821" lon="2.1050913">
        <time>2022-07-10T07:36:47Z</time>
      </trkpt>
      <trkpt lat="41.978138" lon="2.1051466">
        <time>2022-07-10T07:36:49Z</time>
      </trkpt>
      <trkpt lat="41.978065" lon="2.1052017">
        <time>2022-07-10T07:36:51Z</time>
      </trkpt>
      <trkpt lat="41.978" lon="2.1052592">
        <time>2022-07-10T07:36:53Z</time>
      </trkpt>
      <trkpt lat="41.977936" lon="2.1053164">
        <time>2022-07-10T07:36:55Z</time>
      </trkpt>
      <trkpt lat="41.97787" lon="2.1053743">
        <time>2022-07-10T07:36:57Z</time>
      </trkpt>
      <trkpt lat="41.97781" lon="2.1054342">
        <time>2022-07-10T07:36:59Z</time>
      </trkpt>
      <trkpt lat="41.977745" lon="2.1054955">
        <time>2022-07-10T07:37:01Z</time>
      </trkpt>
      <trkpt lat="41.97768" lon="2.105557">
        <time>2022-07-10T07:37:03Z</time>
      </trkpt>
      <trkpt lat="41.97762" lon="2.105619">
        <time>2022-07-10T07:37:05Z</time>
      </trkpt>
      <trkpt lat="41.977562" lon="2.1056821">
        <time>2022-07-10T07:37:07Z</time>
      </trkpt>
      <trkpt lat="41.9775" lon="2.1057498">
        <time>2022-07-10T07:37:09Z</time>
      </trkpt>
      <trkpt lat="41.977436" lon="2.1058204">
        <time>2022-07-10T07:37:11Z</time>
      </trkpt>
      <trkpt lat="41.97738" lon="2.1058898">
        <time>2022-07-10T07:37:13Z</time>
      </trkpt>
      <trkpt lat="41.977287" lon="2.105999">
        <time>2022-07-10T07:37:16Z</time>
      </trkpt>
      <trkpt lat="41.97723" lon="2.1060698">
        <time>2022-07-10T07:37:18Z</time>
      </trkpt>
      <trkpt lat="41.977177" lon="2.106141">
        <time>2022-07-10T07:37:20Z</time>
      </trkpt>
      <trkpt lat="41.977116" lon="2.106218">
        <time>2022-07-10T07:37:22Z</time>
      </trkpt>
      <trkpt lat="41.977062" lon="2.1062918">
        <time>2022-07-10T07:37:24Z</time>
      </trkpt>
      <trkpt lat="41.977005" lon="2.1063697">
        <time>2022-07-10T07:37:26Z</time>
      </trkpt>
      <trkpt lat="41.976955" lon="2.106453">
        <time>2022-07-10T07:37:28Z</time>
      </trkpt>
      <trkpt lat="41.97691" lon="2.1065295">
        <time>2022-07-10T07:37:30Z</time>
      </trkpt>
      <trkpt lat="41.97686" lon="2.1066124">
        <time>2022-07-10T07:37:32Z</time>
      </trkpt>
      <trkpt lat="41.97681" lon="2.10669">
        <time>2022-07-10T07:37:34Z</time>
      </trkpt>
      <trkpt lat="41.97676" lon="2.1067681">
        <time>2022-07-10T07:37:36Z</time>
      </trkpt>
      <trkpt lat="41.97671" lon="2.1068516">
        <time>2022-07-10T07:37:38Z</time>
      </trkpt>
      <trkpt lat="41.976665" lon="2.106933">
        <time>2022-07-10T07:37:40Z</time>
      </trkpt>
      <trkpt lat="41.976624" lon="2.1070132">
        <time>2022-07-10T07:37:42Z</time>
      </trkpt>
      <trkpt lat="41.97658" lon="2.107103">
        <time>2022-07-10T07:37:44Z</time>
      </trkpt>
      <trkpt lat="41.97654" lon="2.107187">
        <time>2022-07-10T07:37:46Z</time>
      </trkpt>
      <trkpt lat="41.9765" lon="2.1072614">
        <time>2022-07-10T07:37:48Z</time>
      </trkpt>
      <trkpt lat="41.976463" lon="2.1073394">
        <time>2022-07-10T07:37:50Z</time>
      </trkpt>
      <trkpt lat="41.976433" lon="2.1074216">
        <time>2022-07-10T07:37:52Z</time>
      </trkpt>
      <trkpt lat="41.976402" lon="2.1075046">
        <time>2022-07-10T07:37:54Z</time>
      </trkpt>
      <trkpt lat="41.976376" lon="2.107586">
        <time>2022-07-10T07:37:56Z</time>
      </trkpt>
      <trkpt lat="41.97635" lon="2.107668">
        <time>2022-07-10T07:37:58Z</time>
      </trkpt>
      <trkpt lat="41.976322" lon="2.1077433">
        <time>2022-07-10T07:38:00Z</time>
      </trkpt>
      <trkpt lat="41.976295" lon="2.10782">
        <time>2022-07-10T07:38:02Z</time>
      </trkpt>
      <trkpt lat="41.97627" lon="2.1078997">
        <time>2022-07-10T07:38:04Z</time>
      </trkpt>
      <trkpt lat="41.976242" lon="2.1079767">
        <time>2022-07-10T07:38:06Z</time>
      </trkpt>
      <trkpt lat="41.976223" lon="2.1080532">
        <time>2022-07-10T07:38:08Z</time>
      </trkpt>
      <trkpt lat="41.9762" lon="2.1081316">
        <time>2022-07-10T07:38:10Z</time>
      </trkpt>
      <trkpt lat="41.976185" lon="2.1082063">
        <time>2022-07-10T07:38:12Z</time>
      </trkpt>
      <trkpt lat="41.976166" lon="2.108283">
        <time>2022-07-10T07:38:14Z</time>
      </trkpt>
      <trkpt lat="41.976147" lon="2.1083634">
        <time>2022-07-10T07:38:16Z</time>
      </trkpt>
      <trkpt lat="41.97613" lon="2.1084418">
        <time>2022-07-10T07:38:18Z</time>
      </trkpt>
      <trkpt lat="41.976116" lon="2.108522">
        <time>2022-07-10T07:38:20Z</time>
      </trkpt>
      <trkpt lat="41.976105" lon="2.1086013">
        <time>2022-07-10T07:38:22Z</time>
      </trkpt>
      <trkpt lat="41.976093" lon="2.1086805">
        <time>2022-07-10T07:38:24Z</time>
      </trkpt>
      <trkpt lat="41.97608" lon="2.1087575">
        <time>2022-07-10T07:38:26Z</time>
      </trkpt>
      <trkpt lat="41.97607" lon="2.108829">
        <time>2022-07-10T07:38:28Z</time>
      </trkpt>
      <trkpt lat="41.976063" lon="2.108902">
        <time>2022-07-10T07:38:30Z</time>
      </trkpt>
      <trkpt lat="41.97605" lon="2.108976">
        <time>2022-07-10T07:38:32Z</time>
      </trkpt>
      <trkpt lat="41.976044" lon="2.1090517">
        <time>2022-07-10T07:38:34Z</time>
      </trkpt>
      <trkpt lat="41.97604" lon="2.10913">
        <time>2022-07-10T07:38:36Z</time>
      </trkpt>
      <trkpt lat="41.97604" lon="2.1092045">
        <time>2022-07-10T07:38:38Z</time>
      </trkpt>
      <trkpt lat="41.976032" lon="2.1092808">
        <time>2022-07-10T07:38:40Z</time>
      </trkpt>
      <trkpt lat="41.976032" lon="2.1093583">
        <time>2022-07-10T07:38:42Z</time>
      </trkpt>
      <trkpt lat="41.97603" lon="2.1094353">
        <time>2022-07-10T07:38:44Z</time>
      </trkpt>
      <trkpt lat="41.976032" lon="2.1095092">
        <time>2022-07-10T07:38:46Z</time>
      </trkpt>
      <trkpt lat="41.976032" lon="2.1095788">
        <time>2022-07-10T07:38:48Z</time>
      </trkpt>
      <trkpt lat="41.976017" lon="2.1096878">
        <time>2022-07-10T07:38:51Z</time>
      </trkpt>
      <trkpt lat="41.976013" lon="2.1097655">
        <time>2022-07-10T07:38:53Z</time>
      </trkpt>
      <trkpt lat="41.976013" lon="2.1098397">
        <time>2022-07-10T07:38:55Z</time>
      </trkpt>
      <trkpt lat="41.97602" lon="2.1099155">
        <time>2022-07-10T07:38:57Z</time>
      </trkpt>
      <trkpt lat="41.976025" lon="2.1099918">
        <time>2022-07-10T07:38:59Z</time>
      </trkpt>
      <trkpt lat="41.976032" lon="2.110062">
        <time>2022-07-10T07:39:01Z</time>
      </trkpt>
      <trkpt lat="41.976036" lon="2.1101346">
        <time>2022-07-10T07:39:03Z</time>
      </trkpt>
      <trkpt lat="41.97604" lon="2.1102076">
        <time>2022-07-10T07:39:05Z</time>
      </trkpt>
      <trkpt lat="41.976048" lon="2.1102803">
        <time>2022-07-10T07:39:07Z</time>
      </trkpt>
      <trkpt lat="41.976055" lon="2.1103532">
        <time>2022-07-10T07:39:09Z</time>
      </trkpt>
      <trkpt lat="41.976063" lon="2.1104264">
        <time>2022-07-10T07:39:11Z</time>
      </trkpt>
      <trkpt lat="41.97607" lon="2.1105008">
        <time>2022-07-10T07:39:13Z</time>
      </trkpt>
      <trkpt lat="41.976078" lon="2.1105738">
        <time>2022-07-10T07:39:15Z</time>
      </trkpt>
      <trkpt lat="41.976093" lon="2.1106474">
        <time>2022-07-10T07:39:17Z</time>
      </trkpt>
      <trkpt lat="41.976105" lon="2.110724">
        <time>2022-07-10T07:39:19Z</time>
      </trkpt>
      <trkpt lat="41.97612" lon="2.110797">
        <time>2022-07-10T07:39:21Z</time>
      </trkpt>
      <trkpt lat="41.976135" lon="2.1108649">
        <time>2022-07-10T07:39:23Z</time>
      </trkpt>
      <trkpt lat="41.976154" lon="2.1109338">
        <time>2022-07-10T07:39:25Z</time>
      </trkpt>
      <trkpt lat="41.97617" lon="2.1110008">
        <time>2022-07-10T07:39:27Z</time>
      </trkpt>
      <trkpt lat="41.976196" lon="2.1111042">
        <time>2022-07-10T07:39:30Z</time>
      </trkpt>
      <trkpt lat="41.976215" lon="2.1111724">
        <time>2022-07-10T07:39:32Z</time>
      </trkpt>
      <trkpt lat="41.976234" lon="2.1112409">
        <time>2022-07-10T07:39:34Z</time>
      </trkpt>
      <trkpt lat="41.97625" lon="2.1113088">
        <time>2022-07-10T07:39:36Z</time>
      </trkpt>
      <trkpt lat="41.97627" lon="2.1113782">
        <time>2022-07-10T07:39:38Z</time>
      </trkpt>
      <trkpt lat="41.976288" lon="2.1114469">
        <time>2022-07-10T07:39:40Z</time>
      </trkpt>
      <trkpt lat="41.976307" lon="2.1115165">
        <time>2022-07-10T07:39:42Z</time>
      </trkpt>
      <trkpt lat="41.976322" lon="2.1115856">
        <time>2022-07-10T07:39:44Z</time>
      </trkpt>
      <trkpt lat="41.97634" lon="2.111653">
        <time>2022-07-10T07:39:46Z</time>
      </trkpt>
      <trkpt lat="41.97636" lon="2.1117232">
        <time>2022-07-10T07:39:48Z</time>
      </trkpt>
      <trkpt lat="41.97638" lon="2.1117945">
        <time>2022-07-10T07:39:50Z</time>
      </trkpt>
      <trkpt lat="41.976395" lon="2.1118665">
        <time>2022-07-10T07:39:52Z</time>
      </trkpt>
      <trkpt lat="41.976418" lon="2.1119351">
        <time>2022-07-10T07:39:54Z</time>
      </trkpt>
      <trkpt lat="41.976437" lon="2.1120079">
        <time>2022-07-10T07:39:56Z</time>
      </trkpt>
      <trkpt lat="41.97645" lon="2.1120808">
        <time>2022-07-10T07:39:58Z</time>
      </trkpt>
      <trkpt lat="41.97647" lon="2.1121526">
        <time>2022-07-10T07:40:00Z</time>
      </trkpt>
      <trkpt lat="41.976486" lon="2.1122234">
        <time>2022-07-10T07:40:02Z</time>
      </trkpt>
      <trkpt lat="41.9765" lon="2.1122952">
        <time>2022-07-10T07:40:04Z</time>
      </trkpt>
      <trkpt lat="41.97652" lon="2.1123667">
        <time>2022-07-10T07:40:06Z</time>
      </trkpt>
      <trkpt lat="41.976536" lon="2.1124384">
        <time>2022-07-10T07:40:08Z</time>
      </trkpt>
      <trkpt lat="41.97655" lon="2.112508">
        <time>2022-07-10T07:40:10Z</time>
      </trkpt>
      <trkpt lat="41.976566" lon="2.1125748">
        <time>2022-07-10T07:40:12Z</time>
      </trkpt>
      <trkpt lat="41.976578" lon="2.112641">
        <time>2022-07-10T07:40:14Z</time>
      </trkpt>
      <trkpt lat="41.976593" lon="2.1127374">
        <time>2022-07-10T07:40:17Z</time>
      </trkpt>
      <trkpt lat="41.976604" lon="2.1128259">
        <time>2022-07-10T07:40:20Z</time>
      </trkpt>
      <trkpt lat="41.976616" lon="2.112911">
        <time>2022-07-10T07:40:23Z</time>
      </trkpt>
      <trkpt lat="41.976624" lon="2.1129937">
        <time>2022-07-10T07:40:26Z</time>
      </trkpt>
      <trkpt lat="41.976627" lon="2.1130798">
        <time>2022-07-10T07:40:29Z</time>
      </trkpt>
      <trkpt lat="41.976635" lon="2.1131654">
        <time>2022-07-10T07:40:32Z</time>
      </trkpt>
      <trkpt lat="41.976643" lon="2.1132548">
        <time>2022-07-10T07:40:35Z</time>
      </trkpt>
      <trkpt lat="41.976643" lon="2.1133451">
        <time>2022-07-10T07:40:38Z</time>
      </trkpt>
      <trkpt lat="41.97664" lon="2.1134326">
        <time>2022-07-10T07:40:41Z</time>
      </trkpt>
      <trkpt lat="41.97664" lon="2.1135187">
        <time>2022-07-10T07:40:44Z</time>
      </trkpt>
      <trkpt lat="41.976635" lon="2.1136067">
        <time>2022-07-10T07:40:47Z</time>
      </trkpt>
      <trkpt lat="41.97663" lon="2.1136947">
        <time>2022-07-10T07:40:50Z</time>
      </trkpt>
      <trkpt lat="41.976624" lon="2.1137815">
        <time>2022-07-10T07:40:53Z</time>
      </trkpt>
      <trkpt lat="41.976612" lon="2.1138697">
        <time>2022-07-10T07:40:56Z</time>
      </trkpt>
      <trkpt lat="41.97661" lon="2.1139565">
        <time>2022-07-10T07:40:59Z</time>
      </trkpt>
      <trkpt lat="41.976597" lon="2.1140437">
        <time>2022-07-10T07:41:02Z</time>
      </trkpt>
      <trkpt lat="41.976585" lon="2.114128">
        <time>2022-07-10T07:41:05Z</time>
      </trkpt>
      <trkpt lat="41.976578" lon="2.114213">
        <time>2022-07-10T07:41:08Z</time>
      </trkpt>
      <trkpt lat="41.97657" lon="2.1142998">
        <time>2022-07-10T07:41:11Z</time>
      </trkpt>
      <trkpt lat="41.976555" lon="2.1143878">
        <time>2022-07-10T07:41:14Z</time>
      </trkpt>
      <trkpt lat="41.976543" lon="2.1144748">
        <time>2022-07-10T07:41:17Z</time>
      </trkpt>
      <trkpt lat="41.97653" lon="2.1145597">
        <time>2022-07-10T07:41:20Z</time>
      </trkpt>
      <trkpt lat="41.976513" lon="2.1146417">
        <time>2022-07-10T07:41:23Z</time>
      </trkpt>
      <trkpt lat="41.976498" lon="2.114725">
        <time>2022-07-10T07:41:26Z</time>
      </trkpt>
      <trkpt lat="41.97648" lon="2.1148067">
        <time>2022-07-10T07:41:29Z</time>
      </trkpt>
      <trkpt lat="41.97646" lon="2.1148887">
        <time>2022-07-10T07:41:32Z</time>
      </trkpt>
      <trkpt lat="41.976437" lon="2.114985">
        <time>2022-07-10T07:41:36Z</time>
      </trkpt>
      <trkpt lat="41.976418" lon="2.1150503">
        <time>2022-07-10T07:41:39Z</time>
      </trkpt>
      <trkpt lat="41.976395" lon="2.1151147">
        <time>2022-07-10T07:41:42Z</time>
      </trkpt>
      <trkpt lat="41.976376" lon="2.115179">
        <time>2022-07-10T07:41:45Z</time>
      </trkpt>
      <trkpt lat="41.976353" lon="2.1152427">
        <time>2022-07-10T07:41:48Z</time>
      </trkpt>
      <trkpt lat="41.97633" lon="2.1153073">
        <time>2022-07-10T07:41:51Z</time>
      </trkpt>
      <trkpt lat="41.976307" lon="2.1153727">
        <time>2022-07-10T07:41:54Z</time>
      </trkpt>
      <trkpt lat="41.976284" lon="2.1154382">
        <time>2022-07-10T07:41:57Z</time>
      </trkpt>
      <trkpt lat="41.97626" lon="2.1155033">
        <time>2022-07-10T07:42:00Z</time>
      </trkpt>
      <trkpt lat="41.97623" lon="2.1155853">
        <time>2022-07-10T07:42:04Z</time>
      </trkpt>
      <trkpt lat="41.976208" lon="2.1156464">
        <time>2022-07-10T07:42:07Z</time>
      </trkpt>
      <trkpt lat="41.976173" lon="2.115725">
        <time>2022-07-10T07:42:11Z</time>
      </trkpt>
      <trkpt lat="41.97615" lon="2.115784">
        <time>2022-07-10T07:42:14Z</time>
      </trkpt>
      <trkpt lat="41.976116" lon="2.1158593">
        <time>2022-07-10T07:42:18Z</time>
      </trkpt>
      <trkpt lat="41.976093" lon="2.1159172">
        <time>2022-07-10T07:42:21Z</time>
      </trkpt>
      <trkpt lat="41.976055" lon="2.1159956">
        <time>2022-07-10T07:42:25Z</time>
      </trkpt>
      <trkpt lat="41.97602" lon="2.1160595">
        <time>2022-07-10T07:42:28Z</time>
      </trkpt>
      <trkpt lat="41.97599" lon="2.116119">
        <time>2022-07-10T07:42:31Z</time>
      </trkpt>
      <trkpt lat="41.97596" lon="2.1161754">
        <time>2022-07-10T07:42:34Z</time>
      </trkpt>
      <trkpt lat="41.975914" lon="2.1162484">
        <time>2022-07-10T07:42:38Z</time>
      </trkpt>
      <trkpt lat="41.97587" lon="2.116317">
        <time>2022-07-10T07:42:42Z</time>
      </trkpt>
      <trkpt lat="41.975826" lon="2.116369">
        <time>2022-07-10T07:42:45Z</time>
      </trkpt>
      <trkpt lat="41.97579" lon="2.1164227">
        <time>2022-07-10T07:42:48Z</time>
      </trkpt>
      <trkpt lat="41.97575" lon="2.1164732">
        <time>2022-07-10T07:42:51Z</time>
      </trkpt>
      <trkpt lat="41.97571" lon="2.116523">
        <time>2022-07-10T07:42:54Z</time>
      </trkpt>
      <trkpt lat="41.97567" lon="2.116571">
        <time>2022-07-10T07:42:57Z</time>
      </trkpt>
      <trkpt lat="41.975624" lon="2.1166198">
        <time>2022-07-10T07:43:00Z</time>
      </trkpt>
      <trkpt lat="41.975586" lon="2.1166673">
        <time>2022-07-10T07:43:03Z</time>
      </trkpt>
      <trkpt lat="41.975533" lon="2.1167274">
        <time>2022-07-10T07:43:07Z</time>
      </trkpt>
      <trkpt lat="41.97549" lon="2.1167738">
        <time>2022-07-10T07:43:10Z</time>
      </trkpt>
      <trkpt lat="41.975452" lon="2.1168196">
        <time>2022-07-10T07:43:13Z</time>
      </trkpt>
      <trkpt lat="41.975414" lon="2.116863">
        <time>2022-07-10T07:43:16Z</time>
      </trkpt>
      <trkpt lat="41.97537" lon="2.1169026">
        <time>2022-07-10T07:43:19Z</time>
      </trkpt>
      <trkpt lat="41.97531" lon="2.116953">
        <time>2022-07-10T07:43:23Z</time>
      </trkpt>
      <trkpt lat="41.97527" lon="2.116992">
        <time>2022-07-10T07:43:26Z</time>
      </trkpt>
      <trkpt lat="41.975227" lon="2.1170347">
        <time>2022-07-10T07:43:29Z</time>
      </trkpt>
      <trkpt lat="41.97518" lon="2.1170745">
        <time>2022-07-10T07:43:32Z</time>
      </trkpt>
      <trkpt lat="41.975136" lon="2.1171126">
        <time>2022-07-10T07:43:35Z</time>
      </trkpt>
      <trkpt lat="41.97509" lon="2.117149">
        <time>2022-07-10T07:43:38Z</time>
      </trkpt>
      <trkpt lat="41.97503" lon="2.1171951">
        <time>2022-07-10T07:43:42Z</time>
      </trkpt>
      <trkpt lat="41.974983" lon="2.1172245">
        <time>2022-07-10T07:43:45Z</time>
      </trkpt>
      <trkpt lat="41.974937" lon="2.1172543">
        <time>2022-07-10T07:43:48Z</time>
      </trkpt>
      <trkpt lat="41.97488" lon="2.1172936">
        <time>2022-07-10T07:43:52Z</time>
      </trkpt>
      <trkpt lat="41.97483" lon="2.1173255">
        <time>2022-07-10T07:43:55Z</time>
      </trkpt>
      <trkpt lat="41.974777" lon="2.1173613">
        <time>2022-07-10T07:43:58Z</time>
      </trkpt>
      <trkpt lat="41.974728" lon="2.1173933">
        <time>2022-07-10T07:44:01Z</time>
      </trkpt>
      <trkpt lat="41.974678" lon="2.1174219">
        <time>2022-07-10T07:44:04Z</time>
      </trkpt>
      <trkpt lat="41.974632" lon="2.1174514">
        <time>2022-07-10T07:44:07Z</time>
      </trkpt>
      <trkpt lat="41.974586" lon="2.1174786">
        <time>2022-07-10T07:44:10Z</time>
      </trkpt>
      <trkpt lat="41.974533" lon="2.117505">
        <time>2022-07-10T07:44:13Z</time>
      </trkpt>
      <trkpt lat="41.974483" lon="2.1175332">
        <time>2022-07-10T07:44:16Z</time>
      </trkpt>
      <trkpt lat="41.974434" lon="2.1175635">
        <time>2022-07-10T07:44:19Z</time>
      </trkpt>
      <trkpt lat="41.97439" lon="2.1175945">
        <time>2022-07-10T07:44:22Z</time>
      </trkpt>
      <trkpt lat="41.974323" lon="2.117637">
        <time>2022-07-10T07:44:26Z</time>
      </trkpt>
      <trkpt lat="41.974277" lon="2.1176686">
        <time>2022-07-10T07:44:29Z</time>
      </trkpt>
      <trkpt lat="41.974228" lon="2.1177006">
        <time>2022-07-10T07:44:32Z</time>
      </trkpt>
      <trkpt lat="41.974182" lon="2.1177332">
        <time>2022-07-10T07:44:35Z</time>
      </trkpt>
      <trkpt lat="41.974133" lon="2.1177669">
        <time>2022-07-10T07:44:38Z</time>
      </trkpt>
      <trkpt lat="41.974087" lon="2.1178029">
        <time>2022-07-10T07:44:41Z</time>
      </trkpt>
      <trkpt lat="41.97404" lon="2.1178365">
        <time>2022-07-10T07:44:44Z</time>
      </trkpt>
      <trkpt lat="41.974" lon="2.1178708">
        <time>2022-07-10T07:44:47Z</time>
      </trkpt>
      <trkpt lat="41.973938" lon="2.1179185">
        <time>2022-07-10T07:44:51Z</time>
      </trkpt>
      <trkpt lat="41.9739" lon="2.1179495">
        <time>2022-07-10T07:44:54Z</time>
      </trkpt>
      <trkpt lat="41.973846" lon="2.1179914">
        <time>2022-07-10T07:44:58Z</time>
      </trkpt>
      <trkpt lat="41.973804" lon="2.1180315">
        <time>2022-07-10T07:45:01Z</time>
      </trkpt>
      <trkpt lat="41.97376" lon="2.1180902">
        <time>2022-07-10T07:45:05Z</time>
      </trkpt>
      <trkpt lat="41.973713" lon="2.1181436">
        <time>2022-07-10T07:45:09Z</time>
      </trkpt>
      <trkpt lat="41.97366" lon="2.1181984">
        <time>2022-07-10T07:45:13Z</time>
      </trkpt>
      <trkpt lat="41.973618" lon="2.118257">
        <time>2022-07-10T07:45:17Z</time>
      </trkpt>
      <trkpt lat="41.97358" lon="2.1183202">
        <time>2022-07-10T07:45:21Z</time>
      </trkpt>
      <trkpt lat="41.973534" lon="2.1183817">
        <time>2022-07-10T07:45:25Z</time>
      </trkpt>
      <trkpt lat="41.973484" lon="2.1184387">
        <time>2022-07-10T07:45:29Z</time>
      </trkpt>
      <trkpt lat="41.973446" lon="2.1184886">
        <time>2022-07-10T07:45:32Z</time>
      </trkpt>
      <trkpt lat="41.973404" lon="2.1185472">
        <time>2022-07-10T07:45:36Z</time>
      </trkpt>
      <trkpt lat="41.97336" lon="2.118613">
        <time>2022-07-10T07:45:40Z</time>
      </trkpt>
      <trkpt lat="41.973316" lon="2.1186833">
        <time>2022-07-10T07:45:44Z</time>
      </trkpt>
      <trkpt lat="41.97329" lon="2.1187365">
        <time>2022-07-10T07:45:47Z</time>
      </trkpt>
      <trkpt lat="41.973248" lon="2.1188102">
        <time>2022-07-10T07:45:51Z</time>
      </trkpt>
      <trkpt lat="41.97322" lon="2.1188617">
        <time>2022-07-10T07:45:54Z</time>
      </trkpt>
      <trkpt lat="41.973186" lon="2.1189334">
        <time>2022-07-10T07:45:58Z</time>
      </trkpt>
      <trkpt lat="41.973152" lon="2.1190073">
        <time>2022-07-10T07:46:02Z</time>
      </trkpt>
      <trkpt lat="41.973118" lon="2.119081">
        <time>2022-07-10T07:46:06Z</time>
      </trkpt>
      <trkpt lat="41.973095" lon="2.1191602">
        <time>2022-07-10T07:46:10Z</time>
      </trkpt>
      <trkpt lat="41.97307" lon="2.1192415">
        <time>2022-07-10T07:46:14Z</time>
      </trkpt>
      <trkpt lat="41.973053" lon="2.1193044">
        <time>2022-07-10T07:46:17Z</time>
      </trkpt>
      <trkpt lat="41.973034" lon="2.119373">
        <time>2022-07-10T07:46:20Z</time>
      </trkpt>
      <trkpt lat="41.973022" lon="2.1194434">
        <time>2022-07-10T07:46:23Z</time>
      </trkpt>
      <trkpt lat="41.973015" lon="2.1195307">
        <time>2022-07-10T07:46:27Z</time>
      </trkpt>
      <trkpt lat="41.972992" lon="2.1196148">
        <time>2022-07-10T07:46:31Z</time>
      </trkpt>
      <trkpt lat="41.97298" lon="2.1196837">
        <time>2022-07-10T07:46:34Z</time>
      </trkpt>
      <trkpt lat="41.972977" lon="2.119749">
        <time>2022-07-10T07:46:37Z</time>
      </trkpt>
      <trkpt lat="41.972977" lon="2.119834">
        <time>2022-07-10T07:46:41Z</time>
      </trkpt>
      <trkpt lat="41.97297" lon="2.1199243">
        <time>2022-07-10T07:46:45Z</time>
      </trkpt>
      <trkpt lat="41.972954" lon="2.119988">
        <time>2022-07-10T07:46:48Z</time>
      </trkpt>
      <trkpt lat="41.97294" lon="2.1200483">
        <time>2022-07-10T07:46:51Z</time>
      </trkpt>
      <trkpt lat="41.97292" lon="2.1201293">
        <time>2022-07-10T07:46:55Z</time>
      </trkpt>
      <trkpt lat="41.972904" lon="2.120191">
        <time>2022-07-10T07:46:58Z</time>
      </trkpt>
      <trkpt lat="41.97289" lon="2.1202736">
        <time>2022-07-10T07:47:02Z</time>
      </trkpt>
      <trkpt lat="41.972878" lon="2.120362">
        <time>2022-07-10T07:47:06Z</time>
      </trkpt>
      <trkpt lat="41.972866" lon="2.1204283">
        <time>2022-07-10T07:47:09Z</time>
      </trkpt>
      <trkpt lat="41.972855" lon="2.1205103">
        <time>2022-07-10T07:47:13Z</time>
      </trkpt>
      <trkpt lat="41.972847" lon="2.120595">
        <time>2022-07-10T07:47:17Z</time>
      </trkpt>
      <trkpt lat="41.97284" lon="2.1206772">
        <time>2022-07-10T07:47:21Z</time>
      </trkpt>
      <trkpt lat="41.972828" lon="2.120759">
        <time>2022-07-10T07:47:25Z</time>
      </trkpt>
      <trkpt lat="41.972816" lon="2.1208427">
        <time>2022-07-10T07:47:29Z</time>
      </trkpt>
      <trkpt lat="41.97281" lon="2.1209192">
        <time>2022-07-10T07:47:33Z</time>
      </trkpt>
      <trkpt lat="41.9728" lon="2.1210008">
        <time>2022-07-10T07:47:37Z</time>
      </trkpt>
      <trkpt lat="41.97279" lon="2.1210816">
        <time>2022-07-10T07:47:41Z</time>
      </trkpt>
      <trkpt lat="41.97278" lon="2.121166">
        <time>2022-07-10T07:47:45Z</time>
      </trkpt>
      <trkpt lat="41.972763" lon="2.121249">
        <time>2022-07-10T07:47:49Z</time>
      </trkpt>
      <trkpt lat="41.972763" lon="2.1213324">
        <time>2022-07-10T07:47:53Z</time>
      </trkpt>
      <trkpt lat="41.972763" lon="2.121419">
        <time>2022-07-10T07:47:57Z</time>
      </trkpt>
      <trkpt lat="41.97276" lon="2.1215057">
        <time>2022-07-10T07:48:01Z</time>
      </trkpt>
      <trkpt lat="41.972767" lon="2.121595">
        <time>2022-07-10T07:48:05Z</time>
      </trkpt>
      <trkpt lat="41.972767" lon="2.121662">
        <time>2022-07-10T07:48:08Z</time>
      </trkpt>
      <trkpt lat="41.972744" lon="2.121748">
        <time>2022-07-10T07:48:12Z</time>
      </trkpt>
      <trkpt lat="41.972725" lon="2.1218152">
        <time>2022-07-10T07:48:15Z</time>
      </trkpt>
      <trkpt lat="41.97271" lon="2.1218753">
        <time>2022-07-10T07:48:18Z</time>
      </trkpt>
      <trkpt lat="41.97269" lon="2.1219633">
        <time>2022-07-10T07:48:22Z</time>
      </trkpt>
      <trkpt lat="41.97268" lon="2.1220284">
        <time>2022-07-10T07:48:25Z</time>
      </trkpt>
      <trkpt lat="41.972668" lon="2.1221123">
        <time>2022-07-10T07:48:29Z</time>
      </trkpt>
      <trkpt lat="41.972652" lon="2.1221793">
        <time>2022-07-10T07:48:32Z</time>
      </trkpt>
      <trkpt lat="41.97264" lon="2.1222682">
        <time>2022-07-10T07:48:36Z</time>
      </trkpt>
      <trkpt lat="41.97263" lon="2.1223347">
        <time>2022-07-10T07:48:39Z</time>
      </trkpt>
      <trkpt lat="41.97261" lon="2.1224134">
        <time>2022-07-10T07:48:43Z</time>
      </trkpt>
      <trkpt lat="41.972584" lon="2.1224914">
        <time>2022-07-10T07:48:47Z</time>
      </trkpt>
      <trkpt lat="41.972572" lon="2.1225739">
        <time>2022-07-10T07:48:51Z</time>
      </trkpt>
      <trkpt lat="41.972553" lon="2.1226547">
        <time>2022-07-10T07:48:55Z</time>
      </trkpt>
      <trkpt lat="41.97254" lon="2.1227353">
        <time>2022-07-10T07:48:59Z</time>
      </trkpt>
      <trkpt lat="41.97253" lon="2.1228147">
        <time>2022-07-10T07:49:03Z</time>
      </trkpt>
      <trkpt lat="41.972523" lon="2.1228776">
        <time>2022-07-10T07:49:06Z</time>
      </trkpt>
      <trkpt lat="41.97251" lon="2.122958">
        <time>2022-07-10T07:49:10Z</time>
      </trkpt>
      <trkpt lat="41.972504" lon="2.123019">
        <time>2022-07-10T07:49:13Z</time>
      </trkpt>
      <trkpt lat="41.972507" lon="2.1231039">
        <time>2022-07-10T07:49:17Z</time>
      </trkpt>
      <trkpt lat="41.972504" lon="2.1231918">
        <time>2022-07-10T07:49:21Z</time>
      </trkpt>
      <trkpt lat="41.972492" lon="2.1232753">
        <time>2022-07-10T07:49:25Z</time>
      </trkpt>
      <trkpt lat="41.972485" lon="2.123359">
        <time>2022-07-10T07:49:29Z</time>
      </trkpt>
      <trkpt lat="41.972477" lon="2.123443">
        <time>2022-07-10T07:49:33Z</time>
      </trkpt>
      <trkpt lat="41.972477" lon="2.1235313">
        <time>2022-07-10T07:49:37Z</time>
      </trkpt>
      <trkpt lat="41.97248" lon="2.1236167">
        <time>2022-07-10T07:49:41Z</time>
      </trkpt>
      <trkpt lat="41.97248" lon="2.123682">
        <time>2022-07-10T07:49:44Z</time>
      </trkpt>
      <trkpt lat="41.972477" lon="2.1237671">
        <time>2022-07-10T07:49:48Z</time>
      </trkpt>
      <trkpt lat="41.97246" lon="2.1238573">
        <time>2022-07-10T07:49:52Z</time>
      </trkpt>
      <trkpt lat="41.972446" lon="2.1239219">
        <time>2022-07-10T07:49:55Z</time>
      </trkpt>
      <trkpt lat="41.97243" lon="2.124008">
        <time>2022-07-10T07:49:59Z</time>
      </trkpt>
      <trkpt lat="41.972424" lon="2.1240742">
        <time>2022-07-10T07:50:02Z</time>
      </trkpt>
      <trkpt lat="41.972416" lon="2.1241562">
        <time>2022-07-10T07:50:06Z</time>
      </trkpt>
      <trkpt lat="41.972404" lon="2.1242418">
        <time>2022-07-10T07:50:10Z</time>
      </trkpt>
      <trkpt lat="41.972385" lon="2.1243255">
        <time>2022-07-10T07:50:14Z</time>
      </trkpt>
      <trkpt lat="41.972374" lon="2.1244073">
        <time>2022-07-10T07:50:18Z</time>
      </trkpt>
      <trkpt lat="41.972366" lon="2.1244931">
        <time>2022-07-10T07:50:22Z</time>
      </trkpt>
      <trkpt lat="41.97236" lon="2.1245565">
        <time>2022-07-10T07:50:25Z</time>
      </trkpt>
      <trkpt lat="41.972343" lon="2.1246412">
        <time>2022-07-10T07:50:29Z</time>
      </trkpt>
      <trkpt lat="41.972332" lon="2.1247275">
        <time>2022-07-10T07:50:33Z</time>
      </trkpt>
      <trkpt lat="41.97232" lon="2.124812">
        <time>2022-07-10T07:50:37Z</time>
      </trkpt>
      <trkpt lat="41.972313" lon="2.124899">
        <time>2022-07-10T07:50:41Z</time>
      </trkpt>
      <trkpt lat="41.972305" lon="2.1249645">
        <time>2022-07-10T07:50:44Z</time>
      </trkpt>
      <trkpt lat="41.972298" lon="2.125053">
        <time>2022-07-10T07:50:48Z</time>
      </trkpt>
      <trkpt lat="41.972286" lon="2.1251411">
        <time>2022-07-10T07:50:52Z</time>
      </trkpt>
      <trkpt lat="41.97228" lon="2.1252062">
        <time>2022-07-10T07:50:55Z</time>
      </trkpt>
      <trkpt lat="41.972267" lon="2.1252937">
        <time>2022-07-10T07:50:59Z</time>
      </trkpt>
      <trkpt lat="41.972256" lon="2.1253595">
        <time>2022-07-10T07:51:02Z</time>
      </trkpt>
      <trkpt lat="41.97224" lon="2.1254444">
        <time>2022-07-10T07:51:06Z</time>
      </trkpt>
      <trkpt lat="41.972233" lon="2.1255121">
        <time>2022-07-10T07:51:09Z</time>
      </trkpt>
      <trkpt lat="41.97222" lon="2.1256018">
        <time>2022-07-10T07:51:13Z</time>
      </trkpt>
      <trkpt lat="41.972214" lon="2.1256688">
        <time>2022-07-10T07:51:16Z</time>
      </trkpt>
      <trkpt lat="41.972206" lon="2.1257398">
        <time>2022-07-10T07:51:19Z</time>
      </trkpt>
      <trkpt lat="41.9722" lon="2.1258125">
        <time>2022-07-10T07:51:22Z</time>
      </trkpt>
      <trkpt lat="41.972187" lon="2.125882">
        <time>2022-07-10T07:51:25Z</time>
      </trkpt>
      <trkpt lat="41.97217" lon="2.1259508">
        <time>2022-07-10T07:51:28Z</time>
      </trkpt>
      <trkpt lat="41.97216" lon="2.1260247">
        <time>2022-07-10T07:51:31Z</time>
      </trkpt>
      <trkpt lat="41.97214" lon="2.1260989">
        <time>2022-07-10T07:51:34Z</time>
      </trkpt>
      <trkpt lat="41.972126" lon="2.1261742">
        <time>2022-07-10T07:51:37Z</time>
      </trkpt>
      <trkpt lat="41.972107" lon="2.1262517">
        <time>2022-07-10T07:51:40Z</time>
      </trkpt>
      <trkpt lat="41.97209" lon="2.1263254">
        <time>2022-07-10T07:51:43Z</time>
      </trkpt>
      <trkpt lat="41.972073" lon="2.126403">
        <time>2022-07-10T07:51:46Z</time>
      </trkpt>
      <trkpt lat="41.97205" lon="2.126485">
        <time>2022-07-10T07:51:49Z</time>
      </trkpt>
      <trkpt lat="41.972027" lon="2.126567">
        <time>2022-07-10T07:51:52Z</time>
      </trkpt>
      <trkpt lat="41.972004" lon="2.1266491">
        <time>2022-07-10T07:51:55Z</time>
      </trkpt>
      <trkpt lat="41.971977" lon="2.1267302">
        <time>2022-07-10T07:51:58Z</time>
      </trkpt>
      <trkpt lat="41.97195" lon="2.12681">
        <time>2022-07-10T07:52:01Z</time>
      </trkpt>
      <trkpt lat="41.971916" lon="2.1268878">
        <time>2022-07-10T07:52:04Z</time>
      </trkpt>
      <trkpt lat="41.971878" lon="2.126969">
        <time>2022-07-10T07:52:07Z</time>
      </trkpt>
      <trkpt lat="41.971836" lon="2.1270504">
        <time>2022-07-10T07:52:10Z</time>
      </trkpt>
      <trkpt lat="41.97179" lon="2.12713">
        <time>2022-07-10T07:52:13Z</time>
      </trkpt>
      <trkpt lat="41.97174" lon="2.1272118">
        <time>2022-07-10T07:52:16Z</time>
      </trkpt>
      <trkpt lat="41.971706" lon="2.1272633">
        <time>2022-07-10T07:52:18Z</time>
      </trkpt>
      <trkpt lat="41.971672" lon="2.1273115">
        <time>2022-07-10T07:52:20Z</time>
      </trkpt>
      <trkpt lat="41.97162" lon="2.1273818">
        <time>2022-07-10T07:52:23Z</time>
      </trkpt>
      <trkpt lat="41.971584" lon="2.127427">
        <time>2022-07-10T07:52:25Z</time>
      </trkpt>
      <trkpt lat="41.971523" lon="2.1274948">
        <time>2022-07-10T07:52:28Z</time>
      </trkpt>
      <trkpt lat="41.97149" lon="2.1275403">
        <time>2022-07-10T07:52:30Z</time>
      </trkpt>
      <trkpt lat="41.97143" lon="2.1276038">
        <time>2022-07-10T07:52:33Z</time>
      </trkpt>
      <trkpt lat="41.971375" lon="2.1276598">
        <time>2022-07-10T07:52:36Z</time>
      </trkpt>
      <trkpt lat="41.971317" lon="2.1277113">
        <time>2022-07-10T07:52:39Z</time>
      </trkpt>
      <trkpt lat="41.97126" lon="2.1277604">
        <time>2022-07-10T07:52:42Z</time>
      </trkpt>
      <trkpt lat="41.97122" lon="2.1277943">
        <time>2022-07-10T07:52:44Z</time>
      </trkpt>
      <trkpt lat="41.971153" lon="2.1278427">
        <time>2022-07-10T07:52:47Z</time>
      </trkpt>
      <trkpt lat="41.97109" lon="2.1278892">
        <time>2022-07-10T07:52:50Z</time>
      </trkpt>
      <trkpt lat="41.97102" lon="2.1279366">
        <time>2022-07-10T07:52:53Z</time>
      </trkpt>
      <trkpt lat="41.970974" lon="2.127968">
        <time>2022-07-10T07:52:55Z</time>
      </trkpt>
      <trkpt lat="41.97091" lon="2.1280153">
        <time>2022-07-10T07:52:58Z</time>
      </trkpt>
      <trkpt lat="41.970867" lon="2.1280434">
        <time>2022-07-10T07:53:00Z</time>
      </trkpt>
      <trkpt lat="41.970802" lon="2.1280844">
        <time>2022-07-10T07:53:03Z</time>
      </trkpt>
      <trkpt lat="41.970737" lon="2.1281245">
        <time>2022-07-10T07:53:06Z</time>
      </trkpt>
      <trkpt lat="41.970695" lon="2.128151">
        <time>2022-07-10T07:53:08Z</time>
      </trkpt>
      <trkpt lat="41.97063" lon="2.1281917">
        <time>2022-07-10T07:53:11Z</time>
      </trkpt>
      <trkpt lat="41.970566" lon="2.1282322">
        <time>2022-07-10T07:53:14Z</time>
      </trkpt>
      <trkpt lat="41.97052" lon="2.1282616">
        <time>2022-07-10T07:53:16Z</time>
      </trkpt>
      <trkpt lat="41.97046" lon="2.128303">
        <time>2022-07-10T07:53:19Z</time>
      </trkpt>
      <trkpt lat="41.970398" lon="2.12835">
        <time>2022-07-10T07:53:22Z</time>
      </trkpt>
      <trkpt lat="41.97036" lon="2.1283793">
        <time>2022-07-10T07:53:24Z</time>
      </trkpt>
      <trkpt lat="41.970287" lon="2.1284366">
        <time>2022-07-10T07:53:28Z</time>
      </trkpt>
      <trkpt lat="41.970238" lon="2.1284804">
        <time>2022-07-10T07:53:31Z</time>
      </trkpt>
      <trkpt lat="41.970192" lon="2.1285267">
        <time>2022-07-10T07:53:34Z</time>
      </trkpt>
      <trkpt lat="41.970142" lon="2.1285794">
        <time>2022-07-10T07:53:37Z</time>
      </trkpt>
      <trkpt lat="41.970097" lon="2.1286304">
        <time>2022-07-10T07:53:40Z</time>
      </trkpt>
      <trkpt lat="41.97006" lon="2.128682">
        <time>2022-07-10T07:53:43Z</time>
      </trkpt>
      <trkpt lat="41.970016" lon="2.1287386">
        <time>2022-07-10T07:53:46Z</time>
      </trkpt>
      <trkpt lat="41.96998" lon="2.128797">
        <time>2022-07-10T07:53:49Z</time>
      </trkpt>
      <trkpt lat="41.969944" lon="2.1288526">
        <time>2022-07-10T07:53:52Z</time>
      </trkpt>
      <trkpt lat="41.96991" lon="2.1289122">
        <time>2022-07-10T07:53:55Z</time>
      </trkpt>
      <trkpt lat="41.96988" lon="2.1289682">
        <time>2022-07-10T07:53:58Z</time>
      </trkpt>
      <trkpt lat="41.969845" lon="2.1290417">
        <time>2022-07-10T07:54:02Z</time>
      </trkpt>
      <trkpt lat="41.969814" lon="2.1291177">
        <time>2022-07-10T07:54:06Z</time>
      </trkpt>
      <trkpt lat="41.969788" lon="2.129181">
        <time>2022-07-10T07:54:09Z</time>
      </trkpt>
      <trkpt lat="41.969757" lon="2.129245">
        <time>2022-07-10T07:54:12Z</time>
      </trkpt>
      <trkpt lat="41.969734" lon="2.1293092">
        <time>2022-07-10T07:54:15Z</time>
      </trkpt>
      <trkpt lat="41.96971" lon="2.1293736">
        <time>2022-07-10T07:54:18Z</time>
      </trkpt>
      <trkpt lat="41.96969" lon="2.1294389">
        <time>2022-07-10T07:54:21Z</time>
      </trkpt>
      <trkpt lat="41.969666" lon="2.129504">
        <time>2022-07-10T07:54:24Z</time>
      </trkpt>
      <trkpt lat="41.969646" lon="2.1295702">
        <time>2022-07-10T07:54:27Z</time>
      </trkpt>
      <trkpt lat="41.96963" lon="2.1296399">
        <time>2022-07-10T07:54:30Z</time>
      </trkpt>
      <trkpt lat="41.969612" lon="2.1297066">
        <time>2022-07-10T07:54:34Z</time>
      </trkpt>
      <trkpt lat="41.969593" lon="2.1297827">
        <time>2022-07-10T07:54:38Z</time>
      </trkpt>
      <trkpt lat="41.969566" lon="2.1298766">
        <time>2022-07-10T07:54:42Z</time>
      </trkpt>
      <trkpt lat="41.969547" lon="2.1299505">
        <time>2022-07-10T07:54:45Z</time>
      </trkpt>
      <trkpt lat="41.969524" lon="2.1300251">
        <time>2022-07-10T07:54:48Z</time>
      </trkpt>
      <trkpt lat="41.9695" lon="2.1300979">
        <time>2022-07-10T07:54:51Z</time>
      </trkpt>
      <trkpt lat="41.96948" lon="2.1301675">
        <time>2022-07-10T07:54:54Z</time>
      </trkpt>
      <trkpt lat="41.969456" lon="2.1302385">
        <time>2022-07-10T07:54:57Z</time>
      </trkpt>
      <trkpt lat="41.96943" lon="2.130308">
        <time>2022-07-10T07:55:00Z</time>
      </trkpt>
      <trkpt lat="41.969406" lon="2.1303744">
        <time>2022-07-10T07:55:03Z</time>
      </trkpt>
      <trkpt lat="41.969383" lon="2.1304383">
        <time>2022-07-10T07:55:06Z</time>
      </trkpt>
      <trkpt lat="41.969357" lon="2.1305063">
        <time>2022-07-10T07:55:10Z</time>
      </trkpt>
      <trkpt lat="41.96933" lon="2.1305757">
        <time>2022-07-10T07:55:14Z</time>
      </trkpt>
      <trkpt lat="41.9693" lon="2.1306458">
        <time>2022-07-10T07:55:18Z</time>
      </trkpt>
      <trkpt lat="41.969265" lon="2.1307142">
        <time>2022-07-10T07:55:22Z</time>
      </trkpt>
      <trkpt lat="41.969234" lon="2.1307669">
        <time>2022-07-10T07:55:25Z</time>
      </trkpt>
      <trkpt lat="41.969193" lon="2.1308298">
        <time>2022-07-10T07:55:29Z</time>
      </trkpt>
      <trkpt lat="41.969162" lon="2.1308758">
        <time>2022-07-10T07:55:32Z</time>
      </trkpt>
      <trkpt lat="41.96912" lon="2.1309388">
        <time>2022-07-10T07:55:36Z</time>
      </trkpt>
      <trkpt lat="41.969074" lon="2.130999">
        <time>2022-07-10T07:55:40Z</time>
      </trkpt>
      <trkpt lat="41.96903" lon="2.13106">
        <time>2022-07-10T07:55:44Z</time>
      </trkpt>
      <trkpt lat="41.968983" lon="2.1311138">
        <time>2022-07-10T07:55:48Z</time>
      </trkpt>
      <trkpt lat="41.968937" lon="2.131168">
        <time>2022-07-10T07:55:52Z</time>
      </trkpt>
      <trkpt lat="41.9689" lon="2.1312063">
        <time>2022-07-10T07:55:55Z</time>
      </trkpt>
      <trkpt lat="41.96884" lon="2.1312535">
        <time>2022-07-10T07:55:59Z</time>
      </trkpt>
      <trkpt lat="41.96879" lon="2.1312954">
        <time>2022-07-10T07:56:03Z</time>
      </trkpt>
      <trkpt lat="41.96873" lon="2.131344">
        <time>2022-07-10T07:56:07Z</time>
      </trkpt>
      <trkpt lat="41.96868" lon="2.1313846">
        <time>2022-07-10T07:56:11Z</time>
      </trkpt>
      <trkpt lat="41.968628" lon="2.1314082">
        <time>2022-07-10T07:56:15Z</time>
      </trkpt>
      <trkpt lat="41.968594" lon="2.1314158">
        <time>2022-07-10T07:56:22Z</time>
      </trkpt>
      <trkpt lat="41.9686" lon="2.1314547">
        <time>2022-07-10T07:57:51Z</time>
      </trkpt>
      <trkpt lat="41.968616" lon="2.1315408">
        <time>2022-07-10T07:57:54Z</time>
      </trkpt>
      <trkpt lat="41.968636" lon="2.1316297">
        <time>2022-07-10T07:57:57Z</time>
      </trkpt>
      <trkpt lat="41.968662" lon="2.13171">
        <time>2022-07-10T07:58:00Z</time>
      </trkpt>
      <trkpt lat="41.968674" lon="2.1317987">
        <time>2022-07-10T07:58:03Z</time>
      </trkpt>
      <trkpt lat="41.968678" lon="2.1318746">
        <time>2022-07-10T07:58:05Z</time>
      </trkpt>
      <trkpt lat="41.968674" lon="2.1319692">
        <time>2022-07-10T07:58:07Z</time>
      </trkpt>
      <trkpt lat="41.968655" lon="2.1320882">
        <time>2022-07-10T07:58:09Z</time>
      </trkpt>
      <trkpt lat="41.968616" lon="2.1322181">
        <time>2022-07-10T07:58:11Z</time>
      </trkpt>
      <trkpt lat="41.968594" lon="2.1322842">
        <time>2022-07-10T07:58:12Z</time>
      </trkpt>
      <trkpt lat="41.968563" lon="2.1323512">
        <time>2022-07-10T07:58:13Z</time>
      </trkpt>
      <trkpt lat="41.96853" lon="2.1324189">
        <time>2022-07-10T07:58:14Z</time>
      </trkpt>
      <trkpt lat="41.968494" lon="2.1324868">
        <time>2022-07-10T07:58:15Z</time>
      </trkpt>
      <trkpt lat="41.96846" lon="2.1325545">
        <time>2022-07-10T07:58:16Z</time>
      </trkpt>
      <trkpt lat="41.968422" lon="2.1326194">
        <time>2022-07-10T07:58:17Z</time>
      </trkpt>
      <trkpt lat="41.968388" lon="2.1326814">
        <time>2022-07-10T07:58:18Z</time>
      </trkpt>
      <trkpt lat="41.968353" lon="2.1327398">
        <time>2022-07-10T07:58:19Z</time>
      </trkpt>
      <trkpt lat="41.96832" lon="2.1327949">
        <time>2022-07-10T07:58:20Z</time>
      </trkpt>
      <trkpt lat="41.96829" lon="2.132846">
        <time>2022-07-10T07:58:21Z</time>
      </trkpt>
      <trkpt lat="41.96826" lon="2.1328938">
        <time>2022-07-10T07:58:22Z</time>
      </trkpt>
      <trkpt lat="41.968212" lon="2.1329782">
        <time>2022-07-10T07:58:24Z</time>
      </trkpt>
      <trkpt lat="41.96817" lon="2.1330512">
        <time>2022-07-10T07:58:26Z</time>
      </trkpt>
      <trkpt lat="41.968132" lon="2.1331143">
        <time>2022-07-10T07:58:28Z</time>
      </trkpt>
      <trkpt lat="41.9681" lon="2.133171">
        <time>2022-07-10T07:58:30Z</time>
      </trkpt>
      <trkpt lat="41.968056" lon="2.1332505">
        <time>2022-07-10T07:58:33Z</time>
      </trkpt>
      <trkpt lat="41.968025" lon="2.1333">
        <time>2022-07-10T07:58:35Z</time>
      </trkpt>
      <trkpt lat="41.967983" lon="2.1333735">
        <time>2022-07-10T07:58:38Z</time>
      </trkpt>
      <trkpt lat="41.967953" lon="2.1334248">
        <time>2022-07-10T07:58:40Z</time>
      </trkpt>
      <trkpt lat="41.967907" lon="2.133498">
        <time>2022-07-10T07:58:43Z</time>
      </trkpt>
      <trkpt lat="41.967876" lon="2.133544">
        <time>2022-07-10T07:58:45Z</time>
      </trkpt>
      <trkpt lat="41.967834" lon="2.1336143">
        <time>2022-07-10T07:58:48Z</time>
      </trkpt>
      <trkpt lat="41.967777" lon="2.133707">
        <time>2022-07-10T07:58:52Z</time>
      </trkpt>
      <trkpt lat="41.967747" lon="2.1337757">
        <time>2022-07-10T07:58:55Z</time>
      </trkpt>
      <trkpt lat="41.967712" lon="2.133845">
        <time>2022-07-10T07:58:58Z</time>
      </trkpt>
      <trkpt lat="41.96767" lon="2.1339097">
        <time>2022-07-10T07:59:01Z</time>
      </trkpt>
      <trkpt lat="41.967632" lon="2.133974">
        <time>2022-07-10T07:59:04Z</time>
      </trkpt>
      <trkpt lat="41.967598" lon="2.1340413">
        <time>2022-07-10T07:59:07Z</time>
      </trkpt>
      <trkpt lat="41.96756" lon="2.1341057">
        <time>2022-07-10T07:59:10Z</time>
      </trkpt>
      <trkpt lat="41.96753" lon="2.134175">
        <time>2022-07-10T07:59:13Z</time>
      </trkpt>
      <trkpt lat="41.967503" lon="2.134244">
        <time>2022-07-10T07:59:16Z</time>
      </trkpt>
      <trkpt lat="41.96747" lon="2.1343055">
        <time>2022-07-10T07:59:19Z</time>
      </trkpt>
      <trkpt lat="41.967438" lon="2.134368">
        <time>2022-07-10T07:59:22Z</time>
      </trkpt>
      <trkpt lat="41.967415" lon="2.134437">
        <time>2022-07-10T07:59:25Z</time>
      </trkpt>
      <trkpt lat="41.967384" lon="2.134505">
        <time>2022-07-10T07:59:28Z</time>
      </trkpt>
      <trkpt lat="41.967346" lon="2.1345646">
        <time>2022-07-10T07:59:31Z</time>
      </trkpt>
      <trkpt lat="41.967316" lon="2.1346254">
        <time>2022-07-10T07:59:34Z</time>
      </trkpt>
      <trkpt lat="41.967274" lon="2.1347027">
        <time>2022-07-10T07:59:38Z</time>
      </trkpt>
      <trkpt lat="41.967236" lon="2.134753">
        <time>2022-07-10T07:59:41Z</time>
      </trkpt>
      <trkpt lat="41.967186" lon="2.1348197">
        <time>2022-07-10T07:59:45Z</time>
      </trkpt>
      <trkpt lat="41.967155" lon="2.1348674">
        <time>2022-07-10T07:59:48Z</time>
      </trkpt>
      <trkpt lat="41.967117" lon="2.1349406">
        <time>2022-07-10T07:59:52Z</time>
      </trkpt>
      <trkpt lat="41.96709" lon="2.1350217">
        <time>2022-07-10T07:59:56Z</time>
      </trkpt>
      <trkpt lat="41.96707" lon="2.1350863">
        <time>2022-07-10T07:59:59Z</time>
      </trkpt>
      <trkpt lat="41.967056" lon="2.135155">
        <time>2022-07-10T08:00:02Z</time>
      </trkpt>
      <trkpt lat="41.96704" lon="2.1352403">
        <time>2022-07-10T08:00:05Z</time>
      </trkpt>
      <trkpt lat="41.967033" lon="2.1352963">
        <time>2022-07-10T08:00:07Z</time>
      </trkpt>
      <trkpt lat="41.96703" lon="2.135369">
        <time>2022-07-10T08:00:10Z</time>
      </trkpt>
      <trkpt lat="41.967033" lon="2.1354413">
        <time>2022-07-10T08:00:13Z</time>
      </trkpt>
      <trkpt lat="41.96704" lon="2.1355119">
        <time>2022-07-10T08:00:16Z</time>
      </trkpt>
      <trkpt lat="41.96705" lon="2.1355784">
        <time>2022-07-10T08:00:19Z</time>
      </trkpt>
      <trkpt lat="41.96706" lon="2.1356633">
        <time>2022-07-10T08:00:23Z</time>
      </trkpt>
      <trkpt lat="41.96707" lon="2.1357548">
        <time>2022-07-10T08:00:27Z</time>
      </trkpt>
      <trkpt lat="41.967075" lon="2.1358247">
        <time>2022-07-10T08:00:30Z</time>
      </trkpt>
      <trkpt lat="41.967083" lon="2.135896">
        <time>2022-07-10T08:00:33Z</time>
      </trkpt>
      <trkpt lat="41.967094" lon="2.1359608">
        <time>2022-07-10T08:00:36Z</time>
      </trkpt>
      <trkpt lat="41.967106" lon="2.1360526">
        <time>2022-07-10T08:00:40Z</time>
      </trkpt>
      <trkpt lat="41.967113" lon="2.1361215">
        <time>2022-07-10T08:00:43Z</time>
      </trkpt>
      <trkpt lat="41.967113" lon="2.1361885">
        <time>2022-07-10T08:00:46Z</time>
      </trkpt>
      <trkpt lat="41.967102" lon="2.1362832">
        <time>2022-07-10T08:00:50Z</time>
      </trkpt>
      <trkpt lat="41.96711" lon="2.1363559">
        <time>2022-07-10T08:00:53Z</time>
      </trkpt>
      <trkpt lat="41.967113" lon="2.1364453">
        <time>2022-07-10T08:00:57Z</time>
      </trkpt>
      <trkpt lat="41.967113" lon="2.1365101">
        <time>2022-07-10T08:01:00Z</time>
      </trkpt>
      <trkpt lat="41.967125" lon="2.1365972">
        <time>2022-07-10T08:01:04Z</time>
      </trkpt>
      <trkpt lat="41.967133" lon="2.136685">
        <time>2022-07-10T08:01:08Z</time>
      </trkpt>
      <trkpt lat="41.96714" lon="2.1367512">
        <time>2022-07-10T08:01:11Z</time>
      </trkpt>
      <trkpt lat="41.96715" lon="2.1368408">
        <time>2022-07-10T08:01:15Z</time>
      </trkpt>
      <trkpt lat="41.967155" lon="2.1369045">
        <time>2022-07-10T08:01:18Z</time>
      </trkpt>
      <trkpt lat="41.96717" lon="2.1369815">
        <time>2022-07-10T08:01:22Z</time>
      </trkpt>
      <trkpt lat="41.96719" lon="2.1370575">
        <time>2022-07-10T08:01:26Z</time>
      </trkpt>
      <trkpt lat="41.967213" lon="2.1371343">
        <time>2022-07-10T08:01:30Z</time>
      </trkpt>
      <trkpt lat="41.967243" lon="2.1372073">
        <time>2022-07-10T08:01:34Z</time>
      </trkpt>
      <trkpt lat="41.967278" lon="2.1372752">
        <time>2022-07-10T08:01:38Z</time>
      </trkpt>
      <trkpt lat="41.967308" lon="2.1373224">
        <time>2022-07-10T08:01:41Z</time>
      </trkpt>
      <trkpt lat="41.967365" lon="2.1373725">
        <time>2022-07-10T08:01:45Z</time>
      </trkpt>
      <trkpt lat="41.967415" lon="2.1374078">
        <time>2022-07-10T08:01:48Z</time>
      </trkpt>
      <trkpt lat="41.967457" lon="2.137441">
        <time>2022-07-10T08:01:51Z</time>
      </trkpt>
      <trkpt lat="41.96751" lon="2.1374755">
        <time>2022-07-10T08:01:55Z</time>
      </trkpt>
      <trkpt lat="41.967556" lon="2.1374907">
        <time>2022-07-10T08:01:59Z</time>
      </trkpt>
      <trkpt lat="41.967625" lon="2.1374998">
        <time>2022-07-10T08:02:04Z</time>
      </trkpt>
      <trkpt lat="41.96769" lon="2.1375082">
        <time>2022-07-10T08:02:08Z</time>
      </trkpt>
      <trkpt lat="41.967754" lon="2.137497">
        <time>2022-07-10T08:02:12Z</time>
      </trkpt>
      <trkpt lat="41.967804" lon="2.1374855">
        <time>2022-07-10T08:02:15Z</time>
      </trkpt>
      <trkpt lat="41.96786" lon="2.1374736">
        <time>2022-07-10T08:02:18Z</time>
      </trkpt>
      <trkpt lat="41.967922" lon="2.1374443">
        <time>2022-07-10T08:02:21Z</time>
      </trkpt>
      <trkpt lat="41.967976" lon="2.1374123">
        <time>2022-07-10T08:02:24Z</time>
      </trkpt>
      <trkpt lat="41.96803" lon="2.1373894">
        <time>2022-07-10T08:02:27Z</time>
      </trkpt>
      <trkpt lat="41.968082" lon="2.137373">
        <time>2022-07-10T08:02:30Z</time>
      </trkpt>
      <trkpt lat="41.96814" lon="2.1373708">
        <time>2022-07-10T08:02:33Z</time>
      </trkpt>
      <trkpt lat="41.968185" lon="2.1373725">
        <time>2022-07-10T08:02:36Z</time>
      </trkpt>
      <trkpt lat="41.96824" lon="2.1373882">
        <time>2022-07-10T08:02:39Z</time>
      </trkpt>
      <trkpt lat="41.96829" lon="2.1374156">
        <time>2022-07-10T08:02:42Z</time>
      </trkpt>
      <trkpt lat="41.96834" lon="2.1374516">
        <time>2022-07-10T08:02:45Z</time>
      </trkpt>
      <trkpt lat="41.968388" lon="2.1374981">
        <time>2022-07-10T08:02:48Z</time>
      </trkpt>
      <trkpt lat="41.968437" lon="2.1375406">
        <time>2022-07-10T08:02:51Z</time>
      </trkpt>
      <trkpt lat="41.96849" lon="2.1375844">
        <time>2022-07-10T08:02:54Z</time>
      </trkpt>
      <trkpt lat="41.96855" lon="2.1376379">
        <time>2022-07-10T08:02:57Z</time>
      </trkpt>
      <trkpt lat="41.96859" lon="2.137677">
        <time>2022-07-10T08:02:59Z</time>
      </trkpt>
      <trkpt lat="41.968647" lon="2.1377292">
        <time>2022-07-10T08:03:02Z</time>
      </trkpt>
      <trkpt lat="41.968708" lon="2.1377754">
        <time>2022-07-10T08:03:05Z</time>
      </trkpt>
      <trkpt lat="41.96876" lon="2.1378143">
        <time>2022-07-10T08:03:08Z</time>
      </trkpt>
      <trkpt lat="41.96882" lon="2.137853">
        <time>2022-07-10T08:03:11Z</time>
      </trkpt>
      <trkpt lat="41.968876" lon="2.1378822">
        <time>2022-07-10T08:03:14Z</time>
      </trkpt>
      <trkpt lat="41.96893" lon="2.1379044">
        <time>2022-07-10T08:03:17Z</time>
      </trkpt>
      <trkpt lat="41.968975" lon="2.1379244">
        <time>2022-07-10T08:03:20Z</time>
      </trkpt>
      <trkpt lat="41.96904" lon="2.1379492">
        <time>2022-07-10T08:03:23Z</time>
      </trkpt>
      <trkpt lat="41.96909" lon="2.1379676">
        <time>2022-07-10T08:03:25Z</time>
      </trkpt>
      <trkpt lat="41.96915" lon="2.1379864">
        <time>2022-07-10T08:03:28Z</time>
      </trkpt>
      <trkpt lat="41.969208" lon="2.1380036">
        <time>2022-07-10T08:03:31Z</time>
      </trkpt>
      <trkpt lat="41.96926" lon="2.1380224">
        <time>2022-07-10T08:03:34Z</time>
      </trkpt>
      <trkpt lat="41.969315" lon="2.1380522">
        <time>2022-07-10T08:03:37Z</time>
      </trkpt>
      <trkpt lat="41.969368" lon="2.1381035">
        <time>2022-07-10T08:03:40Z</time>
      </trkpt>
      <trkpt lat="41.96942" lon="2.138164">
        <time>2022-07-10T08:03:43Z</time>
      </trkpt>
      <trkpt lat="41.969463" lon="2.1382284">
        <time>2022-07-10T08:03:46Z</time>
      </trkpt>
      <trkpt lat="41.969505" lon="2.1383064">
        <time>2022-07-10T08:03:49Z</time>
      </trkpt>
      <trkpt lat="41.969536" lon="2.1383867">
        <time>2022-07-10T08:03:52Z</time>
      </trkpt>
      <trkpt lat="41.969566" lon="2.1384661">
        <time>2022-07-10T08:03:55Z</time>
      </trkpt>
      <trkpt lat="41.96959" lon="2.1385467">
        <time>2022-07-10T08:03:58Z</time>
      </trkpt>
      <trkpt lat="41.96961" lon="2.1386254">
        <time>2022-07-10T08:04:01Z</time>
      </trkpt>
      <trkpt lat="41.969627" lon="2.1387055">
        <time>2022-07-10T08:04:04Z</time>
      </trkpt>
      <trkpt lat="41.969643" lon="2.1387858">
        <time>2022-07-10T08:04:07Z</time>
      </trkpt>
      <trkpt lat="41.969658" lon="2.1388695">
        <time>2022-07-10T08:04:10Z</time>
      </trkpt>
      <trkpt lat="41.96967" lon="2.138951">
        <time>2022-07-10T08:04:13Z</time>
      </trkpt>
      <trkpt lat="41.969677" lon="2.13903">
        <time>2022-07-10T08:04:16Z</time>
      </trkpt>
      <trkpt lat="41.969685" lon="2.1391098">
        <time>2022-07-10T08:04:19Z</time>
      </trkpt>
      <trkpt lat="41.969692" lon="2.1391928">
        <time>2022-07-10T08:04:22Z</time>
      </trkpt>
      <trkpt lat="41.9697" lon="2.1392765">
        <time>2022-07-10T08:04:25Z</time>
      </trkpt>
      <trkpt lat="41.969704" lon="2.1393595">
        <time>2022-07-10T08:04:28Z</time>
      </trkpt>
      <trkpt lat="41.969704" lon="2.139444">
        <time>2022-07-10T08:04:31Z</time>
      </trkpt>
      <trkpt lat="41.969696" lon="2.1395264">
        <time>2022-07-10T08:04:34Z</time>
      </trkpt>
      <trkpt lat="41.969685" lon="2.1396048">
        <time>2022-07-10T08:04:37Z</time>
      </trkpt>
      <trkpt lat="41.96967" lon="2.139679">
        <time>2022-07-10T08:04:40Z</time>
      </trkpt>
      <trkpt lat="41.969643" lon="2.1397493">
        <time>2022-07-10T08:04:43Z</time>
      </trkpt>
      <trkpt lat="41.96962" lon="2.1398227">
        <time>2022-07-10T08:04:46Z</time>
      </trkpt>
      <trkpt lat="41.969593" lon="2.1398966">
        <time>2022-07-10T08:04:49Z</time>
      </trkpt>
      <trkpt lat="41.969563" lon="2.1399813">
        <time>2022-07-10T08:04:52Z</time>
      </trkpt>
      <trkpt lat="41.96953" lon="2.140062">
        <time>2022-07-10T08:04:55Z</time>
      </trkpt>
      <trkpt lat="41.96948" lon="2.1401303">
        <time>2022-07-10T08:04:58Z</time>
      </trkpt>
      <trkpt lat="41.96944" lon="2.140199">
        <time>2022-07-10T08:05:01Z</time>
      </trkpt>
      <trkpt lat="41.9694" lon="2.1402617">
        <time>2022-07-10T08:05:04Z</time>
      </trkpt>
      <trkpt lat="41.969357" lon="2.1403213">
        <time>2022-07-10T08:05:07Z</time>
      </trkpt>
      <trkpt lat="41.96931" lon="2.140374">
        <time>2022-07-10T08:05:10Z</time>
      </trkpt>
      <trkpt lat="41.96926" lon="2.1404226">
        <time>2022-07-10T08:05:13Z</time>
      </trkpt>
      <trkpt lat="41.96921" lon="2.1404712">
        <time>2022-07-10T08:05:16Z</time>
      </trkpt>
      <trkpt lat="41.969154" lon="2.1405203">
        <time>2022-07-10T08:05:19Z</time>
      </trkpt>
      <trkpt lat="41.969093" lon="2.1405697">
        <time>2022-07-10T08:05:22Z</time>
      </trkpt>
      <trkpt lat="41.969025" lon="2.1406207">
        <time>2022-07-10T08:05:25Z</time>
      </trkpt>
      <trkpt lat="41.96898" lon="2.140654">
        <time>2022-07-10T08:05:27Z</time>
      </trkpt>
      <trkpt lat="41.96893" lon="2.1406796">
        <time>2022-07-10T08:05:29Z</time>
      </trkpt>
      <trkpt lat="41.96888" lon="2.1407063">
        <time>2022-07-10T08:05:31Z</time>
      </trkpt>
      <trkpt lat="41.96883" lon="2.1407347">
        <time>2022-07-10T08:05:33Z</time>
      </trkpt>
      <trkpt lat="41.968777" lon="2.140763">
        <time>2022-07-10T08:05:35Z</time>
      </trkpt>
      <trkpt lat="41.968723" lon="2.1407907">
        <time>2022-07-10T08:05:37Z</time>
      </trkpt>
      <trkpt lat="41.968662" lon="2.1408157">
        <time>2022-07-10T08:05:39Z</time>
      </trkpt>
      <trkpt lat="41.968597" lon="2.1408417">
        <time>2022-07-10T08:05:41Z</time>
      </trkpt>
      <trkpt lat="41.96853" lon="2.1408637">
        <time>2022-07-10T08:05:43Z</time>
      </trkpt>
      <trkpt lat="41.968456" lon="2.1408727">
        <time>2022-07-10T08:05:45Z</time>
      </trkpt>
      <trkpt lat="41.96839" lon="2.140872">
        <time>2022-07-10T08:05:47Z</time>
      </trkpt>
      <trkpt lat="41.968327" lon="2.1408622">
        <time>2022-07-10T08:05:49Z</time>
      </trkpt>
      <trkpt lat="41.96826" lon="2.1408446">
        <time>2022-07-10T08:05:51Z</time>
      </trkpt>
      <trkpt lat="41.968197" lon="2.1408253">
        <time>2022-07-10T08:05:53Z</time>
      </trkpt>
      <trkpt lat="41.968132" lon="2.1408048">
        <time>2022-07-10T08:05:55Z</time>
      </trkpt>
      <trkpt lat="41.968067" lon="2.1407874">
        <time>2022-07-10T08:05:57Z</time>
      </trkpt>
      <trkpt lat="41.968" lon="2.1407716">
        <time>2022-07-10T08:05:59Z</time>
      </trkpt>
      <trkpt lat="41.967937" lon="2.1407547">
        <time>2022-07-10T08:06:01Z</time>
      </trkpt>
      <trkpt lat="41.967876" lon="2.1407337">
        <time>2022-07-10T08:06:03Z</time>
      </trkpt>
      <trkpt lat="41.967834" lon="2.1407144">
        <time>2022-07-10T08:06:05Z</time>
      </trkpt>
      <trkpt lat="41.96777" lon="2.1406047">
        <time>2022-07-10T08:07:50Z</time>
      </trkpt>
      <trkpt lat="41.96768" lon="2.140569">
        <time>2022-07-10T08:07:53Z</time>
      </trkpt>
      <trkpt lat="41.967613" lon="2.1405578">
        <time>2022-07-10T08:07:55Z</time>
      </trkpt>
      <trkpt lat="41.967545" lon="2.1405582">
        <time>2022-07-10T08:07:57Z</time>
      </trkpt>
      <trkpt lat="41.967472" lon="2.1405616">
        <time>2022-07-10T08:07:59Z</time>
      </trkpt>
      <trkpt lat="41.967403" lon="2.140561">
        <time>2022-07-10T08:08:01Z</time>
      </trkpt>
      <trkpt lat="41.96733" lon="2.140555">
        <time>2022-07-10T08:08:03Z</time>
      </trkpt>
      <trkpt lat="41.967262" lon="2.140549">
        <time>2022-07-10T08:08:05Z</time>
      </trkpt>
      <trkpt lat="41.967186" lon="2.1405451">
        <time>2022-07-10T08:08:07Z</time>
      </trkpt>
      <trkpt lat="41.96711" lon="2.140542">
        <time>2022-07-10T08:08:09Z</time>
      </trkpt>
      <trkpt lat="41.96703" lon="2.1405396">
        <time>2022-07-10T08:08:11Z</time>
      </trkpt>
      <trkpt lat="41.966953" lon="2.1405463">
        <time>2022-07-10T08:08:13Z</time>
      </trkpt>
      <trkpt lat="41.96687" lon="2.1405654">
        <time>2022-07-10T08:08:15Z</time>
      </trkpt>
      <trkpt lat="41.966793" lon="2.1405892">
        <time>2022-07-10T08:08:17Z</time>
      </trkpt>
      <trkpt lat="41.966717" lon="2.1406214">
        <time>2022-07-10T08:08:19Z</time>
      </trkpt>
      <trkpt lat="41.966633" lon="2.140663">
        <time>2022-07-10T08:08:21Z</time>
      </trkpt>
      <trkpt lat="41.96655" lon="2.1407044">
        <time>2022-07-10T08:08:23Z</time>
      </trkpt>
      <trkpt lat="41.966465" lon="2.1407437">
        <time>2022-07-10T08:08:25Z</time>
      </trkpt>
      <trkpt lat="41.966385" lon="2.1407776">
        <time>2022-07-10T08:08:27Z</time>
      </trkpt>
      <trkpt lat="41.9663" lon="2.1408117">
        <time>2022-07-10T08:08:29Z</time>
      </trkpt>
      <trkpt lat="41.966217" lon="2.1408427">
        <time>2022-07-10T08:08:31Z</time>
      </trkpt>
      <trkpt lat="41.966087" lon="2.140846">
        <time>2022-07-10T08:08:34Z</time>
      </trkpt>
      <trkpt lat="41.966007" lon="2.1408117">
        <time>2022-07-10T08:08:36Z</time>
      </trkpt>
      <trkpt lat="41.96594" lon="2.1407516">
        <time>2022-07-10T08:08:38Z</time>
      </trkpt>
      <trkpt lat="41.96588" lon="2.1406734">
        <time>2022-07-10T08:08:40Z</time>
      </trkpt>
      <trkpt lat="41.96584" lon="2.14058">
        <time>2022-07-10T08:08:42Z</time>
      </trkpt>
      <trkpt lat="41.9658" lon="2.1404796">
        <time>2022-07-10T08:08:44Z</time>
      </trkpt>
      <trkpt lat="41.965767" lon="2.140378">
        <time>2022-07-10T08:08:46Z</time>
      </trkpt>
      <trkpt lat="41.96572" lon="2.1402764">
        <time>2022-07-10T08:08:48Z</time>
      </trkpt>
      <trkpt lat="41.96567" lon="2.1401863">
        <time>2022-07-10T08:08:50Z</time>
      </trkpt>
      <trkpt lat="41.965607" lon="2.140112">
        <time>2022-07-10T08:08:52Z</time>
      </trkpt>
      <trkpt lat="41.965534" lon="2.1400566">
        <time>2022-07-10T08:08:54Z</time>
      </trkpt>
      <trkpt lat="41.965458" lon="2.140023">
        <time>2022-07-10T08:08:56Z</time>
      </trkpt>
      <trkpt lat="41.965374" lon="2.1400123">
        <time>2022-07-10T08:08:58Z</time>
      </trkpt>
      <trkpt lat="41.965286" lon="2.1400306">
        <time>2022-07-10T08:09:00Z</time>
      </trkpt>
      <trkpt lat="41.965206" lon="2.14008">
        <time>2022-07-10T08:09:02Z</time>
      </trkpt>
      <trkpt lat="41.96514" lon="2.140156">
        <time>2022-07-10T08:09:04Z</time>
      </trkpt>
      <trkpt lat="41.965084" lon="2.1402524">
        <time>2022-07-10T08:09:06Z</time>
      </trkpt>
      <trkpt lat="41.96504" lon="2.1403606">
        <time>2022-07-10T08:09:08Z</time>
      </trkpt>
      <trkpt lat="41.965" lon="2.140476">
        <time>2022-07-10T08:09:10Z</time>
      </trkpt>
      <trkpt lat="41.964985" lon="2.140535">
        <time>2022-07-10T08:09:11Z</time>
      </trkpt>
      <trkpt lat="41.96495" lon="2.1406543">
        <time>2022-07-10T08:09:13Z</time>
      </trkpt>
      <trkpt lat="41.964935" lon="2.1407156">
        <time>2022-07-10T08:09:14Z</time>
      </trkpt>
      <trkpt lat="41.96491" lon="2.1408384">
        <time>2022-07-10T08:09:16Z</time>
      </trkpt>
      <trkpt lat="41.964893" lon="2.1409004">
        <time>2022-07-10T08:09:17Z</time>
      </trkpt>
      <trkpt lat="41.964863" lon="2.1410234">
        <time>2022-07-10T08:09:19Z</time>
      </trkpt>
      <trkpt lat="41.96485" lon="2.1410854">
        <time>2022-07-10T08:09:20Z</time>
      </trkpt>
      <trkpt lat="41.964817" lon="2.141212">
        <time>2022-07-10T08:09:22Z</time>
      </trkpt>
      <trkpt lat="41.9648" lon="2.1412773">
        <time>2022-07-10T08:09:23Z</time>
      </trkpt>
      <trkpt lat="41.964783" lon="2.1413424">
        <time>2022-07-10T08:09:24Z</time>
      </trkpt>
      <trkpt lat="41.964752" lon="2.1414704">
        <time>2022-07-10T08:09:26Z</time>
      </trkpt>
      <trkpt lat="41.964733" lon="2.1415334">
        <time>2022-07-10T08:09:27Z</time>
      </trkpt>
      <trkpt lat="41.9647" lon="2.1416576">
        <time>2022-07-10T08:09:29Z</time>
      </trkpt>
      <trkpt lat="41.96466" lon="2.1417778">
        <time>2022-07-10T08:09:31Z</time>
      </trkpt>
      <trkpt lat="41.96462" lon="2.1418934">
        <time>2022-07-10T08:09:33Z</time>
      </trkpt>
      <trkpt lat="41.964596" lon="2.1419487">
        <time>2022-07-10T08:09:34Z</time>
      </trkpt>
      <trkpt lat="41.964546" lon="2.1420557">
        <time>2022-07-10T08:09:36Z</time>
      </trkpt>
      <trkpt lat="41.964516" lon="2.142107">
        <time>2022-07-10T08:09:37Z</time>
      </trkpt>
      <trkpt lat="41.96446" lon="2.1422117">
        <time>2022-07-10T08:09:39Z</time>
      </trkpt>
      <trkpt lat="41.964428" lon="2.142264">
        <time>2022-07-10T08:09:40Z</time>
      </trkpt>
      <trkpt lat="41.96437" lon="2.1423714">
        <time>2022-07-10T08:09:42Z</time>
      </trkpt>
      <trkpt lat="41.964314" lon="2.1424844">
        <time>2022-07-10T08:09:44Z</time>
      </trkpt>
      <trkpt lat="41.964256" lon="2.142595">
        <time>2022-07-10T08:09:46Z</time>
      </trkpt>
      <trkpt lat="41.964226" lon="2.142651">
        <time>2022-07-10T08:09:47Z</time>
      </trkpt>
      <trkpt lat="41.964172" lon="2.1427617">
        <time>2022-07-10T08:09:49Z</time>
      </trkpt>
      <trkpt lat="41.964115" lon="2.1428657">
        <time>2022-07-10T08:09:51Z</time>
      </trkpt>
      <trkpt lat="41.964085" lon="2.1429157">
        <time>2022-07-10T08:09:52Z</time>
      </trkpt>
      <trkpt lat="41.96402" lon="2.1430166">
        <time>2022-07-10T08:09:54Z</time>
      </trkpt>
      <trkpt lat="41.96395" lon="2.1431096">
        <time>2022-07-10T08:09:56Z</time>
      </trkpt>
      <trkpt lat="41.963875" lon="2.1431859">
        <time>2022-07-10T08:09:58Z</time>
      </trkpt>
      <trkpt lat="41.963837" lon="2.143215">
        <time>2022-07-10T08:09:59Z</time>
      </trkpt>
      <trkpt lat="41.96375" lon="2.143244">
        <time>2022-07-10T08:10:01Z</time>
      </trkpt>
      <trkpt lat="41.96366" lon="2.1432269">
        <time>2022-07-10T08:10:03Z</time>
      </trkpt>
      <trkpt lat="41.96358" lon="2.1431644">
        <time>2022-07-10T08:10:05Z</time>
      </trkpt>
      <trkpt lat="41.96352" lon="2.1430676">
        <time>2022-07-10T08:10:07Z</time>
      </trkpt>
      <trkpt lat="41.963474" lon="2.1429489">
        <time>2022-07-10T08:10:09Z</time>
      </trkpt>
      <trkpt lat="41.963444" lon="2.1428127">
        <time>2022-07-10T08:10:11Z</time>
      </trkpt>
      <trkpt lat="41.96343" lon="2.1427393">
        <time>2022-07-10T08:10:12Z</time>
      </trkpt>
      <trkpt lat="41.963417" lon="2.142664">
        <time>2022-07-10T08:10:13Z</time>
      </trkpt>
      <trkpt lat="41.9634" lon="2.1425853">
        <time>2022-07-10T08:10:14Z</time>
      </trkpt>
      <trkpt lat="41.963387" lon="2.142505">
        <time>2022-07-10T08:10:15Z</time>
      </trkpt>
      <trkpt lat="41.96337" lon="2.1424234">
        <time>2022-07-10T08:10:16Z</time>
      </trkpt>
      <trkpt lat="41.963352" lon="2.1423407">
        <time>2022-07-10T08:10:17Z</time>
      </trkpt>
      <trkpt lat="41.963333" lon="2.1422577">
        <time>2022-07-10T08:10:18Z</time>
      </trkpt>
      <trkpt lat="41.963318" lon="2.142175">
        <time>2022-07-10T08:10:19Z</time>
      </trkpt>
      <trkpt lat="41.9633" lon="2.1420927">
        <time>2022-07-10T08:10:20Z</time>
      </trkpt>
      <trkpt lat="41.963287" lon="2.14201">
        <time>2022-07-10T08:10:21Z</time>
      </trkpt>
      <trkpt lat="41.963272" lon="2.1419275">
        <time>2022-07-10T08:10:22Z</time>
      </trkpt>
      <trkpt lat="41.963257" lon="2.1418438">
        <time>2022-07-10T08:10:23Z</time>
      </trkpt>
      <trkpt lat="41.96324" lon="2.1417596">
        <time>2022-07-10T08:10:24Z</time>
      </trkpt>
      <trkpt lat="41.963226" lon="2.1416755">
        <time>2022-07-10T08:10:25Z</time>
      </trkpt>
      <trkpt lat="41.96321" lon="2.1415894">
        <time>2022-07-10T08:10:26Z</time>
      </trkpt>
      <trkpt lat="41.963196" lon="2.1415017">
        <time>2022-07-10T08:10:27Z</time>
      </trkpt>
      <trkpt lat="41.96318" lon="2.1414135">
        <time>2022-07-10T08:10:28Z</time>
      </trkpt>
      <trkpt lat="41.963165" lon="2.141325">
        <time>2022-07-10T08:10:29Z</time>
      </trkpt>
      <trkpt lat="41.96315" lon="2.1412363">
        <time>2022-07-10T08:10:30Z</time>
      </trkpt>
      <trkpt lat="41.96314" lon="2.1411467">
        <time>2022-07-10T08:10:31Z</time>
      </trkpt>
      <trkpt lat="41.963123" lon="2.1410558">
        <time>2022-07-10T08:10:32Z</time>
      </trkpt>
      <trkpt lat="41.963108" lon="2.140965">
        <time>2022-07-10T08:10:33Z</time>
      </trkpt>
      <trkpt lat="41.963093" lon="2.1408734">
        <time>2022-07-10T08:10:34Z</time>
      </trkpt>
      <trkpt lat="41.963074" lon="2.140782">
        <time>2022-07-10T08:10:35Z</time>
      </trkpt>
      <trkpt lat="41.96306" lon="2.1406968">
        <time>2022-07-10T08:10:36Z</time>
      </trkpt>
      <trkpt lat="41.96304" lon="2.1406085">
        <time>2022-07-10T08:10:37Z</time>
      </trkpt>
      <trkpt lat="41.963024" lon="2.1405175">
        <time>2022-07-10T08:10:38Z</time>
      </trkpt>
      <trkpt lat="41.96301" lon="2.140418">
        <time>2022-07-10T08:10:39Z</time>
      </trkpt>
      <trkpt lat="41.96299" lon="2.14032">
        <time>2022-07-10T08:10:40Z</time>
      </trkpt>
      <trkpt lat="41.962975" lon="2.140222">
        <time>2022-07-10T08:10:41Z</time>
      </trkpt>
      <trkpt lat="41.96296" lon="2.1401305">
        <time>2022-07-10T08:10:42Z</time>
      </trkpt>
      <trkpt lat="41.962944" lon="2.140037">
        <time>2022-07-10T08:10:43Z</time>
      </trkpt>
      <trkpt lat="41.962902" lon="2.139837">
        <time>2022-07-10T08:10:45Z</time>
      </trkpt>
      <trkpt lat="41.962883" lon="2.1397395">
        <time>2022-07-10T08:10:46Z</time>
      </trkpt>
      <trkpt lat="41.962852" lon="2.139639">
        <time>2022-07-10T08:10:47Z</time>
      </trkpt>
      <trkpt lat="41.962822" lon="2.1395497">
        <time>2022-07-10T08:10:48Z</time>
      </trkpt>
      <trkpt lat="41.962776" lon="2.139465">
        <time>2022-07-10T08:10:49Z</time>
      </trkpt>
      <trkpt lat="41.962723" lon="2.1393914">
        <time>2022-07-10T08:10:50Z</time>
      </trkpt>
      <trkpt lat="41.962666" lon="2.1393292">
        <time>2022-07-10T08:10:51Z</time>
      </trkpt>
      <trkpt lat="41.962605" lon="2.1392798">
        <time>2022-07-10T08:10:52Z</time>
      </trkpt>
      <trkpt lat="41.96254" lon="2.1392415">
        <time>2022-07-10T08:10:53Z</time>
      </trkpt>
      <trkpt lat="41.96247" lon="2.1392171">
        <time>2022-07-10T08:10:54Z</time>
      </trkpt>
      <trkpt lat="41.9624" lon="2.139209">
        <time>2022-07-10T08:10:55Z</time>
      </trkpt>
      <trkpt lat="41.962326" lon="2.139219">
        <time>2022-07-10T08:10:56Z</time>
      </trkpt>
      <trkpt lat="41.962254" lon="2.139244">
        <time>2022-07-10T08:10:57Z</time>
      </trkpt>
      <trkpt lat="41.962193" lon="2.1392772">
        <time>2022-07-10T08:10:58Z</time>
      </trkpt>
      <trkpt lat="41.96213" lon="2.13932">
        <time>2022-07-10T08:10:59Z</time>
      </trkpt>
      <trkpt lat="41.96207" lon="2.1393702">
        <time>2022-07-10T08:11:00Z</time>
      </trkpt>
      <trkpt lat="41.962013" lon="2.1394262">
        <time>2022-07-10T08:11:01Z</time>
      </trkpt>
      <trkpt lat="41.961956" lon="2.139492">
        <time>2022-07-10T08:11:02Z</time>
      </trkpt>
      <trkpt lat="41.961906" lon="2.1395514">
        <time>2022-07-10T08:11:03Z</time>
      </trkpt>
      <trkpt lat="41.961853" lon="2.139619">
        <time>2022-07-10T08:11:04Z</time>
      </trkpt>
      <trkpt lat="41.961803" lon="2.1396868">
        <time>2022-07-10T08:11:05Z</time>
      </trkpt>
      <trkpt lat="41.96175" lon="2.1397562">
        <time>2022-07-10T08:11:06Z</time>
      </trkpt>
      <trkpt lat="41.9617" lon="2.1398258">
        <time>2022-07-10T08:11:07Z</time>
      </trkpt>
      <trkpt lat="41.96165" lon="2.1398973">
        <time>2022-07-10T08:11:08Z</time>
      </trkpt>
      <trkpt lat="41.9616" lon="2.139969">
        <time>2022-07-10T08:11:09Z</time>
      </trkpt>
      <trkpt lat="41.96155" lon="2.1400397">
        <time>2022-07-10T08:11:10Z</time>
      </trkpt>
      <trkpt lat="41.961502" lon="2.1401095">
        <time>2022-07-10T08:11:11Z</time>
      </trkpt>
      <trkpt lat="41.961456" lon="2.1401794">
        <time>2022-07-10T08:11:12Z</time>
      </trkpt>
      <trkpt lat="41.96141" lon="2.1402504">
        <time>2022-07-10T08:11:13Z</time>
      </trkpt>
      <trkpt lat="41.961365" lon="2.14032">
        <time>2022-07-10T08:11:14Z</time>
      </trkpt>
      <trkpt lat="41.961315" lon="2.1403873">
        <time>2022-07-10T08:11:15Z</time>
      </trkpt>
      <trkpt lat="41.961266" lon="2.1404514">
        <time>2022-07-10T08:11:16Z</time>
      </trkpt>
      <trkpt lat="41.961212" lon="2.1405103">
        <time>2022-07-10T08:11:17Z</time>
      </trkpt>
      <trkpt lat="41.961155" lon="2.1405618">
        <time>2022-07-10T08:11:18Z</time>
      </trkpt>
      <trkpt lat="41.961098" lon="2.1406014">
        <time>2022-07-10T08:11:19Z</time>
      </trkpt>
      <trkpt lat="41.961037" lon="2.1406248">
        <time>2022-07-10T08:11:20Z</time>
      </trkpt>
      <trkpt lat="41.960976" lon="2.1406293">
        <time>2022-07-10T08:11:21Z</time>
      </trkpt>
      <trkpt lat="41.96092" lon="2.140614">
        <time>2022-07-10T08:11:22Z</time>
      </trkpt>
      <trkpt lat="41.960865" lon="2.1405835">
        <time>2022-07-10T08:11:23Z</time>
      </trkpt>
      <trkpt lat="41.96081" lon="2.1405408">
        <time>2022-07-10T08:11:24Z</time>
      </trkpt>
      <trkpt lat="41.960766" lon="2.1404886">
        <time>2022-07-10T08:11:25Z</time>
      </trkpt>
      <trkpt lat="41.96072" lon="2.1404328">
        <time>2022-07-10T08:11:26Z</time>
      </trkpt>
      <trkpt lat="41.96068" lon="2.1403725">
        <time>2022-07-10T08:11:27Z</time>
      </trkpt>
      <trkpt lat="41.960636" lon="2.14031">
        <time>2022-07-10T08:11:28Z</time>
      </trkpt>
      <trkpt lat="41.960594" lon="2.140247">
        <time>2022-07-10T08:11:29Z</time>
      </trkpt>
      <trkpt lat="41.960552" lon="2.1401844">
        <time>2022-07-10T08:11:30Z</time>
      </trkpt>
      <trkpt lat="41.96051" lon="2.140121">
        <time>2022-07-10T08:11:31Z</time>
      </trkpt>
      <trkpt lat="41.960464" lon="2.140058">
        <time>2022-07-10T08:11:32Z</time>
      </trkpt>
      <trkpt lat="41.96042" lon="2.1399975">
        <time>2022-07-10T08:11:33Z</time>
      </trkpt>
      <trkpt lat="41.96037" lon="2.1399405">
        <time>2022-07-10T08:11:34Z</time>
      </trkpt>
      <trkpt lat="41.960316" lon="2.1398914">
        <time>2022-07-10T08:11:35Z</time>
      </trkpt>
      <trkpt lat="41.96026" lon="2.1398525">
        <time>2022-07-10T08:11:36Z</time>
      </trkpt>
      <trkpt lat="41.9602" lon="2.1398242">
        <time>2022-07-10T08:11:37Z</time>
      </trkpt>
      <trkpt lat="41.96014" lon="2.139807">
        <time>2022-07-10T08:11:38Z</time>
      </trkpt>
      <trkpt lat="41.96008" lon="2.1398034">
        <time>2022-07-10T08:11:39Z</time>
      </trkpt>
      <trkpt lat="41.96002" lon="2.1398132">
        <time>2022-07-10T08:11:40Z</time>
      </trkpt>
      <trkpt lat="41.95996" lon="2.1398354">
        <time>2022-07-10T08:11:41Z</time>
      </trkpt>
      <trkpt lat="41.959904" lon="2.1398654">
        <time>2022-07-10T08:11:42Z</time>
      </trkpt>
      <trkpt lat="41.959846" lon="2.1399012">
        <time>2022-07-10T08:11:43Z</time>
      </trkpt>
      <trkpt lat="41.959793" lon="2.1399376">
        <time>2022-07-10T08:11:44Z</time>
      </trkpt>
      <trkpt lat="41.959736" lon="2.1399744">
        <time>2022-07-10T08:11:45Z</time>
      </trkpt>
      <trkpt lat="41.95968" lon="2.140003">
        <time>2022-07-10T08:11:46Z</time>
      </trkpt>
      <trkpt lat="41.959564" lon="2.140026">
        <time>2022-07-10T08:11:48Z</time>
      </trkpt>
      <trkpt lat="41.9595" lon="2.1400201">
        <time>2022-07-10T08:11:49Z</time>
      </trkpt>
      <trkpt lat="41.95944" lon="2.1400044">
        <time>2022-07-10T08:11:50Z</time>
      </trkpt>
      <trkpt lat="41.95938" lon="2.1399808">
        <time>2022-07-10T08:11:51Z</time>
      </trkpt>
      <trkpt lat="41.95933" lon="2.1399474">
        <time>2022-07-10T08:11:52Z</time>
      </trkpt>
      <trkpt lat="41.959282" lon="2.139902">
        <time>2022-07-10T08:11:53Z</time>
      </trkpt>
      <trkpt lat="41.959232" lon="2.1398542">
        <time>2022-07-10T08:11:54Z</time>
      </trkpt>
      <trkpt lat="41.959187" lon="2.139805">
        <time>2022-07-10T08:11:55Z</time>
      </trkpt>
      <trkpt lat="41.959145" lon="2.1397533">
        <time>2022-07-10T08:11:56Z</time>
      </trkpt>
      <trkpt lat="41.959103" lon="2.1397028">
        <time>2022-07-10T08:11:57Z</time>
      </trkpt>
      <trkpt lat="41.959064" lon="2.1396482">
        <time>2022-07-10T08:11:58Z</time>
      </trkpt>
      <trkpt lat="41.95902" lon="2.1395888">
        <time>2022-07-10T08:11:59Z</time>
      </trkpt>
      <trkpt lat="41.95897" lon="2.139537">
        <time>2022-07-10T08:12:00Z</time>
      </trkpt>
      <trkpt lat="41.95892" lon="2.1394942">
        <time>2022-07-10T08:12:01Z</time>
      </trkpt>
      <trkpt lat="41.958866" lon="2.1394625">
        <time>2022-07-10T08:12:02Z</time>
      </trkpt>
      <trkpt lat="41.95881" lon="2.1394477">
        <time>2022-07-10T08:12:03Z</time>
      </trkpt>
      <trkpt lat="41.95875" lon="2.1394506">
        <time>2022-07-10T08:12:04Z</time>
      </trkpt>
      <trkpt lat="41.958702" lon="2.1394706">
        <time>2022-07-10T08:12:05Z</time>
      </trkpt>
      <trkpt lat="41.958652" lon="2.139507">
        <time>2022-07-10T08:12:06Z</time>
      </trkpt>
      <trkpt lat="41.958607" lon="2.1395574">
        <time>2022-07-10T08:12:07Z</time>
      </trkpt>
      <trkpt lat="41.958572" lon="2.1396198">
        <time>2022-07-10T08:12:08Z</time>
      </trkpt>
      <trkpt lat="41.958538" lon="2.1396918">
        <time>2022-07-10T08:12:09Z</time>
      </trkpt>
      <trkpt lat="41.958508" lon="2.1397707">
        <time>2022-07-10T08:12:10Z</time>
      </trkpt>
      <trkpt lat="41.95848" lon="2.1398551">
        <time>2022-07-10T08:12:11Z</time>
      </trkpt>
      <trkpt lat="41.95846" lon="2.1399455">
        <time>2022-07-10T08:12:12Z</time>
      </trkpt>
      <trkpt lat="41.95844" lon="2.1400392">
        <time>2022-07-10T08:12:13Z</time>
      </trkpt>
      <trkpt lat="41.958427" lon="2.1401355">
        <time>2022-07-10T08:12:14Z</time>
      </trkpt>
      <trkpt lat="41.958416" lon="2.1402307">
        <time>2022-07-10T08:12:15Z</time>
      </trkpt>
      <trkpt lat="41.95841" lon="2.1403248">
        <time>2022-07-10T08:12:16Z</time>
      </trkpt>
      <trkpt lat="41.958397" lon="2.140418">
        <time>2022-07-10T08:12:17Z</time>
      </trkpt>
      <trkpt lat="41.958393" lon="2.14051">
        <time>2022-07-10T08:12:18Z</time>
      </trkpt>
      <trkpt lat="41.958385" lon="2.1406016">
        <time>2022-07-10T08:12:19Z</time>
      </trkpt>
      <trkpt lat="41.95838" lon="2.1406927">
        <time>2022-07-10T08:12:20Z</time>
      </trkpt>
      <trkpt lat="41.958378" lon="2.1407833">
        <time>2022-07-10T08:12:21Z</time>
      </trkpt>
      <trkpt lat="41.958374" lon="2.1408737">
        <time>2022-07-10T08:12:22Z</time>
      </trkpt>
      <trkpt lat="41.958374" lon="2.140964">
        <time>2022-07-10T08:12:23Z</time>
      </trkpt>
      <trkpt lat="41.958374" lon="2.1410544">
        <time>2022-07-10T08:12:24Z</time>
      </trkpt>
      <trkpt lat="41.958374" lon="2.1411428">
        <time>2022-07-10T08:12:25Z</time>
      </trkpt>
      <trkpt lat="41.958374" lon="2.1412308">
        <time>2022-07-10T08:12:26Z</time>
      </trkpt>
      <trkpt lat="41.958374" lon="2.1413171">
        <time>2022-07-10T08:12:27Z</time>
      </trkpt>
      <trkpt lat="41.958374" lon="2.1414025">
        <time>2022-07-10T08:12:28Z</time>
      </trkpt>
      <trkpt lat="41.958374" lon="2.141489">
        <time>2022-07-10T08:12:29Z</time>
      </trkpt>
      <trkpt lat="41.958378" lon="2.141578">
        <time>2022-07-10T08:12:30Z</time>
      </trkpt>
      <trkpt lat="41.958378" lon="2.1416688">
        <time>2022-07-10T08:12:31Z</time>
      </trkpt>
      <trkpt lat="41.958378" lon="2.1417568">
        <time>2022-07-10T08:12:32Z</time>
      </trkpt>
      <trkpt lat="41.958374" lon="2.1418443">
        <time>2022-07-10T08:12:33Z</time>
      </trkpt>
      <trkpt lat="41.95837" lon="2.1419318">
        <time>2022-07-10T08:12:34Z</time>
      </trkpt>
      <trkpt lat="41.95837" lon="2.142018">
        <time>2022-07-10T08:12:35Z</time>
      </trkpt>
      <trkpt lat="41.958366" lon="2.1421006">
        <time>2022-07-10T08:12:36Z</time>
      </trkpt>
      <trkpt lat="41.958366" lon="2.1421833">
        <time>2022-07-10T08:12:37Z</time>
      </trkpt>
      <trkpt lat="41.958363" lon="2.1422658">
        <time>2022-07-10T08:12:38Z</time>
      </trkpt>
      <trkpt lat="41.958363" lon="2.142347">
        <time>2022-07-10T08:12:39Z</time>
      </trkpt>
      <trkpt lat="41.95836" lon="2.1424286">
        <time>2022-07-10T08:12:40Z</time>
      </trkpt>
      <trkpt lat="41.958355" lon="2.1425157">
        <time>2022-07-10T08:12:41Z</time>
      </trkpt>
      <trkpt lat="41.95835" lon="2.1426">
        <time>2022-07-10T08:12:42Z</time>
      </trkpt>
      <trkpt lat="41.95835" lon="2.1426833">
        <time>2022-07-10T08:12:43Z</time>
      </trkpt>
      <trkpt lat="41.958344" lon="2.142766">
        <time>2022-07-10T08:12:44Z</time>
      </trkpt>
      <trkpt lat="41.95834" lon="2.142843">
        <time>2022-07-10T08:12:45Z</time>
      </trkpt>
      <trkpt lat="41.958332" lon="2.142921">
        <time>2022-07-10T08:12:46Z</time>
      </trkpt>
      <trkpt lat="41.958317" lon="2.143005">
        <time>2022-07-10T08:12:47Z</time>
      </trkpt>
      <trkpt lat="41.958305" lon="2.143088">
        <time>2022-07-10T08:12:48Z</time>
      </trkpt>
      <trkpt lat="41.958286" lon="2.143168">
        <time>2022-07-10T08:12:49Z</time>
      </trkpt>
      <trkpt lat="41.958263" lon="2.143245">
        <time>2022-07-10T08:12:50Z</time>
      </trkpt>
      <trkpt lat="41.95821" lon="2.143385">
        <time>2022-07-10T08:12:52Z</time>
      </trkpt>
      <trkpt lat="41.95818" lon="2.1434608">
        <time>2022-07-10T08:12:53Z</time>
      </trkpt>
      <trkpt lat="41.958145" lon="2.1435332">
        <time>2022-07-10T08:12:54Z</time>
      </trkpt>
      <trkpt lat="41.958115" lon="2.1435997">
        <time>2022-07-10T08:12:55Z</time>
      </trkpt>
      <trkpt lat="41.95808" lon="2.1436653">
        <time>2022-07-10T08:12:56Z</time>
      </trkpt>
      <trkpt lat="41.958042" lon="2.1437287">
        <time>2022-07-10T08:12:57Z</time>
      </trkpt>
      <trkpt lat="41.958004" lon="2.1437895">
        <time>2022-07-10T08:12:58Z</time>
      </trkpt>
      <trkpt lat="41.957962" lon="2.1438463">
        <time>2022-07-10T08:12:59Z</time>
      </trkpt>
      <trkpt lat="41.957916" lon="2.143898">
        <time>2022-07-10T08:13:00Z</time>
      </trkpt>
      <trkpt lat="41.95787" lon="2.1439452">
        <time>2022-07-10T08:13:01Z</time>
      </trkpt>
      <trkpt lat="41.95782" lon="2.1439886">
        <time>2022-07-10T08:13:02Z</time>
      </trkpt>
      <trkpt lat="41.95777" lon="2.1440287">
        <time>2022-07-10T08:13:03Z</time>
      </trkpt>
      <trkpt lat="41.957718" lon="2.1440682">
        <time>2022-07-10T08:13:04Z</time>
      </trkpt>
      <trkpt lat="41.95767" lon="2.144109">
        <time>2022-07-10T08:13:05Z</time>
      </trkpt>
      <trkpt lat="41.957623" lon="2.1441538">
        <time>2022-07-10T08:13:06Z</time>
      </trkpt>
      <trkpt lat="41.957584" lon="2.1441998">
        <time>2022-07-10T08:13:07Z</time>
      </trkpt>
      <trkpt lat="41.957554" lon="2.1442618">
        <time>2022-07-10T08:13:08Z</time>
      </trkpt>
      <trkpt lat="41.95754" lon="2.1443217">
        <time>2022-07-10T08:13:09Z</time>
      </trkpt>
      <trkpt lat="41.95754" lon="2.1444435">
        <time>2022-07-10T08:13:11Z</time>
      </trkpt>
      <trkpt lat="41.95758" lon="2.1445587">
        <time>2022-07-10T08:13:13Z</time>
      </trkpt>
      <trkpt lat="41.95766" lon="2.1446767">
        <time>2022-07-10T08:13:15Z</time>
      </trkpt>
      <trkpt lat="41.9577" lon="2.144733">
        <time>2022-07-10T08:13:16Z</time>
      </trkpt>
      <trkpt lat="41.957737" lon="2.1447935">
        <time>2022-07-10T08:13:17Z</time>
      </trkpt>
      <trkpt lat="41.95777" lon="2.1448586">
        <time>2022-07-10T08:13:18Z</time>
      </trkpt>
      <trkpt lat="41.957798" lon="2.1449282">
        <time>2022-07-10T08:13:19Z</time>
      </trkpt>
      <trkpt lat="41.957817" lon="2.1450002">
        <time>2022-07-10T08:13:20Z</time>
      </trkpt>
      <trkpt lat="41.957825" lon="2.1450741">
        <time>2022-07-10T08:13:21Z</time>
      </trkpt>
      <trkpt lat="41.95782" lon="2.1451468">
        <time>2022-07-10T08:13:22Z</time>
      </trkpt>
      <trkpt lat="41.95781" lon="2.1452186">
        <time>2022-07-10T08:13:23Z</time>
      </trkpt>
      <trkpt lat="41.95779" lon="2.1452875">
        <time>2022-07-10T08:13:24Z</time>
      </trkpt>
      <trkpt lat="41.957764" lon="2.145355">
        <time>2022-07-10T08:13:25Z</time>
      </trkpt>
      <trkpt lat="41.957737" lon="2.145422">
        <time>2022-07-10T08:13:26Z</time>
      </trkpt>
      <trkpt lat="41.957706" lon="2.145491">
        <time>2022-07-10T08:13:27Z</time>
      </trkpt>
      <trkpt lat="41.957672" lon="2.145557">
        <time>2022-07-10T08:13:28Z</time>
      </trkpt>
      <trkpt lat="41.957638" lon="2.1456256">
        <time>2022-07-10T08:13:29Z</time>
      </trkpt>
      <trkpt lat="41.957603" lon="2.1456943">
        <time>2022-07-10T08:13:30Z</time>
      </trkpt>
      <trkpt lat="41.95757" lon="2.1457636">
        <time>2022-07-10T08:13:31Z</time>
      </trkpt>
      <trkpt lat="41.95753" lon="2.1458383">
        <time>2022-07-10T08:13:32Z</time>
      </trkpt>
      <trkpt lat="41.95749" lon="2.1459115">
        <time>2022-07-10T08:13:33Z</time>
      </trkpt>
      <trkpt lat="41.95745" lon="2.1459856">
        <time>2022-07-10T08:13:34Z</time>
      </trkpt>
      <trkpt lat="41.95741" lon="2.1460598">
        <time>2022-07-10T08:13:35Z</time>
      </trkpt>
      <trkpt lat="41.957375" lon="2.1461325">
        <time>2022-07-10T08:13:36Z</time>
      </trkpt>
      <trkpt lat="41.957344" lon="2.146207">
        <time>2022-07-10T08:13:37Z</time>
      </trkpt>
      <trkpt lat="41.957314" lon="2.1462865">
        <time>2022-07-10T08:13:38Z</time>
      </trkpt>
      <trkpt lat="41.957287" lon="2.14637">
        <time>2022-07-10T08:13:39Z</time>
      </trkpt>
      <trkpt lat="41.957268" lon="2.1464548">
        <time>2022-07-10T08:13:40Z</time>
      </trkpt>
      <trkpt lat="41.95725" lon="2.1465416">
        <time>2022-07-10T08:13:41Z</time>
      </trkpt>
      <trkpt lat="41.957237" lon="2.14663">
        <time>2022-07-10T08:13:42Z</time>
      </trkpt>
      <trkpt lat="41.95723" lon="2.1467211">
        <time>2022-07-10T08:13:43Z</time>
      </trkpt>
      <trkpt lat="41.95723" lon="2.1468122">
        <time>2022-07-10T08:13:44Z</time>
      </trkpt>
      <trkpt lat="41.957233" lon="2.1468976">
        <time>2022-07-10T08:13:45Z</time>
      </trkpt>
      <trkpt lat="41.95724" lon="2.1469848">
        <time>2022-07-10T08:13:46Z</time>
      </trkpt>
      <trkpt lat="41.957256" lon="2.1470797">
        <time>2022-07-10T08:13:47Z</time>
      </trkpt>
      <trkpt lat="41.957275" lon="2.1471741">
        <time>2022-07-10T08:13:48Z</time>
      </trkpt>
      <trkpt lat="41.9573" lon="2.1472685">
        <time>2022-07-10T08:13:49Z</time>
      </trkpt>
      <trkpt lat="41.95732" lon="2.1473622">
        <time>2022-07-10T08:13:50Z</time>
      </trkpt>
      <trkpt lat="41.957344" lon="2.147454">
        <time>2022-07-10T08:13:51Z</time>
      </trkpt>
      <trkpt lat="41.95737" lon="2.1475441">
        <time>2022-07-10T08:13:52Z</time>
      </trkpt>
      <trkpt lat="41.957397" lon="2.147634">
        <time>2022-07-10T08:13:53Z</time>
      </trkpt>
      <trkpt lat="41.957428" lon="2.1477244">
        <time>2022-07-10T08:13:54Z</time>
      </trkpt>
      <trkpt lat="41.957455" lon="2.1478138">
        <time>2022-07-10T08:13:55Z</time>
      </trkpt>
      <trkpt lat="41.957508" lon="2.147992">
        <time>2022-07-10T08:13:57Z</time>
      </trkpt>
      <trkpt lat="41.957535" lon="2.14808">
        <time>2022-07-10T08:13:58Z</time>
      </trkpt>
      <trkpt lat="41.957558" lon="2.1481614">
        <time>2022-07-10T08:13:59Z</time>
      </trkpt>
      <trkpt lat="41.957584" lon="2.1482456">
        <time>2022-07-10T08:14:00Z</time>
      </trkpt>
      <trkpt lat="41.957607" lon="2.1483357">
        <time>2022-07-10T08:14:01Z</time>
      </trkpt>
      <trkpt lat="41.957638" lon="2.1484241">
        <time>2022-07-10T08:14:02Z</time>
      </trkpt>
      <trkpt lat="41.95766" lon="2.1485054">
        <time>2022-07-10T08:14:03Z</time>
      </trkpt>
      <trkpt lat="41.957687" lon="2.148589">
        <time>2022-07-10T08:14:04Z</time>
      </trkpt>
      <trkpt lat="41.957718" lon="2.1486723">
        <time>2022-07-10T08:14:05Z</time>
      </trkpt>
      <trkpt lat="41.95774" lon="2.148756">
        <time>2022-07-10T08:14:06Z</time>
      </trkpt>
      <trkpt lat="41.957767" lon="2.1488404">
        <time>2022-07-10T08:14:07Z</time>
      </trkpt>
      <trkpt lat="41.957794" lon="2.1489267">
        <time>2022-07-10T08:14:08Z</time>
      </trkpt>
      <trkpt lat="41.95782" lon="2.1490135">
        <time>2022-07-10T08:14:09Z</time>
      </trkpt>
      <trkpt lat="41.957848" lon="2.1490993">
        <time>2022-07-10T08:14:10Z</time>
      </trkpt>
      <trkpt lat="41.95787" lon="2.1491861">
        <time>2022-07-10T08:14:11Z</time>
      </trkpt>
      <trkpt lat="41.957897" lon="2.1492734">
        <time>2022-07-10T08:14:12Z</time>
      </trkpt>
      <trkpt lat="41.957924" lon="2.1493604">
        <time>2022-07-10T08:14:13Z</time>
      </trkpt>
      <trkpt lat="41.957947" lon="2.1494467">
        <time>2022-07-10T08:14:14Z</time>
      </trkpt>
      <trkpt lat="41.957973" lon="2.1495337">
        <time>2022-07-10T08:14:15Z</time>
      </trkpt>
      <trkpt lat="41.958" lon="2.1496224">
        <time>2022-07-10T08:14:16Z</time>
      </trkpt>
      <trkpt lat="41.95802" lon="2.149712">
        <time>2022-07-10T08:14:17Z</time>
      </trkpt>
      <trkpt lat="41.958035" lon="2.1498024">
        <time>2022-07-10T08:14:18Z</time>
      </trkpt>
      <trkpt lat="41.958042" lon="2.149899">
        <time>2022-07-10T08:14:19Z</time>
      </trkpt>
      <trkpt lat="41.95804" lon="2.149988">
        <time>2022-07-10T08:14:20Z</time>
      </trkpt>
      <trkpt lat="41.95803" lon="2.1500764">
        <time>2022-07-10T08:14:21Z</time>
      </trkpt>
      <trkpt lat="41.95801" lon="2.1501684">
        <time>2022-07-10T08:14:22Z</time>
      </trkpt>
      <trkpt lat="41.95798" lon="2.1502533">
        <time>2022-07-10T08:14:23Z</time>
      </trkpt>
      <trkpt lat="41.957947" lon="2.150332">
        <time>2022-07-10T08:14:24Z</time>
      </trkpt>
      <trkpt lat="41.957905" lon="2.1504064">
        <time>2022-07-10T08:14:25Z</time>
      </trkpt>
      <trkpt lat="41.95786" lon="2.1504774">
        <time>2022-07-10T08:14:26Z</time>
      </trkpt>
      <trkpt lat="41.95781" lon="2.150544">
        <time>2022-07-10T08:14:27Z</time>
      </trkpt>
      <trkpt lat="41.957756" lon="2.1506066">
        <time>2022-07-10T08:14:28Z</time>
      </trkpt>
      <trkpt lat="41.957695" lon="2.1506677">
        <time>2022-07-10T08:14:29Z</time>
      </trkpt>
      <trkpt lat="41.957638" lon="2.150728">
        <time>2022-07-10T08:14:30Z</time>
      </trkpt>
      <trkpt lat="41.957577" lon="2.1507883">
        <time>2022-07-10T08:14:31Z</time>
      </trkpt>
      <trkpt lat="41.957516" lon="2.1508496">
        <time>2022-07-10T08:14:32Z</time>
      </trkpt>
      <trkpt lat="41.95745" lon="2.15091">
        <time>2022-07-10T08:14:33Z</time>
      </trkpt>
      <trkpt lat="41.957386" lon="2.1509705">
        <time>2022-07-10T08:14:34Z</time>
      </trkpt>
      <trkpt lat="41.95732" lon="2.151031">
        <time>2022-07-10T08:14:35Z</time>
      </trkpt>
      <trkpt lat="41.957264" lon="2.1510894">
        <time>2022-07-10T08:14:36Z</time>
      </trkpt>
      <trkpt lat="41.957203" lon="2.1511514">
        <time>2022-07-10T08:14:37Z</time>
      </trkpt>
      <trkpt lat="41.95714" lon="2.1512156">
        <time>2022-07-10T08:14:38Z</time>
      </trkpt>
      <trkpt lat="41.957073" lon="2.1512797">
        <time>2022-07-10T08:14:39Z</time>
      </trkpt>
      <trkpt lat="41.957005" lon="2.151347">
        <time>2022-07-10T08:14:40Z</time>
      </trkpt>
      <trkpt lat="41.956936" lon="2.151409">
        <time>2022-07-10T08:14:41Z</time>
      </trkpt>
      <trkpt lat="41.956863" lon="2.1514697">
        <time>2022-07-10T08:14:42Z</time>
      </trkpt>
      <trkpt lat="41.956795" lon="2.1515284">
        <time>2022-07-10T08:14:43Z</time>
      </trkpt>
      <trkpt lat="41.956722" lon="2.151586">
        <time>2022-07-10T08:14:44Z</time>
      </trkpt>
      <trkpt lat="41.956646" lon="2.151641">
        <time>2022-07-10T08:14:45Z</time>
      </trkpt>
      <trkpt lat="41.956566" lon="2.1516953">
        <time>2022-07-10T08:14:46Z</time>
      </trkpt>
      <trkpt lat="41.95649" lon="2.1517496">
        <time>2022-07-10T08:14:47Z</time>
      </trkpt>
      <trkpt lat="41.95641" lon="2.151799">
        <time>2022-07-10T08:14:48Z</time>
      </trkpt>
      <trkpt lat="41.956326" lon="2.1518424">
        <time>2022-07-10T08:14:49Z</time>
      </trkpt>
      <trkpt lat="41.956238" lon="2.1518786">
        <time>2022-07-10T08:14:50Z</time>
      </trkpt>
      <trkpt lat="41.956146" lon="2.1519089">
        <time>2022-07-10T08:14:51Z</time>
      </trkpt>
      <trkpt lat="41.95605" lon="2.1519306">
        <time>2022-07-10T08:14:52Z</time>
      </trkpt>
      <trkpt lat="41.955956" lon="2.1519425">
        <time>2022-07-10T08:14:53Z</time>
      </trkpt>
      <trkpt lat="41.95586" lon="2.1519413">
        <time>2022-07-10T08:14:54Z</time>
      </trkpt>
      <trkpt lat="41.955765" lon="2.1519244">
        <time>2022-07-10T08:14:55Z</time>
      </trkpt>
      <trkpt lat="41.955677" lon="2.1518862">
        <time>2022-07-10T08:14:56Z</time>
      </trkpt>
      <trkpt lat="41.955597" lon="2.1518269">
        <time>2022-07-10T08:14:57Z</time>
      </trkpt>
      <trkpt lat="41.955532" lon="2.1517472">
        <time>2022-07-10T08:14:58Z</time>
      </trkpt>
      <trkpt lat="41.955482" lon="2.1516492">
        <time>2022-07-10T08:14:59Z</time>
      </trkpt>
      <trkpt lat="41.955452" lon="2.1515386">
        <time>2022-07-10T08:15:00Z</time>
      </trkpt>
      <trkpt lat="41.95544" lon="2.1514223">
        <time>2022-07-10T08:15:01Z</time>
      </trkpt>
      <trkpt lat="41.95545" lon="2.1513047">
        <time>2022-07-10T08:15:02Z</time>
      </trkpt>
      <trkpt lat="41.95551" lon="2.151078">
        <time>2022-07-10T08:15:04Z</time>
      </trkpt>
      <trkpt lat="41.95556" lon="2.1509717">
        <time>2022-07-10T08:15:05Z</time>
      </trkpt>
      <trkpt lat="41.955612" lon="2.150868">
        <time>2022-07-10T08:15:06Z</time>
      </trkpt>
      <trkpt lat="41.955673" lon="2.150766">
        <time>2022-07-10T08:15:07Z</time>
      </trkpt>
      <trkpt lat="41.95574" lon="2.150666">
        <time>2022-07-10T08:15:08Z</time>
      </trkpt>
      <trkpt lat="41.955814" lon="2.150568">
        <time>2022-07-10T08:15:09Z</time>
      </trkpt>
      <trkpt lat="41.95589" lon="2.1504714">
        <time>2022-07-10T08:15:10Z</time>
      </trkpt>
      <trkpt lat="41.955967" lon="2.1503744">
        <time>2022-07-10T08:15:11Z</time>
      </trkpt>
      <trkpt lat="41.95604" lon="2.150277">
        <time>2022-07-10T08:15:12Z</time>
      </trkpt>
      <trkpt lat="41.956112" lon="2.1501787">
        <time>2022-07-10T08:15:13Z</time>
      </trkpt>
      <trkpt lat="41.95618" lon="2.150081">
        <time>2022-07-10T08:15:14Z</time>
      </trkpt>
      <trkpt lat="41.95625" lon="2.14999">
        <time>2022-07-10T08:15:15Z</time>
      </trkpt>
      <trkpt lat="41.956318" lon="2.1498907">
        <time>2022-07-10T08:15:16Z</time>
      </trkpt>
      <trkpt lat="41.95639" lon="2.1497912">
        <time>2022-07-10T08:15:17Z</time>
      </trkpt>
      <trkpt lat="41.956455" lon="2.1496904">
        <time>2022-07-10T08:15:18Z</time>
      </trkpt>
      <trkpt lat="41.956516" lon="2.1495883">
        <time>2022-07-10T08:15:19Z</time>
      </trkpt>
      <trkpt lat="41.956562" lon="2.1494753">
        <time>2022-07-10T08:15:20Z</time>
      </trkpt>
      <trkpt lat="41.956585" lon="2.1493611">
        <time>2022-07-10T08:15:21Z</time>
      </trkpt>
      <trkpt lat="41.956593" lon="2.149256">
        <time>2022-07-10T08:15:22Z</time>
      </trkpt>
      <trkpt lat="41.956573" lon="2.149146">
        <time>2022-07-10T08:15:23Z</time>
      </trkpt>
      <trkpt lat="41.95654" lon="2.1490397">
        <time>2022-07-10T08:15:24Z</time>
      </trkpt>
      <trkpt lat="41.956493" lon="2.1489391">
        <time>2022-07-10T08:15:25Z</time>
      </trkpt>
      <trkpt lat="41.956444" lon="2.1488488">
        <time>2022-07-10T08:15:26Z</time>
      </trkpt>
      <trkpt lat="41.956387" lon="2.1487591">
        <time>2022-07-10T08:15:27Z</time>
      </trkpt>
      <trkpt lat="41.95632" lon="2.1486633">
        <time>2022-07-10T08:15:28Z</time>
      </trkpt>
      <trkpt lat="41.956047" lon="2.1482856">
        <time>2022-07-10T08:15:30Z</time>
      </trkpt>
      <trkpt lat="41.95603" lon="2.148268">
        <time>2022-07-10T08:15:31Z</time>
      </trkpt>
      <trkpt lat="41.955944" lon="2.148158">
        <time>2022-07-10T08:15:33Z</time>
      </trkpt>
      <trkpt lat="41.955887" lon="2.1480834">
        <time>2022-07-10T08:15:34Z</time>
      </trkpt>
      <trkpt lat="41.955822" lon="2.1480005">
        <time>2022-07-10T08:15:35Z</time>
      </trkpt>
      <trkpt lat="41.955765" lon="2.1479177">
        <time>2022-07-10T08:15:36Z</time>
      </trkpt>
      <trkpt lat="41.955704" lon="2.147828">
        <time>2022-07-10T08:15:37Z</time>
      </trkpt>
      <trkpt lat="41.955643" lon="2.1477342">
        <time>2022-07-10T08:15:38Z</time>
      </trkpt>
      <trkpt lat="41.955585" lon="2.1476345">
        <time>2022-07-10T08:15:39Z</time>
      </trkpt>
      <trkpt lat="41.95553" lon="2.1475244">
        <time>2022-07-10T08:15:40Z</time>
      </trkpt>
      <trkpt lat="41.955475" lon="2.1474214">
        <time>2022-07-10T08:15:41Z</time>
      </trkpt>
      <trkpt lat="41.955425" lon="2.1473174">
        <time>2022-07-10T08:15:42Z</time>
      </trkpt>
      <trkpt lat="41.955368" lon="2.147216">
        <time>2022-07-10T08:15:43Z</time>
      </trkpt>
      <trkpt lat="41.955303" lon="2.1471179">
        <time>2022-07-10T08:15:44Z</time>
      </trkpt>
      <trkpt lat="41.955235" lon="2.14703">
        <time>2022-07-10T08:15:45Z</time>
      </trkpt>
      <trkpt lat="41.95516" lon="2.1469555">
        <time>2022-07-10T08:15:46Z</time>
      </trkpt>
      <trkpt lat="41.955082" lon="2.146897">
        <time>2022-07-10T08:15:47Z</time>
      </trkpt>
      <trkpt lat="41.955" lon="2.1468484">
        <time>2022-07-10T08:15:48Z</time>
      </trkpt>
      <trkpt lat="41.954914" lon="2.146809">
        <time>2022-07-10T08:15:49Z</time>
      </trkpt>
      <trkpt lat="41.95482" lon="2.1467721">
        <time>2022-07-10T08:15:50Z</time>
      </trkpt>
      <trkpt lat="41.954727" lon="2.1467338">
        <time>2022-07-10T08:15:51Z</time>
      </trkpt>
      <trkpt lat="41.954643" lon="2.1466908">
        <time>2022-07-10T08:15:52Z</time>
      </trkpt>
      <trkpt lat="41.954567" lon="2.1466327">
        <time>2022-07-10T08:15:53Z</time>
      </trkpt>
      <trkpt lat="41.954502" lon="2.1465595">
        <time>2022-07-10T08:15:54Z</time>
      </trkpt>
      <trkpt lat="41.95446" lon="2.1464717">
        <time>2022-07-10T08:15:55Z</time>
      </trkpt>
      <trkpt lat="41.95444" lon="2.146368">
        <time>2022-07-10T08:15:56Z</time>
      </trkpt>
      <trkpt lat="41.954445" lon="2.1462748">
        <time>2022-07-10T08:15:57Z</time>
      </trkpt>
      <trkpt lat="41.95447" lon="2.146186">
        <time>2022-07-10T08:15:58Z</time>
      </trkpt>
      <trkpt lat="41.954517" lon="2.1460965">
        <time>2022-07-10T08:15:59Z</time>
      </trkpt>
      <trkpt lat="41.95457" lon="2.1460109">
        <time>2022-07-10T08:16:00Z</time>
      </trkpt>
      <trkpt lat="41.954628" lon="2.1459348">
        <time>2022-07-10T08:16:01Z</time>
      </trkpt>
      <trkpt lat="41.954693" lon="2.1458583">
        <time>2022-07-10T08:16:02Z</time>
      </trkpt>
      <trkpt lat="41.954758" lon="2.14578">
        <time>2022-07-10T08:16:03Z</time>
      </trkpt>
      <trkpt lat="41.95482" lon="2.1456988">
        <time>2022-07-10T08:16:04Z</time>
      </trkpt>
      <trkpt lat="41.954872" lon="2.1456141">
        <time>2022-07-10T08:16:05Z</time>
      </trkpt>
      <trkpt lat="41.954906" lon="2.1455228">
        <time>2022-07-10T08:16:06Z</time>
      </trkpt>
      <trkpt lat="41.954906" lon="2.1453505">
        <time>2022-07-10T08:16:08Z</time>
      </trkpt>
      <trkpt lat="41.95487" lon="2.1452825">
        <time>2022-07-10T08:16:09Z</time>
      </trkpt>
      <trkpt lat="41.954815" lon="2.1452365">
        <time>2022-07-10T08:16:10Z</time>
      </trkpt>
      <trkpt lat="41.95475" lon="2.1452112">
        <time>2022-07-10T08:16:11Z</time>
      </trkpt>
      <trkpt lat="41.954678" lon="2.1452012">
        <time>2022-07-10T08:16:12Z</time>
      </trkpt>
      <trkpt lat="41.9546" lon="2.1452022">
        <time>2022-07-10T08:16:13Z</time>
      </trkpt>
      <trkpt lat="41.954525" lon="2.1452081">
        <time>2022-07-10T08:16:14Z</time>
      </trkpt>
      <trkpt lat="41.954433" lon="2.1452208">
        <time>2022-07-10T08:16:15Z</time>
      </trkpt>
      <trkpt lat="41.95435" lon="2.1452413">
        <time>2022-07-10T08:16:16Z</time>
      </trkpt>
      <trkpt lat="41.954266" lon="2.1452749">
        <time>2022-07-10T08:16:17Z</time>
      </trkpt>
      <trkpt lat="41.954185" lon="2.1453233">
        <time>2022-07-10T08:16:18Z</time>
      </trkpt>
      <trkpt lat="41.954113" lon="2.145392">
        <time>2022-07-10T08:16:19Z</time>
      </trkpt>
      <trkpt lat="41.95405" lon="2.1454737">
        <time>2022-07-10T08:16:20Z</time>
      </trkpt>
      <trkpt lat="41.954" lon="2.145568">
        <time>2022-07-10T08:16:21Z</time>
      </trkpt>
      <trkpt lat="41.953953" lon="2.145672">
        <time>2022-07-10T08:16:22Z</time>
      </trkpt>
      <trkpt lat="41.95392" lon="2.145784">
        <time>2022-07-10T08:16:23Z</time>
      </trkpt>
      <trkpt lat="41.95389" lon="2.1458995">
        <time>2022-07-10T08:16:24Z</time>
      </trkpt>
      <trkpt lat="41.953865" lon="2.1460211">
        <time>2022-07-10T08:16:25Z</time>
      </trkpt>
      <trkpt lat="41.953846" lon="2.146146">
        <time>2022-07-10T08:16:26Z</time>
      </trkpt>
      <trkpt lat="41.95383" lon="2.1462789">
        <time>2022-07-10T08:16:27Z</time>
      </trkpt>
      <trkpt lat="41.95381" lon="2.1464102">
        <time>2022-07-10T08:16:28Z</time>
      </trkpt>
      <trkpt lat="41.953796" lon="2.1465409">
        <time>2022-07-10T08:16:29Z</time>
      </trkpt>
      <trkpt lat="41.953785" lon="2.1466627">
        <time>2022-07-10T08:16:30Z</time>
      </trkpt>
      <trkpt lat="41.953762" lon="2.1467955">
        <time>2022-07-10T08:16:31Z</time>
      </trkpt>
      <trkpt lat="41.95374" lon="2.1469252">
        <time>2022-07-10T08:16:32Z</time>
      </trkpt>
      <trkpt lat="41.95371" lon="2.147047">
        <time>2022-07-10T08:16:33Z</time>
      </trkpt>
      <trkpt lat="41.953667" lon="2.1471608">
        <time>2022-07-10T08:16:34Z</time>
      </trkpt>
      <trkpt lat="41.95362" lon="2.1472607">
        <time>2022-07-10T08:16:35Z</time>
      </trkpt>
      <trkpt lat="41.953564" lon="2.1473625">
        <time>2022-07-10T08:16:36Z</time>
      </trkpt>
      <trkpt lat="41.953503" lon="2.147458">
        <time>2022-07-10T08:16:37Z</time>
      </trkpt>
      <trkpt lat="41.953438" lon="2.1475494">
        <time>2022-07-10T08:16:38Z</time>
      </trkpt>
      <trkpt lat="41.95337" lon="2.1476383">
        <time>2022-07-10T08:16:39Z</time>
      </trkpt>
      <trkpt lat="41.9533" lon="2.1477253">
        <time>2022-07-10T08:16:40Z</time>
      </trkpt>
      <trkpt lat="41.953228" lon="2.1478107">
        <time>2022-07-10T08:16:41Z</time>
      </trkpt>
      <trkpt lat="41.95316" lon="2.1478953">
        <time>2022-07-10T08:16:42Z</time>
      </trkpt>
      <trkpt lat="41.953087" lon="2.1479814">
        <time>2022-07-10T08:16:43Z</time>
      </trkpt>
      <trkpt lat="41.953014" lon="2.1480684">
        <time>2022-07-10T08:16:44Z</time>
      </trkpt>
      <trkpt lat="41.952946" lon="2.1481578">
        <time>2022-07-10T08:16:45Z</time>
      </trkpt>
      <trkpt lat="41.952877" lon="2.14825">
        <time>2022-07-10T08:16:46Z</time>
      </trkpt>
      <trkpt lat="41.952824" lon="2.148339">
        <time>2022-07-10T08:16:47Z</time>
      </trkpt>
      <trkpt lat="41.952763" lon="2.1484396">
        <time>2022-07-10T08:16:48Z</time>
      </trkpt>
      <trkpt lat="41.95271" lon="2.14854">
        <time>2022-07-10T08:16:49Z</time>
      </trkpt>
      <trkpt lat="41.952656" lon="2.1486413">
        <time>2022-07-10T08:16:50Z</time>
      </trkpt>
      <trkpt lat="41.95261" lon="2.1487358">
        <time>2022-07-10T08:16:51Z</time>
      </trkpt>
      <trkpt lat="41.95256" lon="2.1488323">
        <time>2022-07-10T08:16:52Z</time>
      </trkpt>
      <trkpt lat="41.952515" lon="2.1489308">
        <time>2022-07-10T08:16:53Z</time>
      </trkpt>
      <trkpt lat="41.95247" lon="2.149031">
        <time>2022-07-10T08:16:54Z</time>
      </trkpt>
      <trkpt lat="41.95243" lon="2.149136">
        <time>2022-07-10T08:16:55Z</time>
      </trkpt>
      <trkpt lat="41.952393" lon="2.1492457">
        <time>2022-07-10T08:16:56Z</time>
      </trkpt>
      <trkpt lat="41.95237" lon="2.1493587">
        <time>2022-07-10T08:16:57Z</time>
      </trkpt>
      <trkpt lat="41.952362" lon="2.1494725">
        <time>2022-07-10T08:16:58Z</time>
      </trkpt>
      <trkpt lat="41.95237" lon="2.149581">
        <time>2022-07-10T08:16:59Z</time>
      </trkpt>
      <trkpt lat="41.952396" lon="2.1496785">
        <time>2022-07-10T08:17:00Z</time>
      </trkpt>
      <trkpt lat="41.95245" lon="2.1497602">
        <time>2022-07-10T08:17:01Z</time>
      </trkpt>
      <trkpt lat="41.952515" lon="2.1498234">
        <time>2022-07-10T08:17:02Z</time>
      </trkpt>
      <trkpt lat="41.952587" lon="2.1498764">
        <time>2022-07-10T08:17:03Z</time>
      </trkpt>
      <trkpt lat="41.952663" lon="2.1499248">
        <time>2022-07-10T08:17:04Z</time>
      </trkpt>
      <trkpt lat="41.952736" lon="2.149978">
        <time>2022-07-10T08:17:05Z</time>
      </trkpt>
      <trkpt lat="41.952793" lon="2.150041">
        <time>2022-07-10T08:17:06Z</time>
      </trkpt>
      <trkpt lat="41.952835" lon="2.150108">
        <time>2022-07-10T08:17:07Z</time>
      </trkpt>
      <trkpt lat="41.95285" lon="2.1501894">
        <time>2022-07-10T08:17:08Z</time>
      </trkpt>
      <trkpt lat="41.952843" lon="2.1502707">
        <time>2022-07-10T08:17:09Z</time>
      </trkpt>
      <trkpt lat="41.952816" lon="2.1503468">
        <time>2022-07-10T08:17:10Z</time>
      </trkpt>
      <trkpt lat="41.952724" lon="2.1504807">
        <time>2022-07-10T08:17:12Z</time>
      </trkpt>
      <trkpt lat="41.952667" lon="2.150546">
        <time>2022-07-10T08:17:13Z</time>
      </trkpt>
      <trkpt lat="41.952595" lon="2.1506152">
        <time>2022-07-10T08:17:14Z</time>
      </trkpt>
      <trkpt lat="41.952522" lon="2.150677">
        <time>2022-07-10T08:17:15Z</time>
      </trkpt>
      <trkpt lat="41.952442" lon="2.1507406">
        <time>2022-07-10T08:17:16Z</time>
      </trkpt>
      <trkpt lat="41.952354" lon="2.1507967">
        <time>2022-07-10T08:17:17Z</time>
      </trkpt>
      <trkpt lat="41.952263" lon="2.1508443">
        <time>2022-07-10T08:17:18Z</time>
      </trkpt>
      <trkpt lat="41.95217" lon="2.150882">
        <time>2022-07-10T08:17:19Z</time>
      </trkpt>
      <trkpt lat="41.952076" lon="2.1509087">
        <time>2022-07-10T08:17:20Z</time>
      </trkpt>
      <trkpt lat="41.951977" lon="2.1509256">
        <time>2022-07-10T08:17:21Z</time>
      </trkpt>
      <trkpt lat="41.951878" lon="2.1509383">
        <time>2022-07-10T08:17:22Z</time>
      </trkpt>
      <trkpt lat="41.95178" lon="2.1509485">
        <time>2022-07-10T08:17:23Z</time>
      </trkpt>
      <trkpt lat="41.95168" lon="2.150958">
        <time>2022-07-10T08:17:24Z</time>
      </trkpt>
      <trkpt lat="41.95158" lon="2.1509635">
        <time>2022-07-10T08:17:25Z</time>
      </trkpt>
      <trkpt lat="41.95148" lon="2.150967">
        <time>2022-07-10T08:17:26Z</time>
      </trkpt>
      <trkpt lat="41.95138" lon="2.1509693">
        <time>2022-07-10T08:17:27Z</time>
      </trkpt>
      <trkpt lat="41.951283" lon="2.150975">
        <time>2022-07-10T08:17:28Z</time>
      </trkpt>
      <trkpt lat="41.951187" lon="2.1509883">
        <time>2022-07-10T08:17:29Z</time>
      </trkpt>
      <trkpt lat="41.95109" lon="2.1510112">
        <time>2022-07-10T08:17:30Z</time>
      </trkpt>
      <trkpt lat="41.951" lon="2.151049">
        <time>2022-07-10T08:17:31Z</time>
      </trkpt>
      <trkpt lat="41.950916" lon="2.1511018">
        <time>2022-07-10T08:17:32Z</time>
      </trkpt>
      <trkpt lat="41.950836" lon="2.151171">
        <time>2022-07-10T08:17:33Z</time>
      </trkpt>
      <trkpt lat="41.95077" lon="2.1512446">
        <time>2022-07-10T08:17:34Z</time>
      </trkpt>
      <trkpt lat="41.950703" lon="2.1513367">
        <time>2022-07-10T08:17:35Z</time>
      </trkpt>
      <trkpt lat="41.95064" lon="2.1514363">
        <time>2022-07-10T08:17:36Z</time>
      </trkpt>
      <trkpt lat="41.95058" lon="2.1515393">
        <time>2022-07-10T08:17:37Z</time>
      </trkpt>
      <trkpt lat="41.950527" lon="2.1516466">
        <time>2022-07-10T08:17:38Z</time>
      </trkpt>
      <trkpt lat="41.950474" lon="2.151759">
        <time>2022-07-10T08:17:39Z</time>
      </trkpt>
      <trkpt lat="41.950424" lon="2.151872">
        <time>2022-07-10T08:17:40Z</time>
      </trkpt>
      <trkpt lat="41.950375" lon="2.1519835">
        <time>2022-07-10T08:17:41Z</time>
      </trkpt>
      <trkpt lat="41.95033" lon="2.1520982">
        <time>2022-07-10T08:17:42Z</time>
      </trkpt>
      <trkpt lat="41.95029" lon="2.1522155">
        <time>2022-07-10T08:17:43Z</time>
      </trkpt>
      <trkpt lat="41.950264" lon="2.1523335">
        <time>2022-07-10T08:17:44Z</time>
      </trkpt>
      <trkpt lat="41.95025" lon="2.152444">
        <time>2022-07-10T08:17:45Z</time>
      </trkpt>
      <trkpt lat="41.950253" lon="2.152555">
        <time>2022-07-10T08:17:46Z</time>
      </trkpt>
      <trkpt lat="41.950268" lon="2.1526632">
        <time>2022-07-10T08:17:47Z</time>
      </trkpt>
      <trkpt lat="41.950294" lon="2.1527708">
        <time>2022-07-10T08:17:48Z</time>
      </trkpt>
      <trkpt lat="41.95033" lon="2.1528802">
        <time>2022-07-10T08:17:49Z</time>
      </trkpt>
      <trkpt lat="41.95035" lon="2.152993">
        <time>2022-07-10T08:17:50Z</time>
      </trkpt>
      <trkpt lat="41.950363" lon="2.153107">
        <time>2022-07-10T08:17:51Z</time>
      </trkpt>
      <trkpt lat="41.95036" lon="2.1532178">
        <time>2022-07-10T08:17:52Z</time>
      </trkpt>
      <trkpt lat="41.950336" lon="2.1533217">
        <time>2022-07-10T08:17:53Z</time>
      </trkpt>
      <trkpt lat="41.950294" lon="2.1534226">
        <time>2022-07-10T08:17:54Z</time>
      </trkpt>
      <trkpt lat="41.95025" lon="2.1535091">
        <time>2022-07-10T08:17:55Z</time>
      </trkpt>
      <trkpt lat="41.95019" lon="2.1535914">
        <time>2022-07-10T08:17:56Z</time>
      </trkpt>
      <trkpt lat="41.95013" lon="2.1536756">
        <time>2022-07-10T08:17:57Z</time>
      </trkpt>
      <trkpt lat="41.95006" lon="2.1537569">
        <time>2022-07-10T08:17:58Z</time>
      </trkpt>
      <trkpt lat="41.95" lon="2.153832">
        <time>2022-07-10T08:17:59Z</time>
      </trkpt>
      <trkpt lat="41.949936" lon="2.153907">
        <time>2022-07-10T08:18:00Z</time>
      </trkpt>
      <trkpt lat="41.949867" lon="2.153984">
        <time>2022-07-10T08:18:01Z</time>
      </trkpt>
      <trkpt lat="41.9498" lon="2.1540666">
        <time>2022-07-10T08:18:02Z</time>
      </trkpt>
      <trkpt lat="41.949726" lon="2.1541603">
        <time>2022-07-10T08:18:03Z</time>
      </trkpt>
      <trkpt lat="41.94966" lon="2.1542516">
        <time>2022-07-10T08:18:04Z</time>
      </trkpt>
      <trkpt lat="41.949608" lon="2.1543539">
        <time>2022-07-10T08:18:05Z</time>
      </trkpt>
      <trkpt lat="41.949562" lon="2.1544676">
        <time>2022-07-10T08:18:06Z</time>
      </trkpt>
      <trkpt lat="41.949535" lon="2.1545901">
        <time>2022-07-10T08:18:07Z</time>
      </trkpt>
      <trkpt lat="41.949528" lon="2.1547291">
        <time>2022-07-10T08:18:08Z</time>
      </trkpt>
      <trkpt lat="41.949535" lon="2.1548688">
        <time>2022-07-10T08:18:09Z</time>
      </trkpt>
      <trkpt lat="41.94956" lon="2.1550097">
        <time>2022-07-10T08:18:10Z</time>
      </trkpt>
      <trkpt lat="41.949585" lon="2.155152">
        <time>2022-07-10T08:18:11Z</time>
      </trkpt>
      <trkpt lat="41.949608" lon="2.1552875">
        <time>2022-07-10T08:18:12Z</time>
      </trkpt>
      <trkpt lat="41.949627" lon="2.1554408">
        <time>2022-07-10T08:18:13Z</time>
      </trkpt>
      <trkpt lat="41.949635" lon="2.1555965">
        <time>2022-07-10T08:18:14Z</time>
      </trkpt>
      <trkpt lat="41.949635" lon="2.155753">
        <time>2022-07-10T08:18:15Z</time>
      </trkpt>
      <trkpt lat="41.94962" lon="2.1559088">
        <time>2022-07-10T08:18:16Z</time>
      </trkpt>
      <trkpt lat="41.9496" lon="2.1560652">
        <time>2022-07-10T08:18:17Z</time>
      </trkpt>
      <trkpt lat="41.949574" lon="2.156224">
        <time>2022-07-10T08:18:18Z</time>
      </trkpt>
      <trkpt lat="41.9495" lon="2.1565285">
        <time>2022-07-10T08:18:20Z</time>
      </trkpt>
      <trkpt lat="41.949448" lon="2.1566744">
        <time>2022-07-10T08:18:21Z</time>
      </trkpt>
      <trkpt lat="41.949387" lon="2.156809">
        <time>2022-07-10T08:18:22Z</time>
      </trkpt>
      <trkpt lat="41.94932" lon="2.1569264">
        <time>2022-07-10T08:18:23Z</time>
      </trkpt>
      <trkpt lat="41.949253" lon="2.157048">
        <time>2022-07-10T08:18:24Z</time>
      </trkpt>
      <trkpt lat="41.949184" lon="2.1571677">
        <time>2022-07-10T08:18:25Z</time>
      </trkpt>
      <trkpt lat="41.949127" lon="2.15729">
        <time>2022-07-10T08:18:26Z</time>
      </trkpt>
      <trkpt lat="41.94908" lon="2.157418">
        <time>2022-07-10T08:18:27Z</time>
      </trkpt>
      <trkpt lat="41.949047" lon="2.1575503">
        <time>2022-07-10T08:18:28Z</time>
      </trkpt>
      <trkpt lat="41.949017" lon="2.1576881">
        <time>2022-07-10T08:18:29Z</time>
      </trkpt>
      <trkpt lat="41.948997" lon="2.1578298">
        <time>2022-07-10T08:18:30Z</time>
      </trkpt>
      <trkpt lat="41.948982" lon="2.1579754">
        <time>2022-07-10T08:18:31Z</time>
      </trkpt>
      <trkpt lat="41.948963" lon="2.158124">
        <time>2022-07-10T08:18:32Z</time>
      </trkpt>
      <trkpt lat="41.948948" lon="2.1582644">
        <time>2022-07-10T08:18:33Z</time>
      </trkpt>
      <trkpt lat="41.948925" lon="2.1584194">
        <time>2022-07-10T08:18:34Z</time>
      </trkpt>
      <trkpt lat="41.9489" lon="2.1585727">
        <time>2022-07-10T08:18:35Z</time>
      </trkpt>
      <trkpt lat="41.94886" lon="2.1587243">
        <time>2022-07-10T08:18:36Z</time>
      </trkpt>
      <trkpt lat="41.94882" lon="2.1588726">
        <time>2022-07-10T08:18:37Z</time>
      </trkpt>
      <trkpt lat="41.948776" lon="2.159008">
        <time>2022-07-10T08:18:38Z</time>
      </trkpt>
      <trkpt lat="41.948723" lon="2.159147">
        <time>2022-07-10T08:18:39Z</time>
      </trkpt>
      <trkpt lat="41.948673" lon="2.1592777">
        <time>2022-07-10T08:18:40Z</time>
      </trkpt>
      <trkpt lat="41.948624" lon="2.1593997">
        <time>2022-07-10T08:18:41Z</time>
      </trkpt>
      <trkpt lat="41.948574" lon="2.159513">
        <time>2022-07-10T08:18:42Z</time>
      </trkpt>
      <trkpt lat="41.948513" lon="2.1596134">
        <time>2022-07-10T08:18:43Z</time>
      </trkpt>
      <trkpt lat="41.948452" lon="2.159691">
        <time>2022-07-10T08:18:44Z</time>
      </trkpt>
      <trkpt lat="41.948376" lon="2.1597514">
        <time>2022-07-10T08:18:45Z</time>
      </trkpt>
      <trkpt lat="41.948296" lon="2.1597953">
        <time>2022-07-10T08:18:46Z</time>
      </trkpt>
      <trkpt lat="41.948208" lon="2.159833">
        <time>2022-07-10T08:18:47Z</time>
      </trkpt>
      <trkpt lat="41.948128" lon="2.1598766">
        <time>2022-07-10T08:18:48Z</time>
      </trkpt>
      <trkpt lat="41.948055" lon="2.1599348">
        <time>2022-07-10T08:18:49Z</time>
      </trkpt>
      <trkpt lat="41.947994" lon="2.160008">
        <time>2022-07-10T08:18:50Z</time>
      </trkpt>
      <trkpt lat="41.947945" lon="2.160087">
        <time>2022-07-10T08:18:51Z</time>
      </trkpt>
      <trkpt lat="41.947903" lon="2.1601872">
        <time>2022-07-10T08:18:52Z</time>
      </trkpt>
      <trkpt lat="41.94787" lon="2.160289">
        <time>2022-07-10T08:18:53Z</time>
      </trkpt>
      <trkpt lat="41.947845" lon="2.160397">
        <time>2022-07-10T08:18:54Z</time>
      </trkpt>
      <trkpt lat="41.947826" lon="2.1605184">
        <time>2022-07-10T08:18:55Z</time>
      </trkpt>
      <trkpt lat="41.94781" lon="2.1606412">
        <time>2022-07-10T08:18:56Z</time>
      </trkpt>
      <trkpt lat="41.947803" lon="2.1607642">
        <time>2022-07-10T08:18:57Z</time>
      </trkpt>
      <trkpt lat="41.947803" lon="2.160887">
        <time>2022-07-10T08:18:58Z</time>
      </trkpt>
      <trkpt lat="41.947815" lon="2.1610084">
        <time>2022-07-10T08:18:59Z</time>
      </trkpt>
      <trkpt lat="41.94783" lon="2.1611204">
        <time>2022-07-10T08:19:00Z</time>
      </trkpt>
      <trkpt lat="41.94786" lon="2.1612406">
        <time>2022-07-10T08:19:01Z</time>
      </trkpt>
      <trkpt lat="41.9479" lon="2.1613579">
        <time>2022-07-10T08:19:02Z</time>
      </trkpt>
      <trkpt lat="41.947937" lon="2.1614654">
        <time>2022-07-10T08:19:03Z</time>
      </trkpt>
      <trkpt lat="41.947983" lon="2.1615713">
        <time>2022-07-10T08:19:04Z</time>
      </trkpt>
      <trkpt lat="41.948036" lon="2.161677">
        <time>2022-07-10T08:19:05Z</time>
      </trkpt>
      <trkpt lat="41.948093" lon="2.1617908">
        <time>2022-07-10T08:19:06Z</time>
      </trkpt>
      <trkpt lat="41.948147" lon="2.161898">
        <time>2022-07-10T08:19:07Z</time>
      </trkpt>
      <trkpt lat="41.9482" lon="2.1620176">
        <time>2022-07-10T08:19:08Z</time>
      </trkpt>
      <trkpt lat="41.948242" lon="2.1621432">
        <time>2022-07-10T08:19:09Z</time>
      </trkpt>
      <trkpt lat="41.948273" lon="2.1622744">
        <time>2022-07-10T08:19:10Z</time>
      </trkpt>
      <trkpt lat="41.948288" lon="2.1624112">
        <time>2022-07-10T08:19:11Z</time>
      </trkpt>
      <trkpt lat="41.948284" lon="2.1625512">
        <time>2022-07-10T08:19:12Z</time>
      </trkpt>
      <trkpt lat="41.948265" lon="2.1626942">
        <time>2022-07-10T08:19:13Z</time>
      </trkpt>
      <trkpt lat="41.948235" lon="2.1628392">
        <time>2022-07-10T08:19:14Z</time>
      </trkpt>
      <trkpt lat="41.9482" lon="2.1629882">
        <time>2022-07-10T08:19:15Z</time>
      </trkpt>
      <trkpt lat="41.948162" lon="2.1631439">
        <time>2022-07-10T08:19:16Z</time>
      </trkpt>
      <trkpt lat="41.948124" lon="2.1633034">
        <time>2022-07-10T08:19:17Z</time>
      </trkpt>
      <trkpt lat="41.948086" lon="2.163468">
        <time>2022-07-10T08:19:18Z</time>
      </trkpt>
      <trkpt lat="41.94804" lon="2.1636353">
        <time>2022-07-10T08:19:19Z</time>
      </trkpt>
      <trkpt lat="41.947998" lon="2.1638012">
        <time>2022-07-10T08:19:20Z</time>
      </trkpt>
      <trkpt lat="41.947952" lon="2.1639616">
        <time>2022-07-10T08:19:21Z</time>
      </trkpt>
      <trkpt lat="41.947853" lon="2.164264">
        <time>2022-07-10T08:19:23Z</time>
      </trkpt>
      <trkpt lat="41.94779" lon="2.164404">
        <time>2022-07-10T08:19:24Z</time>
      </trkpt>
      <trkpt lat="41.947716" lon="2.1645348">
        <time>2022-07-10T08:19:25Z</time>
      </trkpt>
      <trkpt lat="41.94763" lon="2.1646557">
        <time>2022-07-10T08:19:26Z</time>
      </trkpt>
      <trkpt lat="41.947544" lon="2.1647668">
        <time>2022-07-10T08:19:27Z</time>
      </trkpt>
      <trkpt lat="41.94745" lon="2.1648705">
        <time>2022-07-10T08:19:28Z</time>
      </trkpt>
      <trkpt lat="41.947353" lon="2.1649716">
        <time>2022-07-10T08:19:29Z</time>
      </trkpt>
      <trkpt lat="41.947254" lon="2.1650746">
        <time>2022-07-10T08:19:30Z</time>
      </trkpt>
      <trkpt lat="41.94716" lon="2.1651838">
        <time>2022-07-10T08:19:31Z</time>
      </trkpt>
      <trkpt lat="41.947067" lon="2.1653018">
        <time>2022-07-10T08:19:32Z</time>
      </trkpt>
      <trkpt lat="41.946983" lon="2.1654274">
        <time>2022-07-10T08:19:33Z</time>
      </trkpt>
      <trkpt lat="41.946903" lon="2.1655598">
        <time>2022-07-10T08:19:34Z</time>
      </trkpt>
      <trkpt lat="41.946827" lon="2.165695">
        <time>2022-07-10T08:19:35Z</time>
      </trkpt>
      <trkpt lat="41.94676" lon="2.165829">
        <time>2022-07-10T08:19:36Z</time>
      </trkpt>
      <trkpt lat="41.94669" lon="2.165959">
        <time>2022-07-10T08:19:37Z</time>
      </trkpt>
      <trkpt lat="41.94662" lon="2.16608">
        <time>2022-07-10T08:19:38Z</time>
      </trkpt>
      <trkpt lat="41.94655" lon="2.1661856">
        <time>2022-07-10T08:19:39Z</time>
      </trkpt>
      <trkpt lat="41.946472" lon="2.1662712">
        <time>2022-07-10T08:19:40Z</time>
      </trkpt>
      <trkpt lat="41.94639" lon="2.1663318">
        <time>2022-07-10T08:19:41Z</time>
      </trkpt>
      <trkpt lat="41.946297" lon="2.1663675">
        <time>2022-07-10T08:19:42Z</time>
      </trkpt>
      <trkpt lat="41.946205" lon="2.1663818">
        <time>2022-07-10T08:19:43Z</time>
      </trkpt>
      <trkpt lat="41.94611" lon="2.1663835">
        <time>2022-07-10T08:19:44Z</time>
      </trkpt>
      <trkpt lat="41.946014" lon="2.166382">
        <time>2022-07-10T08:19:45Z</time>
      </trkpt>
      <trkpt lat="41.945915" lon="2.1663854">
        <time>2022-07-10T08:19:46Z</time>
      </trkpt>
      <trkpt lat="41.94582" lon="2.1663945">
        <time>2022-07-10T08:19:47Z</time>
      </trkpt>
      <trkpt lat="41.94572" lon="2.166412">
        <time>2022-07-10T08:19:48Z</time>
      </trkpt>
      <trkpt lat="41.945633" lon="2.1664362">
        <time>2022-07-10T08:19:49Z</time>
      </trkpt>
      <trkpt lat="41.945538" lon="2.1664739">
        <time>2022-07-10T08:19:50Z</time>
      </trkpt>
      <trkpt lat="41.945446" lon="2.1665192">
        <time>2022-07-10T08:19:51Z</time>
      </trkpt>
      <trkpt lat="41.94536" lon="2.1665668">
        <time>2022-07-10T08:19:52Z</time>
      </trkpt>
      <trkpt lat="41.94527" lon="2.1666162">
        <time>2022-07-10T08:19:53Z</time>
      </trkpt>
      <trkpt lat="41.945187" lon="2.166664">
        <time>2022-07-10T08:19:54Z</time>
      </trkpt>
      <trkpt lat="41.945103" lon="2.1667094">
        <time>2022-07-10T08:19:55Z</time>
      </trkpt>
      <trkpt lat="41.94502" lon="2.1667511">
        <time>2022-07-10T08:19:56Z</time>
      </trkpt>
      <trkpt lat="41.94494" lon="2.166787">
        <time>2022-07-10T08:19:57Z</time>
      </trkpt>
      <trkpt lat="41.94486" lon="2.166818">
        <time>2022-07-10T08:19:58Z</time>
      </trkpt>
      <trkpt lat="41.944782" lon="2.1668448">
        <time>2022-07-10T08:19:59Z</time>
      </trkpt>
      <trkpt lat="41.94471" lon="2.1668677">
        <time>2022-07-10T08:20:00Z</time>
      </trkpt>
      <trkpt lat="41.944637" lon="2.1668866">
        <time>2022-07-10T08:20:01Z</time>
      </trkpt>
      <trkpt lat="41.94457" lon="2.1669014">
        <time>2022-07-10T08:20:02Z</time>
      </trkpt>
      <trkpt lat="41.9445" lon="2.1669145">
        <time>2022-07-10T08:20:03Z</time>
      </trkpt>
      <trkpt lat="41.944435" lon="2.1669254">
        <time>2022-07-10T08:20:04Z</time>
      </trkpt>
      <trkpt lat="41.944374" lon="2.1669436">
        <time>2022-07-10T08:20:05Z</time>
      </trkpt>
      <trkpt lat="41.944313" lon="2.1669633">
        <time>2022-07-10T08:20:06Z</time>
      </trkpt>
      <trkpt lat="41.944256" lon="2.166989">
        <time>2022-07-10T08:20:07Z</time>
      </trkpt>
      <trkpt lat="41.944206" lon="2.1670227">
        <time>2022-07-10T08:20:08Z</time>
      </trkpt>
      <trkpt lat="41.944157" lon="2.1670637">
        <time>2022-07-10T08:20:09Z</time>
      </trkpt>
      <trkpt lat="41.94411" lon="2.1671112">
        <time>2022-07-10T08:20:10Z</time>
      </trkpt>
      <trkpt lat="41.94407" lon="2.1671672">
        <time>2022-07-10T08:20:11Z</time>
      </trkpt>
      <trkpt lat="41.94403" lon="2.167226">
        <time>2022-07-10T08:20:12Z</time>
      </trkpt>
      <trkpt lat="41.944" lon="2.1672885">
        <time>2022-07-10T08:20:13Z</time>
      </trkpt>
      <trkpt lat="41.94397" lon="2.167354">
        <time>2022-07-10T08:20:14Z</time>
      </trkpt>
      <trkpt lat="41.94395" lon="2.167417">
        <time>2022-07-10T08:20:15Z</time>
      </trkpt>
      <trkpt lat="41.94393" lon="2.167489">
        <time>2022-07-10T08:20:16Z</time>
      </trkpt>
      <trkpt lat="41.94392" lon="2.167562">
        <time>2022-07-10T08:20:17Z</time>
      </trkpt>
      <trkpt lat="41.943905" lon="2.1676357">
        <time>2022-07-10T08:20:18Z</time>
      </trkpt>
      <trkpt lat="41.943897" lon="2.167709">
        <time>2022-07-10T08:20:19Z</time>
      </trkpt>
      <trkpt lat="41.943886" lon="2.1677828">
        <time>2022-07-10T08:20:20Z</time>
      </trkpt>
      <trkpt lat="41.94388" lon="2.167854">
        <time>2022-07-10T08:20:21Z</time>
      </trkpt>
      <trkpt lat="41.943867" lon="2.167923">
        <time>2022-07-10T08:20:22Z</time>
      </trkpt>
      <trkpt lat="41.94386" lon="2.1679904">
        <time>2022-07-10T08:20:23Z</time>
      </trkpt>
      <trkpt lat="41.94384" lon="2.1681185">
        <time>2022-07-10T08:20:25Z</time>
      </trkpt>
      <trkpt lat="41.943813" lon="2.1682398">
        <time>2022-07-10T08:20:27Z</time>
      </trkpt>
      <trkpt lat="41.94378" lon="2.1683574">
        <time>2022-07-10T08:20:29Z</time>
      </trkpt>
      <trkpt lat="41.943737" lon="2.168469">
        <time>2022-07-10T08:20:31Z</time>
      </trkpt>
      <trkpt lat="41.94371" lon="2.1685216">
        <time>2022-07-10T08:20:32Z</time>
      </trkpt>
      <trkpt lat="41.943645" lon="2.168623">
        <time>2022-07-10T08:20:34Z</time>
      </trkpt>
      <trkpt lat="41.94361" lon="2.16867">
        <time>2022-07-10T08:20:35Z</time>
      </trkpt>
      <trkpt lat="41.94354" lon="2.1687593">
        <time>2022-07-10T08:20:37Z</time>
      </trkpt>
      <trkpt lat="41.94346" lon="2.1688454">
        <time>2022-07-10T08:20:39Z</time>
      </trkpt>
      <trkpt lat="41.943417" lon="2.1688883">
        <time>2022-07-10T08:20:40Z</time>
      </trkpt>
      <trkpt lat="41.94333" lon="2.1689668">
        <time>2022-07-10T08:20:42Z</time>
      </trkpt>
      <trkpt lat="41.943283" lon="2.169004">
        <time>2022-07-10T08:20:43Z</time>
      </trkpt>
      <trkpt lat="41.943233" lon="2.1690388">
        <time>2022-07-10T08:20:44Z</time>
      </trkpt>
      <trkpt lat="41.943184" lon="2.1690707">
        <time>2022-07-10T08:20:45Z</time>
      </trkpt>
      <trkpt lat="41.94314" lon="2.169101">
        <time>2022-07-10T08:20:46Z</time>
      </trkpt>
      <trkpt lat="41.94309" lon="2.169128">
        <time>2022-07-10T08:20:47Z</time>
      </trkpt>
      <trkpt lat="41.94304" lon="2.1691537">
        <time>2022-07-10T08:20:48Z</time>
      </trkpt>
      <trkpt lat="41.94299" lon="2.169178">
        <time>2022-07-10T08:20:49Z</time>
      </trkpt>
      <trkpt lat="41.94294" lon="2.1692033">
        <time>2022-07-10T08:20:50Z</time>
      </trkpt>
      <trkpt lat="41.942894" lon="2.169229">
        <time>2022-07-10T08:20:51Z</time>
      </trkpt>
      <trkpt lat="41.9428" lon="2.1692836">
        <time>2022-07-10T08:20:53Z</time>
      </trkpt>
      <trkpt lat="41.94275" lon="2.169314">
        <time>2022-07-10T08:20:54Z</time>
      </trkpt>
      <trkpt lat="41.942707" lon="2.169347">
        <time>2022-07-10T08:20:55Z</time>
      </trkpt>
      <trkpt lat="41.94262" lon="2.1694207">
        <time>2022-07-10T08:20:57Z</time>
      </trkpt>
      <trkpt lat="41.942577" lon="2.1694603">
        <time>2022-07-10T08:20:58Z</time>
      </trkpt>
      <trkpt lat="41.942493" lon="2.1695433">
        <time>2022-07-10T08:21:00Z</time>
      </trkpt>
      <trkpt lat="41.942455" lon="2.169586">
        <time>2022-07-10T08:21:01Z</time>
      </trkpt>
      <trkpt lat="41.94237" lon="2.1696694">
        <time>2022-07-10T08:21:03Z</time>
      </trkpt>
      <trkpt lat="41.942333" lon="2.1697125">
        <time>2022-07-10T08:21:04Z</time>
      </trkpt>
      <trkpt lat="41.942253" lon="2.169798">
        <time>2022-07-10T08:21:06Z</time>
      </trkpt>
      <trkpt lat="41.942207" lon="2.169839">
        <time>2022-07-10T08:21:07Z</time>
      </trkpt>
      <trkpt lat="41.942165" lon="2.169877">
        <time>2022-07-10T08:21:08Z</time>
      </trkpt>
      <trkpt lat="41.942116" lon="2.1699107">
        <time>2022-07-10T08:21:09Z</time>
      </trkpt>
      <trkpt lat="41.942066" lon="2.1699393">
        <time>2022-07-10T08:21:10Z</time>
      </trkpt>
      <trkpt lat="41.942017" lon="2.1699593">
        <time>2022-07-10T08:21:11Z</time>
      </trkpt>
      <trkpt lat="41.941967" lon="2.1699686">
        <time>2022-07-10T08:21:12Z</time>
      </trkpt>
      <trkpt lat="41.94187" lon="2.1699576">
        <time>2022-07-10T08:21:14Z</time>
      </trkpt>
      <trkpt lat="41.94178" lon="2.1699123">
        <time>2022-07-10T08:21:16Z</time>
      </trkpt>
      <trkpt lat="41.941734" lon="2.169882">
        <time>2022-07-10T08:21:17Z</time>
      </trkpt>
      <trkpt lat="41.941647" lon="2.169817">
        <time>2022-07-10T08:21:19Z</time>
      </trkpt>
      <trkpt lat="41.94155" lon="2.1697593">
        <time>2022-07-10T08:21:21Z</time>
      </trkpt>
      <trkpt lat="41.9415" lon="2.1697392">
        <time>2022-07-10T08:21:22Z</time>
      </trkpt>
      <trkpt lat="41.941452" lon="2.1697273">
        <time>2022-07-10T08:21:23Z</time>
      </trkpt>
      <trkpt lat="41.9414" lon="2.1697242">
        <time>2022-07-10T08:21:24Z</time>
      </trkpt>
      <trkpt lat="41.941296" lon="2.1697536">
        <time>2022-07-10T08:21:26Z</time>
      </trkpt>
      <trkpt lat="41.94125" lon="2.1697853">
        <time>2022-07-10T08:21:27Z</time>
      </trkpt>
      <trkpt lat="41.941208" lon="2.1698256">
        <time>2022-07-10T08:21:28Z</time>
      </trkpt>
      <trkpt lat="41.94114" lon="2.16993">
        <time>2022-07-10T08:21:30Z</time>
      </trkpt>
      <trkpt lat="41.941113" lon="2.1699927">
        <time>2022-07-10T08:21:31Z</time>
      </trkpt>
      <trkpt lat="41.941067" lon="2.1701334">
        <time>2022-07-10T08:21:33Z</time>
      </trkpt>
      <trkpt lat="41.94104" lon="2.1702082">
        <time>2022-07-10T08:21:34Z</time>
      </trkpt>
      <trkpt lat="41.94101" lon="2.170282">
        <time>2022-07-10T08:21:35Z</time>
      </trkpt>
      <trkpt lat="41.940975" lon="2.1703522">
        <time>2022-07-10T08:21:36Z</time>
      </trkpt>
      <trkpt lat="41.940933" lon="2.1704185">
        <time>2022-07-10T08:21:37Z</time>
      </trkpt>
      <trkpt lat="41.94089" lon="2.1704822">
        <time>2022-07-10T08:21:38Z</time>
      </trkpt>
      <trkpt lat="41.94084" lon="2.1705441">
        <time>2022-07-10T08:21:39Z</time>
      </trkpt>
      <trkpt lat="41.94079" lon="2.1706061">
        <time>2022-07-10T08:21:40Z</time>
      </trkpt>
      <trkpt lat="41.940735" lon="2.1706676">
        <time>2022-07-10T08:21:41Z</time>
      </trkpt>
      <trkpt lat="41.940678" lon="2.170729">
        <time>2022-07-10T08:21:42Z</time>
      </trkpt>
      <trkpt lat="41.940617" lon="2.170791">
        <time>2022-07-10T08:21:43Z</time>
      </trkpt>
      <trkpt lat="41.94056" lon="2.1708539">
        <time>2022-07-10T08:21:44Z</time>
      </trkpt>
      <trkpt lat="41.9405" lon="2.1709168">
        <time>2022-07-10T08:21:45Z</time>
      </trkpt>
      <trkpt lat="41.940434" lon="2.170981">
        <time>2022-07-10T08:21:46Z</time>
      </trkpt>
      <trkpt lat="41.940372" lon="2.171046">
        <time>2022-07-10T08:21:47Z</time>
      </trkpt>
      <trkpt lat="41.940308" lon="2.1711123">
        <time>2022-07-10T08:21:48Z</time>
      </trkpt>
      <trkpt lat="41.940243" lon="2.1711798">
        <time>2022-07-10T08:21:49Z</time>
      </trkpt>
      <trkpt lat="41.940178" lon="2.1712475">
        <time>2022-07-10T08:21:50Z</time>
      </trkpt>
      <trkpt lat="41.940113" lon="2.1713142">
        <time>2022-07-10T08:21:51Z</time>
      </trkpt>
      <trkpt lat="41.94005" lon="2.1713796">
        <time>2022-07-10T08:21:52Z</time>
      </trkpt>
      <trkpt lat="41.939983" lon="2.1714418">
        <time>2022-07-10T08:21:53Z</time>
      </trkpt>
      <trkpt lat="41.939915" lon="2.171501">
        <time>2022-07-10T08:21:54Z</time>
      </trkpt>
      <trkpt lat="41.939846" lon="2.1715555">
        <time>2022-07-10T08:21:55Z</time>
      </trkpt>
      <trkpt lat="41.939777" lon="2.1716065">
        <time>2022-07-10T08:21:56Z</time>
      </trkpt>
      <trkpt lat="41.93971" lon="2.1716528">
        <time>2022-07-10T08:21:57Z</time>
      </trkpt>
      <trkpt lat="41.93964" lon="2.1716936">
        <time>2022-07-10T08:21:58Z</time>
      </trkpt>
      <trkpt lat="41.939568" lon="2.1717281">
        <time>2022-07-10T08:21:59Z</time>
      </trkpt>
      <trkpt lat="41.9395" lon="2.1717582">
        <time>2022-07-10T08:22:00Z</time>
      </trkpt>
      <trkpt lat="41.93943" lon="2.1717844">
        <time>2022-07-10T08:22:01Z</time>
      </trkpt>
      <trkpt lat="41.939365" lon="2.1718075">
        <time>2022-07-10T08:22:02Z</time>
      </trkpt>
      <trkpt lat="41.9393" lon="2.1718285">
        <time>2022-07-10T08:22:03Z</time>
      </trkpt>
      <trkpt lat="41.939236" lon="2.1718495">
        <time>2022-07-10T08:22:04Z</time>
      </trkpt>
      <trkpt lat="41.939175" lon="2.1718714">
        <time>2022-07-10T08:22:05Z</time>
      </trkpt>
      <trkpt lat="41.939117" lon="2.1718955">
        <time>2022-07-10T08:22:06Z</time>
      </trkpt>
      <trkpt lat="41.93906" lon="2.1719224">
        <time>2022-07-10T08:22:07Z</time>
      </trkpt>
      <trkpt lat="41.939" lon="2.1719527">
        <time>2022-07-10T08:22:08Z</time>
      </trkpt>
      <trkpt lat="41.938942" lon="2.1719854">
        <time>2022-07-10T08:22:09Z</time>
      </trkpt>
      <trkpt lat="41.938885" lon="2.1720197">
        <time>2022-07-10T08:22:10Z</time>
      </trkpt>
      <trkpt lat="41.938828" lon="2.1720514">
        <time>2022-07-10T08:22:11Z</time>
      </trkpt>
      <trkpt lat="41.93877" lon="2.1720798">
        <time>2022-07-10T08:22:12Z</time>
      </trkpt>
      <trkpt lat="41.93871" lon="2.1721015">
        <time>2022-07-10T08:22:13Z</time>
      </trkpt>
      <trkpt lat="41.93865" lon="2.1721191">
        <time>2022-07-10T08:22:14Z</time>
      </trkpt>
      <trkpt lat="41.938583" lon="2.1721325">
        <time>2022-07-10T08:22:15Z</time>
      </trkpt>
      <trkpt lat="41.938522" lon="2.1721442">
        <time>2022-07-10T08:22:16Z</time>
      </trkpt>
      <trkpt lat="41.93846" lon="2.1721575">
        <time>2022-07-10T08:22:17Z</time>
      </trkpt>
      <trkpt lat="41.9384" lon="2.1721745">
        <time>2022-07-10T08:22:18Z</time>
      </trkpt>
      <trkpt lat="41.938343" lon="2.1721964">
        <time>2022-07-10T08:22:19Z</time>
      </trkpt>
      <trkpt lat="41.93829" lon="2.1722257">
        <time>2022-07-10T08:22:20Z</time>
      </trkpt>
      <trkpt lat="41.938232" lon="2.1722605">
        <time>2022-07-10T08:22:21Z</time>
      </trkpt>
      <trkpt lat="41.938183" lon="2.1723027">
        <time>2022-07-10T08:22:22Z</time>
      </trkpt>
      <trkpt lat="41.93813" lon="2.1723478">
        <time>2022-07-10T08:22:23Z</time>
      </trkpt>
      <trkpt lat="41.93808" lon="2.1723914">
        <time>2022-07-10T08:22:24Z</time>
      </trkpt>
      <trkpt lat="41.93803" lon="2.172436">
        <time>2022-07-10T08:22:25Z</time>
      </trkpt>
      <trkpt lat="41.93798" lon="2.1724815">
        <time>2022-07-10T08:22:26Z</time>
      </trkpt>
      <trkpt lat="41.93793" lon="2.1725273">
        <time>2022-07-10T08:22:27Z</time>
      </trkpt>
      <trkpt lat="41.937885" lon="2.1725762">
        <time>2022-07-10T08:22:28Z</time>
      </trkpt>
      <trkpt lat="41.93784" lon="2.1726282">
        <time>2022-07-10T08:22:29Z</time>
      </trkpt>
      <trkpt lat="41.937798" lon="2.172681">
        <time>2022-07-10T08:22:30Z</time>
      </trkpt>
      <trkpt lat="41.93776" lon="2.1727364">
        <time>2022-07-10T08:22:31Z</time>
      </trkpt>
      <trkpt lat="41.93772" lon="2.1727948">
        <time>2022-07-10T08:22:32Z</time>
      </trkpt>
      <trkpt lat="41.93769" lon="2.1728554">
        <time>2022-07-10T08:22:33Z</time>
      </trkpt>
      <trkpt lat="41.93764" lon="2.172979">
        <time>2022-07-10T08:22:35Z</time>
      </trkpt>
      <trkpt lat="41.93761" lon="2.1731057">
        <time>2022-07-10T08:22:37Z</time>
      </trkpt>
      <trkpt lat="41.93759" lon="2.173238">
        <time>2022-07-10T08:22:39Z</time>
      </trkpt>
      <trkpt lat="41.937584" lon="2.1733048">
        <time>2022-07-10T08:22:40Z</time>
      </trkpt>
      <trkpt lat="41.93758" lon="2.17344">
        <time>2022-07-10T08:22:42Z</time>
      </trkpt>
      <trkpt lat="41.937584" lon="2.1735783">
        <time>2022-07-10T08:22:44Z</time>
      </trkpt>
      <trkpt lat="41.937588" lon="2.1736476">
        <time>2022-07-10T08:22:45Z</time>
      </trkpt>
      <trkpt lat="41.937588" lon="2.1737168">
        <time>2022-07-10T08:22:46Z</time>
      </trkpt>
      <trkpt lat="41.9376" lon="2.1738503">
        <time>2022-07-10T08:22:48Z</time>
      </trkpt>
      <trkpt lat="41.937607" lon="2.1739824">
        <time>2022-07-10T08:22:50Z</time>
      </trkpt>
      <trkpt lat="41.937614" lon="2.174047">
        <time>2022-07-10T08:22:51Z</time>
      </trkpt>
      <trkpt lat="41.937626" lon="2.174187">
        <time>2022-07-10T08:22:53Z</time>
      </trkpt>
      <trkpt lat="41.93763" lon="2.174257">
        <time>2022-07-10T08:22:54Z</time>
      </trkpt>
      <trkpt lat="41.937645" lon="2.1743996">
        <time>2022-07-10T08:22:56Z</time>
      </trkpt>
      <trkpt lat="41.937653" lon="2.1744714">
        <time>2022-07-10T08:22:57Z</time>
      </trkpt>
      <trkpt lat="41.93766" lon="2.1745417">
        <time>2022-07-10T08:22:58Z</time>
      </trkpt>
      <trkpt lat="41.93767" lon="2.17461">
        <time>2022-07-10T08:22:59Z</time>
      </trkpt>
      <trkpt lat="41.937687" lon="2.1746752">
        <time>2022-07-10T08:23:00Z</time>
      </trkpt>
      <trkpt lat="41.93771" lon="2.1747367">
        <time>2022-07-10T08:23:01Z</time>
      </trkpt>
      <trkpt lat="41.937763" lon="2.1748424">
        <time>2022-07-10T08:23:03Z</time>
      </trkpt>
      <trkpt lat="41.937828" lon="2.174934">
        <time>2022-07-10T08:23:05Z</time>
      </trkpt>
      <trkpt lat="41.937904" lon="2.1750169">
        <time>2022-07-10T08:23:07Z</time>
      </trkpt>
      <trkpt lat="41.937984" lon="2.1750984">
        <time>2022-07-10T08:23:09Z</time>
      </trkpt>
      <trkpt lat="41.938023" lon="2.1751423">
        <time>2022-07-10T08:23:10Z</time>
      </trkpt>
      <trkpt lat="41.93808" lon="2.1752489">
        <time>2022-07-10T08:23:12Z</time>
      </trkpt>
      <trkpt lat="41.9381" lon="2.175372">
        <time>2022-07-10T08:23:14Z</time>
      </trkpt>
      <trkpt lat="41.938072" lon="2.1754866">
        <time>2022-07-10T08:23:16Z</time>
      </trkpt>
      <trkpt lat="41.93801" lon="2.1755836">
        <time>2022-07-10T08:23:18Z</time>
      </trkpt>
      <trkpt lat="41.93793" lon="2.175651">
        <time>2022-07-10T08:23:20Z</time>
      </trkpt>
      <trkpt lat="41.937836" lon="2.175696">
        <time>2022-07-10T08:23:22Z</time>
      </trkpt>
      <trkpt lat="41.937786" lon="2.175713">
        <time>2022-07-10T08:23:23Z</time>
      </trkpt>
      <trkpt lat="41.93774" lon="2.1757293">
        <time>2022-07-10T08:23:24Z</time>
      </trkpt>
      <trkpt lat="41.93764" lon="2.1757734">
        <time>2022-07-10T08:23:26Z</time>
      </trkpt>
      <trkpt lat="41.93759" lon="2.1758027">
        <time>2022-07-10T08:23:27Z</time>
      </trkpt>
      <trkpt lat="41.937504" lon="2.1758766">
        <time>2022-07-10T08:23:29Z</time>
      </trkpt>
      <trkpt lat="41.93746" lon="2.1759202">
        <time>2022-07-10T08:23:30Z</time>
      </trkpt>
      <trkpt lat="41.93742" lon="2.175967">
        <time>2022-07-10T08:23:31Z</time>
      </trkpt>
      <trkpt lat="41.93738" lon="2.1760163">
        <time>2022-07-10T08:23:32Z</time>
      </trkpt>
      <trkpt lat="41.937344" lon="2.1760683">
        <time>2022-07-10T08:23:33Z</time>
      </trkpt>
      <trkpt lat="41.93731" lon="2.1761222">
        <time>2022-07-10T08:23:34Z</time>
      </trkpt>
      <trkpt lat="41.937237" lon="2.176236">
        <time>2022-07-10T08:23:36Z</time>
      </trkpt>
      <trkpt lat="41.937202" lon="2.1762955">
        <time>2022-07-10T08:23:37Z</time>
      </trkpt>
      <trkpt lat="41.937172" lon="2.1763558">
        <time>2022-07-10T08:23:38Z</time>
      </trkpt>
      <trkpt lat="41.937138" lon="2.1764193">
        <time>2022-07-10T08:23:39Z</time>
      </trkpt>
      <trkpt lat="41.937103" lon="2.1764843">
        <time>2022-07-10T08:23:40Z</time>
      </trkpt>
      <trkpt lat="41.937073" lon="2.1765516">
        <time>2022-07-10T08:23:41Z</time>
      </trkpt>
      <trkpt lat="41.937042" lon="2.176621">
        <time>2022-07-10T08:23:42Z</time>
      </trkpt>
      <trkpt lat="41.937016" lon="2.1766925">
        <time>2022-07-10T08:23:43Z</time>
      </trkpt>
      <trkpt lat="41.93699" lon="2.1767693">
        <time>2022-07-10T08:23:44Z</time>
      </trkpt>
      <trkpt lat="41.936966" lon="2.176849">
        <time>2022-07-10T08:23:45Z</time>
      </trkpt>
      <trkpt lat="41.936943" lon="2.1769311">
        <time>2022-07-10T08:23:46Z</time>
      </trkpt>
      <trkpt lat="41.93692" lon="2.1770153">
        <time>2022-07-10T08:23:47Z</time>
      </trkpt>
      <trkpt lat="41.936897" lon="2.1771019">
        <time>2022-07-10T08:23:48Z</time>
      </trkpt>
      <trkpt lat="41.936874" lon="2.1771889">
        <time>2022-07-10T08:23:49Z</time>
      </trkpt>
      <trkpt lat="41.93685" lon="2.177275">
        <time>2022-07-10T08:23:50Z</time>
      </trkpt>
      <trkpt lat="41.936825" lon="2.177353">
        <time>2022-07-10T08:23:51Z</time>
      </trkpt>
      <trkpt lat="41.936802" lon="2.1774342">
        <time>2022-07-10T08:23:52Z</time>
      </trkpt>
      <trkpt lat="41.93678" lon="2.1775188">
        <time>2022-07-10T08:23:53Z</time>
      </trkpt>
      <trkpt lat="41.936756" lon="2.1776056">
        <time>2022-07-10T08:23:54Z</time>
      </trkpt>
      <trkpt lat="41.936733" lon="2.1776948">
        <time>2022-07-10T08:23:55Z</time>
      </trkpt>
      <trkpt lat="41.93671" lon="2.1777868">
        <time>2022-07-10T08:23:56Z</time>
      </trkpt>
      <trkpt lat="41.93669" lon="2.1778803">
        <time>2022-07-10T08:23:57Z</time>
      </trkpt>
      <trkpt lat="41.93667" lon="2.1779733">
        <time>2022-07-10T08:23:58Z</time>
      </trkpt>
      <trkpt lat="41.93665" lon="2.1780598">
        <time>2022-07-10T08:23:59Z</time>
      </trkpt>
      <trkpt lat="41.936626" lon="2.1781542">
        <time>2022-07-10T08:24:00Z</time>
      </trkpt>
      <trkpt lat="41.936604" lon="2.178249">
        <time>2022-07-10T08:24:01Z</time>
      </trkpt>
      <trkpt lat="41.936584" lon="2.1783433">
        <time>2022-07-10T08:24:02Z</time>
      </trkpt>
      <trkpt lat="41.93656" lon="2.178435">
        <time>2022-07-10T08:24:03Z</time>
      </trkpt>
      <trkpt lat="41.936543" lon="2.1785219">
        <time>2022-07-10T08:24:04Z</time>
      </trkpt>
      <trkpt lat="41.93652" lon="2.1786163">
        <time>2022-07-10T08:24:05Z</time>
      </trkpt>
      <trkpt lat="41.936497" lon="2.1787102">
        <time>2022-07-10T08:24:06Z</time>
      </trkpt>
      <trkpt lat="41.936478" lon="2.1788049">
        <time>2022-07-10T08:24:07Z</time>
      </trkpt>
      <trkpt lat="41.93646" lon="2.1788938">
        <time>2022-07-10T08:24:08Z</time>
      </trkpt>
      <trkpt lat="41.93644" lon="2.1789832">
        <time>2022-07-10T08:24:09Z</time>
      </trkpt>
      <trkpt lat="41.93642" lon="2.1790748">
        <time>2022-07-10T08:24:10Z</time>
      </trkpt>
      <trkpt lat="41.9364" lon="2.1791701">
        <time>2022-07-10T08:24:11Z</time>
      </trkpt>
      <trkpt lat="41.936386" lon="2.1792667">
        <time>2022-07-10T08:24:12Z</time>
      </trkpt>
      <trkpt lat="41.936367" lon="2.1793633">
        <time>2022-07-10T08:24:13Z</time>
      </trkpt>
      <trkpt lat="41.93635" lon="2.1794615">
        <time>2022-07-10T08:24:14Z</time>
      </trkpt>
      <trkpt lat="41.93634" lon="2.1795628">
        <time>2022-07-10T08:24:15Z</time>
      </trkpt>
      <trkpt lat="41.93632" lon="2.1796699">
        <time>2022-07-10T08:24:16Z</time>
      </trkpt>
      <trkpt lat="41.936306" lon="2.1797752">
        <time>2022-07-10T08:24:17Z</time>
      </trkpt>
      <trkpt lat="41.93629" lon="2.179875">
        <time>2022-07-10T08:24:18Z</time>
      </trkpt>
      <trkpt lat="41.936275" lon="2.1799843">
        <time>2022-07-10T08:24:19Z</time>
      </trkpt>
      <trkpt lat="41.93626" lon="2.1800861">
        <time>2022-07-10T08:24:20Z</time>
      </trkpt>
      <trkpt lat="41.936245" lon="2.180197">
        <time>2022-07-10T08:24:21Z</time>
      </trkpt>
      <trkpt lat="41.93623" lon="2.1803062">
        <time>2022-07-10T08:24:22Z</time>
      </trkpt>
      <trkpt lat="41.936214" lon="2.1804142">
        <time>2022-07-10T08:24:23Z</time>
      </trkpt>
      <trkpt lat="41.9362" lon="2.1805158">
        <time>2022-07-10T08:24:24Z</time>
      </trkpt>
      <trkpt lat="41.93618" lon="2.1806273">
        <time>2022-07-10T08:24:25Z</time>
      </trkpt>
      <trkpt lat="41.936165" lon="2.1807318">
        <time>2022-07-10T08:24:26Z</time>
      </trkpt>
      <trkpt lat="41.936146" lon="2.1808467">
        <time>2022-07-10T08:24:27Z</time>
      </trkpt>
      <trkpt lat="41.93613" lon="2.1809614">
        <time>2022-07-10T08:24:28Z</time>
      </trkpt>
      <trkpt lat="41.93611" lon="2.1810753">
        <time>2022-07-10T08:24:29Z</time>
      </trkpt>
      <trkpt lat="41.936092" lon="2.1811888">
        <time>2022-07-10T08:24:30Z</time>
      </trkpt>
      <trkpt lat="41.936073" lon="2.1813023">
        <time>2022-07-10T08:24:31Z</time>
      </trkpt>
      <trkpt lat="41.93605" lon="2.1814158">
        <time>2022-07-10T08:24:32Z</time>
      </trkpt>
      <trkpt lat="41.936035" lon="2.1815214">
        <time>2022-07-10T08:24:33Z</time>
      </trkpt>
      <trkpt lat="41.936012" lon="2.1816354">
        <time>2022-07-10T08:24:34Z</time>
      </trkpt>
      <trkpt lat="41.93599" lon="2.1817486">
        <time>2022-07-10T08:24:35Z</time>
      </trkpt>
      <trkpt lat="41.935966" lon="2.1818597">
        <time>2022-07-10T08:24:36Z</time>
      </trkpt>
      <trkpt lat="41.935944" lon="2.1819701">
        <time>2022-07-10T08:24:37Z</time>
      </trkpt>
      <trkpt lat="41.935925" lon="2.1820722">
        <time>2022-07-10T08:24:38Z</time>
      </trkpt>
      <trkpt lat="41.935898" lon="2.1821814">
        <time>2022-07-10T08:24:39Z</time>
      </trkpt>
      <trkpt lat="41.935852" lon="2.1823976">
        <time>2022-07-10T08:24:41Z</time>
      </trkpt>
      <trkpt lat="41.935825" lon="2.182503">
        <time>2022-07-10T08:24:42Z</time>
      </trkpt>
      <trkpt lat="41.9358" lon="2.1826007">
        <time>2022-07-10T08:24:43Z</time>
      </trkpt>
      <trkpt lat="41.935772" lon="2.1827066">
        <time>2022-07-10T08:24:44Z</time>
      </trkpt>
      <trkpt lat="41.935745" lon="2.182812">
        <time>2022-07-10T08:24:45Z</time>
      </trkpt>
      <trkpt lat="41.935715" lon="2.18291">
        <time>2022-07-10T08:24:46Z</time>
      </trkpt>
      <trkpt lat="41.935688" lon="2.1830094">
        <time>2022-07-10T08:24:47Z</time>
      </trkpt>
      <trkpt lat="41.935658" lon="2.1831098">
        <time>2022-07-10T08:24:48Z</time>
      </trkpt>
      <trkpt lat="41.93563" lon="2.1832113">
        <time>2022-07-10T08:24:49Z</time>
      </trkpt>
      <trkpt lat="41.9356" lon="2.1833127">
        <time>2022-07-10T08:24:50Z</time>
      </trkpt>
      <trkpt lat="41.93557" lon="2.183415">
        <time>2022-07-10T08:24:51Z</time>
      </trkpt>
      <trkpt lat="41.935535" lon="2.1835175">
        <time>2022-07-10T08:24:52Z</time>
      </trkpt>
      <trkpt lat="41.935505" lon="2.1836205">
        <time>2022-07-10T08:24:53Z</time>
      </trkpt>
      <trkpt lat="41.935474" lon="2.183723">
        <time>2022-07-10T08:24:54Z</time>
      </trkpt>
      <trkpt lat="41.93544" lon="2.1838264">
        <time>2022-07-10T08:24:55Z</time>
      </trkpt>
      <trkpt lat="41.935402" lon="2.1839354">
        <time>2022-07-10T08:24:56Z</time>
      </trkpt>
      <trkpt lat="41.935368" lon="2.1840427">
        <time>2022-07-10T08:24:57Z</time>
      </trkpt>
      <trkpt lat="41.93533" lon="2.1841488">
        <time>2022-07-10T08:24:58Z</time>
      </trkpt>
      <trkpt lat="41.93529" lon="2.1842532">
        <time>2022-07-10T08:24:59Z</time>
      </trkpt>
      <trkpt lat="41.935253" lon="2.1843574">
        <time>2022-07-10T08:25:00Z</time>
      </trkpt>
      <trkpt lat="41.935215" lon="2.18446">
        <time>2022-07-10T08:25:01Z</time>
      </trkpt>
      <trkpt lat="41.935177" lon="2.1845627">
        <time>2022-07-10T08:25:02Z</time>
      </trkpt>
      <trkpt lat="41.93514" lon="2.1846642">
        <time>2022-07-10T08:25:03Z</time>
      </trkpt>
      <trkpt lat="41.935097" lon="2.1847653">
        <time>2022-07-10T08:25:04Z</time>
      </trkpt>
      <trkpt lat="41.93506" lon="2.1848652">
        <time>2022-07-10T08:25:05Z</time>
      </trkpt>
      <trkpt lat="41.935017" lon="2.1849647">
        <time>2022-07-10T08:25:06Z</time>
      </trkpt>
      <trkpt lat="41.93498" lon="2.1850626">
        <time>2022-07-10T08:25:07Z</time>
      </trkpt>
      <trkpt lat="41.93494" lon="2.1851606">
        <time>2022-07-10T08:25:08Z</time>
      </trkpt>
      <trkpt lat="41.934902" lon="2.1852572">
        <time>2022-07-10T08:25:09Z</time>
      </trkpt>
      <trkpt lat="41.934864" lon="2.1853464">
        <time>2022-07-10T08:25:10Z</time>
      </trkpt>
      <trkpt lat="41.934822" lon="2.1854436">
        <time>2022-07-10T08:25:11Z</time>
      </trkpt>
      <trkpt lat="41.934784" lon="2.185539">
        <time>2022-07-10T08:25:12Z</time>
      </trkpt>
      <trkpt lat="41.93475" lon="2.1856263">
        <time>2022-07-10T08:25:13Z</time>
      </trkpt>
      <trkpt lat="41.934708" lon="2.1857142">
        <time>2022-07-10T08:25:14Z</time>
      </trkpt>
      <trkpt lat="41.93467" lon="2.1858015">
        <time>2022-07-10T08:25:15Z</time>
      </trkpt>
      <trkpt lat="41.934628" lon="2.1858933">
        <time>2022-07-10T08:25:16Z</time>
      </trkpt>
      <trkpt lat="41.93459" lon="2.1859827">
        <time>2022-07-10T08:25:17Z</time>
      </trkpt>
      <trkpt lat="41.93455" lon="2.186065">
        <time>2022-07-10T08:25:18Z</time>
      </trkpt>
      <trkpt lat="41.934513" lon="2.1861544">
        <time>2022-07-10T08:25:19Z</time>
      </trkpt>
      <trkpt lat="41.93448" lon="2.1862364">
        <time>2022-07-10T08:25:20Z</time>
      </trkpt>
      <trkpt lat="41.93444" lon="2.186324">
        <time>2022-07-10T08:25:21Z</time>
      </trkpt>
      <trkpt lat="41.934406" lon="2.18641">
        <time>2022-07-10T08:25:22Z</time>
      </trkpt>
      <trkpt lat="41.934372" lon="2.1864898">
        <time>2022-07-10T08:25:23Z</time>
      </trkpt>
      <trkpt lat="41.934338" lon="2.1865766">
        <time>2022-07-10T08:25:24Z</time>
      </trkpt>
      <trkpt lat="41.9343" lon="2.1866622">
        <time>2022-07-10T08:25:25Z</time>
      </trkpt>
      <trkpt lat="41.93427" lon="2.186748">
        <time>2022-07-10T08:25:26Z</time>
      </trkpt>
      <trkpt lat="41.934235" lon="2.1868277">
        <time>2022-07-10T08:25:27Z</time>
      </trkpt>
      <trkpt lat="41.934208" lon="2.1869085">
        <time>2022-07-10T08:25:28Z</time>
      </trkpt>
      <trkpt lat="41.934174" lon="2.1869962">
        <time>2022-07-10T08:25:29Z</time>
      </trkpt>
      <trkpt lat="41.934143" lon="2.187084">
        <time>2022-07-10T08:25:30Z</time>
      </trkpt>
      <trkpt lat="41.934113" lon="2.187171">
        <time>2022-07-10T08:25:31Z</time>
      </trkpt>
      <trkpt lat="41.934086" lon="2.187253">
        <time>2022-07-10T08:25:32Z</time>
      </trkpt>
      <trkpt lat="41.934055" lon="2.1873362">
        <time>2022-07-10T08:25:33Z</time>
      </trkpt>
      <trkpt lat="41.93403" lon="2.1874273">
        <time>2022-07-10T08:25:34Z</time>
      </trkpt>
      <trkpt lat="41.934" lon="2.1875186">
        <time>2022-07-10T08:25:35Z</time>
      </trkpt>
      <trkpt lat="41.93397" lon="2.187604">
        <time>2022-07-10T08:25:36Z</time>
      </trkpt>
      <trkpt lat="41.93395" lon="2.1876915">
        <time>2022-07-10T08:25:37Z</time>
      </trkpt>
      <trkpt lat="41.93392" lon="2.1877809">
        <time>2022-07-10T08:25:38Z</time>
      </trkpt>
      <trkpt lat="41.9339" lon="2.1878705">
        <time>2022-07-10T08:25:39Z</time>
      </trkpt>
      <trkpt lat="41.933872" lon="2.1879673">
        <time>2022-07-10T08:25:40Z</time>
      </trkpt>
      <trkpt lat="41.93385" lon="2.1880636">
        <time>2022-07-10T08:25:41Z</time>
      </trkpt>
      <trkpt lat="41.933826" lon="2.1881528">
        <time>2022-07-10T08:25:42Z</time>
      </trkpt>
      <trkpt lat="41.933804" lon="2.1882505">
        <time>2022-07-10T08:25:43Z</time>
      </trkpt>
      <trkpt lat="41.93378" lon="2.188347">
        <time>2022-07-10T08:25:44Z</time>
      </trkpt>
      <trkpt lat="41.93373" lon="2.1885312">
        <time>2022-07-10T08:25:46Z</time>
      </trkpt>
      <trkpt lat="41.93371" lon="2.1886227">
        <time>2022-07-10T08:25:47Z</time>
      </trkpt>
      <trkpt lat="41.93368" lon="2.1887221">
        <time>2022-07-10T08:25:48Z</time>
      </trkpt>
      <trkpt lat="41.93366" lon="2.188821">
        <time>2022-07-10T08:25:49Z</time>
      </trkpt>
      <trkpt lat="41.93363" lon="2.1889205">
        <time>2022-07-10T08:25:50Z</time>
      </trkpt>
      <trkpt lat="41.93361" lon="2.1890118">
        <time>2022-07-10T08:25:51Z</time>
      </trkpt>
      <trkpt lat="41.933586" lon="2.1891055">
        <time>2022-07-10T08:25:52Z</time>
      </trkpt>
      <trkpt lat="41.933563" lon="2.1892087">
        <time>2022-07-10T08:25:53Z</time>
      </trkpt>
      <trkpt lat="41.933537" lon="2.1893067">
        <time>2022-07-10T08:25:54Z</time>
      </trkpt>
      <trkpt lat="41.933514" lon="2.1894052">
        <time>2022-07-10T08:25:55Z</time>
      </trkpt>
      <trkpt lat="41.933487" lon="2.1895022">
        <time>2022-07-10T08:25:56Z</time>
      </trkpt>
      <trkpt lat="41.933464" lon="2.1896002">
        <time>2022-07-10T08:25:57Z</time>
      </trkpt>
      <trkpt lat="41.933437" lon="2.1896992">
        <time>2022-07-10T08:25:58Z</time>
      </trkpt>
      <trkpt lat="41.93341" lon="2.1897967">
        <time>2022-07-10T08:25:59Z</time>
      </trkpt>
      <trkpt lat="41.933388" lon="2.1898937">
        <time>2022-07-10T08:26:00Z</time>
      </trkpt>
      <trkpt lat="41.93336" lon="2.1899905">
        <time>2022-07-10T08:26:01Z</time>
      </trkpt>
      <trkpt lat="41.93334" lon="2.1900868">
        <time>2022-07-10T08:26:02Z</time>
      </trkpt>
      <trkpt lat="41.933315" lon="2.1901832">
        <time>2022-07-10T08:26:03Z</time>
      </trkpt>
      <trkpt lat="41.93329" lon="2.1902845">
        <time>2022-07-10T08:26:04Z</time>
      </trkpt>
      <trkpt lat="41.933266" lon="2.1903827">
        <time>2022-07-10T08:26:05Z</time>
      </trkpt>
      <trkpt lat="41.93324" lon="2.1904778">
        <time>2022-07-10T08:26:06Z</time>
      </trkpt>
      <trkpt lat="41.933216" lon="2.1905644">
        <time>2022-07-10T08:26:07Z</time>
      </trkpt>
      <trkpt lat="41.93319" lon="2.1906517">
        <time>2022-07-10T08:26:08Z</time>
      </trkpt>
      <trkpt lat="41.933167" lon="2.1907449">
        <time>2022-07-10T08:26:09Z</time>
      </trkpt>
      <trkpt lat="41.933144" lon="2.1908357">
        <time>2022-07-10T08:26:10Z</time>
      </trkpt>
      <trkpt lat="41.933125" lon="2.1909204">
        <time>2022-07-10T08:26:11Z</time>
      </trkpt>
      <trkpt lat="41.933105" lon="2.1910057">
        <time>2022-07-10T08:26:12Z</time>
      </trkpt>
      <trkpt lat="41.933086" lon="2.1910975">
        <time>2022-07-10T08:26:13Z</time>
      </trkpt>
      <trkpt lat="41.933067" lon="2.1911821">
        <time>2022-07-10T08:26:14Z</time>
      </trkpt>
      <trkpt lat="41.933052" lon="2.1912727">
        <time>2022-07-10T08:26:15Z</time>
      </trkpt>
      <trkpt lat="41.933037" lon="2.1913574">
        <time>2022-07-10T08:26:16Z</time>
      </trkpt>
      <trkpt lat="41.93302" lon="2.191443">
        <time>2022-07-10T08:26:17Z</time>
      </trkpt>
      <trkpt lat="41.933006" lon="2.1915357">
        <time>2022-07-10T08:26:18Z</time>
      </trkpt>
      <trkpt lat="41.932995" lon="2.1916213">
        <time>2022-07-10T08:26:19Z</time>
      </trkpt>
      <trkpt lat="41.932983" lon="2.1917124">
        <time>2022-07-10T08:26:20Z</time>
      </trkpt>
      <trkpt lat="41.932972" lon="2.1917944">
        <time>2022-07-10T08:26:21Z</time>
      </trkpt>
      <trkpt lat="41.932964" lon="2.1918783">
        <time>2022-07-10T08:26:22Z</time>
      </trkpt>
      <trkpt lat="41.932957" lon="2.1919627">
        <time>2022-07-10T08:26:23Z</time>
      </trkpt>
      <trkpt lat="41.93295" lon="2.1920533">
        <time>2022-07-10T08:26:24Z</time>
      </trkpt>
      <trkpt lat="41.932945" lon="2.192143">
        <time>2022-07-10T08:26:25Z</time>
      </trkpt>
      <trkpt lat="41.93294" lon="2.1922321">
        <time>2022-07-10T08:26:26Z</time>
      </trkpt>
      <trkpt lat="41.932938" lon="2.1923141">
        <time>2022-07-10T08:26:27Z</time>
      </trkpt>
      <trkpt lat="41.932934" lon="2.1924021">
        <time>2022-07-10T08:26:28Z</time>
      </trkpt>
      <trkpt lat="41.93293" lon="2.1924834">
        <time>2022-07-10T08:26:29Z</time>
      </trkpt>
      <trkpt lat="41.93293" lon="2.192566">
        <time>2022-07-10T08:26:30Z</time>
      </trkpt>
      <trkpt lat="41.93293" lon="2.1926496">
        <time>2022-07-10T08:26:31Z</time>
      </trkpt>
      <trkpt lat="41.93293" lon="2.192733">
        <time>2022-07-10T08:26:32Z</time>
      </trkpt>
      <trkpt lat="41.932934" lon="2.1928163">
        <time>2022-07-10T08:26:33Z</time>
      </trkpt>
      <trkpt lat="41.932938" lon="2.1929004">
        <time>2022-07-10T08:26:34Z</time>
      </trkpt>
      <trkpt lat="41.93294" lon="2.192985">
        <time>2022-07-10T08:26:35Z</time>
      </trkpt>
      <trkpt lat="41.93294" lon="2.1930692">
        <time>2022-07-10T08:26:36Z</time>
      </trkpt>
      <trkpt lat="41.932945" lon="2.1931527">
        <time>2022-07-10T08:26:37Z</time>
      </trkpt>
      <trkpt lat="41.93295" lon="2.1932366">
        <time>2022-07-10T08:26:38Z</time>
      </trkpt>
      <trkpt lat="41.932953" lon="2.193321">
        <time>2022-07-10T08:26:39Z</time>
      </trkpt>
      <trkpt lat="41.932957" lon="2.1934056">
        <time>2022-07-10T08:26:40Z</time>
      </trkpt>
      <trkpt lat="41.93296" lon="2.1934907">
        <time>2022-07-10T08:26:41Z</time>
      </trkpt>
      <trkpt lat="41.93296" lon="2.1935754">
        <time>2022-07-10T08:26:42Z</time>
      </trkpt>
      <trkpt lat="41.932964" lon="2.19366">
        <time>2022-07-10T08:26:43Z</time>
      </trkpt>
      <trkpt lat="41.93297" lon="2.193744">
        <time>2022-07-10T08:26:44Z</time>
      </trkpt>
      <trkpt lat="41.93297" lon="2.1938274">
        <time>2022-07-10T08:26:45Z</time>
      </trkpt>
      <trkpt lat="41.932972" lon="2.1939056">
        <time>2022-07-10T08:26:46Z</time>
      </trkpt>
      <trkpt lat="41.932976" lon="2.1939902">
        <time>2022-07-10T08:26:47Z</time>
      </trkpt>
      <trkpt lat="41.93298" lon="2.194074">
        <time>2022-07-10T08:26:48Z</time>
      </trkpt>
      <trkpt lat="41.932983" lon="2.194157">
        <time>2022-07-10T08:26:49Z</time>
      </trkpt>
      <trkpt lat="41.93299" lon="2.1942346">
        <time>2022-07-10T08:26:50Z</time>
      </trkpt>
      <trkpt lat="41.932995" lon="2.1943135">
        <time>2022-07-10T08:26:51Z</time>
      </trkpt>
      <trkpt lat="41.933006" lon="2.1944826">
        <time>2022-07-10T08:26:53Z</time>
      </trkpt>
      <trkpt lat="41.933014" lon="2.1945653">
        <time>2022-07-10T08:26:54Z</time>
      </trkpt>
      <trkpt lat="41.933025" lon="2.1946473">
        <time>2022-07-10T08:26:55Z</time>
      </trkpt>
      <trkpt lat="41.933037" lon="2.1947293">
        <time>2022-07-10T08:26:56Z</time>
      </trkpt>
      <trkpt lat="41.93305" lon="2.1948109">
        <time>2022-07-10T08:26:57Z</time>
      </trkpt>
      <trkpt lat="41.93306" lon="2.1948922">
        <time>2022-07-10T08:26:58Z</time>
      </trkpt>
      <trkpt lat="41.933075" lon="2.1949737">
        <time>2022-07-10T08:26:59Z</time>
      </trkpt>
      <trkpt lat="41.93309" lon="2.1950552">
        <time>2022-07-10T08:27:00Z</time>
      </trkpt>
      <trkpt lat="41.933105" lon="2.1951365">
        <time>2022-07-10T08:27:01Z</time>
      </trkpt>
      <trkpt lat="41.933125" lon="2.1952167">
        <time>2022-07-10T08:27:02Z</time>
      </trkpt>
      <trkpt lat="41.933144" lon="2.1952956">
        <time>2022-07-10T08:27:03Z</time>
      </trkpt>
      <trkpt lat="41.933163" lon="2.1953745">
        <time>2022-07-10T08:27:04Z</time>
      </trkpt>
      <trkpt lat="41.93318" lon="2.1954544">
        <time>2022-07-10T08:27:05Z</time>
      </trkpt>
      <trkpt lat="41.933205" lon="2.195534">
        <time>2022-07-10T08:27:06Z</time>
      </trkpt>
      <trkpt lat="41.933224" lon="2.1956136">
        <time>2022-07-10T08:27:07Z</time>
      </trkpt>
      <trkpt lat="41.933243" lon="2.195694">
        <time>2022-07-10T08:27:08Z</time>
      </trkpt>
      <trkpt lat="41.933266" lon="2.1957743">
        <time>2022-07-10T08:27:09Z</time>
      </trkpt>
      <trkpt lat="41.933285" lon="2.195855">
        <time>2022-07-10T08:27:10Z</time>
      </trkpt>
      <trkpt lat="41.933308" lon="2.1959355">
        <time>2022-07-10T08:27:11Z</time>
      </trkpt>
      <trkpt lat="41.933327" lon="2.1960158">
        <time>2022-07-10T08:27:12Z</time>
      </trkpt>
      <trkpt lat="41.933346" lon="2.1960955">
        <time>2022-07-10T08:27:13Z</time>
      </trkpt>
      <trkpt lat="41.933365" lon="2.1961763">
        <time>2022-07-10T08:27:14Z</time>
      </trkpt>
      <trkpt lat="41.933384" lon="2.1962576">
        <time>2022-07-10T08:27:15Z</time>
      </trkpt>
      <trkpt lat="41.933403" lon="2.1963382">
        <time>2022-07-10T08:27:16Z</time>
      </trkpt>
      <trkpt lat="41.93342" lon="2.1964192">
        <time>2022-07-10T08:27:17Z</time>
      </trkpt>
      <trkpt lat="41.933434" lon="2.1965005">
        <time>2022-07-10T08:27:18Z</time>
      </trkpt>
      <trkpt lat="41.933453" lon="2.1965818">
        <time>2022-07-10T08:27:19Z</time>
      </trkpt>
      <trkpt lat="41.933464" lon="2.1966636">
        <time>2022-07-10T08:27:20Z</time>
      </trkpt>
      <trkpt lat="41.93348" lon="2.196745">
        <time>2022-07-10T08:27:21Z</time>
      </trkpt>
      <trkpt lat="41.93349" lon="2.1968272">
        <time>2022-07-10T08:27:22Z</time>
      </trkpt>
      <trkpt lat="41.9335" lon="2.1969042">
        <time>2022-07-10T08:27:23Z</time>
      </trkpt>
      <trkpt lat="41.933506" lon="2.196989">
        <time>2022-07-10T08:27:24Z</time>
      </trkpt>
      <trkpt lat="41.933517" lon="2.1970742">
        <time>2022-07-10T08:27:25Z</time>
      </trkpt>
      <trkpt lat="41.93352" lon="2.1971595">
        <time>2022-07-10T08:27:26Z</time>
      </trkpt>
      <trkpt lat="41.93353" lon="2.1972444">
        <time>2022-07-10T08:27:27Z</time>
      </trkpt>
      <trkpt lat="41.933533" lon="2.1973295">
        <time>2022-07-10T08:27:28Z</time>
      </trkpt>
      <trkpt lat="41.933537" lon="2.1974149">
        <time>2022-07-10T08:27:29Z</time>
      </trkpt>
      <trkpt lat="41.933537" lon="2.1975005">
        <time>2022-07-10T08:27:30Z</time>
      </trkpt>
      <trkpt lat="41.933537" lon="2.1975873">
        <time>2022-07-10T08:27:31Z</time>
      </trkpt>
      <trkpt lat="41.933533" lon="2.1976745">
        <time>2022-07-10T08:27:32Z</time>
      </trkpt>
      <trkpt lat="41.933533" lon="2.197762">
        <time>2022-07-10T08:27:33Z</time>
      </trkpt>
      <trkpt lat="41.93353" lon="2.1978507">
        <time>2022-07-10T08:27:34Z</time>
      </trkpt>
      <trkpt lat="41.933525" lon="2.1979408">
        <time>2022-07-10T08:27:35Z</time>
      </trkpt>
      <trkpt lat="41.93352" lon="2.1980307">
        <time>2022-07-10T08:27:36Z</time>
      </trkpt>
      <trkpt lat="41.933514" lon="2.198126">
        <time>2022-07-10T08:27:37Z</time>
      </trkpt>
      <trkpt lat="41.933506" lon="2.1982205">
        <time>2022-07-10T08:27:38Z</time>
      </trkpt>
      <trkpt lat="41.933495" lon="2.1983135">
        <time>2022-07-10T08:27:39Z</time>
      </trkpt>
      <trkpt lat="41.933483" lon="2.1984057">
        <time>2022-07-10T08:27:40Z</time>
      </trkpt>
      <trkpt lat="41.93347" lon="2.198498">
        <time>2022-07-10T08:27:41Z</time>
      </trkpt>
      <trkpt lat="41.93346" lon="2.1985893">
        <time>2022-07-10T08:27:42Z</time>
      </trkpt>
      <trkpt lat="41.933445" lon="2.1986794">
        <time>2022-07-10T08:27:43Z</time>
      </trkpt>
      <trkpt lat="41.93343" lon="2.1987698">
        <time>2022-07-10T08:27:44Z</time>
      </trkpt>
      <trkpt lat="41.933414" lon="2.1988547">
        <time>2022-07-10T08:27:45Z</time>
      </trkpt>
      <trkpt lat="41.9334" lon="2.1989505">
        <time>2022-07-10T08:27:46Z</time>
      </trkpt>
      <trkpt lat="41.933384" lon="2.1990469">
        <time>2022-07-10T08:27:47Z</time>
      </trkpt>
      <trkpt lat="41.933365" lon="2.1991425">
        <time>2022-07-10T08:27:48Z</time>
      </trkpt>
      <trkpt lat="41.93335" lon="2.1992373">
        <time>2022-07-10T08:27:49Z</time>
      </trkpt>
      <trkpt lat="41.93333" lon="2.1993258">
        <time>2022-07-10T08:27:50Z</time>
      </trkpt>
      <trkpt lat="41.933315" lon="2.1994224">
        <time>2022-07-10T08:27:51Z</time>
      </trkpt>
      <trkpt lat="41.9333" lon="2.1995177">
        <time>2022-07-10T08:27:52Z</time>
      </trkpt>
      <trkpt lat="41.933285" lon="2.1996121">
        <time>2022-07-10T08:27:53Z</time>
      </trkpt>
      <trkpt lat="41.93327" lon="2.199706">
        <time>2022-07-10T08:27:54Z</time>
      </trkpt>
      <trkpt lat="41.933235" lon="2.1998878">
        <time>2022-07-10T08:27:56Z</time>
      </trkpt>
      <trkpt lat="41.93322" lon="2.1999793">
        <time>2022-07-10T08:27:57Z</time>
      </trkpt>
      <trkpt lat="41.933205" lon="2.2000687">
        <time>2022-07-10T08:27:58Z</time>
      </trkpt>
      <trkpt lat="41.93319" lon="2.2001507">
        <time>2022-07-10T08:27:59Z</time>
      </trkpt>
      <trkpt lat="41.93317" lon="2.200233">
        <time>2022-07-10T08:28:00Z</time>
      </trkpt>
      <trkpt lat="41.933155" lon="2.2003157">
        <time>2022-07-10T08:28:01Z</time>
      </trkpt>
      <trkpt lat="41.93314" lon="2.200399">
        <time>2022-07-10T08:28:02Z</time>
      </trkpt>
      <trkpt lat="41.933125" lon="2.2004826">
        <time>2022-07-10T08:28:03Z</time>
      </trkpt>
      <trkpt lat="41.93311" lon="2.2005644">
        <time>2022-07-10T08:28:04Z</time>
      </trkpt>
      <trkpt lat="41.933094" lon="2.2006454">
        <time>2022-07-10T08:28:05Z</time>
      </trkpt>
      <trkpt lat="41.93308" lon="2.2007263">
        <time>2022-07-10T08:28:06Z</time>
      </trkpt>
      <trkpt lat="41.933067" lon="2.2008057">
        <time>2022-07-10T08:28:07Z</time>
      </trkpt>
      <trkpt lat="41.933052" lon="2.2008843">
        <time>2022-07-10T08:28:08Z</time>
      </trkpt>
      <trkpt lat="41.933037" lon="2.2009616">
        <time>2022-07-10T08:28:09Z</time>
      </trkpt>
      <trkpt lat="41.933025" lon="2.2010376">
        <time>2022-07-10T08:28:10Z</time>
      </trkpt>
      <trkpt lat="41.933014" lon="2.2011127">
        <time>2022-07-10T08:28:11Z</time>
      </trkpt>
      <trkpt lat="41.933" lon="2.2011864">
        <time>2022-07-10T08:28:12Z</time>
      </trkpt>
      <trkpt lat="41.932987" lon="2.201259">
        <time>2022-07-10T08:28:13Z</time>
      </trkpt>
      <trkpt lat="41.93298" lon="2.201331">
        <time>2022-07-10T08:28:14Z</time>
      </trkpt>
      <trkpt lat="41.932964" lon="2.201408">
        <time>2022-07-10T08:28:15Z</time>
      </trkpt>
      <trkpt lat="41.932953" lon="2.2014787">
        <time>2022-07-10T08:28:16Z</time>
      </trkpt>
      <trkpt lat="41.93294" lon="2.2015483">
        <time>2022-07-10T08:28:17Z</time>
      </trkpt>
      <trkpt lat="41.93293" lon="2.201619">
        <time>2022-07-10T08:28:18Z</time>
      </trkpt>
      <trkpt lat="41.93292" lon="2.20169">
        <time>2022-07-10T08:28:19Z</time>
      </trkpt>
      <trkpt lat="41.932907" lon="2.2017603">
        <time>2022-07-10T08:28:20Z</time>
      </trkpt>
      <trkpt lat="41.932896" lon="2.2018304">
        <time>2022-07-10T08:28:21Z</time>
      </trkpt>
      <trkpt lat="41.93288" lon="2.201899">
        <time>2022-07-10T08:28:22Z</time>
      </trkpt>
      <trkpt lat="41.93287" lon="2.2019672">
        <time>2022-07-10T08:28:23Z</time>
      </trkpt>
      <trkpt lat="41.932858" lon="2.202035">
        <time>2022-07-10T08:28:24Z</time>
      </trkpt>
      <trkpt lat="41.932842" lon="2.202107">
        <time>2022-07-10T08:28:25Z</time>
      </trkpt>
      <trkpt lat="41.93283" lon="2.2021725">
        <time>2022-07-10T08:28:26Z</time>
      </trkpt>
      <trkpt lat="41.932808" lon="2.2023036">
        <time>2022-07-10T08:28:28Z</time>
      </trkpt>
      <trkpt lat="41.932796" lon="2.2023697">
        <time>2022-07-10T08:28:29Z</time>
      </trkpt>
      <trkpt lat="41.93277" lon="2.202507">
        <time>2022-07-10T08:28:31Z</time>
      </trkpt>
      <trkpt lat="41.932762" lon="2.2025719">
        <time>2022-07-10T08:28:32Z</time>
      </trkpt>
      <trkpt lat="41.93275" lon="2.202637">
        <time>2022-07-10T08:28:33Z</time>
      </trkpt>
      <trkpt lat="41.932728" lon="2.2027678">
        <time>2022-07-10T08:28:35Z</time>
      </trkpt>
      <trkpt lat="41.932705" lon="2.2028985">
        <time>2022-07-10T08:28:37Z</time>
      </trkpt>
      <trkpt lat="41.932682" lon="2.2030299">
        <time>2022-07-10T08:28:39Z</time>
      </trkpt>
      <trkpt lat="41.932663" lon="2.2031634">
        <time>2022-07-10T08:28:41Z</time>
      </trkpt>
      <trkpt lat="41.93265" lon="2.2032304">
        <time>2022-07-10T08:28:42Z</time>
      </trkpt>
      <trkpt lat="41.93263" lon="2.203362">
        <time>2022-07-10T08:28:44Z</time>
      </trkpt>
      <trkpt lat="41.932617" lon="2.203428">
        <time>2022-07-10T08:28:45Z</time>
      </trkpt>
      <trkpt lat="41.9326" lon="2.2035592">
        <time>2022-07-10T08:28:47Z</time>
      </trkpt>
      <trkpt lat="41.93257" lon="2.203692">
        <time>2022-07-10T08:28:49Z</time>
      </trkpt>
      <trkpt lat="41.93256" lon="2.2037597">
        <time>2022-07-10T08:28:50Z</time>
      </trkpt>
      <trkpt lat="41.932533" lon="2.2039008">
        <time>2022-07-10T08:28:52Z</time>
      </trkpt>
      <trkpt lat="41.93252" lon="2.2039723">
        <time>2022-07-10T08:28:53Z</time>
      </trkpt>
      <trkpt lat="41.93251" lon="2.204042">
        <time>2022-07-10T08:28:54Z</time>
      </trkpt>
      <trkpt lat="41.9325" lon="2.2041109">
        <time>2022-07-10T08:28:55Z</time>
      </trkpt>
      <trkpt lat="41.932476" lon="2.204247">
        <time>2022-07-10T08:28:57Z</time>
      </trkpt>
      <trkpt lat="41.932465" lon="2.204314">
        <time>2022-07-10T08:28:58Z</time>
      </trkpt>
      <trkpt lat="41.932453" lon="2.204381">
        <time>2022-07-10T08:28:59Z</time>
      </trkpt>
      <trkpt lat="41.932434" lon="2.204512">
        <time>2022-07-10T08:29:01Z</time>
      </trkpt>
      <trkpt lat="41.932407" lon="2.2046468">
        <time>2022-07-10T08:29:03Z</time>
      </trkpt>
      <trkpt lat="41.932396" lon="2.2047136">
        <time>2022-07-10T08:29:04Z</time>
      </trkpt>
      <trkpt lat="41.93237" lon="2.2048433">
        <time>2022-07-10T08:29:06Z</time>
      </trkpt>
      <trkpt lat="41.932354" lon="2.2049096">
        <time>2022-07-10T08:29:07Z</time>
      </trkpt>
      <trkpt lat="41.93233" lon="2.2050421">
        <time>2022-07-10T08:29:09Z</time>
      </trkpt>
      <trkpt lat="41.93232" lon="2.2051048">
        <time>2022-07-10T08:29:10Z</time>
      </trkpt>
      <trkpt lat="41.932297" lon="2.2052343">
        <time>2022-07-10T08:29:12Z</time>
      </trkpt>
      <trkpt lat="41.932274" lon="2.2053652">
        <time>2022-07-10T08:29:14Z</time>
      </trkpt>
      <trkpt lat="41.93225" lon="2.2054963">
        <time>2022-07-10T08:29:16Z</time>
      </trkpt>
      <trkpt lat="41.932228" lon="2.2056258">
        <time>2022-07-10T08:29:18Z</time>
      </trkpt>
      <trkpt lat="41.932217" lon="2.2056906">
        <time>2022-07-10T08:29:19Z</time>
      </trkpt>
      <trkpt lat="41.932198" lon="2.205819">
        <time>2022-07-10T08:29:21Z</time>
      </trkpt>
      <trkpt lat="41.932186" lon="2.2058825">
        <time>2022-07-10T08:29:22Z</time>
      </trkpt>
      <trkpt lat="41.932163" lon="2.2060096">
        <time>2022-07-10T08:29:24Z</time>
      </trkpt>
      <trkpt lat="41.932144" lon="2.206138">
        <time>2022-07-10T08:29:26Z</time>
      </trkpt>
      <trkpt lat="41.93212" lon="2.2062669">
        <time>2022-07-10T08:29:28Z</time>
      </trkpt>
      <trkpt lat="41.932102" lon="2.206397">
        <time>2022-07-10T08:29:30Z</time>
      </trkpt>
      <trkpt lat="41.93209" lon="2.2064679">
        <time>2022-07-10T08:29:31Z</time>
      </trkpt>
      <trkpt lat="41.932083" lon="2.2065408">
        <time>2022-07-10T08:29:32Z</time>
      </trkpt>
      <trkpt lat="41.932076" lon="2.2066197">
        <time>2022-07-10T08:29:33Z</time>
      </trkpt>
      <trkpt lat="41.93207" lon="2.2066941">
        <time>2022-07-10T08:29:34Z</time>
      </trkpt>
      <trkpt lat="41.932068" lon="2.206771">
        <time>2022-07-10T08:29:35Z</time>
      </trkpt>
      <trkpt lat="41.932068" lon="2.2068498">
        <time>2022-07-10T08:29:36Z</time>
      </trkpt>
      <trkpt lat="41.93207" lon="2.2069302">
        <time>2022-07-10T08:29:37Z</time>
      </trkpt>
      <trkpt lat="41.932076" lon="2.2070105">
        <time>2022-07-10T08:29:38Z</time>
      </trkpt>
      <trkpt lat="41.93208" lon="2.2070918">
        <time>2022-07-10T08:29:39Z</time>
      </trkpt>
      <trkpt lat="41.932083" lon="2.2071738">
        <time>2022-07-10T08:29:40Z</time>
      </trkpt>
      <trkpt lat="41.93209" lon="2.2072568">
        <time>2022-07-10T08:29:41Z</time>
      </trkpt>
      <trkpt lat="41.9321" lon="2.207339">
        <time>2022-07-10T08:29:42Z</time>
      </trkpt>
      <trkpt lat="41.932106" lon="2.2074218">
        <time>2022-07-10T08:29:43Z</time>
      </trkpt>
      <trkpt lat="41.932114" lon="2.2075055">
        <time>2022-07-10T08:29:44Z</time>
      </trkpt>
      <trkpt lat="41.93212" lon="2.2075884">
        <time>2022-07-10T08:29:45Z</time>
      </trkpt>
      <trkpt lat="41.93213" lon="2.2076707">
        <time>2022-07-10T08:29:46Z</time>
      </trkpt>
      <trkpt lat="41.93214" lon="2.2077532">
        <time>2022-07-10T08:29:47Z</time>
      </trkpt>
      <trkpt lat="41.932148" lon="2.2078352">
        <time>2022-07-10T08:29:48Z</time>
      </trkpt>
      <trkpt lat="41.932156" lon="2.207916">
        <time>2022-07-10T08:29:49Z</time>
      </trkpt>
      <trkpt lat="41.932167" lon="2.2079947">
        <time>2022-07-10T08:29:50Z</time>
      </trkpt>
      <trkpt lat="41.93218" lon="2.2080722">
        <time>2022-07-10T08:29:51Z</time>
      </trkpt>
      <trkpt lat="41.93219" lon="2.2081478">
        <time>2022-07-10T08:29:52Z</time>
      </trkpt>
      <trkpt lat="41.9322" lon="2.2082217">
        <time>2022-07-10T08:29:53Z</time>
      </trkpt>
      <trkpt lat="41.932213" lon="2.208297">
        <time>2022-07-10T08:29:54Z</time>
      </trkpt>
      <trkpt lat="41.932224" lon="2.2083719">
        <time>2022-07-10T08:29:55Z</time>
      </trkpt>
      <trkpt lat="41.93223" lon="2.2084482">
        <time>2022-07-10T08:29:56Z</time>
      </trkpt>
      <trkpt lat="41.93224" lon="2.208524">
        <time>2022-07-10T08:29:57Z</time>
      </trkpt>
      <trkpt lat="41.932247" lon="2.2085989">
        <time>2022-07-10T08:29:58Z</time>
      </trkpt>
      <trkpt lat="41.93225" lon="2.2086718">
        <time>2022-07-10T08:29:59Z</time>
      </trkpt>
      <trkpt lat="41.932255" lon="2.2087395">
        <time>2022-07-10T08:30:00Z</time>
      </trkpt>
      <trkpt lat="41.93226" lon="2.2088068">
        <time>2022-07-10T08:30:01Z</time>
      </trkpt>
      <trkpt lat="41.932262" lon="2.2088728">
        <time>2022-07-10T08:30:02Z</time>
      </trkpt>
      <trkpt lat="41.932278" lon="2.209003">
        <time>2022-07-10T08:30:04Z</time>
      </trkpt>
      <trkpt lat="41.93228" lon="2.2091358">
        <time>2022-07-10T08:30:06Z</time>
      </trkpt>
      <trkpt lat="41.93228" lon="2.2091978">
        <time>2022-07-10T08:30:07Z</time>
      </trkpt>
      <trkpt lat="41.932266" lon="2.2093215">
        <time>2022-07-10T08:30:09Z</time>
      </trkpt>
      <trkpt lat="41.932255" lon="2.209381">
        <time>2022-07-10T08:30:10Z</time>
      </trkpt>
      <trkpt lat="41.93222" lon="2.2094936">
        <time>2022-07-10T08:30:12Z</time>
      </trkpt>
      <trkpt lat="41.932182" lon="2.209603">
        <time>2022-07-10T08:30:14Z</time>
      </trkpt>
      <trkpt lat="41.932117" lon="2.2097545">
        <time>2022-07-10T08:30:17Z</time>
      </trkpt>
      <trkpt lat="41.932068" lon="2.209848">
        <time>2022-07-10T08:30:19Z</time>
      </trkpt>
      <trkpt lat="41.93202" lon="2.20994">
        <time>2022-07-10T08:30:21Z</time>
      </trkpt>
      <trkpt lat="41.93197" lon="2.210036">
        <time>2022-07-10T08:30:23Z</time>
      </trkpt>
      <trkpt lat="41.931923" lon="2.2101388">
        <time>2022-07-10T08:30:25Z</time>
      </trkpt>
      <trkpt lat="41.93188" lon="2.2102478">
        <time>2022-07-10T08:30:27Z</time>
      </trkpt>
      <trkpt lat="41.93185" lon="2.2103593">
        <time>2022-07-10T08:30:29Z</time>
      </trkpt>
      <trkpt lat="41.93184" lon="2.2104654">
        <time>2022-07-10T08:30:31Z</time>
      </trkpt>
      <trkpt lat="41.931843" lon="2.2105663">
        <time>2022-07-10T08:30:33Z</time>
      </trkpt>
      <trkpt lat="41.931854" lon="2.2106633">
        <time>2022-07-10T08:30:35Z</time>
      </trkpt>
      <trkpt lat="41.931877" lon="2.2107506">
        <time>2022-07-10T08:30:37Z</time>
      </trkpt>
      <trkpt lat="41.93191" lon="2.2108243">
        <time>2022-07-10T08:30:39Z</time>
      </trkpt>
      <trkpt lat="41.931946" lon="2.2108884">
        <time>2022-07-10T08:30:41Z</time>
      </trkpt>
      <trkpt lat="41.931984" lon="2.210953">
        <time>2022-07-10T08:30:43Z</time>
      </trkpt>
      <trkpt lat="41.93202" lon="2.2110143">
        <time>2022-07-10T08:30:45Z</time>
      </trkpt>
      <trkpt lat="41.932056" lon="2.2110746">
        <time>2022-07-10T08:30:47Z</time>
      </trkpt>
      <trkpt lat="41.93209" lon="2.21113">
        <time>2022-07-10T08:30:49Z</time>
      </trkpt>
      <trkpt lat="41.93213" lon="2.211183">
        <time>2022-07-10T08:30:51Z</time>
      </trkpt>
      <trkpt lat="41.932167" lon="2.2112343">
        <time>2022-07-10T08:30:53Z</time>
      </trkpt>
      <trkpt lat="41.9322" lon="2.2112837">
        <time>2022-07-10T08:30:55Z</time>
      </trkpt>
      <trkpt lat="41.932255" lon="2.2113569">
        <time>2022-07-10T08:30:58Z</time>
      </trkpt>
      <trkpt lat="41.93229" lon="2.211406">
        <time>2022-07-10T08:31:00Z</time>
      </trkpt>
      <trkpt lat="41.93234" lon="2.211483">
        <time>2022-07-10T08:31:03Z</time>
      </trkpt>
      <trkpt lat="41.932373" lon="2.2115324">
        <time>2022-07-10T08:31:05Z</time>
      </trkpt>
      <trkpt lat="41.93242" lon="2.2116053">
        <time>2022-07-10T08:31:08Z</time>
      </trkpt>
      <trkpt lat="41.932465" lon="2.211681">
        <time>2022-07-10T08:31:11Z</time>
      </trkpt>
      <trkpt lat="41.932507" lon="2.211761">
        <time>2022-07-10T08:31:14Z</time>
      </trkpt>
      <trkpt lat="41.932545" lon="2.21184">
        <time>2022-07-10T08:31:17Z</time>
      </trkpt>
      <trkpt lat="41.932575" lon="2.211926">
        <time>2022-07-10T08:31:20Z</time>
      </trkpt>
      <trkpt lat="41.93261" lon="2.2120159">
        <time>2022-07-10T08:31:23Z</time>
      </trkpt>
      <trkpt lat="41.932636" lon="2.212109">
        <time>2022-07-10T08:31:26Z</time>
      </trkpt>
      <trkpt lat="41.93265" lon="2.2121737">
        <time>2022-07-10T08:31:28Z</time>
      </trkpt>
      <trkpt lat="41.932667" lon="2.2122684">
        <time>2022-07-10T08:31:31Z</time>
      </trkpt>
      <trkpt lat="41.932674" lon="2.2123566">
        <time>2022-07-10T08:31:34Z</time>
      </trkpt>
      <trkpt lat="41.93268" lon="2.212448">
        <time>2022-07-10T08:31:37Z</time>
      </trkpt>
      <trkpt lat="41.93268" lon="2.2125366">
        <time>2022-07-10T08:31:40Z</time>
      </trkpt>
      <trkpt lat="41.93267" lon="2.2126284">
        <time>2022-07-10T08:31:43Z</time>
      </trkpt>
      <trkpt lat="41.93266" lon="2.2127173">
        <time>2022-07-10T08:31:46Z</time>
      </trkpt>
      <trkpt lat="41.932644" lon="2.212803">
        <time>2022-07-10T08:31:49Z</time>
      </trkpt>
      <trkpt lat="41.932625" lon="2.2128885">
        <time>2022-07-10T08:31:52Z</time>
      </trkpt>
      <trkpt lat="41.932594" lon="2.2129734">
        <time>2022-07-10T08:31:55Z</time>
      </trkpt>
      <trkpt lat="41.93256" lon="2.2130575">
        <time>2022-07-10T08:31:58Z</time>
      </trkpt>
      <trkpt lat="41.932518" lon="2.213135">
        <time>2022-07-10T08:32:01Z</time>
      </trkpt>
      <trkpt lat="41.93249" lon="2.2131875">
        <time>2022-07-10T08:32:03Z</time>
      </trkpt>
      <trkpt lat="41.932434" lon="2.2132695">
        <time>2022-07-10T08:32:06Z</time>
      </trkpt>
      <trkpt lat="41.932392" lon="2.2133203">
        <time>2022-07-10T08:32:08Z</time>
      </trkpt>
      <trkpt lat="41.932346" lon="2.2133708">
        <time>2022-07-10T08:32:10Z</time>
      </trkpt>
      <trkpt lat="41.932293" lon="2.21342">
        <time>2022-07-10T08:32:12Z</time>
      </trkpt>
      <trkpt lat="41.932236" lon="2.2134686">
        <time>2022-07-10T08:32:14Z</time>
      </trkpt>
      <trkpt lat="41.932167" lon="2.2135143">
        <time>2022-07-10T08:32:16Z</time>
      </trkpt>
      <trkpt lat="41.932095" lon="2.213554">
        <time>2022-07-10T08:32:18Z</time>
      </trkpt>
      <trkpt lat="41.93202" lon="2.2135885">
        <time>2022-07-10T08:32:20Z</time>
      </trkpt>
      <trkpt lat="41.931934" lon="2.2136176">
        <time>2022-07-10T08:32:22Z</time>
      </trkpt>
      <trkpt lat="41.931847" lon="2.2136443">
        <time>2022-07-10T08:32:24Z</time>
      </trkpt>
      <trkpt lat="41.93175" lon="2.213672">
        <time>2022-07-10T08:32:26Z</time>
      </trkpt>
      <trkpt lat="41.931698" lon="2.2136874">
        <time>2022-07-10T08:32:27Z</time>
      </trkpt>
      <trkpt lat="41.931644" lon="2.213708">
        <time>2022-07-10T08:32:28Z</time>
      </trkpt>
      <trkpt lat="41.931595" lon="2.2137306">
        <time>2022-07-10T08:32:29Z</time>
      </trkpt>
      <trkpt lat="41.931538" lon="2.2137601">
        <time>2022-07-10T08:32:30Z</time>
      </trkpt>
      <trkpt lat="41.931484" lon="2.2137964">
        <time>2022-07-10T08:32:31Z</time>
      </trkpt>
      <trkpt lat="41.931435" lon="2.213842">
        <time>2022-07-10T08:32:32Z</time>
      </trkpt>
      <trkpt lat="41.931385" lon="2.2138965">
        <time>2022-07-10T08:32:33Z</time>
      </trkpt>
      <trkpt lat="41.931305" lon="2.2140348">
        <time>2022-07-10T08:32:35Z</time>
      </trkpt>
      <trkpt lat="41.93128" lon="2.2141194">
        <time>2022-07-10T08:32:36Z</time>
      </trkpt>
      <trkpt lat="41.931255" lon="2.2142117">
        <time>2022-07-10T08:32:37Z</time>
      </trkpt>
      <trkpt lat="41.931236" lon="2.2143104">
        <time>2022-07-10T08:32:38Z</time>
      </trkpt>
      <trkpt lat="41.931225" lon="2.2144134">
        <time>2022-07-10T08:32:39Z</time>
      </trkpt>
      <trkpt lat="41.931213" lon="2.2145119">
        <time>2022-07-10T08:32:40Z</time>
      </trkpt>
      <trkpt lat="41.931202" lon="2.2146149">
        <time>2022-07-10T08:32:41Z</time>
      </trkpt>
      <trkpt lat="41.931187" lon="2.2147217">
        <time>2022-07-10T08:32:42Z</time>
      </trkpt>
      <trkpt lat="41.93117" lon="2.2148294">
        <time>2022-07-10T08:32:43Z</time>
      </trkpt>
      <trkpt lat="41.931152" lon="2.2149377">
        <time>2022-07-10T08:32:44Z</time>
      </trkpt>
      <trkpt lat="41.93113" lon="2.215049">
        <time>2022-07-10T08:32:45Z</time>
      </trkpt>
      <trkpt lat="41.931103" lon="2.2151613">
        <time>2022-07-10T08:32:46Z</time>
      </trkpt>
      <trkpt lat="41.931072" lon="2.2152743">
        <time>2022-07-10T08:32:47Z</time>
      </trkpt>
      <trkpt lat="41.931038" lon="2.2153888">
        <time>2022-07-10T08:32:48Z</time>
      </trkpt>
      <trkpt lat="41.931004" lon="2.215506">
        <time>2022-07-10T08:32:49Z</time>
      </trkpt>
      <trkpt lat="41.930965" lon="2.215625">
        <time>2022-07-10T08:32:50Z</time>
      </trkpt>
      <trkpt lat="41.93093" lon="2.2157474">
        <time>2022-07-10T08:32:51Z</time>
      </trkpt>
      <trkpt lat="41.930893" lon="2.2158787">
        <time>2022-07-10T08:32:52Z</time>
      </trkpt>
      <trkpt lat="41.93086" lon="2.2160084">
        <time>2022-07-10T08:32:53Z</time>
      </trkpt>
      <trkpt lat="41.930824" lon="2.2161376">
        <time>2022-07-10T08:32:54Z</time>
      </trkpt>
      <trkpt lat="41.930794" lon="2.2162666">
        <time>2022-07-10T08:32:55Z</time>
      </trkpt>
      <trkpt lat="41.930763" lon="2.2163951">
        <time>2022-07-10T08:32:56Z</time>
      </trkpt>
      <trkpt lat="41.930733" lon="2.2165225">
        <time>2022-07-10T08:32:57Z</time>
      </trkpt>
      <trkpt lat="41.930702" lon="2.2166476">
        <time>2022-07-10T08:32:58Z</time>
      </trkpt>
      <trkpt lat="41.930676" lon="2.216762">
        <time>2022-07-10T08:32:59Z</time>
      </trkpt>
      <trkpt lat="41.930645" lon="2.216876">
        <time>2022-07-10T08:33:00Z</time>
      </trkpt>
      <trkpt lat="41.930614" lon="2.216989">
        <time>2022-07-10T08:33:01Z</time>
      </trkpt>
      <trkpt lat="41.930584" lon="2.2171018">
        <time>2022-07-10T08:33:02Z</time>
      </trkpt>
      <trkpt lat="41.930553" lon="2.2172136">
        <time>2022-07-10T08:33:03Z</time>
      </trkpt>
      <trkpt lat="41.930523" lon="2.217325">
        <time>2022-07-10T08:33:04Z</time>
      </trkpt>
      <trkpt lat="41.930492" lon="2.2174358">
        <time>2022-07-10T08:33:05Z</time>
      </trkpt>
      <trkpt lat="41.930466" lon="2.2175457">
        <time>2022-07-10T08:33:06Z</time>
      </trkpt>
      <trkpt lat="41.930435" lon="2.217655">
        <time>2022-07-10T08:33:07Z</time>
      </trkpt>
      <trkpt lat="41.930405" lon="2.2177644">
        <time>2022-07-10T08:33:08Z</time>
      </trkpt>
      <trkpt lat="41.930378" lon="2.217873">
        <time>2022-07-10T08:33:09Z</time>
      </trkpt>
      <trkpt lat="41.930347" lon="2.2179813">
        <time>2022-07-10T08:33:10Z</time>
      </trkpt>
      <trkpt lat="41.93032" lon="2.21809">
        <time>2022-07-10T08:33:11Z</time>
      </trkpt>
      <trkpt lat="41.93029" lon="2.2181988">
        <time>2022-07-10T08:33:12Z</time>
      </trkpt>
      <trkpt lat="41.930264" lon="2.2183077">
        <time>2022-07-10T08:33:13Z</time>
      </trkpt>
      <trkpt lat="41.930233" lon="2.2184165">
        <time>2022-07-10T08:33:14Z</time>
      </trkpt>
      <trkpt lat="41.930206" lon="2.218525">
        <time>2022-07-10T08:33:15Z</time>
      </trkpt>
      <trkpt lat="41.930176" lon="2.2186403">
        <time>2022-07-10T08:33:16Z</time>
      </trkpt>
      <trkpt lat="41.93015" lon="2.218746">
        <time>2022-07-10T08:33:17Z</time>
      </trkpt>
      <trkpt lat="41.93012" lon="2.2188594">
        <time>2022-07-10T08:33:18Z</time>
      </trkpt>
      <trkpt lat="41.930088" lon="2.218972">
        <time>2022-07-10T08:33:19Z</time>
      </trkpt>
      <trkpt lat="41.93006" lon="2.2190776">
        <time>2022-07-10T08:33:20Z</time>
      </trkpt>
      <trkpt lat="41.930035" lon="2.219186">
        <time>2022-07-10T08:33:21Z</time>
      </trkpt>
      <trkpt lat="41.930004" lon="2.219296">
        <time>2022-07-10T08:33:22Z</time>
      </trkpt>
      <trkpt lat="41.929977" lon="2.219408">
        <time>2022-07-10T08:33:23Z</time>
      </trkpt>
      <trkpt lat="41.929947" lon="2.2195227">
        <time>2022-07-10T08:33:24Z</time>
      </trkpt>
      <trkpt lat="41.929916" lon="2.2196393">
        <time>2022-07-10T08:33:25Z</time>
      </trkpt>
      <trkpt lat="41.929882" lon="2.2197573">
        <time>2022-07-10T08:33:26Z</time>
      </trkpt>
      <trkpt lat="41.929848" lon="2.2198844">
        <time>2022-07-10T08:33:27Z</time>
      </trkpt>
      <trkpt lat="41.929813" lon="2.2200105">
        <time>2022-07-10T08:33:28Z</time>
      </trkpt>
      <trkpt lat="41.929783" lon="2.220129">
        <time>2022-07-10T08:33:29Z</time>
      </trkpt>
      <trkpt lat="41.92975" lon="2.2202487">
        <time>2022-07-10T08:33:30Z</time>
      </trkpt>
      <trkpt lat="41.929714" lon="2.220378">
        <time>2022-07-10T08:33:31Z</time>
      </trkpt>
      <trkpt lat="41.92968" lon="2.2205045">
        <time>2022-07-10T08:33:32Z</time>
      </trkpt>
      <trkpt lat="41.92965" lon="2.2206216">
        <time>2022-07-10T08:33:33Z</time>
      </trkpt>
      <trkpt lat="41.92962" lon="2.2207494">
        <time>2022-07-10T08:33:34Z</time>
      </trkpt>
      <trkpt lat="41.929585" lon="2.2208762">
        <time>2022-07-10T08:33:35Z</time>
      </trkpt>
      <trkpt lat="41.929558" lon="2.2209942">
        <time>2022-07-10T08:33:36Z</time>
      </trkpt>
      <trkpt lat="41.929527" lon="2.2211132">
        <time>2022-07-10T08:33:37Z</time>
      </trkpt>
      <trkpt lat="41.929497" lon="2.2212334">
        <time>2022-07-10T08:33:38Z</time>
      </trkpt>
      <trkpt lat="41.929466" lon="2.221354">
        <time>2022-07-10T08:33:39Z</time>
      </trkpt>
      <trkpt lat="41.929432" lon="2.2214832">
        <time>2022-07-10T08:33:40Z</time>
      </trkpt>
      <trkpt lat="41.929398" lon="2.2216098">
        <time>2022-07-10T08:33:41Z</time>
      </trkpt>
      <trkpt lat="41.92937" lon="2.221726">
        <time>2022-07-10T08:33:42Z</time>
      </trkpt>
      <trkpt lat="41.92934" lon="2.2218442">
        <time>2022-07-10T08:33:43Z</time>
      </trkpt>
      <trkpt lat="41.929306" lon="2.2219622">
        <time>2022-07-10T08:33:44Z</time>
      </trkpt>
      <trkpt lat="41.929276" lon="2.2220902">
        <time>2022-07-10T08:33:45Z</time>
      </trkpt>
      <trkpt lat="41.929214" lon="2.2223299">
        <time>2022-07-10T08:33:47Z</time>
      </trkpt>
      <trkpt lat="41.92918" lon="2.2224517">
        <time>2022-07-10T08:33:48Z</time>
      </trkpt>
      <trkpt lat="41.92915" lon="2.2225807">
        <time>2022-07-10T08:33:49Z</time>
      </trkpt>
      <trkpt lat="41.929115" lon="2.2227068">
        <time>2022-07-10T08:33:50Z</time>
      </trkpt>
      <trkpt lat="41.929085" lon="2.2228305">
        <time>2022-07-10T08:33:51Z</time>
      </trkpt>
      <trkpt lat="41.92905" lon="2.2229526">
        <time>2022-07-10T08:33:52Z</time>
      </trkpt>
      <trkpt lat="41.92902" lon="2.2230747">
        <time>2022-07-10T08:33:53Z</time>
      </trkpt>
      <trkpt lat="41.92899" lon="2.2231975">
        <time>2022-07-10T08:33:54Z</time>
      </trkpt>
      <trkpt lat="41.92896" lon="2.2233205">
        <time>2022-07-10T08:33:55Z</time>
      </trkpt>
      <trkpt lat="41.92893" lon="2.2234435">
        <time>2022-07-10T08:33:56Z</time>
      </trkpt>
      <trkpt lat="41.9289" lon="2.2235582">
        <time>2022-07-10T08:33:57Z</time>
      </trkpt>
      <trkpt lat="41.92887" lon="2.2236738">
        <time>2022-07-10T08:33:58Z</time>
      </trkpt>
      <trkpt lat="41.92884" lon="2.2237983">
        <time>2022-07-10T08:33:59Z</time>
      </trkpt>
      <trkpt lat="41.928806" lon="2.2239215">
        <time>2022-07-10T08:34:00Z</time>
      </trkpt>
      <trkpt lat="41.92878" lon="2.2240362">
        <time>2022-07-10T08:34:01Z</time>
      </trkpt>
      <trkpt lat="41.92875" lon="2.224151">
        <time>2022-07-10T08:34:02Z</time>
      </trkpt>
      <trkpt lat="41.92872" lon="2.2242641">
        <time>2022-07-10T08:34:03Z</time>
      </trkpt>
      <trkpt lat="41.928688" lon="2.224377">
        <time>2022-07-10T08:34:04Z</time>
      </trkpt>
      <trkpt lat="41.928658" lon="2.224497">
        <time>2022-07-10T08:34:05Z</time>
      </trkpt>
      <trkpt lat="41.928627" lon="2.2246149">
        <time>2022-07-10T08:34:06Z</time>
      </trkpt>
      <trkpt lat="41.9286" lon="2.2247229">
        <time>2022-07-10T08:34:07Z</time>
      </trkpt>
      <trkpt lat="41.92857" lon="2.2248304">
        <time>2022-07-10T08:34:08Z</time>
      </trkpt>
      <trkpt lat="41.928543" lon="2.224938">
        <time>2022-07-10T08:34:09Z</time>
      </trkpt>
      <trkpt lat="41.928513" lon="2.2250514">
        <time>2022-07-10T08:34:10Z</time>
      </trkpt>
      <trkpt lat="41.928482" lon="2.2251618">
        <time>2022-07-10T08:34:11Z</time>
      </trkpt>
      <trkpt lat="41.928455" lon="2.2252624">
        <time>2022-07-10T08:34:12Z</time>
      </trkpt>
      <trkpt lat="41.92843" lon="2.2253633">
        <time>2022-07-10T08:34:13Z</time>
      </trkpt>
      <trkpt lat="41.9284" lon="2.22547">
        <time>2022-07-10T08:34:14Z</time>
      </trkpt>
      <trkpt lat="41.92837" lon="2.2255738">
        <time>2022-07-10T08:34:15Z</time>
      </trkpt>
      <trkpt lat="41.928345" lon="2.2256684">
        <time>2022-07-10T08:34:16Z</time>
      </trkpt>
      <trkpt lat="41.92832" lon="2.2257628">
        <time>2022-07-10T08:34:17Z</time>
      </trkpt>
      <trkpt lat="41.92829" lon="2.2258615">
        <time>2022-07-10T08:34:18Z</time>
      </trkpt>
      <trkpt lat="41.92827" lon="2.2259572">
        <time>2022-07-10T08:34:19Z</time>
      </trkpt>
      <trkpt lat="41.92824" lon="2.2260492">
        <time>2022-07-10T08:34:20Z</time>
      </trkpt>
      <trkpt lat="41.928223" lon="2.2261329">
        <time>2022-07-10T08:34:21Z</time>
      </trkpt>
      <trkpt lat="41.9282" lon="2.2262163">
        <time>2022-07-10T08:34:22Z</time>
      </trkpt>
      <trkpt lat="41.928177" lon="2.226299">
        <time>2022-07-10T08:34:23Z</time>
      </trkpt>
      <trkpt lat="41.928158" lon="2.2263808">
        <time>2022-07-10T08:34:24Z</time>
      </trkpt>
      <trkpt lat="41.928135" lon="2.2264664">
        <time>2022-07-10T08:34:25Z</time>
      </trkpt>
      <trkpt lat="41.928112" lon="2.2265458">
        <time>2022-07-10T08:34:26Z</time>
      </trkpt>
      <trkpt lat="41.928093" lon="2.226625">
        <time>2022-07-10T08:34:27Z</time>
      </trkpt>
      <trkpt lat="41.928074" lon="2.2267041">
        <time>2022-07-10T08:34:28Z</time>
      </trkpt>
      <trkpt lat="41.928055" lon="2.226782">
        <time>2022-07-10T08:34:29Z</time>
      </trkpt>
      <trkpt lat="41.92804" lon="2.226861">
        <time>2022-07-10T08:34:30Z</time>
      </trkpt>
      <trkpt lat="41.92802" lon="2.226938">
        <time>2022-07-10T08:34:31Z</time>
      </trkpt>
      <trkpt lat="41.928" lon="2.2270143">
        <time>2022-07-10T08:34:32Z</time>
      </trkpt>
      <trkpt lat="41.927986" lon="2.2270896">
        <time>2022-07-10T08:34:33Z</time>
      </trkpt>
      <trkpt lat="41.927967" lon="2.2271645">
        <time>2022-07-10T08:34:34Z</time>
      </trkpt>
      <trkpt lat="41.927956" lon="2.227238">
        <time>2022-07-10T08:34:35Z</time>
      </trkpt>
      <trkpt lat="41.92794" lon="2.2273111">
        <time>2022-07-10T08:34:36Z</time>
      </trkpt>
      <trkpt lat="41.927925" lon="2.2273836">
        <time>2022-07-10T08:34:37Z</time>
      </trkpt>
      <trkpt lat="41.927914" lon="2.2274537">
        <time>2022-07-10T08:34:38Z</time>
      </trkpt>
      <trkpt lat="41.927902" lon="2.2275233">
        <time>2022-07-10T08:34:39Z</time>
      </trkpt>
      <trkpt lat="41.92789" lon="2.2275913">
        <time>2022-07-10T08:34:40Z</time>
      </trkpt>
      <trkpt lat="41.927883" lon="2.227659">
        <time>2022-07-10T08:34:41Z</time>
      </trkpt>
      <trkpt lat="41.927876" lon="2.2277253">
        <time>2022-07-10T08:34:42Z</time>
      </trkpt>
      <trkpt lat="41.92786" lon="2.2278538">
        <time>2022-07-10T08:34:44Z</time>
      </trkpt>
      <trkpt lat="41.92785" lon="2.2279756">
        <time>2022-07-10T08:34:46Z</time>
      </trkpt>
      <trkpt lat="41.927837" lon="2.2280886">
        <time>2022-07-10T08:34:48Z</time>
      </trkpt>
      <trkpt lat="41.927834" lon="2.22819">
        <time>2022-07-10T08:34:50Z</time>
      </trkpt>
      <trkpt lat="41.92783" lon="2.228288">
        <time>2022-07-10T08:34:52Z</time>
      </trkpt>
      <trkpt lat="41.927826" lon="2.228385">
        <time>2022-07-10T08:34:54Z</time>
      </trkpt>
      <trkpt lat="41.927822" lon="2.2284806">
        <time>2022-07-10T08:34:56Z</time>
      </trkpt>
      <trkpt lat="41.927822" lon="2.228577">
        <time>2022-07-10T08:34:58Z</time>
      </trkpt>
      <trkpt lat="41.92782" lon="2.2286766">
        <time>2022-07-10T08:35:00Z</time>
      </trkpt>
      <trkpt lat="41.92782" lon="2.2287757">
        <time>2022-07-10T08:35:02Z</time>
      </trkpt>
      <trkpt lat="41.92782" lon="2.2288773">
        <time>2022-07-10T08:35:04Z</time>
      </trkpt>
      <trkpt lat="41.927814" lon="2.22898">
        <time>2022-07-10T08:35:06Z</time>
      </trkpt>
      <trkpt lat="41.927807" lon="2.229082">
        <time>2022-07-10T08:35:08Z</time>
      </trkpt>
      <trkpt lat="41.927795" lon="2.2291837">
        <time>2022-07-10T08:35:10Z</time>
      </trkpt>
      <trkpt lat="41.927788" lon="2.2292862">
        <time>2022-07-10T08:35:12Z</time>
      </trkpt>
      <trkpt lat="41.927773" lon="2.2293882">
        <time>2022-07-10T08:35:14Z</time>
      </trkpt>
      <trkpt lat="41.927753" lon="2.229493">
        <time>2022-07-10T08:35:16Z</time>
      </trkpt>
      <trkpt lat="41.92773" lon="2.2296014">
        <time>2022-07-10T08:35:18Z</time>
      </trkpt>
      <trkpt lat="41.927708" lon="2.2297127">
        <time>2022-07-10T08:35:20Z</time>
      </trkpt>
      <trkpt lat="41.92768" lon="2.2298224">
        <time>2022-07-10T08:35:22Z</time>
      </trkpt>
      <trkpt lat="41.92765" lon="2.2299337">
        <time>2022-07-10T08:35:24Z</time>
      </trkpt>
      <trkpt lat="41.927624" lon="2.230048">
        <time>2022-07-10T08:35:26Z</time>
      </trkpt>
      <trkpt lat="41.927597" lon="2.230165">
        <time>2022-07-10T08:35:28Z</time>
      </trkpt>
      <trkpt lat="41.927567" lon="2.2302825">
        <time>2022-07-10T08:35:30Z</time>
      </trkpt>
      <trkpt lat="41.927536" lon="2.2304037">
        <time>2022-07-10T08:35:32Z</time>
      </trkpt>
      <trkpt lat="41.927498" lon="2.2305293">
        <time>2022-07-10T08:35:34Z</time>
      </trkpt>
      <trkpt lat="41.92746" lon="2.230661">
        <time>2022-07-10T08:35:36Z</time>
      </trkpt>
      <trkpt lat="41.92744" lon="2.2307293">
        <time>2022-07-10T08:35:37Z</time>
      </trkpt>
      <trkpt lat="41.927418" lon="2.2307997">
        <time>2022-07-10T08:35:38Z</time>
      </trkpt>
      <trkpt lat="41.9274" lon="2.2308733">
        <time>2022-07-10T08:35:39Z</time>
      </trkpt>
      <trkpt lat="41.927383" lon="2.2309499">
        <time>2022-07-10T08:35:40Z</time>
      </trkpt>
      <trkpt lat="41.927364" lon="2.2310288">
        <time>2022-07-10T08:35:41Z</time>
      </trkpt>
      <trkpt lat="41.927345" lon="2.2311115">
        <time>2022-07-10T08:35:42Z</time>
      </trkpt>
      <trkpt lat="41.927326" lon="2.2311976">
        <time>2022-07-10T08:35:43Z</time>
      </trkpt>
      <trkpt lat="41.92731" lon="2.2312882">
        <time>2022-07-10T08:35:44Z</time>
      </trkpt>
      <trkpt lat="41.9273" lon="2.231381">
        <time>2022-07-10T08:35:45Z</time>
      </trkpt>
      <trkpt lat="41.927284" lon="2.231483">
        <time>2022-07-10T08:35:46Z</time>
      </trkpt>
      <trkpt lat="41.927273" lon="2.2315862">
        <time>2022-07-10T08:35:47Z</time>
      </trkpt>
      <trkpt lat="41.927265" lon="2.231685">
        <time>2022-07-10T08:35:48Z</time>
      </trkpt>
      <trkpt lat="41.927258" lon="2.2317896">
        <time>2022-07-10T08:35:49Z</time>
      </trkpt>
      <trkpt lat="41.927258" lon="2.2318993">
        <time>2022-07-10T08:35:50Z</time>
      </trkpt>
      <trkpt lat="41.927254" lon="2.232014">
        <time>2022-07-10T08:35:51Z</time>
      </trkpt>
      <trkpt lat="41.927254" lon="2.2321324">
        <time>2022-07-10T08:35:52Z</time>
      </trkpt>
      <trkpt lat="41.927258" lon="2.2322547">
        <time>2022-07-10T08:35:53Z</time>
      </trkpt>
      <trkpt lat="41.927258" lon="2.2323818">
        <time>2022-07-10T08:35:54Z</time>
      </trkpt>
      <trkpt lat="41.927258" lon="2.232513">
        <time>2022-07-10T08:35:55Z</time>
      </trkpt>
      <trkpt lat="41.92726" lon="2.2326472">
        <time>2022-07-10T08:35:56Z</time>
      </trkpt>
      <trkpt lat="41.92726" lon="2.2327855">
        <time>2022-07-10T08:35:57Z</time>
      </trkpt>
      <trkpt lat="41.92726" lon="2.2329266">
        <time>2022-07-10T08:35:58Z</time>
      </trkpt>
      <trkpt lat="41.927254" lon="2.233069">
        <time>2022-07-10T08:35:59Z</time>
      </trkpt>
      <trkpt lat="41.927246" lon="2.233214">
        <time>2022-07-10T08:36:00Z</time>
      </trkpt>
      <trkpt lat="41.92723" lon="2.2335005">
        <time>2022-07-10T08:36:02Z</time>
      </trkpt>
      <trkpt lat="41.92722" lon="2.233653">
        <time>2022-07-10T08:36:03Z</time>
      </trkpt>
      <trkpt lat="41.927208" lon="2.2338047">
        <time>2022-07-10T08:36:04Z</time>
      </trkpt>
      <trkpt lat="41.927197" lon="2.2339554">
        <time>2022-07-10T08:36:05Z</time>
      </trkpt>
      <trkpt lat="41.92719" lon="2.2341068">
        <time>2022-07-10T08:36:06Z</time>
      </trkpt>
      <trkpt lat="41.92718" lon="2.234249">
        <time>2022-07-10T08:36:07Z</time>
      </trkpt>
      <trkpt lat="41.927177" lon="2.2344048">
        <time>2022-07-10T08:36:08Z</time>
      </trkpt>
      <trkpt lat="41.927177" lon="2.234559">
        <time>2022-07-10T08:36:09Z</time>
      </trkpt>
      <trkpt lat="41.927177" lon="2.234713">
        <time>2022-07-10T08:36:10Z</time>
      </trkpt>
      <trkpt lat="41.92718" lon="2.234866">
        <time>2022-07-10T08:36:11Z</time>
      </trkpt>
      <trkpt lat="41.927185" lon="2.2350075">
        <time>2022-07-10T08:36:12Z</time>
      </trkpt>
      <trkpt lat="41.92719" lon="2.2351599">
        <time>2022-07-10T08:36:13Z</time>
      </trkpt>
      <trkpt lat="41.927193" lon="2.2352993">
        <time>2022-07-10T08:36:14Z</time>
      </trkpt>
      <trkpt lat="41.9272" lon="2.235438">
        <time>2022-07-10T08:36:15Z</time>
      </trkpt>
      <trkpt lat="41.927204" lon="2.2355847">
        <time>2022-07-10T08:36:16Z</time>
      </trkpt>
      <trkpt lat="41.927204" lon="2.2357185">
        <time>2022-07-10T08:36:17Z</time>
      </trkpt>
      <trkpt lat="41.927208" lon="2.235858">
        <time>2022-07-10T08:36:18Z</time>
      </trkpt>
      <trkpt lat="41.927208" lon="2.235991">
        <time>2022-07-10T08:36:19Z</time>
      </trkpt>
      <trkpt lat="41.927208" lon="2.2361197">
        <time>2022-07-10T08:36:20Z</time>
      </trkpt>
      <trkpt lat="41.92721" lon="2.2362437">
        <time>2022-07-10T08:36:21Z</time>
      </trkpt>
      <trkpt lat="41.927216" lon="2.2363634">
        <time>2022-07-10T08:36:22Z</time>
      </trkpt>
      <trkpt lat="41.927216" lon="2.2364793">
        <time>2022-07-10T08:36:23Z</time>
      </trkpt>
      <trkpt lat="41.92722" lon="2.2365918">
        <time>2022-07-10T08:36:24Z</time>
      </trkpt>
      <trkpt lat="41.92722" lon="2.2367015">
        <time>2022-07-10T08:36:25Z</time>
      </trkpt>
      <trkpt lat="41.927223" lon="2.236808">
        <time>2022-07-10T08:36:26Z</time>
      </trkpt>
      <trkpt lat="41.927223" lon="2.2369134">
        <time>2022-07-10T08:36:27Z</time>
      </trkpt>
      <trkpt lat="41.927227" lon="2.2371264">
        <time>2022-07-10T08:36:29Z</time>
      </trkpt>
      <trkpt lat="41.92723" lon="2.2372267">
        <time>2022-07-10T08:36:30Z</time>
      </trkpt>
      <trkpt lat="41.92723" lon="2.2373264">
        <time>2022-07-10T08:36:31Z</time>
      </trkpt>
      <trkpt lat="41.927235" lon="2.2374253">
        <time>2022-07-10T08:36:32Z</time>
      </trkpt>
      <trkpt lat="41.92724" lon="2.237524">
        <time>2022-07-10T08:36:33Z</time>
      </trkpt>
      <trkpt lat="41.92724" lon="2.237621">
        <time>2022-07-10T08:36:34Z</time>
      </trkpt>
      <trkpt lat="41.927242" lon="2.2377183">
        <time>2022-07-10T08:36:35Z</time>
      </trkpt>
      <trkpt lat="41.927246" lon="2.2378147">
        <time>2022-07-10T08:36:36Z</time>
      </trkpt>
      <trkpt lat="41.92725" lon="2.2379107">
        <time>2022-07-10T08:36:37Z</time>
      </trkpt>
      <trkpt lat="41.927254" lon="2.2380073">
        <time>2022-07-10T08:36:38Z</time>
      </trkpt>
      <trkpt lat="41.927254" lon="2.238097">
        <time>2022-07-10T08:36:39Z</time>
      </trkpt>
      <trkpt lat="41.927258" lon="2.2381876">
        <time>2022-07-10T08:36:40Z</time>
      </trkpt>
      <trkpt lat="41.92726" lon="2.2382793">
        <time>2022-07-10T08:36:41Z</time>
      </trkpt>
      <trkpt lat="41.927265" lon="2.2383704">
        <time>2022-07-10T08:36:42Z</time>
      </trkpt>
      <trkpt lat="41.927265" lon="2.2384613">
        <time>2022-07-10T08:36:43Z</time>
      </trkpt>
      <trkpt lat="41.92727" lon="2.238551">
        <time>2022-07-10T08:36:44Z</time>
      </trkpt>
      <trkpt lat="41.927273" lon="2.238641">
        <time>2022-07-10T08:36:45Z</time>
      </trkpt>
      <trkpt lat="41.927277" lon="2.2387316">
        <time>2022-07-10T08:36:46Z</time>
      </trkpt>
      <trkpt lat="41.92728" lon="2.238822">
        <time>2022-07-10T08:36:47Z</time>
      </trkpt>
      <trkpt lat="41.92728" lon="2.238911">
        <time>2022-07-10T08:36:48Z</time>
      </trkpt>
      <trkpt lat="41.927284" lon="2.2389977">
        <time>2022-07-10T08:36:49Z</time>
      </trkpt>
      <trkpt lat="41.927284" lon="2.2390833">
        <time>2022-07-10T08:36:50Z</time>
      </trkpt>
      <trkpt lat="41.927288" lon="2.2391667">
        <time>2022-07-10T08:36:51Z</time>
      </trkpt>
      <trkpt lat="41.927288" lon="2.2392485">
        <time>2022-07-10T08:36:52Z</time>
      </trkpt>
      <trkpt lat="41.927288" lon="2.2393289">
        <time>2022-07-10T08:36:53Z</time>
      </trkpt>
      <trkpt lat="41.927288" lon="2.2394083">
        <time>2022-07-10T08:36:54Z</time>
      </trkpt>
      <trkpt lat="41.927284" lon="2.2394867">
        <time>2022-07-10T08:36:55Z</time>
      </trkpt>
      <trkpt lat="41.927284" lon="2.2395632">
        <time>2022-07-10T08:36:56Z</time>
      </trkpt>
      <trkpt lat="41.92728" lon="2.2396376">
        <time>2022-07-10T08:36:57Z</time>
      </trkpt>
      <trkpt lat="41.927277" lon="2.2397156">
        <time>2022-07-10T08:36:58Z</time>
      </trkpt>
      <trkpt lat="41.92727" lon="2.2397876">
        <time>2022-07-10T08:36:59Z</time>
      </trkpt>
      <trkpt lat="41.927254" lon="2.2398646">
        <time>2022-07-10T08:37:00Z</time>
      </trkpt>
      <trkpt lat="41.927235" lon="2.2399375">
        <time>2022-07-10T08:37:01Z</time>
      </trkpt>
      <trkpt lat="41.927216" lon="2.2400029">
        <time>2022-07-10T08:37:02Z</time>
      </trkpt>
      <trkpt lat="41.927185" lon="2.240066">
        <time>2022-07-10T08:37:03Z</time>
      </trkpt>
      <trkpt lat="41.92715" lon="2.240125">
        <time>2022-07-10T08:37:04Z</time>
      </trkpt>
      <trkpt lat="41.92711" lon="2.2401786">
        <time>2022-07-10T08:37:05Z</time>
      </trkpt>
      <trkpt lat="41.927063" lon="2.2402298">
        <time>2022-07-10T08:37:06Z</time>
      </trkpt>
      <trkpt lat="41.927017" lon="2.24028">
        <time>2022-07-10T08:37:07Z</time>
      </trkpt>
      <trkpt lat="41.926926" lon="2.2403903">
        <time>2022-07-10T08:37:09Z</time>
      </trkpt>
      <trkpt lat="41.926895" lon="2.2404535">
        <time>2022-07-10T08:37:10Z</time>
      </trkpt>
      <trkpt lat="41.92687" lon="2.2405226">
        <time>2022-07-10T08:37:11Z</time>
      </trkpt>
      <trkpt lat="41.926846" lon="2.2405953">
        <time>2022-07-10T08:37:12Z</time>
      </trkpt>
      <trkpt lat="41.92683" lon="2.2406678">
        <time>2022-07-10T08:37:13Z</time>
      </trkpt>
      <trkpt lat="41.92681" lon="2.2407398">
        <time>2022-07-10T08:37:14Z</time>
      </trkpt>
      <trkpt lat="41.926792" lon="2.2408092">
        <time>2022-07-10T08:37:15Z</time>
      </trkpt>
      <trkpt lat="41.926773" lon="2.240875">
        <time>2022-07-10T08:37:16Z</time>
      </trkpt>
      <trkpt lat="41.92675" lon="2.2409353">
        <time>2022-07-10T08:37:17Z</time>
      </trkpt>
      <trkpt lat="41.92671" lon="2.2410386">
        <time>2022-07-10T08:37:19Z</time>
      </trkpt>
      <trkpt lat="41.926666" lon="2.2411153">
        <time>2022-07-10T08:37:21Z</time>
      </trkpt>
      <trkpt lat="41.926643" lon="2.241159">
        <time>2022-07-10T08:37:23Z</time>
      </trkpt>
      <trkpt lat="41.92654" lon="2.2412708">
        <time>2022-07-10T08:39:48Z</time>
      </trkpt>
      <trkpt lat="41.926487" lon="2.2413528">
        <time>2022-07-10T08:39:50Z</time>
      </trkpt>
      <trkpt lat="41.926422" lon="2.241453">
        <time>2022-07-10T08:39:52Z</time>
      </trkpt>
      <trkpt lat="41.926384" lon="2.241509">
        <time>2022-07-10T08:39:53Z</time>
      </trkpt>
      <trkpt lat="41.926346" lon="2.2415712">
        <time>2022-07-10T08:39:54Z</time>
      </trkpt>
      <trkpt lat="41.926308" lon="2.2416306">
        <time>2022-07-10T08:39:55Z</time>
      </trkpt>
      <trkpt lat="41.926266" lon="2.2416916">
        <time>2022-07-10T08:39:56Z</time>
      </trkpt>
      <trkpt lat="41.926224" lon="2.2417562">
        <time>2022-07-10T08:39:57Z</time>
      </trkpt>
      <trkpt lat="41.926178" lon="2.2418242">
        <time>2022-07-10T08:39:58Z</time>
      </trkpt>
      <trkpt lat="41.926132" lon="2.2418954">
        <time>2022-07-10T08:39:59Z</time>
      </trkpt>
      <trkpt lat="41.926086" lon="2.2419715">
        <time>2022-07-10T08:40:00Z</time>
      </trkpt>
      <trkpt lat="41.926044" lon="2.2420516">
        <time>2022-07-10T08:40:01Z</time>
      </trkpt>
      <trkpt lat="41.926003" lon="2.2421353">
        <time>2022-07-10T08:40:02Z</time>
      </trkpt>
      <trkpt lat="41.92596" lon="2.2422237">
        <time>2022-07-10T08:40:03Z</time>
      </trkpt>
      <trkpt lat="41.92592" lon="2.242317">
        <time>2022-07-10T08:40:04Z</time>
      </trkpt>
      <trkpt lat="41.925884" lon="2.2424135">
        <time>2022-07-10T08:40:05Z</time>
      </trkpt>
      <trkpt lat="41.92585" lon="2.2425134">
        <time>2022-07-10T08:40:06Z</time>
      </trkpt>
      <trkpt lat="41.925816" lon="2.2426176">
        <time>2022-07-10T08:40:07Z</time>
      </trkpt>
      <trkpt lat="41.925785" lon="2.2427227">
        <time>2022-07-10T08:40:08Z</time>
      </trkpt>
      <trkpt lat="41.925762" lon="2.2428303">
        <time>2022-07-10T08:40:09Z</time>
      </trkpt>
      <trkpt lat="41.92574" lon="2.2429385">
        <time>2022-07-10T08:40:10Z</time>
      </trkpt>
      <trkpt lat="41.92572" lon="2.2430472">
        <time>2022-07-10T08:40:11Z</time>
      </trkpt>
      <trkpt lat="41.925705" lon="2.2431564">
        <time>2022-07-10T08:40:12Z</time>
      </trkpt>
      <trkpt lat="41.925694" lon="2.2432659">
        <time>2022-07-10T08:40:13Z</time>
      </trkpt>
      <trkpt lat="41.925682" lon="2.2433767">
        <time>2022-07-10T08:40:14Z</time>
      </trkpt>
      <trkpt lat="41.92567" lon="2.243488">
        <time>2022-07-10T08:40:15Z</time>
      </trkpt>
      <trkpt lat="41.925663" lon="2.2436">
        <time>2022-07-10T08:40:16Z</time>
      </trkpt>
      <trkpt lat="41.925648" lon="2.2437105">
        <time>2022-07-10T08:40:17Z</time>
      </trkpt>
      <trkpt lat="41.925632" lon="2.2438214">
        <time>2022-07-10T08:40:18Z</time>
      </trkpt>
      <trkpt lat="41.92561" lon="2.2439332">
        <time>2022-07-10T08:40:19Z</time>
      </trkpt>
      <trkpt lat="41.92558" lon="2.2440422">
        <time>2022-07-10T08:40:20Z</time>
      </trkpt>
      <trkpt lat="41.92554" lon="2.2441459">
        <time>2022-07-10T08:40:21Z</time>
      </trkpt>
      <trkpt lat="41.925495" lon="2.244244">
        <time>2022-07-10T08:40:22Z</time>
      </trkpt>
      <trkpt lat="41.92544" lon="2.244336">
        <time>2022-07-10T08:40:23Z</time>
      </trkpt>
      <trkpt lat="41.92538" lon="2.2444248">
        <time>2022-07-10T08:40:24Z</time>
      </trkpt>
      <trkpt lat="41.925323" lon="2.2445002">
        <time>2022-07-10T08:40:25Z</time>
      </trkpt>
      <trkpt lat="41.92526" lon="2.24457">
        <time>2022-07-10T08:40:26Z</time>
      </trkpt>
      <trkpt lat="41.925186" lon="2.2446384">
        <time>2022-07-10T08:40:27Z</time>
      </trkpt>
      <trkpt lat="41.92512" lon="2.244698">
        <time>2022-07-10T08:40:28Z</time>
      </trkpt>
      <trkpt lat="41.92505" lon="2.2447557">
        <time>2022-07-10T08:40:29Z</time>
      </trkpt>
      <trkpt lat="41.924976" lon="2.244816">
        <time>2022-07-10T08:40:30Z</time>
      </trkpt>
      <trkpt lat="41.92484" lon="2.2449439">
        <time>2022-07-10T08:40:32Z</time>
      </trkpt>
      <trkpt lat="41.924778" lon="2.2450101">
        <time>2022-07-10T08:40:33Z</time>
      </trkpt>
      <trkpt lat="41.92473" lon="2.2450845">
        <time>2022-07-10T08:40:34Z</time>
      </trkpt>
      <trkpt lat="41.924683" lon="2.245167">
        <time>2022-07-10T08:40:35Z</time>
      </trkpt>
      <trkpt lat="41.92465" lon="2.2452567">
        <time>2022-07-10T08:40:36Z</time>
      </trkpt>
      <trkpt lat="41.924618" lon="2.2453501">
        <time>2022-07-10T08:40:37Z</time>
      </trkpt>
      <trkpt lat="41.9246" lon="2.2454472">
        <time>2022-07-10T08:40:38Z</time>
      </trkpt>
      <trkpt lat="41.924583" lon="2.2455506">
        <time>2022-07-10T08:40:39Z</time>
      </trkpt>
      <trkpt lat="41.924576" lon="2.2456534">
        <time>2022-07-10T08:40:40Z</time>
      </trkpt>
      <trkpt lat="41.924576" lon="2.245749">
        <time>2022-07-10T08:40:41Z</time>
      </trkpt>
      <trkpt lat="41.924576" lon="2.2458467">
        <time>2022-07-10T08:40:42Z</time>
      </trkpt>
      <trkpt lat="41.924583" lon="2.2459447">
        <time>2022-07-10T08:40:43Z</time>
      </trkpt>
      <trkpt lat="41.92459" lon="2.246042">
        <time>2022-07-10T08:40:44Z</time>
      </trkpt>
      <trkpt lat="41.9246" lon="2.2461393">
        <time>2022-07-10T08:40:45Z</time>
      </trkpt>
      <trkpt lat="41.924606" lon="2.2462354">
        <time>2022-07-10T08:40:46Z</time>
      </trkpt>
      <trkpt lat="41.924618" lon="2.2463315">
        <time>2022-07-10T08:40:47Z</time>
      </trkpt>
      <trkpt lat="41.924625" lon="2.2464256">
        <time>2022-07-10T08:40:48Z</time>
      </trkpt>
      <trkpt lat="41.924633" lon="2.246519">
        <time>2022-07-10T08:40:49Z</time>
      </trkpt>
      <trkpt lat="41.92464" lon="2.2466116">
        <time>2022-07-10T08:40:50Z</time>
      </trkpt>
      <trkpt lat="41.924644" lon="2.2467036">
        <time>2022-07-10T08:40:51Z</time>
      </trkpt>
      <trkpt lat="41.92465" lon="2.2467937">
        <time>2022-07-10T08:40:52Z</time>
      </trkpt>
      <trkpt lat="41.92465" lon="2.2468836">
        <time>2022-07-10T08:40:53Z</time>
      </trkpt>
      <trkpt lat="41.924652" lon="2.2469733">
        <time>2022-07-10T08:40:54Z</time>
      </trkpt>
      <trkpt lat="41.924652" lon="2.2470613">
        <time>2022-07-10T08:40:55Z</time>
      </trkpt>
      <trkpt lat="41.924652" lon="2.247148">
        <time>2022-07-10T08:40:56Z</time>
      </trkpt>
      <trkpt lat="41.924656" lon="2.2472334">
        <time>2022-07-10T08:40:57Z</time>
      </trkpt>
      <trkpt lat="41.924656" lon="2.247318">
        <time>2022-07-10T08:40:58Z</time>
      </trkpt>
      <trkpt lat="41.924656" lon="2.2474008">
        <time>2022-07-10T08:40:59Z</time>
      </trkpt>
      <trkpt lat="41.924656" lon="2.2474825">
        <time>2022-07-10T08:41:00Z</time>
      </trkpt>
      <trkpt lat="41.924652" lon="2.2475634">
        <time>2022-07-10T08:41:01Z</time>
      </trkpt>
      <trkpt lat="41.924652" lon="2.2476487">
        <time>2022-07-10T08:41:02Z</time>
      </trkpt>
      <trkpt lat="41.924652" lon="2.2477274">
        <time>2022-07-10T08:41:03Z</time>
      </trkpt>
      <trkpt lat="41.924652" lon="2.2478063">
        <time>2022-07-10T08:41:04Z</time>
      </trkpt>
      <trkpt lat="41.924656" lon="2.247884">
        <time>2022-07-10T08:41:05Z</time>
      </trkpt>
      <trkpt lat="41.924656" lon="2.247961">
        <time>2022-07-10T08:41:06Z</time>
      </trkpt>
      <trkpt lat="41.92466" lon="2.2480366">
        <time>2022-07-10T08:41:07Z</time>
      </trkpt>
      <trkpt lat="41.924667" lon="2.24811">
        <time>2022-07-10T08:41:08Z</time>
      </trkpt>
      <trkpt lat="41.92467" lon="2.2481792">
        <time>2022-07-10T08:41:09Z</time>
      </trkpt>
      <trkpt lat="41.924683" lon="2.2483077">
        <time>2022-07-10T08:41:11Z</time>
      </trkpt>
      <trkpt lat="41.924698" lon="2.2484162">
        <time>2022-07-10T08:41:13Z</time>
      </trkpt>
      <trkpt lat="41.92471" lon="2.2485049">
        <time>2022-07-10T08:41:15Z</time>
      </trkpt>
      <trkpt lat="41.924717" lon="2.24858">
        <time>2022-07-10T08:41:17Z</time>
      </trkpt>
      <trkpt lat="41.924713" lon="2.2486503">
        <time>2022-07-10T08:41:19Z</time>
      </trkpt>
      <trkpt lat="41.92469" lon="2.2487082">
        <time>2022-07-10T08:41:21Z</time>
      </trkpt>
      <trkpt lat="41.92461" lon="2.2487552">
        <time>2022-07-10T08:41:24Z</time>
      </trkpt>
      <trkpt lat="41.924538" lon="2.2487657">
        <time>2022-07-10T08:41:26Z</time>
      </trkpt>
      <trkpt lat="41.924465" lon="2.248761">
        <time>2022-07-10T08:41:28Z</time>
      </trkpt>
      <trkpt lat="41.924385" lon="2.2487402">
        <time>2022-07-10T08:41:30Z</time>
      </trkpt>
      <trkpt lat="41.924305" lon="2.2487142">
        <time>2022-07-10T08:41:32Z</time>
      </trkpt>
      <trkpt lat="41.924225" lon="2.2487042">
        <time>2022-07-10T08:41:34Z</time>
      </trkpt>
      <trkpt lat="41.924103" lon="2.2487197">
        <time>2022-07-10T08:41:37Z</time>
      </trkpt>
      <trkpt lat="41.924023" lon="2.2487297">
        <time>2022-07-10T08:41:39Z</time>
      </trkpt>
      <trkpt lat="41.923943" lon="2.2487319">
        <time>2022-07-10T08:41:41Z</time>
      </trkpt>
      <trkpt lat="41.92386" lon="2.2487268">
        <time>2022-07-10T08:41:43Z</time>
      </trkpt>
      <trkpt lat="41.923775" lon="2.248721">
        <time>2022-07-10T08:41:45Z</time>
      </trkpt>
      <trkpt lat="41.923695" lon="2.248713">
        <time>2022-07-10T08:41:47Z</time>
      </trkpt>
      <trkpt lat="41.92361" lon="2.248705">
        <time>2022-07-10T08:41:49Z</time>
      </trkpt>
      <trkpt lat="41.923527" lon="2.2486997">
        <time>2022-07-10T08:41:51Z</time>
      </trkpt>
      <trkpt lat="41.923443" lon="2.2486954">
        <time>2022-07-10T08:41:53Z</time>
      </trkpt>
      <trkpt lat="41.923363" lon="2.2486897">
        <time>2022-07-10T08:41:55Z</time>
      </trkpt>
      <trkpt lat="41.92328" lon="2.2486846">
        <time>2022-07-10T08:41:57Z</time>
      </trkpt>
      <trkpt lat="41.9232" lon="2.2486825">
        <time>2022-07-10T08:41:59Z</time>
      </trkpt>
      <trkpt lat="41.923115" lon="2.2486806">
        <time>2022-07-10T08:42:01Z</time>
      </trkpt>
      <trkpt lat="41.923027" lon="2.248677">
        <time>2022-07-10T08:42:03Z</time>
      </trkpt>
      <trkpt lat="41.92294" lon="2.2486727">
        <time>2022-07-10T08:42:05Z</time>
      </trkpt>
      <trkpt lat="41.922848" lon="2.248667">
        <time>2022-07-10T08:42:07Z</time>
      </trkpt>
      <trkpt lat="41.922752" lon="2.248662">
        <time>2022-07-10T08:42:09Z</time>
      </trkpt>
      <trkpt lat="41.922657" lon="2.2486596">
        <time>2022-07-10T08:42:11Z</time>
      </trkpt>
      <trkpt lat="41.922565" lon="2.2486563">
        <time>2022-07-10T08:42:13Z</time>
      </trkpt>
      <trkpt lat="41.922478" lon="2.2486534">
        <time>2022-07-10T08:42:15Z</time>
      </trkpt>
      <trkpt lat="41.922398" lon="2.2486496">
        <time>2022-07-10T08:42:17Z</time>
      </trkpt>
      <trkpt lat="41.92232" lon="2.2486496">
        <time>2022-07-10T08:42:19Z</time>
      </trkpt>
      <trkpt lat="41.92225" lon="2.2486494">
        <time>2022-07-10T08:42:21Z</time>
      </trkpt>
      <trkpt lat="41.92218" lon="2.248649">
        <time>2022-07-10T08:42:23Z</time>
      </trkpt>
      <trkpt lat="41.922115" lon="2.2486506">
        <time>2022-07-10T08:42:25Z</time>
      </trkpt>
      <trkpt lat="41.922047" lon="2.2486522">
        <time>2022-07-10T08:42:27Z</time>
      </trkpt>
      <trkpt lat="41.92198" lon="2.2486522">
        <time>2022-07-10T08:42:29Z</time>
      </trkpt>
      <trkpt lat="41.92191" lon="2.2486527">
        <time>2022-07-10T08:42:31Z</time>
      </trkpt>
      <trkpt lat="41.921833" lon="2.2486563">
        <time>2022-07-10T08:42:33Z</time>
      </trkpt>
      <trkpt lat="41.921753" lon="2.248663">
        <time>2022-07-10T08:42:35Z</time>
      </trkpt>
      <trkpt lat="41.921665" lon="2.248673">
        <time>2022-07-10T08:42:37Z</time>
      </trkpt>
      <trkpt lat="41.921574" lon="2.2486854">
        <time>2022-07-10T08:42:39Z</time>
      </trkpt>
      <trkpt lat="41.921482" lon="2.2487023">
        <time>2022-07-10T08:42:41Z</time>
      </trkpt>
      <trkpt lat="41.921337" lon="2.2487302">
        <time>2022-07-10T08:42:44Z</time>
      </trkpt>
      <trkpt lat="41.921238" lon="2.248751">
        <time>2022-07-10T08:42:46Z</time>
      </trkpt>
      <trkpt lat="41.921143" lon="2.248777">
        <time>2022-07-10T08:42:48Z</time>
      </trkpt>
      <trkpt lat="41.921043" lon="2.2488089">
        <time>2022-07-10T08:42:50Z</time>
      </trkpt>
      <trkpt lat="41.920994" lon="2.248827">
        <time>2022-07-10T08:42:51Z</time>
      </trkpt>
      <trkpt lat="41.920895" lon="2.248865">
        <time>2022-07-10T08:42:53Z</time>
      </trkpt>
      <trkpt lat="41.920845" lon="2.248884">
        <time>2022-07-10T08:42:54Z</time>
      </trkpt>
      <trkpt lat="41.920795" lon="2.248903">
        <time>2022-07-10T08:42:55Z</time>
      </trkpt>
      <trkpt lat="41.92064" lon="2.2489636">
        <time>2022-07-10T08:42:58Z</time>
      </trkpt>
      <trkpt lat="41.920578" lon="2.248987">
        <time>2022-07-10T08:42:59Z</time>
      </trkpt>
      <trkpt lat="41.92053" lon="2.2490098">
        <time>2022-07-10T08:43:00Z</time>
      </trkpt>
      <trkpt lat="41.920467" lon="2.2490366">
        <time>2022-07-10T08:43:01Z</time>
      </trkpt>
      <trkpt lat="41.920414" lon="2.249063">
        <time>2022-07-10T08:43:02Z</time>
      </trkpt>
      <trkpt lat="41.920364" lon="2.249089">
        <time>2022-07-10T08:43:03Z</time>
      </trkpt>
      <trkpt lat="41.920307" lon="2.2491183">
        <time>2022-07-10T08:43:04Z</time>
      </trkpt>
      <trkpt lat="41.92025" lon="2.2491488">
        <time>2022-07-10T08:43:05Z</time>
      </trkpt>
      <trkpt lat="41.920197" lon="2.2491815">
        <time>2022-07-10T08:43:06Z</time>
      </trkpt>
      <trkpt lat="41.920143" lon="2.2492132">
        <time>2022-07-10T08:43:07Z</time>
      </trkpt>
      <trkpt lat="41.92009" lon="2.2492466">
        <time>2022-07-10T08:43:08Z</time>
      </trkpt>
      <trkpt lat="41.920033" lon="2.2492821">
        <time>2022-07-10T08:43:09Z</time>
      </trkpt>
      <trkpt lat="41.919975" lon="2.2493193">
        <time>2022-07-10T08:43:10Z</time>
      </trkpt>
      <trkpt lat="41.91992" lon="2.2493582">
        <time>2022-07-10T08:43:11Z</time>
      </trkpt>
      <trkpt lat="41.91987" lon="2.2493958">
        <time>2022-07-10T08:43:12Z</time>
      </trkpt>
      <trkpt lat="41.919815" lon="2.2494361">
        <time>2022-07-10T08:43:13Z</time>
      </trkpt>
      <trkpt lat="41.919754" lon="2.2494805">
        <time>2022-07-10T08:43:14Z</time>
      </trkpt>
      <trkpt lat="41.919697" lon="2.2495275">
        <time>2022-07-10T08:43:15Z</time>
      </trkpt>
      <trkpt lat="41.91964" lon="2.249575">
        <time>2022-07-10T08:43:16Z</time>
      </trkpt>
      <trkpt lat="41.91958" lon="2.2496235">
        <time>2022-07-10T08:43:17Z</time>
      </trkpt>
      <trkpt lat="41.919525" lon="2.2496738">
        <time>2022-07-10T08:43:18Z</time>
      </trkpt>
      <trkpt lat="41.919464" lon="2.2497292">
        <time>2022-07-10T08:43:19Z</time>
      </trkpt>
      <trkpt lat="41.919403" lon="2.2497866">
        <time>2022-07-10T08:43:20Z</time>
      </trkpt>
      <trkpt lat="41.919346" lon="2.2498405">
        <time>2022-07-10T08:43:21Z</time>
      </trkpt>
      <trkpt lat="41.919292" lon="2.249899">
        <time>2022-07-10T08:43:22Z</time>
      </trkpt>
      <trkpt lat="41.919235" lon="2.24996">
        <time>2022-07-10T08:43:23Z</time>
      </trkpt>
      <trkpt lat="41.91918" lon="2.250023">
        <time>2022-07-10T08:43:24Z</time>
      </trkpt>
      <trkpt lat="41.919125" lon="2.2500882">
        <time>2022-07-10T08:43:25Z</time>
      </trkpt>
      <trkpt lat="41.91907" lon="2.2501547">
        <time>2022-07-10T08:43:26Z</time>
      </trkpt>
      <trkpt lat="41.919018" lon="2.2502248">
        <time>2022-07-10T08:43:27Z</time>
      </trkpt>
      <trkpt lat="41.91897" lon="2.250297">
        <time>2022-07-10T08:43:28Z</time>
      </trkpt>
      <trkpt lat="41.918915" lon="2.2503703">
        <time>2022-07-10T08:43:29Z</time>
      </trkpt>
      <trkpt lat="41.918865" lon="2.250444">
        <time>2022-07-10T08:43:30Z</time>
      </trkpt>
      <trkpt lat="41.91882" lon="2.2505176">
        <time>2022-07-10T08:43:31Z</time>
      </trkpt>
      <trkpt lat="41.91877" lon="2.2505922">
        <time>2022-07-10T08:43:32Z</time>
      </trkpt>
      <trkpt lat="41.918728" lon="2.2506678">
        <time>2022-07-10T08:43:33Z</time>
      </trkpt>
      <trkpt lat="41.918686" lon="2.250745">
        <time>2022-07-10T08:43:34Z</time>
      </trkpt>
      <trkpt lat="41.918648" lon="2.2508228">
        <time>2022-07-10T08:43:35Z</time>
      </trkpt>
      <trkpt lat="41.91861" lon="2.2508998">
        <time>2022-07-10T08:43:36Z</time>
      </trkpt>
      <trkpt lat="41.91857" lon="2.2509754">
        <time>2022-07-10T08:43:37Z</time>
      </trkpt>
      <trkpt lat="41.918537" lon="2.2510507">
        <time>2022-07-10T08:43:38Z</time>
      </trkpt>
      <trkpt lat="41.918507" lon="2.2511253">
        <time>2022-07-10T08:43:39Z</time>
      </trkpt>
      <trkpt lat="41.918476" lon="2.2511995">
        <time>2022-07-10T08:43:40Z</time>
      </trkpt>
      <trkpt lat="41.918446" lon="2.2512717">
        <time>2022-07-10T08:43:41Z</time>
      </trkpt>
      <trkpt lat="41.918415" lon="2.2513428">
        <time>2022-07-10T08:43:42Z</time>
      </trkpt>
      <trkpt lat="41.91839" lon="2.2514133">
        <time>2022-07-10T08:43:43Z</time>
      </trkpt>
      <trkpt lat="41.91836" lon="2.2514827">
        <time>2022-07-10T08:43:44Z</time>
      </trkpt>
      <trkpt lat="41.91833" lon="2.2515447">
        <time>2022-07-10T08:43:45Z</time>
      </trkpt>
      <trkpt lat="41.9183" lon="2.2516048">
        <time>2022-07-10T08:43:46Z</time>
      </trkpt>
      <trkpt lat="41.91827" lon="2.2516654">
        <time>2022-07-10T08:43:47Z</time>
      </trkpt>
      <trkpt lat="41.918243" lon="2.2517278">
        <time>2022-07-10T08:43:48Z</time>
      </trkpt>
      <trkpt lat="41.91822" lon="2.2517924">
        <time>2022-07-10T08:43:49Z</time>
      </trkpt>
      <trkpt lat="41.918205" lon="2.2520099">
        <time>2022-07-10T08:43:52Z</time>
      </trkpt>
      <trkpt lat="41.91821" lon="2.2520838">
        <time>2022-07-10T08:43:53Z</time>
      </trkpt>
      <trkpt lat="41.918213" lon="2.252159">
        <time>2022-07-10T08:43:54Z</time>
      </trkpt>
      <trkpt lat="41.918213" lon="2.2522352">
        <time>2022-07-10T08:43:55Z</time>
      </trkpt>
      <trkpt lat="41.91821" lon="2.2523134">
        <time>2022-07-10T08:43:56Z</time>
      </trkpt>
      <trkpt lat="41.91821" lon="2.2523923">
        <time>2022-07-10T08:43:57Z</time>
      </trkpt>
      <trkpt lat="41.9182" lon="2.252473">
        <time>2022-07-10T08:43:58Z</time>
      </trkpt>
      <trkpt lat="41.918198" lon="2.2525551">
        <time>2022-07-10T08:43:59Z</time>
      </trkpt>
      <trkpt lat="41.918194" lon="2.252638">
        <time>2022-07-10T08:44:00Z</time>
      </trkpt>
      <trkpt lat="41.91819" lon="2.2527227">
        <time>2022-07-10T08:44:01Z</time>
      </trkpt>
      <trkpt lat="41.918186" lon="2.2528076">
        <time>2022-07-10T08:44:02Z</time>
      </trkpt>
      <trkpt lat="41.918186" lon="2.252893">
        <time>2022-07-10T08:44:03Z</time>
      </trkpt>
      <trkpt lat="41.918186" lon="2.2529783">
        <time>2022-07-10T08:44:04Z</time>
      </trkpt>
      <trkpt lat="41.918186" lon="2.2530646">
        <time>2022-07-10T08:44:05Z</time>
      </trkpt>
      <trkpt lat="41.91819" lon="2.253151">
        <time>2022-07-10T08:44:06Z</time>
      </trkpt>
      <trkpt lat="41.918194" lon="2.2532377">
        <time>2022-07-10T08:44:07Z</time>
      </trkpt>
      <trkpt lat="41.9182" lon="2.253324">
        <time>2022-07-10T08:44:08Z</time>
      </trkpt>
      <trkpt lat="41.91821" lon="2.2534046">
        <time>2022-07-10T08:44:09Z</time>
      </trkpt>
      <trkpt lat="41.91822" lon="2.2534876">
        <time>2022-07-10T08:44:10Z</time>
      </trkpt>
      <trkpt lat="41.918236" lon="2.253578">
        <time>2022-07-10T08:44:11Z</time>
      </trkpt>
      <trkpt lat="41.918247" lon="2.2536674">
        <time>2022-07-10T08:44:12Z</time>
      </trkpt>
      <trkpt lat="41.918262" lon="2.2537544">
        <time>2022-07-10T08:44:13Z</time>
      </trkpt>
      <trkpt lat="41.918278" lon="2.253841">
        <time>2022-07-10T08:44:14Z</time>
      </trkpt>
      <trkpt lat="41.918297" lon="2.2539256">
        <time>2022-07-10T08:44:15Z</time>
      </trkpt>
      <trkpt lat="41.91832" lon="2.2540097">
        <time>2022-07-10T08:44:16Z</time>
      </trkpt>
      <trkpt lat="41.91834" lon="2.2540925">
        <time>2022-07-10T08:44:17Z</time>
      </trkpt>
      <trkpt lat="41.918365" lon="2.2541747">
        <time>2022-07-10T08:44:18Z</time>
      </trkpt>
      <trkpt lat="41.91839" lon="2.2542558">
        <time>2022-07-10T08:44:19Z</time>
      </trkpt>
      <trkpt lat="41.918415" lon="2.2543364">
        <time>2022-07-10T08:44:20Z</time>
      </trkpt>
      <trkpt lat="41.91844" lon="2.2544167">
        <time>2022-07-10T08:44:21Z</time>
      </trkpt>
      <trkpt lat="41.91847" lon="2.2544973">
        <time>2022-07-10T08:44:22Z</time>
      </trkpt>
      <trkpt lat="41.918495" lon="2.2545803">
        <time>2022-07-10T08:44:23Z</time>
      </trkpt>
      <trkpt lat="41.918514" lon="2.2546654">
        <time>2022-07-10T08:44:24Z</time>
      </trkpt>
      <trkpt lat="41.91853" lon="2.2547526">
        <time>2022-07-10T08:44:25Z</time>
      </trkpt>
      <trkpt lat="41.918537" lon="2.2548404">
        <time>2022-07-10T08:44:26Z</time>
      </trkpt>
      <trkpt lat="41.91854" lon="2.2549279">
        <time>2022-07-10T08:44:27Z</time>
      </trkpt>
      <trkpt lat="41.918545" lon="2.255015">
        <time>2022-07-10T08:44:28Z</time>
      </trkpt>
      <trkpt lat="41.918545" lon="2.255102">
        <time>2022-07-10T08:44:29Z</time>
      </trkpt>
      <trkpt lat="41.918545" lon="2.255188">
        <time>2022-07-10T08:44:30Z</time>
      </trkpt>
      <trkpt lat="41.91854" lon="2.2552662">
        <time>2022-07-10T08:44:31Z</time>
      </trkpt>
      <trkpt lat="41.918526" lon="2.255346">
        <time>2022-07-10T08:44:32Z</time>
      </trkpt>
      <trkpt lat="41.918507" lon="2.2554193">
        <time>2022-07-10T08:44:33Z</time>
      </trkpt>
      <trkpt lat="41.91848" lon="2.2554836">
        <time>2022-07-10T08:44:34Z</time>
      </trkpt>
      <trkpt lat="41.91844" lon="2.2555473">
        <time>2022-07-10T08:44:35Z</time>
      </trkpt>
      <trkpt lat="41.918404" lon="2.2555978">
        <time>2022-07-10T08:44:36Z</time>
      </trkpt>
      <trkpt lat="41.918358" lon="2.2556405">
        <time>2022-07-10T08:44:37Z</time>
      </trkpt>
      <trkpt lat="41.918312" lon="2.2556736">
        <time>2022-07-10T08:44:38Z</time>
      </trkpt>
      <trkpt lat="41.918266" lon="2.2557037">
        <time>2022-07-10T08:44:39Z</time>
      </trkpt>
      <trkpt lat="41.91822" lon="2.2557318">
        <time>2022-07-10T08:44:40Z</time>
      </trkpt>
      <trkpt lat="41.918125" lon="2.2557824">
        <time>2022-07-10T08:44:42Z</time>
      </trkpt>
      <trkpt lat="41.918034" lon="2.2558315">
        <time>2022-07-10T08:44:44Z</time>
      </trkpt>
      <trkpt lat="41.917988" lon="2.2558556">
        <time>2022-07-10T08:44:45Z</time>
      </trkpt>
      <trkpt lat="41.9179" lon="2.2558985">
        <time>2022-07-10T08:44:47Z</time>
      </trkpt>
      <trkpt lat="41.917816" lon="2.2559407">
        <time>2022-07-10T08:44:49Z</time>
      </trkpt>
      <trkpt lat="41.917736" lon="2.2559843">
        <time>2022-07-10T08:44:51Z</time>
      </trkpt>
      <trkpt lat="41.917637" lon="2.2560406">
        <time>2022-07-10T08:44:54Z</time>
      </trkpt>
      <trkpt lat="41.917603" lon="2.25606">
        <time>2022-07-10T08:44:56Z</time>
      </trkpt>
      <trkpt lat="41.917522" lon="2.2560992">
        <time>2022-07-10T08:45:51Z</time>
      </trkpt>
      <trkpt lat="41.91743" lon="2.2561579">
        <time>2022-07-10T08:45:54Z</time>
      </trkpt>
      <trkpt lat="41.917366" lon="2.2561991">
        <time>2022-07-10T08:45:56Z</time>
      </trkpt>
      <trkpt lat="41.917294" lon="2.2562335">
        <time>2022-07-10T08:45:58Z</time>
      </trkpt>
      <trkpt lat="41.917225" lon="2.2562652">
        <time>2022-07-10T08:46:00Z</time>
      </trkpt>
      <trkpt lat="41.917156" lon="2.2562993">
        <time>2022-07-10T08:46:02Z</time>
      </trkpt>
      <trkpt lat="41.917088" lon="2.256331">
        <time>2022-07-10T08:46:04Z</time>
      </trkpt>
      <trkpt lat="41.91702" lon="2.2563622">
        <time>2022-07-10T08:46:06Z</time>
      </trkpt>
      <trkpt lat="41.916946" lon="2.2563941">
        <time>2022-07-10T08:46:08Z</time>
      </trkpt>
      <trkpt lat="41.916878" lon="2.2564268">
        <time>2022-07-10T08:46:10Z</time>
      </trkpt>
      <trkpt lat="41.916805" lon="2.2564616">
        <time>2022-07-10T08:46:12Z</time>
      </trkpt>
      <trkpt lat="41.916733" lon="2.2564979">
        <time>2022-07-10T08:46:14Z</time>
      </trkpt>
      <trkpt lat="41.91666" lon="2.2565339">
        <time>2022-07-10T08:46:16Z</time>
      </trkpt>
      <trkpt lat="41.916588" lon="2.2565646">
        <time>2022-07-10T08:46:18Z</time>
      </trkpt>
      <trkpt lat="41.91652" lon="2.2565944">
        <time>2022-07-10T08:46:20Z</time>
      </trkpt>
      <trkpt lat="41.916447" lon="2.256622">
        <time>2022-07-10T08:46:22Z</time>
      </trkpt>
      <trkpt lat="41.916378" lon="2.2566433">
        <time>2022-07-10T08:46:24Z</time>
      </trkpt>
      <trkpt lat="41.916306" lon="2.2566638">
        <time>2022-07-10T08:46:26Z</time>
      </trkpt>
      <trkpt lat="41.916233" lon="2.2566824">
        <time>2022-07-10T08:46:28Z</time>
      </trkpt>
      <trkpt lat="41.91616" lon="2.2566986">
        <time>2022-07-10T08:46:30Z</time>
      </trkpt>
      <trkpt lat="41.91609" lon="2.2567036">
        <time>2022-07-10T08:46:32Z</time>
      </trkpt>
      <trkpt lat="41.91602" lon="2.2567072">
        <time>2022-07-10T08:46:34Z</time>
      </trkpt>
      <trkpt lat="41.915947" lon="2.2567098">
        <time>2022-07-10T08:46:36Z</time>
      </trkpt>
      <trkpt lat="41.915874" lon="2.2567115">
        <time>2022-07-10T08:46:38Z</time>
      </trkpt>
      <trkpt lat="41.9158" lon="2.2567115">
        <time>2022-07-10T08:46:40Z</time>
      </trkpt>
      <trkpt lat="41.91572" lon="2.2567089">
        <time>2022-07-10T08:46:42Z</time>
      </trkpt>
      <trkpt lat="41.91564" lon="2.2567024">
        <time>2022-07-10T08:46:44Z</time>
      </trkpt>
      <trkpt lat="41.915565" lon="2.2566948">
        <time>2022-07-10T08:46:46Z</time>
      </trkpt>
      <trkpt lat="41.915485" lon="2.2566879">
        <time>2022-07-10T08:46:48Z</time>
      </trkpt>
      <trkpt lat="41.91541" lon="2.2566848">
        <time>2022-07-10T08:46:50Z</time>
      </trkpt>
      <trkpt lat="41.91533" lon="2.2566853">
        <time>2022-07-10T08:46:52Z</time>
      </trkpt>
      <trkpt lat="41.915257" lon="2.2566888">
        <time>2022-07-10T08:46:54Z</time>
      </trkpt>
      <trkpt lat="41.915188" lon="2.2566934">
        <time>2022-07-10T08:46:56Z</time>
      </trkpt>
      <trkpt lat="41.915115" lon="2.2566988">
        <time>2022-07-10T08:46:58Z</time>
      </trkpt>
      <trkpt lat="41.915047" lon="2.256705">
        <time>2022-07-10T08:47:00Z</time>
      </trkpt>
      <trkpt lat="41.914978" lon="2.2567115">
        <time>2022-07-10T08:47:02Z</time>
      </trkpt>
      <trkpt lat="41.91491" lon="2.2567194">
        <time>2022-07-10T08:47:04Z</time>
      </trkpt>
      <trkpt lat="41.91484" lon="2.2567294">
        <time>2022-07-10T08:47:06Z</time>
      </trkpt>
      <trkpt lat="41.914776" lon="2.25674">
        <time>2022-07-10T08:47:08Z</time>
      </trkpt>
      <trkpt lat="41.91471" lon="2.2567499">
        <time>2022-07-10T08:47:10Z</time>
      </trkpt>
      <trkpt lat="41.914646" lon="2.2567592">
        <time>2022-07-10T08:47:12Z</time>
      </trkpt>
      <trkpt lat="41.91458" lon="2.2567704">
        <time>2022-07-10T08:47:14Z</time>
      </trkpt>
      <trkpt lat="41.914516" lon="2.2567797">
        <time>2022-07-10T08:47:16Z</time>
      </trkpt>
      <trkpt lat="41.91445" lon="2.2567909">
        <time>2022-07-10T08:47:18Z</time>
      </trkpt>
      <trkpt lat="41.914394" lon="2.2568042">
        <time>2022-07-10T08:47:20Z</time>
      </trkpt>
      <trkpt lat="41.914333" lon="2.2568147">
        <time>2022-07-10T08:47:22Z</time>
      </trkpt>
      <trkpt lat="41.914276" lon="2.2568245">
        <time>2022-07-10T08:47:24Z</time>
      </trkpt>
      <trkpt lat="41.91422" lon="2.2568314">
        <time>2022-07-10T08:47:26Z</time>
      </trkpt>
      <trkpt lat="41.91416" lon="2.2568355">
        <time>2022-07-10T08:47:28Z</time>
      </trkpt>
      <trkpt lat="41.914104" lon="2.256844">
        <time>2022-07-10T08:47:30Z</time>
      </trkpt>
      <trkpt lat="41.914047" lon="2.2568529">
        <time>2022-07-10T08:47:32Z</time>
      </trkpt>
      <trkpt lat="41.91399" lon="2.2568567">
        <time>2022-07-10T08:47:34Z</time>
      </trkpt>
      <trkpt lat="41.913937" lon="2.2568605">
        <time>2022-07-10T08:47:36Z</time>
      </trkpt>
      <trkpt lat="41.91388" lon="2.256863">
        <time>2022-07-10T08:47:38Z</time>
      </trkpt>
      <trkpt lat="41.913826" lon="2.2568634">
        <time>2022-07-10T08:47:40Z</time>
      </trkpt>
      <trkpt lat="41.913773" lon="2.2568617">
        <time>2022-07-10T08:47:42Z</time>
      </trkpt>
      <trkpt lat="41.91372" lon="2.256863">
        <time>2022-07-10T08:47:44Z</time>
      </trkpt>
      <trkpt lat="41.91367" lon="2.2568758">
        <time>2022-07-10T08:47:46Z</time>
      </trkpt>
      <trkpt lat="41.913628" lon="2.256906">
        <time>2022-07-10T08:47:48Z</time>
      </trkpt>
      <trkpt lat="41.91358" lon="2.2569695">
        <time>2022-07-10T08:47:51Z</time>
      </trkpt>
      <trkpt lat="41.91356" lon="2.257044">
        <time>2022-07-10T08:47:54Z</time>
      </trkpt>
      <trkpt lat="41.913548" lon="2.2571244">
        <time>2022-07-10T08:47:57Z</time>
      </trkpt>
      <trkpt lat="41.913532" lon="2.2572074">
        <time>2022-07-10T08:48:00Z</time>
      </trkpt>
      <trkpt lat="41.91351" lon="2.2573211">
        <time>2022-07-10T08:48:04Z</time>
      </trkpt>
      <trkpt lat="41.913498" lon="2.257405">
        <time>2022-07-10T08:48:07Z</time>
      </trkpt>
      <trkpt lat="41.91349" lon="2.2575">
        <time>2022-07-10T08:48:10Z</time>
      </trkpt>
      <trkpt lat="41.913475" lon="2.257594">
        <time>2022-07-10T08:48:13Z</time>
      </trkpt>
      <trkpt lat="41.91346" lon="2.2576814">
        <time>2022-07-10T08:48:16Z</time>
      </trkpt>
      <trkpt lat="41.91345" lon="2.2577615">
        <time>2022-07-10T08:48:19Z</time>
      </trkpt>
      <trkpt lat="41.91344" lon="2.2578378">
        <time>2022-07-10T08:48:22Z</time>
      </trkpt>
      <trkpt lat="41.913437" lon="2.257921">
        <time>2022-07-10T08:48:25Z</time>
      </trkpt>
      <trkpt lat="41.913433" lon="2.2580194">
        <time>2022-07-10T08:48:28Z</time>
      </trkpt>
      <trkpt lat="41.91342" lon="2.2580957">
        <time>2022-07-10T08:48:30Z</time>
      </trkpt>
      <trkpt lat="41.91341" lon="2.2581763">
        <time>2022-07-10T08:48:32Z</time>
      </trkpt>
      <trkpt lat="41.913395" lon="2.25826">
        <time>2022-07-10T08:48:34Z</time>
      </trkpt>
      <trkpt lat="41.91338" lon="2.258344">
        <time>2022-07-10T08:48:36Z</time>
      </trkpt>
      <trkpt lat="41.913364" lon="2.2584274">
        <time>2022-07-10T08:48:38Z</time>
      </trkpt>
      <trkpt lat="41.913353" lon="2.2585127">
        <time>2022-07-10T08:48:40Z</time>
      </trkpt>
      <trkpt lat="41.91334" lon="2.2586017">
        <time>2022-07-10T08:48:42Z</time>
      </trkpt>
      <trkpt lat="41.913322" lon="2.2587037">
        <time>2022-07-10T08:48:44Z</time>
      </trkpt>
      <trkpt lat="41.9133" lon="2.2588336">
        <time>2022-07-10T08:48:46Z</time>
      </trkpt>
      <trkpt lat="41.913273" lon="2.2589908">
        <time>2022-07-10T08:48:48Z</time>
      </trkpt>
      <trkpt lat="41.913254" lon="2.2590787">
        <time>2022-07-10T08:48:49Z</time>
      </trkpt>
      <trkpt lat="41.91324" lon="2.2591736">
        <time>2022-07-10T08:48:50Z</time>
      </trkpt>
      <trkpt lat="41.91322" lon="2.2592673">
        <time>2022-07-10T08:48:51Z</time>
      </trkpt>
      <trkpt lat="41.913204" lon="2.2593687">
        <time>2022-07-10T08:48:52Z</time>
      </trkpt>
      <trkpt lat="41.913185" lon="2.259476">
        <time>2022-07-10T08:48:53Z</time>
      </trkpt>
      <trkpt lat="41.913162" lon="2.2595954">
        <time>2022-07-10T08:48:54Z</time>
      </trkpt>
      <trkpt lat="41.913143" lon="2.2597122">
        <time>2022-07-10T08:48:55Z</time>
      </trkpt>
      <trkpt lat="41.913124" lon="2.2598264">
        <time>2022-07-10T08:48:56Z</time>
      </trkpt>
      <trkpt lat="41.913105" lon="2.25993">
        <time>2022-07-10T08:48:57Z</time>
      </trkpt>
      <trkpt lat="41.913086" lon="2.2600327">
        <time>2022-07-10T08:48:58Z</time>
      </trkpt>
      <trkpt lat="41.913067" lon="2.2601333">
        <time>2022-07-10T08:48:59Z</time>
      </trkpt>
      <trkpt lat="41.913048" lon="2.2602363">
        <time>2022-07-10T08:49:00Z</time>
      </trkpt>
      <trkpt lat="41.913033" lon="2.260333">
        <time>2022-07-10T08:49:01Z</time>
      </trkpt>
      <trkpt lat="41.91302" lon="2.260417">
        <time>2022-07-10T08:49:02Z</time>
      </trkpt>
      <trkpt lat="41.913017" lon="2.2604973">
        <time>2022-07-10T08:49:03Z</time>
      </trkpt>
      <trkpt lat="41.91302" lon="2.2605767">
        <time>2022-07-10T08:49:04Z</time>
      </trkpt>
      <trkpt lat="41.91304" lon="2.260648">
        <time>2022-07-10T08:49:05Z</time>
      </trkpt>
      <trkpt lat="41.913067" lon="2.2607079">
        <time>2022-07-10T08:49:06Z</time>
      </trkpt>
      <trkpt lat="41.913147" lon="2.2607915">
        <time>2022-07-10T08:49:08Z</time>
      </trkpt>
      <trkpt lat="41.913193" lon="2.2608182">
        <time>2022-07-10T08:49:09Z</time>
      </trkpt>
      <trkpt lat="41.913296" lon="2.2608533">
        <time>2022-07-10T08:49:11Z</time>
      </trkpt>
      <trkpt lat="41.913345" lon="2.2608733">
        <time>2022-07-10T08:49:12Z</time>
      </trkpt>
      <trkpt lat="41.91341" lon="2.2609396">
        <time>2022-07-10T08:49:14Z</time>
      </trkpt>
      <trkpt lat="41.913425" lon="2.2610207">
        <time>2022-07-10T08:49:16Z</time>
      </trkpt>
      <trkpt lat="41.913395" lon="2.261088">
        <time>2022-07-10T08:49:18Z</time>
      </trkpt>
      <trkpt lat="41.91334" lon="2.261142">
        <time>2022-07-10T08:49:20Z</time>
      </trkpt>
      <trkpt lat="41.91327" lon="2.2611918">
        <time>2022-07-10T08:49:22Z</time>
      </trkpt>
      <trkpt lat="41.913193" lon="2.261236">
        <time>2022-07-10T08:49:24Z</time>
      </trkpt>
      <trkpt lat="41.913105" lon="2.261273">
        <time>2022-07-10T08:49:26Z</time>
      </trkpt>
      <trkpt lat="41.913025" lon="2.2613075">
        <time>2022-07-10T08:49:28Z</time>
      </trkpt>
      <trkpt lat="41.91294" lon="2.2613447">
        <time>2022-07-10T08:49:30Z</time>
      </trkpt>
      <trkpt lat="41.91286" lon="2.2613766">
        <time>2022-07-10T08:49:32Z</time>
      </trkpt>
      <trkpt lat="41.912777" lon="2.2614088">
        <time>2022-07-10T08:49:34Z</time>
      </trkpt>
      <trkpt lat="41.912697" lon="2.261447">
        <time>2022-07-10T08:49:36Z</time>
      </trkpt>
      <trkpt lat="41.912613" lon="2.2614925">
        <time>2022-07-10T08:49:38Z</time>
      </trkpt>
      <trkpt lat="41.91253" lon="2.2615418">
        <time>2022-07-10T08:49:40Z</time>
      </trkpt>
      <trkpt lat="41.91245" lon="2.2615962">
        <time>2022-07-10T08:49:42Z</time>
      </trkpt>
      <trkpt lat="41.91237" lon="2.2616532">
        <time>2022-07-10T08:49:44Z</time>
      </trkpt>
      <trkpt lat="41.912296" lon="2.2617133">
        <time>2022-07-10T08:49:46Z</time>
      </trkpt>
      <trkpt lat="41.912224" lon="2.2617786">
        <time>2022-07-10T08:49:48Z</time>
      </trkpt>
      <trkpt lat="41.91216" lon="2.2618525">
        <time>2022-07-10T08:49:50Z</time>
      </trkpt>
      <trkpt lat="41.912098" lon="2.2619326">
        <time>2022-07-10T08:49:52Z</time>
      </trkpt>
      <trkpt lat="41.912045" lon="2.262018">
        <time>2022-07-10T08:49:54Z</time>
      </trkpt>
      <trkpt lat="41.91199" lon="2.2621093">
        <time>2022-07-10T08:49:56Z</time>
      </trkpt>
      <trkpt lat="41.91195" lon="2.2622066">
        <time>2022-07-10T08:49:58Z</time>
      </trkpt>
      <trkpt lat="41.911915" lon="2.262313">
        <time>2022-07-10T08:50:00Z</time>
      </trkpt>
      <trkpt lat="41.91189" lon="2.2624269">
        <time>2022-07-10T08:50:02Z</time>
      </trkpt>
      <trkpt lat="41.911865" lon="2.2625468">
        <time>2022-07-10T08:50:04Z</time>
      </trkpt>
      <trkpt lat="41.911858" lon="2.2626073">
        <time>2022-07-10T08:50:05Z</time>
      </trkpt>
      <trkpt lat="41.91184" lon="2.2627268">
        <time>2022-07-10T08:50:07Z</time>
      </trkpt>
      <trkpt lat="41.911823" lon="2.2628555">
        <time>2022-07-10T08:50:09Z</time>
      </trkpt>
      <trkpt lat="41.91181" lon="2.2629845">
        <time>2022-07-10T08:50:11Z</time>
      </trkpt>
      <trkpt lat="41.911797" lon="2.2631135">
        <time>2022-07-10T08:50:13Z</time>
      </trkpt>
      <trkpt lat="41.91178" lon="2.2632456">
        <time>2022-07-10T08:50:15Z</time>
      </trkpt>
      <trkpt lat="41.911762" lon="2.263377">
        <time>2022-07-10T08:50:17Z</time>
      </trkpt>
      <trkpt lat="41.911743" lon="2.263507">
        <time>2022-07-10T08:50:19Z</time>
      </trkpt>
      <trkpt lat="41.91173" lon="2.2635713">
        <time>2022-07-10T08:50:20Z</time>
      </trkpt>
      <trkpt lat="41.911713" lon="2.2636993">
        <time>2022-07-10T08:50:22Z</time>
      </trkpt>
      <trkpt lat="41.9117" lon="2.2637632">
        <time>2022-07-10T08:50:23Z</time>
      </trkpt>
      <trkpt lat="41.91168" lon="2.2638872">
        <time>2022-07-10T08:50:25Z</time>
      </trkpt>
      <trkpt lat="41.91165" lon="2.2640033">
        <time>2022-07-10T08:50:27Z</time>
      </trkpt>
      <trkpt lat="41.911625" lon="2.2641263">
        <time>2022-07-10T08:50:29Z</time>
      </trkpt>
      <trkpt lat="41.91161" lon="2.2641888">
        <time>2022-07-10T08:50:30Z</time>
      </trkpt>
      <trkpt lat="41.911583" lon="2.2643116">
        <time>2022-07-10T08:50:32Z</time>
      </trkpt>
      <trkpt lat="41.911568" lon="2.264373">
        <time>2022-07-10T08:50:33Z</time>
      </trkpt>
      <trkpt lat="41.911533" lon="2.2644916">
        <time>2022-07-10T08:50:35Z</time>
      </trkpt>
      <trkpt lat="41.911495" lon="2.2646005">
        <time>2022-07-10T08:50:37Z</time>
      </trkpt>
      <trkpt lat="41.911446" lon="2.2646935">
        <time>2022-07-10T08:50:39Z</time>
      </trkpt>
      <trkpt lat="41.91138" lon="2.2647629">
        <time>2022-07-10T08:50:41Z</time>
      </trkpt>
      <trkpt lat="41.911297" lon="2.2648041">
        <time>2022-07-10T08:50:43Z</time>
      </trkpt>
      <trkpt lat="41.911198" lon="2.2648292">
        <time>2022-07-10T08:50:45Z</time>
      </trkpt>
      <trkpt lat="41.911083" lon="2.264845">
        <time>2022-07-10T08:50:47Z</time>
      </trkpt>
      <trkpt lat="41.911022" lon="2.2648528">
        <time>2022-07-10T08:50:48Z</time>
      </trkpt>
      <trkpt lat="41.91096" lon="2.2648616">
        <time>2022-07-10T08:50:49Z</time>
      </trkpt>
      <trkpt lat="41.910896" lon="2.264871">
        <time>2022-07-10T08:50:50Z</time>
      </trkpt>
      <trkpt lat="41.91083" lon="2.2648802">
        <time>2022-07-10T08:50:51Z</time>
      </trkpt>
      <trkpt lat="41.910763" lon="2.2648902">
        <time>2022-07-10T08:50:52Z</time>
      </trkpt>
      <trkpt lat="41.91069" lon="2.2649019">
        <time>2022-07-10T08:50:53Z</time>
      </trkpt>
      <trkpt lat="41.910614" lon="2.2649157">
        <time>2022-07-10T08:50:54Z</time>
      </trkpt>
      <trkpt lat="41.910538" lon="2.2649302">
        <time>2022-07-10T08:50:55Z</time>
      </trkpt>
      <trkpt lat="41.91046" lon="2.2649434">
        <time>2022-07-10T08:50:56Z</time>
      </trkpt>
      <trkpt lat="41.910385" lon="2.2649524">
        <time>2022-07-10T08:50:57Z</time>
      </trkpt>
      <trkpt lat="41.910313" lon="2.2649558">
        <time>2022-07-10T08:50:58Z</time>
      </trkpt>
      <trkpt lat="41.91024" lon="2.2649548">
        <time>2022-07-10T08:50:59Z</time>
      </trkpt>
      <trkpt lat="41.910175" lon="2.2649508">
        <time>2022-07-10T08:51:00Z</time>
      </trkpt>
      <trkpt lat="41.910107" lon="2.2649465">
        <time>2022-07-10T08:51:01Z</time>
      </trkpt>
      <trkpt lat="41.91004" lon="2.264945">
        <time>2022-07-10T08:51:02Z</time>
      </trkpt>
      <trkpt lat="41.90998" lon="2.2649488">
        <time>2022-07-10T08:51:03Z</time>
      </trkpt>
      <trkpt lat="41.909916" lon="2.2649581">
        <time>2022-07-10T08:51:04Z</time>
      </trkpt>
      <trkpt lat="41.90986" lon="2.264975">
        <time>2022-07-10T08:51:05Z</time>
      </trkpt>
      <trkpt lat="41.9098" lon="2.265001">
        <time>2022-07-10T08:51:06Z</time>
      </trkpt>
      <trkpt lat="41.90975" lon="2.2650354">
        <time>2022-07-10T08:51:07Z</time>
      </trkpt>
      <trkpt lat="41.9097" lon="2.2650747">
        <time>2022-07-10T08:51:08Z</time>
      </trkpt>
      <trkpt lat="41.90965" lon="2.2651184">
        <time>2022-07-10T08:51:09Z</time>
      </trkpt>
      <trkpt lat="41.9096" lon="2.2651641">
        <time>2022-07-10T08:51:10Z</time>
      </trkpt>
      <trkpt lat="41.909554" lon="2.265212">
        <time>2022-07-10T08:51:11Z</time>
      </trkpt>
      <trkpt lat="41.909504" lon="2.2652628">
        <time>2022-07-10T08:51:12Z</time>
      </trkpt>
      <trkpt lat="41.909412" lon="2.2653675">
        <time>2022-07-10T08:51:14Z</time>
      </trkpt>
      <trkpt lat="41.909367" lon="2.2654219">
        <time>2022-07-10T08:51:15Z</time>
      </trkpt>
      <trkpt lat="41.90932" lon="2.2654765">
        <time>2022-07-10T08:51:16Z</time>
      </trkpt>
      <trkpt lat="41.909275" lon="2.265531">
        <time>2022-07-10T08:51:17Z</time>
      </trkpt>
      <trkpt lat="41.90923" lon="2.2655845">
        <time>2022-07-10T08:51:18Z</time>
      </trkpt>
      <trkpt lat="41.909184" lon="2.2656374">
        <time>2022-07-10T08:51:19Z</time>
      </trkpt>
      <trkpt lat="41.90914" lon="2.2656894">
        <time>2022-07-10T08:51:20Z</time>
      </trkpt>
      <trkpt lat="41.909096" lon="2.2657406">
        <time>2022-07-10T08:51:21Z</time>
      </trkpt>
      <trkpt lat="41.90905" lon="2.2657912">
        <time>2022-07-10T08:51:22Z</time>
      </trkpt>
      <trkpt lat="41.909008" lon="2.2658398">
        <time>2022-07-10T08:51:23Z</time>
      </trkpt>
      <trkpt lat="41.908966" lon="2.2658877">
        <time>2022-07-10T08:51:24Z</time>
      </trkpt>
      <trkpt lat="41.908924" lon="2.2659347">
        <time>2022-07-10T08:51:25Z</time>
      </trkpt>
      <trkpt lat="41.908886" lon="2.2659805">
        <time>2022-07-10T08:51:26Z</time>
      </trkpt>
      <trkpt lat="41.908848" lon="2.2660244">
        <time>2022-07-10T08:51:27Z</time>
      </trkpt>
      <trkpt lat="41.908745" lon="2.2661374">
        <time>2022-07-10T08:51:30Z</time>
      </trkpt>
      <trkpt lat="41.908688" lon="2.2661877">
        <time>2022-07-10T08:51:32Z</time>
      </trkpt>
      <trkpt lat="41.908634" lon="2.2662296">
        <time>2022-07-10T08:51:34Z</time>
      </trkpt>
      <trkpt lat="41.90859" lon="2.2662718">
        <time>2022-07-10T08:51:36Z</time>
      </trkpt>
      <trkpt lat="41.908546" lon="2.266314">
        <time>2022-07-10T08:51:38Z</time>
      </trkpt>
      <trkpt lat="41.9085" lon="2.2663493">
        <time>2022-07-10T08:51:40Z</time>
      </trkpt>
      <trkpt lat="41.908436" lon="2.266398">
        <time>2022-07-10T08:51:43Z</time>
      </trkpt>
      <trkpt lat="41.908386" lon="2.2664354">
        <time>2022-07-10T08:51:45Z</time>
      </trkpt>
      <trkpt lat="41.908344" lon="2.266472">
        <time>2022-07-10T08:51:47Z</time>
      </trkpt>
      <trkpt lat="41.9083" lon="2.2665143">
        <time>2022-07-10T08:51:49Z</time>
      </trkpt>
      <trkpt lat="41.908253" lon="2.266558">
        <time>2022-07-10T08:51:51Z</time>
      </trkpt>
      <trkpt lat="41.90821" lon="2.2665997">
        <time>2022-07-10T08:51:53Z</time>
      </trkpt>
      <trkpt lat="41.908165" lon="2.2666366">
        <time>2022-07-10T08:51:55Z</time>
      </trkpt>
      <trkpt lat="41.90812" lon="2.2666736">
        <time>2022-07-10T08:51:57Z</time>
      </trkpt>
      <trkpt lat="41.90807" lon="2.2667127">
        <time>2022-07-10T08:51:59Z</time>
      </trkpt>
      <trkpt lat="41.908024" lon="2.2667477">
        <time>2022-07-10T08:52:01Z</time>
      </trkpt>
      <trkpt lat="41.907967" lon="2.2667832">
        <time>2022-07-10T08:52:03Z</time>
      </trkpt>
      <trkpt lat="41.90791" lon="2.266816">
        <time>2022-07-10T08:52:05Z</time>
      </trkpt>
      <trkpt lat="41.907845" lon="2.2668474">
        <time>2022-07-10T08:52:07Z</time>
      </trkpt>
      <trkpt lat="41.907772" lon="2.2668803">
        <time>2022-07-10T08:52:09Z</time>
      </trkpt>
      <trkpt lat="41.9077" lon="2.2669163">
        <time>2022-07-10T08:52:11Z</time>
      </trkpt>
      <trkpt lat="41.90762" lon="2.266956">
        <time>2022-07-10T08:52:13Z</time>
      </trkpt>
      <trkpt lat="41.907547" lon="2.2669983">
        <time>2022-07-10T08:52:15Z</time>
      </trkpt>
      <trkpt lat="41.907467" lon="2.2670453">
        <time>2022-07-10T08:52:17Z</time>
      </trkpt>
      <trkpt lat="41.907345" lon="2.2671156">
        <time>2022-07-10T08:52:20Z</time>
      </trkpt>
      <trkpt lat="41.907265" lon="2.2671647">
        <time>2022-07-10T08:52:22Z</time>
      </trkpt>
      <trkpt lat="41.907177" lon="2.2672124">
        <time>2022-07-10T08:52:24Z</time>
      </trkpt>
      <trkpt lat="41.907097" lon="2.2672606">
        <time>2022-07-10T08:52:26Z</time>
      </trkpt>
      <trkpt lat="41.907013" lon="2.2673123">
        <time>2022-07-10T08:52:28Z</time>
      </trkpt>
      <trkpt lat="41.90697" lon="2.2673385">
        <time>2022-07-10T08:52:29Z</time>
      </trkpt>
      <trkpt lat="41.906883" lon="2.267394">
        <time>2022-07-10T08:52:31Z</time>
      </trkpt>
      <trkpt lat="41.9068" lon="2.2674499">
        <time>2022-07-10T08:52:33Z</time>
      </trkpt>
      <trkpt lat="41.90671" lon="2.2675033">
        <time>2022-07-10T08:52:35Z</time>
      </trkpt>
      <trkpt lat="41.906666" lon="2.2675297">
        <time>2022-07-10T08:52:36Z</time>
      </trkpt>
      <trkpt lat="41.906578" lon="2.2675896">
        <time>2022-07-10T08:52:38Z</time>
      </trkpt>
      <trkpt lat="41.906536" lon="2.2676232">
        <time>2022-07-10T08:52:39Z</time>
      </trkpt>
      <trkpt lat="41.906456" lon="2.267693">
        <time>2022-07-10T08:52:41Z</time>
      </trkpt>
      <trkpt lat="41.906376" lon="2.2677677">
        <time>2022-07-10T08:52:43Z</time>
      </trkpt>
      <trkpt lat="41.9063" lon="2.2678475">
        <time>2022-07-10T08:52:45Z</time>
      </trkpt>
      <trkpt lat="41.90626" lon="2.2678912">
        <time>2022-07-10T08:52:46Z</time>
      </trkpt>
      <trkpt lat="41.90619" lon="2.2679832">
        <time>2022-07-10T08:52:48Z</time>
      </trkpt>
      <trkpt lat="41.906124" lon="2.2680805">
        <time>2022-07-10T08:52:50Z</time>
      </trkpt>
      <trkpt lat="41.90607" lon="2.2681885">
        <time>2022-07-10T08:52:52Z</time>
      </trkpt>
      <trkpt lat="41.906048" lon="2.2682462">
        <time>2022-07-10T08:52:53Z</time>
      </trkpt>
      <trkpt lat="41.906017" lon="2.2683668">
        <time>2022-07-10T08:52:55Z</time>
      </trkpt>
      <trkpt lat="41.906006" lon="2.26843">
        <time>2022-07-10T08:52:56Z</time>
      </trkpt>
      <trkpt lat="41.905994" lon="2.2685575">
        <time>2022-07-10T08:52:58Z</time>
      </trkpt>
      <trkpt lat="41.905994" lon="2.2686226">
        <time>2022-07-10T08:52:59Z</time>
      </trkpt>
      <trkpt lat="41.905994" lon="2.268755">
        <time>2022-07-10T08:53:01Z</time>
      </trkpt>
      <trkpt lat="41.90599" lon="2.2688863">
        <time>2022-07-10T08:53:03Z</time>
      </trkpt>
      <trkpt lat="41.90599" lon="2.269017">
        <time>2022-07-10T08:53:05Z</time>
      </trkpt>
      <trkpt lat="41.906" lon="2.269142">
        <time>2022-07-10T08:53:07Z</time>
      </trkpt>
      <trkpt lat="41.906002" lon="2.2692666">
        <time>2022-07-10T08:53:09Z</time>
      </trkpt>
      <trkpt lat="41.906006" lon="2.2693295">
        <time>2022-07-10T08:53:10Z</time>
      </trkpt>
      <trkpt lat="41.906006" lon="2.2694585">
        <time>2022-07-10T08:53:12Z</time>
      </trkpt>
      <trkpt lat="41.906006" lon="2.2695198">
        <time>2022-07-10T08:53:13Z</time>
      </trkpt>
      <trkpt lat="41.90601" lon="2.2696416">
        <time>2022-07-10T08:53:15Z</time>
      </trkpt>
      <trkpt lat="41.906017" lon="2.269761">
        <time>2022-07-10T08:53:17Z</time>
      </trkpt>
      <trkpt lat="41.906033" lon="2.2698803">
        <time>2022-07-10T08:53:19Z</time>
      </trkpt>
      <trkpt lat="41.906044" lon="2.2700005">
        <time>2022-07-10T08:53:21Z</time>
      </trkpt>
      <trkpt lat="41.90605" lon="2.2701242">
        <time>2022-07-10T08:53:23Z</time>
      </trkpt>
      <trkpt lat="41.906048" lon="2.2702496">
        <time>2022-07-10T08:53:25Z</time>
      </trkpt>
      <trkpt lat="41.906044" lon="2.270312">
        <time>2022-07-10T08:53:26Z</time>
      </trkpt>
      <trkpt lat="41.90603" lon="2.2704363">
        <time>2022-07-10T08:53:28Z</time>
      </trkpt>
      <trkpt lat="41.906013" lon="2.2705579">
        <time>2022-07-10T08:53:30Z</time>
      </trkpt>
      <trkpt lat="41.90599" lon="2.270675">
        <time>2022-07-10T08:53:32Z</time>
      </trkpt>
      <trkpt lat="41.905956" lon="2.2707894">
        <time>2022-07-10T08:53:34Z</time>
      </trkpt>
      <trkpt lat="41.905937" lon="2.2708478">
        <time>2022-07-10T08:53:35Z</time>
      </trkpt>
      <trkpt lat="41.905888" lon="2.2709658">
        <time>2022-07-10T08:53:37Z</time>
      </trkpt>
      <trkpt lat="41.905865" lon="2.271026">
        <time>2022-07-10T08:53:38Z</time>
      </trkpt>
      <trkpt lat="41.905838" lon="2.2710872">
        <time>2022-07-10T08:53:39Z</time>
      </trkpt>
      <trkpt lat="41.90581" lon="2.271149">
        <time>2022-07-10T08:53:40Z</time>
      </trkpt>
      <trkpt lat="41.90578" lon="2.271211">
        <time>2022-07-10T08:53:41Z</time>
      </trkpt>
      <trkpt lat="41.905754" lon="2.2712734">
        <time>2022-07-10T08:53:42Z</time>
      </trkpt>
      <trkpt lat="41.905727" lon="2.271342">
        <time>2022-07-10T08:53:43Z</time>
      </trkpt>
      <trkpt lat="41.9057" lon="2.2714055">
        <time>2022-07-10T08:53:44Z</time>
      </trkpt>
      <trkpt lat="41.905674" lon="2.2714705">
        <time>2022-07-10T08:53:45Z</time>
      </trkpt>
      <trkpt lat="41.905647" lon="2.2715402">
        <time>2022-07-10T08:53:46Z</time>
      </trkpt>
      <trkpt lat="41.905624" lon="2.2716033">
        <time>2022-07-10T08:53:47Z</time>
      </trkpt>
      <trkpt lat="41.905594" lon="2.271667">
        <time>2022-07-10T08:53:48Z</time>
      </trkpt>
      <trkpt lat="41.905563" lon="2.2717338">
        <time>2022-07-10T08:53:49Z</time>
      </trkpt>
      <trkpt lat="41.90553" lon="2.2717984">
        <time>2022-07-10T08:53:50Z</time>
      </trkpt>
      <trkpt lat="41.9055" lon="2.2718565">
        <time>2022-07-10T08:53:51Z</time>
      </trkpt>
      <trkpt lat="41.905468" lon="2.2719135">
        <time>2022-07-10T08:53:52Z</time>
      </trkpt>
      <trkpt lat="41.905434" lon="2.27197">
        <time>2022-07-10T08:53:53Z</time>
      </trkpt>
      <trkpt lat="41.9054" lon="2.2720299">
        <time>2022-07-10T08:53:54Z</time>
      </trkpt>
      <trkpt lat="41.905365" lon="2.272089">
        <time>2022-07-10T08:53:55Z</time>
      </trkpt>
      <trkpt lat="41.90534" lon="2.2721448">
        <time>2022-07-10T08:53:56Z</time>
      </trkpt>
      <trkpt lat="41.90531" lon="2.2722025">
        <time>2022-07-10T08:53:57Z</time>
      </trkpt>
      <trkpt lat="41.905262" lon="2.2723217">
        <time>2022-07-10T08:53:59Z</time>
      </trkpt>
      <trkpt lat="41.905243" lon="2.2723827">
        <time>2022-07-10T08:54:00Z</time>
      </trkpt>
      <trkpt lat="41.9052" lon="2.2725048">
        <time>2022-07-10T08:54:02Z</time>
      </trkpt>
      <trkpt lat="41.905163" lon="2.2726371">
        <time>2022-07-10T08:54:04Z</time>
      </trkpt>
      <trkpt lat="41.905148" lon="2.2727036">
        <time>2022-07-10T08:54:05Z</time>
      </trkpt>
      <trkpt lat="41.905136" lon="2.2727704">
        <time>2022-07-10T08:54:06Z</time>
      </trkpt>
      <trkpt lat="41.905117" lon="2.272901">
        <time>2022-07-10T08:54:08Z</time>
      </trkpt>
      <trkpt lat="41.90511" lon="2.272969">
        <time>2022-07-10T08:54:09Z</time>
      </trkpt>
      <trkpt lat="41.905106" lon="2.2731051">
        <time>2022-07-10T08:54:11Z</time>
      </trkpt>
      <trkpt lat="41.905106" lon="2.2732441">
        <time>2022-07-10T08:54:13Z</time>
      </trkpt>
      <trkpt lat="41.90511" lon="2.2733128">
        <time>2022-07-10T08:54:14Z</time>
      </trkpt>
      <trkpt lat="41.90511" lon="2.2733815">
        <time>2022-07-10T08:54:15Z</time>
      </trkpt>
      <trkpt lat="41.90511" lon="2.2735133">
        <time>2022-07-10T08:54:17Z</time>
      </trkpt>
      <trkpt lat="41.9051" lon="2.2736561">
        <time>2022-07-10T08:54:19Z</time>
      </trkpt>
      <trkpt lat="41.90509" lon="2.2737236">
        <time>2022-07-10T08:54:20Z</time>
      </trkpt>
      <trkpt lat="41.90508" lon="2.2737885">
        <time>2022-07-10T08:54:21Z</time>
      </trkpt>
      <trkpt lat="41.90506" lon="2.27385">
        <time>2022-07-10T08:54:22Z</time>
      </trkpt>
      <trkpt lat="41.905006" lon="2.2739646">
        <time>2022-07-10T08:54:24Z</time>
      </trkpt>
      <trkpt lat="41.904945" lon="2.274066">
        <time>2022-07-10T08:54:26Z</time>
      </trkpt>
      <trkpt lat="41.904873" lon="2.27416">
        <time>2022-07-10T08:54:28Z</time>
      </trkpt>
      <trkpt lat="41.904804" lon="2.2742524">
        <time>2022-07-10T08:54:30Z</time>
      </trkpt>
      <trkpt lat="41.904736" lon="2.2743464">
        <time>2022-07-10T08:54:32Z</time>
      </trkpt>
      <trkpt lat="41.90467" lon="2.2744436">
        <time>2022-07-10T08:54:34Z</time>
      </trkpt>
      <trkpt lat="41.904644" lon="2.274489">
        <time>2022-07-10T08:54:35Z</time>
      </trkpt>
      <trkpt lat="41.904594" lon="2.274583">
        <time>2022-07-10T08:54:37Z</time>
      </trkpt>
      <trkpt lat="41.90454" lon="2.2746682">
        <time>2022-07-10T08:54:39Z</time>
      </trkpt>
      <trkpt lat="41.90449" lon="2.2747514">
        <time>2022-07-10T08:54:41Z</time>
      </trkpt>
      <trkpt lat="41.904446" lon="2.2748344">
        <time>2022-07-10T08:54:43Z</time>
      </trkpt>
      <trkpt lat="41.904404" lon="2.2749164">
        <time>2022-07-10T08:54:45Z</time>
      </trkpt>
      <trkpt lat="41.90437" lon="2.2750018">
        <time>2022-07-10T08:54:47Z</time>
      </trkpt>
      <trkpt lat="41.90434" lon="2.2750914">
        <time>2022-07-10T08:54:49Z</time>
      </trkpt>
      <trkpt lat="41.904312" lon="2.2751815">
        <time>2022-07-10T08:54:51Z</time>
      </trkpt>
      <trkpt lat="41.904285" lon="2.2752717">
        <time>2022-07-10T08:54:53Z</time>
      </trkpt>
      <trkpt lat="41.904263" lon="2.2753596">
        <time>2022-07-10T08:54:55Z</time>
      </trkpt>
      <trkpt lat="41.904236" lon="2.2754502">
        <time>2022-07-10T08:54:57Z</time>
      </trkpt>
      <trkpt lat="41.904213" lon="2.2755365">
        <time>2022-07-10T08:54:59Z</time>
      </trkpt>
      <trkpt lat="41.904186" lon="2.2756312">
        <time>2022-07-10T08:55:01Z</time>
      </trkpt>
      <trkpt lat="41.904167" lon="2.2757242">
        <time>2022-07-10T08:55:03Z</time>
      </trkpt>
      <trkpt lat="41.904144" lon="2.2758195">
        <time>2022-07-10T08:55:05Z</time>
      </trkpt>
      <trkpt lat="41.904114" lon="2.275908">
        <time>2022-07-10T08:55:07Z</time>
      </trkpt>
      <trkpt lat="41.904083" lon="2.2759995">
        <time>2022-07-10T08:55:09Z</time>
      </trkpt>
      <trkpt lat="41.904053" lon="2.2760952">
        <time>2022-07-10T08:55:11Z</time>
      </trkpt>
      <trkpt lat="41.904022" lon="2.27619">
        <time>2022-07-10T08:55:13Z</time>
      </trkpt>
      <trkpt lat="41.903996" lon="2.276288">
        <time>2022-07-10T08:55:15Z</time>
      </trkpt>
      <trkpt lat="41.903965" lon="2.2763827">
        <time>2022-07-10T08:55:17Z</time>
      </trkpt>
      <trkpt lat="41.903934" lon="2.2764812">
        <time>2022-07-10T08:55:19Z</time>
      </trkpt>
      <trkpt lat="41.903908" lon="2.2765808">
        <time>2022-07-10T08:55:21Z</time>
      </trkpt>
      <trkpt lat="41.903877" lon="2.2766788">
        <time>2022-07-10T08:55:23Z</time>
      </trkpt>
      <trkpt lat="41.903843" lon="2.2767766">
        <time>2022-07-10T08:55:25Z</time>
      </trkpt>
      <trkpt lat="41.90381" lon="2.2768755">
        <time>2022-07-10T08:55:27Z</time>
      </trkpt>
      <trkpt lat="41.903755" lon="2.277035">
        <time>2022-07-10T08:55:30Z</time>
      </trkpt>
      <trkpt lat="41.903725" lon="2.2771397">
        <time>2022-07-10T08:55:32Z</time>
      </trkpt>
      <trkpt lat="41.9037" lon="2.2772481">
        <time>2022-07-10T08:55:34Z</time>
      </trkpt>
      <trkpt lat="41.903675" lon="2.2773485">
        <time>2022-07-10T08:55:36Z</time>
      </trkpt>
      <trkpt lat="41.90365" lon="2.2774503">
        <time>2022-07-10T08:55:38Z</time>
      </trkpt>
      <trkpt lat="41.903618" lon="2.277555">
        <time>2022-07-10T08:55:40Z</time>
      </trkpt>
      <trkpt lat="41.903587" lon="2.277658">
        <time>2022-07-10T08:55:42Z</time>
      </trkpt>
      <trkpt lat="41.903557" lon="2.2777658">
        <time>2022-07-10T08:55:44Z</time>
      </trkpt>
      <trkpt lat="41.903526" lon="2.277866">
        <time>2022-07-10T08:55:46Z</time>
      </trkpt>
      <trkpt lat="41.903492" lon="2.2779691">
        <time>2022-07-10T08:55:48Z</time>
      </trkpt>
      <trkpt lat="41.903458" lon="2.2780716">
        <time>2022-07-10T08:55:50Z</time>
      </trkpt>
      <trkpt lat="41.903423" lon="2.2781718">
        <time>2022-07-10T08:55:52Z</time>
      </trkpt>
      <trkpt lat="41.903397" lon="2.2782705">
        <time>2022-07-10T08:55:54Z</time>
      </trkpt>
      <trkpt lat="41.903366" lon="2.2783678">
        <time>2022-07-10T08:55:56Z</time>
      </trkpt>
      <trkpt lat="41.90334" lon="2.2784672">
        <time>2022-07-10T08:55:58Z</time>
      </trkpt>
      <trkpt lat="41.90331" lon="2.2785592">
        <time>2022-07-10T08:56:00Z</time>
      </trkpt>
      <trkpt lat="41.903275" lon="2.2786598">
        <time>2022-07-10T08:56:02Z</time>
      </trkpt>
      <trkpt lat="41.90324" lon="2.278755">
        <time>2022-07-10T08:56:04Z</time>
      </trkpt>
      <trkpt lat="41.903194" lon="2.278848">
        <time>2022-07-10T08:56:06Z</time>
      </trkpt>
      <trkpt lat="41.90314" lon="2.2789338">
        <time>2022-07-10T08:56:08Z</time>
      </trkpt>
      <trkpt lat="41.903088" lon="2.2790124">
        <time>2022-07-10T08:56:10Z</time>
      </trkpt>
      <trkpt lat="41.903034" lon="2.2790854">
        <time>2022-07-10T08:56:12Z</time>
      </trkpt>
      <trkpt lat="41.902973" lon="2.2791512">
        <time>2022-07-10T08:56:14Z</time>
      </trkpt>
      <trkpt lat="41.902912" lon="2.2792184">
        <time>2022-07-10T08:56:16Z</time>
      </trkpt>
      <trkpt lat="41.902847" lon="2.2792861">
        <time>2022-07-10T08:56:18Z</time>
      </trkpt>
      <trkpt lat="41.90279" lon="2.2793517">
        <time>2022-07-10T08:56:20Z</time>
      </trkpt>
      <trkpt lat="41.902733" lon="2.2794175">
        <time>2022-07-10T08:56:22Z</time>
      </trkpt>
      <trkpt lat="41.90268" lon="2.2794824">
        <time>2022-07-10T08:56:24Z</time>
      </trkpt>
      <trkpt lat="41.902626" lon="2.279555">
        <time>2022-07-10T08:56:26Z</time>
      </trkpt>
      <trkpt lat="41.902576" lon="2.2796254">
        <time>2022-07-10T08:56:28Z</time>
      </trkpt>
      <trkpt lat="41.902527" lon="2.2796922">
        <time>2022-07-10T08:56:30Z</time>
      </trkpt>
      <trkpt lat="41.90246" lon="2.279788">
        <time>2022-07-10T08:56:33Z</time>
      </trkpt>
      <trkpt lat="41.902412" lon="2.2798574">
        <time>2022-07-10T08:56:35Z</time>
      </trkpt>
      <trkpt lat="41.902367" lon="2.2799215">
        <time>2022-07-10T08:56:37Z</time>
      </trkpt>
      <trkpt lat="41.90232" lon="2.2799764">
        <time>2022-07-10T08:56:39Z</time>
      </trkpt>
      <trkpt lat="41.902283" lon="2.2800307">
        <time>2022-07-10T08:56:41Z</time>
      </trkpt>
      <trkpt lat="41.902245" lon="2.2800832">
        <time>2022-07-10T08:56:43Z</time>
      </trkpt>
      <trkpt lat="41.90221" lon="2.2801404">
        <time>2022-07-10T08:56:45Z</time>
      </trkpt>
      <trkpt lat="41.902184" lon="2.2802033">
        <time>2022-07-10T08:56:47Z</time>
      </trkpt>
      <trkpt lat="41.902157" lon="2.2802668">
        <time>2022-07-10T08:56:49Z</time>
      </trkpt>
      <trkpt lat="41.902126" lon="2.2803304">
        <time>2022-07-10T08:56:51Z</time>
      </trkpt>
      <trkpt lat="41.902096" lon="2.2803943">
        <time>2022-07-10T08:56:53Z</time>
      </trkpt>
      <trkpt lat="41.90207" lon="2.2804558">
        <time>2022-07-10T08:56:55Z</time>
      </trkpt>
      <trkpt lat="41.902027" lon="2.2805278">
        <time>2022-07-10T08:56:58Z</time>
      </trkpt>
      <trkpt lat="41.902" lon="2.280571">
        <time>2022-07-10T08:57:04Z</time>
      </trkpt>
      <trkpt lat="41.901928" lon="2.2806149">
        <time>2022-07-10T08:59:25Z</time>
      </trkpt>
      <trkpt lat="41.90186" lon="2.280631">
        <time>2022-07-10T08:59:28Z</time>
      </trkpt>
      <trkpt lat="41.901806" lon="2.2806363">
        <time>2022-07-10T08:59:30Z</time>
      </trkpt>
      <trkpt lat="41.901733" lon="2.2806363">
        <time>2022-07-10T08:59:33Z</time>
      </trkpt>
      <trkpt lat="41.901688" lon="2.2806404">
        <time>2022-07-10T08:59:35Z</time>
      </trkpt>
      <trkpt lat="41.901615" lon="2.2806501">
        <time>2022-07-10T08:59:38Z</time>
      </trkpt>
      <trkpt lat="41.90156" lon="2.280652">
        <time>2022-07-10T08:59:40Z</time>
      </trkpt>
      <trkpt lat="41.901512" lon="2.2806509">
        <time>2022-07-10T08:59:42Z</time>
      </trkpt>
      <trkpt lat="41.901432" lon="2.2806578">
        <time>2022-07-10T08:59:45Z</time>
      </trkpt>
      <trkpt lat="41.90138" lon="2.2806647">
        <time>2022-07-10T08:59:47Z</time>
      </trkpt>
      <trkpt lat="41.90133" lon="2.280669">
        <time>2022-07-10T08:59:49Z</time>
      </trkpt>
      <trkpt lat="41.90128" lon="2.280673">
        <time>2022-07-10T08:59:51Z</time>
      </trkpt>
      <trkpt lat="41.901203" lon="2.2806847">
        <time>2022-07-10T08:59:54Z</time>
      </trkpt>
      <trkpt lat="41.901154" lon="2.2806928">
        <time>2022-07-10T08:59:56Z</time>
      </trkpt>
      <trkpt lat="41.901077" lon="2.2807012">
        <time>2022-07-10T08:59:59Z</time>
      </trkpt>
      <trkpt lat="41.901028" lon="2.2807088">
        <time>2022-07-10T09:00:01Z</time>
      </trkpt>
      <trkpt lat="41.90095" lon="2.2807271">
        <time>2022-07-10T09:00:04Z</time>
      </trkpt>
      <trkpt lat="41.900906" lon="2.2807493">
        <time>2022-07-10T09:00:06Z</time>
      </trkpt>
      <trkpt lat="41.900856" lon="2.2808094">
        <time>2022-07-10T09:00:09Z</time>
      </trkpt>
      <trkpt lat="41.900833" lon="2.2808933">
        <time>2022-07-10T09:00:12Z</time>
      </trkpt>
      <trkpt lat="41.90083" lon="2.2809784">
        <time>2022-07-10T09:00:15Z</time>
      </trkpt>
      <trkpt lat="41.90083" lon="2.2810597">
        <time>2022-07-10T09:00:18Z</time>
      </trkpt>
      <trkpt lat="41.90083" lon="2.281135">
        <time>2022-07-10T09:00:21Z</time>
      </trkpt>
      <trkpt lat="41.900826" lon="2.2812064">
        <time>2022-07-10T09:00:24Z</time>
      </trkpt>
      <trkpt lat="41.900818" lon="2.2812757">
        <time>2022-07-10T09:00:27Z</time>
      </trkpt>
      <trkpt lat="41.900806" lon="2.2813478">
        <time>2022-07-10T09:00:30Z</time>
      </trkpt>
      <trkpt lat="41.900795" lon="2.2814188">
        <time>2022-07-10T09:00:33Z</time>
      </trkpt>
      <trkpt lat="41.90078" lon="2.2814863">
        <time>2022-07-10T09:00:36Z</time>
      </trkpt>
      <trkpt lat="41.90077" lon="2.2815561">
        <time>2022-07-10T09:00:39Z</time>
      </trkpt>
      <trkpt lat="41.90075" lon="2.2816174">
        <time>2022-07-10T09:00:42Z</time>
      </trkpt>
      <trkpt lat="41.900707" lon="2.2816734">
        <time>2022-07-10T09:00:46Z</time>
      </trkpt>
      <trkpt lat="41.900658" lon="2.2816834">
        <time>2022-07-10T09:00:49Z</time>
      </trkpt>
      <trkpt lat="41.900604" lon="2.2816734">
        <time>2022-07-10T09:00:52Z</time>
      </trkpt>
      <trkpt lat="41.90055" lon="2.2816596">
        <time>2022-07-10T09:00:55Z</time>
      </trkpt>
      <trkpt lat="41.90049" lon="2.2816384">
        <time>2022-07-10T09:00:58Z</time>
      </trkpt>
      <trkpt lat="41.90042" lon="2.2816174">
        <time>2022-07-10T09:01:01Z</time>
      </trkpt>
      <trkpt lat="41.900352" lon="2.2815993">
        <time>2022-07-10T09:01:04Z</time>
      </trkpt>
      <trkpt lat="41.900307" lon="2.2815893">
        <time>2022-07-10T09:01:06Z</time>
      </trkpt>
      <trkpt lat="41.900238" lon="2.2815764">
        <time>2022-07-10T09:01:09Z</time>
      </trkpt>
      <trkpt lat="41.90019" lon="2.281567">
        <time>2022-07-10T09:01:11Z</time>
      </trkpt>
      <trkpt lat="41.90012" lon="2.281557">
        <time>2022-07-10T09:01:14Z</time>
      </trkpt>
      <trkpt lat="41.900047" lon="2.2815487">
        <time>2022-07-10T09:01:17Z</time>
      </trkpt>
      <trkpt lat="41.89998" lon="2.2815297">
        <time>2022-07-10T09:01:20Z</time>
      </trkpt>
      <trkpt lat="41.899914" lon="2.281486">
        <time>2022-07-10T09:01:23Z</time>
      </trkpt>
      <trkpt lat="41.89986" lon="2.2814238">
        <time>2022-07-10T09:01:26Z</time>
      </trkpt>
      <trkpt lat="41.899822" lon="2.2813463">
        <time>2022-07-10T09:01:29Z</time>
      </trkpt>
      <trkpt lat="41.8998" lon="2.281289">
        <time>2022-07-10T09:01:31Z</time>
      </trkpt>
      <trkpt lat="41.89978" lon="2.2811978">
        <time>2022-07-10T09:01:34Z</time>
      </trkpt>
      <trkpt lat="41.899765" lon="2.2811036">
        <time>2022-07-10T09:01:37Z</time>
      </trkpt>
      <trkpt lat="41.899765" lon="2.2810388">
        <time>2022-07-10T09:01:39Z</time>
      </trkpt>
      <trkpt lat="41.899765" lon="2.2809436">
        <time>2022-07-10T09:01:42Z</time>
      </trkpt>
      <trkpt lat="41.89976" lon="2.2808468">
        <time>2022-07-10T09:01:45Z</time>
      </trkpt>
      <trkpt lat="41.899742" lon="2.2807631">
        <time>2022-07-10T09:01:48Z</time>
      </trkpt>
      <trkpt lat="41.899685" lon="2.2806811">
        <time>2022-07-10T09:01:52Z</time>
      </trkpt>
      <trkpt lat="41.89962" lon="2.2806594">
        <time>2022-07-10T09:01:55Z</time>
      </trkpt>
      <trkpt lat="41.899567" lon="2.28069">
        <time>2022-07-10T09:01:58Z</time>
      </trkpt>
      <trkpt lat="41.89952" lon="2.2807584">
        <time>2022-07-10T09:02:01Z</time>
      </trkpt>
      <trkpt lat="41.89949" lon="2.2808428">
        <time>2022-07-10T09:02:04Z</time>
      </trkpt>
      <trkpt lat="41.899456" lon="2.2809298">
        <time>2022-07-10T09:02:07Z</time>
      </trkpt>
      <trkpt lat="41.899433" lon="2.2809885">
        <time>2022-07-10T09:02:09Z</time>
      </trkpt>
      <trkpt lat="41.899403" lon="2.281079">
        <time>2022-07-10T09:02:12Z</time>
      </trkpt>
      <trkpt lat="41.89937" lon="2.2811701">
        <time>2022-07-10T09:02:15Z</time>
      </trkpt>
      <trkpt lat="41.89934" lon="2.281225">
        <time>2022-07-10T09:02:17Z</time>
      </trkpt>
      <trkpt lat="41.89931" lon="2.2813084">
        <time>2022-07-10T09:02:20Z</time>
      </trkpt>
      <trkpt lat="41.899273" lon="2.281394">
        <time>2022-07-10T09:02:23Z</time>
      </trkpt>
      <trkpt lat="41.89923" lon="2.2814758">
        <time>2022-07-10T09:02:26Z</time>
      </trkpt>
      <trkpt lat="41.899185" lon="2.2815578">
        <time>2022-07-10T09:02:29Z</time>
      </trkpt>
      <trkpt lat="41.89915" lon="2.2816086">
        <time>2022-07-10T09:02:31Z</time>
      </trkpt>
      <trkpt lat="41.89911" lon="2.2816854">
        <time>2022-07-10T09:02:34Z</time>
      </trkpt>
      <trkpt lat="41.899067" lon="2.2817574">
        <time>2022-07-10T09:02:37Z</time>
      </trkpt>
      <trkpt lat="41.89903" lon="2.2818367">
        <time>2022-07-10T09:02:40Z</time>
      </trkpt>
      <trkpt lat="41.899002" lon="2.2818894">
        <time>2022-07-10T09:02:42Z</time>
      </trkpt>
      <trkpt lat="41.898964" lon="2.281967">
        <time>2022-07-10T09:02:45Z</time>
      </trkpt>
      <trkpt lat="41.89893" lon="2.2820222">
        <time>2022-07-10T09:02:47Z</time>
      </trkpt>
      <trkpt lat="41.898888" lon="2.282099">
        <time>2022-07-10T09:02:50Z</time>
      </trkpt>
      <trkpt lat="41.898834" lon="2.2822">
        <time>2022-07-10T09:02:54Z</time>
      </trkpt>
      <trkpt lat="41.898808" lon="2.282252">
        <time>2022-07-10T09:02:56Z</time>
      </trkpt>
      <trkpt lat="41.89876" lon="2.282329">
        <time>2022-07-10T09:02:59Z</time>
      </trkpt>
      <trkpt lat="41.89872" lon="2.2824082">
        <time>2022-07-10T09:03:02Z</time>
      </trkpt>
      <trkpt lat="41.89867" lon="2.2824867">
        <time>2022-07-10T09:03:05Z</time>
      </trkpt>
      <trkpt lat="41.89864" lon="2.2825363">
        <time>2022-07-10T09:03:07Z</time>
      </trkpt>
      <trkpt lat="41.898594" lon="2.2826126">
        <time>2022-07-10T09:03:10Z</time>
      </trkpt>
      <trkpt lat="41.89855" lon="2.282693">
        <time>2022-07-10T09:03:13Z</time>
      </trkpt>
      <trkpt lat="41.8985" lon="2.2827742">
        <time>2022-07-10T09:03:16Z</time>
      </trkpt>
      <trkpt lat="41.89846" lon="2.2828324">
        <time>2022-07-10T09:03:18Z</time>
      </trkpt>
      <trkpt lat="41.898422" lon="2.2828853">
        <time>2022-07-10T09:03:20Z</time>
      </trkpt>
      <trkpt lat="41.89838" lon="2.2829373">
        <time>2022-07-10T09:03:22Z</time>
      </trkpt>
      <trkpt lat="41.898335" lon="2.282988">
        <time>2022-07-10T09:03:24Z</time>
      </trkpt>
      <trkpt lat="41.898285" lon="2.2830322">
        <time>2022-07-10T09:03:26Z</time>
      </trkpt>
      <trkpt lat="41.898235" lon="2.2830772">
        <time>2022-07-10T09:03:28Z</time>
      </trkpt>
      <trkpt lat="41.898182" lon="2.283115">
        <time>2022-07-10T09:03:30Z</time>
      </trkpt>
      <trkpt lat="41.89813" lon="2.2831433">
        <time>2022-07-10T09:03:32Z</time>
      </trkpt>
      <trkpt lat="41.89807" lon="2.2831643">
        <time>2022-07-10T09:03:34Z</time>
      </trkpt>
      <trkpt lat="41.898014" lon="2.283181">
        <time>2022-07-10T09:03:36Z</time>
      </trkpt>
      <trkpt lat="41.897957" lon="2.2831933">
        <time>2022-07-10T09:03:38Z</time>
      </trkpt>
      <trkpt lat="41.897896" lon="2.283201">
        <time>2022-07-10T09:03:40Z</time>
      </trkpt>
      <trkpt lat="41.897835" lon="2.2832086">
        <time>2022-07-10T09:03:42Z</time>
      </trkpt>
      <trkpt lat="41.897774" lon="2.283218">
        <time>2022-07-10T09:03:44Z</time>
      </trkpt>
      <trkpt lat="41.897713" lon="2.2832265">
        <time>2022-07-10T09:03:46Z</time>
      </trkpt>
      <trkpt lat="41.897648" lon="2.283233">
        <time>2022-07-10T09:03:48Z</time>
      </trkpt>
      <trkpt lat="41.897587" lon="2.2832382">
        <time>2022-07-10T09:03:50Z</time>
      </trkpt>
      <trkpt lat="41.897522" lon="2.2832425">
        <time>2022-07-10T09:03:52Z</time>
      </trkpt>
      <trkpt lat="41.897453" lon="2.2832453">
        <time>2022-07-10T09:03:54Z</time>
      </trkpt>
      <trkpt lat="41.89735" lon="2.283243">
        <time>2022-07-10T09:03:57Z</time>
      </trkpt>
      <trkpt lat="41.897278" lon="2.283239">
        <time>2022-07-10T09:03:59Z</time>
      </trkpt>
      <trkpt lat="41.89721" lon="2.2832382">
        <time>2022-07-10T09:04:01Z</time>
      </trkpt>
      <trkpt lat="41.89714" lon="2.2832422">
        <time>2022-07-10T09:04:03Z</time>
      </trkpt>
      <trkpt lat="41.89707" lon="2.2832432">
        <time>2022-07-10T09:04:05Z</time>
      </trkpt>
      <trkpt lat="41.897" lon="2.2832398">
        <time>2022-07-10T09:04:07Z</time>
      </trkpt>
      <trkpt lat="41.89693" lon="2.2832348">
        <time>2022-07-10T09:04:09Z</time>
      </trkpt>
      <trkpt lat="41.89686" lon="2.2832263">
        <time>2022-07-10T09:04:11Z</time>
      </trkpt>
      <trkpt lat="41.89679" lon="2.283213">
        <time>2022-07-10T09:04:13Z</time>
      </trkpt>
      <trkpt lat="41.896725" lon="2.2831972">
        <time>2022-07-10T09:04:15Z</time>
      </trkpt>
      <trkpt lat="41.896656" lon="2.2831779">
        <time>2022-07-10T09:04:17Z</time>
      </trkpt>
      <trkpt lat="41.89659" lon="2.2831552">
        <time>2022-07-10T09:04:19Z</time>
      </trkpt>
      <trkpt lat="41.896526" lon="2.2831326">
        <time>2022-07-10T09:04:21Z</time>
      </trkpt>
      <trkpt lat="41.89646" lon="2.2831097">
        <time>2022-07-10T09:04:23Z</time>
      </trkpt>
      <trkpt lat="41.896393" lon="2.2830865">
        <time>2022-07-10T09:04:25Z</time>
      </trkpt>
      <trkpt lat="41.896324" lon="2.2830637">
        <time>2022-07-10T09:04:27Z</time>
      </trkpt>
      <trkpt lat="41.89626" lon="2.2830405">
        <time>2022-07-10T09:04:29Z</time>
      </trkpt>
      <trkpt lat="41.89619" lon="2.2830184">
        <time>2022-07-10T09:04:31Z</time>
      </trkpt>
      <trkpt lat="41.896126" lon="2.282994">
        <time>2022-07-10T09:04:33Z</time>
      </trkpt>
      <trkpt lat="41.89606" lon="2.2829673">
        <time>2022-07-10T09:04:35Z</time>
      </trkpt>
      <trkpt lat="41.895996" lon="2.2829437">
        <time>2022-07-10T09:04:37Z</time>
      </trkpt>
      <trkpt lat="41.89594" lon="2.28292">
        <time>2022-07-10T09:04:39Z</time>
      </trkpt>
      <trkpt lat="41.895885" lon="2.2828956">
        <time>2022-07-10T09:04:41Z</time>
      </trkpt>
      <trkpt lat="41.89583" lon="2.28287">
        <time>2022-07-10T09:04:43Z</time>
      </trkpt>
      <trkpt lat="41.89578" lon="2.282845">
        <time>2022-07-10T09:04:45Z</time>
      </trkpt>
      <trkpt lat="41.89573" lon="2.2828226">
        <time>2022-07-10T09:04:47Z</time>
      </trkpt>
      <trkpt lat="41.89568" lon="2.282799">
        <time>2022-07-10T09:04:49Z</time>
      </trkpt>
      <trkpt lat="41.89561" lon="2.2827578">
        <time>2022-07-10T09:04:52Z</time>
      </trkpt>
      <trkpt lat="41.895546" lon="2.282713">
        <time>2022-07-10T09:04:55Z</time>
      </trkpt>
      <trkpt lat="41.895504" lon="2.282679">
        <time>2022-07-10T09:04:57Z</time>
      </trkpt>
      <trkpt lat="41.895428" lon="2.28261">
        <time>2022-07-10T09:05:01Z</time>
      </trkpt>
      <trkpt lat="41.89537" lon="2.282554">
        <time>2022-07-10T09:05:04Z</time>
      </trkpt>
      <trkpt lat="41.895313" lon="2.2824957">
        <time>2022-07-10T09:05:07Z</time>
      </trkpt>
      <trkpt lat="41.895256" lon="2.2824376">
        <time>2022-07-10T09:05:10Z</time>
      </trkpt>
      <trkpt lat="41.8952" lon="2.282381">
        <time>2022-07-10T09:05:13Z</time>
      </trkpt>
      <trkpt lat="41.895138" lon="2.2823243">
        <time>2022-07-10T09:05:16Z</time>
      </trkpt>
      <trkpt lat="41.895077" lon="2.282273">
        <time>2022-07-10T09:05:19Z</time>
      </trkpt>
      <trkpt lat="41.895016" lon="2.2822268">
        <time>2022-07-10T09:05:22Z</time>
      </trkpt>
      <trkpt lat="41.894947" lon="2.2821896">
        <time>2022-07-10T09:05:25Z</time>
      </trkpt>
      <trkpt lat="41.89488" lon="2.282156">
        <time>2022-07-10T09:05:28Z</time>
      </trkpt>
      <trkpt lat="41.894806" lon="2.282126">
        <time>2022-07-10T09:05:31Z</time>
      </trkpt>
      <trkpt lat="41.894756" lon="2.2821074">
        <time>2022-07-10T09:05:33Z</time>
      </trkpt>
      <trkpt lat="41.894684" lon="2.2820837">
        <time>2022-07-10T09:05:36Z</time>
      </trkpt>
      <trkpt lat="41.894634" lon="2.2820654">
        <time>2022-07-10T09:05:38Z</time>
      </trkpt>
      <trkpt lat="41.89456" lon="2.2820392">
        <time>2022-07-10T09:05:41Z</time>
      </trkpt>
      <trkpt lat="41.894516" lon="2.2820218">
        <time>2022-07-10T09:05:43Z</time>
      </trkpt>
      <trkpt lat="41.89445" lon="2.2819936">
        <time>2022-07-10T09:05:46Z</time>
      </trkpt>
      <trkpt lat="41.894386" lon="2.2819633">
        <time>2022-07-10T09:05:49Z</time>
      </trkpt>
      <trkpt lat="41.894325" lon="2.2819254">
        <time>2022-07-10T09:05:52Z</time>
      </trkpt>
      <trkpt lat="41.894268" lon="2.281881">
        <time>2022-07-10T09:05:55Z</time>
      </trkpt>
      <trkpt lat="41.894215" lon="2.2818365">
        <time>2022-07-10T09:05:58Z</time>
      </trkpt>
      <trkpt lat="41.894165" lon="2.281784">
        <time>2022-07-10T09:06:01Z</time>
      </trkpt>
      <trkpt lat="41.89411" lon="2.2817314">
        <time>2022-07-10T09:06:04Z</time>
      </trkpt>
      <trkpt lat="41.894054" lon="2.2816784">
        <time>2022-07-10T09:06:07Z</time>
      </trkpt>
      <trkpt lat="41.894" lon="2.2816234">
        <time>2022-07-10T09:06:10Z</time>
      </trkpt>
      <trkpt lat="41.893948" lon="2.2815688">
        <time>2022-07-10T09:06:13Z</time>
      </trkpt>
      <trkpt lat="41.893894" lon="2.281516">
        <time>2022-07-10T09:06:16Z</time>
      </trkpt>
      <trkpt lat="41.893845" lon="2.281464">
        <time>2022-07-10T09:06:19Z</time>
      </trkpt>
      <trkpt lat="41.893795" lon="2.2814128">
        <time>2022-07-10T09:06:22Z</time>
      </trkpt>
      <trkpt lat="41.893745" lon="2.2813647">
        <time>2022-07-10T09:06:25Z</time>
      </trkpt>
      <trkpt lat="41.893692" lon="2.2813182">
        <time>2022-07-10T09:06:28Z</time>
      </trkpt>
      <trkpt lat="41.89364" lon="2.2812715">
        <time>2022-07-10T09:06:31Z</time>
      </trkpt>
      <trkpt lat="41.893585" lon="2.2812197">
        <time>2022-07-10T09:06:34Z</time>
      </trkpt>
      <trkpt lat="41.893536" lon="2.2811692">
        <time>2022-07-10T09:06:37Z</time>
      </trkpt>
      <trkpt lat="41.893482" lon="2.2811182">
        <time>2022-07-10T09:06:40Z</time>
      </trkpt>
      <trkpt lat="41.893436" lon="2.2810714">
        <time>2022-07-10T09:06:43Z</time>
      </trkpt>
      <trkpt lat="41.893387" lon="2.2810292">
        <time>2022-07-10T09:06:46Z</time>
      </trkpt>
      <trkpt lat="41.893333" lon="2.2809818">
        <time>2022-07-10T09:06:49Z</time>
      </trkpt>
      <trkpt lat="41.89328" lon="2.280935">
        <time>2022-07-10T09:06:52Z</time>
      </trkpt>
      <trkpt lat="41.89323" lon="2.2808912">
        <time>2022-07-10T09:06:55Z</time>
      </trkpt>
      <trkpt lat="41.89318" lon="2.2808475">
        <time>2022-07-10T09:06:58Z</time>
      </trkpt>
      <trkpt lat="41.893127" lon="2.2808075">
        <time>2022-07-10T09:07:01Z</time>
      </trkpt>
      <trkpt lat="41.893074" lon="2.2807665">
        <time>2022-07-10T09:07:04Z</time>
      </trkpt>
      <trkpt lat="41.892998" lon="2.2807124">
        <time>2022-07-10T09:07:08Z</time>
      </trkpt>
      <trkpt lat="41.89294" lon="2.2806718">
        <time>2022-07-10T09:07:11Z</time>
      </trkpt>
      <trkpt lat="41.892887" lon="2.2806268">
        <time>2022-07-10T09:07:14Z</time>
      </trkpt>
      <trkpt lat="41.892834" lon="2.2805817">
        <time>2022-07-10T09:07:17Z</time>
      </trkpt>
      <trkpt lat="41.89278" lon="2.2805445">
        <time>2022-07-10T09:07:20Z</time>
      </trkpt>
      <trkpt lat="41.892727" lon="2.2805052">
        <time>2022-07-10T09:07:23Z</time>
      </trkpt>
      <trkpt lat="41.89267" lon="2.2804625">
        <time>2022-07-10T09:07:26Z</time>
      </trkpt>
      <trkpt lat="41.892616" lon="2.2804184">
        <time>2022-07-10T09:07:29Z</time>
      </trkpt>
      <trkpt lat="41.892567" lon="2.2803779">
        <time>2022-07-10T09:07:32Z</time>
      </trkpt>
      <trkpt lat="41.892513" lon="2.2803366">
        <time>2022-07-10T09:07:35Z</time>
      </trkpt>
      <trkpt lat="41.89246" lon="2.2802975">
        <time>2022-07-10T09:07:38Z</time>
      </trkpt>
      <trkpt lat="41.892406" lon="2.2802596">
        <time>2022-07-10T09:07:41Z</time>
      </trkpt>
      <trkpt lat="41.892353" lon="2.2802174">
        <time>2022-07-10T09:07:44Z</time>
      </trkpt>
      <trkpt lat="41.8923" lon="2.2801745">
        <time>2022-07-10T09:07:47Z</time>
      </trkpt>
      <trkpt lat="41.89224" lon="2.2801352">
        <time>2022-07-10T09:07:50Z</time>
      </trkpt>
      <trkpt lat="41.89218" lon="2.2800949">
        <time>2022-07-10T09:07:53Z</time>
      </trkpt>
      <trkpt lat="41.892128" lon="2.2800515">
        <time>2022-07-10T09:07:56Z</time>
      </trkpt>
      <trkpt lat="41.892075" lon="2.2800112">
        <time>2022-07-10T09:07:59Z</time>
      </trkpt>
      <trkpt lat="41.89202" lon="2.279972">
        <time>2022-07-10T09:08:02Z</time>
      </trkpt>
      <trkpt lat="41.891968" lon="2.2799408">
        <time>2022-07-10T09:08:05Z</time>
      </trkpt>
      <trkpt lat="41.891914" lon="2.2798998">
        <time>2022-07-10T09:08:08Z</time>
      </trkpt>
      <trkpt lat="41.891857" lon="2.2798595">
        <time>2022-07-10T09:08:11Z</time>
      </trkpt>
      <trkpt lat="41.891804" lon="2.2798238">
        <time>2022-07-10T09:08:14Z</time>
      </trkpt>
      <trkpt lat="41.891747" lon="2.2797842">
        <time>2022-07-10T09:08:17Z</time>
      </trkpt>
      <trkpt lat="41.891697" lon="2.27974">
        <time>2022-07-10T09:08:20Z</time>
      </trkpt>
      <trkpt lat="41.89164" lon="2.279692">
        <time>2022-07-10T09:08:23Z</time>
      </trkpt>
      <trkpt lat="41.89159" lon="2.2796466">
        <time>2022-07-10T09:08:26Z</time>
      </trkpt>
      <trkpt lat="41.891533" lon="2.2796025">
        <time>2022-07-10T09:08:29Z</time>
      </trkpt>
      <trkpt lat="41.891476" lon="2.2795613">
        <time>2022-07-10T09:08:32Z</time>
      </trkpt>
      <trkpt lat="41.891422" lon="2.2795222">
        <time>2022-07-10T09:08:35Z</time>
      </trkpt>
      <trkpt lat="41.891365" lon="2.279492">
        <time>2022-07-10T09:08:38Z</time>
      </trkpt>
      <trkpt lat="41.891304" lon="2.279461">
        <time>2022-07-10T09:08:41Z</time>
      </trkpt>
      <trkpt lat="41.891247" lon="2.2794325">
        <time>2022-07-10T09:08:44Z</time>
      </trkpt>
      <trkpt lat="41.891186" lon="2.2794063">
        <time>2022-07-10T09:08:47Z</time>
      </trkpt>
      <trkpt lat="41.89112" lon="2.279384">
        <time>2022-07-10T09:08:50Z</time>
      </trkpt>
      <trkpt lat="41.891045" lon="2.2793655">
        <time>2022-07-10T09:08:53Z</time>
      </trkpt>
      <trkpt lat="41.890995" lon="2.2793572">
        <time>2022-07-10T09:08:55Z</time>
      </trkpt>
      <trkpt lat="41.890923" lon="2.2793477">
        <time>2022-07-10T09:08:58Z</time>
      </trkpt>
      <trkpt lat="41.890873" lon="2.2793427">
        <time>2022-07-10T09:09:00Z</time>
      </trkpt>
      <trkpt lat="41.890797" lon="2.279343">
        <time>2022-07-10T09:09:03Z</time>
      </trkpt>
      <trkpt lat="41.890728" lon="2.2793505">
        <time>2022-07-10T09:09:06Z</time>
      </trkpt>
      <trkpt lat="41.890656" lon="2.2793572">
        <time>2022-07-10T09:09:09Z</time>
      </trkpt>
      <trkpt lat="41.890602" lon="2.2793622">
        <time>2022-07-10T09:09:11Z</time>
      </trkpt>
      <trkpt lat="41.890533" lon="2.2793765">
        <time>2022-07-10T09:09:14Z</time>
      </trkpt>
      <trkpt lat="41.890438" lon="2.2793863">
        <time>2022-07-10T09:09:18Z</time>
      </trkpt>
      <trkpt lat="41.89039" lon="2.2793932">
        <time>2022-07-10T09:09:20Z</time>
      </trkpt>
      <trkpt lat="41.890316" lon="2.2794056">
        <time>2022-07-10T09:09:23Z</time>
      </trkpt>
      <trkpt lat="41.890244" lon="2.2794166">
        <time>2022-07-10T09:09:26Z</time>
      </trkpt>
      <trkpt lat="41.890175" lon="2.279425">
        <time>2022-07-10T09:09:29Z</time>
      </trkpt>
      <trkpt lat="41.890125" lon="2.279434">
        <time>2022-07-10T09:09:31Z</time>
      </trkpt>
      <trkpt lat="41.890057" lon="2.2794495">
        <time>2022-07-10T09:09:34Z</time>
      </trkpt>
      <trkpt lat="41.889988" lon="2.2794638">
        <time>2022-07-10T09:09:37Z</time>
      </trkpt>
      <trkpt lat="41.889915" lon="2.2794783">
        <time>2022-07-10T09:09:40Z</time>
      </trkpt>
      <trkpt lat="41.88987" lon="2.2794876">
        <time>2022-07-10T09:09:42Z</time>
      </trkpt>
      <trkpt lat="41.8898" lon="2.2795038">
        <time>2022-07-10T09:09:45Z</time>
      </trkpt>
      <trkpt lat="41.889755" lon="2.2795157">
        <time>2022-07-10T09:09:47Z</time>
      </trkpt>
      <trkpt lat="41.889687" lon="2.2795303">
        <time>2022-07-10T09:09:50Z</time>
      </trkpt>
      <trkpt lat="41.889637" lon="2.279538">
        <time>2022-07-10T09:09:52Z</time>
      </trkpt>
      <trkpt lat="41.889565" lon="2.2795498">
        <time>2022-07-10T09:09:55Z</time>
      </trkpt>
      <trkpt lat="41.889492" lon="2.2795634">
        <time>2022-07-10T09:09:58Z</time>
      </trkpt>
      <trkpt lat="41.88942" lon="2.27957">
        <time>2022-07-10T09:10:01Z</time>
      </trkpt>
      <trkpt lat="41.889347" lon="2.2795794">
        <time>2022-07-10T09:10:04Z</time>
      </trkpt>
      <trkpt lat="41.889275" lon="2.2795925">
        <time>2022-07-10T09:10:07Z</time>
      </trkpt>
      <trkpt lat="41.889206" lon="2.2796075">
        <time>2022-07-10T09:10:10Z</time>
      </trkpt>
      <trkpt lat="41.889137" lon="2.2796268">
        <time>2022-07-10T09:10:13Z</time>
      </trkpt>
      <trkpt lat="41.889065" lon="2.2796443">
        <time>2022-07-10T09:10:16Z</time>
      </trkpt>
      <trkpt lat="41.888996" lon="2.2796543">
        <time>2022-07-10T09:10:19Z</time>
      </trkpt>
      <trkpt lat="41.888924" lon="2.2796688">
        <time>2022-07-10T09:10:22Z</time>
      </trkpt>
      <trkpt lat="41.88885" lon="2.2796829">
        <time>2022-07-10T09:10:25Z</time>
      </trkpt>
      <trkpt lat="41.8888" lon="2.2796915">
        <time>2022-07-10T09:10:27Z</time>
      </trkpt>
      <trkpt lat="41.88875" lon="2.2796967">
        <time>2022-07-10T09:10:29Z</time>
      </trkpt>
      <trkpt lat="41.888695" lon="2.2797039">
        <time>2022-07-10T09:10:31Z</time>
      </trkpt>
      <trkpt lat="41.888645" lon="2.2797134">
        <time>2022-07-10T09:10:33Z</time>
      </trkpt>
      <trkpt lat="41.888573" lon="2.2797325">
        <time>2022-07-10T09:10:36Z</time>
      </trkpt>
      <trkpt lat="41.888515" lon="2.2797492">
        <time>2022-07-10T09:10:38Z</time>
      </trkpt>
      <trkpt lat="41.888462" lon="2.2797625">
        <time>2022-07-10T09:10:40Z</time>
      </trkpt>
      <trkpt lat="41.888405" lon="2.2797754">
        <time>2022-07-10T09:10:42Z</time>
      </trkpt>
      <trkpt lat="41.888344" lon="2.279788">
        <time>2022-07-10T09:10:44Z</time>
      </trkpt>
      <trkpt lat="41.888287" lon="2.2798014">
        <time>2022-07-10T09:10:46Z</time>
      </trkpt>
      <trkpt lat="41.888226" lon="2.2798145">
        <time>2022-07-10T09:10:48Z</time>
      </trkpt>
      <trkpt lat="41.888165" lon="2.2798288">
        <time>2022-07-10T09:10:50Z</time>
      </trkpt>
      <trkpt lat="41.888103" lon="2.2798421">
        <time>2022-07-10T09:10:52Z</time>
      </trkpt>
      <trkpt lat="41.888042" lon="2.2798529">
        <time>2022-07-10T09:10:54Z</time>
      </trkpt>
      <trkpt lat="41.887985" lon="2.2798681">
        <time>2022-07-10T09:10:56Z</time>
      </trkpt>
      <trkpt lat="41.887924" lon="2.2798815">
        <time>2022-07-10T09:10:58Z</time>
      </trkpt>
      <trkpt lat="41.887856" lon="2.2798922">
        <time>2022-07-10T09:11:00Z</time>
      </trkpt>
      <trkpt lat="41.88778" lon="2.2799134">
        <time>2022-07-10T09:11:02Z</time>
      </trkpt>
      <trkpt lat="41.88771" lon="2.2799385">
        <time>2022-07-10T09:11:04Z</time>
      </trkpt>
      <trkpt lat="41.887646" lon="2.279966">
        <time>2022-07-10T09:11:06Z</time>
      </trkpt>
      <trkpt lat="41.887585" lon="2.279994">
        <time>2022-07-10T09:11:08Z</time>
      </trkpt>
      <trkpt lat="41.887524" lon="2.2800255">
        <time>2022-07-10T09:11:10Z</time>
      </trkpt>
      <trkpt lat="41.887463" lon="2.280061">
        <time>2022-07-10T09:11:12Z</time>
      </trkpt>
      <trkpt lat="41.887398" lon="2.280103">
        <time>2022-07-10T09:11:14Z</time>
      </trkpt>
      <trkpt lat="41.887337" lon="2.2801437">
        <time>2022-07-10T09:11:16Z</time>
      </trkpt>
      <trkpt lat="41.88727" lon="2.28018">
        <time>2022-07-10T09:11:18Z</time>
      </trkpt>
      <trkpt lat="41.88721" lon="2.2802148">
        <time>2022-07-10T09:11:20Z</time>
      </trkpt>
      <trkpt lat="41.887146" lon="2.2802508">
        <time>2022-07-10T09:11:22Z</time>
      </trkpt>
      <trkpt lat="41.88708" lon="2.280289">
        <time>2022-07-10T09:11:24Z</time>
      </trkpt>
      <trkpt lat="41.887016" lon="2.280329">
        <time>2022-07-10T09:11:26Z</time>
      </trkpt>
      <trkpt lat="41.886917" lon="2.2803867">
        <time>2022-07-10T09:11:29Z</time>
      </trkpt>
      <trkpt lat="41.886852" lon="2.2804263">
        <time>2022-07-10T09:11:31Z</time>
      </trkpt>
      <trkpt lat="41.886787" lon="2.2804668">
        <time>2022-07-10T09:11:33Z</time>
      </trkpt>
      <trkpt lat="41.886723" lon="2.280512">
        <time>2022-07-10T09:11:35Z</time>
      </trkpt>
      <trkpt lat="41.886654" lon="2.280559">
        <time>2022-07-10T09:11:37Z</time>
      </trkpt>
      <trkpt lat="41.886585" lon="2.2805986">
        <time>2022-07-10T09:11:39Z</time>
      </trkpt>
      <trkpt lat="41.886517" lon="2.2806368">
        <time>2022-07-10T09:11:41Z</time>
      </trkpt>
      <trkpt lat="41.886448" lon="2.2806754">
        <time>2022-07-10T09:11:43Z</time>
      </trkpt>
      <trkpt lat="41.88638" lon="2.2807157">
        <time>2022-07-10T09:11:45Z</time>
      </trkpt>
      <trkpt lat="41.886314" lon="2.2807574">
        <time>2022-07-10T09:11:47Z</time>
      </trkpt>
      <trkpt lat="41.886246" lon="2.280799">
        <time>2022-07-10T09:11:49Z</time>
      </trkpt>
      <trkpt lat="41.886173" lon="2.280841">
        <time>2022-07-10T09:11:51Z</time>
      </trkpt>
      <trkpt lat="41.88611" lon="2.280881">
        <time>2022-07-10T09:11:53Z</time>
      </trkpt>
      <trkpt lat="41.88604" lon="2.2809203">
        <time>2022-07-10T09:11:55Z</time>
      </trkpt>
      <trkpt lat="41.885975" lon="2.2809603">
        <time>2022-07-10T09:11:57Z</time>
      </trkpt>
      <trkpt lat="41.885906" lon="2.2809987">
        <time>2022-07-10T09:11:59Z</time>
      </trkpt>
      <trkpt lat="41.88584" lon="2.281039">
        <time>2022-07-10T09:12:01Z</time>
      </trkpt>
      <trkpt lat="41.885773" lon="2.281079">
        <time>2022-07-10T09:12:03Z</time>
      </trkpt>
      <trkpt lat="41.885708" lon="2.2811172">
        <time>2022-07-10T09:12:05Z</time>
      </trkpt>
      <trkpt lat="41.885643" lon="2.281156">
        <time>2022-07-10T09:12:07Z</time>
      </trkpt>
      <trkpt lat="41.88558" lon="2.2811956">
        <time>2022-07-10T09:12:09Z</time>
      </trkpt>
      <trkpt lat="41.88551" lon="2.2812374">
        <time>2022-07-10T09:12:11Z</time>
      </trkpt>
      <trkpt lat="41.88544" lon="2.2812805">
        <time>2022-07-10T09:12:13Z</time>
      </trkpt>
      <trkpt lat="41.885372" lon="2.281324">
        <time>2022-07-10T09:12:15Z</time>
      </trkpt>
      <trkpt lat="41.885307" lon="2.281368">
        <time>2022-07-10T09:12:17Z</time>
      </trkpt>
      <trkpt lat="41.88524" lon="2.2814112">
        <time>2022-07-10T09:12:19Z</time>
      </trkpt>
      <trkpt lat="41.885174" lon="2.2814553">
        <time>2022-07-10T09:12:21Z</time>
      </trkpt>
      <trkpt lat="41.885105" lon="2.2814996">
        <time>2022-07-10T09:12:23Z</time>
      </trkpt>
      <trkpt lat="41.88504" lon="2.281545">
        <time>2022-07-10T09:12:25Z</time>
      </trkpt>
      <trkpt lat="41.884975" lon="2.2815933">
        <time>2022-07-10T09:12:27Z</time>
      </trkpt>
      <trkpt lat="41.88491" lon="2.2816455">
        <time>2022-07-10T09:12:29Z</time>
      </trkpt>
      <trkpt lat="41.88485" lon="2.2817025">
        <time>2022-07-10T09:12:31Z</time>
      </trkpt>
      <trkpt lat="41.884785" lon="2.2817636">
        <time>2022-07-10T09:12:33Z</time>
      </trkpt>
      <trkpt lat="41.884724" lon="2.2818277">
        <time>2022-07-10T09:12:35Z</time>
      </trkpt>
      <trkpt lat="41.884663" lon="2.2818902">
        <time>2022-07-10T09:12:37Z</time>
      </trkpt>
      <trkpt lat="41.884605" lon="2.2819562">
        <time>2022-07-10T09:12:39Z</time>
      </trkpt>
      <trkpt lat="41.884544" lon="2.2820253">
        <time>2022-07-10T09:12:41Z</time>
      </trkpt>
      <trkpt lat="41.884487" lon="2.282095">
        <time>2022-07-10T09:12:43Z</time>
      </trkpt>
      <trkpt lat="41.88443" lon="2.282162">
        <time>2022-07-10T09:12:45Z</time>
      </trkpt>
      <trkpt lat="41.884373" lon="2.2822273">
        <time>2022-07-10T09:12:47Z</time>
      </trkpt>
      <trkpt lat="41.88432" lon="2.282296">
        <time>2022-07-10T09:12:49Z</time>
      </trkpt>
      <trkpt lat="41.884266" lon="2.2823656">
        <time>2022-07-10T09:12:51Z</time>
      </trkpt>
      <trkpt lat="41.884216" lon="2.2824333">
        <time>2022-07-10T09:12:53Z</time>
      </trkpt>
      <trkpt lat="41.884163" lon="2.282507">
        <time>2022-07-10T09:12:55Z</time>
      </trkpt>
      <trkpt lat="41.884113" lon="2.282578">
        <time>2022-07-10T09:12:57Z</time>
      </trkpt>
      <trkpt lat="41.884064" lon="2.2826488">
        <time>2022-07-10T09:12:59Z</time>
      </trkpt>
      <trkpt lat="41.884014" lon="2.2827191">
        <time>2022-07-10T09:13:01Z</time>
      </trkpt>
      <trkpt lat="41.88396" lon="2.2827919">
        <time>2022-07-10T09:13:03Z</time>
      </trkpt>
      <trkpt lat="41.883907" lon="2.282866">
        <time>2022-07-10T09:13:05Z</time>
      </trkpt>
      <trkpt lat="41.883858" lon="2.2829425">
        <time>2022-07-10T09:13:07Z</time>
      </trkpt>
      <trkpt lat="41.88381" lon="2.2830143">
        <time>2022-07-10T09:13:09Z</time>
      </trkpt>
      <trkpt lat="41.88376" lon="2.2830875">
        <time>2022-07-10T09:13:11Z</time>
      </trkpt>
      <trkpt lat="41.883713" lon="2.2831569">
        <time>2022-07-10T09:13:13Z</time>
      </trkpt>
      <trkpt lat="41.88366" lon="2.2832289">
        <time>2022-07-10T09:13:15Z</time>
      </trkpt>
      <trkpt lat="41.883606" lon="2.283305">
        <time>2022-07-10T09:13:17Z</time>
      </trkpt>
      <trkpt lat="41.883556" lon="2.2833765">
        <time>2022-07-10T09:13:19Z</time>
      </trkpt>
      <trkpt lat="41.883503" lon="2.283445">
        <time>2022-07-10T09:13:21Z</time>
      </trkpt>
      <trkpt lat="41.88345" lon="2.2835128">
        <time>2022-07-10T09:13:23Z</time>
      </trkpt>
      <trkpt lat="41.883392" lon="2.283582">
        <time>2022-07-10T09:13:25Z</time>
      </trkpt>
      <trkpt lat="41.88333" lon="2.2836468">
        <time>2022-07-10T09:13:27Z</time>
      </trkpt>
      <trkpt lat="41.88327" lon="2.2836986">
        <time>2022-07-10T09:13:29Z</time>
      </trkpt>
      <trkpt lat="41.883198" lon="2.2837307">
        <time>2022-07-10T09:13:31Z</time>
      </trkpt>
      <trkpt lat="41.88313" lon="2.283755">
        <time>2022-07-10T09:13:33Z</time>
      </trkpt>
      <trkpt lat="41.883057" lon="2.2837849">
        <time>2022-07-10T09:13:35Z</time>
      </trkpt>
      <trkpt lat="41.88299" lon="2.2838285">
        <time>2022-07-10T09:13:37Z</time>
      </trkpt>
      <trkpt lat="41.882927" lon="2.2838836">
        <time>2022-07-10T09:13:39Z</time>
      </trkpt>
      <trkpt lat="41.88287" lon="2.2839446">
        <time>2022-07-10T09:13:41Z</time>
      </trkpt>
      <trkpt lat="41.88281" lon="2.2840066">
        <time>2022-07-10T09:13:43Z</time>
      </trkpt>
      <trkpt lat="41.882744" lon="2.2840686">
        <time>2022-07-10T09:13:45Z</time>
      </trkpt>
      <trkpt lat="41.88268" lon="2.2841208">
        <time>2022-07-10T09:13:47Z</time>
      </trkpt>
      <trkpt lat="41.882614" lon="2.2841659">
        <time>2022-07-10T09:13:49Z</time>
      </trkpt>
      <trkpt lat="41.88255" lon="2.2842164">
        <time>2022-07-10T09:13:51Z</time>
      </trkpt>
      <trkpt lat="41.88248" lon="2.284264">
        <time>2022-07-10T09:13:53Z</time>
      </trkpt>
      <trkpt lat="41.88242" lon="2.28431">
        <time>2022-07-10T09:13:55Z</time>
      </trkpt>
      <trkpt lat="41.882355" lon="2.2843618">
        <time>2022-07-10T09:13:57Z</time>
      </trkpt>
      <trkpt lat="41.88229" lon="2.2844145">
        <time>2022-07-10T09:13:59Z</time>
      </trkpt>
      <trkpt lat="41.88223" lon="2.2844677">
        <time>2022-07-10T09:14:01Z</time>
      </trkpt>
      <trkpt lat="41.882164" lon="2.2845201">
        <time>2022-07-10T09:14:03Z</time>
      </trkpt>
      <trkpt lat="41.8821" lon="2.2845702">
        <time>2022-07-10T09:14:05Z</time>
      </trkpt>
      <trkpt lat="41.882034" lon="2.2846222">
        <time>2022-07-10T09:14:07Z</time>
      </trkpt>
      <trkpt lat="41.88197" lon="2.2846742">
        <time>2022-07-10T09:14:09Z</time>
      </trkpt>
      <trkpt lat="41.88191" lon="2.2847245">
        <time>2022-07-10T09:14:11Z</time>
      </trkpt>
      <trkpt lat="41.881847" lon="2.2847722">
        <time>2022-07-10T09:14:13Z</time>
      </trkpt>
      <trkpt lat="41.881786" lon="2.2848268">
        <time>2022-07-10T09:14:15Z</time>
      </trkpt>
      <trkpt lat="41.88172" lon="2.2848802">
        <time>2022-07-10T09:14:17Z</time>
      </trkpt>
      <trkpt lat="41.881657" lon="2.2849345">
        <time>2022-07-10T09:14:19Z</time>
      </trkpt>
      <trkpt lat="41.881596" lon="2.2849905">
        <time>2022-07-10T09:14:21Z</time>
      </trkpt>
      <trkpt lat="41.881535" lon="2.2850437">
        <time>2022-07-10T09:14:23Z</time>
      </trkpt>
      <trkpt lat="41.881474" lon="2.2850952">
        <time>2022-07-10T09:14:25Z</time>
      </trkpt>
      <trkpt lat="41.88141" lon="2.2851484">
        <time>2022-07-10T09:14:27Z</time>
      </trkpt>
      <trkpt lat="41.88134" lon="2.2852013">
        <time>2022-07-10T09:14:29Z</time>
      </trkpt>
      <trkpt lat="41.88127" lon="2.2852514">
        <time>2022-07-10T09:14:31Z</time>
      </trkpt>
      <trkpt lat="41.88121" lon="2.2853029">
        <time>2022-07-10T09:14:33Z</time>
      </trkpt>
      <trkpt lat="41.88115" lon="2.2853544">
        <time>2022-07-10T09:14:35Z</time>
      </trkpt>
      <trkpt lat="41.881084" lon="2.2854095">
        <time>2022-07-10T09:14:37Z</time>
      </trkpt>
      <trkpt lat="41.881023" lon="2.2854645">
        <time>2022-07-10T09:14:39Z</time>
      </trkpt>
      <trkpt lat="41.88096" lon="2.2855165">
        <time>2022-07-10T09:14:41Z</time>
      </trkpt>
      <trkpt lat="41.88089" lon="2.2855604">
        <time>2022-07-10T09:14:43Z</time>
      </trkpt>
      <trkpt lat="41.880814" lon="2.2855997">
        <time>2022-07-10T09:14:45Z</time>
      </trkpt>
      <trkpt lat="41.880745" lon="2.285638">
        <time>2022-07-10T09:14:47Z</time>
      </trkpt>
      <trkpt lat="41.880676" lon="2.2856734">
        <time>2022-07-10T09:14:49Z</time>
      </trkpt>
      <trkpt lat="41.8806" lon="2.2857037">
        <time>2022-07-10T09:14:51Z</time>
      </trkpt>
      <trkpt lat="41.88052" lon="2.2857301">
        <time>2022-07-10T09:14:53Z</time>
      </trkpt>
      <trkpt lat="41.880432" lon="2.2857385">
        <time>2022-07-10T09:14:55Z</time>
      </trkpt>
      <trkpt lat="41.880344" lon="2.2857277">
        <time>2022-07-10T09:14:57Z</time>
      </trkpt>
      <trkpt lat="41.880257" lon="2.2857242">
        <time>2022-07-10T09:14:59Z</time>
      </trkpt>
      <trkpt lat="41.88017" lon="2.2857492">
        <time>2022-07-10T09:15:01Z</time>
      </trkpt>
      <trkpt lat="41.88009" lon="2.2857914">
        <time>2022-07-10T09:15:03Z</time>
      </trkpt>
      <trkpt lat="41.879997" lon="2.2858398">
        <time>2022-07-10T09:15:05Z</time>
      </trkpt>
      <trkpt lat="41.8799" lon="2.2858837">
        <time>2022-07-10T09:15:07Z</time>
      </trkpt>
      <trkpt lat="41.879852" lon="2.285906">
        <time>2022-07-10T09:15:08Z</time>
      </trkpt>
      <trkpt lat="41.879753" lon="2.2859554">
        <time>2022-07-10T09:15:10Z</time>
      </trkpt>
      <trkpt lat="41.879704" lon="2.2859821">
        <time>2022-07-10T09:15:11Z</time>
      </trkpt>
      <trkpt lat="41.879654" lon="2.2860088">
        <time>2022-07-10T09:15:12Z</time>
      </trkpt>
      <trkpt lat="41.879604" lon="2.286034">
        <time>2022-07-10T09:15:13Z</time>
      </trkpt>
      <trkpt lat="41.879555" lon="2.2860596">
        <time>2022-07-10T09:15:14Z</time>
      </trkpt>
      <trkpt lat="41.87946" lon="2.2861145">
        <time>2022-07-10T09:15:16Z</time>
      </trkpt>
      <trkpt lat="41.87941" lon="2.2861454">
        <time>2022-07-10T09:15:17Z</time>
      </trkpt>
      <trkpt lat="41.87936" lon="2.2861774">
        <time>2022-07-10T09:15:18Z</time>
      </trkpt>
      <trkpt lat="41.879314" lon="2.28621">
        <time>2022-07-10T09:15:19Z</time>
      </trkpt>
      <trkpt lat="41.879265" lon="2.2862453">
        <time>2022-07-10T09:15:20Z</time>
      </trkpt>
      <trkpt lat="41.879215" lon="2.2862813">
        <time>2022-07-10T09:15:21Z</time>
      </trkpt>
      <trkpt lat="41.87917" lon="2.286317">
        <time>2022-07-10T09:15:22Z</time>
      </trkpt>
      <trkpt lat="41.87912" lon="2.2863514">
        <time>2022-07-10T09:15:23Z</time>
      </trkpt>
      <trkpt lat="41.879078" lon="2.2863853">
        <time>2022-07-10T09:15:24Z</time>
      </trkpt>
      <trkpt lat="41.87899" lon="2.2864532">
        <time>2022-07-10T09:15:26Z</time>
      </trkpt>
      <trkpt lat="41.878906" lon="2.286515">
        <time>2022-07-10T09:15:28Z</time>
      </trkpt>
      <trkpt lat="41.87882" lon="2.286573">
        <time>2022-07-10T09:15:30Z</time>
      </trkpt>
      <trkpt lat="41.878727" lon="2.2866273">
        <time>2022-07-10T09:15:32Z</time>
      </trkpt>
      <trkpt lat="41.87868" lon="2.2866516">
        <time>2022-07-10T09:15:33Z</time>
      </trkpt>
      <trkpt lat="41.87859" lon="2.2866843">
        <time>2022-07-10T09:15:35Z</time>
      </trkpt>
      <trkpt lat="41.878498" lon="2.2867007">
        <time>2022-07-10T09:15:37Z</time>
      </trkpt>
      <trkpt lat="41.878403" lon="2.2867284">
        <time>2022-07-10T09:15:39Z</time>
      </trkpt>
      <trkpt lat="41.878307" lon="2.2867827">
        <time>2022-07-10T09:15:41Z</time>
      </trkpt>
      <trkpt lat="41.87826" lon="2.2868133">
        <time>2022-07-10T09:15:42Z</time>
      </trkpt>
      <trkpt lat="41.878216" lon="2.2868426">
        <time>2022-07-10T09:15:43Z</time>
      </trkpt>
      <trkpt lat="41.87817" lon="2.2868752">
        <time>2022-07-10T09:15:44Z</time>
      </trkpt>
      <trkpt lat="41.87812" lon="2.286905">
        <time>2022-07-10T09:15:45Z</time>
      </trkpt>
      <trkpt lat="41.878075" lon="2.2869313">
        <time>2022-07-10T09:15:46Z</time>
      </trkpt>
      <trkpt lat="41.87798" lon="2.2869837">
        <time>2022-07-10T09:15:48Z</time>
      </trkpt>
      <trkpt lat="41.87784" lon="2.2870607">
        <time>2022-07-10T09:15:51Z</time>
      </trkpt>
      <trkpt lat="41.87775" lon="2.2871037">
        <time>2022-07-10T09:15:53Z</time>
      </trkpt>
      <trkpt lat="41.87767" lon="2.2871373">
        <time>2022-07-10T09:15:55Z</time>
      </trkpt>
      <trkpt lat="41.87759" lon="2.2871537">
        <time>2022-07-10T09:15:57Z</time>
      </trkpt>
      <trkpt lat="41.877514" lon="2.2871523">
        <time>2022-07-10T09:15:59Z</time>
      </trkpt>
      <trkpt lat="41.87744" lon="2.2871373">
        <time>2022-07-10T09:16:01Z</time>
      </trkpt>
      <trkpt lat="41.87737" lon="2.2871137">
        <time>2022-07-10T09:16:03Z</time>
      </trkpt>
      <trkpt lat="41.877296" lon="2.2870896">
        <time>2022-07-10T09:16:05Z</time>
      </trkpt>
      <trkpt lat="41.877224" lon="2.2870705">
        <time>2022-07-10T09:16:07Z</time>
      </trkpt>
      <trkpt lat="41.87716" lon="2.2870524">
        <time>2022-07-10T09:16:09Z</time>
      </trkpt>
      <trkpt lat="41.877098" lon="2.2870317">
        <time>2022-07-10T09:16:11Z</time>
      </trkpt>
      <trkpt lat="41.87704" lon="2.287006">
        <time>2022-07-10T09:16:13Z</time>
      </trkpt>
      <trkpt lat="41.87698" lon="2.2869759">
        <time>2022-07-10T09:16:15Z</time>
      </trkpt>
      <trkpt lat="41.876923" lon="2.2869482">
        <time>2022-07-10T09:16:17Z</time>
      </trkpt>
      <trkpt lat="41.876865" lon="2.286925">
        <time>2022-07-10T09:16:19Z</time>
      </trkpt>
      <trkpt lat="41.876812" lon="2.2869103">
        <time>2022-07-10T09:16:21Z</time>
      </trkpt>
      <trkpt lat="41.876762" lon="2.2868946">
        <time>2022-07-10T09:16:23Z</time>
      </trkpt>
      <trkpt lat="41.876694" lon="2.2868648">
        <time>2022-07-10T09:16:26Z</time>
      </trkpt>
      <trkpt lat="41.876644" lon="2.286848">
        <time>2022-07-10T09:16:28Z</time>
      </trkpt>
      <trkpt lat="41.87657" lon="2.2868233">
        <time>2022-07-10T09:16:31Z</time>
      </trkpt>
      <trkpt lat="41.876503" lon="2.286799">
        <time>2022-07-10T09:16:34Z</time>
      </trkpt>
      <trkpt lat="41.87644" lon="2.2867763">
        <time>2022-07-10T09:16:37Z</time>
      </trkpt>
      <trkpt lat="41.87637" lon="2.2867546">
        <time>2022-07-10T09:16:40Z</time>
      </trkpt>
      <trkpt lat="41.87632" lon="2.2867396">
        <time>2022-07-10T09:16:42Z</time>
      </trkpt>
      <trkpt lat="41.876255" lon="2.2867184">
        <time>2022-07-10T09:16:45Z</time>
      </trkpt>
      <trkpt lat="41.876198" lon="2.286696">
        <time>2022-07-10T09:16:48Z</time>
      </trkpt>
      <trkpt lat="41.876144" lon="2.2867014">
        <time>2022-07-10T09:16:51Z</time>
      </trkpt>
      <trkpt lat="41.876095" lon="2.286741">
        <time>2022-07-10T09:16:54Z</time>
      </trkpt>
      <trkpt lat="41.87606" lon="2.2868">
        <time>2022-07-10T09:16:57Z</time>
      </trkpt>
      <trkpt lat="41.876045" lon="2.2868664">
        <time>2022-07-10T09:17:00Z</time>
      </trkpt>
      <trkpt lat="41.876064" lon="2.2869294">
        <time>2022-07-10T09:17:04Z</time>
      </trkpt>
      <trkpt lat="41.875946" lon="2.286694">
        <time>2022-07-10T09:22:29Z</time>
      </trkpt>
      <trkpt lat="41.875927" lon="2.286611">
        <time>2022-07-10T09:22:32Z</time>
      </trkpt>
      <trkpt lat="41.875908" lon="2.2865467">
        <time>2022-07-10T09:22:34Z</time>
      </trkpt>
      <trkpt lat="41.875877" lon="2.2864866">
        <time>2022-07-10T09:22:36Z</time>
      </trkpt>
      <trkpt lat="41.87583" lon="2.286434">
        <time>2022-07-10T09:22:38Z</time>
      </trkpt>
      <trkpt lat="41.87578" lon="2.28639">
        <time>2022-07-10T09:22:40Z</time>
      </trkpt>
      <trkpt lat="41.875732" lon="2.2863698">
        <time>2022-07-10T09:22:42Z</time>
      </trkpt>
      <trkpt lat="41.875683" lon="2.286362">
        <time>2022-07-10T09:22:44Z</time>
      </trkpt>
      <trkpt lat="41.875618" lon="2.2863538">
        <time>2022-07-10T09:22:47Z</time>
      </trkpt>
      <trkpt lat="41.87555" lon="2.2863343">
        <time>2022-07-10T09:22:50Z</time>
      </trkpt>
      <trkpt lat="41.875473" lon="2.2863317">
        <time>2022-07-10T09:22:53Z</time>
      </trkpt>
      <trkpt lat="41.87541" lon="2.2863548">
        <time>2022-07-10T09:22:56Z</time>
      </trkpt>
      <trkpt lat="41.875355" lon="2.286365">
        <time>2022-07-10T09:22:59Z</time>
      </trkpt>
      <trkpt lat="41.875305" lon="2.2863643">
        <time>2022-07-10T09:23:03Z</time>
      </trkpt>
      <trkpt lat="41.87532" lon="2.286354">
        <time>2022-07-10T09:23:29Z</time>
      </trkpt>
      <trkpt lat="41.875347" lon="2.2863748">
        <time>2022-07-10T09:23:40Z</time>
      </trkpt>
      <trkpt lat="41.875286" lon="2.2863634">
        <time>2022-07-10T09:23:50Z</time>
      </trkpt>
      <trkpt lat="41.875217" lon="2.2863607">
        <time>2022-07-10T09:23:54Z</time>
      </trkpt>
      <trkpt lat="41.875168" lon="2.286371">
        <time>2022-07-10T09:23:58Z</time>
      </trkpt>
      <trkpt lat="41.8751" lon="2.2863748">
        <time>2022-07-10T09:24:02Z</time>
      </trkpt>
      <trkpt lat="41.875042" lon="2.2863734">
        <time>2022-07-10T09:24:05Z</time>
      </trkpt>
      <trkpt lat="41.874973" lon="2.2863567">
        <time>2022-07-10T09:24:08Z</time>
      </trkpt>
      <trkpt lat="41.874924" lon="2.2863393">
        <time>2022-07-10T09:24:10Z</time>
      </trkpt>
      <trkpt lat="41.874866" lon="2.286328">
        <time>2022-07-10T09:24:12Z</time>
      </trkpt>
      <trkpt lat="41.87481" lon="2.2863262">
        <time>2022-07-10T09:24:14Z</time>
      </trkpt>
      <trkpt lat="41.874744" lon="2.2863421">
        <time>2022-07-10T09:24:17Z</time>
      </trkpt>
      <trkpt lat="41.87469" lon="2.2863667">
        <time>2022-07-10T09:24:20Z</time>
      </trkpt>
      <trkpt lat="41.87463" lon="2.28638">
        <time>2022-07-10T09:24:23Z</time>
      </trkpt>
      <trkpt lat="41.874557" lon="2.2863867">
        <time>2022-07-10T09:24:26Z</time>
      </trkpt>
      <trkpt lat="41.87448" lon="2.2863953">
        <time>2022-07-10T09:24:29Z</time>
      </trkpt>
      <trkpt lat="41.874405" lon="2.286392">
        <time>2022-07-10T09:24:32Z</time>
      </trkpt>
      <trkpt lat="41.874355" lon="2.2863934">
        <time>2022-07-10T09:24:34Z</time>
      </trkpt>
      <trkpt lat="41.874287" lon="2.2863777">
        <time>2022-07-10T09:24:37Z</time>
      </trkpt>
      <trkpt lat="41.874233" lon="2.2863643">
        <time>2022-07-10T09:24:40Z</time>
      </trkpt>
      <trkpt lat="41.874176" lon="2.2863622">
        <time>2022-07-10T09:24:43Z</time>
      </trkpt>
      <trkpt lat="41.87412" lon="2.2863774">
        <time>2022-07-10T09:24:46Z</time>
      </trkpt>
      <trkpt lat="41.874065" lon="2.2863941">
        <time>2022-07-10T09:24:49Z</time>
      </trkpt>
      <trkpt lat="41.874012" lon="2.2864087">
        <time>2022-07-10T09:24:52Z</time>
      </trkpt>
      <trkpt lat="41.873943" lon="2.2864258">
        <time>2022-07-10T09:24:56Z</time>
      </trkpt>
      <trkpt lat="41.873886" lon="2.2864296">
        <time>2022-07-10T09:24:59Z</time>
      </trkpt>
      <trkpt lat="41.873833" lon="2.2864404">
        <time>2022-07-10T09:25:02Z</time>
      </trkpt>
      <trkpt lat="41.87379" lon="2.2864404">
        <time>2022-07-10T09:25:06Z</time>
      </trkpt>
      <trkpt lat="41.873844" lon="2.286449">
        <time>2022-07-10T09:25:15Z</time>
      </trkpt>
      <trkpt lat="41.87387" lon="2.2864723">
        <time>2022-07-10T09:25:20Z</time>
      </trkpt>
      <trkpt lat="41.873917" lon="2.2864873">
        <time>2022-07-10T09:25:39Z</time>
      </trkpt>
      <trkpt lat="41.873966" lon="2.286492">
        <time>2022-07-10T09:25:42Z</time>
      </trkpt>
      <trkpt lat="41.87402" lon="2.2865016">
        <time>2022-07-10T09:25:48Z</time>
      </trkpt>
      <trkpt lat="41.874077" lon="2.2864888">
        <time>2022-07-10T09:25:52Z</time>
      </trkpt>
      <trkpt lat="41.874184" lon="2.286532">
        <time>2022-07-10T09:26:17Z</time>
      </trkpt>
      <trkpt lat="41.874252" lon="2.2865293">
        <time>2022-07-10T09:26:20Z</time>
      </trkpt>
      <trkpt lat="41.874317" lon="2.2865314">
        <time>2022-07-10T09:26:22Z</time>
      </trkpt>
      <trkpt lat="41.87439" lon="2.2865381">
        <time>2022-07-10T09:26:24Z</time>
      </trkpt>
      <trkpt lat="41.874454" lon="2.286549">
        <time>2022-07-10T09:26:26Z</time>
      </trkpt>
      <trkpt lat="41.874493" lon="2.286557">
        <time>2022-07-10T09:26:28Z</time>
      </trkpt>
      <trkpt lat="41.874535" lon="2.2866056">
        <time>2022-07-10T09:26:40Z</time>
      </trkpt>
      <trkpt lat="41.87473" lon="2.2862384">
        <time>2022-07-10T09:32:40Z</time>
      </trkpt>
      <trkpt lat="41.8748" lon="2.2864366">
        <time>2022-07-10T09:32:59Z</time>
      </trkpt>
      <trkpt lat="41.874866" lon="2.2864184">
        <time>2022-07-10T09:33:02Z</time>
      </trkpt>
      <trkpt lat="41.874924" lon="2.2864144">
        <time>2022-07-10T09:33:04Z</time>
      </trkpt>
      <trkpt lat="41.874985" lon="2.286436">
        <time>2022-07-10T09:33:06Z</time>
      </trkpt>
      <trkpt lat="41.87505" lon="2.2864742">
        <time>2022-07-10T09:33:08Z</time>
      </trkpt>
      <trkpt lat="41.875114" lon="2.286482">
        <time>2022-07-10T09:33:10Z</time>
      </trkpt>
      <trkpt lat="41.875175" lon="2.2864783">
        <time>2022-07-10T09:33:12Z</time>
      </trkpt>
      <trkpt lat="41.87523" lon="2.2864687">
        <time>2022-07-10T09:33:14Z</time>
      </trkpt>
      <trkpt lat="41.875282" lon="2.286443">
        <time>2022-07-10T09:33:17Z</time>
      </trkpt>
      <trkpt lat="41.87534" lon="2.2864194">
        <time>2022-07-10T09:33:20Z</time>
      </trkpt>
      <trkpt lat="41.875393" lon="2.2863991">
        <time>2022-07-10T09:33:23Z</time>
      </trkpt>
      <trkpt lat="41.875446" lon="2.2863796">
        <time>2022-07-10T09:33:26Z</time>
      </trkpt>
      <trkpt lat="41.8755" lon="2.2863708">
        <time>2022-07-10T09:33:29Z</time>
      </trkpt>
      <trkpt lat="41.87557" lon="2.2863777">
        <time>2022-07-10T09:33:32Z</time>
      </trkpt>
      <trkpt lat="41.875633" lon="2.2863843">
        <time>2022-07-10T09:33:35Z</time>
      </trkpt>
      <trkpt lat="41.875694" lon="2.2864046">
        <time>2022-07-10T09:33:38Z</time>
      </trkpt>
      <trkpt lat="41.87575" lon="2.286436">
        <time>2022-07-10T09:33:41Z</time>
      </trkpt>
      <trkpt lat="41.875824" lon="2.2864838">
        <time>2022-07-10T09:33:44Z</time>
      </trkpt>
      <trkpt lat="41.87587" lon="2.286517">
        <time>2022-07-10T09:33:46Z</time>
      </trkpt>
      <trkpt lat="41.875916" lon="2.286553">
        <time>2022-07-10T09:33:48Z</time>
      </trkpt>
      <trkpt lat="41.87596" lon="2.2866178">
        <time>2022-07-10T09:33:51Z</time>
      </trkpt>
      <trkpt lat="41.875988" lon="2.2866993">
        <time>2022-07-10T09:33:54Z</time>
      </trkpt>
      <trkpt lat="41.87601" lon="2.2867813">
        <time>2022-07-10T09:33:57Z</time>
      </trkpt>
      <trkpt lat="41.876022" lon="2.2868547">
        <time>2022-07-10T09:34:00Z</time>
      </trkpt>
      <trkpt lat="41.875977" lon="2.2867439">
        <time>2022-07-10T09:43:05Z</time>
      </trkpt>
      <trkpt lat="41.87597" lon="2.286658">
        <time>2022-07-10T09:43:09Z</time>
      </trkpt>
      <trkpt lat="41.87596" lon="2.2865963">
        <time>2022-07-10T09:43:12Z</time>
      </trkpt>
      <trkpt lat="41.875973" lon="2.286533">
        <time>2022-07-10T09:43:16Z</time>
      </trkpt>
      <trkpt lat="41.876" lon="2.2865317">
        <time>2022-07-10T09:43:24Z</time>
      </trkpt>
      <trkpt lat="41.876" lon="2.286609">
        <time>2022-07-10T09:43:29Z</time>
      </trkpt>
      <trkpt lat="41.876003" lon="2.2866733">
        <time>2022-07-10T09:43:33Z</time>
      </trkpt>
      <trkpt lat="41.876007" lon="2.2867484">
        <time>2022-07-10T09:43:37Z</time>
      </trkpt>
      <trkpt lat="41.87602" lon="2.2868233">
        <time>2022-07-10T09:43:41Z</time>
      </trkpt>
      <trkpt lat="41.87604" lon="2.2868814">
        <time>2022-07-10T09:43:46Z</time>
      </trkpt>
      <trkpt lat="41.876" lon="2.2868032">
        <time>2022-07-10T09:45:28Z</time>
      </trkpt>
      <trkpt lat="41.875988" lon="2.2867274">
        <time>2022-07-10T09:45:30Z</time>
      </trkpt>
      <trkpt lat="41.875957" lon="2.2866094">
        <time>2022-07-10T09:45:33Z</time>
      </trkpt>
      <trkpt lat="41.87593" lon="2.2865636">
        <time>2022-07-10T09:45:35Z</time>
      </trkpt>
      <trkpt lat="41.875874" lon="2.2865102">
        <time>2022-07-10T09:45:38Z</time>
      </trkpt>
      <trkpt lat="41.875828" lon="2.2864723">
        <time>2022-07-10T09:45:40Z</time>
      </trkpt>
      <trkpt lat="41.875774" lon="2.286436">
        <time>2022-07-10T09:45:42Z</time>
      </trkpt>
      <trkpt lat="41.875717" lon="2.2864106">
        <time>2022-07-10T09:45:44Z</time>
      </trkpt>
      <trkpt lat="41.87566" lon="2.2863925">
        <time>2022-07-10T09:45:46Z</time>
      </trkpt>
      <trkpt lat="41.875595" lon="2.286381">
        <time>2022-07-10T09:45:48Z</time>
      </trkpt>
      <trkpt lat="41.87553" lon="2.2863734">
        <time>2022-07-10T09:45:50Z</time>
      </trkpt>
      <trkpt lat="41.875465" lon="2.2863717">
        <time>2022-07-10T09:45:52Z</time>
      </trkpt>
      <trkpt lat="41.875404" lon="2.286375">
        <time>2022-07-10T09:45:54Z</time>
      </trkpt>
      <trkpt lat="41.87534" lon="2.2863834">
        <time>2022-07-10T09:45:56Z</time>
      </trkpt>
      <trkpt lat="41.875275" lon="2.2863903">
        <time>2022-07-10T09:45:58Z</time>
      </trkpt>
      <trkpt lat="41.875202" lon="2.2864008">
        <time>2022-07-10T09:46:00Z</time>
      </trkpt>
      <trkpt lat="41.875126" lon="2.286405">
        <time>2022-07-10T09:46:02Z</time>
      </trkpt>
      <trkpt lat="41.87505" lon="2.286397">
        <time>2022-07-10T09:46:04Z</time>
      </trkpt>
      <trkpt lat="41.874985" lon="2.2863834">
        <time>2022-07-10T09:46:06Z</time>
      </trkpt>
      <trkpt lat="41.87492" lon="2.2863917">
        <time>2022-07-10T09:46:08Z</time>
      </trkpt>
      <trkpt lat="41.87486" lon="2.2864144">
        <time>2022-07-10T09:46:10Z</time>
      </trkpt>
      <trkpt lat="41.8748" lon="2.2864287">
        <time>2022-07-10T09:46:12Z</time>
      </trkpt>
      <trkpt lat="41.874752" lon="2.2864363">
        <time>2022-07-10T09:46:14Z</time>
      </trkpt>
      <trkpt lat="41.874687" lon="2.286446">
        <time>2022-07-10T09:46:17Z</time>
      </trkpt>
      <trkpt lat="41.874622" lon="2.286453">
        <time>2022-07-10T09:46:20Z</time>
      </trkpt>
      <trkpt lat="41.874554" lon="2.2864642">
        <time>2022-07-10T09:46:23Z</time>
      </trkpt>
      <trkpt lat="41.874477" lon="2.28646">
        <time>2022-07-10T09:46:26Z</time>
      </trkpt>
      <trkpt lat="41.874424" lon="2.2864578">
        <time>2022-07-10T09:46:28Z</time>
      </trkpt>
      <trkpt lat="41.874355" lon="2.2864616">
        <time>2022-07-10T09:46:31Z</time>
      </trkpt>
      <trkpt lat="41.874306" lon="2.2864754">
        <time>2022-07-10T09:46:34Z</time>
      </trkpt>
      <trkpt lat="41.87427" lon="2.286486">
        <time>2022-07-10T09:46:40Z</time>
      </trkpt>
      <trkpt lat="41.87435" lon="2.286499">
        <time>2022-07-10T09:46:49Z</time>
      </trkpt>
      <trkpt lat="41.874428" lon="2.2865117">
        <time>2022-07-10T09:46:52Z</time>
      </trkpt>
      <trkpt lat="41.874485" lon="2.2865086">
        <time>2022-07-10T09:46:55Z</time>
      </trkpt>
      <trkpt lat="41.874653" lon="2.28637">
        <time>2022-07-10T09:48:54Z</time>
      </trkpt>
      <trkpt lat="41.87459" lon="2.2865303">
        <time>2022-07-10T09:49:12Z</time>
      </trkpt>
      <trkpt lat="41.874622" lon="2.2865295">
        <time>2022-07-10T09:49:23Z</time>
      </trkpt>
      <trkpt lat="41.874573" lon="2.2864933">
        <time>2022-07-10T09:49:31Z</time>
      </trkpt>
      <trkpt lat="41.87454" lon="2.2864976">
        <time>2022-07-10T09:49:56Z</time>
      </trkpt>
      <trkpt lat="41.874477" lon="2.2865126">
        <time>2022-07-10T09:50:03Z</time>
      </trkpt>
      <trkpt lat="41.874424" lon="2.2865052">
        <time>2022-07-10T09:50:07Z</time>
      </trkpt>
      <trkpt lat="41.87437" lon="2.2865107">
        <time>2022-07-10T09:50:11Z</time>
      </trkpt>
      <trkpt lat="41.87431" lon="2.286508">
        <time>2022-07-10T09:50:16Z</time>
      </trkpt>
      <trkpt lat="41.87424" lon="2.286513">
        <time>2022-07-10T09:50:21Z</time>
      </trkpt>
      <trkpt lat="41.874187" lon="2.2865202">
        <time>2022-07-10T09:50:25Z</time>
      </trkpt>
      <trkpt lat="41.87413" lon="2.28653">
        <time>2022-07-10T09:50:30Z</time>
      </trkpt>
      <trkpt lat="41.874073" lon="2.286527">
        <time>2022-07-10T09:50:35Z</time>
      </trkpt>
      <trkpt lat="41.87402" lon="2.2865136">
        <time>2022-07-10T09:50:39Z</time>
      </trkpt>
      <trkpt lat="41.873966" lon="2.286507">
        <time>2022-07-10T09:50:43Z</time>
      </trkpt>
      <trkpt lat="41.8739" lon="2.2865">
        <time>2022-07-10T09:50:47Z</time>
      </trkpt>
      <trkpt lat="41.873856" lon="2.2864957">
        <time>2022-07-10T09:50:50Z</time>
      </trkpt>
      <trkpt lat="41.87446" lon="2.2866282">
        <time>2022-07-10T09:52:05Z</time>
      </trkpt>
      <trkpt lat="41.873665" lon="2.286332">
        <time>2022-07-10T09:52:21Z</time>
      </trkpt>
      <trkpt lat="41.873585" lon="2.2862496">
        <time>2022-07-10T09:52:25Z</time>
      </trkpt>
      <trkpt lat="41.87354" lon="2.2861958">
        <time>2022-07-10T09:52:27Z</time>
      </trkpt>
      <trkpt lat="41.873497" lon="2.286148">
        <time>2022-07-10T09:52:29Z</time>
      </trkpt>
      <trkpt lat="41.873455" lon="2.2860997">
        <time>2022-07-10T09:52:31Z</time>
      </trkpt>
      <trkpt lat="41.8734" lon="2.2860706">
        <time>2022-07-10T09:52:33Z</time>
      </trkpt>
      <trkpt lat="41.873356" lon="2.2860446">
        <time>2022-07-10T09:52:35Z</time>
      </trkpt>
      <trkpt lat="41.873306" lon="2.2860081">
        <time>2022-07-10T09:52:37Z</time>
      </trkpt>
      <trkpt lat="41.87326" lon="2.28597">
        <time>2022-07-10T09:52:39Z</time>
      </trkpt>
      <trkpt lat="41.873226" lon="2.285932">
        <time>2022-07-10T09:52:41Z</time>
      </trkpt>
      <trkpt lat="41.87318" lon="2.2858596">
        <time>2022-07-10T09:52:45Z</time>
      </trkpt>
      <trkpt lat="41.873196" lon="2.2857976">
        <time>2022-07-10T09:52:48Z</time>
      </trkpt>
      <trkpt lat="41.873245" lon="2.2857583">
        <time>2022-07-10T09:52:51Z</time>
      </trkpt>
      <trkpt lat="41.8733" lon="2.2856994">
        <time>2022-07-10T09:52:54Z</time>
      </trkpt>
      <trkpt lat="41.873344" lon="2.2856736">
        <time>2022-07-10T09:52:56Z</time>
      </trkpt>
      <trkpt lat="41.873394" lon="2.2856615">
        <time>2022-07-10T09:52:58Z</time>
      </trkpt>
      <trkpt lat="41.87347" lon="2.2856565">
        <time>2022-07-10T09:53:01Z</time>
      </trkpt>
      <trkpt lat="41.873547" lon="2.2856498">
        <time>2022-07-10T09:53:04Z</time>
      </trkpt>
      <trkpt lat="41.873596" lon="2.2856488">
        <time>2022-07-10T09:53:06Z</time>
      </trkpt>
      <trkpt lat="41.873653" lon="2.2856493">
        <time>2022-07-10T09:53:08Z</time>
      </trkpt>
      <trkpt lat="41.873714" lon="2.2856507">
        <time>2022-07-10T09:53:10Z</time>
      </trkpt>
      <trkpt lat="41.87377" lon="2.285652">
        <time>2022-07-10T09:53:12Z</time>
      </trkpt>
      <trkpt lat="41.87384" lon="2.2856536">
        <time>2022-07-10T09:53:14Z</time>
      </trkpt>
      <trkpt lat="41.873905" lon="2.2856526">
        <time>2022-07-10T09:53:16Z</time>
      </trkpt>
      <trkpt lat="41.873966" lon="2.2856536">
        <time>2022-07-10T09:53:18Z</time>
      </trkpt>
      <trkpt lat="41.87403" lon="2.2856567">
        <time>2022-07-10T09:53:20Z</time>
      </trkpt>
      <trkpt lat="41.874096" lon="2.2856557">
        <time>2022-07-10T09:53:22Z</time>
      </trkpt>
      <trkpt lat="41.87416" lon="2.2856553">
        <time>2022-07-10T09:53:24Z</time>
      </trkpt>
      <trkpt lat="41.87422" lon="2.2856565">
        <time>2022-07-10T09:53:26Z</time>
      </trkpt>
      <trkpt lat="41.874287" lon="2.285655">
        <time>2022-07-10T09:53:28Z</time>
      </trkpt>
      <trkpt lat="41.874344" lon="2.2856565">
        <time>2022-07-10T09:53:30Z</time>
      </trkpt>
      <trkpt lat="41.8744" lon="2.2856567">
        <time>2022-07-10T09:53:32Z</time>
      </trkpt>
      <trkpt lat="41.874454" lon="2.2856548">
        <time>2022-07-10T09:53:34Z</time>
      </trkpt>
      <trkpt lat="41.874508" lon="2.2856543">
        <time>2022-07-10T09:53:36Z</time>
      </trkpt>
      <trkpt lat="41.874557" lon="2.2856543">
        <time>2022-07-10T09:53:38Z</time>
      </trkpt>
      <trkpt lat="41.874622" lon="2.285652">
        <time>2022-07-10T09:53:41Z</time>
      </trkpt>
      <trkpt lat="41.874687" lon="2.2856476">
        <time>2022-07-10T09:53:44Z</time>
      </trkpt>
      <trkpt lat="41.87475" lon="2.2856457">
        <time>2022-07-10T09:53:47Z</time>
      </trkpt>
      <trkpt lat="41.874805" lon="2.2856474">
        <time>2022-07-10T09:53:50Z</time>
      </trkpt>
      <trkpt lat="41.87485" lon="2.2856193">
        <time>2022-07-10T09:53:53Z</time>
      </trkpt>
      <trkpt lat="41.8749" lon="2.2855895">
        <time>2022-07-10T09:53:56Z</time>
      </trkpt>
      <trkpt lat="41.874958" lon="2.2855878">
        <time>2022-07-10T09:53:59Z</time>
      </trkpt>
      <trkpt lat="41.875004" lon="2.2856107">
        <time>2022-07-10T09:54:03Z</time>
      </trkpt>
      <trkpt lat="41.875057" lon="2.2856233">
        <time>2022-07-10T09:54:09Z</time>
      </trkpt>
      <trkpt lat="41.875046" lon="2.2857137">
        <time>2022-07-10T10:02:01Z</time>
      </trkpt>
      <trkpt lat="41.875027" lon="2.2856607">
        <time>2022-07-10T10:02:06Z</time>
      </trkpt>
      <trkpt lat="41.87513" lon="2.285727">
        <time>2022-07-10T10:02:34Z</time>
      </trkpt>
      <trkpt lat="41.875137" lon="2.2859118">
        <time>2022-07-10T10:04:22Z</time>
      </trkpt>
      <trkpt lat="41.874996" lon="2.2857738">
        <time>2022-07-10T10:09:25Z</time>
      </trkpt>
      <trkpt lat="41.87498" lon="2.2856824">
        <time>2022-07-10T10:09:29Z</time>
      </trkpt>
      <trkpt lat="41.87498" lon="2.2855916">
        <time>2022-07-10T10:09:32Z</time>
      </trkpt>
      <trkpt lat="41.87498" lon="2.2855167">
        <time>2022-07-10T10:09:34Z</time>
      </trkpt>
      <trkpt lat="41.87498" lon="2.2854342">
        <time>2022-07-10T10:09:36Z</time>
      </trkpt>
      <trkpt lat="41.874973" lon="2.285352">
        <time>2022-07-10T10:09:38Z</time>
      </trkpt>
      <trkpt lat="41.87497" lon="2.2852905">
        <time>2022-07-10T10:09:40Z</time>
      </trkpt>
      <trkpt lat="41.874943" lon="2.2852206">
        <time>2022-07-10T10:10:16Z</time>
      </trkpt>
      <trkpt lat="41.874916" lon="2.28528">
        <time>2022-07-10T10:10:22Z</time>
      </trkpt>
      <trkpt lat="41.874912" lon="2.2853813">
        <time>2022-07-10T10:10:26Z</time>
      </trkpt>
      <trkpt lat="41.874912" lon="2.2854726">
        <time>2022-07-10T10:10:29Z</time>
      </trkpt>
      <trkpt lat="41.87491" lon="2.2855687">
        <time>2022-07-10T10:10:32Z</time>
      </trkpt>
      <trkpt lat="41.8749" lon="2.2856317">
        <time>2022-07-10T10:10:34Z</time>
      </trkpt>
      <trkpt lat="41.874893" lon="2.285723">
        <time>2022-07-10T10:10:37Z</time>
      </trkpt>
      <trkpt lat="41.87491" lon="2.2858121">
        <time>2022-07-10T10:10:40Z</time>
      </trkpt>
      <trkpt lat="41.87493" lon="2.285892">
        <time>2022-07-10T10:10:43Z</time>
      </trkpt>
      <trkpt lat="41.87495" lon="2.2859757">
        <time>2022-07-10T10:10:46Z</time>
      </trkpt>
      <trkpt lat="41.874958" lon="2.2860706">
        <time>2022-07-10T10:10:49Z</time>
      </trkpt>
      <trkpt lat="41.874966" lon="2.286135">
        <time>2022-07-10T10:10:51Z</time>
      </trkpt>
      <trkpt lat="41.874977" lon="2.286223">
        <time>2022-07-10T10:10:54Z</time>
      </trkpt>
      <trkpt lat="41.875004" lon="2.286299">
        <time>2022-07-10T10:10:57Z</time>
      </trkpt>
      <trkpt lat="41.875042" lon="2.2863643">
        <time>2022-07-10T10:11:00Z</time>
      </trkpt>
      <trkpt lat="41.875084" lon="2.2864146">
        <time>2022-07-10T10:11:03Z</time>
      </trkpt>
      <trkpt lat="41.87514" lon="2.2864337">
        <time>2022-07-10T10:11:06Z</time>
      </trkpt>
      <trkpt lat="41.875206" lon="2.2864273">
        <time>2022-07-10T10:11:09Z</time>
      </trkpt>
      <trkpt lat="41.875282" lon="2.286417">
        <time>2022-07-10T10:11:12Z</time>
      </trkpt>
      <trkpt lat="41.87533" lon="2.2864103">
        <time>2022-07-10T10:11:14Z</time>
      </trkpt>
      <trkpt lat="41.87541" lon="2.286411">
        <time>2022-07-10T10:11:17Z</time>
      </trkpt>
      <trkpt lat="41.87546" lon="2.28641">
        <time>2022-07-10T10:11:19Z</time>
      </trkpt>
      <trkpt lat="41.875515" lon="2.2864077">
        <time>2022-07-10T10:11:21Z</time>
      </trkpt>
      <trkpt lat="41.875572" lon="2.28641">
        <time>2022-07-10T10:11:23Z</time>
      </trkpt>
      <trkpt lat="41.875626" lon="2.2864187">
        <time>2022-07-10T10:11:25Z</time>
      </trkpt>
      <trkpt lat="41.87568" lon="2.286438">
        <time>2022-07-10T10:11:27Z</time>
      </trkpt>
      <trkpt lat="41.875725" lon="2.2864566">
        <time>2022-07-10T10:11:29Z</time>
      </trkpt>
      <trkpt lat="41.875774" lon="2.286474">
        <time>2022-07-10T10:11:31Z</time>
      </trkpt>
      <trkpt lat="41.87584" lon="2.2864964">
        <time>2022-07-10T10:11:34Z</time>
      </trkpt>
      <trkpt lat="41.87591" lon="2.2865345">
        <time>2022-07-10T10:11:37Z</time>
      </trkpt>
      <trkpt lat="41.87596" lon="2.2865696">
        <time>2022-07-10T10:11:39Z</time>
      </trkpt>
      <trkpt lat="41.87601" lon="2.2866066">
        <time>2022-07-10T10:11:41Z</time>
      </trkpt>
      <trkpt lat="41.876064" lon="2.2866437">
        <time>2022-07-10T10:11:43Z</time>
      </trkpt>
      <trkpt lat="41.876118" lon="2.2866757">
        <time>2022-07-10T10:11:45Z</time>
      </trkpt>
      <trkpt lat="41.87617" lon="2.2867074">
        <time>2022-07-10T10:11:47Z</time>
      </trkpt>
      <trkpt lat="41.876213" lon="2.286743">
        <time>2022-07-10T10:11:49Z</time>
      </trkpt>
      <trkpt lat="41.876225" lon="2.2867932">
        <time>2022-07-10T10:11:52Z</time>
      </trkpt>
      <trkpt lat="41.87622" lon="2.2868907">
        <time>2022-07-10T10:11:56Z</time>
      </trkpt>
      <trkpt lat="41.87623" lon="2.2869797">
        <time>2022-07-10T10:11:59Z</time>
      </trkpt>
      <trkpt lat="41.876236" lon="2.287068">
        <time>2022-07-10T10:12:02Z</time>
      </trkpt>
      <trkpt lat="41.876247" lon="2.2871757">
        <time>2022-07-10T10:12:05Z</time>
      </trkpt>
      <trkpt lat="41.876263" lon="2.2872593">
        <time>2022-07-10T10:12:07Z</time>
      </trkpt>
      <trkpt lat="41.876278" lon="2.2873366">
        <time>2022-07-10T10:12:09Z</time>
      </trkpt>
      <trkpt lat="41.876297" lon="2.2874093">
        <time>2022-07-10T10:12:11Z</time>
      </trkpt>
      <trkpt lat="41.876312" lon="2.2874799">
        <time>2022-07-10T10:12:13Z</time>
      </trkpt>
      <trkpt lat="41.876335" lon="2.2875657">
        <time>2022-07-10T10:12:15Z</time>
      </trkpt>
      <trkpt lat="41.876358" lon="2.2876549">
        <time>2022-07-10T10:12:17Z</time>
      </trkpt>
      <trkpt lat="41.87638" lon="2.2877467">
        <time>2022-07-10T10:12:19Z</time>
      </trkpt>
      <trkpt lat="41.8764" lon="2.2878387">
        <time>2022-07-10T10:12:21Z</time>
      </trkpt>
      <trkpt lat="41.876415" lon="2.287925">
        <time>2022-07-10T10:12:23Z</time>
      </trkpt>
      <trkpt lat="41.87641" lon="2.2880046">
        <time>2022-07-10T10:12:25Z</time>
      </trkpt>
      <trkpt lat="41.876385" lon="2.2880702">
        <time>2022-07-10T10:12:27Z</time>
      </trkpt>
      <trkpt lat="41.876347" lon="2.2881165">
        <time>2022-07-10T10:12:29Z</time>
      </trkpt>
      <trkpt lat="41.876297" lon="2.288147">
        <time>2022-07-10T10:12:31Z</time>
      </trkpt>
      <trkpt lat="41.87624" lon="2.2881753">
        <time>2022-07-10T10:12:34Z</time>
      </trkpt>
      <trkpt lat="41.876198" lon="2.2882185">
        <time>2022-07-10T10:12:37Z</time>
      </trkpt>
      <trkpt lat="41.8762" lon="2.2882972">
        <time>2022-07-10T10:12:40Z</time>
      </trkpt>
      <trkpt lat="41.876244" lon="2.2883558">
        <time>2022-07-10T10:12:42Z</time>
      </trkpt>
      <trkpt lat="41.87631" lon="2.2884068">
        <time>2022-07-10T10:12:44Z</time>
      </trkpt>
      <trkpt lat="41.876377" lon="2.2884512">
        <time>2022-07-10T10:12:46Z</time>
      </trkpt>
      <trkpt lat="41.876457" lon="2.2884803">
        <time>2022-07-10T10:12:48Z</time>
      </trkpt>
      <trkpt lat="41.876545" lon="2.2884853">
        <time>2022-07-10T10:12:50Z</time>
      </trkpt>
      <trkpt lat="41.87663" lon="2.2884772">
        <time>2022-07-10T10:12:52Z</time>
      </trkpt>
      <trkpt lat="41.876698" lon="2.288461">
        <time>2022-07-10T10:12:54Z</time>
      </trkpt>
      <trkpt lat="41.876736" lon="2.2884483">
        <time>2022-07-10T10:12:56Z</time>
      </trkpt>
      <trkpt lat="41.87683" lon="2.2885308">
        <time>2022-07-10T10:13:13Z</time>
      </trkpt>
      <trkpt lat="41.87685" lon="2.2886212">
        <time>2022-07-10T10:13:15Z</time>
      </trkpt>
      <trkpt lat="41.876877" lon="2.2887459">
        <time>2022-07-10T10:13:17Z</time>
      </trkpt>
      <trkpt lat="41.8769" lon="2.2888176">
        <time>2022-07-10T10:13:18Z</time>
      </trkpt>
      <trkpt lat="41.876934" lon="2.2888925">
        <time>2022-07-10T10:13:19Z</time>
      </trkpt>
      <trkpt lat="41.876972" lon="2.2889664">
        <time>2022-07-10T10:13:20Z</time>
      </trkpt>
      <trkpt lat="41.87702" lon="2.2890368">
        <time>2022-07-10T10:13:21Z</time>
      </trkpt>
      <trkpt lat="41.87707" lon="2.2890995">
        <time>2022-07-10T10:13:22Z</time>
      </trkpt>
      <trkpt lat="41.877132" lon="2.2891653">
        <time>2022-07-10T10:13:23Z</time>
      </trkpt>
      <trkpt lat="41.877186" lon="2.289225">
        <time>2022-07-10T10:13:24Z</time>
      </trkpt>
      <trkpt lat="41.877243" lon="2.2892842">
        <time>2022-07-10T10:13:25Z</time>
      </trkpt>
      <trkpt lat="41.877296" lon="2.2893422">
        <time>2022-07-10T10:13:26Z</time>
      </trkpt>
      <trkpt lat="41.877346" lon="2.2893982">
        <time>2022-07-10T10:13:27Z</time>
      </trkpt>
      <trkpt lat="41.877388" lon="2.2894495">
        <time>2022-07-10T10:13:28Z</time>
      </trkpt>
      <trkpt lat="41.877434" lon="2.2895005">
        <time>2022-07-10T10:13:29Z</time>
      </trkpt>
      <trkpt lat="41.877476" lon="2.2895465">
        <time>2022-07-10T10:13:30Z</time>
      </trkpt>
      <trkpt lat="41.87755" lon="2.2896245">
        <time>2022-07-10T10:13:32Z</time>
      </trkpt>
      <trkpt lat="41.87761" lon="2.2896945">
        <time>2022-07-10T10:13:34Z</time>
      </trkpt>
      <trkpt lat="41.87764" lon="2.2897708">
        <time>2022-07-10T10:13:36Z</time>
      </trkpt>
      <trkpt lat="41.877636" lon="2.289846">
        <time>2022-07-10T10:13:38Z</time>
      </trkpt>
      <trkpt lat="41.877613" lon="2.2899306">
        <time>2022-07-10T10:13:40Z</time>
      </trkpt>
      <trkpt lat="41.87759" lon="2.2900138">
        <time>2022-07-10T10:13:42Z</time>
      </trkpt>
      <trkpt lat="41.877563" lon="2.2900956">
        <time>2022-07-10T10:13:44Z</time>
      </trkpt>
      <trkpt lat="41.87754" lon="2.2901795">
        <time>2022-07-10T10:13:46Z</time>
      </trkpt>
      <trkpt lat="41.87751" lon="2.2902548">
        <time>2022-07-10T10:13:48Z</time>
      </trkpt>
      <trkpt lat="41.87748" lon="2.2903266">
        <time>2022-07-10T10:13:50Z</time>
      </trkpt>
      <trkpt lat="41.87745" lon="2.2903912">
        <time>2022-07-10T10:13:52Z</time>
      </trkpt>
      <trkpt lat="41.87743" lon="2.290441">
        <time>2022-07-10T10:13:54Z</time>
      </trkpt>
      <trkpt lat="41.87741" lon="2.2904904">
        <time>2022-07-10T10:14:00Z</time>
      </trkpt>
      <trkpt lat="41.877403" lon="2.2906234">
        <time>2022-07-10T10:14:51Z</time>
      </trkpt>
      <trkpt lat="41.87736" lon="2.2907135">
        <time>2022-07-10T10:14:54Z</time>
      </trkpt>
      <trkpt lat="41.877335" lon="2.2907784">
        <time>2022-07-10T10:14:56Z</time>
      </trkpt>
      <trkpt lat="41.877308" lon="2.290837">
        <time>2022-07-10T10:14:58Z</time>
      </trkpt>
      <trkpt lat="41.87728" lon="2.2908947">
        <time>2022-07-10T10:15:00Z</time>
      </trkpt>
      <trkpt lat="41.877247" lon="2.2909832">
        <time>2022-07-10T10:15:03Z</time>
      </trkpt>
      <trkpt lat="41.877216" lon="2.2910461">
        <time>2022-07-10T10:15:05Z</time>
      </trkpt>
      <trkpt lat="41.87719" lon="2.291105">
        <time>2022-07-10T10:15:07Z</time>
      </trkpt>
      <trkpt lat="41.877163" lon="2.2911637">
        <time>2022-07-10T10:15:09Z</time>
      </trkpt>
      <trkpt lat="41.87713" lon="2.2912445">
        <time>2022-07-10T10:15:12Z</time>
      </trkpt>
      <trkpt lat="41.877094" lon="2.291325">
        <time>2022-07-10T10:15:15Z</time>
      </trkpt>
      <trkpt lat="41.877068" lon="2.2913792">
        <time>2022-07-10T10:15:17Z</time>
      </trkpt>
      <trkpt lat="41.877018" lon="2.2914417">
        <time>2022-07-10T10:15:20Z</time>
      </trkpt>
      <trkpt lat="41.87698" lon="2.291479">
        <time>2022-07-10T10:15:22Z</time>
      </trkpt>
      <trkpt lat="41.87694" lon="2.2915385">
        <time>2022-07-10T10:15:25Z</time>
      </trkpt>
      <trkpt lat="41.876934" lon="2.2916">
        <time>2022-07-10T10:15:28Z</time>
      </trkpt>
      <trkpt lat="41.87698" lon="2.291667">
        <time>2022-07-10T10:15:32Z</time>
      </trkpt>
      <trkpt lat="41.877026" lon="2.2917109">
        <time>2022-07-10T10:15:35Z</time>
      </trkpt>
      <trkpt lat="41.877075" lon="2.291757">
        <time>2022-07-10T10:15:38Z</time>
      </trkpt>
      <trkpt lat="41.877136" lon="2.291799">
        <time>2022-07-10T10:15:41Z</time>
      </trkpt>
      <trkpt lat="41.87719" lon="2.2918518">
        <time>2022-07-10T10:15:44Z</time>
      </trkpt>
      <trkpt lat="41.877235" lon="2.2919133">
        <time>2022-07-10T10:15:47Z</time>
      </trkpt>
      <trkpt lat="41.87726" lon="2.2919893">
        <time>2022-07-10T10:15:50Z</time>
      </trkpt>
      <trkpt lat="41.877247" lon="2.292071">
        <time>2022-07-10T10:15:53Z</time>
      </trkpt>
      <trkpt lat="41.877216" lon="2.292144">
        <time>2022-07-10T10:15:56Z</time>
      </trkpt>
      <trkpt lat="41.87718" lon="2.2922204">
        <time>2022-07-10T10:15:59Z</time>
      </trkpt>
      <trkpt lat="41.87714" lon="2.29229">
        <time>2022-07-10T10:16:02Z</time>
      </trkpt>
      <trkpt lat="41.8771" lon="2.2923646">
        <time>2022-07-10T10:16:05Z</time>
      </trkpt>
      <trkpt lat="41.87706" lon="2.2924387">
        <time>2022-07-10T10:16:08Z</time>
      </trkpt>
      <trkpt lat="41.87702" lon="2.2925115">
        <time>2022-07-10T10:16:11Z</time>
      </trkpt>
      <trkpt lat="41.87698" lon="2.2925856">
        <time>2022-07-10T10:16:14Z</time>
      </trkpt>
      <trkpt lat="41.87694" lon="2.292655">
        <time>2022-07-10T10:16:17Z</time>
      </trkpt>
      <trkpt lat="41.8769" lon="2.292728">
        <time>2022-07-10T10:16:20Z</time>
      </trkpt>
      <trkpt lat="41.87686" lon="2.2928016">
        <time>2022-07-10T10:16:23Z</time>
      </trkpt>
      <trkpt lat="41.876816" lon="2.2928793">
        <time>2022-07-10T10:16:26Z</time>
      </trkpt>
      <trkpt lat="41.876778" lon="2.2929578">
        <time>2022-07-10T10:16:29Z</time>
      </trkpt>
      <trkpt lat="41.876736" lon="2.293033">
        <time>2022-07-10T10:16:32Z</time>
      </trkpt>
      <trkpt lat="41.87671" lon="2.293084">
        <time>2022-07-10T10:16:34Z</time>
      </trkpt>
      <trkpt lat="41.876667" lon="2.293161">
        <time>2022-07-10T10:16:37Z</time>
      </trkpt>
      <trkpt lat="41.87664" lon="2.293212">
        <time>2022-07-10T10:16:39Z</time>
      </trkpt>
      <trkpt lat="41.8766" lon="2.2932873">
        <time>2022-07-10T10:16:42Z</time>
      </trkpt>
      <trkpt lat="41.87656" lon="2.2933602">
        <time>2022-07-10T10:16:45Z</time>
      </trkpt>
      <trkpt lat="41.876514" lon="2.2934334">
        <time>2022-07-10T10:16:48Z</time>
      </trkpt>
      <trkpt lat="41.87646" lon="2.293513">
        <time>2022-07-10T10:16:51Z</time>
      </trkpt>
      <trkpt lat="41.87642" lon="2.2935667">
        <time>2022-07-10T10:16:53Z</time>
      </trkpt>
      <trkpt lat="41.876373" lon="2.2936237">
        <time>2022-07-10T10:16:55Z</time>
      </trkpt>
      <trkpt lat="41.876324" lon="2.293682">
        <time>2022-07-10T10:16:57Z</time>
      </trkpt>
      <trkpt lat="41.876266" lon="2.2937407">
        <time>2022-07-10T10:16:59Z</time>
      </trkpt>
      <trkpt lat="41.876213" lon="2.293798">
        <time>2022-07-10T10:17:01Z</time>
      </trkpt>
      <trkpt lat="41.876152" lon="2.293855">
        <time>2022-07-10T10:17:03Z</time>
      </trkpt>
      <trkpt lat="41.876095" lon="2.293911">
        <time>2022-07-10T10:17:05Z</time>
      </trkpt>
      <trkpt lat="41.876034" lon="2.293969">
        <time>2022-07-10T10:17:07Z</time>
      </trkpt>
      <trkpt lat="41.875973" lon="2.2940319">
        <time>2022-07-10T10:17:09Z</time>
      </trkpt>
      <trkpt lat="41.87591" lon="2.2941003">
        <time>2022-07-10T10:17:11Z</time>
      </trkpt>
      <trkpt lat="41.875854" lon="2.2941706">
        <time>2022-07-10T10:17:13Z</time>
      </trkpt>
      <trkpt lat="41.875805" lon="2.2942376">
        <time>2022-07-10T10:17:15Z</time>
      </trkpt>
      <trkpt lat="41.875748" lon="2.2943087">
        <time>2022-07-10T10:17:17Z</time>
      </trkpt>
      <trkpt lat="41.87569" lon="2.2943807">
        <time>2022-07-10T10:17:19Z</time>
      </trkpt>
      <trkpt lat="41.87564" lon="2.2944472">
        <time>2022-07-10T10:17:21Z</time>
      </trkpt>
      <trkpt lat="41.875584" lon="2.2945182">
        <time>2022-07-10T10:17:23Z</time>
      </trkpt>
      <trkpt lat="41.87553" lon="2.2945845">
        <time>2022-07-10T10:17:25Z</time>
      </trkpt>
      <trkpt lat="41.875477" lon="2.2946494">
        <time>2022-07-10T10:17:27Z</time>
      </trkpt>
      <trkpt lat="41.875423" lon="2.2947173">
        <time>2022-07-10T10:17:29Z</time>
      </trkpt>
      <trkpt lat="41.875374" lon="2.2947838">
        <time>2022-07-10T10:17:31Z</time>
      </trkpt>
      <trkpt lat="41.875328" lon="2.294849">
        <time>2022-07-10T10:17:33Z</time>
      </trkpt>
      <trkpt lat="41.875282" lon="2.2949119">
        <time>2022-07-10T10:17:35Z</time>
      </trkpt>
      <trkpt lat="41.87524" lon="2.2949743">
        <time>2022-07-10T10:17:37Z</time>
      </trkpt>
      <trkpt lat="41.875195" lon="2.2950358">
        <time>2022-07-10T10:17:39Z</time>
      </trkpt>
      <trkpt lat="41.875153" lon="2.295099">
        <time>2022-07-10T10:17:41Z</time>
      </trkpt>
      <trkpt lat="41.875114" lon="2.2951655">
        <time>2022-07-10T10:17:43Z</time>
      </trkpt>
      <trkpt lat="41.875084" lon="2.2952302">
        <time>2022-07-10T10:17:45Z</time>
      </trkpt>
      <trkpt lat="41.875057" lon="2.295295">
        <time>2022-07-10T10:17:47Z</time>
      </trkpt>
      <trkpt lat="41.875034" lon="2.2953632">
        <time>2022-07-10T10:17:49Z</time>
      </trkpt>
      <trkpt lat="41.875015" lon="2.2954278">
        <time>2022-07-10T10:17:51Z</time>
      </trkpt>
      <trkpt lat="41.874992" lon="2.2954931">
        <time>2022-07-10T10:17:53Z</time>
      </trkpt>
      <trkpt lat="41.874966" lon="2.2955558">
        <time>2022-07-10T10:17:55Z</time>
      </trkpt>
      <trkpt lat="41.874943" lon="2.2956178">
        <time>2022-07-10T10:17:57Z</time>
      </trkpt>
      <trkpt lat="41.874912" lon="2.2957082">
        <time>2022-07-10T10:18:00Z</time>
      </trkpt>
      <trkpt lat="41.87489" lon="2.2957935">
        <time>2022-07-10T10:18:03Z</time>
      </trkpt>
      <trkpt lat="41.87487" lon="2.295884">
        <time>2022-07-10T10:18:06Z</time>
      </trkpt>
      <trkpt lat="41.874847" lon="2.2959704">
        <time>2022-07-10T10:18:09Z</time>
      </trkpt>
      <trkpt lat="41.874825" lon="2.2960553">
        <time>2022-07-10T10:18:12Z</time>
      </trkpt>
      <trkpt lat="41.8748" lon="2.2961433">
        <time>2022-07-10T10:18:15Z</time>
      </trkpt>
      <trkpt lat="41.87478" lon="2.296224">
        <time>2022-07-10T10:18:18Z</time>
      </trkpt>
      <trkpt lat="41.874756" lon="2.296306">
        <time>2022-07-10T10:18:21Z</time>
      </trkpt>
      <trkpt lat="41.87472" lon="2.296378">
        <time>2022-07-10T10:18:24Z</time>
      </trkpt>
      <trkpt lat="41.874695" lon="2.2964494">
        <time>2022-07-10T10:18:27Z</time>
      </trkpt>
      <trkpt lat="41.874672" lon="2.2965226">
        <time>2022-07-10T10:18:30Z</time>
      </trkpt>
      <trkpt lat="41.874653" lon="2.2965968">
        <time>2022-07-10T10:18:33Z</time>
      </trkpt>
      <trkpt lat="41.87463" lon="2.2966745">
        <time>2022-07-10T10:18:36Z</time>
      </trkpt>
      <trkpt lat="41.874607" lon="2.296753">
        <time>2022-07-10T10:18:39Z</time>
      </trkpt>
      <trkpt lat="41.874584" lon="2.2968283">
        <time>2022-07-10T10:18:42Z</time>
      </trkpt>
      <trkpt lat="41.874557" lon="2.2969072">
        <time>2022-07-10T10:18:45Z</time>
      </trkpt>
      <trkpt lat="41.874535" lon="2.296981">
        <time>2022-07-10T10:18:48Z</time>
      </trkpt>
      <trkpt lat="41.874516" lon="2.2970574">
        <time>2022-07-10T10:18:51Z</time>
      </trkpt>
      <trkpt lat="41.874493" lon="2.2971344">
        <time>2022-07-10T10:18:54Z</time>
      </trkpt>
      <trkpt lat="41.874454" lon="2.297229">
        <time>2022-07-10T10:18:58Z</time>
      </trkpt>
      <trkpt lat="41.874428" lon="2.2973018">
        <time>2022-07-10T10:19:01Z</time>
      </trkpt>
      <trkpt lat="41.874397" lon="2.297372">
        <time>2022-07-10T10:19:04Z</time>
      </trkpt>
      <trkpt lat="41.874355" lon="2.2974362">
        <time>2022-07-10T10:19:07Z</time>
      </trkpt>
      <trkpt lat="41.874302" lon="2.2974906">
        <time>2022-07-10T10:19:10Z</time>
      </trkpt>
      <trkpt lat="41.874245" lon="2.297527">
        <time>2022-07-10T10:19:13Z</time>
      </trkpt>
      <trkpt lat="41.874184" lon="2.2975502">
        <time>2022-07-10T10:19:16Z</time>
      </trkpt>
      <trkpt lat="41.874123" lon="2.2975686">
        <time>2022-07-10T10:19:19Z</time>
      </trkpt>
      <trkpt lat="41.874065" lon="2.2975786">
        <time>2022-07-10T10:19:22Z</time>
      </trkpt>
      <trkpt lat="41.874004" lon="2.2975807">
        <time>2022-07-10T10:19:25Z</time>
      </trkpt>
      <trkpt lat="41.873943" lon="2.2975898">
        <time>2022-07-10T10:19:28Z</time>
      </trkpt>
      <trkpt lat="41.87388" lon="2.2976122">
        <time>2022-07-10T10:19:31Z</time>
      </trkpt>
      <trkpt lat="41.87382" lon="2.2976518">
        <time>2022-07-10T10:19:34Z</time>
      </trkpt>
      <trkpt lat="41.873764" lon="2.297701">
        <time>2022-07-10T10:19:37Z</time>
      </trkpt>
      <trkpt lat="41.873714" lon="2.2977548">
        <time>2022-07-10T10:19:40Z</time>
      </trkpt>
      <trkpt lat="41.87367" lon="2.2978148">
        <time>2022-07-10T10:19:43Z</time>
      </trkpt>
      <trkpt lat="41.873623" lon="2.2978764">
        <time>2022-07-10T10:19:46Z</time>
      </trkpt>
      <trkpt lat="41.87358" lon="2.2979434">
        <time>2022-07-10T10:19:49Z</time>
      </trkpt>
      <trkpt lat="41.873543" lon="2.2980075">
        <time>2022-07-10T10:19:52Z</time>
      </trkpt>
      <trkpt lat="41.873505" lon="2.2980738">
        <time>2022-07-10T10:19:55Z</time>
      </trkpt>
      <trkpt lat="41.873455" lon="2.2981348">
        <time>2022-07-10T10:19:58Z</time>
      </trkpt>
      <trkpt lat="41.873405" lon="2.2981935">
        <time>2022-07-10T10:20:01Z</time>
      </trkpt>
      <trkpt lat="41.87336" lon="2.298252">
        <time>2022-07-10T10:20:04Z</time>
      </trkpt>
      <trkpt lat="41.873318" lon="2.2983143">
        <time>2022-07-10T10:20:07Z</time>
      </trkpt>
      <trkpt lat="41.87328" lon="2.298378">
        <time>2022-07-10T10:20:10Z</time>
      </trkpt>
      <trkpt lat="41.87324" lon="2.2984412">
        <time>2022-07-10T10:20:13Z</time>
      </trkpt>
      <trkpt lat="41.8732" lon="2.2985086">
        <time>2022-07-10T10:20:16Z</time>
      </trkpt>
      <trkpt lat="41.873158" lon="2.2985768">
        <time>2022-07-10T10:20:19Z</time>
      </trkpt>
      <trkpt lat="41.873123" lon="2.2986434">
        <time>2022-07-10T10:20:22Z</time>
      </trkpt>
      <trkpt lat="41.873085" lon="2.2987137">
        <time>2022-07-10T10:20:25Z</time>
      </trkpt>
      <trkpt lat="41.873055" lon="2.2987905">
        <time>2022-07-10T10:20:28Z</time>
      </trkpt>
      <trkpt lat="41.87302" lon="2.2988753">
        <time>2022-07-10T10:20:31Z</time>
      </trkpt>
      <trkpt lat="41.872993" lon="2.2989347">
        <time>2022-07-10T10:20:33Z</time>
      </trkpt>
      <trkpt lat="41.87297" lon="2.2989893">
        <time>2022-07-10T10:20:35Z</time>
      </trkpt>
      <trkpt lat="41.872932" lon="2.2990735">
        <time>2022-07-10T10:20:38Z</time>
      </trkpt>
      <trkpt lat="41.87291" lon="2.2991316">
        <time>2022-07-10T10:20:40Z</time>
      </trkpt>
      <trkpt lat="41.872875" lon="2.2992244">
        <time>2022-07-10T10:20:43Z</time>
      </trkpt>
      <trkpt lat="41.87286" lon="2.29929">
        <time>2022-07-10T10:20:45Z</time>
      </trkpt>
      <trkpt lat="41.872845" lon="2.2993536">
        <time>2022-07-10T10:20:47Z</time>
      </trkpt>
      <trkpt lat="41.872818" lon="2.299445">
        <time>2022-07-10T10:20:50Z</time>
      </trkpt>
      <trkpt lat="41.87279" lon="2.299525">
        <time>2022-07-10T10:20:53Z</time>
      </trkpt>
      <trkpt lat="41.872772" lon="2.2995977">
        <time>2022-07-10T10:20:55Z</time>
      </trkpt>
      <trkpt lat="41.872753" lon="2.299668">
        <time>2022-07-10T10:20:57Z</time>
      </trkpt>
      <trkpt lat="41.872738" lon="2.2997394">
        <time>2022-07-10T10:20:59Z</time>
      </trkpt>
      <trkpt lat="41.872726" lon="2.2998123">
        <time>2022-07-10T10:21:01Z</time>
      </trkpt>
      <trkpt lat="41.872723" lon="2.2998865">
        <time>2022-07-10T10:21:03Z</time>
      </trkpt>
      <trkpt lat="41.87272" lon="2.2999606">
        <time>2022-07-10T10:21:05Z</time>
      </trkpt>
      <trkpt lat="41.87272" lon="2.300034">
        <time>2022-07-10T10:21:07Z</time>
      </trkpt>
      <trkpt lat="41.87272" lon="2.3001072">
        <time>2022-07-10T10:21:09Z</time>
      </trkpt>
      <trkpt lat="41.872723" lon="2.30018">
        <time>2022-07-10T10:21:11Z</time>
      </trkpt>
      <trkpt lat="41.87273" lon="2.3002534">
        <time>2022-07-10T10:21:13Z</time>
      </trkpt>
      <trkpt lat="41.87274" lon="2.300327">
        <time>2022-07-10T10:21:15Z</time>
      </trkpt>
      <trkpt lat="41.872753" lon="2.3003967">
        <time>2022-07-10T10:21:17Z</time>
      </trkpt>
      <trkpt lat="41.872772" lon="2.300466">
        <time>2022-07-10T10:21:19Z</time>
      </trkpt>
      <trkpt lat="41.87279" lon="2.3005352">
        <time>2022-07-10T10:21:21Z</time>
      </trkpt>
      <trkpt lat="41.872814" lon="2.3006036">
        <time>2022-07-10T10:21:23Z</time>
      </trkpt>
      <trkpt lat="41.872837" lon="2.300675">
        <time>2022-07-10T10:21:25Z</time>
      </trkpt>
      <trkpt lat="41.87286" lon="2.3007476">
        <time>2022-07-10T10:21:27Z</time>
      </trkpt>
      <trkpt lat="41.872883" lon="2.3008165">
        <time>2022-07-10T10:21:29Z</time>
      </trkpt>
      <trkpt lat="41.872906" lon="2.3008869">
        <time>2022-07-10T10:21:31Z</time>
      </trkpt>
      <trkpt lat="41.87293" lon="2.3009577">
        <time>2022-07-10T10:21:33Z</time>
      </trkpt>
      <trkpt lat="41.87295" lon="2.3010292">
        <time>2022-07-10T10:21:35Z</time>
      </trkpt>
      <trkpt lat="41.87297" lon="2.3010986">
        <time>2022-07-10T10:21:37Z</time>
      </trkpt>
      <trkpt lat="41.87299" lon="2.3011663">
        <time>2022-07-10T10:21:39Z</time>
      </trkpt>
      <trkpt lat="41.873013" lon="2.3012316">
        <time>2022-07-10T10:21:41Z</time>
      </trkpt>
      <trkpt lat="41.873035" lon="2.3013256">
        <time>2022-07-10T10:21:44Z</time>
      </trkpt>
      <trkpt lat="41.873055" lon="2.3014174">
        <time>2022-07-10T10:21:47Z</time>
      </trkpt>
      <trkpt lat="41.873066" lon="2.3015032">
        <time>2022-07-10T10:21:50Z</time>
      </trkpt>
      <trkpt lat="41.873066" lon="2.301584">
        <time>2022-07-10T10:21:53Z</time>
      </trkpt>
      <trkpt lat="41.87306" lon="2.3016644">
        <time>2022-07-10T10:21:56Z</time>
      </trkpt>
      <trkpt lat="41.873047" lon="2.3017433">
        <time>2022-07-10T10:21:59Z</time>
      </trkpt>
      <trkpt lat="41.87303" lon="2.3018236">
        <time>2022-07-10T10:22:02Z</time>
      </trkpt>
      <trkpt lat="41.87301" lon="2.3019025">
        <time>2022-07-10T10:22:05Z</time>
      </trkpt>
      <trkpt lat="41.872982" lon="2.3019838">
        <time>2022-07-10T10:22:08Z</time>
      </trkpt>
      <trkpt lat="41.87296" lon="2.302058">
        <time>2022-07-10T10:22:11Z</time>
      </trkpt>
      <trkpt lat="41.87294" lon="2.3021321">
        <time>2022-07-10T10:22:14Z</time>
      </trkpt>
      <trkpt lat="41.872913" lon="2.3022304">
        <time>2022-07-10T10:22:18Z</time>
      </trkpt>
      <trkpt lat="41.872902" lon="2.3023067">
        <time>2022-07-10T10:22:21Z</time>
      </trkpt>
      <trkpt lat="41.8729" lon="2.3023808">
        <time>2022-07-10T10:22:24Z</time>
      </trkpt>
      <trkpt lat="41.872906" lon="2.3024607">
        <time>2022-07-10T10:22:27Z</time>
      </trkpt>
      <trkpt lat="41.87293" lon="2.302548">
        <time>2022-07-10T10:22:30Z</time>
      </trkpt>
      <trkpt lat="41.872944" lon="2.3026042">
        <time>2022-07-10T10:22:32Z</time>
      </trkpt>
      <trkpt lat="41.872974" lon="2.3026814">
        <time>2022-07-10T10:22:35Z</time>
      </trkpt>
      <trkpt lat="41.873013" lon="2.3027472">
        <time>2022-07-10T10:22:38Z</time>
      </trkpt>
      <trkpt lat="41.87305" lon="2.302801">
        <time>2022-07-10T10:22:41Z</time>
      </trkpt>
      <trkpt lat="41.87309" lon="2.3028564">
        <time>2022-07-10T10:22:44Z</time>
      </trkpt>
      <trkpt lat="41.873123" lon="2.3029149">
        <time>2022-07-10T10:22:47Z</time>
      </trkpt>
      <trkpt lat="41.873165" lon="2.3029683">
        <time>2022-07-10T10:22:50Z</time>
      </trkpt>
      <trkpt lat="41.873207" lon="2.303026">
        <time>2022-07-10T10:22:53Z</time>
      </trkpt>
      <trkpt lat="41.873245" lon="2.3030856">
        <time>2022-07-10T10:22:56Z</time>
      </trkpt>
      <trkpt lat="41.873287" lon="2.3031466">
        <time>2022-07-10T10:22:59Z</time>
      </trkpt>
      <trkpt lat="41.87333" lon="2.3032064">
        <time>2022-07-10T10:23:02Z</time>
      </trkpt>
      <trkpt lat="41.873367" lon="2.303269">
        <time>2022-07-10T10:23:05Z</time>
      </trkpt>
      <trkpt lat="41.87341" lon="2.3033333">
        <time>2022-07-10T10:23:08Z</time>
      </trkpt>
      <trkpt lat="41.873444" lon="2.303399">
        <time>2022-07-10T10:23:11Z</time>
      </trkpt>
      <trkpt lat="41.87348" lon="2.3034685">
        <time>2022-07-10T10:23:14Z</time>
      </trkpt>
      <trkpt lat="41.873524" lon="2.303537">
        <time>2022-07-10T10:23:17Z</time>
      </trkpt>
      <trkpt lat="41.873558" lon="2.3036084">
        <time>2022-07-10T10:23:20Z</time>
      </trkpt>
      <trkpt lat="41.873573" lon="2.3036861">
        <time>2022-07-10T10:23:23Z</time>
      </trkpt>
      <trkpt lat="41.873573" lon="2.3037667">
        <time>2022-07-10T10:23:26Z</time>
      </trkpt>
      <trkpt lat="41.873558" lon="2.3038468">
        <time>2022-07-10T10:23:29Z</time>
      </trkpt>
      <trkpt lat="41.87353" lon="2.3039217">
        <time>2022-07-10T10:23:32Z</time>
      </trkpt>
      <trkpt lat="41.87349" lon="2.3039894">
        <time>2022-07-10T10:23:35Z</time>
      </trkpt>
      <trkpt lat="41.873444" lon="2.304054">
        <time>2022-07-10T10:23:38Z</time>
      </trkpt>
      <trkpt lat="41.873394" lon="2.3041162">
        <time>2022-07-10T10:23:41Z</time>
      </trkpt>
      <trkpt lat="41.873333" lon="2.3041809">
        <time>2022-07-10T10:23:44Z</time>
      </trkpt>
      <trkpt lat="41.87329" lon="2.304223">
        <time>2022-07-10T10:23:46Z</time>
      </trkpt>
      <trkpt lat="41.873245" lon="2.3042746">
        <time>2022-07-10T10:23:48Z</time>
      </trkpt>
      <trkpt lat="41.8732" lon="2.3043249">
        <time>2022-07-10T10:23:50Z</time>
      </trkpt>
      <trkpt lat="41.87315" lon="2.3043728">
        <time>2022-07-10T10:23:52Z</time>
      </trkpt>
      <trkpt lat="41.8731" lon="2.3044221">
        <time>2022-07-10T10:23:54Z</time>
      </trkpt>
      <trkpt lat="41.87305" lon="2.3044667">
        <time>2022-07-10T10:23:56Z</time>
      </trkpt>
      <trkpt lat="41.872997" lon="2.3045087">
        <time>2022-07-10T10:23:58Z</time>
      </trkpt>
      <trkpt lat="41.872948" lon="2.3045404">
        <time>2022-07-10T10:24:00Z</time>
      </trkpt>
      <trkpt lat="41.8729" lon="2.304567">
        <time>2022-07-10T10:24:02Z</time>
      </trkpt>
      <trkpt lat="41.87285" lon="2.3045912">
        <time>2022-07-10T10:24:04Z</time>
      </trkpt>
      <trkpt lat="41.872803" lon="2.3046064">
        <time>2022-07-10T10:24:06Z</time>
      </trkpt>
      <trkpt lat="41.87273" lon="2.3046114">
        <time>2022-07-10T10:24:09Z</time>
      </trkpt>
      <trkpt lat="41.87266" lon="2.3046072">
        <time>2022-07-10T10:24:12Z</time>
      </trkpt>
      <trkpt lat="41.872593" lon="2.3046045">
        <time>2022-07-10T10:24:15Z</time>
      </trkpt>
      <trkpt lat="41.872524" lon="2.3046029">
        <time>2022-07-10T10:24:18Z</time>
      </trkpt>
      <trkpt lat="41.87248" lon="2.3045998">
        <time>2022-07-10T10:24:20Z</time>
      </trkpt>
      <trkpt lat="41.872406" lon="2.3045988">
        <time>2022-07-10T10:24:23Z</time>
      </trkpt>
      <trkpt lat="41.872337" lon="2.3045971">
        <time>2022-07-10T10:24:26Z</time>
      </trkpt>
      <trkpt lat="41.872265" lon="2.3045886">
        <time>2022-07-10T10:24:29Z</time>
      </trkpt>
      <trkpt lat="41.8722" lon="2.3045664">
        <time>2022-07-10T10:24:32Z</time>
      </trkpt>
      <trkpt lat="41.872135" lon="2.3045402">
        <time>2022-07-10T10:24:35Z</time>
      </trkpt>
      <trkpt lat="41.872078" lon="2.3045049">
        <time>2022-07-10T10:24:38Z</time>
      </trkpt>
      <trkpt lat="41.872025" lon="2.3044627">
        <time>2022-07-10T10:24:41Z</time>
      </trkpt>
      <trkpt lat="41.871975" lon="2.3044062">
        <time>2022-07-10T10:24:44Z</time>
      </trkpt>
      <trkpt lat="41.871933" lon="2.3043432">
        <time>2022-07-10T10:24:47Z</time>
      </trkpt>
      <trkpt lat="41.87189" lon="2.3042805">
        <time>2022-07-10T10:24:50Z</time>
      </trkpt>
      <trkpt lat="41.87185" lon="2.3042188">
        <time>2022-07-10T10:24:53Z</time>
      </trkpt>
      <trkpt lat="41.8718" lon="2.3041658">
        <time>2022-07-10T10:24:56Z</time>
      </trkpt>
      <trkpt lat="41.871742" lon="2.304124">
        <time>2022-07-10T10:24:59Z</time>
      </trkpt>
      <trkpt lat="41.87169" lon="2.304089">
        <time>2022-07-10T10:25:02Z</time>
      </trkpt>
      <trkpt lat="41.871635" lon="2.304067">
        <time>2022-07-10T10:25:05Z</time>
      </trkpt>
      <trkpt lat="41.871574" lon="2.304067">
        <time>2022-07-10T10:25:08Z</time>
      </trkpt>
      <trkpt lat="41.871513" lon="2.304083">
        <time>2022-07-10T10:25:11Z</time>
      </trkpt>
      <trkpt lat="41.87146" lon="2.3041155">
        <time>2022-07-10T10:25:14Z</time>
      </trkpt>
      <trkpt lat="41.87141" lon="2.30416">
        <time>2022-07-10T10:25:17Z</time>
      </trkpt>
      <trkpt lat="41.871372" lon="2.3042212">
        <time>2022-07-10T10:25:20Z</time>
      </trkpt>
      <trkpt lat="41.87134" lon="2.304294">
        <time>2022-07-10T10:25:23Z</time>
      </trkpt>
      <trkpt lat="41.871315" lon="2.3043728">
        <time>2022-07-10T10:25:26Z</time>
      </trkpt>
      <trkpt lat="41.871296" lon="2.3044538">
        <time>2022-07-10T10:25:29Z</time>
      </trkpt>
      <trkpt lat="41.871284" lon="2.3045392">
        <time>2022-07-10T10:25:32Z</time>
      </trkpt>
      <trkpt lat="41.871277" lon="2.3046265">
        <time>2022-07-10T10:25:35Z</time>
      </trkpt>
      <trkpt lat="41.871273" lon="2.304713">
        <time>2022-07-10T10:25:38Z</time>
      </trkpt>
      <trkpt lat="41.87127" lon="2.3047988">
        <time>2022-07-10T10:25:41Z</time>
      </trkpt>
      <trkpt lat="41.87126" lon="2.304882">
        <time>2022-07-10T10:25:44Z</time>
      </trkpt>
      <trkpt lat="41.87126" lon="2.3049655">
        <time>2022-07-10T10:25:47Z</time>
      </trkpt>
      <trkpt lat="41.871258" lon="2.3050504">
        <time>2022-07-10T10:25:50Z</time>
      </trkpt>
      <trkpt lat="41.871246" lon="2.3051355">
        <time>2022-07-10T10:25:53Z</time>
      </trkpt>
      <trkpt lat="41.871243" lon="2.305218">
        <time>2022-07-10T10:25:56Z</time>
      </trkpt>
      <trkpt lat="41.87124" lon="2.3052964">
        <time>2022-07-10T10:25:59Z</time>
      </trkpt>
      <trkpt lat="41.87123" lon="2.3053775">
        <time>2022-07-10T10:26:02Z</time>
      </trkpt>
      <trkpt lat="41.871223" lon="2.3054562">
        <time>2022-07-10T10:26:05Z</time>
      </trkpt>
      <trkpt lat="41.871212" lon="2.3055382">
        <time>2022-07-10T10:26:08Z</time>
      </trkpt>
      <trkpt lat="41.871204" lon="2.3056235">
        <time>2022-07-10T10:26:11Z</time>
      </trkpt>
      <trkpt lat="41.871185" lon="2.3057058">
        <time>2022-07-10T10:26:14Z</time>
      </trkpt>
      <trkpt lat="41.871162" lon="2.3057868">
        <time>2022-07-10T10:26:17Z</time>
      </trkpt>
      <trkpt lat="41.871136" lon="2.3058617">
        <time>2022-07-10T10:26:20Z</time>
      </trkpt>
      <trkpt lat="41.871105" lon="2.3059258">
        <time>2022-07-10T10:26:23Z</time>
      </trkpt>
      <trkpt lat="41.871067" lon="2.3059804">
        <time>2022-07-10T10:26:26Z</time>
      </trkpt>
      <trkpt lat="41.87102" lon="2.3060267">
        <time>2022-07-10T10:26:29Z</time>
      </trkpt>
      <trkpt lat="41.87097" lon="2.3060687">
        <time>2022-07-10T10:26:32Z</time>
      </trkpt>
      <trkpt lat="41.870922" lon="2.3061154">
        <time>2022-07-10T10:26:35Z</time>
      </trkpt>
      <trkpt lat="41.87088" lon="2.3061695">
        <time>2022-07-10T10:26:38Z</time>
      </trkpt>
      <trkpt lat="41.870846" lon="2.3062348">
        <time>2022-07-10T10:26:41Z</time>
      </trkpt>
      <trkpt lat="41.87082" lon="2.3063097">
        <time>2022-07-10T10:26:44Z</time>
      </trkpt>
      <trkpt lat="41.8708" lon="2.3063853">
        <time>2022-07-10T10:26:47Z</time>
      </trkpt>
      <trkpt lat="41.8708" lon="2.306464">
        <time>2022-07-10T10:26:50Z</time>
      </trkpt>
      <trkpt lat="41.870808" lon="2.3065372">
        <time>2022-07-10T10:26:53Z</time>
      </trkpt>
      <trkpt lat="41.87082" lon="2.3066163">
        <time>2022-07-10T10:26:56Z</time>
      </trkpt>
      <trkpt lat="41.87083" lon="2.3066993">
        <time>2022-07-10T10:26:59Z</time>
      </trkpt>
      <trkpt lat="41.870846" lon="2.3067791">
        <time>2022-07-10T10:27:02Z</time>
      </trkpt>
      <trkpt lat="41.87086" lon="2.306859">
        <time>2022-07-10T10:27:05Z</time>
      </trkpt>
      <trkpt lat="41.870884" lon="2.3069386">
        <time>2022-07-10T10:27:08Z</time>
      </trkpt>
      <trkpt lat="41.870903" lon="2.3070138">
        <time>2022-07-10T10:27:11Z</time>
      </trkpt>
      <trkpt lat="41.87092" lon="2.3070908">
        <time>2022-07-10T10:27:14Z</time>
      </trkpt>
      <trkpt lat="41.870934" lon="2.3071754">
        <time>2022-07-10T10:27:17Z</time>
      </trkpt>
      <trkpt lat="41.870945" lon="2.3072636">
        <time>2022-07-10T10:27:20Z</time>
      </trkpt>
      <trkpt lat="41.870956" lon="2.307351">
        <time>2022-07-10T10:27:23Z</time>
      </trkpt>
      <trkpt lat="41.87096" lon="2.3074384">
        <time>2022-07-10T10:27:26Z</time>
      </trkpt>
      <trkpt lat="41.870956" lon="2.3075328">
        <time>2022-07-10T10:27:29Z</time>
      </trkpt>
      <trkpt lat="41.870953" lon="2.3076286">
        <time>2022-07-10T10:27:32Z</time>
      </trkpt>
      <trkpt lat="41.87095" lon="2.3077536">
        <time>2022-07-10T10:27:36Z</time>
      </trkpt>
      <trkpt lat="41.87095" lon="2.30782">
        <time>2022-07-10T10:27:38Z</time>
      </trkpt>
      <trkpt lat="41.87096" lon="2.3079143">
        <time>2022-07-10T10:27:41Z</time>
      </trkpt>
      <trkpt lat="41.870987" lon="2.308008">
        <time>2022-07-10T10:27:44Z</time>
      </trkpt>
      <trkpt lat="41.871017" lon="2.3080914">
        <time>2022-07-10T10:27:47Z</time>
      </trkpt>
      <trkpt lat="41.87106" lon="2.3081646">
        <time>2022-07-10T10:27:50Z</time>
      </trkpt>
      <trkpt lat="41.871098" lon="2.3082254">
        <time>2022-07-10T10:27:53Z</time>
      </trkpt>
      <trkpt lat="41.871143" lon="2.3082826">
        <time>2022-07-10T10:27:56Z</time>
      </trkpt>
      <trkpt lat="41.871197" lon="2.3083446">
        <time>2022-07-10T10:27:59Z</time>
      </trkpt>
      <trkpt lat="41.87124" lon="2.3084104">
        <time>2022-07-10T10:28:02Z</time>
      </trkpt>
      <trkpt lat="41.87126" lon="2.308496">
        <time>2022-07-10T10:28:05Z</time>
      </trkpt>
      <trkpt lat="41.871265" lon="2.308582">
        <time>2022-07-10T10:28:08Z</time>
      </trkpt>
      <trkpt lat="41.87126" lon="2.3086624">
        <time>2022-07-10T10:28:11Z</time>
      </trkpt>
      <trkpt lat="41.871254" lon="2.3087366">
        <time>2022-07-10T10:28:14Z</time>
      </trkpt>
      <trkpt lat="41.871243" lon="2.3088102">
        <time>2022-07-10T10:28:17Z</time>
      </trkpt>
      <trkpt lat="41.87124" lon="2.3088856">
        <time>2022-07-10T10:28:20Z</time>
      </trkpt>
      <trkpt lat="41.871246" lon="2.3089585">
        <time>2022-07-10T10:28:23Z</time>
      </trkpt>
      <trkpt lat="41.871265" lon="2.3090303">
        <time>2022-07-10T10:28:26Z</time>
      </trkpt>
      <trkpt lat="41.871284" lon="2.309099">
        <time>2022-07-10T10:28:29Z</time>
      </trkpt>
      <trkpt lat="41.87132" lon="2.3091612">
        <time>2022-07-10T10:28:32Z</time>
      </trkpt>
      <trkpt lat="41.871357" lon="2.3092136">
        <time>2022-07-10T10:28:35Z</time>
      </trkpt>
      <trkpt lat="41.8714" lon="2.3092663">
        <time>2022-07-10T10:28:38Z</time>
      </trkpt>
      <trkpt lat="41.87144" lon="2.309311">
        <time>2022-07-10T10:28:41Z</time>
      </trkpt>
      <trkpt lat="41.87148" lon="2.3093534">
        <time>2022-07-10T10:28:44Z</time>
      </trkpt>
      <trkpt lat="41.871517" lon="2.3094208">
        <time>2022-07-10T10:28:48Z</time>
      </trkpt>
      <trkpt lat="41.871544" lon="2.3094776">
        <time>2022-07-10T10:28:51Z</time>
      </trkpt>
      <trkpt lat="41.87157" lon="2.3095593">
        <time>2022-07-10T10:28:55Z</time>
      </trkpt>
      <trkpt lat="41.87158" lon="2.3096278">
        <time>2022-07-10T10:28:58Z</time>
      </trkpt>
      <trkpt lat="41.871567" lon="2.3097212">
        <time>2022-07-10T10:29:02Z</time>
      </trkpt>
      <trkpt lat="41.871548" lon="2.3097882">
        <time>2022-07-10T10:29:05Z</time>
      </trkpt>
      <trkpt lat="41.87153" lon="2.3098567">
        <time>2022-07-10T10:29:08Z</time>
      </trkpt>
      <trkpt lat="41.871502" lon="2.3099215">
        <time>2022-07-10T10:29:11Z</time>
      </trkpt>
      <trkpt lat="41.87148" lon="2.3099933">
        <time>2022-07-10T10:29:14Z</time>
      </trkpt>
      <trkpt lat="41.87147" lon="2.3100705">
        <time>2022-07-10T10:29:17Z</time>
      </trkpt>
      <trkpt lat="41.87148" lon="2.3101542">
        <time>2022-07-10T10:29:20Z</time>
      </trkpt>
      <trkpt lat="41.871494" lon="2.3102312">
        <time>2022-07-10T10:29:23Z</time>
      </trkpt>
      <trkpt lat="41.871517" lon="2.3103144">
        <time>2022-07-10T10:29:26Z</time>
      </trkpt>
      <trkpt lat="41.871536" lon="2.310393">
        <time>2022-07-10T10:29:29Z</time>
      </trkpt>
      <trkpt lat="41.871555" lon="2.3104725">
        <time>2022-07-10T10:29:32Z</time>
      </trkpt>
      <trkpt lat="41.871574" lon="2.3105536">
        <time>2022-07-10T10:29:35Z</time>
      </trkpt>
      <trkpt lat="41.87159" lon="2.3106368">
        <time>2022-07-10T10:29:38Z</time>
      </trkpt>
      <trkpt lat="41.871597" lon="2.310722">
        <time>2022-07-10T10:29:41Z</time>
      </trkpt>
      <trkpt lat="41.871597" lon="2.3108">
        <time>2022-07-10T10:29:44Z</time>
      </trkpt>
      <trkpt lat="41.87161" lon="2.3108792">
        <time>2022-07-10T10:29:47Z</time>
      </trkpt>
      <trkpt lat="41.87162" lon="2.310963">
        <time>2022-07-10T10:29:50Z</time>
      </trkpt>
      <trkpt lat="41.87163" lon="2.31105">
        <time>2022-07-10T10:29:53Z</time>
      </trkpt>
      <trkpt lat="41.87164" lon="2.3111367">
        <time>2022-07-10T10:29:56Z</time>
      </trkpt>
      <trkpt lat="41.871662" lon="2.3112242">
        <time>2022-07-10T10:29:59Z</time>
      </trkpt>
      <trkpt lat="41.87168" lon="2.3112838">
        <time>2022-07-10T10:30:01Z</time>
      </trkpt>
      <trkpt lat="41.871708" lon="2.3113809">
        <time>2022-07-10T10:30:04Z</time>
      </trkpt>
      <trkpt lat="41.871727" lon="2.311448">
        <time>2022-07-10T10:30:06Z</time>
      </trkpt>
      <trkpt lat="41.871742" lon="2.3115182">
        <time>2022-07-10T10:30:08Z</time>
      </trkpt>
      <trkpt lat="41.871758" lon="2.3115861">
        <time>2022-07-10T10:30:10Z</time>
      </trkpt>
      <trkpt lat="41.87176" lon="2.3116539">
        <time>2022-07-10T10:30:12Z</time>
      </trkpt>
      <trkpt lat="41.871758" lon="2.3117514">
        <time>2022-07-10T10:30:15Z</time>
      </trkpt>
      <trkpt lat="41.87175" lon="2.3118446">
        <time>2022-07-10T10:30:18Z</time>
      </trkpt>
      <trkpt lat="41.871746" lon="2.311936">
        <time>2022-07-10T10:30:21Z</time>
      </trkpt>
      <trkpt lat="41.871742" lon="2.3120306">
        <time>2022-07-10T10:30:24Z</time>
      </trkpt>
      <trkpt lat="41.87174" lon="2.3120947">
        <time>2022-07-10T10:30:26Z</time>
      </trkpt>
      <trkpt lat="41.87174" lon="2.3121862">
        <time>2022-07-10T10:30:29Z</time>
      </trkpt>
      <trkpt lat="41.871742" lon="2.312276">
        <time>2022-07-10T10:30:32Z</time>
      </trkpt>
      <trkpt lat="41.871758" lon="2.312369">
        <time>2022-07-10T10:30:35Z</time>
      </trkpt>
      <trkpt lat="41.87177" lon="2.3124309">
        <time>2022-07-10T10:30:37Z</time>
      </trkpt>
      <trkpt lat="41.87178" lon="2.3125205">
        <time>2022-07-10T10:30:40Z</time>
      </trkpt>
      <trkpt lat="41.87178" lon="2.3126137">
        <time>2022-07-10T10:30:43Z</time>
      </trkpt>
      <trkpt lat="41.87179" lon="2.31271">
        <time>2022-07-10T10:30:46Z</time>
      </trkpt>
      <trkpt lat="41.871807" lon="2.3128383">
        <time>2022-07-10T10:30:50Z</time>
      </trkpt>
      <trkpt lat="41.87182" lon="2.3129299">
        <time>2022-07-10T10:30:53Z</time>
      </trkpt>
      <trkpt lat="41.871838" lon="2.313025">
        <time>2022-07-10T10:30:56Z</time>
      </trkpt>
      <trkpt lat="41.871853" lon="2.3131154">
        <time>2022-07-10T10:30:59Z</time>
      </trkpt>
      <trkpt lat="41.87186" lon="2.313177">
        <time>2022-07-10T10:31:01Z</time>
      </trkpt>
      <trkpt lat="41.87187" lon="2.3132708">
        <time>2022-07-10T10:31:04Z</time>
      </trkpt>
      <trkpt lat="41.871872" lon="2.3133337">
        <time>2022-07-10T10:31:06Z</time>
      </trkpt>
      <trkpt lat="41.871876" lon="2.313427">
        <time>2022-07-10T10:31:09Z</time>
      </trkpt>
      <trkpt lat="41.87188" lon="2.3134873">
        <time>2022-07-10T10:31:11Z</time>
      </trkpt>
      <trkpt lat="41.87189" lon="2.3135793">
        <time>2022-07-10T10:31:14Z</time>
      </trkpt>
      <trkpt lat="41.8719" lon="2.3136744">
        <time>2022-07-10T10:31:17Z</time>
      </trkpt>
      <trkpt lat="41.871902" lon="2.3137665">
        <time>2022-07-10T10:31:20Z</time>
      </trkpt>
      <trkpt lat="41.87192" lon="2.3138561">
        <time>2022-07-10T10:31:23Z</time>
      </trkpt>
      <trkpt lat="41.871933" lon="2.3139148">
        <time>2022-07-10T10:31:25Z</time>
      </trkpt>
      <trkpt lat="41.87195" lon="2.314002">
        <time>2022-07-10T10:31:28Z</time>
      </trkpt>
      <trkpt lat="41.871964" lon="2.3140838">
        <time>2022-07-10T10:31:31Z</time>
      </trkpt>
      <trkpt lat="41.871975" lon="2.3141756">
        <time>2022-07-10T10:31:34Z</time>
      </trkpt>
      <trkpt lat="41.87197" lon="2.3142653">
        <time>2022-07-10T10:31:37Z</time>
      </trkpt>
      <trkpt lat="41.87195" lon="2.3143501">
        <time>2022-07-10T10:31:40Z</time>
      </trkpt>
      <trkpt lat="41.87191" lon="2.314426">
        <time>2022-07-10T10:31:43Z</time>
      </trkpt>
      <trkpt lat="41.87186" lon="2.3144886">
        <time>2022-07-10T10:31:46Z</time>
      </trkpt>
      <trkpt lat="41.871803" lon="2.3145406">
        <time>2022-07-10T10:31:49Z</time>
      </trkpt>
      <trkpt lat="41.871742" lon="2.3145838">
        <time>2022-07-10T10:31:52Z</time>
      </trkpt>
      <trkpt lat="41.87168" lon="2.314625">
        <time>2022-07-10T10:31:55Z</time>
      </trkpt>
      <trkpt lat="41.87162" lon="2.3146677">
        <time>2022-07-10T10:31:58Z</time>
      </trkpt>
      <trkpt lat="41.871563" lon="2.3147178">
        <time>2022-07-10T10:32:01Z</time>
      </trkpt>
      <trkpt lat="41.871517" lon="2.3147833">
        <time>2022-07-10T10:32:04Z</time>
      </trkpt>
      <trkpt lat="41.871483" lon="2.314862">
        <time>2022-07-10T10:32:07Z</time>
      </trkpt>
      <trkpt lat="41.871456" lon="2.314949">
        <time>2022-07-10T10:32:10Z</time>
      </trkpt>
      <trkpt lat="41.87145" lon="2.3150432">
        <time>2022-07-10T10:32:13Z</time>
      </trkpt>
      <trkpt lat="41.871452" lon="2.3151057">
        <time>2022-07-10T10:32:15Z</time>
      </trkpt>
      <trkpt lat="41.871468" lon="2.3152018">
        <time>2022-07-10T10:32:18Z</time>
      </trkpt>
      <trkpt lat="41.87148" lon="2.3152986">
        <time>2022-07-10T10:32:21Z</time>
      </trkpt>
      <trkpt lat="41.871483" lon="2.3153963">
        <time>2022-07-10T10:32:24Z</time>
      </trkpt>
      <trkpt lat="41.87149" lon="2.3154898">
        <time>2022-07-10T10:32:27Z</time>
      </trkpt>
      <trkpt lat="41.87148" lon="2.3155823">
        <time>2022-07-10T10:32:30Z</time>
      </trkpt>
      <trkpt lat="41.871464" lon="2.3156753">
        <time>2022-07-10T10:32:33Z</time>
      </trkpt>
      <trkpt lat="41.871452" lon="2.3157363">
        <time>2022-07-10T10:32:35Z</time>
      </trkpt>
      <trkpt lat="41.87143" lon="2.315829">
        <time>2022-07-10T10:32:38Z</time>
      </trkpt>
      <trkpt lat="41.871407" lon="2.3159227">
        <time>2022-07-10T10:32:41Z</time>
      </trkpt>
      <trkpt lat="41.87139" lon="2.316015">
        <time>2022-07-10T10:32:44Z</time>
      </trkpt>
      <trkpt lat="41.87137" lon="2.3161058">
        <time>2022-07-10T10:32:47Z</time>
      </trkpt>
      <trkpt lat="41.87134" lon="2.3161933">
        <time>2022-07-10T10:32:50Z</time>
      </trkpt>
      <trkpt lat="41.871307" lon="2.3162754">
        <time>2022-07-10T10:32:53Z</time>
      </trkpt>
      <trkpt lat="41.87128" lon="2.316328">
        <time>2022-07-10T10:32:55Z</time>
      </trkpt>
      <trkpt lat="41.871227" lon="2.3163934">
        <time>2022-07-10T10:32:58Z</time>
      </trkpt>
      <trkpt lat="41.871166" lon="2.3164456">
        <time>2022-07-10T10:33:01Z</time>
      </trkpt>
      <trkpt lat="41.871098" lon="2.3164842">
        <time>2022-07-10T10:33:04Z</time>
      </trkpt>
      <trkpt lat="41.871033" lon="2.316515">
        <time>2022-07-10T10:33:07Z</time>
      </trkpt>
      <trkpt lat="41.870964" lon="2.3165438">
        <time>2022-07-10T10:33:10Z</time>
      </trkpt>
      <trkpt lat="41.870922" lon="2.316565">
        <time>2022-07-10T10:33:12Z</time>
      </trkpt>
      <trkpt lat="41.870857" lon="2.3165963">
        <time>2022-07-10T10:33:15Z</time>
      </trkpt>
      <trkpt lat="41.870796" lon="2.3166213">
        <time>2022-07-10T10:33:18Z</time>
      </trkpt>
      <trkpt lat="41.87073" lon="2.316629">
        <time>2022-07-10T10:33:21Z</time>
      </trkpt>
      <trkpt lat="41.87066" lon="2.3166103">
        <time>2022-07-10T10:33:24Z</time>
      </trkpt>
      <trkpt lat="41.870598" lon="2.3165612">
        <time>2022-07-10T10:33:27Z</time>
      </trkpt>
      <trkpt lat="41.870564" lon="2.31652">
        <time>2022-07-10T10:33:29Z</time>
      </trkpt>
      <trkpt lat="41.87051" lon="2.3164659">
        <time>2022-07-10T10:33:32Z</time>
      </trkpt>
      <trkpt lat="41.870457" lon="2.3164144">
        <time>2022-07-10T10:33:35Z</time>
      </trkpt>
      <trkpt lat="41.870396" lon="2.3163805">
        <time>2022-07-10T10:33:38Z</time>
      </trkpt>
      <trkpt lat="41.870335" lon="2.316376">
        <time>2022-07-10T10:33:41Z</time>
      </trkpt>
      <trkpt lat="41.870274" lon="2.3163939">
        <time>2022-07-10T10:33:44Z</time>
      </trkpt>
      <trkpt lat="41.870216" lon="2.3164349">
        <time>2022-07-10T10:33:47Z</time>
      </trkpt>
      <trkpt lat="41.870167" lon="2.316493">
        <time>2022-07-10T10:33:50Z</time>
      </trkpt>
      <trkpt lat="41.87012" lon="2.3165627">
        <time>2022-07-10T10:33:53Z</time>
      </trkpt>
      <trkpt lat="41.870075" lon="2.3166406">
        <time>2022-07-10T10:33:56Z</time>
      </trkpt>
      <trkpt lat="41.870033" lon="2.3167226">
        <time>2022-07-10T10:33:59Z</time>
      </trkpt>
      <trkpt lat="41.870003" lon="2.3167756">
        <time>2022-07-10T10:34:01Z</time>
      </trkpt>
      <trkpt lat="41.86997" lon="2.31686">
        <time>2022-07-10T10:34:04Z</time>
      </trkpt>
      <trkpt lat="41.869926" lon="2.3169737">
        <time>2022-07-10T10:34:08Z</time>
      </trkpt>
      <trkpt lat="41.869904" lon="2.3170607">
        <time>2022-07-10T10:34:11Z</time>
      </trkpt>
      <trkpt lat="41.869884" lon="2.3171496">
        <time>2022-07-10T10:34:14Z</time>
      </trkpt>
      <trkpt lat="41.869873" lon="2.31724">
        <time>2022-07-10T10:34:17Z</time>
      </trkpt>
      <trkpt lat="41.869858" lon="2.3173337">
        <time>2022-07-10T10:34:20Z</time>
      </trkpt>
      <trkpt lat="41.86985" lon="2.3174279">
        <time>2022-07-10T10:34:23Z</time>
      </trkpt>
      <trkpt lat="41.86983" lon="2.3175197">
        <time>2022-07-10T10:34:26Z</time>
      </trkpt>
      <trkpt lat="41.86981" lon="2.317607">
        <time>2022-07-10T10:34:29Z</time>
      </trkpt>
      <trkpt lat="41.869785" lon="2.31769">
        <time>2022-07-10T10:34:32Z</time>
      </trkpt>
      <trkpt lat="41.869747" lon="2.3177702">
        <time>2022-07-10T10:34:35Z</time>
      </trkpt>
      <trkpt lat="41.869698" lon="2.317837">
        <time>2022-07-10T10:34:38Z</time>
      </trkpt>
      <trkpt lat="41.869637" lon="2.31789">
        <time>2022-07-10T10:34:41Z</time>
      </trkpt>
      <trkpt lat="41.8696" lon="2.317919">
        <time>2022-07-10T10:34:43Z</time>
      </trkpt>
      <trkpt lat="41.869537" lon="2.317955">
        <time>2022-07-10T10:34:46Z</time>
      </trkpt>
      <trkpt lat="41.869476" lon="2.3179874">
        <time>2022-07-10T10:34:49Z</time>
      </trkpt>
      <trkpt lat="41.86942" lon="2.3180206">
        <time>2022-07-10T10:34:52Z</time>
      </trkpt>
      <trkpt lat="41.869358" lon="2.3180535">
        <time>2022-07-10T10:34:55Z</time>
      </trkpt>
      <trkpt lat="41.869297" lon="2.3180885">
        <time>2022-07-10T10:34:58Z</time>
      </trkpt>
      <trkpt lat="41.869236" lon="2.3181248">
        <time>2022-07-10T10:35:01Z</time>
      </trkpt>
      <trkpt lat="41.869175" lon="2.3181586">
        <time>2022-07-10T10:35:04Z</time>
      </trkpt>
      <trkpt lat="41.86911" lon="2.3181899">
        <time>2022-07-10T10:35:07Z</time>
      </trkpt>
      <trkpt lat="41.86904" lon="2.318215">
        <time>2022-07-10T10:35:10Z</time>
      </trkpt>
      <trkpt lat="41.868973" lon="2.3182278">
        <time>2022-07-10T10:35:13Z</time>
      </trkpt>
      <trkpt lat="41.8689" lon="2.3182273">
        <time>2022-07-10T10:35:16Z</time>
      </trkpt>
      <trkpt lat="41.86883" lon="2.3182113">
        <time>2022-07-10T10:35:19Z</time>
      </trkpt>
      <trkpt lat="41.868763" lon="2.318179">
        <time>2022-07-10T10:35:22Z</time>
      </trkpt>
      <trkpt lat="41.868706" lon="2.3181372">
        <time>2022-07-10T10:35:25Z</time>
      </trkpt>
      <trkpt lat="41.868645" lon="2.3180823">
        <time>2022-07-10T10:35:28Z</time>
      </trkpt>
      <trkpt lat="41.86859" lon="2.3180237">
        <time>2022-07-10T10:35:31Z</time>
      </trkpt>
      <trkpt lat="41.86854" lon="2.317951">
        <time>2022-07-10T10:35:34Z</time>
      </trkpt>
      <trkpt lat="41.868504" lon="2.3178701">
        <time>2022-07-10T10:35:37Z</time>
      </trkpt>
      <trkpt lat="41.86847" lon="2.3177862">
        <time>2022-07-10T10:35:40Z</time>
      </trkpt>
      <trkpt lat="41.868435" lon="2.3177032">
        <time>2022-07-10T10:35:43Z</time>
      </trkpt>
      <trkpt lat="41.868416" lon="2.317647">
        <time>2022-07-10T10:35:45Z</time>
      </trkpt>
      <trkpt lat="41.86839" lon="2.317564">
        <time>2022-07-10T10:35:48Z</time>
      </trkpt>
      <trkpt lat="41.86837" lon="2.3174782">
        <time>2022-07-10T10:35:51Z</time>
      </trkpt>
      <trkpt lat="41.86834" lon="2.3173966">
        <time>2022-07-10T10:35:54Z</time>
      </trkpt>
      <trkpt lat="41.868305" lon="2.317318">
        <time>2022-07-10T10:35:57Z</time>
      </trkpt>
      <trkpt lat="41.868256" lon="2.3172584">
        <time>2022-07-10T10:36:00Z</time>
      </trkpt>
      <trkpt lat="41.868195" lon="2.317218">
        <time>2022-07-10T10:36:03Z</time>
      </trkpt>
      <trkpt lat="41.868126" lon="2.3171914">
        <time>2022-07-10T10:36:06Z</time>
      </trkpt>
      <trkpt lat="41.86808" lon="2.3171813">
        <time>2022-07-10T10:36:08Z</time>
      </trkpt>
      <trkpt lat="41.868004" lon="2.3171673">
        <time>2022-07-10T10:36:11Z</time>
      </trkpt>
      <trkpt lat="41.867954" lon="2.3171573">
        <time>2022-07-10T10:36:13Z</time>
      </trkpt>
      <trkpt lat="41.86788" lon="2.3171437">
        <time>2022-07-10T10:36:16Z</time>
      </trkpt>
      <trkpt lat="41.867813" lon="2.3171315">
        <time>2022-07-10T10:36:19Z</time>
      </trkpt>
      <trkpt lat="41.867744" lon="2.31713">
        <time>2022-07-10T10:36:22Z</time>
      </trkpt>
      <trkpt lat="41.8677" lon="2.3171396">
        <time>2022-07-10T10:36:24Z</time>
      </trkpt>
      <trkpt lat="41.86763" lon="2.3171697">
        <time>2022-07-10T10:36:27Z</time>
      </trkpt>
      <trkpt lat="41.867588" lon="2.317198">
        <time>2022-07-10T10:36:29Z</time>
      </trkpt>
      <trkpt lat="41.867516" lon="2.3172483">
        <time>2022-07-10T10:36:32Z</time>
      </trkpt>
      <trkpt lat="41.86747" lon="2.3172843">
        <time>2022-07-10T10:36:34Z</time>
      </trkpt>
      <trkpt lat="41.867428" lon="2.3173263">
        <time>2022-07-10T10:36:36Z</time>
      </trkpt>
      <trkpt lat="41.867393" lon="2.317376">
        <time>2022-07-10T10:36:38Z</time>
      </trkpt>
      <trkpt lat="41.867348" lon="2.3174634">
        <time>2022-07-10T10:36:41Z</time>
      </trkpt>
      <trkpt lat="41.86732" lon="2.3175292">
        <time>2022-07-10T10:36:43Z</time>
      </trkpt>
      <trkpt lat="41.8673" lon="2.3176033">
        <time>2022-07-10T10:36:45Z</time>
      </trkpt>
      <trkpt lat="41.867275" lon="2.317682">
        <time>2022-07-10T10:36:47Z</time>
      </trkpt>
      <trkpt lat="41.867256" lon="2.3177626">
        <time>2022-07-10T10:36:49Z</time>
      </trkpt>
      <trkpt lat="41.86724" lon="2.3178432">
        <time>2022-07-10T10:36:51Z</time>
      </trkpt>
      <trkpt lat="41.86723" lon="2.3179252">
        <time>2022-07-10T10:36:53Z</time>
      </trkpt>
      <trkpt lat="41.867218" lon="2.3180122">
        <time>2022-07-10T10:36:55Z</time>
      </trkpt>
      <trkpt lat="41.867207" lon="2.3181">
        <time>2022-07-10T10:36:57Z</time>
      </trkpt>
      <trkpt lat="41.86719" lon="2.3181896">
        <time>2022-07-10T10:36:59Z</time>
      </trkpt>
      <trkpt lat="41.867184" lon="2.3182826">
        <time>2022-07-10T10:37:01Z</time>
      </trkpt>
      <trkpt lat="41.867188" lon="2.3183756">
        <time>2022-07-10T10:37:03Z</time>
      </trkpt>
      <trkpt lat="41.867203" lon="2.3184636">
        <time>2022-07-10T10:37:05Z</time>
      </trkpt>
      <trkpt lat="41.86723" lon="2.3185458">
        <time>2022-07-10T10:37:07Z</time>
      </trkpt>
      <trkpt lat="41.867264" lon="2.318621">
        <time>2022-07-10T10:37:09Z</time>
      </trkpt>
      <trkpt lat="41.867306" lon="2.3186915">
        <time>2022-07-10T10:37:11Z</time>
      </trkpt>
      <trkpt lat="41.86737" lon="2.318797">
        <time>2022-07-10T10:37:14Z</time>
      </trkpt>
      <trkpt lat="41.86741" lon="2.318869">
        <time>2022-07-10T10:37:16Z</time>
      </trkpt>
      <trkpt lat="41.86744" lon="2.3189523">
        <time>2022-07-10T10:37:18Z</time>
      </trkpt>
      <trkpt lat="41.86745" lon="2.3190408">
        <time>2022-07-10T10:37:20Z</time>
      </trkpt>
      <trkpt lat="41.867443" lon="2.319124">
        <time>2022-07-10T10:37:22Z</time>
      </trkpt>
      <trkpt lat="41.867413" lon="2.3191946">
        <time>2022-07-10T10:37:24Z</time>
      </trkpt>
      <trkpt lat="41.867374" lon="2.3192558">
        <time>2022-07-10T10:37:26Z</time>
      </trkpt>
      <trkpt lat="41.86733" lon="2.319311">
        <time>2022-07-10T10:37:28Z</time>
      </trkpt>
      <trkpt lat="41.867287" lon="2.3193648">
        <time>2022-07-10T10:37:30Z</time>
      </trkpt>
      <trkpt lat="41.867245" lon="2.3194206">
        <time>2022-07-10T10:37:32Z</time>
      </trkpt>
      <trkpt lat="41.867203" lon="2.319479">
        <time>2022-07-10T10:37:34Z</time>
      </trkpt>
      <trkpt lat="41.86717" lon="2.319541">
        <time>2022-07-10T10:37:36Z</time>
      </trkpt>
      <trkpt lat="41.867134" lon="2.3196099">
        <time>2022-07-10T10:37:38Z</time>
      </trkpt>
      <trkpt lat="41.867104" lon="2.3196816">
        <time>2022-07-10T10:37:40Z</time>
      </trkpt>
      <trkpt lat="41.86708" lon="2.3197582">
        <time>2022-07-10T10:37:42Z</time>
      </trkpt>
      <trkpt lat="41.867065" lon="2.3198378">
        <time>2022-07-10T10:37:44Z</time>
      </trkpt>
      <trkpt lat="41.867054" lon="2.31992">
        <time>2022-07-10T10:37:46Z</time>
      </trkpt>
      <trkpt lat="41.867046" lon="2.3200018">
        <time>2022-07-10T10:37:48Z</time>
      </trkpt>
      <trkpt lat="41.867035" lon="2.3200872">
        <time>2022-07-10T10:37:50Z</time>
      </trkpt>
      <trkpt lat="41.867023" lon="2.3201778">
        <time>2022-07-10T10:37:52Z</time>
      </trkpt>
      <trkpt lat="41.867012" lon="2.320278">
        <time>2022-07-10T10:37:54Z</time>
      </trkpt>
      <trkpt lat="41.866993" lon="2.3203804">
        <time>2022-07-10T10:37:56Z</time>
      </trkpt>
      <trkpt lat="41.866966" lon="2.3204844">
        <time>2022-07-10T10:37:58Z</time>
      </trkpt>
      <trkpt lat="41.86694" lon="2.3205862">
        <time>2022-07-10T10:38:00Z</time>
      </trkpt>
      <trkpt lat="41.8669" lon="2.32068">
        <time>2022-07-10T10:38:02Z</time>
      </trkpt>
      <trkpt lat="41.86685" lon="2.3207664">
        <time>2022-07-10T10:38:04Z</time>
      </trkpt>
      <trkpt lat="41.86679" lon="2.3208482">
        <time>2022-07-10T10:38:06Z</time>
      </trkpt>
      <trkpt lat="41.86673" lon="2.3209257">
        <time>2022-07-10T10:38:08Z</time>
      </trkpt>
      <trkpt lat="41.86667" lon="2.3210058">
        <time>2022-07-10T10:38:10Z</time>
      </trkpt>
      <trkpt lat="41.866604" lon="2.321077">
        <time>2022-07-10T10:38:12Z</time>
      </trkpt>
      <trkpt lat="41.866543" lon="2.3211439">
        <time>2022-07-10T10:38:14Z</time>
      </trkpt>
      <trkpt lat="41.86645" lon="2.3212504">
        <time>2022-07-10T10:38:17Z</time>
      </trkpt>
      <trkpt lat="41.86639" lon="2.321325">
        <time>2022-07-10T10:38:19Z</time>
      </trkpt>
      <trkpt lat="41.86633" lon="2.3213937">
        <time>2022-07-10T10:38:21Z</time>
      </trkpt>
      <trkpt lat="41.866276" lon="2.3214548">
        <time>2022-07-10T10:38:23Z</time>
      </trkpt>
      <trkpt lat="41.86623" lon="2.321507">
        <time>2022-07-10T10:38:25Z</time>
      </trkpt>
      <trkpt lat="41.86619" lon="2.3215537">
        <time>2022-07-10T10:38:27Z</time>
      </trkpt>
      <trkpt lat="41.866158" lon="2.3215897">
        <time>2022-07-10T10:38:29Z</time>
      </trkpt>
      <trkpt lat="41.866104" lon="2.321625">
        <time>2022-07-10T10:38:32Z</time>
      </trkpt>
      <trkpt lat="41.86607" lon="2.321645">
        <time>2022-07-10T10:38:45Z</time>
      </trkpt>
      <trkpt lat="41.866" lon="2.3216999">
        <time>2022-07-10T10:40:15Z</time>
      </trkpt>
      <trkpt lat="41.865932" lon="2.3217573">
        <time>2022-07-10T10:40:18Z</time>
      </trkpt>
      <trkpt lat="41.86588" lon="2.3218017">
        <time>2022-07-10T10:40:20Z</time>
      </trkpt>
      <trkpt lat="41.865818" lon="2.321852">
        <time>2022-07-10T10:40:22Z</time>
      </trkpt>
      <trkpt lat="41.86575" lon="2.3219001">
        <time>2022-07-10T10:40:24Z</time>
      </trkpt>
      <trkpt lat="41.865677" lon="2.3219533">
        <time>2022-07-10T10:40:26Z</time>
      </trkpt>
      <trkpt lat="41.865597" lon="2.3220153">
        <time>2022-07-10T10:40:28Z</time>
      </trkpt>
      <trkpt lat="41.865555" lon="2.3220496">
        <time>2022-07-10T10:40:29Z</time>
      </trkpt>
      <trkpt lat="41.865467" lon="2.3221145">
        <time>2022-07-10T10:40:31Z</time>
      </trkpt>
      <trkpt lat="41.86537" lon="2.322184">
        <time>2022-07-10T10:40:33Z</time>
      </trkpt>
      <trkpt lat="41.865322" lon="2.322223">
        <time>2022-07-10T10:40:34Z</time>
      </trkpt>
      <trkpt lat="41.865276" lon="2.3222654">
        <time>2022-07-10T10:40:35Z</time>
      </trkpt>
      <trkpt lat="41.86524" lon="2.3223083">
        <time>2022-07-10T10:40:36Z</time>
      </trkpt>
      <trkpt lat="41.8652" lon="2.3223574">
        <time>2022-07-10T10:40:37Z</time>
      </trkpt>
      <trkpt lat="41.865128" lon="2.3224766">
        <time>2022-07-10T10:40:39Z</time>
      </trkpt>
      <trkpt lat="41.865093" lon="2.322539">
        <time>2022-07-10T10:40:40Z</time>
      </trkpt>
      <trkpt lat="41.865063" lon="2.322602">
        <time>2022-07-10T10:40:41Z</time>
      </trkpt>
      <trkpt lat="41.865032" lon="2.3226655">
        <time>2022-07-10T10:40:42Z</time>
      </trkpt>
      <trkpt lat="41.864998" lon="2.3227296">
        <time>2022-07-10T10:40:43Z</time>
      </trkpt>
      <trkpt lat="41.864956" lon="2.322791">
        <time>2022-07-10T10:40:44Z</time>
      </trkpt>
      <trkpt lat="41.86491" lon="2.322844">
        <time>2022-07-10T10:40:45Z</time>
      </trkpt>
      <trkpt lat="41.86486" lon="2.3228827">
        <time>2022-07-10T10:40:46Z</time>
      </trkpt>
      <trkpt lat="41.8648" lon="2.3229024">
        <time>2022-07-10T10:40:47Z</time>
      </trkpt>
      <trkpt lat="41.86474" lon="2.3229027">
        <time>2022-07-10T10:40:48Z</time>
      </trkpt>
      <trkpt lat="41.864674" lon="2.3228886">
        <time>2022-07-10T10:40:49Z</time>
      </trkpt>
      <trkpt lat="41.86461" lon="2.322861">
        <time>2022-07-10T10:40:50Z</time>
      </trkpt>
      <trkpt lat="41.86454" lon="2.322822">
        <time>2022-07-10T10:40:51Z</time>
      </trkpt>
      <trkpt lat="41.864468" lon="2.3227737">
        <time>2022-07-10T10:40:52Z</time>
      </trkpt>
      <trkpt lat="41.864395" lon="2.3227184">
        <time>2022-07-10T10:40:53Z</time>
      </trkpt>
      <trkpt lat="41.864323" lon="2.3226576">
        <time>2022-07-10T10:40:54Z</time>
      </trkpt>
      <trkpt lat="41.864246" lon="2.322596">
        <time>2022-07-10T10:40:55Z</time>
      </trkpt>
      <trkpt lat="41.864166" lon="2.3225403">
        <time>2022-07-10T10:40:56Z</time>
      </trkpt>
      <trkpt lat="41.864086" lon="2.3224998">
        <time>2022-07-10T10:40:57Z</time>
      </trkpt>
      <trkpt lat="41.864006" lon="2.322478">
        <time>2022-07-10T10:40:58Z</time>
      </trkpt>
      <trkpt lat="41.86393" lon="2.3224764">
        <time>2022-07-10T10:40:59Z</time>
      </trkpt>
      <trkpt lat="41.863865" lon="2.3224967">
        <time>2022-07-10T10:41:00Z</time>
      </trkpt>
      <trkpt lat="41.86381" lon="2.3225381">
        <time>2022-07-10T10:41:01Z</time>
      </trkpt>
      <trkpt lat="41.863766" lon="2.3226035">
        <time>2022-07-10T10:41:02Z</time>
      </trkpt>
      <trkpt lat="41.863735" lon="2.3226743">
        <time>2022-07-10T10:41:03Z</time>
      </trkpt>
      <trkpt lat="41.86371" lon="2.3227544">
        <time>2022-07-10T10:41:04Z</time>
      </trkpt>
      <trkpt lat="41.863678" lon="2.322838">
        <time>2022-07-10T10:41:05Z</time>
      </trkpt>
      <trkpt lat="41.86364" lon="2.322918">
        <time>2022-07-10T10:41:06Z</time>
      </trkpt>
      <trkpt lat="41.863586" lon="2.322987">
        <time>2022-07-10T10:41:07Z</time>
      </trkpt>
      <trkpt lat="41.863525" lon="2.3230457">
        <time>2022-07-10T10:41:08Z</time>
      </trkpt>
      <trkpt lat="41.863457" lon="2.3231">
        <time>2022-07-10T10:41:09Z</time>
      </trkpt>
      <trkpt lat="41.863388" lon="2.3231583">
        <time>2022-07-10T10:41:10Z</time>
      </trkpt>
      <trkpt lat="41.863327" lon="2.3232274">
        <time>2022-07-10T10:41:11Z</time>
      </trkpt>
      <trkpt lat="41.86327" lon="2.3233085">
        <time>2022-07-10T10:41:12Z</time>
      </trkpt>
      <trkpt lat="41.86322" lon="2.323398">
        <time>2022-07-10T10:41:13Z</time>
      </trkpt>
      <trkpt lat="41.86317" lon="2.3234937">
        <time>2022-07-10T10:41:14Z</time>
      </trkpt>
      <trkpt lat="41.863117" lon="2.3235843">
        <time>2022-07-10T10:41:15Z</time>
      </trkpt>
      <trkpt lat="41.863052" lon="2.3236647">
        <time>2022-07-10T10:41:16Z</time>
      </trkpt>
      <trkpt lat="41.86298" lon="2.3237314">
        <time>2022-07-10T10:41:17Z</time>
      </trkpt>
      <trkpt lat="41.862896" lon="2.323786">
        <time>2022-07-10T10:41:18Z</time>
      </trkpt>
      <trkpt lat="41.862816" lon="2.323825">
        <time>2022-07-10T10:41:19Z</time>
      </trkpt>
      <trkpt lat="41.86273" lon="2.3238463">
        <time>2022-07-10T10:41:20Z</time>
      </trkpt>
      <trkpt lat="41.862644" lon="2.323847">
        <time>2022-07-10T10:41:21Z</time>
      </trkpt>
      <trkpt lat="41.862556" lon="2.323827">
        <time>2022-07-10T10:41:22Z</time>
      </trkpt>
      <trkpt lat="41.862476" lon="2.3237877">
        <time>2022-07-10T10:41:23Z</time>
      </trkpt>
      <trkpt lat="41.8624" lon="2.323733">
        <time>2022-07-10T10:41:24Z</time>
      </trkpt>
      <trkpt lat="41.86233" lon="2.3236706">
        <time>2022-07-10T10:41:25Z</time>
      </trkpt>
      <trkpt lat="41.86226" lon="2.3236103">
        <time>2022-07-10T10:41:26Z</time>
      </trkpt>
      <trkpt lat="41.86219" lon="2.3235586">
        <time>2022-07-10T10:41:27Z</time>
      </trkpt>
      <trkpt lat="41.862114" lon="2.323523">
        <time>2022-07-10T10:41:28Z</time>
      </trkpt>
      <trkpt lat="41.861973" lon="2.3235183">
        <time>2022-07-10T10:41:30Z</time>
      </trkpt>
      <trkpt lat="41.861904" lon="2.3235483">
        <time>2022-07-10T10:41:31Z</time>
      </trkpt>
      <trkpt lat="41.86184" lon="2.3235946">
        <time>2022-07-10T10:41:32Z</time>
      </trkpt>
      <trkpt lat="41.861767" lon="2.3236446">
        <time>2022-07-10T10:41:33Z</time>
      </trkpt>
      <trkpt lat="41.8617" lon="2.32369">
        <time>2022-07-10T10:41:34Z</time>
      </trkpt>
      <trkpt lat="41.861626" lon="2.3237224">
        <time>2022-07-10T10:41:35Z</time>
      </trkpt>
      <trkpt lat="41.86155" lon="2.3237357">
        <time>2022-07-10T10:41:36Z</time>
      </trkpt>
      <trkpt lat="41.861477" lon="2.3237283">
        <time>2022-07-10T10:41:37Z</time>
      </trkpt>
      <trkpt lat="41.861404" lon="2.323701">
        <time>2022-07-10T10:41:38Z</time>
      </trkpt>
      <trkpt lat="41.861336" lon="2.323658">
        <time>2022-07-10T10:41:39Z</time>
      </trkpt>
      <trkpt lat="41.86127" lon="2.323606">
        <time>2022-07-10T10:41:40Z</time>
      </trkpt>
      <trkpt lat="41.861202" lon="2.3235526">
        <time>2022-07-10T10:41:41Z</time>
      </trkpt>
      <trkpt lat="41.86113" lon="2.3235037">
        <time>2022-07-10T10:41:42Z</time>
      </trkpt>
      <trkpt lat="41.861057" lon="2.3234663">
        <time>2022-07-10T10:41:43Z</time>
      </trkpt>
      <trkpt lat="41.860977" lon="2.3234446">
        <time>2022-07-10T10:41:44Z</time>
      </trkpt>
      <trkpt lat="41.860893" lon="2.323438">
        <time>2022-07-10T10:41:45Z</time>
      </trkpt>
      <trkpt lat="41.86081" lon="2.3234463">
        <time>2022-07-10T10:41:46Z</time>
      </trkpt>
      <trkpt lat="41.860725" lon="2.3234684">
        <time>2022-07-10T10:41:47Z</time>
      </trkpt>
      <trkpt lat="41.86065" lon="2.3235044">
        <time>2022-07-10T10:41:48Z</time>
      </trkpt>
      <trkpt lat="41.860573" lon="2.3235564">
        <time>2022-07-10T10:41:49Z</time>
      </trkpt>
      <trkpt lat="41.860508" lon="2.3236246">
        <time>2022-07-10T10:41:50Z</time>
      </trkpt>
      <trkpt lat="41.860455" lon="2.3237073">
        <time>2022-07-10T10:41:51Z</time>
      </trkpt>
      <trkpt lat="41.860405" lon="2.323801">
        <time>2022-07-10T10:41:52Z</time>
      </trkpt>
      <trkpt lat="41.860367" lon="2.3239057">
        <time>2022-07-10T10:41:53Z</time>
      </trkpt>
      <trkpt lat="41.860332" lon="2.3240182">
        <time>2022-07-10T10:41:54Z</time>
      </trkpt>
      <trkpt lat="41.860306" lon="2.3241377">
        <time>2022-07-10T10:41:55Z</time>
      </trkpt>
      <trkpt lat="41.86029" lon="2.3242598">
        <time>2022-07-10T10:41:56Z</time>
      </trkpt>
      <trkpt lat="41.86028" lon="2.3243842">
        <time>2022-07-10T10:41:57Z</time>
      </trkpt>
      <trkpt lat="41.86027" lon="2.3245113">
        <time>2022-07-10T10:41:58Z</time>
      </trkpt>
      <trkpt lat="41.860264" lon="2.3246474">
        <time>2022-07-10T10:41:59Z</time>
      </trkpt>
      <trkpt lat="41.860256" lon="2.3247724">
        <time>2022-07-10T10:42:00Z</time>
      </trkpt>
      <trkpt lat="41.86024" lon="2.3248966">
        <time>2022-07-10T10:42:01Z</time>
      </trkpt>
      <trkpt lat="41.860226" lon="2.325019">
        <time>2022-07-10T10:42:02Z</time>
      </trkpt>
      <trkpt lat="41.860203" lon="2.325139">
        <time>2022-07-10T10:42:03Z</time>
      </trkpt>
      <trkpt lat="41.860176" lon="2.3252609">
        <time>2022-07-10T10:42:04Z</time>
      </trkpt>
      <trkpt lat="41.86014" lon="2.3253734">
        <time>2022-07-10T10:42:05Z</time>
      </trkpt>
      <trkpt lat="41.8601" lon="2.325471">
        <time>2022-07-10T10:42:06Z</time>
      </trkpt>
      <trkpt lat="41.860054" lon="2.3255484">
        <time>2022-07-10T10:42:07Z</time>
      </trkpt>
      <trkpt lat="41.859997" lon="2.3256073">
        <time>2022-07-10T10:42:08Z</time>
      </trkpt>
      <trkpt lat="41.859936" lon="2.3256447">
        <time>2022-07-10T10:42:09Z</time>
      </trkpt>
      <trkpt lat="41.85987" lon="2.325659">
        <time>2022-07-10T10:42:10Z</time>
      </trkpt>
      <trkpt lat="41.859806" lon="2.3256536">
        <time>2022-07-10T10:42:11Z</time>
      </trkpt>
      <trkpt lat="41.85973" lon="2.3256316">
        <time>2022-07-10T10:42:12Z</time>
      </trkpt>
      <trkpt lat="41.85966" lon="2.3256037">
        <time>2022-07-10T10:42:13Z</time>
      </trkpt>
      <trkpt lat="41.859585" lon="2.3255703">
        <time>2022-07-10T10:42:14Z</time>
      </trkpt>
      <trkpt lat="41.859505" lon="2.3255305">
        <time>2022-07-10T10:42:15Z</time>
      </trkpt>
      <trkpt lat="41.859425" lon="2.3254917">
        <time>2022-07-10T10:42:16Z</time>
      </trkpt>
      <trkpt lat="41.85935" lon="2.3254566">
        <time>2022-07-10T10:42:17Z</time>
      </trkpt>
      <trkpt lat="41.859272" lon="2.325425">
        <time>2022-07-10T10:42:18Z</time>
      </trkpt>
      <trkpt lat="41.85919" lon="2.325397">
        <time>2022-07-10T10:42:19Z</time>
      </trkpt>
      <trkpt lat="41.859108" lon="2.3253722">
        <time>2022-07-10T10:42:20Z</time>
      </trkpt>
      <trkpt lat="41.859028" lon="2.32535">
        <time>2022-07-10T10:42:21Z</time>
      </trkpt>
      <trkpt lat="41.858944" lon="2.3253286">
        <time>2022-07-10T10:42:22Z</time>
      </trkpt>
      <trkpt lat="41.858864" lon="2.3253083">
        <time>2022-07-10T10:42:23Z</time>
      </trkpt>
      <trkpt lat="41.858784" lon="2.325288">
        <time>2022-07-10T10:42:24Z</time>
      </trkpt>
      <trkpt lat="41.858704" lon="2.325268">
        <time>2022-07-10T10:42:25Z</time>
      </trkpt>
      <trkpt lat="41.858624" lon="2.3252494">
        <time>2022-07-10T10:42:26Z</time>
      </trkpt>
      <trkpt lat="41.858547" lon="2.3252327">
        <time>2022-07-10T10:42:27Z</time>
      </trkpt>
      <trkpt lat="41.858482" lon="2.325218">
        <time>2022-07-10T10:42:28Z</time>
      </trkpt>
      <trkpt lat="41.858414" lon="2.3252034">
        <time>2022-07-10T10:42:29Z</time>
      </trkpt>
      <trkpt lat="41.858345" lon="2.325188">
        <time>2022-07-10T10:42:30Z</time>
      </trkpt>
      <trkpt lat="41.858276" lon="2.325171">
        <time>2022-07-10T10:42:31Z</time>
      </trkpt>
      <trkpt lat="41.85813" lon="2.325126">
        <time>2022-07-10T10:42:33Z</time>
      </trkpt>
      <trkpt lat="41.85806" lon="2.325095">
        <time>2022-07-10T10:42:34Z</time>
      </trkpt>
      <trkpt lat="41.857986" lon="2.3250577">
        <time>2022-07-10T10:42:35Z</time>
      </trkpt>
      <trkpt lat="41.85791" lon="2.3250186">
        <time>2022-07-10T10:42:36Z</time>
      </trkpt>
      <trkpt lat="41.857834" lon="2.3249815">
        <time>2022-07-10T10:42:37Z</time>
      </trkpt>
      <trkpt lat="41.857754" lon="2.3249521">
        <time>2022-07-10T10:42:38Z</time>
      </trkpt>
      <trkpt lat="41.85767" lon="2.3249354">
        <time>2022-07-10T10:42:39Z</time>
      </trkpt>
      <trkpt lat="41.857586" lon="2.3249338">
        <time>2022-07-10T10:42:40Z</time>
      </trkpt>
      <trkpt lat="41.857506" lon="2.324953">
        <time>2022-07-10T10:42:41Z</time>
      </trkpt>
      <trkpt lat="41.857437" lon="2.3249853">
        <time>2022-07-10T10:42:42Z</time>
      </trkpt>
      <trkpt lat="41.85738" lon="2.325042">
        <time>2022-07-10T10:42:43Z</time>
      </trkpt>
      <trkpt lat="41.85734" lon="2.3251054">
        <time>2022-07-10T10:42:44Z</time>
      </trkpt>
      <trkpt lat="41.85732" lon="2.3251793">
        <time>2022-07-10T10:42:45Z</time>
      </trkpt>
      <trkpt lat="41.857307" lon="2.325261">
        <time>2022-07-10T10:42:46Z</time>
      </trkpt>
      <trkpt lat="41.857307" lon="2.3253503">
        <time>2022-07-10T10:42:47Z</time>
      </trkpt>
      <trkpt lat="41.85732" lon="2.3254447">
        <time>2022-07-10T10:42:48Z</time>
      </trkpt>
      <trkpt lat="41.857338" lon="2.3255413">
        <time>2022-07-10T10:42:49Z</time>
      </trkpt>
      <trkpt lat="41.85736" lon="2.3256392">
        <time>2022-07-10T10:42:50Z</time>
      </trkpt>
      <trkpt lat="41.85738" lon="2.325732">
        <time>2022-07-10T10:42:51Z</time>
      </trkpt>
      <trkpt lat="41.8574" lon="2.325834">
        <time>2022-07-10T10:42:52Z</time>
      </trkpt>
      <trkpt lat="41.857407" lon="2.3259354">
        <time>2022-07-10T10:42:53Z</time>
      </trkpt>
      <trkpt lat="41.857403" lon="2.326034">
        <time>2022-07-10T10:42:54Z</time>
      </trkpt>
      <trkpt lat="41.857384" lon="2.326129">
        <time>2022-07-10T10:42:55Z</time>
      </trkpt>
      <trkpt lat="41.85736" lon="2.3262186">
        <time>2022-07-10T10:42:56Z</time>
      </trkpt>
      <trkpt lat="41.857334" lon="2.3263044">
        <time>2022-07-10T10:42:57Z</time>
      </trkpt>
      <trkpt lat="41.8573" lon="2.3263893">
        <time>2022-07-10T10:42:58Z</time>
      </trkpt>
      <trkpt lat="41.857265" lon="2.3264728">
        <time>2022-07-10T10:42:59Z</time>
      </trkpt>
      <trkpt lat="41.85723" lon="2.3265536">
        <time>2022-07-10T10:43:00Z</time>
      </trkpt>
      <trkpt lat="41.857197" lon="2.326635">
        <time>2022-07-10T10:43:01Z</time>
      </trkpt>
      <trkpt lat="41.857162" lon="2.3267164">
        <time>2022-07-10T10:43:02Z</time>
      </trkpt>
      <trkpt lat="41.857132" lon="2.3267994">
        <time>2022-07-10T10:43:03Z</time>
      </trkpt>
      <trkpt lat="41.857105" lon="2.3268852">
        <time>2022-07-10T10:43:04Z</time>
      </trkpt>
      <trkpt lat="41.85709" lon="2.3269732">
        <time>2022-07-10T10:43:05Z</time>
      </trkpt>
      <trkpt lat="41.857082" lon="2.3270617">
        <time>2022-07-10T10:43:06Z</time>
      </trkpt>
      <trkpt lat="41.857075" lon="2.3271506">
        <time>2022-07-10T10:43:07Z</time>
      </trkpt>
      <trkpt lat="41.85707" lon="2.327239">
        <time>2022-07-10T10:43:08Z</time>
      </trkpt>
      <trkpt lat="41.857063" lon="2.3273256">
        <time>2022-07-10T10:43:09Z</time>
      </trkpt>
      <trkpt lat="41.857048" lon="2.32741">
        <time>2022-07-10T10:43:10Z</time>
      </trkpt>
      <trkpt lat="41.85703" lon="2.327491">
        <time>2022-07-10T10:43:11Z</time>
      </trkpt>
      <trkpt lat="41.857006" lon="2.3275692">
        <time>2022-07-10T10:43:12Z</time>
      </trkpt>
      <trkpt lat="41.856976" lon="2.327645">
        <time>2022-07-10T10:43:13Z</time>
      </trkpt>
      <trkpt lat="41.85695" lon="2.327718">
        <time>2022-07-10T10:43:14Z</time>
      </trkpt>
      <trkpt lat="41.856915" lon="2.3277903">
        <time>2022-07-10T10:43:15Z</time>
      </trkpt>
      <trkpt lat="41.856884" lon="2.3278608">
        <time>2022-07-10T10:43:16Z</time>
      </trkpt>
      <trkpt lat="41.85685" lon="2.3279316">
        <time>2022-07-10T10:43:17Z</time>
      </trkpt>
      <trkpt lat="41.856815" lon="2.3280022">
        <time>2022-07-10T10:43:18Z</time>
      </trkpt>
      <trkpt lat="41.85678" lon="2.3280714">
        <time>2022-07-10T10:43:19Z</time>
      </trkpt>
      <trkpt lat="41.856743" lon="2.3281462">
        <time>2022-07-10T10:43:20Z</time>
      </trkpt>
      <trkpt lat="41.85671" lon="2.3282213">
        <time>2022-07-10T10:43:21Z</time>
      </trkpt>
      <trkpt lat="41.856678" lon="2.3282924">
        <time>2022-07-10T10:43:22Z</time>
      </trkpt>
      <trkpt lat="41.85665" lon="2.3283663">
        <time>2022-07-10T10:43:23Z</time>
      </trkpt>
      <trkpt lat="41.85663" lon="2.3284419">
        <time>2022-07-10T10:43:24Z</time>
      </trkpt>
      <trkpt lat="41.8566" lon="2.3285227">
        <time>2022-07-10T10:43:25Z</time>
      </trkpt>
      <trkpt lat="41.856575" lon="2.3286016">
        <time>2022-07-10T10:43:26Z</time>
      </trkpt>
      <trkpt lat="41.856552" lon="2.328673">
        <time>2022-07-10T10:43:27Z</time>
      </trkpt>
      <trkpt lat="41.856525" lon="2.3287451">
        <time>2022-07-10T10:43:28Z</time>
      </trkpt>
      <trkpt lat="41.8565" lon="2.3288176">
        <time>2022-07-10T10:43:29Z</time>
      </trkpt>
      <trkpt lat="41.856472" lon="2.3288896">
        <time>2022-07-10T10:43:30Z</time>
      </trkpt>
      <trkpt lat="41.856445" lon="2.3289595">
        <time>2022-07-10T10:43:31Z</time>
      </trkpt>
      <trkpt lat="41.856415" lon="2.329027">
        <time>2022-07-10T10:43:32Z</time>
      </trkpt>
      <trkpt lat="41.856384" lon="2.3290915">
        <time>2022-07-10T10:43:33Z</time>
      </trkpt>
      <trkpt lat="41.856354" lon="2.329155">
        <time>2022-07-10T10:43:34Z</time>
      </trkpt>
      <trkpt lat="41.856285" lon="2.3292813">
        <time>2022-07-10T10:43:36Z</time>
      </trkpt>
      <trkpt lat="41.856255" lon="2.3293417">
        <time>2022-07-10T10:43:37Z</time>
      </trkpt>
      <trkpt lat="41.856224" lon="2.3293955">
        <time>2022-07-10T10:43:38Z</time>
      </trkpt>
      <trkpt lat="41.85619" lon="2.3294506">
        <time>2022-07-10T10:43:39Z</time>
      </trkpt>
      <trkpt lat="41.85615" lon="2.3295102">
        <time>2022-07-10T10:43:40Z</time>
      </trkpt>
      <trkpt lat="41.85611" lon="2.3295653">
        <time>2022-07-10T10:43:41Z</time>
      </trkpt>
      <trkpt lat="41.856064" lon="2.3296108">
        <time>2022-07-10T10:43:42Z</time>
      </trkpt>
      <trkpt lat="41.85601" lon="2.329644">
        <time>2022-07-10T10:43:43Z</time>
      </trkpt>
      <trkpt lat="41.855953" lon="2.3296611">
        <time>2022-07-10T10:43:44Z</time>
      </trkpt>
      <trkpt lat="41.855892" lon="2.3296595">
        <time>2022-07-10T10:43:45Z</time>
      </trkpt>
      <trkpt lat="41.855824" lon="2.3296366">
        <time>2022-07-10T10:43:46Z</time>
      </trkpt>
      <trkpt lat="41.85576" lon="2.329598">
        <time>2022-07-10T10:43:47Z</time>
      </trkpt>
      <trkpt lat="41.855694" lon="2.3295455">
        <time>2022-07-10T10:43:48Z</time>
      </trkpt>
      <trkpt lat="41.855633" lon="2.3294883">
        <time>2022-07-10T10:43:49Z</time>
      </trkpt>
      <trkpt lat="41.85557" lon="2.3294249">
        <time>2022-07-10T10:43:50Z</time>
      </trkpt>
      <trkpt lat="41.855507" lon="2.3293602">
        <time>2022-07-10T10:43:51Z</time>
      </trkpt>
      <trkpt lat="41.85544" lon="2.3293006">
        <time>2022-07-10T10:43:52Z</time>
      </trkpt>
      <trkpt lat="41.855362" lon="2.3292513">
        <time>2022-07-10T10:43:53Z</time>
      </trkpt>
      <trkpt lat="41.85528" lon="2.3292153">
        <time>2022-07-10T10:43:54Z</time>
      </trkpt>
      <trkpt lat="41.855198" lon="2.3291917">
        <time>2022-07-10T10:43:55Z</time>
      </trkpt>
      <trkpt lat="41.85511" lon="2.3291783">
        <time>2022-07-10T10:43:56Z</time>
      </trkpt>
      <trkpt lat="41.855022" lon="2.3291738">
        <time>2022-07-10T10:43:57Z</time>
      </trkpt>
      <trkpt lat="41.85493" lon="2.329176">
        <time>2022-07-10T10:43:58Z</time>
      </trkpt>
      <trkpt lat="41.85484" lon="2.3291826">
        <time>2022-07-10T10:43:59Z</time>
      </trkpt>
      <trkpt lat="41.854744" lon="2.3291917">
        <time>2022-07-10T10:44:00Z</time>
      </trkpt>
      <trkpt lat="41.854652" lon="2.329202">
        <time>2022-07-10T10:44:01Z</time>
      </trkpt>
      <trkpt lat="41.854557" lon="2.3292122">
        <time>2022-07-10T10:44:02Z</time>
      </trkpt>
      <trkpt lat="41.85446" lon="2.3292198">
        <time>2022-07-10T10:44:03Z</time>
      </trkpt>
      <trkpt lat="41.854366" lon="2.3292222">
        <time>2022-07-10T10:44:04Z</time>
      </trkpt>
      <trkpt lat="41.85427" lon="2.329216">
        <time>2022-07-10T10:44:05Z</time>
      </trkpt>
      <trkpt lat="41.854168" lon="2.3291993">
        <time>2022-07-10T10:44:06Z</time>
      </trkpt>
      <trkpt lat="41.85407" lon="2.3291762">
        <time>2022-07-10T10:44:07Z</time>
      </trkpt>
      <trkpt lat="41.85397" lon="2.329149">
        <time>2022-07-10T10:44:08Z</time>
      </trkpt>
      <trkpt lat="41.853874" lon="2.3291183">
        <time>2022-07-10T10:44:09Z</time>
      </trkpt>
      <trkpt lat="41.853783" lon="2.3290842">
        <time>2022-07-10T10:44:10Z</time>
      </trkpt>
      <trkpt lat="41.85369" lon="2.3290482">
        <time>2022-07-10T10:44:11Z</time>
      </trkpt>
      <trkpt lat="41.853603" lon="2.3290105">
        <time>2022-07-10T10:44:12Z</time>
      </trkpt>
      <trkpt lat="41.85351" lon="2.3289719">
        <time>2022-07-10T10:44:13Z</time>
      </trkpt>
      <trkpt lat="41.853416" lon="2.3289325">
        <time>2022-07-10T10:44:14Z</time>
      </trkpt>
      <trkpt lat="41.853325" lon="2.3288913">
        <time>2022-07-10T10:44:15Z</time>
      </trkpt>
      <trkpt lat="41.85323" lon="2.3288493">
        <time>2022-07-10T10:44:16Z</time>
      </trkpt>
      <trkpt lat="41.853138" lon="2.3288074">
        <time>2022-07-10T10:44:17Z</time>
      </trkpt>
      <trkpt lat="41.853043" lon="2.3287666">
        <time>2022-07-10T10:44:18Z</time>
      </trkpt>
      <trkpt lat="41.85296" lon="2.3287299">
        <time>2022-07-10T10:44:19Z</time>
      </trkpt>
      <trkpt lat="41.852875" lon="2.3286939">
        <time>2022-07-10T10:44:20Z</time>
      </trkpt>
      <trkpt lat="41.852787" lon="2.328657">
        <time>2022-07-10T10:44:21Z</time>
      </trkpt>
      <trkpt lat="41.852707" lon="2.328624">
        <time>2022-07-10T10:44:22Z</time>
      </trkpt>
      <trkpt lat="41.852634" lon="2.3285959">
        <time>2022-07-10T10:44:23Z</time>
      </trkpt>
      <trkpt lat="41.852573" lon="2.3285737">
        <time>2022-07-10T10:44:24Z</time>
      </trkpt>
      <trkpt lat="41.852524" lon="2.3285577">
        <time>2022-07-10T10:44:25Z</time>
      </trkpt>
      <trkpt lat="41.852463" lon="2.3285377">
        <time>2022-07-10T10:44:27Z</time>
      </trkpt>
      <trkpt lat="41.85236" lon="2.32864">
        <time>2022-07-10T10:44:41Z</time>
      </trkpt>
      <trkpt lat="41.85235" lon="2.3287232">
        <time>2022-07-10T10:44:43Z</time>
      </trkpt>
      <trkpt lat="41.85233" lon="2.3288202">
        <time>2022-07-10T10:44:45Z</time>
      </trkpt>
      <trkpt lat="41.852303" lon="2.3289273">
        <time>2022-07-10T10:44:47Z</time>
      </trkpt>
      <trkpt lat="41.852272" lon="2.3290453">
        <time>2022-07-10T10:44:49Z</time>
      </trkpt>
      <trkpt lat="41.852253" lon="2.3291075">
        <time>2022-07-10T10:44:50Z</time>
      </trkpt>
      <trkpt lat="41.852215" lon="2.3292372">
        <time>2022-07-10T10:44:52Z</time>
      </trkpt>
      <trkpt lat="41.852192" lon="2.3293042">
        <time>2022-07-10T10:44:53Z</time>
      </trkpt>
      <trkpt lat="41.852173" lon="2.3293734">
        <time>2022-07-10T10:44:54Z</time>
      </trkpt>
      <trkpt lat="41.852154" lon="2.3294442">
        <time>2022-07-10T10:44:55Z</time>
      </trkpt>
      <trkpt lat="41.85214" lon="2.329516">
        <time>2022-07-10T10:44:56Z</time>
      </trkpt>
      <trkpt lat="41.85212" lon="2.3295937">
        <time>2022-07-10T10:44:57Z</time>
      </trkpt>
      <trkpt lat="41.8521" lon="2.3296652">
        <time>2022-07-10T10:44:58Z</time>
      </trkpt>
      <trkpt lat="41.85208" lon="2.329742">
        <time>2022-07-10T10:44:59Z</time>
      </trkpt>
      <trkpt lat="41.85206" lon="2.3298123">
        <time>2022-07-10T10:45:00Z</time>
      </trkpt>
      <trkpt lat="41.85204" lon="2.3298886">
        <time>2022-07-10T10:45:01Z</time>
      </trkpt>
      <trkpt lat="41.852016" lon="2.3299599">
        <time>2022-07-10T10:45:02Z</time>
      </trkpt>
      <trkpt lat="41.851997" lon="2.3300333">
        <time>2022-07-10T10:45:03Z</time>
      </trkpt>
      <trkpt lat="41.851974" lon="2.330107">
        <time>2022-07-10T10:45:04Z</time>
      </trkpt>
      <trkpt lat="41.851955" lon="2.3301816">
        <time>2022-07-10T10:45:05Z</time>
      </trkpt>
      <trkpt lat="41.851936" lon="2.3302577">
        <time>2022-07-10T10:45:06Z</time>
      </trkpt>
      <trkpt lat="41.851917" lon="2.3303351">
        <time>2022-07-10T10:45:07Z</time>
      </trkpt>
      <trkpt lat="41.8519" lon="2.3304188">
        <time>2022-07-10T10:45:08Z</time>
      </trkpt>
      <trkpt lat="41.851887" lon="2.3304949">
        <time>2022-07-10T10:45:09Z</time>
      </trkpt>
      <trkpt lat="41.85187" lon="2.330572">
        <time>2022-07-10T10:45:10Z</time>
      </trkpt>
      <trkpt lat="41.85186" lon="2.3306499">
        <time>2022-07-10T10:45:11Z</time>
      </trkpt>
      <trkpt lat="41.851852" lon="2.3307312">
        <time>2022-07-10T10:45:12Z</time>
      </trkpt>
      <trkpt lat="41.851845" lon="2.330814">
        <time>2022-07-10T10:45:13Z</time>
      </trkpt>
      <trkpt lat="41.85184" lon="2.330897">
        <time>2022-07-10T10:45:14Z</time>
      </trkpt>
      <trkpt lat="41.85184" lon="2.3309798">
        <time>2022-07-10T10:45:15Z</time>
      </trkpt>
      <trkpt lat="41.851845" lon="2.331061">
        <time>2022-07-10T10:45:16Z</time>
      </trkpt>
      <trkpt lat="41.85185" lon="2.3311408">
        <time>2022-07-10T10:45:17Z</time>
      </trkpt>
      <trkpt lat="41.851852" lon="2.3312201">
        <time>2022-07-10T10:45:18Z</time>
      </trkpt>
      <trkpt lat="41.85186" lon="2.331298">
        <time>2022-07-10T10:45:19Z</time>
      </trkpt>
      <trkpt lat="41.851864" lon="2.3313744">
        <time>2022-07-10T10:45:20Z</time>
      </trkpt>
      <trkpt lat="41.851868" lon="2.3314512">
        <time>2022-07-10T10:45:21Z</time>
      </trkpt>
      <trkpt lat="41.851875" lon="2.331529">
        <time>2022-07-10T10:45:22Z</time>
      </trkpt>
      <trkpt lat="41.85188" lon="2.3316069">
        <time>2022-07-10T10:45:23Z</time>
      </trkpt>
      <trkpt lat="41.851883" lon="2.331685">
        <time>2022-07-10T10:45:24Z</time>
      </trkpt>
      <trkpt lat="41.851887" lon="2.3317637">
        <time>2022-07-10T10:45:25Z</time>
      </trkpt>
      <trkpt lat="41.851887" lon="2.3318422">
        <time>2022-07-10T10:45:26Z</time>
      </trkpt>
      <trkpt lat="41.85189" lon="2.3319218">
        <time>2022-07-10T10:45:27Z</time>
      </trkpt>
      <trkpt lat="41.85189" lon="2.3320007">
        <time>2022-07-10T10:45:28Z</time>
      </trkpt>
      <trkpt lat="41.851894" lon="2.3320801">
        <time>2022-07-10T10:45:29Z</time>
      </trkpt>
      <trkpt lat="41.851894" lon="2.3321607">
        <time>2022-07-10T10:45:30Z</time>
      </trkpt>
      <trkpt lat="41.85189" lon="2.3322432">
        <time>2022-07-10T10:45:31Z</time>
      </trkpt>
      <trkpt lat="41.85189" lon="2.3323264">
        <time>2022-07-10T10:45:32Z</time>
      </trkpt>
      <trkpt lat="41.851887" lon="2.332417">
        <time>2022-07-10T10:45:33Z</time>
      </trkpt>
      <trkpt lat="41.851883" lon="2.332502">
        <time>2022-07-10T10:45:34Z</time>
      </trkpt>
      <trkpt lat="41.851875" lon="2.3325868">
        <time>2022-07-10T10:45:35Z</time>
      </trkpt>
      <trkpt lat="41.851856" lon="2.3326714">
        <time>2022-07-10T10:45:36Z</time>
      </trkpt>
      <trkpt lat="41.851833" lon="2.332757">
        <time>2022-07-10T10:45:37Z</time>
      </trkpt>
      <trkpt lat="41.851807" lon="2.3328335">
        <time>2022-07-10T10:45:38Z</time>
      </trkpt>
      <trkpt lat="41.851776" lon="2.3329055">
        <time>2022-07-10T10:45:39Z</time>
      </trkpt>
      <trkpt lat="41.851734" lon="2.332977">
        <time>2022-07-10T10:45:40Z</time>
      </trkpt>
      <trkpt lat="41.8517" lon="2.3330398">
        <time>2022-07-10T10:45:41Z</time>
      </trkpt>
      <trkpt lat="41.851658" lon="2.3331037">
        <time>2022-07-10T10:45:42Z</time>
      </trkpt>
      <trkpt lat="41.851616" lon="2.3331597">
        <time>2022-07-10T10:45:43Z</time>
      </trkpt>
      <trkpt lat="41.85157" lon="2.3332071">
        <time>2022-07-10T10:45:44Z</time>
      </trkpt>
      <trkpt lat="41.851463" lon="2.3332684">
        <time>2022-07-10T10:45:46Z</time>
      </trkpt>
      <trkpt lat="41.851402" lon="2.3332784">
        <time>2022-07-10T10:45:47Z</time>
      </trkpt>
      <trkpt lat="41.851337" lon="2.333276">
        <time>2022-07-10T10:45:48Z</time>
      </trkpt>
      <trkpt lat="41.851276" lon="2.3332624">
        <time>2022-07-10T10:45:49Z</time>
      </trkpt>
      <trkpt lat="41.85121" lon="2.333239">
        <time>2022-07-10T10:45:50Z</time>
      </trkpt>
      <trkpt lat="41.851147" lon="2.333208">
        <time>2022-07-10T10:45:51Z</time>
      </trkpt>
      <trkpt lat="41.851086" lon="2.3331707">
        <time>2022-07-10T10:45:52Z</time>
      </trkpt>
      <trkpt lat="41.851025" lon="2.3331327">
        <time>2022-07-10T10:45:53Z</time>
      </trkpt>
      <trkpt lat="41.85096" lon="2.3330944">
        <time>2022-07-10T10:45:54Z</time>
      </trkpt>
      <trkpt lat="41.850895" lon="2.3330584">
        <time>2022-07-10T10:45:55Z</time>
      </trkpt>
      <trkpt lat="41.85082" lon="2.333027">
        <time>2022-07-10T10:45:56Z</time>
      </trkpt>
      <trkpt lat="41.850742" lon="2.3330014">
        <time>2022-07-10T10:45:57Z</time>
      </trkpt>
      <trkpt lat="41.85067" lon="2.3329864">
        <time>2022-07-10T10:45:58Z</time>
      </trkpt>
      <trkpt lat="41.85059" lon="2.3329804">
        <time>2022-07-10T10:45:59Z</time>
      </trkpt>
      <trkpt lat="41.85051" lon="2.3329828">
        <time>2022-07-10T10:46:00Z</time>
      </trkpt>
      <trkpt lat="41.85043" lon="2.332992">
        <time>2022-07-10T10:46:01Z</time>
      </trkpt>
      <trkpt lat="41.85035" lon="2.3330078">
        <time>2022-07-10T10:46:02Z</time>
      </trkpt>
      <trkpt lat="41.85027" lon="2.3330274">
        <time>2022-07-10T10:46:03Z</time>
      </trkpt>
      <trkpt lat="41.850193" lon="2.3330538">
        <time>2022-07-10T10:46:04Z</time>
      </trkpt>
      <trkpt lat="41.850124" lon="2.3330917">
        <time>2022-07-10T10:46:05Z</time>
      </trkpt>
      <trkpt lat="41.850067" lon="2.333143">
        <time>2022-07-10T10:46:06Z</time>
      </trkpt>
      <trkpt lat="41.850025" lon="2.3332083">
        <time>2022-07-10T10:46:07Z</time>
      </trkpt>
      <trkpt lat="41.85" lon="2.3332896">
        <time>2022-07-10T10:46:08Z</time>
      </trkpt>
      <trkpt lat="41.849987" lon="2.3333678">
        <time>2022-07-10T10:46:09Z</time>
      </trkpt>
      <trkpt lat="41.849995" lon="2.3334453">
        <time>2022-07-10T10:46:10Z</time>
      </trkpt>
      <trkpt lat="41.850018" lon="2.3335245">
        <time>2022-07-10T10:46:11Z</time>
      </trkpt>
      <trkpt lat="41.85005" lon="2.3336015">
        <time>2022-07-10T10:46:12Z</time>
      </trkpt>
      <trkpt lat="41.85009" lon="2.333673">
        <time>2022-07-10T10:46:13Z</time>
      </trkpt>
      <trkpt lat="41.850132" lon="2.3337371">
        <time>2022-07-10T10:46:14Z</time>
      </trkpt>
      <trkpt lat="41.85018" lon="2.3337948">
        <time>2022-07-10T10:46:15Z</time>
      </trkpt>
      <trkpt lat="41.850235" lon="2.3338504">
        <time>2022-07-10T10:46:16Z</time>
      </trkpt>
      <trkpt lat="41.850292" lon="2.3338954">
        <time>2022-07-10T10:46:17Z</time>
      </trkpt>
      <trkpt lat="41.850346" lon="2.3339386">
        <time>2022-07-10T10:46:18Z</time>
      </trkpt>
      <trkpt lat="41.850403" lon="2.33398">
        <time>2022-07-10T10:46:19Z</time>
      </trkpt>
      <trkpt lat="41.85046" lon="2.3340197">
        <time>2022-07-10T10:46:20Z</time>
      </trkpt>
      <trkpt lat="41.850517" lon="2.3340583">
        <time>2022-07-10T10:46:21Z</time>
      </trkpt>
      <trkpt lat="41.85058" lon="2.3340986">
        <time>2022-07-10T10:46:22Z</time>
      </trkpt>
      <trkpt lat="41.850636" lon="2.334135">
        <time>2022-07-10T10:46:23Z</time>
      </trkpt>
      <trkpt lat="41.850697" lon="2.3341713">
        <time>2022-07-10T10:46:24Z</time>
      </trkpt>
      <trkpt lat="41.850758" lon="2.334209">
        <time>2022-07-10T10:46:25Z</time>
      </trkpt>
      <trkpt lat="41.850822" lon="2.3342497">
        <time>2022-07-10T10:46:26Z</time>
      </trkpt>
      <trkpt lat="41.850883" lon="2.334294">
        <time>2022-07-10T10:46:27Z</time>
      </trkpt>
      <trkpt lat="41.850945" lon="2.3343434">
        <time>2022-07-10T10:46:28Z</time>
      </trkpt>
      <trkpt lat="41.851006" lon="2.3343983">
        <time>2022-07-10T10:46:29Z</time>
      </trkpt>
      <trkpt lat="41.851063" lon="2.3344603">
        <time>2022-07-10T10:46:30Z</time>
      </trkpt>
      <trkpt lat="41.85112" lon="2.334529">
        <time>2022-07-10T10:46:31Z</time>
      </trkpt>
      <trkpt lat="41.851177" lon="2.3346083">
        <time>2022-07-10T10:46:32Z</time>
      </trkpt>
      <trkpt lat="41.851227" lon="2.334686">
        <time>2022-07-10T10:46:33Z</time>
      </trkpt>
      <trkpt lat="41.85128" lon="2.3347666">
        <time>2022-07-10T10:46:34Z</time>
      </trkpt>
      <trkpt lat="41.85133" lon="2.3348513">
        <time>2022-07-10T10:46:35Z</time>
      </trkpt>
      <trkpt lat="41.851383" lon="2.3349392">
        <time>2022-07-10T10:46:36Z</time>
      </trkpt>
      <trkpt lat="41.851437" lon="2.3350348">
        <time>2022-07-10T10:46:37Z</time>
      </trkpt>
      <trkpt lat="41.851494" lon="2.3351302">
        <time>2022-07-10T10:46:38Z</time>
      </trkpt>
      <trkpt lat="41.851547" lon="2.3352203">
        <time>2022-07-10T10:46:39Z</time>
      </trkpt>
      <trkpt lat="41.8516" lon="2.3353195">
        <time>2022-07-10T10:46:40Z</time>
      </trkpt>
      <trkpt lat="41.851658" lon="2.3354206">
        <time>2022-07-10T10:46:41Z</time>
      </trkpt>
      <trkpt lat="41.85171" lon="2.3355222">
        <time>2022-07-10T10:46:42Z</time>
      </trkpt>
      <trkpt lat="41.85176" lon="2.3356242">
        <time>2022-07-10T10:46:43Z</time>
      </trkpt>
      <trkpt lat="41.851807" lon="2.3357193">
        <time>2022-07-10T10:46:44Z</time>
      </trkpt>
      <trkpt lat="41.851856" lon="2.335825">
        <time>2022-07-10T10:46:45Z</time>
      </trkpt>
      <trkpt lat="41.851906" lon="2.3359237">
        <time>2022-07-10T10:46:46Z</time>
      </trkpt>
      <trkpt lat="41.851955" lon="2.336031">
        <time>2022-07-10T10:46:47Z</time>
      </trkpt>
      <trkpt lat="41.852005" lon="2.3361382">
        <time>2022-07-10T10:46:48Z</time>
      </trkpt>
      <trkpt lat="41.852055" lon="2.3362377">
        <time>2022-07-10T10:46:49Z</time>
      </trkpt>
      <trkpt lat="41.852108" lon="2.3363461">
        <time>2022-07-10T10:46:50Z</time>
      </trkpt>
      <trkpt lat="41.85222" lon="2.3365595">
        <time>2022-07-10T10:46:52Z</time>
      </trkpt>
      <trkpt lat="41.85232" lon="2.336773">
        <time>2022-07-10T10:46:54Z</time>
      </trkpt>
      <trkpt lat="41.852375" lon="2.336881">
        <time>2022-07-10T10:46:55Z</time>
      </trkpt>
      <trkpt lat="41.852425" lon="2.336992">
        <time>2022-07-10T10:46:56Z</time>
      </trkpt>
      <trkpt lat="41.85247" lon="2.3371093">
        <time>2022-07-10T10:46:57Z</time>
      </trkpt>
      <trkpt lat="41.852512" lon="2.3372312">
        <time>2022-07-10T10:46:58Z</time>
      </trkpt>
      <trkpt lat="41.85254" lon="2.3373585">
        <time>2022-07-10T10:46:59Z</time>
      </trkpt>
      <trkpt lat="41.85256" lon="2.3374908">
        <time>2022-07-10T10:47:00Z</time>
      </trkpt>
      <trkpt lat="41.852573" lon="2.3376288">
        <time>2022-07-10T10:47:01Z</time>
      </trkpt>
      <trkpt lat="41.852585" lon="2.3377695">
        <time>2022-07-10T10:47:02Z</time>
      </trkpt>
      <trkpt lat="41.852596" lon="2.3379123">
        <time>2022-07-10T10:47:03Z</time>
      </trkpt>
      <trkpt lat="41.8526" lon="2.3380566">
        <time>2022-07-10T10:47:04Z</time>
      </trkpt>
      <trkpt lat="41.852604" lon="2.3382018">
        <time>2022-07-10T10:47:05Z</time>
      </trkpt>
      <trkpt lat="41.852608" lon="2.3383512">
        <time>2022-07-10T10:47:06Z</time>
      </trkpt>
      <trkpt lat="41.852604" lon="2.3385026">
        <time>2022-07-10T10:47:07Z</time>
      </trkpt>
      <trkpt lat="41.8526" lon="2.3386538">
        <time>2022-07-10T10:47:08Z</time>
      </trkpt>
      <trkpt lat="41.85259" lon="2.3388062">
        <time>2022-07-10T10:47:09Z</time>
      </trkpt>
      <trkpt lat="41.852577" lon="2.3389485">
        <time>2022-07-10T10:47:10Z</time>
      </trkpt>
      <trkpt lat="41.852562" lon="2.3391035">
        <time>2022-07-10T10:47:11Z</time>
      </trkpt>
      <trkpt lat="41.852547" lon="2.3392558">
        <time>2022-07-10T10:47:12Z</time>
      </trkpt>
      <trkpt lat="41.852535" lon="2.339407">
        <time>2022-07-10T10:47:13Z</time>
      </trkpt>
      <trkpt lat="41.85253" lon="2.3395555">
        <time>2022-07-10T10:47:14Z</time>
      </trkpt>
      <trkpt lat="41.85253" lon="2.3397028">
        <time>2022-07-10T10:47:15Z</time>
      </trkpt>
      <trkpt lat="41.85254" lon="2.339845">
        <time>2022-07-10T10:47:16Z</time>
      </trkpt>
      <trkpt lat="41.85256" lon="2.3399825">
        <time>2022-07-10T10:47:17Z</time>
      </trkpt>
      <trkpt lat="41.85258" lon="2.3401158">
        <time>2022-07-10T10:47:18Z</time>
      </trkpt>
      <trkpt lat="41.852604" lon="2.3402457">
        <time>2022-07-10T10:47:19Z</time>
      </trkpt>
      <trkpt lat="41.852627" lon="2.3403733">
        <time>2022-07-10T10:47:20Z</time>
      </trkpt>
      <trkpt lat="41.85265" lon="2.3404982">
        <time>2022-07-10T10:47:21Z</time>
      </trkpt>
      <trkpt lat="41.852673" lon="2.3406212">
        <time>2022-07-10T10:47:22Z</time>
      </trkpt>
      <trkpt lat="41.85269" lon="2.3407428">
        <time>2022-07-10T10:47:23Z</time>
      </trkpt>
      <trkpt lat="41.852703" lon="2.3408642">
        <time>2022-07-10T10:47:24Z</time>
      </trkpt>
      <trkpt lat="41.85271" lon="2.3409839">
        <time>2022-07-10T10:47:25Z</time>
      </trkpt>
      <trkpt lat="41.852715" lon="2.3411021">
        <time>2022-07-10T10:47:26Z</time>
      </trkpt>
      <trkpt lat="41.85271" lon="2.3412192">
        <time>2022-07-10T10:47:27Z</time>
      </trkpt>
      <trkpt lat="41.852707" lon="2.341334">
        <time>2022-07-10T10:47:28Z</time>
      </trkpt>
      <trkpt lat="41.852703" lon="2.3414469">
        <time>2022-07-10T10:47:29Z</time>
      </trkpt>
      <trkpt lat="41.852695" lon="2.3415601">
        <time>2022-07-10T10:47:30Z</time>
      </trkpt>
      <trkpt lat="41.852688" lon="2.3416731">
        <time>2022-07-10T10:47:31Z</time>
      </trkpt>
      <trkpt lat="41.85268" lon="2.3417845">
        <time>2022-07-10T10:47:32Z</time>
      </trkpt>
      <trkpt lat="41.852673" lon="2.341895">
        <time>2022-07-10T10:47:33Z</time>
      </trkpt>
      <trkpt lat="41.85267" lon="2.3420072">
        <time>2022-07-10T10:47:34Z</time>
      </trkpt>
      <trkpt lat="41.85267" lon="2.3421187">
        <time>2022-07-10T10:47:35Z</time>
      </trkpt>
      <trkpt lat="41.85267" lon="2.3422308">
        <time>2022-07-10T10:47:36Z</time>
      </trkpt>
      <trkpt lat="41.852676" lon="2.342344">
        <time>2022-07-10T10:47:37Z</time>
      </trkpt>
      <trkpt lat="41.85269" lon="2.3424578">
        <time>2022-07-10T10:47:38Z</time>
      </trkpt>
      <trkpt lat="41.852715" lon="2.3425725">
        <time>2022-07-10T10:47:39Z</time>
      </trkpt>
      <trkpt lat="41.85274" lon="2.3426867">
        <time>2022-07-10T10:47:40Z</time>
      </trkpt>
      <trkpt lat="41.852776" lon="2.3428018">
        <time>2022-07-10T10:47:41Z</time>
      </trkpt>
      <trkpt lat="41.85281" lon="2.3429182">
        <time>2022-07-10T10:47:42Z</time>
      </trkpt>
      <trkpt lat="41.852844" lon="2.3430264">
        <time>2022-07-10T10:47:43Z</time>
      </trkpt>
      <trkpt lat="41.852886" lon="2.343147">
        <time>2022-07-10T10:47:44Z</time>
      </trkpt>
      <trkpt lat="41.85293" lon="2.3432674">
        <time>2022-07-10T10:47:45Z</time>
      </trkpt>
      <trkpt lat="41.852974" lon="2.3433883">
        <time>2022-07-10T10:47:46Z</time>
      </trkpt>
      <trkpt lat="41.85302" lon="2.3435102">
        <time>2022-07-10T10:47:47Z</time>
      </trkpt>
      <trkpt lat="41.853065" lon="2.3436332">
        <time>2022-07-10T10:47:48Z</time>
      </trkpt>
      <trkpt lat="41.85311" lon="2.3437576">
        <time>2022-07-10T10:47:49Z</time>
      </trkpt>
      <trkpt lat="41.85316" lon="2.3438818">
        <time>2022-07-10T10:47:50Z</time>
      </trkpt>
      <trkpt lat="41.853207" lon="2.3440053">
        <time>2022-07-10T10:47:51Z</time>
      </trkpt>
      <trkpt lat="41.853256" lon="2.3441298">
        <time>2022-07-10T10:47:52Z</time>
      </trkpt>
      <trkpt lat="41.853306" lon="2.3442557">
        <time>2022-07-10T10:47:53Z</time>
      </trkpt>
      <trkpt lat="41.853355" lon="2.3443828">
        <time>2022-07-10T10:47:54Z</time>
      </trkpt>
      <trkpt lat="41.85341" lon="2.34451">
        <time>2022-07-10T10:47:55Z</time>
      </trkpt>
      <trkpt lat="41.85351" lon="2.3447695">
        <time>2022-07-10T10:47:57Z</time>
      </trkpt>
      <trkpt lat="41.853558" lon="2.3448908">
        <time>2022-07-10T10:47:58Z</time>
      </trkpt>
      <trkpt lat="41.853603" lon="2.345012">
        <time>2022-07-10T10:47:59Z</time>
      </trkpt>
      <trkpt lat="41.85365" lon="2.345134">
        <time>2022-07-10T10:48:00Z</time>
      </trkpt>
      <trkpt lat="41.853687" lon="2.345257">
        <time>2022-07-10T10:48:01Z</time>
      </trkpt>
      <trkpt lat="41.853718" lon="2.34538">
        <time>2022-07-10T10:48:02Z</time>
      </trkpt>
      <trkpt lat="41.853737" lon="2.345504">
        <time>2022-07-10T10:48:03Z</time>
      </trkpt>
      <trkpt lat="41.85375" lon="2.3456287">
        <time>2022-07-10T10:48:04Z</time>
      </trkpt>
      <trkpt lat="41.85375" lon="2.3457491">
        <time>2022-07-10T10:48:05Z</time>
      </trkpt>
      <trkpt lat="41.85375" lon="2.3458765">
        <time>2022-07-10T10:48:06Z</time>
      </trkpt>
      <trkpt lat="41.85374" lon="2.3460004">
        <time>2022-07-10T10:48:07Z</time>
      </trkpt>
      <trkpt lat="41.853737" lon="2.3461213">
        <time>2022-07-10T10:48:08Z</time>
      </trkpt>
      <trkpt lat="41.853737" lon="2.3462436">
        <time>2022-07-10T10:48:09Z</time>
      </trkpt>
      <trkpt lat="41.85374" lon="2.346365">
        <time>2022-07-10T10:48:10Z</time>
      </trkpt>
      <trkpt lat="41.853745" lon="2.3464844">
        <time>2022-07-10T10:48:11Z</time>
      </trkpt>
      <trkpt lat="41.853752" lon="2.3465936">
        <time>2022-07-10T10:48:12Z</time>
      </trkpt>
      <trkpt lat="41.853756" lon="2.3467104">
        <time>2022-07-10T10:48:13Z</time>
      </trkpt>
      <trkpt lat="41.853764" lon="2.346823">
        <time>2022-07-10T10:48:14Z</time>
      </trkpt>
      <trkpt lat="41.85377" lon="2.3469326">
        <time>2022-07-10T10:48:15Z</time>
      </trkpt>
      <trkpt lat="41.853775" lon="2.3470337">
        <time>2022-07-10T10:48:16Z</time>
      </trkpt>
      <trkpt lat="41.85378" lon="2.347135">
        <time>2022-07-10T10:48:17Z</time>
      </trkpt>
      <trkpt lat="41.853786" lon="2.3472397">
        <time>2022-07-10T10:48:18Z</time>
      </trkpt>
      <trkpt lat="41.853798" lon="2.347341">
        <time>2022-07-10T10:48:19Z</time>
      </trkpt>
      <trkpt lat="41.85381" lon="2.3474393">
        <time>2022-07-10T10:48:20Z</time>
      </trkpt>
      <trkpt lat="41.85382" lon="2.347535">
        <time>2022-07-10T10:48:21Z</time>
      </trkpt>
      <trkpt lat="41.853832" lon="2.3476267">
        <time>2022-07-10T10:48:22Z</time>
      </trkpt>
      <trkpt lat="41.85384" lon="2.3477175">
        <time>2022-07-10T10:48:23Z</time>
      </trkpt>
      <trkpt lat="41.853848" lon="2.3478024">
        <time>2022-07-10T10:48:24Z</time>
      </trkpt>
      <trkpt lat="41.853855" lon="2.3478887">
        <time>2022-07-10T10:48:25Z</time>
      </trkpt>
      <trkpt lat="41.853863" lon="2.347983">
        <time>2022-07-10T10:48:26Z</time>
      </trkpt>
      <trkpt lat="41.85387" lon="2.3480697">
        <time>2022-07-10T10:48:27Z</time>
      </trkpt>
      <trkpt lat="41.85388" lon="2.3481634">
        <time>2022-07-10T10:48:28Z</time>
      </trkpt>
      <trkpt lat="41.853897" lon="2.3482573">
        <time>2022-07-10T10:48:29Z</time>
      </trkpt>
      <trkpt lat="41.853912" lon="2.3483489">
        <time>2022-07-10T10:48:30Z</time>
      </trkpt>
      <trkpt lat="41.853928" lon="2.3484333">
        <time>2022-07-10T10:48:31Z</time>
      </trkpt>
      <trkpt lat="41.853954" lon="2.3485234">
        <time>2022-07-10T10:48:32Z</time>
      </trkpt>
      <trkpt lat="41.85398" lon="2.3486118">
        <time>2022-07-10T10:48:33Z</time>
      </trkpt>
      <trkpt lat="41.85401" lon="2.3487012">
        <time>2022-07-10T10:48:34Z</time>
      </trkpt>
      <trkpt lat="41.854042" lon="2.3487852">
        <time>2022-07-10T10:48:35Z</time>
      </trkpt>
      <trkpt lat="41.854073" lon="2.3488765">
        <time>2022-07-10T10:48:36Z</time>
      </trkpt>
      <trkpt lat="41.8541" lon="2.3489623">
        <time>2022-07-10T10:48:37Z</time>
      </trkpt>
      <trkpt lat="41.854134" lon="2.3490546">
        <time>2022-07-10T10:48:38Z</time>
      </trkpt>
      <trkpt lat="41.854168" lon="2.3491452">
        <time>2022-07-10T10:48:39Z</time>
      </trkpt>
      <trkpt lat="41.8542" lon="2.349228">
        <time>2022-07-10T10:48:40Z</time>
      </trkpt>
      <trkpt lat="41.854237" lon="2.3493094">
        <time>2022-07-10T10:48:41Z</time>
      </trkpt>
      <trkpt lat="41.85428" lon="2.3493872">
        <time>2022-07-10T10:48:42Z</time>
      </trkpt>
      <trkpt lat="41.85433" lon="2.349459">
        <time>2022-07-10T10:48:43Z</time>
      </trkpt>
      <trkpt lat="41.854385" lon="2.3495238">
        <time>2022-07-10T10:48:44Z</time>
      </trkpt>
      <trkpt lat="41.854446" lon="2.3495853">
        <time>2022-07-10T10:48:45Z</time>
      </trkpt>
      <trkpt lat="41.854515" lon="2.3496459">
        <time>2022-07-10T10:48:46Z</time>
      </trkpt>
      <trkpt lat="41.85458" lon="2.3497093">
        <time>2022-07-10T10:48:47Z</time>
      </trkpt>
      <trkpt lat="41.85465" lon="2.3497782">
        <time>2022-07-10T10:48:48Z</time>
      </trkpt>
      <trkpt lat="41.854713" lon="2.349855">
        <time>2022-07-10T10:48:49Z</time>
      </trkpt>
      <trkpt lat="41.854774" lon="2.3499382">
        <time>2022-07-10T10:48:50Z</time>
      </trkpt>
      <trkpt lat="41.854836" lon="2.350027">
        <time>2022-07-10T10:48:51Z</time>
      </trkpt>
      <trkpt lat="41.854897" lon="2.3501205">
        <time>2022-07-10T10:48:52Z</time>
      </trkpt>
      <trkpt lat="41.854954" lon="2.350216">
        <time>2022-07-10T10:48:53Z</time>
      </trkpt>
      <trkpt lat="41.855015" lon="2.3503098">
        <time>2022-07-10T10:48:54Z</time>
      </trkpt>
      <trkpt lat="41.85508" lon="2.3503985">
        <time>2022-07-10T10:48:55Z</time>
      </trkpt>
      <trkpt lat="41.85515" lon="2.3504767">
        <time>2022-07-10T10:48:56Z</time>
      </trkpt>
      <trkpt lat="41.855225" lon="2.3505425">
        <time>2022-07-10T10:48:57Z</time>
      </trkpt>
      <trkpt lat="41.855305" lon="2.3505945">
        <time>2022-07-10T10:48:58Z</time>
      </trkpt>
      <trkpt lat="41.85539" lon="2.3506384">
        <time>2022-07-10T10:48:59Z</time>
      </trkpt>
      <trkpt lat="41.855473" lon="2.35068">
        <time>2022-07-10T10:49:00Z</time>
      </trkpt>
      <trkpt lat="41.85556" lon="2.3507235">
        <time>2022-07-10T10:49:01Z</time>
      </trkpt>
      <trkpt lat="41.855743" lon="2.3508205">
        <time>2022-07-10T10:49:03Z</time>
      </trkpt>
      <trkpt lat="41.855835" lon="2.3508775">
        <time>2022-07-10T10:49:04Z</time>
      </trkpt>
      <trkpt lat="41.855923" lon="2.3509407">
        <time>2022-07-10T10:49:05Z</time>
      </trkpt>
      <trkpt lat="41.85601" lon="2.3510094">
        <time>2022-07-10T10:49:06Z</time>
      </trkpt>
      <trkpt lat="41.856094" lon="2.3510826">
        <time>2022-07-10T10:49:07Z</time>
      </trkpt>
      <trkpt lat="41.85618" lon="2.3511584">
        <time>2022-07-10T10:49:08Z</time>
      </trkpt>
      <trkpt lat="41.856266" lon="2.3512359">
        <time>2022-07-10T10:49:09Z</time>
      </trkpt>
      <trkpt lat="41.856354" lon="2.351313">
        <time>2022-07-10T10:49:10Z</time>
      </trkpt>
      <trkpt lat="41.856434" lon="2.3513858">
        <time>2022-07-10T10:49:11Z</time>
      </trkpt>
      <trkpt lat="41.856518" lon="2.3514655">
        <time>2022-07-10T10:49:12Z</time>
      </trkpt>
      <trkpt lat="41.8566" lon="2.351545">
        <time>2022-07-10T10:49:13Z</time>
      </trkpt>
      <trkpt lat="41.85668" lon="2.3516197">
        <time>2022-07-10T10:49:14Z</time>
      </trkpt>
      <trkpt lat="41.856762" lon="2.351696">
        <time>2022-07-10T10:49:15Z</time>
      </trkpt>
      <trkpt lat="41.856846" lon="2.3517785">
        <time>2022-07-10T10:49:16Z</time>
      </trkpt>
      <trkpt lat="41.856934" lon="2.35186">
        <time>2022-07-10T10:49:17Z</time>
      </trkpt>
      <trkpt lat="41.857018" lon="2.3519418">
        <time>2022-07-10T10:49:18Z</time>
      </trkpt>
      <trkpt lat="41.8571" lon="2.3520234">
        <time>2022-07-10T10:49:19Z</time>
      </trkpt>
      <trkpt lat="41.857185" lon="2.3521044">
        <time>2022-07-10T10:49:20Z</time>
      </trkpt>
      <trkpt lat="41.857265" lon="2.3521845">
        <time>2022-07-10T10:49:21Z</time>
      </trkpt>
      <trkpt lat="41.85734" lon="2.3522625">
        <time>2022-07-10T10:49:22Z</time>
      </trkpt>
      <trkpt lat="41.857418" lon="2.3523395">
        <time>2022-07-10T10:49:23Z</time>
      </trkpt>
      <trkpt lat="41.85749" lon="2.3524148">
        <time>2022-07-10T10:49:24Z</time>
      </trkpt>
      <trkpt lat="41.85756" lon="2.352488">
        <time>2022-07-10T10:49:25Z</time>
      </trkpt>
      <trkpt lat="41.85763" lon="2.3525567">
        <time>2022-07-10T10:49:26Z</time>
      </trkpt>
      <trkpt lat="41.857697" lon="2.3526237">
        <time>2022-07-10T10:49:27Z</time>
      </trkpt>
      <trkpt lat="41.85776" lon="2.3526895">
        <time>2022-07-10T10:49:28Z</time>
      </trkpt>
      <trkpt lat="41.857826" lon="2.3527553">
        <time>2022-07-10T10:49:29Z</time>
      </trkpt>
      <trkpt lat="41.85788" lon="2.3528228">
        <time>2022-07-10T10:49:30Z</time>
      </trkpt>
      <trkpt lat="41.85793" lon="2.352893">
        <time>2022-07-10T10:49:31Z</time>
      </trkpt>
      <trkpt lat="41.857964" lon="2.3529663">
        <time>2022-07-10T10:49:32Z</time>
      </trkpt>
      <trkpt lat="41.857986" lon="2.3530405">
        <time>2022-07-10T10:49:33Z</time>
      </trkpt>
      <trkpt lat="41.857994" lon="2.3531127">
        <time>2022-07-10T10:49:34Z</time>
      </trkpt>
      <trkpt lat="41.857994" lon="2.3531814">
        <time>2022-07-10T10:49:35Z</time>
      </trkpt>
      <trkpt lat="41.857986" lon="2.3532474">
        <time>2022-07-10T10:49:36Z</time>
      </trkpt>
      <trkpt lat="41.857964" lon="2.3533723">
        <time>2022-07-10T10:49:38Z</time>
      </trkpt>
      <trkpt lat="41.857925" lon="2.3534875">
        <time>2022-07-10T10:49:40Z</time>
      </trkpt>
      <trkpt lat="41.857906" lon="2.3535414">
        <time>2022-07-10T10:49:41Z</time>
      </trkpt>
      <trkpt lat="41.857872" lon="2.3536394">
        <time>2022-07-10T10:49:43Z</time>
      </trkpt>
      <trkpt lat="41.85783" lon="2.353734">
        <time>2022-07-10T10:49:45Z</time>
      </trkpt>
      <trkpt lat="41.85779" lon="2.3538284">
        <time>2022-07-10T10:49:47Z</time>
      </trkpt>
      <trkpt lat="41.857758" lon="2.353919">
        <time>2022-07-10T10:49:49Z</time>
      </trkpt>
      <trkpt lat="41.857723" lon="2.354003">
        <time>2022-07-10T10:49:51Z</time>
      </trkpt>
      <trkpt lat="41.857693" lon="2.354088">
        <time>2022-07-10T10:49:53Z</time>
      </trkpt>
      <trkpt lat="41.85766" lon="2.3541734">
        <time>2022-07-10T10:49:55Z</time>
      </trkpt>
      <trkpt lat="41.857628" lon="2.354256">
        <time>2022-07-10T10:49:57Z</time>
      </trkpt>
      <trkpt lat="41.857594" lon="2.354335">
        <time>2022-07-10T10:49:59Z</time>
      </trkpt>
      <trkpt lat="41.85756" lon="2.3544114">
        <time>2022-07-10T10:50:01Z</time>
      </trkpt>
      <trkpt lat="41.857525" lon="2.3544893">
        <time>2022-07-10T10:50:03Z</time>
      </trkpt>
      <trkpt lat="41.857475" lon="2.354604">
        <time>2022-07-10T10:50:06Z</time>
      </trkpt>
      <trkpt lat="41.857445" lon="2.354679">
        <time>2022-07-10T10:50:08Z</time>
      </trkpt>
      <trkpt lat="41.857414" lon="2.354755">
        <time>2022-07-10T10:50:10Z</time>
      </trkpt>
      <trkpt lat="41.857384" lon="2.354827">
        <time>2022-07-10T10:50:12Z</time>
      </trkpt>
      <trkpt lat="41.857353" lon="2.3549023">
        <time>2022-07-10T10:50:14Z</time>
      </trkpt>
      <trkpt lat="41.857323" lon="2.3549764">
        <time>2022-07-10T10:50:16Z</time>
      </trkpt>
      <trkpt lat="41.857296" lon="2.3550513">
        <time>2022-07-10T10:50:18Z</time>
      </trkpt>
      <trkpt lat="41.857265" lon="2.3551292">
        <time>2022-07-10T10:50:20Z</time>
      </trkpt>
      <trkpt lat="41.857235" lon="2.355215">
        <time>2022-07-10T10:50:22Z</time>
      </trkpt>
      <trkpt lat="41.857204" lon="2.3552964">
        <time>2022-07-10T10:50:24Z</time>
      </trkpt>
      <trkpt lat="41.85717" lon="2.355377">
        <time>2022-07-10T10:50:26Z</time>
      </trkpt>
      <trkpt lat="41.857132" lon="2.355455">
        <time>2022-07-10T10:50:28Z</time>
      </trkpt>
      <trkpt lat="41.857086" lon="2.355538">
        <time>2022-07-10T10:50:30Z</time>
      </trkpt>
      <trkpt lat="41.857037" lon="2.35561">
        <time>2022-07-10T10:50:32Z</time>
      </trkpt>
      <trkpt lat="41.85698" lon="2.3556733">
        <time>2022-07-10T10:50:34Z</time>
      </trkpt>
      <trkpt lat="41.856922" lon="2.3557296">
        <time>2022-07-10T10:50:36Z</time>
      </trkpt>
      <trkpt lat="41.856857" lon="2.3557737">
        <time>2022-07-10T10:50:38Z</time>
      </trkpt>
      <trkpt lat="41.856792" lon="2.355807">
        <time>2022-07-10T10:50:40Z</time>
      </trkpt>
      <trkpt lat="41.856724" lon="2.3558383">
        <time>2022-07-10T10:50:42Z</time>
      </trkpt>
      <trkpt lat="41.856655" lon="2.3558674">
        <time>2022-07-10T10:50:44Z</time>
      </trkpt>
      <trkpt lat="41.856583" lon="2.355898">
        <time>2022-07-10T10:50:46Z</time>
      </trkpt>
      <trkpt lat="41.856518" lon="2.3559287">
        <time>2022-07-10T10:50:48Z</time>
      </trkpt>
      <trkpt lat="41.85645" lon="2.355953">
        <time>2022-07-10T10:50:50Z</time>
      </trkpt>
      <trkpt lat="41.856377" lon="2.355975">
        <time>2022-07-10T10:50:52Z</time>
      </trkpt>
      <trkpt lat="41.8563" lon="2.3560066">
        <time>2022-07-10T10:50:54Z</time>
      </trkpt>
      <trkpt lat="41.85622" lon="2.35604">
        <time>2022-07-10T10:50:56Z</time>
      </trkpt>
      <trkpt lat="41.856144" lon="2.3560722">
        <time>2022-07-10T10:50:58Z</time>
      </trkpt>
      <trkpt lat="41.856064" lon="2.3560972">
        <time>2022-07-10T10:51:00Z</time>
      </trkpt>
      <trkpt lat="41.85598" lon="2.356096">
        <time>2022-07-10T10:51:02Z</time>
      </trkpt>
      <trkpt lat="41.855907" lon="2.3560622">
        <time>2022-07-10T10:51:04Z</time>
      </trkpt>
      <trkpt lat="41.855843" lon="2.3560102">
        <time>2022-07-10T10:51:06Z</time>
      </trkpt>
      <trkpt lat="41.855785" lon="2.355956">
        <time>2022-07-10T10:51:08Z</time>
      </trkpt>
      <trkpt lat="41.85573" lon="2.3558955">
        <time>2022-07-10T10:51:10Z</time>
      </trkpt>
      <trkpt lat="41.855667" lon="2.35583">
        <time>2022-07-10T10:51:12Z</time>
      </trkpt>
      <trkpt lat="41.855602" lon="2.3557696">
        <time>2022-07-10T10:51:14Z</time>
      </trkpt>
      <trkpt lat="41.85553" lon="2.355732">
        <time>2022-07-10T10:51:16Z</time>
      </trkpt>
      <trkpt lat="41.855457" lon="2.3556962">
        <time>2022-07-10T10:51:18Z</time>
      </trkpt>
      <trkpt lat="41.85539" lon="2.3556802">
        <time>2022-07-10T10:51:20Z</time>
      </trkpt>
      <trkpt lat="41.855324" lon="2.3556848">
        <time>2022-07-10T10:51:22Z</time>
      </trkpt>
      <trkpt lat="41.85525" lon="2.355713">
        <time>2022-07-10T10:51:24Z</time>
      </trkpt>
      <trkpt lat="41.855183" lon="2.3557403">
        <time>2022-07-10T10:51:26Z</time>
      </trkpt>
      <trkpt lat="41.855118" lon="2.3557715">
        <time>2022-07-10T10:51:28Z</time>
      </trkpt>
      <trkpt lat="41.85506" lon="2.3558064">
        <time>2022-07-10T10:51:30Z</time>
      </trkpt>
      <trkpt lat="41.855" lon="2.3558443">
        <time>2022-07-10T10:51:32Z</time>
      </trkpt>
      <trkpt lat="41.854935" lon="2.3558853">
        <time>2022-07-10T10:51:34Z</time>
      </trkpt>
      <trkpt lat="41.854874" lon="2.355922">
        <time>2022-07-10T10:51:36Z</time>
      </trkpt>
      <trkpt lat="41.854816" lon="2.3559544">
        <time>2022-07-10T10:51:38Z</time>
      </trkpt>
      <trkpt lat="41.854755" lon="2.3559806">
        <time>2022-07-10T10:51:40Z</time>
      </trkpt>
      <trkpt lat="41.854687" lon="2.356003">
        <time>2022-07-10T10:51:42Z</time>
      </trkpt>
      <trkpt lat="41.85462" lon="2.3560174">
        <time>2022-07-10T10:51:44Z</time>
      </trkpt>
      <trkpt lat="41.85455" lon="2.3560312">
        <time>2022-07-10T10:51:46Z</time>
      </trkpt>
      <trkpt lat="41.85449" lon="2.3560412">
        <time>2022-07-10T10:51:48Z</time>
      </trkpt>
      <trkpt lat="41.854424" lon="2.3560517">
        <time>2022-07-10T10:51:50Z</time>
      </trkpt>
      <trkpt lat="41.85436" lon="2.356061">
        <time>2022-07-10T10:51:52Z</time>
      </trkpt>
      <trkpt lat="41.8543" lon="2.3560684">
        <time>2022-07-10T10:51:54Z</time>
      </trkpt>
      <trkpt lat="41.854248" lon="2.3560739">
        <time>2022-07-10T10:51:56Z</time>
      </trkpt>
      <trkpt lat="41.854195" lon="2.3560793">
        <time>2022-07-10T10:51:58Z</time>
      </trkpt>
      <trkpt lat="41.85411" lon="2.3560894">
        <time>2022-07-10T10:52:01Z</time>
      </trkpt>
      <trkpt lat="41.854057" lon="2.3560913">
        <time>2022-07-10T10:52:03Z</time>
      </trkpt>
      <trkpt lat="41.85398" lon="2.3560946">
        <time>2022-07-10T10:52:06Z</time>
      </trkpt>
      <trkpt lat="41.85393" lon="2.3560996">
        <time>2022-07-10T10:52:08Z</time>
      </trkpt>
      <trkpt lat="41.85388" lon="2.356108">
        <time>2022-07-10T10:52:10Z</time>
      </trkpt>
      <trkpt lat="41.85382" lon="2.3561323">
        <time>2022-07-10T10:52:13Z</time>
      </trkpt>
      <trkpt lat="41.853767" lon="2.3561852">
        <time>2022-07-10T10:52:16Z</time>
      </trkpt>
      <trkpt lat="41.853725" lon="2.3562596">
        <time>2022-07-10T10:52:19Z</time>
      </trkpt>
      <trkpt lat="41.853714" lon="2.3563528">
        <time>2022-07-10T10:52:22Z</time>
      </trkpt>
      <trkpt lat="41.85372" lon="2.3564541">
        <time>2022-07-10T10:52:25Z</time>
      </trkpt>
      <trkpt lat="41.85372" lon="2.3565218">
        <time>2022-07-10T10:52:27Z</time>
      </trkpt>
      <trkpt lat="41.853718" lon="2.3566208">
        <time>2022-07-10T10:52:30Z</time>
      </trkpt>
      <trkpt lat="41.853718" lon="2.3567152">
        <time>2022-07-10T10:52:33Z</time>
      </trkpt>
      <trkpt lat="41.85372" lon="2.3568108">
        <time>2022-07-10T10:52:36Z</time>
      </trkpt>
      <trkpt lat="41.853745" lon="2.3569093">
        <time>2022-07-10T10:52:39Z</time>
      </trkpt>
      <trkpt lat="41.85376" lon="2.356973">
        <time>2022-07-10T10:52:41Z</time>
      </trkpt>
      <trkpt lat="41.85378" lon="2.357067">
        <time>2022-07-10T10:52:44Z</time>
      </trkpt>
      <trkpt lat="41.853798" lon="2.3571572">
        <time>2022-07-10T10:52:47Z</time>
      </trkpt>
      <trkpt lat="41.85382" lon="2.3572466">
        <time>2022-07-10T10:52:50Z</time>
      </trkpt>
      <trkpt lat="41.85384" lon="2.3573425">
        <time>2022-07-10T10:52:53Z</time>
      </trkpt>
      <trkpt lat="41.853855" lon="2.3574378">
        <time>2022-07-10T10:52:56Z</time>
      </trkpt>
      <trkpt lat="41.853863" lon="2.357533">
        <time>2022-07-10T10:52:59Z</time>
      </trkpt>
      <trkpt lat="41.853867" lon="2.3576286">
        <time>2022-07-10T10:53:02Z</time>
      </trkpt>
      <trkpt lat="41.853863" lon="2.357726">
        <time>2022-07-10T10:53:05Z</time>
      </trkpt>
      <trkpt lat="41.85386" lon="2.3578224">
        <time>2022-07-10T10:53:08Z</time>
      </trkpt>
      <trkpt lat="41.853855" lon="2.3578894">
        <time>2022-07-10T10:53:10Z</time>
      </trkpt>
      <trkpt lat="41.853848" lon="2.3579826">
        <time>2022-07-10T10:53:13Z</time>
      </trkpt>
      <trkpt lat="41.85384" lon="2.358075">
        <time>2022-07-10T10:53:16Z</time>
      </trkpt>
      <trkpt lat="41.85383" lon="2.3581705">
        <time>2022-07-10T10:53:19Z</time>
      </trkpt>
      <trkpt lat="41.85382" lon="2.3582644">
        <time>2022-07-10T10:53:22Z</time>
      </trkpt>
      <trkpt lat="41.853817" lon="2.3583586">
        <time>2022-07-10T10:53:25Z</time>
      </trkpt>
      <trkpt lat="41.853806" lon="2.3584561">
        <time>2022-07-10T10:53:28Z</time>
      </trkpt>
      <trkpt lat="41.853794" lon="2.3585546">
        <time>2022-07-10T10:53:31Z</time>
      </trkpt>
      <trkpt lat="41.853786" lon="2.3586211">
        <time>2022-07-10T10:53:33Z</time>
      </trkpt>
      <trkpt lat="41.85377" lon="2.3587213">
        <time>2022-07-10T10:53:36Z</time>
      </trkpt>
      <trkpt lat="41.853756" lon="2.3587883">
        <time>2022-07-10T10:53:38Z</time>
      </trkpt>
      <trkpt lat="41.853733" lon="2.3588881">
        <time>2022-07-10T10:53:41Z</time>
      </trkpt>
      <trkpt lat="41.853714" lon="2.3589532">
        <time>2022-07-10T10:53:43Z</time>
      </trkpt>
      <trkpt lat="41.8537" lon="2.3590178">
        <time>2022-07-10T10:53:45Z</time>
      </trkpt>
      <trkpt lat="41.85368" lon="2.3590822">
        <time>2022-07-10T10:53:47Z</time>
      </trkpt>
      <trkpt lat="41.85365" lon="2.3591747">
        <time>2022-07-10T10:53:50Z</time>
      </trkpt>
      <trkpt lat="41.853626" lon="2.3592715">
        <time>2022-07-10T10:53:53Z</time>
      </trkpt>
      <trkpt lat="41.85361" lon="2.3593395">
        <time>2022-07-10T10:53:55Z</time>
      </trkpt>
      <trkpt lat="41.853607" lon="2.3594131">
        <time>2022-07-10T10:53:57Z</time>
      </trkpt>
      <trkpt lat="41.85361" lon="2.3594851">
        <time>2022-07-10T10:53:59Z</time>
      </trkpt>
      <trkpt lat="41.853622" lon="2.3595605">
        <time>2022-07-10T10:54:01Z</time>
      </trkpt>
      <trkpt lat="41.853634" lon="2.3596368">
        <time>2022-07-10T10:54:03Z</time>
      </trkpt>
      <trkpt lat="41.853645" lon="2.3597102">
        <time>2022-07-10T10:54:05Z</time>
      </trkpt>
      <trkpt lat="41.853653" lon="2.3597772">
        <time>2022-07-10T10:54:07Z</time>
      </trkpt>
      <trkpt lat="41.85368" lon="2.3598585">
        <time>2022-07-10T10:54:10Z</time>
      </trkpt>
      <trkpt lat="41.853706" lon="2.359918">
        <time>2022-07-10T10:54:13Z</time>
      </trkpt>
      <trkpt lat="41.85372" lon="2.3599815">
        <time>2022-07-10T10:54:17Z</time>
      </trkpt>
      <trkpt lat="41.853725" lon="2.3601701">
        <time>2022-07-10T11:02:57Z</time>
      </trkpt>
      <trkpt lat="41.85368" lon="2.3602257">
        <time>2022-07-10T11:02:59Z</time>
      </trkpt>
      <trkpt lat="41.853626" lon="2.3602927">
        <time>2022-07-10T11:03:01Z</time>
      </trkpt>
      <trkpt lat="41.853573" lon="2.3603618">
        <time>2022-07-10T11:03:03Z</time>
      </trkpt>
      <trkpt lat="41.853527" lon="2.3604398">
        <time>2022-07-10T11:03:05Z</time>
      </trkpt>
      <trkpt lat="41.853493" lon="2.3605263">
        <time>2022-07-10T11:03:07Z</time>
      </trkpt>
      <trkpt lat="41.85346" lon="2.3606148">
        <time>2022-07-10T11:03:09Z</time>
      </trkpt>
      <trkpt lat="41.85342" lon="2.3606968">
        <time>2022-07-10T11:03:11Z</time>
      </trkpt>
      <trkpt lat="41.85338" lon="2.3607805">
        <time>2022-07-10T11:03:13Z</time>
      </trkpt>
      <trkpt lat="41.853336" lon="2.3608704">
        <time>2022-07-10T11:03:15Z</time>
      </trkpt>
      <trkpt lat="41.853294" lon="2.3609564">
        <time>2022-07-10T11:03:17Z</time>
      </trkpt>
      <trkpt lat="41.853252" lon="2.361048">
        <time>2022-07-10T11:03:19Z</time>
      </trkpt>
      <trkpt lat="41.853218" lon="2.3611484">
        <time>2022-07-10T11:03:21Z</time>
      </trkpt>
      <trkpt lat="41.85319" lon="2.361249">
        <time>2022-07-10T11:03:23Z</time>
      </trkpt>
      <trkpt lat="41.853172" lon="2.3613536">
        <time>2022-07-10T11:03:25Z</time>
      </trkpt>
      <trkpt lat="41.853157" lon="2.3614538">
        <time>2022-07-10T11:03:27Z</time>
      </trkpt>
      <trkpt lat="41.85315" lon="2.3615487">
        <time>2022-07-10T11:03:29Z</time>
      </trkpt>
      <trkpt lat="41.853138" lon="2.3616328">
        <time>2022-07-10T11:03:31Z</time>
      </trkpt>
      <trkpt lat="41.853134" lon="2.3617086">
        <time>2022-07-10T11:03:33Z</time>
      </trkpt>
      <trkpt lat="41.85313" lon="2.361783">
        <time>2022-07-10T11:03:35Z</time>
      </trkpt>
      <trkpt lat="41.853123" lon="2.3618681">
        <time>2022-07-10T11:03:37Z</time>
      </trkpt>
      <trkpt lat="41.853115" lon="2.3619552">
        <time>2022-07-10T11:03:39Z</time>
      </trkpt>
      <trkpt lat="41.8531" lon="2.3620465">
        <time>2022-07-10T11:03:41Z</time>
      </trkpt>
      <trkpt lat="41.85308" lon="2.3621407">
        <time>2022-07-10T11:03:43Z</time>
      </trkpt>
      <trkpt lat="41.85306" lon="2.3622346">
        <time>2022-07-10T11:03:45Z</time>
      </trkpt>
      <trkpt lat="41.85303" lon="2.3623295">
        <time>2022-07-10T11:03:47Z</time>
      </trkpt>
      <trkpt lat="41.852993" lon="2.3624208">
        <time>2022-07-10T11:03:49Z</time>
      </trkpt>
      <trkpt lat="41.85295" lon="2.362499">
        <time>2022-07-10T11:03:51Z</time>
      </trkpt>
      <trkpt lat="41.852905" lon="2.362577">
        <time>2022-07-10T11:03:53Z</time>
      </trkpt>
      <trkpt lat="41.85286" lon="2.362651">
        <time>2022-07-10T11:03:55Z</time>
      </trkpt>
      <trkpt lat="41.852814" lon="2.3627193">
        <time>2022-07-10T11:03:57Z</time>
      </trkpt>
      <trkpt lat="41.852768" lon="2.3627844">
        <time>2022-07-10T11:03:59Z</time>
      </trkpt>
      <trkpt lat="41.85272" lon="2.3628507">
        <time>2022-07-10T11:04:01Z</time>
      </trkpt>
      <trkpt lat="41.85267" lon="2.3629174">
        <time>2022-07-10T11:04:03Z</time>
      </trkpt>
      <trkpt lat="41.852623" lon="2.3629827">
        <time>2022-07-10T11:04:05Z</time>
      </trkpt>
      <trkpt lat="41.852573" lon="2.3630457">
        <time>2022-07-10T11:04:07Z</time>
      </trkpt>
      <trkpt lat="41.852528" lon="2.3631117">
        <time>2022-07-10T11:04:09Z</time>
      </trkpt>
      <trkpt lat="41.852486" lon="2.3631804">
        <time>2022-07-10T11:04:11Z</time>
      </trkpt>
      <trkpt lat="41.852444" lon="2.3632526">
        <time>2022-07-10T11:04:13Z</time>
      </trkpt>
      <trkpt lat="41.8524" lon="2.3633294">
        <time>2022-07-10T11:04:15Z</time>
      </trkpt>
      <trkpt lat="41.852364" lon="2.3634017">
        <time>2022-07-10T11:04:17Z</time>
      </trkpt>
      <trkpt lat="41.85233" lon="2.363475">
        <time>2022-07-10T11:04:19Z</time>
      </trkpt>
      <trkpt lat="41.85229" lon="2.3635507">
        <time>2022-07-10T11:04:21Z</time>
      </trkpt>
      <trkpt lat="41.85226" lon="2.363628">
        <time>2022-07-10T11:04:23Z</time>
      </trkpt>
      <trkpt lat="41.852238" lon="2.36371">
        <time>2022-07-10T11:04:25Z</time>
      </trkpt>
      <trkpt lat="41.85222" lon="2.3637927">
        <time>2022-07-10T11:04:27Z</time>
      </trkpt>
      <trkpt lat="41.852192" lon="2.3638692">
        <time>2022-07-10T11:04:29Z</time>
      </trkpt>
      <trkpt lat="41.852165" lon="2.3639445">
        <time>2022-07-10T11:04:31Z</time>
      </trkpt>
      <trkpt lat="41.852135" lon="2.3640194">
        <time>2022-07-10T11:04:33Z</time>
      </trkpt>
      <trkpt lat="41.852104" lon="2.3640883">
        <time>2022-07-10T11:04:35Z</time>
      </trkpt>
      <trkpt lat="41.852074" lon="2.3641546">
        <time>2022-07-10T11:04:37Z</time>
      </trkpt>
      <trkpt lat="41.852043" lon="2.3642197">
        <time>2022-07-10T11:04:39Z</time>
      </trkpt>
      <trkpt lat="41.85201" lon="2.3642867">
        <time>2022-07-10T11:04:41Z</time>
      </trkpt>
      <trkpt lat="41.85198" lon="2.3643553">
        <time>2022-07-10T11:04:43Z</time>
      </trkpt>
      <trkpt lat="41.851948" lon="2.3644218">
        <time>2022-07-10T11:04:45Z</time>
      </trkpt>
      <trkpt lat="41.851917" lon="2.364491">
        <time>2022-07-10T11:04:47Z</time>
      </trkpt>
      <trkpt lat="41.851887" lon="2.3645542">
        <time>2022-07-10T11:04:49Z</time>
      </trkpt>
      <trkpt lat="41.851856" lon="2.36462">
        <time>2022-07-10T11:04:51Z</time>
      </trkpt>
      <trkpt lat="41.85182" lon="2.364683">
        <time>2022-07-10T11:04:53Z</time>
      </trkpt>
      <trkpt lat="41.851795" lon="2.36475">
        <time>2022-07-10T11:04:55Z</time>
      </trkpt>
      <trkpt lat="41.851772" lon="2.3648179">
        <time>2022-07-10T11:04:57Z</time>
      </trkpt>
      <trkpt lat="41.851753" lon="2.3648875">
        <time>2022-07-10T11:04:59Z</time>
      </trkpt>
      <trkpt lat="41.851738" lon="2.3649533">
        <time>2022-07-10T11:05:01Z</time>
      </trkpt>
      <trkpt lat="41.85173" lon="2.3650215">
        <time>2022-07-10T11:05:03Z</time>
      </trkpt>
      <trkpt lat="41.851727" lon="2.3650913">
        <time>2022-07-10T11:05:05Z</time>
      </trkpt>
      <trkpt lat="41.85173" lon="2.365165">
        <time>2022-07-10T11:05:07Z</time>
      </trkpt>
      <trkpt lat="41.85174" lon="2.3652403">
        <time>2022-07-10T11:05:09Z</time>
      </trkpt>
      <trkpt lat="41.851757" lon="2.3653188">
        <time>2022-07-10T11:05:11Z</time>
      </trkpt>
      <trkpt lat="41.85178" lon="2.3654008">
        <time>2022-07-10T11:05:13Z</time>
      </trkpt>
      <trkpt lat="41.851795" lon="2.3654811">
        <time>2022-07-10T11:05:15Z</time>
      </trkpt>
      <trkpt lat="41.851803" lon="2.3655672">
        <time>2022-07-10T11:05:17Z</time>
      </trkpt>
      <trkpt lat="41.851807" lon="2.36566">
        <time>2022-07-10T11:05:19Z</time>
      </trkpt>
      <trkpt lat="41.851803" lon="2.3657482">
        <time>2022-07-10T11:05:21Z</time>
      </trkpt>
      <trkpt lat="41.8518" lon="2.3658345">
        <time>2022-07-10T11:05:23Z</time>
      </trkpt>
      <trkpt lat="41.85178" lon="2.3659282">
        <time>2022-07-10T11:05:25Z</time>
      </trkpt>
      <trkpt lat="41.85176" lon="2.3660166">
        <time>2022-07-10T11:05:27Z</time>
      </trkpt>
      <trkpt lat="41.85174" lon="2.366103">
        <time>2022-07-10T11:05:29Z</time>
      </trkpt>
      <trkpt lat="41.851723" lon="2.3661904">
        <time>2022-07-10T11:05:31Z</time>
      </trkpt>
      <trkpt lat="41.851704" lon="2.3662796">
        <time>2022-07-10T11:05:33Z</time>
      </trkpt>
      <trkpt lat="41.85169" lon="2.3663654">
        <time>2022-07-10T11:05:35Z</time>
      </trkpt>
      <trkpt lat="41.851673" lon="2.3664572">
        <time>2022-07-10T11:05:37Z</time>
      </trkpt>
      <trkpt lat="41.85166" lon="2.366546">
        <time>2022-07-10T11:05:39Z</time>
      </trkpt>
      <trkpt lat="41.851654" lon="2.3666391">
        <time>2022-07-10T11:05:41Z</time>
      </trkpt>
      <trkpt lat="41.85165" lon="2.3667338">
        <time>2022-07-10T11:05:43Z</time>
      </trkpt>
      <trkpt lat="41.85165" lon="2.366826">
        <time>2022-07-10T11:05:45Z</time>
      </trkpt>
      <trkpt lat="41.851654" lon="2.3669193">
        <time>2022-07-10T11:05:47Z</time>
      </trkpt>
      <trkpt lat="41.851658" lon="2.3670018">
        <time>2022-07-10T11:05:49Z</time>
      </trkpt>
      <trkpt lat="41.85165" lon="2.3670921">
        <time>2022-07-10T11:05:51Z</time>
      </trkpt>
      <trkpt lat="41.85164" lon="2.3671834">
        <time>2022-07-10T11:05:53Z</time>
      </trkpt>
      <trkpt lat="41.85162" lon="2.3672695">
        <time>2022-07-10T11:05:55Z</time>
      </trkpt>
      <trkpt lat="41.85159" lon="2.3673491">
        <time>2022-07-10T11:05:57Z</time>
      </trkpt>
      <trkpt lat="41.851562" lon="2.3674169">
        <time>2022-07-10T11:05:59Z</time>
      </trkpt>
      <trkpt lat="41.85153" lon="2.3674839">
        <time>2022-07-10T11:06:01Z</time>
      </trkpt>
      <trkpt lat="41.851494" lon="2.3675466">
        <time>2022-07-10T11:06:03Z</time>
      </trkpt>
      <trkpt lat="41.851456" lon="2.3676052">
        <time>2022-07-10T11:06:05Z</time>
      </trkpt>
      <trkpt lat="41.85142" lon="2.3676598">
        <time>2022-07-10T11:06:07Z</time>
      </trkpt>
      <trkpt lat="41.851368" lon="2.3677437">
        <time>2022-07-10T11:06:10Z</time>
      </trkpt>
      <trkpt lat="41.85131" lon="2.3678224">
        <time>2022-07-10T11:06:13Z</time>
      </trkpt>
      <trkpt lat="41.851273" lon="2.367871">
        <time>2022-07-10T11:06:15Z</time>
      </trkpt>
      <trkpt lat="41.851234" lon="2.3679235">
        <time>2022-07-10T11:06:17Z</time>
      </trkpt>
      <trkpt lat="41.851192" lon="2.3679738">
        <time>2022-07-10T11:06:19Z</time>
      </trkpt>
      <trkpt lat="41.851154" lon="2.368025">
        <time>2022-07-10T11:06:21Z</time>
      </trkpt>
      <trkpt lat="41.85112" lon="2.3680813">
        <time>2022-07-10T11:06:23Z</time>
      </trkpt>
      <trkpt lat="41.85108" lon="2.3681383">
        <time>2022-07-10T11:06:25Z</time>
      </trkpt>
      <trkpt lat="41.851044" lon="2.368196">
        <time>2022-07-10T11:06:27Z</time>
      </trkpt>
      <trkpt lat="41.85101" lon="2.3682542">
        <time>2022-07-10T11:06:29Z</time>
      </trkpt>
      <trkpt lat="41.850975" lon="2.3683121">
        <time>2022-07-10T11:06:31Z</time>
      </trkpt>
      <trkpt lat="41.85094" lon="2.3683784">
        <time>2022-07-10T11:06:33Z</time>
      </trkpt>
      <trkpt lat="41.850914" lon="2.3684454">
        <time>2022-07-10T11:06:35Z</time>
      </trkpt>
      <trkpt lat="41.850887" lon="2.3685107">
        <time>2022-07-10T11:06:37Z</time>
      </trkpt>
      <trkpt lat="41.850864" lon="2.3685784">
        <time>2022-07-10T11:06:39Z</time>
      </trkpt>
      <trkpt lat="41.850834" lon="2.368647">
        <time>2022-07-10T11:06:41Z</time>
      </trkpt>
      <trkpt lat="41.85081" lon="2.368715">
        <time>2022-07-10T11:06:43Z</time>
      </trkpt>
      <trkpt lat="41.85079" lon="2.3687835">
        <time>2022-07-10T11:06:45Z</time>
      </trkpt>
      <trkpt lat="41.85076" lon="2.3688524">
        <time>2022-07-10T11:06:47Z</time>
      </trkpt>
      <trkpt lat="41.85074" lon="2.3689237">
        <time>2022-07-10T11:06:49Z</time>
      </trkpt>
      <trkpt lat="41.85072" lon="2.3689923">
        <time>2022-07-10T11:06:51Z</time>
      </trkpt>
      <trkpt lat="41.850704" lon="2.36906">
        <time>2022-07-10T11:06:53Z</time>
      </trkpt>
      <trkpt lat="41.850697" lon="2.369128">
        <time>2022-07-10T11:06:55Z</time>
      </trkpt>
      <trkpt lat="41.8507" lon="2.3692243">
        <time>2022-07-10T11:06:58Z</time>
      </trkpt>
      <trkpt lat="41.850716" lon="2.369316">
        <time>2022-07-10T11:07:01Z</time>
      </trkpt>
      <trkpt lat="41.850746" lon="2.3694036">
        <time>2022-07-10T11:07:04Z</time>
      </trkpt>
      <trkpt lat="41.85078" lon="2.369485">
        <time>2022-07-10T11:07:07Z</time>
      </trkpt>
      <trkpt lat="41.85082" lon="2.3695648">
        <time>2022-07-10T11:07:10Z</time>
      </trkpt>
      <trkpt lat="41.85086" lon="2.3696434">
        <time>2022-07-10T11:07:13Z</time>
      </trkpt>
      <trkpt lat="41.85089" lon="2.369694">
        <time>2022-07-10T11:07:15Z</time>
      </trkpt>
      <trkpt lat="41.850937" lon="2.3697736">
        <time>2022-07-10T11:07:18Z</time>
      </trkpt>
      <trkpt lat="41.850967" lon="2.3698273">
        <time>2022-07-10T11:07:20Z</time>
      </trkpt>
      <trkpt lat="41.851006" lon="2.3699052">
        <time>2022-07-10T11:07:23Z</time>
      </trkpt>
      <trkpt lat="41.851025" lon="2.3699932">
        <time>2022-07-10T11:07:26Z</time>
      </trkpt>
      <trkpt lat="41.851017" lon="2.3700767">
        <time>2022-07-10T11:07:29Z</time>
      </trkpt>
      <trkpt lat="41.850983" lon="2.3701353">
        <time>2022-07-10T11:07:32Z</time>
      </trkpt>
      <trkpt lat="41.850925" lon="2.3701587">
        <time>2022-07-10T11:07:35Z</time>
      </trkpt>
      <trkpt lat="41.85086" lon="2.3701522">
        <time>2022-07-10T11:07:38Z</time>
      </trkpt>
      <trkpt lat="41.850792" lon="2.3701303">
        <time>2022-07-10T11:07:41Z</time>
      </trkpt>
      <trkpt lat="41.85073" lon="2.3700945">
        <time>2022-07-10T11:07:44Z</time>
      </trkpt>
      <trkpt lat="41.850674" lon="2.370046">
        <time>2022-07-10T11:07:47Z</time>
      </trkpt>
      <trkpt lat="41.850613" lon="2.37">
        <time>2022-07-10T11:07:50Z</time>
      </trkpt>
      <trkpt lat="41.850555" lon="2.369953">
        <time>2022-07-10T11:07:53Z</time>
      </trkpt>
      <trkpt lat="41.8505" lon="2.3699086">
        <time>2022-07-10T11:07:56Z</time>
      </trkpt>
      <trkpt lat="41.85044" lon="2.3698714">
        <time>2022-07-10T11:07:59Z</time>
      </trkpt>
      <trkpt lat="41.850384" lon="2.3698428">
        <time>2022-07-10T11:08:02Z</time>
      </trkpt>
      <trkpt lat="41.850315" lon="2.369831">
        <time>2022-07-10T11:08:05Z</time>
      </trkpt>
      <trkpt lat="41.85025" lon="2.3698356">
        <time>2022-07-10T11:08:08Z</time>
      </trkpt>
      <trkpt lat="41.850193" lon="2.3698497">
        <time>2022-07-10T11:08:11Z</time>
      </trkpt>
      <trkpt lat="41.850124" lon="2.369864">
        <time>2022-07-10T11:08:14Z</time>
      </trkpt>
      <trkpt lat="41.850067" lon="2.3698864">
        <time>2022-07-10T11:08:17Z</time>
      </trkpt>
      <trkpt lat="41.85001" lon="2.369919">
        <time>2022-07-10T11:08:20Z</time>
      </trkpt>
      <trkpt lat="41.849953" lon="2.3699546">
        <time>2022-07-10T11:08:23Z</time>
      </trkpt>
      <trkpt lat="41.8499" lon="2.3699949">
        <time>2022-07-10T11:08:26Z</time>
      </trkpt>
      <trkpt lat="41.84984" lon="2.3700407">
        <time>2022-07-10T11:08:29Z</time>
      </trkpt>
      <trkpt lat="41.849785" lon="2.370077">
        <time>2022-07-10T11:08:32Z</time>
      </trkpt>
      <trkpt lat="41.849728" lon="2.3701112">
        <time>2022-07-10T11:08:35Z</time>
      </trkpt>
      <trkpt lat="41.84967" lon="2.370147">
        <time>2022-07-10T11:08:38Z</time>
      </trkpt>
      <trkpt lat="41.84961" lon="2.370184">
        <time>2022-07-10T11:08:41Z</time>
      </trkpt>
      <trkpt lat="41.849556" lon="2.3702202">
        <time>2022-07-10T11:08:44Z</time>
      </trkpt>
      <trkpt lat="41.849495" lon="2.3702607">
        <time>2022-07-10T11:08:47Z</time>
      </trkpt>
      <trkpt lat="41.84944" lon="2.370307">
        <time>2022-07-10T11:08:50Z</time>
      </trkpt>
      <trkpt lat="41.84939" lon="2.3703508">
        <time>2022-07-10T11:08:53Z</time>
      </trkpt>
      <trkpt lat="41.849335" lon="2.3703976">
        <time>2022-07-10T11:08:56Z</time>
      </trkpt>
      <trkpt lat="41.84928" lon="2.370445">
        <time>2022-07-10T11:08:59Z</time>
      </trkpt>
      <trkpt lat="41.849224" lon="2.370496">
        <time>2022-07-10T11:09:02Z</time>
      </trkpt>
      <trkpt lat="41.849174" lon="2.3705423">
        <time>2022-07-10T11:09:05Z</time>
      </trkpt>
      <trkpt lat="41.84913" lon="2.37059">
        <time>2022-07-10T11:09:08Z</time>
      </trkpt>
      <trkpt lat="41.84908" lon="2.3706436">
        <time>2022-07-10T11:09:11Z</time>
      </trkpt>
      <trkpt lat="41.849033" lon="2.3707006">
        <time>2022-07-10T11:09:14Z</time>
      </trkpt>
      <trkpt lat="41.848984" lon="2.37076">
        <time>2022-07-10T11:09:17Z</time>
      </trkpt>
      <trkpt lat="41.848934" lon="2.3708162">
        <time>2022-07-10T11:09:20Z</time>
      </trkpt>
      <trkpt lat="41.848873" lon="2.3708966">
        <time>2022-07-10T11:09:24Z</time>
      </trkpt>
      <trkpt lat="41.848827" lon="2.370961">
        <time>2022-07-10T11:09:27Z</time>
      </trkpt>
      <trkpt lat="41.84879" lon="2.3710306">
        <time>2022-07-10T11:09:30Z</time>
      </trkpt>
      <trkpt lat="41.84875" lon="2.3710992">
        <time>2022-07-10T11:09:33Z</time>
      </trkpt>
      <trkpt lat="41.848717" lon="2.3711712">
        <time>2022-07-10T11:09:36Z</time>
      </trkpt>
      <trkpt lat="41.84868" lon="2.3712466">
        <time>2022-07-10T11:09:39Z</time>
      </trkpt>
      <trkpt lat="41.84864" lon="2.3713198">
        <time>2022-07-10T11:09:42Z</time>
      </trkpt>
      <trkpt lat="41.848606" lon="2.3713906">
        <time>2022-07-10T11:09:45Z</time>
      </trkpt>
      <trkpt lat="41.84857" lon="2.3714635">
        <time>2022-07-10T11:09:48Z</time>
      </trkpt>
      <trkpt lat="41.848534" lon="2.371537">
        <time>2022-07-10T11:09:51Z</time>
      </trkpt>
      <trkpt lat="41.848495" lon="2.3716125">
        <time>2022-07-10T11:09:54Z</time>
      </trkpt>
      <trkpt lat="41.848465" lon="2.3716888">
        <time>2022-07-10T11:09:57Z</time>
      </trkpt>
      <trkpt lat="41.848434" lon="2.3717628">
        <time>2022-07-10T11:10:00Z</time>
      </trkpt>
      <trkpt lat="41.848408" lon="2.3718421">
        <time>2022-07-10T11:10:03Z</time>
      </trkpt>
      <trkpt lat="41.84838" lon="2.371925">
        <time>2022-07-10T11:10:06Z</time>
      </trkpt>
      <trkpt lat="41.848354" lon="2.3720088">
        <time>2022-07-10T11:10:09Z</time>
      </trkpt>
      <trkpt lat="41.84833" lon="2.3720932">
        <time>2022-07-10T11:10:12Z</time>
      </trkpt>
      <trkpt lat="41.848316" lon="2.3721821">
        <time>2022-07-10T11:10:15Z</time>
      </trkpt>
      <trkpt lat="41.8483" lon="2.3722675">
        <time>2022-07-10T11:10:18Z</time>
      </trkpt>
      <trkpt lat="41.848293" lon="2.3723543">
        <time>2022-07-10T11:10:21Z</time>
      </trkpt>
      <trkpt lat="41.848286" lon="2.3724425">
        <time>2022-07-10T11:10:24Z</time>
      </trkpt>
      <trkpt lat="41.84828" lon="2.372528">
        <time>2022-07-10T11:10:27Z</time>
      </trkpt>
      <trkpt lat="41.848278" lon="2.3726144">
        <time>2022-07-10T11:10:30Z</time>
      </trkpt>
      <trkpt lat="41.848286" lon="2.3726985">
        <time>2022-07-10T11:10:33Z</time>
      </trkpt>
      <trkpt lat="41.8483" lon="2.3727834">
        <time>2022-07-10T11:10:36Z</time>
      </trkpt>
      <trkpt lat="41.84831" lon="2.3728676">
        <time>2022-07-10T11:10:39Z</time>
      </trkpt>
      <trkpt lat="41.84832" lon="2.372944">
        <time>2022-07-10T11:10:42Z</time>
      </trkpt>
      <trkpt lat="41.848347" lon="2.3730145">
        <time>2022-07-10T11:10:45Z</time>
      </trkpt>
      <trkpt lat="41.848377" lon="2.3730886">
        <time>2022-07-10T11:10:48Z</time>
      </trkpt>
      <trkpt lat="41.848408" lon="2.3731704">
        <time>2022-07-10T11:10:51Z</time>
      </trkpt>
      <trkpt lat="41.848415" lon="2.373258">
        <time>2022-07-10T11:10:54Z</time>
      </trkpt>
      <trkpt lat="41.848404" lon="2.3733428">
        <time>2022-07-10T11:10:57Z</time>
      </trkpt>
      <trkpt lat="41.848377" lon="2.3734202">
        <time>2022-07-10T11:11:00Z</time>
      </trkpt>
      <trkpt lat="41.84835" lon="2.3734984">
        <time>2022-07-10T11:11:03Z</time>
      </trkpt>
      <trkpt lat="41.848316" lon="2.3735752">
        <time>2022-07-10T11:11:06Z</time>
      </trkpt>
      <trkpt lat="41.84829" lon="2.3736506">
        <time>2022-07-10T11:11:09Z</time>
      </trkpt>
      <trkpt lat="41.848267" lon="2.3737297">
        <time>2022-07-10T11:11:12Z</time>
      </trkpt>
      <trkpt lat="41.848248" lon="2.3738072">
        <time>2022-07-10T11:11:15Z</time>
      </trkpt>
      <trkpt lat="41.848236" lon="2.3738902">
        <time>2022-07-10T11:11:18Z</time>
      </trkpt>
      <trkpt lat="41.848236" lon="2.3739774">
        <time>2022-07-10T11:11:21Z</time>
      </trkpt>
      <trkpt lat="41.848248" lon="2.3740647">
        <time>2022-07-10T11:11:24Z</time>
      </trkpt>
      <trkpt lat="41.84826" lon="2.3741524">
        <time>2022-07-10T11:11:27Z</time>
      </trkpt>
      <trkpt lat="41.848278" lon="2.3742402">
        <time>2022-07-10T11:11:30Z</time>
      </trkpt>
      <trkpt lat="41.848312" lon="2.3743508">
        <time>2022-07-10T11:11:34Z</time>
      </trkpt>
      <trkpt lat="41.848324" lon="2.3744347">
        <time>2022-07-10T11:11:37Z</time>
      </trkpt>
      <trkpt lat="41.848324" lon="2.3745184">
        <time>2022-07-10T11:11:40Z</time>
      </trkpt>
      <trkpt lat="41.84832" lon="2.3746037">
        <time>2022-07-10T11:11:43Z</time>
      </trkpt>
      <trkpt lat="41.848312" lon="2.3746917">
        <time>2022-07-10T11:11:46Z</time>
      </trkpt>
      <trkpt lat="41.848305" lon="2.3747811">
        <time>2022-07-10T11:11:49Z</time>
      </trkpt>
      <trkpt lat="41.848297" lon="2.3748686">
        <time>2022-07-10T11:11:52Z</time>
      </trkpt>
      <trkpt lat="41.84829" lon="2.374953">
        <time>2022-07-10T11:11:55Z</time>
      </trkpt>
      <trkpt lat="41.84829" lon="2.3750403">
        <time>2022-07-10T11:11:58Z</time>
      </trkpt>
      <trkpt lat="41.848286" lon="2.3751295">
        <time>2022-07-10T11:12:01Z</time>
      </trkpt>
      <trkpt lat="41.848286" lon="2.375217">
        <time>2022-07-10T11:12:04Z</time>
      </trkpt>
      <trkpt lat="41.848293" lon="2.375303">
        <time>2022-07-10T11:12:07Z</time>
      </trkpt>
      <trkpt lat="41.8483" lon="2.3753924">
        <time>2022-07-10T11:12:10Z</time>
      </trkpt>
      <trkpt lat="41.84831" lon="2.3754861">
        <time>2022-07-10T11:12:13Z</time>
      </trkpt>
      <trkpt lat="41.848316" lon="2.3755534">
        <time>2022-07-10T11:12:15Z</time>
      </trkpt>
      <trkpt lat="41.848324" lon="2.3756537">
        <time>2022-07-10T11:12:18Z</time>
      </trkpt>
      <trkpt lat="41.848324" lon="2.3757193">
        <time>2022-07-10T11:12:20Z</time>
      </trkpt>
      <trkpt lat="41.848316" lon="2.3758178">
        <time>2022-07-10T11:12:23Z</time>
      </trkpt>
      <trkpt lat="41.84831" lon="2.3759136">
        <time>2022-07-10T11:12:26Z</time>
      </trkpt>
      <trkpt lat="41.848293" lon="2.376013">
        <time>2022-07-10T11:12:29Z</time>
      </trkpt>
      <trkpt lat="41.84828" lon="2.3760767">
        <time>2022-07-10T11:12:31Z</time>
      </trkpt>
      <trkpt lat="41.848263" lon="2.3761787">
        <time>2022-07-10T11:12:34Z</time>
      </trkpt>
      <trkpt lat="41.84825" lon="2.3762434">
        <time>2022-07-10T11:12:36Z</time>
      </trkpt>
      <trkpt lat="41.848236" lon="2.3763113">
        <time>2022-07-10T11:12:38Z</time>
      </trkpt>
      <trkpt lat="41.848225" lon="2.376409">
        <time>2022-07-10T11:12:41Z</time>
      </trkpt>
      <trkpt lat="41.848225" lon="2.376503">
        <time>2022-07-10T11:12:44Z</time>
      </trkpt>
      <trkpt lat="41.848236" lon="2.376591">
        <time>2022-07-10T11:12:47Z</time>
      </trkpt>
      <trkpt lat="41.848267" lon="2.3766706">
        <time>2022-07-10T11:12:50Z</time>
      </trkpt>
      <trkpt lat="41.848312" lon="2.376744">
        <time>2022-07-10T11:12:53Z</time>
      </trkpt>
      <trkpt lat="41.848373" lon="2.3768046">
        <time>2022-07-10T11:12:56Z</time>
      </trkpt>
      <trkpt lat="41.84842" lon="2.3768334">
        <time>2022-07-10T11:12:58Z</time>
      </trkpt>
      <trkpt lat="41.84849" lon="2.3768682">
        <time>2022-07-10T11:13:01Z</time>
      </trkpt>
      <trkpt lat="41.848537" lon="2.3768897">
        <time>2022-07-10T11:13:03Z</time>
      </trkpt>
      <trkpt lat="41.848606" lon="2.3769202">
        <time>2022-07-10T11:13:06Z</time>
      </trkpt>
      <trkpt lat="41.84867" lon="2.376951">
        <time>2022-07-10T11:13:09Z</time>
      </trkpt>
      <trkpt lat="41.848713" lon="2.3769746">
        <time>2022-07-10T11:13:11Z</time>
      </trkpt>
      <trkpt lat="41.848778" lon="2.3770082">
        <time>2022-07-10T11:13:14Z</time>
      </trkpt>
      <trkpt lat="41.848824" lon="2.3770325">
        <time>2022-07-10T11:13:16Z</time>
      </trkpt>
      <trkpt lat="41.848885" lon="2.3770707">
        <time>2022-07-10T11:13:19Z</time>
      </trkpt>
      <trkpt lat="41.848927" lon="2.3771024">
        <time>2022-07-10T11:13:21Z</time>
      </trkpt>
      <trkpt lat="41.848976" lon="2.3771682">
        <time>2022-07-10T11:13:24Z</time>
      </trkpt>
      <trkpt lat="41.84901" lon="2.3772514">
        <time>2022-07-10T11:13:27Z</time>
      </trkpt>
      <trkpt lat="41.849026" lon="2.3773096">
        <time>2022-07-10T11:13:29Z</time>
      </trkpt>
      <trkpt lat="41.849033" lon="2.3774014">
        <time>2022-07-10T11:13:32Z</time>
      </trkpt>
      <trkpt lat="41.84904" lon="2.3774667">
        <time>2022-07-10T11:13:34Z</time>
      </trkpt>
      <trkpt lat="41.84904" lon="2.3775702">
        <time>2022-07-10T11:13:37Z</time>
      </trkpt>
      <trkpt lat="41.84902" lon="2.3776643">
        <time>2022-07-10T11:13:40Z</time>
      </trkpt>
      <trkpt lat="41.848995" lon="2.377719">
        <time>2022-07-10T11:13:42Z</time>
      </trkpt>
      <trkpt lat="41.848938" lon="2.3777742">
        <time>2022-07-10T11:13:45Z</time>
      </trkpt>
      <trkpt lat="41.848873" lon="2.3777902">
        <time>2022-07-10T11:13:48Z</time>
      </trkpt>
      <trkpt lat="41.848804" lon="2.3777928">
        <time>2022-07-10T11:13:51Z</time>
      </trkpt>
      <trkpt lat="41.848736" lon="2.3777924">
        <time>2022-07-10T11:13:54Z</time>
      </trkpt>
      <trkpt lat="41.848667" lon="2.377797">
        <time>2022-07-10T11:13:57Z</time>
      </trkpt>
      <trkpt lat="41.848618" lon="2.3778038">
        <time>2022-07-10T11:13:59Z</time>
      </trkpt>
      <trkpt lat="41.848545" lon="2.377812">
        <time>2022-07-10T11:14:02Z</time>
      </trkpt>
      <trkpt lat="41.8485" lon="2.377816">
        <time>2022-07-10T11:14:04Z</time>
      </trkpt>
      <trkpt lat="41.848434" lon="2.3778222">
        <time>2022-07-10T11:14:07Z</time>
      </trkpt>
      <trkpt lat="41.84837" lon="2.3778276">
        <time>2022-07-10T11:14:10Z</time>
      </trkpt>
      <trkpt lat="41.848305" lon="2.3778222">
        <time>2022-07-10T11:14:13Z</time>
      </trkpt>
      <trkpt lat="41.84826" lon="2.3778145">
        <time>2022-07-10T11:14:15Z</time>
      </trkpt>
      <trkpt lat="41.848194" lon="2.3778036">
        <time>2022-07-10T11:14:18Z</time>
      </trkpt>
      <trkpt lat="41.848125" lon="2.377792">
        <time>2022-07-10T11:14:21Z</time>
      </trkpt>
      <trkpt lat="41.84806" lon="2.3777869">
        <time>2022-07-10T11:14:24Z</time>
      </trkpt>
      <trkpt lat="41.84799" lon="2.377799">
        <time>2022-07-10T11:14:27Z</time>
      </trkpt>
      <trkpt lat="41.847942" lon="2.3778188">
        <time>2022-07-10T11:14:29Z</time>
      </trkpt>
      <trkpt lat="41.84788" lon="2.377874">
        <time>2022-07-10T11:14:32Z</time>
      </trkpt>
      <trkpt lat="41.847847" lon="2.3779545">
        <time>2022-07-10T11:14:35Z</time>
      </trkpt>
      <trkpt lat="41.847828" lon="2.3780553">
        <time>2022-07-10T11:14:38Z</time>
      </trkpt>
      <trkpt lat="41.847816" lon="2.3781278">
        <time>2022-07-10T11:14:40Z</time>
      </trkpt>
      <trkpt lat="41.8478" lon="2.3782015">
        <time>2022-07-10T11:14:42Z</time>
      </trkpt>
      <trkpt lat="41.84778" lon="2.3782632">
        <time>2022-07-10T11:14:44Z</time>
      </trkpt>
      <trkpt lat="41.847744" lon="2.3783479">
        <time>2022-07-10T11:14:47Z</time>
      </trkpt>
      <trkpt lat="41.847702" lon="2.3784175">
        <time>2022-07-10T11:14:50Z</time>
      </trkpt>
      <trkpt lat="41.847652" lon="2.378475">
        <time>2022-07-10T11:14:53Z</time>
      </trkpt>
      <trkpt lat="41.847595" lon="2.3785205">
        <time>2022-07-10T11:14:56Z</time>
      </trkpt>
      <trkpt lat="41.847534" lon="2.3785536">
        <time>2022-07-10T11:14:59Z</time>
      </trkpt>
      <trkpt lat="41.847477" lon="2.3785815">
        <time>2022-07-10T11:15:02Z</time>
      </trkpt>
      <trkpt lat="41.84742" lon="2.3786185">
        <time>2022-07-10T11:15:05Z</time>
      </trkpt>
      <trkpt lat="41.847363" lon="2.3786578">
        <time>2022-07-10T11:15:08Z</time>
      </trkpt>
      <trkpt lat="41.84731" lon="2.378709">
        <time>2022-07-10T11:15:11Z</time>
      </trkpt>
      <trkpt lat="41.84727" lon="2.3787513">
        <time>2022-07-10T11:15:13Z</time>
      </trkpt>
      <trkpt lat="41.847214" lon="2.3788202">
        <time>2022-07-10T11:15:16Z</time>
      </trkpt>
      <trkpt lat="41.847187" lon="2.3788686">
        <time>2022-07-10T11:15:18Z</time>
      </trkpt>
      <trkpt lat="41.84715" lon="2.3789413">
        <time>2022-07-10T11:15:21Z</time>
      </trkpt>
      <trkpt lat="41.847126" lon="2.3790169">
        <time>2022-07-10T11:15:24Z</time>
      </trkpt>
      <trkpt lat="41.847115" lon="2.3790956">
        <time>2022-07-10T11:15:27Z</time>
      </trkpt>
      <trkpt lat="41.847107" lon="2.3791752">
        <time>2022-07-10T11:15:30Z</time>
      </trkpt>
      <trkpt lat="41.847115" lon="2.379255">
        <time>2022-07-10T11:15:33Z</time>
      </trkpt>
      <trkpt lat="41.847134" lon="2.3793333">
        <time>2022-07-10T11:15:36Z</time>
      </trkpt>
      <trkpt lat="41.84715" lon="2.3794239">
        <time>2022-07-10T11:15:39Z</time>
      </trkpt>
      <trkpt lat="41.847168" lon="2.3795118">
        <time>2022-07-10T11:15:42Z</time>
      </trkpt>
      <trkpt lat="41.847176" lon="2.3795996">
        <time>2022-07-10T11:15:45Z</time>
      </trkpt>
      <trkpt lat="41.847183" lon="2.3797164">
        <time>2022-07-10T11:15:49Z</time>
      </trkpt>
      <trkpt lat="41.8472" lon="2.3798006">
        <time>2022-07-10T11:15:52Z</time>
      </trkpt>
      <trkpt lat="41.847206" lon="2.3798864">
        <time>2022-07-10T11:15:55Z</time>
      </trkpt>
      <trkpt lat="41.847202" lon="2.379976">
        <time>2022-07-10T11:15:58Z</time>
      </trkpt>
      <trkpt lat="41.8472" lon="2.380068">
        <time>2022-07-10T11:16:01Z</time>
      </trkpt>
      <trkpt lat="41.847176" lon="2.3801558">
        <time>2022-07-10T11:16:04Z</time>
      </trkpt>
      <trkpt lat="41.84714" lon="2.380236">
        <time>2022-07-10T11:16:07Z</time>
      </trkpt>
      <trkpt lat="41.84711" lon="2.3803108">
        <time>2022-07-10T11:16:10Z</time>
      </trkpt>
      <trkpt lat="41.847084" lon="2.380391">
        <time>2022-07-10T11:16:13Z</time>
      </trkpt>
      <trkpt lat="41.847057" lon="2.380468">
        <time>2022-07-10T11:16:16Z</time>
      </trkpt>
      <trkpt lat="41.847027" lon="2.380546">
        <time>2022-07-10T11:16:19Z</time>
      </trkpt>
      <trkpt lat="41.847" lon="2.3806236">
        <time>2022-07-10T11:16:22Z</time>
      </trkpt>
      <trkpt lat="41.846973" lon="2.3807025">
        <time>2022-07-10T11:16:25Z</time>
      </trkpt>
      <trkpt lat="41.846947" lon="2.3807838">
        <time>2022-07-10T11:16:28Z</time>
      </trkpt>
      <trkpt lat="41.846924" lon="2.3808668">
        <time>2022-07-10T11:16:31Z</time>
      </trkpt>
      <trkpt lat="41.846897" lon="2.3809497">
        <time>2022-07-10T11:16:34Z</time>
      </trkpt>
      <trkpt lat="41.846867" lon="2.381031">
        <time>2022-07-10T11:16:37Z</time>
      </trkpt>
      <trkpt lat="41.84683" lon="2.3811042">
        <time>2022-07-10T11:16:40Z</time>
      </trkpt>
      <trkpt lat="41.846798" lon="2.3811734">
        <time>2022-07-10T11:16:43Z</time>
      </trkpt>
      <trkpt lat="41.846764" lon="2.3812432">
        <time>2022-07-10T11:16:46Z</time>
      </trkpt>
      <trkpt lat="41.846733" lon="2.3813174">
        <time>2022-07-10T11:16:49Z</time>
      </trkpt>
      <trkpt lat="41.846703" lon="2.3813884">
        <time>2022-07-10T11:16:52Z</time>
      </trkpt>
      <trkpt lat="41.846664" lon="2.3814623">
        <time>2022-07-10T11:16:55Z</time>
      </trkpt>
      <trkpt lat="41.84663" lon="2.381539">
        <time>2022-07-10T11:16:58Z</time>
      </trkpt>
      <trkpt lat="41.846615" lon="2.3816206">
        <time>2022-07-10T11:17:01Z</time>
      </trkpt>
      <trkpt lat="41.846596" lon="2.3816926">
        <time>2022-07-10T11:17:04Z</time>
      </trkpt>
      <trkpt lat="41.846592" lon="2.3817708">
        <time>2022-07-10T11:17:07Z</time>
      </trkpt>
      <trkpt lat="41.846592" lon="2.3818529">
        <time>2022-07-10T11:17:10Z</time>
      </trkpt>
      <trkpt lat="41.8466" lon="2.3819396">
        <time>2022-07-10T11:17:13Z</time>
      </trkpt>
      <trkpt lat="41.846622" lon="2.382019">
        <time>2022-07-10T11:17:16Z</time>
      </trkpt>
      <trkpt lat="41.846645" lon="2.3821015">
        <time>2022-07-10T11:17:19Z</time>
      </trkpt>
      <trkpt lat="41.846672" lon="2.3821824">
        <time>2022-07-10T11:17:22Z</time>
      </trkpt>
      <trkpt lat="41.846703" lon="2.3822536">
        <time>2022-07-10T11:17:25Z</time>
      </trkpt>
      <trkpt lat="41.84672" lon="2.3823447">
        <time>2022-07-10T11:17:28Z</time>
      </trkpt>
      <trkpt lat="41.84673" lon="2.3824525">
        <time>2022-07-10T11:17:31Z</time>
      </trkpt>
      <trkpt lat="41.846733" lon="2.3825223">
        <time>2022-07-10T11:17:33Z</time>
      </trkpt>
      <trkpt lat="41.84672" lon="2.3825884">
        <time>2022-07-10T11:17:35Z</time>
      </trkpt>
      <trkpt lat="41.846703" lon="2.3826544">
        <time>2022-07-10T11:17:37Z</time>
      </trkpt>
      <trkpt lat="41.846687" lon="2.3827198">
        <time>2022-07-10T11:17:39Z</time>
      </trkpt>
      <trkpt lat="41.84667" lon="2.382822">
        <time>2022-07-10T11:17:42Z</time>
      </trkpt>
      <trkpt lat="41.846664" lon="2.382889">
        <time>2022-07-10T11:17:44Z</time>
      </trkpt>
      <trkpt lat="41.84666" lon="2.3829577">
        <time>2022-07-10T11:17:46Z</time>
      </trkpt>
      <trkpt lat="41.846657" lon="2.3830607">
        <time>2022-07-10T11:17:49Z</time>
      </trkpt>
      <trkpt lat="41.846657" lon="2.3831303">
        <time>2022-07-10T11:17:51Z</time>
      </trkpt>
      <trkpt lat="41.84666" lon="2.3832028">
        <time>2022-07-10T11:17:53Z</time>
      </trkpt>
      <trkpt lat="41.84666" lon="2.3832757">
        <time>2022-07-10T11:17:55Z</time>
      </trkpt>
      <trkpt lat="41.84666" lon="2.383346">
        <time>2022-07-10T11:17:57Z</time>
      </trkpt>
      <trkpt lat="41.84666" lon="2.383446">
        <time>2022-07-10T11:18:00Z</time>
      </trkpt>
      <trkpt lat="41.846664" lon="2.3835094">
        <time>2022-07-10T11:18:02Z</time>
      </trkpt>
      <trkpt lat="41.846664" lon="2.383609">
        <time>2022-07-10T11:18:05Z</time>
      </trkpt>
      <trkpt lat="41.846664" lon="2.383713">
        <time>2022-07-10T11:18:08Z</time>
      </trkpt>
      <trkpt lat="41.84667" lon="2.3837805">
        <time>2022-07-10T11:18:10Z</time>
      </trkpt>
      <trkpt lat="41.846672" lon="2.3838477">
        <time>2022-07-10T11:18:12Z</time>
      </trkpt>
      <trkpt lat="41.846676" lon="2.383951">
        <time>2022-07-10T11:18:15Z</time>
      </trkpt>
      <trkpt lat="41.846684" lon="2.3840213">
        <time>2022-07-10T11:18:17Z</time>
      </trkpt>
      <trkpt lat="41.84669" lon="2.3840904">
        <time>2022-07-10T11:18:19Z</time>
      </trkpt>
      <trkpt lat="41.8467" lon="2.3841586">
        <time>2022-07-10T11:18:21Z</time>
      </trkpt>
      <trkpt lat="41.846703" lon="2.3842583">
        <time>2022-07-10T11:18:24Z</time>
      </trkpt>
      <trkpt lat="41.846706" lon="2.3843503">
        <time>2022-07-10T11:18:27Z</time>
      </trkpt>
      <trkpt lat="41.846714" lon="2.384436">
        <time>2022-07-10T11:18:30Z</time>
      </trkpt>
      <trkpt lat="41.84672" lon="2.384519">
        <time>2022-07-10T11:18:33Z</time>
      </trkpt>
      <trkpt lat="41.846737" lon="2.3845994">
        <time>2022-07-10T11:18:36Z</time>
      </trkpt>
      <trkpt lat="41.84675" lon="2.384679">
        <time>2022-07-10T11:18:39Z</time>
      </trkpt>
      <trkpt lat="41.846764" lon="2.38476">
        <time>2022-07-10T11:18:42Z</time>
      </trkpt>
      <trkpt lat="41.846775" lon="2.3848414">
        <time>2022-07-10T11:18:45Z</time>
      </trkpt>
      <trkpt lat="41.846786" lon="2.3849216">
        <time>2022-07-10T11:18:48Z</time>
      </trkpt>
      <trkpt lat="41.846798" lon="2.385005">
        <time>2022-07-10T11:18:51Z</time>
      </trkpt>
      <trkpt lat="41.84681" lon="2.3850853">
        <time>2022-07-10T11:18:54Z</time>
      </trkpt>
      <trkpt lat="41.84683" lon="2.3851633">
        <time>2022-07-10T11:18:57Z</time>
      </trkpt>
      <trkpt lat="41.846855" lon="2.3852417">
        <time>2022-07-10T11:19:00Z</time>
      </trkpt>
      <trkpt lat="41.84688" lon="2.385314">
        <time>2022-07-10T11:19:03Z</time>
      </trkpt>
      <trkpt lat="41.84692" lon="2.3853776">
        <time>2022-07-10T11:19:06Z</time>
      </trkpt>
      <trkpt lat="41.846966" lon="2.3854377">
        <time>2022-07-10T11:19:09Z</time>
      </trkpt>
      <trkpt lat="41.847015" lon="2.3854957">
        <time>2022-07-10T11:19:12Z</time>
      </trkpt>
      <trkpt lat="41.84707" lon="2.3855495">
        <time>2022-07-10T11:19:15Z</time>
      </trkpt>
      <trkpt lat="41.847126" lon="2.3856094">
        <time>2022-07-10T11:19:18Z</time>
      </trkpt>
      <trkpt lat="41.84717" lon="2.3856685">
        <time>2022-07-10T11:19:21Z</time>
      </trkpt>
      <trkpt lat="41.84722" lon="2.3857217">
        <time>2022-07-10T11:19:24Z</time>
      </trkpt>
      <trkpt lat="41.847286" lon="2.3857794">
        <time>2022-07-10T11:19:27Z</time>
      </trkpt>
      <trkpt lat="41.84734" lon="2.3858392">
        <time>2022-07-10T11:19:30Z</time>
      </trkpt>
      <trkpt lat="41.847397" lon="2.3858926">
        <time>2022-07-10T11:19:33Z</time>
      </trkpt>
      <trkpt lat="41.84743" lon="2.3859313">
        <time>2022-07-10T11:19:35Z</time>
      </trkpt>
      <trkpt lat="41.84748" lon="2.3859887">
        <time>2022-07-10T11:19:38Z</time>
      </trkpt>
      <trkpt lat="41.847527" lon="2.3860512">
        <time>2022-07-10T11:19:41Z</time>
      </trkpt>
      <trkpt lat="41.847576" lon="2.3861086">
        <time>2022-07-10T11:19:44Z</time>
      </trkpt>
      <trkpt lat="41.847622" lon="2.386155">
        <time>2022-07-10T11:19:47Z</time>
      </trkpt>
      <trkpt lat="41.847675" lon="2.3861952">
        <time>2022-07-10T11:19:50Z</time>
      </trkpt>
      <trkpt lat="41.847736" lon="2.386236">
        <time>2022-07-10T11:19:53Z</time>
      </trkpt>
      <trkpt lat="41.84779" lon="2.3862593">
        <time>2022-07-10T11:19:56Z</time>
      </trkpt>
      <trkpt lat="41.847855" lon="2.3862705">
        <time>2022-07-10T11:19:59Z</time>
      </trkpt>
      <trkpt lat="41.847916" lon="2.3862736">
        <time>2022-07-10T11:20:02Z</time>
      </trkpt>
      <trkpt lat="41.847977" lon="2.3862615">
        <time>2022-07-10T11:20:05Z</time>
      </trkpt>
      <trkpt lat="41.848038" lon="2.386241">
        <time>2022-07-10T11:20:08Z</time>
      </trkpt>
      <trkpt lat="41.848095" lon="2.3862302">
        <time>2022-07-10T11:20:11Z</time>
      </trkpt>
      <trkpt lat="41.848164" lon="2.3862343">
        <time>2022-07-10T11:20:14Z</time>
      </trkpt>
      <trkpt lat="41.848236" lon="2.386251">
        <time>2022-07-10T11:20:17Z</time>
      </trkpt>
      <trkpt lat="41.848297" lon="2.3862746">
        <time>2022-07-10T11:20:20Z</time>
      </trkpt>
      <trkpt lat="41.848362" lon="2.3862958">
        <time>2022-07-10T11:20:23Z</time>
      </trkpt>
      <trkpt lat="41.848423" lon="2.386312">
        <time>2022-07-10T11:20:26Z</time>
      </trkpt>
      <trkpt lat="41.848484" lon="2.386335">
        <time>2022-07-10T11:20:29Z</time>
      </trkpt>
      <trkpt lat="41.848557" lon="2.3863566">
        <time>2022-07-10T11:20:32Z</time>
      </trkpt>
      <trkpt lat="41.84861" lon="2.3863726">
        <time>2022-07-10T11:20:34Z</time>
      </trkpt>
      <trkpt lat="41.848656" lon="2.3863916">
        <time>2022-07-10T11:20:36Z</time>
      </trkpt>
      <trkpt lat="41.84871" lon="2.3864403">
        <time>2022-07-10T11:20:39Z</time>
      </trkpt>
      <trkpt lat="41.848747" lon="2.3865116">
        <time>2022-07-10T11:20:42Z</time>
      </trkpt>
      <trkpt lat="41.848766" lon="2.3865912">
        <time>2022-07-10T11:20:45Z</time>
      </trkpt>
      <trkpt lat="41.848763" lon="2.3866723">
        <time>2022-07-10T11:20:48Z</time>
      </trkpt>
      <trkpt lat="41.84875" lon="2.3867502">
        <time>2022-07-10T11:20:51Z</time>
      </trkpt>
      <trkpt lat="41.848736" lon="2.3868322">
        <time>2022-07-10T11:20:54Z</time>
      </trkpt>
      <trkpt lat="41.848713" lon="2.386915">
        <time>2022-07-10T11:20:57Z</time>
      </trkpt>
      <trkpt lat="41.848694" lon="2.3869953">
        <time>2022-07-10T11:21:00Z</time>
      </trkpt>
      <trkpt lat="41.848675" lon="2.3870788">
        <time>2022-07-10T11:21:03Z</time>
      </trkpt>
      <trkpt lat="41.84866" lon="2.3871632">
        <time>2022-07-10T11:21:06Z</time>
      </trkpt>
      <trkpt lat="41.848648" lon="2.3872478">
        <time>2022-07-10T11:21:09Z</time>
      </trkpt>
      <trkpt lat="41.848633" lon="2.3873305">
        <time>2022-07-10T11:21:12Z</time>
      </trkpt>
      <trkpt lat="41.84862" lon="2.3874183">
        <time>2022-07-10T11:21:15Z</time>
      </trkpt>
      <trkpt lat="41.84861" lon="2.3875053">
        <time>2022-07-10T11:21:18Z</time>
      </trkpt>
      <trkpt lat="41.848602" lon="2.3875895">
        <time>2022-07-10T11:21:21Z</time>
      </trkpt>
      <trkpt lat="41.848606" lon="2.3876736">
        <time>2022-07-10T11:21:24Z</time>
      </trkpt>
      <trkpt lat="41.848618" lon="2.3877568">
        <time>2022-07-10T11:21:27Z</time>
      </trkpt>
      <trkpt lat="41.84864" lon="2.3878436">
        <time>2022-07-10T11:21:30Z</time>
      </trkpt>
      <trkpt lat="41.84868" lon="2.3879325">
        <time>2022-07-10T11:21:33Z</time>
      </trkpt>
      <trkpt lat="41.8487" lon="2.3879914">
        <time>2022-07-10T11:21:35Z</time>
      </trkpt>
      <trkpt lat="41.848724" lon="2.3880498">
        <time>2022-07-10T11:21:37Z</time>
      </trkpt>
      <trkpt lat="41.848763" lon="2.3881402">
        <time>2022-07-10T11:21:40Z</time>
      </trkpt>
      <trkpt lat="41.848797" lon="2.3882277">
        <time>2022-07-10T11:21:43Z</time>
      </trkpt>
      <trkpt lat="41.848824" lon="2.3882854">
        <time>2022-07-10T11:21:45Z</time>
      </trkpt>
      <trkpt lat="41.848866" lon="2.3883722">
        <time>2022-07-10T11:21:48Z</time>
      </trkpt>
      <trkpt lat="41.848892" lon="2.38843">
        <time>2022-07-10T11:21:50Z</time>
      </trkpt>
      <trkpt lat="41.84892" lon="2.3884878">
        <time>2022-07-10T11:21:52Z</time>
      </trkpt>
      <trkpt lat="41.848957" lon="2.3885734">
        <time>2022-07-10T11:21:55Z</time>
      </trkpt>
      <trkpt lat="41.848984" lon="2.388631">
        <time>2022-07-10T11:21:57Z</time>
      </trkpt>
      <trkpt lat="41.84902" lon="2.3887172">
        <time>2022-07-10T11:22:00Z</time>
      </trkpt>
      <trkpt lat="41.849052" lon="2.3888013">
        <time>2022-07-10T11:22:03Z</time>
      </trkpt>
      <trkpt lat="41.849102" lon="2.3889148">
        <time>2022-07-10T11:22:07Z</time>
      </trkpt>
      <trkpt lat="41.849125" lon="2.38897">
        <time>2022-07-10T11:22:09Z</time>
      </trkpt>
      <trkpt lat="41.849163" lon="2.3890507">
        <time>2022-07-10T11:22:12Z</time>
      </trkpt>
      <trkpt lat="41.849194" lon="2.38913">
        <time>2022-07-10T11:22:15Z</time>
      </trkpt>
      <trkpt lat="41.849213" lon="2.3891904">
        <time>2022-07-10T11:22:17Z</time>
      </trkpt>
      <trkpt lat="41.849228" lon="2.3892848">
        <time>2022-07-10T11:22:20Z</time>
      </trkpt>
      <trkpt lat="41.849224" lon="2.3893757">
        <time>2022-07-10T11:22:23Z</time>
      </trkpt>
      <trkpt lat="41.849197" lon="2.389457">
        <time>2022-07-10T11:22:26Z</time>
      </trkpt>
      <trkpt lat="41.849163" lon="2.389534">
        <time>2022-07-10T11:22:29Z</time>
      </trkpt>
      <trkpt lat="41.849125" lon="2.3896134">
        <time>2022-07-10T11:22:32Z</time>
      </trkpt>
      <trkpt lat="41.849087" lon="2.3896945">
        <time>2022-07-10T11:22:35Z</time>
      </trkpt>
      <trkpt lat="41.84905" lon="2.3897722">
        <time>2022-07-10T11:22:38Z</time>
      </trkpt>
      <trkpt lat="41.849007" lon="2.3898535">
        <time>2022-07-10T11:22:41Z</time>
      </trkpt>
      <trkpt lat="41.84897" lon="2.389934">
        <time>2022-07-10T11:22:44Z</time>
      </trkpt>
      <trkpt lat="41.848927" lon="2.3900142">
        <time>2022-07-10T11:22:47Z</time>
      </trkpt>
      <trkpt lat="41.84889" lon="2.3900938">
        <time>2022-07-10T11:22:50Z</time>
      </trkpt>
      <trkpt lat="41.84885" lon="2.3901744">
        <time>2022-07-10T11:22:53Z</time>
      </trkpt>
      <trkpt lat="41.848812" lon="2.3902597">
        <time>2022-07-10T11:22:56Z</time>
      </trkpt>
      <trkpt lat="41.848778" lon="2.3903418">
        <time>2022-07-10T11:22:59Z</time>
      </trkpt>
      <trkpt lat="41.848743" lon="2.3904266">
        <time>2022-07-10T11:23:02Z</time>
      </trkpt>
      <trkpt lat="41.848705" lon="2.3905091">
        <time>2022-07-10T11:23:05Z</time>
      </trkpt>
      <trkpt lat="41.848667" lon="2.3905907">
        <time>2022-07-10T11:23:08Z</time>
      </trkpt>
      <trkpt lat="41.848656" lon="2.390676">
        <time>2022-07-10T11:23:11Z</time>
      </trkpt>
      <trkpt lat="41.848682" lon="2.3907812">
        <time>2022-07-10T11:23:15Z</time>
      </trkpt>
      <trkpt lat="41.84873" lon="2.3908532">
        <time>2022-07-10T11:23:18Z</time>
      </trkpt>
      <trkpt lat="41.848785" lon="2.3909206">
        <time>2022-07-10T11:23:21Z</time>
      </trkpt>
      <trkpt lat="41.84882" lon="2.3909664">
        <time>2022-07-10T11:23:23Z</time>
      </trkpt>
      <trkpt lat="41.84885" lon="2.3910174">
        <time>2022-07-10T11:23:26Z</time>
      </trkpt>
      <trkpt lat="41.84906" lon="2.3910124">
        <time>2022-07-10T11:30:44Z</time>
      </trkpt>
      <trkpt lat="41.849102" lon="2.391077">
        <time>2022-07-10T11:31:02Z</time>
      </trkpt>
      <trkpt lat="41.849133" lon="2.391138">
        <time>2022-07-10T11:31:06Z</time>
      </trkpt>
      <trkpt lat="41.849174" lon="2.3911917">
        <time>2022-07-10T11:31:09Z</time>
      </trkpt>
      <trkpt lat="41.849228" lon="2.3912506">
        <time>2022-07-10T11:31:12Z</time>
      </trkpt>
      <trkpt lat="41.84928" lon="2.3913174">
        <time>2022-07-10T11:31:15Z</time>
      </trkpt>
      <trkpt lat="41.849316" lon="2.3913696">
        <time>2022-07-10T11:31:17Z</time>
      </trkpt>
      <trkpt lat="41.84936" lon="2.391421">
        <time>2022-07-10T11:31:19Z</time>
      </trkpt>
      <trkpt lat="41.849407" lon="2.391469">
        <time>2022-07-10T11:31:21Z</time>
      </trkpt>
      <trkpt lat="41.849445" lon="2.3915203">
        <time>2022-07-10T11:31:23Z</time>
      </trkpt>
      <trkpt lat="41.84949" lon="2.3915734">
        <time>2022-07-10T11:31:25Z</time>
      </trkpt>
      <trkpt lat="41.84954" lon="2.391631">
        <time>2022-07-10T11:31:27Z</time>
      </trkpt>
      <trkpt lat="41.849598" lon="2.391696">
        <time>2022-07-10T11:31:29Z</time>
      </trkpt>
      <trkpt lat="41.849667" lon="2.3917983">
        <time>2022-07-10T11:31:32Z</time>
      </trkpt>
      <trkpt lat="41.8497" lon="2.391876">
        <time>2022-07-10T11:31:34Z</time>
      </trkpt>
      <trkpt lat="41.849724" lon="2.3919644">
        <time>2022-07-10T11:31:36Z</time>
      </trkpt>
      <trkpt lat="41.849735" lon="2.392058">
        <time>2022-07-10T11:31:38Z</time>
      </trkpt>
      <trkpt lat="41.849735" lon="2.3921537">
        <time>2022-07-10T11:31:40Z</time>
      </trkpt>
      <trkpt lat="41.84973" lon="2.3922513">
        <time>2022-07-10T11:31:42Z</time>
      </trkpt>
      <trkpt lat="41.849728" lon="2.3923492">
        <time>2022-07-10T11:31:44Z</time>
      </trkpt>
      <trkpt lat="41.849724" lon="2.392448">
        <time>2022-07-10T11:31:46Z</time>
      </trkpt>
      <trkpt lat="41.849712" lon="2.392545">
        <time>2022-07-10T11:31:48Z</time>
      </trkpt>
      <trkpt lat="41.849705" lon="2.3926427">
        <time>2022-07-10T11:31:50Z</time>
      </trkpt>
      <trkpt lat="41.84971" lon="2.3927379">
        <time>2022-07-10T11:31:52Z</time>
      </trkpt>
      <trkpt lat="41.849716" lon="2.3928323">
        <time>2022-07-10T11:31:54Z</time>
      </trkpt>
      <trkpt lat="41.849728" lon="2.392925">
        <time>2022-07-10T11:31:56Z</time>
      </trkpt>
      <trkpt lat="41.84975" lon="2.393013">
        <time>2022-07-10T11:31:58Z</time>
      </trkpt>
      <trkpt lat="41.849777" lon="2.393101">
        <time>2022-07-10T11:32:00Z</time>
      </trkpt>
      <trkpt lat="41.849804" lon="2.3931925">
        <time>2022-07-10T11:32:02Z</time>
      </trkpt>
      <trkpt lat="41.84984" lon="2.3932812">
        <time>2022-07-10T11:32:04Z</time>
      </trkpt>
      <trkpt lat="41.84989" lon="2.3933566">
        <time>2022-07-10T11:32:06Z</time>
      </trkpt>
      <trkpt lat="41.849953" lon="2.393422">
        <time>2022-07-10T11:32:08Z</time>
      </trkpt>
      <trkpt lat="41.850025" lon="2.3934753">
        <time>2022-07-10T11:32:10Z</time>
      </trkpt>
      <trkpt lat="41.8501" lon="2.3935206">
        <time>2022-07-10T11:32:12Z</time>
      </trkpt>
      <trkpt lat="41.85018" lon="2.393558">
        <time>2022-07-10T11:32:14Z</time>
      </trkpt>
      <trkpt lat="41.85026" lon="2.3935912">
        <time>2022-07-10T11:32:16Z</time>
      </trkpt>
      <trkpt lat="41.85035" lon="2.3936195">
        <time>2022-07-10T11:32:18Z</time>
      </trkpt>
      <trkpt lat="41.850437" lon="2.3936398">
        <time>2022-07-10T11:32:20Z</time>
      </trkpt>
      <trkpt lat="41.85053" lon="2.393651">
        <time>2022-07-10T11:32:22Z</time>
      </trkpt>
      <trkpt lat="41.850613" lon="2.3936489">
        <time>2022-07-10T11:32:24Z</time>
      </trkpt>
      <trkpt lat="41.850693" lon="2.3936336">
        <time>2022-07-10T11:32:26Z</time>
      </trkpt>
      <trkpt lat="41.850773" lon="2.3936145">
        <time>2022-07-10T11:32:28Z</time>
      </trkpt>
      <trkpt lat="41.850853" lon="2.3935962">
        <time>2022-07-10T11:32:30Z</time>
      </trkpt>
      <trkpt lat="41.850937" lon="2.3935857">
        <time>2022-07-10T11:32:32Z</time>
      </trkpt>
      <trkpt lat="41.85103" lon="2.3935995">
        <time>2022-07-10T11:32:34Z</time>
      </trkpt>
      <trkpt lat="41.851105" lon="2.3936377">
        <time>2022-07-10T11:32:36Z</time>
      </trkpt>
      <trkpt lat="41.851173" lon="2.3936975">
        <time>2022-07-10T11:32:38Z</time>
      </trkpt>
      <trkpt lat="41.851234" lon="2.393776">
        <time>2022-07-10T11:32:40Z</time>
      </trkpt>
      <trkpt lat="41.85127" lon="2.3938496">
        <time>2022-07-10T11:32:42Z</time>
      </trkpt>
      <trkpt lat="41.851288" lon="2.3938966">
        <time>2022-07-10T11:32:46Z</time>
      </trkpt>
      <trkpt lat="41.851307" lon="2.3940415">
        <time>2022-07-10T11:33:03Z</time>
      </trkpt>
      <trkpt lat="41.8513" lon="2.3941152">
        <time>2022-07-10T11:33:05Z</time>
      </trkpt>
      <trkpt lat="41.85128" lon="2.3941958">
        <time>2022-07-10T11:33:07Z</time>
      </trkpt>
      <trkpt lat="41.85125" lon="2.39428">
        <time>2022-07-10T11:33:09Z</time>
      </trkpt>
      <trkpt lat="41.85122" lon="2.394372">
        <time>2022-07-10T11:33:11Z</time>
      </trkpt>
      <trkpt lat="41.8512" lon="2.3944676">
        <time>2022-07-10T11:33:13Z</time>
      </trkpt>
      <trkpt lat="41.85119" lon="2.394574">
        <time>2022-07-10T11:33:15Z</time>
      </trkpt>
      <trkpt lat="41.851192" lon="2.3946936">
        <time>2022-07-10T11:33:17Z</time>
      </trkpt>
      <trkpt lat="41.8512" lon="2.3948169">
        <time>2022-07-10T11:33:19Z</time>
      </trkpt>
      <trkpt lat="41.85121" lon="2.3949335">
        <time>2022-07-10T11:33:21Z</time>
      </trkpt>
      <trkpt lat="41.851208" lon="2.395058">
        <time>2022-07-10T11:33:23Z</time>
      </trkpt>
      <trkpt lat="41.851173" lon="2.3951788">
        <time>2022-07-10T11:33:25Z</time>
      </trkpt>
      <trkpt lat="41.85112" lon="2.3952723">
        <time>2022-07-10T11:33:27Z</time>
      </trkpt>
      <trkpt lat="41.851044" lon="2.3953366">
        <time>2022-07-10T11:33:29Z</time>
      </trkpt>
      <trkpt lat="41.85096" lon="2.395382">
        <time>2022-07-10T11:33:31Z</time>
      </trkpt>
      <trkpt lat="41.850864" lon="2.3954248">
        <time>2022-07-10T11:33:33Z</time>
      </trkpt>
      <trkpt lat="41.85078" lon="2.3954835">
        <time>2022-07-10T11:33:35Z</time>
      </trkpt>
      <trkpt lat="41.85071" lon="2.3955762">
        <time>2022-07-10T11:33:37Z</time>
      </trkpt>
      <trkpt lat="41.850693" lon="2.3956306">
        <time>2022-07-10T11:33:38Z</time>
      </trkpt>
      <trkpt lat="41.85067" lon="2.3957481">
        <time>2022-07-10T11:33:40Z</time>
      </trkpt>
      <trkpt lat="41.850655" lon="2.3958755">
        <time>2022-07-10T11:33:42Z</time>
      </trkpt>
      <trkpt lat="41.850628" lon="2.3960104">
        <time>2022-07-10T11:33:44Z</time>
      </trkpt>
      <trkpt lat="41.850605" lon="2.3960679">
        <time>2022-07-10T11:33:45Z</time>
      </trkpt>
      <trkpt lat="41.85054" lon="2.3961542">
        <time>2022-07-10T11:33:47Z</time>
      </trkpt>
      <trkpt lat="41.850464" lon="2.396186">
        <time>2022-07-10T11:33:49Z</time>
      </trkpt>
      <trkpt lat="41.850376" lon="2.3961718">
        <time>2022-07-10T11:33:51Z</time>
      </trkpt>
      <trkpt lat="41.85028" lon="2.396145">
        <time>2022-07-10T11:33:53Z</time>
      </trkpt>
      <trkpt lat="41.850193" lon="2.3961456">
        <time>2022-07-10T11:33:55Z</time>
      </trkpt>
      <trkpt lat="41.850113" lon="2.3961854">
        <time>2022-07-10T11:33:57Z</time>
      </trkpt>
      <trkpt lat="41.850056" lon="2.3962681">
        <time>2022-07-10T11:33:59Z</time>
      </trkpt>
      <trkpt lat="41.850014" lon="2.3963685">
        <time>2022-07-10T11:34:01Z</time>
      </trkpt>
      <trkpt lat="41.849976" lon="2.39649">
        <time>2022-07-10T11:34:03Z</time>
      </trkpt>
      <trkpt lat="41.849934" lon="2.3966115">
        <time>2022-07-10T11:34:05Z</time>
      </trkpt>
      <trkpt lat="41.849907" lon="2.3966718">
        <time>2022-07-10T11:34:06Z</time>
      </trkpt>
      <trkpt lat="41.849846" lon="2.3967817">
        <time>2022-07-10T11:34:08Z</time>
      </trkpt>
      <trkpt lat="41.84981" lon="2.3968322">
        <time>2022-07-10T11:34:09Z</time>
      </trkpt>
      <trkpt lat="41.849747" lon="2.3969302">
        <time>2022-07-10T11:34:11Z</time>
      </trkpt>
      <trkpt lat="41.849697" lon="2.3970408">
        <time>2022-07-10T11:34:13Z</time>
      </trkpt>
      <trkpt lat="41.849667" lon="2.3971593">
        <time>2022-07-10T11:34:15Z</time>
      </trkpt>
      <trkpt lat="41.849644" lon="2.397278">
        <time>2022-07-10T11:34:17Z</time>
      </trkpt>
      <trkpt lat="41.849632" lon="2.3973384">
        <time>2022-07-10T11:34:18Z</time>
      </trkpt>
      <trkpt lat="41.84959" lon="2.397447">
        <time>2022-07-10T11:34:20Z</time>
      </trkpt>
      <trkpt lat="41.84953" lon="2.3975234">
        <time>2022-07-10T11:34:22Z</time>
      </trkpt>
      <trkpt lat="41.849453" lon="2.3975685">
        <time>2022-07-10T11:34:24Z</time>
      </trkpt>
      <trkpt lat="41.84937" lon="2.3975995">
        <time>2022-07-10T11:34:26Z</time>
      </trkpt>
      <trkpt lat="41.849277" lon="2.3976347">
        <time>2022-07-10T11:34:28Z</time>
      </trkpt>
      <trkpt lat="41.84919" lon="2.3976817">
        <time>2022-07-10T11:34:30Z</time>
      </trkpt>
      <trkpt lat="41.84911" lon="2.3977413">
        <time>2022-07-10T11:34:32Z</time>
      </trkpt>
      <trkpt lat="41.849068" lon="2.3977745">
        <time>2022-07-10T11:34:33Z</time>
      </trkpt>
      <trkpt lat="41.84899" lon="2.397844">
        <time>2022-07-10T11:34:35Z</time>
      </trkpt>
      <trkpt lat="41.84892" lon="2.3979197">
        <time>2022-07-10T11:34:37Z</time>
      </trkpt>
      <trkpt lat="41.84884" lon="2.3979888">
        <time>2022-07-10T11:34:39Z</time>
      </trkpt>
      <trkpt lat="41.84876" lon="2.3980477">
        <time>2022-07-10T11:34:41Z</time>
      </trkpt>
      <trkpt lat="41.84868" lon="2.3981094">
        <time>2022-07-10T11:34:43Z</time>
      </trkpt>
      <trkpt lat="41.848606" lon="2.3981783">
        <time>2022-07-10T11:34:45Z</time>
      </trkpt>
      <trkpt lat="41.84854" lon="2.398252">
        <time>2022-07-10T11:34:47Z</time>
      </trkpt>
      <trkpt lat="41.848484" lon="2.3983374">
        <time>2022-07-10T11:34:49Z</time>
      </trkpt>
      <trkpt lat="41.84845" lon="2.3984363">
        <time>2022-07-10T11:34:51Z</time>
      </trkpt>
      <trkpt lat="41.848442" lon="2.398539">
        <time>2022-07-10T11:34:53Z</time>
      </trkpt>
      <trkpt lat="41.84847" lon="2.398626">
        <time>2022-07-10T11:34:55Z</time>
      </trkpt>
      <trkpt lat="41.84853" lon="2.3986783">
        <time>2022-07-10T11:34:57Z</time>
      </trkpt>
      <trkpt lat="41.848606" lon="2.3986871">
        <time>2022-07-10T11:34:59Z</time>
      </trkpt>
      <trkpt lat="41.84869" lon="2.3986666">
        <time>2022-07-10T11:35:01Z</time>
      </trkpt>
      <trkpt lat="41.848766" lon="2.3986351">
        <time>2022-07-10T11:35:03Z</time>
      </trkpt>
      <trkpt lat="41.84884" lon="2.3985946">
        <time>2022-07-10T11:35:05Z</time>
      </trkpt>
      <trkpt lat="41.848904" lon="2.398561">
        <time>2022-07-10T11:35:07Z</time>
      </trkpt>
      <trkpt lat="41.848965" lon="2.398545">
        <time>2022-07-10T11:35:09Z</time>
      </trkpt>
      <trkpt lat="41.849022" lon="2.3985283">
        <time>2022-07-10T11:35:11Z</time>
      </trkpt>
      <trkpt lat="41.84907" lon="2.39851">
        <time>2022-07-10T11:35:13Z</time>
      </trkpt>
      <trkpt lat="41.849125" lon="2.3984947">
        <time>2022-07-10T11:35:15Z</time>
      </trkpt>
      <trkpt lat="41.8492" lon="2.3984787">
        <time>2022-07-10T11:35:18Z</time>
      </trkpt>
      <trkpt lat="41.849247" lon="2.3984761">
        <time>2022-07-10T11:35:20Z</time>
      </trkpt>
      <trkpt lat="41.849327" lon="2.3984785">
        <time>2022-07-10T11:35:23Z</time>
      </trkpt>
      <trkpt lat="41.849377" lon="2.3984807">
        <time>2022-07-10T11:35:25Z</time>
      </trkpt>
      <trkpt lat="41.84943" lon="2.398477">
        <time>2022-07-10T11:35:27Z</time>
      </trkpt>
      <trkpt lat="41.84948" lon="2.3984714">
        <time>2022-07-10T11:35:29Z</time>
      </trkpt>
      <trkpt lat="41.849545" lon="2.398469">
        <time>2022-07-10T11:35:32Z</time>
      </trkpt>
      <trkpt lat="41.84961" lon="2.3984697">
        <time>2022-07-10T11:35:35Z</time>
      </trkpt>
      <trkpt lat="41.849678" lon="2.3984795">
        <time>2022-07-10T11:35:38Z</time>
      </trkpt>
      <trkpt lat="41.849747" lon="2.3985016">
        <time>2022-07-10T11:35:41Z</time>
      </trkpt>
      <trkpt lat="41.849823" lon="2.398576">
        <time>2022-07-10T11:35:45Z</time>
      </trkpt>
      <trkpt lat="41.849857" lon="2.3986235">
        <time>2022-07-10T11:35:47Z</time>
      </trkpt>
      <trkpt lat="41.849907" lon="2.3986897">
        <time>2022-07-10T11:35:50Z</time>
      </trkpt>
      <trkpt lat="41.84994" lon="2.3987277">
        <time>2022-07-10T11:35:52Z</time>
      </trkpt>
      <trkpt lat="41.849995" lon="2.3987708">
        <time>2022-07-10T11:35:55Z</time>
      </trkpt>
      <trkpt lat="41.85006" lon="2.3987854">
        <time>2022-07-10T11:35:58Z</time>
      </trkpt>
      <trkpt lat="41.850124" lon="2.3987875">
        <time>2022-07-10T11:36:01Z</time>
      </trkpt>
      <trkpt lat="41.850193" lon="2.3987775">
        <time>2022-07-10T11:36:04Z</time>
      </trkpt>
      <trkpt lat="41.85026" lon="2.3987565">
        <time>2022-07-10T11:36:07Z</time>
      </trkpt>
      <trkpt lat="41.850307" lon="2.398735">
        <time>2022-07-10T11:36:09Z</time>
      </trkpt>
      <trkpt lat="41.850372" lon="2.398698">
        <time>2022-07-10T11:36:12Z</time>
      </trkpt>
      <trkpt lat="41.850437" lon="2.3986537">
        <time>2022-07-10T11:36:15Z</time>
      </trkpt>
      <trkpt lat="41.85051" lon="2.3986351">
        <time>2022-07-10T11:36:18Z</time>
      </trkpt>
      <trkpt lat="41.85056" lon="2.3986356">
        <time>2022-07-10T11:36:20Z</time>
      </trkpt>
      <trkpt lat="41.850628" lon="2.3986378">
        <time>2022-07-10T11:36:23Z</time>
      </trkpt>
      <trkpt lat="41.850693" lon="2.3986413">
        <time>2022-07-10T11:36:26Z</time>
      </trkpt>
      <trkpt lat="41.850758" lon="2.3986511">
        <time>2022-07-10T11:36:29Z</time>
      </trkpt>
      <trkpt lat="41.850822" lon="2.3986697">
        <time>2022-07-10T11:36:32Z</time>
      </trkpt>
      <trkpt lat="41.850864" lon="2.3986964">
        <time>2022-07-10T11:36:34Z</time>
      </trkpt>
      <trkpt lat="41.850906" lon="2.39876">
        <time>2022-07-10T11:36:37Z</time>
      </trkpt>
      <trkpt lat="41.85093" lon="2.3988447">
        <time>2022-07-10T11:36:40Z</time>
      </trkpt>
      <trkpt lat="41.85094" lon="2.3989286">
        <time>2022-07-10T11:36:43Z</time>
      </trkpt>
      <trkpt lat="41.85094" lon="2.3990133">
        <time>2022-07-10T11:36:46Z</time>
      </trkpt>
      <trkpt lat="41.85094" lon="2.3991277">
        <time>2022-07-10T11:36:50Z</time>
      </trkpt>
      <trkpt lat="41.850945" lon="2.3992167">
        <time>2022-07-10T11:36:53Z</time>
      </trkpt>
      <trkpt lat="41.85095" lon="2.399306">
        <time>2022-07-10T11:36:56Z</time>
      </trkpt>
      <trkpt lat="41.850945" lon="2.3993983">
        <time>2022-07-10T11:36:59Z</time>
      </trkpt>
      <trkpt lat="41.85092" lon="2.399478">
        <time>2022-07-10T11:37:02Z</time>
      </trkpt>
      <trkpt lat="41.850876" lon="2.399537">
        <time>2022-07-10T11:37:05Z</time>
      </trkpt>
      <trkpt lat="41.850822" lon="2.3995793">
        <time>2022-07-10T11:37:08Z</time>
      </trkpt>
      <trkpt lat="41.850758" lon="2.3996062">
        <time>2022-07-10T11:37:11Z</time>
      </trkpt>
      <trkpt lat="41.85069" lon="2.399632">
        <time>2022-07-10T11:37:14Z</time>
      </trkpt>
      <trkpt lat="41.850628" lon="2.3996704">
        <time>2022-07-10T11:37:17Z</time>
      </trkpt>
      <trkpt lat="41.850567" lon="2.3997173">
        <time>2022-07-10T11:37:20Z</time>
      </trkpt>
      <trkpt lat="41.85052" lon="2.3997736">
        <time>2022-07-10T11:37:23Z</time>
      </trkpt>
      <trkpt lat="41.850487" lon="2.3998423">
        <time>2022-07-10T11:37:26Z</time>
      </trkpt>
      <trkpt lat="41.850464" lon="2.3999226">
        <time>2022-07-10T11:37:29Z</time>
      </trkpt>
      <trkpt lat="41.85045" lon="2.400011">
        <time>2022-07-10T11:37:32Z</time>
      </trkpt>
      <trkpt lat="41.85043" lon="2.4000707">
        <time>2022-07-10T11:37:34Z</time>
      </trkpt>
      <trkpt lat="41.850384" lon="2.4001505">
        <time>2022-07-10T11:37:37Z</time>
      </trkpt>
      <trkpt lat="41.850346" lon="2.4001982">
        <time>2022-07-10T11:37:39Z</time>
      </trkpt>
      <trkpt lat="41.850304" lon="2.4002414">
        <time>2022-07-10T11:37:41Z</time>
      </trkpt>
      <trkpt lat="41.85024" lon="2.4002836">
        <time>2022-07-10T11:37:44Z</time>
      </trkpt>
      <trkpt lat="41.85017" lon="2.4002993">
        <time>2022-07-10T11:37:47Z</time>
      </trkpt>
      <trkpt lat="41.850094" lon="2.400294">
        <time>2022-07-10T11:37:50Z</time>
      </trkpt>
      <trkpt lat="41.85002" lon="2.4002867">
        <time>2022-07-10T11:37:53Z</time>
      </trkpt>
      <trkpt lat="41.849957" lon="2.4002857">
        <time>2022-07-10T11:37:56Z</time>
      </trkpt>
      <trkpt lat="41.849888" lon="2.400306">
        <time>2022-07-10T11:37:59Z</time>
      </trkpt>
      <trkpt lat="41.84984" lon="2.400325">
        <time>2022-07-10T11:38:01Z</time>
      </trkpt>
      <trkpt lat="41.84977" lon="2.4003623">
        <time>2022-07-10T11:38:04Z</time>
      </trkpt>
      <trkpt lat="41.84971" lon="2.4004152">
        <time>2022-07-10T11:38:07Z</time>
      </trkpt>
      <trkpt lat="41.849655" lon="2.4004836">
        <time>2022-07-10T11:38:10Z</time>
      </trkpt>
      <trkpt lat="41.849617" lon="2.4005616">
        <time>2022-07-10T11:38:13Z</time>
      </trkpt>
      <trkpt lat="41.849598" lon="2.40062">
        <time>2022-07-10T11:38:15Z</time>
      </trkpt>
      <trkpt lat="41.849598" lon="2.400708">
        <time>2022-07-10T11:38:18Z</time>
      </trkpt>
      <trkpt lat="41.849613" lon="2.4008043">
        <time>2022-07-10T11:38:21Z</time>
      </trkpt>
      <trkpt lat="41.849636" lon="2.400898">
        <time>2022-07-10T11:38:24Z</time>
      </trkpt>
      <trkpt lat="41.84967" lon="2.4009862">
        <time>2022-07-10T11:38:27Z</time>
      </trkpt>
      <trkpt lat="41.849697" lon="2.4010446">
        <time>2022-07-10T11:38:29Z</time>
      </trkpt>
      <trkpt lat="41.84973" lon="2.4011335">
        <time>2022-07-10T11:38:32Z</time>
      </trkpt>
      <trkpt lat="41.84976" lon="2.4011939">
        <time>2022-07-10T11:38:34Z</time>
      </trkpt>
      <trkpt lat="41.84977" lon="2.4012558">
        <time>2022-07-10T11:38:36Z</time>
      </trkpt>
      <trkpt lat="41.849785" lon="2.4013505">
        <time>2022-07-10T11:38:39Z</time>
      </trkpt>
      <trkpt lat="41.849796" lon="2.4014442">
        <time>2022-07-10T11:38:42Z</time>
      </trkpt>
      <trkpt lat="41.849804" lon="2.4015095">
        <time>2022-07-10T11:38:44Z</time>
      </trkpt>
      <trkpt lat="41.84981" lon="2.4016118">
        <time>2022-07-10T11:38:47Z</time>
      </trkpt>
      <trkpt lat="41.849815" lon="2.4016821">
        <time>2022-07-10T11:38:49Z</time>
      </trkpt>
      <trkpt lat="41.849815" lon="2.4017498">
        <time>2022-07-10T11:38:51Z</time>
      </trkpt>
      <trkpt lat="41.849815" lon="2.4018512">
        <time>2022-07-10T11:38:54Z</time>
      </trkpt>
      <trkpt lat="41.849808" lon="2.4019182">
        <time>2022-07-10T11:38:56Z</time>
      </trkpt>
      <trkpt lat="41.849792" lon="2.402012">
        <time>2022-07-10T11:38:59Z</time>
      </trkpt>
      <trkpt lat="41.849796" lon="2.4021075">
        <time>2022-07-10T11:39:02Z</time>
      </trkpt>
      <trkpt lat="41.849823" lon="2.4021852">
        <time>2022-07-10T11:39:05Z</time>
      </trkpt>
      <trkpt lat="41.849876" lon="2.4022353">
        <time>2022-07-10T11:39:08Z</time>
      </trkpt>
      <trkpt lat="41.849937" lon="2.4022436">
        <time>2022-07-10T11:39:11Z</time>
      </trkpt>
      <trkpt lat="41.84999" lon="2.4022236">
        <time>2022-07-10T11:39:13Z</time>
      </trkpt>
      <trkpt lat="41.850037" lon="2.4021986">
        <time>2022-07-10T11:39:15Z</time>
      </trkpt>
      <trkpt lat="41.85009" lon="2.4021795">
        <time>2022-07-10T11:39:17Z</time>
      </trkpt>
      <trkpt lat="41.85014" lon="2.4021635">
        <time>2022-07-10T11:39:19Z</time>
      </trkpt>
      <trkpt lat="41.85022" lon="2.4021425">
        <time>2022-07-10T11:39:22Z</time>
      </trkpt>
      <trkpt lat="41.85028" lon="2.4021392">
        <time>2022-07-10T11:39:24Z</time>
      </trkpt>
      <trkpt lat="41.850334" lon="2.4021456">
        <time>2022-07-10T11:39:26Z</time>
      </trkpt>
      <trkpt lat="41.85039" lon="2.4021626">
        <time>2022-07-10T11:39:28Z</time>
      </trkpt>
      <trkpt lat="41.850452" lon="2.4021893">
        <time>2022-07-10T11:39:30Z</time>
      </trkpt>
      <trkpt lat="41.850513" lon="2.4022295">
        <time>2022-07-10T11:39:32Z</time>
      </trkpt>
      <trkpt lat="41.850574" lon="2.4022765">
        <time>2022-07-10T11:39:34Z</time>
      </trkpt>
      <trkpt lat="41.850628" lon="2.4023385">
        <time>2022-07-10T11:39:36Z</time>
      </trkpt>
      <trkpt lat="41.850666" lon="2.4024045">
        <time>2022-07-10T11:39:38Z</time>
      </trkpt>
      <trkpt lat="41.850697" lon="2.4024818">
        <time>2022-07-10T11:39:40Z</time>
      </trkpt>
      <trkpt lat="41.85071" lon="2.4025655">
        <time>2022-07-10T11:39:42Z</time>
      </trkpt>
      <trkpt lat="41.85071" lon="2.4026515">
        <time>2022-07-10T11:39:44Z</time>
      </trkpt>
      <trkpt lat="41.850704" lon="2.4027405">
        <time>2022-07-10T11:39:46Z</time>
      </trkpt>
      <trkpt lat="41.850697" lon="2.4028292">
        <time>2022-07-10T11:39:48Z</time>
      </trkpt>
      <trkpt lat="41.850697" lon="2.4029186">
        <time>2022-07-10T11:39:50Z</time>
      </trkpt>
      <trkpt lat="41.850697" lon="2.4030092">
        <time>2022-07-10T11:39:52Z</time>
      </trkpt>
      <trkpt lat="41.85069" lon="2.4030995">
        <time>2022-07-10T11:39:54Z</time>
      </trkpt>
      <trkpt lat="41.850685" lon="2.4031916">
        <time>2022-07-10T11:39:56Z</time>
      </trkpt>
      <trkpt lat="41.850677" lon="2.4032853">
        <time>2022-07-10T11:39:58Z</time>
      </trkpt>
      <trkpt lat="41.850666" lon="2.403381">
        <time>2022-07-10T11:40:00Z</time>
      </trkpt>
      <trkpt lat="41.85065" lon="2.4034748">
        <time>2022-07-10T11:40:02Z</time>
      </trkpt>
      <trkpt lat="41.850636" lon="2.4035692">
        <time>2022-07-10T11:40:04Z</time>
      </trkpt>
      <trkpt lat="41.850616" lon="2.4036598">
        <time>2022-07-10T11:40:06Z</time>
      </trkpt>
      <trkpt lat="41.850594" lon="2.4037476">
        <time>2022-07-10T11:40:08Z</time>
      </trkpt>
      <trkpt lat="41.850567" lon="2.403835">
        <time>2022-07-10T11:40:10Z</time>
      </trkpt>
      <trkpt lat="41.850548" lon="2.403918">
        <time>2022-07-10T11:40:12Z</time>
      </trkpt>
      <trkpt lat="41.85054" lon="2.4040034">
        <time>2022-07-10T11:40:14Z</time>
      </trkpt>
      <trkpt lat="41.850544" lon="2.4040947">
        <time>2022-07-10T11:40:16Z</time>
      </trkpt>
      <trkpt lat="41.850555" lon="2.4041793">
        <time>2022-07-10T11:40:18Z</time>
      </trkpt>
      <trkpt lat="41.85057" lon="2.404267">
        <time>2022-07-10T11:40:20Z</time>
      </trkpt>
      <trkpt lat="41.85057" lon="2.4043584">
        <time>2022-07-10T11:40:22Z</time>
      </trkpt>
      <trkpt lat="41.850555" lon="2.404449">
        <time>2022-07-10T11:40:24Z</time>
      </trkpt>
      <trkpt lat="41.85053" lon="2.404535">
        <time>2022-07-10T11:40:26Z</time>
      </trkpt>
      <trkpt lat="41.8505" lon="2.4046164">
        <time>2022-07-10T11:40:28Z</time>
      </trkpt>
      <trkpt lat="41.850468" lon="2.4046981">
        <time>2022-07-10T11:40:30Z</time>
      </trkpt>
      <trkpt lat="41.85043" lon="2.404776">
        <time>2022-07-10T11:40:32Z</time>
      </trkpt>
      <trkpt lat="41.850388" lon="2.4048467">
        <time>2022-07-10T11:40:34Z</time>
      </trkpt>
      <trkpt lat="41.85034" lon="2.4049153">
        <time>2022-07-10T11:40:36Z</time>
      </trkpt>
      <trkpt lat="41.850292" lon="2.4049847">
        <time>2022-07-10T11:40:38Z</time>
      </trkpt>
      <trkpt lat="41.850246" lon="2.405055">
        <time>2022-07-10T11:40:40Z</time>
      </trkpt>
      <trkpt lat="41.850204" lon="2.4051294">
        <time>2022-07-10T11:40:42Z</time>
      </trkpt>
      <trkpt lat="41.850166" lon="2.405205">
        <time>2022-07-10T11:40:44Z</time>
      </trkpt>
      <trkpt lat="41.850132" lon="2.4052851">
        <time>2022-07-10T11:40:46Z</time>
      </trkpt>
      <trkpt lat="41.85011" lon="2.4053688">
        <time>2022-07-10T11:40:48Z</time>
      </trkpt>
      <trkpt lat="41.850086" lon="2.4054534">
        <time>2022-07-10T11:40:50Z</time>
      </trkpt>
      <trkpt lat="41.850048" lon="2.4055295">
        <time>2022-07-10T11:40:52Z</time>
      </trkpt>
      <trkpt lat="41.850002" lon="2.4055948">
        <time>2022-07-10T11:40:54Z</time>
      </trkpt>
      <trkpt lat="41.849957" lon="2.4056602">
        <time>2022-07-10T11:40:56Z</time>
      </trkpt>
      <trkpt lat="41.84991" lon="2.4057274">
        <time>2022-07-10T11:40:58Z</time>
      </trkpt>
      <trkpt lat="41.84988" lon="2.4058013">
        <time>2022-07-10T11:41:00Z</time>
      </trkpt>
      <trkpt lat="41.849846" lon="2.4059203">
        <time>2022-07-10T11:41:03Z</time>
      </trkpt>
      <trkpt lat="41.849823" lon="2.4059987">
        <time>2022-07-10T11:41:05Z</time>
      </trkpt>
      <trkpt lat="41.84979" lon="2.4060683">
        <time>2022-07-10T11:41:07Z</time>
      </trkpt>
      <trkpt lat="41.84974" lon="2.4061208">
        <time>2022-07-10T11:41:09Z</time>
      </trkpt>
      <trkpt lat="41.849686" lon="2.4061644">
        <time>2022-07-10T11:41:11Z</time>
      </trkpt>
      <trkpt lat="41.84963" lon="2.40621">
        <time>2022-07-10T11:41:13Z</time>
      </trkpt>
      <trkpt lat="41.849575" lon="2.4062614">
        <time>2022-07-10T11:41:15Z</time>
      </trkpt>
      <trkpt lat="41.84953" lon="2.406322">
        <time>2022-07-10T11:41:17Z</time>
      </trkpt>
      <trkpt lat="41.849503" lon="2.4063954">
        <time>2022-07-10T11:41:19Z</time>
      </trkpt>
      <trkpt lat="41.849483" lon="2.406475">
        <time>2022-07-10T11:41:21Z</time>
      </trkpt>
      <trkpt lat="41.849472" lon="2.406558">
        <time>2022-07-10T11:41:23Z</time>
      </trkpt>
      <trkpt lat="41.849453" lon="2.406638">
        <time>2022-07-10T11:41:25Z</time>
      </trkpt>
      <trkpt lat="41.84943" lon="2.40671">
        <time>2022-07-10T11:41:27Z</time>
      </trkpt>
      <trkpt lat="41.8494" lon="2.4067707">
        <time>2022-07-10T11:41:29Z</time>
      </trkpt>
      <trkpt lat="41.84937" lon="2.406825">
        <time>2022-07-10T11:41:31Z</time>
      </trkpt>
      <trkpt lat="41.849335" lon="2.4068727">
        <time>2022-07-10T11:41:33Z</time>
      </trkpt>
      <trkpt lat="41.849266" lon="2.4069266">
        <time>2022-07-10T11:41:36Z</time>
      </trkpt>
      <trkpt lat="41.849224" lon="2.4069502">
        <time>2022-07-10T11:41:38Z</time>
      </trkpt>
      <trkpt lat="41.84916" lon="2.4069812">
        <time>2022-07-10T11:41:41Z</time>
      </trkpt>
      <trkpt lat="41.84909" lon="2.4070034">
        <time>2022-07-10T11:41:44Z</time>
      </trkpt>
      <trkpt lat="41.84904" lon="2.407006">
        <time>2022-07-10T11:41:46Z</time>
      </trkpt>
      <trkpt lat="41.848965" lon="2.4069977">
        <time>2022-07-10T11:41:49Z</time>
      </trkpt>
      <trkpt lat="41.848915" lon="2.4069903">
        <time>2022-07-10T11:41:51Z</time>
      </trkpt>
      <trkpt lat="41.84886" lon="2.406982">
        <time>2022-07-10T11:41:53Z</time>
      </trkpt>
      <trkpt lat="41.848785" lon="2.4069734">
        <time>2022-07-10T11:41:56Z</time>
      </trkpt>
      <trkpt lat="41.848732" lon="2.4069657">
        <time>2022-07-10T11:41:58Z</time>
      </trkpt>
      <trkpt lat="41.84868" lon="2.406958">
        <time>2022-07-10T11:42:00Z</time>
      </trkpt>
      <trkpt lat="41.84863" lon="2.406951">
        <time>2022-07-10T11:42:02Z</time>
      </trkpt>
      <trkpt lat="41.848557" lon="2.4069283">
        <time>2022-07-10T11:42:05Z</time>
      </trkpt>
      <trkpt lat="41.84849" lon="2.4069006">
        <time>2022-07-10T11:42:08Z</time>
      </trkpt>
      <trkpt lat="41.848423" lon="2.4068882">
        <time>2022-07-10T11:42:11Z</time>
      </trkpt>
      <trkpt lat="41.84836" lon="2.4068856">
        <time>2022-07-10T11:42:14Z</time>
      </trkpt>
      <trkpt lat="41.84829" lon="2.406896">
        <time>2022-07-10T11:42:17Z</time>
      </trkpt>
      <trkpt lat="41.84822" lon="2.40693">
        <time>2022-07-10T11:42:20Z</time>
      </trkpt>
      <trkpt lat="41.848186" lon="2.4069896">
        <time>2022-07-10T11:42:23Z</time>
      </trkpt>
      <trkpt lat="41.848186" lon="2.4070683">
        <time>2022-07-10T11:42:26Z</time>
      </trkpt>
      <trkpt lat="41.84823" lon="2.4071252">
        <time>2022-07-10T11:42:29Z</time>
      </trkpt>
      <trkpt lat="41.848278" lon="2.4071817">
        <time>2022-07-10T11:42:32Z</time>
      </trkpt>
      <trkpt lat="41.848328" lon="2.4072304">
        <time>2022-07-10T11:42:35Z</time>
      </trkpt>
      <trkpt lat="41.848392" lon="2.4072816">
        <time>2022-07-10T11:42:38Z</time>
      </trkpt>
      <trkpt lat="41.848434" lon="2.407321">
        <time>2022-07-10T11:42:40Z</time>
      </trkpt>
      <trkpt lat="41.848484" lon="2.4073913">
        <time>2022-07-10T11:42:43Z</time>
      </trkpt>
      <trkpt lat="41.848522" lon="2.40747">
        <time>2022-07-10T11:42:46Z</time>
      </trkpt>
      <trkpt lat="41.848564" lon="2.407551">
        <time>2022-07-10T11:42:49Z</time>
      </trkpt>
      <trkpt lat="41.8486" lon="2.4076004">
        <time>2022-07-10T11:42:51Z</time>
      </trkpt>
      <trkpt lat="41.84866" lon="2.4076612">
        <time>2022-07-10T11:42:54Z</time>
      </trkpt>
      <trkpt lat="41.848705" lon="2.4076934">
        <time>2022-07-10T11:42:56Z</time>
      </trkpt>
      <trkpt lat="41.848774" lon="2.4077322">
        <time>2022-07-10T11:42:59Z</time>
      </trkpt>
      <trkpt lat="41.848824" lon="2.4077659">
        <time>2022-07-10T11:43:01Z</time>
      </trkpt>
      <trkpt lat="41.84887" lon="2.4078023">
        <time>2022-07-10T11:43:03Z</time>
      </trkpt>
      <trkpt lat="41.848915" lon="2.4078412">
        <time>2022-07-10T11:43:05Z</time>
      </trkpt>
      <trkpt lat="41.848957" lon="2.4078796">
        <time>2022-07-10T11:43:07Z</time>
      </trkpt>
      <trkpt lat="41.849014" lon="2.40794">
        <time>2022-07-10T11:43:10Z</time>
      </trkpt>
      <trkpt lat="41.84907" lon="2.4080057">
        <time>2022-07-10T11:43:13Z</time>
      </trkpt>
      <trkpt lat="41.84911" lon="2.4080586">
        <time>2022-07-10T11:43:15Z</time>
      </trkpt>
      <trkpt lat="41.849136" lon="2.408119">
        <time>2022-07-10T11:43:17Z</time>
      </trkpt>
      <trkpt lat="41.849148" lon="2.4081829">
        <time>2022-07-10T11:43:19Z</time>
      </trkpt>
      <trkpt lat="41.84914" lon="2.4082863">
        <time>2022-07-10T11:43:22Z</time>
      </trkpt>
      <trkpt lat="41.84912" lon="2.4083567">
        <time>2022-07-10T11:43:24Z</time>
      </trkpt>
      <trkpt lat="41.849094" lon="2.4084222">
        <time>2022-07-10T11:43:26Z</time>
      </trkpt>
      <trkpt lat="41.84905" lon="2.4085162">
        <time>2022-07-10T11:43:29Z</time>
      </trkpt>
      <trkpt lat="41.849026" lon="2.4085839">
        <time>2022-07-10T11:43:31Z</time>
      </trkpt>
      <trkpt lat="41.849003" lon="2.4086542">
        <time>2022-07-10T11:43:33Z</time>
      </trkpt>
      <trkpt lat="41.848988" lon="2.4087255">
        <time>2022-07-10T11:43:35Z</time>
      </trkpt>
      <trkpt lat="41.848965" lon="2.408798">
        <time>2022-07-10T11:43:37Z</time>
      </trkpt>
      <trkpt lat="41.848938" lon="2.4088743">
        <time>2022-07-10T11:43:39Z</time>
      </trkpt>
      <trkpt lat="41.84891" lon="2.4089565">
        <time>2022-07-10T11:43:41Z</time>
      </trkpt>
      <trkpt lat="41.848885" lon="2.4090476">
        <time>2022-07-10T11:43:43Z</time>
      </trkpt>
      <trkpt lat="41.848858" lon="2.409145">
        <time>2022-07-10T11:43:45Z</time>
      </trkpt>
      <trkpt lat="41.848827" lon="2.4092486">
        <time>2022-07-10T11:43:47Z</time>
      </trkpt>
      <trkpt lat="41.848797" lon="2.4093559">
        <time>2022-07-10T11:43:49Z</time>
      </trkpt>
      <trkpt lat="41.848766" lon="2.4094691">
        <time>2022-07-10T11:43:51Z</time>
      </trkpt>
      <trkpt lat="41.84873" lon="2.4095972">
        <time>2022-07-10T11:43:53Z</time>
      </trkpt>
      <trkpt lat="41.84871" lon="2.4096675">
        <time>2022-07-10T11:43:54Z</time>
      </trkpt>
      <trkpt lat="41.84869" lon="2.4097419">
        <time>2022-07-10T11:43:55Z</time>
      </trkpt>
      <trkpt lat="41.848663" lon="2.4098213">
        <time>2022-07-10T11:43:56Z</time>
      </trkpt>
      <trkpt lat="41.848637" lon="2.4099112">
        <time>2022-07-10T11:43:57Z</time>
      </trkpt>
      <trkpt lat="41.84861" lon="2.4100032">
        <time>2022-07-10T11:43:58Z</time>
      </trkpt>
      <trkpt lat="41.848587" lon="2.41009">
        <time>2022-07-10T11:43:59Z</time>
      </trkpt>
      <trkpt lat="41.84856" lon="2.410188">
        <time>2022-07-10T11:44:00Z</time>
      </trkpt>
      <trkpt lat="41.848534" lon="2.4102871">
        <time>2022-07-10T11:44:01Z</time>
      </trkpt>
      <trkpt lat="41.84851" lon="2.4103885">
        <time>2022-07-10T11:44:02Z</time>
      </trkpt>
      <trkpt lat="41.84849" lon="2.4104922">
        <time>2022-07-10T11:44:03Z</time>
      </trkpt>
      <trkpt lat="41.848484" lon="2.4105976">
        <time>2022-07-10T11:44:04Z</time>
      </trkpt>
      <trkpt lat="41.848488" lon="2.4107025">
        <time>2022-07-10T11:44:05Z</time>
      </trkpt>
      <trkpt lat="41.848503" lon="2.4108045">
        <time>2022-07-10T11:44:06Z</time>
      </trkpt>
      <trkpt lat="41.848526" lon="2.4109006">
        <time>2022-07-10T11:44:07Z</time>
      </trkpt>
      <trkpt lat="41.84856" lon="2.4109976">
        <time>2022-07-10T11:44:08Z</time>
      </trkpt>
      <trkpt lat="41.848625" lon="2.4112089">
        <time>2022-07-10T11:44:10Z</time>
      </trkpt>
      <trkpt lat="41.84864" lon="2.4113202">
        <time>2022-07-10T11:44:11Z</time>
      </trkpt>
      <trkpt lat="41.84864" lon="2.4114325">
        <time>2022-07-10T11:44:12Z</time>
      </trkpt>
      <trkpt lat="41.848633" lon="2.4115453">
        <time>2022-07-10T11:44:13Z</time>
      </trkpt>
      <trkpt lat="41.84862" lon="2.4116588">
        <time>2022-07-10T11:44:14Z</time>
      </trkpt>
      <trkpt lat="41.848614" lon="2.4117749">
        <time>2022-07-10T11:44:15Z</time>
      </trkpt>
      <trkpt lat="41.84861" lon="2.4118953">
        <time>2022-07-10T11:44:16Z</time>
      </trkpt>
      <trkpt lat="41.848614" lon="2.4120188">
        <time>2022-07-10T11:44:17Z</time>
      </trkpt>
      <trkpt lat="41.848618" lon="2.4121454">
        <time>2022-07-10T11:44:18Z</time>
      </trkpt>
      <trkpt lat="41.84862" lon="2.412275">
        <time>2022-07-10T11:44:19Z</time>
      </trkpt>
      <trkpt lat="41.84863" lon="2.4124165">
        <time>2022-07-10T11:44:20Z</time>
      </trkpt>
      <trkpt lat="41.848637" lon="2.4125497">
        <time>2022-07-10T11:44:21Z</time>
      </trkpt>
      <trkpt lat="41.848648" lon="2.4126859">
        <time>2022-07-10T11:44:22Z</time>
      </trkpt>
      <trkpt lat="41.84866" lon="2.4128249">
        <time>2022-07-10T11:44:23Z</time>
      </trkpt>
      <trkpt lat="41.84867" lon="2.412964">
        <time>2022-07-10T11:44:24Z</time>
      </trkpt>
      <trkpt lat="41.848682" lon="2.4131048">
        <time>2022-07-10T11:44:25Z</time>
      </trkpt>
      <trkpt lat="41.848694" lon="2.4132485">
        <time>2022-07-10T11:44:26Z</time>
      </trkpt>
      <trkpt lat="41.848705" lon="2.4133997">
        <time>2022-07-10T11:44:27Z</time>
      </trkpt>
      <trkpt lat="41.848713" lon="2.4135487">
        <time>2022-07-10T11:44:28Z</time>
      </trkpt>
      <trkpt lat="41.848724" lon="2.4136875">
        <time>2022-07-10T11:44:29Z</time>
      </trkpt>
      <trkpt lat="41.848732" lon="2.4138315">
        <time>2022-07-10T11:44:30Z</time>
      </trkpt>
      <trkpt lat="41.848736" lon="2.4139795">
        <time>2022-07-10T11:44:31Z</time>
      </trkpt>
      <trkpt lat="41.84873" lon="2.4141257">
        <time>2022-07-10T11:44:32Z</time>
      </trkpt>
      <trkpt lat="41.848713" lon="2.4142697">
        <time>2022-07-10T11:44:33Z</time>
      </trkpt>
      <trkpt lat="41.848686" lon="2.4144125">
        <time>2022-07-10T11:44:34Z</time>
      </trkpt>
      <trkpt lat="41.848656" lon="2.4145525">
        <time>2022-07-10T11:44:35Z</time>
      </trkpt>
      <trkpt lat="41.84862" lon="2.4146898">
        <time>2022-07-10T11:44:36Z</time>
      </trkpt>
      <trkpt lat="41.848587" lon="2.4148273">
        <time>2022-07-10T11:44:37Z</time>
      </trkpt>
      <trkpt lat="41.848557" lon="2.4149687">
        <time>2022-07-10T11:44:38Z</time>
      </trkpt>
      <trkpt lat="41.84853" lon="2.4151113">
        <time>2022-07-10T11:44:39Z</time>
      </trkpt>
      <trkpt lat="41.848515" lon="2.4152558">
        <time>2022-07-10T11:44:40Z</time>
      </trkpt>
      <trkpt lat="41.848507" lon="2.4153922">
        <time>2022-07-10T11:44:41Z</time>
      </trkpt>
      <trkpt lat="41.8485" lon="2.4155333">
        <time>2022-07-10T11:44:42Z</time>
      </trkpt>
      <trkpt lat="41.848495" lon="2.4156868">
        <time>2022-07-10T11:44:43Z</time>
      </trkpt>
      <trkpt lat="41.8485" lon="2.4158351">
        <time>2022-07-10T11:44:44Z</time>
      </trkpt>
      <trkpt lat="41.84851" lon="2.4159691">
        <time>2022-07-10T11:44:45Z</time>
      </trkpt>
      <trkpt lat="41.848534" lon="2.4160974">
        <time>2022-07-10T11:44:46Z</time>
      </trkpt>
      <trkpt lat="41.848576" lon="2.416225">
        <time>2022-07-10T11:44:47Z</time>
      </trkpt>
      <trkpt lat="41.84863" lon="2.4163494">
        <time>2022-07-10T11:44:48Z</time>
      </trkpt>
      <trkpt lat="41.848686" lon="2.4164584">
        <time>2022-07-10T11:44:49Z</time>
      </trkpt>
      <trkpt lat="41.84875" lon="2.4165614">
        <time>2022-07-10T11:44:50Z</time>
      </trkpt>
      <trkpt lat="41.84882" lon="2.4166574">
        <time>2022-07-10T11:44:51Z</time>
      </trkpt>
      <trkpt lat="41.848904" lon="2.41675">
        <time>2022-07-10T11:44:52Z</time>
      </trkpt>
      <trkpt lat="41.84899" lon="2.4168367">
        <time>2022-07-10T11:44:53Z</time>
      </trkpt>
      <trkpt lat="41.849075" lon="2.4169247">
        <time>2022-07-10T11:44:54Z</time>
      </trkpt>
      <trkpt lat="41.849148" lon="2.417012">
        <time>2022-07-10T11:44:55Z</time>
      </trkpt>
      <trkpt lat="41.849224" lon="2.4171174">
        <time>2022-07-10T11:44:56Z</time>
      </trkpt>
      <trkpt lat="41.84929" lon="2.4172251">
        <time>2022-07-10T11:44:57Z</time>
      </trkpt>
      <trkpt lat="41.849358" lon="2.4173293">
        <time>2022-07-10T11:44:58Z</time>
      </trkpt>
      <trkpt lat="41.849426" lon="2.4174223">
        <time>2022-07-10T11:44:59Z</time>
      </trkpt>
      <trkpt lat="41.849503" lon="2.4174984">
        <time>2022-07-10T11:45:00Z</time>
      </trkpt>
      <trkpt lat="41.849583" lon="2.4175577">
        <time>2022-07-10T11:45:01Z</time>
      </trkpt>
      <trkpt lat="41.849667" lon="2.417601">
        <time>2022-07-10T11:45:02Z</time>
      </trkpt>
      <trkpt lat="41.849754" lon="2.4176264">
        <time>2022-07-10T11:45:03Z</time>
      </trkpt>
      <trkpt lat="41.849842" lon="2.417623">
        <time>2022-07-10T11:45:04Z</time>
      </trkpt>
      <trkpt lat="41.849926" lon="2.4175897">
        <time>2022-07-10T11:45:05Z</time>
      </trkpt>
      <trkpt lat="41.850006" lon="2.417532">
        <time>2022-07-10T11:45:06Z</time>
      </trkpt>
      <trkpt lat="41.850082" lon="2.417464">
        <time>2022-07-10T11:45:07Z</time>
      </trkpt>
      <trkpt lat="41.850155" lon="2.4173834">
        <time>2022-07-10T11:45:08Z</time>
      </trkpt>
      <trkpt lat="41.850224" lon="2.417292">
        <time>2022-07-10T11:45:09Z</time>
      </trkpt>
      <trkpt lat="41.85028" lon="2.4171934">
        <time>2022-07-10T11:45:10Z</time>
      </trkpt>
      <trkpt lat="41.850334" lon="2.4170878">
        <time>2022-07-10T11:45:11Z</time>
      </trkpt>
      <trkpt lat="41.85038" lon="2.416979">
        <time>2022-07-10T11:45:12Z</time>
      </trkpt>
      <trkpt lat="41.850437" lon="2.4168754">
        <time>2022-07-10T11:45:13Z</time>
      </trkpt>
      <trkpt lat="41.850506" lon="2.4167972">
        <time>2022-07-10T11:45:14Z</time>
      </trkpt>
      <trkpt lat="41.850574" lon="2.4167464">
        <time>2022-07-10T11:45:15Z</time>
      </trkpt>
      <trkpt lat="41.850643" lon="2.4167235">
        <time>2022-07-10T11:45:16Z</time>
      </trkpt>
      <trkpt lat="41.850716" lon="2.4167306">
        <time>2022-07-10T11:45:17Z</time>
      </trkpt>
      <trkpt lat="41.850845" lon="2.4167955">
        <time>2022-07-10T11:45:19Z</time>
      </trkpt>
      <trkpt lat="41.850906" lon="2.4168463">
        <time>2022-07-10T11:45:20Z</time>
      </trkpt>
      <trkpt lat="41.850967" lon="2.4169054">
        <time>2022-07-10T11:45:21Z</time>
      </trkpt>
      <trkpt lat="41.851025" lon="2.4169683">
        <time>2022-07-10T11:45:22Z</time>
      </trkpt>
      <trkpt lat="41.851078" lon="2.417037">
        <time>2022-07-10T11:45:23Z</time>
      </trkpt>
      <trkpt lat="41.85113" lon="2.4171116">
        <time>2022-07-10T11:45:24Z</time>
      </trkpt>
      <trkpt lat="41.851173" lon="2.417193">
        <time>2022-07-10T11:45:25Z</time>
      </trkpt>
      <trkpt lat="41.85121" lon="2.4172812">
        <time>2022-07-10T11:45:26Z</time>
      </trkpt>
      <trkpt lat="41.851242" lon="2.4173713">
        <time>2022-07-10T11:45:27Z</time>
      </trkpt>
      <trkpt lat="41.851265" lon="2.4174638">
        <time>2022-07-10T11:45:28Z</time>
      </trkpt>
      <trkpt lat="41.851284" lon="2.417558">
        <time>2022-07-10T11:45:29Z</time>
      </trkpt>
      <trkpt lat="41.851303" lon="2.4176533">
        <time>2022-07-10T11:45:30Z</time>
      </trkpt>
      <trkpt lat="41.85132" lon="2.4177506">
        <time>2022-07-10T11:45:31Z</time>
      </trkpt>
      <trkpt lat="41.85133" lon="2.4178486">
        <time>2022-07-10T11:45:32Z</time>
      </trkpt>
      <trkpt lat="41.851334" lon="2.4179482">
        <time>2022-07-10T11:45:33Z</time>
      </trkpt>
      <trkpt lat="41.85133" lon="2.4180486">
        <time>2022-07-10T11:45:34Z</time>
      </trkpt>
      <trkpt lat="41.85132" lon="2.4181483">
        <time>2022-07-10T11:45:35Z</time>
      </trkpt>
      <trkpt lat="41.8513" lon="2.4182477">
        <time>2022-07-10T11:45:36Z</time>
      </trkpt>
      <trkpt lat="41.851273" lon="2.4183466">
        <time>2022-07-10T11:45:37Z</time>
      </trkpt>
      <trkpt lat="41.851242" lon="2.418445">
        <time>2022-07-10T11:45:38Z</time>
      </trkpt>
      <trkpt lat="41.85121" lon="2.418543">
        <time>2022-07-10T11:45:39Z</time>
      </trkpt>
      <trkpt lat="41.851185" lon="2.4186428">
        <time>2022-07-10T11:45:40Z</time>
      </trkpt>
      <trkpt lat="41.851166" lon="2.4187443">
        <time>2022-07-10T11:45:41Z</time>
      </trkpt>
      <trkpt lat="41.851162" lon="2.418847">
        <time>2022-07-10T11:45:42Z</time>
      </trkpt>
      <trkpt lat="41.851166" lon="2.41895">
        <time>2022-07-10T11:45:43Z</time>
      </trkpt>
      <trkpt lat="41.851173" lon="2.4190536">
        <time>2022-07-10T11:45:44Z</time>
      </trkpt>
      <trkpt lat="41.851185" lon="2.4191594">
        <time>2022-07-10T11:45:45Z</time>
      </trkpt>
      <trkpt lat="41.851196" lon="2.419266">
        <time>2022-07-10T11:45:46Z</time>
      </trkpt>
      <trkpt lat="41.851196" lon="2.4193718">
        <time>2022-07-10T11:45:47Z</time>
      </trkpt>
      <trkpt lat="41.85119" lon="2.4194756">
        <time>2022-07-10T11:45:48Z</time>
      </trkpt>
      <trkpt lat="41.851166" lon="2.4195719">
        <time>2022-07-10T11:45:49Z</time>
      </trkpt>
      <trkpt lat="41.851135" lon="2.4196606">
        <time>2022-07-10T11:45:50Z</time>
      </trkpt>
      <trkpt lat="41.851093" lon="2.419744">
        <time>2022-07-10T11:45:51Z</time>
      </trkpt>
      <trkpt lat="41.851048" lon="2.4198232">
        <time>2022-07-10T11:45:52Z</time>
      </trkpt>
      <trkpt lat="41.850998" lon="2.4199007">
        <time>2022-07-10T11:45:53Z</time>
      </trkpt>
      <trkpt lat="41.850945" lon="2.4199839">
        <time>2022-07-10T11:45:54Z</time>
      </trkpt>
      <trkpt lat="41.8509" lon="2.4200733">
        <time>2022-07-10T11:45:55Z</time>
      </trkpt>
      <trkpt lat="41.850853" lon="2.4201682">
        <time>2022-07-10T11:45:56Z</time>
      </trkpt>
      <trkpt lat="41.85081" lon="2.4202702">
        <time>2022-07-10T11:45:57Z</time>
      </trkpt>
      <trkpt lat="41.850765" lon="2.4203722">
        <time>2022-07-10T11:45:58Z</time>
      </trkpt>
      <trkpt lat="41.85071" lon="2.4204679">
        <time>2022-07-10T11:45:59Z</time>
      </trkpt>
      <trkpt lat="41.850647" lon="2.4205515">
        <time>2022-07-10T11:46:00Z</time>
      </trkpt>
      <trkpt lat="41.85058" lon="2.4206226">
        <time>2022-07-10T11:46:01Z</time>
      </trkpt>
      <trkpt lat="41.850502" lon="2.4206848">
        <time>2022-07-10T11:46:02Z</time>
      </trkpt>
      <trkpt lat="41.85043" lon="2.4207435">
        <time>2022-07-10T11:46:03Z</time>
      </trkpt>
      <trkpt lat="41.85036" lon="2.4208055">
        <time>2022-07-10T11:46:04Z</time>
      </trkpt>
      <trkpt lat="41.850307" lon="2.4208786">
        <time>2022-07-10T11:46:05Z</time>
      </trkpt>
      <trkpt lat="41.850266" lon="2.4209619">
        <time>2022-07-10T11:46:06Z</time>
      </trkpt>
      <trkpt lat="41.850246" lon="2.421053">
        <time>2022-07-10T11:46:07Z</time>
      </trkpt>
      <trkpt lat="41.85024" lon="2.4211428">
        <time>2022-07-10T11:46:08Z</time>
      </trkpt>
      <trkpt lat="41.850235" lon="2.4212408">
        <time>2022-07-10T11:46:09Z</time>
      </trkpt>
      <trkpt lat="41.850235" lon="2.4213529">
        <time>2022-07-10T11:46:10Z</time>
      </trkpt>
      <trkpt lat="41.850235" lon="2.4214675">
        <time>2022-07-10T11:46:11Z</time>
      </trkpt>
      <trkpt lat="41.850235" lon="2.421583">
        <time>2022-07-10T11:46:12Z</time>
      </trkpt>
      <trkpt lat="41.85024" lon="2.4216993">
        <time>2022-07-10T11:46:13Z</time>
      </trkpt>
      <trkpt lat="41.85025" lon="2.4218144">
        <time>2022-07-10T11:46:14Z</time>
      </trkpt>
      <trkpt lat="41.850273" lon="2.4219213">
        <time>2022-07-10T11:46:15Z</time>
      </trkpt>
      <trkpt lat="41.850304" lon="2.4220288">
        <time>2022-07-10T11:46:16Z</time>
      </trkpt>
      <trkpt lat="41.850338" lon="2.4221382">
        <time>2022-07-10T11:46:17Z</time>
      </trkpt>
      <trkpt lat="41.85038" lon="2.4222565">
        <time>2022-07-10T11:46:18Z</time>
      </trkpt>
      <trkpt lat="41.85042" lon="2.4223752">
        <time>2022-07-10T11:46:19Z</time>
      </trkpt>
      <trkpt lat="41.850464" lon="2.4224842">
        <time>2022-07-10T11:46:20Z</time>
      </trkpt>
      <trkpt lat="41.850502" lon="2.4225893">
        <time>2022-07-10T11:46:21Z</time>
      </trkpt>
      <trkpt lat="41.850548" lon="2.4226882">
        <time>2022-07-10T11:46:22Z</time>
      </trkpt>
      <trkpt lat="41.8506" lon="2.4227688">
        <time>2022-07-10T11:46:23Z</time>
      </trkpt>
      <trkpt lat="41.850662" lon="2.4228275">
        <time>2022-07-10T11:46:24Z</time>
      </trkpt>
      <trkpt lat="41.850727" lon="2.4228635">
        <time>2022-07-10T11:46:25Z</time>
      </trkpt>
      <trkpt lat="41.850792" lon="2.4228792">
        <time>2022-07-10T11:46:26Z</time>
      </trkpt>
      <trkpt lat="41.850864" lon="2.422877">
        <time>2022-07-10T11:46:27Z</time>
      </trkpt>
      <trkpt lat="41.85102" lon="2.4228284">
        <time>2022-07-10T11:46:29Z</time>
      </trkpt>
      <trkpt lat="41.851097" lon="2.4227798">
        <time>2022-07-10T11:46:30Z</time>
      </trkpt>
      <trkpt lat="41.851166" lon="2.4227135">
        <time>2022-07-10T11:46:31Z</time>
      </trkpt>
      <trkpt lat="41.851223" lon="2.4226305">
        <time>2022-07-10T11:46:32Z</time>
      </trkpt>
      <trkpt lat="41.851273" lon="2.4225311">
        <time>2022-07-10T11:46:33Z</time>
      </trkpt>
      <trkpt lat="41.851322" lon="2.4224422">
        <time>2022-07-10T11:46:34Z</time>
      </trkpt>
      <trkpt lat="41.85138" lon="2.4223635">
        <time>2022-07-10T11:46:35Z</time>
      </trkpt>
      <trkpt lat="41.851444" lon="2.4223065">
        <time>2022-07-10T11:46:36Z</time>
      </trkpt>
      <trkpt lat="41.851513" lon="2.422273">
        <time>2022-07-10T11:46:37Z</time>
      </trkpt>
      <trkpt lat="41.851585" lon="2.4222736">
        <time>2022-07-10T11:46:38Z</time>
      </trkpt>
      <trkpt lat="41.851654" lon="2.4223013">
        <time>2022-07-10T11:46:39Z</time>
      </trkpt>
      <trkpt lat="41.851715" lon="2.4223442">
        <time>2022-07-10T11:46:40Z</time>
      </trkpt>
      <trkpt lat="41.851776" lon="2.4224012">
        <time>2022-07-10T11:46:41Z</time>
      </trkpt>
      <trkpt lat="41.851845" lon="2.4224665">
        <time>2022-07-10T11:46:42Z</time>
      </trkpt>
      <trkpt lat="41.851917" lon="2.4225266">
        <time>2022-07-10T11:46:43Z</time>
      </trkpt>
      <trkpt lat="41.851994" lon="2.4225826">
        <time>2022-07-10T11:46:44Z</time>
      </trkpt>
      <trkpt lat="41.852074" lon="2.422635">
        <time>2022-07-10T11:46:45Z</time>
      </trkpt>
      <trkpt lat="41.852154" lon="2.4226851">
        <time>2022-07-10T11:46:46Z</time>
      </trkpt>
      <trkpt lat="41.85223" lon="2.4227314">
        <time>2022-07-10T11:46:47Z</time>
      </trkpt>
      <trkpt lat="41.852318" lon="2.4227831">
        <time>2022-07-10T11:46:48Z</time>
      </trkpt>
      <trkpt lat="41.8524" lon="2.422834">
        <time>2022-07-10T11:46:49Z</time>
      </trkpt>
      <trkpt lat="41.85248" lon="2.4228837">
        <time>2022-07-10T11:46:50Z</time>
      </trkpt>
      <trkpt lat="41.852562" lon="2.4229288">
        <time>2022-07-10T11:46:51Z</time>
      </trkpt>
      <trkpt lat="41.852642" lon="2.4229672">
        <time>2022-07-10T11:46:52Z</time>
      </trkpt>
      <trkpt lat="41.852715" lon="2.4229949">
        <time>2022-07-10T11:46:53Z</time>
      </trkpt>
      <trkpt lat="41.852783" lon="2.4230032">
        <time>2022-07-10T11:46:54Z</time>
      </trkpt>
      <trkpt lat="41.852844" lon="2.4229932">
        <time>2022-07-10T11:46:55Z</time>
      </trkpt>
      <trkpt lat="41.85291" lon="2.4229617">
        <time>2022-07-10T11:46:56Z</time>
      </trkpt>
      <trkpt lat="41.852978" lon="2.4229212">
        <time>2022-07-10T11:46:57Z</time>
      </trkpt>
      <trkpt lat="41.85305" lon="2.4228818">
        <time>2022-07-10T11:46:58Z</time>
      </trkpt>
      <trkpt lat="41.853127" lon="2.4228444">
        <time>2022-07-10T11:46:59Z</time>
      </trkpt>
      <trkpt lat="41.853203" lon="2.4228098">
        <time>2022-07-10T11:47:00Z</time>
      </trkpt>
      <trkpt lat="41.853275" lon="2.4227753">
        <time>2022-07-10T11:47:01Z</time>
      </trkpt>
      <trkpt lat="41.85336" lon="2.4227388">
        <time>2022-07-10T11:47:02Z</time>
      </trkpt>
      <trkpt lat="41.853447" lon="2.4227095">
        <time>2022-07-10T11:47:03Z</time>
      </trkpt>
      <trkpt lat="41.853535" lon="2.4226906">
        <time>2022-07-10T11:47:04Z</time>
      </trkpt>
      <trkpt lat="41.85362" lon="2.4226809">
        <time>2022-07-10T11:47:05Z</time>
      </trkpt>
      <trkpt lat="41.853714" lon="2.4226801">
        <time>2022-07-10T11:47:06Z</time>
      </trkpt>
      <trkpt lat="41.85381" lon="2.422684">
        <time>2022-07-10T11:47:07Z</time>
      </trkpt>
      <trkpt lat="41.853897" lon="2.4226885">
        <time>2022-07-10T11:47:08Z</time>
      </trkpt>
      <trkpt lat="41.853985" lon="2.4226918">
        <time>2022-07-10T11:47:09Z</time>
      </trkpt>
      <trkpt lat="41.854073" lon="2.422689">
        <time>2022-07-10T11:47:10Z</time>
      </trkpt>
      <trkpt lat="41.854156" lon="2.4226758">
        <time>2022-07-10T11:47:11Z</time>
      </trkpt>
      <trkpt lat="41.85423" lon="2.4226499">
        <time>2022-07-10T11:47:12Z</time>
      </trkpt>
      <trkpt lat="41.85429" lon="2.4226103">
        <time>2022-07-10T11:47:13Z</time>
      </trkpt>
      <trkpt lat="41.85434" lon="2.4225569">
        <time>2022-07-10T11:47:14Z</time>
      </trkpt>
      <trkpt lat="41.85437" lon="2.4224927">
        <time>2022-07-10T11:47:15Z</time>
      </trkpt>
      <trkpt lat="41.854378" lon="2.4224129">
        <time>2022-07-10T11:47:16Z</time>
      </trkpt>
      <trkpt lat="41.854374" lon="2.4223325">
        <time>2022-07-10T11:47:17Z</time>
      </trkpt>
      <trkpt lat="41.854355" lon="2.4222438">
        <time>2022-07-10T11:47:18Z</time>
      </trkpt>
      <trkpt lat="41.854332" lon="2.4221478">
        <time>2022-07-10T11:47:19Z</time>
      </trkpt>
      <trkpt lat="41.85431" lon="2.4220428">
        <time>2022-07-10T11:47:20Z</time>
      </trkpt>
      <trkpt lat="41.854282" lon="2.4219298">
        <time>2022-07-10T11:47:21Z</time>
      </trkpt>
      <trkpt lat="41.85426" lon="2.4218125">
        <time>2022-07-10T11:47:22Z</time>
      </trkpt>
      <trkpt lat="41.85424" lon="2.4216952">
        <time>2022-07-10T11:47:23Z</time>
      </trkpt>
      <trkpt lat="41.85423" lon="2.4215837">
        <time>2022-07-10T11:47:24Z</time>
      </trkpt>
      <trkpt lat="41.854237" lon="2.421479">
        <time>2022-07-10T11:47:25Z</time>
      </trkpt>
      <trkpt lat="41.854256" lon="2.4213881">
        <time>2022-07-10T11:47:26Z</time>
      </trkpt>
      <trkpt lat="41.854294" lon="2.42132">
        <time>2022-07-10T11:47:27Z</time>
      </trkpt>
      <trkpt lat="41.85434" lon="2.4212775">
        <time>2022-07-10T11:47:28Z</time>
      </trkpt>
      <trkpt lat="41.854393" lon="2.4212604">
        <time>2022-07-10T11:47:29Z</time>
      </trkpt>
      <trkpt lat="41.854443" lon="2.4212658">
        <time>2022-07-10T11:47:30Z</time>
      </trkpt>
      <trkpt lat="41.854553" lon="2.4213412">
        <time>2022-07-10T11:47:32Z</time>
      </trkpt>
      <trkpt lat="41.854607" lon="2.4213953">
        <time>2022-07-10T11:47:33Z</time>
      </trkpt>
      <trkpt lat="41.854664" lon="2.4214547">
        <time>2022-07-10T11:47:34Z</time>
      </trkpt>
      <trkpt lat="41.85478" lon="2.4215865">
        <time>2022-07-10T11:47:36Z</time>
      </trkpt>
      <trkpt lat="41.854836" lon="2.4216578">
        <time>2022-07-10T11:47:37Z</time>
      </trkpt>
      <trkpt lat="41.854893" lon="2.4217315">
        <time>2022-07-10T11:47:38Z</time>
      </trkpt>
      <trkpt lat="41.85495" lon="2.4218047">
        <time>2022-07-10T11:47:39Z</time>
      </trkpt>
      <trkpt lat="41.855007" lon="2.4218755">
        <time>2022-07-10T11:47:40Z</time>
      </trkpt>
      <trkpt lat="41.855072" lon="2.4219387">
        <time>2022-07-10T11:47:41Z</time>
      </trkpt>
      <trkpt lat="41.85514" lon="2.4219952">
        <time>2022-07-10T11:47:42Z</time>
      </trkpt>
      <trkpt lat="41.85521" lon="2.4220495">
        <time>2022-07-10T11:47:43Z</time>
      </trkpt>
      <trkpt lat="41.855278" lon="2.4221087">
        <time>2022-07-10T11:47:44Z</time>
      </trkpt>
      <trkpt lat="41.855335" lon="2.4221745">
        <time>2022-07-10T11:47:45Z</time>
      </trkpt>
      <trkpt lat="41.855377" lon="2.4222498">
        <time>2022-07-10T11:47:46Z</time>
      </trkpt>
      <trkpt lat="41.855408" lon="2.4223328">
        <time>2022-07-10T11:47:47Z</time>
      </trkpt>
      <trkpt lat="41.85544" lon="2.4224262">
        <time>2022-07-10T11:47:48Z</time>
      </trkpt>
      <trkpt lat="41.855465" lon="2.4225118">
        <time>2022-07-10T11:47:49Z</time>
      </trkpt>
      <trkpt lat="41.855503" lon="2.4225936">
        <time>2022-07-10T11:47:50Z</time>
      </trkpt>
      <trkpt lat="41.85555" lon="2.4226644">
        <time>2022-07-10T11:47:51Z</time>
      </trkpt>
      <trkpt lat="41.855602" lon="2.4227202">
        <time>2022-07-10T11:47:52Z</time>
      </trkpt>
      <trkpt lat="41.855663" lon="2.422758">
        <time>2022-07-10T11:47:53Z</time>
      </trkpt>
      <trkpt lat="41.855732" lon="2.4227798">
        <time>2022-07-10T11:47:54Z</time>
      </trkpt>
      <trkpt lat="41.85581" lon="2.4227862">
        <time>2022-07-10T11:47:55Z</time>
      </trkpt>
      <trkpt lat="41.855885" lon="2.422782">
        <time>2022-07-10T11:47:56Z</time>
      </trkpt>
      <trkpt lat="41.855965" lon="2.4227738">
        <time>2022-07-10T11:47:57Z</time>
      </trkpt>
      <trkpt lat="41.85604" lon="2.422772">
        <time>2022-07-10T11:47:58Z</time>
      </trkpt>
      <trkpt lat="41.856113" lon="2.4227862">
        <time>2022-07-10T11:47:59Z</time>
      </trkpt>
      <trkpt lat="41.856174" lon="2.4228206">
        <time>2022-07-10T11:48:00Z</time>
      </trkpt>
      <trkpt lat="41.856224" lon="2.4228716">
        <time>2022-07-10T11:48:01Z</time>
      </trkpt>
      <trkpt lat="41.856266" lon="2.4229314">
        <time>2022-07-10T11:48:02Z</time>
      </trkpt>
      <trkpt lat="41.856316" lon="2.4229922">
        <time>2022-07-10T11:48:03Z</time>
      </trkpt>
      <trkpt lat="41.856365" lon="2.4230433">
        <time>2022-07-10T11:48:04Z</time>
      </trkpt>
      <trkpt lat="41.856426" lon="2.4230812">
        <time>2022-07-10T11:48:05Z</time>
      </trkpt>
      <trkpt lat="41.8565" lon="2.4231105">
        <time>2022-07-10T11:48:06Z</time>
      </trkpt>
      <trkpt lat="41.85658" lon="2.4231339">
        <time>2022-07-10T11:48:07Z</time>
      </trkpt>
      <trkpt lat="41.85666" lon="2.4231508">
        <time>2022-07-10T11:48:08Z</time>
      </trkpt>
      <trkpt lat="41.85674" lon="2.423163">
        <time>2022-07-10T11:48:09Z</time>
      </trkpt>
      <trkpt lat="41.85683" lon="2.4231732">
        <time>2022-07-10T11:48:10Z</time>
      </trkpt>
      <trkpt lat="41.856922" lon="2.423181">
        <time>2022-07-10T11:48:11Z</time>
      </trkpt>
      <trkpt lat="41.857014" lon="2.423186">
        <time>2022-07-10T11:48:12Z</time>
      </trkpt>
      <trkpt lat="41.8571" lon="2.4231882">
        <time>2022-07-10T11:48:13Z</time>
      </trkpt>
      <trkpt lat="41.857193" lon="2.4231882">
        <time>2022-07-10T11:48:14Z</time>
      </trkpt>
      <trkpt lat="41.857292" lon="2.4231844">
        <time>2022-07-10T11:48:15Z</time>
      </trkpt>
      <trkpt lat="41.85739" lon="2.4231749">
        <time>2022-07-10T11:48:16Z</time>
      </trkpt>
      <trkpt lat="41.857487" lon="2.4231539">
        <time>2022-07-10T11:48:17Z</time>
      </trkpt>
      <trkpt lat="41.857582" lon="2.423123">
        <time>2022-07-10T11:48:18Z</time>
      </trkpt>
      <trkpt lat="41.85768" lon="2.423087">
        <time>2022-07-10T11:48:19Z</time>
      </trkpt>
      <trkpt lat="41.857773" lon="2.423055">
        <time>2022-07-10T11:48:20Z</time>
      </trkpt>
      <trkpt lat="41.857872" lon="2.4230256">
        <time>2022-07-10T11:48:21Z</time>
      </trkpt>
      <trkpt lat="41.857975" lon="2.423004">
        <time>2022-07-10T11:48:22Z</time>
      </trkpt>
      <trkpt lat="41.858074" lon="2.4229898">
        <time>2022-07-10T11:48:23Z</time>
      </trkpt>
      <trkpt lat="41.85817" lon="2.4229841">
        <time>2022-07-10T11:48:24Z</time>
      </trkpt>
      <trkpt lat="41.858257" lon="2.4229884">
        <time>2022-07-10T11:48:25Z</time>
      </trkpt>
      <trkpt lat="41.858337" lon="2.4230025">
        <time>2022-07-10T11:48:26Z</time>
      </trkpt>
      <trkpt lat="41.85841" lon="2.4230306">
        <time>2022-07-10T11:48:27Z</time>
      </trkpt>
      <trkpt lat="41.858475" lon="2.4230695">
        <time>2022-07-10T11:48:28Z</time>
      </trkpt>
      <trkpt lat="41.85853" lon="2.4231305">
        <time>2022-07-10T11:48:29Z</time>
      </trkpt>
      <trkpt lat="41.858574" lon="2.4232028">
        <time>2022-07-10T11:48:30Z</time>
      </trkpt>
      <trkpt lat="41.85861" lon="2.423287">
        <time>2022-07-10T11:48:31Z</time>
      </trkpt>
      <trkpt lat="41.858635" lon="2.4233725">
        <time>2022-07-10T11:48:32Z</time>
      </trkpt>
      <trkpt lat="41.85865" lon="2.4234571">
        <time>2022-07-10T11:48:33Z</time>
      </trkpt>
      <trkpt lat="41.858658" lon="2.4235334">
        <time>2022-07-10T11:48:34Z</time>
      </trkpt>
      <trkpt lat="41.85865" lon="2.423606">
        <time>2022-07-10T11:48:35Z</time>
      </trkpt>
      <trkpt lat="41.858635" lon="2.4236674">
        <time>2022-07-10T11:48:36Z</time>
      </trkpt>
      <trkpt lat="41.858574" lon="2.4237537">
        <time>2022-07-10T11:48:38Z</time>
      </trkpt>
      <trkpt lat="41.85846" lon="2.4238322">
        <time>2022-07-10T11:48:41Z</time>
      </trkpt>
      <trkpt lat="41.858364" lon="2.4238656">
        <time>2022-07-10T11:48:43Z</time>
      </trkpt>
      <trkpt lat="41.858273" lon="2.4238904">
        <time>2022-07-10T11:48:45Z</time>
      </trkpt>
      <trkpt lat="41.858227" lon="2.423901">
        <time>2022-07-10T11:48:46Z</time>
      </trkpt>
      <trkpt lat="41.858143" lon="2.423922">
        <time>2022-07-10T11:48:48Z</time>
      </trkpt>
      <trkpt lat="41.858067" lon="2.4239442">
        <time>2022-07-10T11:48:50Z</time>
      </trkpt>
      <trkpt lat="41.857994" lon="2.4239662">
        <time>2022-07-10T11:48:52Z</time>
      </trkpt>
      <trkpt lat="41.85793" lon="2.423988">
        <time>2022-07-10T11:48:54Z</time>
      </trkpt>
      <trkpt lat="41.85786" lon="2.4240074">
        <time>2022-07-10T11:48:56Z</time>
      </trkpt>
      <trkpt lat="41.857796" lon="2.4240282">
        <time>2022-07-10T11:48:58Z</time>
      </trkpt>
      <trkpt lat="41.85773" lon="2.4240456">
        <time>2022-07-10T11:49:00Z</time>
      </trkpt>
      <trkpt lat="41.857666" lon="2.4240642">
        <time>2022-07-10T11:49:02Z</time>
      </trkpt>
      <trkpt lat="41.8576" lon="2.424088">
        <time>2022-07-10T11:49:04Z</time>
      </trkpt>
      <trkpt lat="41.85754" lon="2.4241142">
        <time>2022-07-10T11:49:06Z</time>
      </trkpt>
      <trkpt lat="41.85748" lon="2.4241428">
        <time>2022-07-10T11:49:08Z</time>
      </trkpt>
      <trkpt lat="41.857418" lon="2.4241724">
        <time>2022-07-10T11:49:10Z</time>
      </trkpt>
      <trkpt lat="41.857353" lon="2.4242048">
        <time>2022-07-10T11:49:12Z</time>
      </trkpt>
      <trkpt lat="41.857292" lon="2.424237">
        <time>2022-07-10T11:49:14Z</time>
      </trkpt>
      <trkpt lat="41.857227" lon="2.4242651">
        <time>2022-07-10T11:49:16Z</time>
      </trkpt>
      <trkpt lat="41.857162" lon="2.4242907">
        <time>2022-07-10T11:49:18Z</time>
      </trkpt>
      <trkpt lat="41.857098" lon="2.4243183">
        <time>2022-07-10T11:49:20Z</time>
      </trkpt>
      <trkpt lat="41.857033" lon="2.424349">
        <time>2022-07-10T11:49:22Z</time>
      </trkpt>
      <trkpt lat="41.856968" lon="2.4243786">
        <time>2022-07-10T11:49:24Z</time>
      </trkpt>
      <trkpt lat="41.8569" lon="2.4244058">
        <time>2022-07-10T11:49:26Z</time>
      </trkpt>
      <trkpt lat="41.856834" lon="2.4244292">
        <time>2022-07-10T11:49:28Z</time>
      </trkpt>
      <trkpt lat="41.85677" lon="2.4244547">
        <time>2022-07-10T11:49:30Z</time>
      </trkpt>
      <trkpt lat="41.8567" lon="2.4244788">
        <time>2022-07-10T11:49:32Z</time>
      </trkpt>
      <trkpt lat="41.856632" lon="2.4245021">
        <time>2022-07-10T11:49:34Z</time>
      </trkpt>
      <trkpt lat="41.85657" lon="2.4245267">
        <time>2022-07-10T11:49:36Z</time>
      </trkpt>
      <trkpt lat="41.856514" lon="2.4245493">
        <time>2022-07-10T11:49:38Z</time>
      </trkpt>
      <trkpt lat="41.85646" lon="2.4245684">
        <time>2022-07-10T11:49:40Z</time>
      </trkpt>
      <trkpt lat="41.85641" lon="2.424587">
        <time>2022-07-10T11:49:42Z</time>
      </trkpt>
      <trkpt lat="41.85634" lon="2.4246128">
        <time>2022-07-10T11:49:45Z</time>
      </trkpt>
      <trkpt lat="41.856266" lon="2.4246466">
        <time>2022-07-10T11:49:48Z</time>
      </trkpt>
      <trkpt lat="41.856216" lon="2.4246683">
        <time>2022-07-10T11:49:50Z</time>
      </trkpt>
      <trkpt lat="41.85617" lon="2.4246883">
        <time>2022-07-10T11:49:52Z</time>
      </trkpt>
      <trkpt lat="41.856102" lon="2.42472">
        <time>2022-07-10T11:49:55Z</time>
      </trkpt>
      <trkpt lat="41.856033" lon="2.4247487">
        <time>2022-07-10T11:49:58Z</time>
      </trkpt>
      <trkpt lat="41.85596" lon="2.424771">
        <time>2022-07-10T11:50:01Z</time>
      </trkpt>
      <trkpt lat="41.85589" lon="2.424787">
        <time>2022-07-10T11:50:04Z</time>
      </trkpt>
      <trkpt lat="41.855816" lon="2.4247997">
        <time>2022-07-10T11:50:07Z</time>
      </trkpt>
      <trkpt lat="41.855766" lon="2.424805">
        <time>2022-07-10T11:50:09Z</time>
      </trkpt>
      <trkpt lat="41.85569" lon="2.4248064">
        <time>2022-07-10T11:50:12Z</time>
      </trkpt>
      <trkpt lat="41.85564" lon="2.424803">
        <time>2022-07-10T11:50:14Z</time>
      </trkpt>
      <trkpt lat="41.855568" lon="2.4247913">
        <time>2022-07-10T11:50:17Z</time>
      </trkpt>
      <trkpt lat="41.85549" lon="2.424778">
        <time>2022-07-10T11:50:20Z</time>
      </trkpt>
      <trkpt lat="41.85542" lon="2.4247644">
        <time>2022-07-10T11:50:23Z</time>
      </trkpt>
      <trkpt lat="41.855373" lon="2.4247494">
        <time>2022-07-10T11:50:25Z</time>
      </trkpt>
      <trkpt lat="41.85531" lon="2.4247274">
        <time>2022-07-10T11:50:28Z</time>
      </trkpt>
      <trkpt lat="41.85524" lon="2.424714">
        <time>2022-07-10T11:50:31Z</time>
      </trkpt>
      <trkpt lat="41.855175" lon="2.4247053">
        <time>2022-07-10T11:50:34Z</time>
      </trkpt>
      <trkpt lat="41.855118" lon="2.4247108">
        <time>2022-07-10T11:50:37Z</time>
      </trkpt>
      <trkpt lat="41.855057" lon="2.4247262">
        <time>2022-07-10T11:50:40Z</time>
      </trkpt>
      <trkpt lat="41.855" lon="2.4247537">
        <time>2022-07-10T11:50:43Z</time>
      </trkpt>
      <trkpt lat="41.854946" lon="2.4247987">
        <time>2022-07-10T11:50:46Z</time>
      </trkpt>
      <trkpt lat="41.854897" lon="2.4248514">
        <time>2022-07-10T11:50:49Z</time>
      </trkpt>
      <trkpt lat="41.854843" lon="2.4249437">
        <time>2022-07-10T11:50:53Z</time>
      </trkpt>
      <trkpt lat="41.854816" lon="2.425029">
        <time>2022-07-10T11:50:56Z</time>
      </trkpt>
      <trkpt lat="41.854797" lon="2.4251087">
        <time>2022-07-10T11:50:59Z</time>
      </trkpt>
      <trkpt lat="41.854774" lon="2.4251916">
        <time>2022-07-10T11:51:02Z</time>
      </trkpt>
      <trkpt lat="41.85477" lon="2.4252717">
        <time>2022-07-10T11:51:05Z</time>
      </trkpt>
      <trkpt lat="41.854782" lon="2.4253616">
        <time>2022-07-10T11:51:08Z</time>
      </trkpt>
      <trkpt lat="41.854794" lon="2.4254477">
        <time>2022-07-10T11:51:11Z</time>
      </trkpt>
      <trkpt lat="41.8548" lon="2.425534">
        <time>2022-07-10T11:51:14Z</time>
      </trkpt>
      <trkpt lat="41.8548" lon="2.4256196">
        <time>2022-07-10T11:51:17Z</time>
      </trkpt>
      <trkpt lat="41.8548" lon="2.425701">
        <time>2022-07-10T11:51:20Z</time>
      </trkpt>
      <trkpt lat="41.854813" lon="2.4257896">
        <time>2022-07-10T11:51:23Z</time>
      </trkpt>
      <trkpt lat="41.85482" lon="2.4258666">
        <time>2022-07-10T11:51:26Z</time>
      </trkpt>
      <trkpt lat="41.854805" lon="2.425946">
        <time>2022-07-10T11:51:30Z</time>
      </trkpt>
      <trkpt lat="41.8548" lon="2.4260323">
        <time>2022-07-10T11:51:34Z</time>
      </trkpt>
      <trkpt lat="41.854805" lon="2.4261053">
        <time>2022-07-10T11:51:37Z</time>
      </trkpt>
      <trkpt lat="41.8548" lon="2.4261782">
        <time>2022-07-10T11:51:40Z</time>
      </trkpt>
      <trkpt lat="41.85481" lon="2.4262578">
        <time>2022-07-10T11:51:43Z</time>
      </trkpt>
      <trkpt lat="41.85482" lon="2.4263396">
        <time>2022-07-10T11:51:46Z</time>
      </trkpt>
      <trkpt lat="41.854828" lon="2.4264266">
        <time>2022-07-10T11:51:49Z</time>
      </trkpt>
      <trkpt lat="41.85484" lon="2.4265137">
        <time>2022-07-10T11:51:52Z</time>
      </trkpt>
      <trkpt lat="41.854847" lon="2.426602">
        <time>2022-07-10T11:51:55Z</time>
      </trkpt>
      <trkpt lat="41.85485" lon="2.426718">
        <time>2022-07-10T11:51:59Z</time>
      </trkpt>
      <trkpt lat="41.85485" lon="2.426799">
        <time>2022-07-10T11:52:02Z</time>
      </trkpt>
      <trkpt lat="41.85485" lon="2.4268832">
        <time>2022-07-10T11:52:05Z</time>
      </trkpt>
      <trkpt lat="41.854847" lon="2.4269652">
        <time>2022-07-10T11:52:08Z</time>
      </trkpt>
      <trkpt lat="41.854843" lon="2.4270513">
        <time>2022-07-10T11:52:11Z</time>
      </trkpt>
      <trkpt lat="41.854836" lon="2.4271324">
        <time>2022-07-10T11:52:14Z</time>
      </trkpt>
      <trkpt lat="41.85483" lon="2.4272149">
        <time>2022-07-10T11:52:17Z</time>
      </trkpt>
      <trkpt lat="41.854816" lon="2.4272962">
        <time>2022-07-10T11:52:20Z</time>
      </trkpt>
      <trkpt lat="41.8548" lon="2.4273715">
        <time>2022-07-10T11:52:23Z</time>
      </trkpt>
      <trkpt lat="41.854786" lon="2.427449">
        <time>2022-07-10T11:52:26Z</time>
      </trkpt>
      <trkpt lat="41.85477" lon="2.4275255">
        <time>2022-07-10T11:52:29Z</time>
      </trkpt>
      <trkpt lat="41.85475" lon="2.4276025">
        <time>2022-07-10T11:52:32Z</time>
      </trkpt>
      <trkpt lat="41.85473" lon="2.4276738">
        <time>2022-07-10T11:52:35Z</time>
      </trkpt>
      <trkpt lat="41.85471" lon="2.4277463">
        <time>2022-07-10T11:52:38Z</time>
      </trkpt>
      <trkpt lat="41.854687" lon="2.4278235">
        <time>2022-07-10T11:52:41Z</time>
      </trkpt>
      <trkpt lat="41.854664" lon="2.4279013">
        <time>2022-07-10T11:52:44Z</time>
      </trkpt>
      <trkpt lat="41.854637" lon="2.4279752">
        <time>2022-07-10T11:52:47Z</time>
      </trkpt>
      <trkpt lat="41.854618" lon="2.428047">
        <time>2022-07-10T11:52:50Z</time>
      </trkpt>
      <trkpt lat="41.8546" lon="2.4281235">
        <time>2022-07-10T11:52:53Z</time>
      </trkpt>
      <trkpt lat="41.854576" lon="2.4281979">
        <time>2022-07-10T11:52:56Z</time>
      </trkpt>
      <trkpt lat="41.854553" lon="2.4282734">
        <time>2022-07-10T11:52:59Z</time>
      </trkpt>
      <trkpt lat="41.85453" lon="2.4283519">
        <time>2022-07-10T11:53:02Z</time>
      </trkpt>
      <trkpt lat="41.854507" lon="2.4284282">
        <time>2022-07-10T11:53:05Z</time>
      </trkpt>
      <trkpt lat="41.85449" lon="2.428501">
        <time>2022-07-10T11:53:08Z</time>
      </trkpt>
      <trkpt lat="41.85447" lon="2.4285705">
        <time>2022-07-10T11:53:11Z</time>
      </trkpt>
      <trkpt lat="41.85445" lon="2.4286382">
        <time>2022-07-10T11:53:14Z</time>
      </trkpt>
      <trkpt lat="41.854427" lon="2.4287028">
        <time>2022-07-10T11:53:17Z</time>
      </trkpt>
      <trkpt lat="41.8544" lon="2.4287884">
        <time>2022-07-10T11:53:21Z</time>
      </trkpt>
      <trkpt lat="41.85438" lon="2.4288552">
        <time>2022-07-10T11:53:24Z</time>
      </trkpt>
      <trkpt lat="41.854366" lon="2.428917">
        <time>2022-07-10T11:53:27Z</time>
      </trkpt>
      <trkpt lat="41.85434" lon="2.4290028">
        <time>2022-07-10T11:53:31Z</time>
      </trkpt>
      <trkpt lat="41.85433" lon="2.4290671">
        <time>2022-07-10T11:53:34Z</time>
      </trkpt>
      <trkpt lat="41.854313" lon="2.4291327">
        <time>2022-07-10T11:53:37Z</time>
      </trkpt>
      <trkpt lat="41.854286" lon="2.429218">
        <time>2022-07-10T11:53:41Z</time>
      </trkpt>
      <trkpt lat="41.854263" lon="2.4292796">
        <time>2022-07-10T11:53:44Z</time>
      </trkpt>
      <trkpt lat="41.854244" lon="2.4293637">
        <time>2022-07-10T11:53:48Z</time>
      </trkpt>
      <trkpt lat="41.854225" lon="2.4294312">
        <time>2022-07-10T11:53:51Z</time>
      </trkpt>
      <trkpt lat="41.85421" lon="2.4294999">
        <time>2022-07-10T11:53:54Z</time>
      </trkpt>
      <trkpt lat="41.854195" lon="2.4295673">
        <time>2022-07-10T11:53:57Z</time>
      </trkpt>
      <trkpt lat="41.85417" lon="2.4296455">
        <time>2022-07-10T11:54:01Z</time>
      </trkpt>
      <trkpt lat="41.854153" lon="2.429716">
        <time>2022-07-10T11:54:05Z</time>
      </trkpt>
      <trkpt lat="41.854145" lon="2.4298227">
        <time>2022-07-10T11:54:10Z</time>
      </trkpt>
      <trkpt lat="41.853924" lon="2.4303358">
        <time>2022-07-10T11:54:35Z</time>
      </trkpt>
      <trkpt lat="41.853874" lon="2.4307644">
        <time>2022-07-10T11:54:51Z</time>
      </trkpt>
      <trkpt lat="41.85385" lon="2.4308538">
        <time>2022-07-10T11:54:57Z</time>
      </trkpt>
      <trkpt lat="41.853832" lon="2.4309318">
        <time>2022-07-10T11:55:01Z</time>
      </trkpt>
      <trkpt lat="41.853817" lon="2.4309924">
        <time>2022-07-10T11:55:04Z</time>
      </trkpt>
      <trkpt lat="41.853794" lon="2.4310675">
        <time>2022-07-10T11:55:08Z</time>
      </trkpt>
      <trkpt lat="41.853775" lon="2.431144">
        <time>2022-07-10T11:55:12Z</time>
      </trkpt>
      <trkpt lat="41.853752" lon="2.4312174">
        <time>2022-07-10T11:55:16Z</time>
      </trkpt>
      <trkpt lat="41.85373" lon="2.431292">
        <time>2022-07-10T11:55:20Z</time>
      </trkpt>
      <trkpt lat="41.85371" lon="2.431368">
        <time>2022-07-10T11:55:24Z</time>
      </trkpt>
      <trkpt lat="41.853687" lon="2.4314413">
        <time>2022-07-10T11:55:28Z</time>
      </trkpt>
      <trkpt lat="41.85367" lon="2.4315174">
        <time>2022-07-10T11:55:32Z</time>
      </trkpt>
      <trkpt lat="41.853653" lon="2.4315958">
        <time>2022-07-10T11:55:36Z</time>
      </trkpt>
      <trkpt lat="41.853634" lon="2.431673">
        <time>2022-07-10T11:55:40Z</time>
      </trkpt>
      <trkpt lat="41.853615" lon="2.4317534">
        <time>2022-07-10T11:55:44Z</time>
      </trkpt>
      <trkpt lat="41.853603" lon="2.4318388">
        <time>2022-07-10T11:55:48Z</time>
      </trkpt>
      <trkpt lat="41.85359" lon="2.4319236">
        <time>2022-07-10T11:55:52Z</time>
      </trkpt>
      <trkpt lat="41.853565" lon="2.432002">
        <time>2022-07-10T11:55:56Z</time>
      </trkpt>
      <trkpt lat="41.853554" lon="2.4320853">
        <time>2022-07-10T11:56:00Z</time>
      </trkpt>
      <trkpt lat="41.853542" lon="2.4321706">
        <time>2022-07-10T11:56:04Z</time>
      </trkpt>
      <trkpt lat="41.85353" lon="2.4322531">
        <time>2022-07-10T11:56:08Z</time>
      </trkpt>
      <trkpt lat="41.853523" lon="2.4323413">
        <time>2022-07-10T11:56:12Z</time>
      </trkpt>
      <trkpt lat="41.853508" lon="2.4324024">
        <time>2022-07-10T11:56:15Z</time>
      </trkpt>
      <trkpt lat="41.853497" lon="2.4324853">
        <time>2022-07-10T11:56:19Z</time>
      </trkpt>
      <trkpt lat="41.853485" lon="2.4325707">
        <time>2022-07-10T11:56:23Z</time>
      </trkpt>
      <trkpt lat="41.85347" lon="2.432653">
        <time>2022-07-10T11:56:27Z</time>
      </trkpt>
      <trkpt lat="41.85346" lon="2.4327266">
        <time>2022-07-10T11:56:31Z</time>
      </trkpt>
      <trkpt lat="41.853443" lon="2.4328024">
        <time>2022-07-10T11:56:35Z</time>
      </trkpt>
      <trkpt lat="41.853413" lon="2.4328778">
        <time>2022-07-10T11:56:39Z</time>
      </trkpt>
      <trkpt lat="41.853394" lon="2.4329617">
        <time>2022-07-10T11:56:43Z</time>
      </trkpt>
      <trkpt lat="41.853394" lon="2.4330263">
        <time>2022-07-10T11:56:46Z</time>
      </trkpt>
      <trkpt lat="41.853394" lon="2.4331143">
        <time>2022-07-10T11:56:50Z</time>
      </trkpt>
      <trkpt lat="41.85339" lon="2.433194">
        <time>2022-07-10T11:56:54Z</time>
      </trkpt>
      <trkpt lat="41.853382" lon="2.4332793">
        <time>2022-07-10T11:56:58Z</time>
      </trkpt>
      <trkpt lat="41.853382" lon="2.4333434">
        <time>2022-07-10T11:57:01Z</time>
      </trkpt>
      <trkpt lat="41.85338" lon="2.433426">
        <time>2022-07-10T11:57:05Z</time>
      </trkpt>
      <trkpt lat="41.853374" lon="2.433505">
        <time>2022-07-10T11:57:09Z</time>
      </trkpt>
      <trkpt lat="41.85337" lon="2.4335678">
        <time>2022-07-10T11:57:12Z</time>
      </trkpt>
      <trkpt lat="41.853363" lon="2.4336593">
        <time>2022-07-10T11:57:16Z</time>
      </trkpt>
      <trkpt lat="41.853355" lon="2.4337382">
        <time>2022-07-10T11:57:20Z</time>
      </trkpt>
      <trkpt lat="41.853344" lon="2.43382">
        <time>2022-07-10T11:57:24Z</time>
      </trkpt>
      <trkpt lat="41.853336" lon="2.433902">
        <time>2022-07-10T11:57:28Z</time>
      </trkpt>
      <trkpt lat="41.85333" lon="2.433984">
        <time>2022-07-10T11:57:32Z</time>
      </trkpt>
      <trkpt lat="41.85333" lon="2.4340672">
        <time>2022-07-10T11:57:36Z</time>
      </trkpt>
      <trkpt lat="41.853325" lon="2.4341624">
        <time>2022-07-10T11:57:41Z</time>
      </trkpt>
      <trkpt lat="41.853325" lon="2.4342313">
        <time>2022-07-10T11:57:44Z</time>
      </trkpt>
      <trkpt lat="41.85332" lon="2.4343193">
        <time>2022-07-10T11:57:48Z</time>
      </trkpt>
      <trkpt lat="41.853317" lon="2.4344015">
        <time>2022-07-10T11:57:52Z</time>
      </trkpt>
      <trkpt lat="41.853317" lon="2.434478">
        <time>2022-07-10T11:57:56Z</time>
      </trkpt>
      <trkpt lat="41.853306" lon="2.4345555">
        <time>2022-07-10T11:58:00Z</time>
      </trkpt>
      <trkpt lat="41.853302" lon="2.434632">
        <time>2022-07-10T11:58:04Z</time>
      </trkpt>
      <trkpt lat="41.853302" lon="2.4347126">
        <time>2022-07-10T11:58:08Z</time>
      </trkpt>
      <trkpt lat="41.853302" lon="2.4347916">
        <time>2022-07-10T11:58:12Z</time>
      </trkpt>
      <trkpt lat="41.853302" lon="2.4348707">
        <time>2022-07-10T11:58:16Z</time>
      </trkpt>
      <trkpt lat="41.8533" lon="2.434958">
        <time>2022-07-10T11:58:20Z</time>
      </trkpt>
      <trkpt lat="41.853294" lon="2.4350219">
        <time>2022-07-10T11:58:23Z</time>
      </trkpt>
      <trkpt lat="41.85329" lon="2.4351048">
        <time>2022-07-10T11:58:27Z</time>
      </trkpt>
      <trkpt lat="41.85328" lon="2.4351642">
        <time>2022-07-10T11:58:30Z</time>
      </trkpt>
      <trkpt lat="41.853283" lon="2.435242">
        <time>2022-07-10T11:58:34Z</time>
      </trkpt>
      <trkpt lat="41.853287" lon="2.4353204">
        <time>2022-07-10T11:58:38Z</time>
      </trkpt>
      <trkpt lat="41.85329" lon="2.4353993">
        <time>2022-07-10T11:58:42Z</time>
      </trkpt>
      <trkpt lat="41.85329" lon="2.435479">
        <time>2022-07-10T11:58:46Z</time>
      </trkpt>
      <trkpt lat="41.853283" lon="2.4355671">
        <time>2022-07-10T11:58:50Z</time>
      </trkpt>
      <trkpt lat="41.853264" lon="2.4356556">
        <time>2022-07-10T11:58:54Z</time>
      </trkpt>
      <trkpt lat="41.853245" lon="2.4357178">
        <time>2022-07-10T11:58:57Z</time>
      </trkpt>
      <trkpt lat="41.853218" lon="2.4357765">
        <time>2022-07-10T11:59:00Z</time>
      </trkpt>
      <trkpt lat="41.853195" lon="2.4359345">
        <time>2022-07-10T12:02:19Z</time>
      </trkpt>
      <trkpt lat="41.853195" lon="2.436009">
        <time>2022-07-10T12:02:21Z</time>
      </trkpt>
      <trkpt lat="41.8532" lon="2.4360912">
        <time>2022-07-10T12:02:23Z</time>
      </trkpt>
      <trkpt lat="41.85321" lon="2.436189">
        <time>2022-07-10T12:02:25Z</time>
      </trkpt>
      <trkpt lat="41.85323" lon="2.4363072">
        <time>2022-07-10T12:02:27Z</time>
      </trkpt>
      <trkpt lat="41.853245" lon="2.4364522">
        <time>2022-07-10T12:02:29Z</time>
      </trkpt>
      <trkpt lat="41.85325" lon="2.4365265">
        <time>2022-07-10T12:02:30Z</time>
      </trkpt>
      <trkpt lat="41.85325" lon="2.436606">
        <time>2022-07-10T12:02:31Z</time>
      </trkpt>
      <trkpt lat="41.853252" lon="2.4366906">
        <time>2022-07-10T12:02:32Z</time>
      </trkpt>
      <trkpt lat="41.853252" lon="2.4367788">
        <time>2022-07-10T12:02:33Z</time>
      </trkpt>
      <trkpt lat="41.85325" lon="2.4368706">
        <time>2022-07-10T12:02:34Z</time>
      </trkpt>
      <trkpt lat="41.853245" lon="2.4369652">
        <time>2022-07-10T12:02:35Z</time>
      </trkpt>
      <trkpt lat="41.85324" lon="2.4370618">
        <time>2022-07-10T12:02:36Z</time>
      </trkpt>
      <trkpt lat="41.853237" lon="2.437163">
        <time>2022-07-10T12:02:37Z</time>
      </trkpt>
      <trkpt lat="41.853233" lon="2.4372666">
        <time>2022-07-10T12:02:38Z</time>
      </trkpt>
      <trkpt lat="41.85323" lon="2.4373722">
        <time>2022-07-10T12:02:39Z</time>
      </trkpt>
      <trkpt lat="41.853226" lon="2.4374764">
        <time>2022-07-10T12:02:40Z</time>
      </trkpt>
      <trkpt lat="41.853218" lon="2.4375718">
        <time>2022-07-10T12:02:41Z</time>
      </trkpt>
      <trkpt lat="41.853214" lon="2.4376514">
        <time>2022-07-10T12:02:42Z</time>
      </trkpt>
      <trkpt lat="41.853207" lon="2.437713">
        <time>2022-07-10T12:02:43Z</time>
      </trkpt>
      <trkpt lat="41.8532" lon="2.4377866">
        <time>2022-07-10T12:02:46Z</time>
      </trkpt>
      <trkpt lat="41.853165" lon="2.4379444">
        <time>2022-07-10T12:03:45Z</time>
      </trkpt>
      <trkpt lat="41.85315" lon="2.4380395">
        <time>2022-07-10T12:03:47Z</time>
      </trkpt>
      <trkpt lat="41.853127" lon="2.4381664">
        <time>2022-07-10T12:03:49Z</time>
      </trkpt>
      <trkpt lat="41.8531" lon="2.4383008">
        <time>2022-07-10T12:03:51Z</time>
      </trkpt>
      <trkpt lat="41.85309" lon="2.4383712">
        <time>2022-07-10T12:03:52Z</time>
      </trkpt>
      <trkpt lat="41.85307" lon="2.4384477">
        <time>2022-07-10T12:03:53Z</time>
      </trkpt>
      <trkpt lat="41.85305" lon="2.4385355">
        <time>2022-07-10T12:03:54Z</time>
      </trkpt>
      <trkpt lat="41.85303" lon="2.4386258">
        <time>2022-07-10T12:03:55Z</time>
      </trkpt>
      <trkpt lat="41.853012" lon="2.4387178">
        <time>2022-07-10T12:03:56Z</time>
      </trkpt>
      <trkpt lat="41.853" lon="2.438806">
        <time>2022-07-10T12:03:57Z</time>
      </trkpt>
      <trkpt lat="41.852985" lon="2.4389007">
        <time>2022-07-10T12:03:58Z</time>
      </trkpt>
      <trkpt lat="41.852974" lon="2.4390078">
        <time>2022-07-10T12:03:59Z</time>
      </trkpt>
      <trkpt lat="41.852966" lon="2.4391167">
        <time>2022-07-10T12:04:00Z</time>
      </trkpt>
      <trkpt lat="41.852962" lon="2.4393432">
        <time>2022-07-10T12:04:02Z</time>
      </trkpt>
      <trkpt lat="41.852966" lon="2.4394507">
        <time>2022-07-10T12:04:03Z</time>
      </trkpt>
      <trkpt lat="41.85297" lon="2.439572">
        <time>2022-07-10T12:04:04Z</time>
      </trkpt>
      <trkpt lat="41.852978" lon="2.4396944">
        <time>2022-07-10T12:04:05Z</time>
      </trkpt>
      <trkpt lat="41.852985" lon="2.4398193">
        <time>2022-07-10T12:04:06Z</time>
      </trkpt>
      <trkpt lat="41.852993" lon="2.4399457">
        <time>2022-07-10T12:04:07Z</time>
      </trkpt>
      <trkpt lat="41.852993" lon="2.4400735">
        <time>2022-07-10T12:04:08Z</time>
      </trkpt>
      <trkpt lat="41.852985" lon="2.440202">
        <time>2022-07-10T12:04:09Z</time>
      </trkpt>
      <trkpt lat="41.852974" lon="2.4403238">
        <time>2022-07-10T12:04:10Z</time>
      </trkpt>
      <trkpt lat="41.85296" lon="2.4404483">
        <time>2022-07-10T12:04:11Z</time>
      </trkpt>
      <trkpt lat="41.852936" lon="2.4405751">
        <time>2022-07-10T12:04:12Z</time>
      </trkpt>
      <trkpt lat="41.85291" lon="2.4407036">
        <time>2022-07-10T12:04:13Z</time>
      </trkpt>
      <trkpt lat="41.852882" lon="2.440833">
        <time>2022-07-10T12:04:14Z</time>
      </trkpt>
      <trkpt lat="41.852848" lon="2.4409633">
        <time>2022-07-10T12:04:15Z</time>
      </trkpt>
      <trkpt lat="41.852814" lon="2.4411027">
        <time>2022-07-10T12:04:16Z</time>
      </trkpt>
      <trkpt lat="41.85278" lon="2.441232">
        <time>2022-07-10T12:04:17Z</time>
      </trkpt>
      <trkpt lat="41.85274" lon="2.4413626">
        <time>2022-07-10T12:04:18Z</time>
      </trkpt>
      <trkpt lat="41.852707" lon="2.4414947">
        <time>2022-07-10T12:04:19Z</time>
      </trkpt>
      <trkpt lat="41.852665" lon="2.441637">
        <time>2022-07-10T12:04:20Z</time>
      </trkpt>
      <trkpt lat="41.852627" lon="2.4417775">
        <time>2022-07-10T12:04:21Z</time>
      </trkpt>
      <trkpt lat="41.852585" lon="2.441916">
        <time>2022-07-10T12:04:22Z</time>
      </trkpt>
      <trkpt lat="41.852543" lon="2.4420533">
        <time>2022-07-10T12:04:23Z</time>
      </trkpt>
      <trkpt lat="41.852505" lon="2.4421806">
        <time>2022-07-10T12:04:24Z</time>
      </trkpt>
      <trkpt lat="41.85246" lon="2.442319">
        <time>2022-07-10T12:04:25Z</time>
      </trkpt>
      <trkpt lat="41.852413" lon="2.442456">
        <time>2022-07-10T12:04:26Z</time>
      </trkpt>
      <trkpt lat="41.852367" lon="2.4425914">
        <time>2022-07-10T12:04:27Z</time>
      </trkpt>
      <trkpt lat="41.85232" lon="2.4427166">
        <time>2022-07-10T12:04:28Z</time>
      </trkpt>
      <trkpt lat="41.852276" lon="2.442843">
        <time>2022-07-10T12:04:29Z</time>
      </trkpt>
      <trkpt lat="41.852222" lon="2.44297">
        <time>2022-07-10T12:04:30Z</time>
      </trkpt>
      <trkpt lat="41.85217" lon="2.443098">
        <time>2022-07-10T12:04:31Z</time>
      </trkpt>
      <trkpt lat="41.852116" lon="2.4432254">
        <time>2022-07-10T12:04:32Z</time>
      </trkpt>
      <trkpt lat="41.852055" lon="2.443351">
        <time>2022-07-10T12:04:33Z</time>
      </trkpt>
      <trkpt lat="41.851994" lon="2.443476">
        <time>2022-07-10T12:04:34Z</time>
      </trkpt>
      <trkpt lat="41.851933" lon="2.4436014">
        <time>2022-07-10T12:04:35Z</time>
      </trkpt>
      <trkpt lat="41.85187" lon="2.443736">
        <time>2022-07-10T12:04:36Z</time>
      </trkpt>
      <trkpt lat="41.85181" lon="2.4438696">
        <time>2022-07-10T12:04:37Z</time>
      </trkpt>
      <trkpt lat="41.851753" lon="2.4440029">
        <time>2022-07-10T12:04:38Z</time>
      </trkpt>
      <trkpt lat="41.8517" lon="2.4441283">
        <time>2022-07-10T12:04:39Z</time>
      </trkpt>
      <trkpt lat="41.851646" lon="2.4442663">
        <time>2022-07-10T12:04:40Z</time>
      </trkpt>
      <trkpt lat="41.851593" lon="2.444403">
        <time>2022-07-10T12:04:41Z</time>
      </trkpt>
      <trkpt lat="41.851547" lon="2.4445395">
        <time>2022-07-10T12:04:42Z</time>
      </trkpt>
      <trkpt lat="41.8515" lon="2.4446766">
        <time>2022-07-10T12:04:43Z</time>
      </trkpt>
      <trkpt lat="41.851463" lon="2.4448032">
        <time>2022-07-10T12:04:44Z</time>
      </trkpt>
      <trkpt lat="41.85143" lon="2.4449322">
        <time>2022-07-10T12:04:45Z</time>
      </trkpt>
      <trkpt lat="41.851395" lon="2.4450684">
        <time>2022-07-10T12:04:46Z</time>
      </trkpt>
      <trkpt lat="41.851368" lon="2.4451997">
        <time>2022-07-10T12:04:47Z</time>
      </trkpt>
      <trkpt lat="41.851345" lon="2.4453254">
        <time>2022-07-10T12:04:48Z</time>
      </trkpt>
      <trkpt lat="41.851326" lon="2.4454465">
        <time>2022-07-10T12:04:49Z</time>
      </trkpt>
      <trkpt lat="41.851307" lon="2.4455616">
        <time>2022-07-10T12:04:50Z</time>
      </trkpt>
      <trkpt lat="41.851295" lon="2.4456708">
        <time>2022-07-10T12:04:51Z</time>
      </trkpt>
      <trkpt lat="41.851284" lon="2.445775">
        <time>2022-07-10T12:04:52Z</time>
      </trkpt>
      <trkpt lat="41.851273" lon="2.445875">
        <time>2022-07-10T12:04:53Z</time>
      </trkpt>
      <trkpt lat="41.85126" lon="2.4459722">
        <time>2022-07-10T12:04:54Z</time>
      </trkpt>
      <trkpt lat="41.851254" lon="2.4460607">
        <time>2022-07-10T12:04:55Z</time>
      </trkpt>
      <trkpt lat="41.851246" lon="2.446153">
        <time>2022-07-10T12:04:56Z</time>
      </trkpt>
      <trkpt lat="41.85124" lon="2.4462423">
        <time>2022-07-10T12:04:57Z</time>
      </trkpt>
      <trkpt lat="41.85123" lon="2.4463236">
        <time>2022-07-10T12:04:58Z</time>
      </trkpt>
      <trkpt lat="41.851223" lon="2.4464042">
        <time>2022-07-10T12:04:59Z</time>
      </trkpt>
      <trkpt lat="41.851215" lon="2.4464848">
        <time>2022-07-10T12:05:00Z</time>
      </trkpt>
      <trkpt lat="41.851208" lon="2.4465652">
        <time>2022-07-10T12:05:01Z</time>
      </trkpt>
      <trkpt lat="41.8512" lon="2.4466462">
        <time>2022-07-10T12:05:02Z</time>
      </trkpt>
      <trkpt lat="41.85119" lon="2.4467266">
        <time>2022-07-10T12:05:03Z</time>
      </trkpt>
      <trkpt lat="41.85118" lon="2.446807">
        <time>2022-07-10T12:05:04Z</time>
      </trkpt>
      <trkpt lat="41.85117" lon="2.4468865">
        <time>2022-07-10T12:05:05Z</time>
      </trkpt>
      <trkpt lat="41.85116" lon="2.446966">
        <time>2022-07-10T12:05:06Z</time>
      </trkpt>
      <trkpt lat="41.851128" lon="2.4471295">
        <time>2022-07-10T12:05:08Z</time>
      </trkpt>
      <trkpt lat="41.851112" lon="2.4472136">
        <time>2022-07-10T12:05:09Z</time>
      </trkpt>
      <trkpt lat="41.8511" lon="2.4472969">
        <time>2022-07-10T12:05:10Z</time>
      </trkpt>
      <trkpt lat="41.85107" lon="2.4474568">
        <time>2022-07-10T12:05:12Z</time>
      </trkpt>
      <trkpt lat="41.851063" lon="2.4475415">
        <time>2022-07-10T12:05:13Z</time>
      </trkpt>
      <trkpt lat="41.851055" lon="2.447629">
        <time>2022-07-10T12:05:14Z</time>
      </trkpt>
      <trkpt lat="41.851048" lon="2.4477189">
        <time>2022-07-10T12:05:15Z</time>
      </trkpt>
      <trkpt lat="41.851048" lon="2.4478095">
        <time>2022-07-10T12:05:16Z</time>
      </trkpt>
      <trkpt lat="41.851044" lon="2.4479024">
        <time>2022-07-10T12:05:17Z</time>
      </trkpt>
      <trkpt lat="41.851044" lon="2.4480028">
        <time>2022-07-10T12:05:18Z</time>
      </trkpt>
      <trkpt lat="41.851044" lon="2.4480956">
        <time>2022-07-10T12:05:19Z</time>
      </trkpt>
      <trkpt lat="41.85104" lon="2.4481893">
        <time>2022-07-10T12:05:20Z</time>
      </trkpt>
      <trkpt lat="41.851032" lon="2.4482844">
        <time>2022-07-10T12:05:21Z</time>
      </trkpt>
      <trkpt lat="41.85102" lon="2.4483798">
        <time>2022-07-10T12:05:22Z</time>
      </trkpt>
      <trkpt lat="41.85102" lon="2.4484744">
        <time>2022-07-10T12:05:23Z</time>
      </trkpt>
      <trkpt lat="41.851032" lon="2.4485698">
        <time>2022-07-10T12:05:24Z</time>
      </trkpt>
      <trkpt lat="41.851063" lon="2.4486518">
        <time>2022-07-10T12:05:25Z</time>
      </trkpt>
      <trkpt lat="41.851097" lon="2.4487152">
        <time>2022-07-10T12:05:26Z</time>
      </trkpt>
      <trkpt lat="41.85115" lon="2.4487638">
        <time>2022-07-10T12:05:27Z</time>
      </trkpt>
      <trkpt lat="41.85121" lon="2.4487984">
        <time>2022-07-10T12:05:28Z</time>
      </trkpt>
      <trkpt lat="41.85128" lon="2.448825">
        <time>2022-07-10T12:05:29Z</time>
      </trkpt>
      <trkpt lat="41.851353" lon="2.4488482">
        <time>2022-07-10T12:05:30Z</time>
      </trkpt>
      <trkpt lat="41.85143" lon="2.4488754">
        <time>2022-07-10T12:05:31Z</time>
      </trkpt>
      <trkpt lat="41.851505" lon="2.4489138">
        <time>2022-07-10T12:05:32Z</time>
      </trkpt>
      <trkpt lat="41.851578" lon="2.4489682">
        <time>2022-07-10T12:05:33Z</time>
      </trkpt>
      <trkpt lat="41.851646" lon="2.4490387">
        <time>2022-07-10T12:05:34Z</time>
      </trkpt>
      <trkpt lat="41.851707" lon="2.4491305">
        <time>2022-07-10T12:05:35Z</time>
      </trkpt>
      <trkpt lat="41.85176" lon="2.4492307">
        <time>2022-07-10T12:05:36Z</time>
      </trkpt>
      <trkpt lat="41.85181" lon="2.4493303">
        <time>2022-07-10T12:05:37Z</time>
      </trkpt>
      <trkpt lat="41.851852" lon="2.4494374">
        <time>2022-07-10T12:05:38Z</time>
      </trkpt>
      <trkpt lat="41.851894" lon="2.4495504">
        <time>2022-07-10T12:05:39Z</time>
      </trkpt>
      <trkpt lat="41.851933" lon="2.449677">
        <time>2022-07-10T12:05:40Z</time>
      </trkpt>
      <trkpt lat="41.851967" lon="2.4498065">
        <time>2022-07-10T12:05:41Z</time>
      </trkpt>
      <trkpt lat="41.851994" lon="2.4499302">
        <time>2022-07-10T12:05:42Z</time>
      </trkpt>
      <trkpt lat="41.852013" lon="2.4500601">
        <time>2022-07-10T12:05:43Z</time>
      </trkpt>
      <trkpt lat="41.852024" lon="2.4501936">
        <time>2022-07-10T12:05:44Z</time>
      </trkpt>
      <trkpt lat="41.852028" lon="2.4503298">
        <time>2022-07-10T12:05:45Z</time>
      </trkpt>
      <trkpt lat="41.852024" lon="2.4504647">
        <time>2022-07-10T12:05:46Z</time>
      </trkpt>
      <trkpt lat="41.852013" lon="2.4505963">
        <time>2022-07-10T12:05:47Z</time>
      </trkpt>
      <trkpt lat="41.851997" lon="2.4507217">
        <time>2022-07-10T12:05:48Z</time>
      </trkpt>
      <trkpt lat="41.851967" lon="2.4508364">
        <time>2022-07-10T12:05:49Z</time>
      </trkpt>
      <trkpt lat="41.85192" lon="2.4509397">
        <time>2022-07-10T12:05:50Z</time>
      </trkpt>
      <trkpt lat="41.851868" lon="2.451018">
        <time>2022-07-10T12:05:51Z</time>
      </trkpt>
      <trkpt lat="41.851803" lon="2.4510803">
        <time>2022-07-10T12:05:52Z</time>
      </trkpt>
      <trkpt lat="41.85173" lon="2.4511328">
        <time>2022-07-10T12:05:53Z</time>
      </trkpt>
      <trkpt lat="41.851654" lon="2.4511821">
        <time>2022-07-10T12:05:54Z</time>
      </trkpt>
      <trkpt lat="41.85157" lon="2.4512317">
        <time>2022-07-10T12:05:55Z</time>
      </trkpt>
      <trkpt lat="41.85149" lon="2.4512796">
        <time>2022-07-10T12:05:56Z</time>
      </trkpt>
      <trkpt lat="41.85141" lon="2.4513266">
        <time>2022-07-10T12:05:57Z</time>
      </trkpt>
      <trkpt lat="41.851337" lon="2.451377">
        <time>2022-07-10T12:05:58Z</time>
      </trkpt>
      <trkpt lat="41.85128" lon="2.4514346">
        <time>2022-07-10T12:05:59Z</time>
      </trkpt>
      <trkpt lat="41.851242" lon="2.4514997">
        <time>2022-07-10T12:06:00Z</time>
      </trkpt>
      <trkpt lat="41.851223" lon="2.4515703">
        <time>2022-07-10T12:06:01Z</time>
      </trkpt>
      <trkpt lat="41.85123" lon="2.4516356">
        <time>2022-07-10T12:06:02Z</time>
      </trkpt>
      <trkpt lat="41.851257" lon="2.45169">
        <time>2022-07-10T12:06:03Z</time>
      </trkpt>
      <trkpt lat="41.85134" lon="2.451758">
        <time>2022-07-10T12:06:05Z</time>
      </trkpt>
      <trkpt lat="41.8514" lon="2.4517787">
        <time>2022-07-10T12:06:06Z</time>
      </trkpt>
      <trkpt lat="41.85146" lon="2.4517918">
        <time>2022-07-10T12:06:07Z</time>
      </trkpt>
      <trkpt lat="41.851532" lon="2.4517987">
        <time>2022-07-10T12:06:08Z</time>
      </trkpt>
      <trkpt lat="41.85161" lon="2.4518013">
        <time>2022-07-10T12:06:09Z</time>
      </trkpt>
      <trkpt lat="41.85169" lon="2.451797">
        <time>2022-07-10T12:06:10Z</time>
      </trkpt>
      <trkpt lat="41.85177" lon="2.4517877">
        <time>2022-07-10T12:06:11Z</time>
      </trkpt>
      <trkpt lat="41.851852" lon="2.451778">
        <time>2022-07-10T12:06:12Z</time>
      </trkpt>
      <trkpt lat="41.85194" lon="2.451771">
        <time>2022-07-10T12:06:13Z</time>
      </trkpt>
      <trkpt lat="41.852028" lon="2.4517684">
        <time>2022-07-10T12:06:14Z</time>
      </trkpt>
      <trkpt lat="41.85211" lon="2.4517717">
        <time>2022-07-10T12:06:15Z</time>
      </trkpt>
      <trkpt lat="41.85226" lon="2.4518037">
        <time>2022-07-10T12:06:17Z</time>
      </trkpt>
      <trkpt lat="41.852325" lon="2.451838">
        <time>2022-07-10T12:06:18Z</time>
      </trkpt>
      <trkpt lat="41.85238" lon="2.451885">
        <time>2022-07-10T12:06:19Z</time>
      </trkpt>
      <trkpt lat="41.852413" lon="2.451944">
        <time>2022-07-10T12:06:20Z</time>
      </trkpt>
      <trkpt lat="41.85242" lon="2.452007">
        <time>2022-07-10T12:06:21Z</time>
      </trkpt>
      <trkpt lat="41.85238" lon="2.4521153">
        <time>2022-07-10T12:06:23Z</time>
      </trkpt>
      <trkpt lat="41.852303" lon="2.45219">
        <time>2022-07-10T12:06:25Z</time>
      </trkpt>
      <trkpt lat="41.8522" lon="2.452262">
        <time>2022-07-10T12:06:27Z</time>
      </trkpt>
      <trkpt lat="41.85215" lon="2.4523022">
        <time>2022-07-10T12:06:28Z</time>
      </trkpt>
      <trkpt lat="41.852097" lon="2.452349">
        <time>2022-07-10T12:06:29Z</time>
      </trkpt>
      <trkpt lat="41.852047" lon="2.452393">
        <time>2022-07-10T12:06:30Z</time>
      </trkpt>
      <trkpt lat="41.851997" lon="2.4524379">
        <time>2022-07-10T12:06:31Z</time>
      </trkpt>
      <trkpt lat="41.851944" lon="2.4524844">
        <time>2022-07-10T12:06:32Z</time>
      </trkpt>
      <trkpt lat="41.85189" lon="2.452532">
        <time>2022-07-10T12:06:33Z</time>
      </trkpt>
      <trkpt lat="41.851837" lon="2.4525824">
        <time>2022-07-10T12:06:34Z</time>
      </trkpt>
      <trkpt lat="41.851784" lon="2.4526339">
        <time>2022-07-10T12:06:35Z</time>
      </trkpt>
      <trkpt lat="41.85173" lon="2.4526865">
        <time>2022-07-10T12:06:36Z</time>
      </trkpt>
      <trkpt lat="41.851673" lon="2.4527402">
        <time>2022-07-10T12:06:37Z</time>
      </trkpt>
      <trkpt lat="41.851616" lon="2.452793">
        <time>2022-07-10T12:06:38Z</time>
      </trkpt>
      <trkpt lat="41.85156" lon="2.4528494">
        <time>2022-07-10T12:06:39Z</time>
      </trkpt>
      <trkpt lat="41.851505" lon="2.4529085">
        <time>2022-07-10T12:06:40Z</time>
      </trkpt>
      <trkpt lat="41.851456" lon="2.452972">
        <time>2022-07-10T12:06:41Z</time>
      </trkpt>
      <trkpt lat="41.851414" lon="2.45304">
        <time>2022-07-10T12:06:42Z</time>
      </trkpt>
      <trkpt lat="41.85137" lon="2.453111">
        <time>2022-07-10T12:06:43Z</time>
      </trkpt>
      <trkpt lat="41.851326" lon="2.4531844">
        <time>2022-07-10T12:06:44Z</time>
      </trkpt>
      <trkpt lat="41.851273" lon="2.45325">
        <time>2022-07-10T12:06:45Z</time>
      </trkpt>
      <trkpt lat="41.851223" lon="2.4532993">
        <time>2022-07-10T12:06:46Z</time>
      </trkpt>
      <trkpt lat="41.851162" lon="2.453325">
        <time>2022-07-10T12:06:47Z</time>
      </trkpt>
      <trkpt lat="41.85111" lon="2.453326">
        <time>2022-07-10T12:06:48Z</time>
      </trkpt>
      <trkpt lat="41.85106" lon="2.453289">
        <time>2022-07-10T12:06:49Z</time>
      </trkpt>
      <trkpt lat="41.851017" lon="2.4532351">
        <time>2022-07-10T12:06:50Z</time>
      </trkpt>
      <trkpt lat="41.850967" lon="2.4531705">
        <time>2022-07-10T12:06:51Z</time>
      </trkpt>
      <trkpt lat="41.850918" lon="2.453109">
        <time>2022-07-10T12:06:52Z</time>
      </trkpt>
      <trkpt lat="41.850864" lon="2.4530487">
        <time>2022-07-10T12:06:53Z</time>
      </trkpt>
      <trkpt lat="41.850796" lon="2.4529893">
        <time>2022-07-10T12:06:54Z</time>
      </trkpt>
      <trkpt lat="41.850723" lon="2.4529386">
        <time>2022-07-10T12:06:55Z</time>
      </trkpt>
      <trkpt lat="41.850647" lon="2.452898">
        <time>2022-07-10T12:06:56Z</time>
      </trkpt>
      <trkpt lat="41.85057" lon="2.4528644">
        <time>2022-07-10T12:06:57Z</time>
      </trkpt>
      <trkpt lat="41.85048" lon="2.4528344">
        <time>2022-07-10T12:06:58Z</time>
      </trkpt>
      <trkpt lat="41.850388" lon="2.4528084">
        <time>2022-07-10T12:06:59Z</time>
      </trkpt>
      <trkpt lat="41.850292" lon="2.4527843">
        <time>2022-07-10T12:07:00Z</time>
      </trkpt>
      <trkpt lat="41.8502" lon="2.452762">
        <time>2022-07-10T12:07:01Z</time>
      </trkpt>
      <trkpt lat="41.850113" lon="2.452739">
        <time>2022-07-10T12:07:02Z</time>
      </trkpt>
      <trkpt lat="41.850025" lon="2.4527123">
        <time>2022-07-10T12:07:03Z</time>
      </trkpt>
      <trkpt lat="41.849934" lon="2.4526846">
        <time>2022-07-10T12:07:04Z</time>
      </trkpt>
      <trkpt lat="41.84984" lon="2.452657">
        <time>2022-07-10T12:07:05Z</time>
      </trkpt>
      <trkpt lat="41.849743" lon="2.4526377">
        <time>2022-07-10T12:07:06Z</time>
      </trkpt>
      <trkpt lat="41.849644" lon="2.4526296">
        <time>2022-07-10T12:07:07Z</time>
      </trkpt>
      <trkpt lat="41.84955" lon="2.452634">
        <time>2022-07-10T12:07:08Z</time>
      </trkpt>
      <trkpt lat="41.849457" lon="2.4526489">
        <time>2022-07-10T12:07:09Z</time>
      </trkpt>
      <trkpt lat="41.849365" lon="2.452674">
        <time>2022-07-10T12:07:10Z</time>
      </trkpt>
      <trkpt lat="41.849274" lon="2.452708">
        <time>2022-07-10T12:07:11Z</time>
      </trkpt>
      <trkpt lat="41.84918" lon="2.4527473">
        <time>2022-07-10T12:07:12Z</time>
      </trkpt>
      <trkpt lat="41.849083" lon="2.4527886">
        <time>2022-07-10T12:07:13Z</time>
      </trkpt>
      <trkpt lat="41.84899" lon="2.4528284">
        <time>2022-07-10T12:07:14Z</time>
      </trkpt>
      <trkpt lat="41.8489" lon="2.452859">
        <time>2022-07-10T12:07:15Z</time>
      </trkpt>
      <trkpt lat="41.848804" lon="2.4528756">
        <time>2022-07-10T12:07:16Z</time>
      </trkpt>
      <trkpt lat="41.84871" lon="2.452872">
        <time>2022-07-10T12:07:17Z</time>
      </trkpt>
      <trkpt lat="41.848618" lon="2.4528465">
        <time>2022-07-10T12:07:18Z</time>
      </trkpt>
      <trkpt lat="41.848534" lon="2.4528008">
        <time>2022-07-10T12:07:19Z</time>
      </trkpt>
      <trkpt lat="41.848454" lon="2.4527385">
        <time>2022-07-10T12:07:20Z</time>
      </trkpt>
      <trkpt lat="41.84838" lon="2.4526644">
        <time>2022-07-10T12:07:21Z</time>
      </trkpt>
      <trkpt lat="41.848312" lon="2.4525802">
        <time>2022-07-10T12:07:22Z</time>
      </trkpt>
      <trkpt lat="41.848248" lon="2.4524903">
        <time>2022-07-10T12:07:23Z</time>
      </trkpt>
      <trkpt lat="41.848183" lon="2.4524016">
        <time>2022-07-10T12:07:24Z</time>
      </trkpt>
      <trkpt lat="41.848114" lon="2.452319">
        <time>2022-07-10T12:07:25Z</time>
      </trkpt>
      <trkpt lat="41.84804" lon="2.4522457">
        <time>2022-07-10T12:07:26Z</time>
      </trkpt>
      <trkpt lat="41.847965" lon="2.452182">
        <time>2022-07-10T12:07:27Z</time>
      </trkpt>
      <trkpt lat="41.84788" lon="2.452127">
        <time>2022-07-10T12:07:28Z</time>
      </trkpt>
      <trkpt lat="41.847797" lon="2.452075">
        <time>2022-07-10T12:07:29Z</time>
      </trkpt>
      <trkpt lat="41.84771" lon="2.452021">
        <time>2022-07-10T12:07:30Z</time>
      </trkpt>
      <trkpt lat="41.847626" lon="2.4519613">
        <time>2022-07-10T12:07:31Z</time>
      </trkpt>
      <trkpt lat="41.847546" lon="2.4518952">
        <time>2022-07-10T12:07:32Z</time>
      </trkpt>
      <trkpt lat="41.84747" lon="2.4518263">
        <time>2022-07-10T12:07:33Z</time>
      </trkpt>
      <trkpt lat="41.847393" lon="2.451759">
        <time>2022-07-10T12:07:34Z</time>
      </trkpt>
      <trkpt lat="41.847313" lon="2.451697">
        <time>2022-07-10T12:07:35Z</time>
      </trkpt>
      <trkpt lat="41.847153" lon="2.4516041">
        <time>2022-07-10T12:07:37Z</time>
      </trkpt>
      <trkpt lat="41.84706" lon="2.4515703">
        <time>2022-07-10T12:07:38Z</time>
      </trkpt>
      <trkpt lat="41.84697" lon="2.4515464">
        <time>2022-07-10T12:07:39Z</time>
      </trkpt>
      <trkpt lat="41.84689" lon="2.4515333">
        <time>2022-07-10T12:07:40Z</time>
      </trkpt>
      <trkpt lat="41.84682" lon="2.451541">
        <time>2022-07-10T12:07:41Z</time>
      </trkpt>
      <trkpt lat="41.84676" lon="2.4515727">
        <time>2022-07-10T12:07:42Z</time>
      </trkpt>
      <trkpt lat="41.846706" lon="2.4516218">
        <time>2022-07-10T12:07:43Z</time>
      </trkpt>
      <trkpt lat="41.846657" lon="2.451685">
        <time>2022-07-10T12:07:44Z</time>
      </trkpt>
      <trkpt lat="41.846607" lon="2.4517603">
        <time>2022-07-10T12:07:45Z</time>
      </trkpt>
      <trkpt lat="41.846565" lon="2.4518466">
        <time>2022-07-10T12:07:46Z</time>
      </trkpt>
      <trkpt lat="41.846523" lon="2.451942">
        <time>2022-07-10T12:07:47Z</time>
      </trkpt>
      <trkpt lat="41.846485" lon="2.4520364">
        <time>2022-07-10T12:07:48Z</time>
      </trkpt>
      <trkpt lat="41.846443" lon="2.4521453">
        <time>2022-07-10T12:07:49Z</time>
      </trkpt>
      <trkpt lat="41.846405" lon="2.452257">
        <time>2022-07-10T12:07:50Z</time>
      </trkpt>
      <trkpt lat="41.846367" lon="2.4523637">
        <time>2022-07-10T12:07:51Z</time>
      </trkpt>
      <trkpt lat="41.84633" lon="2.4524753">
        <time>2022-07-10T12:07:52Z</time>
      </trkpt>
      <trkpt lat="41.846294" lon="2.4525926">
        <time>2022-07-10T12:07:53Z</time>
      </trkpt>
      <trkpt lat="41.846264" lon="2.452723">
        <time>2022-07-10T12:07:54Z</time>
      </trkpt>
      <trkpt lat="41.84624" lon="2.4528449">
        <time>2022-07-10T12:07:55Z</time>
      </trkpt>
      <trkpt lat="41.846226" lon="2.452969">
        <time>2022-07-10T12:07:56Z</time>
      </trkpt>
      <trkpt lat="41.846214" lon="2.4530933">
        <time>2022-07-10T12:07:57Z</time>
      </trkpt>
      <trkpt lat="41.846207" lon="2.4532242">
        <time>2022-07-10T12:07:58Z</time>
      </trkpt>
      <trkpt lat="41.8462" lon="2.4533436">
        <time>2022-07-10T12:07:59Z</time>
      </trkpt>
      <trkpt lat="41.846188" lon="2.453462">
        <time>2022-07-10T12:08:00Z</time>
      </trkpt>
      <trkpt lat="41.846172" lon="2.453579">
        <time>2022-07-10T12:08:01Z</time>
      </trkpt>
      <trkpt lat="41.84614" lon="2.4536786">
        <time>2022-07-10T12:08:02Z</time>
      </trkpt>
      <trkpt lat="41.8461" lon="2.45376">
        <time>2022-07-10T12:08:03Z</time>
      </trkpt>
      <trkpt lat="41.84605" lon="2.4538183">
        <time>2022-07-10T12:08:04Z</time>
      </trkpt>
      <trkpt lat="41.845993" lon="2.4538527">
        <time>2022-07-10T12:08:05Z</time>
      </trkpt>
      <trkpt lat="41.845932" lon="2.4538682">
        <time>2022-07-10T12:08:06Z</time>
      </trkpt>
      <trkpt lat="41.845863" lon="2.453873">
        <time>2022-07-10T12:08:07Z</time>
      </trkpt>
      <trkpt lat="41.845802" lon="2.4538736">
        <time>2022-07-10T12:08:08Z</time>
      </trkpt>
      <trkpt lat="41.845734" lon="2.4538736">
        <time>2022-07-10T12:08:09Z</time>
      </trkpt>
      <trkpt lat="41.845665" lon="2.4538732">
        <time>2022-07-10T12:08:10Z</time>
      </trkpt>
      <trkpt lat="41.845585" lon="2.4538705">
        <time>2022-07-10T12:08:11Z</time>
      </trkpt>
      <trkpt lat="41.845505" lon="2.453862">
        <time>2022-07-10T12:08:12Z</time>
      </trkpt>
      <trkpt lat="41.84543" lon="2.4538472">
        <time>2022-07-10T12:08:13Z</time>
      </trkpt>
      <trkpt lat="41.84535" lon="2.4538257">
        <time>2022-07-10T12:08:14Z</time>
      </trkpt>
      <trkpt lat="41.84527" lon="2.453796">
        <time>2022-07-10T12:08:15Z</time>
      </trkpt>
      <trkpt lat="41.845184" lon="2.4537556">
        <time>2022-07-10T12:08:16Z</time>
      </trkpt>
      <trkpt lat="41.84511" lon="2.4537153">
        <time>2022-07-10T12:08:17Z</time>
      </trkpt>
      <trkpt lat="41.845036" lon="2.4536583">
        <time>2022-07-10T12:08:18Z</time>
      </trkpt>
      <trkpt lat="41.84496" lon="2.4535933">
        <time>2022-07-10T12:08:19Z</time>
      </trkpt>
      <trkpt lat="41.844883" lon="2.45353">
        <time>2022-07-10T12:08:20Z</time>
      </trkpt>
      <trkpt lat="41.844807" lon="2.4534745">
        <time>2022-07-10T12:08:21Z</time>
      </trkpt>
      <trkpt lat="41.84472" lon="2.4534223">
        <time>2022-07-10T12:08:22Z</time>
      </trkpt>
      <trkpt lat="41.844635" lon="2.4533777">
        <time>2022-07-10T12:08:23Z</time>
      </trkpt>
      <trkpt lat="41.84455" lon="2.4533439">
        <time>2022-07-10T12:08:24Z</time>
      </trkpt>
      <trkpt lat="41.844475" lon="2.4533284">
        <time>2022-07-10T12:08:25Z</time>
      </trkpt>
      <trkpt lat="41.844406" lon="2.453337">
        <time>2022-07-10T12:08:26Z</time>
      </trkpt>
      <trkpt lat="41.84435" lon="2.453362">
        <time>2022-07-10T12:08:27Z</time>
      </trkpt>
      <trkpt lat="41.8443" lon="2.4534075">
        <time>2022-07-10T12:08:28Z</time>
      </trkpt>
      <trkpt lat="41.844257" lon="2.4534724">
        <time>2022-07-10T12:08:29Z</time>
      </trkpt>
      <trkpt lat="41.84422" lon="2.4535496">
        <time>2022-07-10T12:08:30Z</time>
      </trkpt>
      <trkpt lat="41.844185" lon="2.4536366">
        <time>2022-07-10T12:08:31Z</time>
      </trkpt>
      <trkpt lat="41.844154" lon="2.453741">
        <time>2022-07-10T12:08:32Z</time>
      </trkpt>
      <trkpt lat="41.84413" lon="2.4538503">
        <time>2022-07-10T12:08:33Z</time>
      </trkpt>
      <trkpt lat="41.844112" lon="2.453964">
        <time>2022-07-10T12:08:34Z</time>
      </trkpt>
      <trkpt lat="41.844097" lon="2.4540806">
        <time>2022-07-10T12:08:35Z</time>
      </trkpt>
      <trkpt lat="41.844093" lon="2.4542">
        <time>2022-07-10T12:08:36Z</time>
      </trkpt>
      <trkpt lat="41.844093" lon="2.4543197">
        <time>2022-07-10T12:08:37Z</time>
      </trkpt>
      <trkpt lat="41.844105" lon="2.454439">
        <time>2022-07-10T12:08:38Z</time>
      </trkpt>
      <trkpt lat="41.844128" lon="2.4545522">
        <time>2022-07-10T12:08:39Z</time>
      </trkpt>
      <trkpt lat="41.844162" lon="2.454664">
        <time>2022-07-10T12:08:40Z</time>
      </trkpt>
      <trkpt lat="41.844208" lon="2.454766">
        <time>2022-07-10T12:08:41Z</time>
      </trkpt>
      <trkpt lat="41.84426" lon="2.4548578">
        <time>2022-07-10T12:08:42Z</time>
      </trkpt>
      <trkpt lat="41.844322" lon="2.4549422">
        <time>2022-07-10T12:08:43Z</time>
      </trkpt>
      <trkpt lat="41.844387" lon="2.4550266">
        <time>2022-07-10T12:08:44Z</time>
      </trkpt>
      <trkpt lat="41.844448" lon="2.4551182">
        <time>2022-07-10T12:08:45Z</time>
      </trkpt>
      <trkpt lat="41.844498" lon="2.45522">
        <time>2022-07-10T12:08:46Z</time>
      </trkpt>
      <trkpt lat="41.84454" lon="2.4553292">
        <time>2022-07-10T12:08:47Z</time>
      </trkpt>
      <trkpt lat="41.844578" lon="2.4554436">
        <time>2022-07-10T12:08:48Z</time>
      </trkpt>
      <trkpt lat="41.84462" lon="2.455561">
        <time>2022-07-10T12:08:49Z</time>
      </trkpt>
      <trkpt lat="41.84466" lon="2.4556801">
        <time>2022-07-10T12:08:50Z</time>
      </trkpt>
      <trkpt lat="41.844707" lon="2.4557981">
        <time>2022-07-10T12:08:51Z</time>
      </trkpt>
      <trkpt lat="41.844753" lon="2.4559128">
        <time>2022-07-10T12:08:52Z</time>
      </trkpt>
      <trkpt lat="41.844807" lon="2.456023">
        <time>2022-07-10T12:08:53Z</time>
      </trkpt>
      <trkpt lat="41.844883" lon="2.4561539">
        <time>2022-07-10T12:08:55Z</time>
      </trkpt>
      <trkpt lat="41.84496" lon="2.456266">
        <time>2022-07-10T12:08:56Z</time>
      </trkpt>
      <trkpt lat="41.84511" lon="2.4564445">
        <time>2022-07-10T12:08:58Z</time>
      </trkpt>
      <trkpt lat="41.84519" lon="2.4565213">
        <time>2022-07-10T12:08:59Z</time>
      </trkpt>
      <trkpt lat="41.84526" lon="2.4565988">
        <time>2022-07-10T12:09:00Z</time>
      </trkpt>
      <trkpt lat="41.84533" lon="2.4566813">
        <time>2022-07-10T12:09:01Z</time>
      </trkpt>
      <trkpt lat="41.84539" lon="2.4567692">
        <time>2022-07-10T12:09:02Z</time>
      </trkpt>
      <trkpt lat="41.84545" lon="2.4568603">
        <time>2022-07-10T12:09:03Z</time>
      </trkpt>
      <trkpt lat="41.845505" lon="2.4569461">
        <time>2022-07-10T12:09:04Z</time>
      </trkpt>
      <trkpt lat="41.845566" lon="2.4570236">
        <time>2022-07-10T12:09:05Z</time>
      </trkpt>
      <trkpt lat="41.845623" lon="2.4570932">
        <time>2022-07-10T12:09:06Z</time>
      </trkpt>
      <trkpt lat="41.845684" lon="2.457156">
        <time>2022-07-10T12:09:07Z</time>
      </trkpt>
      <trkpt lat="41.845745" lon="2.4572172">
        <time>2022-07-10T12:09:08Z</time>
      </trkpt>
      <trkpt lat="41.8458" lon="2.4572835">
        <time>2022-07-10T12:09:09Z</time>
      </trkpt>
      <trkpt lat="41.845833" lon="2.457357">
        <time>2022-07-10T12:09:10Z</time>
      </trkpt>
      <trkpt lat="41.84585" lon="2.4574325">
        <time>2022-07-10T12:09:11Z</time>
      </trkpt>
      <trkpt lat="41.845844" lon="2.4575038">
        <time>2022-07-10T12:09:12Z</time>
      </trkpt>
      <trkpt lat="41.845825" lon="2.4575617">
        <time>2022-07-10T12:09:13Z</time>
      </trkpt>
      <trkpt lat="41.84574" lon="2.4576485">
        <time>2022-07-10T12:09:15Z</time>
      </trkpt>
      <trkpt lat="41.845688" lon="2.4576805">
        <time>2022-07-10T12:09:16Z</time>
      </trkpt>
      <trkpt lat="41.84563" lon="2.4577062">
        <time>2022-07-10T12:09:17Z</time>
      </trkpt>
      <trkpt lat="41.84557" lon="2.4577231">
        <time>2022-07-10T12:09:18Z</time>
      </trkpt>
      <trkpt lat="41.845505" lon="2.4577267">
        <time>2022-07-10T12:09:19Z</time>
      </trkpt>
      <trkpt lat="41.84544" lon="2.4577167">
        <time>2022-07-10T12:09:20Z</time>
      </trkpt>
      <trkpt lat="41.84538" lon="2.4576948">
        <time>2022-07-10T12:09:21Z</time>
      </trkpt>
      <trkpt lat="41.845318" lon="2.4576676">
        <time>2022-07-10T12:09:22Z</time>
      </trkpt>
      <trkpt lat="41.845253" lon="2.4576402">
        <time>2022-07-10T12:09:23Z</time>
      </trkpt>
      <trkpt lat="41.845184" lon="2.4576128">
        <time>2022-07-10T12:09:24Z</time>
      </trkpt>
      <trkpt lat="41.845123" lon="2.4575899">
        <time>2022-07-10T12:09:25Z</time>
      </trkpt>
      <trkpt lat="41.84506" lon="2.4575708">
        <time>2022-07-10T12:09:26Z</time>
      </trkpt>
      <trkpt lat="41.84499" lon="2.4575534">
        <time>2022-07-10T12:09:27Z</time>
      </trkpt>
      <trkpt lat="41.844925" lon="2.4575374">
        <time>2022-07-10T12:09:28Z</time>
      </trkpt>
      <trkpt lat="41.844856" lon="2.4575255">
        <time>2022-07-10T12:09:29Z</time>
      </trkpt>
      <trkpt lat="41.84479" lon="2.4575174">
        <time>2022-07-10T12:09:30Z</time>
      </trkpt>
      <trkpt lat="41.844727" lon="2.4575086">
        <time>2022-07-10T12:09:31Z</time>
      </trkpt>
      <trkpt lat="41.844658" lon="2.4574943">
        <time>2022-07-10T12:09:32Z</time>
      </trkpt>
      <trkpt lat="41.844593" lon="2.4574735">
        <time>2022-07-10T12:09:33Z</time>
      </trkpt>
      <trkpt lat="41.84453" lon="2.4574487">
        <time>2022-07-10T12:09:34Z</time>
      </trkpt>
      <trkpt lat="41.844467" lon="2.457425">
        <time>2022-07-10T12:09:35Z</time>
      </trkpt>
      <trkpt lat="41.844402" lon="2.4574025">
        <time>2022-07-10T12:09:36Z</time>
      </trkpt>
      <trkpt lat="41.84434" lon="2.4573808">
        <time>2022-07-10T12:09:37Z</time>
      </trkpt>
      <trkpt lat="41.84428" lon="2.4573607">
        <time>2022-07-10T12:09:38Z</time>
      </trkpt>
      <trkpt lat="41.84422" lon="2.457341">
        <time>2022-07-10T12:09:39Z</time>
      </trkpt>
      <trkpt lat="41.84416" lon="2.4573178">
        <time>2022-07-10T12:09:40Z</time>
      </trkpt>
      <trkpt lat="41.844097" lon="2.4572918">
        <time>2022-07-10T12:09:41Z</time>
      </trkpt>
      <trkpt lat="41.84404" lon="2.457259">
        <time>2022-07-10T12:09:42Z</time>
      </trkpt>
      <trkpt lat="41.843983" lon="2.4572198">
        <time>2022-07-10T12:09:43Z</time>
      </trkpt>
      <trkpt lat="41.84393" lon="2.4571748">
        <time>2022-07-10T12:09:44Z</time>
      </trkpt>
      <trkpt lat="41.84388" lon="2.4571311">
        <time>2022-07-10T12:09:45Z</time>
      </trkpt>
      <trkpt lat="41.843826" lon="2.4570901">
        <time>2022-07-10T12:09:46Z</time>
      </trkpt>
      <trkpt lat="41.843777" lon="2.457058">
        <time>2022-07-10T12:09:47Z</time>
      </trkpt>
      <trkpt lat="41.843723" lon="2.4570448">
        <time>2022-07-10T12:09:48Z</time>
      </trkpt>
      <trkpt lat="41.843678" lon="2.4570465">
        <time>2022-07-10T12:09:49Z</time>
      </trkpt>
      <trkpt lat="41.843594" lon="2.4571028">
        <time>2022-07-10T12:09:51Z</time>
      </trkpt>
      <trkpt lat="41.843513" lon="2.4572062">
        <time>2022-07-10T12:09:53Z</time>
      </trkpt>
      <trkpt lat="41.843475" lon="2.4572666">
        <time>2022-07-10T12:09:54Z</time>
      </trkpt>
      <trkpt lat="41.84343" lon="2.4573271">
        <time>2022-07-10T12:09:55Z</time>
      </trkpt>
      <trkpt lat="41.84338" lon="2.457385">
        <time>2022-07-10T12:09:56Z</time>
      </trkpt>
      <trkpt lat="41.843327" lon="2.457446">
        <time>2022-07-10T12:09:57Z</time>
      </trkpt>
      <trkpt lat="41.843277" lon="2.4575129">
        <time>2022-07-10T12:09:58Z</time>
      </trkpt>
      <trkpt lat="41.843235" lon="2.4575825">
        <time>2022-07-10T12:09:59Z</time>
      </trkpt>
      <trkpt lat="41.843197" lon="2.4576695">
        <time>2022-07-10T12:10:00Z</time>
      </trkpt>
      <trkpt lat="41.84317" lon="2.4577556">
        <time>2022-07-10T12:10:01Z</time>
      </trkpt>
      <trkpt lat="41.843155" lon="2.4578562">
        <time>2022-07-10T12:10:02Z</time>
      </trkpt>
      <trkpt lat="41.84315" lon="2.4579515">
        <time>2022-07-10T12:10:03Z</time>
      </trkpt>
      <trkpt lat="41.843155" lon="2.458049">
        <time>2022-07-10T12:10:04Z</time>
      </trkpt>
      <trkpt lat="41.843166" lon="2.4581494">
        <time>2022-07-10T12:10:05Z</time>
      </trkpt>
      <trkpt lat="41.843185" lon="2.4582505">
        <time>2022-07-10T12:10:06Z</time>
      </trkpt>
      <trkpt lat="41.84321" lon="2.4583514">
        <time>2022-07-10T12:10:07Z</time>
      </trkpt>
      <trkpt lat="41.84324" lon="2.4584618">
        <time>2022-07-10T12:10:08Z</time>
      </trkpt>
      <trkpt lat="41.84326" lon="2.458573">
        <time>2022-07-10T12:10:09Z</time>
      </trkpt>
      <trkpt lat="41.843285" lon="2.4586794">
        <time>2022-07-10T12:10:10Z</time>
      </trkpt>
      <trkpt lat="41.8433" lon="2.458791">
        <time>2022-07-10T12:10:11Z</time>
      </trkpt>
      <trkpt lat="41.843323" lon="2.458913">
        <time>2022-07-10T12:10:12Z</time>
      </trkpt>
      <trkpt lat="41.84335" lon="2.4590328">
        <time>2022-07-10T12:10:13Z</time>
      </trkpt>
      <trkpt lat="41.843384" lon="2.4591458">
        <time>2022-07-10T12:10:14Z</time>
      </trkpt>
      <trkpt lat="41.84347" lon="2.4593394">
        <time>2022-07-10T12:10:16Z</time>
      </trkpt>
      <trkpt lat="41.84352" lon="2.4594245">
        <time>2022-07-10T12:10:17Z</time>
      </trkpt>
      <trkpt lat="41.843567" lon="2.4595048">
        <time>2022-07-10T12:10:18Z</time>
      </trkpt>
      <trkpt lat="41.8436" lon="2.4595852">
        <time>2022-07-10T12:10:19Z</time>
      </trkpt>
      <trkpt lat="41.84362" lon="2.459664">
        <time>2022-07-10T12:10:20Z</time>
      </trkpt>
      <trkpt lat="41.84362" lon="2.459738">
        <time>2022-07-10T12:10:21Z</time>
      </trkpt>
      <trkpt lat="41.843597" lon="2.4598022">
        <time>2022-07-10T12:10:22Z</time>
      </trkpt>
      <trkpt lat="41.843563" lon="2.4598525">
        <time>2022-07-10T12:10:23Z</time>
      </trkpt>
      <trkpt lat="41.84346" lon="2.4599109">
        <time>2022-07-10T12:10:25Z</time>
      </trkpt>
      <trkpt lat="41.843395" lon="2.4599164">
        <time>2022-07-10T12:10:26Z</time>
      </trkpt>
      <trkpt lat="41.84333" lon="2.459908">
        <time>2022-07-10T12:10:27Z</time>
      </trkpt>
      <trkpt lat="41.843266" lon="2.4598858">
        <time>2022-07-10T12:10:28Z</time>
      </trkpt>
      <trkpt lat="41.8432" lon="2.4598532">
        <time>2022-07-10T12:10:29Z</time>
      </trkpt>
      <trkpt lat="41.843136" lon="2.4598105">
        <time>2022-07-10T12:10:30Z</time>
      </trkpt>
      <trkpt lat="41.84307" lon="2.4597595">
        <time>2022-07-10T12:10:31Z</time>
      </trkpt>
      <trkpt lat="41.843006" lon="2.4596994">
        <time>2022-07-10T12:10:32Z</time>
      </trkpt>
      <trkpt lat="41.842937" lon="2.459633">
        <time>2022-07-10T12:10:33Z</time>
      </trkpt>
      <trkpt lat="41.842865" lon="2.4595597">
        <time>2022-07-10T12:10:34Z</time>
      </trkpt>
      <trkpt lat="41.842796" lon="2.4594905">
        <time>2022-07-10T12:10:35Z</time>
      </trkpt>
      <trkpt lat="41.84273" lon="2.4594302">
        <time>2022-07-10T12:10:36Z</time>
      </trkpt>
      <trkpt lat="41.842663" lon="2.4593885">
        <time>2022-07-10T12:10:37Z</time>
      </trkpt>
      <trkpt lat="41.8426" lon="2.4593735">
        <time>2022-07-10T12:10:38Z</time>
      </trkpt>
      <trkpt lat="41.842545" lon="2.459383">
        <time>2022-07-10T12:10:39Z</time>
      </trkpt>
      <trkpt lat="41.8425" lon="2.4594114">
        <time>2022-07-10T12:10:40Z</time>
      </trkpt>
      <trkpt lat="41.84245" lon="2.4595194">
        <time>2022-07-10T12:10:42Z</time>
      </trkpt>
      <trkpt lat="41.84243" lon="2.4596717">
        <time>2022-07-10T12:10:44Z</time>
      </trkpt>
      <trkpt lat="41.84243" lon="2.459763">
        <time>2022-07-10T12:10:45Z</time>
      </trkpt>
      <trkpt lat="41.842422" lon="2.4598634">
        <time>2022-07-10T12:10:46Z</time>
      </trkpt>
      <trkpt lat="41.842415" lon="2.4599688">
        <time>2022-07-10T12:10:47Z</time>
      </trkpt>
      <trkpt lat="41.842407" lon="2.4600768">
        <time>2022-07-10T12:10:48Z</time>
      </trkpt>
      <trkpt lat="41.8424" lon="2.4601865">
        <time>2022-07-10T12:10:49Z</time>
      </trkpt>
      <trkpt lat="41.84239" lon="2.4602973">
        <time>2022-07-10T12:10:50Z</time>
      </trkpt>
      <trkpt lat="41.84238" lon="2.4604094">
        <time>2022-07-10T12:10:51Z</time>
      </trkpt>
      <trkpt lat="41.842365" lon="2.4605231">
        <time>2022-07-10T12:10:52Z</time>
      </trkpt>
      <trkpt lat="41.842354" lon="2.4606364">
        <time>2022-07-10T12:10:53Z</time>
      </trkpt>
      <trkpt lat="41.84234" lon="2.460746">
        <time>2022-07-10T12:10:54Z</time>
      </trkpt>
      <trkpt lat="41.84232" lon="2.4608479">
        <time>2022-07-10T12:10:55Z</time>
      </trkpt>
      <trkpt lat="41.842293" lon="2.4609358">
        <time>2022-07-10T12:10:56Z</time>
      </trkpt>
      <trkpt lat="41.84226" lon="2.4610097">
        <time>2022-07-10T12:10:57Z</time>
      </trkpt>
      <trkpt lat="41.84222" lon="2.4610703">
        <time>2022-07-10T12:10:58Z</time>
      </trkpt>
      <trkpt lat="41.842182" lon="2.461117">
        <time>2022-07-10T12:10:59Z</time>
      </trkpt>
      <trkpt lat="41.84212" lon="2.4611657">
        <time>2022-07-10T12:11:01Z</time>
      </trkpt>
      <trkpt lat="41.842052" lon="2.4610775">
        <time>2022-07-10T12:11:04Z</time>
      </trkpt>
      <trkpt lat="41.84197" lon="2.460915">
        <time>2022-07-10T12:11:06Z</time>
      </trkpt>
      <trkpt lat="41.84192" lon="2.460817">
        <time>2022-07-10T12:11:07Z</time>
      </trkpt>
      <trkpt lat="41.841866" lon="2.4607134">
        <time>2022-07-10T12:11:08Z</time>
      </trkpt>
      <trkpt lat="41.84181" lon="2.4606047">
        <time>2022-07-10T12:11:09Z</time>
      </trkpt>
      <trkpt lat="41.84175" lon="2.4604907">
        <time>2022-07-10T12:11:10Z</time>
      </trkpt>
      <trkpt lat="41.841694" lon="2.4603732">
        <time>2022-07-10T12:11:11Z</time>
      </trkpt>
      <trkpt lat="41.841633" lon="2.4602487">
        <time>2022-07-10T12:11:12Z</time>
      </trkpt>
      <trkpt lat="41.841564" lon="2.4601212">
        <time>2022-07-10T12:11:13Z</time>
      </trkpt>
      <trkpt lat="41.841488" lon="2.4599907">
        <time>2022-07-10T12:11:14Z</time>
      </trkpt>
      <trkpt lat="41.84141" lon="2.4598634">
        <time>2022-07-10T12:11:15Z</time>
      </trkpt>
      <trkpt lat="41.841335" lon="2.4597397">
        <time>2022-07-10T12:11:16Z</time>
      </trkpt>
      <trkpt lat="41.841248" lon="2.4596221">
        <time>2022-07-10T12:11:17Z</time>
      </trkpt>
      <trkpt lat="41.84116" lon="2.4595182">
        <time>2022-07-10T12:11:18Z</time>
      </trkpt>
      <trkpt lat="41.841072" lon="2.4594274">
        <time>2022-07-10T12:11:19Z</time>
      </trkpt>
      <trkpt lat="41.840984" lon="2.4593494">
        <time>2022-07-10T12:11:20Z</time>
      </trkpt>
      <trkpt lat="41.8409" lon="2.4592888">
        <time>2022-07-10T12:11:21Z</time>
      </trkpt>
      <trkpt lat="41.840813" lon="2.459244">
        <time>2022-07-10T12:11:22Z</time>
      </trkpt>
      <trkpt lat="41.840733" lon="2.4592192">
        <time>2022-07-10T12:11:23Z</time>
      </trkpt>
      <trkpt lat="41.840652" lon="2.459217">
        <time>2022-07-10T12:11:24Z</time>
      </trkpt>
      <trkpt lat="41.84058" lon="2.459233">
        <time>2022-07-10T12:11:25Z</time>
      </trkpt>
      <trkpt lat="41.84051" lon="2.459268">
        <time>2022-07-10T12:11:26Z</time>
      </trkpt>
      <trkpt lat="41.840446" lon="2.4593158">
        <time>2022-07-10T12:11:27Z</time>
      </trkpt>
      <trkpt lat="41.840378" lon="2.4593685">
        <time>2022-07-10T12:11:28Z</time>
      </trkpt>
      <trkpt lat="41.840313" lon="2.4594269">
        <time>2022-07-10T12:11:29Z</time>
      </trkpt>
      <trkpt lat="41.84025" lon="2.4594915">
        <time>2022-07-10T12:11:30Z</time>
      </trkpt>
      <trkpt lat="41.840187" lon="2.4595652">
        <time>2022-07-10T12:11:31Z</time>
      </trkpt>
      <trkpt lat="41.840126" lon="2.4596412">
        <time>2022-07-10T12:11:32Z</time>
      </trkpt>
      <trkpt lat="41.840023" lon="2.4598">
        <time>2022-07-10T12:11:34Z</time>
      </trkpt>
      <trkpt lat="41.839985" lon="2.459887">
        <time>2022-07-10T12:11:35Z</time>
      </trkpt>
      <trkpt lat="41.83995" lon="2.4599867">
        <time>2022-07-10T12:11:36Z</time>
      </trkpt>
      <trkpt lat="41.839924" lon="2.4600928">
        <time>2022-07-10T12:11:37Z</time>
      </trkpt>
      <trkpt lat="41.8399" lon="2.4602008">
        <time>2022-07-10T12:11:38Z</time>
      </trkpt>
      <trkpt lat="41.839874" lon="2.4603097">
        <time>2022-07-10T12:11:39Z</time>
      </trkpt>
      <trkpt lat="41.83985" lon="2.4604201">
        <time>2022-07-10T12:11:40Z</time>
      </trkpt>
      <trkpt lat="41.839817" lon="2.4605305">
        <time>2022-07-10T12:11:41Z</time>
      </trkpt>
      <trkpt lat="41.839783" lon="2.4606402">
        <time>2022-07-10T12:11:42Z</time>
      </trkpt>
      <trkpt lat="41.83974" lon="2.4607482">
        <time>2022-07-10T12:11:43Z</time>
      </trkpt>
      <trkpt lat="41.83969" lon="2.460855">
        <time>2022-07-10T12:11:44Z</time>
      </trkpt>
      <trkpt lat="41.839638" lon="2.460962">
        <time>2022-07-10T12:11:45Z</time>
      </trkpt>
      <trkpt lat="41.83958" lon="2.4610717">
        <time>2022-07-10T12:11:46Z</time>
      </trkpt>
      <trkpt lat="41.839527" lon="2.461177">
        <time>2022-07-10T12:11:47Z</time>
      </trkpt>
      <trkpt lat="41.83947" lon="2.461286">
        <time>2022-07-10T12:11:48Z</time>
      </trkpt>
      <trkpt lat="41.839413" lon="2.4613988">
        <time>2022-07-10T12:11:49Z</time>
      </trkpt>
      <trkpt lat="41.83936" lon="2.4615164">
        <time>2022-07-10T12:11:50Z</time>
      </trkpt>
      <trkpt lat="41.839302" lon="2.4616394">
        <time>2022-07-10T12:11:51Z</time>
      </trkpt>
      <trkpt lat="41.839245" lon="2.461766">
        <time>2022-07-10T12:11:52Z</time>
      </trkpt>
      <trkpt lat="41.83918" lon="2.4619017">
        <time>2022-07-10T12:11:53Z</time>
      </trkpt>
      <trkpt lat="41.83911" lon="2.4620333">
        <time>2022-07-10T12:11:54Z</time>
      </trkpt>
      <trkpt lat="41.83905" lon="2.4621534">
        <time>2022-07-10T12:11:55Z</time>
      </trkpt>
      <trkpt lat="41.838993" lon="2.4622757">
        <time>2022-07-10T12:11:56Z</time>
      </trkpt>
      <trkpt lat="41.83894" lon="2.4624054">
        <time>2022-07-10T12:11:57Z</time>
      </trkpt>
      <trkpt lat="41.83889" lon="2.4625304">
        <time>2022-07-10T12:11:58Z</time>
      </trkpt>
      <trkpt lat="41.83884" lon="2.4626474">
        <time>2022-07-10T12:11:59Z</time>
      </trkpt>
      <trkpt lat="41.838783" lon="2.462752">
        <time>2022-07-10T12:12:00Z</time>
      </trkpt>
      <trkpt lat="41.83872" lon="2.4628425">
        <time>2022-07-10T12:12:01Z</time>
      </trkpt>
      <trkpt lat="41.838646" lon="2.462917">
        <time>2022-07-10T12:12:02Z</time>
      </trkpt>
      <trkpt lat="41.838566" lon="2.4629781">
        <time>2022-07-10T12:12:03Z</time>
      </trkpt>
      <trkpt lat="41.838486" lon="2.4630277">
        <time>2022-07-10T12:12:04Z</time>
      </trkpt>
      <trkpt lat="41.838398" lon="2.4630764">
        <time>2022-07-10T12:12:05Z</time>
      </trkpt>
      <trkpt lat="41.838318" lon="2.4631298">
        <time>2022-07-10T12:12:06Z</time>
      </trkpt>
      <trkpt lat="41.83824" lon="2.4631946">
        <time>2022-07-10T12:12:07Z</time>
      </trkpt>
      <trkpt lat="41.838177" lon="2.4632707">
        <time>2022-07-10T12:12:08Z</time>
      </trkpt>
      <trkpt lat="41.83812" lon="2.4633577">
        <time>2022-07-10T12:12:09Z</time>
      </trkpt>
      <trkpt lat="41.838074" lon="2.4634516">
        <time>2022-07-10T12:12:10Z</time>
      </trkpt>
      <trkpt lat="41.838055" lon="2.463556">
        <time>2022-07-10T12:12:11Z</time>
      </trkpt>
      <trkpt lat="41.838055" lon="2.4636533">
        <time>2022-07-10T12:12:12Z</time>
      </trkpt>
      <trkpt lat="41.838074" lon="2.463744">
        <time>2022-07-10T12:12:13Z</time>
      </trkpt>
      <trkpt lat="41.8381" lon="2.463827">
        <time>2022-07-10T12:12:14Z</time>
      </trkpt>
      <trkpt lat="41.838135" lon="2.4638996">
        <time>2022-07-10T12:12:15Z</time>
      </trkpt>
      <trkpt lat="41.838177" lon="2.4639726">
        <time>2022-07-10T12:12:16Z</time>
      </trkpt>
      <trkpt lat="41.838226" lon="2.4640417">
        <time>2022-07-10T12:12:17Z</time>
      </trkpt>
      <trkpt lat="41.838276" lon="2.4641078">
        <time>2022-07-10T12:12:18Z</time>
      </trkpt>
      <trkpt lat="41.83832" lon="2.4641674">
        <time>2022-07-10T12:12:19Z</time>
      </trkpt>
      <trkpt lat="41.838375" lon="2.4642313">
        <time>2022-07-10T12:12:20Z</time>
      </trkpt>
      <trkpt lat="41.83843" lon="2.4642925">
        <time>2022-07-10T12:12:21Z</time>
      </trkpt>
      <trkpt lat="41.83848" lon="2.4643483">
        <time>2022-07-10T12:12:22Z</time>
      </trkpt>
      <trkpt lat="41.838535" lon="2.4643972">
        <time>2022-07-10T12:12:23Z</time>
      </trkpt>
      <trkpt lat="41.838593" lon="2.4644387">
        <time>2022-07-10T12:12:24Z</time>
      </trkpt>
      <trkpt lat="41.83865" lon="2.4644725">
        <time>2022-07-10T12:12:25Z</time>
      </trkpt>
      <trkpt lat="41.83871" lon="2.4644997">
        <time>2022-07-10T12:12:26Z</time>
      </trkpt>
      <trkpt lat="41.83877" lon="2.4645212">
        <time>2022-07-10T12:12:27Z</time>
      </trkpt>
      <trkpt lat="41.838837" lon="2.4645426">
        <time>2022-07-10T12:12:28Z</time>
      </trkpt>
      <trkpt lat="41.8389" lon="2.4645667">
        <time>2022-07-10T12:12:29Z</time>
      </trkpt>
      <trkpt lat="41.838963" lon="2.4645977">
        <time>2022-07-10T12:12:30Z</time>
      </trkpt>
      <trkpt lat="41.839016" lon="2.4646332">
        <time>2022-07-10T12:12:31Z</time>
      </trkpt>
      <trkpt lat="41.83907" lon="2.464678">
        <time>2022-07-10T12:12:32Z</time>
      </trkpt>
      <trkpt lat="41.839115" lon="2.464731">
        <time>2022-07-10T12:12:33Z</time>
      </trkpt>
      <trkpt lat="41.839153" lon="2.4647908">
        <time>2022-07-10T12:12:34Z</time>
      </trkpt>
      <trkpt lat="41.83919" lon="2.4648561">
        <time>2022-07-10T12:12:35Z</time>
      </trkpt>
      <trkpt lat="41.839222" lon="2.4649255">
        <time>2022-07-10T12:12:36Z</time>
      </trkpt>
      <trkpt lat="41.83924" lon="2.4649973">
        <time>2022-07-10T12:12:37Z</time>
      </trkpt>
      <trkpt lat="41.839245" lon="2.4650695">
        <time>2022-07-10T12:12:38Z</time>
      </trkpt>
      <trkpt lat="41.839233" lon="2.4651415">
        <time>2022-07-10T12:12:39Z</time>
      </trkpt>
      <trkpt lat="41.839207" lon="2.4651973">
        <time>2022-07-10T12:12:40Z</time>
      </trkpt>
      <trkpt lat="41.839127" lon="2.4652522">
        <time>2022-07-10T12:12:42Z</time>
      </trkpt>
      <trkpt lat="41.839027" lon="2.4652712">
        <time>2022-07-10T12:12:44Z</time>
      </trkpt>
      <trkpt lat="41.83891" lon="2.4653037">
        <time>2022-07-10T12:12:46Z</time>
      </trkpt>
      <trkpt lat="41.838852" lon="2.4653263">
        <time>2022-07-10T12:12:47Z</time>
      </trkpt>
      <trkpt lat="41.83879" lon="2.4653556">
        <time>2022-07-10T12:12:48Z</time>
      </trkpt>
      <trkpt lat="41.838726" lon="2.4653935">
        <time>2022-07-10T12:12:49Z</time>
      </trkpt>
      <trkpt lat="41.83866" lon="2.465438">
        <time>2022-07-10T12:12:50Z</time>
      </trkpt>
      <trkpt lat="41.838593" lon="2.4654832">
        <time>2022-07-10T12:12:51Z</time>
      </trkpt>
      <trkpt lat="41.83844" lon="2.4655566">
        <time>2022-07-10T12:12:53Z</time>
      </trkpt>
      <trkpt lat="41.838352" lon="2.4655793">
        <time>2022-07-10T12:12:54Z</time>
      </trkpt>
      <trkpt lat="41.838264" lon="2.465591">
        <time>2022-07-10T12:12:55Z</time>
      </trkpt>
      <trkpt lat="41.838177" lon="2.4655943">
        <time>2022-07-10T12:12:56Z</time>
      </trkpt>
      <trkpt lat="41.838085" lon="2.4655914">
        <time>2022-07-10T12:12:57Z</time>
      </trkpt>
      <trkpt lat="41.83799" lon="2.4655821">
        <time>2022-07-10T12:12:58Z</time>
      </trkpt>
      <trkpt lat="41.8379" lon="2.465562">
        <time>2022-07-10T12:12:59Z</time>
      </trkpt>
      <trkpt lat="41.837803" lon="2.4655294">
        <time>2022-07-10T12:13:00Z</time>
      </trkpt>
      <trkpt lat="41.83771" lon="2.465487">
        <time>2022-07-10T12:13:01Z</time>
      </trkpt>
      <trkpt lat="41.837616" lon="2.4654388">
        <time>2022-07-10T12:13:02Z</time>
      </trkpt>
      <trkpt lat="41.837524" lon="2.4653926">
        <time>2022-07-10T12:13:03Z</time>
      </trkpt>
      <trkpt lat="41.83743" lon="2.4653502">
        <time>2022-07-10T12:13:04Z</time>
      </trkpt>
      <trkpt lat="41.837334" lon="2.4653115">
        <time>2022-07-10T12:13:05Z</time>
      </trkpt>
      <trkpt lat="41.83724" lon="2.4652748">
        <time>2022-07-10T12:13:06Z</time>
      </trkpt>
      <trkpt lat="41.837143" lon="2.4652379">
        <time>2022-07-10T12:13:07Z</time>
      </trkpt>
      <trkpt lat="41.837048" lon="2.4652061">
        <time>2022-07-10T12:13:08Z</time>
      </trkpt>
      <trkpt lat="41.836956" lon="2.4651825">
        <time>2022-07-10T12:13:09Z</time>
      </trkpt>
      <trkpt lat="41.83687" lon="2.4651685">
        <time>2022-07-10T12:13:10Z</time>
      </trkpt>
      <trkpt lat="41.83678" lon="2.4651682">
        <time>2022-07-10T12:13:11Z</time>
      </trkpt>
      <trkpt lat="41.83669" lon="2.46519">
        <time>2022-07-10T12:13:12Z</time>
      </trkpt>
      <trkpt lat="41.83661" lon="2.465227">
        <time>2022-07-10T12:13:13Z</time>
      </trkpt>
      <trkpt lat="41.836533" lon="2.4652836">
        <time>2022-07-10T12:13:14Z</time>
      </trkpt>
      <trkpt lat="41.836468" lon="2.4653585">
        <time>2022-07-10T12:13:15Z</time>
      </trkpt>
      <trkpt lat="41.83642" lon="2.4654562">
        <time>2022-07-10T12:13:16Z</time>
      </trkpt>
      <trkpt lat="41.83639" lon="2.465554">
        <time>2022-07-10T12:13:17Z</time>
      </trkpt>
      <trkpt lat="41.836376" lon="2.4656575">
        <time>2022-07-10T12:13:18Z</time>
      </trkpt>
      <trkpt lat="41.83638" lon="2.4657679">
        <time>2022-07-10T12:13:19Z</time>
      </trkpt>
      <trkpt lat="41.8364" lon="2.4658782">
        <time>2022-07-10T12:13:20Z</time>
      </trkpt>
      <trkpt lat="41.836426" lon="2.4659853">
        <time>2022-07-10T12:13:21Z</time>
      </trkpt>
      <trkpt lat="41.836452" lon="2.4660904">
        <time>2022-07-10T12:13:22Z</time>
      </trkpt>
      <trkpt lat="41.836475" lon="2.466198">
        <time>2022-07-10T12:13:23Z</time>
      </trkpt>
      <trkpt lat="41.836483" lon="2.466308">
        <time>2022-07-10T12:13:24Z</time>
      </trkpt>
      <trkpt lat="41.83648" lon="2.466419">
        <time>2022-07-10T12:13:25Z</time>
      </trkpt>
      <trkpt lat="41.83647" lon="2.4665298">
        <time>2022-07-10T12:13:26Z</time>
      </trkpt>
      <trkpt lat="41.83647" lon="2.466641">
        <time>2022-07-10T12:13:27Z</time>
      </trkpt>
      <trkpt lat="41.836483" lon="2.4667506">
        <time>2022-07-10T12:13:28Z</time>
      </trkpt>
      <trkpt lat="41.836514" lon="2.4668663">
        <time>2022-07-10T12:13:29Z</time>
      </trkpt>
      <trkpt lat="41.83655" lon="2.4669793">
        <time>2022-07-10T12:13:30Z</time>
      </trkpt>
      <trkpt lat="41.836594" lon="2.4670918">
        <time>2022-07-10T12:13:31Z</time>
      </trkpt>
      <trkpt lat="41.836636" lon="2.467199">
        <time>2022-07-10T12:13:32Z</time>
      </trkpt>
      <trkpt lat="41.836674" lon="2.4673128">
        <time>2022-07-10T12:13:33Z</time>
      </trkpt>
      <trkpt lat="41.836708" lon="2.4674306">
        <time>2022-07-10T12:13:34Z</time>
      </trkpt>
      <trkpt lat="41.836742" lon="2.4675508">
        <time>2022-07-10T12:13:35Z</time>
      </trkpt>
      <trkpt lat="41.83678" lon="2.4676654">
        <time>2022-07-10T12:13:36Z</time>
      </trkpt>
      <trkpt lat="41.836826" lon="2.4677806">
        <time>2022-07-10T12:13:37Z</time>
      </trkpt>
      <trkpt lat="41.83687" lon="2.4678786">
        <time>2022-07-10T12:13:38Z</time>
      </trkpt>
      <trkpt lat="41.83691" lon="2.467971">
        <time>2022-07-10T12:13:39Z</time>
      </trkpt>
      <trkpt lat="41.83695" lon="2.4680636">
        <time>2022-07-10T12:13:40Z</time>
      </trkpt>
      <trkpt lat="41.836975" lon="2.4681537">
        <time>2022-07-10T12:13:41Z</time>
      </trkpt>
      <trkpt lat="41.836983" lon="2.4682424">
        <time>2022-07-10T12:13:42Z</time>
      </trkpt>
      <trkpt lat="41.83697" lon="2.468326">
        <time>2022-07-10T12:13:43Z</time>
      </trkpt>
      <trkpt lat="41.836945" lon="2.4684029">
        <time>2022-07-10T12:13:44Z</time>
      </trkpt>
      <trkpt lat="41.8369" lon="2.4684703">
        <time>2022-07-10T12:13:45Z</time>
      </trkpt>
      <trkpt lat="41.83684" lon="2.4685264">
        <time>2022-07-10T12:13:46Z</time>
      </trkpt>
      <trkpt lat="41.836773" lon="2.468567">
        <time>2022-07-10T12:13:47Z</time>
      </trkpt>
      <trkpt lat="41.836697" lon="2.4685867">
        <time>2022-07-10T12:13:48Z</time>
      </trkpt>
      <trkpt lat="41.83662" lon="2.4685822">
        <time>2022-07-10T12:13:49Z</time>
      </trkpt>
      <trkpt lat="41.836548" lon="2.4685545">
        <time>2022-07-10T12:13:50Z</time>
      </trkpt>
      <trkpt lat="41.83648" lon="2.4685102">
        <time>2022-07-10T12:13:51Z</time>
      </trkpt>
      <trkpt lat="41.836407" lon="2.4684567">
        <time>2022-07-10T12:13:52Z</time>
      </trkpt>
      <trkpt lat="41.836334" lon="2.4684079">
        <time>2022-07-10T12:13:53Z</time>
      </trkpt>
      <trkpt lat="41.836258" lon="2.4683738">
        <time>2022-07-10T12:13:54Z</time>
      </trkpt>
      <trkpt lat="41.836166" lon="2.468362">
        <time>2022-07-10T12:13:55Z</time>
      </trkpt>
      <trkpt lat="41.83608" lon="2.4683704">
        <time>2022-07-10T12:13:56Z</time>
      </trkpt>
      <trkpt lat="41.836" lon="2.468393">
        <time>2022-07-10T12:13:57Z</time>
      </trkpt>
      <trkpt lat="41.835915" lon="2.4684405">
        <time>2022-07-10T12:13:58Z</time>
      </trkpt>
      <trkpt lat="41.83584" lon="2.4685018">
        <time>2022-07-10T12:13:59Z</time>
      </trkpt>
      <trkpt lat="41.835766" lon="2.4685662">
        <time>2022-07-10T12:14:00Z</time>
      </trkpt>
      <trkpt lat="41.83569" lon="2.4686356">
        <time>2022-07-10T12:14:01Z</time>
      </trkpt>
      <trkpt lat="41.83561" lon="2.4687054">
        <time>2022-07-10T12:14:02Z</time>
      </trkpt>
      <trkpt lat="41.835526" lon="2.4687707">
        <time>2022-07-10T12:14:03Z</time>
      </trkpt>
      <trkpt lat="41.835445" lon="2.4688303">
        <time>2022-07-10T12:14:04Z</time>
      </trkpt>
      <trkpt lat="41.83536" lon="2.4688885">
        <time>2022-07-10T12:14:05Z</time>
      </trkpt>
      <trkpt lat="41.835285" lon="2.4689484">
        <time>2022-07-10T12:14:06Z</time>
      </trkpt>
      <trkpt lat="41.835213" lon="2.4690166">
        <time>2022-07-10T12:14:07Z</time>
      </trkpt>
      <trkpt lat="41.835148" lon="2.4690955">
        <time>2022-07-10T12:14:08Z</time>
      </trkpt>
      <trkpt lat="41.835087" lon="2.4691808">
        <time>2022-07-10T12:14:09Z</time>
      </trkpt>
      <trkpt lat="41.83496" lon="2.4693568">
        <time>2022-07-10T12:14:11Z</time>
      </trkpt>
      <trkpt lat="41.834892" lon="2.4694417">
        <time>2022-07-10T12:14:12Z</time>
      </trkpt>
      <trkpt lat="41.83482" lon="2.4695191">
        <time>2022-07-10T12:14:13Z</time>
      </trkpt>
      <trkpt lat="41.834736" lon="2.469589">
        <time>2022-07-10T12:14:14Z</time>
      </trkpt>
      <trkpt lat="41.834656" lon="2.469649">
        <time>2022-07-10T12:14:15Z</time>
      </trkpt>
      <trkpt lat="41.834568" lon="2.469707">
        <time>2022-07-10T12:14:16Z</time>
      </trkpt>
      <trkpt lat="41.834484" lon="2.4697607">
        <time>2022-07-10T12:14:17Z</time>
      </trkpt>
      <trkpt lat="41.8344" lon="2.4698048">
        <time>2022-07-10T12:14:18Z</time>
      </trkpt>
      <trkpt lat="41.83431" lon="2.4698384">
        <time>2022-07-10T12:14:19Z</time>
      </trkpt>
      <trkpt lat="41.834225" lon="2.4698586">
        <time>2022-07-10T12:14:20Z</time>
      </trkpt>
      <trkpt lat="41.834145" lon="2.4698608">
        <time>2022-07-10T12:14:21Z</time>
      </trkpt>
      <trkpt lat="41.834064" lon="2.4698503">
        <time>2022-07-10T12:14:22Z</time>
      </trkpt>
      <trkpt lat="41.83399" lon="2.4698408">
        <time>2022-07-10T12:14:23Z</time>
      </trkpt>
      <trkpt lat="41.833916" lon="2.4698415">
        <time>2022-07-10T12:14:24Z</time>
      </trkpt>
      <trkpt lat="41.833843" lon="2.4698527">
        <time>2022-07-10T12:14:25Z</time>
      </trkpt>
      <trkpt lat="41.833782" lon="2.469877">
        <time>2022-07-10T12:14:26Z</time>
      </trkpt>
      <trkpt lat="41.83372" lon="2.4699168">
        <time>2022-07-10T12:14:27Z</time>
      </trkpt>
      <trkpt lat="41.833652" lon="2.4699662">
        <time>2022-07-10T12:14:28Z</time>
      </trkpt>
      <trkpt lat="41.833584" lon="2.4700065">
        <time>2022-07-10T12:14:29Z</time>
      </trkpt>
      <trkpt lat="41.833508" lon="2.4700303">
        <time>2022-07-10T12:14:30Z</time>
      </trkpt>
      <trkpt lat="41.833435" lon="2.470036">
        <time>2022-07-10T12:14:31Z</time>
      </trkpt>
      <trkpt lat="41.833363" lon="2.4700198">
        <time>2022-07-10T12:14:32Z</time>
      </trkpt>
      <trkpt lat="41.83329" lon="2.469981">
        <time>2022-07-10T12:14:33Z</time>
      </trkpt>
      <trkpt lat="41.833218" lon="2.4699304">
        <time>2022-07-10T12:14:34Z</time>
      </trkpt>
      <trkpt lat="41.833145" lon="2.4698792">
        <time>2022-07-10T12:14:35Z</time>
      </trkpt>
      <trkpt lat="41.833065" lon="2.469836">
        <time>2022-07-10T12:14:36Z</time>
      </trkpt>
      <trkpt lat="41.832993" lon="2.4698048">
        <time>2022-07-10T12:14:37Z</time>
      </trkpt>
      <trkpt lat="41.832916" lon="2.4697897">
        <time>2022-07-10T12:14:38Z</time>
      </trkpt>
      <trkpt lat="41.832832" lon="2.4697978">
        <time>2022-07-10T12:14:39Z</time>
      </trkpt>
      <trkpt lat="41.832756" lon="2.46982">
        <time>2022-07-10T12:14:40Z</time>
      </trkpt>
      <trkpt lat="41.832684" lon="2.4698577">
        <time>2022-07-10T12:14:41Z</time>
      </trkpt>
      <trkpt lat="41.832607" lon="2.469906">
        <time>2022-07-10T12:14:42Z</time>
      </trkpt>
      <trkpt lat="41.83254" lon="2.4699647">
        <time>2022-07-10T12:14:43Z</time>
      </trkpt>
      <trkpt lat="41.832485" lon="2.4700344">
        <time>2022-07-10T12:14:44Z</time>
      </trkpt>
      <trkpt lat="41.832443" lon="2.470114">
        <time>2022-07-10T12:14:45Z</time>
      </trkpt>
      <trkpt lat="41.832417" lon="2.4701984">
        <time>2022-07-10T12:14:46Z</time>
      </trkpt>
      <trkpt lat="41.832413" lon="2.4702928">
        <time>2022-07-10T12:14:47Z</time>
      </trkpt>
      <trkpt lat="41.832417" lon="2.4703827">
        <time>2022-07-10T12:14:48Z</time>
      </trkpt>
      <trkpt lat="41.83243" lon="2.4704714">
        <time>2022-07-10T12:14:49Z</time>
      </trkpt>
      <trkpt lat="41.83246" lon="2.4705617">
        <time>2022-07-10T12:14:50Z</time>
      </trkpt>
      <trkpt lat="41.832493" lon="2.470656">
        <time>2022-07-10T12:14:51Z</time>
      </trkpt>
      <trkpt lat="41.832535" lon="2.4707475">
        <time>2022-07-10T12:14:52Z</time>
      </trkpt>
      <trkpt lat="41.83258" lon="2.470837">
        <time>2022-07-10T12:14:53Z</time>
      </trkpt>
      <trkpt lat="41.832626" lon="2.4709234">
        <time>2022-07-10T12:14:54Z</time>
      </trkpt>
      <trkpt lat="41.83268" lon="2.4710073">
        <time>2022-07-10T12:14:55Z</time>
      </trkpt>
      <trkpt lat="41.83273" lon="2.4710886">
        <time>2022-07-10T12:14:56Z</time>
      </trkpt>
      <trkpt lat="41.832787" lon="2.4711637">
        <time>2022-07-10T12:14:57Z</time>
      </trkpt>
      <trkpt lat="41.832844" lon="2.4712248">
        <time>2022-07-10T12:14:58Z</time>
      </trkpt>
      <trkpt lat="41.83291" lon="2.4712753">
        <time>2022-07-10T12:14:59Z</time>
      </trkpt>
      <trkpt lat="41.832973" lon="2.471311">
        <time>2022-07-10T12:15:00Z</time>
      </trkpt>
      <trkpt lat="41.833042" lon="2.471334">
        <time>2022-07-10T12:15:01Z</time>
      </trkpt>
      <trkpt lat="41.833115" lon="2.4713454">
        <time>2022-07-10T12:15:02Z</time>
      </trkpt>
      <trkpt lat="41.83319" lon="2.4713473">
        <time>2022-07-10T12:15:03Z</time>
      </trkpt>
      <trkpt lat="41.833263" lon="2.4713423">
        <time>2022-07-10T12:15:04Z</time>
      </trkpt>
      <trkpt lat="41.833344" lon="2.471337">
        <time>2022-07-10T12:15:05Z</time>
      </trkpt>
      <trkpt lat="41.833424" lon="2.47134">
        <time>2022-07-10T12:15:06Z</time>
      </trkpt>
      <trkpt lat="41.8335" lon="2.471351">
        <time>2022-07-10T12:15:07Z</time>
      </trkpt>
      <trkpt lat="41.83357" lon="2.4713748">
        <time>2022-07-10T12:15:08Z</time>
      </trkpt>
      <trkpt lat="41.83363" lon="2.47141">
        <time>2022-07-10T12:15:09Z</time>
      </trkpt>
      <trkpt lat="41.833687" lon="2.4714568">
        <time>2022-07-10T12:15:10Z</time>
      </trkpt>
      <trkpt lat="41.833736" lon="2.4715106">
        <time>2022-07-10T12:15:11Z</time>
      </trkpt>
      <trkpt lat="41.833786" lon="2.4715686">
        <time>2022-07-10T12:15:12Z</time>
      </trkpt>
      <trkpt lat="41.83383" lon="2.4716272">
        <time>2022-07-10T12:15:13Z</time>
      </trkpt>
      <trkpt lat="41.833874" lon="2.4716825">
        <time>2022-07-10T12:15:14Z</time>
      </trkpt>
      <trkpt lat="41.833916" lon="2.4717367">
        <time>2022-07-10T12:15:15Z</time>
      </trkpt>
      <trkpt lat="41.83395" lon="2.4717886">
        <time>2022-07-10T12:15:16Z</time>
      </trkpt>
      <trkpt lat="41.83399" lon="2.471848">
        <time>2022-07-10T12:15:17Z</time>
      </trkpt>
      <trkpt lat="41.834026" lon="2.471916">
        <time>2022-07-10T12:15:18Z</time>
      </trkpt>
      <trkpt lat="41.834057" lon="2.471986">
        <time>2022-07-10T12:15:19Z</time>
      </trkpt>
      <trkpt lat="41.834084" lon="2.4720552">
        <time>2022-07-10T12:15:20Z</time>
      </trkpt>
      <trkpt lat="41.834103" lon="2.472121">
        <time>2022-07-10T12:15:21Z</time>
      </trkpt>
      <trkpt lat="41.834126" lon="2.4721892">
        <time>2022-07-10T12:15:22Z</time>
      </trkpt>
      <trkpt lat="41.834145" lon="2.4722576">
        <time>2022-07-10T12:15:23Z</time>
      </trkpt>
      <trkpt lat="41.83417" lon="2.4723244">
        <time>2022-07-10T12:15:24Z</time>
      </trkpt>
      <trkpt lat="41.834198" lon="2.472388">
        <time>2022-07-10T12:15:25Z</time>
      </trkpt>
      <trkpt lat="41.834225" lon="2.4724555">
        <time>2022-07-10T12:15:26Z</time>
      </trkpt>
      <trkpt lat="41.834286" lon="2.472586">
        <time>2022-07-10T12:15:28Z</time>
      </trkpt>
      <trkpt lat="41.83432" lon="2.472651">
        <time>2022-07-10T12:15:29Z</time>
      </trkpt>
      <trkpt lat="41.834354" lon="2.4727142">
        <time>2022-07-10T12:15:30Z</time>
      </trkpt>
      <trkpt lat="41.834393" lon="2.472776">
        <time>2022-07-10T12:15:31Z</time>
      </trkpt>
      <trkpt lat="41.834435" lon="2.4728332">
        <time>2022-07-10T12:15:32Z</time>
      </trkpt>
      <trkpt lat="41.834476" lon="2.4728875">
        <time>2022-07-10T12:15:33Z</time>
      </trkpt>
      <trkpt lat="41.834522" lon="2.4729395">
        <time>2022-07-10T12:15:34Z</time>
      </trkpt>
      <trkpt lat="41.83461" lon="2.473039">
        <time>2022-07-10T12:15:36Z</time>
      </trkpt>
      <trkpt lat="41.834656" lon="2.473085">
        <time>2022-07-10T12:15:37Z</time>
      </trkpt>
      <trkpt lat="41.834705" lon="2.4731293">
        <time>2022-07-10T12:15:38Z</time>
      </trkpt>
      <trkpt lat="41.83475" lon="2.473172">
        <time>2022-07-10T12:15:39Z</time>
      </trkpt>
      <trkpt lat="41.8348" lon="2.473213">
        <time>2022-07-10T12:15:40Z</time>
      </trkpt>
      <trkpt lat="41.834854" lon="2.473254">
        <time>2022-07-10T12:15:41Z</time>
      </trkpt>
      <trkpt lat="41.834908" lon="2.4732926">
        <time>2022-07-10T12:15:42Z</time>
      </trkpt>
      <trkpt lat="41.83496" lon="2.4733298">
        <time>2022-07-10T12:15:43Z</time>
      </trkpt>
      <trkpt lat="41.835014" lon="2.4733613">
        <time>2022-07-10T12:15:44Z</time>
      </trkpt>
      <trkpt lat="41.835064" lon="2.4733846">
        <time>2022-07-10T12:15:45Z</time>
      </trkpt>
      <trkpt lat="41.835114" lon="2.4734008">
        <time>2022-07-10T12:15:46Z</time>
      </trkpt>
      <trkpt lat="41.835213" lon="2.4734175">
        <time>2022-07-10T12:15:48Z</time>
      </trkpt>
      <trkpt lat="41.835262" lon="2.4734294">
        <time>2022-07-10T12:15:49Z</time>
      </trkpt>
      <trkpt lat="41.835354" lon="2.4734828">
        <time>2022-07-10T12:15:51Z</time>
      </trkpt>
      <trkpt lat="41.83542" lon="2.4735734">
        <time>2022-07-10T12:15:53Z</time>
      </trkpt>
      <trkpt lat="41.83545" lon="2.4737055">
        <time>2022-07-10T12:15:55Z</time>
      </trkpt>
      <trkpt lat="41.835445" lon="2.4737766">
        <time>2022-07-10T12:15:56Z</time>
      </trkpt>
      <trkpt lat="41.835426" lon="2.4738429">
        <time>2022-07-10T12:15:57Z</time>
      </trkpt>
      <trkpt lat="41.835396" lon="2.473898">
        <time>2022-07-10T12:15:58Z</time>
      </trkpt>
      <trkpt lat="41.835354" lon="2.473935">
        <time>2022-07-10T12:15:59Z</time>
      </trkpt>
      <trkpt lat="41.83525" lon="2.473956">
        <time>2022-07-10T12:16:01Z</time>
      </trkpt>
      <trkpt lat="41.835194" lon="2.4739485">
        <time>2022-07-10T12:16:02Z</time>
      </trkpt>
      <trkpt lat="41.83513" lon="2.4739344">
        <time>2022-07-10T12:16:03Z</time>
      </trkpt>
      <trkpt lat="41.83506" lon="2.47392">
        <time>2022-07-10T12:16:04Z</time>
      </trkpt>
      <trkpt lat="41.83499" lon="2.473908">
        <time>2022-07-10T12:16:05Z</time>
      </trkpt>
      <trkpt lat="41.83492" lon="2.4738982">
        <time>2022-07-10T12:16:06Z</time>
      </trkpt>
      <trkpt lat="41.834846" lon="2.4738915">
        <time>2022-07-10T12:16:07Z</time>
      </trkpt>
      <trkpt lat="41.834778" lon="2.4738853">
        <time>2022-07-10T12:16:08Z</time>
      </trkpt>
      <trkpt lat="41.834705" lon="2.473878">
        <time>2022-07-10T12:16:09Z</time>
      </trkpt>
      <trkpt lat="41.83464" lon="2.4738715">
        <time>2022-07-10T12:16:10Z</time>
      </trkpt>
      <trkpt lat="41.834576" lon="2.4738643">
        <time>2022-07-10T12:16:11Z</time>
      </trkpt>
      <trkpt lat="41.834503" lon="2.473857">
        <time>2022-07-10T12:16:12Z</time>
      </trkpt>
      <trkpt lat="41.83443" lon="2.4738522">
        <time>2022-07-10T12:16:13Z</time>
      </trkpt>
      <trkpt lat="41.83436" lon="2.4738545">
        <time>2022-07-10T12:16:14Z</time>
      </trkpt>
      <trkpt lat="41.83429" lon="2.473867">
        <time>2022-07-10T12:16:15Z</time>
      </trkpt>
      <trkpt lat="41.834213" lon="2.4738863">
        <time>2022-07-10T12:16:16Z</time>
      </trkpt>
      <trkpt lat="41.83413" lon="2.473902">
        <time>2022-07-10T12:16:17Z</time>
      </trkpt>
      <trkpt lat="41.83405" lon="2.4739037">
        <time>2022-07-10T12:16:18Z</time>
      </trkpt>
      <trkpt lat="41.83397" lon="2.473888">
        <time>2022-07-10T12:16:19Z</time>
      </trkpt>
      <trkpt lat="41.833897" lon="2.4738598">
        <time>2022-07-10T12:16:20Z</time>
      </trkpt>
      <trkpt lat="41.833824" lon="2.47382">
        <time>2022-07-10T12:16:21Z</time>
      </trkpt>
      <trkpt lat="41.833748" lon="2.4737682">
        <time>2022-07-10T12:16:22Z</time>
      </trkpt>
      <trkpt lat="41.83368" lon="2.4737089">
        <time>2022-07-10T12:16:23Z</time>
      </trkpt>
      <trkpt lat="41.833607" lon="2.4736416">
        <time>2022-07-10T12:16:24Z</time>
      </trkpt>
      <trkpt lat="41.833538" lon="2.4735692">
        <time>2022-07-10T12:16:25Z</time>
      </trkpt>
      <trkpt lat="41.833466" lon="2.4734955">
        <time>2022-07-10T12:16:26Z</time>
      </trkpt>
      <trkpt lat="41.833385" lon="2.473424">
        <time>2022-07-10T12:16:27Z</time>
      </trkpt>
      <trkpt lat="41.83331" lon="2.473363">
        <time>2022-07-10T12:16:28Z</time>
      </trkpt>
      <trkpt lat="41.833233" lon="2.4733112">
        <time>2022-07-10T12:16:29Z</time>
      </trkpt>
      <trkpt lat="41.83315" lon="2.4732642">
        <time>2022-07-10T12:16:30Z</time>
      </trkpt>
      <trkpt lat="41.83306" lon="2.4732263">
        <time>2022-07-10T12:16:31Z</time>
      </trkpt>
      <trkpt lat="41.832973" lon="2.4732015">
        <time>2022-07-10T12:16:32Z</time>
      </trkpt>
      <trkpt lat="41.83288" lon="2.4731903">
        <time>2022-07-10T12:16:33Z</time>
      </trkpt>
      <trkpt lat="41.832684" lon="2.4731977">
        <time>2022-07-10T12:16:35Z</time>
      </trkpt>
      <trkpt lat="41.832596" lon="2.4732163">
        <time>2022-07-10T12:16:36Z</time>
      </trkpt>
      <trkpt lat="41.832504" lon="2.473245">
        <time>2022-07-10T12:16:37Z</time>
      </trkpt>
      <trkpt lat="41.832413" lon="2.4732912">
        <time>2022-07-10T12:16:38Z</time>
      </trkpt>
      <trkpt lat="41.83232" lon="2.4733462">
        <time>2022-07-10T12:16:39Z</time>
      </trkpt>
      <trkpt lat="41.832233" lon="2.4734082">
        <time>2022-07-10T12:16:40Z</time>
      </trkpt>
      <trkpt lat="41.83215" lon="2.4734685">
        <time>2022-07-10T12:16:41Z</time>
      </trkpt>
      <trkpt lat="41.832066" lon="2.473516">
        <time>2022-07-10T12:16:42Z</time>
      </trkpt>
      <trkpt lat="41.83198" lon="2.4735453">
        <time>2022-07-10T12:16:43Z</time>
      </trkpt>
      <trkpt lat="41.8319" lon="2.473552">
        <time>2022-07-10T12:16:44Z</time>
      </trkpt>
      <trkpt lat="41.83182" lon="2.4735363">
        <time>2022-07-10T12:16:45Z</time>
      </trkpt>
      <trkpt lat="41.831745" lon="2.4735012">
        <time>2022-07-10T12:16:46Z</time>
      </trkpt>
      <trkpt lat="41.83167" lon="2.4734485">
        <time>2022-07-10T12:16:47Z</time>
      </trkpt>
      <trkpt lat="41.8316" lon="2.4733765">
        <time>2022-07-10T12:16:48Z</time>
      </trkpt>
      <trkpt lat="41.83153" lon="2.473291">
        <time>2022-07-10T12:16:49Z</time>
      </trkpt>
      <trkpt lat="41.831467" lon="2.473196">
        <time>2022-07-10T12:16:50Z</time>
      </trkpt>
      <trkpt lat="41.83141" lon="2.4731014">
        <time>2022-07-10T12:16:51Z</time>
      </trkpt>
      <trkpt lat="41.83135" lon="2.4730082">
        <time>2022-07-10T12:16:52Z</time>
      </trkpt>
      <trkpt lat="41.831284" lon="2.4729223">
        <time>2022-07-10T12:16:53Z</time>
      </trkpt>
      <trkpt lat="41.831215" lon="2.4728463">
        <time>2022-07-10T12:16:54Z</time>
      </trkpt>
      <trkpt lat="41.831142" lon="2.4727857">
        <time>2022-07-10T12:16:55Z</time>
      </trkpt>
      <trkpt lat="41.831062" lon="2.4727464">
        <time>2022-07-10T12:16:56Z</time>
      </trkpt>
      <trkpt lat="41.830982" lon="2.4727247">
        <time>2022-07-10T12:16:57Z</time>
      </trkpt>
      <trkpt lat="41.8309" lon="2.472719">
        <time>2022-07-10T12:16:58Z</time>
      </trkpt>
      <trkpt lat="41.830814" lon="2.472723">
        <time>2022-07-10T12:16:59Z</time>
      </trkpt>
      <trkpt lat="41.83073" lon="2.4727223">
        <time>2022-07-10T12:17:00Z</time>
      </trkpt>
      <trkpt lat="41.83065" lon="2.472708">
        <time>2022-07-10T12:17:01Z</time>
      </trkpt>
      <trkpt lat="41.83057" lon="2.4726827">
        <time>2022-07-10T12:17:02Z</time>
      </trkpt>
      <trkpt lat="41.830498" lon="2.4726427">
        <time>2022-07-10T12:17:03Z</time>
      </trkpt>
      <trkpt lat="41.830433" lon="2.4725873">
        <time>2022-07-10T12:17:04Z</time>
      </trkpt>
      <trkpt lat="41.830368" lon="2.4725196">
        <time>2022-07-10T12:17:05Z</time>
      </trkpt>
      <trkpt lat="41.830303" lon="2.4724529">
        <time>2022-07-10T12:17:06Z</time>
      </trkpt>
      <trkpt lat="41.830235" lon="2.4723916">
        <time>2022-07-10T12:17:07Z</time>
      </trkpt>
      <trkpt lat="41.83017" lon="2.4723432">
        <time>2022-07-10T12:17:08Z</time>
      </trkpt>
      <trkpt lat="41.8301" lon="2.4723163">
        <time>2022-07-10T12:17:09Z</time>
      </trkpt>
      <trkpt lat="41.830036" lon="2.4723134">
        <time>2022-07-10T12:17:10Z</time>
      </trkpt>
      <trkpt lat="41.829975" lon="2.4723322">
        <time>2022-07-10T12:17:11Z</time>
      </trkpt>
      <trkpt lat="41.829914" lon="2.4723694">
        <time>2022-07-10T12:17:12Z</time>
      </trkpt>
      <trkpt lat="41.82986" lon="2.4724207">
        <time>2022-07-10T12:17:13Z</time>
      </trkpt>
      <trkpt lat="41.829807" lon="2.4724853">
        <time>2022-07-10T12:17:14Z</time>
      </trkpt>
      <trkpt lat="41.829754" lon="2.4725592">
        <time>2022-07-10T12:17:15Z</time>
      </trkpt>
      <trkpt lat="41.829704" lon="2.4726424">
        <time>2022-07-10T12:17:16Z</time>
      </trkpt>
      <trkpt lat="41.82966" lon="2.4727325">
        <time>2022-07-10T12:17:17Z</time>
      </trkpt>
      <trkpt lat="41.829617" lon="2.4728296">
        <time>2022-07-10T12:17:18Z</time>
      </trkpt>
      <trkpt lat="41.82958" lon="2.472924">
        <time>2022-07-10T12:17:19Z</time>
      </trkpt>
      <trkpt lat="41.82954" lon="2.473023">
        <time>2022-07-10T12:17:20Z</time>
      </trkpt>
      <trkpt lat="41.829506" lon="2.4731333">
        <time>2022-07-10T12:17:21Z</time>
      </trkpt>
      <trkpt lat="41.82948" lon="2.473239">
        <time>2022-07-10T12:17:22Z</time>
      </trkpt>
      <trkpt lat="41.829464" lon="2.4733505">
        <time>2022-07-10T12:17:23Z</time>
      </trkpt>
      <trkpt lat="41.829456" lon="2.473466">
        <time>2022-07-10T12:17:24Z</time>
      </trkpt>
      <trkpt lat="41.829464" lon="2.4735909">
        <time>2022-07-10T12:17:25Z</time>
      </trkpt>
      <trkpt lat="41.82948" lon="2.473715">
        <time>2022-07-10T12:17:26Z</time>
      </trkpt>
      <trkpt lat="41.829502" lon="2.4738374">
        <time>2022-07-10T12:17:27Z</time>
      </trkpt>
      <trkpt lat="41.829533" lon="2.4739542">
        <time>2022-07-10T12:17:28Z</time>
      </trkpt>
      <trkpt lat="41.829567" lon="2.4740646">
        <time>2022-07-10T12:17:29Z</time>
      </trkpt>
      <trkpt lat="41.829613" lon="2.474166">
        <time>2022-07-10T12:17:30Z</time>
      </trkpt>
      <trkpt lat="41.829666" lon="2.474259">
        <time>2022-07-10T12:17:31Z</time>
      </trkpt>
      <trkpt lat="41.829727" lon="2.4743485">
        <time>2022-07-10T12:17:32Z</time>
      </trkpt>
      <trkpt lat="41.829792" lon="2.4744372">
        <time>2022-07-10T12:17:33Z</time>
      </trkpt>
      <trkpt lat="41.829857" lon="2.474531">
        <time>2022-07-10T12:17:34Z</time>
      </trkpt>
      <trkpt lat="41.82992" lon="2.4746296">
        <time>2022-07-10T12:17:35Z</time>
      </trkpt>
      <trkpt lat="41.829987" lon="2.4747288">
        <time>2022-07-10T12:17:36Z</time>
      </trkpt>
      <trkpt lat="41.83005" lon="2.4748197">
        <time>2022-07-10T12:17:37Z</time>
      </trkpt>
      <trkpt lat="41.830196" lon="2.475016">
        <time>2022-07-10T12:17:39Z</time>
      </trkpt>
      <trkpt lat="41.83027" lon="2.4751105">
        <time>2022-07-10T12:17:40Z</time>
      </trkpt>
      <trkpt lat="41.830345" lon="2.4752035">
        <time>2022-07-10T12:17:41Z</time>
      </trkpt>
      <trkpt lat="41.83042" lon="2.4752965">
        <time>2022-07-10T12:17:42Z</time>
      </trkpt>
      <trkpt lat="41.830498" lon="2.4753916">
        <time>2022-07-10T12:17:43Z</time>
      </trkpt>
      <trkpt lat="41.830574" lon="2.4754887">
        <time>2022-07-10T12:17:44Z</time>
      </trkpt>
      <trkpt lat="41.83065" lon="2.4755883">
        <time>2022-07-10T12:17:45Z</time>
      </trkpt>
      <trkpt lat="41.830723" lon="2.4756885">
        <time>2022-07-10T12:17:46Z</time>
      </trkpt>
      <trkpt lat="41.830795" lon="2.4757864">
        <time>2022-07-10T12:17:47Z</time>
      </trkpt>
      <trkpt lat="41.830864" lon="2.475881">
        <time>2022-07-10T12:17:48Z</time>
      </trkpt>
      <trkpt lat="41.83093" lon="2.4759727">
        <time>2022-07-10T12:17:49Z</time>
      </trkpt>
      <trkpt lat="41.830986" lon="2.4760633">
        <time>2022-07-10T12:17:50Z</time>
      </trkpt>
      <trkpt lat="41.831024" lon="2.4761558">
        <time>2022-07-10T12:17:51Z</time>
      </trkpt>
      <trkpt lat="41.831047" lon="2.4762406">
        <time>2022-07-10T12:17:52Z</time>
      </trkpt>
      <trkpt lat="41.831043" lon="2.4763231">
        <time>2022-07-10T12:17:53Z</time>
      </trkpt>
      <trkpt lat="41.831024" lon="2.4763873">
        <time>2022-07-10T12:17:54Z</time>
      </trkpt>
      <trkpt lat="41.830994" lon="2.4764283">
        <time>2022-07-10T12:17:55Z</time>
      </trkpt>
      <trkpt lat="41.830906" lon="2.476441">
        <time>2022-07-10T12:17:57Z</time>
      </trkpt>
      <trkpt lat="41.83079" lon="2.4763772">
        <time>2022-07-10T12:17:59Z</time>
      </trkpt>
      <trkpt lat="41.83072" lon="2.476328">
        <time>2022-07-10T12:18:00Z</time>
      </trkpt>
      <trkpt lat="41.830647" lon="2.4762802">
        <time>2022-07-10T12:18:01Z</time>
      </trkpt>
      <trkpt lat="41.830574" lon="2.476236">
        <time>2022-07-10T12:18:02Z</time>
      </trkpt>
      <trkpt lat="41.830498" lon="2.4761932">
        <time>2022-07-10T12:18:03Z</time>
      </trkpt>
      <trkpt lat="41.83042" lon="2.4761505">
        <time>2022-07-10T12:18:04Z</time>
      </trkpt>
      <trkpt lat="41.83035" lon="2.4761043">
        <time>2022-07-10T12:18:05Z</time>
      </trkpt>
      <trkpt lat="41.830276" lon="2.4760556">
        <time>2022-07-10T12:18:06Z</time>
      </trkpt>
      <trkpt lat="41.830204" lon="2.476007">
        <time>2022-07-10T12:18:07Z</time>
      </trkpt>
      <trkpt lat="41.830128" lon="2.4759479">
        <time>2022-07-10T12:18:08Z</time>
      </trkpt>
      <trkpt lat="41.830048" lon="2.4758816">
        <time>2022-07-10T12:18:09Z</time>
      </trkpt>
      <trkpt lat="41.82997" lon="2.475814">
        <time>2022-07-10T12:18:10Z</time>
      </trkpt>
      <trkpt lat="41.82989" lon="2.4757535">
        <time>2022-07-10T12:18:11Z</time>
      </trkpt>
      <trkpt lat="41.829807" lon="2.475699">
        <time>2022-07-10T12:18:12Z</time>
      </trkpt>
      <trkpt lat="41.829723" lon="2.4756482">
        <time>2022-07-10T12:18:13Z</time>
      </trkpt>
      <trkpt lat="41.82964" lon="2.4755967">
        <time>2022-07-10T12:18:14Z</time>
      </trkpt>
      <trkpt lat="41.82956" lon="2.4755433">
        <time>2022-07-10T12:18:15Z</time>
      </trkpt>
      <trkpt lat="41.82948" lon="2.4754882">
        <time>2022-07-10T12:18:16Z</time>
      </trkpt>
      <trkpt lat="41.8294" lon="2.4754329">
        <time>2022-07-10T12:18:17Z</time>
      </trkpt>
      <trkpt lat="41.82932" lon="2.4753776">
        <time>2022-07-10T12:18:18Z</time>
      </trkpt>
      <trkpt lat="41.82924" lon="2.4753206">
        <time>2022-07-10T12:18:19Z</time>
      </trkpt>
      <trkpt lat="41.829155" lon="2.4752562">
        <time>2022-07-10T12:18:20Z</time>
      </trkpt>
      <trkpt lat="41.829075" lon="2.4751816">
        <time>2022-07-10T12:18:21Z</time>
      </trkpt>
      <trkpt lat="41.829002" lon="2.4750972">
        <time>2022-07-10T12:18:22Z</time>
      </trkpt>
      <trkpt lat="41.828934" lon="2.4750092">
        <time>2022-07-10T12:18:23Z</time>
      </trkpt>
      <trkpt lat="41.828865" lon="2.4749205">
        <time>2022-07-10T12:18:24Z</time>
      </trkpt>
      <trkpt lat="41.828793" lon="2.4748333">
        <time>2022-07-10T12:18:25Z</time>
      </trkpt>
      <trkpt lat="41.828712" lon="2.4747517">
        <time>2022-07-10T12:18:26Z</time>
      </trkpt>
      <trkpt lat="41.82863" lon="2.4746797">
        <time>2022-07-10T12:18:27Z</time>
      </trkpt>
      <trkpt lat="41.828545" lon="2.4746249">
        <time>2022-07-10T12:18:28Z</time>
      </trkpt>
      <trkpt lat="41.828457" lon="2.4745862">
        <time>2022-07-10T12:18:29Z</time>
      </trkpt>
      <trkpt lat="41.82836" lon="2.4745653">
        <time>2022-07-10T12:18:30Z</time>
      </trkpt>
      <trkpt lat="41.828262" lon="2.4745624">
        <time>2022-07-10T12:18:31Z</time>
      </trkpt>
      <trkpt lat="41.82816" lon="2.4745777">
        <time>2022-07-10T12:18:32Z</time>
      </trkpt>
      <trkpt lat="41.82806" lon="2.474612">
        <time>2022-07-10T12:18:33Z</time>
      </trkpt>
      <trkpt lat="41.827976" lon="2.4746587">
        <time>2022-07-10T12:18:34Z</time>
      </trkpt>
      <trkpt lat="41.827885" lon="2.4747267">
        <time>2022-07-10T12:18:35Z</time>
      </trkpt>
      <trkpt lat="41.8278" lon="2.474804">
        <time>2022-07-10T12:18:36Z</time>
      </trkpt>
      <trkpt lat="41.82772" lon="2.4748876">
        <time>2022-07-10T12:18:37Z</time>
      </trkpt>
      <trkpt lat="41.827637" lon="2.4749832">
        <time>2022-07-10T12:18:38Z</time>
      </trkpt>
      <trkpt lat="41.82756" lon="2.475076">
        <time>2022-07-10T12:18:39Z</time>
      </trkpt>
      <trkpt lat="41.82749" lon="2.4751751">
        <time>2022-07-10T12:18:40Z</time>
      </trkpt>
      <trkpt lat="41.827427" lon="2.4752786">
        <time>2022-07-10T12:18:41Z</time>
      </trkpt>
      <trkpt lat="41.827362" lon="2.4753842">
        <time>2022-07-10T12:18:42Z</time>
      </trkpt>
      <trkpt lat="41.827293" lon="2.4754891">
        <time>2022-07-10T12:18:43Z</time>
      </trkpt>
      <trkpt lat="41.827225" lon="2.4755912">
        <time>2022-07-10T12:18:44Z</time>
      </trkpt>
      <trkpt lat="41.827095" lon="2.475798">
        <time>2022-07-10T12:18:46Z</time>
      </trkpt>
      <trkpt lat="41.827038" lon="2.4759057">
        <time>2022-07-10T12:18:47Z</time>
      </trkpt>
      <trkpt lat="41.826977" lon="2.476014">
        <time>2022-07-10T12:18:48Z</time>
      </trkpt>
      <trkpt lat="41.826923" lon="2.4761217">
        <time>2022-07-10T12:18:49Z</time>
      </trkpt>
      <trkpt lat="41.826866" lon="2.476229">
        <time>2022-07-10T12:18:50Z</time>
      </trkpt>
      <trkpt lat="41.82681" lon="2.4763348">
        <time>2022-07-10T12:18:51Z</time>
      </trkpt>
      <trkpt lat="41.826748" lon="2.4764376">
        <time>2022-07-10T12:18:52Z</time>
      </trkpt>
      <trkpt lat="41.826683" lon="2.4765337">
        <time>2022-07-10T12:18:53Z</time>
      </trkpt>
      <trkpt lat="41.826622" lon="2.4766283">
        <time>2022-07-10T12:18:54Z</time>
      </trkpt>
      <trkpt lat="41.826565" lon="2.4767232">
        <time>2022-07-10T12:18:55Z</time>
      </trkpt>
      <trkpt lat="41.82651" lon="2.4768236">
        <time>2022-07-10T12:18:56Z</time>
      </trkpt>
      <trkpt lat="41.826466" lon="2.4769301">
        <time>2022-07-10T12:18:57Z</time>
      </trkpt>
      <trkpt lat="41.826427" lon="2.477042">
        <time>2022-07-10T12:18:58Z</time>
      </trkpt>
      <trkpt lat="41.82639" lon="2.4771545">
        <time>2022-07-10T12:18:59Z</time>
      </trkpt>
      <trkpt lat="41.826344" lon="2.4772668">
        <time>2022-07-10T12:19:00Z</time>
      </trkpt>
      <trkpt lat="41.826294" lon="2.4773774">
        <time>2022-07-10T12:19:01Z</time>
      </trkpt>
      <trkpt lat="41.826244" lon="2.477487">
        <time>2022-07-10T12:19:02Z</time>
      </trkpt>
      <trkpt lat="41.826195" lon="2.4776008">
        <time>2022-07-10T12:19:03Z</time>
      </trkpt>
      <trkpt lat="41.826145" lon="2.4777186">
        <time>2022-07-10T12:19:04Z</time>
      </trkpt>
      <trkpt lat="41.82609" lon="2.4778366">
        <time>2022-07-10T12:19:05Z</time>
      </trkpt>
      <trkpt lat="41.826042" lon="2.4779556">
        <time>2022-07-10T12:19:06Z</time>
      </trkpt>
      <trkpt lat="41.825985" lon="2.4780715">
        <time>2022-07-10T12:19:07Z</time>
      </trkpt>
      <trkpt lat="41.825924" lon="2.478185">
        <time>2022-07-10T12:19:08Z</time>
      </trkpt>
      <trkpt lat="41.825867" lon="2.4782972">
        <time>2022-07-10T12:19:09Z</time>
      </trkpt>
      <trkpt lat="41.825813" lon="2.4784124">
        <time>2022-07-10T12:19:10Z</time>
      </trkpt>
      <trkpt lat="41.82576" lon="2.4785287">
        <time>2022-07-10T12:19:11Z</time>
      </trkpt>
      <trkpt lat="41.825718" lon="2.4786475">
        <time>2022-07-10T12:19:12Z</time>
      </trkpt>
      <trkpt lat="41.825676" lon="2.478768">
        <time>2022-07-10T12:19:13Z</time>
      </trkpt>
      <trkpt lat="41.825634" lon="2.4788904">
        <time>2022-07-10T12:19:14Z</time>
      </trkpt>
      <trkpt lat="41.825596" lon="2.4790118">
        <time>2022-07-10T12:19:15Z</time>
      </trkpt>
      <trkpt lat="41.825558" lon="2.4791338">
        <time>2022-07-10T12:19:16Z</time>
      </trkpt>
      <trkpt lat="41.82552" lon="2.4792557">
        <time>2022-07-10T12:19:17Z</time>
      </trkpt>
      <trkpt lat="41.82548" lon="2.4793766">
        <time>2022-07-10T12:19:18Z</time>
      </trkpt>
      <trkpt lat="41.82544" lon="2.4794958">
        <time>2022-07-10T12:19:19Z</time>
      </trkpt>
      <trkpt lat="41.825394" lon="2.4796135">
        <time>2022-07-10T12:19:20Z</time>
      </trkpt>
      <trkpt lat="41.825348" lon="2.479738">
        <time>2022-07-10T12:19:21Z</time>
      </trkpt>
      <trkpt lat="41.825306" lon="2.479854">
        <time>2022-07-10T12:19:22Z</time>
      </trkpt>
      <trkpt lat="41.825268" lon="2.4799716">
        <time>2022-07-10T12:19:23Z</time>
      </trkpt>
      <trkpt lat="41.825233" lon="2.4800897">
        <time>2022-07-10T12:19:24Z</time>
      </trkpt>
      <trkpt lat="41.825195" lon="2.4802082">
        <time>2022-07-10T12:19:25Z</time>
      </trkpt>
      <trkpt lat="41.825157" lon="2.4803238">
        <time>2022-07-10T12:19:26Z</time>
      </trkpt>
      <trkpt lat="41.82511" lon="2.4804337">
        <time>2022-07-10T12:19:27Z</time>
      </trkpt>
      <trkpt lat="41.825058" lon="2.480536">
        <time>2022-07-10T12:19:28Z</time>
      </trkpt>
      <trkpt lat="41.825005" lon="2.480634">
        <time>2022-07-10T12:19:29Z</time>
      </trkpt>
      <trkpt lat="41.824944" lon="2.4807286">
        <time>2022-07-10T12:19:30Z</time>
      </trkpt>
      <trkpt lat="41.824886" lon="2.4808218">
        <time>2022-07-10T12:19:31Z</time>
      </trkpt>
      <trkpt lat="41.82483" lon="2.4809153">
        <time>2022-07-10T12:19:32Z</time>
      </trkpt>
      <trkpt lat="41.82477" lon="2.4810116">
        <time>2022-07-10T12:19:33Z</time>
      </trkpt>
      <trkpt lat="41.82472" lon="2.4811096">
        <time>2022-07-10T12:19:34Z</time>
      </trkpt>
      <trkpt lat="41.82467" lon="2.4812093">
        <time>2022-07-10T12:19:35Z</time>
      </trkpt>
      <trkpt lat="41.82462" lon="2.4813097">
        <time>2022-07-10T12:19:36Z</time>
      </trkpt>
      <trkpt lat="41.824574" lon="2.4814124">
        <time>2022-07-10T12:19:37Z</time>
      </trkpt>
      <trkpt lat="41.824528" lon="2.481517">
        <time>2022-07-10T12:19:38Z</time>
      </trkpt>
      <trkpt lat="41.824486" lon="2.4816236">
        <time>2022-07-10T12:19:39Z</time>
      </trkpt>
      <trkpt lat="41.824444" lon="2.4817314">
        <time>2022-07-10T12:19:40Z</time>
      </trkpt>
      <trkpt lat="41.8244" lon="2.481837">
        <time>2022-07-10T12:19:41Z</time>
      </trkpt>
      <trkpt lat="41.824356" lon="2.48194">
        <time>2022-07-10T12:19:42Z</time>
      </trkpt>
      <trkpt lat="41.824303" lon="2.4820373">
        <time>2022-07-10T12:19:43Z</time>
      </trkpt>
      <trkpt lat="41.82425" lon="2.4821312">
        <time>2022-07-10T12:19:44Z</time>
      </trkpt>
      <trkpt lat="41.824192" lon="2.482224">
        <time>2022-07-10T12:19:45Z</time>
      </trkpt>
      <trkpt lat="41.82414" lon="2.4823167">
        <time>2022-07-10T12:19:46Z</time>
      </trkpt>
      <trkpt lat="41.82409" lon="2.482412">
        <time>2022-07-10T12:19:47Z</time>
      </trkpt>
      <trkpt lat="41.82404" lon="2.4825103">
        <time>2022-07-10T12:19:48Z</time>
      </trkpt>
      <trkpt lat="41.823994" lon="2.4826117">
        <time>2022-07-10T12:19:49Z</time>
      </trkpt>
      <trkpt lat="41.823948" lon="2.4827147">
        <time>2022-07-10T12:19:50Z</time>
      </trkpt>
      <trkpt lat="41.823856" lon="2.482928">
        <time>2022-07-10T12:19:52Z</time>
      </trkpt>
      <trkpt lat="41.82381" lon="2.4830387">
        <time>2022-07-10T12:19:53Z</time>
      </trkpt>
      <trkpt lat="41.823765" lon="2.4831486">
        <time>2022-07-10T12:19:54Z</time>
      </trkpt>
      <trkpt lat="41.823727" lon="2.483252">
        <time>2022-07-10T12:19:55Z</time>
      </trkpt>
      <trkpt lat="41.823692" lon="2.4833586">
        <time>2022-07-10T12:19:56Z</time>
      </trkpt>
      <trkpt lat="41.823654" lon="2.4834747">
        <time>2022-07-10T12:19:57Z</time>
      </trkpt>
      <trkpt lat="41.82362" lon="2.4835887">
        <time>2022-07-10T12:19:58Z</time>
      </trkpt>
      <trkpt lat="41.82358" lon="2.4837008">
        <time>2022-07-10T12:19:59Z</time>
      </trkpt>
      <trkpt lat="41.82354" lon="2.4838042">
        <time>2022-07-10T12:20:00Z</time>
      </trkpt>
      <trkpt lat="41.823498" lon="2.4839077">
        <time>2022-07-10T12:20:01Z</time>
      </trkpt>
      <trkpt lat="41.823452" lon="2.4840097">
        <time>2022-07-10T12:20:02Z</time>
      </trkpt>
      <trkpt lat="41.823402" lon="2.4841115">
        <time>2022-07-10T12:20:03Z</time>
      </trkpt>
      <trkpt lat="41.823345" lon="2.4842207">
        <time>2022-07-10T12:20:04Z</time>
      </trkpt>
      <trkpt lat="41.823288" lon="2.4843209">
        <time>2022-07-10T12:20:05Z</time>
      </trkpt>
      <trkpt lat="41.82323" lon="2.4844244">
        <time>2022-07-10T12:20:06Z</time>
      </trkpt>
      <trkpt lat="41.823174" lon="2.48453">
        <time>2022-07-10T12:20:07Z</time>
      </trkpt>
      <trkpt lat="41.82312" lon="2.48464">
        <time>2022-07-10T12:20:08Z</time>
      </trkpt>
      <trkpt lat="41.823063" lon="2.484751">
        <time>2022-07-10T12:20:09Z</time>
      </trkpt>
      <trkpt lat="41.823006" lon="2.4848623">
        <time>2022-07-10T12:20:10Z</time>
      </trkpt>
      <trkpt lat="41.822945" lon="2.4849732">
        <time>2022-07-10T12:20:11Z</time>
      </trkpt>
      <trkpt lat="41.822884" lon="2.485085">
        <time>2022-07-10T12:20:12Z</time>
      </trkpt>
      <trkpt lat="41.822823" lon="2.4851973">
        <time>2022-07-10T12:20:13Z</time>
      </trkpt>
      <trkpt lat="41.822765" lon="2.4853113">
        <time>2022-07-10T12:20:14Z</time>
      </trkpt>
      <trkpt lat="41.82271" lon="2.4854372">
        <time>2022-07-10T12:20:15Z</time>
      </trkpt>
      <trkpt lat="41.822655" lon="2.485564">
        <time>2022-07-10T12:20:16Z</time>
      </trkpt>
      <trkpt lat="41.822613" lon="2.4856842">
        <time>2022-07-10T12:20:17Z</time>
      </trkpt>
      <trkpt lat="41.82257" lon="2.4858086">
        <time>2022-07-10T12:20:18Z</time>
      </trkpt>
      <trkpt lat="41.82253" lon="2.485936">
        <time>2022-07-10T12:20:19Z</time>
      </trkpt>
      <trkpt lat="41.82249" lon="2.4860642">
        <time>2022-07-10T12:20:20Z</time>
      </trkpt>
      <trkpt lat="41.82245" lon="2.4861925">
        <time>2022-07-10T12:20:21Z</time>
      </trkpt>
      <trkpt lat="41.822407" lon="2.4863193">
        <time>2022-07-10T12:20:22Z</time>
      </trkpt>
      <trkpt lat="41.82236" lon="2.4864442">
        <time>2022-07-10T12:20:23Z</time>
      </trkpt>
      <trkpt lat="41.822315" lon="2.4865682">
        <time>2022-07-10T12:20:24Z</time>
      </trkpt>
      <trkpt lat="41.822266" lon="2.4866905">
        <time>2022-07-10T12:20:25Z</time>
      </trkpt>
      <trkpt lat="41.822212" lon="2.4868128">
        <time>2022-07-10T12:20:26Z</time>
      </trkpt>
      <trkpt lat="41.822163" lon="2.4869347">
        <time>2022-07-10T12:20:27Z</time>
      </trkpt>
      <trkpt lat="41.82211" lon="2.4870553">
        <time>2022-07-10T12:20:28Z</time>
      </trkpt>
      <trkpt lat="41.822056" lon="2.487175">
        <time>2022-07-10T12:20:29Z</time>
      </trkpt>
      <trkpt lat="41.822002" lon="2.4872932">
        <time>2022-07-10T12:20:30Z</time>
      </trkpt>
      <trkpt lat="41.82195" lon="2.4874108">
        <time>2022-07-10T12:20:31Z</time>
      </trkpt>
      <trkpt lat="41.82189" lon="2.4875293">
        <time>2022-07-10T12:20:32Z</time>
      </trkpt>
      <trkpt lat="41.82184" lon="2.4876492">
        <time>2022-07-10T12:20:33Z</time>
      </trkpt>
      <trkpt lat="41.821785" lon="2.4877698">
        <time>2022-07-10T12:20:34Z</time>
      </trkpt>
      <trkpt lat="41.821728" lon="2.487891">
        <time>2022-07-10T12:20:35Z</time>
      </trkpt>
      <trkpt lat="41.821674" lon="2.4880133">
        <time>2022-07-10T12:20:36Z</time>
      </trkpt>
      <trkpt lat="41.821625" lon="2.4881368">
        <time>2022-07-10T12:20:37Z</time>
      </trkpt>
      <trkpt lat="41.821583" lon="2.4882648">
        <time>2022-07-10T12:20:38Z</time>
      </trkpt>
      <trkpt lat="41.821545" lon="2.4883971">
        <time>2022-07-10T12:20:39Z</time>
      </trkpt>
      <trkpt lat="41.821518" lon="2.4885342">
        <time>2022-07-10T12:20:40Z</time>
      </trkpt>
      <trkpt lat="41.821495" lon="2.488675">
        <time>2022-07-10T12:20:41Z</time>
      </trkpt>
      <trkpt lat="41.821476" lon="2.488819">
        <time>2022-07-10T12:20:42Z</time>
      </trkpt>
      <trkpt lat="41.821457" lon="2.4889624">
        <time>2022-07-10T12:20:43Z</time>
      </trkpt>
      <trkpt lat="41.821434" lon="2.4891045">
        <time>2022-07-10T12:20:44Z</time>
      </trkpt>
      <trkpt lat="41.821404" lon="2.4892416">
        <time>2022-07-10T12:20:45Z</time>
      </trkpt>
      <trkpt lat="41.82137" lon="2.489371">
        <time>2022-07-10T12:20:46Z</time>
      </trkpt>
      <trkpt lat="41.821323" lon="2.489493">
        <time>2022-07-10T12:20:47Z</time>
      </trkpt>
      <trkpt lat="41.821278" lon="2.4896069">
        <time>2022-07-10T12:20:48Z</time>
      </trkpt>
      <trkpt lat="41.821228" lon="2.4897168">
        <time>2022-07-10T12:20:49Z</time>
      </trkpt>
      <trkpt lat="41.82118" lon="2.4898262">
        <time>2022-07-10T12:20:50Z</time>
      </trkpt>
      <trkpt lat="41.82114" lon="2.489936">
        <time>2022-07-10T12:20:51Z</time>
      </trkpt>
      <trkpt lat="41.821102" lon="2.4900465">
        <time>2022-07-10T12:20:52Z</time>
      </trkpt>
      <trkpt lat="41.82107" lon="2.4901597">
        <time>2022-07-10T12:20:53Z</time>
      </trkpt>
      <trkpt lat="41.82104" lon="2.4902725">
        <time>2022-07-10T12:20:54Z</time>
      </trkpt>
      <trkpt lat="41.82098" lon="2.490494">
        <time>2022-07-10T12:20:56Z</time>
      </trkpt>
      <trkpt lat="41.820953" lon="2.490606">
        <time>2022-07-10T12:20:57Z</time>
      </trkpt>
      <trkpt lat="41.82093" lon="2.4907172">
        <time>2022-07-10T12:20:58Z</time>
      </trkpt>
      <trkpt lat="41.820908" lon="2.490827">
        <time>2022-07-10T12:20:59Z</time>
      </trkpt>
      <trkpt lat="41.82088" lon="2.4909325">
        <time>2022-07-10T12:21:00Z</time>
      </trkpt>
      <trkpt lat="41.820858" lon="2.4910371">
        <time>2022-07-10T12:21:01Z</time>
      </trkpt>
      <trkpt lat="41.82083" lon="2.491141">
        <time>2022-07-10T12:21:02Z</time>
      </trkpt>
      <trkpt lat="41.820805" lon="2.4912434">
        <time>2022-07-10T12:21:03Z</time>
      </trkpt>
      <trkpt lat="41.82077" lon="2.4913464">
        <time>2022-07-10T12:21:04Z</time>
      </trkpt>
      <trkpt lat="41.82074" lon="2.491441">
        <time>2022-07-10T12:21:05Z</time>
      </trkpt>
      <trkpt lat="41.8207" lon="2.491537">
        <time>2022-07-10T12:21:06Z</time>
      </trkpt>
      <trkpt lat="41.820663" lon="2.4916341">
        <time>2022-07-10T12:21:07Z</time>
      </trkpt>
      <trkpt lat="41.82062" lon="2.491733">
        <time>2022-07-10T12:21:08Z</time>
      </trkpt>
      <trkpt lat="41.820583" lon="2.4918349">
        <time>2022-07-10T12:21:09Z</time>
      </trkpt>
      <trkpt lat="41.820545" lon="2.4919405">
        <time>2022-07-10T12:21:10Z</time>
      </trkpt>
      <trkpt lat="41.820515" lon="2.4920487">
        <time>2022-07-10T12:21:11Z</time>
      </trkpt>
      <trkpt lat="41.820484" lon="2.4921608">
        <time>2022-07-10T12:21:12Z</time>
      </trkpt>
      <trkpt lat="41.820457" lon="2.492283">
        <time>2022-07-10T12:21:13Z</time>
      </trkpt>
      <trkpt lat="41.820435" lon="2.4923964">
        <time>2022-07-10T12:21:14Z</time>
      </trkpt>
      <trkpt lat="41.820408" lon="2.4925115">
        <time>2022-07-10T12:21:15Z</time>
      </trkpt>
      <trkpt lat="41.82038" lon="2.4926262">
        <time>2022-07-10T12:21:16Z</time>
      </trkpt>
      <trkpt lat="41.820354" lon="2.4927428">
        <time>2022-07-10T12:21:17Z</time>
      </trkpt>
      <trkpt lat="41.820324" lon="2.4928687">
        <time>2022-07-10T12:21:18Z</time>
      </trkpt>
      <trkpt lat="41.820297" lon="2.4929857">
        <time>2022-07-10T12:21:19Z</time>
      </trkpt>
      <trkpt lat="41.82027" lon="2.4931052">
        <time>2022-07-10T12:21:20Z</time>
      </trkpt>
      <trkpt lat="41.82025" lon="2.4932277">
        <time>2022-07-10T12:21:21Z</time>
      </trkpt>
      <trkpt lat="41.820236" lon="2.4933531">
        <time>2022-07-10T12:21:22Z</time>
      </trkpt>
      <trkpt lat="41.820217" lon="2.4934888">
        <time>2022-07-10T12:21:23Z</time>
      </trkpt>
      <trkpt lat="41.820198" lon="2.4936228">
        <time>2022-07-10T12:21:24Z</time>
      </trkpt>
      <trkpt lat="41.82018" lon="2.493755">
        <time>2022-07-10T12:21:25Z</time>
      </trkpt>
      <trkpt lat="41.82016" lon="2.493884">
        <time>2022-07-10T12:21:26Z</time>
      </trkpt>
      <trkpt lat="41.82014" lon="2.4940107">
        <time>2022-07-10T12:21:27Z</time>
      </trkpt>
      <trkpt lat="41.82012" lon="2.4941363">
        <time>2022-07-10T12:21:28Z</time>
      </trkpt>
      <trkpt lat="41.820107" lon="2.494259">
        <time>2022-07-10T12:21:29Z</time>
      </trkpt>
      <trkpt lat="41.82009" lon="2.494378">
        <time>2022-07-10T12:21:30Z</time>
      </trkpt>
      <trkpt lat="41.82008" lon="2.494496">
        <time>2022-07-10T12:21:31Z</time>
      </trkpt>
      <trkpt lat="41.820072" lon="2.494605">
        <time>2022-07-10T12:21:32Z</time>
      </trkpt>
      <trkpt lat="41.82006" lon="2.494714">
        <time>2022-07-10T12:21:33Z</time>
      </trkpt>
      <trkpt lat="41.82005" lon="2.4948287">
        <time>2022-07-10T12:21:34Z</time>
      </trkpt>
      <trkpt lat="41.820034" lon="2.4949374">
        <time>2022-07-10T12:21:35Z</time>
      </trkpt>
      <trkpt lat="41.820015" lon="2.4950416">
        <time>2022-07-10T12:21:36Z</time>
      </trkpt>
      <trkpt lat="41.819984" lon="2.4951408">
        <time>2022-07-10T12:21:37Z</time>
      </trkpt>
      <trkpt lat="41.81995" lon="2.4952326">
        <time>2022-07-10T12:21:38Z</time>
      </trkpt>
      <trkpt lat="41.819912" lon="2.4953194">
        <time>2022-07-10T12:21:39Z</time>
      </trkpt>
      <trkpt lat="41.819862" lon="2.4953983">
        <time>2022-07-10T12:21:40Z</time>
      </trkpt>
      <trkpt lat="41.819813" lon="2.4954693">
        <time>2022-07-10T12:21:41Z</time>
      </trkpt>
      <trkpt lat="41.81975" lon="2.495532">
        <time>2022-07-10T12:21:42Z</time>
      </trkpt>
      <trkpt lat="41.81969" lon="2.4955916">
        <time>2022-07-10T12:21:43Z</time>
      </trkpt>
      <trkpt lat="41.819626" lon="2.4956462">
        <time>2022-07-10T12:21:44Z</time>
      </trkpt>
      <trkpt lat="41.81956" lon="2.495694">
        <time>2022-07-10T12:21:45Z</time>
      </trkpt>
      <trkpt lat="41.819492" lon="2.495737">
        <time>2022-07-10T12:21:46Z</time>
      </trkpt>
      <trkpt lat="41.819424" lon="2.4957774">
        <time>2022-07-10T12:21:47Z</time>
      </trkpt>
      <trkpt lat="41.81936" lon="2.4958177">
        <time>2022-07-10T12:21:48Z</time>
      </trkpt>
      <trkpt lat="41.819294" lon="2.4958563">
        <time>2022-07-10T12:21:49Z</time>
      </trkpt>
      <trkpt lat="41.819218" lon="2.4958847">
        <time>2022-07-10T12:21:50Z</time>
      </trkpt>
      <trkpt lat="41.81915" lon="2.49591">
        <time>2022-07-10T12:21:51Z</time>
      </trkpt>
      <trkpt lat="41.81908" lon="2.4959335">
        <time>2022-07-10T12:21:52Z</time>
      </trkpt>
      <trkpt lat="41.81901" lon="2.4959526">
        <time>2022-07-10T12:21:53Z</time>
      </trkpt>
      <trkpt lat="41.81895" lon="2.4959667">
        <time>2022-07-10T12:21:54Z</time>
      </trkpt>
      <trkpt lat="41.818886" lon="2.495977">
        <time>2022-07-10T12:21:55Z</time>
      </trkpt>
      <trkpt lat="41.818825" lon="2.4959888">
        <time>2022-07-10T12:21:56Z</time>
      </trkpt>
      <trkpt lat="41.818764" lon="2.495996">
        <time>2022-07-10T12:21:57Z</time>
      </trkpt>
      <trkpt lat="41.818645" lon="2.4960043">
        <time>2022-07-10T12:21:59Z</time>
      </trkpt>
      <trkpt lat="41.81859" lon="2.4960105">
        <time>2022-07-10T12:22:00Z</time>
      </trkpt>
      <trkpt lat="41.81853" lon="2.4960196">
        <time>2022-07-10T12:22:01Z</time>
      </trkpt>
      <trkpt lat="41.818478" lon="2.4960363">
        <time>2022-07-10T12:22:02Z</time>
      </trkpt>
      <trkpt lat="41.81843" lon="2.4960682">
        <time>2022-07-10T12:22:03Z</time>
      </trkpt>
      <trkpt lat="41.818394" lon="2.4961119">
        <time>2022-07-10T12:22:04Z</time>
      </trkpt>
      <trkpt lat="41.81835" lon="2.496167">
        <time>2022-07-10T12:22:05Z</time>
      </trkpt>
      <trkpt lat="41.81831" lon="2.4962256">
        <time>2022-07-10T12:22:06Z</time>
      </trkpt>
      <trkpt lat="41.818268" lon="2.4962866">
        <time>2022-07-10T12:22:07Z</time>
      </trkpt>
      <trkpt lat="41.818222" lon="2.4963481">
        <time>2022-07-10T12:22:08Z</time>
      </trkpt>
      <trkpt lat="41.81818" lon="2.4964113">
        <time>2022-07-10T12:22:09Z</time>
      </trkpt>
      <trkpt lat="41.818134" lon="2.496472">
        <time>2022-07-10T12:22:10Z</time>
      </trkpt>
      <trkpt lat="41.81809" lon="2.4965322">
        <time>2022-07-10T12:22:11Z</time>
      </trkpt>
      <trkpt lat="41.818047" lon="2.4965966">
        <time>2022-07-10T12:22:12Z</time>
      </trkpt>
      <trkpt lat="41.818012" lon="2.4966667">
        <time>2022-07-10T12:22:13Z</time>
      </trkpt>
      <trkpt lat="41.817986" lon="2.4967399">
        <time>2022-07-10T12:22:14Z</time>
      </trkpt>
      <trkpt lat="41.817966" lon="2.4968185">
        <time>2022-07-10T12:22:15Z</time>
      </trkpt>
      <trkpt lat="41.817955" lon="2.4969056">
        <time>2022-07-10T12:22:16Z</time>
      </trkpt>
      <trkpt lat="41.81795" lon="2.496996">
        <time>2022-07-10T12:22:17Z</time>
      </trkpt>
      <trkpt lat="41.817955" lon="2.4970841">
        <time>2022-07-10T12:22:18Z</time>
      </trkpt>
      <trkpt lat="41.81796" lon="2.4971716">
        <time>2022-07-10T12:22:19Z</time>
      </trkpt>
      <trkpt lat="41.817966" lon="2.4972587">
        <time>2022-07-10T12:22:20Z</time>
      </trkpt>
      <trkpt lat="41.817978" lon="2.497345">
        <time>2022-07-10T12:22:21Z</time>
      </trkpt>
      <trkpt lat="41.817993" lon="2.4974313">
        <time>2022-07-10T12:22:22Z</time>
      </trkpt>
      <trkpt lat="41.81801" lon="2.4975166">
        <time>2022-07-10T12:22:23Z</time>
      </trkpt>
      <trkpt lat="41.818024" lon="2.497602">
        <time>2022-07-10T12:22:24Z</time>
      </trkpt>
      <trkpt lat="41.818043" lon="2.4976866">
        <time>2022-07-10T12:22:25Z</time>
      </trkpt>
      <trkpt lat="41.818058" lon="2.497772">
        <time>2022-07-10T12:22:26Z</time>
      </trkpt>
      <trkpt lat="41.81807" lon="2.497856">
        <time>2022-07-10T12:22:27Z</time>
      </trkpt>
      <trkpt lat="41.818085" lon="2.4979415">
        <time>2022-07-10T12:22:28Z</time>
      </trkpt>
      <trkpt lat="41.818096" lon="2.498027">
        <time>2022-07-10T12:22:29Z</time>
      </trkpt>
      <trkpt lat="41.818108" lon="2.4981117">
        <time>2022-07-10T12:22:30Z</time>
      </trkpt>
      <trkpt lat="41.818123" lon="2.4981966">
        <time>2022-07-10T12:22:31Z</time>
      </trkpt>
      <trkpt lat="41.81814" lon="2.498283">
        <time>2022-07-10T12:22:32Z</time>
      </trkpt>
      <trkpt lat="41.818153" lon="2.49837">
        <time>2022-07-10T12:22:33Z</time>
      </trkpt>
      <trkpt lat="41.81817" lon="2.4984574">
        <time>2022-07-10T12:22:34Z</time>
      </trkpt>
      <trkpt lat="41.818188" lon="2.4985461">
        <time>2022-07-10T12:22:35Z</time>
      </trkpt>
      <trkpt lat="41.818203" lon="2.4986315">
        <time>2022-07-10T12:22:36Z</time>
      </trkpt>
      <trkpt lat="41.818222" lon="2.4987192">
        <time>2022-07-10T12:22:37Z</time>
      </trkpt>
      <trkpt lat="41.818245" lon="2.498808">
        <time>2022-07-10T12:22:38Z</time>
      </trkpt>
      <trkpt lat="41.81827" lon="2.498898">
        <time>2022-07-10T12:22:39Z</time>
      </trkpt>
      <trkpt lat="41.818302" lon="2.4989939">
        <time>2022-07-10T12:22:40Z</time>
      </trkpt>
      <trkpt lat="41.818333" lon="2.4990795">
        <time>2022-07-10T12:22:41Z</time>
      </trkpt>
      <trkpt lat="41.81837" lon="2.4991615">
        <time>2022-07-10T12:22:42Z</time>
      </trkpt>
      <trkpt lat="41.818417" lon="2.4992409">
        <time>2022-07-10T12:22:43Z</time>
      </trkpt>
      <trkpt lat="41.818462" lon="2.4993181">
        <time>2022-07-10T12:22:44Z</time>
      </trkpt>
      <trkpt lat="41.818512" lon="2.4993937">
        <time>2022-07-10T12:22:45Z</time>
      </trkpt>
      <trkpt lat="41.81857" lon="2.4994755">
        <time>2022-07-10T12:22:46Z</time>
      </trkpt>
      <trkpt lat="41.81863" lon="2.499556">
        <time>2022-07-10T12:22:47Z</time>
      </trkpt>
      <trkpt lat="41.818695" lon="2.4996345">
        <time>2022-07-10T12:22:48Z</time>
      </trkpt>
      <trkpt lat="41.818756" lon="2.4997091">
        <time>2022-07-10T12:22:49Z</time>
      </trkpt>
      <trkpt lat="41.818817" lon="2.499782">
        <time>2022-07-10T12:22:50Z</time>
      </trkpt>
      <trkpt lat="41.818882" lon="2.4998584">
        <time>2022-07-10T12:22:51Z</time>
      </trkpt>
      <trkpt lat="41.81895" lon="2.4999423">
        <time>2022-07-10T12:22:52Z</time>
      </trkpt>
      <trkpt lat="41.81902" lon="2.5000248">
        <time>2022-07-10T12:22:53Z</time>
      </trkpt>
      <trkpt lat="41.819096" lon="2.5001135">
        <time>2022-07-10T12:22:54Z</time>
      </trkpt>
      <trkpt lat="41.81917" lon="2.5002007">
        <time>2022-07-10T12:22:55Z</time>
      </trkpt>
      <trkpt lat="41.81925" lon="2.500288">
        <time>2022-07-10T12:22:56Z</time>
      </trkpt>
      <trkpt lat="41.81932" lon="2.5003743">
        <time>2022-07-10T12:22:57Z</time>
      </trkpt>
      <trkpt lat="41.81939" lon="2.5004647">
        <time>2022-07-10T12:22:58Z</time>
      </trkpt>
      <trkpt lat="41.819454" lon="2.500562">
        <time>2022-07-10T12:22:59Z</time>
      </trkpt>
      <trkpt lat="41.81951" lon="2.500665">
        <time>2022-07-10T12:23:00Z</time>
      </trkpt>
      <trkpt lat="41.8196" lon="2.5008883">
        <time>2022-07-10T12:23:02Z</time>
      </trkpt>
      <trkpt lat="41.81963" lon="2.501003">
        <time>2022-07-10T12:23:03Z</time>
      </trkpt>
      <trkpt lat="41.819653" lon="2.5011168">
        <time>2022-07-10T12:23:04Z</time>
      </trkpt>
      <trkpt lat="41.819675" lon="2.501228">
        <time>2022-07-10T12:23:05Z</time>
      </trkpt>
      <trkpt lat="41.819695" lon="2.501338">
        <time>2022-07-10T12:23:06Z</time>
      </trkpt>
      <trkpt lat="41.81971" lon="2.5014462">
        <time>2022-07-10T12:23:07Z</time>
      </trkpt>
      <trkpt lat="41.81972" lon="2.5015516">
        <time>2022-07-10T12:23:08Z</time>
      </trkpt>
      <trkpt lat="41.81973" lon="2.501655">
        <time>2022-07-10T12:23:09Z</time>
      </trkpt>
      <trkpt lat="41.819733" lon="2.5017557">
        <time>2022-07-10T12:23:10Z</time>
      </trkpt>
      <trkpt lat="41.819736" lon="2.5018537">
        <time>2022-07-10T12:23:11Z</time>
      </trkpt>
      <trkpt lat="41.819733" lon="2.5019503">
        <time>2022-07-10T12:23:12Z</time>
      </trkpt>
      <trkpt lat="41.81973" lon="2.5020456">
        <time>2022-07-10T12:23:13Z</time>
      </trkpt>
      <trkpt lat="41.819725" lon="2.502141">
        <time>2022-07-10T12:23:14Z</time>
      </trkpt>
      <trkpt lat="41.819717" lon="2.5022357">
        <time>2022-07-10T12:23:15Z</time>
      </trkpt>
      <trkpt lat="41.81971" lon="2.5023293">
        <time>2022-07-10T12:23:16Z</time>
      </trkpt>
      <trkpt lat="41.819702" lon="2.502422">
        <time>2022-07-10T12:23:17Z</time>
      </trkpt>
      <trkpt lat="41.819695" lon="2.502513">
        <time>2022-07-10T12:23:18Z</time>
      </trkpt>
      <trkpt lat="41.819687" lon="2.5026026">
        <time>2022-07-10T12:23:19Z</time>
      </trkpt>
      <trkpt lat="41.81968" lon="2.502691">
        <time>2022-07-10T12:23:20Z</time>
      </trkpt>
      <trkpt lat="41.819668" lon="2.5027773">
        <time>2022-07-10T12:23:21Z</time>
      </trkpt>
      <trkpt lat="41.81966" lon="2.5028622">
        <time>2022-07-10T12:23:22Z</time>
      </trkpt>
      <trkpt lat="41.819653" lon="2.5029464">
        <time>2022-07-10T12:23:23Z</time>
      </trkpt>
      <trkpt lat="41.819645" lon="2.50303">
        <time>2022-07-10T12:23:24Z</time>
      </trkpt>
      <trkpt lat="41.819637" lon="2.503113">
        <time>2022-07-10T12:23:25Z</time>
      </trkpt>
      <trkpt lat="41.819622" lon="2.503282">
        <time>2022-07-10T12:23:27Z</time>
      </trkpt>
      <trkpt lat="41.819614" lon="2.5033627">
        <time>2022-07-10T12:23:28Z</time>
      </trkpt>
      <trkpt lat="41.819607" lon="2.5034447">
        <time>2022-07-10T12:23:29Z</time>
      </trkpt>
      <trkpt lat="41.8196" lon="2.503522">
        <time>2022-07-10T12:23:30Z</time>
      </trkpt>
      <trkpt lat="41.819588" lon="2.503607">
        <time>2022-07-10T12:23:31Z</time>
      </trkpt>
      <trkpt lat="41.81958" lon="2.5036917">
        <time>2022-07-10T12:23:32Z</time>
      </trkpt>
      <trkpt lat="41.819572" lon="2.5037773">
        <time>2022-07-10T12:23:33Z</time>
      </trkpt>
      <trkpt lat="41.81957" lon="2.5038574">
        <time>2022-07-10T12:23:34Z</time>
      </trkpt>
      <trkpt lat="41.819565" lon="2.503939">
        <time>2022-07-10T12:23:35Z</time>
      </trkpt>
      <trkpt lat="41.81957" lon="2.5040267">
        <time>2022-07-10T12:23:36Z</time>
      </trkpt>
      <trkpt lat="41.819584" lon="2.5041108">
        <time>2022-07-10T12:23:37Z</time>
      </trkpt>
      <trkpt lat="41.819607" lon="2.5041876">
        <time>2022-07-10T12:23:38Z</time>
      </trkpt>
      <trkpt lat="41.819637" lon="2.5042531">
        <time>2022-07-10T12:23:39Z</time>
      </trkpt>
      <trkpt lat="41.819675" lon="2.504308">
        <time>2022-07-10T12:23:40Z</time>
      </trkpt>
      <trkpt lat="41.81972" lon="2.5043516">
        <time>2022-07-10T12:23:41Z</time>
      </trkpt>
      <trkpt lat="41.81977" lon="2.5043833">
        <time>2022-07-10T12:23:42Z</time>
      </trkpt>
      <trkpt lat="41.819828" lon="2.5044048">
        <time>2022-07-10T12:23:43Z</time>
      </trkpt>
      <trkpt lat="41.819885" lon="2.5044224">
        <time>2022-07-10T12:23:44Z</time>
      </trkpt>
      <trkpt lat="41.819946" lon="2.504434">
        <time>2022-07-10T12:23:45Z</time>
      </trkpt>
      <trkpt lat="41.820015" lon="2.5044436">
        <time>2022-07-10T12:23:46Z</time>
      </trkpt>
      <trkpt lat="41.820076" lon="2.5044482">
        <time>2022-07-10T12:23:47Z</time>
      </trkpt>
      <trkpt lat="41.820133" lon="2.5044456">
        <time>2022-07-10T12:23:48Z</time>
      </trkpt>
      <trkpt lat="41.82019" lon="2.504434">
        <time>2022-07-10T12:23:49Z</time>
      </trkpt>
      <trkpt lat="41.82024" lon="2.5044212">
        <time>2022-07-10T12:23:50Z</time>
      </trkpt>
      <trkpt lat="41.820293" lon="2.5044093">
        <time>2022-07-10T12:23:51Z</time>
      </trkpt>
      <trkpt lat="41.820347" lon="2.5044038">
        <time>2022-07-10T12:23:52Z</time>
      </trkpt>
      <trkpt lat="41.820404" lon="2.5044036">
        <time>2022-07-10T12:23:53Z</time>
      </trkpt>
      <trkpt lat="41.820457" lon="2.5044062">
        <time>2022-07-10T12:23:54Z</time>
      </trkpt>
      <trkpt lat="41.82051" lon="2.5044155">
        <time>2022-07-10T12:23:55Z</time>
      </trkpt>
      <trkpt lat="41.820564" lon="2.5044298">
        <time>2022-07-10T12:23:56Z</time>
      </trkpt>
      <trkpt lat="41.820618" lon="2.5044546">
        <time>2022-07-10T12:23:57Z</time>
      </trkpt>
      <trkpt lat="41.82067" lon="2.504486">
        <time>2022-07-10T12:23:58Z</time>
      </trkpt>
      <trkpt lat="41.82072" lon="2.5045285">
        <time>2022-07-10T12:23:59Z</time>
      </trkpt>
      <trkpt lat="41.820763" lon="2.5045812">
        <time>2022-07-10T12:24:00Z</time>
      </trkpt>
      <trkpt lat="41.820793" lon="2.50464">
        <time>2022-07-10T12:24:01Z</time>
      </trkpt>
      <trkpt lat="41.820816" lon="2.5047784">
        <time>2022-07-10T12:24:03Z</time>
      </trkpt>
      <trkpt lat="41.82081" lon="2.5048485">
        <time>2022-07-10T12:24:04Z</time>
      </trkpt>
      <trkpt lat="41.820793" lon="2.5049162">
        <time>2022-07-10T12:24:05Z</time>
      </trkpt>
      <trkpt lat="41.820766" lon="2.50498">
        <time>2022-07-10T12:24:06Z</time>
      </trkpt>
      <trkpt lat="41.820732" lon="2.5050404">
        <time>2022-07-10T12:24:07Z</time>
      </trkpt>
      <trkpt lat="41.820652" lon="2.5051622">
        <time>2022-07-10T12:24:09Z</time>
      </trkpt>
      <trkpt lat="41.820614" lon="2.5052218">
        <time>2022-07-10T12:24:10Z</time>
      </trkpt>
      <trkpt lat="41.820576" lon="2.5052798">
        <time>2022-07-10T12:24:11Z</time>
      </trkpt>
      <trkpt lat="41.820538" lon="2.5053332">
        <time>2022-07-10T12:24:12Z</time>
      </trkpt>
      <trkpt lat="41.8205" lon="2.5053835">
        <time>2022-07-10T12:24:13Z</time>
      </trkpt>
      <trkpt lat="41.820457" lon="2.5054314">
        <time>2022-07-10T12:24:14Z</time>
      </trkpt>
      <trkpt lat="41.820415" lon="2.5054746">
        <time>2022-07-10T12:24:15Z</time>
      </trkpt>
      <trkpt lat="41.820374" lon="2.505514">
        <time>2022-07-10T12:24:16Z</time>
      </trkpt>
      <trkpt lat="41.820297" lon="2.5055912">
        <time>2022-07-10T12:24:18Z</time>
      </trkpt>
      <trkpt lat="41.820225" lon="2.5056643">
        <time>2022-07-10T12:24:20Z</time>
      </trkpt>
      <trkpt lat="41.82015" lon="2.505733">
        <time>2022-07-10T12:24:22Z</time>
      </trkpt>
      <trkpt lat="41.820084" lon="2.5058055">
        <time>2022-07-10T12:24:24Z</time>
      </trkpt>
      <trkpt lat="41.820023" lon="2.5058818">
        <time>2022-07-10T12:24:26Z</time>
      </trkpt>
      <trkpt lat="41.81996" lon="2.5059588">
        <time>2022-07-10T12:24:28Z</time>
      </trkpt>
      <trkpt lat="41.819904" lon="2.5060468">
        <time>2022-07-10T12:24:30Z</time>
      </trkpt>
      <trkpt lat="41.81986" lon="2.506148">
        <time>2022-07-10T12:24:32Z</time>
      </trkpt>
      <trkpt lat="41.81981" lon="2.5062528">
        <time>2022-07-10T12:24:34Z</time>
      </trkpt>
      <trkpt lat="41.819763" lon="2.5063725">
        <time>2022-07-10T12:24:36Z</time>
      </trkpt>
      <trkpt lat="41.819717" lon="2.5064938">
        <time>2022-07-10T12:24:38Z</time>
      </trkpt>
      <trkpt lat="41.819695" lon="2.5065517">
        <time>2022-07-10T12:24:39Z</time>
      </trkpt>
      <trkpt lat="41.819645" lon="2.5066783">
        <time>2022-07-10T12:24:41Z</time>
      </trkpt>
      <trkpt lat="41.819622" lon="2.5067377">
        <time>2022-07-10T12:24:42Z</time>
      </trkpt>
      <trkpt lat="41.8196" lon="2.506798">
        <time>2022-07-10T12:24:43Z</time>
      </trkpt>
      <trkpt lat="41.81955" lon="2.506925">
        <time>2022-07-10T12:24:45Z</time>
      </trkpt>
      <trkpt lat="41.819523" lon="2.5069928">
        <time>2022-07-10T12:24:46Z</time>
      </trkpt>
      <trkpt lat="41.819496" lon="2.507062">
        <time>2022-07-10T12:24:47Z</time>
      </trkpt>
      <trkpt lat="41.819466" lon="2.507134">
        <time>2022-07-10T12:24:48Z</time>
      </trkpt>
      <trkpt lat="41.819443" lon="2.507204">
        <time>2022-07-10T12:24:49Z</time>
      </trkpt>
      <trkpt lat="41.819416" lon="2.5072787">
        <time>2022-07-10T12:24:50Z</time>
      </trkpt>
      <trkpt lat="41.819386" lon="2.5073538">
        <time>2022-07-10T12:24:51Z</time>
      </trkpt>
      <trkpt lat="41.81936" lon="2.5074317">
        <time>2022-07-10T12:24:52Z</time>
      </trkpt>
      <trkpt lat="41.81933" lon="2.5075107">
        <time>2022-07-10T12:24:53Z</time>
      </trkpt>
      <trkpt lat="41.819298" lon="2.5075917">
        <time>2022-07-10T12:24:54Z</time>
      </trkpt>
      <trkpt lat="41.81927" lon="2.507667">
        <time>2022-07-10T12:24:55Z</time>
      </trkpt>
      <trkpt lat="41.81924" lon="2.5077481">
        <time>2022-07-10T12:24:56Z</time>
      </trkpt>
      <trkpt lat="41.81921" lon="2.5078294">
        <time>2022-07-10T12:24:57Z</time>
      </trkpt>
      <trkpt lat="41.819183" lon="2.5079098">
        <time>2022-07-10T12:24:58Z</time>
      </trkpt>
      <trkpt lat="41.819157" lon="2.5079892">
        <time>2022-07-10T12:24:59Z</time>
      </trkpt>
      <trkpt lat="41.81913" lon="2.5080667">
        <time>2022-07-10T12:25:00Z</time>
      </trkpt>
      <trkpt lat="41.819107" lon="2.5081441">
        <time>2022-07-10T12:25:01Z</time>
      </trkpt>
      <trkpt lat="41.81908" lon="2.508222">
        <time>2022-07-10T12:25:02Z</time>
      </trkpt>
      <trkpt lat="41.819057" lon="2.508301">
        <time>2022-07-10T12:25:03Z</time>
      </trkpt>
      <trkpt lat="41.819035" lon="2.5083797">
        <time>2022-07-10T12:25:04Z</time>
      </trkpt>
      <trkpt lat="41.81901" lon="2.508459">
        <time>2022-07-10T12:25:05Z</time>
      </trkpt>
      <trkpt lat="41.81899" lon="2.508534">
        <time>2022-07-10T12:25:06Z</time>
      </trkpt>
      <trkpt lat="41.81897" lon="2.5086107">
        <time>2022-07-10T12:25:07Z</time>
      </trkpt>
      <trkpt lat="41.81895" lon="2.5086923">
        <time>2022-07-10T12:25:08Z</time>
      </trkpt>
      <trkpt lat="41.818928" lon="2.5087726">
        <time>2022-07-10T12:25:09Z</time>
      </trkpt>
      <trkpt lat="41.81891" lon="2.508853">
        <time>2022-07-10T12:25:10Z</time>
      </trkpt>
      <trkpt lat="41.818886" lon="2.5089273">
        <time>2022-07-10T12:25:11Z</time>
      </trkpt>
      <trkpt lat="41.818863" lon="2.509009">
        <time>2022-07-10T12:25:12Z</time>
      </trkpt>
      <trkpt lat="41.81884" lon="2.509091">
        <time>2022-07-10T12:25:13Z</time>
      </trkpt>
      <trkpt lat="41.818817" lon="2.509173">
        <time>2022-07-10T12:25:14Z</time>
      </trkpt>
      <trkpt lat="41.818775" lon="2.509331">
        <time>2022-07-10T12:25:16Z</time>
      </trkpt>
      <trkpt lat="41.818752" lon="2.5094187">
        <time>2022-07-10T12:25:17Z</time>
      </trkpt>
      <trkpt lat="41.818733" lon="2.509504">
        <time>2022-07-10T12:25:18Z</time>
      </trkpt>
      <trkpt lat="41.81868" lon="2.5096514">
        <time>2022-07-10T12:25:20Z</time>
      </trkpt>
      <trkpt lat="41.818638" lon="2.509711">
        <time>2022-07-10T12:25:21Z</time>
      </trkpt>
      <trkpt lat="41.81859" lon="2.5097563">
        <time>2022-07-10T12:25:22Z</time>
      </trkpt>
      <trkpt lat="41.818535" lon="2.509782">
        <time>2022-07-10T12:25:23Z</time>
      </trkpt>
      <trkpt lat="41.818474" lon="2.5097926">
        <time>2022-07-10T12:25:24Z</time>
      </trkpt>
      <trkpt lat="41.818417" lon="2.5097942">
        <time>2022-07-10T12:25:25Z</time>
      </trkpt>
      <trkpt lat="41.818356" lon="2.509795">
        <time>2022-07-10T12:25:26Z</time>
      </trkpt>
      <trkpt lat="41.818287" lon="2.5098007">
        <time>2022-07-10T12:25:27Z</time>
      </trkpt>
      <trkpt lat="41.818222" lon="2.5098183">
        <time>2022-07-10T12:25:28Z</time>
      </trkpt>
      <trkpt lat="41.818157" lon="2.5098486">
        <time>2022-07-10T12:25:29Z</time>
      </trkpt>
      <trkpt lat="41.818096" lon="2.509889">
        <time>2022-07-10T12:25:30Z</time>
      </trkpt>
      <trkpt lat="41.818035" lon="2.5099392">
        <time>2022-07-10T12:25:31Z</time>
      </trkpt>
      <trkpt lat="41.817974" lon="2.509999">
        <time>2022-07-10T12:25:32Z</time>
      </trkpt>
      <trkpt lat="41.817913" lon="2.5100644">
        <time>2022-07-10T12:25:33Z</time>
      </trkpt>
      <trkpt lat="41.817856" lon="2.5101326">
        <time>2022-07-10T12:25:34Z</time>
      </trkpt>
      <trkpt lat="41.817795" lon="2.5102036">
        <time>2022-07-10T12:25:35Z</time>
      </trkpt>
      <trkpt lat="41.817734" lon="2.5102766">
        <time>2022-07-10T12:25:36Z</time>
      </trkpt>
      <trkpt lat="41.81767" lon="2.5103476">
        <time>2022-07-10T12:25:37Z</time>
      </trkpt>
      <trkpt lat="41.81761" lon="2.510412">
        <time>2022-07-10T12:25:38Z</time>
      </trkpt>
      <trkpt lat="41.817547" lon="2.51048">
        <time>2022-07-10T12:25:39Z</time>
      </trkpt>
      <trkpt lat="41.817486" lon="2.510546">
        <time>2022-07-10T12:25:40Z</time>
      </trkpt>
      <trkpt lat="41.817425" lon="2.5106099">
        <time>2022-07-10T12:25:41Z</time>
      </trkpt>
      <trkpt lat="41.81736" lon="2.5106723">
        <time>2022-07-10T12:25:42Z</time>
      </trkpt>
      <trkpt lat="41.817303" lon="2.5107293">
        <time>2022-07-10T12:25:43Z</time>
      </trkpt>
      <trkpt lat="41.817245" lon="2.5107872">
        <time>2022-07-10T12:25:44Z</time>
      </trkpt>
      <trkpt lat="41.817184" lon="2.5108418">
        <time>2022-07-10T12:25:45Z</time>
      </trkpt>
      <trkpt lat="41.81713" lon="2.510896">
        <time>2022-07-10T12:25:46Z</time>
      </trkpt>
      <trkpt lat="41.817078" lon="2.510949">
        <time>2022-07-10T12:25:47Z</time>
      </trkpt>
      <trkpt lat="41.817028" lon="2.510999">
        <time>2022-07-10T12:25:48Z</time>
      </trkpt>
      <trkpt lat="41.816982" lon="2.5110455">
        <time>2022-07-10T12:25:49Z</time>
      </trkpt>
      <trkpt lat="41.816936" lon="2.5110881">
        <time>2022-07-10T12:25:50Z</time>
      </trkpt>
      <trkpt lat="41.81689" lon="2.5111306">
        <time>2022-07-10T12:25:51Z</time>
      </trkpt>
      <trkpt lat="41.81685" lon="2.5111694">
        <time>2022-07-10T12:25:52Z</time>
      </trkpt>
      <trkpt lat="41.816814" lon="2.5112045">
        <time>2022-07-10T12:25:53Z</time>
      </trkpt>
      <trkpt lat="41.816742" lon="2.511279">
        <time>2022-07-10T12:25:55Z</time>
      </trkpt>
      <trkpt lat="41.81667" lon="2.5113628">
        <time>2022-07-10T12:25:57Z</time>
      </trkpt>
      <trkpt lat="41.816635" lon="2.5114">
        <time>2022-07-10T12:25:58Z</time>
      </trkpt>
      <trkpt lat="41.81657" lon="2.5114748">
        <time>2022-07-10T12:26:00Z</time>
      </trkpt>
      <trkpt lat="41.81651" lon="2.5115433">
        <time>2022-07-10T12:26:02Z</time>
      </trkpt>
      <trkpt lat="41.816452" lon="2.5116055">
        <time>2022-07-10T12:26:04Z</time>
      </trkpt>
      <trkpt lat="41.8164" lon="2.5116622">
        <time>2022-07-10T12:26:06Z</time>
      </trkpt>
      <trkpt lat="41.81634" lon="2.5117083">
        <time>2022-07-10T12:26:08Z</time>
      </trkpt>
      <trkpt lat="41.816288" lon="2.5117471">
        <time>2022-07-10T12:26:10Z</time>
      </trkpt>
      <trkpt lat="41.816235" lon="2.511787">
        <time>2022-07-10T12:26:12Z</time>
      </trkpt>
      <trkpt lat="41.816185" lon="2.5118346">
        <time>2022-07-10T12:26:14Z</time>
      </trkpt>
      <trkpt lat="41.816135" lon="2.5118892">
        <time>2022-07-10T12:26:16Z</time>
      </trkpt>
      <trkpt lat="41.816086" lon="2.5119462">
        <time>2022-07-10T12:26:18Z</time>
      </trkpt>
      <trkpt lat="41.81604" lon="2.5119958">
        <time>2022-07-10T12:26:20Z</time>
      </trkpt>
      <trkpt lat="41.815994" lon="2.5120487">
        <time>2022-07-10T12:26:22Z</time>
      </trkpt>
      <trkpt lat="41.815945" lon="2.5121047">
        <time>2022-07-10T12:26:24Z</time>
      </trkpt>
      <trkpt lat="41.81589" lon="2.512158">
        <time>2022-07-10T12:26:26Z</time>
      </trkpt>
      <trkpt lat="41.81584" lon="2.5122068">
        <time>2022-07-10T12:26:28Z</time>
      </trkpt>
      <trkpt lat="41.81579" lon="2.5122542">
        <time>2022-07-10T12:26:30Z</time>
      </trkpt>
      <trkpt lat="41.815742" lon="2.5122979">
        <time>2022-07-10T12:26:32Z</time>
      </trkpt>
      <trkpt lat="41.8157" lon="2.5123332">
        <time>2022-07-10T12:26:34Z</time>
      </trkpt>
      <trkpt lat="41.815647" lon="2.5123794">
        <time>2022-07-10T12:26:37Z</time>
      </trkpt>
      <trkpt lat="41.815575" lon="2.512463">
        <time>2022-07-10T12:27:50Z</time>
      </trkpt>
      <trkpt lat="41.815536" lon="2.512525">
        <time>2022-07-10T12:27:54Z</time>
      </trkpt>
      <trkpt lat="41.81554" lon="2.5126274">
        <time>2022-07-10T12:27:58Z</time>
      </trkpt>
      <trkpt lat="41.815548" lon="2.5127084">
        <time>2022-07-10T12:28:00Z</time>
      </trkpt>
      <trkpt lat="41.815548" lon="2.5127864">
        <time>2022-07-10T12:28:02Z</time>
      </trkpt>
      <trkpt lat="41.815544" lon="2.5128584">
        <time>2022-07-10T12:28:04Z</time>
      </trkpt>
      <trkpt lat="41.81554" lon="2.51293">
        <time>2022-07-10T12:28:06Z</time>
      </trkpt>
      <trkpt lat="41.815525" lon="2.5130024">
        <time>2022-07-10T12:28:08Z</time>
      </trkpt>
      <trkpt lat="41.815506" lon="2.5130816">
        <time>2022-07-10T12:28:10Z</time>
      </trkpt>
      <trkpt lat="41.815483" lon="2.5131712">
        <time>2022-07-10T12:28:12Z</time>
      </trkpt>
      <trkpt lat="41.815464" lon="2.5132763">
        <time>2022-07-10T12:28:14Z</time>
      </trkpt>
      <trkpt lat="41.815437" lon="2.513395">
        <time>2022-07-10T12:28:16Z</time>
      </trkpt>
      <trkpt lat="41.81541" lon="2.5135267">
        <time>2022-07-10T12:28:18Z</time>
      </trkpt>
      <trkpt lat="41.815388" lon="2.5136619">
        <time>2022-07-10T12:28:20Z</time>
      </trkpt>
      <trkpt lat="41.815376" lon="2.513726">
        <time>2022-07-10T12:28:21Z</time>
      </trkpt>
      <trkpt lat="41.81536" lon="2.5138414">
        <time>2022-07-10T12:28:23Z</time>
      </trkpt>
      <trkpt lat="41.815342" lon="2.5139394">
        <time>2022-07-10T12:28:25Z</time>
      </trkpt>
      <trkpt lat="41.815315" lon="2.5140247">
        <time>2022-07-10T12:28:27Z</time>
      </trkpt>
      <trkpt lat="41.81529" lon="2.5140984">
        <time>2022-07-10T12:28:29Z</time>
      </trkpt>
      <trkpt lat="41.81526" lon="2.5141494">
        <time>2022-07-10T12:28:31Z</time>
      </trkpt>
      <trkpt lat="41.815235" lon="2.5142062">
        <time>2022-07-10T12:28:34Z</time>
      </trkpt>
      <trkpt lat="41.815216" lon="2.5142517">
        <time>2022-07-10T12:28:40Z</time>
      </trkpt>
      <trkpt lat="41.815292" lon="2.5141811">
        <time>2022-07-10T12:29:22Z</time>
      </trkpt>
      <trkpt lat="41.81543" lon="2.5141788">
        <time>2022-07-10T12:29:35Z</time>
      </trkpt>
      <trkpt lat="41.815468" lon="2.514187">
        <time>2022-07-10T12:29:38Z</time>
      </trkpt>
      <trkpt lat="41.815495" lon="2.5142274">
        <time>2022-07-10T12:30:45Z</time>
      </trkpt>
      <trkpt lat="41.815426" lon="2.5142117">
        <time>2022-07-10T12:30:50Z</time>
      </trkpt>
      <trkpt lat="41.81539" lon="2.5142083">
        <time>2022-07-10T12:30:54Z</time>
      </trkpt>
      <trkpt lat="41.815376" lon="2.5142071">
        <time>2022-07-10T12:31:07Z</time>
      </trkpt>
      <trkpt lat="41.815456" lon="2.514215">
        <time>2022-07-10T12:31:14Z</time>
      </trkpt>
      <trkpt lat="41.815514" lon="2.5142257">
        <time>2022-07-10T12:31:18Z</time>
      </trkpt>
      <trkpt lat="41.815575" lon="2.5142374">
        <time>2022-07-10T12:31:20Z</time>
      </trkpt>
      <trkpt lat="41.81569" lon="2.5142493">
        <time>2022-07-10T12:31:30Z</time>
      </trkpt>
      <trkpt lat="41.815685" lon="2.514234">
        <time>2022-07-10T12:31:55Z</time>
      </trkpt>
      <trkpt lat="41.815475" lon="2.5142071">
        <time>2022-07-10T12:32:24Z</time>
      </trkpt>
      <trkpt lat="41.81544" lon="2.5142648">
        <time>2022-07-10T12:32:26Z</time>
      </trkpt>
      <trkpt lat="41.815407" lon="2.514334">
        <time>2022-07-10T12:32:28Z</time>
      </trkpt>
      <trkpt lat="41.815372" lon="2.5144172">
        <time>2022-07-10T12:32:30Z</time>
      </trkpt>
      <trkpt lat="41.81532" lon="2.5145617">
        <time>2022-07-10T12:32:33Z</time>
      </trkpt>
      <trkpt lat="41.815273" lon="2.5146685">
        <time>2022-07-10T12:32:35Z</time>
      </trkpt>
      <trkpt lat="41.81525" lon="2.5147233">
        <time>2022-07-10T12:32:36Z</time>
      </trkpt>
      <trkpt lat="41.81519" lon="2.5148401">
        <time>2022-07-10T12:32:38Z</time>
      </trkpt>
      <trkpt lat="41.81516" lon="2.5149071">
        <time>2022-07-10T12:32:39Z</time>
      </trkpt>
      <trkpt lat="41.815125" lon="2.514975">
        <time>2022-07-10T12:32:40Z</time>
      </trkpt>
      <trkpt lat="41.815094" lon="2.5150404">
        <time>2022-07-10T12:32:41Z</time>
      </trkpt>
      <trkpt lat="41.815063" lon="2.51511">
        <time>2022-07-10T12:32:42Z</time>
      </trkpt>
      <trkpt lat="41.815037" lon="2.5151823">
        <time>2022-07-10T12:32:43Z</time>
      </trkpt>
      <trkpt lat="41.815014" lon="2.515261">
        <time>2022-07-10T12:32:44Z</time>
      </trkpt>
      <trkpt lat="41.814987" lon="2.5153403">
        <time>2022-07-10T12:32:45Z</time>
      </trkpt>
      <trkpt lat="41.814964" lon="2.5154207">
        <time>2022-07-10T12:32:46Z</time>
      </trkpt>
      <trkpt lat="41.81494" lon="2.5155025">
        <time>2022-07-10T12:32:47Z</time>
      </trkpt>
      <trkpt lat="41.814915" lon="2.515581">
        <time>2022-07-10T12:32:48Z</time>
      </trkpt>
      <trkpt lat="41.81489" lon="2.515658">
        <time>2022-07-10T12:32:49Z</time>
      </trkpt>
      <trkpt lat="41.81487" lon="2.5157323">
        <time>2022-07-10T12:32:50Z</time>
      </trkpt>
      <trkpt lat="41.81485" lon="2.5158033">
        <time>2022-07-10T12:32:51Z</time>
      </trkpt>
      <trkpt lat="41.81483" lon="2.5158703">
        <time>2022-07-10T12:32:52Z</time>
      </trkpt>
      <trkpt lat="41.81481" lon="2.5159366">
        <time>2022-07-10T12:32:53Z</time>
      </trkpt>
      <trkpt lat="41.814796" lon="2.5160012">
        <time>2022-07-10T12:32:54Z</time>
      </trkpt>
      <trkpt lat="41.81478" lon="2.5160656">
        <time>2022-07-10T12:32:55Z</time>
      </trkpt>
      <trkpt lat="41.814754" lon="2.5161963">
        <time>2022-07-10T12:32:57Z</time>
      </trkpt>
      <trkpt lat="41.81474" lon="2.5162654">
        <time>2022-07-10T12:32:58Z</time>
      </trkpt>
      <trkpt lat="41.814728" lon="2.5163357">
        <time>2022-07-10T12:32:59Z</time>
      </trkpt>
      <trkpt lat="41.81472" lon="2.516406">
        <time>2022-07-10T12:33:00Z</time>
      </trkpt>
      <trkpt lat="41.814705" lon="2.5164723">
        <time>2022-07-10T12:33:01Z</time>
      </trkpt>
      <trkpt lat="41.814682" lon="2.516598">
        <time>2022-07-10T12:33:03Z</time>
      </trkpt>
      <trkpt lat="41.814655" lon="2.5167227">
        <time>2022-07-10T12:33:05Z</time>
      </trkpt>
      <trkpt lat="41.814648" lon="2.516787">
        <time>2022-07-10T12:33:06Z</time>
      </trkpt>
      <trkpt lat="41.81463" lon="2.516926">
        <time>2022-07-10T12:33:08Z</time>
      </trkpt>
      <trkpt lat="41.814617" lon="2.5170023">
        <time>2022-07-10T12:33:09Z</time>
      </trkpt>
      <trkpt lat="41.81461" lon="2.5170817">
        <time>2022-07-10T12:33:10Z</time>
      </trkpt>
      <trkpt lat="41.8146" lon="2.5171616">
        <time>2022-07-10T12:33:11Z</time>
      </trkpt>
      <trkpt lat="41.814594" lon="2.5172405">
        <time>2022-07-10T12:33:12Z</time>
      </trkpt>
      <trkpt lat="41.814587" lon="2.5173173">
        <time>2022-07-10T12:33:13Z</time>
      </trkpt>
      <trkpt lat="41.814583" lon="2.5173924">
        <time>2022-07-10T12:33:14Z</time>
      </trkpt>
      <trkpt lat="41.814575" lon="2.5174656">
        <time>2022-07-10T12:33:15Z</time>
      </trkpt>
      <trkpt lat="41.81457" lon="2.517536">
        <time>2022-07-10T12:33:16Z</time>
      </trkpt>
      <trkpt lat="41.814568" lon="2.5176032">
        <time>2022-07-10T12:33:17Z</time>
      </trkpt>
      <trkpt lat="41.81456" lon="2.517663">
        <time>2022-07-10T12:33:18Z</time>
      </trkpt>
      <trkpt lat="41.814545" lon="2.5177422">
        <time>2022-07-10T12:33:20Z</time>
      </trkpt>
      <trkpt lat="41.814526" lon="2.517793">
        <time>2022-07-10T12:33:24Z</time>
      </trkpt>
      <trkpt lat="41.814583" lon="2.517578">
        <time>2022-07-10T12:33:43Z</time>
      </trkpt>
      <trkpt lat="41.81459" lon="2.5175056">
        <time>2022-07-10T12:33:46Z</time>
      </trkpt>
      <trkpt lat="41.8146" lon="2.5174398">
        <time>2022-07-10T12:33:49Z</time>
      </trkpt>
      <trkpt lat="41.81461" lon="2.5173583">
        <time>2022-07-10T12:33:53Z</time>
      </trkpt>
      <trkpt lat="41.81461" lon="2.5172682">
        <time>2022-07-10T12:33:57Z</time>
      </trkpt>
      <trkpt lat="41.8146" lon="2.5171893">
        <time>2022-07-10T12:34:00Z</time>
      </trkpt>
      <trkpt lat="41.814587" lon="2.5171163">
        <time>2022-07-10T12:34:03Z</time>
      </trkpt>
      <trkpt lat="41.81459" lon="2.5170329">
        <time>2022-07-10T12:34:07Z</time>
      </trkpt>
      <trkpt lat="41.814598" lon="2.51696">
        <time>2022-07-10T12:34:10Z</time>
      </trkpt>
      <trkpt lat="41.8146" lon="2.5168867">
        <time>2022-07-10T12:34:13Z</time>
      </trkpt>
      <trkpt lat="41.81461" lon="2.516823">
        <time>2022-07-10T12:34:16Z</time>
      </trkpt>
      <trkpt lat="41.814632" lon="2.5167615">
        <time>2022-07-10T12:34:20Z</time>
      </trkpt>
      <trkpt lat="41.814655" lon="2.5166976">
        <time>2022-07-10T12:34:25Z</time>
      </trkpt>
      <trkpt lat="41.814682" lon="2.516615">
        <time>2022-07-10T12:34:29Z</time>
      </trkpt>
      <trkpt lat="41.814705" lon="2.5165293">
        <time>2022-07-10T12:34:32Z</time>
      </trkpt>
      <trkpt lat="41.814724" lon="2.5164566">
        <time>2022-07-10T12:34:34Z</time>
      </trkpt>
      <trkpt lat="41.814743" lon="2.5163743">
        <time>2022-07-10T12:34:36Z</time>
      </trkpt>
      <trkpt lat="41.814762" lon="2.5162888">
        <time>2022-07-10T12:34:38Z</time>
      </trkpt>
      <trkpt lat="41.81479" lon="2.5162077">
        <time>2022-07-10T12:34:40Z</time>
      </trkpt>
      <trkpt lat="41.81481" lon="2.516125">
        <time>2022-07-10T12:34:42Z</time>
      </trkpt>
      <trkpt lat="41.81484" lon="2.516039">
        <time>2022-07-10T12:34:44Z</time>
      </trkpt>
      <trkpt lat="41.814873" lon="2.515956">
        <time>2022-07-10T12:34:46Z</time>
      </trkpt>
      <trkpt lat="41.814903" lon="2.5158668">
        <time>2022-07-10T12:34:48Z</time>
      </trkpt>
      <trkpt lat="41.81493" lon="2.51578">
        <time>2022-07-10T12:34:50Z</time>
      </trkpt>
      <trkpt lat="41.814953" lon="2.515683">
        <time>2022-07-10T12:34:52Z</time>
      </trkpt>
      <trkpt lat="41.814976" lon="2.515593">
        <time>2022-07-10T12:34:54Z</time>
      </trkpt>
      <trkpt lat="41.814995" lon="2.515498">
        <time>2022-07-10T12:34:56Z</time>
      </trkpt>
      <trkpt lat="41.815014" lon="2.5154042">
        <time>2022-07-10T12:34:58Z</time>
      </trkpt>
      <trkpt lat="41.815033" lon="2.5153136">
        <time>2022-07-10T12:35:00Z</time>
      </trkpt>
      <trkpt lat="41.815056" lon="2.5152214">
        <time>2022-07-10T12:35:02Z</time>
      </trkpt>
      <trkpt lat="41.815075" lon="2.515127">
        <time>2022-07-10T12:35:04Z</time>
      </trkpt>
      <trkpt lat="41.815098" lon="2.5150394">
        <time>2022-07-10T12:35:06Z</time>
      </trkpt>
      <trkpt lat="41.815117" lon="2.5149436">
        <time>2022-07-10T12:35:08Z</time>
      </trkpt>
      <trkpt lat="41.815136" lon="2.514854">
        <time>2022-07-10T12:35:10Z</time>
      </trkpt>
      <trkpt lat="41.815155" lon="2.5147634">
        <time>2022-07-10T12:35:12Z</time>
      </trkpt>
      <trkpt lat="41.81518" lon="2.5146713">
        <time>2022-07-10T12:35:14Z</time>
      </trkpt>
      <trkpt lat="41.815205" lon="2.5145826">
        <time>2022-07-10T12:35:16Z</time>
      </trkpt>
      <trkpt lat="41.815224" lon="2.514493">
        <time>2022-07-10T12:35:18Z</time>
      </trkpt>
      <trkpt lat="41.815243" lon="2.5144093">
        <time>2022-07-10T12:35:20Z</time>
      </trkpt>
      <trkpt lat="41.815258" lon="2.5143387">
        <time>2022-07-10T12:35:22Z</time>
      </trkpt>
      <trkpt lat="41.815273" lon="2.5142777">
        <time>2022-07-10T12:35:24Z</time>
      </trkpt>
      <trkpt lat="41.815266" lon="2.51421">
        <time>2022-07-10T12:35:27Z</time>
      </trkpt>
      <trkpt lat="41.815247" lon="2.5141597">
        <time>2022-07-10T12:35:30Z</time>
      </trkpt>
      <trkpt lat="41.815292" lon="2.5140333">
        <time>2022-07-10T12:35:53Z</time>
      </trkpt>
      <trkpt lat="41.815285" lon="2.5141544">
        <time>2022-07-10T12:35:56Z</time>
      </trkpt>
      <trkpt lat="41.815266" lon="2.5142572">
        <time>2022-07-10T12:35:58Z</time>
      </trkpt>
      <trkpt lat="41.81524" lon="2.5143757">
        <time>2022-07-10T12:36:00Z</time>
      </trkpt>
      <trkpt lat="41.815212" lon="2.5145087">
        <time>2022-07-10T12:36:02Z</time>
      </trkpt>
      <trkpt lat="41.815193" lon="2.5145788">
        <time>2022-07-10T12:36:03Z</time>
      </trkpt>
      <trkpt lat="41.815178" lon="2.5146468">
        <time>2022-07-10T12:36:04Z</time>
      </trkpt>
      <trkpt lat="41.81516" lon="2.5147233">
        <time>2022-07-10T12:36:05Z</time>
      </trkpt>
      <trkpt lat="41.81514" lon="2.514805">
        <time>2022-07-10T12:36:06Z</time>
      </trkpt>
      <trkpt lat="41.81512" lon="2.5148897">
        <time>2022-07-10T12:36:07Z</time>
      </trkpt>
      <trkpt lat="41.815098" lon="2.5149763">
        <time>2022-07-10T12:36:08Z</time>
      </trkpt>
      <trkpt lat="41.815075" lon="2.5150623">
        <time>2022-07-10T12:36:09Z</time>
      </trkpt>
      <trkpt lat="41.815056" lon="2.515144">
        <time>2022-07-10T12:36:10Z</time>
      </trkpt>
      <trkpt lat="41.81503" lon="2.515232">
        <time>2022-07-10T12:36:11Z</time>
      </trkpt>
      <trkpt lat="41.815006" lon="2.5153196">
        <time>2022-07-10T12:36:12Z</time>
      </trkpt>
      <trkpt lat="41.814983" lon="2.515407">
        <time>2022-07-10T12:36:13Z</time>
      </trkpt>
      <trkpt lat="41.81496" lon="2.5154946">
        <time>2022-07-10T12:36:14Z</time>
      </trkpt>
      <trkpt lat="41.814938" lon="2.515584">
        <time>2022-07-10T12:36:15Z</time>
      </trkpt>
      <trkpt lat="41.814915" lon="2.5156744">
        <time>2022-07-10T12:36:16Z</time>
      </trkpt>
      <trkpt lat="41.81489" lon="2.5157633">
        <time>2022-07-10T12:36:17Z</time>
      </trkpt>
      <trkpt lat="41.81486" lon="2.515857">
        <time>2022-07-10T12:36:18Z</time>
      </trkpt>
      <trkpt lat="41.814835" lon="2.515949">
        <time>2022-07-10T12:36:19Z</time>
      </trkpt>
      <trkpt lat="41.814808" lon="2.5160334">
        <time>2022-07-10T12:36:20Z</time>
      </trkpt>
      <trkpt lat="41.814785" lon="2.5161192">
        <time>2022-07-10T12:36:21Z</time>
      </trkpt>
      <trkpt lat="41.814762" lon="2.5162122">
        <time>2022-07-10T12:36:22Z</time>
      </trkpt>
      <trkpt lat="41.814743" lon="2.516297">
        <time>2022-07-10T12:36:23Z</time>
      </trkpt>
      <trkpt lat="41.814724" lon="2.5163803">
        <time>2022-07-10T12:36:24Z</time>
      </trkpt>
      <trkpt lat="41.814705" lon="2.516462">
        <time>2022-07-10T12:36:25Z</time>
      </trkpt>
      <trkpt lat="41.814686" lon="2.5165436">
        <time>2022-07-10T12:36:26Z</time>
      </trkpt>
      <trkpt lat="41.81467" lon="2.5166247">
        <time>2022-07-10T12:36:27Z</time>
      </trkpt>
      <trkpt lat="41.814655" lon="2.5167077">
        <time>2022-07-10T12:36:28Z</time>
      </trkpt>
      <trkpt lat="41.814644" lon="2.5167933">
        <time>2022-07-10T12:36:29Z</time>
      </trkpt>
      <trkpt lat="41.814632" lon="2.5168817">
        <time>2022-07-10T12:36:30Z</time>
      </trkpt>
      <trkpt lat="41.81462" lon="2.5169742">
        <time>2022-07-10T12:36:31Z</time>
      </trkpt>
      <trkpt lat="41.81461" lon="2.517071">
        <time>2022-07-10T12:36:32Z</time>
      </trkpt>
      <trkpt lat="41.814598" lon="2.5171702">
        <time>2022-07-10T12:36:33Z</time>
      </trkpt>
      <trkpt lat="41.81459" lon="2.5172706">
        <time>2022-07-10T12:36:34Z</time>
      </trkpt>
      <trkpt lat="41.81458" lon="2.51737">
        <time>2022-07-10T12:36:35Z</time>
      </trkpt>
      <trkpt lat="41.81457" lon="2.5174682">
        <time>2022-07-10T12:36:36Z</time>
      </trkpt>
      <trkpt lat="41.814564" lon="2.5175636">
        <time>2022-07-10T12:36:37Z</time>
      </trkpt>
      <trkpt lat="41.814556" lon="2.517654">
        <time>2022-07-10T12:36:38Z</time>
      </trkpt>
      <trkpt lat="41.81455" lon="2.5177367">
        <time>2022-07-10T12:36:39Z</time>
      </trkpt>
      <trkpt lat="41.81454" lon="2.5178096">
        <time>2022-07-10T12:36:40Z</time>
      </trkpt>
      <trkpt lat="41.814533" lon="2.517885">
        <time>2022-07-10T12:36:41Z</time>
      </trkpt>
      <trkpt lat="41.814526" lon="2.5179548">
        <time>2022-07-10T12:36:42Z</time>
      </trkpt>
      <trkpt lat="41.814518" lon="2.5180225">
        <time>2022-07-10T12:36:43Z</time>
      </trkpt>
      <trkpt lat="41.814514" lon="2.518086">
        <time>2022-07-10T12:36:44Z</time>
      </trkpt>
      <trkpt lat="41.814507" lon="2.5181792">
        <time>2022-07-10T12:36:46Z</time>
      </trkpt>
      <trkpt lat="41.8145" lon="2.5182428">
        <time>2022-07-10T12:36:48Z</time>
      </trkpt>
      <trkpt lat="41.814476" lon="2.5183237">
        <time>2022-07-10T12:36:51Z</time>
      </trkpt>
      <trkpt lat="41.814457" lon="2.5183992">
        <time>2022-07-10T12:36:54Z</time>
      </trkpt>
      <trkpt lat="41.814434" lon="2.518451">
        <time>2022-07-10T12:36:57Z</time>
      </trkpt>
      <trkpt lat="41.814396" lon="2.5184278">
        <time>2022-07-10T12:37:04Z</time>
      </trkpt>
      <trkpt lat="41.814384" lon="2.5184402">
        <time>2022-07-10T12:37:38Z</time>
      </trkpt>
      <trkpt lat="41.814316" lon="2.5184042">
        <time>2022-07-10T12:37:42Z</time>
      </trkpt>
      <trkpt lat="41.81429" lon="2.5183852">
        <time>2022-07-10T12:37:45Z</time>
      </trkpt>
      <trkpt lat="41.814087" lon="2.5179775">
        <time>2022-07-10T12:39:21Z</time>
      </trkpt>
      <trkpt lat="41.813984" lon="2.5180125">
        <time>2022-07-10T12:40:05Z</time>
      </trkpt>
      <trkpt lat="41.814068" lon="2.518071">
        <time>2022-07-10T12:40:19Z</time>
      </trkpt>
      <trkpt lat="41.8141" lon="2.518281">
        <time>2022-07-10T12:40:33Z</time>
      </trkpt>
      <trkpt lat="41.81411" lon="2.5183098">
        <time>2022-07-10T12:40:37Z</time>
      </trkpt>
      <trkpt lat="41.81412" lon="2.518169">
        <time>2022-07-10T12:45:50Z</time>
      </trkpt>
      <trkpt lat="41.814083" lon="2.5183005">
        <time>2022-07-10T13:30:49Z</time>
      </trkpt>
      <trkpt lat="41.814438" lon="2.5183525">
        <time>2022-07-10T13:48:11Z</time>
      </trkpt>
      <trkpt lat="41.814266" lon="2.5184536">
        <time>2022-07-10T13:49:45Z</time>
      </trkpt>
      <trkpt lat="41.81423" lon="2.5185158">
        <time>2022-07-10T13:49:47Z</time>
      </trkpt>
      <trkpt lat="41.8142" lon="2.5185905">
        <time>2022-07-10T13:49:49Z</time>
      </trkpt>
      <trkpt lat="41.814163" lon="2.5186765">
        <time>2022-07-10T13:49:51Z</time>
      </trkpt>
      <trkpt lat="41.814125" lon="2.518767">
        <time>2022-07-10T13:49:53Z</time>
      </trkpt>
      <trkpt lat="41.814087" lon="2.5188606">
        <time>2022-07-10T13:49:55Z</time>
      </trkpt>
      <trkpt lat="41.814045" lon="2.5189576">
        <time>2022-07-10T13:49:57Z</time>
      </trkpt>
      <trkpt lat="41.814" lon="2.5190578">
        <time>2022-07-10T13:49:59Z</time>
      </trkpt>
      <trkpt lat="41.813957" lon="2.5191622">
        <time>2022-07-10T13:50:01Z</time>
      </trkpt>
      <trkpt lat="41.81392" lon="2.5192683">
        <time>2022-07-10T13:50:03Z</time>
      </trkpt>
      <trkpt lat="41.813877" lon="2.5193722">
        <time>2022-07-10T13:50:05Z</time>
      </trkpt>
      <trkpt lat="41.813847" lon="2.5194895">
        <time>2022-07-10T13:50:07Z</time>
      </trkpt>
      <trkpt lat="41.81382" lon="2.5196052">
        <time>2022-07-10T13:50:09Z</time>
      </trkpt>
      <trkpt lat="41.813793" lon="2.5197241">
        <time>2022-07-10T13:50:11Z</time>
      </trkpt>
      <trkpt lat="41.81377" lon="2.519847">
        <time>2022-07-10T13:50:13Z</time>
      </trkpt>
      <trkpt lat="41.813763" lon="2.519909">
        <time>2022-07-10T13:50:14Z</time>
      </trkpt>
      <trkpt lat="41.813732" lon="2.520032">
        <time>2022-07-10T13:50:16Z</time>
      </trkpt>
      <trkpt lat="41.813713" lon="2.5200932">
        <time>2022-07-10T13:50:17Z</time>
      </trkpt>
      <trkpt lat="41.813686" lon="2.5202205">
        <time>2022-07-10T13:50:19Z</time>
      </trkpt>
      <trkpt lat="41.813663" lon="2.5203586">
        <time>2022-07-10T13:50:21Z</time>
      </trkpt>
      <trkpt lat="41.813652" lon="2.5204291">
        <time>2022-07-10T13:50:22Z</time>
      </trkpt>
      <trkpt lat="41.81364" lon="2.5204985">
        <time>2022-07-10T13:50:23Z</time>
      </trkpt>
      <trkpt lat="41.813625" lon="2.5205657">
        <time>2022-07-10T13:50:24Z</time>
      </trkpt>
      <trkpt lat="41.81361" lon="2.5206318">
        <time>2022-07-10T13:50:25Z</time>
      </trkpt>
      <trkpt lat="41.813583" lon="2.5207658">
        <time>2022-07-10T13:50:27Z</time>
      </trkpt>
      <trkpt lat="41.81357" lon="2.5208344">
        <time>2022-07-10T13:50:28Z</time>
      </trkpt>
      <trkpt lat="41.813553" lon="2.5209038">
        <time>2022-07-10T13:50:29Z</time>
      </trkpt>
      <trkpt lat="41.813538" lon="2.5209727">
        <time>2022-07-10T13:50:30Z</time>
      </trkpt>
      <trkpt lat="41.813522" lon="2.521046">
        <time>2022-07-10T13:50:31Z</time>
      </trkpt>
      <trkpt lat="41.813507" lon="2.5211124">
        <time>2022-07-10T13:50:32Z</time>
      </trkpt>
      <trkpt lat="41.81349" lon="2.5211809">
        <time>2022-07-10T13:50:33Z</time>
      </trkpt>
      <trkpt lat="41.813477" lon="2.5212495">
        <time>2022-07-10T13:50:34Z</time>
      </trkpt>
      <trkpt lat="41.81346" lon="2.5213194">
        <time>2022-07-10T13:50:35Z</time>
      </trkpt>
      <trkpt lat="41.813446" lon="2.5213923">
        <time>2022-07-10T13:50:36Z</time>
      </trkpt>
      <trkpt lat="41.81343" lon="2.5214608">
        <time>2022-07-10T13:50:37Z</time>
      </trkpt>
      <trkpt lat="41.813416" lon="2.5215309">
        <time>2022-07-10T13:50:38Z</time>
      </trkpt>
      <trkpt lat="41.8134" lon="2.5216012">
        <time>2022-07-10T13:50:39Z</time>
      </trkpt>
      <trkpt lat="41.813385" lon="2.521672">
        <time>2022-07-10T13:50:40Z</time>
      </trkpt>
      <trkpt lat="41.81337" lon="2.5217438">
        <time>2022-07-10T13:50:41Z</time>
      </trkpt>
      <trkpt lat="41.81335" lon="2.521814">
        <time>2022-07-10T13:50:42Z</time>
      </trkpt>
      <trkpt lat="41.813335" lon="2.5218852">
        <time>2022-07-10T13:50:43Z</time>
      </trkpt>
      <trkpt lat="41.81332" lon="2.52196">
        <time>2022-07-10T13:50:44Z</time>
      </trkpt>
      <trkpt lat="41.813305" lon="2.5220287">
        <time>2022-07-10T13:50:45Z</time>
      </trkpt>
      <trkpt lat="41.813286" lon="2.5220988">
        <time>2022-07-10T13:50:46Z</time>
      </trkpt>
      <trkpt lat="41.81327" lon="2.5221694">
        <time>2022-07-10T13:50:47Z</time>
      </trkpt>
      <trkpt lat="41.813255" lon="2.5222402">
        <time>2022-07-10T13:50:48Z</time>
      </trkpt>
      <trkpt lat="41.813236" lon="2.5223114">
        <time>2022-07-10T13:50:49Z</time>
      </trkpt>
      <trkpt lat="41.81322" lon="2.5223837">
        <time>2022-07-10T13:50:50Z</time>
      </trkpt>
      <trkpt lat="41.8132" lon="2.5224564">
        <time>2022-07-10T13:50:51Z</time>
      </trkpt>
      <trkpt lat="41.813187" lon="2.5225286">
        <time>2022-07-10T13:50:52Z</time>
      </trkpt>
      <trkpt lat="41.81317" lon="2.5226011">
        <time>2022-07-10T13:50:53Z</time>
      </trkpt>
      <trkpt lat="41.813156" lon="2.5226724">
        <time>2022-07-10T13:50:54Z</time>
      </trkpt>
      <trkpt lat="41.81314" lon="2.5227444">
        <time>2022-07-10T13:50:55Z</time>
      </trkpt>
      <trkpt lat="41.813126" lon="2.5228198">
        <time>2022-07-10T13:50:56Z</time>
      </trkpt>
      <trkpt lat="41.813107" lon="2.5228944">
        <time>2022-07-10T13:50:57Z</time>
      </trkpt>
      <trkpt lat="41.81309" lon="2.5229697">
        <time>2022-07-10T13:50:58Z</time>
      </trkpt>
      <trkpt lat="41.813076" lon="2.5230453">
        <time>2022-07-10T13:50:59Z</time>
      </trkpt>
      <trkpt lat="41.81306" lon="2.5231204">
        <time>2022-07-10T13:51:00Z</time>
      </trkpt>
      <trkpt lat="41.813046" lon="2.5231948">
        <time>2022-07-10T13:51:01Z</time>
      </trkpt>
      <trkpt lat="41.813034" lon="2.5232687">
        <time>2022-07-10T13:51:02Z</time>
      </trkpt>
      <trkpt lat="41.81302" lon="2.523343">
        <time>2022-07-10T13:51:03Z</time>
      </trkpt>
      <trkpt lat="41.813007" lon="2.5234184">
        <time>2022-07-10T13:51:04Z</time>
      </trkpt>
      <trkpt lat="41.812996" lon="2.5234945">
        <time>2022-07-10T13:51:05Z</time>
      </trkpt>
      <trkpt lat="41.812992" lon="2.5235708">
        <time>2022-07-10T13:51:06Z</time>
      </trkpt>
      <trkpt lat="41.81299" lon="2.523647">
        <time>2022-07-10T13:51:07Z</time>
      </trkpt>
      <trkpt lat="41.81299" lon="2.5237248">
        <time>2022-07-10T13:51:08Z</time>
      </trkpt>
      <trkpt lat="41.81299" lon="2.5238044">
        <time>2022-07-10T13:51:09Z</time>
      </trkpt>
      <trkpt lat="41.812992" lon="2.523885">
        <time>2022-07-10T13:51:10Z</time>
      </trkpt>
      <trkpt lat="41.812996" lon="2.5239656">
        <time>2022-07-10T13:51:11Z</time>
      </trkpt>
      <trkpt lat="41.813" lon="2.524128">
        <time>2022-07-10T13:51:13Z</time>
      </trkpt>
      <trkpt lat="41.813007" lon="2.5242097">
        <time>2022-07-10T13:51:14Z</time>
      </trkpt>
      <trkpt lat="41.81301" lon="2.524292">
        <time>2022-07-10T13:51:15Z</time>
      </trkpt>
      <trkpt lat="41.813015" lon="2.524374">
        <time>2022-07-10T13:51:16Z</time>
      </trkpt>
      <trkpt lat="41.813023" lon="2.5244536">
        <time>2022-07-10T13:51:17Z</time>
      </trkpt>
      <trkpt lat="41.813026" lon="2.5245323">
        <time>2022-07-10T13:51:18Z</time>
      </trkpt>
      <trkpt lat="41.81303" lon="2.5246153">
        <time>2022-07-10T13:51:19Z</time>
      </trkpt>
      <trkpt lat="41.81303" lon="2.524697">
        <time>2022-07-10T13:51:20Z</time>
      </trkpt>
      <trkpt lat="41.813026" lon="2.5247767">
        <time>2022-07-10T13:51:21Z</time>
      </trkpt>
      <trkpt lat="41.81302" lon="2.5248559">
        <time>2022-07-10T13:51:22Z</time>
      </trkpt>
      <trkpt lat="41.813015" lon="2.5249307">
        <time>2022-07-10T13:51:23Z</time>
      </trkpt>
      <trkpt lat="41.813007" lon="2.525011">
        <time>2022-07-10T13:51:24Z</time>
      </trkpt>
      <trkpt lat="41.812996" lon="2.52509">
        <time>2022-07-10T13:51:25Z</time>
      </trkpt>
      <trkpt lat="41.81299" lon="2.5251698">
        <time>2022-07-10T13:51:26Z</time>
      </trkpt>
      <trkpt lat="41.812977" lon="2.52525">
        <time>2022-07-10T13:51:27Z</time>
      </trkpt>
      <trkpt lat="41.812965" lon="2.52533">
        <time>2022-07-10T13:51:28Z</time>
      </trkpt>
      <trkpt lat="41.812954" lon="2.52541">
        <time>2022-07-10T13:51:29Z</time>
      </trkpt>
      <trkpt lat="41.812943" lon="2.5254903">
        <time>2022-07-10T13:51:30Z</time>
      </trkpt>
      <trkpt lat="41.81293" lon="2.5255718">
        <time>2022-07-10T13:51:31Z</time>
      </trkpt>
      <trkpt lat="41.812916" lon="2.5256546">
        <time>2022-07-10T13:51:32Z</time>
      </trkpt>
      <trkpt lat="41.812904" lon="2.5257366">
        <time>2022-07-10T13:51:33Z</time>
      </trkpt>
      <trkpt lat="41.81289" lon="2.5258188">
        <time>2022-07-10T13:51:34Z</time>
      </trkpt>
      <trkpt lat="41.812878" lon="2.5259013">
        <time>2022-07-10T13:51:35Z</time>
      </trkpt>
      <trkpt lat="41.812866" lon="2.5259843">
        <time>2022-07-10T13:51:36Z</time>
      </trkpt>
      <trkpt lat="41.812855" lon="2.526067">
        <time>2022-07-10T13:51:37Z</time>
      </trkpt>
      <trkpt lat="41.81284" lon="2.5261478">
        <time>2022-07-10T13:51:38Z</time>
      </trkpt>
      <trkpt lat="41.81282" lon="2.5262275">
        <time>2022-07-10T13:51:39Z</time>
      </trkpt>
      <trkpt lat="41.8128" lon="2.526304">
        <time>2022-07-10T13:51:40Z</time>
      </trkpt>
      <trkpt lat="41.812775" lon="2.5263782">
        <time>2022-07-10T13:51:41Z</time>
      </trkpt>
      <trkpt lat="41.812748" lon="2.5264506">
        <time>2022-07-10T13:51:42Z</time>
      </trkpt>
      <trkpt lat="41.812717" lon="2.5265205">
        <time>2022-07-10T13:51:43Z</time>
      </trkpt>
      <trkpt lat="41.812683" lon="2.526584">
        <time>2022-07-10T13:51:44Z</time>
      </trkpt>
      <trkpt lat="41.812645" lon="2.5266516">
        <time>2022-07-10T13:51:45Z</time>
      </trkpt>
      <trkpt lat="41.812607" lon="2.5267172">
        <time>2022-07-10T13:51:46Z</time>
      </trkpt>
      <trkpt lat="41.81257" lon="2.5267816">
        <time>2022-07-10T13:51:47Z</time>
      </trkpt>
      <trkpt lat="41.81253" lon="2.5268445">
        <time>2022-07-10T13:51:48Z</time>
      </trkpt>
      <trkpt lat="41.812492" lon="2.5269065">
        <time>2022-07-10T13:51:49Z</time>
      </trkpt>
      <trkpt lat="41.812454" lon="2.5269678">
        <time>2022-07-10T13:51:50Z</time>
      </trkpt>
      <trkpt lat="41.812412" lon="2.52703">
        <time>2022-07-10T13:51:51Z</time>
      </trkpt>
      <trkpt lat="41.812374" lon="2.527092">
        <time>2022-07-10T13:51:52Z</time>
      </trkpt>
      <trkpt lat="41.812336" lon="2.527155">
        <time>2022-07-10T13:51:53Z</time>
      </trkpt>
      <trkpt lat="41.8123" lon="2.5272188">
        <time>2022-07-10T13:51:54Z</time>
      </trkpt>
      <trkpt lat="41.81227" lon="2.5272849">
        <time>2022-07-10T13:51:55Z</time>
      </trkpt>
      <trkpt lat="41.81224" lon="2.5273511">
        <time>2022-07-10T13:51:56Z</time>
      </trkpt>
      <trkpt lat="41.812214" lon="2.5274148">
        <time>2022-07-10T13:51:57Z</time>
      </trkpt>
      <trkpt lat="41.812187" lon="2.527486">
        <time>2022-07-10T13:51:58Z</time>
      </trkpt>
      <trkpt lat="41.81216" lon="2.5275586">
        <time>2022-07-10T13:51:59Z</time>
      </trkpt>
      <trkpt lat="41.812138" lon="2.5276325">
        <time>2022-07-10T13:52:00Z</time>
      </trkpt>
      <trkpt lat="41.812115" lon="2.5277076">
        <time>2022-07-10T13:52:01Z</time>
      </trkpt>
      <trkpt lat="41.812096" lon="2.527779">
        <time>2022-07-10T13:52:02Z</time>
      </trkpt>
      <trkpt lat="41.812077" lon="2.5278533">
        <time>2022-07-10T13:52:03Z</time>
      </trkpt>
      <trkpt lat="41.812054" lon="2.5279331">
        <time>2022-07-10T13:52:04Z</time>
      </trkpt>
      <trkpt lat="41.81203" lon="2.5280125">
        <time>2022-07-10T13:52:05Z</time>
      </trkpt>
      <trkpt lat="41.812008" lon="2.5280912">
        <time>2022-07-10T13:52:06Z</time>
      </trkpt>
      <trkpt lat="41.81199" lon="2.52817">
        <time>2022-07-10T13:52:07Z</time>
      </trkpt>
      <trkpt lat="41.81197" lon="2.5282445">
        <time>2022-07-10T13:52:08Z</time>
      </trkpt>
      <trkpt lat="41.81195" lon="2.5283267">
        <time>2022-07-10T13:52:09Z</time>
      </trkpt>
      <trkpt lat="41.811928" lon="2.5284095">
        <time>2022-07-10T13:52:10Z</time>
      </trkpt>
      <trkpt lat="41.811905" lon="2.5284915">
        <time>2022-07-10T13:52:11Z</time>
      </trkpt>
      <trkpt lat="41.811882" lon="2.5285742">
        <time>2022-07-10T13:52:12Z</time>
      </trkpt>
      <trkpt lat="41.81185" lon="2.5286548">
        <time>2022-07-10T13:52:13Z</time>
      </trkpt>
      <trkpt lat="41.811825" lon="2.5287359">
        <time>2022-07-10T13:52:14Z</time>
      </trkpt>
      <trkpt lat="41.811806" lon="2.5288172">
        <time>2022-07-10T13:52:15Z</time>
      </trkpt>
      <trkpt lat="41.811756" lon="2.5289803">
        <time>2022-07-10T13:52:17Z</time>
      </trkpt>
      <trkpt lat="41.811733" lon="2.5290604">
        <time>2022-07-10T13:52:18Z</time>
      </trkpt>
      <trkpt lat="41.811714" lon="2.5291398">
        <time>2022-07-10T13:52:19Z</time>
      </trkpt>
      <trkpt lat="41.81169" lon="2.5292184">
        <time>2022-07-10T13:52:20Z</time>
      </trkpt>
      <trkpt lat="41.811665" lon="2.5292962">
        <time>2022-07-10T13:52:21Z</time>
      </trkpt>
      <trkpt lat="41.811638" lon="2.5293725">
        <time>2022-07-10T13:52:22Z</time>
      </trkpt>
      <trkpt lat="41.81161" lon="2.529447">
        <time>2022-07-10T13:52:23Z</time>
      </trkpt>
      <trkpt lat="41.811584" lon="2.5295208">
        <time>2022-07-10T13:52:24Z</time>
      </trkpt>
      <trkpt lat="41.811558" lon="2.5295901">
        <time>2022-07-10T13:52:25Z</time>
      </trkpt>
      <trkpt lat="41.811523" lon="2.5296562">
        <time>2022-07-10T13:52:26Z</time>
      </trkpt>
      <trkpt lat="41.811493" lon="2.5297189">
        <time>2022-07-10T13:52:27Z</time>
      </trkpt>
      <trkpt lat="41.81146" lon="2.5297778">
        <time>2022-07-10T13:52:28Z</time>
      </trkpt>
      <trkpt lat="41.811417" lon="2.5298364">
        <time>2022-07-10T13:52:29Z</time>
      </trkpt>
      <trkpt lat="41.81138" lon="2.529895">
        <time>2022-07-10T13:52:30Z</time>
      </trkpt>
      <trkpt lat="41.81134" lon="2.529953">
        <time>2022-07-10T13:52:31Z</time>
      </trkpt>
      <trkpt lat="41.8113" lon="2.5300112">
        <time>2022-07-10T13:52:32Z</time>
      </trkpt>
      <trkpt lat="41.81126" lon="2.5300686">
        <time>2022-07-10T13:52:33Z</time>
      </trkpt>
      <trkpt lat="41.811222" lon="2.5301254">
        <time>2022-07-10T13:52:34Z</time>
      </trkpt>
      <trkpt lat="41.81118" lon="2.5301824">
        <time>2022-07-10T13:52:35Z</time>
      </trkpt>
      <trkpt lat="41.811146" lon="2.5302384">
        <time>2022-07-10T13:52:36Z</time>
      </trkpt>
      <trkpt lat="41.811108" lon="2.5302944">
        <time>2022-07-10T13:52:37Z</time>
      </trkpt>
      <trkpt lat="41.811073" lon="2.5303488">
        <time>2022-07-10T13:52:38Z</time>
      </trkpt>
      <trkpt lat="41.811035" lon="2.5304027">
        <time>2022-07-10T13:52:39Z</time>
      </trkpt>
      <trkpt lat="41.811" lon="2.5304577">
        <time>2022-07-10T13:52:40Z</time>
      </trkpt>
      <trkpt lat="41.81097" lon="2.5305128">
        <time>2022-07-10T13:52:41Z</time>
      </trkpt>
      <trkpt lat="41.81094" lon="2.5305688">
        <time>2022-07-10T13:52:42Z</time>
      </trkpt>
      <trkpt lat="41.810913" lon="2.5306244">
        <time>2022-07-10T13:52:43Z</time>
      </trkpt>
      <trkpt lat="41.810863" lon="2.5307364">
        <time>2022-07-10T13:52:45Z</time>
      </trkpt>
      <trkpt lat="41.810814" lon="2.5308435">
        <time>2022-07-10T13:52:47Z</time>
      </trkpt>
      <trkpt lat="41.810783" lon="2.530896">
        <time>2022-07-10T13:52:48Z</time>
      </trkpt>
      <trkpt lat="41.81072" lon="2.530988">
        <time>2022-07-10T13:52:50Z</time>
      </trkpt>
      <trkpt lat="41.810642" lon="2.531068">
        <time>2022-07-10T13:52:52Z</time>
      </trkpt>
      <trkpt lat="41.81056" lon="2.5311477">
        <time>2022-07-10T13:52:54Z</time>
      </trkpt>
      <trkpt lat="41.81052" lon="2.5311885">
        <time>2022-07-10T13:52:55Z</time>
      </trkpt>
      <trkpt lat="41.810436" lon="2.5312717">
        <time>2022-07-10T13:52:57Z</time>
      </trkpt>
      <trkpt lat="41.810394" lon="2.5313153">
        <time>2022-07-10T13:52:58Z</time>
      </trkpt>
      <trkpt lat="41.81031" lon="2.5314088">
        <time>2022-07-10T13:53:00Z</time>
      </trkpt>
      <trkpt lat="41.81027" lon="2.5314584">
        <time>2022-07-10T13:53:01Z</time>
      </trkpt>
      <trkpt lat="41.810226" lon="2.5315104">
        <time>2022-07-10T13:53:02Z</time>
      </trkpt>
      <trkpt lat="41.810184" lon="2.5315645">
        <time>2022-07-10T13:53:03Z</time>
      </trkpt>
      <trkpt lat="41.810143" lon="2.531617">
        <time>2022-07-10T13:53:04Z</time>
      </trkpt>
      <trkpt lat="41.8101" lon="2.5316718">
        <time>2022-07-10T13:53:05Z</time>
      </trkpt>
      <trkpt lat="41.81006" lon="2.531729">
        <time>2022-07-10T13:53:06Z</time>
      </trkpt>
      <trkpt lat="41.810013" lon="2.5317883">
        <time>2022-07-10T13:53:07Z</time>
      </trkpt>
      <trkpt lat="41.809967" lon="2.5318487">
        <time>2022-07-10T13:53:08Z</time>
      </trkpt>
      <trkpt lat="41.80992" lon="2.531911">
        <time>2022-07-10T13:53:09Z</time>
      </trkpt>
      <trkpt lat="41.80987" lon="2.5319746">
        <time>2022-07-10T13:53:10Z</time>
      </trkpt>
      <trkpt lat="41.809826" lon="2.5320396">
        <time>2022-07-10T13:53:11Z</time>
      </trkpt>
      <trkpt lat="41.809776" lon="2.5321066">
        <time>2022-07-10T13:53:12Z</time>
      </trkpt>
      <trkpt lat="41.809727" lon="2.532175">
        <time>2022-07-10T13:53:13Z</time>
      </trkpt>
      <trkpt lat="41.809677" lon="2.5322433">
        <time>2022-07-10T13:53:14Z</time>
      </trkpt>
      <trkpt lat="41.809628" lon="2.5323126">
        <time>2022-07-10T13:53:15Z</time>
      </trkpt>
      <trkpt lat="41.809578" lon="2.532382">
        <time>2022-07-10T13:53:16Z</time>
      </trkpt>
      <trkpt lat="41.80953" lon="2.532453">
        <time>2022-07-10T13:53:17Z</time>
      </trkpt>
      <trkpt lat="41.80947" lon="2.5325313">
        <time>2022-07-10T13:53:18Z</time>
      </trkpt>
      <trkpt lat="41.80936" lon="2.5326834">
        <time>2022-07-10T13:53:20Z</time>
      </trkpt>
      <trkpt lat="41.809303" lon="2.5327594">
        <time>2022-07-10T13:53:21Z</time>
      </trkpt>
      <trkpt lat="41.80925" lon="2.532829">
        <time>2022-07-10T13:53:22Z</time>
      </trkpt>
      <trkpt lat="41.809193" lon="2.5329046">
        <time>2022-07-10T13:53:23Z</time>
      </trkpt>
      <trkpt lat="41.80914" lon="2.5329766">
        <time>2022-07-10T13:53:24Z</time>
      </trkpt>
      <trkpt lat="41.809082" lon="2.533057">
        <time>2022-07-10T13:53:25Z</time>
      </trkpt>
      <trkpt lat="41.809025" lon="2.5331383">
        <time>2022-07-10T13:53:26Z</time>
      </trkpt>
      <trkpt lat="41.808968" lon="2.5332196">
        <time>2022-07-10T13:53:27Z</time>
      </trkpt>
      <trkpt lat="41.80891" lon="2.533302">
        <time>2022-07-10T13:53:28Z</time>
      </trkpt>
      <trkpt lat="41.80885" lon="2.533385">
        <time>2022-07-10T13:53:29Z</time>
      </trkpt>
      <trkpt lat="41.80879" lon="2.5334697">
        <time>2022-07-10T13:53:30Z</time>
      </trkpt>
      <trkpt lat="41.808727" lon="2.5335546">
        <time>2022-07-10T13:53:31Z</time>
      </trkpt>
      <trkpt lat="41.80867" lon="2.53364">
        <time>2022-07-10T13:53:32Z</time>
      </trkpt>
      <trkpt lat="41.808613" lon="2.5337193">
        <time>2022-07-10T13:53:33Z</time>
      </trkpt>
      <trkpt lat="41.80855" lon="2.5338058">
        <time>2022-07-10T13:53:34Z</time>
      </trkpt>
      <trkpt lat="41.808487" lon="2.533891">
        <time>2022-07-10T13:53:35Z</time>
      </trkpt>
      <trkpt lat="41.808426" lon="2.5339758">
        <time>2022-07-10T13:53:36Z</time>
      </trkpt>
      <trkpt lat="41.808365" lon="2.5340593">
        <time>2022-07-10T13:53:37Z</time>
      </trkpt>
      <trkpt lat="41.808308" lon="2.5341358">
        <time>2022-07-10T13:53:38Z</time>
      </trkpt>
      <trkpt lat="41.80825" lon="2.5342128">
        <time>2022-07-10T13:53:39Z</time>
      </trkpt>
      <trkpt lat="41.808193" lon="2.5342906">
        <time>2022-07-10T13:53:40Z</time>
      </trkpt>
      <trkpt lat="41.808136" lon="2.5343685">
        <time>2022-07-10T13:53:41Z</time>
      </trkpt>
      <trkpt lat="41.80808" lon="2.5344462">
        <time>2022-07-10T13:53:42Z</time>
      </trkpt>
      <trkpt lat="41.80802" lon="2.5345273">
        <time>2022-07-10T13:53:43Z</time>
      </trkpt>
      <trkpt lat="41.807972" lon="2.534601">
        <time>2022-07-10T13:53:44Z</time>
      </trkpt>
      <trkpt lat="41.80792" lon="2.5346742">
        <time>2022-07-10T13:53:45Z</time>
      </trkpt>
      <trkpt lat="41.80786" lon="2.5347478">
        <time>2022-07-10T13:53:46Z</time>
      </trkpt>
      <trkpt lat="41.807804" lon="2.5348256">
        <time>2022-07-10T13:53:47Z</time>
      </trkpt>
      <trkpt lat="41.80775" lon="2.5349016">
        <time>2022-07-10T13:53:48Z</time>
      </trkpt>
      <trkpt lat="41.807697" lon="2.5349758">
        <time>2022-07-10T13:53:49Z</time>
      </trkpt>
      <trkpt lat="41.80764" lon="2.5350475">
        <time>2022-07-10T13:53:50Z</time>
      </trkpt>
      <trkpt lat="41.807594" lon="2.535112">
        <time>2022-07-10T13:53:51Z</time>
      </trkpt>
      <trkpt lat="41.80754" lon="2.5351822">
        <time>2022-07-10T13:53:52Z</time>
      </trkpt>
      <trkpt lat="41.807487" lon="2.535252">
        <time>2022-07-10T13:53:53Z</time>
      </trkpt>
      <trkpt lat="41.80744" lon="2.5353212">
        <time>2022-07-10T13:53:54Z</time>
      </trkpt>
      <trkpt lat="41.807392" lon="2.5353856">
        <time>2022-07-10T13:53:55Z</time>
      </trkpt>
      <trkpt lat="41.807346" lon="2.5354497">
        <time>2022-07-10T13:53:56Z</time>
      </trkpt>
      <trkpt lat="41.807293" lon="2.535514">
        <time>2022-07-10T13:53:57Z</time>
      </trkpt>
      <trkpt lat="41.80724" lon="2.5355837">
        <time>2022-07-10T13:53:58Z</time>
      </trkpt>
      <trkpt lat="41.807182" lon="2.5356514">
        <time>2022-07-10T13:53:59Z</time>
      </trkpt>
      <trkpt lat="41.807125" lon="2.5357156">
        <time>2022-07-10T13:54:00Z</time>
      </trkpt>
      <trkpt lat="41.807068" lon="2.5357766">
        <time>2022-07-10T13:54:01Z</time>
      </trkpt>
      <trkpt lat="41.807007" lon="2.535837">
        <time>2022-07-10T13:54:02Z</time>
      </trkpt>
      <trkpt lat="41.80695" lon="2.535896">
        <time>2022-07-10T13:54:03Z</time>
      </trkpt>
      <trkpt lat="41.80689" lon="2.5359547">
        <time>2022-07-10T13:54:04Z</time>
      </trkpt>
      <trkpt lat="41.80683" lon="2.5360112">
        <time>2022-07-10T13:54:05Z</time>
      </trkpt>
      <trkpt lat="41.80677" lon="2.5360656">
        <time>2022-07-10T13:54:06Z</time>
      </trkpt>
      <trkpt lat="41.80671" lon="2.5361187">
        <time>2022-07-10T13:54:07Z</time>
      </trkpt>
      <trkpt lat="41.806644" lon="2.5361705">
        <time>2022-07-10T13:54:08Z</time>
      </trkpt>
      <trkpt lat="41.806583" lon="2.5362208">
        <time>2022-07-10T13:54:09Z</time>
      </trkpt>
      <trkpt lat="41.806522" lon="2.5362694">
        <time>2022-07-10T13:54:10Z</time>
      </trkpt>
      <trkpt lat="41.806458" lon="2.5363169">
        <time>2022-07-10T13:54:11Z</time>
      </trkpt>
      <trkpt lat="41.806396" lon="2.5363624">
        <time>2022-07-10T13:54:12Z</time>
      </trkpt>
      <trkpt lat="41.80633" lon="2.5364072">
        <time>2022-07-10T13:54:13Z</time>
      </trkpt>
      <trkpt lat="41.80627" lon="2.536451">
        <time>2022-07-10T13:54:14Z</time>
      </trkpt>
      <trkpt lat="41.806206" lon="2.5364952">
        <time>2022-07-10T13:54:15Z</time>
      </trkpt>
      <trkpt lat="41.80614" lon="2.5365388">
        <time>2022-07-10T13:54:16Z</time>
      </trkpt>
      <trkpt lat="41.806072" lon="2.5365818">
        <time>2022-07-10T13:54:17Z</time>
      </trkpt>
      <trkpt lat="41.806007" lon="2.5366247">
        <time>2022-07-10T13:54:18Z</time>
      </trkpt>
      <trkpt lat="41.805943" lon="2.5366688">
        <time>2022-07-10T13:54:19Z</time>
      </trkpt>
      <trkpt lat="41.805878" lon="2.5367117">
        <time>2022-07-10T13:54:20Z</time>
      </trkpt>
      <trkpt lat="41.80575" lon="2.5367959">
        <time>2022-07-10T13:54:22Z</time>
      </trkpt>
      <trkpt lat="41.805687" lon="2.536837">
        <time>2022-07-10T13:54:23Z</time>
      </trkpt>
      <trkpt lat="41.805626" lon="2.5368783">
        <time>2022-07-10T13:54:24Z</time>
      </trkpt>
      <trkpt lat="41.805565" lon="2.5369205">
        <time>2022-07-10T13:54:25Z</time>
      </trkpt>
      <trkpt lat="41.805447" lon="2.5370011">
        <time>2022-07-10T13:54:27Z</time>
      </trkpt>
      <trkpt lat="41.80538" lon="2.537045">
        <time>2022-07-10T13:54:28Z</time>
      </trkpt>
      <trkpt lat="41.80532" lon="2.5370874">
        <time>2022-07-10T13:54:29Z</time>
      </trkpt>
      <trkpt lat="41.80526" lon="2.5371294">
        <time>2022-07-10T13:54:30Z</time>
      </trkpt>
      <trkpt lat="41.8052" lon="2.5371718">
        <time>2022-07-10T13:54:31Z</time>
      </trkpt>
      <trkpt lat="41.805138" lon="2.537214">
        <time>2022-07-10T13:54:32Z</time>
      </trkpt>
      <trkpt lat="41.805073" lon="2.5372565">
        <time>2022-07-10T13:54:33Z</time>
      </trkpt>
      <trkpt lat="41.805016" lon="2.5372987">
        <time>2022-07-10T13:54:34Z</time>
      </trkpt>
      <trkpt lat="41.804955" lon="2.5373394">
        <time>2022-07-10T13:54:35Z</time>
      </trkpt>
      <trkpt lat="41.804897" lon="2.5373766">
        <time>2022-07-10T13:54:36Z</time>
      </trkpt>
      <trkpt lat="41.80484" lon="2.5374172">
        <time>2022-07-10T13:54:37Z</time>
      </trkpt>
      <trkpt lat="41.80478" lon="2.5374584">
        <time>2022-07-10T13:54:38Z</time>
      </trkpt>
      <trkpt lat="41.80472" lon="2.5375004">
        <time>2022-07-10T13:54:39Z</time>
      </trkpt>
      <trkpt lat="41.804665" lon="2.5375416">
        <time>2022-07-10T13:54:40Z</time>
      </trkpt>
      <trkpt lat="41.804604" lon="2.5375822">
        <time>2022-07-10T13:54:41Z</time>
      </trkpt>
      <trkpt lat="41.804546" lon="2.5376225">
        <time>2022-07-10T13:54:42Z</time>
      </trkpt>
      <trkpt lat="41.804485" lon="2.5376637">
        <time>2022-07-10T13:54:43Z</time>
      </trkpt>
      <trkpt lat="41.80443" lon="2.537705">
        <time>2022-07-10T13:54:44Z</time>
      </trkpt>
      <trkpt lat="41.804367" lon="2.537746">
        <time>2022-07-10T13:54:45Z</time>
      </trkpt>
      <trkpt lat="41.804306" lon="2.537787">
        <time>2022-07-10T13:54:46Z</time>
      </trkpt>
      <trkpt lat="41.804245" lon="2.5378292">
        <time>2022-07-10T13:54:47Z</time>
      </trkpt>
      <trkpt lat="41.804184" lon="2.5378706">
        <time>2022-07-10T13:54:48Z</time>
      </trkpt>
      <trkpt lat="41.804123" lon="2.537913">
        <time>2022-07-10T13:54:49Z</time>
      </trkpt>
      <trkpt lat="41.804058" lon="2.5379558">
        <time>2022-07-10T13:54:50Z</time>
      </trkpt>
      <trkpt lat="41.804" lon="2.5379963">
        <time>2022-07-10T13:54:51Z</time>
      </trkpt>
      <trkpt lat="41.80394" lon="2.5380387">
        <time>2022-07-10T13:54:52Z</time>
      </trkpt>
      <trkpt lat="41.803875" lon="2.5380821">
        <time>2022-07-10T13:54:53Z</time>
      </trkpt>
      <trkpt lat="41.803806" lon="2.5381308">
        <time>2022-07-10T13:54:54Z</time>
      </trkpt>
      <trkpt lat="41.80374" lon="2.5381763">
        <time>2022-07-10T13:54:55Z</time>
      </trkpt>
      <trkpt lat="41.803677" lon="2.5382223">
        <time>2022-07-10T13:54:56Z</time>
      </trkpt>
      <trkpt lat="41.80361" lon="2.538268">
        <time>2022-07-10T13:54:57Z</time>
      </trkpt>
      <trkpt lat="41.803543" lon="2.5383143">
        <time>2022-07-10T13:54:58Z</time>
      </trkpt>
      <trkpt lat="41.80347" lon="2.5383644">
        <time>2022-07-10T13:54:59Z</time>
      </trkpt>
      <trkpt lat="41.803402" lon="2.538411">
        <time>2022-07-10T13:55:00Z</time>
      </trkpt>
      <trkpt lat="41.803333" lon="2.5384576">
        <time>2022-07-10T13:55:01Z</time>
      </trkpt>
      <trkpt lat="41.803257" lon="2.538508">
        <time>2022-07-10T13:55:02Z</time>
      </trkpt>
      <trkpt lat="41.80318" lon="2.5385582">
        <time>2022-07-10T13:55:03Z</time>
      </trkpt>
      <trkpt lat="41.803104" lon="2.5386086">
        <time>2022-07-10T13:55:04Z</time>
      </trkpt>
      <trkpt lat="41.803036" lon="2.5386553">
        <time>2022-07-10T13:55:05Z</time>
      </trkpt>
      <trkpt lat="41.802963" lon="2.538706">
        <time>2022-07-10T13:55:06Z</time>
      </trkpt>
      <trkpt lat="41.802895" lon="2.5387542">
        <time>2022-07-10T13:55:07Z</time>
      </trkpt>
      <trkpt lat="41.802826" lon="2.538802">
        <time>2022-07-10T13:55:08Z</time>
      </trkpt>
      <trkpt lat="41.80275" lon="2.5388527">
        <time>2022-07-10T13:55:09Z</time>
      </trkpt>
      <trkpt lat="41.802677" lon="2.538903">
        <time>2022-07-10T13:55:10Z</time>
      </trkpt>
      <trkpt lat="41.802605" lon="2.5389533">
        <time>2022-07-10T13:55:11Z</time>
      </trkpt>
      <trkpt lat="41.802532" lon="2.5390038">
        <time>2022-07-10T13:55:12Z</time>
      </trkpt>
      <trkpt lat="41.802452" lon="2.5390606">
        <time>2022-07-10T13:55:13Z</time>
      </trkpt>
      <trkpt lat="41.80238" lon="2.5391107">
        <time>2022-07-10T13:55:14Z</time>
      </trkpt>
      <trkpt lat="41.80232" lon="2.5391529">
        <time>2022-07-10T13:55:15Z</time>
      </trkpt>
      <trkpt lat="41.802246" lon="2.5391998">
        <time>2022-07-10T13:55:16Z</time>
      </trkpt>
      <trkpt lat="41.80218" lon="2.5392437">
        <time>2022-07-10T13:55:17Z</time>
      </trkpt>
      <trkpt lat="41.802116" lon="2.5392883">
        <time>2022-07-10T13:55:18Z</time>
      </trkpt>
      <trkpt lat="41.802044" lon="2.5393372">
        <time>2022-07-10T13:55:19Z</time>
      </trkpt>
      <trkpt lat="41.801975" lon="2.5393872">
        <time>2022-07-10T13:55:20Z</time>
      </trkpt>
      <trkpt lat="41.80191" lon="2.5394351">
        <time>2022-07-10T13:55:21Z</time>
      </trkpt>
      <trkpt lat="41.801846" lon="2.5394826">
        <time>2022-07-10T13:55:22Z</time>
      </trkpt>
      <trkpt lat="41.801704" lon="2.5395803">
        <time>2022-07-10T13:55:24Z</time>
      </trkpt>
      <trkpt lat="41.801632" lon="2.5396292">
        <time>2022-07-10T13:55:25Z</time>
      </trkpt>
      <trkpt lat="41.801563" lon="2.5396743">
        <time>2022-07-10T13:55:26Z</time>
      </trkpt>
      <trkpt lat="41.8015" lon="2.5397224">
        <time>2022-07-10T13:55:27Z</time>
      </trkpt>
      <trkpt lat="41.80143" lon="2.5397713">
        <time>2022-07-10T13:55:28Z</time>
      </trkpt>
      <trkpt lat="41.80136" lon="2.539825">
        <time>2022-07-10T13:55:29Z</time>
      </trkpt>
      <trkpt lat="41.80129" lon="2.5398798">
        <time>2022-07-10T13:55:30Z</time>
      </trkpt>
      <trkpt lat="41.80122" lon="2.5399363">
        <time>2022-07-10T13:55:31Z</time>
      </trkpt>
      <trkpt lat="41.801147" lon="2.5399888">
        <time>2022-07-10T13:55:32Z</time>
      </trkpt>
      <trkpt lat="41.80108" lon="2.5400393">
        <time>2022-07-10T13:55:33Z</time>
      </trkpt>
      <trkpt lat="41.80101" lon="2.5400882">
        <time>2022-07-10T13:55:34Z</time>
      </trkpt>
      <trkpt lat="41.80094" lon="2.540136">
        <time>2022-07-10T13:55:35Z</time>
      </trkpt>
      <trkpt lat="41.80088" lon="2.54018">
        <time>2022-07-10T13:55:36Z</time>
      </trkpt>
      <trkpt lat="41.80081" lon="2.5402262">
        <time>2022-07-10T13:55:37Z</time>
      </trkpt>
      <trkpt lat="41.800747" lon="2.5402706">
        <time>2022-07-10T13:55:38Z</time>
      </trkpt>
      <trkpt lat="41.800686" lon="2.5403206">
        <time>2022-07-10T13:55:39Z</time>
      </trkpt>
      <trkpt lat="41.800632" lon="2.5403762">
        <time>2022-07-10T13:55:40Z</time>
      </trkpt>
      <trkpt lat="41.80058" lon="2.540435">
        <time>2022-07-10T13:55:41Z</time>
      </trkpt>
      <trkpt lat="41.80053" lon="2.5404968">
        <time>2022-07-10T13:55:42Z</time>
      </trkpt>
      <trkpt lat="41.80048" lon="2.5405629">
        <time>2022-07-10T13:55:43Z</time>
      </trkpt>
      <trkpt lat="41.800438" lon="2.5406332">
        <time>2022-07-10T13:55:44Z</time>
      </trkpt>
      <trkpt lat="41.800396" lon="2.5407085">
        <time>2022-07-10T13:55:45Z</time>
      </trkpt>
      <trkpt lat="41.800354" lon="2.5407863">
        <time>2022-07-10T13:55:46Z</time>
      </trkpt>
      <trkpt lat="41.800312" lon="2.540867">
        <time>2022-07-10T13:55:47Z</time>
      </trkpt>
      <trkpt lat="41.800274" lon="2.5409515">
        <time>2022-07-10T13:55:48Z</time>
      </trkpt>
      <trkpt lat="41.80024" lon="2.5410385">
        <time>2022-07-10T13:55:49Z</time>
      </trkpt>
      <trkpt lat="41.8002" lon="2.5411263">
        <time>2022-07-10T13:55:50Z</time>
      </trkpt>
      <trkpt lat="41.800163" lon="2.5412142">
        <time>2022-07-10T13:55:51Z</time>
      </trkpt>
      <trkpt lat="41.800125" lon="2.5413024">
        <time>2022-07-10T13:55:52Z</time>
      </trkpt>
      <trkpt lat="41.800083" lon="2.5413928">
        <time>2022-07-10T13:55:53Z</time>
      </trkpt>
      <trkpt lat="41.800045" lon="2.541484">
        <time>2022-07-10T13:55:54Z</time>
      </trkpt>
      <trkpt lat="41.800003" lon="2.5415761">
        <time>2022-07-10T13:55:55Z</time>
      </trkpt>
      <trkpt lat="41.799965" lon="2.5416682">
        <time>2022-07-10T13:55:56Z</time>
      </trkpt>
      <trkpt lat="41.799927" lon="2.5417604">
        <time>2022-07-10T13:55:57Z</time>
      </trkpt>
      <trkpt lat="41.79989" lon="2.5418525">
        <time>2022-07-10T13:55:58Z</time>
      </trkpt>
      <trkpt lat="41.799847" lon="2.5419452">
        <time>2022-07-10T13:55:59Z</time>
      </trkpt>
      <trkpt lat="41.799805" lon="2.5420432">
        <time>2022-07-10T13:56:00Z</time>
      </trkpt>
      <trkpt lat="41.799763" lon="2.5421395">
        <time>2022-07-10T13:56:01Z</time>
      </trkpt>
      <trkpt lat="41.799717" lon="2.5422328">
        <time>2022-07-10T13:56:02Z</time>
      </trkpt>
      <trkpt lat="41.799675" lon="2.542325">
        <time>2022-07-10T13:56:03Z</time>
      </trkpt>
      <trkpt lat="41.799633" lon="2.5424163">
        <time>2022-07-10T13:56:04Z</time>
      </trkpt>
      <trkpt lat="41.799587" lon="2.5425065">
        <time>2022-07-10T13:56:05Z</time>
      </trkpt>
      <trkpt lat="41.79955" lon="2.5425901">
        <time>2022-07-10T13:56:06Z</time>
      </trkpt>
      <trkpt lat="41.799503" lon="2.54268">
        <time>2022-07-10T13:56:07Z</time>
      </trkpt>
      <trkpt lat="41.79946" lon="2.5427694">
        <time>2022-07-10T13:56:08Z</time>
      </trkpt>
      <trkpt lat="41.799416" lon="2.5428574">
        <time>2022-07-10T13:56:09Z</time>
      </trkpt>
      <trkpt lat="41.799377" lon="2.5429451">
        <time>2022-07-10T13:56:10Z</time>
      </trkpt>
      <trkpt lat="41.799335" lon="2.5430324">
        <time>2022-07-10T13:56:11Z</time>
      </trkpt>
      <trkpt lat="41.799294" lon="2.5431187">
        <time>2022-07-10T13:56:12Z</time>
      </trkpt>
      <trkpt lat="41.799255" lon="2.543205">
        <time>2022-07-10T13:56:13Z</time>
      </trkpt>
      <trkpt lat="41.799213" lon="2.5432901">
        <time>2022-07-10T13:56:14Z</time>
      </trkpt>
      <trkpt lat="41.79917" lon="2.543375">
        <time>2022-07-10T13:56:15Z</time>
      </trkpt>
      <trkpt lat="41.799133" lon="2.5434601">
        <time>2022-07-10T13:56:16Z</time>
      </trkpt>
      <trkpt lat="41.7991" lon="2.5435395">
        <time>2022-07-10T13:56:17Z</time>
      </trkpt>
      <trkpt lat="41.799057" lon="2.543625">
        <time>2022-07-10T13:56:18Z</time>
      </trkpt>
      <trkpt lat="41.79902" lon="2.5437088">
        <time>2022-07-10T13:56:19Z</time>
      </trkpt>
      <trkpt lat="41.798977" lon="2.5437908">
        <time>2022-07-10T13:56:20Z</time>
      </trkpt>
      <trkpt lat="41.798943" lon="2.543867">
        <time>2022-07-10T13:56:21Z</time>
      </trkpt>
      <trkpt lat="41.798904" lon="2.5439498">
        <time>2022-07-10T13:56:22Z</time>
      </trkpt>
      <trkpt lat="41.79887" lon="2.5440273">
        <time>2022-07-10T13:56:23Z</time>
      </trkpt>
      <trkpt lat="41.798832" lon="2.5441093">
        <time>2022-07-10T13:56:24Z</time>
      </trkpt>
      <trkpt lat="41.79879" lon="2.5441895">
        <time>2022-07-10T13:56:25Z</time>
      </trkpt>
      <trkpt lat="41.79875" lon="2.5442674">
        <time>2022-07-10T13:56:26Z</time>
      </trkpt>
      <trkpt lat="41.798717" lon="2.5443404">
        <time>2022-07-10T13:56:27Z</time>
      </trkpt>
      <trkpt lat="41.79868" lon="2.5444193">
        <time>2022-07-10T13:56:28Z</time>
      </trkpt>
      <trkpt lat="41.798645" lon="2.544497">
        <time>2022-07-10T13:56:29Z</time>
      </trkpt>
      <trkpt lat="41.798607" lon="2.5445738">
        <time>2022-07-10T13:56:30Z</time>
      </trkpt>
      <trkpt lat="41.798542" lon="2.544718">
        <time>2022-07-10T13:56:32Z</time>
      </trkpt>
      <trkpt lat="41.798508" lon="2.5447884">
        <time>2022-07-10T13:56:33Z</time>
      </trkpt>
      <trkpt lat="41.798473" lon="2.5448654">
        <time>2022-07-10T13:56:34Z</time>
      </trkpt>
      <trkpt lat="41.79844" lon="2.544941">
        <time>2022-07-10T13:56:35Z</time>
      </trkpt>
      <trkpt lat="41.798405" lon="2.5450163">
        <time>2022-07-10T13:56:36Z</time>
      </trkpt>
      <trkpt lat="41.798378" lon="2.545087">
        <time>2022-07-10T13:56:37Z</time>
      </trkpt>
      <trkpt lat="41.798347" lon="2.5451584">
        <time>2022-07-10T13:56:38Z</time>
      </trkpt>
      <trkpt lat="41.798313" lon="2.5452356">
        <time>2022-07-10T13:56:39Z</time>
      </trkpt>
      <trkpt lat="41.798275" lon="2.5453103">
        <time>2022-07-10T13:56:40Z</time>
      </trkpt>
      <trkpt lat="41.79824" lon="2.5453844">
        <time>2022-07-10T13:56:41Z</time>
      </trkpt>
      <trkpt lat="41.798206" lon="2.5454543">
        <time>2022-07-10T13:56:42Z</time>
      </trkpt>
      <trkpt lat="41.798176" lon="2.545525">
        <time>2022-07-10T13:56:43Z</time>
      </trkpt>
      <trkpt lat="41.79814" lon="2.5455954">
        <time>2022-07-10T13:56:44Z</time>
      </trkpt>
      <trkpt lat="41.798107" lon="2.545671">
        <time>2022-07-10T13:56:45Z</time>
      </trkpt>
      <trkpt lat="41.798073" lon="2.545746">
        <time>2022-07-10T13:56:46Z</time>
      </trkpt>
      <trkpt lat="41.798042" lon="2.5458152">
        <time>2022-07-10T13:56:47Z</time>
      </trkpt>
      <trkpt lat="41.79801" lon="2.54589">
        <time>2022-07-10T13:56:48Z</time>
      </trkpt>
      <trkpt lat="41.79798" lon="2.545958">
        <time>2022-07-10T13:56:49Z</time>
      </trkpt>
      <trkpt lat="41.79795" lon="2.5460305">
        <time>2022-07-10T13:56:50Z</time>
      </trkpt>
      <trkpt lat="41.79792" lon="2.546102">
        <time>2022-07-10T13:56:51Z</time>
      </trkpt>
      <trkpt lat="41.797886" lon="2.546171">
        <time>2022-07-10T13:56:52Z</time>
      </trkpt>
      <trkpt lat="41.79785" lon="2.5462394">
        <time>2022-07-10T13:56:53Z</time>
      </trkpt>
      <trkpt lat="41.79782" lon="2.5463033">
        <time>2022-07-10T13:56:54Z</time>
      </trkpt>
      <trkpt lat="41.79779" lon="2.5463734">
        <time>2022-07-10T13:56:55Z</time>
      </trkpt>
      <trkpt lat="41.79776" lon="2.546442">
        <time>2022-07-10T13:56:56Z</time>
      </trkpt>
      <trkpt lat="41.79773" lon="2.546509">
        <time>2022-07-10T13:56:57Z</time>
      </trkpt>
      <trkpt lat="41.7977" lon="2.5465703">
        <time>2022-07-10T13:56:58Z</time>
      </trkpt>
      <trkpt lat="41.79767" lon="2.5466373">
        <time>2022-07-10T13:56:59Z</time>
      </trkpt>
      <trkpt lat="41.797638" lon="2.546704">
        <time>2022-07-10T13:57:00Z</time>
      </trkpt>
      <trkpt lat="41.797607" lon="2.5467699">
        <time>2022-07-10T13:57:01Z</time>
      </trkpt>
      <trkpt lat="41.79758" lon="2.5468318">
        <time>2022-07-10T13:57:02Z</time>
      </trkpt>
      <trkpt lat="41.797554" lon="2.546893">
        <time>2022-07-10T13:57:03Z</time>
      </trkpt>
      <trkpt lat="41.797527" lon="2.5469496">
        <time>2022-07-10T13:57:04Z</time>
      </trkpt>
      <trkpt lat="41.797474" lon="2.5470705">
        <time>2022-07-10T13:57:06Z</time>
      </trkpt>
      <trkpt lat="41.79745" lon="2.5471303">
        <time>2022-07-10T13:57:07Z</time>
      </trkpt>
      <trkpt lat="41.797424" lon="2.5471897">
        <time>2022-07-10T13:57:08Z</time>
      </trkpt>
      <trkpt lat="41.797398" lon="2.547248">
        <time>2022-07-10T13:57:09Z</time>
      </trkpt>
      <trkpt lat="41.797344" lon="2.5473642">
        <time>2022-07-10T13:57:11Z</time>
      </trkpt>
      <trkpt lat="41.797318" lon="2.5474222">
        <time>2022-07-10T13:57:12Z</time>
      </trkpt>
      <trkpt lat="41.797264" lon="2.547534">
        <time>2022-07-10T13:57:14Z</time>
      </trkpt>
      <trkpt lat="41.797207" lon="2.547649">
        <time>2022-07-10T13:57:16Z</time>
      </trkpt>
      <trkpt lat="41.797153" lon="2.547765">
        <time>2022-07-10T13:57:18Z</time>
      </trkpt>
      <trkpt lat="41.797127" lon="2.547819">
        <time>2022-07-10T13:57:19Z</time>
      </trkpt>
      <trkpt lat="41.797073" lon="2.5479286">
        <time>2022-07-10T13:57:21Z</time>
      </trkpt>
      <trkpt lat="41.79702" lon="2.5480416">
        <time>2022-07-10T13:57:23Z</time>
      </trkpt>
      <trkpt lat="41.796967" lon="2.5481522">
        <time>2022-07-10T13:57:25Z</time>
      </trkpt>
      <trkpt lat="41.79691" lon="2.5482695">
        <time>2022-07-10T13:57:27Z</time>
      </trkpt>
      <trkpt lat="41.796883" lon="2.5483296">
        <time>2022-07-10T13:57:28Z</time>
      </trkpt>
      <trkpt lat="41.796856" lon="2.548385">
        <time>2022-07-10T13:57:29Z</time>
      </trkpt>
      <trkpt lat="41.796806" lon="2.5484982">
        <time>2022-07-10T13:57:31Z</time>
      </trkpt>
      <trkpt lat="41.79678" lon="2.5485582">
        <time>2022-07-10T13:57:32Z</time>
      </trkpt>
      <trkpt lat="41.796722" lon="2.5486746">
        <time>2022-07-10T13:57:34Z</time>
      </trkpt>
      <trkpt lat="41.79667" lon="2.5487895">
        <time>2022-07-10T13:57:36Z</time>
      </trkpt>
      <trkpt lat="41.796616" lon="2.5489035">
        <time>2022-07-10T13:57:38Z</time>
      </trkpt>
      <trkpt lat="41.79659" lon="2.548961">
        <time>2022-07-10T13:57:39Z</time>
      </trkpt>
      <trkpt lat="41.796535" lon="2.5490758">
        <time>2022-07-10T13:57:41Z</time>
      </trkpt>
      <trkpt lat="41.79651" lon="2.5491335">
        <time>2022-07-10T13:57:42Z</time>
      </trkpt>
      <trkpt lat="41.79645" lon="2.549249">
        <time>2022-07-10T13:57:44Z</time>
      </trkpt>
      <trkpt lat="41.796425" lon="2.5493066">
        <time>2022-07-10T13:57:45Z</time>
      </trkpt>
      <trkpt lat="41.796368" lon="2.549425">
        <time>2022-07-10T13:57:47Z</time>
      </trkpt>
      <trkpt lat="41.79634" lon="2.5494869">
        <time>2022-07-10T13:57:48Z</time>
      </trkpt>
      <trkpt lat="41.796314" lon="2.5495462">
        <time>2022-07-10T13:57:49Z</time>
      </trkpt>
      <trkpt lat="41.796288" lon="2.5496085">
        <time>2022-07-10T13:57:50Z</time>
      </trkpt>
      <trkpt lat="41.796253" lon="2.5496776">
        <time>2022-07-10T13:57:51Z</time>
      </trkpt>
      <trkpt lat="41.796223" lon="2.54975">
        <time>2022-07-10T13:57:52Z</time>
      </trkpt>
      <trkpt lat="41.796192" lon="2.5498242">
        <time>2022-07-10T13:57:53Z</time>
      </trkpt>
      <trkpt lat="41.796158" lon="2.5499003">
        <time>2022-07-10T13:57:54Z</time>
      </trkpt>
      <trkpt lat="41.796124" lon="2.5499773">
        <time>2022-07-10T13:57:55Z</time>
      </trkpt>
      <trkpt lat="41.79609" lon="2.5500538">
        <time>2022-07-10T13:57:56Z</time>
      </trkpt>
      <trkpt lat="41.796055" lon="2.5501306">
        <time>2022-07-10T13:57:57Z</time>
      </trkpt>
      <trkpt lat="41.79602" lon="2.5502079">
        <time>2022-07-10T13:57:58Z</time>
      </trkpt>
      <trkpt lat="41.795982" lon="2.5502858">
        <time>2022-07-10T13:57:59Z</time>
      </trkpt>
      <trkpt lat="41.79594" lon="2.5503645">
        <time>2022-07-10T13:58:00Z</time>
      </trkpt>
      <trkpt lat="41.795902" lon="2.5504432">
        <time>2022-07-10T13:58:01Z</time>
      </trkpt>
      <trkpt lat="41.79586" lon="2.5505228">
        <time>2022-07-10T13:58:02Z</time>
      </trkpt>
      <trkpt lat="41.79582" lon="2.5506034">
        <time>2022-07-10T13:58:03Z</time>
      </trkpt>
      <trkpt lat="41.79578" lon="2.5506842">
        <time>2022-07-10T13:58:04Z</time>
      </trkpt>
      <trkpt lat="41.795734" lon="2.550764">
        <time>2022-07-10T13:58:05Z</time>
      </trkpt>
      <trkpt lat="41.795692" lon="2.550842">
        <time>2022-07-10T13:58:06Z</time>
      </trkpt>
      <trkpt lat="41.79565" lon="2.5509212">
        <time>2022-07-10T13:58:07Z</time>
      </trkpt>
      <trkpt lat="41.795605" lon="2.5509999">
        <time>2022-07-10T13:58:08Z</time>
      </trkpt>
      <trkpt lat="41.795563" lon="2.5510788">
        <time>2022-07-10T13:58:09Z</time>
      </trkpt>
      <trkpt lat="41.795517" lon="2.5511572">
        <time>2022-07-10T13:58:10Z</time>
      </trkpt>
      <trkpt lat="41.79547" lon="2.5512338">
        <time>2022-07-10T13:58:11Z</time>
      </trkpt>
      <trkpt lat="41.795425" lon="2.5513093">
        <time>2022-07-10T13:58:12Z</time>
      </trkpt>
      <trkpt lat="41.795383" lon="2.5513837">
        <time>2022-07-10T13:58:13Z</time>
      </trkpt>
      <trkpt lat="41.795338" lon="2.5514565">
        <time>2022-07-10T13:58:14Z</time>
      </trkpt>
      <trkpt lat="41.79529" lon="2.5515282">
        <time>2022-07-10T13:58:15Z</time>
      </trkpt>
      <trkpt lat="41.795246" lon="2.5515985">
        <time>2022-07-10T13:58:16Z</time>
      </trkpt>
      <trkpt lat="41.795204" lon="2.5516639">
        <time>2022-07-10T13:58:17Z</time>
      </trkpt>
      <trkpt lat="41.79516" lon="2.5517304">
        <time>2022-07-10T13:58:18Z</time>
      </trkpt>
      <trkpt lat="41.795113" lon="2.5517983">
        <time>2022-07-10T13:58:19Z</time>
      </trkpt>
      <trkpt lat="41.795063" lon="2.551867">
        <time>2022-07-10T13:58:20Z</time>
      </trkpt>
      <trkpt lat="41.795017" lon="2.5519361">
        <time>2022-07-10T13:58:21Z</time>
      </trkpt>
      <trkpt lat="41.794968" lon="2.5520053">
        <time>2022-07-10T13:58:22Z</time>
      </trkpt>
      <trkpt lat="41.794918" lon="2.5520751">
        <time>2022-07-10T13:58:23Z</time>
      </trkpt>
      <trkpt lat="41.794865" lon="2.5521448">
        <time>2022-07-10T13:58:24Z</time>
      </trkpt>
      <trkpt lat="41.794815" lon="2.5522144">
        <time>2022-07-10T13:58:25Z</time>
      </trkpt>
      <trkpt lat="41.79476" lon="2.5522845">
        <time>2022-07-10T13:58:26Z</time>
      </trkpt>
      <trkpt lat="41.794704" lon="2.5523582">
        <time>2022-07-10T13:58:27Z</time>
      </trkpt>
      <trkpt lat="41.794647" lon="2.552429">
        <time>2022-07-10T13:58:28Z</time>
      </trkpt>
      <trkpt lat="41.79459" lon="2.5524974">
        <time>2022-07-10T13:58:29Z</time>
      </trkpt>
      <trkpt lat="41.794537" lon="2.5525641">
        <time>2022-07-10T13:58:30Z</time>
      </trkpt>
      <trkpt lat="41.79448" lon="2.552629">
        <time>2022-07-10T13:58:31Z</time>
      </trkpt>
      <trkpt lat="41.794426" lon="2.5526915">
        <time>2022-07-10T13:58:32Z</time>
      </trkpt>
      <trkpt lat="41.794373" lon="2.552752">
        <time>2022-07-10T13:58:33Z</time>
      </trkpt>
      <trkpt lat="41.794323" lon="2.5528111">
        <time>2022-07-10T13:58:34Z</time>
      </trkpt>
      <trkpt lat="41.79427" lon="2.552869">
        <time>2022-07-10T13:58:35Z</time>
      </trkpt>
      <trkpt lat="41.794163" lon="2.5529838">
        <time>2022-07-10T13:58:37Z</time>
      </trkpt>
      <trkpt lat="41.794106" lon="2.5530415">
        <time>2022-07-10T13:58:38Z</time>
      </trkpt>
      <trkpt lat="41.794052" lon="2.5530972">
        <time>2022-07-10T13:58:39Z</time>
      </trkpt>
      <trkpt lat="41.794" lon="2.553153">
        <time>2022-07-10T13:58:40Z</time>
      </trkpt>
      <trkpt lat="41.793945" lon="2.5532076">
        <time>2022-07-10T13:58:41Z</time>
      </trkpt>
      <trkpt lat="41.793888" lon="2.5532618">
        <time>2022-07-10T13:58:42Z</time>
      </trkpt>
      <trkpt lat="41.793835" lon="2.5533156">
        <time>2022-07-10T13:58:43Z</time>
      </trkpt>
      <trkpt lat="41.793777" lon="2.5533693">
        <time>2022-07-10T13:58:44Z</time>
      </trkpt>
      <trkpt lat="41.79372" lon="2.5534227">
        <time>2022-07-10T13:58:45Z</time>
      </trkpt>
      <trkpt lat="41.793667" lon="2.553472">
        <time>2022-07-10T13:58:46Z</time>
      </trkpt>
      <trkpt lat="41.793606" lon="2.553525">
        <time>2022-07-10T13:58:47Z</time>
      </trkpt>
      <trkpt lat="41.79355" lon="2.5535767">
        <time>2022-07-10T13:58:48Z</time>
      </trkpt>
      <trkpt lat="41.793488" lon="2.5536273">
        <time>2022-07-10T13:58:49Z</time>
      </trkpt>
      <trkpt lat="41.79343" lon="2.553678">
        <time>2022-07-10T13:58:50Z</time>
      </trkpt>
      <trkpt lat="41.793373" lon="2.5537276">
        <time>2022-07-10T13:58:51Z</time>
      </trkpt>
      <trkpt lat="41.793316" lon="2.5537755">
        <time>2022-07-10T13:58:52Z</time>
      </trkpt>
      <trkpt lat="41.79326" lon="2.553824">
        <time>2022-07-10T13:58:53Z</time>
      </trkpt>
      <trkpt lat="41.7932" lon="2.5538719">
        <time>2022-07-10T13:58:54Z</time>
      </trkpt>
      <trkpt lat="41.79314" lon="2.5539196">
        <time>2022-07-10T13:58:55Z</time>
      </trkpt>
      <trkpt lat="41.793083" lon="2.5539677">
        <time>2022-07-10T13:58:56Z</time>
      </trkpt>
      <trkpt lat="41.793022" lon="2.5540156">
        <time>2022-07-10T13:58:57Z</time>
      </trkpt>
      <trkpt lat="41.79296" lon="2.5540626">
        <time>2022-07-10T13:58:58Z</time>
      </trkpt>
      <trkpt lat="41.7929" lon="2.5541096">
        <time>2022-07-10T13:58:59Z</time>
      </trkpt>
      <trkpt lat="41.792843" lon="2.5541549">
        <time>2022-07-10T13:59:00Z</time>
      </trkpt>
      <trkpt lat="41.792786" lon="2.554201">
        <time>2022-07-10T13:59:01Z</time>
      </trkpt>
      <trkpt lat="41.792732" lon="2.5542445">
        <time>2022-07-10T13:59:02Z</time>
      </trkpt>
      <trkpt lat="41.792675" lon="2.5542903">
        <time>2022-07-10T13:59:03Z</time>
      </trkpt>
      <trkpt lat="41.792614" lon="2.5543375">
        <time>2022-07-10T13:59:04Z</time>
      </trkpt>
      <trkpt lat="41.79256" lon="2.5543802">
        <time>2022-07-10T13:59:05Z</time>
      </trkpt>
      <trkpt lat="41.792503" lon="2.5544238">
        <time>2022-07-10T13:59:06Z</time>
      </trkpt>
      <trkpt lat="41.79245" lon="2.554468">
        <time>2022-07-10T13:59:07Z</time>
      </trkpt>
      <trkpt lat="41.79239" lon="2.5545146">
        <time>2022-07-10T13:59:08Z</time>
      </trkpt>
      <trkpt lat="41.79233" lon="2.5545585">
        <time>2022-07-10T13:59:09Z</time>
      </trkpt>
      <trkpt lat="41.79228" lon="2.5546">
        <time>2022-07-10T13:59:10Z</time>
      </trkpt>
      <trkpt lat="41.792225" lon="2.554643">
        <time>2022-07-10T13:59:11Z</time>
      </trkpt>
      <trkpt lat="41.79217" lon="2.5546854">
        <time>2022-07-10T13:59:12Z</time>
      </trkpt>
      <trkpt lat="41.792114" lon="2.5547285">
        <time>2022-07-10T13:59:13Z</time>
      </trkpt>
      <trkpt lat="41.792057" lon="2.5547693">
        <time>2022-07-10T13:59:14Z</time>
      </trkpt>
      <trkpt lat="41.792004" lon="2.5548062">
        <time>2022-07-10T13:59:15Z</time>
      </trkpt>
      <trkpt lat="41.79195" lon="2.5548432">
        <time>2022-07-10T13:59:16Z</time>
      </trkpt>
      <trkpt lat="41.791893" lon="2.5548797">
        <time>2022-07-10T13:59:17Z</time>
      </trkpt>
      <trkpt lat="41.79184" lon="2.5549157">
        <time>2022-07-10T13:59:18Z</time>
      </trkpt>
      <trkpt lat="41.791782" lon="2.5549505">
        <time>2022-07-10T13:59:19Z</time>
      </trkpt>
      <trkpt lat="41.791725" lon="2.5549848">
        <time>2022-07-10T13:59:20Z</time>
      </trkpt>
      <trkpt lat="41.791668" lon="2.5550191">
        <time>2022-07-10T13:59:21Z</time>
      </trkpt>
      <trkpt lat="41.791607" lon="2.555053">
        <time>2022-07-10T13:59:22Z</time>
      </trkpt>
      <trkpt lat="41.791546" lon="2.5550895">
        <time>2022-07-10T13:59:23Z</time>
      </trkpt>
      <trkpt lat="41.791492" lon="2.5551238">
        <time>2022-07-10T13:59:24Z</time>
      </trkpt>
      <trkpt lat="41.791435" lon="2.555159">
        <time>2022-07-10T13:59:25Z</time>
      </trkpt>
      <trkpt lat="41.791378" lon="2.555195">
        <time>2022-07-10T13:59:26Z</time>
      </trkpt>
      <trkpt lat="41.791317" lon="2.5552325">
        <time>2022-07-10T13:59:27Z</time>
      </trkpt>
      <trkpt lat="41.79126" lon="2.5552685">
        <time>2022-07-10T13:59:28Z</time>
      </trkpt>
      <trkpt lat="41.791203" lon="2.5553043">
        <time>2022-07-10T13:59:29Z</time>
      </trkpt>
      <trkpt lat="41.791145" lon="2.5553398">
        <time>2022-07-10T13:59:30Z</time>
      </trkpt>
      <trkpt lat="41.791092" lon="2.5553746">
        <time>2022-07-10T13:59:31Z</time>
      </trkpt>
      <trkpt lat="41.79104" lon="2.5554059">
        <time>2022-07-10T13:59:32Z</time>
      </trkpt>
      <trkpt lat="41.790985" lon="2.55544">
        <time>2022-07-10T13:59:33Z</time>
      </trkpt>
      <trkpt lat="41.790928" lon="2.5554736">
        <time>2022-07-10T13:59:34Z</time>
      </trkpt>
      <trkpt lat="41.790874" lon="2.555507">
        <time>2022-07-10T13:59:35Z</time>
      </trkpt>
      <trkpt lat="41.79082" lon="2.5555406">
        <time>2022-07-10T13:59:36Z</time>
      </trkpt>
      <trkpt lat="41.790768" lon="2.5555737">
        <time>2022-07-10T13:59:37Z</time>
      </trkpt>
      <trkpt lat="41.790714" lon="2.555607">
        <time>2022-07-10T13:59:38Z</time>
      </trkpt>
      <trkpt lat="41.79066" lon="2.5556402">
        <time>2022-07-10T13:59:39Z</time>
      </trkpt>
      <trkpt lat="41.790554" lon="2.5557065">
        <time>2022-07-10T13:59:41Z</time>
      </trkpt>
      <trkpt lat="41.79051" lon="2.5557368">
        <time>2022-07-10T13:59:42Z</time>
      </trkpt>
      <trkpt lat="41.79045" lon="2.5557704">
        <time>2022-07-10T13:59:43Z</time>
      </trkpt>
      <trkpt lat="41.790398" lon="2.5558038">
        <time>2022-07-10T13:59:44Z</time>
      </trkpt>
      <trkpt lat="41.790344" lon="2.555838">
        <time>2022-07-10T13:59:45Z</time>
      </trkpt>
      <trkpt lat="41.790287" lon="2.5558717">
        <time>2022-07-10T13:59:46Z</time>
      </trkpt>
      <trkpt lat="41.790234" lon="2.5559068">
        <time>2022-07-10T13:59:47Z</time>
      </trkpt>
      <trkpt lat="41.790176" lon="2.5559413">
        <time>2022-07-10T13:59:48Z</time>
      </trkpt>
      <trkpt lat="41.790123" lon="2.5559757">
        <time>2022-07-10T13:59:49Z</time>
      </trkpt>
      <trkpt lat="41.790066" lon="2.556009">
        <time>2022-07-10T13:59:50Z</time>
      </trkpt>
      <trkpt lat="41.790016" lon="2.55604">
        <time>2022-07-10T13:59:51Z</time>
      </trkpt>
      <trkpt lat="41.78996" lon="2.5560741">
        <time>2022-07-10T13:59:52Z</time>
      </trkpt>
      <trkpt lat="41.789898" lon="2.5561092">
        <time>2022-07-10T13:59:53Z</time>
      </trkpt>
      <trkpt lat="41.78984" lon="2.5561445">
        <time>2022-07-10T13:59:54Z</time>
      </trkpt>
      <trkpt lat="41.789783" lon="2.5561798">
        <time>2022-07-10T13:59:55Z</time>
      </trkpt>
      <trkpt lat="41.789726" lon="2.556215">
        <time>2022-07-10T13:59:56Z</time>
      </trkpt>
      <trkpt lat="41.78967" lon="2.5562465">
        <time>2022-07-10T13:59:57Z</time>
      </trkpt>
      <trkpt lat="41.789616" lon="2.5562792">
        <time>2022-07-10T13:59:58Z</time>
      </trkpt>
      <trkpt lat="41.78956" lon="2.5563128">
        <time>2022-07-10T13:59:59Z</time>
      </trkpt>
      <trkpt lat="41.789497" lon="2.5563505">
        <time>2022-07-10T14:00:00Z</time>
      </trkpt>
      <trkpt lat="41.789444" lon="2.5563848">
        <time>2022-07-10T14:00:01Z</time>
      </trkpt>
      <trkpt lat="41.78939" lon="2.5564194">
        <time>2022-07-10T14:00:02Z</time>
      </trkpt>
      <trkpt lat="41.789333" lon="2.556453">
        <time>2022-07-10T14:00:03Z</time>
      </trkpt>
      <trkpt lat="41.789276" lon="2.5564873">
        <time>2022-07-10T14:00:04Z</time>
      </trkpt>
      <trkpt lat="41.78922" lon="2.5565224">
        <time>2022-07-10T14:00:05Z</time>
      </trkpt>
      <trkpt lat="41.789165" lon="2.556554">
        <time>2022-07-10T14:00:06Z</time>
      </trkpt>
      <trkpt lat="41.78911" lon="2.5565858">
        <time>2022-07-10T14:00:07Z</time>
      </trkpt>
      <trkpt lat="41.789055" lon="2.5566177">
        <time>2022-07-10T14:00:08Z</time>
      </trkpt>
      <trkpt lat="41.789" lon="2.5566514">
        <time>2022-07-10T14:00:09Z</time>
      </trkpt>
      <trkpt lat="41.788944" lon="2.556685">
        <time>2022-07-10T14:00:10Z</time>
      </trkpt>
      <trkpt lat="41.788887" lon="2.5567203">
        <time>2022-07-10T14:00:11Z</time>
      </trkpt>
      <trkpt lat="41.788834" lon="2.5567527">
        <time>2022-07-10T14:00:12Z</time>
      </trkpt>
      <trkpt lat="41.78878" lon="2.5567863">
        <time>2022-07-10T14:00:13Z</time>
      </trkpt>
      <trkpt lat="41.788727" lon="2.556821">
        <time>2022-07-10T14:00:14Z</time>
      </trkpt>
      <trkpt lat="41.788673" lon="2.556857">
        <time>2022-07-10T14:00:15Z</time>
      </trkpt>
      <trkpt lat="41.788612" lon="2.5568948">
        <time>2022-07-10T14:00:16Z</time>
      </trkpt>
      <trkpt lat="41.78856" lon="2.55693">
        <time>2022-07-10T14:00:17Z</time>
      </trkpt>
      <trkpt lat="41.788506" lon="2.556965">
        <time>2022-07-10T14:00:18Z</time>
      </trkpt>
      <trkpt lat="41.788452" lon="2.556999">
        <time>2022-07-10T14:00:19Z</time>
      </trkpt>
      <trkpt lat="41.78839" lon="2.557035">
        <time>2022-07-10T14:00:20Z</time>
      </trkpt>
      <trkpt lat="41.788338" lon="2.5570707">
        <time>2022-07-10T14:00:21Z</time>
      </trkpt>
      <trkpt lat="41.78829" lon="2.5571039">
        <time>2022-07-10T14:00:22Z</time>
      </trkpt>
      <trkpt lat="41.78824" lon="2.5571363">
        <time>2022-07-10T14:00:23Z</time>
      </trkpt>
      <trkpt lat="41.78819" lon="2.5571682">
        <time>2022-07-10T14:00:24Z</time>
      </trkpt>
      <trkpt lat="41.788136" lon="2.5572023">
        <time>2022-07-10T14:00:25Z</time>
      </trkpt>
      <trkpt lat="41.788082" lon="2.5572348">
        <time>2022-07-10T14:00:26Z</time>
      </trkpt>
      <trkpt lat="41.788033" lon="2.5572653">
        <time>2022-07-10T14:00:27Z</time>
      </trkpt>
      <trkpt lat="41.787987" lon="2.557294">
        <time>2022-07-10T14:00:28Z</time>
      </trkpt>
      <trkpt lat="41.78794" lon="2.5573223">
        <time>2022-07-10T14:00:29Z</time>
      </trkpt>
      <trkpt lat="41.787846" lon="2.5573857">
        <time>2022-07-10T14:00:31Z</time>
      </trkpt>
      <trkpt lat="41.7878" lon="2.55742">
        <time>2022-07-10T14:00:32Z</time>
      </trkpt>
      <trkpt lat="41.787758" lon="2.5574536">
        <time>2022-07-10T14:00:33Z</time>
      </trkpt>
      <trkpt lat="41.787678" lon="2.5575237">
        <time>2022-07-10T14:00:35Z</time>
      </trkpt>
      <trkpt lat="41.7876" lon="2.5576034">
        <time>2022-07-10T14:00:37Z</time>
      </trkpt>
      <trkpt lat="41.787563" lon="2.5576446">
        <time>2022-07-10T14:00:38Z</time>
      </trkpt>
      <trkpt lat="41.78749" lon="2.55773">
        <time>2022-07-10T14:00:40Z</time>
      </trkpt>
      <trkpt lat="41.787453" lon="2.5577743">
        <time>2022-07-10T14:00:41Z</time>
      </trkpt>
      <trkpt lat="41.78734" lon="2.5579119">
        <time>2022-07-10T14:00:44Z</time>
      </trkpt>
      <trkpt lat="41.7873" lon="2.5579562">
        <time>2022-07-10T14:00:45Z</time>
      </trkpt>
      <trkpt lat="41.787228" lon="2.558045">
        <time>2022-07-10T14:00:47Z</time>
      </trkpt>
      <trkpt lat="41.787193" lon="2.5580916">
        <time>2022-07-10T14:00:48Z</time>
      </trkpt>
      <trkpt lat="41.78712" lon="2.558177">
        <time>2022-07-10T14:00:50Z</time>
      </trkpt>
      <trkpt lat="41.78705" lon="2.5582669">
        <time>2022-07-10T14:00:52Z</time>
      </trkpt>
      <trkpt lat="41.787006" lon="2.5583148">
        <time>2022-07-10T14:00:53Z</time>
      </trkpt>
      <trkpt lat="41.78697" lon="2.5583625">
        <time>2022-07-10T14:00:54Z</time>
      </trkpt>
      <trkpt lat="41.78693" lon="2.5584078">
        <time>2022-07-10T14:00:55Z</time>
      </trkpt>
      <trkpt lat="41.786892" lon="2.5584528">
        <time>2022-07-10T14:00:56Z</time>
      </trkpt>
      <trkpt lat="41.78681" lon="2.5585506">
        <time>2022-07-10T14:00:58Z</time>
      </trkpt>
      <trkpt lat="41.78677" lon="2.5585992">
        <time>2022-07-10T14:00:59Z</time>
      </trkpt>
      <trkpt lat="41.78673" lon="2.5586448">
        <time>2022-07-10T14:01:00Z</time>
      </trkpt>
      <trkpt lat="41.786694" lon="2.5586915">
        <time>2022-07-10T14:01:01Z</time>
      </trkpt>
      <trkpt lat="41.786655" lon="2.55874">
        <time>2022-07-10T14:01:02Z</time>
      </trkpt>
      <trkpt lat="41.786613" lon="2.55879">
        <time>2022-07-10T14:01:03Z</time>
      </trkpt>
      <trkpt lat="41.78657" lon="2.5588436">
        <time>2022-07-10T14:01:04Z</time>
      </trkpt>
      <trkpt lat="41.78653" lon="2.558893">
        <time>2022-07-10T14:01:05Z</time>
      </trkpt>
      <trkpt lat="41.786488" lon="2.5589433">
        <time>2022-07-10T14:01:06Z</time>
      </trkpt>
      <trkpt lat="41.786446" lon="2.558996">
        <time>2022-07-10T14:01:07Z</time>
      </trkpt>
      <trkpt lat="41.7864" lon="2.5590525">
        <time>2022-07-10T14:01:08Z</time>
      </trkpt>
      <trkpt lat="41.786358" lon="2.5591054">
        <time>2022-07-10T14:01:09Z</time>
      </trkpt>
      <trkpt lat="41.786316" lon="2.5591595">
        <time>2022-07-10T14:01:10Z</time>
      </trkpt>
      <trkpt lat="41.78627" lon="2.5592146">
        <time>2022-07-10T14:01:11Z</time>
      </trkpt>
      <trkpt lat="41.78623" lon="2.559269">
        <time>2022-07-10T14:01:12Z</time>
      </trkpt>
      <trkpt lat="41.786182" lon="2.5593235">
        <time>2022-07-10T14:01:13Z</time>
      </trkpt>
      <trkpt lat="41.786137" lon="2.5593774">
        <time>2022-07-10T14:01:14Z</time>
      </trkpt>
      <trkpt lat="41.786087" lon="2.5594366">
        <time>2022-07-10T14:01:15Z</time>
      </trkpt>
      <trkpt lat="41.78604" lon="2.5594919">
        <time>2022-07-10T14:01:16Z</time>
      </trkpt>
      <trkpt lat="41.785995" lon="2.5595481">
        <time>2022-07-10T14:01:17Z</time>
      </trkpt>
      <trkpt lat="41.78595" lon="2.5596042">
        <time>2022-07-10T14:01:18Z</time>
      </trkpt>
      <trkpt lat="41.785904" lon="2.5596611">
        <time>2022-07-10T14:01:19Z</time>
      </trkpt>
      <trkpt lat="41.78586" lon="2.5597196">
        <time>2022-07-10T14:01:20Z</time>
      </trkpt>
      <trkpt lat="41.78581" lon="2.5597825">
        <time>2022-07-10T14:01:21Z</time>
      </trkpt>
      <trkpt lat="41.78576" lon="2.5598443">
        <time>2022-07-10T14:01:22Z</time>
      </trkpt>
      <trkpt lat="41.78571" lon="2.5599048">
        <time>2022-07-10T14:01:23Z</time>
      </trkpt>
      <trkpt lat="41.78566" lon="2.5599644">
        <time>2022-07-10T14:01:24Z</time>
      </trkpt>
      <trkpt lat="41.785614" lon="2.560024">
        <time>2022-07-10T14:01:25Z</time>
      </trkpt>
      <trkpt lat="41.785564" lon="2.5600832">
        <time>2022-07-10T14:01:26Z</time>
      </trkpt>
      <trkpt lat="41.78552" lon="2.5601418">
        <time>2022-07-10T14:01:27Z</time>
      </trkpt>
      <trkpt lat="41.78547" lon="2.5602005">
        <time>2022-07-10T14:01:28Z</time>
      </trkpt>
      <trkpt lat="41.78542" lon="2.5602593">
        <time>2022-07-10T14:01:29Z</time>
      </trkpt>
      <trkpt lat="41.78537" lon="2.5603192">
        <time>2022-07-10T14:01:30Z</time>
      </trkpt>
      <trkpt lat="41.78532" lon="2.560379">
        <time>2022-07-10T14:01:31Z</time>
      </trkpt>
      <trkpt lat="41.785267" lon="2.560439">
        <time>2022-07-10T14:01:32Z</time>
      </trkpt>
      <trkpt lat="41.785217" lon="2.5605001">
        <time>2022-07-10T14:01:33Z</time>
      </trkpt>
      <trkpt lat="41.785168" lon="2.5605614">
        <time>2022-07-10T14:01:34Z</time>
      </trkpt>
      <trkpt lat="41.78512" lon="2.5606222">
        <time>2022-07-10T14:01:35Z</time>
      </trkpt>
      <trkpt lat="41.78507" lon="2.560682">
        <time>2022-07-10T14:01:36Z</time>
      </trkpt>
      <trkpt lat="41.785015" lon="2.5607417">
        <time>2022-07-10T14:01:37Z</time>
      </trkpt>
      <trkpt lat="41.78497" lon="2.5607965">
        <time>2022-07-10T14:01:38Z</time>
      </trkpt>
      <trkpt lat="41.784916" lon="2.5608509">
        <time>2022-07-10T14:01:39Z</time>
      </trkpt>
      <trkpt lat="41.784863" lon="2.560904">
        <time>2022-07-10T14:01:40Z</time>
      </trkpt>
      <trkpt lat="41.7848" lon="2.5609586">
        <time>2022-07-10T14:01:41Z</time>
      </trkpt>
      <trkpt lat="41.78474" lon="2.5610087">
        <time>2022-07-10T14:01:42Z</time>
      </trkpt>
      <trkpt lat="41.784683" lon="2.5610523">
        <time>2022-07-10T14:01:43Z</time>
      </trkpt>
      <trkpt lat="41.784622" lon="2.5610917">
        <time>2022-07-10T14:01:44Z</time>
      </trkpt>
      <trkpt lat="41.784554" lon="2.5611267">
        <time>2022-07-10T14:01:45Z</time>
      </trkpt>
      <trkpt lat="41.784485" lon="2.561155">
        <time>2022-07-10T14:01:46Z</time>
      </trkpt>
      <trkpt lat="41.784344" lon="2.5611906">
        <time>2022-07-10T14:01:48Z</time>
      </trkpt>
      <trkpt lat="41.784275" lon="2.561197">
        <time>2022-07-10T14:01:49Z</time>
      </trkpt>
      <trkpt lat="41.784203" lon="2.5611951">
        <time>2022-07-10T14:01:50Z</time>
      </trkpt>
      <trkpt lat="41.784134" lon="2.5611835">
        <time>2022-07-10T14:01:51Z</time>
      </trkpt>
      <trkpt lat="41.78406" lon="2.561165">
        <time>2022-07-10T14:01:52Z</time>
      </trkpt>
      <trkpt lat="41.783993" lon="2.56114">
        <time>2022-07-10T14:01:53Z</time>
      </trkpt>
      <trkpt lat="41.78393" lon="2.5611122">
        <time>2022-07-10T14:01:54Z</time>
      </trkpt>
      <trkpt lat="41.783867" lon="2.5610778">
        <time>2022-07-10T14:01:55Z</time>
      </trkpt>
      <trkpt lat="41.783802" lon="2.561038">
        <time>2022-07-10T14:01:56Z</time>
      </trkpt>
      <trkpt lat="41.783737" lon="2.5609941">
        <time>2022-07-10T14:01:57Z</time>
      </trkpt>
      <trkpt lat="41.783672" lon="2.5609457">
        <time>2022-07-10T14:01:58Z</time>
      </trkpt>
      <trkpt lat="41.783607" lon="2.5608947">
        <time>2022-07-10T14:01:59Z</time>
      </trkpt>
      <trkpt lat="41.783478" lon="2.5607886">
        <time>2022-07-10T14:02:01Z</time>
      </trkpt>
      <trkpt lat="41.783413" lon="2.5607345">
        <time>2022-07-10T14:02:02Z</time>
      </trkpt>
      <trkpt lat="41.78334" lon="2.5606768">
        <time>2022-07-10T14:02:03Z</time>
      </trkpt>
      <trkpt lat="41.78328" lon="2.5606234">
        <time>2022-07-10T14:02:04Z</time>
      </trkpt>
      <trkpt lat="41.783215" lon="2.5605695">
        <time>2022-07-10T14:02:05Z</time>
      </trkpt>
      <trkpt lat="41.78315" lon="2.5605152">
        <time>2022-07-10T14:02:06Z</time>
      </trkpt>
      <trkpt lat="41.783085" lon="2.5604553">
        <time>2022-07-10T14:02:07Z</time>
      </trkpt>
      <trkpt lat="41.78302" lon="2.5604">
        <time>2022-07-10T14:02:08Z</time>
      </trkpt>
      <trkpt lat="41.78296" lon="2.5603445">
        <time>2022-07-10T14:02:09Z</time>
      </trkpt>
      <trkpt lat="41.782894" lon="2.5602894">
        <time>2022-07-10T14:02:10Z</time>
      </trkpt>
      <trkpt lat="41.782833" lon="2.560234">
        <time>2022-07-10T14:02:11Z</time>
      </trkpt>
      <trkpt lat="41.78277" lon="2.560178">
        <time>2022-07-10T14:02:12Z</time>
      </trkpt>
      <trkpt lat="41.782703" lon="2.560122">
        <time>2022-07-10T14:02:13Z</time>
      </trkpt>
      <trkpt lat="41.78264" lon="2.5600657">
        <time>2022-07-10T14:02:14Z</time>
      </trkpt>
      <trkpt lat="41.78257" lon="2.5600088">
        <time>2022-07-10T14:02:15Z</time>
      </trkpt>
      <trkpt lat="41.7825" lon="2.5599518">
        <time>2022-07-10T14:02:16Z</time>
      </trkpt>
      <trkpt lat="41.78243" lon="2.5598896">
        <time>2022-07-10T14:02:17Z</time>
      </trkpt>
      <trkpt lat="41.78236" lon="2.5598276">
        <time>2022-07-10T14:02:18Z</time>
      </trkpt>
      <trkpt lat="41.78229" lon="2.559765">
        <time>2022-07-10T14:02:19Z</time>
      </trkpt>
      <trkpt lat="41.782223" lon="2.5597029">
        <time>2022-07-10T14:02:20Z</time>
      </trkpt>
      <trkpt lat="41.782154" lon="2.5596418">
        <time>2022-07-10T14:02:21Z</time>
      </trkpt>
      <trkpt lat="41.782085" lon="2.5595825">
        <time>2022-07-10T14:02:22Z</time>
      </trkpt>
      <trkpt lat="41.782017" lon="2.559523">
        <time>2022-07-10T14:02:23Z</time>
      </trkpt>
      <trkpt lat="41.781948" lon="2.5594647">
        <time>2022-07-10T14:02:24Z</time>
      </trkpt>
      <trkpt lat="41.78188" lon="2.5594075">
        <time>2022-07-10T14:02:25Z</time>
      </trkpt>
      <trkpt lat="41.781815" lon="2.559352">
        <time>2022-07-10T14:02:26Z</time>
      </trkpt>
      <trkpt lat="41.78175" lon="2.5592964">
        <time>2022-07-10T14:02:27Z</time>
      </trkpt>
      <trkpt lat="41.781685" lon="2.5592415">
        <time>2022-07-10T14:02:28Z</time>
      </trkpt>
      <trkpt lat="41.781624" lon="2.5591874">
        <time>2022-07-10T14:02:29Z</time>
      </trkpt>
      <trkpt lat="41.78156" lon="2.5591338">
        <time>2022-07-10T14:02:30Z</time>
      </trkpt>
      <trkpt lat="41.781494" lon="2.5590794">
        <time>2022-07-10T14:02:31Z</time>
      </trkpt>
      <trkpt lat="41.781433" lon="2.559025">
        <time>2022-07-10T14:02:32Z</time>
      </trkpt>
      <trkpt lat="41.78137" lon="2.5589702">
        <time>2022-07-10T14:02:33Z</time>
      </trkpt>
      <trkpt lat="41.781307" lon="2.558915">
        <time>2022-07-10T14:02:34Z</time>
      </trkpt>
      <trkpt lat="41.781242" lon="2.5588608">
        <time>2022-07-10T14:02:35Z</time>
      </trkpt>
      <trkpt lat="41.78118" lon="2.5588071">
        <time>2022-07-10T14:02:36Z</time>
      </trkpt>
      <trkpt lat="41.781116" lon="2.5587533">
        <time>2022-07-10T14:02:37Z</time>
      </trkpt>
      <trkpt lat="41.781055" lon="2.5587013">
        <time>2022-07-10T14:02:38Z</time>
      </trkpt>
      <trkpt lat="41.780994" lon="2.5586512">
        <time>2022-07-10T14:02:39Z</time>
      </trkpt>
      <trkpt lat="41.780937" lon="2.558602">
        <time>2022-07-10T14:02:40Z</time>
      </trkpt>
      <trkpt lat="41.78088" lon="2.5585542">
        <time>2022-07-10T14:02:41Z</time>
      </trkpt>
      <trkpt lat="41.780823" lon="2.5585065">
        <time>2022-07-10T14:02:42Z</time>
      </trkpt>
      <trkpt lat="41.78077" lon="2.5584595">
        <time>2022-07-10T14:02:43Z</time>
      </trkpt>
      <trkpt lat="41.780716" lon="2.5584137">
        <time>2022-07-10T14:02:44Z</time>
      </trkpt>
      <trkpt lat="41.780663" lon="2.5583696">
        <time>2022-07-10T14:02:45Z</time>
      </trkpt>
      <trkpt lat="41.78061" lon="2.5583255">
        <time>2022-07-10T14:02:46Z</time>
      </trkpt>
      <trkpt lat="41.78056" lon="2.558282">
        <time>2022-07-10T14:02:47Z</time>
      </trkpt>
      <trkpt lat="41.780506" lon="2.5582383">
        <time>2022-07-10T14:02:48Z</time>
      </trkpt>
      <trkpt lat="41.780457" lon="2.5581958">
        <time>2022-07-10T14:02:49Z</time>
      </trkpt>
      <trkpt lat="41.780407" lon="2.5581524">
        <time>2022-07-10T14:02:50Z</time>
      </trkpt>
      <trkpt lat="41.780357" lon="2.5581095">
        <time>2022-07-10T14:02:51Z</time>
      </trkpt>
      <trkpt lat="41.780308" lon="2.5580678">
        <time>2022-07-10T14:02:52Z</time>
      </trkpt>
      <trkpt lat="41.78026" lon="2.5580266">
        <time>2022-07-10T14:02:53Z</time>
      </trkpt>
      <trkpt lat="41.780155" lon="2.5579453">
        <time>2022-07-10T14:02:55Z</time>
      </trkpt>
      <trkpt lat="41.780106" lon="2.557905">
        <time>2022-07-10T14:02:56Z</time>
      </trkpt>
      <trkpt lat="41.780056" lon="2.5578647">
        <time>2022-07-10T14:02:57Z</time>
      </trkpt>
      <trkpt lat="41.78001" lon="2.557824">
        <time>2022-07-10T14:02:58Z</time>
      </trkpt>
      <trkpt lat="41.779957" lon="2.557783">
        <time>2022-07-10T14:02:59Z</time>
      </trkpt>
      <trkpt lat="41.779907" lon="2.5577424">
        <time>2022-07-10T14:03:00Z</time>
      </trkpt>
      <trkpt lat="41.779858" lon="2.5577023">
        <time>2022-07-10T14:03:01Z</time>
      </trkpt>
      <trkpt lat="41.77981" lon="2.5576615">
        <time>2022-07-10T14:03:02Z</time>
      </trkpt>
      <trkpt lat="41.779762" lon="2.557621">
        <time>2022-07-10T14:03:03Z</time>
      </trkpt>
      <trkpt lat="41.779713" lon="2.557581">
        <time>2022-07-10T14:03:04Z</time>
      </trkpt>
      <trkpt lat="41.779667" lon="2.5575414">
        <time>2022-07-10T14:03:05Z</time>
      </trkpt>
      <trkpt lat="41.779617" lon="2.5575016">
        <time>2022-07-10T14:03:06Z</time>
      </trkpt>
      <trkpt lat="41.779568" lon="2.557463">
        <time>2022-07-10T14:03:07Z</time>
      </trkpt>
      <trkpt lat="41.77952" lon="2.5574234">
        <time>2022-07-10T14:03:08Z</time>
      </trkpt>
      <trkpt lat="41.77947" lon="2.557383">
        <time>2022-07-10T14:03:09Z</time>
      </trkpt>
      <trkpt lat="41.77942" lon="2.5573416">
        <time>2022-07-10T14:03:10Z</time>
      </trkpt>
      <trkpt lat="41.779366" lon="2.5572987">
        <time>2022-07-10T14:03:11Z</time>
      </trkpt>
      <trkpt lat="41.779316" lon="2.557255">
        <time>2022-07-10T14:03:12Z</time>
      </trkpt>
      <trkpt lat="41.779266" lon="2.5572102">
        <time>2022-07-10T14:03:13Z</time>
      </trkpt>
      <trkpt lat="41.779213" lon="2.5571659">
        <time>2022-07-10T14:03:14Z</time>
      </trkpt>
      <trkpt lat="41.77916" lon="2.557121">
        <time>2022-07-10T14:03:15Z</time>
      </trkpt>
      <trkpt lat="41.779106" lon="2.557075">
        <time>2022-07-10T14:03:16Z</time>
      </trkpt>
      <trkpt lat="41.779053" lon="2.5570276">
        <time>2022-07-10T14:03:17Z</time>
      </trkpt>
      <trkpt lat="41.779003" lon="2.55698">
        <time>2022-07-10T14:03:18Z</time>
      </trkpt>
      <trkpt lat="41.77895" lon="2.556933">
        <time>2022-07-10T14:03:19Z</time>
      </trkpt>
      <trkpt lat="41.778893" lon="2.5568864">
        <time>2022-07-10T14:03:20Z</time>
      </trkpt>
      <trkpt lat="41.77884" lon="2.5568414">
        <time>2022-07-10T14:03:21Z</time>
      </trkpt>
      <trkpt lat="41.778786" lon="2.5567973">
        <time>2022-07-10T14:03:22Z</time>
      </trkpt>
      <trkpt lat="41.77873" lon="2.5567536">
        <time>2022-07-10T14:03:23Z</time>
      </trkpt>
      <trkpt lat="41.77867" lon="2.556711">
        <time>2022-07-10T14:03:24Z</time>
      </trkpt>
      <trkpt lat="41.77862" lon="2.5566714">
        <time>2022-07-10T14:03:25Z</time>
      </trkpt>
      <trkpt lat="41.778564" lon="2.556633">
        <time>2022-07-10T14:03:26Z</time>
      </trkpt>
      <trkpt lat="41.77851" lon="2.556596">
        <time>2022-07-10T14:03:27Z</time>
      </trkpt>
      <trkpt lat="41.778454" lon="2.556562">
        <time>2022-07-10T14:03:28Z</time>
      </trkpt>
      <trkpt lat="41.778393" lon="2.5565314">
        <time>2022-07-10T14:03:29Z</time>
      </trkpt>
      <trkpt lat="41.778336" lon="2.5565076">
        <time>2022-07-10T14:03:30Z</time>
      </trkpt>
      <trkpt lat="41.778275" lon="2.5564866">
        <time>2022-07-10T14:03:31Z</time>
      </trkpt>
      <trkpt lat="41.778214" lon="2.5564673">
        <time>2022-07-10T14:03:32Z</time>
      </trkpt>
      <trkpt lat="41.778152" lon="2.5564513">
        <time>2022-07-10T14:03:33Z</time>
      </trkpt>
      <trkpt lat="41.778088" lon="2.5564384">
        <time>2022-07-10T14:03:34Z</time>
      </trkpt>
      <trkpt lat="41.77802" lon="2.5564284">
        <time>2022-07-10T14:03:35Z</time>
      </trkpt>
      <trkpt lat="41.777954" lon="2.5564225">
        <time>2022-07-10T14:03:36Z</time>
      </trkpt>
      <trkpt lat="41.77789" lon="2.5564213">
        <time>2022-07-10T14:03:37Z</time>
      </trkpt>
      <trkpt lat="41.777824" lon="2.5564253">
        <time>2022-07-10T14:03:38Z</time>
      </trkpt>
      <trkpt lat="41.777763" lon="2.5564353">
        <time>2022-07-10T14:03:39Z</time>
      </trkpt>
      <trkpt lat="41.777706" lon="2.5564497">
        <time>2022-07-10T14:03:40Z</time>
      </trkpt>
      <trkpt lat="41.77765" lon="2.556468">
        <time>2022-07-10T14:03:41Z</time>
      </trkpt>
      <trkpt lat="41.777596" lon="2.5564897">
        <time>2022-07-10T14:03:42Z</time>
      </trkpt>
      <trkpt lat="41.777542" lon="2.556516">
        <time>2022-07-10T14:03:43Z</time>
      </trkpt>
      <trkpt lat="41.777493" lon="2.5565486">
        <time>2022-07-10T14:03:44Z</time>
      </trkpt>
      <trkpt lat="41.777443" lon="2.5565853">
        <time>2022-07-10T14:03:45Z</time>
      </trkpt>
      <trkpt lat="41.777397" lon="2.5566254">
        <time>2022-07-10T14:03:46Z</time>
      </trkpt>
      <trkpt lat="41.77735" lon="2.556668">
        <time>2022-07-10T14:03:47Z</time>
      </trkpt>
      <trkpt lat="41.77731" lon="2.5567143">
        <time>2022-07-10T14:03:48Z</time>
      </trkpt>
      <trkpt lat="41.77727" lon="2.5567634">
        <time>2022-07-10T14:03:49Z</time>
      </trkpt>
      <trkpt lat="41.777233" lon="2.5568132">
        <time>2022-07-10T14:03:50Z</time>
      </trkpt>
      <trkpt lat="41.7772" lon="2.5568635">
        <time>2022-07-10T14:03:51Z</time>
      </trkpt>
      <trkpt lat="41.777164" lon="2.5569124">
        <time>2022-07-10T14:03:52Z</time>
      </trkpt>
      <trkpt lat="41.77713" lon="2.556962">
        <time>2022-07-10T14:03:53Z</time>
      </trkpt>
      <trkpt lat="41.777058" lon="2.557067">
        <time>2022-07-10T14:03:55Z</time>
      </trkpt>
      <trkpt lat="41.777027" lon="2.5571196">
        <time>2022-07-10T14:03:56Z</time>
      </trkpt>
      <trkpt lat="41.776962" lon="2.557221">
        <time>2022-07-10T14:03:58Z</time>
      </trkpt>
      <trkpt lat="41.77693" lon="2.5572712">
        <time>2022-07-10T14:03:59Z</time>
      </trkpt>
      <trkpt lat="41.776863" lon="2.5573785">
        <time>2022-07-10T14:04:01Z</time>
      </trkpt>
      <trkpt lat="41.776833" lon="2.5574317">
        <time>2022-07-10T14:04:02Z</time>
      </trkpt>
      <trkpt lat="41.776768" lon="2.557541">
        <time>2022-07-10T14:04:04Z</time>
      </trkpt>
      <trkpt lat="41.776733" lon="2.5575967">
        <time>2022-07-10T14:04:05Z</time>
      </trkpt>
      <trkpt lat="41.77669" lon="2.5576556">
        <time>2022-07-10T14:04:06Z</time>
      </trkpt>
      <trkpt lat="41.776653" lon="2.5577152">
        <time>2022-07-10T14:04:07Z</time>
      </trkpt>
      <trkpt lat="41.776615" lon="2.5577753">
        <time>2022-07-10T14:04:08Z</time>
      </trkpt>
      <trkpt lat="41.776577" lon="2.5578322">
        <time>2022-07-10T14:04:09Z</time>
      </trkpt>
      <trkpt lat="41.77654" lon="2.557894">
        <time>2022-07-10T14:04:10Z</time>
      </trkpt>
      <trkpt lat="41.7765" lon="2.5579553">
        <time>2022-07-10T14:04:11Z</time>
      </trkpt>
      <trkpt lat="41.77646" lon="2.558017">
        <time>2022-07-10T14:04:12Z</time>
      </trkpt>
      <trkpt lat="41.77642" lon="2.55808">
        <time>2022-07-10T14:04:13Z</time>
      </trkpt>
      <trkpt lat="41.776386" lon="2.5581439">
        <time>2022-07-10T14:04:14Z</time>
      </trkpt>
      <trkpt lat="41.776352" lon="2.55821">
        <time>2022-07-10T14:04:15Z</time>
      </trkpt>
      <trkpt lat="41.776318" lon="2.5582786">
        <time>2022-07-10T14:04:16Z</time>
      </trkpt>
      <trkpt lat="41.776287" lon="2.5583496">
        <time>2022-07-10T14:04:17Z</time>
      </trkpt>
      <trkpt lat="41.77626" lon="2.5584233">
        <time>2022-07-10T14:04:18Z</time>
      </trkpt>
      <trkpt lat="41.776237" lon="2.558501">
        <time>2022-07-10T14:04:19Z</time>
      </trkpt>
      <trkpt lat="41.77622" lon="2.5585825">
        <time>2022-07-10T14:04:20Z</time>
      </trkpt>
      <trkpt lat="41.776203" lon="2.5586681">
        <time>2022-07-10T14:04:21Z</time>
      </trkpt>
      <trkpt lat="41.77619" lon="2.5587559">
        <time>2022-07-10T14:04:22Z</time>
      </trkpt>
      <trkpt lat="41.77618" lon="2.558846">
        <time>2022-07-10T14:04:23Z</time>
      </trkpt>
      <trkpt lat="41.776173" lon="2.5589383">
        <time>2022-07-10T14:04:24Z</time>
      </trkpt>
      <trkpt lat="41.77616" lon="2.5590312">
        <time>2022-07-10T14:04:25Z</time>
      </trkpt>
      <trkpt lat="41.776154" lon="2.559126">
        <time>2022-07-10T14:04:26Z</time>
      </trkpt>
      <trkpt lat="41.776146" lon="2.559222">
        <time>2022-07-10T14:04:27Z</time>
      </trkpt>
      <trkpt lat="41.776142" lon="2.5593193">
        <time>2022-07-10T14:04:28Z</time>
      </trkpt>
      <trkpt lat="41.776134" lon="2.5594184">
        <time>2022-07-10T14:04:29Z</time>
      </trkpt>
      <trkpt lat="41.776134" lon="2.559517">
        <time>2022-07-10T14:04:30Z</time>
      </trkpt>
      <trkpt lat="41.77613" lon="2.5596209">
        <time>2022-07-10T14:04:31Z</time>
      </trkpt>
      <trkpt lat="41.776127" lon="2.5597239">
        <time>2022-07-10T14:04:32Z</time>
      </trkpt>
      <trkpt lat="41.776123" lon="2.559825">
        <time>2022-07-10T14:04:33Z</time>
      </trkpt>
      <trkpt lat="41.77612" lon="2.5599272">
        <time>2022-07-10T14:04:34Z</time>
      </trkpt>
      <trkpt lat="41.77612" lon="2.560033">
        <time>2022-07-10T14:04:35Z</time>
      </trkpt>
      <trkpt lat="41.776115" lon="2.56014">
        <time>2022-07-10T14:04:36Z</time>
      </trkpt>
      <trkpt lat="41.77611" lon="2.5602496">
        <time>2022-07-10T14:04:37Z</time>
      </trkpt>
      <trkpt lat="41.776108" lon="2.5603578">
        <time>2022-07-10T14:04:38Z</time>
      </trkpt>
      <trkpt lat="41.776104" lon="2.5604649">
        <time>2022-07-10T14:04:39Z</time>
      </trkpt>
      <trkpt lat="41.776096" lon="2.560563">
        <time>2022-07-10T14:04:40Z</time>
      </trkpt>
      <trkpt lat="41.776085" lon="2.56067">
        <time>2022-07-10T14:04:41Z</time>
      </trkpt>
      <trkpt lat="41.776073" lon="2.5607746">
        <time>2022-07-10T14:04:42Z</time>
      </trkpt>
      <trkpt lat="41.776054" lon="2.5608766">
        <time>2022-07-10T14:04:43Z</time>
      </trkpt>
      <trkpt lat="41.776035" lon="2.5609746">
        <time>2022-07-10T14:04:44Z</time>
      </trkpt>
      <trkpt lat="41.776012" lon="2.5610688">
        <time>2022-07-10T14:04:45Z</time>
      </trkpt>
      <trkpt lat="41.77598" lon="2.5611584">
        <time>2022-07-10T14:04:46Z</time>
      </trkpt>
      <trkpt lat="41.77595" lon="2.5612438">
        <time>2022-07-10T14:04:47Z</time>
      </trkpt>
      <trkpt lat="41.775913" lon="2.5613241">
        <time>2022-07-10T14:04:48Z</time>
      </trkpt>
      <trkpt lat="41.775867" lon="2.5613995">
        <time>2022-07-10T14:04:49Z</time>
      </trkpt>
      <trkpt lat="41.77582" lon="2.5614696">
        <time>2022-07-10T14:04:50Z</time>
      </trkpt>
      <trkpt lat="41.77577" lon="2.5615337">
        <time>2022-07-10T14:04:51Z</time>
      </trkpt>
      <trkpt lat="41.77571" lon="2.561593">
        <time>2022-07-10T14:04:52Z</time>
      </trkpt>
      <trkpt lat="41.77565" lon="2.5616484">
        <time>2022-07-10T14:04:53Z</time>
      </trkpt>
      <trkpt lat="41.775585" lon="2.561701">
        <time>2022-07-10T14:04:54Z</time>
      </trkpt>
      <trkpt lat="41.775517" lon="2.5617511">
        <time>2022-07-10T14:04:55Z</time>
      </trkpt>
      <trkpt lat="41.77545" lon="2.5617983">
        <time>2022-07-10T14:04:56Z</time>
      </trkpt>
      <trkpt lat="41.775383" lon="2.561841">
        <time>2022-07-10T14:04:57Z</time>
      </trkpt>
      <trkpt lat="41.775314" lon="2.5618858">
        <time>2022-07-10T14:04:58Z</time>
      </trkpt>
      <trkpt lat="41.775238" lon="2.561928">
        <time>2022-07-10T14:04:59Z</time>
      </trkpt>
      <trkpt lat="41.775166" lon="2.5619688">
        <time>2022-07-10T14:05:00Z</time>
      </trkpt>
      <trkpt lat="41.775093" lon="2.5620098">
        <time>2022-07-10T14:05:01Z</time>
      </trkpt>
      <trkpt lat="41.77502" lon="2.5620503">
        <time>2022-07-10T14:05:02Z</time>
      </trkpt>
      <trkpt lat="41.77487" lon="2.5621321">
        <time>2022-07-10T14:05:04Z</time>
      </trkpt>
      <trkpt lat="41.7748" lon="2.5621727">
        <time>2022-07-10T14:05:05Z</time>
      </trkpt>
      <trkpt lat="41.774723" lon="2.5622149">
        <time>2022-07-10T14:05:06Z</time>
      </trkpt>
      <trkpt lat="41.774647" lon="2.5622563">
        <time>2022-07-10T14:05:07Z</time>
      </trkpt>
      <trkpt lat="41.77457" lon="2.562299">
        <time>2022-07-10T14:05:08Z</time>
      </trkpt>
      <trkpt lat="41.774494" lon="2.5623434">
        <time>2022-07-10T14:05:09Z</time>
      </trkpt>
      <trkpt lat="41.774414" lon="2.562386">
        <time>2022-07-10T14:05:10Z</time>
      </trkpt>
      <trkpt lat="41.774338" lon="2.5624294">
        <time>2022-07-10T14:05:11Z</time>
      </trkpt>
      <trkpt lat="41.774258" lon="2.5624728">
        <time>2022-07-10T14:05:12Z</time>
      </trkpt>
      <trkpt lat="41.77418" lon="2.5625181">
        <time>2022-07-10T14:05:13Z</time>
      </trkpt>
      <trkpt lat="41.77411" lon="2.5625591">
        <time>2022-07-10T14:05:14Z</time>
      </trkpt>
      <trkpt lat="41.77403" lon="2.562603">
        <time>2022-07-10T14:05:15Z</time>
      </trkpt>
      <trkpt lat="41.773952" lon="2.5626454">
        <time>2022-07-10T14:05:16Z</time>
      </trkpt>
      <trkpt lat="41.773876" lon="2.5626874">
        <time>2022-07-10T14:05:17Z</time>
      </trkpt>
      <trkpt lat="41.773804" lon="2.5627267">
        <time>2022-07-10T14:05:18Z</time>
      </trkpt>
      <trkpt lat="41.77373" lon="2.562767">
        <time>2022-07-10T14:05:19Z</time>
      </trkpt>
      <trkpt lat="41.773655" lon="2.5628107">
        <time>2022-07-10T14:05:20Z</time>
      </trkpt>
      <trkpt lat="41.773575" lon="2.5628533">
        <time>2022-07-10T14:05:21Z</time>
      </trkpt>
      <trkpt lat="41.773502" lon="2.5628946">
        <time>2022-07-10T14:05:22Z</time>
      </trkpt>
      <trkpt lat="41.77343" lon="2.5629346">
        <time>2022-07-10T14:05:23Z</time>
      </trkpt>
      <trkpt lat="41.773357" lon="2.562975">
        <time>2022-07-10T14:05:24Z</time>
      </trkpt>
      <trkpt lat="41.773285" lon="2.5630164">
        <time>2022-07-10T14:05:25Z</time>
      </trkpt>
      <trkpt lat="41.773212" lon="2.563057">
        <time>2022-07-10T14:05:26Z</time>
      </trkpt>
      <trkpt lat="41.77314" lon="2.5630987">
        <time>2022-07-10T14:05:27Z</time>
      </trkpt>
      <trkpt lat="41.773064" lon="2.5631416">
        <time>2022-07-10T14:05:28Z</time>
      </trkpt>
      <trkpt lat="41.77299" lon="2.5631852">
        <time>2022-07-10T14:05:29Z</time>
      </trkpt>
      <trkpt lat="41.77292" lon="2.563228">
        <time>2022-07-10T14:05:30Z</time>
      </trkpt>
      <trkpt lat="41.772842" lon="2.5632713">
        <time>2022-07-10T14:05:31Z</time>
      </trkpt>
      <trkpt lat="41.772774" lon="2.563314">
        <time>2022-07-10T14:05:32Z</time>
      </trkpt>
      <trkpt lat="41.7727" lon="2.5633566">
        <time>2022-07-10T14:05:33Z</time>
      </trkpt>
      <trkpt lat="41.772633" lon="2.563402">
        <time>2022-07-10T14:05:34Z</time>
      </trkpt>
      <trkpt lat="41.772564" lon="2.5634449">
        <time>2022-07-10T14:05:35Z</time>
      </trkpt>
      <trkpt lat="41.77249" lon="2.56349">
        <time>2022-07-10T14:05:36Z</time>
      </trkpt>
      <trkpt lat="41.772427" lon="2.5635302">
        <time>2022-07-10T14:05:37Z</time>
      </trkpt>
      <trkpt lat="41.772358" lon="2.563572">
        <time>2022-07-10T14:05:38Z</time>
      </trkpt>
      <trkpt lat="41.772293" lon="2.563616">
        <time>2022-07-10T14:05:39Z</time>
      </trkpt>
      <trkpt lat="41.77223" lon="2.5636613">
        <time>2022-07-10T14:05:40Z</time>
      </trkpt>
      <trkpt lat="41.772167" lon="2.5637074">
        <time>2022-07-10T14:05:41Z</time>
      </trkpt>
      <trkpt lat="41.772102" lon="2.5637538">
        <time>2022-07-10T14:05:42Z</time>
      </trkpt>
      <trkpt lat="41.77204" lon="2.5638044">
        <time>2022-07-10T14:05:43Z</time>
      </trkpt>
      <trkpt lat="41.771984" lon="2.5638509">
        <time>2022-07-10T14:05:44Z</time>
      </trkpt>
      <trkpt lat="41.771927" lon="2.5638983">
        <time>2022-07-10T14:05:45Z</time>
      </trkpt>
      <trkpt lat="41.771877" lon="2.563947">
        <time>2022-07-10T14:05:46Z</time>
      </trkpt>
      <trkpt lat="41.771824" lon="2.5639956">
        <time>2022-07-10T14:05:47Z</time>
      </trkpt>
      <trkpt lat="41.77178" lon="2.5640445">
        <time>2022-07-10T14:05:48Z</time>
      </trkpt>
      <trkpt lat="41.771732" lon="2.5640934">
        <time>2022-07-10T14:05:49Z</time>
      </trkpt>
      <trkpt lat="41.77169" lon="2.5641432">
        <time>2022-07-10T14:05:50Z</time>
      </trkpt>
      <trkpt lat="41.77165" lon="2.5641947">
        <time>2022-07-10T14:05:51Z</time>
      </trkpt>
      <trkpt lat="41.771606" lon="2.5642467">
        <time>2022-07-10T14:05:52Z</time>
      </trkpt>
      <trkpt lat="41.771564" lon="2.5643003">
        <time>2022-07-10T14:05:53Z</time>
      </trkpt>
      <trkpt lat="41.771526" lon="2.564355">
        <time>2022-07-10T14:05:54Z</time>
      </trkpt>
      <trkpt lat="41.771492" lon="2.5644112">
        <time>2022-07-10T14:05:55Z</time>
      </trkpt>
      <trkpt lat="41.771454" lon="2.5644698">
        <time>2022-07-10T14:05:56Z</time>
      </trkpt>
      <trkpt lat="41.771423" lon="2.5645313">
        <time>2022-07-10T14:05:57Z</time>
      </trkpt>
      <trkpt lat="41.771393" lon="2.5645943">
        <time>2022-07-10T14:05:58Z</time>
      </trkpt>
      <trkpt lat="41.771362" lon="2.5646598">
        <time>2022-07-10T14:05:59Z</time>
      </trkpt>
      <trkpt lat="41.77133" lon="2.564729">
        <time>2022-07-10T14:06:00Z</time>
      </trkpt>
      <trkpt lat="41.77131" lon="2.5647998">
        <time>2022-07-10T14:06:01Z</time>
      </trkpt>
      <trkpt lat="41.771282" lon="2.5648715">
        <time>2022-07-10T14:06:02Z</time>
      </trkpt>
      <trkpt lat="41.771263" lon="2.5649447">
        <time>2022-07-10T14:06:03Z</time>
      </trkpt>
      <trkpt lat="41.771244" lon="2.5650198">
        <time>2022-07-10T14:06:04Z</time>
      </trkpt>
      <trkpt lat="41.77121" lon="2.5651696">
        <time>2022-07-10T14:06:06Z</time>
      </trkpt>
      <trkpt lat="41.7712" lon="2.5652442">
        <time>2022-07-10T14:06:07Z</time>
      </trkpt>
      <trkpt lat="41.771187" lon="2.5653188">
        <time>2022-07-10T14:06:08Z</time>
      </trkpt>
      <trkpt lat="41.77118" lon="2.5653934">
        <time>2022-07-10T14:06:09Z</time>
      </trkpt>
      <trkpt lat="41.771168" lon="2.565468">
        <time>2022-07-10T14:06:10Z</time>
      </trkpt>
      <trkpt lat="41.77116" lon="2.5655432">
        <time>2022-07-10T14:06:11Z</time>
      </trkpt>
      <trkpt lat="41.771152" lon="2.5656183">
        <time>2022-07-10T14:06:12Z</time>
      </trkpt>
      <trkpt lat="41.77115" lon="2.5656934">
        <time>2022-07-10T14:06:13Z</time>
      </trkpt>
      <trkpt lat="41.771145" lon="2.5657687">
        <time>2022-07-10T14:06:14Z</time>
      </trkpt>
      <trkpt lat="41.771137" lon="2.5658448">
        <time>2022-07-10T14:06:15Z</time>
      </trkpt>
      <trkpt lat="41.771133" lon="2.5659225">
        <time>2022-07-10T14:06:16Z</time>
      </trkpt>
      <trkpt lat="41.77113" lon="2.5660007">
        <time>2022-07-10T14:06:17Z</time>
      </trkpt>
      <trkpt lat="41.771126" lon="2.5660806">
        <time>2022-07-10T14:06:18Z</time>
      </trkpt>
      <trkpt lat="41.771122" lon="2.5661612">
        <time>2022-07-10T14:06:19Z</time>
      </trkpt>
      <trkpt lat="41.771122" lon="2.5662432">
        <time>2022-07-10T14:06:20Z</time>
      </trkpt>
      <trkpt lat="41.771122" lon="2.5663276">
        <time>2022-07-10T14:06:21Z</time>
      </trkpt>
      <trkpt lat="41.771122" lon="2.5664124">
        <time>2022-07-10T14:06:22Z</time>
      </trkpt>
      <trkpt lat="41.771122" lon="2.5664976">
        <time>2022-07-10T14:06:23Z</time>
      </trkpt>
      <trkpt lat="41.77112" lon="2.5665817">
        <time>2022-07-10T14:06:24Z</time>
      </trkpt>
      <trkpt lat="41.77112" lon="2.566667">
        <time>2022-07-10T14:06:25Z</time>
      </trkpt>
      <trkpt lat="41.771114" lon="2.5667531">
        <time>2022-07-10T14:06:26Z</time>
      </trkpt>
      <trkpt lat="41.77111" lon="2.5668397">
        <time>2022-07-10T14:06:27Z</time>
      </trkpt>
      <trkpt lat="41.771107" lon="2.5669267">
        <time>2022-07-10T14:06:28Z</time>
      </trkpt>
      <trkpt lat="41.771103" lon="2.5670145">
        <time>2022-07-10T14:06:29Z</time>
      </trkpt>
      <trkpt lat="41.7711" lon="2.5671048">
        <time>2022-07-10T14:06:30Z</time>
      </trkpt>
      <trkpt lat="41.7711" lon="2.5671957">
        <time>2022-07-10T14:06:31Z</time>
      </trkpt>
      <trkpt lat="41.771095" lon="2.5672855">
        <time>2022-07-10T14:06:32Z</time>
      </trkpt>
      <trkpt lat="41.771095" lon="2.5673761">
        <time>2022-07-10T14:06:33Z</time>
      </trkpt>
      <trkpt lat="41.77109" lon="2.567467">
        <time>2022-07-10T14:06:34Z</time>
      </trkpt>
      <trkpt lat="41.77109" lon="2.567558">
        <time>2022-07-10T14:06:35Z</time>
      </trkpt>
      <trkpt lat="41.771088" lon="2.567656">
        <time>2022-07-10T14:06:36Z</time>
      </trkpt>
      <trkpt lat="41.771088" lon="2.5677464">
        <time>2022-07-10T14:06:37Z</time>
      </trkpt>
      <trkpt lat="41.771084" lon="2.5678384">
        <time>2022-07-10T14:06:38Z</time>
      </trkpt>
      <trkpt lat="41.77108" lon="2.5679317">
        <time>2022-07-10T14:06:39Z</time>
      </trkpt>
      <trkpt lat="41.771076" lon="2.5680268">
        <time>2022-07-10T14:06:40Z</time>
      </trkpt>
      <trkpt lat="41.771072" lon="2.5681233">
        <time>2022-07-10T14:06:41Z</time>
      </trkpt>
      <trkpt lat="41.77107" lon="2.5682209">
        <time>2022-07-10T14:06:42Z</time>
      </trkpt>
      <trkpt lat="41.77107" lon="2.5683188">
        <time>2022-07-10T14:06:43Z</time>
      </trkpt>
      <trkpt lat="41.771065" lon="2.568417">
        <time>2022-07-10T14:06:44Z</time>
      </trkpt>
      <trkpt lat="41.77106" lon="2.568515">
        <time>2022-07-10T14:06:45Z</time>
      </trkpt>
      <trkpt lat="41.771057" lon="2.5686195">
        <time>2022-07-10T14:06:46Z</time>
      </trkpt>
      <trkpt lat="41.771053" lon="2.5687208">
        <time>2022-07-10T14:06:47Z</time>
      </trkpt>
      <trkpt lat="41.77105" lon="2.56882">
        <time>2022-07-10T14:06:48Z</time>
      </trkpt>
      <trkpt lat="41.771046" lon="2.5689185">
        <time>2022-07-10T14:06:49Z</time>
      </trkpt>
      <trkpt lat="41.77104" lon="2.569016">
        <time>2022-07-10T14:06:50Z</time>
      </trkpt>
      <trkpt lat="41.771038" lon="2.569113">
        <time>2022-07-10T14:06:51Z</time>
      </trkpt>
      <trkpt lat="41.771034" lon="2.5692093">
        <time>2022-07-10T14:06:52Z</time>
      </trkpt>
      <trkpt lat="41.77103" lon="2.569304">
        <time>2022-07-10T14:06:53Z</time>
      </trkpt>
      <trkpt lat="41.771027" lon="2.569397">
        <time>2022-07-10T14:06:54Z</time>
      </trkpt>
      <trkpt lat="41.771023" lon="2.5694895">
        <time>2022-07-10T14:06:55Z</time>
      </trkpt>
      <trkpt lat="41.77102" lon="2.5695813">
        <time>2022-07-10T14:06:56Z</time>
      </trkpt>
      <trkpt lat="41.771015" lon="2.5696738">
        <time>2022-07-10T14:06:57Z</time>
      </trkpt>
      <trkpt lat="41.77101" lon="2.569767">
        <time>2022-07-10T14:06:58Z</time>
      </trkpt>
      <trkpt lat="41.771004" lon="2.5698605">
        <time>2022-07-10T14:06:59Z</time>
      </trkpt>
      <trkpt lat="41.771" lon="2.569953">
        <time>2022-07-10T14:07:00Z</time>
      </trkpt>
      <trkpt lat="41.770996" lon="2.5700452">
        <time>2022-07-10T14:07:01Z</time>
      </trkpt>
      <trkpt lat="41.770992" lon="2.5701387">
        <time>2022-07-10T14:07:02Z</time>
      </trkpt>
      <trkpt lat="41.77099" lon="2.5702326">
        <time>2022-07-10T14:07:03Z</time>
      </trkpt>
      <trkpt lat="41.770985" lon="2.5703263">
        <time>2022-07-10T14:07:04Z</time>
      </trkpt>
      <trkpt lat="41.770985" lon="2.5704198">
        <time>2022-07-10T14:07:05Z</time>
      </trkpt>
      <trkpt lat="41.77098" lon="2.5705128">
        <time>2022-07-10T14:07:06Z</time>
      </trkpt>
      <trkpt lat="41.770977" lon="2.5706062">
        <time>2022-07-10T14:07:07Z</time>
      </trkpt>
      <trkpt lat="41.770973" lon="2.5707874">
        <time>2022-07-10T14:07:09Z</time>
      </trkpt>
      <trkpt lat="41.77097" lon="2.5708826">
        <time>2022-07-10T14:07:10Z</time>
      </trkpt>
      <trkpt lat="41.770966" lon="2.57098">
        <time>2022-07-10T14:07:11Z</time>
      </trkpt>
      <trkpt lat="41.77096" lon="2.571084">
        <time>2022-07-10T14:07:12Z</time>
      </trkpt>
      <trkpt lat="41.770958" lon="2.5711854">
        <time>2022-07-10T14:07:13Z</time>
      </trkpt>
      <trkpt lat="41.770954" lon="2.571278">
        <time>2022-07-10T14:07:14Z</time>
      </trkpt>
      <trkpt lat="41.77095" lon="2.5713716">
        <time>2022-07-10T14:07:15Z</time>
      </trkpt>
      <trkpt lat="41.770947" lon="2.5714643">
        <time>2022-07-10T14:07:16Z</time>
      </trkpt>
      <trkpt lat="41.770943" lon="2.5715547">
        <time>2022-07-10T14:07:17Z</time>
      </trkpt>
      <trkpt lat="41.77094" lon="2.571644">
        <time>2022-07-10T14:07:18Z</time>
      </trkpt>
      <trkpt lat="41.77093" lon="2.5717323">
        <time>2022-07-10T14:07:19Z</time>
      </trkpt>
      <trkpt lat="41.770927" lon="2.5718184">
        <time>2022-07-10T14:07:20Z</time>
      </trkpt>
      <trkpt lat="41.770927" lon="2.571903">
        <time>2022-07-10T14:07:21Z</time>
      </trkpt>
      <trkpt lat="41.770924" lon="2.571986">
        <time>2022-07-10T14:07:22Z</time>
      </trkpt>
      <trkpt lat="41.770924" lon="2.572073">
        <time>2022-07-10T14:07:23Z</time>
      </trkpt>
      <trkpt lat="41.770924" lon="2.5721574">
        <time>2022-07-10T14:07:24Z</time>
      </trkpt>
      <trkpt lat="41.77092" lon="2.5722353">
        <time>2022-07-10T14:07:25Z</time>
      </trkpt>
      <trkpt lat="41.77092" lon="2.5723126">
        <time>2022-07-10T14:07:26Z</time>
      </trkpt>
      <trkpt lat="41.770916" lon="2.5723946">
        <time>2022-07-10T14:07:27Z</time>
      </trkpt>
      <trkpt lat="41.770916" lon="2.5724747">
        <time>2022-07-10T14:07:28Z</time>
      </trkpt>
      <trkpt lat="41.770912" lon="2.5725539">
        <time>2022-07-10T14:07:29Z</time>
      </trkpt>
      <trkpt lat="41.77091" lon="2.5726333">
        <time>2022-07-10T14:07:30Z</time>
      </trkpt>
      <trkpt lat="41.770905" lon="2.5727134">
        <time>2022-07-10T14:07:31Z</time>
      </trkpt>
      <trkpt lat="41.770905" lon="2.5727935">
        <time>2022-07-10T14:07:32Z</time>
      </trkpt>
      <trkpt lat="41.7709" lon="2.5728736">
        <time>2022-07-10T14:07:33Z</time>
      </trkpt>
      <trkpt lat="41.7709" lon="2.5729532">
        <time>2022-07-10T14:07:34Z</time>
      </trkpt>
      <trkpt lat="41.770905" lon="2.5730329">
        <time>2022-07-10T14:07:35Z</time>
      </trkpt>
      <trkpt lat="41.7709" lon="2.5731122">
        <time>2022-07-10T14:07:36Z</time>
      </trkpt>
      <trkpt lat="41.7709" lon="2.5731912">
        <time>2022-07-10T14:07:37Z</time>
      </trkpt>
      <trkpt lat="41.7709" lon="2.5732706">
        <time>2022-07-10T14:07:38Z</time>
      </trkpt>
      <trkpt lat="41.770897" lon="2.5733511">
        <time>2022-07-10T14:07:39Z</time>
      </trkpt>
      <trkpt lat="41.770893" lon="2.5734332">
        <time>2022-07-10T14:07:40Z</time>
      </trkpt>
      <trkpt lat="41.770893" lon="2.5735173">
        <time>2022-07-10T14:07:41Z</time>
      </trkpt>
      <trkpt lat="41.770893" lon="2.5736022">
        <time>2022-07-10T14:07:42Z</time>
      </trkpt>
      <trkpt lat="41.77089" lon="2.573689">
        <time>2022-07-10T14:07:43Z</time>
      </trkpt>
      <trkpt lat="41.77089" lon="2.5737765">
        <time>2022-07-10T14:07:44Z</time>
      </trkpt>
      <trkpt lat="41.770885" lon="2.5738645">
        <time>2022-07-10T14:07:45Z</time>
      </trkpt>
      <trkpt lat="41.77088" lon="2.5739527">
        <time>2022-07-10T14:07:46Z</time>
      </trkpt>
      <trkpt lat="41.770878" lon="2.5740402">
        <time>2022-07-10T14:07:47Z</time>
      </trkpt>
      <trkpt lat="41.770878" lon="2.574128">
        <time>2022-07-10T14:07:48Z</time>
      </trkpt>
      <trkpt lat="41.77087" lon="2.5742157">
        <time>2022-07-10T14:07:49Z</time>
      </trkpt>
      <trkpt lat="41.770866" lon="2.5743015">
        <time>2022-07-10T14:07:50Z</time>
      </trkpt>
      <trkpt lat="41.770863" lon="2.5743868">
        <time>2022-07-10T14:07:51Z</time>
      </trkpt>
      <trkpt lat="41.770855" lon="2.5744703">
        <time>2022-07-10T14:07:52Z</time>
      </trkpt>
      <trkpt lat="41.77085" lon="2.5745523">
        <time>2022-07-10T14:07:53Z</time>
      </trkpt>
      <trkpt lat="41.770844" lon="2.5746322">
        <time>2022-07-10T14:07:54Z</time>
      </trkpt>
      <trkpt lat="41.77084" lon="2.574711">
        <time>2022-07-10T14:07:55Z</time>
      </trkpt>
      <trkpt lat="41.770836" lon="2.5747888">
        <time>2022-07-10T14:07:56Z</time>
      </trkpt>
      <trkpt lat="41.770832" lon="2.5748656">
        <time>2022-07-10T14:07:57Z</time>
      </trkpt>
      <trkpt lat="41.77083" lon="2.5749412">
        <time>2022-07-10T14:07:58Z</time>
      </trkpt>
      <trkpt lat="41.770824" lon="2.5750108">
        <time>2022-07-10T14:07:59Z</time>
      </trkpt>
      <trkpt lat="41.770817" lon="2.5751579">
        <time>2022-07-10T14:08:01Z</time>
      </trkpt>
      <trkpt lat="41.770813" lon="2.57523">
        <time>2022-07-10T14:08:02Z</time>
      </trkpt>
      <trkpt lat="41.77081" lon="2.575303">
        <time>2022-07-10T14:08:03Z</time>
      </trkpt>
      <trkpt lat="41.770805" lon="2.5753767">
        <time>2022-07-10T14:08:04Z</time>
      </trkpt>
      <trkpt lat="41.7708" lon="2.5754576">
        <time>2022-07-10T14:08:05Z</time>
      </trkpt>
      <trkpt lat="41.770798" lon="2.5755382">
        <time>2022-07-10T14:08:06Z</time>
      </trkpt>
      <trkpt lat="41.770798" lon="2.5756128">
        <time>2022-07-10T14:08:07Z</time>
      </trkpt>
      <trkpt lat="41.770794" lon="2.5756905">
        <time>2022-07-10T14:08:08Z</time>
      </trkpt>
      <trkpt lat="41.770794" lon="2.5757754">
        <time>2022-07-10T14:08:09Z</time>
      </trkpt>
      <trkpt lat="41.77079" lon="2.5758598">
        <time>2022-07-10T14:08:10Z</time>
      </trkpt>
      <trkpt lat="41.770786" lon="2.5759444">
        <time>2022-07-10T14:08:11Z</time>
      </trkpt>
      <trkpt lat="41.770782" lon="2.5760298">
        <time>2022-07-10T14:08:12Z</time>
      </trkpt>
      <trkpt lat="41.770782" lon="2.5761101">
        <time>2022-07-10T14:08:13Z</time>
      </trkpt>
      <trkpt lat="41.77078" lon="2.5761917">
        <time>2022-07-10T14:08:14Z</time>
      </trkpt>
      <trkpt lat="41.77078" lon="2.5763674">
        <time>2022-07-10T14:08:16Z</time>
      </trkpt>
      <trkpt lat="41.770775" lon="2.5764542">
        <time>2022-07-10T14:08:17Z</time>
      </trkpt>
      <trkpt lat="41.77077" lon="2.5765345">
        <time>2022-07-10T14:08:18Z</time>
      </trkpt>
      <trkpt lat="41.77077" lon="2.576617">
        <time>2022-07-10T14:08:19Z</time>
      </trkpt>
      <trkpt lat="41.770767" lon="2.5767004">
        <time>2022-07-10T14:08:20Z</time>
      </trkpt>
      <trkpt lat="41.770767" lon="2.5767899">
        <time>2022-07-10T14:08:21Z</time>
      </trkpt>
      <trkpt lat="41.770767" lon="2.576878">
        <time>2022-07-10T14:08:22Z</time>
      </trkpt>
      <trkpt lat="41.770763" lon="2.5769668">
        <time>2022-07-10T14:08:23Z</time>
      </trkpt>
      <trkpt lat="41.770763" lon="2.57705">
        <time>2022-07-10T14:08:24Z</time>
      </trkpt>
      <trkpt lat="41.770763" lon="2.5771358">
        <time>2022-07-10T14:08:25Z</time>
      </trkpt>
      <trkpt lat="41.770763" lon="2.5772288">
        <time>2022-07-10T14:08:26Z</time>
      </trkpt>
      <trkpt lat="41.77076" lon="2.5773146">
        <time>2022-07-10T14:08:27Z</time>
      </trkpt>
      <trkpt lat="41.77076" lon="2.5774016">
        <time>2022-07-10T14:08:28Z</time>
      </trkpt>
      <trkpt lat="41.770756" lon="2.5774891">
        <time>2022-07-10T14:08:29Z</time>
      </trkpt>
      <trkpt lat="41.770752" lon="2.577577">
        <time>2022-07-10T14:08:30Z</time>
      </trkpt>
      <trkpt lat="41.770752" lon="2.577672">
        <time>2022-07-10T14:08:31Z</time>
      </trkpt>
      <trkpt lat="41.77075" lon="2.5777664">
        <time>2022-07-10T14:08:32Z</time>
      </trkpt>
      <trkpt lat="41.770744" lon="2.5778604">
        <time>2022-07-10T14:08:33Z</time>
      </trkpt>
      <trkpt lat="41.770744" lon="2.5779548">
        <time>2022-07-10T14:08:34Z</time>
      </trkpt>
      <trkpt lat="41.77074" lon="2.578049">
        <time>2022-07-10T14:08:35Z</time>
      </trkpt>
      <trkpt lat="41.770737" lon="2.5781434">
        <time>2022-07-10T14:08:36Z</time>
      </trkpt>
      <trkpt lat="41.770737" lon="2.5782318">
        <time>2022-07-10T14:08:37Z</time>
      </trkpt>
      <trkpt lat="41.770733" lon="2.5783303">
        <time>2022-07-10T14:08:38Z</time>
      </trkpt>
      <trkpt lat="41.77073" lon="2.5784297">
        <time>2022-07-10T14:08:39Z</time>
      </trkpt>
      <trkpt lat="41.770725" lon="2.578523">
        <time>2022-07-10T14:08:40Z</time>
      </trkpt>
      <trkpt lat="41.770718" lon="2.5786188">
        <time>2022-07-10T14:08:41Z</time>
      </trkpt>
      <trkpt lat="41.770714" lon="2.5787234">
        <time>2022-07-10T14:08:42Z</time>
      </trkpt>
      <trkpt lat="41.77071" lon="2.578827">
        <time>2022-07-10T14:08:43Z</time>
      </trkpt>
      <trkpt lat="41.77071" lon="2.5789232">
        <time>2022-07-10T14:08:44Z</time>
      </trkpt>
      <trkpt lat="41.770706" lon="2.579021">
        <time>2022-07-10T14:08:45Z</time>
      </trkpt>
      <trkpt lat="41.770706" lon="2.579119">
        <time>2022-07-10T14:08:46Z</time>
      </trkpt>
      <trkpt lat="41.770706" lon="2.5792236">
        <time>2022-07-10T14:08:47Z</time>
      </trkpt>
      <trkpt lat="41.770706" lon="2.5793192">
        <time>2022-07-10T14:08:48Z</time>
      </trkpt>
      <trkpt lat="41.770706" lon="2.5794218">
        <time>2022-07-10T14:08:49Z</time>
      </trkpt>
      <trkpt lat="41.770702" lon="2.5795157">
        <time>2022-07-10T14:08:50Z</time>
      </trkpt>
      <trkpt lat="41.770702" lon="2.5796113">
        <time>2022-07-10T14:08:51Z</time>
      </trkpt>
      <trkpt lat="41.770702" lon="2.579707">
        <time>2022-07-10T14:08:52Z</time>
      </trkpt>
      <trkpt lat="41.7707" lon="2.5798106">
        <time>2022-07-10T14:08:53Z</time>
      </trkpt>
      <trkpt lat="41.770695" lon="2.5799062">
        <time>2022-07-10T14:08:54Z</time>
      </trkpt>
      <trkpt lat="41.77069" lon="2.580008">
        <time>2022-07-10T14:08:55Z</time>
      </trkpt>
      <trkpt lat="41.770683" lon="2.5800996">
        <time>2022-07-10T14:08:56Z</time>
      </trkpt>
      <trkpt lat="41.770676" lon="2.5801919">
        <time>2022-07-10T14:08:57Z</time>
      </trkpt>
      <trkpt lat="41.770668" lon="2.5802839">
        <time>2022-07-10T14:08:58Z</time>
      </trkpt>
      <trkpt lat="41.77066" lon="2.580376">
        <time>2022-07-10T14:08:59Z</time>
      </trkpt>
      <trkpt lat="41.77065" lon="2.580468">
        <time>2022-07-10T14:09:00Z</time>
      </trkpt>
      <trkpt lat="41.770638" lon="2.5805585">
        <time>2022-07-10T14:09:01Z</time>
      </trkpt>
      <trkpt lat="41.770626" lon="2.580648">
        <time>2022-07-10T14:09:02Z</time>
      </trkpt>
      <trkpt lat="41.770607" lon="2.5807369">
        <time>2022-07-10T14:09:03Z</time>
      </trkpt>
      <trkpt lat="41.770588" lon="2.5808244">
        <time>2022-07-10T14:09:04Z</time>
      </trkpt>
      <trkpt lat="41.770565" lon="2.580914">
        <time>2022-07-10T14:09:05Z</time>
      </trkpt>
      <trkpt lat="41.77054" lon="2.5809944">
        <time>2022-07-10T14:09:06Z</time>
      </trkpt>
      <trkpt lat="41.770508" lon="2.5810726">
        <time>2022-07-10T14:09:07Z</time>
      </trkpt>
      <trkpt lat="41.77047" lon="2.5811486">
        <time>2022-07-10T14:09:08Z</time>
      </trkpt>
      <trkpt lat="41.770428" lon="2.581225">
        <time>2022-07-10T14:09:09Z</time>
      </trkpt>
      <trkpt lat="41.77038" lon="2.5812955">
        <time>2022-07-10T14:09:10Z</time>
      </trkpt>
      <trkpt lat="41.77033" lon="2.581362">
        <time>2022-07-10T14:09:11Z</time>
      </trkpt>
      <trkpt lat="41.77028" lon="2.581424">
        <time>2022-07-10T14:09:12Z</time>
      </trkpt>
      <trkpt lat="41.77023" lon="2.5814788">
        <time>2022-07-10T14:09:13Z</time>
      </trkpt>
      <trkpt lat="41.770172" lon="2.5815337">
        <time>2022-07-10T14:09:14Z</time>
      </trkpt>
      <trkpt lat="41.770115" lon="2.5815842">
        <time>2022-07-10T14:09:15Z</time>
      </trkpt>
      <trkpt lat="41.770054" lon="2.5816302">
        <time>2022-07-10T14:09:16Z</time>
      </trkpt>
      <trkpt lat="41.769997" lon="2.5816708">
        <time>2022-07-10T14:09:17Z</time>
      </trkpt>
      <trkpt lat="41.76994" lon="2.5817113">
        <time>2022-07-10T14:09:18Z</time>
      </trkpt>
      <trkpt lat="41.769814" lon="2.5817943">
        <time>2022-07-10T14:09:20Z</time>
      </trkpt>
      <trkpt lat="41.769753" lon="2.5818346">
        <time>2022-07-10T14:09:21Z</time>
      </trkpt>
      <trkpt lat="41.769688" lon="2.5818746">
        <time>2022-07-10T14:09:22Z</time>
      </trkpt>
      <trkpt lat="41.769623" lon="2.5819142">
        <time>2022-07-10T14:09:23Z</time>
      </trkpt>
      <trkpt lat="41.769558" lon="2.581955">
        <time>2022-07-10T14:09:24Z</time>
      </trkpt>
      <trkpt lat="41.76949" lon="2.5819955">
        <time>2022-07-10T14:09:25Z</time>
      </trkpt>
      <trkpt lat="41.769424" lon="2.5820363">
        <time>2022-07-10T14:09:26Z</time>
      </trkpt>
      <trkpt lat="41.76936" lon="2.582076">
        <time>2022-07-10T14:09:27Z</time>
      </trkpt>
      <trkpt lat="41.76929" lon="2.582115">
        <time>2022-07-10T14:09:28Z</time>
      </trkpt>
      <trkpt lat="41.769226" lon="2.5821502">
        <time>2022-07-10T14:09:29Z</time>
      </trkpt>
      <trkpt lat="41.769157" lon="2.5821908">
        <time>2022-07-10T14:09:30Z</time>
      </trkpt>
      <trkpt lat="41.76909" lon="2.5822318">
        <time>2022-07-10T14:09:31Z</time>
      </trkpt>
      <trkpt lat="41.769024" lon="2.5822737">
        <time>2022-07-10T14:09:32Z</time>
      </trkpt>
      <trkpt lat="41.768955" lon="2.5823154">
        <time>2022-07-10T14:09:33Z</time>
      </trkpt>
      <trkpt lat="41.76889" lon="2.5823565">
        <time>2022-07-10T14:09:34Z</time>
      </trkpt>
      <trkpt lat="41.768826" lon="2.582395">
        <time>2022-07-10T14:09:35Z</time>
      </trkpt>
      <trkpt lat="41.76876" lon="2.5824358">
        <time>2022-07-10T14:09:36Z</time>
      </trkpt>
      <trkpt lat="41.76869" lon="2.5824785">
        <time>2022-07-10T14:09:37Z</time>
      </trkpt>
      <trkpt lat="41.768616" lon="2.5825205">
        <time>2022-07-10T14:09:38Z</time>
      </trkpt>
      <trkpt lat="41.768547" lon="2.5825624">
        <time>2022-07-10T14:09:39Z</time>
      </trkpt>
      <trkpt lat="41.76848" lon="2.5826058">
        <time>2022-07-10T14:09:40Z</time>
      </trkpt>
      <trkpt lat="41.76841" lon="2.5826478">
        <time>2022-07-10T14:09:41Z</time>
      </trkpt>
      <trkpt lat="41.76834" lon="2.5826888">
        <time>2022-07-10T14:09:42Z</time>
      </trkpt>
      <trkpt lat="41.768276" lon="2.5827289">
        <time>2022-07-10T14:09:43Z</time>
      </trkpt>
      <trkpt lat="41.768208" lon="2.582769">
        <time>2022-07-10T14:09:44Z</time>
      </trkpt>
      <trkpt lat="41.768143" lon="2.5828087">
        <time>2022-07-10T14:09:45Z</time>
      </trkpt>
      <trkpt lat="41.768074" lon="2.5828485">
        <time>2022-07-10T14:09:46Z</time>
      </trkpt>
      <trkpt lat="41.76801" lon="2.5828881">
        <time>2022-07-10T14:09:47Z</time>
      </trkpt>
      <trkpt lat="41.76794" lon="2.5829268">
        <time>2022-07-10T14:09:48Z</time>
      </trkpt>
      <trkpt lat="41.767876" lon="2.5829659">
        <time>2022-07-10T14:09:49Z</time>
      </trkpt>
      <trkpt lat="41.76781" lon="2.5830052">
        <time>2022-07-10T14:09:50Z</time>
      </trkpt>
      <trkpt lat="41.767746" lon="2.5830455">
        <time>2022-07-10T14:09:51Z</time>
      </trkpt>
      <trkpt lat="41.76768" lon="2.5830855">
        <time>2022-07-10T14:09:52Z</time>
      </trkpt>
      <trkpt lat="41.767612" lon="2.583125">
        <time>2022-07-10T14:09:53Z</time>
      </trkpt>
      <trkpt lat="41.767548" lon="2.5831642">
        <time>2022-07-10T14:09:54Z</time>
      </trkpt>
      <trkpt lat="41.767483" lon="2.5832024">
        <time>2022-07-10T14:09:55Z</time>
      </trkpt>
      <trkpt lat="41.767414" lon="2.5832407">
        <time>2022-07-10T14:09:56Z</time>
      </trkpt>
      <trkpt lat="41.76735" lon="2.5832794">
        <time>2022-07-10T14:09:57Z</time>
      </trkpt>
      <trkpt lat="41.76728" lon="2.5833194">
        <time>2022-07-10T14:09:58Z</time>
      </trkpt>
      <trkpt lat="41.76722" lon="2.583357">
        <time>2022-07-10T14:09:59Z</time>
      </trkpt>
      <trkpt lat="41.767155" lon="2.583395">
        <time>2022-07-10T14:10:00Z</time>
      </trkpt>
      <trkpt lat="41.76709" lon="2.5834332">
        <time>2022-07-10T14:10:01Z</time>
      </trkpt>
      <trkpt lat="41.767025" lon="2.5834718">
        <time>2022-07-10T14:10:02Z</time>
      </trkpt>
      <trkpt lat="41.766956" lon="2.5835118">
        <time>2022-07-10T14:10:03Z</time>
      </trkpt>
      <trkpt lat="41.76689" lon="2.5835478">
        <time>2022-07-10T14:10:04Z</time>
      </trkpt>
      <trkpt lat="41.766823" lon="2.5835848">
        <time>2022-07-10T14:10:05Z</time>
      </trkpt>
      <trkpt lat="41.766758" lon="2.5836182">
        <time>2022-07-10T14:10:06Z</time>
      </trkpt>
      <trkpt lat="41.76669" lon="2.5836527">
        <time>2022-07-10T14:10:07Z</time>
      </trkpt>
      <trkpt lat="41.76662" lon="2.5836852">
        <time>2022-07-10T14:10:08Z</time>
      </trkpt>
      <trkpt lat="41.766556" lon="2.5837138">
        <time>2022-07-10T14:10:09Z</time>
      </trkpt>
      <trkpt lat="41.766487" lon="2.583739">
        <time>2022-07-10T14:10:10Z</time>
      </trkpt>
      <trkpt lat="41.76642" lon="2.5837636">
        <time>2022-07-10T14:10:11Z</time>
      </trkpt>
      <trkpt lat="41.76635" lon="2.5837867">
        <time>2022-07-10T14:10:12Z</time>
      </trkpt>
      <trkpt lat="41.766285" lon="2.5838084">
        <time>2022-07-10T14:10:13Z</time>
      </trkpt>
      <trkpt lat="41.766216" lon="2.5838268">
        <time>2022-07-10T14:10:14Z</time>
      </trkpt>
      <trkpt lat="41.766148" lon="2.5838444">
        <time>2022-07-10T14:10:15Z</time>
      </trkpt>
      <trkpt lat="41.766087" lon="2.583858">
        <time>2022-07-10T14:10:16Z</time>
      </trkpt>
      <trkpt lat="41.76602" lon="2.5838714">
        <time>2022-07-10T14:10:17Z</time>
      </trkpt>
      <trkpt lat="41.765957" lon="2.5838842">
        <time>2022-07-10T14:10:18Z</time>
      </trkpt>
      <trkpt lat="41.765892" lon="2.583897">
        <time>2022-07-10T14:10:19Z</time>
      </trkpt>
      <trkpt lat="41.765827" lon="2.583908">
        <time>2022-07-10T14:10:20Z</time>
      </trkpt>
      <trkpt lat="41.765762" lon="2.5839183">
        <time>2022-07-10T14:10:21Z</time>
      </trkpt>
      <trkpt lat="41.765694" lon="2.5839283">
        <time>2022-07-10T14:10:22Z</time>
      </trkpt>
      <trkpt lat="41.765564" lon="2.5839486">
        <time>2022-07-10T14:10:24Z</time>
      </trkpt>
      <trkpt lat="41.7655" lon="2.5839586">
        <time>2022-07-10T14:10:25Z</time>
      </trkpt>
      <trkpt lat="41.765434" lon="2.5839703">
        <time>2022-07-10T14:10:26Z</time>
      </trkpt>
      <trkpt lat="41.765366" lon="2.5839822">
        <time>2022-07-10T14:10:27Z</time>
      </trkpt>
      <trkpt lat="41.7653" lon="2.583995">
        <time>2022-07-10T14:10:28Z</time>
      </trkpt>
      <trkpt lat="41.765236" lon="2.5840073">
        <time>2022-07-10T14:10:29Z</time>
      </trkpt>
      <trkpt lat="41.76517" lon="2.5840206">
        <time>2022-07-10T14:10:30Z</time>
      </trkpt>
      <trkpt lat="41.76511" lon="2.5840347">
        <time>2022-07-10T14:10:31Z</time>
      </trkpt>
      <trkpt lat="41.76505" lon="2.5840504">
        <time>2022-07-10T14:10:32Z</time>
      </trkpt>
      <trkpt lat="41.764988" lon="2.5840664">
        <time>2022-07-10T14:10:33Z</time>
      </trkpt>
      <trkpt lat="41.76493" lon="2.5840836">
        <time>2022-07-10T14:10:34Z</time>
      </trkpt>
      <trkpt lat="41.76487" lon="2.5841024">
        <time>2022-07-10T14:10:35Z</time>
      </trkpt>
      <trkpt lat="41.764812" lon="2.5841227">
        <time>2022-07-10T14:10:36Z</time>
      </trkpt>
      <trkpt lat="41.764755" lon="2.5841455">
        <time>2022-07-10T14:10:37Z</time>
      </trkpt>
      <trkpt lat="41.764698" lon="2.5841706">
        <time>2022-07-10T14:10:38Z</time>
      </trkpt>
      <trkpt lat="41.764645" lon="2.5841987">
        <time>2022-07-10T14:10:39Z</time>
      </trkpt>
      <trkpt lat="41.76459" lon="2.58423">
        <time>2022-07-10T14:10:40Z</time>
      </trkpt>
      <trkpt lat="41.764538" lon="2.5842645">
        <time>2022-07-10T14:10:41Z</time>
      </trkpt>
      <trkpt lat="41.764484" lon="2.584301">
        <time>2022-07-10T14:10:42Z</time>
      </trkpt>
      <trkpt lat="41.76443" lon="2.584341">
        <time>2022-07-10T14:10:43Z</time>
      </trkpt>
      <trkpt lat="41.764378" lon="2.5843823">
        <time>2022-07-10T14:10:44Z</time>
      </trkpt>
      <trkpt lat="41.764324" lon="2.5844245">
        <time>2022-07-10T14:10:45Z</time>
      </trkpt>
      <trkpt lat="41.76427" lon="2.5844667">
        <time>2022-07-10T14:10:46Z</time>
      </trkpt>
      <trkpt lat="41.764217" lon="2.5845072">
        <time>2022-07-10T14:10:47Z</time>
      </trkpt>
      <trkpt lat="41.764168" lon="2.5845482">
        <time>2022-07-10T14:10:48Z</time>
      </trkpt>
      <trkpt lat="41.764114" lon="2.58459">
        <time>2022-07-10T14:10:49Z</time>
      </trkpt>
      <trkpt lat="41.76406" lon="2.5846322">
        <time>2022-07-10T14:10:50Z</time>
      </trkpt>
      <trkpt lat="41.764008" lon="2.5846763">
        <time>2022-07-10T14:10:51Z</time>
      </trkpt>
      <trkpt lat="41.763954" lon="2.5847204">
        <time>2022-07-10T14:10:52Z</time>
      </trkpt>
      <trkpt lat="41.7639" lon="2.5847645">
        <time>2022-07-10T14:10:53Z</time>
      </trkpt>
      <trkpt lat="41.76385" lon="2.5848103">
        <time>2022-07-10T14:10:54Z</time>
      </trkpt>
      <trkpt lat="41.763794" lon="2.5848558">
        <time>2022-07-10T14:10:55Z</time>
      </trkpt>
      <trkpt lat="41.76374" lon="2.5849013">
        <time>2022-07-10T14:10:56Z</time>
      </trkpt>
      <trkpt lat="41.763687" lon="2.5849452">
        <time>2022-07-10T14:10:57Z</time>
      </trkpt>
      <trkpt lat="41.763634" lon="2.5849895">
        <time>2022-07-10T14:10:58Z</time>
      </trkpt>
      <trkpt lat="41.763584" lon="2.585034">
        <time>2022-07-10T14:10:59Z</time>
      </trkpt>
      <trkpt lat="41.76353" lon="2.5850775">
        <time>2022-07-10T14:11:00Z</time>
      </trkpt>
      <trkpt lat="41.76348" lon="2.5851219">
        <time>2022-07-10T14:11:01Z</time>
      </trkpt>
      <trkpt lat="41.763428" lon="2.5851672">
        <time>2022-07-10T14:11:02Z</time>
      </trkpt>
      <trkpt lat="41.763374" lon="2.585213">
        <time>2022-07-10T14:11:03Z</time>
      </trkpt>
      <trkpt lat="41.763325" lon="2.5852575">
        <time>2022-07-10T14:11:04Z</time>
      </trkpt>
      <trkpt lat="41.76327" lon="2.5853012">
        <time>2022-07-10T14:11:05Z</time>
      </trkpt>
      <trkpt lat="41.763218" lon="2.5853453">
        <time>2022-07-10T14:11:06Z</time>
      </trkpt>
      <trkpt lat="41.76317" lon="2.5853896">
        <time>2022-07-10T14:11:07Z</time>
      </trkpt>
      <trkpt lat="41.763115" lon="2.5854332">
        <time>2022-07-10T14:11:08Z</time>
      </trkpt>
      <trkpt lat="41.763065" lon="2.5854762">
        <time>2022-07-10T14:11:09Z</time>
      </trkpt>
      <trkpt lat="41.763016" lon="2.5855186">
        <time>2022-07-10T14:11:10Z</time>
      </trkpt>
      <trkpt lat="41.762962" lon="2.5855615">
        <time>2022-07-10T14:11:11Z</time>
      </trkpt>
      <trkpt lat="41.762913" lon="2.585605">
        <time>2022-07-10T14:11:12Z</time>
      </trkpt>
      <trkpt lat="41.76286" lon="2.5856483">
        <time>2022-07-10T14:11:13Z</time>
      </trkpt>
      <trkpt lat="41.762806" lon="2.5856922">
        <time>2022-07-10T14:11:14Z</time>
      </trkpt>
      <trkpt lat="41.762756" lon="2.5857372">
        <time>2022-07-10T14:11:15Z</time>
      </trkpt>
      <trkpt lat="41.762703" lon="2.5857818">
        <time>2022-07-10T14:11:16Z</time>
      </trkpt>
      <trkpt lat="41.76265" lon="2.585828">
        <time>2022-07-10T14:11:17Z</time>
      </trkpt>
      <trkpt lat="41.762596" lon="2.5858738">
        <time>2022-07-10T14:11:18Z</time>
      </trkpt>
      <trkpt lat="41.762543" lon="2.5859182">
        <time>2022-07-10T14:11:19Z</time>
      </trkpt>
      <trkpt lat="41.76249" lon="2.5859632">
        <time>2022-07-10T14:11:20Z</time>
      </trkpt>
      <trkpt lat="41.762436" lon="2.5860078">
        <time>2022-07-10T14:11:21Z</time>
      </trkpt>
      <trkpt lat="41.762383" lon="2.586053">
        <time>2022-07-10T14:11:22Z</time>
      </trkpt>
      <trkpt lat="41.762333" lon="2.5860975">
        <time>2022-07-10T14:11:23Z</time>
      </trkpt>
      <trkpt lat="41.76228" lon="2.5861409">
        <time>2022-07-10T14:11:24Z</time>
      </trkpt>
      <trkpt lat="41.762226" lon="2.586183">
        <time>2022-07-10T14:11:25Z</time>
      </trkpt>
      <trkpt lat="41.762177" lon="2.5862267">
        <time>2022-07-10T14:11:26Z</time>
      </trkpt>
      <trkpt lat="41.762127" lon="2.5862706">
        <time>2022-07-10T14:11:27Z</time>
      </trkpt>
      <trkpt lat="41.762077" lon="2.5863144">
        <time>2022-07-10T14:11:28Z</time>
      </trkpt>
      <trkpt lat="41.761982" lon="2.5864055">
        <time>2022-07-10T14:11:30Z</time>
      </trkpt>
      <trkpt lat="41.761936" lon="2.5864534">
        <time>2022-07-10T14:11:31Z</time>
      </trkpt>
      <trkpt lat="41.761894" lon="2.5865042">
        <time>2022-07-10T14:11:32Z</time>
      </trkpt>
      <trkpt lat="41.761852" lon="2.5865571">
        <time>2022-07-10T14:11:33Z</time>
      </trkpt>
      <trkpt lat="41.761818" lon="2.5866134">
        <time>2022-07-10T14:11:34Z</time>
      </trkpt>
      <trkpt lat="41.761784" lon="2.586672">
        <time>2022-07-10T14:11:35Z</time>
      </trkpt>
      <trkpt lat="41.761753" lon="2.5867338">
        <time>2022-07-10T14:11:36Z</time>
      </trkpt>
      <trkpt lat="41.761726" lon="2.5867941">
        <time>2022-07-10T14:11:37Z</time>
      </trkpt>
      <trkpt lat="41.7617" lon="2.5868623">
        <time>2022-07-10T14:11:38Z</time>
      </trkpt>
      <trkpt lat="41.761673" lon="2.5869317">
        <time>2022-07-10T14:11:39Z</time>
      </trkpt>
      <trkpt lat="41.76165" lon="2.5870013">
        <time>2022-07-10T14:11:40Z</time>
      </trkpt>
      <trkpt lat="41.761623" lon="2.5870714">
        <time>2022-07-10T14:11:41Z</time>
      </trkpt>
      <trkpt lat="41.7616" lon="2.5871434">
        <time>2022-07-10T14:11:42Z</time>
      </trkpt>
      <trkpt lat="41.761574" lon="2.5872152">
        <time>2022-07-10T14:11:43Z</time>
      </trkpt>
      <trkpt lat="41.76155" lon="2.5872858">
        <time>2022-07-10T14:11:44Z</time>
      </trkpt>
      <trkpt lat="41.761528" lon="2.5873551">
        <time>2022-07-10T14:11:45Z</time>
      </trkpt>
      <trkpt lat="41.761505" lon="2.5874248">
        <time>2022-07-10T14:11:46Z</time>
      </trkpt>
      <trkpt lat="41.761486" lon="2.5874953">
        <time>2022-07-10T14:11:47Z</time>
      </trkpt>
      <trkpt lat="41.761463" lon="2.5875664">
        <time>2022-07-10T14:11:48Z</time>
      </trkpt>
      <trkpt lat="41.76144" lon="2.5876374">
        <time>2022-07-10T14:11:49Z</time>
      </trkpt>
      <trkpt lat="41.76142" lon="2.587707">
        <time>2022-07-10T14:11:50Z</time>
      </trkpt>
      <trkpt lat="41.7614" lon="2.5877767">
        <time>2022-07-10T14:11:51Z</time>
      </trkpt>
      <trkpt lat="41.761375" lon="2.5878458">
        <time>2022-07-10T14:11:52Z</time>
      </trkpt>
      <trkpt lat="41.761353" lon="2.5879145">
        <time>2022-07-10T14:11:53Z</time>
      </trkpt>
      <trkpt lat="41.76133" lon="2.5879831">
        <time>2022-07-10T14:11:54Z</time>
      </trkpt>
      <trkpt lat="41.76131" lon="2.588048">
        <time>2022-07-10T14:11:55Z</time>
      </trkpt>
      <trkpt lat="41.761288" lon="2.5881188">
        <time>2022-07-10T14:11:56Z</time>
      </trkpt>
      <trkpt lat="41.761265" lon="2.5881886">
        <time>2022-07-10T14:11:57Z</time>
      </trkpt>
      <trkpt lat="41.761242" lon="2.588258">
        <time>2022-07-10T14:11:58Z</time>
      </trkpt>
      <trkpt lat="41.761223" lon="2.5883214">
        <time>2022-07-10T14:11:59Z</time>
      </trkpt>
      <trkpt lat="41.761177" lon="2.5884607">
        <time>2022-07-10T14:12:01Z</time>
      </trkpt>
      <trkpt lat="41.761154" lon="2.58853">
        <time>2022-07-10T14:12:02Z</time>
      </trkpt>
      <trkpt lat="41.76113" lon="2.5886004">
        <time>2022-07-10T14:12:03Z</time>
      </trkpt>
      <trkpt lat="41.76111" lon="2.5886707">
        <time>2022-07-10T14:12:04Z</time>
      </trkpt>
      <trkpt lat="41.761086" lon="2.5887423">
        <time>2022-07-10T14:12:05Z</time>
      </trkpt>
      <trkpt lat="41.761063" lon="2.5888143">
        <time>2022-07-10T14:12:06Z</time>
      </trkpt>
      <trkpt lat="41.761036" lon="2.5888872">
        <time>2022-07-10T14:12:07Z</time>
      </trkpt>
      <trkpt lat="41.761013" lon="2.5889616">
        <time>2022-07-10T14:12:08Z</time>
      </trkpt>
      <trkpt lat="41.76099" lon="2.5890374">
        <time>2022-07-10T14:12:09Z</time>
      </trkpt>
      <trkpt lat="41.760967" lon="2.5891137">
        <time>2022-07-10T14:12:10Z</time>
      </trkpt>
      <trkpt lat="41.76094" lon="2.589191">
        <time>2022-07-10T14:12:11Z</time>
      </trkpt>
      <trkpt lat="41.760918" lon="2.5892682">
        <time>2022-07-10T14:12:12Z</time>
      </trkpt>
      <trkpt lat="41.76089" lon="2.589346">
        <time>2022-07-10T14:12:13Z</time>
      </trkpt>
      <trkpt lat="41.760868" lon="2.5894186">
        <time>2022-07-10T14:12:14Z</time>
      </trkpt>
      <trkpt lat="41.760845" lon="2.5894918">
        <time>2022-07-10T14:12:15Z</time>
      </trkpt>
      <trkpt lat="41.760822" lon="2.5895717">
        <time>2022-07-10T14:12:16Z</time>
      </trkpt>
      <trkpt lat="41.760803" lon="2.5896516">
        <time>2022-07-10T14:12:17Z</time>
      </trkpt>
      <trkpt lat="41.760784" lon="2.5897326">
        <time>2022-07-10T14:12:18Z</time>
      </trkpt>
      <trkpt lat="41.76077" lon="2.589814">
        <time>2022-07-10T14:12:19Z</time>
      </trkpt>
      <trkpt lat="41.76076" lon="2.5898962">
        <time>2022-07-10T14:12:20Z</time>
      </trkpt>
      <trkpt lat="41.760754" lon="2.5899737">
        <time>2022-07-10T14:12:21Z</time>
      </trkpt>
      <trkpt lat="41.76075" lon="2.5900578">
        <time>2022-07-10T14:12:22Z</time>
      </trkpt>
      <trkpt lat="41.76075" lon="2.5901413">
        <time>2022-07-10T14:12:23Z</time>
      </trkpt>
      <trkpt lat="41.76075" lon="2.590224">
        <time>2022-07-10T14:12:24Z</time>
      </trkpt>
      <trkpt lat="41.760754" lon="2.590301">
        <time>2022-07-10T14:12:25Z</time>
      </trkpt>
      <trkpt lat="41.76076" lon="2.590385">
        <time>2022-07-10T14:12:26Z</time>
      </trkpt>
      <trkpt lat="41.76077" lon="2.5904677">
        <time>2022-07-10T14:12:27Z</time>
      </trkpt>
      <trkpt lat="41.760777" lon="2.5905497">
        <time>2022-07-10T14:12:28Z</time>
      </trkpt>
      <trkpt lat="41.760788" lon="2.5906303">
        <time>2022-07-10T14:12:29Z</time>
      </trkpt>
      <trkpt lat="41.760803" lon="2.5907106">
        <time>2022-07-10T14:12:30Z</time>
      </trkpt>
      <trkpt lat="41.760815" lon="2.5907903">
        <time>2022-07-10T14:12:31Z</time>
      </trkpt>
      <trkpt lat="41.76083" lon="2.5908706">
        <time>2022-07-10T14:12:32Z</time>
      </trkpt>
      <trkpt lat="41.760857" lon="2.5910325">
        <time>2022-07-10T14:12:34Z</time>
      </trkpt>
      <trkpt lat="41.760868" lon="2.5911145">
        <time>2022-07-10T14:12:35Z</time>
      </trkpt>
      <trkpt lat="41.76088" lon="2.5911963">
        <time>2022-07-10T14:12:36Z</time>
      </trkpt>
      <trkpt lat="41.760895" lon="2.5912786">
        <time>2022-07-10T14:12:37Z</time>
      </trkpt>
      <trkpt lat="41.760906" lon="2.5913613">
        <time>2022-07-10T14:12:38Z</time>
      </trkpt>
      <trkpt lat="41.760918" lon="2.5914445">
        <time>2022-07-10T14:12:39Z</time>
      </trkpt>
      <trkpt lat="41.76093" lon="2.5915236">
        <time>2022-07-10T14:12:40Z</time>
      </trkpt>
      <trkpt lat="41.76094" lon="2.5916045">
        <time>2022-07-10T14:12:41Z</time>
      </trkpt>
      <trkpt lat="41.760952" lon="2.5916862">
        <time>2022-07-10T14:12:42Z</time>
      </trkpt>
      <trkpt lat="41.760963" lon="2.5917685">
        <time>2022-07-10T14:12:43Z</time>
      </trkpt>
      <trkpt lat="41.760975" lon="2.5918572">
        <time>2022-07-10T14:12:44Z</time>
      </trkpt>
      <trkpt lat="41.76099" lon="2.591939">
        <time>2022-07-10T14:12:45Z</time>
      </trkpt>
      <trkpt lat="41.761" lon="2.592022">
        <time>2022-07-10T14:12:46Z</time>
      </trkpt>
      <trkpt lat="41.761013" lon="2.592111">
        <time>2022-07-10T14:12:47Z</time>
      </trkpt>
      <trkpt lat="41.761024" lon="2.592193">
        <time>2022-07-10T14:12:48Z</time>
      </trkpt>
      <trkpt lat="41.76104" lon="2.59228">
        <time>2022-07-10T14:12:49Z</time>
      </trkpt>
      <trkpt lat="41.76105" lon="2.5923655">
        <time>2022-07-10T14:12:50Z</time>
      </trkpt>
      <trkpt lat="41.761063" lon="2.592449">
        <time>2022-07-10T14:12:51Z</time>
      </trkpt>
      <trkpt lat="41.761078" lon="2.5925307">
        <time>2022-07-10T14:12:52Z</time>
      </trkpt>
      <trkpt lat="41.76109" lon="2.592606">
        <time>2022-07-10T14:12:53Z</time>
      </trkpt>
      <trkpt lat="41.7611" lon="2.5926871">
        <time>2022-07-10T14:12:54Z</time>
      </trkpt>
      <trkpt lat="41.761112" lon="2.5927658">
        <time>2022-07-10T14:12:55Z</time>
      </trkpt>
      <trkpt lat="41.761124" lon="2.5928428">
        <time>2022-07-10T14:12:56Z</time>
      </trkpt>
      <trkpt lat="41.76113" lon="2.5929184">
        <time>2022-07-10T14:12:57Z</time>
      </trkpt>
      <trkpt lat="41.761143" lon="2.5929894">
        <time>2022-07-10T14:12:58Z</time>
      </trkpt>
      <trkpt lat="41.761154" lon="2.5930665">
        <time>2022-07-10T14:12:59Z</time>
      </trkpt>
      <trkpt lat="41.76116" lon="2.5931432">
        <time>2022-07-10T14:13:00Z</time>
      </trkpt>
      <trkpt lat="41.761173" lon="2.5932188">
        <time>2022-07-10T14:13:01Z</time>
      </trkpt>
      <trkpt lat="41.761185" lon="2.5932891">
        <time>2022-07-10T14:13:02Z</time>
      </trkpt>
      <trkpt lat="41.761192" lon="2.593362">
        <time>2022-07-10T14:13:03Z</time>
      </trkpt>
      <trkpt lat="41.761204" lon="2.5934408">
        <time>2022-07-10T14:13:04Z</time>
      </trkpt>
      <trkpt lat="41.761215" lon="2.5935187">
        <time>2022-07-10T14:13:05Z</time>
      </trkpt>
      <trkpt lat="41.761227" lon="2.5935965">
        <time>2022-07-10T14:13:06Z</time>
      </trkpt>
      <trkpt lat="41.76124" lon="2.5936742">
        <time>2022-07-10T14:13:07Z</time>
      </trkpt>
      <trkpt lat="41.76125" lon="2.5937529">
        <time>2022-07-10T14:13:08Z</time>
      </trkpt>
      <trkpt lat="41.76126" lon="2.5938275">
        <time>2022-07-10T14:13:09Z</time>
      </trkpt>
      <trkpt lat="41.761272" lon="2.5939107">
        <time>2022-07-10T14:13:10Z</time>
      </trkpt>
      <trkpt lat="41.761288" lon="2.5939953">
        <time>2022-07-10T14:13:11Z</time>
      </trkpt>
      <trkpt lat="41.7613" lon="2.5940757">
        <time>2022-07-10T14:13:12Z</time>
      </trkpt>
      <trkpt lat="41.76131" lon="2.5941591">
        <time>2022-07-10T14:13:13Z</time>
      </trkpt>
      <trkpt lat="41.761326" lon="2.5942454">
        <time>2022-07-10T14:13:14Z</time>
      </trkpt>
      <trkpt lat="41.761337" lon="2.594342">
        <time>2022-07-10T14:13:15Z</time>
      </trkpt>
      <trkpt lat="41.76135" lon="2.5944333">
        <time>2022-07-10T14:13:16Z</time>
      </trkpt>
      <trkpt lat="41.76136" lon="2.5945277">
        <time>2022-07-10T14:13:17Z</time>
      </trkpt>
      <trkpt lat="41.761375" lon="2.5946264">
        <time>2022-07-10T14:13:18Z</time>
      </trkpt>
      <trkpt lat="41.761387" lon="2.5947287">
        <time>2022-07-10T14:13:19Z</time>
      </trkpt>
      <trkpt lat="41.761402" lon="2.5948348">
        <time>2022-07-10T14:13:20Z</time>
      </trkpt>
      <trkpt lat="41.761414" lon="2.594944">
        <time>2022-07-10T14:13:21Z</time>
      </trkpt>
      <trkpt lat="41.76142" lon="2.595056">
        <time>2022-07-10T14:13:22Z</time>
      </trkpt>
      <trkpt lat="41.76143" lon="2.595171">
        <time>2022-07-10T14:13:23Z</time>
      </trkpt>
      <trkpt lat="41.761433" lon="2.5952883">
        <time>2022-07-10T14:13:24Z</time>
      </trkpt>
      <trkpt lat="41.761436" lon="2.595408">
        <time>2022-07-10T14:13:25Z</time>
      </trkpt>
      <trkpt lat="41.761433" lon="2.595529">
        <time>2022-07-10T14:13:26Z</time>
      </trkpt>
      <trkpt lat="41.761425" lon="2.5956507">
        <time>2022-07-10T14:13:27Z</time>
      </trkpt>
      <trkpt lat="41.76141" lon="2.5957785">
        <time>2022-07-10T14:13:28Z</time>
      </trkpt>
      <trkpt lat="41.76139" lon="2.5959027">
        <time>2022-07-10T14:13:29Z</time>
      </trkpt>
      <trkpt lat="41.76137" lon="2.596023">
        <time>2022-07-10T14:13:30Z</time>
      </trkpt>
      <trkpt lat="41.76135" lon="2.5961397">
        <time>2022-07-10T14:13:31Z</time>
      </trkpt>
      <trkpt lat="41.761326" lon="2.596253">
        <time>2022-07-10T14:13:32Z</time>
      </trkpt>
      <trkpt lat="41.7613" lon="2.596363">
        <time>2022-07-10T14:13:33Z</time>
      </trkpt>
      <trkpt lat="41.761276" lon="2.5964627">
        <time>2022-07-10T14:13:34Z</time>
      </trkpt>
      <trkpt lat="41.761253" lon="2.5965624">
        <time>2022-07-10T14:13:35Z</time>
      </trkpt>
      <trkpt lat="41.76123" lon="2.596661">
        <time>2022-07-10T14:13:36Z</time>
      </trkpt>
      <trkpt lat="41.761208" lon="2.5967596">
        <time>2022-07-10T14:13:37Z</time>
      </trkpt>
      <trkpt lat="41.761185" lon="2.5968637">
        <time>2022-07-10T14:13:38Z</time>
      </trkpt>
      <trkpt lat="41.761143" lon="2.5970514">
        <time>2022-07-10T14:13:40Z</time>
      </trkpt>
      <trkpt lat="41.76112" lon="2.5971444">
        <time>2022-07-10T14:13:41Z</time>
      </trkpt>
      <trkpt lat="41.761097" lon="2.5972364">
        <time>2022-07-10T14:13:42Z</time>
      </trkpt>
      <trkpt lat="41.761074" lon="2.597328">
        <time>2022-07-10T14:13:43Z</time>
      </trkpt>
      <trkpt lat="41.76105" lon="2.5974185">
        <time>2022-07-10T14:13:44Z</time>
      </trkpt>
      <trkpt lat="41.761032" lon="2.597509">
        <time>2022-07-10T14:13:45Z</time>
      </trkpt>
      <trkpt lat="41.76101" lon="2.597599">
        <time>2022-07-10T14:13:46Z</time>
      </trkpt>
      <trkpt lat="41.76099" lon="2.5976927">
        <time>2022-07-10T14:13:47Z</time>
      </trkpt>
      <trkpt lat="41.760967" lon="2.5977826">
        <time>2022-07-10T14:13:48Z</time>
      </trkpt>
      <trkpt lat="41.760944" lon="2.5978703">
        <time>2022-07-10T14:13:49Z</time>
      </trkpt>
      <trkpt lat="41.760925" lon="2.5979512">
        <time>2022-07-10T14:13:50Z</time>
      </trkpt>
      <trkpt lat="41.760906" lon="2.598033">
        <time>2022-07-10T14:13:51Z</time>
      </trkpt>
      <trkpt lat="41.760883" lon="2.5981157">
        <time>2022-07-10T14:13:52Z</time>
      </trkpt>
      <trkpt lat="41.760864" lon="2.5981987">
        <time>2022-07-10T14:13:53Z</time>
      </trkpt>
      <trkpt lat="41.760845" lon="2.5982819">
        <time>2022-07-10T14:13:54Z</time>
      </trkpt>
      <trkpt lat="41.760826" lon="2.5983663">
        <time>2022-07-10T14:13:55Z</time>
      </trkpt>
      <trkpt lat="41.760807" lon="2.598451">
        <time>2022-07-10T14:13:56Z</time>
      </trkpt>
      <trkpt lat="41.760784" lon="2.598536">
        <time>2022-07-10T14:13:57Z</time>
      </trkpt>
      <trkpt lat="41.760765" lon="2.5986216">
        <time>2022-07-10T14:13:58Z</time>
      </trkpt>
      <trkpt lat="41.760746" lon="2.5987072">
        <time>2022-07-10T14:13:59Z</time>
      </trkpt>
      <trkpt lat="41.760723" lon="2.5987928">
        <time>2022-07-10T14:14:00Z</time>
      </trkpt>
      <trkpt lat="41.760704" lon="2.5988781">
        <time>2022-07-10T14:14:01Z</time>
      </trkpt>
      <trkpt lat="41.760685" lon="2.5989633">
        <time>2022-07-10T14:14:02Z</time>
      </trkpt>
      <trkpt lat="41.760662" lon="2.5990486">
        <time>2022-07-10T14:14:03Z</time>
      </trkpt>
      <trkpt lat="41.760643" lon="2.5991342">
        <time>2022-07-10T14:14:04Z</time>
      </trkpt>
      <trkpt lat="41.76062" lon="2.5992198">
        <time>2022-07-10T14:14:05Z</time>
      </trkpt>
      <trkpt lat="41.7606" lon="2.599306">
        <time>2022-07-10T14:14:06Z</time>
      </trkpt>
      <trkpt lat="41.76058" lon="2.599393">
        <time>2022-07-10T14:14:07Z</time>
      </trkpt>
      <trkpt lat="41.76056" lon="2.59948">
        <time>2022-07-10T14:14:08Z</time>
      </trkpt>
      <trkpt lat="41.76054" lon="2.599568">
        <time>2022-07-10T14:14:09Z</time>
      </trkpt>
      <trkpt lat="41.760517" lon="2.5996573">
        <time>2022-07-10T14:14:10Z</time>
      </trkpt>
      <trkpt lat="41.760498" lon="2.5997462">
        <time>2022-07-10T14:14:11Z</time>
      </trkpt>
      <trkpt lat="41.760475" lon="2.5998352">
        <time>2022-07-10T14:14:12Z</time>
      </trkpt>
      <trkpt lat="41.760452" lon="2.5999308">
        <time>2022-07-10T14:14:13Z</time>
      </trkpt>
      <trkpt lat="41.76043" lon="2.6000252">
        <time>2022-07-10T14:14:14Z</time>
      </trkpt>
      <trkpt lat="41.76041" lon="2.6001124">
        <time>2022-07-10T14:14:15Z</time>
      </trkpt>
      <trkpt lat="41.760387" lon="2.6002016">
        <time>2022-07-10T14:14:16Z</time>
      </trkpt>
      <trkpt lat="41.760365" lon="2.6002915">
        <time>2022-07-10T14:14:17Z</time>
      </trkpt>
      <trkpt lat="41.76034" lon="2.6003878">
        <time>2022-07-10T14:14:18Z</time>
      </trkpt>
      <trkpt lat="41.76032" lon="2.6004817">
        <time>2022-07-10T14:14:19Z</time>
      </trkpt>
      <trkpt lat="41.7603" lon="2.6005754">
        <time>2022-07-10T14:14:20Z</time>
      </trkpt>
      <trkpt lat="41.760277" lon="2.6006682">
        <time>2022-07-10T14:14:21Z</time>
      </trkpt>
      <trkpt lat="41.760258" lon="2.6007545">
        <time>2022-07-10T14:14:22Z</time>
      </trkpt>
      <trkpt lat="41.760235" lon="2.6008482">
        <time>2022-07-10T14:14:23Z</time>
      </trkpt>
      <trkpt lat="41.760212" lon="2.6009405">
        <time>2022-07-10T14:14:24Z</time>
      </trkpt>
      <trkpt lat="41.76019" lon="2.6010323">
        <time>2022-07-10T14:14:25Z</time>
      </trkpt>
      <trkpt lat="41.76017" lon="2.6011221">
        <time>2022-07-10T14:14:26Z</time>
      </trkpt>
      <trkpt lat="41.760147" lon="2.6012115">
        <time>2022-07-10T14:14:27Z</time>
      </trkpt>
      <trkpt lat="41.760124" lon="2.601302">
        <time>2022-07-10T14:14:28Z</time>
      </trkpt>
      <trkpt lat="41.760105" lon="2.6013918">
        <time>2022-07-10T14:14:29Z</time>
      </trkpt>
      <trkpt lat="41.760082" lon="2.6014824">
        <time>2022-07-10T14:14:30Z</time>
      </trkpt>
      <trkpt lat="41.760063" lon="2.6015718">
        <time>2022-07-10T14:14:31Z</time>
      </trkpt>
      <trkpt lat="41.76004" lon="2.6016607">
        <time>2022-07-10T14:14:32Z</time>
      </trkpt>
      <trkpt lat="41.76002" lon="2.6017442">
        <time>2022-07-10T14:14:33Z</time>
      </trkpt>
      <trkpt lat="41.760002" lon="2.6018298">
        <time>2022-07-10T14:14:34Z</time>
      </trkpt>
      <trkpt lat="41.759975" lon="2.601921">
        <time>2022-07-10T14:14:35Z</time>
      </trkpt>
      <trkpt lat="41.75995" lon="2.6020098">
        <time>2022-07-10T14:14:36Z</time>
      </trkpt>
      <trkpt lat="41.75992" lon="2.602096">
        <time>2022-07-10T14:14:37Z</time>
      </trkpt>
      <trkpt lat="41.759888" lon="2.6021745">
        <time>2022-07-10T14:14:38Z</time>
      </trkpt>
      <trkpt lat="41.75985" lon="2.6022577">
        <time>2022-07-10T14:14:39Z</time>
      </trkpt>
      <trkpt lat="41.75981" lon="2.602338">
        <time>2022-07-10T14:14:40Z</time>
      </trkpt>
      <trkpt lat="41.75977" lon="2.6024148">
        <time>2022-07-10T14:14:41Z</time>
      </trkpt>
      <trkpt lat="41.759724" lon="2.6024885">
        <time>2022-07-10T14:14:42Z</time>
      </trkpt>
      <trkpt lat="41.759624" lon="2.6026225">
        <time>2022-07-10T14:14:44Z</time>
      </trkpt>
      <trkpt lat="41.759575" lon="2.6026819">
        <time>2022-07-10T14:14:45Z</time>
      </trkpt>
      <trkpt lat="41.759518" lon="2.6027384">
        <time>2022-07-10T14:14:46Z</time>
      </trkpt>
      <trkpt lat="41.75946" lon="2.6027954">
        <time>2022-07-10T14:14:47Z</time>
      </trkpt>
      <trkpt lat="41.759403" lon="2.6028488">
        <time>2022-07-10T14:14:48Z</time>
      </trkpt>
      <trkpt lat="41.759346" lon="2.602901">
        <time>2022-07-10T14:14:49Z</time>
      </trkpt>
      <trkpt lat="41.75929" lon="2.602952">
        <time>2022-07-10T14:14:50Z</time>
      </trkpt>
      <trkpt lat="41.75923" lon="2.6030028">
        <time>2022-07-10T14:14:51Z</time>
      </trkpt>
      <trkpt lat="41.759174" lon="2.603053">
        <time>2022-07-10T14:14:52Z</time>
      </trkpt>
      <trkpt lat="41.759117" lon="2.603104">
        <time>2022-07-10T14:14:53Z</time>
      </trkpt>
      <trkpt lat="41.759064" lon="2.6031518">
        <time>2022-07-10T14:14:54Z</time>
      </trkpt>
      <trkpt lat="41.759007" lon="2.6032038">
        <time>2022-07-10T14:14:55Z</time>
      </trkpt>
      <trkpt lat="41.75895" lon="2.6032543">
        <time>2022-07-10T14:14:56Z</time>
      </trkpt>
      <trkpt lat="41.758892" lon="2.6033044">
        <time>2022-07-10T14:14:57Z</time>
      </trkpt>
      <trkpt lat="41.758835" lon="2.6033547">
        <time>2022-07-10T14:14:58Z</time>
      </trkpt>
      <trkpt lat="41.75878" lon="2.6034024">
        <time>2022-07-10T14:14:59Z</time>
      </trkpt>
      <trkpt lat="41.758724" lon="2.6034524">
        <time>2022-07-10T14:15:00Z</time>
      </trkpt>
      <trkpt lat="41.758663" lon="2.6035018">
        <time>2022-07-10T14:15:01Z</time>
      </trkpt>
      <trkpt lat="41.758606" lon="2.6035511">
        <time>2022-07-10T14:15:02Z</time>
      </trkpt>
      <trkpt lat="41.758545" lon="2.6035993">
        <time>2022-07-10T14:15:03Z</time>
      </trkpt>
      <trkpt lat="41.758488" lon="2.603647">
        <time>2022-07-10T14:15:04Z</time>
      </trkpt>
      <trkpt lat="41.75843" lon="2.6036937">
        <time>2022-07-10T14:15:05Z</time>
      </trkpt>
      <trkpt lat="41.758377" lon="2.603741">
        <time>2022-07-10T14:15:06Z</time>
      </trkpt>
      <trkpt lat="41.75832" lon="2.6037886">
        <time>2022-07-10T14:15:07Z</time>
      </trkpt>
      <trkpt lat="41.758263" lon="2.6038368">
        <time>2022-07-10T14:15:08Z</time>
      </trkpt>
      <trkpt lat="41.75821" lon="2.6038837">
        <time>2022-07-10T14:15:09Z</time>
      </trkpt>
      <trkpt lat="41.758156" lon="2.60393">
        <time>2022-07-10T14:15:10Z</time>
      </trkpt>
      <trkpt lat="41.758102" lon="2.6039762">
        <time>2022-07-10T14:15:11Z</time>
      </trkpt>
      <trkpt lat="41.758053" lon="2.604018">
        <time>2022-07-10T14:15:12Z</time>
      </trkpt>
      <trkpt lat="41.758" lon="2.6040633">
        <time>2022-07-10T14:15:13Z</time>
      </trkpt>
      <trkpt lat="41.75795" lon="2.604107">
        <time>2022-07-10T14:15:14Z</time>
      </trkpt>
      <trkpt lat="41.7579" lon="2.604155">
        <time>2022-07-10T14:15:15Z</time>
      </trkpt>
      <trkpt lat="41.757847" lon="2.6042023">
        <time>2022-07-10T14:15:16Z</time>
      </trkpt>
      <trkpt lat="41.7578" lon="2.604246">
        <time>2022-07-10T14:15:17Z</time>
      </trkpt>
      <trkpt lat="41.757755" lon="2.6042893">
        <time>2022-07-10T14:15:18Z</time>
      </trkpt>
      <trkpt lat="41.7577" lon="2.6043353">
        <time>2022-07-10T14:15:19Z</time>
      </trkpt>
      <trkpt lat="41.757656" lon="2.60438">
        <time>2022-07-10T14:15:20Z</time>
      </trkpt>
      <trkpt lat="41.757607" lon="2.6044235">
        <time>2022-07-10T14:15:21Z</time>
      </trkpt>
      <trkpt lat="41.75756" lon="2.604464">
        <time>2022-07-10T14:15:22Z</time>
      </trkpt>
      <trkpt lat="41.75751" lon="2.6045086">
        <time>2022-07-10T14:15:23Z</time>
      </trkpt>
      <trkpt lat="41.75746" lon="2.6045525">
        <time>2022-07-10T14:15:24Z</time>
      </trkpt>
      <trkpt lat="41.757412" lon="2.6045952">
        <time>2022-07-10T14:15:25Z</time>
      </trkpt>
      <trkpt lat="41.757362" lon="2.6046362">
        <time>2022-07-10T14:15:26Z</time>
      </trkpt>
      <trkpt lat="41.757317" lon="2.6046755">
        <time>2022-07-10T14:15:27Z</time>
      </trkpt>
      <trkpt lat="41.75727" lon="2.604719">
        <time>2022-07-10T14:15:28Z</time>
      </trkpt>
      <trkpt lat="41.75722" lon="2.6047626">
        <time>2022-07-10T14:15:29Z</time>
      </trkpt>
      <trkpt lat="41.757175" lon="2.6048062">
        <time>2022-07-10T14:15:30Z</time>
      </trkpt>
      <trkpt lat="41.75713" lon="2.604848">
        <time>2022-07-10T14:15:31Z</time>
      </trkpt>
      <trkpt lat="41.757084" lon="2.6048899">
        <time>2022-07-10T14:15:32Z</time>
      </trkpt>
      <trkpt lat="41.757034" lon="2.6049325">
        <time>2022-07-10T14:15:33Z</time>
      </trkpt>
      <trkpt lat="41.75699" lon="2.6049736">
        <time>2022-07-10T14:15:34Z</time>
      </trkpt>
      <trkpt lat="41.756943" lon="2.6050146">
        <time>2022-07-10T14:15:35Z</time>
      </trkpt>
      <trkpt lat="41.756897" lon="2.6050546">
        <time>2022-07-10T14:15:36Z</time>
      </trkpt>
      <trkpt lat="41.75685" lon="2.605094">
        <time>2022-07-10T14:15:37Z</time>
      </trkpt>
      <trkpt lat="41.756805" lon="2.6051328">
        <time>2022-07-10T14:15:38Z</time>
      </trkpt>
      <trkpt lat="41.756756" lon="2.605172">
        <time>2022-07-10T14:15:39Z</time>
      </trkpt>
      <trkpt lat="41.75671" lon="2.6052098">
        <time>2022-07-10T14:15:40Z</time>
      </trkpt>
      <trkpt lat="41.756664" lon="2.6052475">
        <time>2022-07-10T14:15:41Z</time>
      </trkpt>
      <trkpt lat="41.756615" lon="2.6052856">
        <time>2022-07-10T14:15:42Z</time>
      </trkpt>
      <trkpt lat="41.756565" lon="2.6053228">
        <time>2022-07-10T14:15:43Z</time>
      </trkpt>
      <trkpt lat="41.756516" lon="2.6053588">
        <time>2022-07-10T14:15:44Z</time>
      </trkpt>
      <trkpt lat="41.756466" lon="2.6053953">
        <time>2022-07-10T14:15:45Z</time>
      </trkpt>
      <trkpt lat="41.756416" lon="2.6054306">
        <time>2022-07-10T14:15:46Z</time>
      </trkpt>
      <trkpt lat="41.756363" lon="2.6054642">
        <time>2022-07-10T14:15:47Z</time>
      </trkpt>
      <trkpt lat="41.75631" lon="2.6054966">
        <time>2022-07-10T14:15:48Z</time>
      </trkpt>
      <trkpt lat="41.756203" lon="2.6055622">
        <time>2022-07-10T14:15:50Z</time>
      </trkpt>
      <trkpt lat="41.75615" lon="2.6055942">
        <time>2022-07-10T14:15:51Z</time>
      </trkpt>
      <trkpt lat="41.756096" lon="2.605625">
        <time>2022-07-10T14:15:52Z</time>
      </trkpt>
      <trkpt lat="41.756042" lon="2.6056554">
        <time>2022-07-10T14:15:53Z</time>
      </trkpt>
      <trkpt lat="41.75599" lon="2.6056864">
        <time>2022-07-10T14:15:54Z</time>
      </trkpt>
      <trkpt lat="41.755936" lon="2.605717">
        <time>2022-07-10T14:15:55Z</time>
      </trkpt>
      <trkpt lat="41.755882" lon="2.6057467">
        <time>2022-07-10T14:15:56Z</time>
      </trkpt>
      <trkpt lat="41.75583" lon="2.605778">
        <time>2022-07-10T14:15:57Z</time>
      </trkpt>
      <trkpt lat="41.755775" lon="2.6058085">
        <time>2022-07-10T14:15:58Z</time>
      </trkpt>
      <trkpt lat="41.755722" lon="2.6058388">
        <time>2022-07-10T14:15:59Z</time>
      </trkpt>
      <trkpt lat="41.75567" lon="2.6058693">
        <time>2022-07-10T14:16:00Z</time>
      </trkpt>
      <trkpt lat="41.755615" lon="2.6059005">
        <time>2022-07-10T14:16:01Z</time>
      </trkpt>
      <trkpt lat="41.755566" lon="2.6059341">
        <time>2022-07-10T14:16:02Z</time>
      </trkpt>
      <trkpt lat="41.755512" lon="2.6059709">
        <time>2022-07-10T14:16:03Z</time>
      </trkpt>
      <trkpt lat="41.755463" lon="2.6060088">
        <time>2022-07-10T14:16:04Z</time>
      </trkpt>
      <trkpt lat="41.755413" lon="2.6060479">
        <time>2022-07-10T14:16:05Z</time>
      </trkpt>
      <trkpt lat="41.755363" lon="2.6060872">
        <time>2022-07-10T14:16:06Z</time>
      </trkpt>
      <trkpt lat="41.755318" lon="2.6061277">
        <time>2022-07-10T14:16:07Z</time>
      </trkpt>
      <trkpt lat="41.755272" lon="2.6061711">
        <time>2022-07-10T14:16:08Z</time>
      </trkpt>
      <trkpt lat="41.755226" lon="2.6062155">
        <time>2022-07-10T14:16:09Z</time>
      </trkpt>
      <trkpt lat="41.75518" lon="2.6062613">
        <time>2022-07-10T14:16:10Z</time>
      </trkpt>
      <trkpt lat="41.755135" lon="2.6063087">
        <time>2022-07-10T14:16:11Z</time>
      </trkpt>
      <trkpt lat="41.75509" lon="2.6063578">
        <time>2022-07-10T14:16:12Z</time>
      </trkpt>
      <trkpt lat="41.755043" lon="2.606408">
        <time>2022-07-10T14:16:13Z</time>
      </trkpt>
      <trkpt lat="41.755" lon="2.6064594">
        <time>2022-07-10T14:16:14Z</time>
      </trkpt>
      <trkpt lat="41.75496" lon="2.6065118">
        <time>2022-07-10T14:16:15Z</time>
      </trkpt>
      <trkpt lat="41.754913" lon="2.6065664">
        <time>2022-07-10T14:16:16Z</time>
      </trkpt>
      <trkpt lat="41.75487" lon="2.6066222">
        <time>2022-07-10T14:16:17Z</time>
      </trkpt>
      <trkpt lat="41.75483" lon="2.6066787">
        <time>2022-07-10T14:16:18Z</time>
      </trkpt>
      <trkpt lat="41.754787" lon="2.6067357">
        <time>2022-07-10T14:16:19Z</time>
      </trkpt>
      <trkpt lat="41.75474" lon="2.6067934">
        <time>2022-07-10T14:16:20Z</time>
      </trkpt>
      <trkpt lat="41.7547" lon="2.606851">
        <time>2022-07-10T14:16:21Z</time>
      </trkpt>
      <trkpt lat="41.754658" lon="2.60691">
        <time>2022-07-10T14:16:22Z</time>
      </trkpt>
      <trkpt lat="41.754612" lon="2.6069694">
        <time>2022-07-10T14:16:23Z</time>
      </trkpt>
      <trkpt lat="41.754566" lon="2.6070302">
        <time>2022-07-10T14:16:24Z</time>
      </trkpt>
      <trkpt lat="41.754524" lon="2.6070929">
        <time>2022-07-10T14:16:25Z</time>
      </trkpt>
      <trkpt lat="41.75448" lon="2.6071568">
        <time>2022-07-10T14:16:26Z</time>
      </trkpt>
      <trkpt lat="41.754433" lon="2.6072218">
        <time>2022-07-10T14:16:27Z</time>
      </trkpt>
      <trkpt lat="41.754387" lon="2.6072855">
        <time>2022-07-10T14:16:28Z</time>
      </trkpt>
      <trkpt lat="41.754345" lon="2.60735">
        <time>2022-07-10T14:16:29Z</time>
      </trkpt>
      <trkpt lat="41.754303" lon="2.607409">
        <time>2022-07-10T14:16:30Z</time>
      </trkpt>
      <trkpt lat="41.754253" lon="2.6074731">
        <time>2022-07-10T14:16:31Z</time>
      </trkpt>
      <trkpt lat="41.754208" lon="2.607537">
        <time>2022-07-10T14:16:32Z</time>
      </trkpt>
      <trkpt lat="41.75416" lon="2.6076007">
        <time>2022-07-10T14:16:33Z</time>
      </trkpt>
      <trkpt lat="41.754116" lon="2.6076643">
        <time>2022-07-10T14:16:34Z</time>
      </trkpt>
      <trkpt lat="41.75407" lon="2.6077235">
        <time>2022-07-10T14:16:35Z</time>
      </trkpt>
      <trkpt lat="41.754025" lon="2.6077883">
        <time>2022-07-10T14:16:36Z</time>
      </trkpt>
      <trkpt lat="41.75398" lon="2.607852">
        <time>2022-07-10T14:16:37Z</time>
      </trkpt>
      <trkpt lat="41.75393" lon="2.6079156">
        <time>2022-07-10T14:16:38Z</time>
      </trkpt>
      <trkpt lat="41.753883" lon="2.6079786">
        <time>2022-07-10T14:16:39Z</time>
      </trkpt>
      <trkpt lat="41.753838" lon="2.6080413">
        <time>2022-07-10T14:16:40Z</time>
      </trkpt>
      <trkpt lat="41.753788" lon="2.6081038">
        <time>2022-07-10T14:16:41Z</time>
      </trkpt>
      <trkpt lat="41.753742" lon="2.6081667">
        <time>2022-07-10T14:16:42Z</time>
      </trkpt>
      <trkpt lat="41.753696" lon="2.60823">
        <time>2022-07-10T14:16:43Z</time>
      </trkpt>
      <trkpt lat="41.75365" lon="2.6082933">
        <time>2022-07-10T14:16:44Z</time>
      </trkpt>
      <trkpt lat="41.7536" lon="2.6083577">
        <time>2022-07-10T14:16:45Z</time>
      </trkpt>
      <trkpt lat="41.753555" lon="2.608421">
        <time>2022-07-10T14:16:46Z</time>
      </trkpt>
      <trkpt lat="41.753506" lon="2.608485">
        <time>2022-07-10T14:16:47Z</time>
      </trkpt>
      <trkpt lat="41.75346" lon="2.6085486">
        <time>2022-07-10T14:16:48Z</time>
      </trkpt>
      <trkpt lat="41.753414" lon="2.608612">
        <time>2022-07-10T14:16:49Z</time>
      </trkpt>
      <trkpt lat="41.753323" lon="2.6087372">
        <time>2022-07-10T14:16:51Z</time>
      </trkpt>
      <trkpt lat="41.753273" lon="2.6088004">
        <time>2022-07-10T14:16:52Z</time>
      </trkpt>
      <trkpt lat="41.753227" lon="2.608864">
        <time>2022-07-10T14:16:53Z</time>
      </trkpt>
      <trkpt lat="41.753178" lon="2.6089287">
        <time>2022-07-10T14:16:54Z</time>
      </trkpt>
      <trkpt lat="41.75313" lon="2.6089933">
        <time>2022-07-10T14:16:55Z</time>
      </trkpt>
      <trkpt lat="41.753086" lon="2.6090577">
        <time>2022-07-10T14:16:56Z</time>
      </trkpt>
      <trkpt lat="41.753036" lon="2.609121">
        <time>2022-07-10T14:16:57Z</time>
      </trkpt>
      <trkpt lat="41.75299" lon="2.6091847">
        <time>2022-07-10T14:16:58Z</time>
      </trkpt>
      <trkpt lat="41.75294" lon="2.609248">
        <time>2022-07-10T14:16:59Z</time>
      </trkpt>
      <trkpt lat="41.752895" lon="2.6093113">
        <time>2022-07-10T14:17:00Z</time>
      </trkpt>
      <trkpt lat="41.75285" lon="2.6093745">
        <time>2022-07-10T14:17:01Z</time>
      </trkpt>
      <trkpt lat="41.7528" lon="2.6094372">
        <time>2022-07-10T14:17:02Z</time>
      </trkpt>
      <trkpt lat="41.752754" lon="2.6094992">
        <time>2022-07-10T14:17:03Z</time>
      </trkpt>
      <trkpt lat="41.75271" lon="2.6095624">
        <time>2022-07-10T14:17:04Z</time>
      </trkpt>
      <trkpt lat="41.752663" lon="2.6096246">
        <time>2022-07-10T14:17:05Z</time>
      </trkpt>
      <trkpt lat="41.752613" lon="2.6096876">
        <time>2022-07-10T14:17:06Z</time>
      </trkpt>
      <trkpt lat="41.752567" lon="2.6097503">
        <time>2022-07-10T14:17:07Z</time>
      </trkpt>
      <trkpt lat="41.752518" lon="2.6098146">
        <time>2022-07-10T14:17:08Z</time>
      </trkpt>
      <trkpt lat="41.752472" lon="2.609879">
        <time>2022-07-10T14:17:09Z</time>
      </trkpt>
      <trkpt lat="41.752422" lon="2.6099427">
        <time>2022-07-10T14:17:10Z</time>
      </trkpt>
      <trkpt lat="41.752377" lon="2.6100073">
        <time>2022-07-10T14:17:11Z</time>
      </trkpt>
      <trkpt lat="41.752327" lon="2.6100702">
        <time>2022-07-10T14:17:12Z</time>
      </trkpt>
      <trkpt lat="41.752277" lon="2.6101332">
        <time>2022-07-10T14:17:13Z</time>
      </trkpt>
      <trkpt lat="41.752228" lon="2.6101966">
        <time>2022-07-10T14:17:14Z</time>
      </trkpt>
      <trkpt lat="41.75218" lon="2.6102593">
        <time>2022-07-10T14:17:15Z</time>
      </trkpt>
      <trkpt lat="41.752132" lon="2.6103222">
        <time>2022-07-10T14:17:16Z</time>
      </trkpt>
      <trkpt lat="41.752083" lon="2.6103857">
        <time>2022-07-10T14:17:17Z</time>
      </trkpt>
      <trkpt lat="41.752037" lon="2.6104486">
        <time>2022-07-10T14:17:18Z</time>
      </trkpt>
      <trkpt lat="41.751987" lon="2.61051">
        <time>2022-07-10T14:17:19Z</time>
      </trkpt>
      <trkpt lat="41.751938" lon="2.6105723">
        <time>2022-07-10T14:17:20Z</time>
      </trkpt>
      <trkpt lat="41.751892" lon="2.6106346">
        <time>2022-07-10T14:17:21Z</time>
      </trkpt>
      <trkpt lat="41.751842" lon="2.6106975">
        <time>2022-07-10T14:17:22Z</time>
      </trkpt>
      <trkpt lat="41.751797" lon="2.6107616">
        <time>2022-07-10T14:17:23Z</time>
      </trkpt>
      <trkpt lat="41.751747" lon="2.6108258">
        <time>2022-07-10T14:17:24Z</time>
      </trkpt>
      <trkpt lat="41.751698" lon="2.6108906">
        <time>2022-07-10T14:17:25Z</time>
      </trkpt>
      <trkpt lat="41.751648" lon="2.6109545">
        <time>2022-07-10T14:17:26Z</time>
      </trkpt>
      <trkpt lat="41.751602" lon="2.611019">
        <time>2022-07-10T14:17:27Z</time>
      </trkpt>
      <trkpt lat="41.751553" lon="2.6110835">
        <time>2022-07-10T14:17:28Z</time>
      </trkpt>
      <trkpt lat="41.751503" lon="2.6111488">
        <time>2022-07-10T14:17:29Z</time>
      </trkpt>
      <trkpt lat="41.751457" lon="2.6112142">
        <time>2022-07-10T14:17:30Z</time>
      </trkpt>
      <trkpt lat="41.751408" lon="2.6112785">
        <time>2022-07-10T14:17:31Z</time>
      </trkpt>
      <trkpt lat="41.751358" lon="2.6113436">
        <time>2022-07-10T14:17:32Z</time>
      </trkpt>
      <trkpt lat="41.751312" lon="2.6114092">
        <time>2022-07-10T14:17:33Z</time>
      </trkpt>
      <trkpt lat="41.751263" lon="2.611476">
        <time>2022-07-10T14:17:34Z</time>
      </trkpt>
      <trkpt lat="41.751213" lon="2.6115422">
        <time>2022-07-10T14:17:35Z</time>
      </trkpt>
      <trkpt lat="41.751163" lon="2.611607">
        <time>2022-07-10T14:17:36Z</time>
      </trkpt>
      <trkpt lat="41.751118" lon="2.611673">
        <time>2022-07-10T14:17:37Z</time>
      </trkpt>
      <trkpt lat="41.75107" lon="2.6117392">
        <time>2022-07-10T14:17:38Z</time>
      </trkpt>
      <trkpt lat="41.75102" lon="2.6118047">
        <time>2022-07-10T14:17:39Z</time>
      </trkpt>
      <trkpt lat="41.75097" lon="2.6118708">
        <time>2022-07-10T14:17:40Z</time>
      </trkpt>
      <trkpt lat="41.750923" lon="2.6119351">
        <time>2022-07-10T14:17:41Z</time>
      </trkpt>
      <trkpt lat="41.750874" lon="2.6120002">
        <time>2022-07-10T14:17:42Z</time>
      </trkpt>
      <trkpt lat="41.750824" lon="2.6120648">
        <time>2022-07-10T14:17:43Z</time>
      </trkpt>
      <trkpt lat="41.750774" lon="2.6121302">
        <time>2022-07-10T14:17:44Z</time>
      </trkpt>
      <trkpt lat="41.750725" lon="2.6121955">
        <time>2022-07-10T14:17:45Z</time>
      </trkpt>
      <trkpt lat="41.750675" lon="2.612261">
        <time>2022-07-10T14:17:46Z</time>
      </trkpt>
      <trkpt lat="41.75062" lon="2.6123269">
        <time>2022-07-10T14:17:47Z</time>
      </trkpt>
      <trkpt lat="41.750572" lon="2.6123922">
        <time>2022-07-10T14:17:48Z</time>
      </trkpt>
      <trkpt lat="41.750523" lon="2.6124578">
        <time>2022-07-10T14:17:49Z</time>
      </trkpt>
      <trkpt lat="41.750473" lon="2.6125238">
        <time>2022-07-10T14:17:50Z</time>
      </trkpt>
      <trkpt lat="41.750427" lon="2.6125917">
        <time>2022-07-10T14:17:51Z</time>
      </trkpt>
      <trkpt lat="41.750385" lon="2.6126587">
        <time>2022-07-10T14:17:52Z</time>
      </trkpt>
      <trkpt lat="41.75034" lon="2.6127245">
        <time>2022-07-10T14:17:53Z</time>
      </trkpt>
      <trkpt lat="41.75029" lon="2.6127877">
        <time>2022-07-10T14:17:54Z</time>
      </trkpt>
      <trkpt lat="41.750195" lon="2.6129138">
        <time>2022-07-10T14:17:56Z</time>
      </trkpt>
      <trkpt lat="41.750145" lon="2.6129775">
        <time>2022-07-10T14:17:57Z</time>
      </trkpt>
      <trkpt lat="41.7501" lon="2.613043">
        <time>2022-07-10T14:17:58Z</time>
      </trkpt>
      <trkpt lat="41.750053" lon="2.6131084">
        <time>2022-07-10T14:17:59Z</time>
      </trkpt>
      <trkpt lat="41.750004" lon="2.6131747">
        <time>2022-07-10T14:18:00Z</time>
      </trkpt>
      <trkpt lat="41.749954" lon="2.613239">
        <time>2022-07-10T14:18:01Z</time>
      </trkpt>
      <trkpt lat="41.74991" lon="2.6133015">
        <time>2022-07-10T14:18:02Z</time>
      </trkpt>
      <trkpt lat="41.74986" lon="2.6133647">
        <time>2022-07-10T14:18:03Z</time>
      </trkpt>
      <trkpt lat="41.749813" lon="2.613428">
        <time>2022-07-10T14:18:04Z</time>
      </trkpt>
      <trkpt lat="41.749763" lon="2.6134918">
        <time>2022-07-10T14:18:05Z</time>
      </trkpt>
      <trkpt lat="41.749714" lon="2.6135547">
        <time>2022-07-10T14:18:06Z</time>
      </trkpt>
      <trkpt lat="41.749672" lon="2.6136165">
        <time>2022-07-10T14:18:07Z</time>
      </trkpt>
      <trkpt lat="41.749626" lon="2.613677">
        <time>2022-07-10T14:18:08Z</time>
      </trkpt>
      <trkpt lat="41.74958" lon="2.6137362">
        <time>2022-07-10T14:18:09Z</time>
      </trkpt>
      <trkpt lat="41.74954" lon="2.613795">
        <time>2022-07-10T14:18:10Z</time>
      </trkpt>
      <trkpt lat="41.749493" lon="2.6138544">
        <time>2022-07-10T14:18:11Z</time>
      </trkpt>
      <trkpt lat="41.74945" lon="2.6139128">
        <time>2022-07-10T14:18:12Z</time>
      </trkpt>
      <trkpt lat="41.74941" lon="2.6139708">
        <time>2022-07-10T14:18:13Z</time>
      </trkpt>
      <trkpt lat="41.749367" lon="2.6140277">
        <time>2022-07-10T14:18:14Z</time>
      </trkpt>
      <trkpt lat="41.74932" lon="2.6140833">
        <time>2022-07-10T14:18:15Z</time>
      </trkpt>
      <trkpt lat="41.74928" lon="2.6141393">
        <time>2022-07-10T14:18:16Z</time>
      </trkpt>
      <trkpt lat="41.749237" lon="2.614195">
        <time>2022-07-10T14:18:17Z</time>
      </trkpt>
      <trkpt lat="41.749195" lon="2.6142516">
        <time>2022-07-10T14:18:18Z</time>
      </trkpt>
      <trkpt lat="41.749153" lon="2.6143084">
        <time>2022-07-10T14:18:19Z</time>
      </trkpt>
      <trkpt lat="41.74911" lon="2.6143646">
        <time>2022-07-10T14:18:20Z</time>
      </trkpt>
      <trkpt lat="41.74907" lon="2.6144204">
        <time>2022-07-10T14:18:21Z</time>
      </trkpt>
      <trkpt lat="41.749027" lon="2.6144757">
        <time>2022-07-10T14:18:22Z</time>
      </trkpt>
      <trkpt lat="41.748985" lon="2.614531">
        <time>2022-07-10T14:18:23Z</time>
      </trkpt>
      <trkpt lat="41.748943" lon="2.614586">
        <time>2022-07-10T14:18:24Z</time>
      </trkpt>
      <trkpt lat="41.748898" lon="2.614643">
        <time>2022-07-10T14:18:25Z</time>
      </trkpt>
      <trkpt lat="41.748856" lon="2.6146984">
        <time>2022-07-10T14:18:26Z</time>
      </trkpt>
      <trkpt lat="41.748814" lon="2.6147544">
        <time>2022-07-10T14:18:27Z</time>
      </trkpt>
      <trkpt lat="41.748768" lon="2.6148114">
        <time>2022-07-10T14:18:28Z</time>
      </trkpt>
      <trkpt lat="41.748726" lon="2.614868">
        <time>2022-07-10T14:18:29Z</time>
      </trkpt>
      <trkpt lat="41.74868" lon="2.6149247">
        <time>2022-07-10T14:18:30Z</time>
      </trkpt>
      <trkpt lat="41.74864" lon="2.6149814">
        <time>2022-07-10T14:18:31Z</time>
      </trkpt>
      <trkpt lat="41.748596" lon="2.6150386">
        <time>2022-07-10T14:18:32Z</time>
      </trkpt>
      <trkpt lat="41.74855" lon="2.6150966">
        <time>2022-07-10T14:18:33Z</time>
      </trkpt>
      <trkpt lat="41.748505" lon="2.6151543">
        <time>2022-07-10T14:18:34Z</time>
      </trkpt>
      <trkpt lat="41.748463" lon="2.6152117">
        <time>2022-07-10T14:18:35Z</time>
      </trkpt>
      <trkpt lat="41.748417" lon="2.6152682">
        <time>2022-07-10T14:18:36Z</time>
      </trkpt>
      <trkpt lat="41.748375" lon="2.6153247">
        <time>2022-07-10T14:18:37Z</time>
      </trkpt>
      <trkpt lat="41.748333" lon="2.615383">
        <time>2022-07-10T14:18:38Z</time>
      </trkpt>
      <trkpt lat="41.748287" lon="2.615442">
        <time>2022-07-10T14:18:39Z</time>
      </trkpt>
      <trkpt lat="41.748245" lon="2.615501">
        <time>2022-07-10T14:18:40Z</time>
      </trkpt>
      <trkpt lat="41.7482" lon="2.61556">
        <time>2022-07-10T14:18:41Z</time>
      </trkpt>
      <trkpt lat="41.748158" lon="2.6156192">
        <time>2022-07-10T14:18:42Z</time>
      </trkpt>
      <trkpt lat="41.748116" lon="2.6156743">
        <time>2022-07-10T14:18:43Z</time>
      </trkpt>
      <trkpt lat="41.74807" lon="2.6157343">
        <time>2022-07-10T14:18:44Z</time>
      </trkpt>
      <trkpt lat="41.748028" lon="2.615793">
        <time>2022-07-10T14:18:45Z</time>
      </trkpt>
      <trkpt lat="41.747982" lon="2.6158524">
        <time>2022-07-10T14:18:46Z</time>
      </trkpt>
      <trkpt lat="41.74794" lon="2.615912">
        <time>2022-07-10T14:18:47Z</time>
      </trkpt>
      <trkpt lat="41.747894" lon="2.6159706">
        <time>2022-07-10T14:18:48Z</time>
      </trkpt>
      <trkpt lat="41.747856" lon="2.6160245">
        <time>2022-07-10T14:18:49Z</time>
      </trkpt>
      <trkpt lat="41.74781" lon="2.6160846">
        <time>2022-07-10T14:18:50Z</time>
      </trkpt>
      <trkpt lat="41.747765" lon="2.616144">
        <time>2022-07-10T14:18:51Z</time>
      </trkpt>
      <trkpt lat="41.74772" lon="2.6162028">
        <time>2022-07-10T14:18:52Z</time>
      </trkpt>
      <trkpt lat="41.747677" lon="2.616262">
        <time>2022-07-10T14:18:53Z</time>
      </trkpt>
      <trkpt lat="41.74763" lon="2.61632">
        <time>2022-07-10T14:18:54Z</time>
      </trkpt>
      <trkpt lat="41.74759" lon="2.6163785">
        <time>2022-07-10T14:18:55Z</time>
      </trkpt>
      <trkpt lat="41.747543" lon="2.6164382">
        <time>2022-07-10T14:18:56Z</time>
      </trkpt>
      <trkpt lat="41.7475" lon="2.6164987">
        <time>2022-07-10T14:18:57Z</time>
      </trkpt>
      <trkpt lat="41.747456" lon="2.6165586">
        <time>2022-07-10T14:18:58Z</time>
      </trkpt>
      <trkpt lat="41.747414" lon="2.6166172">
        <time>2022-07-10T14:18:59Z</time>
      </trkpt>
      <trkpt lat="41.747326" lon="2.6167333">
        <time>2022-07-10T14:19:01Z</time>
      </trkpt>
      <trkpt lat="41.74728" lon="2.6167915">
        <time>2022-07-10T14:19:02Z</time>
      </trkpt>
      <trkpt lat="41.74724" lon="2.6168509">
        <time>2022-07-10T14:19:03Z</time>
      </trkpt>
      <trkpt lat="41.747192" lon="2.6169093">
        <time>2022-07-10T14:19:04Z</time>
      </trkpt>
      <trkpt lat="41.74715" lon="2.6169665">
        <time>2022-07-10T14:19:05Z</time>
      </trkpt>
      <trkpt lat="41.747112" lon="2.617019">
        <time>2022-07-10T14:19:06Z</time>
      </trkpt>
      <trkpt lat="41.747066" lon="2.6170752">
        <time>2022-07-10T14:19:07Z</time>
      </trkpt>
      <trkpt lat="41.747025" lon="2.6171315">
        <time>2022-07-10T14:19:08Z</time>
      </trkpt>
      <trkpt lat="41.746983" lon="2.6171882">
        <time>2022-07-10T14:19:09Z</time>
      </trkpt>
      <trkpt lat="41.74694" lon="2.6172433">
        <time>2022-07-10T14:19:10Z</time>
      </trkpt>
      <trkpt lat="41.746895" lon="2.6172976">
        <time>2022-07-10T14:19:11Z</time>
      </trkpt>
      <trkpt lat="41.746853" lon="2.6173508">
        <time>2022-07-10T14:19:12Z</time>
      </trkpt>
      <trkpt lat="41.74681" lon="2.6174045">
        <time>2022-07-10T14:19:13Z</time>
      </trkpt>
      <trkpt lat="41.746765" lon="2.6174586">
        <time>2022-07-10T14:19:14Z</time>
      </trkpt>
      <trkpt lat="41.746723" lon="2.617514">
        <time>2022-07-10T14:19:15Z</time>
      </trkpt>
      <trkpt lat="41.746677" lon="2.6175709">
        <time>2022-07-10T14:19:16Z</time>
      </trkpt>
      <trkpt lat="41.74664" lon="2.6176255">
        <time>2022-07-10T14:19:17Z</time>
      </trkpt>
      <trkpt lat="41.746593" lon="2.617685">
        <time>2022-07-10T14:19:18Z</time>
      </trkpt>
      <trkpt lat="41.74655" lon="2.617744">
        <time>2022-07-10T14:19:19Z</time>
      </trkpt>
      <trkpt lat="41.746506" lon="2.6178029">
        <time>2022-07-10T14:19:20Z</time>
      </trkpt>
      <trkpt lat="41.746464" lon="2.6178613">
        <time>2022-07-10T14:19:21Z</time>
      </trkpt>
      <trkpt lat="41.746418" lon="2.6179204">
        <time>2022-07-10T14:19:22Z</time>
      </trkpt>
      <trkpt lat="41.746376" lon="2.6179793">
        <time>2022-07-10T14:19:23Z</time>
      </trkpt>
      <trkpt lat="41.746334" lon="2.6180384">
        <time>2022-07-10T14:19:24Z</time>
      </trkpt>
      <trkpt lat="41.74629" lon="2.6180978">
        <time>2022-07-10T14:19:25Z</time>
      </trkpt>
      <trkpt lat="41.746246" lon="2.618152">
        <time>2022-07-10T14:19:26Z</time>
      </trkpt>
      <trkpt lat="41.746204" lon="2.6182108">
        <time>2022-07-10T14:19:27Z</time>
      </trkpt>
      <trkpt lat="41.74616" lon="2.6182694">
        <time>2022-07-10T14:19:28Z</time>
      </trkpt>
      <trkpt lat="41.746117" lon="2.6183279">
        <time>2022-07-10T14:19:29Z</time>
      </trkpt>
      <trkpt lat="41.74607" lon="2.6183865">
        <time>2022-07-10T14:19:30Z</time>
      </trkpt>
      <trkpt lat="41.74603" lon="2.618445">
        <time>2022-07-10T14:19:31Z</time>
      </trkpt>
      <trkpt lat="41.745987" lon="2.618499">
        <time>2022-07-10T14:19:32Z</time>
      </trkpt>
      <trkpt lat="41.745945" lon="2.6185591">
        <time>2022-07-10T14:19:33Z</time>
      </trkpt>
      <trkpt lat="41.745903" lon="2.618615">
        <time>2022-07-10T14:19:34Z</time>
      </trkpt>
      <trkpt lat="41.74586" lon="2.6186707">
        <time>2022-07-10T14:19:35Z</time>
      </trkpt>
      <trkpt lat="41.74582" lon="2.6187274">
        <time>2022-07-10T14:19:36Z</time>
      </trkpt>
      <trkpt lat="41.745777" lon="2.6187837">
        <time>2022-07-10T14:19:37Z</time>
      </trkpt>
      <trkpt lat="41.74573" lon="2.6188395">
        <time>2022-07-10T14:19:38Z</time>
      </trkpt>
      <trkpt lat="41.745686" lon="2.618896">
        <time>2022-07-10T14:19:39Z</time>
      </trkpt>
      <trkpt lat="41.74564" lon="2.618957">
        <time>2022-07-10T14:19:40Z</time>
      </trkpt>
      <trkpt lat="41.745594" lon="2.619017">
        <time>2022-07-10T14:19:41Z</time>
      </trkpt>
      <trkpt lat="41.745544" lon="2.6190743">
        <time>2022-07-10T14:19:42Z</time>
      </trkpt>
      <trkpt lat="41.745502" lon="2.619127">
        <time>2022-07-10T14:19:43Z</time>
      </trkpt>
      <trkpt lat="41.745457" lon="2.6191814">
        <time>2022-07-10T14:19:44Z</time>
      </trkpt>
      <trkpt lat="41.745407" lon="2.6192393">
        <time>2022-07-10T14:19:45Z</time>
      </trkpt>
      <trkpt lat="41.74536" lon="2.6192968">
        <time>2022-07-10T14:19:46Z</time>
      </trkpt>
      <trkpt lat="41.74531" lon="2.6193514">
        <time>2022-07-10T14:19:47Z</time>
      </trkpt>
      <trkpt lat="41.745262" lon="2.6194043">
        <time>2022-07-10T14:19:48Z</time>
      </trkpt>
      <trkpt lat="41.745213" lon="2.6194568">
        <time>2022-07-10T14:19:49Z</time>
      </trkpt>
      <trkpt lat="41.745167" lon="2.619508">
        <time>2022-07-10T14:19:50Z</time>
      </trkpt>
      <trkpt lat="41.745117" lon="2.6195576">
        <time>2022-07-10T14:19:51Z</time>
      </trkpt>
      <trkpt lat="41.74507" lon="2.6196017">
        <time>2022-07-10T14:19:52Z</time>
      </trkpt>
      <trkpt lat="41.74502" lon="2.6196494">
        <time>2022-07-10T14:19:53Z</time>
      </trkpt>
      <trkpt lat="41.744976" lon="2.619695">
        <time>2022-07-10T14:19:54Z</time>
      </trkpt>
      <trkpt lat="41.744934" lon="2.619738">
        <time>2022-07-10T14:19:55Z</time>
      </trkpt>
      <trkpt lat="41.744892" lon="2.6197782">
        <time>2022-07-10T14:19:56Z</time>
      </trkpt>
      <trkpt lat="41.74485" lon="2.619816">
        <time>2022-07-10T14:19:57Z</time>
      </trkpt>
      <trkpt lat="41.744812" lon="2.6198504">
        <time>2022-07-10T14:19:58Z</time>
      </trkpt>
      <trkpt lat="41.74474" lon="2.6199138">
        <time>2022-07-10T14:20:00Z</time>
      </trkpt>
      <trkpt lat="41.744667" lon="2.619973">
        <time>2022-07-10T14:20:02Z</time>
      </trkpt>
      <trkpt lat="41.744595" lon="2.6200333">
        <time>2022-07-10T14:20:04Z</time>
      </trkpt>
      <trkpt lat="41.74452" lon="2.6200993">
        <time>2022-07-10T14:20:06Z</time>
      </trkpt>
      <trkpt lat="41.74448" lon="2.6201313">
        <time>2022-07-10T14:20:07Z</time>
      </trkpt>
      <trkpt lat="41.74441" lon="2.620191">
        <time>2022-07-10T14:20:09Z</time>
      </trkpt>
      <trkpt lat="41.74434" lon="2.620255">
        <time>2022-07-10T14:20:11Z</time>
      </trkpt>
      <trkpt lat="41.74423" lon="2.6203496">
        <time>2022-07-10T14:20:14Z</time>
      </trkpt>
      <trkpt lat="41.74415" lon="2.620413">
        <time>2022-07-10T14:20:16Z</time>
      </trkpt>
      <trkpt lat="41.744072" lon="2.6204853">
        <time>2022-07-10T14:20:18Z</time>
      </trkpt>
      <trkpt lat="41.74403" lon="2.6205227">
        <time>2022-07-10T14:20:19Z</time>
      </trkpt>
      <trkpt lat="41.743946" lon="2.6205966">
        <time>2022-07-10T14:20:21Z</time>
      </trkpt>
      <trkpt lat="41.743904" lon="2.620634">
        <time>2022-07-10T14:20:22Z</time>
      </trkpt>
      <trkpt lat="41.743855" lon="2.6206744">
        <time>2022-07-10T14:20:23Z</time>
      </trkpt>
      <trkpt lat="41.7438" lon="2.6207223">
        <time>2022-07-10T14:20:24Z</time>
      </trkpt>
      <trkpt lat="41.74375" lon="2.6207683">
        <time>2022-07-10T14:20:25Z</time>
      </trkpt>
      <trkpt lat="41.7437" lon="2.620818">
        <time>2022-07-10T14:20:26Z</time>
      </trkpt>
      <trkpt lat="41.743637" lon="2.6208756">
        <time>2022-07-10T14:20:27Z</time>
      </trkpt>
      <trkpt lat="41.743576" lon="2.620937">
        <time>2022-07-10T14:20:28Z</time>
      </trkpt>
      <trkpt lat="41.743515" lon="2.621002">
        <time>2022-07-10T14:20:29Z</time>
      </trkpt>
      <trkpt lat="41.743454" lon="2.6210713">
        <time>2022-07-10T14:20:30Z</time>
      </trkpt>
      <trkpt lat="41.743393" lon="2.6211452">
        <time>2022-07-10T14:20:31Z</time>
      </trkpt>
      <trkpt lat="41.743332" lon="2.6212237">
        <time>2022-07-10T14:20:32Z</time>
      </trkpt>
      <trkpt lat="41.743275" lon="2.6213074">
        <time>2022-07-10T14:20:33Z</time>
      </trkpt>
      <trkpt lat="41.74322" lon="2.6213944">
        <time>2022-07-10T14:20:34Z</time>
      </trkpt>
      <trkpt lat="41.743168" lon="2.6214864">
        <time>2022-07-10T14:20:35Z</time>
      </trkpt>
      <trkpt lat="41.74312" lon="2.6215816">
        <time>2022-07-10T14:20:36Z</time>
      </trkpt>
      <trkpt lat="41.743073" lon="2.6216793">
        <time>2022-07-10T14:20:37Z</time>
      </trkpt>
      <trkpt lat="41.743023" lon="2.6217833">
        <time>2022-07-10T14:20:38Z</time>
      </trkpt>
      <trkpt lat="41.742985" lon="2.6218793">
        <time>2022-07-10T14:20:39Z</time>
      </trkpt>
      <trkpt lat="41.742947" lon="2.6219747">
        <time>2022-07-10T14:20:40Z</time>
      </trkpt>
      <trkpt lat="41.74291" lon="2.622068">
        <time>2022-07-10T14:20:41Z</time>
      </trkpt>
      <trkpt lat="41.742878" lon="2.6221592">
        <time>2022-07-10T14:20:42Z</time>
      </trkpt>
      <trkpt lat="41.742844" lon="2.6222477">
        <time>2022-07-10T14:20:43Z</time>
      </trkpt>
      <trkpt lat="41.74281" lon="2.622333">
        <time>2022-07-10T14:20:44Z</time>
      </trkpt>
      <trkpt lat="41.742767" lon="2.622418">
        <time>2022-07-10T14:20:45Z</time>
      </trkpt>
      <trkpt lat="41.74273" lon="2.622491">
        <time>2022-07-10T14:20:46Z</time>
      </trkpt>
      <trkpt lat="41.74269" lon="2.6225588">
        <time>2022-07-10T14:20:47Z</time>
      </trkpt>
      <trkpt lat="41.742653" lon="2.6226223">
        <time>2022-07-10T14:20:48Z</time>
      </trkpt>
      <trkpt lat="41.742607" lon="2.622678">
        <time>2022-07-10T14:20:49Z</time>
      </trkpt>
      <trkpt lat="41.74256" lon="2.6227252">
        <time>2022-07-10T14:20:50Z</time>
      </trkpt>
      <trkpt lat="41.742516" lon="2.6227663">
        <time>2022-07-10T14:20:51Z</time>
      </trkpt>
      <trkpt lat="41.74247" lon="2.6228042">
        <time>2022-07-10T14:20:52Z</time>
      </trkpt>
      <trkpt lat="41.742428" lon="2.6228418">
        <time>2022-07-10T14:20:53Z</time>
      </trkpt>
      <trkpt lat="41.74236" lon="2.6229289">
        <time>2022-07-10T14:20:55Z</time>
      </trkpt>
      <trkpt lat="41.74231" lon="2.6230376">
        <time>2022-07-10T14:20:57Z</time>
      </trkpt>
      <trkpt lat="41.742287" lon="2.623097">
        <time>2022-07-10T14:20:58Z</time>
      </trkpt>
      <trkpt lat="41.742245" lon="2.623225">
        <time>2022-07-10T14:21:00Z</time>
      </trkpt>
      <trkpt lat="41.74222" lon="2.6232896">
        <time>2022-07-10T14:21:01Z</time>
      </trkpt>
      <trkpt lat="41.7422" lon="2.6233463">
        <time>2022-07-10T14:21:02Z</time>
      </trkpt>
      <trkpt lat="41.742146" lon="2.6234486">
        <time>2022-07-10T14:21:04Z</time>
      </trkpt>
      <trkpt lat="41.74208" lon="2.62353">
        <time>2022-07-10T14:21:06Z</time>
      </trkpt>
      <trkpt lat="41.742016" lon="2.6235936">
        <time>2022-07-10T14:21:08Z</time>
      </trkpt>
      <trkpt lat="41.74197" lon="2.6236675">
        <time>2022-07-10T14:21:10Z</time>
      </trkpt>
      <trkpt lat="41.741955" lon="2.6237535">
        <time>2022-07-10T14:21:12Z</time>
      </trkpt>
      <trkpt lat="41.741962" lon="2.6238403">
        <time>2022-07-10T14:21:14Z</time>
      </trkpt>
      <trkpt lat="41.741985" lon="2.6239333">
        <time>2022-07-10T14:21:16Z</time>
      </trkpt>
      <trkpt lat="41.742023" lon="2.6240165">
        <time>2022-07-10T14:21:18Z</time>
      </trkpt>
      <trkpt lat="41.74208" lon="2.624085">
        <time>2022-07-10T14:21:20Z</time>
      </trkpt>
      <trkpt lat="41.74215" lon="2.6241312">
        <time>2022-07-10T14:21:22Z</time>
      </trkpt>
      <trkpt lat="41.74222" lon="2.6241488">
        <time>2022-07-10T14:21:24Z</time>
      </trkpt>
      <trkpt lat="41.742294" lon="2.624138">
        <time>2022-07-10T14:21:26Z</time>
      </trkpt>
      <trkpt lat="41.74237" lon="2.6241128">
        <time>2022-07-10T14:21:28Z</time>
      </trkpt>
      <trkpt lat="41.742443" lon="2.6240845">
        <time>2022-07-10T14:21:30Z</time>
      </trkpt>
      <trkpt lat="41.74252" lon="2.6240585">
        <time>2022-07-10T14:21:32Z</time>
      </trkpt>
      <trkpt lat="41.74259" lon="2.6240373">
        <time>2022-07-10T14:21:34Z</time>
      </trkpt>
      <trkpt lat="41.742664" lon="2.6240268">
        <time>2022-07-10T14:21:36Z</time>
      </trkpt>
      <trkpt lat="41.742725" lon="2.624018">
        <time>2022-07-10T14:21:38Z</time>
      </trkpt>
      <trkpt lat="41.742786" lon="2.6240132">
        <time>2022-07-10T14:21:40Z</time>
      </trkpt>
      <trkpt lat="41.74285" lon="2.6240187">
        <time>2022-07-10T14:21:42Z</time>
      </trkpt>
      <trkpt lat="41.74292" lon="2.6240318">
        <time>2022-07-10T14:21:44Z</time>
      </trkpt>
      <trkpt lat="41.742985" lon="2.6240466">
        <time>2022-07-10T14:21:46Z</time>
      </trkpt>
      <trkpt lat="41.743053" lon="2.624064">
        <time>2022-07-10T14:21:48Z</time>
      </trkpt>
      <trkpt lat="41.74312" lon="2.6240826">
        <time>2022-07-10T14:21:50Z</time>
      </trkpt>
      <trkpt lat="41.74318" lon="2.6241016">
        <time>2022-07-10T14:21:52Z</time>
      </trkpt>
      <trkpt lat="41.74324" lon="2.6241214">
        <time>2022-07-10T14:21:54Z</time>
      </trkpt>
      <trkpt lat="41.743298" lon="2.6241415">
        <time>2022-07-10T14:21:56Z</time>
      </trkpt>
      <trkpt lat="41.743355" lon="2.6241615">
        <time>2022-07-10T14:21:58Z</time>
      </trkpt>
      <trkpt lat="41.74341" lon="2.624179">
        <time>2022-07-10T14:22:00Z</time>
      </trkpt>
      <trkpt lat="41.743458" lon="2.6241963">
        <time>2022-07-10T14:22:02Z</time>
      </trkpt>
      <trkpt lat="41.743523" lon="2.6242173">
        <time>2022-07-10T14:22:05Z</time>
      </trkpt>
      <trkpt lat="41.743584" lon="2.6242385">
        <time>2022-07-10T14:22:08Z</time>
      </trkpt>
      <trkpt lat="41.74365" lon="2.6242619">
        <time>2022-07-10T14:22:11Z</time>
      </trkpt>
      <trkpt lat="41.743694" lon="2.6242788">
        <time>2022-07-10T14:22:13Z</time>
      </trkpt>
      <trkpt lat="41.743763" lon="2.6243021">
        <time>2022-07-10T14:22:16Z</time>
      </trkpt>
      <trkpt lat="41.743805" lon="2.6243162">
        <time>2022-07-10T14:22:18Z</time>
      </trkpt>
      <trkpt lat="41.74387" lon="2.6243436">
        <time>2022-07-10T14:22:21Z</time>
      </trkpt>
      <trkpt lat="41.743942" lon="2.624365">
        <time>2022-07-10T14:22:24Z</time>
      </trkpt>
      <trkpt lat="41.744007" lon="2.6243901">
        <time>2022-07-10T14:22:27Z</time>
      </trkpt>
      <trkpt lat="41.744076" lon="2.6244142">
        <time>2022-07-10T14:22:30Z</time>
      </trkpt>
      <trkpt lat="41.74412" lon="2.6244318">
        <time>2022-07-10T14:22:32Z</time>
      </trkpt>
      <trkpt lat="41.74419" lon="2.6244686">
        <time>2022-07-10T14:22:35Z</time>
      </trkpt>
      <trkpt lat="41.74426" lon="2.624518">
        <time>2022-07-10T14:22:38Z</time>
      </trkpt>
      <trkpt lat="41.7443" lon="2.6245477">
        <time>2022-07-10T14:22:40Z</time>
      </trkpt>
      <trkpt lat="41.744343" lon="2.6245835">
        <time>2022-07-10T14:22:42Z</time>
      </trkpt>
      <trkpt lat="41.7444" lon="2.6246386">
        <time>2022-07-10T14:22:45Z</time>
      </trkpt>
      <trkpt lat="41.744434" lon="2.6246722">
        <time>2022-07-10T14:22:47Z</time>
      </trkpt>
      <trkpt lat="41.744488" lon="2.6247265">
        <time>2022-07-10T14:22:50Z</time>
      </trkpt>
      <trkpt lat="41.744545" lon="2.6247864">
        <time>2022-07-10T14:22:53Z</time>
      </trkpt>
      <trkpt lat="41.744602" lon="2.6248484">
        <time>2022-07-10T14:22:56Z</time>
      </trkpt>
      <trkpt lat="41.74465" lon="2.6249142">
        <time>2022-07-10T14:22:59Z</time>
      </trkpt>
      <trkpt lat="41.744705" lon="2.6249857">
        <time>2022-07-10T14:23:02Z</time>
      </trkpt>
      <trkpt lat="41.74474" lon="2.625035">
        <time>2022-07-10T14:23:04Z</time>
      </trkpt>
      <trkpt lat="41.744785" lon="2.6251101">
        <time>2022-07-10T14:23:07Z</time>
      </trkpt>
      <trkpt lat="41.74483" lon="2.6251867">
        <time>2022-07-10T14:23:10Z</time>
      </trkpt>
      <trkpt lat="41.744877" lon="2.625266">
        <time>2022-07-10T14:23:13Z</time>
      </trkpt>
      <trkpt lat="41.74492" lon="2.6253395">
        <time>2022-07-10T14:23:16Z</time>
      </trkpt>
      <trkpt lat="41.74496" lon="2.625416">
        <time>2022-07-10T14:23:19Z</time>
      </trkpt>
      <trkpt lat="41.745003" lon="2.6254904">
        <time>2022-07-10T14:23:22Z</time>
      </trkpt>
      <trkpt lat="41.74504" lon="2.6255684">
        <time>2022-07-10T14:23:25Z</time>
      </trkpt>
      <trkpt lat="41.745083" lon="2.6256459">
        <time>2022-07-10T14:23:28Z</time>
      </trkpt>
      <trkpt lat="41.74511" lon="2.625694">
        <time>2022-07-10T14:23:30Z</time>
      </trkpt>
      <trkpt lat="41.745148" lon="2.6257694">
        <time>2022-07-10T14:23:33Z</time>
      </trkpt>
      <trkpt lat="41.745182" lon="2.6258495">
        <time>2022-07-10T14:23:36Z</time>
      </trkpt>
      <trkpt lat="41.745213" lon="2.6259284">
        <time>2022-07-10T14:23:39Z</time>
      </trkpt>
      <trkpt lat="41.745243" lon="2.6259997">
        <time>2022-07-10T14:23:42Z</time>
      </trkpt>
      <trkpt lat="41.74527" lon="2.6260662">
        <time>2022-07-10T14:23:45Z</time>
      </trkpt>
      <trkpt lat="41.745304" lon="2.6261249">
        <time>2022-07-10T14:23:48Z</time>
      </trkpt>
      <trkpt lat="41.745346" lon="2.6261814">
        <time>2022-07-10T14:23:51Z</time>
      </trkpt>
      <trkpt lat="41.74538" lon="2.6262457">
        <time>2022-07-10T14:23:54Z</time>
      </trkpt>
      <trkpt lat="41.745415" lon="2.6263177">
        <time>2022-07-10T14:23:57Z</time>
      </trkpt>
      <trkpt lat="41.74545" lon="2.626398">
        <time>2022-07-10T14:24:00Z</time>
      </trkpt>
      <trkpt lat="41.745476" lon="2.6264544">
        <time>2022-07-10T14:24:02Z</time>
      </trkpt>
      <trkpt lat="41.74551" lon="2.6265213">
        <time>2022-07-10T14:24:04Z</time>
      </trkpt>
      <trkpt lat="41.74554" lon="2.6265972">
        <time>2022-07-10T14:24:06Z</time>
      </trkpt>
      <trkpt lat="41.74558" lon="2.6266818">
        <time>2022-07-10T14:24:08Z</time>
      </trkpt>
      <trkpt lat="41.745617" lon="2.626776">
        <time>2022-07-10T14:24:10Z</time>
      </trkpt>
      <trkpt lat="41.745655" lon="2.6268795">
        <time>2022-07-10T14:24:12Z</time>
      </trkpt>
      <trkpt lat="41.745693" lon="2.626987">
        <time>2022-07-10T14:24:14Z</time>
      </trkpt>
      <trkpt lat="41.745735" lon="2.6271005">
        <time>2022-07-10T14:24:16Z</time>
      </trkpt>
      <trkpt lat="41.745777" lon="2.6272185">
        <time>2022-07-10T14:24:18Z</time>
      </trkpt>
      <trkpt lat="41.745827" lon="2.6273286">
        <time>2022-07-10T14:24:20Z</time>
      </trkpt>
      <trkpt lat="41.745888" lon="2.6274116">
        <time>2022-07-10T14:24:22Z</time>
      </trkpt>
      <trkpt lat="41.745956" lon="2.627436">
        <time>2022-07-10T14:24:24Z</time>
      </trkpt>
      <trkpt lat="41.745995" lon="2.6273978">
        <time>2022-07-10T14:24:26Z</time>
      </trkpt>
      <trkpt lat="41.746017" lon="2.627335">
        <time>2022-07-10T14:24:28Z</time>
      </trkpt>
      <trkpt lat="41.746037" lon="2.627284">
        <time>2022-07-10T14:24:30Z</time>
      </trkpt>
      <trkpt lat="41.746044" lon="2.627252">
        <time>2022-07-10T14:29:51Z</time>
      </trkpt>
      <trkpt lat="41.74604" lon="2.6273293">
        <time>2022-07-10T14:29:53Z</time>
      </trkpt>
      <trkpt lat="41.746037" lon="2.6274197">
        <time>2022-07-10T14:29:55Z</time>
      </trkpt>
      <trkpt lat="41.74603" lon="2.6275136">
        <time>2022-07-10T14:29:57Z</time>
      </trkpt>
      <trkpt lat="41.74602" lon="2.6276066">
        <time>2022-07-10T14:29:59Z</time>
      </trkpt>
      <trkpt lat="41.746017" lon="2.6277003">
        <time>2022-07-10T14:30:01Z</time>
      </trkpt>
      <trkpt lat="41.746033" lon="2.6277966">
        <time>2022-07-10T14:30:03Z</time>
      </trkpt>
      <trkpt lat="41.746063" lon="2.627897">
        <time>2022-07-10T14:30:05Z</time>
      </trkpt>
      <trkpt lat="41.746098" lon="2.6280024">
        <time>2022-07-10T14:30:07Z</time>
      </trkpt>
      <trkpt lat="41.746136" lon="2.6281147">
        <time>2022-07-10T14:30:09Z</time>
      </trkpt>
      <trkpt lat="41.746178" lon="2.628233">
        <time>2022-07-10T14:30:11Z</time>
      </trkpt>
      <trkpt lat="41.74622" lon="2.628361">
        <time>2022-07-10T14:30:13Z</time>
      </trkpt>
      <trkpt lat="41.74624" lon="2.6284237">
        <time>2022-07-10T14:30:14Z</time>
      </trkpt>
      <trkpt lat="41.746258" lon="2.6284873">
        <time>2022-07-10T14:30:15Z</time>
      </trkpt>
      <trkpt lat="41.746292" lon="2.6286228">
        <time>2022-07-10T14:30:17Z</time>
      </trkpt>
      <trkpt lat="41.74631" lon="2.628694">
        <time>2022-07-10T14:30:18Z</time>
      </trkpt>
      <trkpt lat="41.746323" lon="2.6287677">
        <time>2022-07-10T14:30:19Z</time>
      </trkpt>
      <trkpt lat="41.746334" lon="2.6288433">
        <time>2022-07-10T14:30:20Z</time>
      </trkpt>
      <trkpt lat="41.74634" lon="2.628921">
        <time>2022-07-10T14:30:21Z</time>
      </trkpt>
      <trkpt lat="41.74635" lon="2.629005">
        <time>2022-07-10T14:30:22Z</time>
      </trkpt>
      <trkpt lat="41.746353" lon="2.6290827">
        <time>2022-07-10T14:30:23Z</time>
      </trkpt>
      <trkpt lat="41.746357" lon="2.629162">
        <time>2022-07-10T14:30:24Z</time>
      </trkpt>
      <trkpt lat="41.74636" lon="2.629243">
        <time>2022-07-10T14:30:25Z</time>
      </trkpt>
      <trkpt lat="41.74636" lon="2.629325">
        <time>2022-07-10T14:30:26Z</time>
      </trkpt>
      <trkpt lat="41.746365" lon="2.6294904">
        <time>2022-07-10T14:30:28Z</time>
      </trkpt>
      <trkpt lat="41.74637" lon="2.6295724">
        <time>2022-07-10T14:30:29Z</time>
      </trkpt>
      <trkpt lat="41.746372" lon="2.629654">
        <time>2022-07-10T14:30:30Z</time>
      </trkpt>
      <trkpt lat="41.746376" lon="2.6297362">
        <time>2022-07-10T14:30:31Z</time>
      </trkpt>
      <trkpt lat="41.746376" lon="2.6298187">
        <time>2022-07-10T14:30:32Z</time>
      </trkpt>
      <trkpt lat="41.746376" lon="2.629901">
        <time>2022-07-10T14:30:33Z</time>
      </trkpt>
      <trkpt lat="41.74638" lon="2.6299899">
        <time>2022-07-10T14:30:34Z</time>
      </trkpt>
      <trkpt lat="41.74638" lon="2.6300778">
        <time>2022-07-10T14:30:35Z</time>
      </trkpt>
      <trkpt lat="41.746384" lon="2.6301596">
        <time>2022-07-10T14:30:36Z</time>
      </trkpt>
      <trkpt lat="41.74639" lon="2.6302416">
        <time>2022-07-10T14:30:37Z</time>
      </trkpt>
      <trkpt lat="41.746395" lon="2.6303248">
        <time>2022-07-10T14:30:38Z</time>
      </trkpt>
      <trkpt lat="41.7464" lon="2.6304085">
        <time>2022-07-10T14:30:39Z</time>
      </trkpt>
      <trkpt lat="41.7464" lon="2.6304927">
        <time>2022-07-10T14:30:40Z</time>
      </trkpt>
      <trkpt lat="41.7464" lon="2.6305768">
        <time>2022-07-10T14:30:41Z</time>
      </trkpt>
      <trkpt lat="41.7464" lon="2.6306622">
        <time>2022-07-10T14:30:42Z</time>
      </trkpt>
      <trkpt lat="41.746403" lon="2.6307478">
        <time>2022-07-10T14:30:43Z</time>
      </trkpt>
      <trkpt lat="41.746403" lon="2.6308348">
        <time>2022-07-10T14:30:44Z</time>
      </trkpt>
      <trkpt lat="41.746403" lon="2.6309218">
        <time>2022-07-10T14:30:45Z</time>
      </trkpt>
      <trkpt lat="41.746403" lon="2.6310153">
        <time>2022-07-10T14:30:46Z</time>
      </trkpt>
      <trkpt lat="41.746403" lon="2.6311069">
        <time>2022-07-10T14:30:47Z</time>
      </trkpt>
      <trkpt lat="41.746407" lon="2.6311922">
        <time>2022-07-10T14:30:48Z</time>
      </trkpt>
      <trkpt lat="41.746407" lon="2.6312783">
        <time>2022-07-10T14:30:49Z</time>
      </trkpt>
      <trkpt lat="41.746407" lon="2.631372">
        <time>2022-07-10T14:30:50Z</time>
      </trkpt>
      <trkpt lat="41.74641" lon="2.6314645">
        <time>2022-07-10T14:30:51Z</time>
      </trkpt>
      <trkpt lat="41.74641" lon="2.6315506">
        <time>2022-07-10T14:30:52Z</time>
      </trkpt>
      <trkpt lat="41.746414" lon="2.6316438">
        <time>2022-07-10T14:30:53Z</time>
      </trkpt>
      <trkpt lat="41.746414" lon="2.6317356">
        <time>2022-07-10T14:30:54Z</time>
      </trkpt>
      <trkpt lat="41.746414" lon="2.6318266">
        <time>2022-07-10T14:30:55Z</time>
      </trkpt>
      <trkpt lat="41.746418" lon="2.631918">
        <time>2022-07-10T14:30:56Z</time>
      </trkpt>
      <trkpt lat="41.746418" lon="2.63201">
        <time>2022-07-10T14:30:57Z</time>
      </trkpt>
      <trkpt lat="41.746418" lon="2.6321023">
        <time>2022-07-10T14:30:58Z</time>
      </trkpt>
      <trkpt lat="41.746418" lon="2.6321888">
        <time>2022-07-10T14:30:59Z</time>
      </trkpt>
      <trkpt lat="41.746418" lon="2.6322796">
        <time>2022-07-10T14:31:00Z</time>
      </trkpt>
      <trkpt lat="41.746418" lon="2.6323793">
        <time>2022-07-10T14:31:01Z</time>
      </trkpt>
      <trkpt lat="41.746418" lon="2.63248">
        <time>2022-07-10T14:31:02Z</time>
      </trkpt>
      <trkpt lat="41.746418" lon="2.6325815">
        <time>2022-07-10T14:31:03Z</time>
      </trkpt>
      <trkpt lat="41.74642" lon="2.6326838">
        <time>2022-07-10T14:31:04Z</time>
      </trkpt>
      <trkpt lat="41.74642" lon="2.6327858">
        <time>2022-07-10T14:31:05Z</time>
      </trkpt>
      <trkpt lat="41.746426" lon="2.6328878">
        <time>2022-07-10T14:31:06Z</time>
      </trkpt>
      <trkpt lat="41.746426" lon="2.6329885">
        <time>2022-07-10T14:31:07Z</time>
      </trkpt>
      <trkpt lat="41.746426" lon="2.6330879">
        <time>2022-07-10T14:31:08Z</time>
      </trkpt>
      <trkpt lat="41.74643" lon="2.6331868">
        <time>2022-07-10T14:31:09Z</time>
      </trkpt>
      <trkpt lat="41.74643" lon="2.6332848">
        <time>2022-07-10T14:31:10Z</time>
      </trkpt>
      <trkpt lat="41.746433" lon="2.6333814">
        <time>2022-07-10T14:31:11Z</time>
      </trkpt>
      <trkpt lat="41.746437" lon="2.6334767">
        <time>2022-07-10T14:31:12Z</time>
      </trkpt>
      <trkpt lat="41.74644" lon="2.6335702">
        <time>2022-07-10T14:31:13Z</time>
      </trkpt>
      <trkpt lat="41.746445" lon="2.6336617">
        <time>2022-07-10T14:31:14Z</time>
      </trkpt>
      <trkpt lat="41.74645" lon="2.6337504">
        <time>2022-07-10T14:31:15Z</time>
      </trkpt>
      <trkpt lat="41.74645" lon="2.633831">
        <time>2022-07-10T14:31:16Z</time>
      </trkpt>
      <trkpt lat="41.746452" lon="2.6339114">
        <time>2022-07-10T14:31:17Z</time>
      </trkpt>
      <trkpt lat="41.746452" lon="2.6339917">
        <time>2022-07-10T14:31:18Z</time>
      </trkpt>
      <trkpt lat="41.746456" lon="2.634071">
        <time>2022-07-10T14:31:19Z</time>
      </trkpt>
      <trkpt lat="41.746456" lon="2.6341484">
        <time>2022-07-10T14:31:20Z</time>
      </trkpt>
      <trkpt lat="41.74646" lon="2.6342242">
        <time>2022-07-10T14:31:21Z</time>
      </trkpt>
      <trkpt lat="41.74646" lon="2.634303">
        <time>2022-07-10T14:31:22Z</time>
      </trkpt>
      <trkpt lat="41.746464" lon="2.6343775">
        <time>2022-07-10T14:31:23Z</time>
      </trkpt>
      <trkpt lat="41.746468" lon="2.6344485">
        <time>2022-07-10T14:31:24Z</time>
      </trkpt>
      <trkpt lat="41.746468" lon="2.6345122">
        <time>2022-07-10T14:31:25Z</time>
      </trkpt>
      <trkpt lat="41.746468" lon="2.6346364">
        <time>2022-07-10T14:31:27Z</time>
      </trkpt>
      <trkpt lat="41.74647" lon="2.634763">
        <time>2022-07-10T14:31:29Z</time>
      </trkpt>
      <trkpt lat="41.74647" lon="2.634884">
        <time>2022-07-10T14:31:31Z</time>
      </trkpt>
      <trkpt lat="41.74647" lon="2.635">
        <time>2022-07-10T14:31:33Z</time>
      </trkpt>
      <trkpt lat="41.74647" lon="2.6351137">
        <time>2022-07-10T14:31:35Z</time>
      </trkpt>
      <trkpt lat="41.74647" lon="2.635226">
        <time>2022-07-10T14:31:37Z</time>
      </trkpt>
      <trkpt lat="41.74647" lon="2.6353474">
        <time>2022-07-10T14:31:39Z</time>
      </trkpt>
      <trkpt lat="41.74647" lon="2.6354043">
        <time>2022-07-10T14:31:40Z</time>
      </trkpt>
      <trkpt lat="41.74647" lon="2.6355238">
        <time>2022-07-10T14:31:42Z</time>
      </trkpt>
      <trkpt lat="41.74647" lon="2.6356597">
        <time>2022-07-10T14:31:44Z</time>
      </trkpt>
      <trkpt lat="41.746475" lon="2.6357281">
        <time>2022-07-10T14:31:45Z</time>
      </trkpt>
      <trkpt lat="41.746475" lon="2.635869">
        <time>2022-07-10T14:31:47Z</time>
      </trkpt>
      <trkpt lat="41.74647" lon="2.6359403">
        <time>2022-07-10T14:31:48Z</time>
      </trkpt>
      <trkpt lat="41.74647" lon="2.636014">
        <time>2022-07-10T14:31:49Z</time>
      </trkpt>
      <trkpt lat="41.74647" lon="2.6360903">
        <time>2022-07-10T14:31:50Z</time>
      </trkpt>
      <trkpt lat="41.746468" lon="2.6361678">
        <time>2022-07-10T14:31:51Z</time>
      </trkpt>
      <trkpt lat="41.746468" lon="2.6362417">
        <time>2022-07-10T14:31:52Z</time>
      </trkpt>
      <trkpt lat="41.746468" lon="2.636323">
        <time>2022-07-10T14:31:53Z</time>
      </trkpt>
      <trkpt lat="41.746464" lon="2.636406">
        <time>2022-07-10T14:31:54Z</time>
      </trkpt>
      <trkpt lat="41.746464" lon="2.63649">
        <time>2022-07-10T14:31:55Z</time>
      </trkpt>
      <trkpt lat="41.746456" lon="2.6365733">
        <time>2022-07-10T14:31:56Z</time>
      </trkpt>
      <trkpt lat="41.746452" lon="2.636657">
        <time>2022-07-10T14:31:57Z</time>
      </trkpt>
      <trkpt lat="41.746445" lon="2.636741">
        <time>2022-07-10T14:31:58Z</time>
      </trkpt>
      <trkpt lat="41.746437" lon="2.636826">
        <time>2022-07-10T14:31:59Z</time>
      </trkpt>
      <trkpt lat="41.74643" lon="2.6369114">
        <time>2022-07-10T14:32:00Z</time>
      </trkpt>
      <trkpt lat="41.74642" lon="2.6369917">
        <time>2022-07-10T14:32:01Z</time>
      </trkpt>
      <trkpt lat="41.746414" lon="2.6370807">
        <time>2022-07-10T14:32:02Z</time>
      </trkpt>
      <trkpt lat="41.74641" lon="2.637164">
        <time>2022-07-10T14:32:03Z</time>
      </trkpt>
      <trkpt lat="41.7464" lon="2.6372557">
        <time>2022-07-10T14:32:04Z</time>
      </trkpt>
      <trkpt lat="41.74639" lon="2.637347">
        <time>2022-07-10T14:32:05Z</time>
      </trkpt>
      <trkpt lat="41.746384" lon="2.6374383">
        <time>2022-07-10T14:32:06Z</time>
      </trkpt>
      <trkpt lat="41.746372" lon="2.6375284">
        <time>2022-07-10T14:32:07Z</time>
      </trkpt>
      <trkpt lat="41.74636" lon="2.6376197">
        <time>2022-07-10T14:32:08Z</time>
      </trkpt>
      <trkpt lat="41.74635" lon="2.637712">
        <time>2022-07-10T14:32:09Z</time>
      </trkpt>
      <trkpt lat="41.746338" lon="2.6378043">
        <time>2022-07-10T14:32:10Z</time>
      </trkpt>
      <trkpt lat="41.746326" lon="2.6378963">
        <time>2022-07-10T14:32:11Z</time>
      </trkpt>
      <trkpt lat="41.74632" lon="2.6379886">
        <time>2022-07-10T14:32:12Z</time>
      </trkpt>
      <trkpt lat="41.746307" lon="2.638081">
        <time>2022-07-10T14:32:13Z</time>
      </trkpt>
      <trkpt lat="41.7463" lon="2.638173">
        <time>2022-07-10T14:32:14Z</time>
      </trkpt>
      <trkpt lat="41.74629" lon="2.6382644">
        <time>2022-07-10T14:32:15Z</time>
      </trkpt>
      <trkpt lat="41.746273" lon="2.6383545">
        <time>2022-07-10T14:32:16Z</time>
      </trkpt>
      <trkpt lat="41.746258" lon="2.6384444">
        <time>2022-07-10T14:32:17Z</time>
      </trkpt>
      <trkpt lat="41.746246" lon="2.6385345">
        <time>2022-07-10T14:32:18Z</time>
      </trkpt>
      <trkpt lat="41.746235" lon="2.638625">
        <time>2022-07-10T14:32:19Z</time>
      </trkpt>
      <trkpt lat="41.746223" lon="2.638716">
        <time>2022-07-10T14:32:20Z</time>
      </trkpt>
      <trkpt lat="41.746216" lon="2.6388063">
        <time>2022-07-10T14:32:21Z</time>
      </trkpt>
      <trkpt lat="41.74621" lon="2.6388955">
        <time>2022-07-10T14:32:22Z</time>
      </trkpt>
      <trkpt lat="41.7462" lon="2.6389823">
        <time>2022-07-10T14:32:23Z</time>
      </trkpt>
      <trkpt lat="41.746193" lon="2.6390688">
        <time>2022-07-10T14:32:24Z</time>
      </trkpt>
      <trkpt lat="41.74618" lon="2.639154">
        <time>2022-07-10T14:32:25Z</time>
      </trkpt>
      <trkpt lat="41.746174" lon="2.6392334">
        <time>2022-07-10T14:32:26Z</time>
      </trkpt>
      <trkpt lat="41.746166" lon="2.6393065">
        <time>2022-07-10T14:32:27Z</time>
      </trkpt>
      <trkpt lat="41.74616" lon="2.6393707">
        <time>2022-07-10T14:32:28Z</time>
      </trkpt>
      <trkpt lat="41.74616" lon="2.6394227">
        <time>2022-07-10T14:32:29Z</time>
      </trkpt>
      <trkpt lat="41.74616" lon="2.6395">
        <time>2022-07-10T14:32:31Z</time>
      </trkpt>
      <trkpt lat="41.746143" lon="2.6394506">
        <time>2022-07-10T14:32:54Z</time>
      </trkpt>
      <trkpt lat="41.746143" lon="2.6393802">
        <time>2022-07-10T14:32:57Z</time>
      </trkpt>
      <trkpt lat="41.746128" lon="2.6393096">
        <time>2022-07-10T14:33:00Z</time>
      </trkpt>
      <trkpt lat="41.746086" lon="2.6392617">
        <time>2022-07-10T14:33:03Z</time>
      </trkpt>
      <trkpt lat="41.746033" lon="2.6392395">
        <time>2022-07-10T14:33:06Z</time>
      </trkpt>
      <trkpt lat="41.745975" lon="2.639226">
        <time>2022-07-10T14:33:09Z</time>
      </trkpt>
      <trkpt lat="41.745922" lon="2.6392224">
        <time>2022-07-10T14:33:12Z</time>
      </trkpt>
      <trkpt lat="41.74588" lon="2.639217">
        <time>2022-07-10T14:33:16Z</time>
      </trkpt>
      <trkpt lat="41.745846" lon="2.6392982">
        <time>2022-07-10T14:33:39Z</time>
      </trkpt>
      <trkpt lat="41.745853" lon="2.6393747">
        <time>2022-07-10T14:33:42Z</time>
      </trkpt>
      <trkpt lat="41.745853" lon="2.6394546">
        <time>2022-07-10T14:33:45Z</time>
      </trkpt>
      <trkpt lat="41.74585" lon="2.639539">
        <time>2022-07-10T14:33:48Z</time>
      </trkpt>
      <trkpt lat="41.745842" lon="2.639617">
        <time>2022-07-10T14:33:51Z</time>
      </trkpt>
      <trkpt lat="41.74583" lon="2.6396706">
        <time>2022-07-10T14:33:57Z</time>
      </trkpt>
      <trkpt lat="41.745853" lon="2.639592">
        <time>2022-07-10T14:39:08Z</time>
      </trkpt>
      <trkpt lat="41.745865" lon="2.639517">
        <time>2022-07-10T14:39:12Z</time>
      </trkpt>
      <trkpt lat="41.745872" lon="2.6394517">
        <time>2022-07-10T14:39:16Z</time>
      </trkpt>
      <trkpt lat="41.745888" lon="2.6393757">
        <time>2022-07-10T14:39:21Z</time>
      </trkpt>
      <trkpt lat="41.745884" lon="2.6392965">
        <time>2022-07-10T14:39:26Z</time>
      </trkpt>
      <trkpt lat="41.745876" lon="2.6392162">
        <time>2022-07-10T14:39:31Z</time>
      </trkpt>
      <trkpt lat="41.745857" lon="2.6389499">
        <time>2022-07-10T14:48:36Z</time>
      </trkpt>
      <trkpt lat="41.745975" lon="2.639131">
        <time>2022-07-10T15:21:13Z</time>
      </trkpt>
      <trkpt lat="41.746037" lon="2.6391523">
        <time>2022-07-10T15:21:17Z</time>
      </trkpt>
      <trkpt lat="41.74609" lon="2.639184">
        <time>2022-07-10T15:21:20Z</time>
      </trkpt>
      <trkpt lat="41.746143" lon="2.6392443">
        <time>2022-07-10T15:21:23Z</time>
      </trkpt>
      <trkpt lat="41.746174" lon="2.6393044">
        <time>2022-07-10T15:21:25Z</time>
      </trkpt>
      <trkpt lat="41.74619" lon="2.6393802">
        <time>2022-07-10T15:21:27Z</time>
      </trkpt>
      <trkpt lat="41.746197" lon="2.6394677">
        <time>2022-07-10T15:21:29Z</time>
      </trkpt>
      <trkpt lat="41.746197" lon="2.6395679">
        <time>2022-07-10T15:21:31Z</time>
      </trkpt>
      <trkpt lat="41.746193" lon="2.6396842">
        <time>2022-07-10T15:21:33Z</time>
      </trkpt>
      <trkpt lat="41.74619" lon="2.6398203">
        <time>2022-07-10T15:21:35Z</time>
      </trkpt>
      <trkpt lat="41.74619" lon="2.6398957">
        <time>2022-07-10T15:21:36Z</time>
      </trkpt>
      <trkpt lat="41.746193" lon="2.6399739">
        <time>2022-07-10T15:21:37Z</time>
      </trkpt>
      <trkpt lat="41.746197" lon="2.6400552">
        <time>2022-07-10T15:21:38Z</time>
      </trkpt>
      <trkpt lat="41.7462" lon="2.6401396">
        <time>2022-07-10T15:21:39Z</time>
      </trkpt>
      <trkpt lat="41.74621" lon="2.6402273">
        <time>2022-07-10T15:21:40Z</time>
      </trkpt>
      <trkpt lat="41.74622" lon="2.6403182">
        <time>2022-07-10T15:21:41Z</time>
      </trkpt>
      <trkpt lat="41.746227" lon="2.640405">
        <time>2022-07-10T15:21:42Z</time>
      </trkpt>
      <trkpt lat="41.74623" lon="2.6404989">
        <time>2022-07-10T15:21:43Z</time>
      </trkpt>
      <trkpt lat="41.746235" lon="2.6406016">
        <time>2022-07-10T15:21:44Z</time>
      </trkpt>
      <trkpt lat="41.746227" lon="2.6407015">
        <time>2022-07-10T15:21:45Z</time>
      </trkpt>
      <trkpt lat="41.746212" lon="2.6408">
        <time>2022-07-10T15:21:46Z</time>
      </trkpt>
      <trkpt lat="41.746193" lon="2.6408975">
        <time>2022-07-10T15:21:47Z</time>
      </trkpt>
      <trkpt lat="41.746178" lon="2.6409962">
        <time>2022-07-10T15:21:48Z</time>
      </trkpt>
      <trkpt lat="41.746155" lon="2.6410952">
        <time>2022-07-10T15:21:49Z</time>
      </trkpt>
      <trkpt lat="41.746136" lon="2.6411948">
        <time>2022-07-10T15:21:50Z</time>
      </trkpt>
      <trkpt lat="41.746117" lon="2.6412966">
        <time>2022-07-10T15:21:51Z</time>
      </trkpt>
      <trkpt lat="41.746094" lon="2.6413999">
        <time>2022-07-10T15:21:52Z</time>
      </trkpt>
      <trkpt lat="41.74608" lon="2.6415014">
        <time>2022-07-10T15:21:53Z</time>
      </trkpt>
      <trkpt lat="41.74606" lon="2.6415925">
        <time>2022-07-10T15:21:54Z</time>
      </trkpt>
      <trkpt lat="41.746037" lon="2.6416802">
        <time>2022-07-10T15:21:55Z</time>
      </trkpt>
      <trkpt lat="41.74601" lon="2.6417565">
        <time>2022-07-10T15:21:56Z</time>
      </trkpt>
      <trkpt lat="41.745983" lon="2.6418233">
        <time>2022-07-10T15:21:57Z</time>
      </trkpt>
      <trkpt lat="41.745956" lon="2.6418815">
        <time>2022-07-10T15:21:58Z</time>
      </trkpt>
      <trkpt lat="41.745926" lon="2.641934">
        <time>2022-07-10T15:21:59Z</time>
      </trkpt>
      <trkpt lat="41.74589" lon="2.6419835">
        <time>2022-07-10T15:22:00Z</time>
      </trkpt>
      <trkpt lat="41.745853" lon="2.642031">
        <time>2022-07-10T15:22:01Z</time>
      </trkpt>
      <trkpt lat="41.745773" lon="2.6421268">
        <time>2022-07-10T15:22:03Z</time>
      </trkpt>
      <trkpt lat="41.74573" lon="2.642178">
        <time>2022-07-10T15:22:04Z</time>
      </trkpt>
      <trkpt lat="41.74569" lon="2.6422346">
        <time>2022-07-10T15:22:05Z</time>
      </trkpt>
      <trkpt lat="41.745647" lon="2.6422968">
        <time>2022-07-10T15:22:06Z</time>
      </trkpt>
      <trkpt lat="41.745605" lon="2.6423662">
        <time>2022-07-10T15:22:07Z</time>
      </trkpt>
      <trkpt lat="41.745533" lon="2.6425269">
        <time>2022-07-10T15:22:09Z</time>
      </trkpt>
      <trkpt lat="41.745502" lon="2.642616">
        <time>2022-07-10T15:22:10Z</time>
      </trkpt>
      <trkpt lat="41.745472" lon="2.6427093">
        <time>2022-07-10T15:22:11Z</time>
      </trkpt>
      <trkpt lat="41.74544" lon="2.642806">
        <time>2022-07-10T15:22:12Z</time>
      </trkpt>
      <trkpt lat="41.74542" lon="2.6429055">
        <time>2022-07-10T15:22:13Z</time>
      </trkpt>
      <trkpt lat="41.745396" lon="2.6430075">
        <time>2022-07-10T15:22:14Z</time>
      </trkpt>
      <trkpt lat="41.745377" lon="2.643108">
        <time>2022-07-10T15:22:15Z</time>
      </trkpt>
      <trkpt lat="41.745358" lon="2.6432068">
        <time>2022-07-10T15:22:16Z</time>
      </trkpt>
      <trkpt lat="41.74534" lon="2.6433039">
        <time>2022-07-10T15:22:17Z</time>
      </trkpt>
      <trkpt lat="41.745323" lon="2.6433997">
        <time>2022-07-10T15:22:18Z</time>
      </trkpt>
      <trkpt lat="41.745308" lon="2.6434941">
        <time>2022-07-10T15:22:19Z</time>
      </trkpt>
      <trkpt lat="41.7453" lon="2.6435878">
        <time>2022-07-10T15:22:20Z</time>
      </trkpt>
      <trkpt lat="41.745293" lon="2.6436808">
        <time>2022-07-10T15:22:21Z</time>
      </trkpt>
      <trkpt lat="41.745285" lon="2.6437721">
        <time>2022-07-10T15:22:22Z</time>
      </trkpt>
      <trkpt lat="41.745274" lon="2.643861">
        <time>2022-07-10T15:22:23Z</time>
      </trkpt>
      <trkpt lat="41.745255" lon="2.6439457">
        <time>2022-07-10T15:22:24Z</time>
      </trkpt>
      <trkpt lat="41.74523" lon="2.6440268">
        <time>2022-07-10T15:22:25Z</time>
      </trkpt>
      <trkpt lat="41.7452" lon="2.6441064">
        <time>2022-07-10T15:22:26Z</time>
      </trkpt>
      <trkpt lat="41.745167" lon="2.644186">
        <time>2022-07-10T15:22:27Z</time>
      </trkpt>
      <trkpt lat="41.74513" lon="2.644268">
        <time>2022-07-10T15:22:28Z</time>
      </trkpt>
      <trkpt lat="41.745094" lon="2.6443539">
        <time>2022-07-10T15:22:29Z</time>
      </trkpt>
      <trkpt lat="41.745068" lon="2.6444438">
        <time>2022-07-10T15:22:30Z</time>
      </trkpt>
      <trkpt lat="41.74504" lon="2.6445384">
        <time>2022-07-10T15:22:31Z</time>
      </trkpt>
      <trkpt lat="41.745018" lon="2.6446385">
        <time>2022-07-10T15:22:32Z</time>
      </trkpt>
      <trkpt lat="41.744995" lon="2.644742">
        <time>2022-07-10T15:22:33Z</time>
      </trkpt>
      <trkpt lat="41.74498" lon="2.6448512">
        <time>2022-07-10T15:22:34Z</time>
      </trkpt>
      <trkpt lat="41.74497" lon="2.644963">
        <time>2022-07-10T15:22:35Z</time>
      </trkpt>
      <trkpt lat="41.744957" lon="2.6450775">
        <time>2022-07-10T15:22:36Z</time>
      </trkpt>
      <trkpt lat="41.74495" lon="2.6451945">
        <time>2022-07-10T15:22:37Z</time>
      </trkpt>
      <trkpt lat="41.744938" lon="2.645314">
        <time>2022-07-10T15:22:38Z</time>
      </trkpt>
      <trkpt lat="41.74493" lon="2.645435">
        <time>2022-07-10T15:22:39Z</time>
      </trkpt>
      <trkpt lat="41.744915" lon="2.645555">
        <time>2022-07-10T15:22:40Z</time>
      </trkpt>
      <trkpt lat="41.744896" lon="2.6456723">
        <time>2022-07-10T15:22:41Z</time>
      </trkpt>
      <trkpt lat="41.74487" lon="2.645785">
        <time>2022-07-10T15:22:42Z</time>
      </trkpt>
      <trkpt lat="41.744846" lon="2.6458926">
        <time>2022-07-10T15:22:43Z</time>
      </trkpt>
      <trkpt lat="41.74482" lon="2.6459968">
        <time>2022-07-10T15:22:44Z</time>
      </trkpt>
      <trkpt lat="41.744797" lon="2.6460953">
        <time>2022-07-10T15:22:45Z</time>
      </trkpt>
      <trkpt lat="41.744774" lon="2.6461902">
        <time>2022-07-10T15:22:46Z</time>
      </trkpt>
      <trkpt lat="41.744755" lon="2.6462817">
        <time>2022-07-10T15:22:47Z</time>
      </trkpt>
      <trkpt lat="41.74474" lon="2.6463706">
        <time>2022-07-10T15:22:48Z</time>
      </trkpt>
      <trkpt lat="41.744728" lon="2.6464584">
        <time>2022-07-10T15:22:49Z</time>
      </trkpt>
      <trkpt lat="41.74472" lon="2.6465456">
        <time>2022-07-10T15:22:50Z</time>
      </trkpt>
      <trkpt lat="41.744713" lon="2.6466317">
        <time>2022-07-10T15:22:51Z</time>
      </trkpt>
      <trkpt lat="41.744713" lon="2.6467173">
        <time>2022-07-10T15:22:52Z</time>
      </trkpt>
      <trkpt lat="41.74471" lon="2.646801">
        <time>2022-07-10T15:22:53Z</time>
      </trkpt>
      <trkpt lat="41.74471" lon="2.6468787">
        <time>2022-07-10T15:22:54Z</time>
      </trkpt>
      <trkpt lat="41.74471" lon="2.6469626">
        <time>2022-07-10T15:22:55Z</time>
      </trkpt>
      <trkpt lat="41.7447" lon="2.6470437">
        <time>2022-07-10T15:22:56Z</time>
      </trkpt>
      <trkpt lat="41.744694" lon="2.6471202">
        <time>2022-07-10T15:22:57Z</time>
      </trkpt>
      <trkpt lat="41.74467" lon="2.64719">
        <time>2022-07-10T15:22:58Z</time>
      </trkpt>
      <trkpt lat="41.744644" lon="2.6472538">
        <time>2022-07-10T15:22:59Z</time>
      </trkpt>
      <trkpt lat="41.744614" lon="2.6473086">
        <time>2022-07-10T15:23:00Z</time>
      </trkpt>
      <trkpt lat="41.744576" lon="2.6473544">
        <time>2022-07-10T15:23:01Z</time>
      </trkpt>
      <trkpt lat="41.744488" lon="2.6474242">
        <time>2022-07-10T15:23:03Z</time>
      </trkpt>
      <trkpt lat="41.744442" lon="2.6474524">
        <time>2022-07-10T15:23:04Z</time>
      </trkpt>
      <trkpt lat="41.74434" lon="2.6474977">
        <time>2022-07-10T15:23:06Z</time>
      </trkpt>
      <trkpt lat="41.74429" lon="2.6475172">
        <time>2022-07-10T15:23:07Z</time>
      </trkpt>
      <trkpt lat="41.744236" lon="2.6475356">
        <time>2022-07-10T15:23:08Z</time>
      </trkpt>
      <trkpt lat="41.744186" lon="2.6475527">
        <time>2022-07-10T15:23:09Z</time>
      </trkpt>
      <trkpt lat="41.744133" lon="2.647569">
        <time>2022-07-10T15:23:10Z</time>
      </trkpt>
      <trkpt lat="41.744083" lon="2.6475863">
        <time>2022-07-10T15:23:11Z</time>
      </trkpt>
      <trkpt lat="41.74403" lon="2.6476035">
        <time>2022-07-10T15:23:12Z</time>
      </trkpt>
      <trkpt lat="41.74398" lon="2.647621">
        <time>2022-07-10T15:23:13Z</time>
      </trkpt>
      <trkpt lat="41.743877" lon="2.647657">
        <time>2022-07-10T15:23:15Z</time>
      </trkpt>
      <trkpt lat="41.743828" lon="2.6476746">
        <time>2022-07-10T15:23:16Z</time>
      </trkpt>
      <trkpt lat="41.743774" lon="2.64769">
        <time>2022-07-10T15:23:17Z</time>
      </trkpt>
      <trkpt lat="41.74373" lon="2.6476986">
        <time>2022-07-10T15:23:18Z</time>
      </trkpt>
      <trkpt lat="41.743633" lon="2.6476936">
        <time>2022-07-10T15:23:20Z</time>
      </trkpt>
      <trkpt lat="41.743587" lon="2.647685">
        <time>2022-07-10T15:23:21Z</time>
      </trkpt>
      <trkpt lat="41.7435" lon="2.6476817">
        <time>2022-07-10T15:23:23Z</time>
      </trkpt>
      <trkpt lat="41.74341" lon="2.6477566">
        <time>2022-07-10T15:23:26Z</time>
      </trkpt>
      <trkpt lat="41.743397" lon="2.6478388">
        <time>2022-07-10T15:23:28Z</time>
      </trkpt>
      <trkpt lat="41.743412" lon="2.6479356">
        <time>2022-07-10T15:23:30Z</time>
      </trkpt>
      <trkpt lat="41.743423" lon="2.648048">
        <time>2022-07-10T15:23:32Z</time>
      </trkpt>
      <trkpt lat="41.74342" lon="2.6481736">
        <time>2022-07-10T15:23:34Z</time>
      </trkpt>
      <trkpt lat="41.743397" lon="2.6483014">
        <time>2022-07-10T15:23:36Z</time>
      </trkpt>
      <trkpt lat="41.743385" lon="2.648368">
        <time>2022-07-10T15:23:37Z</time>
      </trkpt>
      <trkpt lat="41.743374" lon="2.6484356">
        <time>2022-07-10T15:23:38Z</time>
      </trkpt>
      <trkpt lat="41.74335" lon="2.6485715">
        <time>2022-07-10T15:23:40Z</time>
      </trkpt>
      <trkpt lat="41.74334" lon="2.6486385">
        <time>2022-07-10T15:23:41Z</time>
      </trkpt>
      <trkpt lat="41.743324" lon="2.6487055">
        <time>2022-07-10T15:23:42Z</time>
      </trkpt>
      <trkpt lat="41.743298" lon="2.6488392">
        <time>2022-07-10T15:23:44Z</time>
      </trkpt>
      <trkpt lat="41.743286" lon="2.6489081">
        <time>2022-07-10T15:23:45Z</time>
      </trkpt>
      <trkpt lat="41.743275" lon="2.648978">
        <time>2022-07-10T15:23:46Z</time>
      </trkpt>
      <trkpt lat="41.743263" lon="2.6490471">
        <time>2022-07-10T15:23:47Z</time>
      </trkpt>
      <trkpt lat="41.74325" lon="2.649117">
        <time>2022-07-10T15:23:48Z</time>
      </trkpt>
      <trkpt lat="41.74324" lon="2.6491876">
        <time>2022-07-10T15:23:49Z</time>
      </trkpt>
      <trkpt lat="41.74323" lon="2.6492581">
        <time>2022-07-10T15:23:50Z</time>
      </trkpt>
      <trkpt lat="41.743217" lon="2.6493278">
        <time>2022-07-10T15:23:51Z</time>
      </trkpt>
      <trkpt lat="41.743202" lon="2.649397">
        <time>2022-07-10T15:23:52Z</time>
      </trkpt>
      <trkpt lat="41.743176" lon="2.6495342">
        <time>2022-07-10T15:23:54Z</time>
      </trkpt>
      <trkpt lat="41.743164" lon="2.6496036">
        <time>2022-07-10T15:23:55Z</time>
      </trkpt>
      <trkpt lat="41.743153" lon="2.6496723">
        <time>2022-07-10T15:23:56Z</time>
      </trkpt>
      <trkpt lat="41.743137" lon="2.6497405">
        <time>2022-07-10T15:23:57Z</time>
      </trkpt>
      <trkpt lat="41.743122" lon="2.6498096">
        <time>2022-07-10T15:23:58Z</time>
      </trkpt>
      <trkpt lat="41.743107" lon="2.6498785">
        <time>2022-07-10T15:23:59Z</time>
      </trkpt>
      <trkpt lat="41.74309" lon="2.6499426">
        <time>2022-07-10T15:24:00Z</time>
      </trkpt>
      <trkpt lat="41.743065" lon="2.6500733">
        <time>2022-07-10T15:24:02Z</time>
      </trkpt>
      <trkpt lat="41.743046" lon="2.650142">
        <time>2022-07-10T15:24:03Z</time>
      </trkpt>
      <trkpt lat="41.74303" lon="2.6502106">
        <time>2022-07-10T15:24:04Z</time>
      </trkpt>
      <trkpt lat="41.74301" lon="2.6502788">
        <time>2022-07-10T15:24:05Z</time>
      </trkpt>
      <trkpt lat="41.742992" lon="2.6503468">
        <time>2022-07-10T15:24:06Z</time>
      </trkpt>
      <trkpt lat="41.74297" lon="2.6504133">
        <time>2022-07-10T15:24:07Z</time>
      </trkpt>
      <trkpt lat="41.74295" lon="2.6504798">
        <time>2022-07-10T15:24:08Z</time>
      </trkpt>
      <trkpt lat="41.742928" lon="2.6505458">
        <time>2022-07-10T15:24:09Z</time>
      </trkpt>
      <trkpt lat="41.742905" lon="2.6506119">
        <time>2022-07-10T15:24:10Z</time>
      </trkpt>
      <trkpt lat="41.74288" lon="2.6506782">
        <time>2022-07-10T15:24:11Z</time>
      </trkpt>
      <trkpt lat="41.74286" lon="2.650745">
        <time>2022-07-10T15:24:12Z</time>
      </trkpt>
      <trkpt lat="41.742832" lon="2.6508112">
        <time>2022-07-10T15:24:13Z</time>
      </trkpt>
      <trkpt lat="41.74281" lon="2.6508775">
        <time>2022-07-10T15:24:14Z</time>
      </trkpt>
      <trkpt lat="41.742786" lon="2.6509452">
        <time>2022-07-10T15:24:15Z</time>
      </trkpt>
      <trkpt lat="41.742764" lon="2.6510139">
        <time>2022-07-10T15:24:16Z</time>
      </trkpt>
      <trkpt lat="41.74274" lon="2.6510818">
        <time>2022-07-10T15:24:17Z</time>
      </trkpt>
      <trkpt lat="41.742718" lon="2.6511488">
        <time>2022-07-10T15:24:18Z</time>
      </trkpt>
      <trkpt lat="41.742695" lon="2.651214">
        <time>2022-07-10T15:24:19Z</time>
      </trkpt>
      <trkpt lat="41.742672" lon="2.6512785">
        <time>2022-07-10T15:24:20Z</time>
      </trkpt>
      <trkpt lat="41.74265" lon="2.6513395">
        <time>2022-07-10T15:24:21Z</time>
      </trkpt>
      <trkpt lat="41.74263" lon="2.6513927">
        <time>2022-07-10T15:24:22Z</time>
      </trkpt>
      <trkpt lat="41.74259" lon="2.6514585">
        <time>2022-07-10T15:24:24Z</time>
      </trkpt>
      <trkpt lat="41.742527" lon="2.6514602">
        <time>2022-07-10T15:24:27Z</time>
      </trkpt>
      <trkpt lat="41.742466" lon="2.6513875">
        <time>2022-07-10T15:24:30Z</time>
      </trkpt>
      <trkpt lat="41.742416" lon="2.651339">
        <time>2022-07-10T15:24:32Z</time>
      </trkpt>
      <trkpt lat="41.741985" lon="2.6512744">
        <time>2022-07-10T15:24:43Z</time>
      </trkpt>
      <trkpt lat="41.741978" lon="2.6512752">
        <time>2022-07-10T15:24:44Z</time>
      </trkpt>
      <trkpt lat="41.741932" lon="2.6513267">
        <time>2022-07-10T15:24:47Z</time>
      </trkpt>
      <trkpt lat="41.741917" lon="2.6514182">
        <time>2022-07-10T15:24:49Z</time>
      </trkpt>
      <trkpt lat="41.741905" lon="2.6515265">
        <time>2022-07-10T15:24:51Z</time>
      </trkpt>
      <trkpt lat="41.741886" lon="2.651638">
        <time>2022-07-10T15:24:53Z</time>
      </trkpt>
      <trkpt lat="41.74187" lon="2.6517553">
        <time>2022-07-10T15:24:55Z</time>
      </trkpt>
      <trkpt lat="41.741856" lon="2.6518757">
        <time>2022-07-10T15:24:57Z</time>
      </trkpt>
      <trkpt lat="41.741844" lon="2.6519969">
        <time>2022-07-10T15:24:59Z</time>
      </trkpt>
      <trkpt lat="41.741833" lon="2.6521125">
        <time>2022-07-10T15:25:01Z</time>
      </trkpt>
      <trkpt lat="41.741817" lon="2.6522224">
        <time>2022-07-10T15:25:03Z</time>
      </trkpt>
      <trkpt lat="41.741802" lon="2.6523294">
        <time>2022-07-10T15:25:05Z</time>
      </trkpt>
      <trkpt lat="41.741787" lon="2.6524403">
        <time>2022-07-10T15:25:07Z</time>
      </trkpt>
      <trkpt lat="41.741776" lon="2.6525555">
        <time>2022-07-10T15:25:09Z</time>
      </trkpt>
      <trkpt lat="41.741756" lon="2.6526754">
        <time>2022-07-10T15:25:11Z</time>
      </trkpt>
      <trkpt lat="41.74173" lon="2.6527994">
        <time>2022-07-10T15:25:13Z</time>
      </trkpt>
      <trkpt lat="41.741707" lon="2.652926">
        <time>2022-07-10T15:25:15Z</time>
      </trkpt>
      <trkpt lat="41.741695" lon="2.6529887">
        <time>2022-07-10T15:25:16Z</time>
      </trkpt>
      <trkpt lat="41.741673" lon="2.653115">
        <time>2022-07-10T15:25:18Z</time>
      </trkpt>
      <trkpt lat="41.74165" lon="2.6532423">
        <time>2022-07-10T15:25:20Z</time>
      </trkpt>
      <trkpt lat="41.74164" lon="2.6533074">
        <time>2022-07-10T15:25:21Z</time>
      </trkpt>
      <trkpt lat="41.741615" lon="2.6534405">
        <time>2022-07-10T15:25:23Z</time>
      </trkpt>
      <trkpt lat="41.741604" lon="2.6535084">
        <time>2022-07-10T15:25:24Z</time>
      </trkpt>
      <trkpt lat="41.741592" lon="2.6535764">
        <time>2022-07-10T15:25:25Z</time>
      </trkpt>
      <trkpt lat="41.741566" lon="2.653717">
        <time>2022-07-10T15:25:27Z</time>
      </trkpt>
      <trkpt lat="41.74155" lon="2.6537905">
        <time>2022-07-10T15:25:28Z</time>
      </trkpt>
      <trkpt lat="41.74154" lon="2.6538634">
        <time>2022-07-10T15:25:29Z</time>
      </trkpt>
      <trkpt lat="41.741528" lon="2.653934">
        <time>2022-07-10T15:25:30Z</time>
      </trkpt>
      <trkpt lat="41.741512" lon="2.6540048">
        <time>2022-07-10T15:25:31Z</time>
      </trkpt>
      <trkpt lat="41.741497" lon="2.6540751">
        <time>2022-07-10T15:25:32Z</time>
      </trkpt>
      <trkpt lat="41.741486" lon="2.6541455">
        <time>2022-07-10T15:25:33Z</time>
      </trkpt>
      <trkpt lat="41.74147" lon="2.654216">
        <time>2022-07-10T15:25:34Z</time>
      </trkpt>
      <trkpt lat="41.741455" lon="2.654287">
        <time>2022-07-10T15:25:35Z</time>
      </trkpt>
      <trkpt lat="41.74144" lon="2.6543586">
        <time>2022-07-10T15:25:36Z</time>
      </trkpt>
      <trkpt lat="41.741425" lon="2.654431">
        <time>2022-07-10T15:25:37Z</time>
      </trkpt>
      <trkpt lat="41.74141" lon="2.6545026">
        <time>2022-07-10T15:25:38Z</time>
      </trkpt>
      <trkpt lat="41.74139" lon="2.6545737">
        <time>2022-07-10T15:25:39Z</time>
      </trkpt>
      <trkpt lat="41.74137" lon="2.6546447">
        <time>2022-07-10T15:25:40Z</time>
      </trkpt>
      <trkpt lat="41.741356" lon="2.6547167">
        <time>2022-07-10T15:25:41Z</time>
      </trkpt>
      <trkpt lat="41.74134" lon="2.654789">
        <time>2022-07-10T15:25:42Z</time>
      </trkpt>
      <trkpt lat="41.741325" lon="2.654862">
        <time>2022-07-10T15:25:43Z</time>
      </trkpt>
      <trkpt lat="41.741306" lon="2.6549346">
        <time>2022-07-10T15:25:44Z</time>
      </trkpt>
      <trkpt lat="41.74129" lon="2.6550074">
        <time>2022-07-10T15:25:45Z</time>
      </trkpt>
      <trkpt lat="41.741276" lon="2.655079">
        <time>2022-07-10T15:25:46Z</time>
      </trkpt>
      <trkpt lat="41.74126" lon="2.655151">
        <time>2022-07-10T15:25:47Z</time>
      </trkpt>
      <trkpt lat="41.741245" lon="2.6552236">
        <time>2022-07-10T15:25:48Z</time>
      </trkpt>
      <trkpt lat="41.74123" lon="2.6552966">
        <time>2022-07-10T15:25:49Z</time>
      </trkpt>
      <trkpt lat="41.74121" lon="2.6553698">
        <time>2022-07-10T15:25:50Z</time>
      </trkpt>
      <trkpt lat="41.741196" lon="2.6554427">
        <time>2022-07-10T15:25:51Z</time>
      </trkpt>
      <trkpt lat="41.74118" lon="2.6555147">
        <time>2022-07-10T15:25:52Z</time>
      </trkpt>
      <trkpt lat="41.74116" lon="2.655586">
        <time>2022-07-10T15:25:53Z</time>
      </trkpt>
      <trkpt lat="41.741142" lon="2.6556566">
        <time>2022-07-10T15:25:54Z</time>
      </trkpt>
      <trkpt lat="41.7411" lon="2.655798">
        <time>2022-07-10T15:25:56Z</time>
      </trkpt>
      <trkpt lat="41.74108" lon="2.6558685">
        <time>2022-07-10T15:25:57Z</time>
      </trkpt>
      <trkpt lat="41.741066" lon="2.6559393">
        <time>2022-07-10T15:25:58Z</time>
      </trkpt>
      <trkpt lat="41.74105" lon="2.65601">
        <time>2022-07-10T15:25:59Z</time>
      </trkpt>
      <trkpt lat="41.741035" lon="2.6560805">
        <time>2022-07-10T15:26:00Z</time>
      </trkpt>
      <trkpt lat="41.74102" lon="2.6561513">
        <time>2022-07-10T15:26:01Z</time>
      </trkpt>
      <trkpt lat="41.74101" lon="2.65622">
        <time>2022-07-10T15:26:02Z</time>
      </trkpt>
      <trkpt lat="41.740997" lon="2.6562889">
        <time>2022-07-10T15:26:03Z</time>
      </trkpt>
      <trkpt lat="41.740986" lon="2.6563542">
        <time>2022-07-10T15:26:04Z</time>
      </trkpt>
      <trkpt lat="41.74096" lon="2.6564887">
        <time>2022-07-10T15:26:06Z</time>
      </trkpt>
      <trkpt lat="41.740944" lon="2.6565626">
        <time>2022-07-10T15:26:07Z</time>
      </trkpt>
      <trkpt lat="41.740925" lon="2.6566303">
        <time>2022-07-10T15:26:08Z</time>
      </trkpt>
      <trkpt lat="41.74091" lon="2.6566982">
        <time>2022-07-10T15:26:09Z</time>
      </trkpt>
      <trkpt lat="41.740894" lon="2.6567655">
        <time>2022-07-10T15:26:10Z</time>
      </trkpt>
      <trkpt lat="41.74088" lon="2.656833">
        <time>2022-07-10T15:26:11Z</time>
      </trkpt>
      <trkpt lat="41.740864" lon="2.6568995">
        <time>2022-07-10T15:26:12Z</time>
      </trkpt>
      <trkpt lat="41.740833" lon="2.6570315">
        <time>2022-07-10T15:26:14Z</time>
      </trkpt>
      <trkpt lat="41.740818" lon="2.6570935">
        <time>2022-07-10T15:26:15Z</time>
      </trkpt>
      <trkpt lat="41.740788" lon="2.6572192">
        <time>2022-07-10T15:26:17Z</time>
      </trkpt>
      <trkpt lat="41.740757" lon="2.6573513">
        <time>2022-07-10T15:26:19Z</time>
      </trkpt>
      <trkpt lat="41.740746" lon="2.6574183">
        <time>2022-07-10T15:26:20Z</time>
      </trkpt>
      <trkpt lat="41.74073" lon="2.6574843">
        <time>2022-07-10T15:26:21Z</time>
      </trkpt>
      <trkpt lat="41.740704" lon="2.6576145">
        <time>2022-07-10T15:26:23Z</time>
      </trkpt>
      <trkpt lat="41.740677" lon="2.6577458">
        <time>2022-07-10T15:26:25Z</time>
      </trkpt>
      <trkpt lat="41.74066" lon="2.6578126">
        <time>2022-07-10T15:26:26Z</time>
      </trkpt>
      <trkpt lat="41.74065" lon="2.6578796">
        <time>2022-07-10T15:26:27Z</time>
      </trkpt>
      <trkpt lat="41.740623" lon="2.6580145">
        <time>2022-07-10T15:26:29Z</time>
      </trkpt>
      <trkpt lat="41.740612" lon="2.658083">
        <time>2022-07-10T15:26:30Z</time>
      </trkpt>
      <trkpt lat="41.7406" lon="2.6581516">
        <time>2022-07-10T15:26:31Z</time>
      </trkpt>
      <trkpt lat="41.74059" lon="2.6582196">
        <time>2022-07-10T15:26:32Z</time>
      </trkpt>
      <trkpt lat="41.740566" lon="2.6583521">
        <time>2022-07-10T15:26:34Z</time>
      </trkpt>
      <trkpt lat="41.740555" lon="2.6584165">
        <time>2022-07-10T15:26:35Z</time>
      </trkpt>
      <trkpt lat="41.74053" lon="2.6585436">
        <time>2022-07-10T15:26:37Z</time>
      </trkpt>
      <trkpt lat="41.740505" lon="2.6586668">
        <time>2022-07-10T15:26:39Z</time>
      </trkpt>
      <trkpt lat="41.740486" lon="2.6587884">
        <time>2022-07-10T15:26:41Z</time>
      </trkpt>
      <trkpt lat="41.74046" lon="2.658909">
        <time>2022-07-10T15:26:43Z</time>
      </trkpt>
      <trkpt lat="41.740448" lon="2.6589708">
        <time>2022-07-10T15:26:44Z</time>
      </trkpt>
      <trkpt lat="41.74042" lon="2.6590989">
        <time>2022-07-10T15:26:46Z</time>
      </trkpt>
      <trkpt lat="41.74041" lon="2.6591628">
        <time>2022-07-10T15:26:47Z</time>
      </trkpt>
      <trkpt lat="41.740383" lon="2.65929">
        <time>2022-07-10T15:26:49Z</time>
      </trkpt>
      <trkpt lat="41.740356" lon="2.6594162">
        <time>2022-07-10T15:26:51Z</time>
      </trkpt>
      <trkpt lat="41.740334" lon="2.6595418">
        <time>2022-07-10T15:26:53Z</time>
      </trkpt>
      <trkpt lat="41.74031" lon="2.6596673">
        <time>2022-07-10T15:26:55Z</time>
      </trkpt>
      <trkpt lat="41.7403" lon="2.6597297">
        <time>2022-07-10T15:26:56Z</time>
      </trkpt>
      <trkpt lat="41.740276" lon="2.6598582">
        <time>2022-07-10T15:26:58Z</time>
      </trkpt>
      <trkpt lat="41.74025" lon="2.6599874">
        <time>2022-07-10T15:27:00Z</time>
      </trkpt>
      <trkpt lat="41.740227" lon="2.6601188">
        <time>2022-07-10T15:27:02Z</time>
      </trkpt>
      <trkpt lat="41.740208" lon="2.6602497">
        <time>2022-07-10T15:27:04Z</time>
      </trkpt>
      <trkpt lat="41.740196" lon="2.660319">
        <time>2022-07-10T15:27:05Z</time>
      </trkpt>
      <trkpt lat="41.740177" lon="2.6604457">
        <time>2022-07-10T15:27:07Z</time>
      </trkpt>
      <trkpt lat="41.740166" lon="2.660572">
        <time>2022-07-10T15:27:09Z</time>
      </trkpt>
      <trkpt lat="41.740147" lon="2.6606982">
        <time>2022-07-10T15:27:11Z</time>
      </trkpt>
      <trkpt lat="41.74013" lon="2.6608245">
        <time>2022-07-10T15:27:13Z</time>
      </trkpt>
      <trkpt lat="41.740116" lon="2.660947">
        <time>2022-07-10T15:27:15Z</time>
      </trkpt>
      <trkpt lat="41.740105" lon="2.6610692">
        <time>2022-07-10T15:27:17Z</time>
      </trkpt>
      <trkpt lat="41.74009" lon="2.6611898">
        <time>2022-07-10T15:27:19Z</time>
      </trkpt>
      <trkpt lat="41.740078" lon="2.661308">
        <time>2022-07-10T15:27:21Z</time>
      </trkpt>
      <trkpt lat="41.740067" lon="2.6614244">
        <time>2022-07-10T15:27:23Z</time>
      </trkpt>
      <trkpt lat="41.740055" lon="2.6615388">
        <time>2022-07-10T15:27:25Z</time>
      </trkpt>
      <trkpt lat="41.740047" lon="2.6616538">
        <time>2022-07-10T15:27:27Z</time>
      </trkpt>
      <trkpt lat="41.74004" lon="2.661767">
        <time>2022-07-10T15:27:29Z</time>
      </trkpt>
      <trkpt lat="41.74003" lon="2.6618793">
        <time>2022-07-10T15:27:31Z</time>
      </trkpt>
      <trkpt lat="41.74002" lon="2.6619928">
        <time>2022-07-10T15:27:33Z</time>
      </trkpt>
      <trkpt lat="41.74001" lon="2.6621082">
        <time>2022-07-10T15:27:35Z</time>
      </trkpt>
      <trkpt lat="41.74" lon="2.662226">
        <time>2022-07-10T15:27:37Z</time>
      </trkpt>
      <trkpt lat="41.739994" lon="2.662344">
        <time>2022-07-10T15:27:39Z</time>
      </trkpt>
      <trkpt lat="41.739986" lon="2.6624632">
        <time>2022-07-10T15:27:41Z</time>
      </trkpt>
      <trkpt lat="41.739983" lon="2.662585">
        <time>2022-07-10T15:27:43Z</time>
      </trkpt>
      <trkpt lat="41.73998" lon="2.6626453">
        <time>2022-07-10T15:27:44Z</time>
      </trkpt>
      <trkpt lat="41.739975" lon="2.6627638">
        <time>2022-07-10T15:27:46Z</time>
      </trkpt>
      <trkpt lat="41.739967" lon="2.662878">
        <time>2022-07-10T15:27:48Z</time>
      </trkpt>
      <trkpt lat="41.73996" lon="2.6629858">
        <time>2022-07-10T15:27:50Z</time>
      </trkpt>
      <trkpt lat="41.73995" lon="2.6630888">
        <time>2022-07-10T15:27:52Z</time>
      </trkpt>
      <trkpt lat="41.739937" lon="2.6631894">
        <time>2022-07-10T15:27:54Z</time>
      </trkpt>
      <trkpt lat="41.73992" lon="2.663289">
        <time>2022-07-10T15:27:56Z</time>
      </trkpt>
      <trkpt lat="41.7399" lon="2.663386">
        <time>2022-07-10T15:27:58Z</time>
      </trkpt>
      <trkpt lat="41.739876" lon="2.6634831">
        <time>2022-07-10T15:28:00Z</time>
      </trkpt>
      <trkpt lat="41.73985" lon="2.6635804">
        <time>2022-07-10T15:28:02Z</time>
      </trkpt>
      <trkpt lat="41.739822" lon="2.663678">
        <time>2022-07-10T15:28:04Z</time>
      </trkpt>
      <trkpt lat="41.73979" lon="2.6637723">
        <time>2022-07-10T15:28:06Z</time>
      </trkpt>
      <trkpt lat="41.739765" lon="2.6638687">
        <time>2022-07-10T15:28:08Z</time>
      </trkpt>
      <trkpt lat="41.739742" lon="2.6639657">
        <time>2022-07-10T15:28:10Z</time>
      </trkpt>
      <trkpt lat="41.739716" lon="2.6640637">
        <time>2022-07-10T15:28:12Z</time>
      </trkpt>
      <trkpt lat="41.73969" lon="2.664159">
        <time>2022-07-10T15:28:14Z</time>
      </trkpt>
      <trkpt lat="41.739662" lon="2.664256">
        <time>2022-07-10T15:28:16Z</time>
      </trkpt>
      <trkpt lat="41.73963" lon="2.6643484">
        <time>2022-07-10T15:28:18Z</time>
      </trkpt>
      <trkpt lat="41.73961" lon="2.6644483">
        <time>2022-07-10T15:28:20Z</time>
      </trkpt>
      <trkpt lat="41.739586" lon="2.6645508">
        <time>2022-07-10T15:28:22Z</time>
      </trkpt>
      <trkpt lat="41.73956" lon="2.6646507">
        <time>2022-07-10T15:28:24Z</time>
      </trkpt>
      <trkpt lat="41.739532" lon="2.6647503">
        <time>2022-07-10T15:28:26Z</time>
      </trkpt>
      <trkpt lat="41.73949" lon="2.6648984">
        <time>2022-07-10T15:28:29Z</time>
      </trkpt>
      <trkpt lat="41.739464" lon="2.664996">
        <time>2022-07-10T15:28:31Z</time>
      </trkpt>
      <trkpt lat="41.739437" lon="2.6650937">
        <time>2022-07-10T15:28:33Z</time>
      </trkpt>
      <trkpt lat="41.73941" lon="2.665191">
        <time>2022-07-10T15:28:35Z</time>
      </trkpt>
      <trkpt lat="41.73938" lon="2.6652877">
        <time>2022-07-10T15:28:37Z</time>
      </trkpt>
      <trkpt lat="41.739353" lon="2.6653848">
        <time>2022-07-10T15:28:39Z</time>
      </trkpt>
      <trkpt lat="41.739323" lon="2.6654823">
        <time>2022-07-10T15:28:41Z</time>
      </trkpt>
      <trkpt lat="41.739296" lon="2.665581">
        <time>2022-07-10T15:28:43Z</time>
      </trkpt>
      <trkpt lat="41.73927" lon="2.665681">
        <time>2022-07-10T15:28:45Z</time>
      </trkpt>
      <trkpt lat="41.739243" lon="2.665782">
        <time>2022-07-10T15:28:47Z</time>
      </trkpt>
      <trkpt lat="41.739212" lon="2.6658814">
        <time>2022-07-10T15:28:49Z</time>
      </trkpt>
      <trkpt lat="41.73918" lon="2.665979">
        <time>2022-07-10T15:28:51Z</time>
      </trkpt>
      <trkpt lat="41.739147" lon="2.666079">
        <time>2022-07-10T15:28:53Z</time>
      </trkpt>
      <trkpt lat="41.739105" lon="2.6661782">
        <time>2022-07-10T15:28:55Z</time>
      </trkpt>
      <trkpt lat="41.739067" lon="2.6662703">
        <time>2022-07-10T15:28:57Z</time>
      </trkpt>
      <trkpt lat="41.739014" lon="2.6663592">
        <time>2022-07-10T15:28:59Z</time>
      </trkpt>
      <trkpt lat="41.738953" lon="2.6664407">
        <time>2022-07-10T15:29:01Z</time>
      </trkpt>
      <trkpt lat="41.73889" lon="2.6665113">
        <time>2022-07-10T15:29:03Z</time>
      </trkpt>
      <trkpt lat="41.73882" lon="2.6665764">
        <time>2022-07-10T15:29:05Z</time>
      </trkpt>
      <trkpt lat="41.738747" lon="2.666637">
        <time>2022-07-10T15:29:07Z</time>
      </trkpt>
      <trkpt lat="41.73867" lon="2.6666956">
        <time>2022-07-10T15:29:09Z</time>
      </trkpt>
      <trkpt lat="41.738594" lon="2.666754">
        <time>2022-07-10T15:29:11Z</time>
      </trkpt>
      <trkpt lat="41.738518" lon="2.666811">
        <time>2022-07-10T15:29:13Z</time>
      </trkpt>
      <trkpt lat="41.738445" lon="2.666869">
        <time>2022-07-10T15:29:15Z</time>
      </trkpt>
      <trkpt lat="41.738377" lon="2.6669266">
        <time>2022-07-10T15:29:17Z</time>
      </trkpt>
      <trkpt lat="41.738308" lon="2.6669843">
        <time>2022-07-10T15:29:19Z</time>
      </trkpt>
      <trkpt lat="41.738247" lon="2.6670446">
        <time>2022-07-10T15:29:21Z</time>
      </trkpt>
      <trkpt lat="41.738182" lon="2.6671057">
        <time>2022-07-10T15:29:23Z</time>
      </trkpt>
      <trkpt lat="41.738117" lon="2.6671703">
        <time>2022-07-10T15:29:25Z</time>
      </trkpt>
      <trkpt lat="41.738052" lon="2.6672335">
        <time>2022-07-10T15:29:27Z</time>
      </trkpt>
      <trkpt lat="41.737988" lon="2.6672945">
        <time>2022-07-10T15:29:29Z</time>
      </trkpt>
      <trkpt lat="41.737896" lon="2.6673858">
        <time>2022-07-10T15:29:32Z</time>
      </trkpt>
      <trkpt lat="41.73784" lon="2.6674416">
        <time>2022-07-10T15:29:34Z</time>
      </trkpt>
      <trkpt lat="41.737778" lon="2.6674988">
        <time>2022-07-10T15:29:36Z</time>
      </trkpt>
      <trkpt lat="41.737717" lon="2.6675596">
        <time>2022-07-10T15:29:38Z</time>
      </trkpt>
      <trkpt lat="41.73766" lon="2.6676166">
        <time>2022-07-10T15:29:40Z</time>
      </trkpt>
      <trkpt lat="41.737602" lon="2.6676662">
        <time>2022-07-10T15:29:42Z</time>
      </trkpt>
      <trkpt lat="41.737545" lon="2.6677113">
        <time>2022-07-10T15:29:44Z</time>
      </trkpt>
      <trkpt lat="41.737503" lon="2.6677432">
        <time>2022-07-10T15:29:46Z</time>
      </trkpt>
      <trkpt lat="41.73747" lon="2.6677718">
        <time>2022-07-10T15:29:56Z</time>
      </trkpt>
      <trkpt lat="41.737385" lon="2.667843">
        <time>2022-07-10T15:30:25Z</time>
      </trkpt>
      <trkpt lat="41.737328" lon="2.667888">
        <time>2022-07-10T15:30:27Z</time>
      </trkpt>
      <trkpt lat="41.73727" lon="2.667939">
        <time>2022-07-10T15:30:29Z</time>
      </trkpt>
      <trkpt lat="41.737206" lon="2.6679916">
        <time>2022-07-10T15:30:31Z</time>
      </trkpt>
      <trkpt lat="41.737144" lon="2.6680424">
        <time>2022-07-10T15:30:33Z</time>
      </trkpt>
      <trkpt lat="41.737083" lon="2.6680918">
        <time>2022-07-10T15:30:35Z</time>
      </trkpt>
      <trkpt lat="41.73702" lon="2.66814">
        <time>2022-07-10T15:30:37Z</time>
      </trkpt>
      <trkpt lat="41.736954" lon="2.6681893">
        <time>2022-07-10T15:30:39Z</time>
      </trkpt>
      <trkpt lat="41.73689" lon="2.668239">
        <time>2022-07-10T15:30:41Z</time>
      </trkpt>
      <trkpt lat="41.736824" lon="2.6682916">
        <time>2022-07-10T15:30:43Z</time>
      </trkpt>
      <trkpt lat="41.736763" lon="2.6683428">
        <time>2022-07-10T15:30:45Z</time>
      </trkpt>
      <trkpt lat="41.7367" lon="2.6683936">
        <time>2022-07-10T15:30:47Z</time>
      </trkpt>
      <trkpt lat="41.736637" lon="2.668445">
        <time>2022-07-10T15:30:49Z</time>
      </trkpt>
      <trkpt lat="41.736572" lon="2.668501">
        <time>2022-07-10T15:30:51Z</time>
      </trkpt>
      <trkpt lat="41.736515" lon="2.6685588">
        <time>2022-07-10T15:30:53Z</time>
      </trkpt>
      <trkpt lat="41.736454" lon="2.6686177">
        <time>2022-07-10T15:30:55Z</time>
      </trkpt>
      <trkpt lat="41.736397" lon="2.6686795">
        <time>2022-07-10T15:30:57Z</time>
      </trkpt>
      <trkpt lat="41.736336" lon="2.6687434">
        <time>2022-07-10T15:30:59Z</time>
      </trkpt>
      <trkpt lat="41.73628" lon="2.6688094">
        <time>2022-07-10T15:31:01Z</time>
      </trkpt>
      <trkpt lat="41.736217" lon="2.6688762">
        <time>2022-07-10T15:31:03Z</time>
      </trkpt>
      <trkpt lat="41.73616" lon="2.6689472">
        <time>2022-07-10T15:31:05Z</time>
      </trkpt>
      <trkpt lat="41.7361" lon="2.6690202">
        <time>2022-07-10T15:31:07Z</time>
      </trkpt>
      <trkpt lat="41.73604" lon="2.669095">
        <time>2022-07-10T15:31:09Z</time>
      </trkpt>
      <trkpt lat="41.73598" lon="2.6691732">
        <time>2022-07-10T15:31:11Z</time>
      </trkpt>
      <trkpt lat="41.735928" lon="2.6692507">
        <time>2022-07-10T15:31:13Z</time>
      </trkpt>
      <trkpt lat="41.735874" lon="2.6693282">
        <time>2022-07-10T15:31:15Z</time>
      </trkpt>
      <trkpt lat="41.735825" lon="2.6694036">
        <time>2022-07-10T15:31:17Z</time>
      </trkpt>
      <trkpt lat="41.735775" lon="2.6694744">
        <time>2022-07-10T15:31:19Z</time>
      </trkpt>
      <trkpt lat="41.73573" lon="2.6695418">
        <time>2022-07-10T15:31:21Z</time>
      </trkpt>
      <trkpt lat="41.73568" lon="2.6696084">
        <time>2022-07-10T15:31:23Z</time>
      </trkpt>
      <trkpt lat="41.735626" lon="2.669676">
        <time>2022-07-10T15:31:25Z</time>
      </trkpt>
      <trkpt lat="41.735573" lon="2.6697373">
        <time>2022-07-10T15:31:27Z</time>
      </trkpt>
      <trkpt lat="41.735516" lon="2.6697931">
        <time>2022-07-10T15:31:29Z</time>
      </trkpt>
      <trkpt lat="41.735455" lon="2.6698399">
        <time>2022-07-10T15:31:31Z</time>
      </trkpt>
      <trkpt lat="41.7354" lon="2.6698887">
        <time>2022-07-10T15:31:33Z</time>
      </trkpt>
      <trkpt lat="41.735355" lon="2.6699462">
        <time>2022-07-10T15:31:35Z</time>
      </trkpt>
      <trkpt lat="41.735302" lon="2.6700451">
        <time>2022-07-10T15:31:38Z</time>
      </trkpt>
      <trkpt lat="41.735275" lon="2.6701221">
        <time>2022-07-10T15:31:40Z</time>
      </trkpt>
      <trkpt lat="41.735252" lon="2.6702027">
        <time>2022-07-10T15:31:42Z</time>
      </trkpt>
      <trkpt lat="41.735218" lon="2.6702821">
        <time>2022-07-10T15:31:44Z</time>
      </trkpt>
      <trkpt lat="41.735176" lon="2.6703494">
        <time>2022-07-10T15:31:46Z</time>
      </trkpt>
      <trkpt lat="41.735126" lon="2.6704025">
        <time>2022-07-10T15:31:48Z</time>
      </trkpt>
      <trkpt lat="41.735073" lon="2.670445">
        <time>2022-07-10T15:31:50Z</time>
      </trkpt>
      <trkpt lat="41.735027" lon="2.6704867">
        <time>2022-07-10T15:31:52Z</time>
      </trkpt>
      <trkpt lat="41.734985" lon="2.6705284">
        <time>2022-07-10T15:31:54Z</time>
      </trkpt>
      <trkpt lat="41.73495" lon="2.6705697">
        <time>2022-07-10T15:31:57Z</time>
      </trkpt>
      <trkpt lat="41.734898" lon="2.6706421">
        <time>2022-07-10T15:32:19Z</time>
      </trkpt>
      <trkpt lat="41.734844" lon="2.670718">
        <time>2022-07-10T15:32:22Z</time>
      </trkpt>
      <trkpt lat="41.734806" lon="2.6707728">
        <time>2022-07-10T15:32:24Z</time>
      </trkpt>
      <trkpt lat="41.73476" lon="2.6708255">
        <time>2022-07-10T15:32:26Z</time>
      </trkpt>
      <trkpt lat="41.73471" lon="2.6708753">
        <time>2022-07-10T15:32:28Z</time>
      </trkpt>
      <trkpt lat="41.73466" lon="2.6709197">
        <time>2022-07-10T15:32:30Z</time>
      </trkpt>
      <trkpt lat="41.73461" lon="2.670957">
        <time>2022-07-10T15:32:32Z</time>
      </trkpt>
      <trkpt lat="41.734562" lon="2.6709898">
        <time>2022-07-10T15:32:34Z</time>
      </trkpt>
      <trkpt lat="41.73451" lon="2.6710176">
        <time>2022-07-10T15:32:36Z</time>
      </trkpt>
      <trkpt lat="41.73443" lon="2.671056">
        <time>2022-07-10T15:32:39Z</time>
      </trkpt>
      <trkpt lat="41.73437" lon="2.671078">
        <time>2022-07-10T15:32:41Z</time>
      </trkpt>
      <trkpt lat="41.734314" lon="2.6710987">
        <time>2022-07-10T15:32:43Z</time>
      </trkpt>
      <trkpt lat="41.734257" lon="2.6711206">
        <time>2022-07-10T15:32:45Z</time>
      </trkpt>
      <trkpt lat="41.7342" lon="2.6711414">
        <time>2022-07-10T15:32:47Z</time>
      </trkpt>
      <trkpt lat="41.734142" lon="2.6711605">
        <time>2022-07-10T15:32:49Z</time>
      </trkpt>
      <trkpt lat="41.73409" lon="2.671174">
        <time>2022-07-10T15:32:51Z</time>
      </trkpt>
      <trkpt lat="41.73402" lon="2.6711857">
        <time>2022-07-10T15:32:54Z</time>
      </trkpt>
      <trkpt lat="41.733955" lon="2.6711934">
        <time>2022-07-10T15:32:57Z</time>
      </trkpt>
      <trkpt lat="41.73389" lon="2.6712027">
        <time>2022-07-10T15:33:00Z</time>
      </trkpt>
      <trkpt lat="41.73382" lon="2.671213">
        <time>2022-07-10T15:33:03Z</time>
      </trkpt>
      <trkpt lat="41.733757" lon="2.671222">
        <time>2022-07-10T15:33:06Z</time>
      </trkpt>
      <trkpt lat="41.733685" lon="2.6712286">
        <time>2022-07-10T15:33:09Z</time>
      </trkpt>
      <trkpt lat="41.733612" lon="2.671233">
        <time>2022-07-10T15:33:12Z</time>
      </trkpt>
      <trkpt lat="41.733547" lon="2.671237">
        <time>2022-07-10T15:33:15Z</time>
      </trkpt>
      <trkpt lat="41.733498" lon="2.6712396">
        <time>2022-07-10T15:33:17Z</time>
      </trkpt>
      <trkpt lat="41.733433" lon="2.6712465">
        <time>2022-07-10T15:33:20Z</time>
      </trkpt>
      <trkpt lat="41.73336" lon="2.671256">
        <time>2022-07-10T15:33:23Z</time>
      </trkpt>
      <trkpt lat="41.733288" lon="2.6712637">
        <time>2022-07-10T15:33:26Z</time>
      </trkpt>
      <trkpt lat="41.73322" lon="2.671273">
        <time>2022-07-10T15:33:29Z</time>
      </trkpt>
      <trkpt lat="41.73315" lon="2.6712792">
        <time>2022-07-10T15:33:32Z</time>
      </trkpt>
      <trkpt lat="41.73308" lon="2.671287">
        <time>2022-07-10T15:33:35Z</time>
      </trkpt>
      <trkpt lat="41.73301" lon="2.6712956">
        <time>2022-07-10T15:33:38Z</time>
      </trkpt>
      <trkpt lat="41.732937" lon="2.6713035">
        <time>2022-07-10T15:33:41Z</time>
      </trkpt>
      <trkpt lat="41.732864" lon="2.6713116">
        <time>2022-07-10T15:33:44Z</time>
      </trkpt>
      <trkpt lat="41.73279" lon="2.671319">
        <time>2022-07-10T15:33:47Z</time>
      </trkpt>
      <trkpt lat="41.732742" lon="2.6713219">
        <time>2022-07-10T15:33:49Z</time>
      </trkpt>
      <trkpt lat="41.73267" lon="2.6713266">
        <time>2022-07-10T15:33:52Z</time>
      </trkpt>
      <trkpt lat="41.732597" lon="2.6713343">
        <time>2022-07-10T15:33:55Z</time>
      </trkpt>
      <trkpt lat="41.732525" lon="2.6713436">
        <time>2022-07-10T15:33:58Z</time>
      </trkpt>
      <trkpt lat="41.732456" lon="2.6713538">
        <time>2022-07-10T15:34:01Z</time>
      </trkpt>
      <trkpt lat="41.732388" lon="2.6713593">
        <time>2022-07-10T15:34:04Z</time>
      </trkpt>
      <trkpt lat="41.732327" lon="2.6713634">
        <time>2022-07-10T15:34:07Z</time>
      </trkpt>
      <trkpt lat="41.732265" lon="2.6713712">
        <time>2022-07-10T15:34:10Z</time>
      </trkpt>
      <trkpt lat="41.732204" lon="2.6713772">
        <time>2022-07-10T15:34:13Z</time>
      </trkpt>
      <trkpt lat="41.732147" lon="2.6713877">
        <time>2022-07-10T15:34:16Z</time>
      </trkpt>
      <trkpt lat="41.732086" lon="2.6713963">
        <time>2022-07-10T15:34:19Z</time>
      </trkpt>
      <trkpt lat="41.732033" lon="2.6714072">
        <time>2022-07-10T15:34:22Z</time>
      </trkpt>
      <trkpt lat="41.731976" lon="2.6714215">
        <time>2022-07-10T15:34:25Z</time>
      </trkpt>
      <trkpt lat="41.73192" lon="2.671438">
        <time>2022-07-10T15:34:28Z</time>
      </trkpt>
      <trkpt lat="41.731857" lon="2.6714506">
        <time>2022-07-10T15:34:31Z</time>
      </trkpt>
      <trkpt lat="41.731796" lon="2.6714623">
        <time>2022-07-10T15:34:34Z</time>
      </trkpt>
      <trkpt lat="41.731735" lon="2.671475">
        <time>2022-07-10T15:34:37Z</time>
      </trkpt>
      <trkpt lat="41.731678" lon="2.6714892">
        <time>2022-07-10T15:34:40Z</time>
      </trkpt>
      <trkpt lat="41.731617" lon="2.6715016">
        <time>2022-07-10T15:34:43Z</time>
      </trkpt>
      <trkpt lat="41.73156" lon="2.6715202">
        <time>2022-07-10T15:34:46Z</time>
      </trkpt>
      <trkpt lat="41.7315" lon="2.6715403">
        <time>2022-07-10T15:34:49Z</time>
      </trkpt>
      <trkpt lat="41.731438" lon="2.6715612">
        <time>2022-07-10T15:34:52Z</time>
      </trkpt>
      <trkpt lat="41.73138" lon="2.6715856">
        <time>2022-07-10T15:34:55Z</time>
      </trkpt>
      <trkpt lat="41.73132" lon="2.6716125">
        <time>2022-07-10T15:34:58Z</time>
      </trkpt>
      <trkpt lat="41.731262" lon="2.6716428">
        <time>2022-07-10T15:35:01Z</time>
      </trkpt>
      <trkpt lat="41.73121" lon="2.6716805">
        <time>2022-07-10T15:35:04Z</time>
      </trkpt>
      <trkpt lat="41.731155" lon="2.671719">
        <time>2022-07-10T15:35:07Z</time>
      </trkpt>
      <trkpt lat="41.7311" lon="2.6717596">
        <time>2022-07-10T15:35:10Z</time>
      </trkpt>
      <trkpt lat="41.731045" lon="2.6717994">
        <time>2022-07-10T15:35:13Z</time>
      </trkpt>
      <trkpt lat="41.73099" lon="2.6718469">
        <time>2022-07-10T15:35:16Z</time>
      </trkpt>
      <trkpt lat="41.730938" lon="2.6718953">
        <time>2022-07-10T15:35:19Z</time>
      </trkpt>
      <trkpt lat="41.73088" lon="2.6719365">
        <time>2022-07-10T15:35:22Z</time>
      </trkpt>
      <trkpt lat="41.730824" lon="2.67198">
        <time>2022-07-10T15:35:25Z</time>
      </trkpt>
      <trkpt lat="41.73077" lon="2.6720278">
        <time>2022-07-10T15:35:28Z</time>
      </trkpt>
      <trkpt lat="41.73072" lon="2.6720803">
        <time>2022-07-10T15:35:31Z</time>
      </trkpt>
      <trkpt lat="41.730667" lon="2.6721268">
        <time>2022-07-10T15:35:34Z</time>
      </trkpt>
      <trkpt lat="41.730618" lon="2.67218">
        <time>2022-07-10T15:35:37Z</time>
      </trkpt>
      <trkpt lat="41.730564" lon="2.6722324">
        <time>2022-07-10T15:35:40Z</time>
      </trkpt>
      <trkpt lat="41.73051" lon="2.672284">
        <time>2022-07-10T15:35:43Z</time>
      </trkpt>
      <trkpt lat="41.73046" lon="2.6723385">
        <time>2022-07-10T15:35:46Z</time>
      </trkpt>
      <trkpt lat="41.730408" lon="2.6723948">
        <time>2022-07-10T15:35:49Z</time>
      </trkpt>
      <trkpt lat="41.730354" lon="2.672449">
        <time>2022-07-10T15:35:52Z</time>
      </trkpt>
      <trkpt lat="41.730305" lon="2.6725042">
        <time>2022-07-10T15:35:55Z</time>
      </trkpt>
      <trkpt lat="41.730255" lon="2.6725612">
        <time>2022-07-10T15:35:58Z</time>
      </trkpt>
      <trkpt lat="41.730206" lon="2.6726148">
        <time>2022-07-10T15:36:01Z</time>
      </trkpt>
      <trkpt lat="41.730156" lon="2.6726637">
        <time>2022-07-10T15:36:04Z</time>
      </trkpt>
      <trkpt lat="41.730106" lon="2.6727126">
        <time>2022-07-10T15:36:07Z</time>
      </trkpt>
      <trkpt lat="41.730057" lon="2.672763">
        <time>2022-07-10T15:36:10Z</time>
      </trkpt>
      <trkpt lat="41.73001" lon="2.6728132">
        <time>2022-07-10T15:36:13Z</time>
      </trkpt>
      <trkpt lat="41.72996" lon="2.672867">
        <time>2022-07-10T15:36:16Z</time>
      </trkpt>
      <trkpt lat="41.729916" lon="2.672919">
        <time>2022-07-10T15:36:19Z</time>
      </trkpt>
      <trkpt lat="41.729866" lon="2.6729722">
        <time>2022-07-10T15:36:22Z</time>
      </trkpt>
      <trkpt lat="41.729816" lon="2.6730216">
        <time>2022-07-10T15:36:25Z</time>
      </trkpt>
      <trkpt lat="41.729767" lon="2.6730697">
        <time>2022-07-10T15:36:28Z</time>
      </trkpt>
      <trkpt lat="41.72971" lon="2.6731157">
        <time>2022-07-10T15:36:31Z</time>
      </trkpt>
      <trkpt lat="41.729656" lon="2.6731591">
        <time>2022-07-10T15:36:34Z</time>
      </trkpt>
      <trkpt lat="41.729595" lon="2.6731985">
        <time>2022-07-10T15:36:37Z</time>
      </trkpt>
      <trkpt lat="41.72953" lon="2.6732311">
        <time>2022-07-10T15:36:40Z</time>
      </trkpt>
      <trkpt lat="41.729465" lon="2.6732624">
        <time>2022-07-10T15:36:43Z</time>
      </trkpt>
      <trkpt lat="41.729404" lon="2.6732872">
        <time>2022-07-10T15:36:46Z</time>
      </trkpt>
      <trkpt lat="41.72934" lon="2.6733093">
        <time>2022-07-10T15:36:49Z</time>
      </trkpt>
      <trkpt lat="41.729275" lon="2.6733284">
        <time>2022-07-10T15:36:52Z</time>
      </trkpt>
      <trkpt lat="41.729214" lon="2.6733453">
        <time>2022-07-10T15:36:55Z</time>
      </trkpt>
      <trkpt lat="41.729145" lon="2.67336">
        <time>2022-07-10T15:36:58Z</time>
      </trkpt>
      <trkpt lat="41.729084" lon="2.673373">
        <time>2022-07-10T15:37:01Z</time>
      </trkpt>
      <trkpt lat="41.729015" lon="2.6733844">
        <time>2022-07-10T15:37:04Z</time>
      </trkpt>
      <trkpt lat="41.728954" lon="2.6733873">
        <time>2022-07-10T15:37:07Z</time>
      </trkpt>
      <trkpt lat="41.728893" lon="2.6733937">
        <time>2022-07-10T15:37:10Z</time>
      </trkpt>
      <trkpt lat="41.728825" lon="2.6733978">
        <time>2022-07-10T15:37:13Z</time>
      </trkpt>
      <trkpt lat="41.728756" lon="2.6733994">
        <time>2022-07-10T15:37:16Z</time>
      </trkpt>
      <trkpt lat="41.728687" lon="2.6733968">
        <time>2022-07-10T15:37:19Z</time>
      </trkpt>
      <trkpt lat="41.72862" lon="2.6733868">
        <time>2022-07-10T15:37:22Z</time>
      </trkpt>
      <trkpt lat="41.72855" lon="2.6733778">
        <time>2022-07-10T15:37:25Z</time>
      </trkpt>
      <trkpt lat="41.728477" lon="2.673363">
        <time>2022-07-10T15:37:28Z</time>
      </trkpt>
      <trkpt lat="41.7284" lon="2.673341">
        <time>2022-07-10T15:37:31Z</time>
      </trkpt>
      <trkpt lat="41.728348" lon="2.673325">
        <time>2022-07-10T15:37:33Z</time>
      </trkpt>
      <trkpt lat="41.728294" lon="2.6733093">
        <time>2022-07-10T15:37:35Z</time>
      </trkpt>
      <trkpt lat="41.72824" lon="2.6732917">
        <time>2022-07-10T15:37:37Z</time>
      </trkpt>
      <trkpt lat="41.728188" lon="2.6732707">
        <time>2022-07-10T15:37:39Z</time>
      </trkpt>
      <trkpt lat="41.728138" lon="2.6732464">
        <time>2022-07-10T15:37:41Z</time>
      </trkpt>
      <trkpt lat="41.72809" lon="2.6732202">
        <time>2022-07-10T15:37:43Z</time>
      </trkpt>
      <trkpt lat="41.728035" lon="2.6731935">
        <time>2022-07-10T15:37:45Z</time>
      </trkpt>
      <trkpt lat="41.727985" lon="2.6731632">
        <time>2022-07-10T15:37:47Z</time>
      </trkpt>
      <trkpt lat="41.727936" lon="2.6731288">
        <time>2022-07-10T15:37:49Z</time>
      </trkpt>
      <trkpt lat="41.72789" lon="2.6730914">
        <time>2022-07-10T15:37:51Z</time>
      </trkpt>
      <trkpt lat="41.72782" lon="2.6730413">
        <time>2022-07-10T15:37:54Z</time>
      </trkpt>
      <trkpt lat="41.727776" lon="2.6730077">
        <time>2022-07-10T15:37:56Z</time>
      </trkpt>
      <trkpt lat="41.72773" lon="2.672975">
        <time>2022-07-10T15:37:58Z</time>
      </trkpt>
      <trkpt lat="41.72768" lon="2.6729424">
        <time>2022-07-10T15:38:00Z</time>
      </trkpt>
      <trkpt lat="41.727634" lon="2.6729107">
        <time>2022-07-10T15:38:02Z</time>
      </trkpt>
      <trkpt lat="41.72757" lon="2.6728704">
        <time>2022-07-10T15:38:05Z</time>
      </trkpt>
      <trkpt lat="41.727524" lon="2.6728454">
        <time>2022-07-10T15:38:07Z</time>
      </trkpt>
      <trkpt lat="41.72746" lon="2.6728165">
        <time>2022-07-10T15:38:10Z</time>
      </trkpt>
      <trkpt lat="41.727413" lon="2.6728005">
        <time>2022-07-10T15:38:12Z</time>
      </trkpt>
      <trkpt lat="41.727352" lon="2.6727788">
        <time>2022-07-10T15:38:15Z</time>
      </trkpt>
      <trkpt lat="41.727287" lon="2.6727602">
        <time>2022-07-10T15:38:18Z</time>
      </trkpt>
      <trkpt lat="41.72722" lon="2.6727448">
        <time>2022-07-10T15:38:21Z</time>
      </trkpt>
      <trkpt lat="41.72715" lon="2.6727338">
        <time>2022-07-10T15:38:24Z</time>
      </trkpt>
      <trkpt lat="41.727085" lon="2.6727278">
        <time>2022-07-10T15:38:27Z</time>
      </trkpt>
      <trkpt lat="41.727016" lon="2.6727245">
        <time>2022-07-10T15:38:30Z</time>
      </trkpt>
      <trkpt lat="41.726948" lon="2.6727264">
        <time>2022-07-10T15:38:33Z</time>
      </trkpt>
      <trkpt lat="41.726887" lon="2.672736">
        <time>2022-07-10T15:38:36Z</time>
      </trkpt>
      <trkpt lat="41.72682" lon="2.6727505">
        <time>2022-07-10T15:38:39Z</time>
      </trkpt>
      <trkpt lat="41.726757" lon="2.6727638">
        <time>2022-07-10T15:38:42Z</time>
      </trkpt>
      <trkpt lat="41.726696" lon="2.6727822">
        <time>2022-07-10T15:38:45Z</time>
      </trkpt>
      <trkpt lat="41.72663" lon="2.672804">
        <time>2022-07-10T15:38:48Z</time>
      </trkpt>
      <trkpt lat="41.72657" lon="2.6728275">
        <time>2022-07-10T15:38:51Z</time>
      </trkpt>
      <trkpt lat="41.726513" lon="2.6728528">
        <time>2022-07-10T15:38:54Z</time>
      </trkpt>
      <trkpt lat="41.72645" lon="2.6728837">
        <time>2022-07-10T15:38:57Z</time>
      </trkpt>
      <trkpt lat="41.72639" lon="2.6729121">
        <time>2022-07-10T15:39:00Z</time>
      </trkpt>
      <trkpt lat="41.726334" lon="2.6729422">
        <time>2022-07-10T15:39:03Z</time>
      </trkpt>
      <trkpt lat="41.726273" lon="2.6729805">
        <time>2022-07-10T15:39:06Z</time>
      </trkpt>
      <trkpt lat="41.72621" lon="2.6730237">
        <time>2022-07-10T15:39:09Z</time>
      </trkpt>
      <trkpt lat="41.72617" lon="2.673053">
        <time>2022-07-10T15:39:11Z</time>
      </trkpt>
      <trkpt lat="41.726105" lon="2.6730905">
        <time>2022-07-10T15:39:14Z</time>
      </trkpt>
      <trkpt lat="41.726044" lon="2.6731224">
        <time>2022-07-10T15:39:17Z</time>
      </trkpt>
      <trkpt lat="41.725975" lon="2.6731555">
        <time>2022-07-10T15:39:20Z</time>
      </trkpt>
      <trkpt lat="41.725906" lon="2.6731918">
        <time>2022-07-10T15:39:23Z</time>
      </trkpt>
      <trkpt lat="41.72584" lon="2.6732268">
        <time>2022-07-10T15:39:26Z</time>
      </trkpt>
      <trkpt lat="41.725773" lon="2.6732652">
        <time>2022-07-10T15:39:29Z</time>
      </trkpt>
      <trkpt lat="41.7257" lon="2.6733031">
        <time>2022-07-10T15:39:32Z</time>
      </trkpt>
      <trkpt lat="41.72565" lon="2.6733282">
        <time>2022-07-10T15:39:34Z</time>
      </trkpt>
      <trkpt lat="41.725605" lon="2.673355">
        <time>2022-07-10T15:39:36Z</time>
      </trkpt>
      <trkpt lat="41.72555" lon="2.6733809">
        <time>2022-07-10T15:39:38Z</time>
      </trkpt>
      <trkpt lat="41.725502" lon="2.6734061">
        <time>2022-07-10T15:39:40Z</time>
      </trkpt>
      <trkpt lat="41.72545" lon="2.6734347">
        <time>2022-07-10T15:39:42Z</time>
      </trkpt>
      <trkpt lat="41.725395" lon="2.6734674">
        <time>2022-07-10T15:39:44Z</time>
      </trkpt>
      <trkpt lat="41.72534" lon="2.6735024">
        <time>2022-07-10T15:39:46Z</time>
      </trkpt>
      <trkpt lat="41.725292" lon="2.67354">
        <time>2022-07-10T15:39:48Z</time>
      </trkpt>
      <trkpt lat="41.72524" lon="2.6735773">
        <time>2022-07-10T15:39:50Z</time>
      </trkpt>
      <trkpt lat="41.725185" lon="2.6736116">
        <time>2022-07-10T15:39:52Z</time>
      </trkpt>
      <trkpt lat="41.725136" lon="2.673643">
        <time>2022-07-10T15:39:54Z</time>
      </trkpt>
      <trkpt lat="41.725082" lon="2.6736727">
        <time>2022-07-10T15:39:56Z</time>
      </trkpt>
      <trkpt lat="41.725033" lon="2.673701">
        <time>2022-07-10T15:39:58Z</time>
      </trkpt>
      <trkpt lat="41.72498" lon="2.673729">
        <time>2022-07-10T15:40:00Z</time>
      </trkpt>
      <trkpt lat="41.72493" lon="2.6737568">
        <time>2022-07-10T15:40:02Z</time>
      </trkpt>
      <trkpt lat="41.724876" lon="2.6737854">
        <time>2022-07-10T15:40:04Z</time>
      </trkpt>
      <trkpt lat="41.724823" lon="2.673814">
        <time>2022-07-10T15:40:06Z</time>
      </trkpt>
      <trkpt lat="41.72477" lon="2.6738434">
        <time>2022-07-10T15:40:08Z</time>
      </trkpt>
      <trkpt lat="41.72472" lon="2.6738727">
        <time>2022-07-10T15:40:10Z</time>
      </trkpt>
      <trkpt lat="41.724667" lon="2.6739018">
        <time>2022-07-10T15:40:12Z</time>
      </trkpt>
      <trkpt lat="41.724613" lon="2.6739316">
        <time>2022-07-10T15:40:14Z</time>
      </trkpt>
      <trkpt lat="41.72456" lon="2.6739588">
        <time>2022-07-10T15:40:16Z</time>
      </trkpt>
      <trkpt lat="41.724506" lon="2.6739864">
        <time>2022-07-10T15:40:18Z</time>
      </trkpt>
      <trkpt lat="41.724453" lon="2.6740165">
        <time>2022-07-10T15:40:20Z</time>
      </trkpt>
      <trkpt lat="41.7244" lon="2.6740458">
        <time>2022-07-10T15:40:22Z</time>
      </trkpt>
      <trkpt lat="41.72434" lon="2.6740727">
        <time>2022-07-10T15:40:24Z</time>
      </trkpt>
      <trkpt lat="41.724277" lon="2.6741004">
        <time>2022-07-10T15:40:26Z</time>
      </trkpt>
      <trkpt lat="41.724216" lon="2.6741266">
        <time>2022-07-10T15:40:28Z</time>
      </trkpt>
      <trkpt lat="41.72416" lon="2.6741526">
        <time>2022-07-10T15:40:30Z</time>
      </trkpt>
      <trkpt lat="41.7241" lon="2.6741786">
        <time>2022-07-10T15:40:32Z</time>
      </trkpt>
      <trkpt lat="41.724037" lon="2.6742017">
        <time>2022-07-10T15:40:34Z</time>
      </trkpt>
      <trkpt lat="41.723976" lon="2.6742206">
        <time>2022-07-10T15:40:36Z</time>
      </trkpt>
      <trkpt lat="41.72391" lon="2.674236">
        <time>2022-07-10T15:40:38Z</time>
      </trkpt>
      <trkpt lat="41.723846" lon="2.6742494">
        <time>2022-07-10T15:40:40Z</time>
      </trkpt>
      <trkpt lat="41.72378" lon="2.6742628">
        <time>2022-07-10T15:40:42Z</time>
      </trkpt>
      <trkpt lat="41.72372" lon="2.674274">
        <time>2022-07-10T15:40:44Z</time>
      </trkpt>
      <trkpt lat="41.723656" lon="2.674282">
        <time>2022-07-10T15:40:46Z</time>
      </trkpt>
      <trkpt lat="41.72359" lon="2.6742864">
        <time>2022-07-10T15:40:48Z</time>
      </trkpt>
      <trkpt lat="41.723522" lon="2.6742876">
        <time>2022-07-10T15:40:50Z</time>
      </trkpt>
      <trkpt lat="41.723457" lon="2.6742854">
        <time>2022-07-10T15:40:52Z</time>
      </trkpt>
      <trkpt lat="41.723392" lon="2.6742792">
        <time>2022-07-10T15:40:54Z</time>
      </trkpt>
      <trkpt lat="41.723324" lon="2.674272">
        <time>2022-07-10T15:40:56Z</time>
      </trkpt>
      <trkpt lat="41.72325" lon="2.674263">
        <time>2022-07-10T15:40:58Z</time>
      </trkpt>
      <trkpt lat="41.723175" lon="2.6742516">
        <time>2022-07-10T15:41:00Z</time>
      </trkpt>
      <trkpt lat="41.723095" lon="2.6742373">
        <time>2022-07-10T15:41:02Z</time>
      </trkpt>
      <trkpt lat="41.72301" lon="2.6742213">
        <time>2022-07-10T15:41:04Z</time>
      </trkpt>
      <trkpt lat="41.722923" lon="2.674204">
        <time>2022-07-10T15:41:06Z</time>
      </trkpt>
      <trkpt lat="41.722836" lon="2.6741843">
        <time>2022-07-10T15:41:08Z</time>
      </trkpt>
      <trkpt lat="41.722733" lon="2.6741626">
        <time>2022-07-10T15:41:10Z</time>
      </trkpt>
      <trkpt lat="41.72268" lon="2.674151">
        <time>2022-07-10T15:41:11Z</time>
      </trkpt>
      <trkpt lat="41.722626" lon="2.6741397">
        <time>2022-07-10T15:41:12Z</time>
      </trkpt>
      <trkpt lat="41.72252" lon="2.6741188">
        <time>2022-07-10T15:41:14Z</time>
      </trkpt>
      <trkpt lat="41.72246" lon="2.6741073">
        <time>2022-07-10T15:41:15Z</time>
      </trkpt>
      <trkpt lat="41.722404" lon="2.6740973">
        <time>2022-07-10T15:41:16Z</time>
      </trkpt>
      <trkpt lat="41.72234" lon="2.6740885">
        <time>2022-07-10T15:41:17Z</time>
      </trkpt>
      <trkpt lat="41.722282" lon="2.6740823">
        <time>2022-07-10T15:41:18Z</time>
      </trkpt>
      <trkpt lat="41.72222" lon="2.6740785">
        <time>2022-07-10T15:41:19Z</time>
      </trkpt>
      <trkpt lat="41.722153" lon="2.6740768">
        <time>2022-07-10T15:41:20Z</time>
      </trkpt>
      <trkpt lat="41.72209" lon="2.6740768">
        <time>2022-07-10T15:41:21Z</time>
      </trkpt>
      <trkpt lat="41.722027" lon="2.6740797">
        <time>2022-07-10T15:41:22Z</time>
      </trkpt>
      <trkpt lat="41.721962" lon="2.6740863">
        <time>2022-07-10T15:41:23Z</time>
      </trkpt>
      <trkpt lat="41.7219" lon="2.6740963">
        <time>2022-07-10T15:41:24Z</time>
      </trkpt>
      <trkpt lat="41.721836" lon="2.6741095">
        <time>2022-07-10T15:41:25Z</time>
      </trkpt>
      <trkpt lat="41.72177" lon="2.6741254">
        <time>2022-07-10T15:41:26Z</time>
      </trkpt>
      <trkpt lat="41.721703" lon="2.6741455">
        <time>2022-07-10T15:41:27Z</time>
      </trkpt>
      <trkpt lat="41.721638" lon="2.6741693">
        <time>2022-07-10T15:41:28Z</time>
      </trkpt>
      <trkpt lat="41.72157" lon="2.6741967">
        <time>2022-07-10T15:41:29Z</time>
      </trkpt>
      <trkpt lat="41.7215" lon="2.6742268">
        <time>2022-07-10T15:41:30Z</time>
      </trkpt>
      <trkpt lat="41.72143" lon="2.6742585">
        <time>2022-07-10T15:41:31Z</time>
      </trkpt>
      <trkpt lat="41.72136" lon="2.6742983">
        <time>2022-07-10T15:41:32Z</time>
      </trkpt>
      <trkpt lat="41.721294" lon="2.674338">
        <time>2022-07-10T15:41:33Z</time>
      </trkpt>
      <trkpt lat="41.72123" lon="2.6743824">
        <time>2022-07-10T15:41:34Z</time>
      </trkpt>
      <trkpt lat="41.72116" lon="2.674435">
        <time>2022-07-10T15:41:35Z</time>
      </trkpt>
      <trkpt lat="41.721096" lon="2.6744921">
        <time>2022-07-10T15:41:36Z</time>
      </trkpt>
      <trkpt lat="41.721035" lon="2.6745524">
        <time>2022-07-10T15:41:37Z</time>
      </trkpt>
      <trkpt lat="41.720978" lon="2.6746132">
        <time>2022-07-10T15:41:38Z</time>
      </trkpt>
      <trkpt lat="41.72092" lon="2.6746793">
        <time>2022-07-10T15:41:39Z</time>
      </trkpt>
      <trkpt lat="41.72086" lon="2.6747527">
        <time>2022-07-10T15:41:40Z</time>
      </trkpt>
      <trkpt lat="41.720802" lon="2.6748266">
        <time>2022-07-10T15:41:41Z</time>
      </trkpt>
      <trkpt lat="41.72075" lon="2.674897">
        <time>2022-07-10T15:41:42Z</time>
      </trkpt>
      <trkpt lat="41.720695" lon="2.6749697">
        <time>2022-07-10T15:41:43Z</time>
      </trkpt>
      <trkpt lat="41.72064" lon="2.675043">
        <time>2022-07-10T15:41:44Z</time>
      </trkpt>
      <trkpt lat="41.720573" lon="2.6751223">
        <time>2022-07-10T15:41:45Z</time>
      </trkpt>
      <trkpt lat="41.720512" lon="2.6752007">
        <time>2022-07-10T15:41:46Z</time>
      </trkpt>
      <trkpt lat="41.72045" lon="2.6752727">
        <time>2022-07-10T15:41:47Z</time>
      </trkpt>
      <trkpt lat="41.72039" lon="2.675345">
        <time>2022-07-10T15:41:48Z</time>
      </trkpt>
      <trkpt lat="41.720325" lon="2.675416">
        <time>2022-07-10T15:41:49Z</time>
      </trkpt>
      <trkpt lat="41.720253" lon="2.6754887">
        <time>2022-07-10T15:41:50Z</time>
      </trkpt>
      <trkpt lat="41.720184" lon="2.675557">
        <time>2022-07-10T15:41:51Z</time>
      </trkpt>
      <trkpt lat="41.720116" lon="2.675617">
        <time>2022-07-10T15:41:52Z</time>
      </trkpt>
      <trkpt lat="41.720047" lon="2.675674">
        <time>2022-07-10T15:41:53Z</time>
      </trkpt>
      <trkpt lat="41.719975" lon="2.6757274">
        <time>2022-07-10T15:41:54Z</time>
      </trkpt>
      <trkpt lat="41.719902" lon="2.6757767">
        <time>2022-07-10T15:41:55Z</time>
      </trkpt>
      <trkpt lat="41.719826" lon="2.6758277">
        <time>2022-07-10T15:41:56Z</time>
      </trkpt>
      <trkpt lat="41.719746" lon="2.675878">
        <time>2022-07-10T15:41:57Z</time>
      </trkpt>
      <trkpt lat="41.71967" lon="2.6759267">
        <time>2022-07-10T15:41:58Z</time>
      </trkpt>
      <trkpt lat="41.719597" lon="2.6759694">
        <time>2022-07-10T15:41:59Z</time>
      </trkpt>
      <trkpt lat="41.719513" lon="2.676012">
        <time>2022-07-10T15:42:00Z</time>
      </trkpt>
      <trkpt lat="41.719433" lon="2.6760533">
        <time>2022-07-10T15:42:01Z</time>
      </trkpt>
      <trkpt lat="41.71936" lon="2.676091">
        <time>2022-07-10T15:42:02Z</time>
      </trkpt>
      <trkpt lat="41.719284" lon="2.6761277">
        <time>2022-07-10T15:42:03Z</time>
      </trkpt>
      <trkpt lat="41.719204" lon="2.676164">
        <time>2022-07-10T15:42:04Z</time>
      </trkpt>
      <trkpt lat="41.719128" lon="2.6761992">
        <time>2022-07-10T15:42:05Z</time>
      </trkpt>
      <trkpt lat="41.719048" lon="2.6762342">
        <time>2022-07-10T15:42:06Z</time>
      </trkpt>
      <trkpt lat="41.71897" lon="2.6762717">
        <time>2022-07-10T15:42:07Z</time>
      </trkpt>
      <trkpt lat="41.71889" lon="2.676306">
        <time>2022-07-10T15:42:08Z</time>
      </trkpt>
      <trkpt lat="41.718815" lon="2.6763365">
        <time>2022-07-10T15:42:09Z</time>
      </trkpt>
      <trkpt lat="41.71873" lon="2.676365">
        <time>2022-07-10T15:42:10Z</time>
      </trkpt>
      <trkpt lat="41.718647" lon="2.6763902">
        <time>2022-07-10T15:42:11Z</time>
      </trkpt>
      <trkpt lat="41.718567" lon="2.6764138">
        <time>2022-07-10T15:42:12Z</time>
      </trkpt>
      <trkpt lat="41.718494" lon="2.6764379">
        <time>2022-07-10T15:42:13Z</time>
      </trkpt>
      <trkpt lat="41.718422" lon="2.676472">
        <time>2022-07-10T15:42:14Z</time>
      </trkpt>
      <trkpt lat="41.71835" lon="2.6765196">
        <time>2022-07-10T15:42:15Z</time>
      </trkpt>
      <trkpt lat="41.718285" lon="2.676577">
        <time>2022-07-10T15:42:16Z</time>
      </trkpt>
      <trkpt lat="41.718224" lon="2.6766462">
        <time>2022-07-10T15:42:17Z</time>
      </trkpt>
      <trkpt lat="41.718124" lon="2.6767817">
        <time>2022-07-10T15:42:19Z</time>
      </trkpt>
      <trkpt lat="41.71808" lon="2.676863">
        <time>2022-07-10T15:42:20Z</time>
      </trkpt>
      <trkpt lat="41.718037" lon="2.6769433">
        <time>2022-07-10T15:42:21Z</time>
      </trkpt>
      <trkpt lat="41.71799" lon="2.6770296">
        <time>2022-07-10T15:42:22Z</time>
      </trkpt>
      <trkpt lat="41.717945" lon="2.6771216">
        <time>2022-07-10T15:42:23Z</time>
      </trkpt>
      <trkpt lat="41.717896" lon="2.6772175">
        <time>2022-07-10T15:42:24Z</time>
      </trkpt>
      <trkpt lat="41.717846" lon="2.6773171">
        <time>2022-07-10T15:42:25Z</time>
      </trkpt>
      <trkpt lat="41.717793" lon="2.6774192">
        <time>2022-07-10T15:42:26Z</time>
      </trkpt>
      <trkpt lat="41.71774" lon="2.6775224">
        <time>2022-07-10T15:42:27Z</time>
      </trkpt>
      <trkpt lat="41.71768" lon="2.6776266">
        <time>2022-07-10T15:42:28Z</time>
      </trkpt>
      <trkpt lat="41.717625" lon="2.67773">
        <time>2022-07-10T15:42:29Z</time>
      </trkpt>
      <trkpt lat="41.717564" lon="2.6778345">
        <time>2022-07-10T15:42:30Z</time>
      </trkpt>
      <trkpt lat="41.717506" lon="2.6779377">
        <time>2022-07-10T15:42:31Z</time>
      </trkpt>
      <trkpt lat="41.71744" lon="2.678048">
        <time>2022-07-10T15:42:32Z</time>
      </trkpt>
      <trkpt lat="41.71738" lon="2.6781495">
        <time>2022-07-10T15:42:33Z</time>
      </trkpt>
      <trkpt lat="41.71732" lon="2.6782522">
        <time>2022-07-10T15:42:34Z</time>
      </trkpt>
      <trkpt lat="41.71726" lon="2.6783552">
        <time>2022-07-10T15:42:35Z</time>
      </trkpt>
      <trkpt lat="41.717197" lon="2.6784585">
        <time>2022-07-10T15:42:36Z</time>
      </trkpt>
      <trkpt lat="41.717136" lon="2.6785624">
        <time>2022-07-10T15:42:37Z</time>
      </trkpt>
      <trkpt lat="41.71708" lon="2.6786683">
        <time>2022-07-10T15:42:38Z</time>
      </trkpt>
      <trkpt lat="41.717022" lon="2.6787758">
        <time>2022-07-10T15:42:39Z</time>
      </trkpt>
      <trkpt lat="41.71697" lon="2.678884">
        <time>2022-07-10T15:42:40Z</time>
      </trkpt>
      <trkpt lat="41.716923" lon="2.6789935">
        <time>2022-07-10T15:42:41Z</time>
      </trkpt>
      <trkpt lat="41.716873" lon="2.6791062">
        <time>2022-07-10T15:42:42Z</time>
      </trkpt>
      <trkpt lat="41.71683" lon="2.6792207">
        <time>2022-07-10T15:42:43Z</time>
      </trkpt>
      <trkpt lat="41.716793" lon="2.6793392">
        <time>2022-07-10T15:42:44Z</time>
      </trkpt>
      <trkpt lat="41.716755" lon="2.6794605">
        <time>2022-07-10T15:42:45Z</time>
      </trkpt>
      <trkpt lat="41.716724" lon="2.6795847">
        <time>2022-07-10T15:42:46Z</time>
      </trkpt>
      <trkpt lat="41.716694" lon="2.6797104">
        <time>2022-07-10T15:42:47Z</time>
      </trkpt>
      <trkpt lat="41.71667" lon="2.6798382">
        <time>2022-07-10T15:42:48Z</time>
      </trkpt>
      <trkpt lat="41.71665" lon="2.6799674">
        <time>2022-07-10T15:42:49Z</time>
      </trkpt>
      <trkpt lat="41.71663" lon="2.6800988">
        <time>2022-07-10T15:42:50Z</time>
      </trkpt>
      <trkpt lat="41.716614" lon="2.6802309">
        <time>2022-07-10T15:42:51Z</time>
      </trkpt>
      <trkpt lat="41.716595" lon="2.6803632">
        <time>2022-07-10T15:42:52Z</time>
      </trkpt>
      <trkpt lat="41.71658" lon="2.680496">
        <time>2022-07-10T15:42:53Z</time>
      </trkpt>
      <trkpt lat="41.716564" lon="2.6806304">
        <time>2022-07-10T15:42:54Z</time>
      </trkpt>
      <trkpt lat="41.716545" lon="2.6807647">
        <time>2022-07-10T15:42:55Z</time>
      </trkpt>
      <trkpt lat="41.71653" lon="2.6808991">
        <time>2022-07-10T15:42:56Z</time>
      </trkpt>
      <trkpt lat="41.716515" lon="2.6810331">
        <time>2022-07-10T15:42:57Z</time>
      </trkpt>
      <trkpt lat="41.7165" lon="2.6811674">
        <time>2022-07-10T15:42:58Z</time>
      </trkpt>
      <trkpt lat="41.716484" lon="2.6813028">
        <time>2022-07-10T15:42:59Z</time>
      </trkpt>
      <trkpt lat="41.716465" lon="2.6814377">
        <time>2022-07-10T15:43:00Z</time>
      </trkpt>
      <trkpt lat="41.716442" lon="2.6815743">
        <time>2022-07-10T15:43:01Z</time>
      </trkpt>
      <trkpt lat="41.71642" lon="2.6817117">
        <time>2022-07-10T15:43:02Z</time>
      </trkpt>
      <trkpt lat="41.716393" lon="2.681849">
        <time>2022-07-10T15:43:03Z</time>
      </trkpt>
      <trkpt lat="41.716362" lon="2.6819863">
        <time>2022-07-10T15:43:04Z</time>
      </trkpt>
      <trkpt lat="41.716328" lon="2.6821237">
        <time>2022-07-10T15:43:05Z</time>
      </trkpt>
      <trkpt lat="41.71628" lon="2.6822584">
        <time>2022-07-10T15:43:06Z</time>
      </trkpt>
      <trkpt lat="41.716236" lon="2.6823905">
        <time>2022-07-10T15:43:07Z</time>
      </trkpt>
      <trkpt lat="41.716183" lon="2.682519">
        <time>2022-07-10T15:43:08Z</time>
      </trkpt>
      <trkpt lat="41.716125" lon="2.6826453">
        <time>2022-07-10T15:43:09Z</time>
      </trkpt>
      <trkpt lat="41.71606" lon="2.682768">
        <time>2022-07-10T15:43:10Z</time>
      </trkpt>
      <trkpt lat="41.715992" lon="2.6828856">
        <time>2022-07-10T15:43:11Z</time>
      </trkpt>
      <trkpt lat="41.71592" lon="2.682996">
        <time>2022-07-10T15:43:12Z</time>
      </trkpt>
      <trkpt lat="41.71584" lon="2.6831">
        <time>2022-07-10T15:43:13Z</time>
      </trkpt>
      <trkpt lat="41.71576" lon="2.6831977">
        <time>2022-07-10T15:43:14Z</time>
      </trkpt>
      <trkpt lat="41.71567" lon="2.683289">
        <time>2022-07-10T15:43:15Z</time>
      </trkpt>
      <trkpt lat="41.715584" lon="2.6833751">
        <time>2022-07-10T15:43:16Z</time>
      </trkpt>
      <trkpt lat="41.71549" lon="2.6834557">
        <time>2022-07-10T15:43:17Z</time>
      </trkpt>
      <trkpt lat="41.715393" lon="2.6835296">
        <time>2022-07-10T15:43:18Z</time>
      </trkpt>
      <trkpt lat="41.715298" lon="2.6835947">
        <time>2022-07-10T15:43:19Z</time>
      </trkpt>
      <trkpt lat="41.715103" lon="2.683705">
        <time>2022-07-10T15:43:21Z</time>
      </trkpt>
      <trkpt lat="41.715" lon="2.683753">
        <time>2022-07-10T15:43:22Z</time>
      </trkpt>
      <trkpt lat="41.7149" lon="2.6837966">
        <time>2022-07-10T15:43:23Z</time>
      </trkpt>
      <trkpt lat="41.7148" lon="2.6838374">
        <time>2022-07-10T15:43:24Z</time>
      </trkpt>
      <trkpt lat="41.714703" lon="2.683876">
        <time>2022-07-10T15:43:25Z</time>
      </trkpt>
      <trkpt lat="41.714603" lon="2.6839128">
        <time>2022-07-10T15:43:26Z</time>
      </trkpt>
      <trkpt lat="41.714504" lon="2.6839476">
        <time>2022-07-10T15:43:27Z</time>
      </trkpt>
      <trkpt lat="41.7144" lon="2.6839843">
        <time>2022-07-10T15:43:28Z</time>
      </trkpt>
      <trkpt lat="41.7143" lon="2.68402">
        <time>2022-07-10T15:43:29Z</time>
      </trkpt>
      <trkpt lat="41.714207" lon="2.6840527">
        <time>2022-07-10T15:43:30Z</time>
      </trkpt>
      <trkpt lat="41.714115" lon="2.6840866">
        <time>2022-07-10T15:43:31Z</time>
      </trkpt>
      <trkpt lat="41.71402" lon="2.684121">
        <time>2022-07-10T15:43:32Z</time>
      </trkpt>
      <trkpt lat="41.71393" lon="2.684155">
        <time>2022-07-10T15:43:33Z</time>
      </trkpt>
      <trkpt lat="41.713833" lon="2.6841888">
        <time>2022-07-10T15:43:34Z</time>
      </trkpt>
      <trkpt lat="41.713734" lon="2.6842253">
        <time>2022-07-10T15:43:35Z</time>
      </trkpt>
      <trkpt lat="41.713646" lon="2.6842582">
        <time>2022-07-10T15:43:36Z</time>
      </trkpt>
      <trkpt lat="41.71356" lon="2.6842942">
        <time>2022-07-10T15:43:37Z</time>
      </trkpt>
      <trkpt lat="41.713463" lon="2.6843343">
        <time>2022-07-10T15:43:38Z</time>
      </trkpt>
      <trkpt lat="41.713375" lon="2.684377">
        <time>2022-07-10T15:43:39Z</time>
      </trkpt>
      <trkpt lat="41.713287" lon="2.6844208">
        <time>2022-07-10T15:43:40Z</time>
      </trkpt>
      <trkpt lat="41.713207" lon="2.684469">
        <time>2022-07-10T15:43:41Z</time>
      </trkpt>
      <trkpt lat="41.71313" lon="2.6845174">
        <time>2022-07-10T15:43:42Z</time>
      </trkpt>
      <trkpt lat="41.71306" lon="2.684571">
        <time>2022-07-10T15:43:43Z</time>
      </trkpt>
      <trkpt lat="41.712986" lon="2.6846297">
        <time>2022-07-10T15:43:44Z</time>
      </trkpt>
      <trkpt lat="41.712917" lon="2.6846929">
        <time>2022-07-10T15:43:45Z</time>
      </trkpt>
      <trkpt lat="41.712852" lon="2.6847599">
        <time>2022-07-10T15:43:46Z</time>
      </trkpt>
      <trkpt lat="41.71279" lon="2.6848326">
        <time>2022-07-10T15:43:47Z</time>
      </trkpt>
      <trkpt lat="41.712734" lon="2.684907">
        <time>2022-07-10T15:43:48Z</time>
      </trkpt>
      <trkpt lat="41.71268" lon="2.6849825">
        <time>2022-07-10T15:43:49Z</time>
      </trkpt>
      <trkpt lat="41.712627" lon="2.6850595">
        <time>2022-07-10T15:43:50Z</time>
      </trkpt>
      <trkpt lat="41.712578" lon="2.685138">
        <time>2022-07-10T15:43:51Z</time>
      </trkpt>
      <trkpt lat="41.71253" lon="2.685217">
        <time>2022-07-10T15:43:52Z</time>
      </trkpt>
      <trkpt lat="41.712482" lon="2.685297">
        <time>2022-07-10T15:43:53Z</time>
      </trkpt>
      <trkpt lat="41.712437" lon="2.6853786">
        <time>2022-07-10T15:43:54Z</time>
      </trkpt>
      <trkpt lat="41.712387" lon="2.6854591">
        <time>2022-07-10T15:43:55Z</time>
      </trkpt>
      <trkpt lat="41.712337" lon="2.685536">
        <time>2022-07-10T15:43:56Z</time>
      </trkpt>
      <trkpt lat="41.712284" lon="2.6856053">
        <time>2022-07-10T15:43:57Z</time>
      </trkpt>
      <trkpt lat="41.712227" lon="2.68567">
        <time>2022-07-10T15:43:58Z</time>
      </trkpt>
      <trkpt lat="41.71217" lon="2.6857398">
        <time>2022-07-10T15:43:59Z</time>
      </trkpt>
      <trkpt lat="41.712116" lon="2.685808">
        <time>2022-07-10T15:44:00Z</time>
      </trkpt>
      <trkpt lat="41.712074" lon="2.685882">
        <time>2022-07-10T15:44:01Z</time>
      </trkpt>
      <trkpt lat="41.71204" lon="2.6859622">
        <time>2022-07-10T15:44:02Z</time>
      </trkpt>
      <trkpt lat="41.712013" lon="2.6860466">
        <time>2022-07-10T15:44:03Z</time>
      </trkpt>
      <trkpt lat="41.71199" lon="2.686134">
        <time>2022-07-10T15:44:04Z</time>
      </trkpt>
      <trkpt lat="41.711967" lon="2.6862252">
        <time>2022-07-10T15:44:05Z</time>
      </trkpt>
      <trkpt lat="41.711945" lon="2.6863222">
        <time>2022-07-10T15:44:06Z</time>
      </trkpt>
      <trkpt lat="41.711918" lon="2.686411">
        <time>2022-07-10T15:44:07Z</time>
      </trkpt>
      <trkpt lat="41.711887" lon="2.6864996">
        <time>2022-07-10T15:44:08Z</time>
      </trkpt>
      <trkpt lat="41.711853" lon="2.6865869">
        <time>2022-07-10T15:44:09Z</time>
      </trkpt>
      <trkpt lat="41.711815" lon="2.686679">
        <time>2022-07-10T15:44:10Z</time>
      </trkpt>
      <trkpt lat="41.711777" lon="2.686768">
        <time>2022-07-10T15:44:11Z</time>
      </trkpt>
      <trkpt lat="41.711742" lon="2.6868498">
        <time>2022-07-10T15:44:12Z</time>
      </trkpt>
      <trkpt lat="41.711704" lon="2.6869318">
        <time>2022-07-10T15:44:13Z</time>
      </trkpt>
      <trkpt lat="41.711666" lon="2.6870146">
        <time>2022-07-10T15:44:14Z</time>
      </trkpt>
      <trkpt lat="41.711624" lon="2.687103">
        <time>2022-07-10T15:44:15Z</time>
      </trkpt>
      <trkpt lat="41.711582" lon="2.6871905">
        <time>2022-07-10T15:44:16Z</time>
      </trkpt>
      <trkpt lat="41.711544" lon="2.6872785">
        <time>2022-07-10T15:44:17Z</time>
      </trkpt>
      <trkpt lat="41.711506" lon="2.6873608">
        <time>2022-07-10T15:44:18Z</time>
      </trkpt>
      <trkpt lat="41.711468" lon="2.6874444">
        <time>2022-07-10T15:44:19Z</time>
      </trkpt>
      <trkpt lat="41.711426" lon="2.687533">
        <time>2022-07-10T15:44:20Z</time>
      </trkpt>
      <trkpt lat="41.711388" lon="2.6876137">
        <time>2022-07-10T15:44:21Z</time>
      </trkpt>
      <trkpt lat="41.711315" lon="2.687776">
        <time>2022-07-10T15:44:23Z</time>
      </trkpt>
      <trkpt lat="41.71124" lon="2.6879387">
        <time>2022-07-10T15:44:25Z</time>
      </trkpt>
      <trkpt lat="41.7112" lon="2.6880188">
        <time>2022-07-10T15:44:26Z</time>
      </trkpt>
      <trkpt lat="41.711166" lon="2.6880918">
        <time>2022-07-10T15:44:27Z</time>
      </trkpt>
      <trkpt lat="41.71113" lon="2.6881642">
        <time>2022-07-10T15:44:28Z</time>
      </trkpt>
      <trkpt lat="41.711094" lon="2.6882374">
        <time>2022-07-10T15:44:29Z</time>
      </trkpt>
      <trkpt lat="41.71106" lon="2.6883109">
        <time>2022-07-10T15:44:30Z</time>
      </trkpt>
      <trkpt lat="41.711025" lon="2.6883879">
        <time>2022-07-10T15:44:31Z</time>
      </trkpt>
      <trkpt lat="41.71099" lon="2.6884594">
        <time>2022-07-10T15:44:32Z</time>
      </trkpt>
      <trkpt lat="41.710957" lon="2.6885314">
        <time>2022-07-10T15:44:33Z</time>
      </trkpt>
      <trkpt lat="41.710926" lon="2.688604">
        <time>2022-07-10T15:44:34Z</time>
      </trkpt>
      <trkpt lat="41.71089" lon="2.6886768">
        <time>2022-07-10T15:44:35Z</time>
      </trkpt>
      <trkpt lat="41.710854" lon="2.6887534">
        <time>2022-07-10T15:44:36Z</time>
      </trkpt>
      <trkpt lat="41.71082" lon="2.688827">
        <time>2022-07-10T15:44:37Z</time>
      </trkpt>
      <trkpt lat="41.710785" lon="2.6888938">
        <time>2022-07-10T15:44:38Z</time>
      </trkpt>
      <trkpt lat="41.710754" lon="2.6889608">
        <time>2022-07-10T15:44:39Z</time>
      </trkpt>
      <trkpt lat="41.710716" lon="2.6890323">
        <time>2022-07-10T15:44:40Z</time>
      </trkpt>
      <trkpt lat="41.710682" lon="2.6890981">
        <time>2022-07-10T15:44:41Z</time>
      </trkpt>
      <trkpt lat="41.710644" lon="2.6891685">
        <time>2022-07-10T15:44:42Z</time>
      </trkpt>
      <trkpt lat="41.71061" lon="2.689233">
        <time>2022-07-10T15:44:43Z</time>
      </trkpt>
      <trkpt lat="41.710575" lon="2.6892982">
        <time>2022-07-10T15:44:44Z</time>
      </trkpt>
      <trkpt lat="41.710537" lon="2.6893673">
        <time>2022-07-10T15:44:45Z</time>
      </trkpt>
      <trkpt lat="41.710503" lon="2.689435">
        <time>2022-07-10T15:44:46Z</time>
      </trkpt>
      <trkpt lat="41.710464" lon="2.689501">
        <time>2022-07-10T15:44:47Z</time>
      </trkpt>
      <trkpt lat="41.71043" lon="2.689562">
        <time>2022-07-10T15:44:48Z</time>
      </trkpt>
      <trkpt lat="41.710396" lon="2.6896234">
        <time>2022-07-10T15:44:49Z</time>
      </trkpt>
      <trkpt lat="41.71036" lon="2.6896887">
        <time>2022-07-10T15:44:50Z</time>
      </trkpt>
      <trkpt lat="41.710327" lon="2.689749">
        <time>2022-07-10T15:44:51Z</time>
      </trkpt>
      <trkpt lat="41.710293" lon="2.6898098">
        <time>2022-07-10T15:44:52Z</time>
      </trkpt>
      <trkpt lat="41.71026" lon="2.6898706">
        <time>2022-07-10T15:44:53Z</time>
      </trkpt>
      <trkpt lat="41.710224" lon="2.689932">
        <time>2022-07-10T15:44:54Z</time>
      </trkpt>
      <trkpt lat="41.71019" lon="2.6899927">
        <time>2022-07-10T15:44:55Z</time>
      </trkpt>
      <trkpt lat="41.710155" lon="2.6900527">
        <time>2022-07-10T15:44:56Z</time>
      </trkpt>
      <trkpt lat="41.71012" lon="2.690114">
        <time>2022-07-10T15:44:57Z</time>
      </trkpt>
      <trkpt lat="41.710087" lon="2.690174">
        <time>2022-07-10T15:44:58Z</time>
      </trkpt>
      <trkpt lat="41.710056" lon="2.6902344">
        <time>2022-07-10T15:44:59Z</time>
      </trkpt>
      <trkpt lat="41.710022" lon="2.6902943">
        <time>2022-07-10T15:45:00Z</time>
      </trkpt>
      <trkpt lat="41.70999" lon="2.690354">
        <time>2022-07-10T15:45:01Z</time>
      </trkpt>
      <trkpt lat="41.709957" lon="2.6904173">
        <time>2022-07-10T15:45:02Z</time>
      </trkpt>
      <trkpt lat="41.70993" lon="2.6904786">
        <time>2022-07-10T15:45:03Z</time>
      </trkpt>
      <trkpt lat="41.7099" lon="2.690539">
        <time>2022-07-10T15:45:04Z</time>
      </trkpt>
      <trkpt lat="41.70987" lon="2.6905987">
        <time>2022-07-10T15:45:05Z</time>
      </trkpt>
      <trkpt lat="41.709843" lon="2.6906583">
        <time>2022-07-10T15:45:06Z</time>
      </trkpt>
      <trkpt lat="41.709816" lon="2.6907187">
        <time>2022-07-10T15:45:07Z</time>
      </trkpt>
      <trkpt lat="41.70979" lon="2.69078">
        <time>2022-07-10T15:45:08Z</time>
      </trkpt>
      <trkpt lat="41.709766" lon="2.6908433">
        <time>2022-07-10T15:45:09Z</time>
      </trkpt>
      <trkpt lat="41.70972" lon="2.690973">
        <time>2022-07-10T15:45:11Z</time>
      </trkpt>
      <trkpt lat="41.7097" lon="2.6910388">
        <time>2022-07-10T15:45:12Z</time>
      </trkpt>
      <trkpt lat="41.709682" lon="2.6911066">
        <time>2022-07-10T15:45:13Z</time>
      </trkpt>
      <trkpt lat="41.709663" lon="2.691172">
        <time>2022-07-10T15:45:14Z</time>
      </trkpt>
      <trkpt lat="41.709644" lon="2.6912444">
        <time>2022-07-10T15:45:15Z</time>
      </trkpt>
      <trkpt lat="41.709625" lon="2.6913176">
        <time>2022-07-10T15:45:16Z</time>
      </trkpt>
      <trkpt lat="41.709602" lon="2.6913903">
        <time>2022-07-10T15:45:17Z</time>
      </trkpt>
      <trkpt lat="41.709583" lon="2.6914592">
        <time>2022-07-10T15:45:18Z</time>
      </trkpt>
      <trkpt lat="41.709564" lon="2.6915302">
        <time>2022-07-10T15:45:19Z</time>
      </trkpt>
      <trkpt lat="41.70954" lon="2.691606">
        <time>2022-07-10T15:45:20Z</time>
      </trkpt>
      <trkpt lat="41.709522" lon="2.6916807">
        <time>2022-07-10T15:45:21Z</time>
      </trkpt>
      <trkpt lat="41.7095" lon="2.6917562">
        <time>2022-07-10T15:45:22Z</time>
      </trkpt>
      <trkpt lat="41.70948" lon="2.6918318">
        <time>2022-07-10T15:45:23Z</time>
      </trkpt>
      <trkpt lat="41.70946" lon="2.6919096">
        <time>2022-07-10T15:45:24Z</time>
      </trkpt>
      <trkpt lat="41.709442" lon="2.6919892">
        <time>2022-07-10T15:45:25Z</time>
      </trkpt>
      <trkpt lat="41.709404" lon="2.6921465">
        <time>2022-07-10T15:45:27Z</time>
      </trkpt>
      <trkpt lat="41.709385" lon="2.6922266">
        <time>2022-07-10T15:45:28Z</time>
      </trkpt>
      <trkpt lat="41.709366" lon="2.6923072">
        <time>2022-07-10T15:45:29Z</time>
      </trkpt>
      <trkpt lat="41.709347" lon="2.6923885">
        <time>2022-07-10T15:45:30Z</time>
      </trkpt>
      <trkpt lat="41.70933" lon="2.6924696">
        <time>2022-07-10T15:45:31Z</time>
      </trkpt>
      <trkpt lat="41.709312" lon="2.6925516">
        <time>2022-07-10T15:45:32Z</time>
      </trkpt>
      <trkpt lat="41.7093" lon="2.6926289">
        <time>2022-07-10T15:45:33Z</time>
      </trkpt>
      <trkpt lat="41.709286" lon="2.6927142">
        <time>2022-07-10T15:45:34Z</time>
      </trkpt>
      <trkpt lat="41.709274" lon="2.6927998">
        <time>2022-07-10T15:45:35Z</time>
      </trkpt>
      <trkpt lat="41.709263" lon="2.6928856">
        <time>2022-07-10T15:45:36Z</time>
      </trkpt>
      <trkpt lat="41.70925" lon="2.6929712">
        <time>2022-07-10T15:45:37Z</time>
      </trkpt>
      <trkpt lat="41.70924" lon="2.6930585">
        <time>2022-07-10T15:45:38Z</time>
      </trkpt>
      <trkpt lat="41.70923" lon="2.6931462">
        <time>2022-07-10T15:45:39Z</time>
      </trkpt>
      <trkpt lat="41.70922" lon="2.6932337">
        <time>2022-07-10T15:45:40Z</time>
      </trkpt>
      <trkpt lat="41.70921" lon="2.6933215">
        <time>2022-07-10T15:45:41Z</time>
      </trkpt>
      <trkpt lat="41.7092" lon="2.6934092">
        <time>2022-07-10T15:45:42Z</time>
      </trkpt>
      <trkpt lat="41.709194" lon="2.6934965">
        <time>2022-07-10T15:45:43Z</time>
      </trkpt>
      <trkpt lat="41.709187" lon="2.6935842">
        <time>2022-07-10T15:45:44Z</time>
      </trkpt>
      <trkpt lat="41.70918" lon="2.6936722">
        <time>2022-07-10T15:45:45Z</time>
      </trkpt>
      <trkpt lat="41.70917" lon="2.6937602">
        <time>2022-07-10T15:45:46Z</time>
      </trkpt>
      <trkpt lat="41.709164" lon="2.693848">
        <time>2022-07-10T15:45:47Z</time>
      </trkpt>
      <trkpt lat="41.709156" lon="2.6939352">
        <time>2022-07-10T15:45:48Z</time>
      </trkpt>
      <trkpt lat="41.70915" lon="2.6940222">
        <time>2022-07-10T15:45:49Z</time>
      </trkpt>
      <trkpt lat="41.70914" lon="2.6941082">
        <time>2022-07-10T15:45:50Z</time>
      </trkpt>
      <trkpt lat="41.709133" lon="2.6941934">
        <time>2022-07-10T15:45:51Z</time>
      </trkpt>
      <trkpt lat="41.709126" lon="2.6942794">
        <time>2022-07-10T15:45:52Z</time>
      </trkpt>
      <trkpt lat="41.709118" lon="2.6943645">
        <time>2022-07-10T15:45:53Z</time>
      </trkpt>
      <trkpt lat="41.70911" lon="2.6944482">
        <time>2022-07-10T15:45:54Z</time>
      </trkpt>
      <trkpt lat="41.709103" lon="2.6945305">
        <time>2022-07-10T15:45:55Z</time>
      </trkpt>
      <trkpt lat="41.70909" lon="2.6946118">
        <time>2022-07-10T15:45:56Z</time>
      </trkpt>
      <trkpt lat="41.70908" lon="2.6946929">
        <time>2022-07-10T15:45:57Z</time>
      </trkpt>
      <trkpt lat="41.70907" lon="2.6947732">
        <time>2022-07-10T15:45:58Z</time>
      </trkpt>
      <trkpt lat="41.70905" lon="2.6948524">
        <time>2022-07-10T15:45:59Z</time>
      </trkpt>
      <trkpt lat="41.709034" lon="2.694931">
        <time>2022-07-10T15:46:00Z</time>
      </trkpt>
      <trkpt lat="41.70901" lon="2.6950073">
        <time>2022-07-10T15:46:01Z</time>
      </trkpt>
      <trkpt lat="41.708984" lon="2.6950824">
        <time>2022-07-10T15:46:02Z</time>
      </trkpt>
      <trkpt lat="41.708958" lon="2.6951544">
        <time>2022-07-10T15:46:03Z</time>
      </trkpt>
      <trkpt lat="41.708927" lon="2.6952238">
        <time>2022-07-10T15:46:04Z</time>
      </trkpt>
      <trkpt lat="41.708893" lon="2.6952894">
        <time>2022-07-10T15:46:05Z</time>
      </trkpt>
      <trkpt lat="41.708855" lon="2.695352">
        <time>2022-07-10T15:46:06Z</time>
      </trkpt>
      <trkpt lat="41.708813" lon="2.6954107">
        <time>2022-07-10T15:46:07Z</time>
      </trkpt>
      <trkpt lat="41.70877" lon="2.695465">
        <time>2022-07-10T15:46:08Z</time>
      </trkpt>
      <trkpt lat="41.708725" lon="2.6955194">
        <time>2022-07-10T15:46:09Z</time>
      </trkpt>
      <trkpt lat="41.708683" lon="2.6955674">
        <time>2022-07-10T15:46:10Z</time>
      </trkpt>
      <trkpt lat="41.708637" lon="2.6956127">
        <time>2022-07-10T15:46:11Z</time>
      </trkpt>
      <trkpt lat="41.708595" lon="2.6956558">
        <time>2022-07-10T15:46:12Z</time>
      </trkpt>
      <trkpt lat="41.70855" lon="2.6956968">
        <time>2022-07-10T15:46:13Z</time>
      </trkpt>
      <trkpt lat="41.708508" lon="2.6957366">
        <time>2022-07-10T15:46:14Z</time>
      </trkpt>
      <trkpt lat="41.708466" lon="2.6957765">
        <time>2022-07-10T15:46:15Z</time>
      </trkpt>
      <trkpt lat="41.708385" lon="2.6958497">
        <time>2022-07-10T15:46:17Z</time>
      </trkpt>
      <trkpt lat="41.70831" lon="2.69592">
        <time>2022-07-10T15:46:19Z</time>
      </trkpt>
      <trkpt lat="41.708233" lon="2.6959882">
        <time>2022-07-10T15:46:21Z</time>
      </trkpt>
      <trkpt lat="41.708157" lon="2.6960547">
        <time>2022-07-10T15:46:23Z</time>
      </trkpt>
      <trkpt lat="41.708084" lon="2.69612">
        <time>2022-07-10T15:46:25Z</time>
      </trkpt>
      <trkpt lat="41.70801" lon="2.696185">
        <time>2022-07-10T15:46:27Z</time>
      </trkpt>
      <trkpt lat="41.707943" lon="2.696252">
        <time>2022-07-10T15:46:29Z</time>
      </trkpt>
      <trkpt lat="41.707867" lon="2.6963215">
        <time>2022-07-10T15:46:31Z</time>
      </trkpt>
      <trkpt lat="41.70779" lon="2.6963906">
        <time>2022-07-10T15:46:33Z</time>
      </trkpt>
      <trkpt lat="41.70771" lon="2.6964626">
        <time>2022-07-10T15:46:35Z</time>
      </trkpt>
      <trkpt lat="41.707672" lon="2.6964986">
        <time>2022-07-10T15:46:36Z</time>
      </trkpt>
      <trkpt lat="41.707592" lon="2.6965714">
        <time>2022-07-10T15:46:38Z</time>
      </trkpt>
      <trkpt lat="41.707554" lon="2.696608">
        <time>2022-07-10T15:46:39Z</time>
      </trkpt>
      <trkpt lat="41.707474" lon="2.6966834">
        <time>2022-07-10T15:46:41Z</time>
      </trkpt>
      <trkpt lat="41.707436" lon="2.6967218">
        <time>2022-07-10T15:46:42Z</time>
      </trkpt>
      <trkpt lat="41.707355" lon="2.6967976">
        <time>2022-07-10T15:46:44Z</time>
      </trkpt>
      <trkpt lat="41.707275" lon="2.696874">
        <time>2022-07-10T15:46:46Z</time>
      </trkpt>
      <trkpt lat="41.707237" lon="2.6969116">
        <time>2022-07-10T15:46:47Z</time>
      </trkpt>
      <trkpt lat="41.70716" lon="2.69699">
        <time>2022-07-10T15:46:49Z</time>
      </trkpt>
      <trkpt lat="41.707123" lon="2.69703">
        <time>2022-07-10T15:46:50Z</time>
      </trkpt>
      <trkpt lat="41.70705" lon="2.6971142">
        <time>2022-07-10T15:46:52Z</time>
      </trkpt>
      <trkpt lat="41.707016" lon="2.697159">
        <time>2022-07-10T15:46:53Z</time>
      </trkpt>
      <trkpt lat="41.706947" lon="2.6972516">
        <time>2022-07-10T15:46:55Z</time>
      </trkpt>
      <trkpt lat="41.70688" lon="2.6973479">
        <time>2022-07-10T15:46:57Z</time>
      </trkpt>
      <trkpt lat="41.70681" lon="2.6974447">
        <time>2022-07-10T15:46:59Z</time>
      </trkpt>
      <trkpt lat="41.706745" lon="2.6975436">
        <time>2022-07-10T15:47:01Z</time>
      </trkpt>
      <trkpt lat="41.706684" lon="2.6976457">
        <time>2022-07-10T15:47:03Z</time>
      </trkpt>
      <trkpt lat="41.706654" lon="2.6976976">
        <time>2022-07-10T15:47:04Z</time>
      </trkpt>
      <trkpt lat="41.706596" lon="2.6978">
        <time>2022-07-10T15:47:06Z</time>
      </trkpt>
      <trkpt lat="41.70654" lon="2.697902">
        <time>2022-07-10T15:47:08Z</time>
      </trkpt>
      <trkpt lat="41.70651" lon="2.6979532">
        <time>2022-07-10T15:47:09Z</time>
      </trkpt>
      <trkpt lat="41.70645" lon="2.6980557">
        <time>2022-07-10T15:47:11Z</time>
      </trkpt>
      <trkpt lat="41.706425" lon="2.6981072">
        <time>2022-07-10T15:47:12Z</time>
      </trkpt>
      <trkpt lat="41.706367" lon="2.6982126">
        <time>2022-07-10T15:47:14Z</time>
      </trkpt>
      <trkpt lat="41.70634" lon="2.698266">
        <time>2022-07-10T15:47:15Z</time>
      </trkpt>
      <trkpt lat="41.706287" lon="2.6983743">
        <time>2022-07-10T15:47:17Z</time>
      </trkpt>
      <trkpt lat="41.706257" lon="2.6984293">
        <time>2022-07-10T15:47:18Z</time>
      </trkpt>
      <trkpt lat="41.706203" lon="2.6985393">
        <time>2022-07-10T15:47:20Z</time>
      </trkpt>
      <trkpt lat="41.706146" lon="2.6986513">
        <time>2022-07-10T15:47:22Z</time>
      </trkpt>
      <trkpt lat="41.70612" lon="2.698709">
        <time>2022-07-10T15:47:23Z</time>
      </trkpt>
      <trkpt lat="41.706066" lon="2.698825">
        <time>2022-07-10T15:47:25Z</time>
      </trkpt>
      <trkpt lat="41.70604" lon="2.6988835">
        <time>2022-07-10T15:47:26Z</time>
      </trkpt>
      <trkpt lat="41.705986" lon="2.6990025">
        <time>2022-07-10T15:47:28Z</time>
      </trkpt>
      <trkpt lat="41.705963" lon="2.6990635">
        <time>2022-07-10T15:47:29Z</time>
      </trkpt>
      <trkpt lat="41.70594" lon="2.699126">
        <time>2022-07-10T15:47:30Z</time>
      </trkpt>
      <trkpt lat="41.70589" lon="2.6992478">
        <time>2022-07-10T15:47:32Z</time>
      </trkpt>
      <trkpt lat="41.705864" lon="2.699307">
        <time>2022-07-10T15:47:33Z</time>
      </trkpt>
      <trkpt lat="41.70584" lon="2.699365">
        <time>2022-07-10T15:47:34Z</time>
      </trkpt>
      <trkpt lat="41.705795" lon="2.6994805">
        <time>2022-07-10T15:47:36Z</time>
      </trkpt>
      <trkpt lat="41.705753" lon="2.6995993">
        <time>2022-07-10T15:47:38Z</time>
      </trkpt>
      <trkpt lat="41.705734" lon="2.6996603">
        <time>2022-07-10T15:47:39Z</time>
      </trkpt>
      <trkpt lat="41.705696" lon="2.6997838">
        <time>2022-07-10T15:47:41Z</time>
      </trkpt>
      <trkpt lat="41.70566" lon="2.699908">
        <time>2022-07-10T15:47:43Z</time>
      </trkpt>
      <trkpt lat="41.705643" lon="2.69997">
        <time>2022-07-10T15:47:44Z</time>
      </trkpt>
      <trkpt lat="41.705585" lon="2.700157">
        <time>2022-07-10T15:47:47Z</time>
      </trkpt>
      <trkpt lat="41.70557" lon="2.7002199">
        <time>2022-07-10T15:47:48Z</time>
      </trkpt>
      <trkpt lat="41.705532" lon="2.700346">
        <time>2022-07-10T15:47:50Z</time>
      </trkpt>
      <trkpt lat="41.705513" lon="2.7004087">
        <time>2022-07-10T15:47:51Z</time>
      </trkpt>
      <trkpt lat="41.70548" lon="2.7005332">
        <time>2022-07-10T15:47:53Z</time>
      </trkpt>
      <trkpt lat="41.70544" lon="2.7006588">
        <time>2022-07-10T15:47:55Z</time>
      </trkpt>
      <trkpt lat="41.70542" lon="2.7007208">
        <time>2022-07-10T15:47:56Z</time>
      </trkpt>
      <trkpt lat="41.705383" lon="2.700846">
        <time>2022-07-10T15:47:58Z</time>
      </trkpt>
      <trkpt lat="41.705345" lon="2.7009695">
        <time>2022-07-10T15:48:00Z</time>
      </trkpt>
      <trkpt lat="41.70531" lon="2.7010937">
        <time>2022-07-10T15:48:02Z</time>
      </trkpt>
      <trkpt lat="41.705273" lon="2.701222">
        <time>2022-07-10T15:48:04Z</time>
      </trkpt>
      <trkpt lat="41.705254" lon="2.7012858">
        <time>2022-07-10T15:48:05Z</time>
      </trkpt>
      <trkpt lat="41.70524" lon="2.7013502">
        <time>2022-07-10T15:48:06Z</time>
      </trkpt>
      <trkpt lat="41.705204" lon="2.7014785">
        <time>2022-07-10T15:48:08Z</time>
      </trkpt>
      <trkpt lat="41.705185" lon="2.7015426">
        <time>2022-07-10T15:48:09Z</time>
      </trkpt>
      <trkpt lat="41.705147" lon="2.7016695">
        <time>2022-07-10T15:48:11Z</time>
      </trkpt>
      <trkpt lat="41.705124" lon="2.7017326">
        <time>2022-07-10T15:48:12Z</time>
      </trkpt>
      <trkpt lat="41.705105" lon="2.7017963">
        <time>2022-07-10T15:48:13Z</time>
      </trkpt>
      <trkpt lat="41.705067" lon="2.7019236">
        <time>2022-07-10T15:48:15Z</time>
      </trkpt>
      <trkpt lat="41.705048" lon="2.7019866">
        <time>2022-07-10T15:48:16Z</time>
      </trkpt>
      <trkpt lat="41.70501" lon="2.7021122">
        <time>2022-07-10T15:48:18Z</time>
      </trkpt>
      <trkpt lat="41.704987" lon="2.7021744">
        <time>2022-07-10T15:48:19Z</time>
      </trkpt>
      <trkpt lat="41.704945" lon="2.7022946">
        <time>2022-07-10T15:48:21Z</time>
      </trkpt>
      <trkpt lat="41.704906" lon="2.7024155">
        <time>2022-07-10T15:48:23Z</time>
      </trkpt>
      <trkpt lat="41.704865" lon="2.7025378">
        <time>2022-07-10T15:48:25Z</time>
      </trkpt>
      <trkpt lat="41.704826" lon="2.7026608">
        <time>2022-07-10T15:48:27Z</time>
      </trkpt>
      <trkpt lat="41.704803" lon="2.7027218">
        <time>2022-07-10T15:48:28Z</time>
      </trkpt>
      <trkpt lat="41.704765" lon="2.7028472">
        <time>2022-07-10T15:48:30Z</time>
      </trkpt>
      <trkpt lat="41.70473" lon="2.7029748">
        <time>2022-07-10T15:48:32Z</time>
      </trkpt>
      <trkpt lat="41.704716" lon="2.7030401">
        <time>2022-07-10T15:48:33Z</time>
      </trkpt>
      <trkpt lat="41.70469" lon="2.7031739">
        <time>2022-07-10T15:48:35Z</time>
      </trkpt>
      <trkpt lat="41.704678" lon="2.7032433">
        <time>2022-07-10T15:48:36Z</time>
      </trkpt>
      <trkpt lat="41.704666" lon="2.7033145">
        <time>2022-07-10T15:48:37Z</time>
      </trkpt>
      <trkpt lat="41.704655" lon="2.7033877">
        <time>2022-07-10T15:48:38Z</time>
      </trkpt>
      <trkpt lat="41.704647" lon="2.7034636">
        <time>2022-07-10T15:48:39Z</time>
      </trkpt>
      <trkpt lat="41.70464" lon="2.7035394">
        <time>2022-07-10T15:48:40Z</time>
      </trkpt>
      <trkpt lat="41.70464" lon="2.7036164">
        <time>2022-07-10T15:48:41Z</time>
      </trkpt>
      <trkpt lat="41.704636" lon="2.7036934">
        <time>2022-07-10T15:48:42Z</time>
      </trkpt>
      <trkpt lat="41.70464" lon="2.7037718">
        <time>2022-07-10T15:48:43Z</time>
      </trkpt>
      <trkpt lat="41.704643" lon="2.7038505">
        <time>2022-07-10T15:48:44Z</time>
      </trkpt>
      <trkpt lat="41.704647" lon="2.70393">
        <time>2022-07-10T15:48:45Z</time>
      </trkpt>
      <trkpt lat="41.704655" lon="2.7040098">
        <time>2022-07-10T15:48:46Z</time>
      </trkpt>
      <trkpt lat="41.704662" lon="2.7040899">
        <time>2022-07-10T15:48:47Z</time>
      </trkpt>
      <trkpt lat="41.704674" lon="2.7041698">
        <time>2022-07-10T15:48:48Z</time>
      </trkpt>
      <trkpt lat="41.704685" lon="2.7042484">
        <time>2022-07-10T15:48:49Z</time>
      </trkpt>
      <trkpt lat="41.7047" lon="2.7043269">
        <time>2022-07-10T15:48:50Z</time>
      </trkpt>
      <trkpt lat="41.704716" lon="2.7044039">
        <time>2022-07-10T15:48:51Z</time>
      </trkpt>
      <trkpt lat="41.70473" lon="2.7044764">
        <time>2022-07-10T15:48:52Z</time>
      </trkpt>
      <trkpt lat="41.70475" lon="2.7045505">
        <time>2022-07-10T15:48:53Z</time>
      </trkpt>
      <trkpt lat="41.704765" lon="2.7046258">
        <time>2022-07-10T15:48:54Z</time>
      </trkpt>
      <trkpt lat="41.704784" lon="2.7047064">
        <time>2022-07-10T15:48:55Z</time>
      </trkpt>
      <trkpt lat="41.704803" lon="2.7047853">
        <time>2022-07-10T15:48:56Z</time>
      </trkpt>
      <trkpt lat="41.704823" lon="2.7048635">
        <time>2022-07-10T15:48:57Z</time>
      </trkpt>
      <trkpt lat="41.70484" lon="2.7049358">
        <time>2022-07-10T15:48:58Z</time>
      </trkpt>
      <trkpt lat="41.704857" lon="2.7050097">
        <time>2022-07-10T15:48:59Z</time>
      </trkpt>
      <trkpt lat="41.704876" lon="2.7050908">
        <time>2022-07-10T15:49:00Z</time>
      </trkpt>
      <trkpt lat="41.70489" lon="2.7051713">
        <time>2022-07-10T15:49:01Z</time>
      </trkpt>
      <trkpt lat="41.70492" lon="2.7053347">
        <time>2022-07-10T15:49:03Z</time>
      </trkpt>
      <trkpt lat="41.704933" lon="2.7054167">
        <time>2022-07-10T15:49:04Z</time>
      </trkpt>
      <trkpt lat="41.70494" lon="2.7054994">
        <time>2022-07-10T15:49:05Z</time>
      </trkpt>
      <trkpt lat="41.704945" lon="2.7055829">
        <time>2022-07-10T15:49:06Z</time>
      </trkpt>
      <trkpt lat="41.70495" lon="2.705666">
        <time>2022-07-10T15:49:07Z</time>
      </trkpt>
      <trkpt lat="41.70495" lon="2.7057495">
        <time>2022-07-10T15:49:08Z</time>
      </trkpt>
      <trkpt lat="41.704945" lon="2.705832">
        <time>2022-07-10T15:49:09Z</time>
      </trkpt>
      <trkpt lat="41.704937" lon="2.7059147">
        <time>2022-07-10T15:49:10Z</time>
      </trkpt>
      <trkpt lat="41.70493" lon="2.7059965">
        <time>2022-07-10T15:49:11Z</time>
      </trkpt>
      <trkpt lat="41.704918" lon="2.7060766">
        <time>2022-07-10T15:49:12Z</time>
      </trkpt>
      <trkpt lat="41.704903" lon="2.706157">
        <time>2022-07-10T15:49:13Z</time>
      </trkpt>
      <trkpt lat="41.704887" lon="2.7062366">
        <time>2022-07-10T15:49:14Z</time>
      </trkpt>
      <trkpt lat="41.70487" lon="2.706316">
        <time>2022-07-10T15:49:15Z</time>
      </trkpt>
      <trkpt lat="41.70484" lon="2.706394">
        <time>2022-07-10T15:49:16Z</time>
      </trkpt>
      <trkpt lat="41.70482" lon="2.706471">
        <time>2022-07-10T15:49:17Z</time>
      </trkpt>
      <trkpt lat="41.70479" lon="2.706546">
        <time>2022-07-10T15:49:18Z</time>
      </trkpt>
      <trkpt lat="41.70476" lon="2.7066154">
        <time>2022-07-10T15:49:19Z</time>
      </trkpt>
      <trkpt lat="41.704727" lon="2.706688">
        <time>2022-07-10T15:49:20Z</time>
      </trkpt>
      <trkpt lat="41.704693" lon="2.706758">
        <time>2022-07-10T15:49:21Z</time>
      </trkpt>
      <trkpt lat="41.70466" lon="2.706826">
        <time>2022-07-10T15:49:22Z</time>
      </trkpt>
      <trkpt lat="41.70462" lon="2.706888">
        <time>2022-07-10T15:49:23Z</time>
      </trkpt>
      <trkpt lat="41.704582" lon="2.7069538">
        <time>2022-07-10T15:49:24Z</time>
      </trkpt>
      <trkpt lat="41.704544" lon="2.7070127">
        <time>2022-07-10T15:49:25Z</time>
      </trkpt>
      <trkpt lat="41.704502" lon="2.7070746">
        <time>2022-07-10T15:49:26Z</time>
      </trkpt>
      <trkpt lat="41.704464" lon="2.70713">
        <time>2022-07-10T15:49:27Z</time>
      </trkpt>
      <trkpt lat="41.704422" lon="2.7071853">
        <time>2022-07-10T15:49:28Z</time>
      </trkpt>
      <trkpt lat="41.70438" lon="2.707241">
        <time>2022-07-10T15:49:29Z</time>
      </trkpt>
      <trkpt lat="41.704338" lon="2.7072954">
        <time>2022-07-10T15:49:30Z</time>
      </trkpt>
      <trkpt lat="41.70429" lon="2.7073526">
        <time>2022-07-10T15:49:31Z</time>
      </trkpt>
      <trkpt lat="41.704243" lon="2.707408">
        <time>2022-07-10T15:49:32Z</time>
      </trkpt>
      <trkpt lat="41.7042" lon="2.707459">
        <time>2022-07-10T15:49:33Z</time>
      </trkpt>
      <trkpt lat="41.70416" lon="2.707513">
        <time>2022-07-10T15:49:34Z</time>
      </trkpt>
      <trkpt lat="41.704113" lon="2.707565">
        <time>2022-07-10T15:49:35Z</time>
      </trkpt>
      <trkpt lat="41.70407" lon="2.7076163">
        <time>2022-07-10T15:49:36Z</time>
      </trkpt>
      <trkpt lat="41.70403" lon="2.7076674">
        <time>2022-07-10T15:49:37Z</time>
      </trkpt>
      <trkpt lat="41.703987" lon="2.707718">
        <time>2022-07-10T15:49:38Z</time>
      </trkpt>
      <trkpt lat="41.70394" lon="2.707768">
        <time>2022-07-10T15:49:39Z</time>
      </trkpt>
      <trkpt lat="41.7039" lon="2.7078166">
        <time>2022-07-10T15:49:40Z</time>
      </trkpt>
      <trkpt lat="41.703857" lon="2.7078652">
        <time>2022-07-10T15:49:41Z</time>
      </trkpt>
      <trkpt lat="41.703815" lon="2.7079146">
        <time>2022-07-10T15:49:42Z</time>
      </trkpt>
      <trkpt lat="41.703777" lon="2.7079632">
        <time>2022-07-10T15:49:43Z</time>
      </trkpt>
      <trkpt lat="41.703735" lon="2.7080116">
        <time>2022-07-10T15:49:44Z</time>
      </trkpt>
      <trkpt lat="41.703693" lon="2.7080586">
        <time>2022-07-10T15:49:45Z</time>
      </trkpt>
      <trkpt lat="41.703655" lon="2.7081056">
        <time>2022-07-10T15:49:46Z</time>
      </trkpt>
      <trkpt lat="41.703613" lon="2.7081537">
        <time>2022-07-10T15:49:47Z</time>
      </trkpt>
      <trkpt lat="41.703575" lon="2.708201">
        <time>2022-07-10T15:49:48Z</time>
      </trkpt>
      <trkpt lat="41.703533" lon="2.7082477">
        <time>2022-07-10T15:49:49Z</time>
      </trkpt>
      <trkpt lat="41.703495" lon="2.708294">
        <time>2022-07-10T15:49:50Z</time>
      </trkpt>
      <trkpt lat="41.703453" lon="2.7083404">
        <time>2022-07-10T15:49:51Z</time>
      </trkpt>
      <trkpt lat="41.703415" lon="2.708386">
        <time>2022-07-10T15:49:52Z</time>
      </trkpt>
      <trkpt lat="41.703377" lon="2.7084322">
        <time>2022-07-10T15:49:53Z</time>
      </trkpt>
      <trkpt lat="41.703297" lon="2.708523">
        <time>2022-07-10T15:49:55Z</time>
      </trkpt>
      <trkpt lat="41.70326" lon="2.7085686">
        <time>2022-07-10T15:49:56Z</time>
      </trkpt>
      <trkpt lat="41.703182" lon="2.7086606">
        <time>2022-07-10T15:49:58Z</time>
      </trkpt>
      <trkpt lat="41.703144" lon="2.7087064">
        <time>2022-07-10T15:49:59Z</time>
      </trkpt>
      <trkpt lat="41.70311" lon="2.708752">
        <time>2022-07-10T15:50:00Z</time>
      </trkpt>
      <trkpt lat="41.703033" lon="2.7088423">
        <time>2022-07-10T15:50:02Z</time>
      </trkpt>
      <trkpt lat="41.70296" lon="2.7089317">
        <time>2022-07-10T15:50:04Z</time>
      </trkpt>
      <trkpt lat="41.702885" lon="2.7090206">
        <time>2022-07-10T15:50:06Z</time>
      </trkpt>
      <trkpt lat="41.702812" lon="2.7091088">
        <time>2022-07-10T15:50:08Z</time>
      </trkpt>
      <trkpt lat="41.70274" lon="2.7091947">
        <time>2022-07-10T15:50:10Z</time>
      </trkpt>
      <trkpt lat="41.702663" lon="2.709275">
        <time>2022-07-10T15:50:12Z</time>
      </trkpt>
      <trkpt lat="41.702583" lon="2.709342">
        <time>2022-07-10T15:50:14Z</time>
      </trkpt>
      <trkpt lat="41.70254" lon="2.7093692">
        <time>2022-07-10T15:50:15Z</time>
      </trkpt>
      <trkpt lat="41.70242" lon="2.7094502">
        <time>2022-07-10T15:50:18Z</time>
      </trkpt>
      <trkpt lat="41.70236" lon="2.7095292">
        <time>2022-07-10T15:50:20Z</time>
      </trkpt>
      <trkpt lat="41.70231" lon="2.7096286">
        <time>2022-07-10T15:50:22Z</time>
      </trkpt>
      <trkpt lat="41.702255" lon="2.7097328">
        <time>2022-07-10T15:50:24Z</time>
      </trkpt>
      <trkpt lat="41.70219" lon="2.7098322">
        <time>2022-07-10T15:50:26Z</time>
      </trkpt>
      <trkpt lat="41.702156" lon="2.7098813">
        <time>2022-07-10T15:50:27Z</time>
      </trkpt>
      <trkpt lat="41.70209" lon="2.7099786">
        <time>2022-07-10T15:50:29Z</time>
      </trkpt>
      <trkpt lat="41.70203" lon="2.7100785">
        <time>2022-07-10T15:50:31Z</time>
      </trkpt>
      <trkpt lat="41.701965" lon="2.7101839">
        <time>2022-07-10T15:50:33Z</time>
      </trkpt>
      <trkpt lat="41.701935" lon="2.710238">
        <time>2022-07-10T15:50:34Z</time>
      </trkpt>
      <trkpt lat="41.701904" lon="2.710292">
        <time>2022-07-10T15:50:35Z</time>
      </trkpt>
      <trkpt lat="41.701874" lon="2.7103472">
        <time>2022-07-10T15:50:36Z</time>
      </trkpt>
      <trkpt lat="41.701813" lon="2.7104595">
        <time>2022-07-10T15:50:38Z</time>
      </trkpt>
      <trkpt lat="41.70178" lon="2.7105162">
        <time>2022-07-10T15:50:39Z</time>
      </trkpt>
      <trkpt lat="41.70175" lon="2.7105725">
        <time>2022-07-10T15:50:40Z</time>
      </trkpt>
      <trkpt lat="41.70169" lon="2.710688">
        <time>2022-07-10T15:50:42Z</time>
      </trkpt>
      <trkpt lat="41.70166" lon="2.7107463">
        <time>2022-07-10T15:50:43Z</time>
      </trkpt>
      <trkpt lat="41.701633" lon="2.7108042">
        <time>2022-07-10T15:50:44Z</time>
      </trkpt>
      <trkpt lat="41.701603" lon="2.7108626">
        <time>2022-07-10T15:50:45Z</time>
      </trkpt>
      <trkpt lat="41.70155" lon="2.7109795">
        <time>2022-07-10T15:50:47Z</time>
      </trkpt>
      <trkpt lat="41.701523" lon="2.7110386">
        <time>2022-07-10T15:50:48Z</time>
      </trkpt>
      <trkpt lat="41.7015" lon="2.7110982">
        <time>2022-07-10T15:50:49Z</time>
      </trkpt>
      <trkpt lat="41.70146" lon="2.7112215">
        <time>2022-07-10T15:50:51Z</time>
      </trkpt>
      <trkpt lat="41.701435" lon="2.7113476">
        <time>2022-07-10T15:50:53Z</time>
      </trkpt>
      <trkpt lat="41.701412" lon="2.7114768">
        <time>2022-07-10T15:50:55Z</time>
      </trkpt>
      <trkpt lat="41.701393" lon="2.7116098">
        <time>2022-07-10T15:50:57Z</time>
      </trkpt>
      <trkpt lat="41.70139" lon="2.7116787">
        <time>2022-07-10T15:50:58Z</time>
      </trkpt>
      <trkpt lat="41.70138" lon="2.7118142">
        <time>2022-07-10T15:51:00Z</time>
      </trkpt>
      <trkpt lat="41.701378" lon="2.7118855">
        <time>2022-07-10T15:51:01Z</time>
      </trkpt>
      <trkpt lat="41.701378" lon="2.7119567">
        <time>2022-07-10T15:51:02Z</time>
      </trkpt>
      <trkpt lat="41.70138" lon="2.7120965">
        <time>2022-07-10T15:51:04Z</time>
      </trkpt>
      <trkpt lat="41.70138" lon="2.712169">
        <time>2022-07-10T15:51:05Z</time>
      </trkpt>
      <trkpt lat="41.701378" lon="2.7122395">
        <time>2022-07-10T15:51:06Z</time>
      </trkpt>
      <trkpt lat="41.701378" lon="2.7123065">
        <time>2022-07-10T15:51:07Z</time>
      </trkpt>
      <trkpt lat="41.701378" lon="2.712378">
        <time>2022-07-10T15:51:08Z</time>
      </trkpt>
      <trkpt lat="41.701378" lon="2.7124488">
        <time>2022-07-10T15:51:09Z</time>
      </trkpt>
      <trkpt lat="41.701385" lon="2.7125907">
        <time>2022-07-10T15:51:11Z</time>
      </trkpt>
      <trkpt lat="41.701393" lon="2.7126622">
        <time>2022-07-10T15:51:12Z</time>
      </trkpt>
      <trkpt lat="41.701397" lon="2.7127335">
        <time>2022-07-10T15:51:13Z</time>
      </trkpt>
      <trkpt lat="41.701405" lon="2.712805">
        <time>2022-07-10T15:51:14Z</time>
      </trkpt>
      <trkpt lat="41.70141" lon="2.712877">
        <time>2022-07-10T15:51:15Z</time>
      </trkpt>
      <trkpt lat="41.701416" lon="2.712949">
        <time>2022-07-10T15:51:16Z</time>
      </trkpt>
      <trkpt lat="41.70142" lon="2.713021">
        <time>2022-07-10T15:51:17Z</time>
      </trkpt>
      <trkpt lat="41.701424" lon="2.7130935">
        <time>2022-07-10T15:51:18Z</time>
      </trkpt>
      <trkpt lat="41.70143" lon="2.7131655">
        <time>2022-07-10T15:51:19Z</time>
      </trkpt>
      <trkpt lat="41.701435" lon="2.7132385">
        <time>2022-07-10T15:51:20Z</time>
      </trkpt>
      <trkpt lat="41.70144" lon="2.7133117">
        <time>2022-07-10T15:51:21Z</time>
      </trkpt>
      <trkpt lat="41.701447" lon="2.7133849">
        <time>2022-07-10T15:51:22Z</time>
      </trkpt>
      <trkpt lat="41.70145" lon="2.713459">
        <time>2022-07-10T15:51:23Z</time>
      </trkpt>
      <trkpt lat="41.701454" lon="2.7135348">
        <time>2022-07-10T15:51:24Z</time>
      </trkpt>
      <trkpt lat="41.701454" lon="2.7136104">
        <time>2022-07-10T15:51:25Z</time>
      </trkpt>
      <trkpt lat="41.70146" lon="2.7136858">
        <time>2022-07-10T15:51:26Z</time>
      </trkpt>
      <trkpt lat="41.70146" lon="2.7137613">
        <time>2022-07-10T15:51:27Z</time>
      </trkpt>
      <trkpt lat="41.70147" lon="2.713838">
        <time>2022-07-10T15:51:28Z</time>
      </trkpt>
      <trkpt lat="41.701473" lon="2.7139158">
        <time>2022-07-10T15:51:29Z</time>
      </trkpt>
      <trkpt lat="41.701473" lon="2.7139933">
        <time>2022-07-10T15:51:30Z</time>
      </trkpt>
      <trkpt lat="41.701477" lon="2.7140777">
        <time>2022-07-10T15:51:31Z</time>
      </trkpt>
      <trkpt lat="41.70148" lon="2.7141547">
        <time>2022-07-10T15:51:32Z</time>
      </trkpt>
      <trkpt lat="41.701485" lon="2.7142324">
        <time>2022-07-10T15:51:33Z</time>
      </trkpt>
      <trkpt lat="41.70149" lon="2.7143106">
        <time>2022-07-10T15:51:34Z</time>
      </trkpt>
      <trkpt lat="41.701496" lon="2.7144685">
        <time>2022-07-10T15:51:36Z</time>
      </trkpt>
      <trkpt lat="41.7015" lon="2.7145417">
        <time>2022-07-10T15:51:37Z</time>
      </trkpt>
      <trkpt lat="41.7015" lon="2.7146223">
        <time>2022-07-10T15:51:38Z</time>
      </trkpt>
      <trkpt lat="41.7015" lon="2.7147024">
        <time>2022-07-10T15:51:39Z</time>
      </trkpt>
      <trkpt lat="41.701504" lon="2.7147813">
        <time>2022-07-10T15:51:40Z</time>
      </trkpt>
      <trkpt lat="41.701504" lon="2.71486">
        <time>2022-07-10T15:51:41Z</time>
      </trkpt>
      <trkpt lat="41.701504" lon="2.7149336">
        <time>2022-07-10T15:51:42Z</time>
      </trkpt>
      <trkpt lat="41.7015" lon="2.7150097">
        <time>2022-07-10T15:51:43Z</time>
      </trkpt>
      <trkpt lat="41.7015" lon="2.7150908">
        <time>2022-07-10T15:51:44Z</time>
      </trkpt>
      <trkpt lat="41.7015" lon="2.71517">
        <time>2022-07-10T15:51:45Z</time>
      </trkpt>
      <trkpt lat="41.7015" lon="2.715247">
        <time>2022-07-10T15:51:46Z</time>
      </trkpt>
      <trkpt lat="41.701504" lon="2.7153218">
        <time>2022-07-10T15:51:47Z</time>
      </trkpt>
      <trkpt lat="41.701504" lon="2.7153893">
        <time>2022-07-10T15:51:48Z</time>
      </trkpt>
      <trkpt lat="41.701504" lon="2.7154617">
        <time>2022-07-10T15:51:49Z</time>
      </trkpt>
      <trkpt lat="41.701504" lon="2.715531">
        <time>2022-07-10T15:51:50Z</time>
      </trkpt>
      <trkpt lat="41.7015" lon="2.7155936">
        <time>2022-07-10T15:51:51Z</time>
      </trkpt>
      <trkpt lat="41.701496" lon="2.7157156">
        <time>2022-07-10T15:51:53Z</time>
      </trkpt>
      <trkpt lat="41.701496" lon="2.7158356">
        <time>2022-07-10T15:51:55Z</time>
      </trkpt>
      <trkpt lat="41.7015" lon="2.715945">
        <time>2022-07-10T15:51:57Z</time>
      </trkpt>
      <trkpt lat="41.701504" lon="2.7160563">
        <time>2022-07-10T15:51:59Z</time>
      </trkpt>
      <trkpt lat="41.701504" lon="2.7161663">
        <time>2022-07-10T15:52:01Z</time>
      </trkpt>
      <trkpt lat="41.7015" lon="2.7162826">
        <time>2022-07-10T15:52:03Z</time>
      </trkpt>
      <trkpt lat="41.7015" lon="2.7164083">
        <time>2022-07-10T15:52:05Z</time>
      </trkpt>
      <trkpt lat="41.7015" lon="2.7165227">
        <time>2022-07-10T15:52:07Z</time>
      </trkpt>
      <trkpt lat="41.70151" lon="2.7166326">
        <time>2022-07-10T15:52:09Z</time>
      </trkpt>
      <trkpt lat="41.701523" lon="2.7167397">
        <time>2022-07-10T15:52:11Z</time>
      </trkpt>
      <trkpt lat="41.70153" lon="2.716843">
        <time>2022-07-10T15:52:13Z</time>
      </trkpt>
      <trkpt lat="41.701534" lon="2.7169535">
        <time>2022-07-10T15:52:15Z</time>
      </trkpt>
      <trkpt lat="41.701534" lon="2.717061">
        <time>2022-07-10T15:52:17Z</time>
      </trkpt>
      <trkpt lat="41.70153" lon="2.7171679">
        <time>2022-07-10T15:52:19Z</time>
      </trkpt>
      <trkpt lat="41.70152" lon="2.717272">
        <time>2022-07-10T15:52:21Z</time>
      </trkpt>
      <trkpt lat="41.7015" lon="2.717345">
        <time>2022-07-10T15:52:23Z</time>
      </trkpt>
      <trkpt lat="41.70148" lon="2.7173893">
        <time>2022-07-10T15:52:27Z</time>
      </trkpt>
      <trkpt lat="41.70148" lon="2.7174265">
        <time>2022-07-10T15:54:00Z</time>
      </trkpt>
      <trkpt lat="41.701538" lon="2.7174587">
        <time>2022-07-10T15:54:03Z</time>
      </trkpt>
      <trkpt lat="41.701622" lon="2.7174735">
        <time>2022-07-10T15:54:06Z</time>
      </trkpt>
      <trkpt lat="41.70171" lon="2.7174683">
        <time>2022-07-10T15:54:09Z</time>
      </trkpt>
      <trkpt lat="41.70177" lon="2.7174532">
        <time>2022-07-10T15:54:11Z</time>
      </trkpt>
      <trkpt lat="41.70183" lon="2.7174382">
        <time>2022-07-10T15:54:13Z</time>
      </trkpt>
      <trkpt lat="41.701893" lon="2.7174265">
        <time>2022-07-10T15:54:15Z</time>
      </trkpt>
      <trkpt lat="41.701954" lon="2.7174253">
        <time>2022-07-10T15:54:17Z</time>
      </trkpt>
      <trkpt lat="41.702015" lon="2.717439">
        <time>2022-07-10T15:54:19Z</time>
      </trkpt>
      <trkpt lat="41.702072" lon="2.7174523">
        <time>2022-07-10T15:54:21Z</time>
      </trkpt>
      <trkpt lat="41.70213" lon="2.7174587">
        <time>2022-07-10T15:54:23Z</time>
      </trkpt>
      <trkpt lat="41.702187" lon="2.717463">
        <time>2022-07-10T15:54:25Z</time>
      </trkpt>
      <trkpt lat="41.70225" lon="2.7174668">
        <time>2022-07-10T15:54:27Z</time>
      </trkpt>
      <trkpt lat="41.702324" lon="2.7174723">
        <time>2022-07-10T15:54:29Z</time>
      </trkpt>
      <trkpt lat="41.70239" lon="2.7174823">
        <time>2022-07-10T15:54:31Z</time>
      </trkpt>
      <trkpt lat="41.702454" lon="2.7174892">
        <time>2022-07-10T15:54:33Z</time>
      </trkpt>
      <trkpt lat="41.70253" lon="2.7174969">
        <time>2022-07-10T15:54:35Z</time>
      </trkpt>
      <trkpt lat="41.702602" lon="2.717504">
        <time>2022-07-10T15:54:37Z</time>
      </trkpt>
      <trkpt lat="41.702675" lon="2.717512">
        <time>2022-07-10T15:54:39Z</time>
      </trkpt>
      <trkpt lat="41.702747" lon="2.71752">
        <time>2022-07-10T15:54:41Z</time>
      </trkpt>
      <trkpt lat="41.702824" lon="2.7175283">
        <time>2022-07-10T15:54:43Z</time>
      </trkpt>
      <trkpt lat="41.702908" lon="2.7175343">
        <time>2022-07-10T15:54:45Z</time>
      </trkpt>
      <trkpt lat="41.702988" lon="2.717541">
        <time>2022-07-10T15:54:47Z</time>
      </trkpt>
      <trkpt lat="41.703075" lon="2.7175496">
        <time>2022-07-10T15:54:49Z</time>
      </trkpt>
      <trkpt lat="41.70316" lon="2.7175586">
        <time>2022-07-10T15:54:51Z</time>
      </trkpt>
      <trkpt lat="41.703243" lon="2.7175663">
        <time>2022-07-10T15:54:53Z</time>
      </trkpt>
      <trkpt lat="41.703327" lon="2.717577">
        <time>2022-07-10T15:54:55Z</time>
      </trkpt>
      <trkpt lat="41.703407" lon="2.7175882">
        <time>2022-07-10T15:54:57Z</time>
      </trkpt>
      <trkpt lat="41.703484" lon="2.7176023">
        <time>2022-07-10T15:54:59Z</time>
      </trkpt>
      <trkpt lat="41.70356" lon="2.7176168">
        <time>2022-07-10T15:55:01Z</time>
      </trkpt>
      <trkpt lat="41.703625" lon="2.717634">
        <time>2022-07-10T15:55:03Z</time>
      </trkpt>
      <trkpt lat="41.703682" lon="2.7176628">
        <time>2022-07-10T15:55:05Z</time>
      </trkpt>
      <trkpt lat="41.703735" lon="2.717708">
        <time>2022-07-10T15:55:07Z</time>
      </trkpt>
      <trkpt lat="41.7038" lon="2.7177687">
        <time>2022-07-10T15:55:09Z</time>
      </trkpt>
      <trkpt lat="41.70387" lon="2.7178416">
        <time>2022-07-10T15:55:11Z</time>
      </trkpt>
      <trkpt lat="41.703945" lon="2.7179198">
        <time>2022-07-10T15:55:13Z</time>
      </trkpt>
      <trkpt lat="41.70402" lon="2.7180007">
        <time>2022-07-10T15:55:15Z</time>
      </trkpt>
      <trkpt lat="41.70406" lon="2.718042">
        <time>2022-07-10T15:55:16Z</time>
      </trkpt>
      <trkpt lat="41.704136" lon="2.7181306">
        <time>2022-07-10T15:55:18Z</time>
      </trkpt>
      <trkpt lat="41.704178" lon="2.7181768">
        <time>2022-07-10T15:55:19Z</time>
      </trkpt>
      <trkpt lat="41.704216" lon="2.718223">
        <time>2022-07-10T15:55:20Z</time>
      </trkpt>
      <trkpt lat="41.704258" lon="2.7182703">
        <time>2022-07-10T15:55:21Z</time>
      </trkpt>
      <trkpt lat="41.7043" lon="2.7183175">
        <time>2022-07-10T15:55:22Z</time>
      </trkpt>
      <trkpt lat="41.70434" lon="2.7183652">
        <time>2022-07-10T15:55:23Z</time>
      </trkpt>
      <trkpt lat="41.70438" lon="2.7184126">
        <time>2022-07-10T15:55:24Z</time>
      </trkpt>
      <trkpt lat="41.704422" lon="2.7184584">
        <time>2022-07-10T15:55:25Z</time>
      </trkpt>
      <trkpt lat="41.704506" lon="2.7185488">
        <time>2022-07-10T15:55:27Z</time>
      </trkpt>
      <trkpt lat="41.704582" lon="2.7186341">
        <time>2022-07-10T15:55:29Z</time>
      </trkpt>
      <trkpt lat="41.704624" lon="2.718675">
        <time>2022-07-10T15:55:30Z</time>
      </trkpt>
      <trkpt lat="41.704697" lon="2.718753">
        <time>2022-07-10T15:55:32Z</time>
      </trkpt>
      <trkpt lat="41.70473" lon="2.7187912">
        <time>2022-07-10T15:55:33Z</time>
      </trkpt>
      <trkpt lat="41.7048" lon="2.7188668">
        <time>2022-07-10T15:55:35Z</time>
      </trkpt>
      <trkpt lat="41.704865" lon="2.7189407">
        <time>2022-07-10T15:55:37Z</time>
      </trkpt>
      <trkpt lat="41.704926" lon="2.7190142">
        <time>2022-07-10T15:55:39Z</time>
      </trkpt>
      <trkpt lat="41.704987" lon="2.7190895">
        <time>2022-07-10T15:55:41Z</time>
      </trkpt>
      <trkpt lat="41.70505" lon="2.719164">
        <time>2022-07-10T15:55:43Z</time>
      </trkpt>
      <trkpt lat="41.705116" lon="2.719238">
        <time>2022-07-10T15:55:45Z</time>
      </trkpt>
      <trkpt lat="41.70518" lon="2.7193134">
        <time>2022-07-10T15:55:47Z</time>
      </trkpt>
      <trkpt lat="41.70525" lon="2.7193887">
        <time>2022-07-10T15:55:49Z</time>
      </trkpt>
      <trkpt lat="41.70532" lon="2.7194672">
        <time>2022-07-10T15:55:51Z</time>
      </trkpt>
      <trkpt lat="41.705387" lon="2.7195485">
        <time>2022-07-10T15:55:53Z</time>
      </trkpt>
      <trkpt lat="41.70546" lon="2.7196295">
        <time>2022-07-10T15:55:55Z</time>
      </trkpt>
      <trkpt lat="41.705494" lon="2.7196705">
        <time>2022-07-10T15:55:56Z</time>
      </trkpt>
      <trkpt lat="41.70557" lon="2.7197552">
        <time>2022-07-10T15:55:58Z</time>
      </trkpt>
      <trkpt lat="41.705605" lon="2.7197998">
        <time>2022-07-10T15:55:59Z</time>
      </trkpt>
      <trkpt lat="41.70568" lon="2.7198899">
        <time>2022-07-10T15:56:01Z</time>
      </trkpt>
      <trkpt lat="41.70576" lon="2.7199824">
        <time>2022-07-10T15:56:03Z</time>
      </trkpt>
      <trkpt lat="41.705803" lon="2.72003">
        <time>2022-07-10T15:56:04Z</time>
      </trkpt>
      <trkpt lat="41.70584" lon="2.720078">
        <time>2022-07-10T15:56:05Z</time>
      </trkpt>
      <trkpt lat="41.705883" lon="2.7201254">
        <time>2022-07-10T15:56:06Z</time>
      </trkpt>
      <trkpt lat="41.705925" lon="2.7201734">
        <time>2022-07-10T15:56:07Z</time>
      </trkpt>
      <trkpt lat="41.705967" lon="2.7202218">
        <time>2022-07-10T15:56:08Z</time>
      </trkpt>
      <trkpt lat="41.70601" lon="2.7202704">
        <time>2022-07-10T15:56:09Z</time>
      </trkpt>
      <trkpt lat="41.706055" lon="2.720318">
        <time>2022-07-10T15:56:10Z</time>
      </trkpt>
      <trkpt lat="41.7061" lon="2.7203643">
        <time>2022-07-10T15:56:11Z</time>
      </trkpt>
      <trkpt lat="41.706146" lon="2.7204087">
        <time>2022-07-10T15:56:12Z</time>
      </trkpt>
      <trkpt lat="41.706192" lon="2.720449">
        <time>2022-07-10T15:56:13Z</time>
      </trkpt>
      <trkpt lat="41.706234" lon="2.7204857">
        <time>2022-07-10T15:56:14Z</time>
      </trkpt>
      <trkpt lat="41.706276" lon="2.7205198">
        <time>2022-07-10T15:56:15Z</time>
      </trkpt>
      <trkpt lat="41.706352" lon="2.7205784">
        <time>2022-07-10T15:56:17Z</time>
      </trkpt>
      <trkpt lat="41.706413" lon="2.7206244">
        <time>2022-07-10T15:56:19Z</time>
      </trkpt>
      <trkpt lat="41.706467" lon="2.720658">
        <time>2022-07-10T15:56:21Z</time>
      </trkpt>
      <trkpt lat="41.70652" lon="2.7206838">
        <time>2022-07-10T15:56:23Z</time>
      </trkpt>
      <trkpt lat="41.706573" lon="2.7207093">
        <time>2022-07-10T15:56:25Z</time>
      </trkpt>
      <trkpt lat="41.706627" lon="2.7207363">
        <time>2022-07-10T15:56:27Z</time>
      </trkpt>
      <trkpt lat="41.706676" lon="2.7207603">
        <time>2022-07-10T15:56:29Z</time>
      </trkpt>
      <trkpt lat="41.706726" lon="2.7207847">
        <time>2022-07-10T15:56:31Z</time>
      </trkpt>
      <trkpt lat="41.706783" lon="2.7208083">
        <time>2022-07-10T15:56:33Z</time>
      </trkpt>
      <trkpt lat="41.706837" lon="2.7208354">
        <time>2022-07-10T15:56:35Z</time>
      </trkpt>
      <trkpt lat="41.70689" lon="2.720859">
        <time>2022-07-10T15:56:37Z</time>
      </trkpt>
      <trkpt lat="41.706947" lon="2.7208836">
        <time>2022-07-10T15:56:39Z</time>
      </trkpt>
      <trkpt lat="41.707005" lon="2.7209067">
        <time>2022-07-10T15:56:41Z</time>
      </trkpt>
      <trkpt lat="41.707115" lon="2.7209535">
        <time>2022-07-10T15:56:44Z</time>
      </trkpt>
      <trkpt lat="41.7072" lon="2.7209938">
        <time>2022-07-10T15:56:46Z</time>
      </trkpt>
      <trkpt lat="41.70729" lon="2.7210414">
        <time>2022-07-10T15:56:48Z</time>
      </trkpt>
      <trkpt lat="41.707394" lon="2.7210927">
        <time>2022-07-10T15:56:50Z</time>
      </trkpt>
      <trkpt lat="41.707447" lon="2.721118">
        <time>2022-07-10T15:56:51Z</time>
      </trkpt>
      <trkpt lat="41.7075" lon="2.721144">
        <time>2022-07-10T15:56:52Z</time>
      </trkpt>
      <trkpt lat="41.707558" lon="2.7211716">
        <time>2022-07-10T15:56:53Z</time>
      </trkpt>
      <trkpt lat="41.70761" lon="2.7212002">
        <time>2022-07-10T15:56:54Z</time>
      </trkpt>
      <trkpt lat="41.707676" lon="2.7212317">
        <time>2022-07-10T15:56:55Z</time>
      </trkpt>
      <trkpt lat="41.707733" lon="2.7212617">
        <time>2022-07-10T15:56:56Z</time>
      </trkpt>
      <trkpt lat="41.70779" lon="2.7212932">
        <time>2022-07-10T15:56:57Z</time>
      </trkpt>
      <trkpt lat="41.70785" lon="2.7213254">
        <time>2022-07-10T15:56:58Z</time>
      </trkpt>
      <trkpt lat="41.707912" lon="2.7213583">
        <time>2022-07-10T15:56:59Z</time>
      </trkpt>
      <trkpt lat="41.707977" lon="2.7213943">
        <time>2022-07-10T15:57:00Z</time>
      </trkpt>
      <trkpt lat="41.708035" lon="2.721432">
        <time>2022-07-10T15:57:01Z</time>
      </trkpt>
      <trkpt lat="41.708088" lon="2.721476">
        <time>2022-07-10T15:57:02Z</time>
      </trkpt>
      <trkpt lat="41.70814" lon="2.7215273">
        <time>2022-07-10T15:57:03Z</time>
      </trkpt>
      <trkpt lat="41.708183" lon="2.721586">
        <time>2022-07-10T15:57:04Z</time>
      </trkpt>
      <trkpt lat="41.708218" lon="2.7216523">
        <time>2022-07-10T15:57:05Z</time>
      </trkpt>
      <trkpt lat="41.708244" lon="2.72173">
        <time>2022-07-10T15:57:06Z</time>
      </trkpt>
      <trkpt lat="41.70826" lon="2.7218106">
        <time>2022-07-10T15:57:07Z</time>
      </trkpt>
      <trkpt lat="41.708267" lon="2.7218933">
        <time>2022-07-10T15:57:08Z</time>
      </trkpt>
      <trkpt lat="41.708263" lon="2.7219763">
        <time>2022-07-10T15:57:09Z</time>
      </trkpt>
      <trkpt lat="41.708256" lon="2.7220592">
        <time>2022-07-10T15:57:10Z</time>
      </trkpt>
      <trkpt lat="41.708244" lon="2.7221413">
        <time>2022-07-10T15:57:11Z</time>
      </trkpt>
      <trkpt lat="41.70823" lon="2.7222233">
        <time>2022-07-10T15:57:12Z</time>
      </trkpt>
      <trkpt lat="41.708214" lon="2.7223048">
        <time>2022-07-10T15:57:13Z</time>
      </trkpt>
      <trkpt lat="41.7082" lon="2.7223864">
        <time>2022-07-10T15:57:14Z</time>
      </trkpt>
      <trkpt lat="41.70818" lon="2.722466">
        <time>2022-07-10T15:57:15Z</time>
      </trkpt>
      <trkpt lat="41.708164" lon="2.7225447">
        <time>2022-07-10T15:57:16Z</time>
      </trkpt>
      <trkpt lat="41.70815" lon="2.7226233">
        <time>2022-07-10T15:57:17Z</time>
      </trkpt>
      <trkpt lat="41.70813" lon="2.7227073">
        <time>2022-07-10T15:57:18Z</time>
      </trkpt>
      <trkpt lat="41.708115" lon="2.7227845">
        <time>2022-07-10T15:57:19Z</time>
      </trkpt>
      <trkpt lat="41.708103" lon="2.7228572">
        <time>2022-07-10T15:57:20Z</time>
      </trkpt>
      <trkpt lat="41.708088" lon="2.7229307">
        <time>2022-07-10T15:57:21Z</time>
      </trkpt>
      <trkpt lat="41.70807" lon="2.7230089">
        <time>2022-07-10T15:57:22Z</time>
      </trkpt>
      <trkpt lat="41.708054" lon="2.7230802">
        <time>2022-07-10T15:57:23Z</time>
      </trkpt>
      <trkpt lat="41.70804" lon="2.7231514">
        <time>2022-07-10T15:57:24Z</time>
      </trkpt>
      <trkpt lat="41.708023" lon="2.7232273">
        <time>2022-07-10T15:57:25Z</time>
      </trkpt>
      <trkpt lat="41.708008" lon="2.7233005">
        <time>2022-07-10T15:57:26Z</time>
      </trkpt>
      <trkpt lat="41.707996" lon="2.7233686">
        <time>2022-07-10T15:57:27Z</time>
      </trkpt>
      <trkpt lat="41.707966" lon="2.7235093">
        <time>2022-07-10T15:57:29Z</time>
      </trkpt>
      <trkpt lat="41.70795" lon="2.7235801">
        <time>2022-07-10T15:57:30Z</time>
      </trkpt>
      <trkpt lat="41.707935" lon="2.7236516">
        <time>2022-07-10T15:57:31Z</time>
      </trkpt>
      <trkpt lat="41.70792" lon="2.7237217">
        <time>2022-07-10T15:57:32Z</time>
      </trkpt>
      <trkpt lat="41.707905" lon="2.723792">
        <time>2022-07-10T15:57:33Z</time>
      </trkpt>
      <trkpt lat="41.70789" lon="2.723862">
        <time>2022-07-10T15:57:34Z</time>
      </trkpt>
      <trkpt lat="41.70787" lon="2.7239308">
        <time>2022-07-10T15:57:35Z</time>
      </trkpt>
      <trkpt lat="41.707855" lon="2.7240002">
        <time>2022-07-10T15:57:36Z</time>
      </trkpt>
      <trkpt lat="41.707836" lon="2.7240689">
        <time>2022-07-10T15:57:37Z</time>
      </trkpt>
      <trkpt lat="41.70782" lon="2.724137">
        <time>2022-07-10T15:57:38Z</time>
      </trkpt>
      <trkpt lat="41.7078" lon="2.724209">
        <time>2022-07-10T15:57:39Z</time>
      </trkpt>
      <trkpt lat="41.707787" lon="2.7242777">
        <time>2022-07-10T15:57:40Z</time>
      </trkpt>
      <trkpt lat="41.707767" lon="2.7243454">
        <time>2022-07-10T15:57:41Z</time>
      </trkpt>
      <trkpt lat="41.707752" lon="2.7244124">
        <time>2022-07-10T15:57:42Z</time>
      </trkpt>
      <trkpt lat="41.70772" lon="2.724539">
        <time>2022-07-10T15:57:44Z</time>
      </trkpt>
      <trkpt lat="41.707687" lon="2.7246678">
        <time>2022-07-10T15:57:46Z</time>
      </trkpt>
      <trkpt lat="41.707672" lon="2.7247262">
        <time>2022-07-10T15:57:47Z</time>
      </trkpt>
      <trkpt lat="41.707645" lon="2.7248447">
        <time>2022-07-10T15:57:49Z</time>
      </trkpt>
      <trkpt lat="41.707615" lon="2.7249658">
        <time>2022-07-10T15:57:51Z</time>
      </trkpt>
      <trkpt lat="41.70758" lon="2.7250857">
        <time>2022-07-10T15:57:53Z</time>
      </trkpt>
      <trkpt lat="41.707565" lon="2.7251427">
        <time>2022-07-10T15:57:54Z</time>
      </trkpt>
      <trkpt lat="41.707527" lon="2.7252612">
        <time>2022-07-10T15:57:56Z</time>
      </trkpt>
      <trkpt lat="41.707485" lon="2.7253742">
        <time>2022-07-10T15:57:58Z</time>
      </trkpt>
      <trkpt lat="41.707443" lon="2.7254865">
        <time>2022-07-10T15:58:00Z</time>
      </trkpt>
      <trkpt lat="41.7074" lon="2.7255964">
        <time>2022-07-10T15:58:02Z</time>
      </trkpt>
      <trkpt lat="41.70738" lon="2.7256505">
        <time>2022-07-10T15:58:03Z</time>
      </trkpt>
      <trkpt lat="41.70733" lon="2.7257595">
        <time>2022-07-10T15:58:05Z</time>
      </trkpt>
      <trkpt lat="41.707275" lon="2.7258637">
        <time>2022-07-10T15:58:07Z</time>
      </trkpt>
      <trkpt lat="41.707226" lon="2.7259612">
        <time>2022-07-10T15:58:09Z</time>
      </trkpt>
      <trkpt lat="41.707165" lon="2.7260592">
        <time>2022-07-10T15:58:11Z</time>
      </trkpt>
      <trkpt lat="41.707104" lon="2.7261531">
        <time>2022-07-10T15:58:13Z</time>
      </trkpt>
      <trkpt lat="41.70704" lon="2.726253">
        <time>2022-07-10T15:58:15Z</time>
      </trkpt>
      <trkpt lat="41.707" lon="2.7262988">
        <time>2022-07-10T15:58:16Z</time>
      </trkpt>
      <trkpt lat="41.70693" lon="2.726395">
        <time>2022-07-10T15:58:18Z</time>
      </trkpt>
      <trkpt lat="41.706894" lon="2.7264464">
        <time>2022-07-10T15:58:19Z</time>
      </trkpt>
      <trkpt lat="41.706856" lon="2.7264965">
        <time>2022-07-10T15:58:20Z</time>
      </trkpt>
      <trkpt lat="41.70682" lon="2.7265453">
        <time>2022-07-10T15:58:21Z</time>
      </trkpt>
      <trkpt lat="41.706783" lon="2.7265954">
        <time>2022-07-10T15:58:22Z</time>
      </trkpt>
      <trkpt lat="41.706745" lon="2.7266455">
        <time>2022-07-10T15:58:23Z</time>
      </trkpt>
      <trkpt lat="41.706673" lon="2.7267447">
        <time>2022-07-10T15:58:25Z</time>
      </trkpt>
      <trkpt lat="41.706635" lon="2.7267964">
        <time>2022-07-10T15:58:26Z</time>
      </trkpt>
      <trkpt lat="41.706596" lon="2.7268488">
        <time>2022-07-10T15:58:27Z</time>
      </trkpt>
      <trkpt lat="41.70656" lon="2.7269015">
        <time>2022-07-10T15:58:28Z</time>
      </trkpt>
      <trkpt lat="41.70652" lon="2.7269545">
        <time>2022-07-10T15:58:29Z</time>
      </trkpt>
      <trkpt lat="41.706482" lon="2.7270067">
        <time>2022-07-10T15:58:30Z</time>
      </trkpt>
      <trkpt lat="41.706444" lon="2.7270594">
        <time>2022-07-10T15:58:31Z</time>
      </trkpt>
      <trkpt lat="41.706406" lon="2.7271123">
        <time>2022-07-10T15:58:32Z</time>
      </trkpt>
      <trkpt lat="41.706367" lon="2.727165">
        <time>2022-07-10T15:58:33Z</time>
      </trkpt>
      <trkpt lat="41.70633" lon="2.727217">
        <time>2022-07-10T15:58:34Z</time>
      </trkpt>
      <trkpt lat="41.706287" lon="2.7272696">
        <time>2022-07-10T15:58:35Z</time>
      </trkpt>
      <trkpt lat="41.70625" lon="2.7273214">
        <time>2022-07-10T15:58:36Z</time>
      </trkpt>
      <trkpt lat="41.70621" lon="2.7273738">
        <time>2022-07-10T15:58:37Z</time>
      </trkpt>
      <trkpt lat="41.70617" lon="2.7274263">
        <time>2022-07-10T15:58:38Z</time>
      </trkpt>
      <trkpt lat="41.706127" lon="2.7274797">
        <time>2022-07-10T15:58:39Z</time>
      </trkpt>
      <trkpt lat="41.70609" lon="2.727533">
        <time>2022-07-10T15:58:40Z</time>
      </trkpt>
      <trkpt lat="41.70605" lon="2.727587">
        <time>2022-07-10T15:58:41Z</time>
      </trkpt>
      <trkpt lat="41.706013" lon="2.7276413">
        <time>2022-07-10T15:58:42Z</time>
      </trkpt>
      <trkpt lat="41.705975" lon="2.7276947">
        <time>2022-07-10T15:58:43Z</time>
      </trkpt>
      <trkpt lat="41.705933" lon="2.7277486">
        <time>2022-07-10T15:58:44Z</time>
      </trkpt>
      <trkpt lat="41.705894" lon="2.7278035">
        <time>2022-07-10T15:58:45Z</time>
      </trkpt>
      <trkpt lat="41.705853" lon="2.7278574">
        <time>2022-07-10T15:58:46Z</time>
      </trkpt>
      <trkpt lat="41.705814" lon="2.7279103">
        <time>2022-07-10T15:58:47Z</time>
      </trkpt>
      <trkpt lat="41.705772" lon="2.7279637">
        <time>2022-07-10T15:58:48Z</time>
      </trkpt>
      <trkpt lat="41.70573" lon="2.7280157">
        <time>2022-07-10T15:58:49Z</time>
      </trkpt>
      <trkpt lat="41.705692" lon="2.728067">
        <time>2022-07-10T15:58:50Z</time>
      </trkpt>
      <trkpt lat="41.705654" lon="2.7281187">
        <time>2022-07-10T15:58:51Z</time>
      </trkpt>
      <trkpt lat="41.705616" lon="2.7281697">
        <time>2022-07-10T15:58:52Z</time>
      </trkpt>
      <trkpt lat="41.705578" lon="2.7282197">
        <time>2022-07-10T15:58:53Z</time>
      </trkpt>
      <trkpt lat="41.705544" lon="2.7282693">
        <time>2022-07-10T15:58:54Z</time>
      </trkpt>
      <trkpt lat="41.705467" lon="2.728369">
        <time>2022-07-10T15:58:56Z</time>
      </trkpt>
      <trkpt lat="41.705433" lon="2.7284157">
        <time>2022-07-10T15:58:57Z</time>
      </trkpt>
      <trkpt lat="41.705395" lon="2.728467">
        <time>2022-07-10T15:58:58Z</time>
      </trkpt>
      <trkpt lat="41.705357" lon="2.7285173">
        <time>2022-07-10T15:58:59Z</time>
      </trkpt>
      <trkpt lat="41.705288" lon="2.7286146">
        <time>2022-07-10T15:59:01Z</time>
      </trkpt>
      <trkpt lat="41.70525" lon="2.728666">
        <time>2022-07-10T15:59:02Z</time>
      </trkpt>
      <trkpt lat="41.705215" lon="2.7287133">
        <time>2022-07-10T15:59:03Z</time>
      </trkpt>
      <trkpt lat="41.70514" lon="2.7288167">
        <time>2022-07-10T15:59:05Z</time>
      </trkpt>
      <trkpt lat="41.7051" lon="2.7288675">
        <time>2022-07-10T15:59:06Z</time>
      </trkpt>
      <trkpt lat="41.705063" lon="2.7289157">
        <time>2022-07-10T15:59:07Z</time>
      </trkpt>
      <trkpt lat="41.70503" lon="2.7289639">
        <time>2022-07-10T15:59:08Z</time>
      </trkpt>
      <trkpt lat="41.70499" lon="2.729016">
        <time>2022-07-10T15:59:09Z</time>
      </trkpt>
      <trkpt lat="41.704952" lon="2.7290673">
        <time>2022-07-10T15:59:10Z</time>
      </trkpt>
      <trkpt lat="41.70491" lon="2.7291186">
        <time>2022-07-10T15:59:11Z</time>
      </trkpt>
      <trkpt lat="41.704876" lon="2.7291677">
        <time>2022-07-10T15:59:12Z</time>
      </trkpt>
      <trkpt lat="41.704838" lon="2.7292166">
        <time>2022-07-10T15:59:13Z</time>
      </trkpt>
      <trkpt lat="41.704765" lon="2.729318">
        <time>2022-07-10T15:59:15Z</time>
      </trkpt>
      <trkpt lat="41.704727" lon="2.729368">
        <time>2022-07-10T15:59:16Z</time>
      </trkpt>
      <trkpt lat="41.704693" lon="2.7294152">
        <time>2022-07-10T15:59:17Z</time>
      </trkpt>
      <trkpt lat="41.70462" lon="2.7295134">
        <time>2022-07-10T15:59:19Z</time>
      </trkpt>
      <trkpt lat="41.704548" lon="2.7296135">
        <time>2022-07-10T15:59:21Z</time>
      </trkpt>
      <trkpt lat="41.704483" lon="2.7297013">
        <time>2022-07-10T15:59:23Z</time>
      </trkpt>
      <trkpt lat="41.70442" lon="2.729786">
        <time>2022-07-10T15:59:25Z</time>
      </trkpt>
      <trkpt lat="41.704353" lon="2.7298687">
        <time>2022-07-10T15:59:27Z</time>
      </trkpt>
      <trkpt lat="41.704296" lon="2.7299497">
        <time>2022-07-10T15:59:29Z</time>
      </trkpt>
      <trkpt lat="41.70424" lon="2.730028">
        <time>2022-07-10T15:59:31Z</time>
      </trkpt>
      <trkpt lat="41.704178" lon="2.7301035">
        <time>2022-07-10T15:59:33Z</time>
      </trkpt>
      <trkpt lat="41.704117" lon="2.7301767">
        <time>2022-07-10T15:59:35Z</time>
      </trkpt>
      <trkpt lat="41.704056" lon="2.7302458">
        <time>2022-07-10T15:59:37Z</time>
      </trkpt>
      <trkpt lat="41.704" lon="2.7303119">
        <time>2022-07-10T15:59:39Z</time>
      </trkpt>
      <trkpt lat="41.70394" lon="2.730377">
        <time>2022-07-10T15:59:41Z</time>
      </trkpt>
      <trkpt lat="41.703884" lon="2.7304425">
        <time>2022-07-10T15:59:43Z</time>
      </trkpt>
      <trkpt lat="41.70383" lon="2.7305033">
        <time>2022-07-10T15:59:45Z</time>
      </trkpt>
      <trkpt lat="41.70377" lon="2.7305539">
        <time>2022-07-10T15:59:47Z</time>
      </trkpt>
      <trkpt lat="41.70372" lon="2.7305887">
        <time>2022-07-10T15:59:49Z</time>
      </trkpt>
      <trkpt lat="41.703682" lon="2.7306108">
        <time>2022-07-10T15:59:51Z</time>
      </trkpt>
      <trkpt lat="41.70363" lon="2.7306342">
        <time>2022-07-10T15:59:55Z</time>
      </trkpt>
      <trkpt lat="41.703568" lon="2.7306716">
        <time>2022-07-10T15:59:59Z</time>
      </trkpt>
      <trkpt lat="41.7035" lon="2.7307346">
        <time>2022-07-10T16:00:02Z</time>
      </trkpt>
      <trkpt lat="41.703453" lon="2.7308023">
        <time>2022-07-10T16:00:04Z</time>
      </trkpt>
      <trkpt lat="41.70342" lon="2.730882">
        <time>2022-07-10T16:00:06Z</time>
      </trkpt>
      <trkpt lat="41.703396" lon="2.7309678">
        <time>2022-07-10T16:00:08Z</time>
      </trkpt>
      <trkpt lat="41.70338" lon="2.7310612">
        <time>2022-07-10T16:00:10Z</time>
      </trkpt>
      <trkpt lat="41.703358" lon="2.7311523">
        <time>2022-07-10T16:00:12Z</time>
      </trkpt>
      <trkpt lat="41.703316" lon="2.7312279">
        <time>2022-07-10T16:00:14Z</time>
      </trkpt>
      <trkpt lat="41.703266" lon="2.7312872">
        <time>2022-07-10T16:00:16Z</time>
      </trkpt>
      <trkpt lat="41.703213" lon="2.7313383">
        <time>2022-07-10T16:00:18Z</time>
      </trkpt>
      <trkpt lat="41.703167" lon="2.7313902">
        <time>2022-07-10T16:00:20Z</time>
      </trkpt>
      <trkpt lat="41.703125" lon="2.7314463">
        <time>2022-07-10T16:00:22Z</time>
      </trkpt>
      <trkpt lat="41.703083" lon="2.7315025">
        <time>2022-07-10T16:00:24Z</time>
      </trkpt>
      <trkpt lat="41.703045" lon="2.7315612">
        <time>2022-07-10T16:00:26Z</time>
      </trkpt>
      <trkpt lat="41.70301" lon="2.7316213">
        <time>2022-07-10T16:00:28Z</time>
      </trkpt>
      <trkpt lat="41.702976" lon="2.7316794">
        <time>2022-07-10T16:00:30Z</time>
      </trkpt>
      <trkpt lat="41.702938" lon="2.731736">
        <time>2022-07-10T16:00:32Z</time>
      </trkpt>
      <trkpt lat="41.702904" lon="2.73179">
        <time>2022-07-10T16:00:34Z</time>
      </trkpt>
      <trkpt lat="41.702866" lon="2.731844">
        <time>2022-07-10T16:00:36Z</time>
      </trkpt>
      <trkpt lat="41.702827" lon="2.7318976">
        <time>2022-07-10T16:00:38Z</time>
      </trkpt>
      <trkpt lat="41.702785" lon="2.7319524">
        <time>2022-07-10T16:00:40Z</time>
      </trkpt>
      <trkpt lat="41.702744" lon="2.7320075">
        <time>2022-07-10T16:00:42Z</time>
      </trkpt>
      <trkpt lat="41.7027" lon="2.732063">
        <time>2022-07-10T16:00:44Z</time>
      </trkpt>
      <trkpt lat="41.70266" lon="2.7321174">
        <time>2022-07-10T16:00:46Z</time>
      </trkpt>
      <trkpt lat="41.702618" lon="2.7321706">
        <time>2022-07-10T16:00:48Z</time>
      </trkpt>
      <trkpt lat="41.70258" lon="2.732223">
        <time>2022-07-10T16:00:50Z</time>
      </trkpt>
      <trkpt lat="41.702538" lon="2.7322779">
        <time>2022-07-10T16:00:52Z</time>
      </trkpt>
      <trkpt lat="41.7025" lon="2.7323284">
        <time>2022-07-10T16:00:54Z</time>
      </trkpt>
      <trkpt lat="41.702465" lon="2.7323818">
        <time>2022-07-10T16:00:56Z</time>
      </trkpt>
      <trkpt lat="41.702427" lon="2.732432">
        <time>2022-07-10T16:00:58Z</time>
      </trkpt>
      <trkpt lat="41.702385" lon="2.7324834">
        <time>2022-07-10T16:01:00Z</time>
      </trkpt>
      <trkpt lat="41.702347" lon="2.7325342">
        <time>2022-07-10T16:01:02Z</time>
      </trkpt>
      <trkpt lat="41.702305" lon="2.7325835">
        <time>2022-07-10T16:01:04Z</time>
      </trkpt>
      <trkpt lat="41.702263" lon="2.7326334">
        <time>2022-07-10T16:01:06Z</time>
      </trkpt>
      <trkpt lat="41.702225" lon="2.7326832">
        <time>2022-07-10T16:01:08Z</time>
      </trkpt>
      <trkpt lat="41.70219" lon="2.7327344">
        <time>2022-07-10T16:01:10Z</time>
      </trkpt>
      <trkpt lat="41.702152" lon="2.7327867">
        <time>2022-07-10T16:01:12Z</time>
      </trkpt>
      <trkpt lat="41.702118" lon="2.7328382">
        <time>2022-07-10T16:01:14Z</time>
      </trkpt>
      <trkpt lat="41.702076" lon="2.732891">
        <time>2022-07-10T16:01:16Z</time>
      </trkpt>
      <trkpt lat="41.702038" lon="2.7329514">
        <time>2022-07-10T16:01:18Z</time>
      </trkpt>
      <trkpt lat="41.701992" lon="2.7330143">
        <time>2022-07-10T16:01:20Z</time>
      </trkpt>
      <trkpt lat="41.70195" lon="2.7330794">
        <time>2022-07-10T16:01:22Z</time>
      </trkpt>
      <trkpt lat="41.701904" lon="2.733144">
        <time>2022-07-10T16:01:24Z</time>
      </trkpt>
      <trkpt lat="41.701855" lon="2.7332141">
        <time>2022-07-10T16:01:26Z</time>
      </trkpt>
      <trkpt lat="41.701805" lon="2.7332895">
        <time>2022-07-10T16:01:28Z</time>
      </trkpt>
      <trkpt lat="41.70175" lon="2.7333732">
        <time>2022-07-10T16:01:30Z</time>
      </trkpt>
      <trkpt lat="41.701694" lon="2.733463">
        <time>2022-07-10T16:01:32Z</time>
      </trkpt>
      <trkpt lat="41.70164" lon="2.7335618">
        <time>2022-07-10T16:01:34Z</time>
      </trkpt>
      <trkpt lat="41.70161" lon="2.7336144">
        <time>2022-07-10T16:01:35Z</time>
      </trkpt>
      <trkpt lat="41.701557" lon="2.7337294">
        <time>2022-07-10T16:01:37Z</time>
      </trkpt>
      <trkpt lat="41.7015" lon="2.7338564">
        <time>2022-07-10T16:01:39Z</time>
      </trkpt>
      <trkpt lat="41.70147" lon="2.733925">
        <time>2022-07-10T16:01:40Z</time>
      </trkpt>
      <trkpt lat="41.701443" lon="2.7339973">
        <time>2022-07-10T16:01:41Z</time>
      </trkpt>
      <trkpt lat="41.701416" lon="2.7340734">
        <time>2022-07-10T16:01:42Z</time>
      </trkpt>
      <trkpt lat="41.70139" lon="2.734152">
        <time>2022-07-10T16:01:43Z</time>
      </trkpt>
      <trkpt lat="41.701363" lon="2.7342348">
        <time>2022-07-10T16:01:44Z</time>
      </trkpt>
      <trkpt lat="41.701336" lon="2.7343204">
        <time>2022-07-10T16:01:45Z</time>
      </trkpt>
      <trkpt lat="41.70131" lon="2.7344077">
        <time>2022-07-10T16:01:46Z</time>
      </trkpt>
      <trkpt lat="41.701283" lon="2.7344978">
        <time>2022-07-10T16:01:47Z</time>
      </trkpt>
      <trkpt lat="41.701252" lon="2.73459">
        <time>2022-07-10T16:01:48Z</time>
      </trkpt>
      <trkpt lat="41.701225" lon="2.734684">
        <time>2022-07-10T16:01:49Z</time>
      </trkpt>
      <trkpt lat="41.701195" lon="2.7347875">
        <time>2022-07-10T16:01:50Z</time>
      </trkpt>
      <trkpt lat="41.70117" lon="2.7348847">
        <time>2022-07-10T16:01:51Z</time>
      </trkpt>
      <trkpt lat="41.701145" lon="2.7349844">
        <time>2022-07-10T16:01:52Z</time>
      </trkpt>
      <trkpt lat="41.701088" lon="2.7351956">
        <time>2022-07-10T16:01:54Z</time>
      </trkpt>
      <trkpt lat="41.70106" lon="2.7352974">
        <time>2022-07-10T16:01:55Z</time>
      </trkpt>
      <trkpt lat="41.701035" lon="2.7354004">
        <time>2022-07-10T16:01:56Z</time>
      </trkpt>
      <trkpt lat="41.701008" lon="2.7355053">
        <time>2022-07-10T16:01:57Z</time>
      </trkpt>
      <trkpt lat="41.700977" lon="2.735612">
        <time>2022-07-10T16:01:58Z</time>
      </trkpt>
      <trkpt lat="41.700947" lon="2.7357254">
        <time>2022-07-10T16:01:59Z</time>
      </trkpt>
      <trkpt lat="41.700916" lon="2.7358356">
        <time>2022-07-10T16:02:00Z</time>
      </trkpt>
      <trkpt lat="41.70089" lon="2.735938">
        <time>2022-07-10T16:02:01Z</time>
      </trkpt>
      <trkpt lat="41.700855" lon="2.736048">
        <time>2022-07-10T16:02:02Z</time>
      </trkpt>
      <trkpt lat="41.70083" lon="2.7361503">
        <time>2022-07-10T16:02:03Z</time>
      </trkpt>
      <trkpt lat="41.7008" lon="2.7362542">
        <time>2022-07-10T16:02:04Z</time>
      </trkpt>
      <trkpt lat="41.70077" lon="2.736365">
        <time>2022-07-10T16:02:05Z</time>
      </trkpt>
      <trkpt lat="41.70074" lon="2.736467">
        <time>2022-07-10T16:02:06Z</time>
      </trkpt>
      <trkpt lat="41.700714" lon="2.7365696">
        <time>2022-07-10T16:02:07Z</time>
      </trkpt>
      <trkpt lat="41.700684" lon="2.7366717">
        <time>2022-07-10T16:02:08Z</time>
      </trkpt>
      <trkpt lat="41.700657" lon="2.7367716">
        <time>2022-07-10T16:02:09Z</time>
      </trkpt>
      <trkpt lat="41.700626" lon="2.736877">
        <time>2022-07-10T16:02:10Z</time>
      </trkpt>
      <trkpt lat="41.7006" lon="2.7369776">
        <time>2022-07-10T16:02:11Z</time>
      </trkpt>
      <trkpt lat="41.700573" lon="2.737074">
        <time>2022-07-10T16:02:12Z</time>
      </trkpt>
      <trkpt lat="41.700546" lon="2.737161">
        <time>2022-07-10T16:02:13Z</time>
      </trkpt>
      <trkpt lat="41.700523" lon="2.7372465">
        <time>2022-07-10T16:02:14Z</time>
      </trkpt>
      <trkpt lat="41.7005" lon="2.7373316">
        <time>2022-07-10T16:02:15Z</time>
      </trkpt>
      <trkpt lat="41.700474" lon="2.7374146">
        <time>2022-07-10T16:02:16Z</time>
      </trkpt>
      <trkpt lat="41.70045" lon="2.7374964">
        <time>2022-07-10T16:02:17Z</time>
      </trkpt>
      <trkpt lat="41.700428" lon="2.737577">
        <time>2022-07-10T16:02:18Z</time>
      </trkpt>
      <trkpt lat="41.700405" lon="2.7376564">
        <time>2022-07-10T16:02:19Z</time>
      </trkpt>
      <trkpt lat="41.700382" lon="2.7377353">
        <time>2022-07-10T16:02:20Z</time>
      </trkpt>
      <trkpt lat="41.70036" lon="2.737814">
        <time>2022-07-10T16:02:21Z</time>
      </trkpt>
      <trkpt lat="41.700336" lon="2.737892">
        <time>2022-07-10T16:02:22Z</time>
      </trkpt>
      <trkpt lat="41.700314" lon="2.7379692">
        <time>2022-07-10T16:02:23Z</time>
      </trkpt>
      <trkpt lat="41.700294" lon="2.7380457">
        <time>2022-07-10T16:02:24Z</time>
      </trkpt>
      <trkpt lat="41.700275" lon="2.7381215">
        <time>2022-07-10T16:02:25Z</time>
      </trkpt>
      <trkpt lat="41.700253" lon="2.7382026">
        <time>2022-07-10T16:02:26Z</time>
      </trkpt>
      <trkpt lat="41.700233" lon="2.7382822">
        <time>2022-07-10T16:02:27Z</time>
      </trkpt>
      <trkpt lat="41.700214" lon="2.7383559">
        <time>2022-07-10T16:02:28Z</time>
      </trkpt>
      <trkpt lat="41.700195" lon="2.7384295">
        <time>2022-07-10T16:02:29Z</time>
      </trkpt>
      <trkpt lat="41.700176" lon="2.738503">
        <time>2022-07-10T16:02:30Z</time>
      </trkpt>
      <trkpt lat="41.700157" lon="2.7385755">
        <time>2022-07-10T16:02:31Z</time>
      </trkpt>
      <trkpt lat="41.700134" lon="2.7386525">
        <time>2022-07-10T16:02:32Z</time>
      </trkpt>
      <trkpt lat="41.700115" lon="2.7387278">
        <time>2022-07-10T16:02:33Z</time>
      </trkpt>
      <trkpt lat="41.700092" lon="2.738797">
        <time>2022-07-10T16:02:34Z</time>
      </trkpt>
      <trkpt lat="41.700073" lon="2.7388668">
        <time>2022-07-10T16:02:35Z</time>
      </trkpt>
      <trkpt lat="41.700054" lon="2.7389379">
        <time>2022-07-10T16:02:36Z</time>
      </trkpt>
      <trkpt lat="41.700035" lon="2.7390091">
        <time>2022-07-10T16:02:37Z</time>
      </trkpt>
      <trkpt lat="41.700016" lon="2.7390811">
        <time>2022-07-10T16:02:38Z</time>
      </trkpt>
      <trkpt lat="41.699993" lon="2.739158">
        <time>2022-07-10T16:02:39Z</time>
      </trkpt>
      <trkpt lat="41.699974" lon="2.739229">
        <time>2022-07-10T16:02:40Z</time>
      </trkpt>
      <trkpt lat="41.699955" lon="2.7392993">
        <time>2022-07-10T16:02:41Z</time>
      </trkpt>
      <trkpt lat="41.699936" lon="2.7393749">
        <time>2022-07-10T16:02:42Z</time>
      </trkpt>
      <trkpt lat="41.699917" lon="2.7394454">
        <time>2022-07-10T16:02:43Z</time>
      </trkpt>
      <trkpt lat="41.699898" lon="2.7395175">
        <time>2022-07-10T16:02:44Z</time>
      </trkpt>
      <trkpt lat="41.699875" lon="2.739591">
        <time>2022-07-10T16:02:45Z</time>
      </trkpt>
      <trkpt lat="41.699856" lon="2.7396646">
        <time>2022-07-10T16:02:46Z</time>
      </trkpt>
      <trkpt lat="41.699833" lon="2.7397375">
        <time>2022-07-10T16:02:47Z</time>
      </trkpt>
      <trkpt lat="41.69981" lon="2.7398138">
        <time>2022-07-10T16:02:48Z</time>
      </trkpt>
      <trkpt lat="41.699787" lon="2.7398882">
        <time>2022-07-10T16:02:49Z</time>
      </trkpt>
      <trkpt lat="41.699768" lon="2.739957">
        <time>2022-07-10T16:02:50Z</time>
      </trkpt>
      <trkpt lat="41.699745" lon="2.7400272">
        <time>2022-07-10T16:02:51Z</time>
      </trkpt>
      <trkpt lat="41.699726" lon="2.7400975">
        <time>2022-07-10T16:02:52Z</time>
      </trkpt>
      <trkpt lat="41.699707" lon="2.7401671">
        <time>2022-07-10T16:02:53Z</time>
      </trkpt>
      <trkpt lat="41.699688" lon="2.7402377">
        <time>2022-07-10T16:02:54Z</time>
      </trkpt>
      <trkpt lat="41.69967" lon="2.7403128">
        <time>2022-07-10T16:02:55Z</time>
      </trkpt>
      <trkpt lat="41.69965" lon="2.7403824">
        <time>2022-07-10T16:02:56Z</time>
      </trkpt>
      <trkpt lat="41.699627" lon="2.7404525">
        <time>2022-07-10T16:02:57Z</time>
      </trkpt>
      <trkpt lat="41.699604" lon="2.7405221">
        <time>2022-07-10T16:02:58Z</time>
      </trkpt>
      <trkpt lat="41.69958" lon="2.7405968">
        <time>2022-07-10T16:02:59Z</time>
      </trkpt>
      <trkpt lat="41.69956" lon="2.740666">
        <time>2022-07-10T16:03:00Z</time>
      </trkpt>
      <trkpt lat="41.69954" lon="2.7407355">
        <time>2022-07-10T16:03:01Z</time>
      </trkpt>
      <trkpt lat="41.699516" lon="2.740807">
        <time>2022-07-10T16:03:02Z</time>
      </trkpt>
      <trkpt lat="41.699493" lon="2.740879">
        <time>2022-07-10T16:03:03Z</time>
      </trkpt>
      <trkpt lat="41.699467" lon="2.7409577">
        <time>2022-07-10T16:03:04Z</time>
      </trkpt>
      <trkpt lat="41.699444" lon="2.7410362">
        <time>2022-07-10T16:03:05Z</time>
      </trkpt>
      <trkpt lat="41.699417" lon="2.7411144">
        <time>2022-07-10T16:03:06Z</time>
      </trkpt>
      <trkpt lat="41.69939" lon="2.741194">
        <time>2022-07-10T16:03:07Z</time>
      </trkpt>
      <trkpt lat="41.699364" lon="2.741274">
        <time>2022-07-10T16:03:08Z</time>
      </trkpt>
      <trkpt lat="41.699333" lon="2.7413547">
        <time>2022-07-10T16:03:09Z</time>
      </trkpt>
      <trkpt lat="41.69928" lon="2.7415159">
        <time>2022-07-10T16:03:11Z</time>
      </trkpt>
      <trkpt lat="41.699253" lon="2.7415957">
        <time>2022-07-10T16:03:12Z</time>
      </trkpt>
      <trkpt lat="41.699223" lon="2.741677">
        <time>2022-07-10T16:03:13Z</time>
      </trkpt>
      <trkpt lat="41.699196" lon="2.7417583">
        <time>2022-07-10T16:03:14Z</time>
      </trkpt>
      <trkpt lat="41.69917" lon="2.7418404">
        <time>2022-07-10T16:03:15Z</time>
      </trkpt>
      <trkpt lat="41.699142" lon="2.7419233">
        <time>2022-07-10T16:03:16Z</time>
      </trkpt>
      <trkpt lat="41.699116" lon="2.7420077">
        <time>2022-07-10T16:03:17Z</time>
      </trkpt>
      <trkpt lat="41.699085" lon="2.742093">
        <time>2022-07-10T16:03:18Z</time>
      </trkpt>
      <trkpt lat="41.699055" lon="2.7421803">
        <time>2022-07-10T16:03:19Z</time>
      </trkpt>
      <trkpt lat="41.699024" lon="2.7422695">
        <time>2022-07-10T16:03:20Z</time>
      </trkpt>
      <trkpt lat="41.698994" lon="2.7423594">
        <time>2022-07-10T16:03:21Z</time>
      </trkpt>
      <trkpt lat="41.698963" lon="2.7424498">
        <time>2022-07-10T16:03:22Z</time>
      </trkpt>
      <trkpt lat="41.69893" lon="2.7425418">
        <time>2022-07-10T16:03:23Z</time>
      </trkpt>
      <trkpt lat="41.6989" lon="2.7426348">
        <time>2022-07-10T16:03:24Z</time>
      </trkpt>
      <trkpt lat="41.698868" lon="2.7427278">
        <time>2022-07-10T16:03:25Z</time>
      </trkpt>
      <trkpt lat="41.698837" lon="2.7428193">
        <time>2022-07-10T16:03:26Z</time>
      </trkpt>
      <trkpt lat="41.698807" lon="2.7429104">
        <time>2022-07-10T16:03:27Z</time>
      </trkpt>
      <trkpt lat="41.698776" lon="2.743">
        <time>2022-07-10T16:03:28Z</time>
      </trkpt>
      <trkpt lat="41.698746" lon="2.743089">
        <time>2022-07-10T16:03:29Z</time>
      </trkpt>
      <trkpt lat="41.69872" lon="2.7431774">
        <time>2022-07-10T16:03:30Z</time>
      </trkpt>
      <trkpt lat="41.69869" lon="2.743264">
        <time>2022-07-10T16:03:31Z</time>
      </trkpt>
      <trkpt lat="41.69866" lon="2.7433498">
        <time>2022-07-10T16:03:32Z</time>
      </trkpt>
      <trkpt lat="41.698635" lon="2.743434">
        <time>2022-07-10T16:03:33Z</time>
      </trkpt>
      <trkpt lat="41.698605" lon="2.743517">
        <time>2022-07-10T16:03:34Z</time>
      </trkpt>
      <trkpt lat="41.698578" lon="2.7435985">
        <time>2022-07-10T16:03:35Z</time>
      </trkpt>
      <trkpt lat="41.69855" lon="2.7436783">
        <time>2022-07-10T16:03:36Z</time>
      </trkpt>
      <trkpt lat="41.698524" lon="2.7437577">
        <time>2022-07-10T16:03:37Z</time>
      </trkpt>
      <trkpt lat="41.6985" lon="2.7438354">
        <time>2022-07-10T16:03:38Z</time>
      </trkpt>
      <trkpt lat="41.698475" lon="2.743913">
        <time>2022-07-10T16:03:39Z</time>
      </trkpt>
      <trkpt lat="41.69845" lon="2.743989">
        <time>2022-07-10T16:03:40Z</time>
      </trkpt>
      <trkpt lat="41.69842" lon="2.7440643">
        <time>2022-07-10T16:03:41Z</time>
      </trkpt>
      <trkpt lat="41.698395" lon="2.7441394">
        <time>2022-07-10T16:03:42Z</time>
      </trkpt>
      <trkpt lat="41.69837" lon="2.744213">
        <time>2022-07-10T16:03:43Z</time>
      </trkpt>
      <trkpt lat="41.698345" lon="2.7442856">
        <time>2022-07-10T16:03:44Z</time>
      </trkpt>
      <trkpt lat="41.69832" lon="2.7443583">
        <time>2022-07-10T16:03:45Z</time>
      </trkpt>
      <trkpt lat="41.69829" lon="2.7444305">
        <time>2022-07-10T16:03:46Z</time>
      </trkpt>
      <trkpt lat="41.69827" lon="2.744502">
        <time>2022-07-10T16:03:47Z</time>
      </trkpt>
      <trkpt lat="41.698246" lon="2.7445729">
        <time>2022-07-10T16:03:48Z</time>
      </trkpt>
      <trkpt lat="41.698223" lon="2.7446437">
        <time>2022-07-10T16:03:49Z</time>
      </trkpt>
      <trkpt lat="41.6982" lon="2.744714">
        <time>2022-07-10T16:03:50Z</time>
      </trkpt>
      <trkpt lat="41.698174" lon="2.7447844">
        <time>2022-07-10T16:03:51Z</time>
      </trkpt>
      <trkpt lat="41.69815" lon="2.744854">
        <time>2022-07-10T16:03:52Z</time>
      </trkpt>
      <trkpt lat="41.698128" lon="2.7449243">
        <time>2022-07-10T16:03:53Z</time>
      </trkpt>
      <trkpt lat="41.6981" lon="2.7449949">
        <time>2022-07-10T16:03:54Z</time>
      </trkpt>
      <trkpt lat="41.69808" lon="2.745065">
        <time>2022-07-10T16:03:55Z</time>
      </trkpt>
      <trkpt lat="41.698055" lon="2.7451339">
        <time>2022-07-10T16:03:56Z</time>
      </trkpt>
      <trkpt lat="41.698032" lon="2.745202">
        <time>2022-07-10T16:03:57Z</time>
      </trkpt>
      <trkpt lat="41.69801" lon="2.7452703">
        <time>2022-07-10T16:03:58Z</time>
      </trkpt>
      <trkpt lat="41.69799" lon="2.745338">
        <time>2022-07-10T16:03:59Z</time>
      </trkpt>
      <trkpt lat="41.697968" lon="2.745406">
        <time>2022-07-10T16:04:00Z</time>
      </trkpt>
      <trkpt lat="41.697945" lon="2.7454734">
        <time>2022-07-10T16:04:01Z</time>
      </trkpt>
      <trkpt lat="41.69792" lon="2.7455406">
        <time>2022-07-10T16:04:02Z</time>
      </trkpt>
      <trkpt lat="41.6979" lon="2.7456076">
        <time>2022-07-10T16:04:03Z</time>
      </trkpt>
      <trkpt lat="41.697876" lon="2.745674">
        <time>2022-07-10T16:04:04Z</time>
      </trkpt>
      <trkpt lat="41.697853" lon="2.74574">
        <time>2022-07-10T16:04:05Z</time>
      </trkpt>
      <trkpt lat="41.69783" lon="2.745805">
        <time>2022-07-10T16:04:06Z</time>
      </trkpt>
      <trkpt lat="41.697807" lon="2.7458696">
        <time>2022-07-10T16:04:07Z</time>
      </trkpt>
      <trkpt lat="41.697784" lon="2.745935">
        <time>2022-07-10T16:04:08Z</time>
      </trkpt>
      <trkpt lat="41.69776" lon="2.7460005">
        <time>2022-07-10T16:04:09Z</time>
      </trkpt>
      <trkpt lat="41.697742" lon="2.7460666">
        <time>2022-07-10T16:04:10Z</time>
      </trkpt>
      <trkpt lat="41.69772" lon="2.7461321">
        <time>2022-07-10T16:04:11Z</time>
      </trkpt>
      <trkpt lat="41.697697" lon="2.7461975">
        <time>2022-07-10T16:04:12Z</time>
      </trkpt>
      <trkpt lat="41.697674" lon="2.7462635">
        <time>2022-07-10T16:04:13Z</time>
      </trkpt>
      <trkpt lat="41.697655" lon="2.7463295">
        <time>2022-07-10T16:04:14Z</time>
      </trkpt>
      <trkpt lat="41.69763" lon="2.7463953">
        <time>2022-07-10T16:04:15Z</time>
      </trkpt>
      <trkpt lat="41.69761" lon="2.746461">
        <time>2022-07-10T16:04:16Z</time>
      </trkpt>
      <trkpt lat="41.697586" lon="2.7465262">
        <time>2022-07-10T16:04:17Z</time>
      </trkpt>
      <trkpt lat="41.697563" lon="2.7465913">
        <time>2022-07-10T16:04:18Z</time>
      </trkpt>
      <trkpt lat="41.697517" lon="2.7467222">
        <time>2022-07-10T16:04:20Z</time>
      </trkpt>
      <trkpt lat="41.697475" lon="2.7468529">
        <time>2022-07-10T16:04:22Z</time>
      </trkpt>
      <trkpt lat="41.697453" lon="2.7469184">
        <time>2022-07-10T16:04:23Z</time>
      </trkpt>
      <trkpt lat="41.697433" lon="2.7469845">
        <time>2022-07-10T16:04:24Z</time>
      </trkpt>
      <trkpt lat="41.697414" lon="2.7470508">
        <time>2022-07-10T16:04:25Z</time>
      </trkpt>
      <trkpt lat="41.69739" lon="2.7471168">
        <time>2022-07-10T16:04:26Z</time>
      </trkpt>
      <trkpt lat="41.69737" lon="2.7471821">
        <time>2022-07-10T16:04:27Z</time>
      </trkpt>
      <trkpt lat="41.697346" lon="2.7472472">
        <time>2022-07-10T16:04:28Z</time>
      </trkpt>
      <trkpt lat="41.697327" lon="2.7473116">
        <time>2022-07-10T16:04:29Z</time>
      </trkpt>
      <trkpt lat="41.697285" lon="2.7474391">
        <time>2022-07-10T16:04:31Z</time>
      </trkpt>
      <trkpt lat="41.69726" lon="2.7475026">
        <time>2022-07-10T16:04:32Z</time>
      </trkpt>
      <trkpt lat="41.69722" lon="2.7476265">
        <time>2022-07-10T16:04:34Z</time>
      </trkpt>
      <trkpt lat="41.6972" lon="2.7476883">
        <time>2022-07-10T16:04:35Z</time>
      </trkpt>
      <trkpt lat="41.69716" lon="2.7478082">
        <time>2022-07-10T16:04:37Z</time>
      </trkpt>
      <trkpt lat="41.697117" lon="2.7479231">
        <time>2022-07-10T16:04:39Z</time>
      </trkpt>
      <trkpt lat="41.697083" lon="2.7480345">
        <time>2022-07-10T16:04:41Z</time>
      </trkpt>
      <trkpt lat="41.697044" lon="2.748145">
        <time>2022-07-10T16:04:43Z</time>
      </trkpt>
      <trkpt lat="41.69701" lon="2.7482529">
        <time>2022-07-10T16:04:45Z</time>
      </trkpt>
      <trkpt lat="41.696976" lon="2.748356">
        <time>2022-07-10T16:04:47Z</time>
      </trkpt>
      <trkpt lat="41.696945" lon="2.7484567">
        <time>2022-07-10T16:04:49Z</time>
      </trkpt>
      <trkpt lat="41.696907" lon="2.7485542">
        <time>2022-07-10T16:04:51Z</time>
      </trkpt>
      <trkpt lat="41.696877" lon="2.7486508">
        <time>2022-07-10T16:04:53Z</time>
      </trkpt>
      <trkpt lat="41.696842" lon="2.748748">
        <time>2022-07-10T16:04:55Z</time>
      </trkpt>
      <trkpt lat="41.69681" lon="2.7488418">
        <time>2022-07-10T16:04:57Z</time>
      </trkpt>
      <trkpt lat="41.69678" lon="2.7489328">
        <time>2022-07-10T16:04:59Z</time>
      </trkpt>
      <trkpt lat="41.69675" lon="2.749021">
        <time>2022-07-10T16:05:01Z</time>
      </trkpt>
      <trkpt lat="41.696716" lon="2.749107">
        <time>2022-07-10T16:05:03Z</time>
      </trkpt>
      <trkpt lat="41.696686" lon="2.7491927">
        <time>2022-07-10T16:05:05Z</time>
      </trkpt>
      <trkpt lat="41.69666" lon="2.7492797">
        <time>2022-07-10T16:05:07Z</time>
      </trkpt>
      <trkpt lat="41.696632" lon="2.7493668">
        <time>2022-07-10T16:05:09Z</time>
      </trkpt>
      <trkpt lat="41.696606" lon="2.7494562">
        <time>2022-07-10T16:05:11Z</time>
      </trkpt>
      <trkpt lat="41.696583" lon="2.74955">
        <time>2022-07-10T16:05:13Z</time>
      </trkpt>
      <trkpt lat="41.696564" lon="2.7496474">
        <time>2022-07-10T16:05:15Z</time>
      </trkpt>
      <trkpt lat="41.69655" lon="2.749756">
        <time>2022-07-10T16:05:17Z</time>
      </trkpt>
      <trkpt lat="41.696537" lon="2.7498827">
        <time>2022-07-10T16:05:19Z</time>
      </trkpt>
      <trkpt lat="41.696537" lon="2.750023">
        <time>2022-07-10T16:05:21Z</time>
      </trkpt>
      <trkpt lat="41.696545" lon="2.7500968">
        <time>2022-07-10T16:05:22Z</time>
      </trkpt>
      <trkpt lat="41.696552" lon="2.750173">
        <time>2022-07-10T16:05:23Z</time>
      </trkpt>
      <trkpt lat="41.696564" lon="2.750252">
        <time>2022-07-10T16:05:24Z</time>
      </trkpt>
      <trkpt lat="41.69658" lon="2.7503319">
        <time>2022-07-10T16:05:25Z</time>
      </trkpt>
      <trkpt lat="41.696598" lon="2.7504115">
        <time>2022-07-10T16:05:26Z</time>
      </trkpt>
      <trkpt lat="41.696625" lon="2.7505655">
        <time>2022-07-10T16:05:28Z</time>
      </trkpt>
      <trkpt lat="41.69663" lon="2.7506378">
        <time>2022-07-10T16:05:29Z</time>
      </trkpt>
      <trkpt lat="41.69663" lon="2.7507048">
        <time>2022-07-10T16:05:30Z</time>
      </trkpt>
      <trkpt lat="41.696617" lon="2.7507665">
        <time>2022-07-10T16:05:31Z</time>
      </trkpt>
      <trkpt lat="41.696575" lon="2.7508647">
        <time>2022-07-10T16:05:33Z</time>
      </trkpt>
      <trkpt lat="41.69649" lon="2.7509274">
        <time>2022-07-10T16:05:35Z</time>
      </trkpt>
      <trkpt lat="41.696384" lon="2.7509394">
        <time>2022-07-10T16:05:37Z</time>
      </trkpt>
      <trkpt lat="41.696327" lon="2.7509317">
        <time>2022-07-10T16:05:38Z</time>
      </trkpt>
      <trkpt lat="41.69627" lon="2.7509205">
        <time>2022-07-10T16:05:39Z</time>
      </trkpt>
      <trkpt lat="41.69621" lon="2.7509077">
        <time>2022-07-10T16:05:40Z</time>
      </trkpt>
      <trkpt lat="41.69615" lon="2.7508981">
        <time>2022-07-10T16:05:41Z</time>
      </trkpt>
      <trkpt lat="41.69609" lon="2.750893">
        <time>2022-07-10T16:05:42Z</time>
      </trkpt>
      <trkpt lat="41.69603" lon="2.750893">
        <time>2022-07-10T16:05:43Z</time>
      </trkpt>
      <trkpt lat="41.695972" lon="2.7508988">
        <time>2022-07-10T16:05:44Z</time>
      </trkpt>
      <trkpt lat="41.695915" lon="2.750911">
        <time>2022-07-10T16:05:45Z</time>
      </trkpt>
      <trkpt lat="41.695858" lon="2.7509303">
        <time>2022-07-10T16:05:46Z</time>
      </trkpt>
      <trkpt lat="41.695805" lon="2.7509575">
        <time>2022-07-10T16:05:47Z</time>
      </trkpt>
      <trkpt lat="41.695755" lon="2.750992">
        <time>2022-07-10T16:05:48Z</time>
      </trkpt>
      <trkpt lat="41.69571" lon="2.751033">
        <time>2022-07-10T16:05:49Z</time>
      </trkpt>
      <trkpt lat="41.695663" lon="2.7510793">
        <time>2022-07-10T16:05:50Z</time>
      </trkpt>
      <trkpt lat="41.695618" lon="2.75113">
        <time>2022-07-10T16:05:51Z</time>
      </trkpt>
      <trkpt lat="41.695576" lon="2.7511785">
        <time>2022-07-10T16:05:52Z</time>
      </trkpt>
      <trkpt lat="41.69553" lon="2.7512264">
        <time>2022-07-10T16:05:53Z</time>
      </trkpt>
      <trkpt lat="41.695473" lon="2.7512703">
        <time>2022-07-10T16:05:54Z</time>
      </trkpt>
      <trkpt lat="41.695415" lon="2.7513058">
        <time>2022-07-10T16:05:55Z</time>
      </trkpt>
      <trkpt lat="41.69536" lon="2.7513344">
        <time>2022-07-10T16:05:56Z</time>
      </trkpt>
      <trkpt lat="41.695297" lon="2.7513587">
        <time>2022-07-10T16:05:57Z</time>
      </trkpt>
      <trkpt lat="41.695236" lon="2.7513797">
        <time>2022-07-10T16:05:58Z</time>
      </trkpt>
      <trkpt lat="41.695175" lon="2.751399">
        <time>2022-07-10T16:05:59Z</time>
      </trkpt>
      <trkpt lat="41.695114" lon="2.7514167">
        <time>2022-07-10T16:06:00Z</time>
      </trkpt>
      <trkpt lat="41.69505" lon="2.7514348">
        <time>2022-07-10T16:06:01Z</time>
      </trkpt>
      <trkpt lat="41.69499" lon="2.751454">
        <time>2022-07-10T16:06:02Z</time>
      </trkpt>
      <trkpt lat="41.694927" lon="2.7514727">
        <time>2022-07-10T16:06:03Z</time>
      </trkpt>
      <trkpt lat="41.69487" lon="2.7514913">
        <time>2022-07-10T16:06:04Z</time>
      </trkpt>
      <trkpt lat="41.694813" lon="2.7515106">
        <time>2022-07-10T16:06:05Z</time>
      </trkpt>
      <trkpt lat="41.69475" lon="2.7515306">
        <time>2022-07-10T16:06:06Z</time>
      </trkpt>
      <trkpt lat="41.694695" lon="2.7515507">
        <time>2022-07-10T16:06:07Z</time>
      </trkpt>
      <trkpt lat="41.694637" lon="2.7515707">
        <time>2022-07-10T16:06:08Z</time>
      </trkpt>
      <trkpt lat="41.694584" lon="2.7515907">
        <time>2022-07-10T16:06:09Z</time>
      </trkpt>
      <trkpt lat="41.694527" lon="2.751612">
        <time>2022-07-10T16:06:10Z</time>
      </trkpt>
      <trkpt lat="41.69447" lon="2.751635">
        <time>2022-07-10T16:06:11Z</time>
      </trkpt>
      <trkpt lat="41.694416" lon="2.7516584">
        <time>2022-07-10T16:06:12Z</time>
      </trkpt>
      <trkpt lat="41.694363" lon="2.751683">
        <time>2022-07-10T16:06:13Z</time>
      </trkpt>
      <trkpt lat="41.69431" lon="2.7517097">
        <time>2022-07-10T16:06:14Z</time>
      </trkpt>
      <trkpt lat="41.694256" lon="2.75174">
        <time>2022-07-10T16:06:15Z</time>
      </trkpt>
      <trkpt lat="41.694206" lon="2.7517734">
        <time>2022-07-10T16:06:16Z</time>
      </trkpt>
      <trkpt lat="41.69416" lon="2.7518086">
        <time>2022-07-10T16:06:17Z</time>
      </trkpt>
      <trkpt lat="41.69411" lon="2.7518463">
        <time>2022-07-10T16:06:18Z</time>
      </trkpt>
      <trkpt lat="41.694065" lon="2.7518847">
        <time>2022-07-10T16:06:19Z</time>
      </trkpt>
      <trkpt lat="41.694016" lon="2.751925">
        <time>2022-07-10T16:06:20Z</time>
      </trkpt>
      <trkpt lat="41.693974" lon="2.7519667">
        <time>2022-07-10T16:06:21Z</time>
      </trkpt>
      <trkpt lat="41.693928" lon="2.752008">
        <time>2022-07-10T16:06:22Z</time>
      </trkpt>
      <trkpt lat="41.693882" lon="2.7520504">
        <time>2022-07-10T16:06:23Z</time>
      </trkpt>
      <trkpt lat="41.693836" lon="2.7520926">
        <time>2022-07-10T16:06:24Z</time>
      </trkpt>
      <trkpt lat="41.69379" lon="2.752135">
        <time>2022-07-10T16:06:25Z</time>
      </trkpt>
      <trkpt lat="41.693745" lon="2.752177">
        <time>2022-07-10T16:06:26Z</time>
      </trkpt>
      <trkpt lat="41.693703" lon="2.752219">
        <time>2022-07-10T16:06:27Z</time>
      </trkpt>
      <trkpt lat="41.693657" lon="2.7522607">
        <time>2022-07-10T16:06:28Z</time>
      </trkpt>
      <trkpt lat="41.693565" lon="2.752344">
        <time>2022-07-10T16:06:30Z</time>
      </trkpt>
      <trkpt lat="41.693523" lon="2.7523842">
        <time>2022-07-10T16:06:31Z</time>
      </trkpt>
      <trkpt lat="41.69348" lon="2.7524235">
        <time>2022-07-10T16:06:32Z</time>
      </trkpt>
      <trkpt lat="41.693436" lon="2.7524629">
        <time>2022-07-10T16:06:33Z</time>
      </trkpt>
      <trkpt lat="41.693394" lon="2.7525022">
        <time>2022-07-10T16:06:34Z</time>
      </trkpt>
      <trkpt lat="41.693314" lon="2.7525802">
        <time>2022-07-10T16:06:36Z</time>
      </trkpt>
      <trkpt lat="41.69323" lon="2.752656">
        <time>2022-07-10T16:06:38Z</time>
      </trkpt>
      <trkpt lat="41.693188" lon="2.752694">
        <time>2022-07-10T16:06:39Z</time>
      </trkpt>
      <trkpt lat="41.693104" lon="2.7527723">
        <time>2022-07-10T16:06:41Z</time>
      </trkpt>
      <trkpt lat="41.693024" lon="2.7528505">
        <time>2022-07-10T16:06:43Z</time>
      </trkpt>
      <trkpt lat="41.69298" lon="2.7528892">
        <time>2022-07-10T16:06:44Z</time>
      </trkpt>
      <trkpt lat="41.6929" lon="2.7529645">
        <time>2022-07-10T16:06:46Z</time>
      </trkpt>
      <trkpt lat="41.692825" lon="2.7530396">
        <time>2022-07-10T16:06:48Z</time>
      </trkpt>
      <trkpt lat="41.692783" lon="2.7530768">
        <time>2022-07-10T16:06:49Z</time>
      </trkpt>
      <trkpt lat="41.692707" lon="2.7531488">
        <time>2022-07-10T16:06:51Z</time>
      </trkpt>
      <trkpt lat="41.692673" lon="2.753182">
        <time>2022-07-10T16:06:52Z</time>
      </trkpt>
      <trkpt lat="41.692604" lon="2.7532506">
        <time>2022-07-10T16:06:54Z</time>
      </trkpt>
      <trkpt lat="41.692535" lon="2.753321">
        <time>2022-07-10T16:06:56Z</time>
      </trkpt>
      <trkpt lat="41.692463" lon="2.7533915">
        <time>2022-07-10T16:06:58Z</time>
      </trkpt>
      <trkpt lat="41.692394" lon="2.7534652">
        <time>2022-07-10T16:07:00Z</time>
      </trkpt>
      <trkpt lat="41.69233" lon="2.753543">
        <time>2022-07-10T16:07:02Z</time>
      </trkpt>
      <trkpt lat="41.69226" lon="2.7536225">
        <time>2022-07-10T16:07:04Z</time>
      </trkpt>
      <trkpt lat="41.692192" lon="2.7537036">
        <time>2022-07-10T16:07:06Z</time>
      </trkpt>
      <trkpt lat="41.692123" lon="2.7537885">
        <time>2022-07-10T16:07:08Z</time>
      </trkpt>
      <trkpt lat="41.69206" lon="2.7538772">
        <time>2022-07-10T16:07:10Z</time>
      </trkpt>
      <trkpt lat="41.691994" lon="2.7539682">
        <time>2022-07-10T16:07:12Z</time>
      </trkpt>
      <trkpt lat="41.691936" lon="2.7540605">
        <time>2022-07-10T16:07:14Z</time>
      </trkpt>
      <trkpt lat="41.69188" lon="2.7541506">
        <time>2022-07-10T16:07:16Z</time>
      </trkpt>
      <trkpt lat="41.691826" lon="2.7542412">
        <time>2022-07-10T16:07:18Z</time>
      </trkpt>
      <trkpt lat="41.691776" lon="2.754335">
        <time>2022-07-10T16:07:20Z</time>
      </trkpt>
      <trkpt lat="41.69173" lon="2.7544324">
        <time>2022-07-10T16:07:22Z</time>
      </trkpt>
      <trkpt lat="41.69169" lon="2.7545226">
        <time>2022-07-10T16:07:24Z</time>
      </trkpt>
      <trkpt lat="41.691647" lon="2.7546163">
        <time>2022-07-10T16:07:26Z</time>
      </trkpt>
      <trkpt lat="41.691605" lon="2.7547102">
        <time>2022-07-10T16:07:28Z</time>
      </trkpt>
      <trkpt lat="41.69157" lon="2.7547948">
        <time>2022-07-10T16:07:30Z</time>
      </trkpt>
      <trkpt lat="41.691536" lon="2.754882">
        <time>2022-07-10T16:07:32Z</time>
      </trkpt>
      <trkpt lat="41.69151" lon="2.754969">
        <time>2022-07-10T16:07:34Z</time>
      </trkpt>
      <trkpt lat="41.691483" lon="2.7550502">
        <time>2022-07-10T16:07:36Z</time>
      </trkpt>
      <trkpt lat="41.69146" lon="2.7551324">
        <time>2022-07-10T16:07:38Z</time>
      </trkpt>
      <trkpt lat="41.691437" lon="2.7552142">
        <time>2022-07-10T16:07:40Z</time>
      </trkpt>
      <trkpt lat="41.691418" lon="2.7552924">
        <time>2022-07-10T16:07:42Z</time>
      </trkpt>
      <trkpt lat="41.691395" lon="2.755375">
        <time>2022-07-10T16:07:44Z</time>
      </trkpt>
      <trkpt lat="41.69138" lon="2.7554584">
        <time>2022-07-10T16:07:46Z</time>
      </trkpt>
      <trkpt lat="41.69136" lon="2.7555408">
        <time>2022-07-10T16:07:48Z</time>
      </trkpt>
      <trkpt lat="41.691345" lon="2.755624">
        <time>2022-07-10T16:07:50Z</time>
      </trkpt>
      <trkpt lat="41.69133" lon="2.7557075">
        <time>2022-07-10T16:07:52Z</time>
      </trkpt>
      <trkpt lat="41.69132" lon="2.7557912">
        <time>2022-07-10T16:07:54Z</time>
      </trkpt>
      <trkpt lat="41.691303" lon="2.7558734">
        <time>2022-07-10T16:07:56Z</time>
      </trkpt>
      <trkpt lat="41.6913" lon="2.755952">
        <time>2022-07-10T16:07:58Z</time>
      </trkpt>
      <trkpt lat="41.69129" lon="2.756037">
        <time>2022-07-10T16:08:00Z</time>
      </trkpt>
      <trkpt lat="41.69128" lon="2.756118">
        <time>2022-07-10T16:08:02Z</time>
      </trkpt>
      <trkpt lat="41.691273" lon="2.7562003">
        <time>2022-07-10T16:08:04Z</time>
      </trkpt>
      <trkpt lat="41.691273" lon="2.7562754">
        <time>2022-07-10T16:08:06Z</time>
      </trkpt>
      <trkpt lat="41.69127" lon="2.7563624">
        <time>2022-07-10T16:08:08Z</time>
      </trkpt>
      <trkpt lat="41.69126" lon="2.7564445">
        <time>2022-07-10T16:08:10Z</time>
      </trkpt>
      <trkpt lat="41.691254" lon="2.756526">
        <time>2022-07-10T16:08:12Z</time>
      </trkpt>
      <trkpt lat="41.691242" lon="2.7566092">
        <time>2022-07-10T16:08:14Z</time>
      </trkpt>
      <trkpt lat="41.69123" lon="2.756691">
        <time>2022-07-10T16:08:16Z</time>
      </trkpt>
      <trkpt lat="41.691216" lon="2.7567704">
        <time>2022-07-10T16:08:18Z</time>
      </trkpt>
      <trkpt lat="41.691204" lon="2.7568483">
        <time>2022-07-10T16:08:20Z</time>
      </trkpt>
      <trkpt lat="41.69119" lon="2.7569296">
        <time>2022-07-10T16:08:22Z</time>
      </trkpt>
      <trkpt lat="41.691177" lon="2.7570045">
        <time>2022-07-10T16:08:24Z</time>
      </trkpt>
      <trkpt lat="41.691166" lon="2.7570815">
        <time>2022-07-10T16:08:26Z</time>
      </trkpt>
      <trkpt lat="41.69116" lon="2.7571645">
        <time>2022-07-10T16:08:28Z</time>
      </trkpt>
      <trkpt lat="41.69115" lon="2.7572465">
        <time>2022-07-10T16:08:30Z</time>
      </trkpt>
      <trkpt lat="41.691143" lon="2.7573295">
        <time>2022-07-10T16:08:32Z</time>
      </trkpt>
      <trkpt lat="41.69113" lon="2.7574143">
        <time>2022-07-10T16:08:34Z</time>
      </trkpt>
      <trkpt lat="41.691124" lon="2.7575002">
        <time>2022-07-10T16:08:36Z</time>
      </trkpt>
      <trkpt lat="41.691116" lon="2.757589">
        <time>2022-07-10T16:08:38Z</time>
      </trkpt>
      <trkpt lat="41.691105" lon="2.757682">
        <time>2022-07-10T16:08:40Z</time>
      </trkpt>
      <trkpt lat="41.691097" lon="2.7577782">
        <time>2022-07-10T16:08:42Z</time>
      </trkpt>
      <trkpt lat="41.691086" lon="2.75788">
        <time>2022-07-10T16:08:44Z</time>
      </trkpt>
      <trkpt lat="41.69107" lon="2.7579846">
        <time>2022-07-10T16:08:46Z</time>
      </trkpt>
      <trkpt lat="41.691055" lon="2.758095">
        <time>2022-07-10T16:08:48Z</time>
      </trkpt>
      <trkpt lat="41.691044" lon="2.758202">
        <time>2022-07-10T16:08:50Z</time>
      </trkpt>
      <trkpt lat="41.69103" lon="2.7583113">
        <time>2022-07-10T16:08:52Z</time>
      </trkpt>
      <trkpt lat="41.69101" lon="2.7584207">
        <time>2022-07-10T16:08:54Z</time>
      </trkpt>
      <trkpt lat="41.690994" lon="2.758531">
        <time>2022-07-10T16:08:56Z</time>
      </trkpt>
      <trkpt lat="41.690983" lon="2.75864">
        <time>2022-07-10T16:08:58Z</time>
      </trkpt>
      <trkpt lat="41.69097" lon="2.7587478">
        <time>2022-07-10T16:09:00Z</time>
      </trkpt>
      <trkpt lat="41.69096" lon="2.758856">
        <time>2022-07-10T16:09:02Z</time>
      </trkpt>
      <trkpt lat="41.69095" lon="2.7589588">
        <time>2022-07-10T16:09:04Z</time>
      </trkpt>
      <trkpt lat="41.690933" lon="2.7590318">
        <time>2022-07-10T16:09:06Z</time>
      </trkpt>
      <trkpt lat="41.690937" lon="2.7591004">
        <time>2022-07-10T16:10:08Z</time>
      </trkpt>
      <trkpt lat="41.69102" lon="2.7591565">
        <time>2022-07-10T16:10:51Z</time>
      </trkpt>
      <trkpt lat="41.691055" lon="2.7592382">
        <time>2022-07-10T16:10:54Z</time>
      </trkpt>
      <trkpt lat="41.69105" lon="2.7593098">
        <time>2022-07-10T16:10:56Z</time>
      </trkpt>
      <trkpt lat="41.691036" lon="2.7593894">
        <time>2022-07-10T16:10:58Z</time>
      </trkpt>
      <trkpt lat="41.69102" lon="2.759479">
        <time>2022-07-10T16:11:00Z</time>
      </trkpt>
      <trkpt lat="41.691006" lon="2.7595751">
        <time>2022-07-10T16:11:02Z</time>
      </trkpt>
      <trkpt lat="41.69099" lon="2.7596776">
        <time>2022-07-10T16:11:04Z</time>
      </trkpt>
      <trkpt lat="41.69097" lon="2.7597833">
        <time>2022-07-10T16:11:06Z</time>
      </trkpt>
      <trkpt lat="41.690956" lon="2.759887">
        <time>2022-07-10T16:11:08Z</time>
      </trkpt>
      <trkpt lat="41.690937" lon="2.75999">
        <time>2022-07-10T16:11:10Z</time>
      </trkpt>
      <trkpt lat="41.690918" lon="2.760095">
        <time>2022-07-10T16:11:12Z</time>
      </trkpt>
      <trkpt lat="41.690895" lon="2.7602003">
        <time>2022-07-10T16:11:14Z</time>
      </trkpt>
      <trkpt lat="41.690872" lon="2.7603064">
        <time>2022-07-10T16:11:16Z</time>
      </trkpt>
      <trkpt lat="41.69085" lon="2.7604096">
        <time>2022-07-10T16:11:18Z</time>
      </trkpt>
      <trkpt lat="41.69082" lon="2.76051">
        <time>2022-07-10T16:11:20Z</time>
      </trkpt>
      <trkpt lat="41.69079" lon="2.760611">
        <time>2022-07-10T16:11:22Z</time>
      </trkpt>
      <trkpt lat="41.690754" lon="2.760708">
        <time>2022-07-10T16:11:24Z</time>
      </trkpt>
      <trkpt lat="41.69072" lon="2.7608137">
        <time>2022-07-10T16:11:26Z</time>
      </trkpt>
      <trkpt lat="41.69068" lon="2.7609313">
        <time>2022-07-10T16:11:28Z</time>
      </trkpt>
      <trkpt lat="41.69063" lon="2.761039">
        <time>2022-07-10T16:11:30Z</time>
      </trkpt>
      <trkpt lat="41.690563" lon="2.761138">
        <time>2022-07-10T16:11:32Z</time>
      </trkpt>
      <trkpt lat="41.69052" lon="2.761186">
        <time>2022-07-10T16:11:33Z</time>
      </trkpt>
      <trkpt lat="41.69048" lon="2.7612336">
        <time>2022-07-10T16:11:34Z</time>
      </trkpt>
      <trkpt lat="41.690434" lon="2.7612813">
        <time>2022-07-10T16:11:35Z</time>
      </trkpt>
      <trkpt lat="41.69039" lon="2.761329">
        <time>2022-07-10T16:11:36Z</time>
      </trkpt>
      <trkpt lat="41.69035" lon="2.7613733">
        <time>2022-07-10T16:11:37Z</time>
      </trkpt>
      <trkpt lat="41.69031" lon="2.7614229">
        <time>2022-07-10T16:11:38Z</time>
      </trkpt>
      <trkpt lat="41.690277" lon="2.7614737">
        <time>2022-07-10T16:11:39Z</time>
      </trkpt>
      <trkpt lat="41.69023" lon="2.7615736">
        <time>2022-07-10T16:11:41Z</time>
      </trkpt>
      <trkpt lat="41.690197" lon="2.7616715">
        <time>2022-07-10T16:11:43Z</time>
      </trkpt>
      <trkpt lat="41.69015" lon="2.7617528">
        <time>2022-07-10T16:11:45Z</time>
      </trkpt>
      <trkpt lat="41.690086" lon="2.7618077">
        <time>2022-07-10T16:11:47Z</time>
      </trkpt>
      <trkpt lat="41.690006" lon="2.7618623">
        <time>2022-07-10T16:11:49Z</time>
      </trkpt>
      <trkpt lat="41.689926" lon="2.7619429">
        <time>2022-07-10T16:11:51Z</time>
      </trkpt>
      <trkpt lat="41.689842" lon="2.7620413">
        <time>2022-07-10T16:11:53Z</time>
      </trkpt>
      <trkpt lat="41.689796" lon="2.7620945">
        <time>2022-07-10T16:11:54Z</time>
      </trkpt>
      <trkpt lat="41.689713" lon="2.7621982">
        <time>2022-07-10T16:11:56Z</time>
      </trkpt>
      <trkpt lat="41.68967" lon="2.7622533">
        <time>2022-07-10T16:11:57Z</time>
      </trkpt>
      <trkpt lat="41.68962" lon="2.762316">
        <time>2022-07-10T16:11:58Z</time>
      </trkpt>
      <trkpt lat="41.68958" lon="2.7623756">
        <time>2022-07-10T16:11:59Z</time>
      </trkpt>
      <trkpt lat="41.68953" lon="2.762442">
        <time>2022-07-10T16:12:00Z</time>
      </trkpt>
      <trkpt lat="41.689484" lon="2.7625053">
        <time>2022-07-10T16:12:01Z</time>
      </trkpt>
      <trkpt lat="41.689438" lon="2.762569">
        <time>2022-07-10T16:12:02Z</time>
      </trkpt>
      <trkpt lat="41.689392" lon="2.7626343">
        <time>2022-07-10T16:12:03Z</time>
      </trkpt>
      <trkpt lat="41.68934" lon="2.762705">
        <time>2022-07-10T16:12:04Z</time>
      </trkpt>
      <trkpt lat="41.68929" lon="2.762776">
        <time>2022-07-10T16:12:05Z</time>
      </trkpt>
      <trkpt lat="41.68924" lon="2.7628458">
        <time>2022-07-10T16:12:06Z</time>
      </trkpt>
      <trkpt lat="41.689186" lon="2.7629158">
        <time>2022-07-10T16:12:07Z</time>
      </trkpt>
      <trkpt lat="41.689137" lon="2.762986">
        <time>2022-07-10T16:12:08Z</time>
      </trkpt>
      <trkpt lat="41.689087" lon="2.7630548">
        <time>2022-07-10T16:12:09Z</time>
      </trkpt>
      <trkpt lat="41.689037" lon="2.7631218">
        <time>2022-07-10T16:12:10Z</time>
      </trkpt>
      <trkpt lat="41.688988" lon="2.7631881">
        <time>2022-07-10T16:12:11Z</time>
      </trkpt>
      <trkpt lat="41.68894" lon="2.7632532">
        <time>2022-07-10T16:12:12Z</time>
      </trkpt>
      <trkpt lat="41.68889" lon="2.7633176">
        <time>2022-07-10T16:12:13Z</time>
      </trkpt>
      <trkpt lat="41.688843" lon="2.7633815">
        <time>2022-07-10T16:12:14Z</time>
      </trkpt>
      <trkpt lat="41.688793" lon="2.7634435">
        <time>2022-07-10T16:12:15Z</time>
      </trkpt>
      <trkpt lat="41.688747" lon="2.7635038">
        <time>2022-07-10T16:12:16Z</time>
      </trkpt>
      <trkpt lat="41.688705" lon="2.7635634">
        <time>2022-07-10T16:12:17Z</time>
      </trkpt>
      <trkpt lat="41.68866" lon="2.7636228">
        <time>2022-07-10T16:12:18Z</time>
      </trkpt>
      <trkpt lat="41.688618" lon="2.7636812">
        <time>2022-07-10T16:12:19Z</time>
      </trkpt>
      <trkpt lat="41.688576" lon="2.763739">
        <time>2022-07-10T16:12:20Z</time>
      </trkpt>
      <trkpt lat="41.68853" lon="2.7637966">
        <time>2022-07-10T16:12:21Z</time>
      </trkpt>
      <trkpt lat="41.688484" lon="2.7638543">
        <time>2022-07-10T16:12:22Z</time>
      </trkpt>
      <trkpt lat="41.68844" lon="2.763913">
        <time>2022-07-10T16:12:23Z</time>
      </trkpt>
      <trkpt lat="41.688396" lon="2.763971">
        <time>2022-07-10T16:12:24Z</time>
      </trkpt>
      <trkpt lat="41.68835" lon="2.764029">
        <time>2022-07-10T16:12:25Z</time>
      </trkpt>
      <trkpt lat="41.68831" lon="2.7640862">
        <time>2022-07-10T16:12:26Z</time>
      </trkpt>
      <trkpt lat="41.68827" lon="2.764141">
        <time>2022-07-10T16:12:27Z</time>
      </trkpt>
      <trkpt lat="41.68823" lon="2.7641947">
        <time>2022-07-10T16:12:28Z</time>
      </trkpt>
      <trkpt lat="41.68819" lon="2.7642472">
        <time>2022-07-10T16:12:29Z</time>
      </trkpt>
      <trkpt lat="41.688152" lon="2.7642982">
        <time>2022-07-10T16:12:30Z</time>
      </trkpt>
      <trkpt lat="41.688118" lon="2.7643478">
        <time>2022-07-10T16:12:31Z</time>
      </trkpt>
      <trkpt lat="41.688084" lon="2.7643962">
        <time>2022-07-10T16:12:32Z</time>
      </trkpt>
      <trkpt lat="41.688015" lon="2.7644985">
        <time>2022-07-10T16:12:34Z</time>
      </trkpt>
      <trkpt lat="41.687984" lon="2.7645464">
        <time>2022-07-10T16:12:35Z</time>
      </trkpt>
      <trkpt lat="41.687927" lon="2.7646384">
        <time>2022-07-10T16:12:37Z</time>
      </trkpt>
      <trkpt lat="41.687874" lon="2.764718">
        <time>2022-07-10T16:12:39Z</time>
      </trkpt>
      <trkpt lat="41.687805" lon="2.7647998">
        <time>2022-07-10T16:12:41Z</time>
      </trkpt>
      <trkpt lat="41.687737" lon="2.764884">
        <time>2022-07-10T16:12:43Z</time>
      </trkpt>
      <trkpt lat="41.687664" lon="2.7649784">
        <time>2022-07-10T16:12:45Z</time>
      </trkpt>
      <trkpt lat="41.68759" lon="2.7650805">
        <time>2022-07-10T16:12:47Z</time>
      </trkpt>
      <trkpt lat="41.687553" lon="2.7651315">
        <time>2022-07-10T16:12:48Z</time>
      </trkpt>
      <trkpt lat="41.687515" lon="2.7651827">
        <time>2022-07-10T16:12:49Z</time>
      </trkpt>
      <trkpt lat="41.687477" lon="2.7652314">
        <time>2022-07-10T16:12:50Z</time>
      </trkpt>
      <trkpt lat="41.68744" lon="2.7652855">
        <time>2022-07-10T16:12:51Z</time>
      </trkpt>
      <trkpt lat="41.687397" lon="2.76534">
        <time>2022-07-10T16:12:52Z</time>
      </trkpt>
      <trkpt lat="41.687355" lon="2.7653956">
        <time>2022-07-10T16:12:53Z</time>
      </trkpt>
      <trkpt lat="41.687313" lon="2.7654488">
        <time>2022-07-10T16:12:54Z</time>
      </trkpt>
      <trkpt lat="41.687267" lon="2.7655075">
        <time>2022-07-10T16:12:55Z</time>
      </trkpt>
      <trkpt lat="41.687225" lon="2.7655656">
        <time>2022-07-10T16:12:56Z</time>
      </trkpt>
      <trkpt lat="41.68718" lon="2.7656233">
        <time>2022-07-10T16:12:57Z</time>
      </trkpt>
      <trkpt lat="41.687134" lon="2.7656815">
        <time>2022-07-10T16:12:58Z</time>
      </trkpt>
      <trkpt lat="41.68705" lon="2.7657971">
        <time>2022-07-10T16:13:00Z</time>
      </trkpt>
      <trkpt lat="41.687004" lon="2.765856">
        <time>2022-07-10T16:13:01Z</time>
      </trkpt>
      <trkpt lat="41.686962" lon="2.7659152">
        <time>2022-07-10T16:13:02Z</time>
      </trkpt>
      <trkpt lat="41.68692" lon="2.7659726">
        <time>2022-07-10T16:13:03Z</time>
      </trkpt>
      <trkpt lat="41.686874" lon="2.76603">
        <time>2022-07-10T16:13:04Z</time>
      </trkpt>
      <trkpt lat="41.686836" lon="2.7660818">
        <time>2022-07-10T16:13:05Z</time>
      </trkpt>
      <trkpt lat="41.6868" lon="2.766134">
        <time>2022-07-10T16:13:06Z</time>
      </trkpt>
      <trkpt lat="41.686756" lon="2.7661881">
        <time>2022-07-10T16:13:07Z</time>
      </trkpt>
      <trkpt lat="41.686718" lon="2.7662404">
        <time>2022-07-10T16:13:08Z</time>
      </trkpt>
      <trkpt lat="41.68668" lon="2.7662907">
        <time>2022-07-10T16:13:09Z</time>
      </trkpt>
      <trkpt lat="41.686646" lon="2.7663367">
        <time>2022-07-10T16:13:10Z</time>
      </trkpt>
      <trkpt lat="41.68658" lon="2.7664278">
        <time>2022-07-10T16:13:12Z</time>
      </trkpt>
      <trkpt lat="41.686546" lon="2.7664723">
        <time>2022-07-10T16:13:13Z</time>
      </trkpt>
      <trkpt lat="41.686485" lon="2.766554">
        <time>2022-07-10T16:13:15Z</time>
      </trkpt>
      <trkpt lat="41.686428" lon="2.7666316">
        <time>2022-07-10T16:13:17Z</time>
      </trkpt>
      <trkpt lat="41.68637" lon="2.76671">
        <time>2022-07-10T16:13:19Z</time>
      </trkpt>
      <trkpt lat="41.686317" lon="2.766781">
        <time>2022-07-10T16:13:21Z</time>
      </trkpt>
      <trkpt lat="41.68626" lon="2.7668548">
        <time>2022-07-10T16:13:23Z</time>
      </trkpt>
      <trkpt lat="41.6862" lon="2.7669332">
        <time>2022-07-10T16:13:25Z</time>
      </trkpt>
      <trkpt lat="41.68614" lon="2.767019">
        <time>2022-07-10T16:13:27Z</time>
      </trkpt>
      <trkpt lat="41.686066" lon="2.7671144">
        <time>2022-07-10T16:13:29Z</time>
      </trkpt>
      <trkpt lat="41.68599" lon="2.7672174">
        <time>2022-07-10T16:13:31Z</time>
      </trkpt>
      <trkpt lat="41.685947" lon="2.7672713">
        <time>2022-07-10T16:13:32Z</time>
      </trkpt>
      <trkpt lat="41.685905" lon="2.7673275">
        <time>2022-07-10T16:13:33Z</time>
      </trkpt>
      <trkpt lat="41.685863" lon="2.767385">
        <time>2022-07-10T16:13:34Z</time>
      </trkpt>
      <trkpt lat="41.685818" lon="2.7674437">
        <time>2022-07-10T16:13:35Z</time>
      </trkpt>
      <trkpt lat="41.685772" lon="2.767504">
        <time>2022-07-10T16:13:36Z</time>
      </trkpt>
      <trkpt lat="41.685726" lon="2.7675653">
        <time>2022-07-10T16:13:37Z</time>
      </trkpt>
      <trkpt lat="41.68568" lon="2.7676277">
        <time>2022-07-10T16:13:38Z</time>
      </trkpt>
      <trkpt lat="41.68563" lon="2.7676916">
        <time>2022-07-10T16:13:39Z</time>
      </trkpt>
      <trkpt lat="41.68558" lon="2.7677562">
        <time>2022-07-10T16:13:40Z</time>
      </trkpt>
      <trkpt lat="41.68553" lon="2.7678216">
        <time>2022-07-10T16:13:41Z</time>
      </trkpt>
      <trkpt lat="41.685482" lon="2.7678878">
        <time>2022-07-10T16:13:42Z</time>
      </trkpt>
      <trkpt lat="41.685432" lon="2.7679546">
        <time>2022-07-10T16:13:43Z</time>
      </trkpt>
      <trkpt lat="41.685383" lon="2.7680206">
        <time>2022-07-10T16:13:44Z</time>
      </trkpt>
      <trkpt lat="41.685333" lon="2.7680862">
        <time>2022-07-10T16:13:45Z</time>
      </trkpt>
      <trkpt lat="41.685284" lon="2.7681506">
        <time>2022-07-10T16:13:46Z</time>
      </trkpt>
      <trkpt lat="41.685238" lon="2.768213">
        <time>2022-07-10T16:13:47Z</time>
      </trkpt>
      <trkpt lat="41.685192" lon="2.7682738">
        <time>2022-07-10T16:13:48Z</time>
      </trkpt>
      <trkpt lat="41.685146" lon="2.7683342">
        <time>2022-07-10T16:13:49Z</time>
      </trkpt>
      <trkpt lat="41.6851" lon="2.7683933">
        <time>2022-07-10T16:13:50Z</time>
      </trkpt>
      <trkpt lat="41.68506" lon="2.7684503">
        <time>2022-07-10T16:13:51Z</time>
      </trkpt>
      <trkpt lat="41.685017" lon="2.7685063">
        <time>2022-07-10T16:13:52Z</time>
      </trkpt>
      <trkpt lat="41.684975" lon="2.7685618">
        <time>2022-07-10T16:13:53Z</time>
      </trkpt>
      <trkpt lat="41.684933" lon="2.7686162">
        <time>2022-07-10T16:13:54Z</time>
      </trkpt>
      <trkpt lat="41.68489" lon="2.7686703">
        <time>2022-07-10T16:13:55Z</time>
      </trkpt>
      <trkpt lat="41.684853" lon="2.7687242">
        <time>2022-07-10T16:13:56Z</time>
      </trkpt>
      <trkpt lat="41.68481" lon="2.7687778">
        <time>2022-07-10T16:13:57Z</time>
      </trkpt>
      <trkpt lat="41.684772" lon="2.768832">
        <time>2022-07-10T16:13:58Z</time>
      </trkpt>
      <trkpt lat="41.68473" lon="2.7688863">
        <time>2022-07-10T16:13:59Z</time>
      </trkpt>
      <trkpt lat="41.684692" lon="2.7689402">
        <time>2022-07-10T16:14:00Z</time>
      </trkpt>
      <trkpt lat="41.68465" lon="2.768993">
        <time>2022-07-10T16:14:01Z</time>
      </trkpt>
      <trkpt lat="41.684612" lon="2.7690456">
        <time>2022-07-10T16:14:02Z</time>
      </trkpt>
      <trkpt lat="41.684536" lon="2.7691512">
        <time>2022-07-10T16:14:04Z</time>
      </trkpt>
      <trkpt lat="41.684498" lon="2.7692034">
        <time>2022-07-10T16:14:05Z</time>
      </trkpt>
      <trkpt lat="41.68446" lon="2.7692552">
        <time>2022-07-10T16:14:06Z</time>
      </trkpt>
      <trkpt lat="41.68442" lon="2.7693064">
        <time>2022-07-10T16:14:07Z</time>
      </trkpt>
      <trkpt lat="41.684383" lon="2.7693589">
        <time>2022-07-10T16:14:08Z</time>
      </trkpt>
      <trkpt lat="41.684345" lon="2.7694101">
        <time>2022-07-10T16:14:09Z</time>
      </trkpt>
      <trkpt lat="41.684307" lon="2.7694604">
        <time>2022-07-10T16:14:10Z</time>
      </trkpt>
      <trkpt lat="41.68427" lon="2.7695115">
        <time>2022-07-10T16:14:11Z</time>
      </trkpt>
      <trkpt lat="41.6842" lon="2.769615">
        <time>2022-07-10T16:14:13Z</time>
      </trkpt>
      <trkpt lat="41.68417" lon="2.7696688">
        <time>2022-07-10T16:14:14Z</time>
      </trkpt>
      <trkpt lat="41.684143" lon="2.769725">
        <time>2022-07-10T16:14:15Z</time>
      </trkpt>
      <trkpt lat="41.68411" lon="2.7698438">
        <time>2022-07-10T16:14:17Z</time>
      </trkpt>
      <trkpt lat="41.684097" lon="2.7699645">
        <time>2022-07-10T16:14:19Z</time>
      </trkpt>
      <trkpt lat="41.684105" lon="2.7700825">
        <time>2022-07-10T16:14:21Z</time>
      </trkpt>
      <trkpt lat="41.684135" lon="2.770193">
        <time>2022-07-10T16:14:23Z</time>
      </trkpt>
      <trkpt lat="41.684162" lon="2.7702985">
        <time>2022-07-10T16:14:25Z</time>
      </trkpt>
      <trkpt lat="41.68416" lon="2.7703924">
        <time>2022-07-10T16:14:27Z</time>
      </trkpt>
      <trkpt lat="41.68412" lon="2.7704418">
        <time>2022-07-10T16:14:29Z</time>
      </trkpt>
      <trkpt lat="41.684063" lon="2.7704523">
        <time>2022-07-10T16:14:31Z</time>
      </trkpt>
      <trkpt lat="41.684" lon="2.7704542">
        <time>2022-07-10T16:14:33Z</time>
      </trkpt>
      <trkpt lat="41.683926" lon="2.770462">
        <time>2022-07-10T16:14:35Z</time>
      </trkpt>
      <trkpt lat="41.683853" lon="2.7704644">
        <time>2022-07-10T16:14:37Z</time>
      </trkpt>
      <trkpt lat="41.683777" lon="2.7704551">
        <time>2022-07-10T16:14:39Z</time>
      </trkpt>
      <trkpt lat="41.683704" lon="2.7704482">
        <time>2022-07-10T16:14:41Z</time>
      </trkpt>
      <trkpt lat="41.68363" lon="2.77047">
        <time>2022-07-10T16:14:43Z</time>
      </trkpt>
      <trkpt lat="41.68357" lon="2.770512">
        <time>2022-07-10T16:14:45Z</time>
      </trkpt>
      <trkpt lat="41.68351" lon="2.770568">
        <time>2022-07-10T16:14:47Z</time>
      </trkpt>
      <trkpt lat="41.683456" lon="2.7706285">
        <time>2022-07-10T16:14:49Z</time>
      </trkpt>
      <trkpt lat="41.683403" lon="2.7706912">
        <time>2022-07-10T16:14:51Z</time>
      </trkpt>
      <trkpt lat="41.68335" lon="2.770761">
        <time>2022-07-10T16:14:53Z</time>
      </trkpt>
      <trkpt lat="41.6833" lon="2.7708313">
        <time>2022-07-10T16:14:55Z</time>
      </trkpt>
      <trkpt lat="41.683247" lon="2.7709007">
        <time>2022-07-10T16:14:57Z</time>
      </trkpt>
      <trkpt lat="41.683197" lon="2.7709732">
        <time>2022-07-10T16:14:59Z</time>
      </trkpt>
      <trkpt lat="41.683144" lon="2.7710469">
        <time>2022-07-10T16:15:01Z</time>
      </trkpt>
      <trkpt lat="41.68309" lon="2.7711189">
        <time>2022-07-10T16:15:03Z</time>
      </trkpt>
      <trkpt lat="41.683033" lon="2.7711914">
        <time>2022-07-10T16:15:05Z</time>
      </trkpt>
      <trkpt lat="41.68298" lon="2.7712622">
        <time>2022-07-10T16:15:07Z</time>
      </trkpt>
      <trkpt lat="41.682926" lon="2.771332">
        <time>2022-07-10T16:15:09Z</time>
      </trkpt>
      <trkpt lat="41.682873" lon="2.7714">
        <time>2022-07-10T16:15:11Z</time>
      </trkpt>
      <trkpt lat="41.682823" lon="2.7714658">
        <time>2022-07-10T16:15:13Z</time>
      </trkpt>
      <trkpt lat="41.682777" lon="2.7715285">
        <time>2022-07-10T16:15:15Z</time>
      </trkpt>
      <trkpt lat="41.682735" lon="2.7715907">
        <time>2022-07-10T16:15:17Z</time>
      </trkpt>
      <trkpt lat="41.68269" lon="2.7716503">
        <time>2022-07-10T16:15:19Z</time>
      </trkpt>
      <trkpt lat="41.682648" lon="2.771709">
        <time>2022-07-10T16:15:21Z</time>
      </trkpt>
      <trkpt lat="41.682602" lon="2.7717698">
        <time>2022-07-10T16:15:23Z</time>
      </trkpt>
      <trkpt lat="41.68256" lon="2.7718303">
        <time>2022-07-10T16:15:25Z</time>
      </trkpt>
      <trkpt lat="41.682514" lon="2.7718933">
        <time>2022-07-10T16:15:27Z</time>
      </trkpt>
      <trkpt lat="41.682472" lon="2.7719548">
        <time>2022-07-10T16:15:29Z</time>
      </trkpt>
      <trkpt lat="41.68243" lon="2.772013">
        <time>2022-07-10T16:15:31Z</time>
      </trkpt>
      <trkpt lat="41.682384" lon="2.7720711">
        <time>2022-07-10T16:15:33Z</time>
      </trkpt>
      <trkpt lat="41.682343" lon="2.7721293">
        <time>2022-07-10T16:15:35Z</time>
      </trkpt>
      <trkpt lat="41.6823" lon="2.7721877">
        <time>2022-07-10T16:15:37Z</time>
      </trkpt>
      <trkpt lat="41.68227" lon="2.772242">
        <time>2022-07-10T16:15:39Z</time>
      </trkpt>
      <trkpt lat="41.682224" lon="2.7723248">
        <time>2022-07-10T16:15:42Z</time>
      </trkpt>
      <trkpt lat="41.682205" lon="2.7723877">
        <time>2022-07-10T16:15:44Z</time>
      </trkpt>
      <trkpt lat="41.68217" lon="2.7724874">
        <time>2022-07-10T16:15:47Z</time>
      </trkpt>
      <trkpt lat="41.682137" lon="2.7725456">
        <time>2022-07-10T16:15:49Z</time>
      </trkpt>
      <trkpt lat="41.682095" lon="2.7726257">
        <time>2022-07-10T16:15:52Z</time>
      </trkpt>
      <trkpt lat="41.682068" lon="2.772693">
        <time>2022-07-10T16:15:55Z</time>
      </trkpt>
      <trkpt lat="41.68202" lon="2.7727304">
        <time>2022-07-10T16:15:59Z</time>
      </trkpt>
      <trkpt lat="41.68196" lon="2.7727363">
        <time>2022-07-10T16:16:03Z</time>
      </trkpt>
      <trkpt lat="41.68189" lon="2.772721">
        <time>2022-07-10T16:16:07Z</time>
      </trkpt>
      <trkpt lat="41.68184" lon="2.772678">
        <time>2022-07-10T16:16:10Z</time>
      </trkpt>
      <trkpt lat="41.681778" lon="2.772666">
        <time>2022-07-10T16:16:13Z</time>
      </trkpt>
      <trkpt lat="41.681717" lon="2.7727103">
        <time>2022-07-10T16:16:16Z</time>
      </trkpt>
      <trkpt lat="41.68167" lon="2.7727473">
        <time>2022-07-10T16:16:18Z</time>
      </trkpt>
      <trkpt lat="41.68161" lon="2.7727914">
        <time>2022-07-10T16:16:21Z</time>
      </trkpt>
      <trkpt lat="41.681545" lon="2.7728248">
        <time>2022-07-10T16:16:24Z</time>
      </trkpt>
      <trkpt lat="41.68152" lon="2.7728758">
        <time>2022-07-10T16:16:27Z</time>
      </trkpt>
      <trkpt lat="41.681515" lon="2.772957">
        <time>2022-07-10T16:16:31Z</time>
      </trkpt>
      <trkpt lat="41.681488" lon="2.773021">
        <time>2022-07-10T16:16:34Z</time>
      </trkpt>
      <trkpt lat="41.681446" lon="2.773098">
        <time>2022-07-10T16:16:37Z</time>
      </trkpt>
      <trkpt lat="41.68141" lon="2.7731516">
        <time>2022-07-10T16:16:39Z</time>
      </trkpt>
      <trkpt lat="41.68137" lon="2.7732024">
        <time>2022-07-10T16:16:41Z</time>
      </trkpt>
      <trkpt lat="41.68132" lon="2.773243">
        <time>2022-07-10T16:16:43Z</time>
      </trkpt>
      <trkpt lat="41.68127" lon="2.773274">
        <time>2022-07-10T16:16:45Z</time>
      </trkpt>
      <trkpt lat="41.681217" lon="2.773299">
        <time>2022-07-10T16:16:47Z</time>
      </trkpt>
      <trkpt lat="41.68116" lon="2.773321">
        <time>2022-07-10T16:16:49Z</time>
      </trkpt>
      <trkpt lat="41.681103" lon="2.7733433">
        <time>2022-07-10T16:16:51Z</time>
      </trkpt>
      <trkpt lat="41.68104" lon="2.7733624">
        <time>2022-07-10T16:16:53Z</time>
      </trkpt>
      <trkpt lat="41.680984" lon="2.773383">
        <time>2022-07-10T16:16:55Z</time>
      </trkpt>
      <trkpt lat="41.680927" lon="2.773405">
        <time>2022-07-10T16:16:57Z</time>
      </trkpt>
      <trkpt lat="41.68087" lon="2.7734237">
        <time>2022-07-10T16:16:59Z</time>
      </trkpt>
      <trkpt lat="41.680813" lon="2.7734354">
        <time>2022-07-10T16:17:01Z</time>
      </trkpt>
      <trkpt lat="41.68075" lon="2.7734466">
        <time>2022-07-10T16:17:03Z</time>
      </trkpt>
      <trkpt lat="41.68069" lon="2.7734592">
        <time>2022-07-10T16:17:05Z</time>
      </trkpt>
      <trkpt lat="41.68063" lon="2.77347">
        <time>2022-07-10T16:17:07Z</time>
      </trkpt>
      <trkpt lat="41.680573" lon="2.7734764">
        <time>2022-07-10T16:17:09Z</time>
      </trkpt>
      <trkpt lat="41.680515" lon="2.7734835">
        <time>2022-07-10T16:17:11Z</time>
      </trkpt>
      <trkpt lat="41.680454" lon="2.7734892">
        <time>2022-07-10T16:17:13Z</time>
      </trkpt>
      <trkpt lat="41.680363" lon="2.7734966">
        <time>2022-07-10T16:17:16Z</time>
      </trkpt>
      <trkpt lat="41.6803" lon="2.7735007">
        <time>2022-07-10T16:17:18Z</time>
      </trkpt>
      <trkpt lat="41.68024" lon="2.7735033">
        <time>2022-07-10T16:17:20Z</time>
      </trkpt>
      <trkpt lat="41.68018" lon="2.7735066">
        <time>2022-07-10T16:17:22Z</time>
      </trkpt>
      <trkpt lat="41.680122" lon="2.7735095">
        <time>2022-07-10T16:17:24Z</time>
      </trkpt>
      <trkpt lat="41.680065" lon="2.7735121">
        <time>2022-07-10T16:17:26Z</time>
      </trkpt>
      <trkpt lat="41.680008" lon="2.7735238">
        <time>2022-07-10T16:17:28Z</time>
      </trkpt>
      <trkpt lat="41.67995" lon="2.7735426">
        <time>2022-07-10T16:17:30Z</time>
      </trkpt>
      <trkpt lat="41.679886" lon="2.7735462">
        <time>2022-07-10T16:17:32Z</time>
      </trkpt>
      <trkpt lat="41.679817" lon="2.7735338">
        <time>2022-07-10T16:17:34Z</time>
      </trkpt>
      <trkpt lat="41.67975" lon="2.7735121">
        <time>2022-07-10T16:17:36Z</time>
      </trkpt>
      <trkpt lat="41.679672" lon="2.7734926">
        <time>2022-07-10T16:17:38Z</time>
      </trkpt>
      <trkpt lat="41.679592" lon="2.7734919">
        <time>2022-07-10T16:17:40Z</time>
      </trkpt>
      <trkpt lat="41.679512" lon="2.7735162">
        <time>2022-07-10T16:17:42Z</time>
      </trkpt>
      <trkpt lat="41.679432" lon="2.7735536">
        <time>2022-07-10T16:17:44Z</time>
      </trkpt>
      <trkpt lat="41.679344" lon="2.7735856">
        <time>2022-07-10T16:17:46Z</time>
      </trkpt>
      <trkpt lat="41.67924" lon="2.773603">
        <time>2022-07-10T16:17:48Z</time>
      </trkpt>
      <trkpt lat="41.679184" lon="2.7736084">
        <time>2022-07-10T16:17:49Z</time>
      </trkpt>
      <trkpt lat="41.679127" lon="2.7736125">
        <time>2022-07-10T16:17:50Z</time>
      </trkpt>
      <trkpt lat="41.679066" lon="2.7736156">
        <time>2022-07-10T16:17:51Z</time>
      </trkpt>
      <trkpt lat="41.679" lon="2.7736192">
        <time>2022-07-10T16:17:52Z</time>
      </trkpt>
      <trkpt lat="41.67894" lon="2.7736235">
        <time>2022-07-10T16:17:53Z</time>
      </trkpt>
      <trkpt lat="41.678875" lon="2.773628">
        <time>2022-07-10T16:17:54Z</time>
      </trkpt>
      <trkpt lat="41.67881" lon="2.7736318">
        <time>2022-07-10T16:17:55Z</time>
      </trkpt>
      <trkpt lat="41.67874" lon="2.7736359">
        <time>2022-07-10T16:17:56Z</time>
      </trkpt>
      <trkpt lat="41.678673" lon="2.773641">
        <time>2022-07-10T16:17:57Z</time>
      </trkpt>
      <trkpt lat="41.6786" lon="2.7736485">
        <time>2022-07-10T16:17:58Z</time>
      </trkpt>
      <trkpt lat="41.678535" lon="2.7736561">
        <time>2022-07-10T16:17:59Z</time>
      </trkpt>
      <trkpt lat="41.678474" lon="2.7736652">
        <time>2022-07-10T16:18:00Z</time>
      </trkpt>
      <trkpt lat="41.67841" lon="2.7736752">
        <time>2022-07-10T16:18:01Z</time>
      </trkpt>
      <trkpt lat="41.67835" lon="2.7736835">
        <time>2022-07-10T16:18:02Z</time>
      </trkpt>
      <trkpt lat="41.678284" lon="2.7736862">
        <time>2022-07-10T16:18:03Z</time>
      </trkpt>
      <trkpt lat="41.678226" lon="2.7736826">
        <time>2022-07-10T16:18:04Z</time>
      </trkpt>
      <trkpt lat="41.678173" lon="2.7736716">
        <time>2022-07-10T16:18:05Z</time>
      </trkpt>
      <trkpt lat="41.678123" lon="2.7736533">
        <time>2022-07-10T16:18:06Z</time>
      </trkpt>
      <trkpt lat="41.678074" lon="2.77363">
        <time>2022-07-10T16:18:07Z</time>
      </trkpt>
      <trkpt lat="41.67798" lon="2.773587">
        <time>2022-07-10T16:18:09Z</time>
      </trkpt>
      <trkpt lat="41.677883" lon="2.7735758">
        <time>2022-07-10T16:18:11Z</time>
      </trkpt>
      <trkpt lat="41.677788" lon="2.7736108">
        <time>2022-07-10T16:18:13Z</time>
      </trkpt>
      <trkpt lat="41.67775" lon="2.7736409">
        <time>2022-07-10T16:18:14Z</time>
      </trkpt>
      <trkpt lat="41.677685" lon="2.7737212">
        <time>2022-07-10T16:18:16Z</time>
      </trkpt>
      <trkpt lat="41.677624" lon="2.7738132">
        <time>2022-07-10T16:18:18Z</time>
      </trkpt>
      <trkpt lat="41.677517" lon="2.7739384">
        <time>2022-07-10T16:18:21Z</time>
      </trkpt>
      <trkpt lat="41.67744" lon="2.7740054">
        <time>2022-07-10T16:18:23Z</time>
      </trkpt>
      <trkpt lat="41.677357" lon="2.7740648">
        <time>2022-07-10T16:18:25Z</time>
      </trkpt>
      <trkpt lat="41.677277" lon="2.774124">
        <time>2022-07-10T16:18:27Z</time>
      </trkpt>
      <trkpt lat="41.677193" lon="2.7741876">
        <time>2022-07-10T16:18:29Z</time>
      </trkpt>
      <trkpt lat="41.6771" lon="2.7742572">
        <time>2022-07-10T16:18:31Z</time>
      </trkpt>
      <trkpt lat="41.677055" lon="2.7742932">
        <time>2022-07-10T16:18:32Z</time>
      </trkpt>
      <trkpt lat="41.677002" lon="2.7743318">
        <time>2022-07-10T16:18:33Z</time>
      </trkpt>
      <trkpt lat="41.67695" lon="2.7743704">
        <time>2022-07-10T16:18:34Z</time>
      </trkpt>
      <trkpt lat="41.676895" lon="2.7744098">
        <time>2022-07-10T16:18:35Z</time>
      </trkpt>
      <trkpt lat="41.676834" lon="2.774454">
        <time>2022-07-10T16:18:36Z</time>
      </trkpt>
      <trkpt lat="41.676777" lon="2.7744968">
        <time>2022-07-10T16:18:37Z</time>
      </trkpt>
      <trkpt lat="41.67672" lon="2.774542">
        <time>2022-07-10T16:18:38Z</time>
      </trkpt>
      <trkpt lat="41.676666" lon="2.7745912">
        <time>2022-07-10T16:18:39Z</time>
      </trkpt>
      <trkpt lat="41.676613" lon="2.774641">
        <time>2022-07-10T16:18:40Z</time>
      </trkpt>
      <trkpt lat="41.676563" lon="2.7746894">
        <time>2022-07-10T16:18:41Z</time>
      </trkpt>
      <trkpt lat="41.67651" lon="2.774737">
        <time>2022-07-10T16:18:42Z</time>
      </trkpt>
      <trkpt lat="41.67646" lon="2.774783">
        <time>2022-07-10T16:18:43Z</time>
      </trkpt>
      <trkpt lat="41.67641" lon="2.7748275">
        <time>2022-07-10T16:18:44Z</time>
      </trkpt>
      <trkpt lat="41.67636" lon="2.77487">
        <time>2022-07-10T16:18:45Z</time>
      </trkpt>
      <trkpt lat="41.676315" lon="2.7749097">
        <time>2022-07-10T16:18:46Z</time>
      </trkpt>
      <trkpt lat="41.67627" lon="2.7749488">
        <time>2022-07-10T16:18:47Z</time>
      </trkpt>
      <trkpt lat="41.676228" lon="2.7749865">
        <time>2022-07-10T16:18:48Z</time>
      </trkpt>
      <trkpt lat="41.676186" lon="2.775022">
        <time>2022-07-10T16:18:49Z</time>
      </trkpt>
      <trkpt lat="41.6761" lon="2.7750874">
        <time>2022-07-10T16:18:51Z</time>
      </trkpt>
      <trkpt lat="41.676018" lon="2.775144">
        <time>2022-07-10T16:18:53Z</time>
      </trkpt>
      <trkpt lat="41.675976" lon="2.7751698">
        <time>2022-07-10T16:18:54Z</time>
      </trkpt>
      <trkpt lat="41.675888" lon="2.7752154">
        <time>2022-07-10T16:18:56Z</time>
      </trkpt>
      <trkpt lat="41.675804" lon="2.7752557">
        <time>2022-07-10T16:18:58Z</time>
      </trkpt>
      <trkpt lat="41.67572" lon="2.7753026">
        <time>2022-07-10T16:19:00Z</time>
      </trkpt>
      <trkpt lat="41.675648" lon="2.7753692">
        <time>2022-07-10T16:19:02Z</time>
      </trkpt>
      <trkpt lat="41.675583" lon="2.775454">
        <time>2022-07-10T16:19:04Z</time>
      </trkpt>
      <trkpt lat="41.675526" lon="2.775548">
        <time>2022-07-10T16:19:06Z</time>
      </trkpt>
      <trkpt lat="41.675457" lon="2.7756388">
        <time>2022-07-10T16:19:08Z</time>
      </trkpt>
      <trkpt lat="41.675423" lon="2.775682">
        <time>2022-07-10T16:19:09Z</time>
      </trkpt>
      <trkpt lat="41.675346" lon="2.7757628">
        <time>2022-07-10T16:19:11Z</time>
      </trkpt>
      <trkpt lat="41.675304" lon="2.7758014">
        <time>2022-07-10T16:19:12Z</time>
      </trkpt>
      <trkpt lat="41.675224" lon="2.7758784">
        <time>2022-07-10T16:19:14Z</time>
      </trkpt>
      <trkpt lat="41.675137" lon="2.7759583">
        <time>2022-07-10T16:19:16Z</time>
      </trkpt>
      <trkpt lat="41.675095" lon="2.7759988">
        <time>2022-07-10T16:19:17Z</time>
      </trkpt>
      <trkpt lat="41.67505" lon="2.7760382">
        <time>2022-07-10T16:19:18Z</time>
      </trkpt>
      <trkpt lat="41.67501" lon="2.7760737">
        <time>2022-07-10T16:19:19Z</time>
      </trkpt>
      <trkpt lat="41.674927" lon="2.7761464">
        <time>2022-07-10T16:19:21Z</time>
      </trkpt>
      <trkpt lat="41.674885" lon="2.7761843">
        <time>2022-07-10T16:19:22Z</time>
      </trkpt>
      <trkpt lat="41.674843" lon="2.776223">
        <time>2022-07-10T16:19:23Z</time>
      </trkpt>
      <trkpt lat="41.674755" lon="2.7763033">
        <time>2022-07-10T16:19:25Z</time>
      </trkpt>
      <trkpt lat="41.674713" lon="2.7763443">
        <time>2022-07-10T16:19:26Z</time>
      </trkpt>
      <trkpt lat="41.674667" lon="2.7763858">
        <time>2022-07-10T16:19:27Z</time>
      </trkpt>
      <trkpt lat="41.67462" lon="2.776429">
        <time>2022-07-10T16:19:28Z</time>
      </trkpt>
      <trkpt lat="41.674576" lon="2.776469">
        <time>2022-07-10T16:19:29Z</time>
      </trkpt>
      <trkpt lat="41.67453" lon="2.7765093">
        <time>2022-07-10T16:19:30Z</time>
      </trkpt>
      <trkpt lat="41.674484" lon="2.7765503">
        <time>2022-07-10T16:19:31Z</time>
      </trkpt>
      <trkpt lat="41.67444" lon="2.7765923">
        <time>2022-07-10T16:19:32Z</time>
      </trkpt>
      <trkpt lat="41.67439" lon="2.7766378">
        <time>2022-07-10T16:19:33Z</time>
      </trkpt>
      <trkpt lat="41.67434" lon="2.77668">
        <time>2022-07-10T16:19:34Z</time>
      </trkpt>
      <trkpt lat="41.674294" lon="2.7767227">
        <time>2022-07-10T16:19:35Z</time>
      </trkpt>
      <trkpt lat="41.674248" lon="2.7767656">
        <time>2022-07-10T16:19:36Z</time>
      </trkpt>
      <trkpt lat="41.6742" lon="2.776809">
        <time>2022-07-10T16:19:37Z</time>
      </trkpt>
      <trkpt lat="41.674145" lon="2.7768552">
        <time>2022-07-10T16:19:38Z</time>
      </trkpt>
      <trkpt lat="41.674095" lon="2.7768986">
        <time>2022-07-10T16:19:39Z</time>
      </trkpt>
      <trkpt lat="41.674046" lon="2.7769423">
        <time>2022-07-10T16:19:40Z</time>
      </trkpt>
      <trkpt lat="41.673996" lon="2.776987">
        <time>2022-07-10T16:19:41Z</time>
      </trkpt>
      <trkpt lat="41.673943" lon="2.7770326">
        <time>2022-07-10T16:19:42Z</time>
      </trkpt>
      <trkpt lat="41.67389" lon="2.7770789">
        <time>2022-07-10T16:19:43Z</time>
      </trkpt>
      <trkpt lat="41.673836" lon="2.7771254">
        <time>2022-07-10T16:19:44Z</time>
      </trkpt>
      <trkpt lat="41.673782" lon="2.7771692">
        <time>2022-07-10T16:19:45Z</time>
      </trkpt>
      <trkpt lat="41.673725" lon="2.7772086">
        <time>2022-07-10T16:19:46Z</time>
      </trkpt>
      <trkpt lat="41.673668" lon="2.7772396">
        <time>2022-07-10T16:19:47Z</time>
      </trkpt>
      <trkpt lat="41.673607" lon="2.7772617">
        <time>2022-07-10T16:19:48Z</time>
      </trkpt>
      <trkpt lat="41.673546" lon="2.7772753">
        <time>2022-07-10T16:19:49Z</time>
      </trkpt>
      <trkpt lat="41.673492" lon="2.777284">
        <time>2022-07-10T16:19:50Z</time>
      </trkpt>
      <trkpt lat="41.673435" lon="2.7772915">
        <time>2022-07-10T16:19:51Z</time>
      </trkpt>
      <trkpt lat="41.673386" lon="2.7772982">
        <time>2022-07-10T16:19:52Z</time>
      </trkpt>
      <trkpt lat="41.673332" lon="2.7773054">
        <time>2022-07-10T16:19:53Z</time>
      </trkpt>
      <trkpt lat="41.673283" lon="2.777312">
        <time>2022-07-10T16:19:54Z</time>
      </trkpt>
      <trkpt lat="41.67319" lon="2.7773225">
        <time>2022-07-10T16:19:56Z</time>
      </trkpt>
      <trkpt lat="41.673145" lon="2.7773252">
        <time>2022-07-10T16:19:57Z</time>
      </trkpt>
      <trkpt lat="41.673058" lon="2.7773137">
        <time>2022-07-10T16:19:59Z</time>
      </trkpt>
      <trkpt lat="41.672985" lon="2.777278">
        <time>2022-07-10T16:20:01Z</time>
      </trkpt>
      <trkpt lat="41.672947" lon="2.7772312">
        <time>2022-07-10T16:20:03Z</time>
      </trkpt>
      <trkpt lat="41.67293" lon="2.7771852">
        <time>2022-07-10T16:20:06Z</time>
      </trkpt>
      <trkpt lat="41.672894" lon="2.7772238">
        <time>2022-07-10T16:22:30Z</time>
      </trkpt>
      <trkpt lat="41.67288" lon="2.7773116">
        <time>2022-07-10T16:22:34Z</time>
      </trkpt>
      <trkpt lat="41.67287" lon="2.777392">
        <time>2022-07-10T16:22:37Z</time>
      </trkpt>
      <trkpt lat="41.672874" lon="2.777477">
        <time>2022-07-10T16:22:40Z</time>
      </trkpt>
      <trkpt lat="41.67286" lon="2.7775507">
        <time>2022-07-10T16:22:43Z</time>
      </trkpt>
      <trkpt lat="41.67282" lon="2.7775986">
        <time>2022-07-10T16:22:46Z</time>
      </trkpt>
      <trkpt lat="41.672775" lon="2.7776213">
        <time>2022-07-10T16:22:49Z</time>
      </trkpt>
      <trkpt lat="41.672707" lon="2.7776263">
        <time>2022-07-10T16:22:53Z</time>
      </trkpt>
      <trkpt lat="41.672657" lon="2.777623">
        <time>2022-07-10T16:22:56Z</time>
      </trkpt>
      <trkpt lat="41.672604" lon="2.777623">
        <time>2022-07-10T16:22:59Z</time>
      </trkpt>
      <trkpt lat="41.672546" lon="2.777638">
        <time>2022-07-10T16:23:03Z</time>
      </trkpt>
      <trkpt lat="41.6725" lon="2.7776983">
        <time>2022-07-10T16:23:08Z</time>
      </trkpt>
      <trkpt lat="41.672455" lon="2.77774">
        <time>2022-07-10T16:23:12Z</time>
      </trkpt>
      <trkpt lat="41.67241" lon="2.7777812">
        <time>2022-07-10T16:23:16Z</time>
      </trkpt>
      <trkpt lat="41.672344" lon="2.7778187">
        <time>2022-07-10T16:23:20Z</time>
      </trkpt>
      <trkpt lat="41.672306" lon="2.77786">
        <time>2022-07-10T16:23:23Z</time>
      </trkpt>
      <trkpt lat="41.672253" lon="2.7779076">
        <time>2022-07-10T16:23:27Z</time>
      </trkpt>
      <trkpt lat="41.67221" lon="2.7779446">
        <time>2022-07-10T16:23:30Z</time>
      </trkpt>
      <trkpt lat="41.672157" lon="2.7779992">
        <time>2022-07-10T16:23:34Z</time>
      </trkpt>
      <trkpt lat="41.672115" lon="2.7780402">
        <time>2022-07-10T16:23:37Z</time>
      </trkpt>
      <trkpt lat="41.672062" lon="2.7780876">
        <time>2022-07-10T16:23:41Z</time>
      </trkpt>
      <trkpt lat="41.67201" lon="2.7781358">
        <time>2022-07-10T16:23:45Z</time>
      </trkpt>
      <trkpt lat="41.671967" lon="2.7781749">
        <time>2022-07-10T16:23:48Z</time>
      </trkpt>
      <trkpt lat="41.671917" lon="2.7782311">
        <time>2022-07-10T16:23:52Z</time>
      </trkpt>
      <trkpt lat="41.671875" lon="2.778272">
        <time>2022-07-10T16:23:55Z</time>
      </trkpt>
      <trkpt lat="41.67183" lon="2.778328">
        <time>2022-07-10T16:23:59Z</time>
      </trkpt>
      <trkpt lat="41.671776" lon="2.778384">
        <time>2022-07-10T16:24:03Z</time>
      </trkpt>
      <trkpt lat="41.67173" lon="2.7784245">
        <time>2022-07-10T16:24:07Z</time>
      </trkpt>
      <trkpt lat="41.67168" lon="2.7784646">
        <time>2022-07-10T16:24:11Z</time>
      </trkpt>
      <trkpt lat="41.67163" lon="2.7784982">
        <time>2022-07-10T16:24:14Z</time>
      </trkpt>
      <trkpt lat="41.671585" lon="2.778534">
        <time>2022-07-10T16:24:17Z</time>
      </trkpt>
      <trkpt lat="41.67154" lon="2.7785761">
        <time>2022-07-10T16:24:20Z</time>
      </trkpt>
      <trkpt lat="41.671486" lon="2.7786274">
        <time>2022-07-10T16:24:24Z</time>
      </trkpt>
      <trkpt lat="41.671448" lon="2.7786634">
        <time>2022-07-10T16:24:27Z</time>
      </trkpt>
      <trkpt lat="41.67139" lon="2.7787244">
        <time>2022-07-10T16:24:31Z</time>
      </trkpt>
      <trkpt lat="41.671345" lon="2.7787702">
        <time>2022-07-10T16:24:34Z</time>
      </trkpt>
      <trkpt lat="41.67129" lon="2.7788107">
        <time>2022-07-10T16:24:38Z</time>
      </trkpt>
      <trkpt lat="41.671234" lon="2.77885">
        <time>2022-07-10T16:24:42Z</time>
      </trkpt>
      <trkpt lat="41.671177" lon="2.7788923">
        <time>2022-07-10T16:24:46Z</time>
      </trkpt>
      <trkpt lat="41.671135" lon="2.778956">
        <time>2022-07-10T16:24:50Z</time>
      </trkpt>
      <trkpt lat="41.671085" lon="2.779008">
        <time>2022-07-10T16:24:54Z</time>
      </trkpt>
      <trkpt lat="41.671043" lon="2.7790544">
        <time>2022-07-10T16:24:57Z</time>
      </trkpt>
      <trkpt lat="41.671005" lon="2.7791042">
        <time>2022-07-10T16:25:00Z</time>
      </trkpt>
      <trkpt lat="41.67097" lon="2.7791512">
        <time>2022-07-10T16:25:03Z</time>
      </trkpt>
      <trkpt lat="41.67091" lon="2.7792006">
        <time>2022-07-10T16:25:07Z</time>
      </trkpt>
      <trkpt lat="41.670876" lon="2.7792358">
        <time>2022-07-10T16:25:10Z</time>
      </trkpt>
      <trkpt lat="41.67085" lon="2.779327">
        <time>2022-07-10T16:25:14Z</time>
      </trkpt>
      <trkpt lat="41.670834" lon="2.7794251">
        <time>2022-07-10T16:25:17Z</time>
      </trkpt>
      <trkpt lat="41.670826" lon="2.7794948">
        <time>2022-07-10T16:25:19Z</time>
      </trkpt>
      <trkpt lat="41.67083" lon="2.7795691">
        <time>2022-07-10T16:25:21Z</time>
      </trkpt>
      <trkpt lat="41.67085" lon="2.7796462">
        <time>2022-07-10T16:25:23Z</time>
      </trkpt>
      <trkpt lat="41.670868" lon="2.7797294">
        <time>2022-07-10T16:25:25Z</time>
      </trkpt>
      <trkpt lat="41.67089" lon="2.7798269">
        <time>2022-07-10T16:25:27Z</time>
      </trkpt>
      <trkpt lat="41.670918" lon="2.779946">
        <time>2022-07-10T16:25:29Z</time>
      </trkpt>
      <trkpt lat="41.670925" lon="2.7800183">
        <time>2022-07-10T16:25:30Z</time>
      </trkpt>
      <trkpt lat="41.67093" lon="2.7800937">
        <time>2022-07-10T16:25:31Z</time>
      </trkpt>
      <trkpt lat="41.67093" lon="2.7801735">
        <time>2022-07-10T16:25:32Z</time>
      </trkpt>
      <trkpt lat="41.670918" lon="2.7802544">
        <time>2022-07-10T16:25:33Z</time>
      </trkpt>
      <trkpt lat="41.6709" lon="2.7803345">
        <time>2022-07-10T16:25:34Z</time>
      </trkpt>
      <trkpt lat="41.67087" lon="2.7804122">
        <time>2022-07-10T16:25:35Z</time>
      </trkpt>
      <trkpt lat="41.670837" lon="2.7804797">
        <time>2022-07-10T16:25:36Z</time>
      </trkpt>
      <trkpt lat="41.6708" lon="2.780538">
        <time>2022-07-10T16:25:37Z</time>
      </trkpt>
      <trkpt lat="41.67075" lon="2.7805884">
        <time>2022-07-10T16:25:38Z</time>
      </trkpt>
      <trkpt lat="41.6707" lon="2.7806277">
        <time>2022-07-10T16:25:39Z</time>
      </trkpt>
      <trkpt lat="41.670643" lon="2.7806554">
        <time>2022-07-10T16:25:40Z</time>
      </trkpt>
      <trkpt lat="41.67058" lon="2.7806704">
        <time>2022-07-10T16:25:41Z</time>
      </trkpt>
      <trkpt lat="41.670452" lon="2.7806594">
        <time>2022-07-10T16:25:43Z</time>
      </trkpt>
      <trkpt lat="41.67039" lon="2.780635">
        <time>2022-07-10T16:25:44Z</time>
      </trkpt>
      <trkpt lat="41.67033" lon="2.7805986">
        <time>2022-07-10T16:25:45Z</time>
      </trkpt>
      <trkpt lat="41.670277" lon="2.7805538">
        <time>2022-07-10T16:25:46Z</time>
      </trkpt>
      <trkpt lat="41.67022" lon="2.7805002">
        <time>2022-07-10T16:25:47Z</time>
      </trkpt>
      <trkpt lat="41.67017" lon="2.7804384">
        <time>2022-07-10T16:25:48Z</time>
      </trkpt>
      <trkpt lat="41.670116" lon="2.78037">
        <time>2022-07-10T16:25:49Z</time>
      </trkpt>
      <trkpt lat="41.67007" lon="2.780296">
        <time>2022-07-10T16:25:50Z</time>
      </trkpt>
      <trkpt lat="41.67003" lon="2.7802188">
        <time>2022-07-10T16:25:51Z</time>
      </trkpt>
      <trkpt lat="41.669987" lon="2.7801387">
        <time>2022-07-10T16:25:52Z</time>
      </trkpt>
      <trkpt lat="41.66995" lon="2.7800589">
        <time>2022-07-10T16:25:53Z</time>
      </trkpt>
      <trkpt lat="41.66991" lon="2.7799797">
        <time>2022-07-10T16:25:54Z</time>
      </trkpt>
      <trkpt lat="41.669876" lon="2.7799034">
        <time>2022-07-10T16:25:55Z</time>
      </trkpt>
      <trkpt lat="41.66984" lon="2.7798295">
        <time>2022-07-10T16:25:56Z</time>
      </trkpt>
      <trkpt lat="41.669815" lon="2.7797582">
        <time>2022-07-10T16:25:57Z</time>
      </trkpt>
      <trkpt lat="41.669785" lon="2.7796898">
        <time>2022-07-10T16:25:58Z</time>
      </trkpt>
      <trkpt lat="41.669754" lon="2.779628">
        <time>2022-07-10T16:25:59Z</time>
      </trkpt>
      <trkpt lat="41.669716" lon="2.7795784">
        <time>2022-07-10T16:26:00Z</time>
      </trkpt>
      <trkpt lat="41.669674" lon="2.7795434">
        <time>2022-07-10T16:26:01Z</time>
      </trkpt>
      <trkpt lat="41.66959" lon="2.7795258">
        <time>2022-07-10T16:26:03Z</time>
      </trkpt>
      <trkpt lat="41.669502" lon="2.7795694">
        <time>2022-07-10T16:26:05Z</time>
      </trkpt>
      <trkpt lat="41.669456" lon="2.7796135">
        <time>2022-07-10T16:26:06Z</time>
      </trkpt>
      <trkpt lat="41.66941" lon="2.779664">
        <time>2022-07-10T16:26:07Z</time>
      </trkpt>
      <trkpt lat="41.669373" lon="2.779714">
        <time>2022-07-10T16:26:08Z</time>
      </trkpt>
      <trkpt lat="41.66933" lon="2.7797709">
        <time>2022-07-10T16:26:09Z</time>
      </trkpt>
      <trkpt lat="41.66929" lon="2.779832">
        <time>2022-07-10T16:26:10Z</time>
      </trkpt>
      <trkpt lat="41.669243" lon="2.7798972">
        <time>2022-07-10T16:26:11Z</time>
      </trkpt>
      <trkpt lat="41.6692" lon="2.7799628">
        <time>2022-07-10T16:26:12Z</time>
      </trkpt>
      <trkpt lat="41.66916" lon="2.7800233">
        <time>2022-07-10T16:26:13Z</time>
      </trkpt>
      <trkpt lat="41.669117" lon="2.7800834">
        <time>2022-07-10T16:26:14Z</time>
      </trkpt>
      <trkpt lat="41.669075" lon="2.7801404">
        <time>2022-07-10T16:26:15Z</time>
      </trkpt>
      <trkpt lat="41.669033" lon="2.7801957">
        <time>2022-07-10T16:26:16Z</time>
      </trkpt>
      <trkpt lat="41.668995" lon="2.780244">
        <time>2022-07-10T16:26:17Z</time>
      </trkpt>
      <trkpt lat="41.668957" lon="2.7802894">
        <time>2022-07-10T16:26:18Z</time>
      </trkpt>
      <trkpt lat="41.668922" lon="2.7803345">
        <time>2022-07-10T16:26:19Z</time>
      </trkpt>
      <trkpt lat="41.668865" lon="2.780417">
        <time>2022-07-10T16:26:21Z</time>
      </trkpt>
      <trkpt lat="41.66881" lon="2.7804658">
        <time>2022-07-10T16:26:23Z</time>
      </trkpt>
      <trkpt lat="41.668755" lon="2.7804735">
        <time>2022-07-10T16:26:26Z</time>
      </trkpt>
      <trkpt lat="41.66868" lon="2.7805421">
        <time>2022-07-10T16:27:20Z</time>
      </trkpt>
      <trkpt lat="41.668694" lon="2.7806194">
        <time>2022-07-10T16:27:23Z</time>
      </trkpt>
      <trkpt lat="41.668724" lon="2.780684">
        <time>2022-07-10T16:27:25Z</time>
      </trkpt>
      <trkpt lat="41.66875" lon="2.7807515">
        <time>2022-07-10T16:27:27Z</time>
      </trkpt>
      <trkpt lat="41.668774" lon="2.7808247">
        <time>2022-07-10T16:27:29Z</time>
      </trkpt>
      <trkpt lat="41.668793" lon="2.7808964">
        <time>2022-07-10T16:27:32Z</time>
      </trkpt>
      <trkpt lat="41.66888" lon="2.7810588">
        <time>2022-07-10T16:27:56Z</time>
      </trkpt>
      <trkpt lat="41.668907" lon="2.781127">
        <time>2022-07-10T16:27:58Z</time>
      </trkpt>
      <trkpt lat="41.668938" lon="2.781205">
        <time>2022-07-10T16:28:00Z</time>
      </trkpt>
      <trkpt lat="41.66897" lon="2.781291">
        <time>2022-07-10T16:28:02Z</time>
      </trkpt>
      <trkpt lat="41.669" lon="2.7813876">
        <time>2022-07-10T16:28:04Z</time>
      </trkpt>
      <trkpt lat="41.669025" lon="2.7814827">
        <time>2022-07-10T16:28:06Z</time>
      </trkpt>
      <trkpt lat="41.669052" lon="2.7815764">
        <time>2022-07-10T16:28:08Z</time>
      </trkpt>
      <trkpt lat="41.669075" lon="2.7816777">
        <time>2022-07-10T16:28:10Z</time>
      </trkpt>
      <trkpt lat="41.669098" lon="2.7817817">
        <time>2022-07-10T16:28:12Z</time>
      </trkpt>
      <trkpt lat="41.669113" lon="2.7818854">
        <time>2022-07-10T16:28:14Z</time>
      </trkpt>
      <trkpt lat="41.669125" lon="2.7819877">
        <time>2022-07-10T16:28:16Z</time>
      </trkpt>
      <trkpt lat="41.669136" lon="2.782079">
        <time>2022-07-10T16:28:18Z</time>
      </trkpt>
      <trkpt lat="41.669147" lon="2.7821705">
        <time>2022-07-10T16:28:20Z</time>
      </trkpt>
      <trkpt lat="41.669155" lon="2.7822506">
        <time>2022-07-10T16:28:22Z</time>
      </trkpt>
      <trkpt lat="41.669163" lon="2.782316">
        <time>2022-07-10T16:28:24Z</time>
      </trkpt>
      <trkpt lat="41.669174" lon="2.7823782">
        <time>2022-07-10T16:28:29Z</time>
      </trkpt>
      <trkpt lat="41.669228" lon="2.7824492">
        <time>2022-07-10T16:28:34Z</time>
      </trkpt>
      <trkpt lat="41.669273" lon="2.7825372">
        <time>2022-07-10T16:28:37Z</time>
      </trkpt>
      <trkpt lat="41.669292" lon="2.7826123">
        <time>2022-07-10T16:28:39Z</time>
      </trkpt>
      <trkpt lat="41.669304" lon="2.7826934">
        <time>2022-07-10T16:28:41Z</time>
      </trkpt>
      <trkpt lat="41.669315" lon="2.7827775">
        <time>2022-07-10T16:28:43Z</time>
      </trkpt>
      <trkpt lat="41.669323" lon="2.7828705">
        <time>2022-07-10T16:28:45Z</time>
      </trkpt>
      <trkpt lat="41.669327" lon="2.7829647">
        <time>2022-07-10T16:28:47Z</time>
      </trkpt>
      <trkpt lat="41.669334" lon="2.783062">
        <time>2022-07-10T16:28:49Z</time>
      </trkpt>
      <trkpt lat="41.669346" lon="2.7831607">
        <time>2022-07-10T16:28:51Z</time>
      </trkpt>
      <trkpt lat="41.669353" lon="2.783263">
        <time>2022-07-10T16:28:53Z</time>
      </trkpt>
      <trkpt lat="41.669357" lon="2.7833683">
        <time>2022-07-10T16:28:55Z</time>
      </trkpt>
      <trkpt lat="41.669365" lon="2.7834764">
        <time>2022-07-10T16:28:57Z</time>
      </trkpt>
      <trkpt lat="41.669373" lon="2.7835872">
        <time>2022-07-10T16:28:59Z</time>
      </trkpt>
      <trkpt lat="41.66938" lon="2.7836995">
        <time>2022-07-10T16:29:01Z</time>
      </trkpt>
      <trkpt lat="41.66939" lon="2.783814">
        <time>2022-07-10T16:29:03Z</time>
      </trkpt>
      <trkpt lat="41.6694" lon="2.7839255">
        <time>2022-07-10T16:29:05Z</time>
      </trkpt>
      <trkpt lat="41.669407" lon="2.784039">
        <time>2022-07-10T16:29:07Z</time>
      </trkpt>
      <trkpt lat="41.66941" lon="2.7841542">
        <time>2022-07-10T16:29:09Z</time>
      </trkpt>
      <trkpt lat="41.66942" lon="2.784272">
        <time>2022-07-10T16:29:11Z</time>
      </trkpt>
      <trkpt lat="41.669426" lon="2.7843907">
        <time>2022-07-10T16:29:13Z</time>
      </trkpt>
      <trkpt lat="41.669434" lon="2.7845073">
        <time>2022-07-10T16:29:15Z</time>
      </trkpt>
      <trkpt lat="41.66944" lon="2.784616">
        <time>2022-07-10T16:29:17Z</time>
      </trkpt>
      <trkpt lat="41.669456" lon="2.7847202">
        <time>2022-07-10T16:29:19Z</time>
      </trkpt>
      <trkpt lat="41.66947" lon="2.784827">
        <time>2022-07-10T16:29:21Z</time>
      </trkpt>
      <trkpt lat="41.66949" lon="2.7849255">
        <time>2022-07-10T16:29:23Z</time>
      </trkpt>
      <trkpt lat="41.669518" lon="2.7850213">
        <time>2022-07-10T16:29:25Z</time>
      </trkpt>
      <trkpt lat="41.669556" lon="2.7851162">
        <time>2022-07-10T16:29:27Z</time>
      </trkpt>
      <trkpt lat="41.669594" lon="2.7852151">
        <time>2022-07-10T16:29:29Z</time>
      </trkpt>
      <trkpt lat="41.66963" lon="2.7853212">
        <time>2022-07-10T16:29:31Z</time>
      </trkpt>
      <trkpt lat="41.66965" lon="2.7854292">
        <time>2022-07-10T16:29:33Z</time>
      </trkpt>
      <trkpt lat="41.66967" lon="2.7855375">
        <time>2022-07-10T16:29:35Z</time>
      </trkpt>
      <trkpt lat="41.66969" lon="2.7856421">
        <time>2022-07-10T16:29:37Z</time>
      </trkpt>
      <trkpt lat="41.66971" lon="2.7857401">
        <time>2022-07-10T16:29:39Z</time>
      </trkpt>
      <trkpt lat="41.669727" lon="2.7858396">
        <time>2022-07-10T16:29:41Z</time>
      </trkpt>
      <trkpt lat="41.66975" lon="2.7859423">
        <time>2022-07-10T16:29:43Z</time>
      </trkpt>
      <trkpt lat="41.669765" lon="2.7860484">
        <time>2022-07-10T16:29:45Z</time>
      </trkpt>
      <trkpt lat="41.669777" lon="2.7861595">
        <time>2022-07-10T16:29:47Z</time>
      </trkpt>
      <trkpt lat="41.669785" lon="2.7862706">
        <time>2022-07-10T16:29:49Z</time>
      </trkpt>
      <trkpt lat="41.669777" lon="2.786445">
        <time>2022-07-10T16:29:52Z</time>
      </trkpt>
      <trkpt lat="41.66978" lon="2.7865646">
        <time>2022-07-10T16:29:54Z</time>
      </trkpt>
      <trkpt lat="41.66979" lon="2.7866852">
        <time>2022-07-10T16:29:56Z</time>
      </trkpt>
      <trkpt lat="41.669804" lon="2.7868054">
        <time>2022-07-10T16:29:58Z</time>
      </trkpt>
      <trkpt lat="41.669823" lon="2.786923">
        <time>2022-07-10T16:30:00Z</time>
      </trkpt>
      <trkpt lat="41.66984" lon="2.787041">
        <time>2022-07-10T16:30:02Z</time>
      </trkpt>
      <trkpt lat="41.66986" lon="2.7871575">
        <time>2022-07-10T16:30:04Z</time>
      </trkpt>
      <trkpt lat="41.669884" lon="2.7872713">
        <time>2022-07-10T16:30:06Z</time>
      </trkpt>
      <trkpt lat="41.66989" lon="2.7873652">
        <time>2022-07-10T16:30:08Z</time>
      </trkpt>
      <trkpt lat="41.669884" lon="2.7874274">
        <time>2022-07-10T16:30:10Z</time>
      </trkpt>
      <trkpt lat="41.669846" lon="2.7874892">
        <time>2022-07-10T16:30:13Z</time>
      </trkpt>
      <trkpt lat="41.669807" lon="2.7875788">
        <time>2022-07-10T16:30:16Z</time>
      </trkpt>
      <trkpt lat="41.669785" lon="2.7876449">
        <time>2022-07-10T16:30:18Z</time>
      </trkpt>
      <trkpt lat="41.669765" lon="2.7876978">
        <time>2022-07-10T16:30:20Z</time>
      </trkpt>
      <trkpt lat="41.669727" lon="2.7877657">
        <time>2022-07-10T16:30:23Z</time>
      </trkpt>
      <trkpt lat="41.66969" lon="2.7878542">
        <time>2022-07-10T16:30:26Z</time>
      </trkpt>
      <trkpt lat="41.66968" lon="2.7879322">
        <time>2022-07-10T16:30:28Z</time>
      </trkpt>
      <trkpt lat="41.66969" lon="2.7880154">
        <time>2022-07-10T16:30:30Z</time>
      </trkpt>
      <trkpt lat="41.669727" lon="2.7880957">
        <time>2022-07-10T16:30:32Z</time>
      </trkpt>
      <trkpt lat="41.66977" lon="2.78816">
        <time>2022-07-10T16:30:34Z</time>
      </trkpt>
      <trkpt lat="41.66982" lon="2.7882185">
        <time>2022-07-10T16:30:36Z</time>
      </trkpt>
      <trkpt lat="41.66986" lon="2.7882771">
        <time>2022-07-10T16:30:38Z</time>
      </trkpt>
      <trkpt lat="41.66989" lon="2.7883356">
        <time>2022-07-10T16:30:40Z</time>
      </trkpt>
      <trkpt lat="41.669907" lon="2.7884152">
        <time>2022-07-10T16:30:43Z</time>
      </trkpt>
      <trkpt lat="41.66992" lon="2.7884755">
        <time>2022-07-10T16:30:46Z</time>
      </trkpt>
      <trkpt lat="41.669903" lon="2.7884111">
        <time>2022-07-10T16:36:11Z</time>
      </trkpt>
      <trkpt lat="41.669914" lon="2.7883618">
        <time>2022-07-10T16:36:14Z</time>
      </trkpt>
      <trkpt lat="41.66997" lon="2.788401">
        <time>2022-07-10T16:36:18Z</time>
      </trkpt>
      <trkpt lat="41.670025" lon="2.7884681">
        <time>2022-07-10T16:36:21Z</time>
      </trkpt>
      <trkpt lat="41.67006" lon="2.7885199">
        <time>2022-07-10T16:36:23Z</time>
      </trkpt>
      <trkpt lat="41.67009" lon="2.7885797">
        <time>2022-07-10T16:36:25Z</time>
      </trkpt>
      <trkpt lat="41.670128" lon="2.7886627">
        <time>2022-07-10T16:36:28Z</time>
      </trkpt>
      <trkpt lat="41.67017" lon="2.7887414">
        <time>2022-07-10T16:36:31Z</time>
      </trkpt>
      <trkpt lat="41.6702" lon="2.7887971">
        <time>2022-07-10T16:36:33Z</time>
      </trkpt>
      <trkpt lat="41.670235" lon="2.788855">
        <time>2022-07-10T16:36:35Z</time>
      </trkpt>
      <trkpt lat="41.67027" lon="2.788912">
        <time>2022-07-10T16:36:37Z</time>
      </trkpt>
      <trkpt lat="41.67031" lon="2.788964">
        <time>2022-07-10T16:36:39Z</time>
      </trkpt>
      <trkpt lat="41.670357" lon="2.7890182">
        <time>2022-07-10T16:36:41Z</time>
      </trkpt>
      <trkpt lat="41.6704" lon="2.789072">
        <time>2022-07-10T16:36:43Z</time>
      </trkpt>
      <trkpt lat="41.67044" lon="2.789127">
        <time>2022-07-10T16:36:45Z</time>
      </trkpt>
      <trkpt lat="41.670483" lon="2.7891834">
        <time>2022-07-10T16:36:47Z</time>
      </trkpt>
      <trkpt lat="41.67053" lon="2.7892425">
        <time>2022-07-10T16:36:49Z</time>
      </trkpt>
      <trkpt lat="41.67057" lon="2.7892997">
        <time>2022-07-10T16:36:51Z</time>
      </trkpt>
      <trkpt lat="41.670616" lon="2.7893522">
        <time>2022-07-10T16:36:53Z</time>
      </trkpt>
      <trkpt lat="41.67066" lon="2.7894027">
        <time>2022-07-10T16:36:55Z</time>
      </trkpt>
      <trkpt lat="41.670696" lon="2.789452">
        <time>2022-07-10T16:36:57Z</time>
      </trkpt>
      <trkpt lat="41.67073" lon="2.7894967">
        <time>2022-07-10T16:36:59Z</time>
      </trkpt>
      <trkpt lat="41.670776" lon="2.7895443">
        <time>2022-07-10T16:37:02Z</time>
      </trkpt>
      <trkpt lat="41.67083" lon="2.7895517">
        <time>2022-07-10T16:37:07Z</time>
      </trkpt>
      <trkpt lat="41.67088" lon="2.789514">
        <time>2022-07-10T16:37:11Z</time>
      </trkpt>
      <trkpt lat="41.670925" lon="2.7894788">
        <time>2022-07-10T16:37:15Z</time>
      </trkpt>
      <trkpt lat="41.67096" lon="2.7894292">
        <time>2022-07-10T16:37:20Z</time>
      </trkpt>
      <trkpt lat="41.670933" lon="2.7893634">
        <time>2022-07-10T16:37:25Z</time>
      </trkpt>
      <trkpt lat="41.6708" lon="2.7892487">
        <time>2022-07-10T16:38:04Z</time>
      </trkpt>
      <trkpt lat="41.67074" lon="2.789191">
        <time>2022-07-10T16:38:08Z</time>
      </trkpt>
      <trkpt lat="41.670696" lon="2.7891347">
        <time>2022-07-10T16:38:11Z</time>
      </trkpt>
      <trkpt lat="41.67065" lon="2.789078">
        <time>2022-07-10T16:38:14Z</time>
      </trkpt>
      <trkpt lat="41.670605" lon="2.7890265">
        <time>2022-07-10T16:38:17Z</time>
      </trkpt>
      <trkpt lat="41.670567" lon="2.7890117">
        <time>2022-07-10T16:38:21Z</time>
      </trkpt>
      <trkpt lat="41.670563" lon="2.789086">
        <time>2022-07-10T16:38:26Z</time>
      </trkpt>
      <trkpt lat="41.6706" lon="2.7891388">
        <time>2022-07-10T16:38:29Z</time>
      </trkpt>
      <trkpt lat="41.67066" lon="2.7891822">
        <time>2022-07-10T16:38:32Z</time>
      </trkpt>
      <trkpt lat="41.67071" lon="2.7892225">
        <time>2022-07-10T16:38:35Z</time>
      </trkpt>
      <trkpt lat="41.670753" lon="2.7892668">
        <time>2022-07-10T16:38:38Z</time>
      </trkpt>
      <trkpt lat="41.670795" lon="2.7893183">
        <time>2022-07-10T16:38:41Z</time>
      </trkpt>
      <trkpt lat="41.67084" lon="2.7893724">
        <time>2022-07-10T16:38:44Z</time>
      </trkpt>
      <trkpt lat="41.670868" lon="2.7894154">
        <time>2022-07-10T16:38:47Z</time>
      </trkpt>
      <trkpt lat="41.67094" lon="2.7893422">
        <time>2022-07-10T16:40:44Z</time>
      </trkpt>
      <trkpt lat="41.67091" lon="2.7892785">
        <time>2022-07-10T16:40:50Z</time>
      </trkpt>
      <trkpt lat="41.671555" lon="2.7890031">
        <time>2022-07-10T16:42:03Z</time>
      </trkpt>
      <trkpt lat="41.67088" lon="2.789436">
        <time>2022-07-10T16:53:37Z</time>
      </trkpt>
      <trkpt lat="41.670876" lon="2.7894998">
        <time>2022-07-10T16:53:42Z</time>
      </trkpt>
      <trkpt lat="41.67087" lon="2.7895658">
        <time>2022-07-10T16:55:56Z</time>
      </trkpt>
      <trkpt lat="41.670918" lon="2.7896562">
        <time>2022-07-10T16:55:59Z</time>
      </trkpt>
      <trkpt lat="41.67095" lon="2.7897253">
        <time>2022-07-10T16:56:01Z</time>
      </trkpt>
      <trkpt lat="41.670994" lon="2.7897904">
        <time>2022-07-10T16:56:03Z</time>
      </trkpt>
      <trkpt lat="41.67104" lon="2.7898505">
        <time>2022-07-10T16:56:05Z</time>
      </trkpt>
      <trkpt lat="41.671085" lon="2.789906">
        <time>2022-07-10T16:56:07Z</time>
      </trkpt>
      <trkpt lat="41.67114" lon="2.7899613">
        <time>2022-07-10T16:56:09Z</time>
      </trkpt>
      <trkpt lat="41.671192" lon="2.7900183">
        <time>2022-07-10T16:56:11Z</time>
      </trkpt>
      <trkpt lat="41.67125" lon="2.7900693">
        <time>2022-07-10T16:56:13Z</time>
      </trkpt>
      <trkpt lat="41.671307" lon="2.7901144">
        <time>2022-07-10T16:56:15Z</time>
      </trkpt>
      <trkpt lat="41.671364" lon="2.7901545">
        <time>2022-07-10T16:56:17Z</time>
      </trkpt>
      <trkpt lat="41.671425" lon="2.7901933">
        <time>2022-07-10T16:56:19Z</time>
      </trkpt>
      <trkpt lat="41.67149" lon="2.7902322">
        <time>2022-07-10T16:56:21Z</time>
      </trkpt>
      <trkpt lat="41.671555" lon="2.7902687">
        <time>2022-07-10T16:56:23Z</time>
      </trkpt>
      <trkpt lat="41.671627" lon="2.7903101">
        <time>2022-07-10T16:56:25Z</time>
      </trkpt>
      <trkpt lat="41.6717" lon="2.7903507">
        <time>2022-07-10T16:56:27Z</time>
      </trkpt>
      <trkpt lat="41.671776" lon="2.7903914">
        <time>2022-07-10T16:56:29Z</time>
      </trkpt>
      <trkpt lat="41.671844" lon="2.7904284">
        <time>2022-07-10T16:56:31Z</time>
      </trkpt>
      <trkpt lat="41.6719" lon="2.7904618">
        <time>2022-07-10T16:56:33Z</time>
      </trkpt>
      <trkpt lat="41.67196" lon="2.7904928">
        <time>2022-07-10T16:56:35Z</time>
      </trkpt>
      <trkpt lat="41.672012" lon="2.790513">
        <time>2022-07-10T16:56:37Z</time>
      </trkpt>
      <trkpt lat="41.67207" lon="2.7905197">
        <time>2022-07-10T16:56:39Z</time>
      </trkpt>
      <trkpt lat="41.672127" lon="2.7905111">
        <time>2022-07-10T16:56:41Z</time>
      </trkpt>
      <trkpt lat="41.672173" lon="2.790492">
        <time>2022-07-10T16:56:43Z</time>
      </trkpt>
      <trkpt lat="41.67223" lon="2.7904444">
        <time>2022-07-10T16:56:46Z</time>
      </trkpt>
      <trkpt lat="41.672268" lon="2.7903981">
        <time>2022-07-10T16:56:49Z</time>
      </trkpt>
      <trkpt lat="41.672318" lon="2.790359">
        <time>2022-07-10T16:56:53Z</time>
      </trkpt>
      <trkpt lat="41.67239" lon="2.7903361">
        <time>2022-07-10T16:56:57Z</time>
      </trkpt>
      <trkpt lat="41.672474" lon="2.790297">
        <time>2022-07-10T16:57:01Z</time>
      </trkpt>
      <trkpt lat="41.672543" lon="2.7902846">
        <time>2022-07-10T16:57:04Z</time>
      </trkpt>
      <trkpt lat="41.672615" lon="2.7902796">
        <time>2022-07-10T16:57:07Z</time>
      </trkpt>
      <trkpt lat="41.672684" lon="2.7902625">
        <time>2022-07-10T16:57:10Z</time>
      </trkpt>
      <trkpt lat="41.67275" lon="2.7902427">
        <time>2022-07-10T16:57:13Z</time>
      </trkpt>
      <trkpt lat="41.672817" lon="2.79023">
        <time>2022-07-10T16:57:16Z</time>
      </trkpt>
      <trkpt lat="41.672882" lon="2.790213">
        <time>2022-07-10T16:57:19Z</time>
      </trkpt>
      <trkpt lat="41.672955" lon="2.7901983">
        <time>2022-07-10T16:57:22Z</time>
      </trkpt>
      <trkpt lat="41.673008" lon="2.7901962">
        <time>2022-07-10T16:57:24Z</time>
      </trkpt>
      <trkpt lat="41.673058" lon="2.7901917">
        <time>2022-07-10T16:57:26Z</time>
      </trkpt>
      <trkpt lat="41.673122" lon="2.790183">
        <time>2022-07-10T16:57:29Z</time>
      </trkpt>
      <trkpt lat="41.67319" lon="2.7901714">
        <time>2022-07-10T16:57:33Z</time>
      </trkpt>
      <trkpt lat="41.673264" lon="2.7901795">
        <time>2022-07-10T16:57:36Z</time>
      </trkpt>
      <trkpt lat="41.673332" lon="2.790174">
        <time>2022-07-10T16:57:39Z</time>
      </trkpt>
      <trkpt lat="41.67338" lon="2.7901678">
        <time>2022-07-10T16:57:41Z</time>
      </trkpt>
      <trkpt lat="41.673435" lon="2.7901576">
        <time>2022-07-10T16:57:43Z</time>
      </trkpt>
      <trkpt lat="41.67349" lon="2.7901464">
        <time>2022-07-10T16:57:45Z</time>
      </trkpt>
      <trkpt lat="41.673542" lon="2.7901328">
        <time>2022-07-10T16:57:47Z</time>
      </trkpt>
      <trkpt lat="41.67359" lon="2.7901192">
        <time>2022-07-10T16:57:49Z</time>
      </trkpt>
      <trkpt lat="41.673668" lon="2.79009">
        <time>2022-07-10T16:57:52Z</time>
      </trkpt>
      <trkpt lat="41.673717" lon="2.7900789">
        <time>2022-07-10T16:57:54Z</time>
      </trkpt>
      <trkpt lat="41.673763" lon="2.7900667">
        <time>2022-07-10T16:57:56Z</time>
      </trkpt>
      <trkpt lat="41.673824" lon="2.7900538">
        <time>2022-07-10T16:57:59Z</time>
      </trkpt>
      <trkpt lat="41.673885" lon="2.7900648">
        <time>2022-07-10T16:58:02Z</time>
      </trkpt>
      <trkpt lat="41.673946" lon="2.7900655">
        <time>2022-07-10T16:58:05Z</time>
      </trkpt>
      <trkpt lat="41.674" lon="2.7900517">
        <time>2022-07-10T16:58:08Z</time>
      </trkpt>
      <trkpt lat="41.67406" lon="2.7900288">
        <time>2022-07-10T16:58:11Z</time>
      </trkpt>
      <trkpt lat="41.674114" lon="2.789983">
        <time>2022-07-10T16:58:14Z</time>
      </trkpt>
      <trkpt lat="41.674175" lon="2.7899399">
        <time>2022-07-10T16:58:17Z</time>
      </trkpt>
      <trkpt lat="41.674232" lon="2.7899299">
        <time>2022-07-10T16:58:19Z</time>
      </trkpt>
      <trkpt lat="41.67429" lon="2.7899168">
        <time>2022-07-10T16:58:21Z</time>
      </trkpt>
      <trkpt lat="41.674335" lon="2.7898982">
        <time>2022-07-10T16:58:23Z</time>
      </trkpt>
      <trkpt lat="41.674385" lon="2.7898912">
        <time>2022-07-10T16:58:25Z</time>
      </trkpt>
      <trkpt lat="41.67445" lon="2.7899294">
        <time>2022-07-10T16:58:28Z</time>
      </trkpt>
      <trkpt lat="41.674507" lon="2.7899928">
        <time>2022-07-10T16:58:31Z</time>
      </trkpt>
      <trkpt lat="41.674545" lon="2.7900467">
        <time>2022-07-10T16:58:33Z</time>
      </trkpt>
      <trkpt lat="41.674587" lon="2.7901094">
        <time>2022-07-10T16:58:35Z</time>
      </trkpt>
      <trkpt lat="41.67463" lon="2.7901773">
        <time>2022-07-10T16:58:37Z</time>
      </trkpt>
      <trkpt lat="41.67467" lon="2.7902482">
        <time>2022-07-10T16:58:39Z</time>
      </trkpt>
      <trkpt lat="41.67473" lon="2.7903154">
        <time>2022-07-10T16:58:41Z</time>
      </trkpt>
      <trkpt lat="41.674786" lon="2.7903833">
        <time>2022-07-10T16:58:43Z</time>
      </trkpt>
      <trkpt lat="41.674835" lon="2.7904553">
        <time>2022-07-10T16:58:45Z</time>
      </trkpt>
      <trkpt lat="41.674873" lon="2.7905247">
        <time>2022-07-10T16:58:47Z</time>
      </trkpt>
      <trkpt lat="41.674908" lon="2.7905858">
        <time>2022-07-10T16:58:49Z</time>
      </trkpt>
      <trkpt lat="41.674957" lon="2.7906365">
        <time>2022-07-10T16:58:51Z</time>
      </trkpt>
      <trkpt lat="41.675" lon="2.7906902">
        <time>2022-07-10T16:58:53Z</time>
      </trkpt>
      <trkpt lat="41.67503" lon="2.790755">
        <time>2022-07-10T16:58:55Z</time>
      </trkpt>
      <trkpt lat="41.675068" lon="2.7908144">
        <time>2022-07-10T16:58:57Z</time>
      </trkpt>
      <trkpt lat="41.6751" lon="2.7908838">
        <time>2022-07-10T16:58:59Z</time>
      </trkpt>
      <trkpt lat="41.675137" lon="2.7909968">
        <time>2022-07-10T16:59:02Z</time>
      </trkpt>
      <trkpt lat="41.675163" lon="2.7910497">
        <time>2022-07-10T16:59:04Z</time>
      </trkpt>
      <trkpt lat="41.675186" lon="2.7911031">
        <time>2022-07-10T16:59:07Z</time>
      </trkpt>
      <trkpt lat="41.675236" lon="2.791098">
        <time>2022-07-10T16:59:12Z</time>
      </trkpt>
      <trkpt lat="41.675293" lon="2.791053">
        <time>2022-07-10T16:59:18Z</time>
      </trkpt>
      <trkpt lat="41.675343" lon="2.791021">
        <time>2022-07-10T16:59:21Z</time>
      </trkpt>
      <trkpt lat="41.675396" lon="2.791008">
        <time>2022-07-10T16:59:24Z</time>
      </trkpt>
      <trkpt lat="41.675446" lon="2.7910314">
        <time>2022-07-10T16:59:27Z</time>
      </trkpt>
      <trkpt lat="41.675503" lon="2.7910943">
        <time>2022-07-10T16:59:31Z</time>
      </trkpt>
      <trkpt lat="41.675545" lon="2.7911608">
        <time>2022-07-10T16:59:34Z</time>
      </trkpt>
      <trkpt lat="41.675583" lon="2.791234">
        <time>2022-07-10T16:59:37Z</time>
      </trkpt>
      <trkpt lat="41.675625" lon="2.791301">
        <time>2022-07-10T16:59:40Z</time>
      </trkpt>
      <trkpt lat="41.67566" lon="2.7913468">
        <time>2022-07-10T16:59:42Z</time>
      </trkpt>
      <trkpt lat="41.67571" lon="2.7914155">
        <time>2022-07-10T16:59:45Z</time>
      </trkpt>
      <trkpt lat="41.675766" lon="2.7914643">
        <time>2022-07-10T16:59:48Z</time>
      </trkpt>
      <trkpt lat="41.67581" lon="2.7914894">
        <time>2022-07-10T16:59:50Z</time>
      </trkpt>
      <trkpt lat="41.67586" lon="2.7915478">
        <time>2022-07-10T16:59:53Z</time>
      </trkpt>
      <trkpt lat="41.675903" lon="2.79161">
        <time>2022-07-10T16:59:56Z</time>
      </trkpt>
      <trkpt lat="41.675957" lon="2.7916658">
        <time>2022-07-10T16:59:59Z</time>
      </trkpt>
      <trkpt lat="41.67601" lon="2.7917173">
        <time>2022-07-10T17:00:02Z</time>
      </trkpt>
      <trkpt lat="41.676056" lon="2.7917733">
        <time>2022-07-10T17:00:05Z</time>
      </trkpt>
      <trkpt lat="41.67609" lon="2.7918353">
        <time>2022-07-10T17:00:08Z</time>
      </trkpt>
      <trkpt lat="41.676136" lon="2.7918847">
        <time>2022-07-10T17:00:11Z</time>
      </trkpt>
      <trkpt lat="41.676178" lon="2.7919354">
        <time>2022-07-10T17:00:14Z</time>
      </trkpt>
      <trkpt lat="41.67621" lon="2.791999">
        <time>2022-07-10T17:00:17Z</time>
      </trkpt>
      <trkpt lat="41.67625" lon="2.7920554">
        <time>2022-07-10T17:00:20Z</time>
      </trkpt>
      <trkpt lat="41.67629" lon="2.7921164">
        <time>2022-07-10T17:00:23Z</time>
      </trkpt>
      <trkpt lat="41.676323" lon="2.7921746">
        <time>2022-07-10T17:00:26Z</time>
      </trkpt>
      <trkpt lat="41.676357" lon="2.7922256">
        <time>2022-07-10T17:00:29Z</time>
      </trkpt>
      <trkpt lat="41.6764" lon="2.7923038">
        <time>2022-07-10T17:00:33Z</time>
      </trkpt>
      <trkpt lat="41.67644" lon="2.792353">
        <time>2022-07-10T17:00:36Z</time>
      </trkpt>
      <trkpt lat="41.67648" lon="2.7923963">
        <time>2022-07-10T17:00:39Z</time>
      </trkpt>
      <trkpt lat="41.67653" lon="2.7924516">
        <time>2022-07-10T17:00:43Z</time>
      </trkpt>
      <trkpt lat="41.67658" lon="2.7925057">
        <time>2022-07-10T17:00:47Z</time>
      </trkpt>
      <trkpt lat="41.676636" lon="2.7925546">
        <time>2022-07-10T17:00:51Z</time>
      </trkpt>
      <trkpt lat="41.676678" lon="2.7925956">
        <time>2022-07-10T17:00:54Z</time>
      </trkpt>
      <trkpt lat="41.676712" lon="2.7926674">
        <time>2022-07-10T17:00:58Z</time>
      </trkpt>
      <trkpt lat="41.676754" lon="2.7927296">
        <time>2022-07-10T17:01:02Z</time>
      </trkpt>
      <trkpt lat="41.676796" lon="2.792793">
        <time>2022-07-10T17:01:06Z</time>
      </trkpt>
      <trkpt lat="41.67683" lon="2.7928383">
        <time>2022-07-10T17:01:09Z</time>
      </trkpt>
      <trkpt lat="41.676872" lon="2.792899">
        <time>2022-07-10T17:01:13Z</time>
      </trkpt>
      <trkpt lat="41.6769" lon="2.79295">
        <time>2022-07-10T17:01:16Z</time>
      </trkpt>
      <trkpt lat="41.676933" lon="2.7930152">
        <time>2022-07-10T17:01:20Z</time>
      </trkpt>
      <trkpt lat="41.67696" lon="2.7930653">
        <time>2022-07-10T17:01:23Z</time>
      </trkpt>
      <trkpt lat="41.677002" lon="2.7931206">
        <time>2022-07-10T17:01:27Z</time>
      </trkpt>
      <trkpt lat="41.677036" lon="2.793192">
        <time>2022-07-10T17:01:31Z</time>
      </trkpt>
      <trkpt lat="41.677082" lon="2.7932456">
        <time>2022-07-10T17:01:35Z</time>
      </trkpt>
      <trkpt lat="41.67713" lon="2.7933047">
        <time>2022-07-10T17:01:39Z</time>
      </trkpt>
      <trkpt lat="41.677177" lon="2.7933447">
        <time>2022-07-10T17:01:43Z</time>
      </trkpt>
      <trkpt lat="41.677235" lon="2.793322">
        <time>2022-07-10T17:01:49Z</time>
      </trkpt>
      <trkpt lat="41.677273" lon="2.793269">
        <time>2022-07-10T17:01:53Z</time>
      </trkpt>
      <trkpt lat="41.67731" lon="2.7932136">
        <time>2022-07-10T17:01:57Z</time>
      </trkpt>
      <trkpt lat="41.67734" lon="2.7931538">
        <time>2022-07-10T17:02:01Z</time>
      </trkpt>
      <trkpt lat="41.67738" lon="2.7930796">
        <time>2022-07-10T17:02:06Z</time>
      </trkpt>
      <trkpt lat="41.677414" lon="2.7930193">
        <time>2022-07-10T17:02:10Z</time>
      </trkpt>
      <trkpt lat="41.67745" lon="2.792962">
        <time>2022-07-10T17:02:14Z</time>
      </trkpt>
      <trkpt lat="41.677483" lon="2.7928967">
        <time>2022-07-10T17:02:18Z</time>
      </trkpt>
      <trkpt lat="41.677513" lon="2.7928224">
        <time>2022-07-10T17:02:22Z</time>
      </trkpt>
      <trkpt lat="41.67755" lon="2.7927728">
        <time>2022-07-10T17:02:26Z</time>
      </trkpt>
      <trkpt lat="41.677616" lon="2.7927907">
        <time>2022-07-10T17:02:31Z</time>
      </trkpt>
      <trkpt lat="41.67767" lon="2.7928302">
        <time>2022-07-10T17:02:35Z</time>
      </trkpt>
      <trkpt lat="41.67772" lon="2.792871">
        <time>2022-07-10T17:02:39Z</time>
      </trkpt>
      <trkpt lat="41.677773" lon="2.7929037">
        <time>2022-07-10T17:02:43Z</time>
      </trkpt>
      <trkpt lat="41.677826" lon="2.7929432">
        <time>2022-07-10T17:02:47Z</time>
      </trkpt>
      <trkpt lat="41.677864" lon="2.7929757">
        <time>2022-07-10T17:02:50Z</time>
      </trkpt>
      <trkpt lat="41.67792" lon="2.7930195">
        <time>2022-07-10T17:02:54Z</time>
      </trkpt>
      <trkpt lat="41.677975" lon="2.793066">
        <time>2022-07-10T17:02:58Z</time>
      </trkpt>
      <trkpt lat="41.678032" lon="2.7931125">
        <time>2022-07-10T17:03:02Z</time>
      </trkpt>
      <trkpt lat="41.678085" lon="2.7931585">
        <time>2022-07-10T17:03:06Z</time>
      </trkpt>
      <trkpt lat="41.67814" lon="2.7931983">
        <time>2022-07-10T17:03:10Z</time>
      </trkpt>
      <trkpt lat="41.678192" lon="2.7932463">
        <time>2022-07-10T17:03:14Z</time>
      </trkpt>
      <trkpt lat="41.678238" lon="2.793293">
        <time>2022-07-10T17:03:17Z</time>
      </trkpt>
      <trkpt lat="41.678288" lon="2.7933326">
        <time>2022-07-10T17:03:20Z</time>
      </trkpt>
      <trkpt lat="41.678333" lon="2.7933722">
        <time>2022-07-10T17:03:23Z</time>
      </trkpt>
      <trkpt lat="41.678383" lon="2.7934055">
        <time>2022-07-10T17:03:26Z</time>
      </trkpt>
      <trkpt lat="41.678432" lon="2.7934432">
        <time>2022-07-10T17:03:29Z</time>
      </trkpt>
      <trkpt lat="41.67848" lon="2.7934809">
        <time>2022-07-10T17:03:32Z</time>
      </trkpt>
      <trkpt lat="41.678528" lon="2.7935176">
        <time>2022-07-10T17:03:35Z</time>
      </trkpt>
      <trkpt lat="41.678577" lon="2.793562">
        <time>2022-07-10T17:03:38Z</time>
      </trkpt>
      <trkpt lat="41.67862" lon="2.7936175">
        <time>2022-07-10T17:03:41Z</time>
      </trkpt>
      <trkpt lat="41.678658" lon="2.7936802">
        <time>2022-07-10T17:03:44Z</time>
      </trkpt>
      <trkpt lat="41.67868" lon="2.793752">
        <time>2022-07-10T17:03:47Z</time>
      </trkpt>
      <trkpt lat="41.678696" lon="2.7938244">
        <time>2022-07-10T17:03:50Z</time>
      </trkpt>
      <trkpt lat="41.67872" lon="2.7938888">
        <time>2022-07-10T17:03:53Z</time>
      </trkpt>
      <trkpt lat="41.678734" lon="2.7939441">
        <time>2022-07-10T17:03:56Z</time>
      </trkpt>
      <trkpt lat="41.678757" lon="2.7940152">
        <time>2022-07-10T17:04:00Z</time>
      </trkpt>
      <trkpt lat="41.678783" lon="2.7940893">
        <time>2022-07-10T17:04:04Z</time>
      </trkpt>
      <trkpt lat="41.67882" lon="2.7941663">
        <time>2022-07-10T17:04:08Z</time>
      </trkpt>
      <trkpt lat="41.678852" lon="2.7942276">
        <time>2022-07-10T17:04:11Z</time>
      </trkpt>
      <trkpt lat="41.67888" lon="2.7942848">
        <time>2022-07-10T17:04:14Z</time>
      </trkpt>
      <trkpt lat="41.67891" lon="2.7943633">
        <time>2022-07-10T17:04:18Z</time>
      </trkpt>
      <trkpt lat="41.678947" lon="2.7944288">
        <time>2022-07-10T17:04:22Z</time>
      </trkpt>
      <trkpt lat="41.67901" lon="2.794443">
        <time>2022-07-10T17:04:27Z</time>
      </trkpt>
      <trkpt lat="41.679054" lon="2.7944362">
        <time>2022-07-10T17:04:31Z</time>
      </trkpt>
      <trkpt lat="41.67904" lon="2.794444">
        <time>2022-07-10T17:06:47Z</time>
      </trkpt>
      <trkpt lat="41.679043" lon="2.7945125">
        <time>2022-07-10T17:06:50Z</time>
      </trkpt>
      <trkpt lat="41.67905" lon="2.7945955">
        <time>2022-07-10T17:06:53Z</time>
      </trkpt>
      <trkpt lat="41.679066" lon="2.7946675">
        <time>2022-07-10T17:06:56Z</time>
      </trkpt>
      <trkpt lat="41.67909" lon="2.7947278">
        <time>2022-07-10T17:06:59Z</time>
      </trkpt>
      <trkpt lat="41.679123" lon="2.7947853">
        <time>2022-07-10T17:07:02Z</time>
      </trkpt>
      <trkpt lat="41.67916" lon="2.7948568">
        <time>2022-07-10T17:07:06Z</time>
      </trkpt>
      <trkpt lat="41.67919" lon="2.7949252">
        <time>2022-07-10T17:07:10Z</time>
      </trkpt>
      <trkpt lat="41.67923" lon="2.7949924">
        <time>2022-07-10T17:07:14Z</time>
      </trkpt>
      <trkpt lat="41.679256" lon="2.7950578">
        <time>2022-07-10T17:07:18Z</time>
      </trkpt>
      <trkpt lat="41.67929" lon="2.7951212">
        <time>2022-07-10T17:07:22Z</time>
      </trkpt>
      <trkpt lat="41.67933" lon="2.7951863">
        <time>2022-07-10T17:07:26Z</time>
      </trkpt>
      <trkpt lat="41.679348" lon="2.7952528">
        <time>2022-07-10T17:07:30Z</time>
      </trkpt>
      <trkpt lat="41.67937" lon="2.7953265">
        <time>2022-07-10T17:07:34Z</time>
      </trkpt>
      <trkpt lat="41.679405" lon="2.7954018">
        <time>2022-07-10T17:07:38Z</time>
      </trkpt>
      <trkpt lat="41.679436" lon="2.7954698">
        <time>2022-07-10T17:07:42Z</time>
      </trkpt>
      <trkpt lat="41.679474" lon="2.7955315">
        <time>2022-07-10T17:07:46Z</time>
      </trkpt>
      <trkpt lat="41.679512" lon="2.7955987">
        <time>2022-07-10T17:07:50Z</time>
      </trkpt>
      <trkpt lat="41.67955" lon="2.7956655">
        <time>2022-07-10T17:07:54Z</time>
      </trkpt>
      <trkpt lat="41.67959" lon="2.795725">
        <time>2022-07-10T17:07:58Z</time>
      </trkpt>
      <trkpt lat="41.67962" lon="2.7957714">
        <time>2022-07-10T17:08:01Z</time>
      </trkpt>
      <trkpt lat="41.679657" lon="2.7958317">
        <time>2022-07-10T17:08:05Z</time>
      </trkpt>
      <trkpt lat="41.6797" lon="2.7958865">
        <time>2022-07-10T17:08:09Z</time>
      </trkpt>
      <trkpt lat="41.679745" lon="2.7959442">
        <time>2022-07-10T17:08:13Z</time>
      </trkpt>
      <trkpt lat="41.679775" lon="2.7959878">
        <time>2022-07-10T17:08:16Z</time>
      </trkpt>
      <trkpt lat="41.67982" lon="2.7960498">
        <time>2022-07-10T17:08:20Z</time>
      </trkpt>
      <trkpt lat="41.67985" lon="2.7961097">
        <time>2022-07-10T17:08:24Z</time>
      </trkpt>
      <trkpt lat="41.67989" lon="2.7961779">
        <time>2022-07-10T17:08:29Z</time>
      </trkpt>
      <trkpt lat="41.679913" lon="2.7962377">
        <time>2022-07-10T17:08:33Z</time>
      </trkpt>
      <trkpt lat="41.679928" lon="2.7962937">
        <time>2022-07-10T17:08:39Z</time>
      </trkpt>
      <trkpt lat="41.67998" lon="2.7964108">
        <time>2022-07-10T17:08:51Z</time>
      </trkpt>
      <trkpt lat="41.68004" lon="2.796551">
        <time>2022-07-10T17:09:14Z</time>
      </trkpt>
      <trkpt lat="41.68006" lon="2.7966168">
        <time>2022-07-10T17:09:19Z</time>
      </trkpt>
      <trkpt lat="41.680077" lon="2.7966805">
        <time>2022-07-10T17:09:24Z</time>
      </trkpt>
      <trkpt lat="41.6801" lon="2.7967544">
        <time>2022-07-10T17:09:31Z</time>
      </trkpt>
      <trkpt lat="41.68013" lon="2.7968235">
        <time>2022-07-10T17:09:37Z</time>
      </trkpt>
      <trkpt lat="41.68015" lon="2.7968824">
        <time>2022-07-10T17:09:43Z</time>
      </trkpt>
      <trkpt lat="41.68018" lon="2.7969477">
        <time>2022-07-10T17:09:49Z</time>
      </trkpt>
      <trkpt lat="41.6802" lon="2.7970114">
        <time>2022-07-10T17:09:54Z</time>
      </trkpt>
      <trkpt lat="41.68022" lon="2.7970772">
        <time>2022-07-10T17:09:59Z</time>
      </trkpt>
      <trkpt lat="41.68025" lon="2.797152">
        <time>2022-07-10T17:10:05Z</time>
      </trkpt>
      <trkpt lat="41.68028" lon="2.7972188">
        <time>2022-07-10T17:10:11Z</time>
      </trkpt>
      <trkpt lat="41.6803" lon="2.7972782">
        <time>2022-07-10T17:10:16Z</time>
      </trkpt>
      <trkpt lat="41.68033" lon="2.7973511">
        <time>2022-07-10T17:10:22Z</time>
      </trkpt>
      <trkpt lat="41.68035" lon="2.7974064">
        <time>2022-07-10T17:10:27Z</time>
      </trkpt>
      <trkpt lat="41.680374" lon="2.797473">
        <time>2022-07-10T17:10:33Z</time>
      </trkpt>
      <trkpt lat="41.680405" lon="2.7975323">
        <time>2022-07-10T17:10:40Z</time>
      </trkpt>
      <trkpt lat="41.68043" lon="2.7975974">
        <time>2022-07-10T17:10:46Z</time>
      </trkpt>
      <trkpt lat="41.680454" lon="2.7976577">
        <time>2022-07-10T17:10:52Z</time>
      </trkpt>
      <trkpt lat="41.680485" lon="2.797723">
        <time>2022-07-10T17:10:58Z</time>
      </trkpt>
      <trkpt lat="41.68052" lon="2.7977715">
        <time>2022-07-10T17:11:03Z</time>
      </trkpt>
      <trkpt lat="41.680542" lon="2.7978396">
        <time>2022-07-10T17:11:08Z</time>
      </trkpt>
      <trkpt lat="41.68057" lon="2.7978964">
        <time>2022-07-10T17:11:12Z</time>
      </trkpt>
      <trkpt lat="41.6806" lon="2.7979543">
        <time>2022-07-10T17:11:17Z</time>
      </trkpt>
      <trkpt lat="41.680622" lon="2.798029">
        <time>2022-07-10T17:11:22Z</time>
      </trkpt>
      <trkpt lat="41.68064" lon="2.7980905">
        <time>2022-07-10T17:11:26Z</time>
      </trkpt>
      <trkpt lat="41.680664" lon="2.798168">
        <time>2022-07-10T17:11:31Z</time>
      </trkpt>
      <trkpt lat="41.680683" lon="2.7982433">
        <time>2022-07-10T17:11:36Z</time>
      </trkpt>
      <trkpt lat="41.680702" lon="2.7983108">
        <time>2022-07-10T17:11:42Z</time>
      </trkpt>
      <trkpt lat="41.68073" lon="2.7983994">
        <time>2022-07-10T17:11:52Z</time>
      </trkpt>
      <trkpt lat="41.68074" lon="2.7984767">
        <time>2022-07-10T17:11:56Z</time>
      </trkpt>
      <trkpt lat="41.680748" lon="2.7985547">
        <time>2022-07-10T17:12:00Z</time>
      </trkpt>
      <trkpt lat="41.680763" lon="2.798633">
        <time>2022-07-10T17:12:04Z</time>
      </trkpt>
      <trkpt lat="41.680782" lon="2.7987013">
        <time>2022-07-10T17:12:08Z</time>
      </trkpt>
      <trkpt lat="41.680805" lon="2.798774">
        <time>2022-07-10T17:12:12Z</time>
      </trkpt>
      <trkpt lat="41.68084" lon="2.7988434">
        <time>2022-07-10T17:12:16Z</time>
      </trkpt>
      <trkpt lat="41.68086" lon="2.7989028">
        <time>2022-07-10T17:12:19Z</time>
      </trkpt>
      <trkpt lat="41.680878" lon="2.798991">
        <time>2022-07-10T17:12:23Z</time>
      </trkpt>
      <trkpt lat="41.680897" lon="2.7990596">
        <time>2022-07-10T17:12:26Z</time>
      </trkpt>
      <trkpt lat="41.680916" lon="2.7991226">
        <time>2022-07-10T17:12:29Z</time>
      </trkpt>
      <trkpt lat="41.680927" lon="2.799188">
        <time>2022-07-10T17:12:32Z</time>
      </trkpt>
      <trkpt lat="41.68095" lon="2.7992766">
        <time>2022-07-10T17:12:36Z</time>
      </trkpt>
      <trkpt lat="41.680973" lon="2.7993488">
        <time>2022-07-10T17:12:39Z</time>
      </trkpt>
      <trkpt lat="41.680984" lon="2.7994156">
        <time>2022-07-10T17:12:42Z</time>
      </trkpt>
      <trkpt lat="41.68099" lon="2.7994833">
        <time>2022-07-10T17:12:45Z</time>
      </trkpt>
      <trkpt lat="41.68101" lon="2.7995627">
        <time>2022-07-10T17:12:49Z</time>
      </trkpt>
      <trkpt lat="41.681046" lon="2.7996376">
        <time>2022-07-10T17:12:53Z</time>
      </trkpt>
      <trkpt lat="41.681065" lon="2.7996955">
        <time>2022-07-10T17:12:56Z</time>
      </trkpt>
      <trkpt lat="41.681087" lon="2.799775">
        <time>2022-07-10T17:13:00Z</time>
      </trkpt>
      <trkpt lat="41.681107" lon="2.7998574">
        <time>2022-07-10T17:13:04Z</time>
      </trkpt>
      <trkpt lat="41.68113" lon="2.7999382">
        <time>2022-07-10T17:13:08Z</time>
      </trkpt>
      <trkpt lat="41.681145" lon="2.80002">
        <time>2022-07-10T17:13:12Z</time>
      </trkpt>
      <trkpt lat="41.681152" lon="2.8000915">
        <time>2022-07-10T17:13:16Z</time>
      </trkpt>
      <trkpt lat="41.681168" lon="2.800165">
        <time>2022-07-10T17:13:20Z</time>
      </trkpt>
      <trkpt lat="41.681187" lon="2.8002512">
        <time>2022-07-10T17:13:23Z</time>
      </trkpt>
      <trkpt lat="41.68121" lon="2.8003273">
        <time>2022-07-10T17:13:25Z</time>
      </trkpt>
      <trkpt lat="41.681244" lon="2.8004055">
        <time>2022-07-10T17:13:27Z</time>
      </trkpt>
      <trkpt lat="41.681282" lon="2.8004913">
        <time>2022-07-10T17:13:29Z</time>
      </trkpt>
      <trkpt lat="41.68132" lon="2.8005848">
        <time>2022-07-10T17:13:31Z</time>
      </trkpt>
      <trkpt lat="41.681355" lon="2.800674">
        <time>2022-07-10T17:13:33Z</time>
      </trkpt>
      <trkpt lat="41.681377" lon="2.8007536">
        <time>2022-07-10T17:13:35Z</time>
      </trkpt>
      <trkpt lat="41.681396" lon="2.8008208">
        <time>2022-07-10T17:13:37Z</time>
      </trkpt>
      <trkpt lat="41.681423" lon="2.800905">
        <time>2022-07-10T17:13:40Z</time>
      </trkpt>
      <trkpt lat="41.681442" lon="2.8010116">
        <time>2022-07-10T17:13:44Z</time>
      </trkpt>
      <trkpt lat="41.681458" lon="2.8010914">
        <time>2022-07-10T17:13:47Z</time>
      </trkpt>
      <trkpt lat="41.681477" lon="2.8011656">
        <time>2022-07-10T17:13:50Z</time>
      </trkpt>
      <trkpt lat="41.681503" lon="2.801242">
        <time>2022-07-10T17:13:53Z</time>
      </trkpt>
      <trkpt lat="41.68152" lon="2.8013208">
        <time>2022-07-10T17:13:56Z</time>
      </trkpt>
      <trkpt lat="41.681534" lon="2.8013966">
        <time>2022-07-10T17:13:59Z</time>
      </trkpt>
      <trkpt lat="41.681545" lon="2.8014703">
        <time>2022-07-10T17:14:02Z</time>
      </trkpt>
      <trkpt lat="41.681557" lon="2.8015478">
        <time>2022-07-10T17:14:05Z</time>
      </trkpt>
      <trkpt lat="41.681576" lon="2.8016353">
        <time>2022-07-10T17:14:08Z</time>
      </trkpt>
      <trkpt lat="41.68161" lon="2.8017123">
        <time>2022-07-10T17:14:11Z</time>
      </trkpt>
      <trkpt lat="41.681637" lon="2.801768">
        <time>2022-07-10T17:14:13Z</time>
      </trkpt>
      <trkpt lat="41.681675" lon="2.8018348">
        <time>2022-07-10T17:14:16Z</time>
      </trkpt>
      <trkpt lat="41.681705" lon="2.8018782">
        <time>2022-07-10T17:14:19Z</time>
      </trkpt>
      <trkpt lat="41.68182" lon="2.801933">
        <time>2022-07-10T17:16:37Z</time>
      </trkpt>
      <trkpt lat="41.68188" lon="2.8019845">
        <time>2022-07-10T17:16:39Z</time>
      </trkpt>
      <trkpt lat="41.681946" lon="2.8020508">
        <time>2022-07-10T17:16:41Z</time>
      </trkpt>
      <trkpt lat="41.68201" lon="2.8021204">
        <time>2022-07-10T17:16:43Z</time>
      </trkpt>
      <trkpt lat="41.68206" lon="2.8021872">
        <time>2022-07-10T17:16:45Z</time>
      </trkpt>
      <trkpt lat="41.682102" lon="2.8022597">
        <time>2022-07-10T17:16:47Z</time>
      </trkpt>
      <trkpt lat="41.68217" lon="2.802361">
        <time>2022-07-10T17:16:50Z</time>
      </trkpt>
      <trkpt lat="41.68223" lon="2.8024094">
        <time>2022-07-10T17:16:52Z</time>
      </trkpt>
      <trkpt lat="41.68229" lon="2.8024452">
        <time>2022-07-10T17:16:54Z</time>
      </trkpt>
      <trkpt lat="41.68236" lon="2.802472">
        <time>2022-07-10T17:16:56Z</time>
      </trkpt>
      <trkpt lat="41.682434" lon="2.8024917">
        <time>2022-07-10T17:16:58Z</time>
      </trkpt>
      <trkpt lat="41.682503" lon="2.8025122">
        <time>2022-07-10T17:17:00Z</time>
      </trkpt>
      <trkpt lat="41.68257" lon="2.8025327">
        <time>2022-07-10T17:17:02Z</time>
      </trkpt>
      <trkpt lat="41.682636" lon="2.802552">
        <time>2022-07-10T17:17:04Z</time>
      </trkpt>
      <trkpt lat="41.682705" lon="2.8025715">
        <time>2022-07-10T17:17:06Z</time>
      </trkpt>
      <trkpt lat="41.682774" lon="2.8025975">
        <time>2022-07-10T17:17:08Z</time>
      </trkpt>
      <trkpt lat="41.682846" lon="2.8026228">
        <time>2022-07-10T17:17:10Z</time>
      </trkpt>
      <trkpt lat="41.68292" lon="2.8026578">
        <time>2022-07-10T17:17:12Z</time>
      </trkpt>
      <trkpt lat="41.68299" lon="2.802705">
        <time>2022-07-10T17:17:14Z</time>
      </trkpt>
      <trkpt lat="41.683067" lon="2.8027651">
        <time>2022-07-10T17:17:16Z</time>
      </trkpt>
      <trkpt lat="41.6831" lon="2.8028002">
        <time>2022-07-10T17:17:17Z</time>
      </trkpt>
      <trkpt lat="41.68317" lon="2.8028898">
        <time>2022-07-10T17:17:19Z</time>
      </trkpt>
      <trkpt lat="41.68324" lon="2.8030071">
        <time>2022-07-10T17:17:21Z</time>
      </trkpt>
      <trkpt lat="41.68328" lon="2.8030748">
        <time>2022-07-10T17:17:22Z</time>
      </trkpt>
      <trkpt lat="41.68332" lon="2.8031456">
        <time>2022-07-10T17:17:23Z</time>
      </trkpt>
      <trkpt lat="41.68336" lon="2.8032188">
        <time>2022-07-10T17:17:24Z</time>
      </trkpt>
      <trkpt lat="41.6834" lon="2.8032894">
        <time>2022-07-10T17:17:25Z</time>
      </trkpt>
      <trkpt lat="41.68344" lon="2.803371">
        <time>2022-07-10T17:17:26Z</time>
      </trkpt>
      <trkpt lat="41.683483" lon="2.8034546">
        <time>2022-07-10T17:17:27Z</time>
      </trkpt>
      <trkpt lat="41.68352" lon="2.803539">
        <time>2022-07-10T17:17:28Z</time>
      </trkpt>
      <trkpt lat="41.68356" lon="2.8036227">
        <time>2022-07-10T17:17:29Z</time>
      </trkpt>
      <trkpt lat="41.683594" lon="2.8037024">
        <time>2022-07-10T17:17:30Z</time>
      </trkpt>
      <trkpt lat="41.683628" lon="2.8037727">
        <time>2022-07-10T17:17:31Z</time>
      </trkpt>
      <trkpt lat="41.683666" lon="2.803843">
        <time>2022-07-10T17:17:32Z</time>
      </trkpt>
      <trkpt lat="41.683704" lon="2.803906">
        <time>2022-07-10T17:17:33Z</time>
      </trkpt>
      <trkpt lat="41.68375" lon="2.8039658">
        <time>2022-07-10T17:17:34Z</time>
      </trkpt>
      <trkpt lat="41.683796" lon="2.8040216">
        <time>2022-07-10T17:17:35Z</time>
      </trkpt>
      <trkpt lat="41.683846" lon="2.804077">
        <time>2022-07-10T17:17:36Z</time>
      </trkpt>
      <trkpt lat="41.68389" lon="2.804133">
        <time>2022-07-10T17:17:37Z</time>
      </trkpt>
      <trkpt lat="41.683933" lon="2.8041928">
        <time>2022-07-10T17:17:38Z</time>
      </trkpt>
      <trkpt lat="41.683975" lon="2.804256">
        <time>2022-07-10T17:17:39Z</time>
      </trkpt>
      <trkpt lat="41.684013" lon="2.804323">
        <time>2022-07-10T17:17:40Z</time>
      </trkpt>
      <trkpt lat="41.68405" lon="2.804392">
        <time>2022-07-10T17:17:41Z</time>
      </trkpt>
      <trkpt lat="41.68409" lon="2.8044627">
        <time>2022-07-10T17:17:42Z</time>
      </trkpt>
      <trkpt lat="41.684128" lon="2.8045337">
        <time>2022-07-10T17:17:43Z</time>
      </trkpt>
      <trkpt lat="41.68417" lon="2.8046048">
        <time>2022-07-10T17:17:44Z</time>
      </trkpt>
      <trkpt lat="41.684216" lon="2.8046753">
        <time>2022-07-10T17:17:45Z</time>
      </trkpt>
      <trkpt lat="41.68426" lon="2.804747">
        <time>2022-07-10T17:17:46Z</time>
      </trkpt>
      <trkpt lat="41.684307" lon="2.804821">
        <time>2022-07-10T17:17:47Z</time>
      </trkpt>
      <trkpt lat="41.684353" lon="2.8048964">
        <time>2022-07-10T17:17:48Z</time>
      </trkpt>
      <trkpt lat="41.684395" lon="2.8049712">
        <time>2022-07-10T17:17:49Z</time>
      </trkpt>
      <trkpt lat="41.68444" lon="2.805046">
        <time>2022-07-10T17:17:50Z</time>
      </trkpt>
      <trkpt lat="41.684486" lon="2.8051207">
        <time>2022-07-10T17:17:51Z</time>
      </trkpt>
      <trkpt lat="41.684532" lon="2.8051965">
        <time>2022-07-10T17:17:52Z</time>
      </trkpt>
      <trkpt lat="41.684578" lon="2.8052742">
        <time>2022-07-10T17:17:53Z</time>
      </trkpt>
      <trkpt lat="41.68462" lon="2.805355">
        <time>2022-07-10T17:17:54Z</time>
      </trkpt>
      <trkpt lat="41.684704" lon="2.8055236">
        <time>2022-07-10T17:17:56Z</time>
      </trkpt>
      <trkpt lat="41.68474" lon="2.8056114">
        <time>2022-07-10T17:17:57Z</time>
      </trkpt>
      <trkpt lat="41.68477" lon="2.8056939">
        <time>2022-07-10T17:17:58Z</time>
      </trkpt>
      <trkpt lat="41.6848" lon="2.8057785">
        <time>2022-07-10T17:17:59Z</time>
      </trkpt>
      <trkpt lat="41.68483" lon="2.8058648">
        <time>2022-07-10T17:18:00Z</time>
      </trkpt>
      <trkpt lat="41.684856" lon="2.8059516">
        <time>2022-07-10T17:18:01Z</time>
      </trkpt>
      <trkpt lat="41.684887" lon="2.8060377">
        <time>2022-07-10T17:18:02Z</time>
      </trkpt>
      <trkpt lat="41.68492" lon="2.8061283">
        <time>2022-07-10T17:18:03Z</time>
      </trkpt>
      <trkpt lat="41.68495" lon="2.8062146">
        <time>2022-07-10T17:18:04Z</time>
      </trkpt>
      <trkpt lat="41.684986" lon="2.8062997">
        <time>2022-07-10T17:18:05Z</time>
      </trkpt>
      <trkpt lat="41.685017" lon="2.8063838">
        <time>2022-07-10T17:18:06Z</time>
      </trkpt>
      <trkpt lat="41.68505" lon="2.8064685">
        <time>2022-07-10T17:18:07Z</time>
      </trkpt>
      <trkpt lat="41.685085" lon="2.8065522">
        <time>2022-07-10T17:18:08Z</time>
      </trkpt>
      <trkpt lat="41.685116" lon="2.8066359">
        <time>2022-07-10T17:18:09Z</time>
      </trkpt>
      <trkpt lat="41.685146" lon="2.8067193">
        <time>2022-07-10T17:18:10Z</time>
      </trkpt>
      <trkpt lat="41.685177" lon="2.8068">
        <time>2022-07-10T17:18:11Z</time>
      </trkpt>
      <trkpt lat="41.685207" lon="2.806881">
        <time>2022-07-10T17:18:12Z</time>
      </trkpt>
      <trkpt lat="41.685238" lon="2.806964">
        <time>2022-07-10T17:18:13Z</time>
      </trkpt>
      <trkpt lat="41.68527" lon="2.8070452">
        <time>2022-07-10T17:18:14Z</time>
      </trkpt>
      <trkpt lat="41.6853" lon="2.8071256">
        <time>2022-07-10T17:18:15Z</time>
      </trkpt>
      <trkpt lat="41.68533" lon="2.8072069">
        <time>2022-07-10T17:18:16Z</time>
      </trkpt>
      <trkpt lat="41.685356" lon="2.8072896">
        <time>2022-07-10T17:18:17Z</time>
      </trkpt>
      <trkpt lat="41.685387" lon="2.8073728">
        <time>2022-07-10T17:18:18Z</time>
      </trkpt>
      <trkpt lat="41.685417" lon="2.8074586">
        <time>2022-07-10T17:18:19Z</time>
      </trkpt>
      <trkpt lat="41.685448" lon="2.807545">
        <time>2022-07-10T17:18:20Z</time>
      </trkpt>
      <trkpt lat="41.68548" lon="2.8076317">
        <time>2022-07-10T17:18:21Z</time>
      </trkpt>
      <trkpt lat="41.68551" lon="2.8077204">
        <time>2022-07-10T17:18:22Z</time>
      </trkpt>
      <trkpt lat="41.68554" lon="2.8078089">
        <time>2022-07-10T17:18:23Z</time>
      </trkpt>
      <trkpt lat="41.685574" lon="2.8078969">
        <time>2022-07-10T17:18:24Z</time>
      </trkpt>
      <trkpt lat="41.685608" lon="2.8079846">
        <time>2022-07-10T17:18:25Z</time>
      </trkpt>
      <trkpt lat="41.685646" lon="2.8080695">
        <time>2022-07-10T17:18:26Z</time>
      </trkpt>
      <trkpt lat="41.68568" lon="2.8081517">
        <time>2022-07-10T17:18:27Z</time>
      </trkpt>
      <trkpt lat="41.68572" lon="2.8082316">
        <time>2022-07-10T17:18:28Z</time>
      </trkpt>
      <trkpt lat="41.685757" lon="2.8083045">
        <time>2022-07-10T17:18:29Z</time>
      </trkpt>
      <trkpt lat="41.685795" lon="2.8083827">
        <time>2022-07-10T17:18:30Z</time>
      </trkpt>
      <trkpt lat="41.685837" lon="2.8084602">
        <time>2022-07-10T17:18:31Z</time>
      </trkpt>
      <trkpt lat="41.685875" lon="2.8085368">
        <time>2022-07-10T17:18:32Z</time>
      </trkpt>
      <trkpt lat="41.685913" lon="2.8086135">
        <time>2022-07-10T17:18:33Z</time>
      </trkpt>
      <trkpt lat="41.68595" lon="2.8086922">
        <time>2022-07-10T17:18:34Z</time>
      </trkpt>
      <trkpt lat="41.685986" lon="2.8087714">
        <time>2022-07-10T17:18:35Z</time>
      </trkpt>
      <trkpt lat="41.68602" lon="2.80885">
        <time>2022-07-10T17:18:36Z</time>
      </trkpt>
      <trkpt lat="41.68605" lon="2.8089304">
        <time>2022-07-10T17:18:37Z</time>
      </trkpt>
      <trkpt lat="41.686077" lon="2.8090107">
        <time>2022-07-10T17:18:38Z</time>
      </trkpt>
      <trkpt lat="41.6861" lon="2.809091">
        <time>2022-07-10T17:18:39Z</time>
      </trkpt>
      <trkpt lat="41.686115" lon="2.8091717">
        <time>2022-07-10T17:18:40Z</time>
      </trkpt>
      <trkpt lat="41.68613" lon="2.8092527">
        <time>2022-07-10T17:18:41Z</time>
      </trkpt>
      <trkpt lat="41.68614" lon="2.8093333">
        <time>2022-07-10T17:18:42Z</time>
      </trkpt>
      <trkpt lat="41.686142" lon="2.8094115">
        <time>2022-07-10T17:18:43Z</time>
      </trkpt>
      <trkpt lat="41.686146" lon="2.8094845">
        <time>2022-07-10T17:18:44Z</time>
      </trkpt>
      <trkpt lat="41.686146" lon="2.809549">
        <time>2022-07-10T17:18:45Z</time>
      </trkpt>
      <trkpt lat="41.68614" lon="2.8096845">
        <time>2022-07-10T17:18:47Z</time>
      </trkpt>
      <trkpt lat="41.68612" lon="2.809807">
        <time>2022-07-10T17:18:49Z</time>
      </trkpt>
      <trkpt lat="41.6861" lon="2.8098712">
        <time>2022-07-10T17:18:50Z</time>
      </trkpt>
      <trkpt lat="41.686073" lon="2.8099391">
        <time>2022-07-10T17:18:51Z</time>
      </trkpt>
      <trkpt lat="41.68604" lon="2.8100045">
        <time>2022-07-10T17:18:52Z</time>
      </trkpt>
      <trkpt lat="41.68601" lon="2.8100715">
        <time>2022-07-10T17:18:53Z</time>
      </trkpt>
      <trkpt lat="41.685986" lon="2.8101387">
        <time>2022-07-10T17:18:54Z</time>
      </trkpt>
      <trkpt lat="41.68597" lon="2.8102028">
        <time>2022-07-10T17:18:55Z</time>
      </trkpt>
      <trkpt lat="41.68597" lon="2.8102682">
        <time>2022-07-10T17:18:56Z</time>
      </trkpt>
      <trkpt lat="41.685993" lon="2.8103948">
        <time>2022-07-10T17:18:58Z</time>
      </trkpt>
      <trkpt lat="41.686028" lon="2.810507">
        <time>2022-07-10T17:19:00Z</time>
      </trkpt>
      <trkpt lat="41.686066" lon="2.810614">
        <time>2022-07-10T17:19:02Z</time>
      </trkpt>
      <trkpt lat="41.686104" lon="2.8107297">
        <time>2022-07-10T17:19:04Z</time>
      </trkpt>
      <trkpt lat="41.686123" lon="2.810792">
        <time>2022-07-10T17:19:05Z</time>
      </trkpt>
      <trkpt lat="41.686188" lon="2.8109784">
        <time>2022-07-10T17:19:08Z</time>
      </trkpt>
      <trkpt lat="41.686234" lon="2.8110723">
        <time>2022-07-10T17:19:10Z</time>
      </trkpt>
      <trkpt lat="41.68627" lon="2.811131">
        <time>2022-07-10T17:19:12Z</time>
      </trkpt>
      <trkpt lat="41.686295" lon="2.8111658">
        <time>2022-07-10T17:19:16Z</time>
      </trkpt>
      <trkpt lat="41.686386" lon="2.811209">
        <time>2022-07-10T17:20:25Z</time>
      </trkpt>
      <trkpt lat="41.686455" lon="2.8112454">
        <time>2022-07-10T17:20:27Z</time>
      </trkpt>
      <trkpt lat="41.686535" lon="2.811288">
        <time>2022-07-10T17:20:29Z</time>
      </trkpt>
      <trkpt lat="41.68658" lon="2.8113127">
        <time>2022-07-10T17:20:30Z</time>
      </trkpt>
      <trkpt lat="41.68667" lon="2.8113647">
        <time>2022-07-10T17:20:32Z</time>
      </trkpt>
      <trkpt lat="41.68675" lon="2.8114226">
        <time>2022-07-10T17:20:34Z</time>
      </trkpt>
      <trkpt lat="41.68682" lon="2.8114836">
        <time>2022-07-10T17:20:36Z</time>
      </trkpt>
      <trkpt lat="41.686863" lon="2.8115163">
        <time>2022-07-10T17:20:37Z</time>
      </trkpt>
      <trkpt lat="41.68695" lon="2.8115854">
        <time>2022-07-10T17:20:39Z</time>
      </trkpt>
      <trkpt lat="41.686996" lon="2.811621">
        <time>2022-07-10T17:20:40Z</time>
      </trkpt>
      <trkpt lat="41.687046" lon="2.8116584">
        <time>2022-07-10T17:20:41Z</time>
      </trkpt>
      <trkpt lat="41.687096" lon="2.8116977">
        <time>2022-07-10T17:20:42Z</time>
      </trkpt>
      <trkpt lat="41.68715" lon="2.8117414">
        <time>2022-07-10T17:20:43Z</time>
      </trkpt>
      <trkpt lat="41.687206" lon="2.8117883">
        <time>2022-07-10T17:20:44Z</time>
      </trkpt>
      <trkpt lat="41.68726" lon="2.8118386">
        <time>2022-07-10T17:20:45Z</time>
      </trkpt>
      <trkpt lat="41.68732" lon="2.8118966">
        <time>2022-07-10T17:20:46Z</time>
      </trkpt>
      <trkpt lat="41.687378" lon="2.8119564">
        <time>2022-07-10T17:20:47Z</time>
      </trkpt>
      <trkpt lat="41.68743" lon="2.8120143">
        <time>2022-07-10T17:20:48Z</time>
      </trkpt>
      <trkpt lat="41.68748" lon="2.8120759">
        <time>2022-07-10T17:20:49Z</time>
      </trkpt>
      <trkpt lat="41.68753" lon="2.812143">
        <time>2022-07-10T17:20:50Z</time>
      </trkpt>
      <trkpt lat="41.687576" lon="2.8122103">
        <time>2022-07-10T17:20:51Z</time>
      </trkpt>
      <trkpt lat="41.68762" lon="2.812279">
        <time>2022-07-10T17:20:52Z</time>
      </trkpt>
      <trkpt lat="41.68766" lon="2.8123493">
        <time>2022-07-10T17:20:53Z</time>
      </trkpt>
      <trkpt lat="41.687702" lon="2.8124206">
        <time>2022-07-10T17:20:54Z</time>
      </trkpt>
      <trkpt lat="41.68774" lon="2.812495">
        <time>2022-07-10T17:20:55Z</time>
      </trkpt>
      <trkpt lat="41.687775" lon="2.8125713">
        <time>2022-07-10T17:20:56Z</time>
      </trkpt>
      <trkpt lat="41.68781" lon="2.8126493">
        <time>2022-07-10T17:20:57Z</time>
      </trkpt>
      <trkpt lat="41.68784" lon="2.8127215">
        <time>2022-07-10T17:20:58Z</time>
      </trkpt>
      <trkpt lat="41.687874" lon="2.8127923">
        <time>2022-07-10T17:20:59Z</time>
      </trkpt>
      <trkpt lat="41.687916" lon="2.8128586">
        <time>2022-07-10T17:21:00Z</time>
      </trkpt>
      <trkpt lat="41.68796" lon="2.812917">
        <time>2022-07-10T17:21:01Z</time>
      </trkpt>
      <trkpt lat="41.68802" lon="2.8129656">
        <time>2022-07-10T17:21:02Z</time>
      </trkpt>
      <trkpt lat="41.68808" lon="2.8130035">
        <time>2022-07-10T17:21:03Z</time>
      </trkpt>
      <trkpt lat="41.68822" lon="2.8130581">
        <time>2022-07-10T17:21:05Z</time>
      </trkpt>
      <trkpt lat="41.688297" lon="2.8130772">
        <time>2022-07-10T17:21:06Z</time>
      </trkpt>
      <trkpt lat="41.688374" lon="2.8130896">
        <time>2022-07-10T17:21:07Z</time>
      </trkpt>
      <trkpt lat="41.688454" lon="2.8130925">
        <time>2022-07-10T17:21:08Z</time>
      </trkpt>
      <trkpt lat="41.688526" lon="2.8130853">
        <time>2022-07-10T17:21:09Z</time>
      </trkpt>
      <trkpt lat="41.6886" lon="2.8130622">
        <time>2022-07-10T17:21:10Z</time>
      </trkpt>
      <trkpt lat="41.688667" lon="2.8130326">
        <time>2022-07-10T17:21:11Z</time>
      </trkpt>
      <trkpt lat="41.68874" lon="2.8129935">
        <time>2022-07-10T17:21:12Z</time>
      </trkpt>
      <trkpt lat="41.68881" lon="2.8129613">
        <time>2022-07-10T17:21:13Z</time>
      </trkpt>
      <trkpt lat="41.68888" lon="2.8129373">
        <time>2022-07-10T17:21:14Z</time>
      </trkpt>
      <trkpt lat="41.68895" lon="2.812923">
        <time>2022-07-10T17:21:15Z</time>
      </trkpt>
      <trkpt lat="41.689014" lon="2.8129199">
        <time>2022-07-10T17:21:16Z</time>
      </trkpt>
      <trkpt lat="41.689075" lon="2.8129258">
        <time>2022-07-10T17:21:17Z</time>
      </trkpt>
      <trkpt lat="41.68913" lon="2.8129382">
        <time>2022-07-10T17:21:18Z</time>
      </trkpt>
      <trkpt lat="41.689175" lon="2.812953">
        <time>2022-07-10T17:21:19Z</time>
      </trkpt>
      <trkpt lat="41.68925" lon="2.8129907">
        <time>2022-07-10T17:21:21Z</time>
      </trkpt>
      <trkpt lat="41.68935" lon="2.8130538">
        <time>2022-07-10T17:21:24Z</time>
      </trkpt>
      <trkpt lat="41.689407" lon="2.8130865">
        <time>2022-07-10T17:21:26Z</time>
      </trkpt>
      <trkpt lat="41.689465" lon="2.8131156">
        <time>2022-07-10T17:21:28Z</time>
      </trkpt>
      <trkpt lat="41.68952" lon="2.8131456">
        <time>2022-07-10T17:21:30Z</time>
      </trkpt>
      <trkpt lat="41.689583" lon="2.8131685">
        <time>2022-07-10T17:21:32Z</time>
      </trkpt>
      <trkpt lat="41.68964" lon="2.8131785">
        <time>2022-07-10T17:21:34Z</time>
      </trkpt>
      <trkpt lat="41.689693" lon="2.8131769">
        <time>2022-07-10T17:21:36Z</time>
      </trkpt>
      <trkpt lat="41.689766" lon="2.8131707">
        <time>2022-07-10T17:21:39Z</time>
      </trkpt>
      <trkpt lat="41.689827" lon="2.8131711">
        <time>2022-07-10T17:21:42Z</time>
      </trkpt>
      <trkpt lat="41.689888" lon="2.8131812">
        <time>2022-07-10T17:21:45Z</time>
      </trkpt>
      <trkpt lat="41.68995" lon="2.813211">
        <time>2022-07-10T17:21:48Z</time>
      </trkpt>
      <trkpt lat="41.690002" lon="2.813251">
        <time>2022-07-10T17:21:51Z</time>
      </trkpt>
      <trkpt lat="41.690056" lon="2.8133023">
        <time>2022-07-10T17:21:54Z</time>
      </trkpt>
      <trkpt lat="41.6901" lon="2.8133671">
        <time>2022-07-10T17:21:57Z</time>
      </trkpt>
      <trkpt lat="41.690136" lon="2.8134398">
        <time>2022-07-10T17:22:00Z</time>
      </trkpt>
      <trkpt lat="41.690163" lon="2.8135135">
        <time>2022-07-10T17:22:03Z</time>
      </trkpt>
      <trkpt lat="41.690193" lon="2.8135846">
        <time>2022-07-10T17:22:06Z</time>
      </trkpt>
      <trkpt lat="41.690224" lon="2.8136568">
        <time>2022-07-10T17:22:09Z</time>
      </trkpt>
      <trkpt lat="41.690254" lon="2.8137286">
        <time>2022-07-10T17:22:12Z</time>
      </trkpt>
      <trkpt lat="41.690273" lon="2.8138008">
        <time>2022-07-10T17:22:15Z</time>
      </trkpt>
      <trkpt lat="41.690292" lon="2.8138766">
        <time>2022-07-10T17:22:18Z</time>
      </trkpt>
      <trkpt lat="41.690308" lon="2.8139462">
        <time>2022-07-10T17:22:21Z</time>
      </trkpt>
      <trkpt lat="41.69033" lon="2.814006">
        <time>2022-07-10T17:22:24Z</time>
      </trkpt>
      <trkpt lat="41.690357" lon="2.8140838">
        <time>2022-07-10T17:22:28Z</time>
      </trkpt>
      <trkpt lat="41.69038" lon="2.81417">
        <time>2022-07-10T17:22:32Z</time>
      </trkpt>
      <trkpt lat="41.690407" lon="2.8142295">
        <time>2022-07-10T17:22:35Z</time>
      </trkpt>
      <trkpt lat="41.690426" lon="2.814295">
        <time>2022-07-10T17:22:38Z</time>
      </trkpt>
      <trkpt lat="41.69044" lon="2.8143582">
        <time>2022-07-10T17:22:41Z</time>
      </trkpt>
      <trkpt lat="41.690464" lon="2.8144379">
        <time>2022-07-10T17:22:45Z</time>
      </trkpt>
      <trkpt lat="41.690483" lon="2.8145208">
        <time>2022-07-10T17:22:49Z</time>
      </trkpt>
      <trkpt lat="41.690502" lon="2.8145893">
        <time>2022-07-10T17:22:52Z</time>
      </trkpt>
      <trkpt lat="41.690517" lon="2.814655">
        <time>2022-07-10T17:22:55Z</time>
      </trkpt>
      <trkpt lat="41.69054" lon="2.8147304">
        <time>2022-07-10T17:22:59Z</time>
      </trkpt>
      <trkpt lat="41.690563" lon="2.8147852">
        <time>2022-07-10T17:23:02Z</time>
      </trkpt>
      <trkpt lat="41.6906" lon="2.8148572">
        <time>2022-07-10T17:23:06Z</time>
      </trkpt>
      <trkpt lat="41.690643" lon="2.814911">
        <time>2022-07-10T17:23:10Z</time>
      </trkpt>
      <trkpt lat="41.690697" lon="2.8149605">
        <time>2022-07-10T17:23:14Z</time>
      </trkpt>
      <trkpt lat="41.690754" lon="2.815006">
        <time>2022-07-10T17:23:18Z</time>
      </trkpt>
      <trkpt lat="41.690804" lon="2.815042">
        <time>2022-07-10T17:23:21Z</time>
      </trkpt>
      <trkpt lat="41.690853" lon="2.8150868">
        <time>2022-07-10T17:23:24Z</time>
      </trkpt>
      <trkpt lat="41.690903" lon="2.815133">
        <time>2022-07-10T17:23:27Z</time>
      </trkpt>
      <trkpt lat="41.69096" lon="2.8151774">
        <time>2022-07-10T17:23:30Z</time>
      </trkpt>
      <trkpt lat="41.691017" lon="2.815225">
        <time>2022-07-10T17:23:33Z</time>
      </trkpt>
      <trkpt lat="41.691067" lon="2.8152795">
        <time>2022-07-10T17:23:36Z</time>
      </trkpt>
      <trkpt lat="41.69109" lon="2.8153572">
        <time>2022-07-10T17:23:39Z</time>
      </trkpt>
      <trkpt lat="41.691097" lon="2.815423">
        <time>2022-07-10T17:23:42Z</time>
      </trkpt>
      <trkpt lat="41.691124" lon="2.8155372">
        <time>2022-07-10T17:24:51Z</time>
      </trkpt>
      <trkpt lat="41.691116" lon="2.8156204">
        <time>2022-07-10T17:24:54Z</time>
      </trkpt>
      <trkpt lat="41.691105" lon="2.81572">
        <time>2022-07-10T17:24:57Z</time>
      </trkpt>
      <trkpt lat="41.691093" lon="2.815787">
        <time>2022-07-10T17:24:59Z</time>
      </trkpt>
      <trkpt lat="41.691082" lon="2.8158567">
        <time>2022-07-10T17:25:01Z</time>
      </trkpt>
      <trkpt lat="41.69107" lon="2.815926">
        <time>2022-07-10T17:25:03Z</time>
      </trkpt>
      <trkpt lat="41.691063" lon="2.8160272">
        <time>2022-07-10T17:25:06Z</time>
      </trkpt>
      <trkpt lat="41.691063" lon="2.8160975">
        <time>2022-07-10T17:25:08Z</time>
      </trkpt>
      <trkpt lat="41.69107" lon="2.8161695">
        <time>2022-07-10T17:25:10Z</time>
      </trkpt>
      <trkpt lat="41.69109" lon="2.8162532">
        <time>2022-07-10T17:25:12Z</time>
      </trkpt>
      <trkpt lat="41.691128" lon="2.816396">
        <time>2022-07-10T17:25:15Z</time>
      </trkpt>
      <trkpt lat="41.69117" lon="2.8165114">
        <time>2022-07-10T17:25:17Z</time>
      </trkpt>
      <trkpt lat="41.691193" lon="2.8165686">
        <time>2022-07-10T17:25:18Z</time>
      </trkpt>
      <trkpt lat="41.691242" lon="2.8166938">
        <time>2022-07-10T17:25:20Z</time>
      </trkpt>
      <trkpt lat="41.691273" lon="2.816765">
        <time>2022-07-10T17:25:21Z</time>
      </trkpt>
      <trkpt lat="41.691303" lon="2.816836">
        <time>2022-07-10T17:25:22Z</time>
      </trkpt>
      <trkpt lat="41.691334" lon="2.816904">
        <time>2022-07-10T17:25:23Z</time>
      </trkpt>
      <trkpt lat="41.691364" lon="2.8169808">
        <time>2022-07-10T17:25:24Z</time>
      </trkpt>
      <trkpt lat="41.69139" lon="2.8170526">
        <time>2022-07-10T17:25:25Z</time>
      </trkpt>
      <trkpt lat="41.691414" lon="2.8171294">
        <time>2022-07-10T17:25:26Z</time>
      </trkpt>
      <trkpt lat="41.691437" lon="2.8172097">
        <time>2022-07-10T17:25:27Z</time>
      </trkpt>
      <trkpt lat="41.691456" lon="2.8172917">
        <time>2022-07-10T17:25:28Z</time>
      </trkpt>
      <trkpt lat="41.69147" lon="2.817373">
        <time>2022-07-10T17:25:29Z</time>
      </trkpt>
      <trkpt lat="41.691486" lon="2.8174524">
        <time>2022-07-10T17:25:30Z</time>
      </trkpt>
      <trkpt lat="41.691498" lon="2.8175304">
        <time>2022-07-10T17:25:31Z</time>
      </trkpt>
      <trkpt lat="41.691513" lon="2.8176086">
        <time>2022-07-10T17:25:32Z</time>
      </trkpt>
      <trkpt lat="41.69153" lon="2.817682">
        <time>2022-07-10T17:25:33Z</time>
      </trkpt>
      <trkpt lat="41.691544" lon="2.8177457">
        <time>2022-07-10T17:25:34Z</time>
      </trkpt>
      <trkpt lat="41.691578" lon="2.8178651">
        <time>2022-07-10T17:25:36Z</time>
      </trkpt>
      <trkpt lat="41.69162" lon="2.8179812">
        <time>2022-07-10T17:25:38Z</time>
      </trkpt>
      <trkpt lat="41.69164" lon="2.8180416">
        <time>2022-07-10T17:25:39Z</time>
      </trkpt>
      <trkpt lat="41.691677" lon="2.818171">
        <time>2022-07-10T17:25:41Z</time>
      </trkpt>
      <trkpt lat="41.691696" lon="2.8182364">
        <time>2022-07-10T17:25:42Z</time>
      </trkpt>
      <trkpt lat="41.69173" lon="2.8183722">
        <time>2022-07-10T17:25:44Z</time>
      </trkpt>
      <trkpt lat="41.69175" lon="2.8184438">
        <time>2022-07-10T17:25:45Z</time>
      </trkpt>
      <trkpt lat="41.691772" lon="2.818516">
        <time>2022-07-10T17:25:46Z</time>
      </trkpt>
      <trkpt lat="41.69179" lon="2.8185925">
        <time>2022-07-10T17:25:47Z</time>
      </trkpt>
      <trkpt lat="41.691814" lon="2.818663">
        <time>2022-07-10T17:25:48Z</time>
      </trkpt>
      <trkpt lat="41.69184" lon="2.818738">
        <time>2022-07-10T17:25:49Z</time>
      </trkpt>
      <trkpt lat="41.691864" lon="2.8188064">
        <time>2022-07-10T17:25:50Z</time>
      </trkpt>
      <trkpt lat="41.691887" lon="2.8188746">
        <time>2022-07-10T17:25:51Z</time>
      </trkpt>
      <trkpt lat="41.69191" lon="2.8189409">
        <time>2022-07-10T17:25:52Z</time>
      </trkpt>
      <trkpt lat="41.691936" lon="2.8190043">
        <time>2022-07-10T17:25:53Z</time>
      </trkpt>
      <trkpt lat="41.691967" lon="2.8190663">
        <time>2022-07-10T17:25:54Z</time>
      </trkpt>
      <trkpt lat="41.691998" lon="2.8191266">
        <time>2022-07-10T17:25:55Z</time>
      </trkpt>
      <trkpt lat="41.692028" lon="2.8191826">
        <time>2022-07-10T17:25:56Z</time>
      </trkpt>
      <trkpt lat="41.692062" lon="2.819236">
        <time>2022-07-10T17:25:57Z</time>
      </trkpt>
      <trkpt lat="41.692097" lon="2.8192887">
        <time>2022-07-10T17:25:58Z</time>
      </trkpt>
      <trkpt lat="41.692154" lon="2.819387">
        <time>2022-07-10T17:26:00Z</time>
      </trkpt>
      <trkpt lat="41.69221" lon="2.8194714">
        <time>2022-07-10T17:26:02Z</time>
      </trkpt>
      <trkpt lat="41.692276" lon="2.8195484">
        <time>2022-07-10T17:26:04Z</time>
      </trkpt>
      <trkpt lat="41.692337" lon="2.8196206">
        <time>2022-07-10T17:26:06Z</time>
      </trkpt>
      <trkpt lat="41.69238" lon="2.8196774">
        <time>2022-07-10T17:26:08Z</time>
      </trkpt>
      <trkpt lat="41.69248" lon="2.819756">
        <time>2022-07-10T17:27:00Z</time>
      </trkpt>
      <trkpt lat="41.69256" lon="2.8198369">
        <time>2022-07-10T17:27:03Z</time>
      </trkpt>
      <trkpt lat="41.692627" lon="2.8199077">
        <time>2022-07-10T17:27:05Z</time>
      </trkpt>
      <trkpt lat="41.69271" lon="2.819993">
        <time>2022-07-10T17:27:07Z</time>
      </trkpt>
      <trkpt lat="41.692753" lon="2.8200424">
        <time>2022-07-10T17:27:08Z</time>
      </trkpt>
      <trkpt lat="41.6928" lon="2.820096">
        <time>2022-07-10T17:27:09Z</time>
      </trkpt>
      <trkpt lat="41.69285" lon="2.8201597">
        <time>2022-07-10T17:27:10Z</time>
      </trkpt>
      <trkpt lat="41.692894" lon="2.820222">
        <time>2022-07-10T17:27:11Z</time>
      </trkpt>
      <trkpt lat="41.69294" lon="2.8202946">
        <time>2022-07-10T17:27:12Z</time>
      </trkpt>
      <trkpt lat="41.692986" lon="2.82037">
        <time>2022-07-10T17:27:13Z</time>
      </trkpt>
      <trkpt lat="41.693027" lon="2.820448">
        <time>2022-07-10T17:27:14Z</time>
      </trkpt>
      <trkpt lat="41.69307" lon="2.8205333">
        <time>2022-07-10T17:27:15Z</time>
      </trkpt>
      <trkpt lat="41.693108" lon="2.8206172">
        <time>2022-07-10T17:27:16Z</time>
      </trkpt>
      <trkpt lat="41.693142" lon="2.8207116">
        <time>2022-07-10T17:27:17Z</time>
      </trkpt>
      <trkpt lat="41.693172" lon="2.8208013">
        <time>2022-07-10T17:27:18Z</time>
      </trkpt>
      <trkpt lat="41.6932" lon="2.8208916">
        <time>2022-07-10T17:27:19Z</time>
      </trkpt>
      <trkpt lat="41.693226" lon="2.8209825">
        <time>2022-07-10T17:27:20Z</time>
      </trkpt>
      <trkpt lat="41.693245" lon="2.8210762">
        <time>2022-07-10T17:27:21Z</time>
      </trkpt>
      <trkpt lat="41.693264" lon="2.8211725">
        <time>2022-07-10T17:27:22Z</time>
      </trkpt>
      <trkpt lat="41.69328" lon="2.8212721">
        <time>2022-07-10T17:27:23Z</time>
      </trkpt>
      <trkpt lat="41.69329" lon="2.8213751">
        <time>2022-07-10T17:27:24Z</time>
      </trkpt>
      <trkpt lat="41.6933" lon="2.8215919">
        <time>2022-07-10T17:27:26Z</time>
      </trkpt>
      <trkpt lat="41.693295" lon="2.8217015">
        <time>2022-07-10T17:27:27Z</time>
      </trkpt>
      <trkpt lat="41.69329" lon="2.8218098">
        <time>2022-07-10T17:27:28Z</time>
      </trkpt>
      <trkpt lat="41.693283" lon="2.8219159">
        <time>2022-07-10T17:27:29Z</time>
      </trkpt>
      <trkpt lat="41.69328" lon="2.8220215">
        <time>2022-07-10T17:27:30Z</time>
      </trkpt>
      <trkpt lat="41.69327" lon="2.8221252">
        <time>2022-07-10T17:27:31Z</time>
      </trkpt>
      <trkpt lat="41.693264" lon="2.822225">
        <time>2022-07-10T17:27:32Z</time>
      </trkpt>
      <trkpt lat="41.693256" lon="2.8223214">
        <time>2022-07-10T17:27:33Z</time>
      </trkpt>
      <trkpt lat="41.69325" lon="2.822416">
        <time>2022-07-10T17:27:34Z</time>
      </trkpt>
      <trkpt lat="41.693237" lon="2.8225102">
        <time>2022-07-10T17:27:35Z</time>
      </trkpt>
      <trkpt lat="41.69323" lon="2.8226051">
        <time>2022-07-10T17:27:36Z</time>
      </trkpt>
      <trkpt lat="41.693226" lon="2.8226945">
        <time>2022-07-10T17:27:37Z</time>
      </trkpt>
      <trkpt lat="41.693222" lon="2.8227875">
        <time>2022-07-10T17:27:38Z</time>
      </trkpt>
      <trkpt lat="41.69322" lon="2.8228812">
        <time>2022-07-10T17:27:39Z</time>
      </trkpt>
      <trkpt lat="41.69322" lon="2.8229795">
        <time>2022-07-10T17:27:40Z</time>
      </trkpt>
      <trkpt lat="41.69322" lon="2.823069">
        <time>2022-07-10T17:27:41Z</time>
      </trkpt>
      <trkpt lat="41.69322" lon="2.8231592">
        <time>2022-07-10T17:27:42Z</time>
      </trkpt>
      <trkpt lat="41.693222" lon="2.8232515">
        <time>2022-07-10T17:27:43Z</time>
      </trkpt>
      <trkpt lat="41.693226" lon="2.8233461">
        <time>2022-07-10T17:27:44Z</time>
      </trkpt>
      <trkpt lat="41.69323" lon="2.8234477">
        <time>2022-07-10T17:27:45Z</time>
      </trkpt>
      <trkpt lat="41.693237" lon="2.8235457">
        <time>2022-07-10T17:27:46Z</time>
      </trkpt>
      <trkpt lat="41.69325" lon="2.8236377">
        <time>2022-07-10T17:27:47Z</time>
      </trkpt>
      <trkpt lat="41.69326" lon="2.8237197">
        <time>2022-07-10T17:27:48Z</time>
      </trkpt>
      <trkpt lat="41.69327" lon="2.8237984">
        <time>2022-07-10T17:27:49Z</time>
      </trkpt>
      <trkpt lat="41.69329" lon="2.8238773">
        <time>2022-07-10T17:27:50Z</time>
      </trkpt>
      <trkpt lat="41.693314" lon="2.8239524">
        <time>2022-07-10T17:27:51Z</time>
      </trkpt>
      <trkpt lat="41.69334" lon="2.8240197">
        <time>2022-07-10T17:27:52Z</time>
      </trkpt>
      <trkpt lat="41.69337" lon="2.8240857">
        <time>2022-07-10T17:27:53Z</time>
      </trkpt>
      <trkpt lat="41.693405" lon="2.8241518">
        <time>2022-07-10T17:27:54Z</time>
      </trkpt>
      <trkpt lat="41.69345" lon="2.8242195">
        <time>2022-07-10T17:27:55Z</time>
      </trkpt>
      <trkpt lat="41.693504" lon="2.824283">
        <time>2022-07-10T17:27:56Z</time>
      </trkpt>
      <trkpt lat="41.693558" lon="2.8243384">
        <time>2022-07-10T17:27:57Z</time>
      </trkpt>
      <trkpt lat="41.69362" lon="2.8243897">
        <time>2022-07-10T17:27:58Z</time>
      </trkpt>
      <trkpt lat="41.69369" lon="2.8244345">
        <time>2022-07-10T17:27:59Z</time>
      </trkpt>
      <trkpt lat="41.69377" lon="2.8244743">
        <time>2022-07-10T17:28:00Z</time>
      </trkpt>
      <trkpt lat="41.693855" lon="2.824506">
        <time>2022-07-10T17:28:01Z</time>
      </trkpt>
      <trkpt lat="41.69394" lon="2.8245301">
        <time>2022-07-10T17:28:02Z</time>
      </trkpt>
      <trkpt lat="41.694016" lon="2.8245497">
        <time>2022-07-10T17:28:03Z</time>
      </trkpt>
      <trkpt lat="41.694096" lon="2.8245661">
        <time>2022-07-10T17:28:04Z</time>
      </trkpt>
      <trkpt lat="41.69418" lon="2.8245814">
        <time>2022-07-10T17:28:05Z</time>
      </trkpt>
      <trkpt lat="41.694256" lon="2.8245978">
        <time>2022-07-10T17:28:06Z</time>
      </trkpt>
      <trkpt lat="41.694332" lon="2.8246155">
        <time>2022-07-10T17:28:07Z</time>
      </trkpt>
      <trkpt lat="41.694397" lon="2.8246348">
        <time>2022-07-10T17:28:08Z</time>
      </trkpt>
      <trkpt lat="41.694458" lon="2.8246586">
        <time>2022-07-10T17:28:09Z</time>
      </trkpt>
      <trkpt lat="41.69451" lon="2.8246908">
        <time>2022-07-10T17:28:10Z</time>
      </trkpt>
      <trkpt lat="41.694553" lon="2.8247356">
        <time>2022-07-10T17:28:11Z</time>
      </trkpt>
      <trkpt lat="41.694588" lon="2.8247833">
        <time>2022-07-10T17:28:12Z</time>
      </trkpt>
      <trkpt lat="41.694626" lon="2.8248937">
        <time>2022-07-10T17:28:14Z</time>
      </trkpt>
      <trkpt lat="41.69466" lon="2.82499">
        <time>2022-07-10T17:28:16Z</time>
      </trkpt>
      <trkpt lat="41.69471" lon="2.8250527">
        <time>2022-07-10T17:28:18Z</time>
      </trkpt>
      <trkpt lat="41.694756" lon="2.8250933">
        <time>2022-07-10T17:28:20Z</time>
      </trkpt>
      <trkpt lat="41.69479" lon="2.8251376">
        <time>2022-07-10T17:28:22Z</time>
      </trkpt>
      <trkpt lat="41.694828" lon="2.8252378">
        <time>2022-07-10T17:28:25Z</time>
      </trkpt>
      <trkpt lat="41.694878" lon="2.8253791">
        <time>2022-07-10T17:28:28Z</time>
      </trkpt>
      <trkpt lat="41.69491" lon="2.825502">
        <time>2022-07-10T17:28:30Z</time>
      </trkpt>
      <trkpt lat="41.694923" lon="2.825568">
        <time>2022-07-10T17:28:31Z</time>
      </trkpt>
      <trkpt lat="41.694958" lon="2.8257196">
        <time>2022-07-10T17:28:33Z</time>
      </trkpt>
      <trkpt lat="41.694977" lon="2.8257978">
        <time>2022-07-10T17:28:34Z</time>
      </trkpt>
      <trkpt lat="41.695" lon="2.8258777">
        <time>2022-07-10T17:28:35Z</time>
      </trkpt>
      <trkpt lat="41.69502" lon="2.8259597">
        <time>2022-07-10T17:28:36Z</time>
      </trkpt>
      <trkpt lat="41.69504" lon="2.8260436">
        <time>2022-07-10T17:28:37Z</time>
      </trkpt>
      <trkpt lat="41.69506" lon="2.8261232">
        <time>2022-07-10T17:28:38Z</time>
      </trkpt>
      <trkpt lat="41.695084" lon="2.82621">
        <time>2022-07-10T17:28:39Z</time>
      </trkpt>
      <trkpt lat="41.695103" lon="2.8262897">
        <time>2022-07-10T17:28:40Z</time>
      </trkpt>
      <trkpt lat="41.69512" lon="2.8263676">
        <time>2022-07-10T17:28:41Z</time>
      </trkpt>
      <trkpt lat="41.695137" lon="2.8264394">
        <time>2022-07-10T17:28:42Z</time>
      </trkpt>
      <trkpt lat="41.695152" lon="2.8265033">
        <time>2022-07-10T17:28:43Z</time>
      </trkpt>
      <trkpt lat="41.69518" lon="2.8266168">
        <time>2022-07-10T17:28:45Z</time>
      </trkpt>
      <trkpt lat="41.695194" lon="2.826716">
        <time>2022-07-10T17:28:47Z</time>
      </trkpt>
      <trkpt lat="41.695194" lon="2.8268106">
        <time>2022-07-10T17:28:49Z</time>
      </trkpt>
      <trkpt lat="41.695194" lon="2.8268986">
        <time>2022-07-10T17:28:51Z</time>
      </trkpt>
      <trkpt lat="41.695194" lon="2.826985">
        <time>2022-07-10T17:28:53Z</time>
      </trkpt>
      <trkpt lat="41.69519" lon="2.82707">
        <time>2022-07-10T17:28:55Z</time>
      </trkpt>
      <trkpt lat="41.695187" lon="2.8271594">
        <time>2022-07-10T17:28:57Z</time>
      </trkpt>
      <trkpt lat="41.69518" lon="2.8272495">
        <time>2022-07-10T17:28:59Z</time>
      </trkpt>
      <trkpt lat="41.695164" lon="2.8273404">
        <time>2022-07-10T17:29:01Z</time>
      </trkpt>
      <trkpt lat="41.695145" lon="2.827432">
        <time>2022-07-10T17:29:03Z</time>
      </trkpt>
      <trkpt lat="41.69512" lon="2.8275237">
        <time>2022-07-10T17:29:05Z</time>
      </trkpt>
      <trkpt lat="41.6951" lon="2.827615">
        <time>2022-07-10T17:29:07Z</time>
      </trkpt>
      <trkpt lat="41.695065" lon="2.8277092">
        <time>2022-07-10T17:29:09Z</time>
      </trkpt>
      <trkpt lat="41.695038" lon="2.827807">
        <time>2022-07-10T17:29:11Z</time>
      </trkpt>
      <trkpt lat="41.695007" lon="2.8279035">
        <time>2022-07-10T17:29:13Z</time>
      </trkpt>
      <trkpt lat="41.694973" lon="2.828002">
        <time>2022-07-10T17:29:15Z</time>
      </trkpt>
      <trkpt lat="41.69493" lon="2.8281024">
        <time>2022-07-10T17:29:17Z</time>
      </trkpt>
      <trkpt lat="41.694893" lon="2.8282013">
        <time>2022-07-10T17:29:19Z</time>
      </trkpt>
      <trkpt lat="41.69485" lon="2.8282993">
        <time>2022-07-10T17:29:21Z</time>
      </trkpt>
      <trkpt lat="41.69481" lon="2.828395">
        <time>2022-07-10T17:29:23Z</time>
      </trkpt>
      <trkpt lat="41.69477" lon="2.8284905">
        <time>2022-07-10T17:29:25Z</time>
      </trkpt>
      <trkpt lat="41.69474" lon="2.8285866">
        <time>2022-07-10T17:29:27Z</time>
      </trkpt>
      <trkpt lat="41.69472" lon="2.8286786">
        <time>2022-07-10T17:29:29Z</time>
      </trkpt>
      <trkpt lat="41.694706" lon="2.8287613">
        <time>2022-07-10T17:29:31Z</time>
      </trkpt>
      <trkpt lat="41.694683" lon="2.8288372">
        <time>2022-07-10T17:29:33Z</time>
      </trkpt>
      <trkpt lat="41.694656" lon="2.8289065">
        <time>2022-07-10T17:29:35Z</time>
      </trkpt>
      <trkpt lat="41.694622" lon="2.8289711">
        <time>2022-07-10T17:29:37Z</time>
      </trkpt>
      <trkpt lat="41.694595" lon="2.8290322">
        <time>2022-07-10T17:29:39Z</time>
      </trkpt>
      <trkpt lat="41.69456" lon="2.829121">
        <time>2022-07-10T17:29:42Z</time>
      </trkpt>
      <trkpt lat="41.69454" lon="2.829187">
        <time>2022-07-10T17:29:44Z</time>
      </trkpt>
      <trkpt lat="41.694523" lon="2.829253">
        <time>2022-07-10T17:29:46Z</time>
      </trkpt>
      <trkpt lat="41.694508" lon="2.8293319">
        <time>2022-07-10T17:29:48Z</time>
      </trkpt>
      <trkpt lat="41.694496" lon="2.8294241">
        <time>2022-07-10T17:29:50Z</time>
      </trkpt>
      <trkpt lat="41.694492" lon="2.8295305">
        <time>2022-07-10T17:29:52Z</time>
      </trkpt>
      <trkpt lat="41.694496" lon="2.8296576">
        <time>2022-07-10T17:29:54Z</time>
      </trkpt>
      <trkpt lat="41.694508" lon="2.829727">
        <time>2022-07-10T17:29:55Z</time>
      </trkpt>
      <trkpt lat="41.694515" lon="2.8298">
        <time>2022-07-10T17:29:56Z</time>
      </trkpt>
      <trkpt lat="41.69453" lon="2.8298762">
        <time>2022-07-10T17:29:57Z</time>
      </trkpt>
      <trkpt lat="41.694546" lon="2.8299558">
        <time>2022-07-10T17:29:58Z</time>
      </trkpt>
      <trkpt lat="41.694565" lon="2.8300385">
        <time>2022-07-10T17:29:59Z</time>
      </trkpt>
      <trkpt lat="41.694588" lon="2.830123">
        <time>2022-07-10T17:30:00Z</time>
      </trkpt>
      <trkpt lat="41.694614" lon="2.8302085">
        <time>2022-07-10T17:30:01Z</time>
      </trkpt>
      <trkpt lat="41.69464" lon="2.8302925">
        <time>2022-07-10T17:30:02Z</time>
      </trkpt>
      <trkpt lat="41.69467" lon="2.8303752">
        <time>2022-07-10T17:30:03Z</time>
      </trkpt>
      <trkpt lat="41.694706" lon="2.8304563">
        <time>2022-07-10T17:30:04Z</time>
      </trkpt>
      <trkpt lat="41.694744" lon="2.830537">
        <time>2022-07-10T17:30:05Z</time>
      </trkpt>
      <trkpt lat="41.694786" lon="2.8306165">
        <time>2022-07-10T17:30:06Z</time>
      </trkpt>
      <trkpt lat="41.694828" lon="2.8306954">
        <time>2022-07-10T17:30:07Z</time>
      </trkpt>
      <trkpt lat="41.69487" lon="2.830772">
        <time>2022-07-10T17:30:08Z</time>
      </trkpt>
      <trkpt lat="41.694916" lon="2.8308449">
        <time>2022-07-10T17:30:09Z</time>
      </trkpt>
      <trkpt lat="41.69496" lon="2.8309138">
        <time>2022-07-10T17:30:10Z</time>
      </trkpt>
      <trkpt lat="41.69501" lon="2.8309782">
        <time>2022-07-10T17:30:11Z</time>
      </trkpt>
      <trkpt lat="41.695065" lon="2.8310342">
        <time>2022-07-10T17:30:12Z</time>
      </trkpt>
      <trkpt lat="41.69512" lon="2.8310819">
        <time>2022-07-10T17:30:13Z</time>
      </trkpt>
      <trkpt lat="41.69518" lon="2.8311198">
        <time>2022-07-10T17:30:14Z</time>
      </trkpt>
      <trkpt lat="41.695236" lon="2.8311481">
        <time>2022-07-10T17:30:15Z</time>
      </trkpt>
      <trkpt lat="41.695293" lon="2.8311682">
        <time>2022-07-10T17:30:16Z</time>
      </trkpt>
      <trkpt lat="41.69534" lon="2.8311822">
        <time>2022-07-10T17:30:17Z</time>
      </trkpt>
      <trkpt lat="41.69538" lon="2.8311932">
        <time>2022-07-10T17:30:18Z</time>
      </trkpt>
      <trkpt lat="41.695454" lon="2.8312237">
        <time>2022-07-10T17:30:20Z</time>
      </trkpt>
      <trkpt lat="41.695503" lon="2.8312714">
        <time>2022-07-10T17:30:22Z</time>
      </trkpt>
      <trkpt lat="41.695526" lon="2.831334">
        <time>2022-07-10T17:30:24Z</time>
      </trkpt>
      <trkpt lat="41.695526" lon="2.831411">
        <time>2022-07-10T17:30:26Z</time>
      </trkpt>
      <trkpt lat="41.69552" lon="2.8314981">
        <time>2022-07-10T17:30:28Z</time>
      </trkpt>
      <trkpt lat="41.695515" lon="2.8315887">
        <time>2022-07-10T17:30:30Z</time>
      </trkpt>
      <trkpt lat="41.69552" lon="2.8316815">
        <time>2022-07-10T17:30:32Z</time>
      </trkpt>
      <trkpt lat="41.695526" lon="2.831778">
        <time>2022-07-10T17:30:34Z</time>
      </trkpt>
      <trkpt lat="41.695538" lon="2.831877">
        <time>2022-07-10T17:30:36Z</time>
      </trkpt>
      <trkpt lat="41.695545" lon="2.8319578">
        <time>2022-07-10T17:30:38Z</time>
      </trkpt>
      <trkpt lat="41.695557" lon="2.832024">
        <time>2022-07-10T17:30:40Z</time>
      </trkpt>
      <trkpt lat="41.695568" lon="2.8320835">
        <time>2022-07-10T17:30:42Z</time>
      </trkpt>
      <trkpt lat="41.695583" lon="2.8321805">
        <time>2022-07-10T17:30:45Z</time>
      </trkpt>
      <trkpt lat="41.6956" lon="2.8322508">
        <time>2022-07-10T17:30:47Z</time>
      </trkpt>
      <trkpt lat="41.69561" lon="2.832324">
        <time>2022-07-10T17:30:49Z</time>
      </trkpt>
      <trkpt lat="41.69562" lon="2.8323934">
        <time>2022-07-10T17:30:51Z</time>
      </trkpt>
      <trkpt lat="41.695633" lon="2.8324564">
        <time>2022-07-10T17:30:53Z</time>
      </trkpt>
      <trkpt lat="41.695633" lon="2.8325467">
        <time>2022-07-10T17:30:56Z</time>
      </trkpt>
      <trkpt lat="41.69562" lon="2.832618">
        <time>2022-07-10T17:30:58Z</time>
      </trkpt>
      <trkpt lat="41.695618" lon="2.8326948">
        <time>2022-07-10T17:31:00Z</time>
      </trkpt>
      <trkpt lat="41.695618" lon="2.8327718">
        <time>2022-07-10T17:31:02Z</time>
      </trkpt>
      <trkpt lat="41.695614" lon="2.8328555">
        <time>2022-07-10T17:31:04Z</time>
      </trkpt>
      <trkpt lat="41.69561" lon="2.8329487">
        <time>2022-07-10T17:31:06Z</time>
      </trkpt>
      <trkpt lat="41.695606" lon="2.8330538">
        <time>2022-07-10T17:31:08Z</time>
      </trkpt>
      <trkpt lat="41.69561" lon="2.8331602">
        <time>2022-07-10T17:31:10Z</time>
      </trkpt>
      <trkpt lat="41.695618" lon="2.8332648">
        <time>2022-07-10T17:31:12Z</time>
      </trkpt>
      <trkpt lat="41.695625" lon="2.8333638">
        <time>2022-07-10T17:31:14Z</time>
      </trkpt>
      <trkpt lat="41.695633" lon="2.8334584">
        <time>2022-07-10T17:31:16Z</time>
      </trkpt>
      <trkpt lat="41.695625" lon="2.8335443">
        <time>2022-07-10T17:31:18Z</time>
      </trkpt>
      <trkpt lat="41.69561" lon="2.833635">
        <time>2022-07-10T17:31:20Z</time>
      </trkpt>
      <trkpt lat="41.69558" lon="2.8337266">
        <time>2022-07-10T17:31:22Z</time>
      </trkpt>
      <trkpt lat="41.695545" lon="2.8338234">
        <time>2022-07-10T17:31:24Z</time>
      </trkpt>
      <trkpt lat="41.695515" lon="2.833915">
        <time>2022-07-10T17:31:26Z</time>
      </trkpt>
      <trkpt lat="41.695484" lon="2.834007">
        <time>2022-07-10T17:31:28Z</time>
      </trkpt>
      <trkpt lat="41.695442" lon="2.834101">
        <time>2022-07-10T17:31:30Z</time>
      </trkpt>
      <trkpt lat="41.69539" lon="2.8341877">
        <time>2022-07-10T17:31:32Z</time>
      </trkpt>
      <trkpt lat="41.69534" lon="2.834274">
        <time>2022-07-10T17:31:34Z</time>
      </trkpt>
      <trkpt lat="41.695297" lon="2.834364">
        <time>2022-07-10T17:31:36Z</time>
      </trkpt>
      <trkpt lat="41.695248" lon="2.8344464">
        <time>2022-07-10T17:31:38Z</time>
      </trkpt>
      <trkpt lat="41.69521" lon="2.8345194">
        <time>2022-07-10T17:31:40Z</time>
      </trkpt>
      <trkpt lat="41.695164" lon="2.834611">
        <time>2022-07-10T17:31:43Z</time>
      </trkpt>
      <trkpt lat="41.695137" lon="2.8347">
        <time>2022-07-10T17:31:46Z</time>
      </trkpt>
      <trkpt lat="41.69513" lon="2.8347807">
        <time>2022-07-10T17:31:49Z</time>
      </trkpt>
      <trkpt lat="41.69514" lon="2.8348484">
        <time>2022-07-10T17:31:52Z</time>
      </trkpt>
      <trkpt lat="41.695156" lon="2.834917">
        <time>2022-07-10T17:31:55Z</time>
      </trkpt>
      <trkpt lat="41.695175" lon="2.834995">
        <time>2022-07-10T17:31:59Z</time>
      </trkpt>
      <trkpt lat="41.695175" lon="2.8350673">
        <time>2022-07-10T17:32:02Z</time>
      </trkpt>
      <trkpt lat="41.695168" lon="2.8351512">
        <time>2022-07-10T17:32:05Z</time>
      </trkpt>
      <trkpt lat="41.695164" lon="2.8352394">
        <time>2022-07-10T17:32:08Z</time>
      </trkpt>
      <trkpt lat="41.69517" lon="2.8353276">
        <time>2022-07-10T17:32:11Z</time>
      </trkpt>
      <trkpt lat="41.69517" lon="2.8354154">
        <time>2022-07-10T17:32:14Z</time>
      </trkpt>
      <trkpt lat="41.69517" lon="2.8355083">
        <time>2022-07-10T17:32:17Z</time>
      </trkpt>
      <trkpt lat="41.695164" lon="2.8355796">
        <time>2022-07-10T17:32:19Z</time>
      </trkpt>
      <trkpt lat="41.69516" lon="2.835656">
        <time>2022-07-10T17:32:21Z</time>
      </trkpt>
      <trkpt lat="41.695156" lon="2.8357372">
        <time>2022-07-10T17:32:23Z</time>
      </trkpt>
      <trkpt lat="41.69516" lon="2.8358233">
        <time>2022-07-10T17:32:25Z</time>
      </trkpt>
      <trkpt lat="41.695164" lon="2.835912">
        <time>2022-07-10T17:32:27Z</time>
      </trkpt>
      <trkpt lat="41.695168" lon="2.8360016">
        <time>2022-07-10T17:32:29Z</time>
      </trkpt>
      <trkpt lat="41.695168" lon="2.8360894">
        <time>2022-07-10T17:32:31Z</time>
      </trkpt>
      <trkpt lat="41.695152" lon="2.8361597">
        <time>2022-07-10T17:32:33Z</time>
      </trkpt>
      <trkpt lat="41.695126" lon="2.8362126">
        <time>2022-07-10T17:32:35Z</time>
      </trkpt>
      <trkpt lat="41.695065" lon="2.836287">
        <time>2022-07-10T17:32:38Z</time>
      </trkpt>
      <trkpt lat="41.69502" lon="2.8363461">
        <time>2022-07-10T17:32:40Z</time>
      </trkpt>
      <trkpt lat="41.69498" lon="2.8364112">
        <time>2022-07-10T17:32:42Z</time>
      </trkpt>
      <trkpt lat="41.69495" lon="2.8364747">
        <time>2022-07-10T17:32:44Z</time>
      </trkpt>
      <trkpt lat="41.6949" lon="2.8365645">
        <time>2022-07-10T17:32:47Z</time>
      </trkpt>
      <trkpt lat="41.694862" lon="2.8366237">
        <time>2022-07-10T17:32:49Z</time>
      </trkpt>
      <trkpt lat="41.69482" lon="2.8366811">
        <time>2022-07-10T17:32:51Z</time>
      </trkpt>
      <trkpt lat="41.69477" lon="2.8367403">
        <time>2022-07-10T17:32:53Z</time>
      </trkpt>
      <trkpt lat="41.694717" lon="2.836788">
        <time>2022-07-10T17:32:55Z</time>
      </trkpt>
      <trkpt lat="41.69466" lon="2.8368247">
        <time>2022-07-10T17:32:57Z</time>
      </trkpt>
      <trkpt lat="41.6946" lon="2.8368568">
        <time>2022-07-10T17:32:59Z</time>
      </trkpt>
      <trkpt lat="41.69455" lon="2.836876">
        <time>2022-07-10T17:33:01Z</time>
      </trkpt>
      <trkpt lat="41.6945" lon="2.8368883">
        <time>2022-07-10T17:33:03Z</time>
      </trkpt>
      <trkpt lat="41.69444" lon="2.8369095">
        <time>2022-07-10T17:33:06Z</time>
      </trkpt>
      <trkpt lat="41.694378" lon="2.836937">
        <time>2022-07-10T17:33:09Z</time>
      </trkpt>
      <trkpt lat="41.694324" lon="2.8369658">
        <time>2022-07-10T17:33:12Z</time>
      </trkpt>
      <trkpt lat="41.694286" lon="2.8369908">
        <time>2022-07-10T17:33:16Z</time>
      </trkpt>
      <trkpt lat="41.694283" lon="2.836998">
        <time>2022-07-10T17:34:10Z</time>
      </trkpt>
      <trkpt lat="41.69434" lon="2.8369486">
        <time>2022-07-10T17:34:14Z</time>
      </trkpt>
      <trkpt lat="41.694386" lon="2.8369222">
        <time>2022-07-10T17:34:17Z</time>
      </trkpt>
      <trkpt lat="41.694443" lon="2.8369017">
        <time>2022-07-10T17:34:21Z</time>
      </trkpt>
      <trkpt lat="41.6945" lon="2.8368793">
        <time>2022-07-10T17:34:25Z</time>
      </trkpt>
      <trkpt lat="41.694557" lon="2.836865">
        <time>2022-07-10T17:34:29Z</time>
      </trkpt>
      <trkpt lat="41.694603" lon="2.8368506">
        <time>2022-07-10T17:34:39Z</time>
      </trkpt>
      <trkpt lat="41.69466" lon="2.836804">
        <time>2022-07-10T17:34:54Z</time>
      </trkpt>
      <trkpt lat="41.69473" lon="2.8367498">
        <time>2022-07-10T17:34:57Z</time>
      </trkpt>
      <trkpt lat="41.69477" lon="2.8367085">
        <time>2022-07-10T17:34:59Z</time>
      </trkpt>
      <trkpt lat="41.69481" lon="2.8366592">
        <time>2022-07-10T17:35:01Z</time>
      </trkpt>
      <trkpt lat="41.694836" lon="2.8366065">
        <time>2022-07-10T17:35:03Z</time>
      </trkpt>
      <trkpt lat="41.69488" lon="2.836516">
        <time>2022-07-10T17:35:06Z</time>
      </trkpt>
      <trkpt lat="41.694916" lon="2.836458">
        <time>2022-07-10T17:35:08Z</time>
      </trkpt>
      <trkpt lat="41.694954" lon="2.836407">
        <time>2022-07-10T17:35:10Z</time>
      </trkpt>
      <trkpt lat="41.695015" lon="2.8363316">
        <time>2022-07-10T17:35:13Z</time>
      </trkpt>
      <trkpt lat="41.695053" lon="2.836284">
        <time>2022-07-10T17:35:15Z</time>
      </trkpt>
      <trkpt lat="41.695107" lon="2.8362217">
        <time>2022-07-10T17:35:18Z</time>
      </trkpt>
      <trkpt lat="41.695164" lon="2.8361857">
        <time>2022-07-10T17:35:21Z</time>
      </trkpt>
      <trkpt lat="41.69522" lon="2.8361866">
        <time>2022-07-10T17:35:24Z</time>
      </trkpt>
      <trkpt lat="41.69528" lon="2.836216">
        <time>2022-07-10T17:35:27Z</time>
      </trkpt>
      <trkpt lat="41.69534" lon="2.8362482">
        <time>2022-07-10T17:35:30Z</time>
      </trkpt>
      <trkpt lat="41.6954" lon="2.8362806">
        <time>2022-07-10T17:35:33Z</time>
      </trkpt>
      <trkpt lat="41.695442" lon="2.8363163">
        <time>2022-07-10T17:35:36Z</time>
      </trkpt>
      <trkpt lat="41.69549" lon="2.83634">
        <time>2022-07-10T17:35:39Z</time>
      </trkpt>
      <trkpt lat="41.69556" lon="2.8363492">
        <time>2022-07-10T17:35:42Z</time>
      </trkpt>
      <trkpt lat="41.695618" lon="2.836355">
        <time>2022-07-10T17:35:44Z</time>
      </trkpt>
      <trkpt lat="41.695663" lon="2.836382">
        <time>2022-07-10T17:35:46Z</time>
      </trkpt>
      <trkpt lat="41.695732" lon="2.836426">
        <time>2022-07-10T17:35:49Z</time>
      </trkpt>
      <trkpt lat="41.695778" lon="2.8364582">
        <time>2022-07-10T17:35:51Z</time>
      </trkpt>
      <trkpt lat="41.69582" lon="2.8364875">
        <time>2022-07-10T17:35:53Z</time>
      </trkpt>
      <trkpt lat="41.695885" lon="2.83655">
        <time>2022-07-10T17:35:56Z</time>
      </trkpt>
      <trkpt lat="41.69593" lon="2.8365955">
        <time>2022-07-10T17:35:58Z</time>
      </trkpt>
      <trkpt lat="41.69597" lon="2.8366475">
        <time>2022-07-10T17:36:00Z</time>
      </trkpt>
      <trkpt lat="41.695995" lon="2.8367045">
        <time>2022-07-10T17:36:02Z</time>
      </trkpt>
      <trkpt lat="41.696014" lon="2.8367631">
        <time>2022-07-10T17:36:04Z</time>
      </trkpt>
      <trkpt lat="41.696033" lon="2.8368535">
        <time>2022-07-10T17:36:07Z</time>
      </trkpt>
      <trkpt lat="41.696045" lon="2.836948">
        <time>2022-07-10T17:36:10Z</time>
      </trkpt>
      <trkpt lat="41.696056" lon="2.8370385">
        <time>2022-07-10T17:36:13Z</time>
      </trkpt>
      <trkpt lat="41.696075" lon="2.8371081">
        <time>2022-07-10T17:36:16Z</time>
      </trkpt>
      <trkpt lat="41.69611" lon="2.837144">
        <time>2022-07-10T17:36:19Z</time>
      </trkpt>
      <trkpt lat="41.696125" lon="2.837211">
        <time>2022-07-10T17:38:20Z</time>
      </trkpt>
      <trkpt lat="41.69611" lon="2.8372889">
        <time>2022-07-10T17:38:25Z</time>
      </trkpt>
      <trkpt lat="41.69611" lon="2.8373728">
        <time>2022-07-10T17:38:28Z</time>
      </trkpt>
      <trkpt lat="41.69612" lon="2.8374603">
        <time>2022-07-10T17:38:31Z</time>
      </trkpt>
      <trkpt lat="41.69614" lon="2.8375535">
        <time>2022-07-10T17:38:34Z</time>
      </trkpt>
      <trkpt lat="41.696156" lon="2.837619">
        <time>2022-07-10T17:38:36Z</time>
      </trkpt>
      <trkpt lat="41.69617" lon="2.83769">
        <time>2022-07-10T17:38:38Z</time>
      </trkpt>
      <trkpt lat="41.696194" lon="2.8377564">
        <time>2022-07-10T17:38:40Z</time>
      </trkpt>
      <trkpt lat="41.696213" lon="2.8378208">
        <time>2022-07-10T17:38:42Z</time>
      </trkpt>
      <trkpt lat="41.696236" lon="2.8378878">
        <time>2022-07-10T17:38:44Z</time>
      </trkpt>
      <trkpt lat="41.696255" lon="2.8379514">
        <time>2022-07-10T17:38:46Z</time>
      </trkpt>
      <trkpt lat="41.696274" lon="2.8380175">
        <time>2022-07-10T17:38:48Z</time>
      </trkpt>
      <trkpt lat="41.6963" lon="2.8380837">
        <time>2022-07-10T17:38:50Z</time>
      </trkpt>
      <trkpt lat="41.696327" lon="2.8381445">
        <time>2022-07-10T17:38:52Z</time>
      </trkpt>
      <trkpt lat="41.69637" lon="2.8382285">
        <time>2022-07-10T17:38:55Z</time>
      </trkpt>
      <trkpt lat="41.6964" lon="2.8382847">
        <time>2022-07-10T17:38:57Z</time>
      </trkpt>
      <trkpt lat="41.696426" lon="2.8383417">
        <time>2022-07-10T17:38:59Z</time>
      </trkpt>
      <trkpt lat="41.69646" lon="2.8384178">
        <time>2022-07-10T17:39:02Z</time>
      </trkpt>
      <trkpt lat="41.6965" lon="2.8384948">
        <time>2022-07-10T17:39:05Z</time>
      </trkpt>
      <trkpt lat="41.696533" lon="2.838571">
        <time>2022-07-10T17:39:08Z</time>
      </trkpt>
      <trkpt lat="41.69657" lon="2.8386455">
        <time>2022-07-10T17:39:11Z</time>
      </trkpt>
      <trkpt lat="41.696613" lon="2.83872">
        <time>2022-07-10T17:39:14Z</time>
      </trkpt>
      <trkpt lat="41.69664" lon="2.838771">
        <time>2022-07-10T17:39:16Z</time>
      </trkpt>
      <trkpt lat="41.696682" lon="2.8388484">
        <time>2022-07-10T17:39:19Z</time>
      </trkpt>
      <trkpt lat="41.696705" lon="2.8389006">
        <time>2022-07-10T17:39:21Z</time>
      </trkpt>
      <trkpt lat="41.696743" lon="2.838973">
        <time>2022-07-10T17:39:24Z</time>
      </trkpt>
      <trkpt lat="41.696777" lon="2.8390481">
        <time>2022-07-10T17:39:27Z</time>
      </trkpt>
      <trkpt lat="41.69681" lon="2.8391278">
        <time>2022-07-10T17:39:30Z</time>
      </trkpt>
      <trkpt lat="41.696842" lon="2.8392074">
        <time>2022-07-10T17:39:33Z</time>
      </trkpt>
      <trkpt lat="41.696877" lon="2.8392875">
        <time>2022-07-10T17:39:36Z</time>
      </trkpt>
      <trkpt lat="41.69691" lon="2.8393629">
        <time>2022-07-10T17:39:39Z</time>
      </trkpt>
      <trkpt lat="41.696938" lon="2.8394327">
        <time>2022-07-10T17:39:42Z</time>
      </trkpt>
      <trkpt lat="41.69697" lon="2.8394885">
        <time>2022-07-10T17:39:45Z</time>
      </trkpt>
      <trkpt lat="41.697014" lon="2.8395557">
        <time>2022-07-10T17:39:49Z</time>
      </trkpt>
      <trkpt lat="41.697044" lon="2.8396103">
        <time>2022-07-10T17:39:52Z</time>
      </trkpt>
      <trkpt lat="41.69708" lon="2.8396673">
        <time>2022-07-10T17:39:55Z</time>
      </trkpt>
      <trkpt lat="41.69711" lon="2.839724">
        <time>2022-07-10T17:39:58Z</time>
      </trkpt>
      <trkpt lat="41.697144" lon="2.8398042">
        <time>2022-07-10T17:40:02Z</time>
      </trkpt>
      <trkpt lat="41.697178" lon="2.8398862">
        <time>2022-07-10T17:40:06Z</time>
      </trkpt>
      <trkpt lat="41.697205" lon="2.8399537">
        <time>2022-07-10T17:40:09Z</time>
      </trkpt>
      <trkpt lat="41.697235" lon="2.840018">
        <time>2022-07-10T17:40:12Z</time>
      </trkpt>
      <trkpt lat="41.697273" lon="2.8400865">
        <time>2022-07-10T17:40:15Z</time>
      </trkpt>
      <trkpt lat="41.697308" lon="2.8401563">
        <time>2022-07-10T17:40:18Z</time>
      </trkpt>
      <trkpt lat="41.697334" lon="2.8402283">
        <time>2022-07-10T17:40:21Z</time>
      </trkpt>
      <trkpt lat="41.69735" lon="2.840302">
        <time>2022-07-10T17:40:24Z</time>
      </trkpt>
      <trkpt lat="41.697353" lon="2.8403752">
        <time>2022-07-10T17:40:27Z</time>
      </trkpt>
      <trkpt lat="41.697353" lon="2.8404634">
        <time>2022-07-10T17:40:30Z</time>
      </trkpt>
      <trkpt lat="41.69736" lon="2.8405738">
        <time>2022-07-10T17:40:33Z</time>
      </trkpt>
      <trkpt lat="41.697365" lon="2.840665">
        <time>2022-07-10T17:40:35Z</time>
      </trkpt>
      <trkpt lat="41.697365" lon="2.8407657">
        <time>2022-07-10T17:40:37Z</time>
      </trkpt>
      <trkpt lat="41.69737" lon="2.8408701">
        <time>2022-07-10T17:40:39Z</time>
      </trkpt>
      <trkpt lat="41.697372" lon="2.8409815">
        <time>2022-07-10T17:40:41Z</time>
      </trkpt>
      <trkpt lat="41.697384" lon="2.841105">
        <time>2022-07-10T17:40:43Z</time>
      </trkpt>
      <trkpt lat="41.69741" lon="2.8412294">
        <time>2022-07-10T17:40:45Z</time>
      </trkpt>
      <trkpt lat="41.69743" lon="2.8412898">
        <time>2022-07-10T17:40:46Z</time>
      </trkpt>
      <trkpt lat="41.69748" lon="2.8414133">
        <time>2022-07-10T17:40:48Z</time>
      </trkpt>
      <trkpt lat="41.697514" lon="2.8414764">
        <time>2022-07-10T17:40:49Z</time>
      </trkpt>
      <trkpt lat="41.697548" lon="2.841541">
        <time>2022-07-10T17:40:50Z</time>
      </trkpt>
      <trkpt lat="41.697586" lon="2.841606">
        <time>2022-07-10T17:40:51Z</time>
      </trkpt>
      <trkpt lat="41.697628" lon="2.8416758">
        <time>2022-07-10T17:40:52Z</time>
      </trkpt>
      <trkpt lat="41.69767" lon="2.841744">
        <time>2022-07-10T17:40:53Z</time>
      </trkpt>
      <trkpt lat="41.697704" lon="2.8418126">
        <time>2022-07-10T17:40:54Z</time>
      </trkpt>
      <trkpt lat="41.69774" lon="2.841883">
        <time>2022-07-10T17:40:55Z</time>
      </trkpt>
      <trkpt lat="41.697765" lon="2.841954">
        <time>2022-07-10T17:40:56Z</time>
      </trkpt>
      <trkpt lat="41.697784" lon="2.8420253">
        <time>2022-07-10T17:40:57Z</time>
      </trkpt>
      <trkpt lat="41.6978" lon="2.8420944">
        <time>2022-07-10T17:40:58Z</time>
      </trkpt>
      <trkpt lat="41.69781" lon="2.842156">
        <time>2022-07-10T17:40:59Z</time>
      </trkpt>
      <trkpt lat="41.697823" lon="2.842211">
        <time>2022-07-10T17:41:00Z</time>
      </trkpt>
      <trkpt lat="41.697838" lon="2.8423004">
        <time>2022-07-10T17:41:02Z</time>
      </trkpt>
      <trkpt lat="41.69785" lon="2.8423734">
        <time>2022-07-10T17:41:04Z</time>
      </trkpt>
      <trkpt lat="41.69786" lon="2.8424397">
        <time>2022-07-10T17:41:06Z</time>
      </trkpt>
      <trkpt lat="41.697865" lon="2.8425257">
        <time>2022-07-10T17:41:09Z</time>
      </trkpt>
      <trkpt lat="41.697872" lon="2.8425877">
        <time>2022-07-10T17:41:12Z</time>
      </trkpt>
      <trkpt lat="41.697906" lon="2.8426626">
        <time>2022-07-10T17:41:16Z</time>
      </trkpt>
      <trkpt lat="41.697933" lon="2.8427613">
        <time>2022-07-10T17:41:19Z</time>
      </trkpt>
      <trkpt lat="41.697945" lon="2.8428366">
        <time>2022-07-10T17:41:21Z</time>
      </trkpt>
      <trkpt lat="41.69796" lon="2.8429112">
        <time>2022-07-10T17:41:23Z</time>
      </trkpt>
      <trkpt lat="41.69798" lon="2.8429992">
        <time>2022-07-10T17:41:25Z</time>
      </trkpt>
      <trkpt lat="41.698" lon="2.8431046">
        <time>2022-07-10T17:41:27Z</time>
      </trkpt>
      <trkpt lat="41.69802" lon="2.8432157">
        <time>2022-07-10T17:41:29Z</time>
      </trkpt>
      <trkpt lat="41.698036" lon="2.8433163">
        <time>2022-07-10T17:41:31Z</time>
      </trkpt>
      <trkpt lat="41.69805" lon="2.8434227">
        <time>2022-07-10T17:41:33Z</time>
      </trkpt>
      <trkpt lat="41.698063" lon="2.8435256">
        <time>2022-07-10T17:41:35Z</time>
      </trkpt>
      <trkpt lat="41.69807" lon="2.8436139">
        <time>2022-07-10T17:41:37Z</time>
      </trkpt>
      <trkpt lat="41.69808" lon="2.843692">
        <time>2022-07-10T17:41:39Z</time>
      </trkpt>
      <trkpt lat="41.698086" lon="2.8437643">
        <time>2022-07-10T17:41:41Z</time>
      </trkpt>
      <trkpt lat="41.6981" lon="2.8438365">
        <time>2022-07-10T17:41:43Z</time>
      </trkpt>
      <trkpt lat="41.698128" lon="2.8439012">
        <time>2022-07-10T17:41:45Z</time>
      </trkpt>
      <trkpt lat="41.69816" lon="2.8439429">
        <time>2022-07-10T17:41:47Z</time>
      </trkpt>
      <trkpt lat="41.698196" lon="2.843971">
        <time>2022-07-10T17:41:51Z</time>
      </trkpt>
      <trkpt lat="41.698162" lon="2.8440442">
        <time>2022-07-10T17:41:56Z</time>
      </trkpt>
      <trkpt lat="41.69813" lon="2.8440917">
        <time>2022-07-10T17:41:59Z</time>
      </trkpt>
      <trkpt lat="41.69815" lon="2.8441703">
        <time>2022-07-10T17:42:04Z</time>
      </trkpt>
      <trkpt lat="41.698208" lon="2.844214">
        <time>2022-07-10T17:42:07Z</time>
      </trkpt>
      <trkpt lat="41.698273" lon="2.8442519">
        <time>2022-07-10T17:42:10Z</time>
      </trkpt>
      <trkpt lat="41.698326" lon="2.844286">
        <time>2022-07-10T17:42:13Z</time>
      </trkpt>
      <trkpt lat="41.698368" lon="2.8443315">
        <time>2022-07-10T17:42:16Z</time>
      </trkpt>
      <trkpt lat="41.698364" lon="2.8443985">
        <time>2022-07-10T17:42:46Z</time>
      </trkpt>
      <trkpt lat="41.6983" lon="2.844468">
        <time>2022-07-10T17:42:50Z</time>
      </trkpt>
      <trkpt lat="41.69823" lon="2.8445292">
        <time>2022-07-10T17:42:53Z</time>
      </trkpt>
      <trkpt lat="41.69818" lon="2.8445652">
        <time>2022-07-10T17:42:55Z</time>
      </trkpt>
      <trkpt lat="41.698128" lon="2.8446019">
        <time>2022-07-10T17:42:57Z</time>
      </trkpt>
      <trkpt lat="41.698074" lon="2.844643">
        <time>2022-07-10T17:42:59Z</time>
      </trkpt>
      <trkpt lat="41.69802" lon="2.844682">
        <time>2022-07-10T17:43:01Z</time>
      </trkpt>
      <trkpt lat="41.697983" lon="2.8447165">
        <time>2022-07-10T17:43:03Z</time>
      </trkpt>
      <trkpt lat="41.69794" lon="2.8447528">
        <time>2022-07-10T17:43:06Z</time>
      </trkpt>
      <trkpt lat="41.69788" lon="2.8447952">
        <time>2022-07-10T17:43:10Z</time>
      </trkpt>
      <trkpt lat="41.69781" lon="2.8448305">
        <time>2022-07-10T17:43:13Z</time>
      </trkpt>
      <trkpt lat="41.697758" lon="2.8448582">
        <time>2022-07-10T17:43:15Z</time>
      </trkpt>
      <trkpt lat="41.6977" lon="2.8449023">
        <time>2022-07-10T17:43:17Z</time>
      </trkpt>
      <trkpt lat="41.697628" lon="2.8449895">
        <time>2022-07-10T17:43:20Z</time>
      </trkpt>
      <trkpt lat="41.697605" lon="2.8450694">
        <time>2022-07-10T17:43:22Z</time>
      </trkpt>
      <trkpt lat="41.69761" lon="2.8451555">
        <time>2022-07-10T17:43:24Z</time>
      </trkpt>
      <trkpt lat="41.697628" lon="2.845246">
        <time>2022-07-10T17:43:26Z</time>
      </trkpt>
      <trkpt lat="41.697655" lon="2.845338">
        <time>2022-07-10T17:43:28Z</time>
      </trkpt>
      <trkpt lat="41.697685" lon="2.8454335">
        <time>2022-07-10T17:43:30Z</time>
      </trkpt>
      <trkpt lat="41.697716" lon="2.845532">
        <time>2022-07-10T17:43:32Z</time>
      </trkpt>
      <trkpt lat="41.69775" lon="2.8456333">
        <time>2022-07-10T17:43:34Z</time>
      </trkpt>
      <trkpt lat="41.697784" lon="2.8457382">
        <time>2022-07-10T17:43:36Z</time>
      </trkpt>
      <trkpt lat="41.69782" lon="2.8458421">
        <time>2022-07-10T17:43:38Z</time>
      </trkpt>
      <trkpt lat="41.69786" lon="2.8459392">
        <time>2022-07-10T17:43:40Z</time>
      </trkpt>
      <trkpt lat="41.6979" lon="2.8460386">
        <time>2022-07-10T17:43:42Z</time>
      </trkpt>
      <trkpt lat="41.697933" lon="2.8461378">
        <time>2022-07-10T17:43:44Z</time>
      </trkpt>
      <trkpt lat="41.697968" lon="2.8462365">
        <time>2022-07-10T17:43:46Z</time>
      </trkpt>
      <trkpt lat="41.698" lon="2.846336">
        <time>2022-07-10T17:43:48Z</time>
      </trkpt>
      <trkpt lat="41.698036" lon="2.8464382">
        <time>2022-07-10T17:43:50Z</time>
      </trkpt>
      <trkpt lat="41.698074" lon="2.8465462">
        <time>2022-07-10T17:43:52Z</time>
      </trkpt>
      <trkpt lat="41.698112" lon="2.846646">
        <time>2022-07-10T17:43:54Z</time>
      </trkpt>
      <trkpt lat="41.698147" lon="2.8467524">
        <time>2022-07-10T17:43:56Z</time>
      </trkpt>
      <trkpt lat="41.698185" lon="2.8468575">
        <time>2022-07-10T17:43:58Z</time>
      </trkpt>
      <trkpt lat="41.69822" lon="2.8469582">
        <time>2022-07-10T17:44:00Z</time>
      </trkpt>
      <trkpt lat="41.698254" lon="2.8470602">
        <time>2022-07-10T17:44:02Z</time>
      </trkpt>
      <trkpt lat="41.698288" lon="2.8471644">
        <time>2022-07-10T17:44:04Z</time>
      </trkpt>
      <trkpt lat="41.698326" lon="2.8472655">
        <time>2022-07-10T17:44:06Z</time>
      </trkpt>
      <trkpt lat="41.69836" lon="2.847367">
        <time>2022-07-10T17:44:08Z</time>
      </trkpt>
      <trkpt lat="41.698395" lon="2.8474672">
        <time>2022-07-10T17:44:10Z</time>
      </trkpt>
      <trkpt lat="41.698425" lon="2.847563">
        <time>2022-07-10T17:44:12Z</time>
      </trkpt>
      <trkpt lat="41.698463" lon="2.8476605">
        <time>2022-07-10T17:44:14Z</time>
      </trkpt>
      <trkpt lat="41.698505" lon="2.847757">
        <time>2022-07-10T17:44:16Z</time>
      </trkpt>
      <trkpt lat="41.69854" lon="2.847851">
        <time>2022-07-10T17:44:18Z</time>
      </trkpt>
      <trkpt lat="41.69857" lon="2.847947">
        <time>2022-07-10T17:44:20Z</time>
      </trkpt>
      <trkpt lat="41.6986" lon="2.8480475">
        <time>2022-07-10T17:44:22Z</time>
      </trkpt>
      <trkpt lat="41.69863" lon="2.8481507">
        <time>2022-07-10T17:44:24Z</time>
      </trkpt>
      <trkpt lat="41.698658" lon="2.8482575">
        <time>2022-07-10T17:44:26Z</time>
      </trkpt>
      <trkpt lat="41.69869" lon="2.848361">
        <time>2022-07-10T17:44:28Z</time>
      </trkpt>
      <trkpt lat="41.69872" lon="2.848464">
        <time>2022-07-10T17:44:30Z</time>
      </trkpt>
      <trkpt lat="41.698753" lon="2.8485649">
        <time>2022-07-10T17:44:32Z</time>
      </trkpt>
      <trkpt lat="41.698784" lon="2.848663">
        <time>2022-07-10T17:44:34Z</time>
      </trkpt>
      <trkpt lat="41.698814" lon="2.8487585">
        <time>2022-07-10T17:44:36Z</time>
      </trkpt>
      <trkpt lat="41.698845" lon="2.8488483">
        <time>2022-07-10T17:44:38Z</time>
      </trkpt>
      <trkpt lat="41.698875" lon="2.8489347">
        <time>2022-07-10T17:44:40Z</time>
      </trkpt>
      <trkpt lat="41.6989" lon="2.8490174">
        <time>2022-07-10T17:44:42Z</time>
      </trkpt>
      <trkpt lat="41.698917" lon="2.8490834">
        <time>2022-07-10T17:44:44Z</time>
      </trkpt>
      <trkpt lat="41.69893" lon="2.8491402">
        <time>2022-07-10T17:44:47Z</time>
      </trkpt>
      <trkpt lat="41.698986" lon="2.8491263">
        <time>2022-07-10T17:44:55Z</time>
      </trkpt>
      <trkpt lat="41.69904" lon="2.8491046">
        <time>2022-07-10T17:44:59Z</time>
      </trkpt>
      <trkpt lat="41.699093" lon="2.8491228">
        <time>2022-07-10T17:45:03Z</time>
      </trkpt>
      <trkpt lat="41.699142" lon="2.8491628">
        <time>2022-07-10T17:45:07Z</time>
      </trkpt>
      <trkpt lat="41.699192" lon="2.8491828">
        <time>2022-07-10T17:45:11Z</time>
      </trkpt>
      <trkpt lat="41.69924" lon="2.8491871">
        <time>2022-07-10T17:45:15Z</time>
      </trkpt>
      <trkpt lat="41.69929" lon="2.8491437">
        <time>2022-07-10T17:45:20Z</time>
      </trkpt>
      <trkpt lat="41.699314" lon="2.8491013">
        <time>2022-07-10T17:45:26Z</time>
      </trkpt>
      <trkpt lat="41.699345" lon="2.849169">
        <time>2022-07-10T17:45:39Z</time>
      </trkpt>
      <trkpt lat="41.69938" lon="2.8492286">
        <time>2022-07-10T17:45:43Z</time>
      </trkpt>
      <trkpt lat="41.699413" lon="2.849283">
        <time>2022-07-10T17:45:47Z</time>
      </trkpt>
      <trkpt lat="41.699463" lon="2.8493295">
        <time>2022-07-10T17:45:50Z</time>
      </trkpt>
      <trkpt lat="41.699493" lon="2.8494015">
        <time>2022-07-10T17:45:53Z</time>
      </trkpt>
      <trkpt lat="41.699512" lon="2.849487">
        <time>2022-07-10T17:45:56Z</time>
      </trkpt>
      <trkpt lat="41.699535" lon="2.8495793">
        <time>2022-07-10T17:45:59Z</time>
      </trkpt>
      <trkpt lat="41.699554" lon="2.8496284">
        <time>2022-07-10T17:46:02Z</time>
      </trkpt>
      <trkpt lat="41.699615" lon="2.849617">
        <time>2022-07-10T17:46:07Z</time>
      </trkpt>
      <trkpt lat="41.699673" lon="2.849598">
        <time>2022-07-10T17:46:10Z</time>
      </trkpt>
      <trkpt lat="41.699745" lon="2.8495781">
        <time>2022-07-10T17:46:13Z</time>
      </trkpt>
      <trkpt lat="41.699795" lon="2.8495657">
        <time>2022-07-10T17:46:15Z</time>
      </trkpt>
      <trkpt lat="41.69985" lon="2.8495665">
        <time>2022-07-10T17:46:17Z</time>
      </trkpt>
      <trkpt lat="41.6999" lon="2.8495533">
        <time>2022-07-10T17:46:19Z</time>
      </trkpt>
      <trkpt lat="41.699947" lon="2.849524">
        <time>2022-07-10T17:46:21Z</time>
      </trkpt>
      <trkpt lat="41.699986" lon="2.8495095">
        <time>2022-07-10T17:46:26Z</time>
      </trkpt>
      <trkpt lat="41.699974" lon="2.8494475">
        <time>2022-07-10T17:46:38Z</time>
      </trkpt>
      <trkpt lat="41.699963" lon="2.8493655">
        <time>2022-07-10T17:46:42Z</time>
      </trkpt>
      <trkpt lat="41.699963" lon="2.8492954">
        <time>2022-07-10T17:46:48Z</time>
      </trkpt>
      <trkpt lat="41.699993" lon="2.8492134">
        <time>2022-07-10T17:46:52Z</time>
      </trkpt>
      <trkpt lat="41.700043" lon="2.8491488">
        <time>2022-07-10T17:46:55Z</time>
      </trkpt>
      <trkpt lat="41.700085" lon="2.8491154">
        <time>2022-07-10T17:46:57Z</time>
      </trkpt>
      <trkpt lat="41.700127" lon="2.8490858">
        <time>2022-07-10T17:46:59Z</time>
      </trkpt>
      <trkpt lat="41.700176" lon="2.849039">
        <time>2022-07-10T17:47:02Z</time>
      </trkpt>
      <trkpt lat="41.70023" lon="2.849005">
        <time>2022-07-10T17:47:05Z</time>
      </trkpt>
      <trkpt lat="41.700275" lon="2.8489907">
        <time>2022-07-10T17:47:08Z</time>
      </trkpt>
      <trkpt lat="41.70032" lon="2.8490016">
        <time>2022-07-10T17:47:12Z</time>
      </trkpt>
      <trkpt lat="41.700317" lon="2.8490188">
        <time>2022-07-10T17:47:24Z</time>
      </trkpt>
      <trkpt lat="41.70034" lon="2.849008">
        <time>2022-07-10T17:47:33Z</time>
      </trkpt>
      <trkpt lat="41.70032" lon="2.8489678">
        <time>2022-07-10T17:47:37Z</time>
      </trkpt>
      <trkpt lat="41.70027" lon="2.848957">
        <time>2022-07-10T17:47:41Z</time>
      </trkpt>
      <trkpt lat="41.70026" lon="2.848906">
        <time>2022-07-10T17:47:46Z</time>
      </trkpt>
    </trkseg>
  </trk>
</gpx>
